<?xml version="1.0" encoding="UTF-8"?>
<gpx version="1.1" creator="https://www.youtrack.es" xsi:schemaLocation="http://www.topografix.com/GPX/1/1 http://www.topografix.com/GPX/1/1/gpx.xsd http://www.garmin.com/xmlschemas/GpxExtensions/v3 http://www.garmin.com/xmlschemas/GpxExtensionsv3.xsd http://www.garmin.com/xmlschemas/TrackPointExtension/v1 http://www.garmin.com/xmlschemas/TrackPointExtensionv1.xsd" xmlns:gpxtpx="http://www.garmin.com/xmlschemas/TrackPointExtension/v1" xmlns:gpxx="http://www.garmin.com/xmlschemas/GpxExtensions/v3" xmlns:xsi="http://www.w3.org/2001/XMLSchema-instance">
  <metadata>
    <link href="https://www.youtrack.es">
      <text>YouTrack.es</text>
    </link>
    <time>2026-05-08T02:15:26Z</time>
  </metadata>
  <trk>
    <src>https://www.youtrack.es</src>
    <link href="https://www.youtrack.es/ruta/17523-tenerife--gran-guanche-">
      <text>YouTrack.es</text>
    </link>
    <trkseg>
      <trkpt lat="28.4694650" lon="-16.2461530">
        <ele>27.0</ele>
        <time>2020-11-10T23:17:13Z</time>
      </trkpt>
      <trkpt lat="28.4694450" lon="-16.2461250">
        <ele>27.0</ele>
        <time>2020-11-10T23:17:14Z</time>
      </trkpt>
      <trkpt lat="28.4694450" lon="-16.2461250">
        <ele>27.0</ele>
        <time>2020-11-10T23:17:15Z</time>
      </trkpt>
      <trkpt lat="28.4693730" lon="-16.2461500">
        <ele>27.0</ele>
        <time>2020-11-10T23:17:16Z</time>
      </trkpt>
      <trkpt lat="28.4693320" lon="-16.2461670">
        <ele>27.0</ele>
        <time>2020-11-10T23:17:17Z</time>
      </trkpt>
      <trkpt lat="28.4693320" lon="-16.2461670">
        <ele>27.0</ele>
        <time>2020-11-10T23:17:18Z</time>
      </trkpt>
      <trkpt lat="28.4692500" lon="-16.2461870">
        <ele>27.0</ele>
        <time>2020-11-10T23:17:19Z</time>
      </trkpt>
      <trkpt lat="28.4692500" lon="-16.2461870">
        <ele>27.0</ele>
        <time>2020-11-10T23:17:20Z</time>
      </trkpt>
      <trkpt lat="28.4691630" lon="-16.2462080">
        <ele>27.0</ele>
        <time>2020-11-10T23:17:21Z</time>
      </trkpt>
      <trkpt lat="28.4691180" lon="-16.2462130">
        <ele>27.0</ele>
        <time>2020-11-10T23:17:22Z</time>
      </trkpt>
      <trkpt lat="28.4691180" lon="-16.2462130">
        <ele>27.0</ele>
        <time>2020-11-10T23:17:23Z</time>
      </trkpt>
      <trkpt lat="28.4690330" lon="-16.2462200">
        <ele>27.0</ele>
        <time>2020-11-10T23:17:24Z</time>
      </trkpt>
      <trkpt lat="28.4689970" lon="-16.2462220">
        <ele>27.0</ele>
        <time>2020-11-10T23:17:25Z</time>
      </trkpt>
      <trkpt lat="28.4689970" lon="-16.2462220">
        <ele>27.0</ele>
        <time>2020-11-10T23:17:26Z</time>
      </trkpt>
      <trkpt lat="28.4689350" lon="-16.2462320">
        <ele>27.0</ele>
        <time>2020-11-10T23:17:27Z</time>
      </trkpt>
      <trkpt lat="28.4688980" lon="-16.2462400">
        <ele>27.0</ele>
        <time>2020-11-10T23:17:28Z</time>
      </trkpt>
      <trkpt lat="28.4688650" lon="-16.2462480">
        <ele>27.0</ele>
        <time>2020-11-10T23:17:29Z</time>
      </trkpt>
      <trkpt lat="28.4688650" lon="-16.2462480">
        <ele>27.0</ele>
        <time>2020-11-10T23:17:30Z</time>
      </trkpt>
      <trkpt lat="28.4687850" lon="-16.2462700">
        <ele>27.0</ele>
        <time>2020-11-10T23:17:31Z</time>
      </trkpt>
      <trkpt lat="28.4687450" lon="-16.2462850">
        <ele>27.0</ele>
        <time>2020-11-10T23:17:32Z</time>
      </trkpt>
      <trkpt lat="28.4687450" lon="-16.2462850">
        <ele>27.0</ele>
        <time>2020-11-10T23:17:33Z</time>
      </trkpt>
      <trkpt lat="28.4686770" lon="-16.2463280">
        <ele>27.0</ele>
        <time>2020-11-10T23:17:34Z</time>
      </trkpt>
      <trkpt lat="28.4686770" lon="-16.2463280">
        <ele>27.0</ele>
        <time>2020-11-10T23:17:35Z</time>
      </trkpt>
      <trkpt lat="28.4686770" lon="-16.2463280">
        <ele>27.0</ele>
        <time>2020-11-10T23:17:36Z</time>
      </trkpt>
      <trkpt lat="28.4686030" lon="-16.2464170">
        <ele>27.0</ele>
        <time>2020-11-10T23:17:37Z</time>
      </trkpt>
      <trkpt lat="28.4686030" lon="-16.2464170">
        <ele>27.0</ele>
        <time>2020-11-10T23:17:38Z</time>
      </trkpt>
      <trkpt lat="28.4685830" lon="-16.2464750">
        <ele>27.0</ele>
        <time>2020-11-10T23:17:39Z</time>
      </trkpt>
      <trkpt lat="28.4685830" lon="-16.2464750">
        <ele>27.0</ele>
        <time>2020-11-10T23:17:40Z</time>
      </trkpt>
      <trkpt lat="28.4685900" lon="-16.2465380">
        <ele>27.0</ele>
        <time>2020-11-10T23:17:41Z</time>
      </trkpt>
      <trkpt lat="28.4685900" lon="-16.2465380">
        <ele>26.0</ele>
        <time>2020-11-10T23:17:42Z</time>
      </trkpt>
      <trkpt lat="28.4686220" lon="-16.2466020">
        <ele>26.0</ele>
        <time>2020-11-10T23:17:43Z</time>
      </trkpt>
      <trkpt lat="28.4686220" lon="-16.2466020">
        <ele>26.0</ele>
        <time>2020-11-10T23:17:44Z</time>
      </trkpt>
      <trkpt lat="28.4686670" lon="-16.2466480">
        <ele>26.0</ele>
        <time>2020-11-10T23:17:45Z</time>
      </trkpt>
      <trkpt lat="28.4686670" lon="-16.2466480">
        <ele>26.0</ele>
        <time>2020-11-10T23:17:46Z</time>
      </trkpt>
      <trkpt lat="28.4687150" lon="-16.2466930">
        <ele>26.0</ele>
        <time>2020-11-10T23:17:47Z</time>
      </trkpt>
      <trkpt lat="28.4687150" lon="-16.2466930">
        <ele>26.0</ele>
        <time>2020-11-10T23:17:48Z</time>
      </trkpt>
      <trkpt lat="28.4687680" lon="-16.2467430">
        <ele>26.0</ele>
        <time>2020-11-10T23:17:49Z</time>
      </trkpt>
      <trkpt lat="28.4687680" lon="-16.2467430">
        <ele>26.0</ele>
        <time>2020-11-10T23:17:50Z</time>
      </trkpt>
      <trkpt lat="28.4688280" lon="-16.2468020">
        <ele>26.0</ele>
        <time>2020-11-10T23:17:51Z</time>
      </trkpt>
      <trkpt lat="28.4688610" lon="-16.2468130">
        <ele>26.0</ele>
        <time>2020-11-10T23:17:52Z</time>
      </trkpt>
      <trkpt lat="28.4688950" lon="-16.2468240">
        <ele>26.0</ele>
        <time>2020-11-10T23:17:53Z</time>
      </trkpt>
      <trkpt lat="28.4689280" lon="-16.2468350">
        <ele>26.0</ele>
        <time>2020-11-10T23:17:54Z</time>
      </trkpt>
      <trkpt lat="28.4689620" lon="-16.2468460">
        <ele>26.0</ele>
        <time>2020-11-10T23:17:55Z</time>
      </trkpt>
      <trkpt lat="28.4689950" lon="-16.2468570">
        <ele>26.0</ele>
        <time>2020-11-10T23:17:56Z</time>
      </trkpt>
      <trkpt lat="28.4690290" lon="-16.2468680">
        <ele>26.0</ele>
        <time>2020-11-10T23:17:57Z</time>
      </trkpt>
      <trkpt lat="28.4690620" lon="-16.2468790">
        <ele>26.0</ele>
        <time>2020-11-10T23:17:58Z</time>
      </trkpt>
      <trkpt lat="28.4690950" lon="-16.2468900">
        <ele>26.0</ele>
        <time>2020-11-10T23:17:59Z</time>
      </trkpt>
      <trkpt lat="28.4691290" lon="-16.2469010">
        <ele>26.0</ele>
        <time>2020-11-10T23:18:00Z</time>
      </trkpt>
      <trkpt lat="28.4691620" lon="-16.2469110">
        <ele>26.0</ele>
        <time>2020-11-10T23:18:01Z</time>
      </trkpt>
      <trkpt lat="28.4691960" lon="-16.2469220">
        <ele>26.0</ele>
        <time>2020-11-10T23:18:02Z</time>
      </trkpt>
      <trkpt lat="28.4692290" lon="-16.2469330">
        <ele>26.0</ele>
        <time>2020-11-10T23:18:03Z</time>
      </trkpt>
      <trkpt lat="28.4692620" lon="-16.2469440">
        <ele>26.0</ele>
        <time>2020-11-10T23:18:04Z</time>
      </trkpt>
      <trkpt lat="28.4692960" lon="-16.2469550">
        <ele>26.0</ele>
        <time>2020-11-10T23:18:05Z</time>
      </trkpt>
      <trkpt lat="28.4693290" lon="-16.2469660">
        <ele>26.0</ele>
        <time>2020-11-10T23:18:06Z</time>
      </trkpt>
      <trkpt lat="28.4693630" lon="-16.2469770">
        <ele>26.0</ele>
        <time>2020-11-10T23:18:07Z</time>
      </trkpt>
      <trkpt lat="28.4693960" lon="-16.2469880">
        <ele>26.0</ele>
        <time>2020-11-10T23:18:08Z</time>
      </trkpt>
      <trkpt lat="28.4694300" lon="-16.2469990">
        <ele>26.0</ele>
        <time>2020-11-10T23:18:09Z</time>
      </trkpt>
      <trkpt lat="28.4694630" lon="-16.2470100">
        <ele>26.0</ele>
        <time>2020-11-10T23:18:10Z</time>
      </trkpt>
      <trkpt lat="28.4695080" lon="-16.2470150">
        <ele>26.0</ele>
        <time>2020-11-10T23:18:11Z</time>
      </trkpt>
      <trkpt lat="28.4695530" lon="-16.2470200">
        <ele>26.0</ele>
        <time>2020-11-10T23:18:12Z</time>
      </trkpt>
      <trkpt lat="28.4696480" lon="-16.2470350">
        <ele>26.0</ele>
        <time>2020-11-10T23:18:13Z</time>
      </trkpt>
      <trkpt lat="28.4696950" lon="-16.2470370">
        <ele>26.0</ele>
        <time>2020-11-10T23:18:14Z</time>
      </trkpt>
      <trkpt lat="28.4696950" lon="-16.2470370">
        <ele>27.0</ele>
        <time>2020-11-10T23:18:15Z</time>
      </trkpt>
      <trkpt lat="28.4697880" lon="-16.2470420">
        <ele>27.0</ele>
        <time>2020-11-10T23:18:16Z</time>
      </trkpt>
      <trkpt lat="28.4697880" lon="-16.2470420">
        <ele>27.0</ele>
        <time>2020-11-10T23:18:17Z</time>
      </trkpt>
      <trkpt lat="28.4698800" lon="-16.2470450">
        <ele>27.0</ele>
        <time>2020-11-10T23:18:18Z</time>
      </trkpt>
      <trkpt lat="28.4699250" lon="-16.2470450">
        <ele>27.0</ele>
        <time>2020-11-10T23:18:19Z</time>
      </trkpt>
      <trkpt lat="28.4699250" lon="-16.2470450">
        <ele>27.0</ele>
        <time>2020-11-10T23:18:20Z</time>
      </trkpt>
      <trkpt lat="28.4700170" lon="-16.2470380">
        <ele>27.0</ele>
        <time>2020-11-10T23:18:21Z</time>
      </trkpt>
      <trkpt lat="28.4700170" lon="-16.2470380">
        <ele>27.0</ele>
        <time>2020-11-10T23:18:22Z</time>
      </trkpt>
      <trkpt lat="28.4701050" lon="-16.2470380">
        <ele>27.0</ele>
        <time>2020-11-10T23:18:23Z</time>
      </trkpt>
      <trkpt lat="28.4701050" lon="-16.2470380">
        <ele>27.0</ele>
        <time>2020-11-10T23:18:24Z</time>
      </trkpt>
      <trkpt lat="28.4701880" lon="-16.2470370">
        <ele>27.0</ele>
        <time>2020-11-10T23:18:25Z</time>
      </trkpt>
      <trkpt lat="28.4701880" lon="-16.2470370">
        <ele>27.0</ele>
        <time>2020-11-10T23:18:26Z</time>
      </trkpt>
      <trkpt lat="28.4702770" lon="-16.2470370">
        <ele>27.0</ele>
        <time>2020-11-10T23:18:27Z</time>
      </trkpt>
      <trkpt lat="28.4702770" lon="-16.2470370">
        <ele>27.0</ele>
        <time>2020-11-10T23:18:28Z</time>
      </trkpt>
      <trkpt lat="28.4703700" lon="-16.2470270">
        <ele>27.0</ele>
        <time>2020-11-10T23:18:29Z</time>
      </trkpt>
      <trkpt lat="28.4703700" lon="-16.2470270">
        <ele>27.0</ele>
        <time>2020-11-10T23:18:30Z</time>
      </trkpt>
      <trkpt lat="28.4704650" lon="-16.2470170">
        <ele>27.0</ele>
        <time>2020-11-10T23:18:31Z</time>
      </trkpt>
      <trkpt lat="28.4704650" lon="-16.2470170">
        <ele>27.0</ele>
        <time>2020-11-10T23:18:32Z</time>
      </trkpt>
      <trkpt lat="28.4705580" lon="-16.2470070">
        <ele>27.0</ele>
        <time>2020-11-10T23:18:33Z</time>
      </trkpt>
      <trkpt lat="28.4706030" lon="-16.2470050">
        <ele>27.0</ele>
        <time>2020-11-10T23:18:34Z</time>
      </trkpt>
      <trkpt lat="28.4706030" lon="-16.2470050">
        <ele>27.0</ele>
        <time>2020-11-10T23:18:35Z</time>
      </trkpt>
      <trkpt lat="28.4706900" lon="-16.2470020">
        <ele>27.0</ele>
        <time>2020-11-10T23:18:36Z</time>
      </trkpt>
      <trkpt lat="28.4707320" lon="-16.2469830">
        <ele>27.0</ele>
        <time>2020-11-10T23:18:37Z</time>
      </trkpt>
      <trkpt lat="28.4707320" lon="-16.2469830">
        <ele>27.0</ele>
        <time>2020-11-10T23:18:38Z</time>
      </trkpt>
      <trkpt lat="28.4708030" lon="-16.2469870">
        <ele>27.0</ele>
        <time>2020-11-10T23:18:39Z</time>
      </trkpt>
      <trkpt lat="28.4708030" lon="-16.2469870">
        <ele>27.0</ele>
        <time>2020-11-10T23:18:40Z</time>
      </trkpt>
      <trkpt lat="28.4708950" lon="-16.2469750">
        <ele>27.0</ele>
        <time>2020-11-10T23:18:41Z</time>
      </trkpt>
      <trkpt lat="28.4708950" lon="-16.2469750">
        <ele>27.0</ele>
        <time>2020-11-10T23:18:42Z</time>
      </trkpt>
      <trkpt lat="28.4709680" lon="-16.2469450">
        <ele>27.0</ele>
        <time>2020-11-10T23:18:43Z</time>
      </trkpt>
      <trkpt lat="28.4709680" lon="-16.2469450">
        <ele>27.0</ele>
        <time>2020-11-10T23:18:44Z</time>
      </trkpt>
      <trkpt lat="28.4710530" lon="-16.2469070">
        <ele>27.0</ele>
        <time>2020-11-10T23:18:45Z</time>
      </trkpt>
      <trkpt lat="28.4710530" lon="-16.2469070">
        <ele>27.0</ele>
        <time>2020-11-10T23:18:46Z</time>
      </trkpt>
      <trkpt lat="28.4711500" lon="-16.2468770">
        <ele>27.0</ele>
        <time>2020-11-10T23:18:47Z</time>
      </trkpt>
      <trkpt lat="28.4711500" lon="-16.2468770">
        <ele>27.0</ele>
        <time>2020-11-10T23:18:48Z</time>
      </trkpt>
      <trkpt lat="28.4712420" lon="-16.2468570">
        <ele>27.0</ele>
        <time>2020-11-10T23:18:49Z</time>
      </trkpt>
      <trkpt lat="28.4712420" lon="-16.2468570">
        <ele>27.0</ele>
        <time>2020-11-10T23:18:50Z</time>
      </trkpt>
      <trkpt lat="28.4713330" lon="-16.2468450">
        <ele>27.0</ele>
        <time>2020-11-10T23:18:51Z</time>
      </trkpt>
      <trkpt lat="28.4713330" lon="-16.2468450">
        <ele>27.0</ele>
        <time>2020-11-10T23:18:52Z</time>
      </trkpt>
      <trkpt lat="28.4714280" lon="-16.2468330">
        <ele>27.0</ele>
        <time>2020-11-10T23:18:53Z</time>
      </trkpt>
      <trkpt lat="28.4714280" lon="-16.2468330">
        <ele>27.0</ele>
        <time>2020-11-10T23:18:54Z</time>
      </trkpt>
      <trkpt lat="28.4715230" lon="-16.2468150">
        <ele>27.0</ele>
        <time>2020-11-10T23:18:55Z</time>
      </trkpt>
      <trkpt lat="28.4715230" lon="-16.2468150">
        <ele>27.0</ele>
        <time>2020-11-10T23:18:56Z</time>
      </trkpt>
      <trkpt lat="28.4716170" lon="-16.2467980">
        <ele>27.0</ele>
        <time>2020-11-10T23:18:57Z</time>
      </trkpt>
      <trkpt lat="28.4716170" lon="-16.2467980">
        <ele>27.0</ele>
        <time>2020-11-10T23:18:58Z</time>
      </trkpt>
      <trkpt lat="28.4717070" lon="-16.2467830">
        <ele>27.0</ele>
        <time>2020-11-10T23:18:59Z</time>
      </trkpt>
      <trkpt lat="28.4717070" lon="-16.2467830">
        <ele>27.0</ele>
        <time>2020-11-10T23:19:00Z</time>
      </trkpt>
      <trkpt lat="28.4718600" lon="-16.2466830">
        <ele>27.0</ele>
        <time>2020-11-10T23:19:01Z</time>
      </trkpt>
      <trkpt lat="28.4718600" lon="-16.2466830">
        <ele>27.0</ele>
        <time>2020-11-10T23:19:02Z</time>
      </trkpt>
      <trkpt lat="28.4719670" lon="-16.2466700">
        <ele>27.0</ele>
        <time>2020-11-10T23:19:03Z</time>
      </trkpt>
      <trkpt lat="28.4719670" lon="-16.2466700">
        <ele>27.0</ele>
        <time>2020-11-10T23:19:04Z</time>
      </trkpt>
      <trkpt lat="28.4720530" lon="-16.2466680">
        <ele>27.0</ele>
        <time>2020-11-10T23:19:05Z</time>
      </trkpt>
      <trkpt lat="28.4720530" lon="-16.2466680">
        <ele>27.0</ele>
        <time>2020-11-10T23:19:06Z</time>
      </trkpt>
      <trkpt lat="28.4721420" lon="-16.2466530">
        <ele>27.0</ele>
        <time>2020-11-10T23:19:07Z</time>
      </trkpt>
      <trkpt lat="28.4721420" lon="-16.2466530">
        <ele>27.0</ele>
        <time>2020-11-10T23:19:08Z</time>
      </trkpt>
      <trkpt lat="28.4722270" lon="-16.2466380">
        <ele>27.0</ele>
        <time>2020-11-10T23:19:09Z</time>
      </trkpt>
      <trkpt lat="28.4722270" lon="-16.2466380">
        <ele>27.0</ele>
        <time>2020-11-10T23:19:10Z</time>
      </trkpt>
      <trkpt lat="28.4723130" lon="-16.2466270">
        <ele>27.0</ele>
        <time>2020-11-10T23:19:11Z</time>
      </trkpt>
      <trkpt lat="28.4723130" lon="-16.2466270">
        <ele>27.0</ele>
        <time>2020-11-10T23:19:12Z</time>
      </trkpt>
      <trkpt lat="28.4724000" lon="-16.2466100">
        <ele>27.0</ele>
        <time>2020-11-10T23:19:13Z</time>
      </trkpt>
      <trkpt lat="28.4724000" lon="-16.2466100">
        <ele>27.0</ele>
        <time>2020-11-10T23:19:14Z</time>
      </trkpt>
      <trkpt lat="28.4724830" lon="-16.2465950">
        <ele>27.0</ele>
        <time>2020-11-10T23:19:15Z</time>
      </trkpt>
      <trkpt lat="28.4724830" lon="-16.2465950">
        <ele>27.0</ele>
        <time>2020-11-10T23:19:16Z</time>
      </trkpt>
      <trkpt lat="28.4725700" lon="-16.2465880">
        <ele>27.0</ele>
        <time>2020-11-10T23:19:17Z</time>
      </trkpt>
      <trkpt lat="28.4726120" lon="-16.2465850">
        <ele>27.0</ele>
        <time>2020-11-10T23:19:18Z</time>
      </trkpt>
      <trkpt lat="28.4726120" lon="-16.2465850">
        <ele>27.0</ele>
        <time>2020-11-10T23:19:19Z</time>
      </trkpt>
      <trkpt lat="28.4726930" lon="-16.2465770">
        <ele>27.0</ele>
        <time>2020-11-10T23:19:20Z</time>
      </trkpt>
      <trkpt lat="28.4726930" lon="-16.2465770">
        <ele>27.0</ele>
        <time>2020-11-10T23:19:21Z</time>
      </trkpt>
      <trkpt lat="28.4727780" lon="-16.2465680">
        <ele>27.0</ele>
        <time>2020-11-10T23:19:22Z</time>
      </trkpt>
      <trkpt lat="28.4728180" lon="-16.2465670">
        <ele>27.0</ele>
        <time>2020-11-10T23:19:23Z</time>
      </trkpt>
      <trkpt lat="28.4728180" lon="-16.2465670">
        <ele>27.0</ele>
        <time>2020-11-10T23:19:24Z</time>
      </trkpt>
      <trkpt lat="28.4729020" lon="-16.2465570">
        <ele>27.0</ele>
        <time>2020-11-10T23:19:25Z</time>
      </trkpt>
      <trkpt lat="28.4729470" lon="-16.2465470">
        <ele>27.0</ele>
        <time>2020-11-10T23:19:26Z</time>
      </trkpt>
      <trkpt lat="28.4729470" lon="-16.2465470">
        <ele>27.0</ele>
        <time>2020-11-10T23:19:27Z</time>
      </trkpt>
      <trkpt lat="28.4730380" lon="-16.2465270">
        <ele>27.0</ele>
        <time>2020-11-10T23:19:28Z</time>
      </trkpt>
      <trkpt lat="28.4730380" lon="-16.2465270">
        <ele>27.0</ele>
        <time>2020-11-10T23:19:29Z</time>
      </trkpt>
      <trkpt lat="28.4731300" lon="-16.2465170">
        <ele>27.0</ele>
        <time>2020-11-10T23:19:30Z</time>
      </trkpt>
      <trkpt lat="28.4731730" lon="-16.2465100">
        <ele>27.0</ele>
        <time>2020-11-10T23:19:31Z</time>
      </trkpt>
      <trkpt lat="28.4731730" lon="-16.2465100">
        <ele>27.0</ele>
        <time>2020-11-10T23:19:32Z</time>
      </trkpt>
      <trkpt lat="28.4732620" lon="-16.2464880">
        <ele>27.0</ele>
        <time>2020-11-10T23:19:33Z</time>
      </trkpt>
      <trkpt lat="28.4732620" lon="-16.2464880">
        <ele>27.0</ele>
        <time>2020-11-10T23:19:34Z</time>
      </trkpt>
      <trkpt lat="28.4733350" lon="-16.2464900">
        <ele>27.0</ele>
        <time>2020-11-10T23:19:35Z</time>
      </trkpt>
      <trkpt lat="28.4733770" lon="-16.2464880">
        <ele>27.0</ele>
        <time>2020-11-10T23:19:36Z</time>
      </trkpt>
      <trkpt lat="28.4734250" lon="-16.2464770">
        <ele>27.0</ele>
        <time>2020-11-10T23:19:37Z</time>
      </trkpt>
      <trkpt lat="28.4734250" lon="-16.2464770">
        <ele>27.0</ele>
        <time>2020-11-10T23:19:38Z</time>
      </trkpt>
      <trkpt lat="28.4735170" lon="-16.2464600">
        <ele>27.0</ele>
        <time>2020-11-10T23:19:39Z</time>
      </trkpt>
      <trkpt lat="28.4735170" lon="-16.2464600">
        <ele>27.0</ele>
        <time>2020-11-10T23:19:40Z</time>
      </trkpt>
      <trkpt lat="28.4736020" lon="-16.2464500">
        <ele>27.0</ele>
        <time>2020-11-10T23:19:41Z</time>
      </trkpt>
      <trkpt lat="28.4736450" lon="-16.2464450">
        <ele>27.0</ele>
        <time>2020-11-10T23:19:42Z</time>
      </trkpt>
      <trkpt lat="28.4736930" lon="-16.2464370">
        <ele>27.0</ele>
        <time>2020-11-10T23:19:43Z</time>
      </trkpt>
      <trkpt lat="28.4736930" lon="-16.2464370">
        <ele>27.0</ele>
        <time>2020-11-10T23:19:44Z</time>
      </trkpt>
      <trkpt lat="28.4737880" lon="-16.2464180">
        <ele>27.0</ele>
        <time>2020-11-10T23:19:45Z</time>
      </trkpt>
      <trkpt lat="28.4737880" lon="-16.2464180">
        <ele>27.0</ele>
        <time>2020-11-10T23:19:46Z</time>
      </trkpt>
      <trkpt lat="28.4738370" lon="-16.2464080">
        <ele>27.0</ele>
        <time>2020-11-10T23:19:47Z</time>
      </trkpt>
      <trkpt lat="28.4739300" lon="-16.2463950">
        <ele>27.0</ele>
        <time>2020-11-10T23:19:48Z</time>
      </trkpt>
      <trkpt lat="28.4739770" lon="-16.2463900">
        <ele>27.0</ele>
        <time>2020-11-10T23:19:49Z</time>
      </trkpt>
      <trkpt lat="28.4739770" lon="-16.2463900">
        <ele>27.0</ele>
        <time>2020-11-10T23:19:50Z</time>
      </trkpt>
      <trkpt lat="28.4740680" lon="-16.2463820">
        <ele>27.0</ele>
        <time>2020-11-10T23:19:51Z</time>
      </trkpt>
      <trkpt lat="28.4741150" lon="-16.2463720">
        <ele>27.0</ele>
        <time>2020-11-10T23:19:52Z</time>
      </trkpt>
      <trkpt lat="28.4741150" lon="-16.2463720">
        <ele>27.0</ele>
        <time>2020-11-10T23:19:53Z</time>
      </trkpt>
      <trkpt lat="28.4742070" lon="-16.2463550">
        <ele>27.0</ele>
        <time>2020-11-10T23:19:54Z</time>
      </trkpt>
      <trkpt lat="28.4742070" lon="-16.2463550">
        <ele>27.0</ele>
        <time>2020-11-10T23:19:55Z</time>
      </trkpt>
      <trkpt lat="28.4742970" lon="-16.2463370">
        <ele>27.0</ele>
        <time>2020-11-10T23:19:56Z</time>
      </trkpt>
      <trkpt lat="28.4742970" lon="-16.2463370">
        <ele>27.0</ele>
        <time>2020-11-10T23:19:57Z</time>
      </trkpt>
      <trkpt lat="28.4743830" lon="-16.2463230">
        <ele>27.0</ele>
        <time>2020-11-10T23:19:58Z</time>
      </trkpt>
      <trkpt lat="28.4743830" lon="-16.2463230">
        <ele>27.0</ele>
        <time>2020-11-10T23:19:59Z</time>
      </trkpt>
      <trkpt lat="28.4744750" lon="-16.2463100">
        <ele>27.0</ele>
        <time>2020-11-10T23:20:00Z</time>
      </trkpt>
      <trkpt lat="28.4745180" lon="-16.2463050">
        <ele>27.0</ele>
        <time>2020-11-10T23:20:01Z</time>
      </trkpt>
      <trkpt lat="28.4745630" lon="-16.2462970">
        <ele>27.0</ele>
        <time>2020-11-10T23:20:02Z</time>
      </trkpt>
      <trkpt lat="28.4746080" lon="-16.2462880">
        <ele>27.0</ele>
        <time>2020-11-10T23:20:03Z</time>
      </trkpt>
      <trkpt lat="28.4746080" lon="-16.2462880">
        <ele>27.0</ele>
        <time>2020-11-10T23:20:04Z</time>
      </trkpt>
      <trkpt lat="28.4746080" lon="-16.2462880">
        <ele>27.0</ele>
        <time>2020-11-10T23:20:05Z</time>
      </trkpt>
      <trkpt lat="28.4747330" lon="-16.2462600">
        <ele>27.0</ele>
        <time>2020-11-10T23:20:06Z</time>
      </trkpt>
      <trkpt lat="28.4747330" lon="-16.2462600">
        <ele>27.0</ele>
        <time>2020-11-10T23:20:07Z</time>
      </trkpt>
      <trkpt lat="28.4747680" lon="-16.2462420">
        <ele>27.0</ele>
        <time>2020-11-10T23:20:08Z</time>
      </trkpt>
      <trkpt lat="28.4748320" lon="-16.2462370">
        <ele>27.0</ele>
        <time>2020-11-10T23:20:09Z</time>
      </trkpt>
      <trkpt lat="28.4748320" lon="-16.2462370">
        <ele>27.0</ele>
        <time>2020-11-10T23:20:10Z</time>
      </trkpt>
      <trkpt lat="28.4749200" lon="-16.2462220">
        <ele>27.0</ele>
        <time>2020-11-10T23:20:11Z</time>
      </trkpt>
      <trkpt lat="28.4749620" lon="-16.2462080">
        <ele>27.0</ele>
        <time>2020-11-10T23:20:12Z</time>
      </trkpt>
      <trkpt lat="28.4750070" lon="-16.2461930">
        <ele>27.0</ele>
        <time>2020-11-10T23:20:13Z</time>
      </trkpt>
      <trkpt lat="28.4750070" lon="-16.2461930">
        <ele>27.0</ele>
        <time>2020-11-10T23:20:14Z</time>
      </trkpt>
      <trkpt lat="28.4751000" lon="-16.2461500">
        <ele>27.0</ele>
        <time>2020-11-10T23:20:15Z</time>
      </trkpt>
      <trkpt lat="28.4751470" lon="-16.2461300">
        <ele>27.0</ele>
        <time>2020-11-10T23:20:16Z</time>
      </trkpt>
      <trkpt lat="28.4751470" lon="-16.2461300">
        <ele>27.0</ele>
        <time>2020-11-10T23:20:17Z</time>
      </trkpt>
      <trkpt lat="28.4752370" lon="-16.2460920">
        <ele>27.0</ele>
        <time>2020-11-10T23:20:18Z</time>
      </trkpt>
      <trkpt lat="28.4752370" lon="-16.2460920">
        <ele>27.0</ele>
        <time>2020-11-10T23:20:19Z</time>
      </trkpt>
      <trkpt lat="28.4753220" lon="-16.2460480">
        <ele>27.0</ele>
        <time>2020-11-10T23:20:20Z</time>
      </trkpt>
      <trkpt lat="28.4753220" lon="-16.2460480">
        <ele>27.0</ele>
        <time>2020-11-10T23:20:21Z</time>
      </trkpt>
      <trkpt lat="28.4753950" lon="-16.2460120">
        <ele>27.0</ele>
        <time>2020-11-10T23:20:22Z</time>
      </trkpt>
      <trkpt lat="28.4753950" lon="-16.2460120">
        <ele>27.0</ele>
        <time>2020-11-10T23:20:23Z</time>
      </trkpt>
      <trkpt lat="28.4754670" lon="-16.2459720">
        <ele>27.0</ele>
        <time>2020-11-10T23:20:24Z</time>
      </trkpt>
      <trkpt lat="28.4754670" lon="-16.2459720">
        <ele>27.0</ele>
        <time>2020-11-10T23:20:25Z</time>
      </trkpt>
      <trkpt lat="28.4755430" lon="-16.2459400">
        <ele>27.0</ele>
        <time>2020-11-10T23:20:26Z</time>
      </trkpt>
      <trkpt lat="28.4755430" lon="-16.2459400">
        <ele>27.0</ele>
        <time>2020-11-10T23:20:27Z</time>
      </trkpt>
      <trkpt lat="28.4756300" lon="-16.2459030">
        <ele>27.0</ele>
        <time>2020-11-10T23:20:28Z</time>
      </trkpt>
      <trkpt lat="28.4756300" lon="-16.2459030">
        <ele>27.0</ele>
        <time>2020-11-10T23:20:29Z</time>
      </trkpt>
      <trkpt lat="28.4757120" lon="-16.2458600">
        <ele>27.0</ele>
        <time>2020-11-10T23:20:30Z</time>
      </trkpt>
      <trkpt lat="28.4757530" lon="-16.2458370">
        <ele>27.0</ele>
        <time>2020-11-10T23:20:31Z</time>
      </trkpt>
      <trkpt lat="28.4757530" lon="-16.2458370">
        <ele>27.0</ele>
        <time>2020-11-10T23:20:32Z</time>
      </trkpt>
      <trkpt lat="28.4758280" lon="-16.2457880">
        <ele>27.0</ele>
        <time>2020-11-10T23:20:33Z</time>
      </trkpt>
      <trkpt lat="28.4758280" lon="-16.2457880">
        <ele>27.0</ele>
        <time>2020-11-10T23:20:34Z</time>
      </trkpt>
      <trkpt lat="28.4759070" lon="-16.2457380">
        <ele>27.0</ele>
        <time>2020-11-10T23:20:35Z</time>
      </trkpt>
      <trkpt lat="28.4759070" lon="-16.2457380">
        <ele>27.0</ele>
        <time>2020-11-10T23:20:36Z</time>
      </trkpt>
      <trkpt lat="28.4759870" lon="-16.2456880">
        <ele>27.0</ele>
        <time>2020-11-10T23:20:37Z</time>
      </trkpt>
      <trkpt lat="28.4759870" lon="-16.2456880">
        <ele>27.0</ele>
        <time>2020-11-10T23:20:38Z</time>
      </trkpt>
      <trkpt lat="28.4760500" lon="-16.2456420">
        <ele>27.0</ele>
        <time>2020-11-10T23:20:39Z</time>
      </trkpt>
      <trkpt lat="28.4760850" lon="-16.2456150">
        <ele>27.0</ele>
        <time>2020-11-10T23:20:40Z</time>
      </trkpt>
      <trkpt lat="28.4761270" lon="-16.2455870">
        <ele>27.0</ele>
        <time>2020-11-10T23:20:41Z</time>
      </trkpt>
      <trkpt lat="28.4761270" lon="-16.2455870">
        <ele>27.0</ele>
        <time>2020-11-10T23:20:42Z</time>
      </trkpt>
      <trkpt lat="28.4762070" lon="-16.2455300">
        <ele>27.0</ele>
        <time>2020-11-10T23:20:43Z</time>
      </trkpt>
      <trkpt lat="28.4762070" lon="-16.2455300">
        <ele>27.0</ele>
        <time>2020-11-10T23:20:44Z</time>
      </trkpt>
      <trkpt lat="28.4762750" lon="-16.2454720">
        <ele>27.0</ele>
        <time>2020-11-10T23:20:45Z</time>
      </trkpt>
      <trkpt lat="28.4762750" lon="-16.2454720">
        <ele>27.0</ele>
        <time>2020-11-10T23:20:46Z</time>
      </trkpt>
      <trkpt lat="28.4763420" lon="-16.2454220">
        <ele>27.0</ele>
        <time>2020-11-10T23:20:47Z</time>
      </trkpt>
      <trkpt lat="28.4763750" lon="-16.2453980">
        <ele>27.0</ele>
        <time>2020-11-10T23:20:48Z</time>
      </trkpt>
      <trkpt lat="28.4764200" lon="-16.2453650">
        <ele>27.0</ele>
        <time>2020-11-10T23:20:49Z</time>
      </trkpt>
      <trkpt lat="28.4764200" lon="-16.2453650">
        <ele>27.0</ele>
        <time>2020-11-10T23:20:50Z</time>
      </trkpt>
      <trkpt lat="28.4764900" lon="-16.2453030">
        <ele>27.0</ele>
        <time>2020-11-10T23:20:51Z</time>
      </trkpt>
      <trkpt lat="28.4765220" lon="-16.2452730">
        <ele>27.0</ele>
        <time>2020-11-10T23:20:52Z</time>
      </trkpt>
      <trkpt lat="28.4765220" lon="-16.2452730">
        <ele>27.0</ele>
        <time>2020-11-10T23:20:53Z</time>
      </trkpt>
      <trkpt lat="28.4765920" lon="-16.2452050">
        <ele>27.0</ele>
        <time>2020-11-10T23:20:54Z</time>
      </trkpt>
      <trkpt lat="28.4766270" lon="-16.2451730">
        <ele>27.0</ele>
        <time>2020-11-10T23:20:55Z</time>
      </trkpt>
      <trkpt lat="28.4766270" lon="-16.2451730">
        <ele>27.0</ele>
        <time>2020-11-10T23:20:56Z</time>
      </trkpt>
      <trkpt lat="28.4766920" lon="-16.2451030">
        <ele>27.0</ele>
        <time>2020-11-10T23:20:57Z</time>
      </trkpt>
      <trkpt lat="28.4766920" lon="-16.2451030">
        <ele>27.0</ele>
        <time>2020-11-10T23:20:58Z</time>
      </trkpt>
      <trkpt lat="28.4767520" lon="-16.2450300">
        <ele>27.0</ele>
        <time>2020-11-10T23:20:59Z</time>
      </trkpt>
      <trkpt lat="28.4767520" lon="-16.2450300">
        <ele>27.0</ele>
        <time>2020-11-10T23:21:00Z</time>
      </trkpt>
      <trkpt lat="28.4768100" lon="-16.2449600">
        <ele>27.0</ele>
        <time>2020-11-10T23:21:01Z</time>
      </trkpt>
      <trkpt lat="28.4768330" lon="-16.2449250">
        <ele>27.0</ele>
        <time>2020-11-10T23:21:02Z</time>
      </trkpt>
      <trkpt lat="28.4768330" lon="-16.2449250">
        <ele>27.0</ele>
        <time>2020-11-10T23:21:03Z</time>
      </trkpt>
      <trkpt lat="28.4768800" lon="-16.2448580">
        <ele>27.0</ele>
        <time>2020-11-10T23:21:04Z</time>
      </trkpt>
      <trkpt lat="28.4768800" lon="-16.2448580">
        <ele>27.0</ele>
        <time>2020-11-10T23:21:05Z</time>
      </trkpt>
      <trkpt lat="28.4769330" lon="-16.2447830">
        <ele>27.0</ele>
        <time>2020-11-10T23:21:06Z</time>
      </trkpt>
      <trkpt lat="28.4769580" lon="-16.2447450">
        <ele>27.0</ele>
        <time>2020-11-10T23:21:07Z</time>
      </trkpt>
      <trkpt lat="28.4769580" lon="-16.2447450">
        <ele>27.0</ele>
        <time>2020-11-10T23:21:08Z</time>
      </trkpt>
      <trkpt lat="28.4770170" lon="-16.2446680">
        <ele>27.0</ele>
        <time>2020-11-10T23:21:09Z</time>
      </trkpt>
      <trkpt lat="28.4770170" lon="-16.2446680">
        <ele>27.0</ele>
        <time>2020-11-10T23:21:10Z</time>
      </trkpt>
      <trkpt lat="28.4770750" lon="-16.2445920">
        <ele>27.0</ele>
        <time>2020-11-10T23:21:11Z</time>
      </trkpt>
      <trkpt lat="28.4770750" lon="-16.2445920">
        <ele>27.0</ele>
        <time>2020-11-10T23:21:12Z</time>
      </trkpt>
      <trkpt lat="28.4771380" lon="-16.2445200">
        <ele>27.0</ele>
        <time>2020-11-10T23:21:13Z</time>
      </trkpt>
      <trkpt lat="28.4771380" lon="-16.2445200">
        <ele>27.0</ele>
        <time>2020-11-10T23:21:14Z</time>
      </trkpt>
      <trkpt lat="28.4771970" lon="-16.2444530">
        <ele>27.0</ele>
        <time>2020-11-10T23:21:15Z</time>
      </trkpt>
      <trkpt lat="28.4772270" lon="-16.2444200">
        <ele>27.0</ele>
        <time>2020-11-10T23:21:16Z</time>
      </trkpt>
      <trkpt lat="28.4772550" lon="-16.2443870">
        <ele>27.0</ele>
        <time>2020-11-10T23:21:17Z</time>
      </trkpt>
      <trkpt lat="28.4772550" lon="-16.2443870">
        <ele>27.0</ele>
        <time>2020-11-10T23:21:18Z</time>
      </trkpt>
      <trkpt lat="28.4773100" lon="-16.2443200">
        <ele>27.0</ele>
        <time>2020-11-10T23:21:19Z</time>
      </trkpt>
      <trkpt lat="28.4773100" lon="-16.2443200">
        <ele>27.0</ele>
        <time>2020-11-10T23:21:20Z</time>
      </trkpt>
      <trkpt lat="28.4773650" lon="-16.2442480">
        <ele>27.0</ele>
        <time>2020-11-10T23:21:21Z</time>
      </trkpt>
      <trkpt lat="28.4773650" lon="-16.2442480">
        <ele>27.0</ele>
        <time>2020-11-10T23:21:22Z</time>
      </trkpt>
      <trkpt lat="28.4774220" lon="-16.2441750">
        <ele>27.0</ele>
        <time>2020-11-10T23:21:23Z</time>
      </trkpt>
      <trkpt lat="28.4774220" lon="-16.2441750">
        <ele>27.0</ele>
        <time>2020-11-10T23:21:24Z</time>
      </trkpt>
      <trkpt lat="28.4774780" lon="-16.2441120">
        <ele>27.0</ele>
        <time>2020-11-10T23:21:25Z</time>
      </trkpt>
      <trkpt lat="28.4774780" lon="-16.2441120">
        <ele>27.0</ele>
        <time>2020-11-10T23:21:26Z</time>
      </trkpt>
      <trkpt lat="28.4775220" lon="-16.2440450">
        <ele>27.0</ele>
        <time>2020-11-10T23:21:27Z</time>
      </trkpt>
      <trkpt lat="28.4775220" lon="-16.2440450">
        <ele>27.0</ele>
        <time>2020-11-10T23:21:28Z</time>
      </trkpt>
      <trkpt lat="28.4775630" lon="-16.2439930">
        <ele>27.0</ele>
        <time>2020-11-10T23:21:29Z</time>
      </trkpt>
      <trkpt lat="28.4775630" lon="-16.2439930">
        <ele>27.0</ele>
        <time>2020-11-10T23:21:30Z</time>
      </trkpt>
      <trkpt lat="28.4776050" lon="-16.2439520">
        <ele>27.0</ele>
        <time>2020-11-10T23:21:31Z</time>
      </trkpt>
      <trkpt lat="28.4776050" lon="-16.2439520">
        <ele>27.0</ele>
        <time>2020-11-10T23:21:32Z</time>
      </trkpt>
      <trkpt lat="28.4776380" lon="-16.2439020">
        <ele>27.0</ele>
        <time>2020-11-10T23:21:33Z</time>
      </trkpt>
      <trkpt lat="28.4776380" lon="-16.2439020">
        <ele>27.0</ele>
        <time>2020-11-10T23:21:34Z</time>
      </trkpt>
      <trkpt lat="28.4776500" lon="-16.2438530">
        <ele>27.0</ele>
        <time>2020-11-10T23:21:35Z</time>
      </trkpt>
      <trkpt lat="28.4776500" lon="-16.2438530">
        <ele>27.0</ele>
        <time>2020-11-10T23:21:36Z</time>
      </trkpt>
      <trkpt lat="28.4776520" lon="-16.2438330">
        <ele>27.0</ele>
        <time>2020-11-10T23:21:37Z</time>
      </trkpt>
      <trkpt lat="28.4776520" lon="-16.2438330">
        <ele>27.0</ele>
        <time>2020-11-10T23:21:38Z</time>
      </trkpt>
      <trkpt lat="28.4776550" lon="-16.2438350">
        <ele>27.0</ele>
        <time>2020-11-10T23:21:39Z</time>
      </trkpt>
      <trkpt lat="28.4776750" lon="-16.2437880">
        <ele>27.0</ele>
        <time>2020-11-10T23:22:07Z</time>
      </trkpt>
      <trkpt lat="28.4776800" lon="-16.2437750">
        <ele>27.0</ele>
        <time>2020-11-10T23:22:08Z</time>
      </trkpt>
      <trkpt lat="28.4776800" lon="-16.2437750">
        <ele>27.0</ele>
        <time>2020-11-10T23:22:09Z</time>
      </trkpt>
      <trkpt lat="28.4777130" lon="-16.2437450">
        <ele>27.0</ele>
        <time>2020-11-10T23:22:10Z</time>
      </trkpt>
      <trkpt lat="28.4777130" lon="-16.2437450">
        <ele>27.0</ele>
        <time>2020-11-10T23:22:11Z</time>
      </trkpt>
      <trkpt lat="28.4777300" lon="-16.2437330">
        <ele>27.0</ele>
        <time>2020-11-10T23:22:12Z</time>
      </trkpt>
      <trkpt lat="28.4777300" lon="-16.2437330">
        <ele>27.0</ele>
        <time>2020-11-10T23:22:13Z</time>
      </trkpt>
      <trkpt lat="28.4777300" lon="-16.2437320">
        <ele>27.0</ele>
        <time>2020-11-10T23:22:14Z</time>
      </trkpt>
      <trkpt lat="28.4777300" lon="-16.2437320">
        <ele>27.0</ele>
        <time>2020-11-10T23:22:15Z</time>
      </trkpt>
      <trkpt lat="28.4777300" lon="-16.2437320">
        <ele>27.0</ele>
        <time>2020-11-10T23:22:38Z</time>
      </trkpt>
      <trkpt lat="28.4777120" lon="-16.2436820">
        <ele>27.0</ele>
        <time>2020-11-10T23:22:39Z</time>
      </trkpt>
      <trkpt lat="28.4776980" lon="-16.2436630">
        <ele>27.0</ele>
        <time>2020-11-10T23:22:40Z</time>
      </trkpt>
      <trkpt lat="28.4776980" lon="-16.2436630">
        <ele>27.0</ele>
        <time>2020-11-10T23:22:41Z</time>
      </trkpt>
      <trkpt lat="28.4776680" lon="-16.2436230">
        <ele>27.0</ele>
        <time>2020-11-10T23:22:42Z</time>
      </trkpt>
      <trkpt lat="28.4776480" lon="-16.2436050">
        <ele>27.0</ele>
        <time>2020-11-10T23:22:43Z</time>
      </trkpt>
      <trkpt lat="28.4776230" lon="-16.2435780">
        <ele>27.0</ele>
        <time>2020-11-10T23:22:44Z</time>
      </trkpt>
      <trkpt lat="28.4776230" lon="-16.2435780">
        <ele>27.0</ele>
        <time>2020-11-10T23:22:45Z</time>
      </trkpt>
      <trkpt lat="28.4775650" lon="-16.2435050">
        <ele>27.0</ele>
        <time>2020-11-10T23:22:46Z</time>
      </trkpt>
      <trkpt lat="28.4775650" lon="-16.2435050">
        <ele>27.0</ele>
        <time>2020-11-10T23:22:47Z</time>
      </trkpt>
      <trkpt lat="28.4775070" lon="-16.2434400">
        <ele>27.0</ele>
        <time>2020-11-10T23:22:48Z</time>
      </trkpt>
      <trkpt lat="28.4774780" lon="-16.2434100">
        <ele>27.0</ele>
        <time>2020-11-10T23:22:49Z</time>
      </trkpt>
      <trkpt lat="28.4774580" lon="-16.2433780">
        <ele>27.0</ele>
        <time>2020-11-10T23:22:50Z</time>
      </trkpt>
      <trkpt lat="28.4774580" lon="-16.2433780">
        <ele>27.0</ele>
        <time>2020-11-10T23:22:51Z</time>
      </trkpt>
      <trkpt lat="28.4774330" lon="-16.2433200">
        <ele>27.0</ele>
        <time>2020-11-10T23:22:52Z</time>
      </trkpt>
      <trkpt lat="28.4774330" lon="-16.2433200">
        <ele>27.0</ele>
        <time>2020-11-10T23:22:53Z</time>
      </trkpt>
      <trkpt lat="28.4774270" lon="-16.2432570">
        <ele>27.0</ele>
        <time>2020-11-10T23:22:54Z</time>
      </trkpt>
      <trkpt lat="28.4774270" lon="-16.2432570">
        <ele>27.0</ele>
        <time>2020-11-10T23:22:55Z</time>
      </trkpt>
      <trkpt lat="28.4774270" lon="-16.2432150">
        <ele>27.0</ele>
        <time>2020-11-10T23:22:56Z</time>
      </trkpt>
      <trkpt lat="28.4774270" lon="-16.2432150">
        <ele>27.0</ele>
        <time>2020-11-10T23:22:57Z</time>
      </trkpt>
      <trkpt lat="28.4774450" lon="-16.2431850">
        <ele>27.0</ele>
        <time>2020-11-10T23:22:58Z</time>
      </trkpt>
      <trkpt lat="28.4774450" lon="-16.2431850">
        <ele>27.0</ele>
        <time>2020-11-10T23:22:59Z</time>
      </trkpt>
      <trkpt lat="28.4774600" lon="-16.2431620">
        <ele>27.0</ele>
        <time>2020-11-10T23:23:00Z</time>
      </trkpt>
      <trkpt lat="28.4774600" lon="-16.2431620">
        <ele>27.0</ele>
        <time>2020-11-10T23:23:01Z</time>
      </trkpt>
      <trkpt lat="28.4774820" lon="-16.2431480">
        <ele>27.0</ele>
        <time>2020-11-10T23:23:02Z</time>
      </trkpt>
      <trkpt lat="28.4774820" lon="-16.2431480">
        <ele>27.0</ele>
        <time>2020-11-10T23:23:03Z</time>
      </trkpt>
      <trkpt lat="28.4775080" lon="-16.2431070">
        <ele>27.0</ele>
        <time>2020-11-10T23:23:04Z</time>
      </trkpt>
      <trkpt lat="28.4775080" lon="-16.2431070">
        <ele>27.0</ele>
        <time>2020-11-10T23:23:05Z</time>
      </trkpt>
      <trkpt lat="28.4775520" lon="-16.2430520">
        <ele>27.0</ele>
        <time>2020-11-10T23:23:06Z</time>
      </trkpt>
      <trkpt lat="28.4775800" lon="-16.2430230">
        <ele>27.0</ele>
        <time>2020-11-10T23:23:07Z</time>
      </trkpt>
      <trkpt lat="28.4775800" lon="-16.2430230">
        <ele>27.0</ele>
        <time>2020-11-10T23:23:08Z</time>
      </trkpt>
      <trkpt lat="28.4776380" lon="-16.2429600">
        <ele>27.0</ele>
        <time>2020-11-10T23:23:09Z</time>
      </trkpt>
      <trkpt lat="28.4776730" lon="-16.2429280">
        <ele>27.0</ele>
        <time>2020-11-10T23:23:10Z</time>
      </trkpt>
      <trkpt lat="28.4776730" lon="-16.2429280">
        <ele>27.0</ele>
        <time>2020-11-10T23:23:11Z</time>
      </trkpt>
      <trkpt lat="28.4777370" lon="-16.2428630">
        <ele>27.0</ele>
        <time>2020-11-10T23:23:12Z</time>
      </trkpt>
      <trkpt lat="28.4777630" lon="-16.2428230">
        <ele>27.0</ele>
        <time>2020-11-10T23:23:13Z</time>
      </trkpt>
      <trkpt lat="28.4777630" lon="-16.2428230">
        <ele>27.0</ele>
        <time>2020-11-10T23:23:14Z</time>
      </trkpt>
      <trkpt lat="28.4778320" lon="-16.2427580">
        <ele>27.0</ele>
        <time>2020-11-10T23:23:15Z</time>
      </trkpt>
      <trkpt lat="28.4778670" lon="-16.2427320">
        <ele>28.0</ele>
        <time>2020-11-10T23:23:16Z</time>
      </trkpt>
      <trkpt lat="28.4778980" lon="-16.2427030">
        <ele>28.0</ele>
        <time>2020-11-10T23:23:17Z</time>
      </trkpt>
      <trkpt lat="28.4778980" lon="-16.2427030">
        <ele>28.0</ele>
        <time>2020-11-10T23:23:18Z</time>
      </trkpt>
      <trkpt lat="28.4779520" lon="-16.2426470">
        <ele>28.0</ele>
        <time>2020-11-10T23:23:19Z</time>
      </trkpt>
      <trkpt lat="28.4779520" lon="-16.2426470">
        <ele>28.0</ele>
        <time>2020-11-10T23:23:20Z</time>
      </trkpt>
      <trkpt lat="28.4780070" lon="-16.2425950">
        <ele>28.0</ele>
        <time>2020-11-10T23:23:21Z</time>
      </trkpt>
      <trkpt lat="28.4780070" lon="-16.2425950">
        <ele>29.0</ele>
        <time>2020-11-10T23:23:22Z</time>
      </trkpt>
      <trkpt lat="28.4780620" lon="-16.2425600">
        <ele>29.0</ele>
        <time>2020-11-10T23:23:23Z</time>
      </trkpt>
      <trkpt lat="28.4780620" lon="-16.2425600">
        <ele>29.0</ele>
        <time>2020-11-10T23:23:24Z</time>
      </trkpt>
      <trkpt lat="28.4781200" lon="-16.2425350">
        <ele>29.0</ele>
        <time>2020-11-10T23:23:25Z</time>
      </trkpt>
      <trkpt lat="28.4781520" lon="-16.2425350">
        <ele>29.0</ele>
        <time>2020-11-10T23:23:26Z</time>
      </trkpt>
      <trkpt lat="28.4781520" lon="-16.2425350">
        <ele>29.0</ele>
        <time>2020-11-10T23:23:27Z</time>
      </trkpt>
      <trkpt lat="28.4782100" lon="-16.2425550">
        <ele>29.0</ele>
        <time>2020-11-10T23:23:28Z</time>
      </trkpt>
      <trkpt lat="28.4782100" lon="-16.2425550">
        <ele>29.0</ele>
        <time>2020-11-10T23:23:29Z</time>
      </trkpt>
      <trkpt lat="28.4782530" lon="-16.2425900">
        <ele>29.0</ele>
        <time>2020-11-10T23:23:30Z</time>
      </trkpt>
      <trkpt lat="28.4782530" lon="-16.2425900">
        <ele>29.0</ele>
        <time>2020-11-10T23:23:31Z</time>
      </trkpt>
      <trkpt lat="28.4782930" lon="-16.2426170">
        <ele>29.0</ele>
        <time>2020-11-10T23:23:32Z</time>
      </trkpt>
      <trkpt lat="28.4783120" lon="-16.2426370">
        <ele>29.0</ele>
        <time>2020-11-10T23:23:33Z</time>
      </trkpt>
      <trkpt lat="28.4783120" lon="-16.2426370">
        <ele>29.0</ele>
        <time>2020-11-10T23:23:34Z</time>
      </trkpt>
      <trkpt lat="28.4783470" lon="-16.2426770">
        <ele>29.0</ele>
        <time>2020-11-10T23:23:35Z</time>
      </trkpt>
      <trkpt lat="28.4783630" lon="-16.2426970">
        <ele>30.0</ele>
        <time>2020-11-10T23:23:36Z</time>
      </trkpt>
      <trkpt lat="28.4783800" lon="-16.2427180">
        <ele>30.0</ele>
        <time>2020-11-10T23:23:37Z</time>
      </trkpt>
      <trkpt lat="28.4783800" lon="-16.2427180">
        <ele>30.0</ele>
        <time>2020-11-10T23:23:38Z</time>
      </trkpt>
      <trkpt lat="28.4784120" lon="-16.2427580">
        <ele>30.0</ele>
        <time>2020-11-10T23:23:39Z</time>
      </trkpt>
      <trkpt lat="28.4784120" lon="-16.2427580">
        <ele>30.0</ele>
        <time>2020-11-10T23:23:40Z</time>
      </trkpt>
      <trkpt lat="28.4784480" lon="-16.2428020">
        <ele>30.0</ele>
        <time>2020-11-10T23:23:41Z</time>
      </trkpt>
      <trkpt lat="28.4784480" lon="-16.2428020">
        <ele>31.0</ele>
        <time>2020-11-10T23:23:42Z</time>
      </trkpt>
      <trkpt lat="28.4784770" lon="-16.2428500">
        <ele>31.0</ele>
        <time>2020-11-10T23:23:43Z</time>
      </trkpt>
      <trkpt lat="28.4784770" lon="-16.2428500">
        <ele>31.0</ele>
        <time>2020-11-10T23:23:44Z</time>
      </trkpt>
      <trkpt lat="28.4785050" lon="-16.2428980">
        <ele>31.0</ele>
        <time>2020-11-10T23:23:45Z</time>
      </trkpt>
      <trkpt lat="28.4785050" lon="-16.2428980">
        <ele>31.0</ele>
        <time>2020-11-10T23:23:46Z</time>
      </trkpt>
      <trkpt lat="28.4785380" lon="-16.2429430">
        <ele>31.0</ele>
        <time>2020-11-10T23:23:47Z</time>
      </trkpt>
      <trkpt lat="28.4785380" lon="-16.2429430">
        <ele>31.0</ele>
        <time>2020-11-10T23:23:48Z</time>
      </trkpt>
      <trkpt lat="28.4785820" lon="-16.2429830">
        <ele>31.0</ele>
        <time>2020-11-10T23:23:49Z</time>
      </trkpt>
      <trkpt lat="28.4785820" lon="-16.2429830">
        <ele>31.0</ele>
        <time>2020-11-10T23:23:50Z</time>
      </trkpt>
      <trkpt lat="28.4786070" lon="-16.2430330">
        <ele>31.0</ele>
        <time>2020-11-10T23:23:51Z</time>
      </trkpt>
      <trkpt lat="28.4786070" lon="-16.2430330">
        <ele>32.0</ele>
        <time>2020-11-10T23:23:52Z</time>
      </trkpt>
      <trkpt lat="28.4786420" lon="-16.2430750">
        <ele>32.0</ele>
        <time>2020-11-10T23:23:53Z</time>
      </trkpt>
      <trkpt lat="28.4786420" lon="-16.2430750">
        <ele>32.0</ele>
        <time>2020-11-10T23:23:54Z</time>
      </trkpt>
      <trkpt lat="28.4786920" lon="-16.2430950">
        <ele>32.0</ele>
        <time>2020-11-10T23:23:55Z</time>
      </trkpt>
      <trkpt lat="28.4787180" lon="-16.2430880">
        <ele>32.0</ele>
        <time>2020-11-10T23:23:56Z</time>
      </trkpt>
      <trkpt lat="28.4787180" lon="-16.2430880">
        <ele>32.0</ele>
        <time>2020-11-10T23:23:57Z</time>
      </trkpt>
      <trkpt lat="28.4787680" lon="-16.2430400">
        <ele>32.0</ele>
        <time>2020-11-10T23:23:58Z</time>
      </trkpt>
      <trkpt lat="28.4787680" lon="-16.2430400">
        <ele>32.0</ele>
        <time>2020-11-10T23:23:59Z</time>
      </trkpt>
      <trkpt lat="28.4788120" lon="-16.2429820">
        <ele>32.0</ele>
        <time>2020-11-10T23:24:00Z</time>
      </trkpt>
      <trkpt lat="28.4788380" lon="-16.2429520">
        <ele>32.0</ele>
        <time>2020-11-10T23:24:01Z</time>
      </trkpt>
      <trkpt lat="28.4788650" lon="-16.2429220">
        <ele>32.0</ele>
        <time>2020-11-10T23:24:02Z</time>
      </trkpt>
      <trkpt lat="28.4788650" lon="-16.2429220">
        <ele>32.0</ele>
        <time>2020-11-10T23:24:03Z</time>
      </trkpt>
      <trkpt lat="28.4789170" lon="-16.2428570">
        <ele>32.0</ele>
        <time>2020-11-10T23:24:04Z</time>
      </trkpt>
      <trkpt lat="28.4789170" lon="-16.2428570">
        <ele>32.0</ele>
        <time>2020-11-10T23:24:05Z</time>
      </trkpt>
      <trkpt lat="28.4789750" lon="-16.2427900">
        <ele>32.0</ele>
        <time>2020-11-10T23:24:06Z</time>
      </trkpt>
      <trkpt lat="28.4790030" lon="-16.2427570">
        <ele>33.0</ele>
        <time>2020-11-10T23:24:07Z</time>
      </trkpt>
      <trkpt lat="28.4790030" lon="-16.2427570">
        <ele>33.0</ele>
        <time>2020-11-10T23:24:08Z</time>
      </trkpt>
      <trkpt lat="28.4790570" lon="-16.2426880">
        <ele>33.0</ele>
        <time>2020-11-10T23:24:09Z</time>
      </trkpt>
      <trkpt lat="28.4790570" lon="-16.2426880">
        <ele>33.0</ele>
        <time>2020-11-10T23:24:10Z</time>
      </trkpt>
      <trkpt lat="28.4791120" lon="-16.2426280">
        <ele>33.0</ele>
        <time>2020-11-10T23:24:11Z</time>
      </trkpt>
      <trkpt lat="28.4791120" lon="-16.2426280">
        <ele>33.0</ele>
        <time>2020-11-10T23:24:12Z</time>
      </trkpt>
      <trkpt lat="28.4791680" lon="-16.2425670">
        <ele>33.0</ele>
        <time>2020-11-10T23:24:13Z</time>
      </trkpt>
      <trkpt lat="28.4791680" lon="-16.2425670">
        <ele>33.0</ele>
        <time>2020-11-10T23:24:14Z</time>
      </trkpt>
      <trkpt lat="28.4792230" lon="-16.2425050">
        <ele>33.0</ele>
        <time>2020-11-10T23:24:15Z</time>
      </trkpt>
      <trkpt lat="28.4792500" lon="-16.2424730">
        <ele>33.0</ele>
        <time>2020-11-10T23:24:16Z</time>
      </trkpt>
      <trkpt lat="28.4792500" lon="-16.2424730">
        <ele>33.0</ele>
        <time>2020-11-10T23:24:17Z</time>
      </trkpt>
      <trkpt lat="28.4793050" lon="-16.2424170">
        <ele>33.0</ele>
        <time>2020-11-10T23:24:18Z</time>
      </trkpt>
      <trkpt lat="28.4793330" lon="-16.2423920">
        <ele>33.0</ele>
        <time>2020-11-10T23:24:19Z</time>
      </trkpt>
      <trkpt lat="28.4793330" lon="-16.2423920">
        <ele>33.0</ele>
        <time>2020-11-10T23:24:20Z</time>
      </trkpt>
      <trkpt lat="28.4793800" lon="-16.2423470">
        <ele>33.0</ele>
        <time>2020-11-10T23:24:21Z</time>
      </trkpt>
      <trkpt lat="28.4793800" lon="-16.2423470">
        <ele>33.0</ele>
        <time>2020-11-10T23:24:22Z</time>
      </trkpt>
      <trkpt lat="28.4794230" lon="-16.2423130">
        <ele>33.0</ele>
        <time>2020-11-10T23:24:23Z</time>
      </trkpt>
      <trkpt lat="28.4794270" lon="-16.2422920">
        <ele>33.0</ele>
        <time>2020-11-10T23:24:24Z</time>
      </trkpt>
      <trkpt lat="28.4794270" lon="-16.2422920">
        <ele>33.0</ele>
        <time>2020-11-10T23:24:25Z</time>
      </trkpt>
      <trkpt lat="28.4793950" lon="-16.2422830">
        <ele>33.0</ele>
        <time>2020-11-10T23:24:26Z</time>
      </trkpt>
      <trkpt lat="28.4793950" lon="-16.2422830">
        <ele>33.0</ele>
        <time>2020-11-10T23:24:27Z</time>
      </trkpt>
      <trkpt lat="28.4793770" lon="-16.2422980">
        <ele>33.0</ele>
        <time>2020-11-10T23:24:28Z</time>
      </trkpt>
      <trkpt lat="28.4793770" lon="-16.2422980">
        <ele>33.0</ele>
        <time>2020-11-10T23:24:29Z</time>
      </trkpt>
      <trkpt lat="28.4793600" lon="-16.2422850">
        <ele>33.0</ele>
        <time>2020-11-10T23:24:30Z</time>
      </trkpt>
      <trkpt lat="28.4793620" lon="-16.2422650">
        <ele>33.0</ele>
        <time>2020-11-10T23:24:31Z</time>
      </trkpt>
      <trkpt lat="28.4793620" lon="-16.2422650">
        <ele>33.0</ele>
        <time>2020-11-10T23:24:32Z</time>
      </trkpt>
      <trkpt lat="28.4794050" lon="-16.2422350">
        <ele>33.0</ele>
        <time>2020-11-10T23:24:33Z</time>
      </trkpt>
      <trkpt lat="28.4794050" lon="-16.2422350">
        <ele>33.0</ele>
        <time>2020-11-10T23:24:34Z</time>
      </trkpt>
      <trkpt lat="28.4794600" lon="-16.2421930">
        <ele>33.0</ele>
        <time>2020-11-10T23:24:35Z</time>
      </trkpt>
      <trkpt lat="28.4794870" lon="-16.2421750">
        <ele>33.0</ele>
        <time>2020-11-10T23:24:36Z</time>
      </trkpt>
      <trkpt lat="28.4795170" lon="-16.2421570">
        <ele>33.0</ele>
        <time>2020-11-10T23:24:37Z</time>
      </trkpt>
      <trkpt lat="28.4795170" lon="-16.2421570">
        <ele>33.0</ele>
        <time>2020-11-10T23:24:38Z</time>
      </trkpt>
      <trkpt lat="28.4795700" lon="-16.2421230">
        <ele>33.0</ele>
        <time>2020-11-10T23:24:39Z</time>
      </trkpt>
      <trkpt lat="28.4795700" lon="-16.2421230">
        <ele>33.0</ele>
        <time>2020-11-10T23:24:40Z</time>
      </trkpt>
      <trkpt lat="28.4796280" lon="-16.2420870">
        <ele>33.0</ele>
        <time>2020-11-10T23:24:41Z</time>
      </trkpt>
      <trkpt lat="28.4796280" lon="-16.2420870">
        <ele>33.0</ele>
        <time>2020-11-10T23:24:42Z</time>
      </trkpt>
      <trkpt lat="28.4796870" lon="-16.2420370">
        <ele>33.0</ele>
        <time>2020-11-10T23:24:43Z</time>
      </trkpt>
      <trkpt lat="28.4796870" lon="-16.2420370">
        <ele>33.0</ele>
        <time>2020-11-10T23:24:44Z</time>
      </trkpt>
      <trkpt lat="28.4797370" lon="-16.2419950">
        <ele>33.0</ele>
        <time>2020-11-10T23:24:45Z</time>
      </trkpt>
      <trkpt lat="28.4797680" lon="-16.2419720">
        <ele>33.0</ele>
        <time>2020-11-10T23:24:46Z</time>
      </trkpt>
      <trkpt lat="28.4797680" lon="-16.2419720">
        <ele>33.0</ele>
        <time>2020-11-10T23:24:47Z</time>
      </trkpt>
      <trkpt lat="28.4798230" lon="-16.2419280">
        <ele>33.0</ele>
        <time>2020-11-10T23:24:48Z</time>
      </trkpt>
      <trkpt lat="28.4798230" lon="-16.2419280">
        <ele>34.0</ele>
        <time>2020-11-10T23:24:49Z</time>
      </trkpt>
      <trkpt lat="28.4798800" lon="-16.2418780">
        <ele>34.0</ele>
        <time>2020-11-10T23:24:50Z</time>
      </trkpt>
      <trkpt lat="28.4799100" lon="-16.2418530">
        <ele>34.0</ele>
        <time>2020-11-10T23:24:51Z</time>
      </trkpt>
      <trkpt lat="28.4799430" lon="-16.2418280">
        <ele>34.0</ele>
        <time>2020-11-10T23:24:52Z</time>
      </trkpt>
      <trkpt lat="28.4799430" lon="-16.2418280">
        <ele>34.0</ele>
        <time>2020-11-10T23:24:53Z</time>
      </trkpt>
      <trkpt lat="28.4800070" lon="-16.2417730">
        <ele>34.0</ele>
        <time>2020-11-10T23:24:54Z</time>
      </trkpt>
      <trkpt lat="28.4800070" lon="-16.2417730">
        <ele>34.0</ele>
        <time>2020-11-10T23:24:55Z</time>
      </trkpt>
      <trkpt lat="28.4800600" lon="-16.2417150">
        <ele>34.0</ele>
        <time>2020-11-10T23:24:56Z</time>
      </trkpt>
      <trkpt lat="28.4800600" lon="-16.2417150">
        <ele>34.0</ele>
        <time>2020-11-10T23:24:57Z</time>
      </trkpt>
      <trkpt lat="28.4801120" lon="-16.2416580">
        <ele>34.0</ele>
        <time>2020-11-10T23:24:58Z</time>
      </trkpt>
      <trkpt lat="28.4801120" lon="-16.2416580">
        <ele>34.0</ele>
        <time>2020-11-10T23:24:59Z</time>
      </trkpt>
      <trkpt lat="28.4801650" lon="-16.2416080">
        <ele>34.0</ele>
        <time>2020-11-10T23:25:00Z</time>
      </trkpt>
      <trkpt lat="28.4802030" lon="-16.2416020">
        <ele>34.0</ele>
        <time>2020-11-10T23:25:01Z</time>
      </trkpt>
      <trkpt lat="28.4802030" lon="-16.2416020">
        <ele>34.0</ele>
        <time>2020-11-10T23:25:02Z</time>
      </trkpt>
      <trkpt lat="28.4802800" lon="-16.2415730">
        <ele>34.0</ele>
        <time>2020-11-10T23:25:03Z</time>
      </trkpt>
      <trkpt lat="28.4803280" lon="-16.2415630">
        <ele>34.0</ele>
        <time>2020-11-10T23:25:04Z</time>
      </trkpt>
      <trkpt lat="28.4803280" lon="-16.2415630">
        <ele>34.0</ele>
        <time>2020-11-10T23:25:05Z</time>
      </trkpt>
      <trkpt lat="28.4804120" lon="-16.2415400">
        <ele>34.0</ele>
        <time>2020-11-10T23:25:06Z</time>
      </trkpt>
      <trkpt lat="28.4804670" lon="-16.2415420">
        <ele>34.0</ele>
        <time>2020-11-10T23:25:07Z</time>
      </trkpt>
      <trkpt lat="28.4805130" lon="-16.2415330">
        <ele>34.0</ele>
        <time>2020-11-10T23:25:08Z</time>
      </trkpt>
      <trkpt lat="28.4805130" lon="-16.2415330">
        <ele>34.0</ele>
        <time>2020-11-10T23:25:09Z</time>
      </trkpt>
      <trkpt lat="28.4805770" lon="-16.2414730">
        <ele>34.0</ele>
        <time>2020-11-10T23:25:10Z</time>
      </trkpt>
      <trkpt lat="28.4805770" lon="-16.2414730">
        <ele>34.0</ele>
        <time>2020-11-10T23:25:11Z</time>
      </trkpt>
      <trkpt lat="28.4806300" lon="-16.2414120">
        <ele>34.0</ele>
        <time>2020-11-10T23:25:12Z</time>
      </trkpt>
      <trkpt lat="28.4806620" lon="-16.2413820">
        <ele>34.0</ele>
        <time>2020-11-10T23:25:13Z</time>
      </trkpt>
      <trkpt lat="28.4806620" lon="-16.2413820">
        <ele>34.0</ele>
        <time>2020-11-10T23:25:14Z</time>
      </trkpt>
      <trkpt lat="28.4807220" lon="-16.2413230">
        <ele>34.0</ele>
        <time>2020-11-10T23:25:15Z</time>
      </trkpt>
      <trkpt lat="28.4807500" lon="-16.2412950">
        <ele>34.0</ele>
        <time>2020-11-10T23:25:16Z</time>
      </trkpt>
      <trkpt lat="28.4807780" lon="-16.2412650">
        <ele>34.0</ele>
        <time>2020-11-10T23:25:17Z</time>
      </trkpt>
      <trkpt lat="28.4807780" lon="-16.2412650">
        <ele>34.0</ele>
        <time>2020-11-10T23:25:18Z</time>
      </trkpt>
      <trkpt lat="28.4808350" lon="-16.2412100">
        <ele>34.0</ele>
        <time>2020-11-10T23:25:19Z</time>
      </trkpt>
      <trkpt lat="28.4808350" lon="-16.2412100">
        <ele>34.0</ele>
        <time>2020-11-10T23:25:20Z</time>
      </trkpt>
      <trkpt lat="28.4808930" lon="-16.2411530">
        <ele>34.0</ele>
        <time>2020-11-10T23:25:21Z</time>
      </trkpt>
      <trkpt lat="28.4808930" lon="-16.2411530">
        <ele>34.0</ele>
        <time>2020-11-10T23:25:22Z</time>
      </trkpt>
      <trkpt lat="28.4809500" lon="-16.2411030">
        <ele>34.0</ele>
        <time>2020-11-10T23:25:23Z</time>
      </trkpt>
      <trkpt lat="28.4809500" lon="-16.2411030">
        <ele>34.0</ele>
        <time>2020-11-10T23:25:24Z</time>
      </trkpt>
      <trkpt lat="28.4809980" lon="-16.2410330">
        <ele>34.0</ele>
        <time>2020-11-10T23:25:25Z</time>
      </trkpt>
      <trkpt lat="28.4809980" lon="-16.2410330">
        <ele>34.0</ele>
        <time>2020-11-10T23:25:26Z</time>
      </trkpt>
      <trkpt lat="28.4810650" lon="-16.2409870">
        <ele>34.0</ele>
        <time>2020-11-10T23:25:27Z</time>
      </trkpt>
      <trkpt lat="28.4810950" lon="-16.2409630">
        <ele>34.0</ele>
        <time>2020-11-10T23:25:28Z</time>
      </trkpt>
      <trkpt lat="28.4811170" lon="-16.2409420">
        <ele>34.0</ele>
        <time>2020-11-10T23:25:29Z</time>
      </trkpt>
      <trkpt lat="28.4811470" lon="-16.2409180">
        <ele>34.0</ele>
        <time>2020-11-10T23:25:30Z</time>
      </trkpt>
      <trkpt lat="28.4811470" lon="-16.2409180">
        <ele>34.0</ele>
        <time>2020-11-10T23:25:31Z</time>
      </trkpt>
      <trkpt lat="28.4812200" lon="-16.2408670">
        <ele>34.0</ele>
        <time>2020-11-10T23:25:32Z</time>
      </trkpt>
      <trkpt lat="28.4812200" lon="-16.2408670">
        <ele>34.0</ele>
        <time>2020-11-10T23:25:33Z</time>
      </trkpt>
      <trkpt lat="28.4812880" lon="-16.2408150">
        <ele>34.0</ele>
        <time>2020-11-10T23:25:34Z</time>
      </trkpt>
      <trkpt lat="28.4812880" lon="-16.2408150">
        <ele>34.0</ele>
        <time>2020-11-10T23:25:35Z</time>
      </trkpt>
      <trkpt lat="28.4813550" lon="-16.2407480">
        <ele>34.0</ele>
        <time>2020-11-10T23:25:36Z</time>
      </trkpt>
      <trkpt lat="28.4813820" lon="-16.2407250">
        <ele>34.0</ele>
        <time>2020-11-10T23:25:37Z</time>
      </trkpt>
      <trkpt lat="28.4813820" lon="-16.2407250">
        <ele>34.0</ele>
        <time>2020-11-10T23:25:38Z</time>
      </trkpt>
      <trkpt lat="28.4814430" lon="-16.2406800">
        <ele>34.0</ele>
        <time>2020-11-10T23:25:39Z</time>
      </trkpt>
      <trkpt lat="28.4814430" lon="-16.2406800">
        <ele>34.0</ele>
        <time>2020-11-10T23:25:40Z</time>
      </trkpt>
      <trkpt lat="28.4815130" lon="-16.2406280">
        <ele>34.0</ele>
        <time>2020-11-10T23:25:41Z</time>
      </trkpt>
      <trkpt lat="28.4815130" lon="-16.2406280">
        <ele>34.0</ele>
        <time>2020-11-10T23:25:42Z</time>
      </trkpt>
      <trkpt lat="28.4815780" lon="-16.2405750">
        <ele>34.0</ele>
        <time>2020-11-10T23:25:43Z</time>
      </trkpt>
      <trkpt lat="28.4815780" lon="-16.2405750">
        <ele>34.0</ele>
        <time>2020-11-10T23:25:44Z</time>
      </trkpt>
      <trkpt lat="28.4816380" lon="-16.2405250">
        <ele>34.0</ele>
        <time>2020-11-10T23:25:45Z</time>
      </trkpt>
      <trkpt lat="28.4816670" lon="-16.2404930">
        <ele>34.0</ele>
        <time>2020-11-10T23:25:46Z</time>
      </trkpt>
      <trkpt lat="28.4816670" lon="-16.2404930">
        <ele>34.0</ele>
        <time>2020-11-10T23:25:47Z</time>
      </trkpt>
      <trkpt lat="28.4817200" lon="-16.2404280">
        <ele>34.0</ele>
        <time>2020-11-10T23:25:48Z</time>
      </trkpt>
      <trkpt lat="28.4817450" lon="-16.2403930">
        <ele>34.0</ele>
        <time>2020-11-10T23:25:49Z</time>
      </trkpt>
      <trkpt lat="28.4817450" lon="-16.2403930">
        <ele>34.0</ele>
        <time>2020-11-10T23:25:50Z</time>
      </trkpt>
      <trkpt lat="28.4818020" lon="-16.2403300">
        <ele>34.0</ele>
        <time>2020-11-10T23:25:51Z</time>
      </trkpt>
      <trkpt lat="28.4818350" lon="-16.2403050">
        <ele>34.0</ele>
        <time>2020-11-10T23:25:52Z</time>
      </trkpt>
      <trkpt lat="28.4818350" lon="-16.2403050">
        <ele>34.0</ele>
        <time>2020-11-10T23:25:53Z</time>
      </trkpt>
      <trkpt lat="28.4819020" lon="-16.2402550">
        <ele>34.0</ele>
        <time>2020-11-10T23:25:54Z</time>
      </trkpt>
      <trkpt lat="28.4819450" lon="-16.2402420">
        <ele>34.0</ele>
        <time>2020-11-10T23:25:55Z</time>
      </trkpt>
      <trkpt lat="28.4819450" lon="-16.2402420">
        <ele>34.0</ele>
        <time>2020-11-10T23:25:56Z</time>
      </trkpt>
      <trkpt lat="28.4820270" lon="-16.2402100">
        <ele>34.0</ele>
        <time>2020-11-10T23:25:57Z</time>
      </trkpt>
      <trkpt lat="28.4820270" lon="-16.2402100">
        <ele>34.0</ele>
        <time>2020-11-10T23:25:58Z</time>
      </trkpt>
      <trkpt lat="28.4820980" lon="-16.2401580">
        <ele>34.0</ele>
        <time>2020-11-10T23:25:59Z</time>
      </trkpt>
      <trkpt lat="28.4821330" lon="-16.2401270">
        <ele>34.0</ele>
        <time>2020-11-10T23:26:00Z</time>
      </trkpt>
      <trkpt lat="28.4821330" lon="-16.2401270">
        <ele>34.0</ele>
        <time>2020-11-10T23:26:01Z</time>
      </trkpt>
      <trkpt lat="28.4821930" lon="-16.2400580">
        <ele>34.0</ele>
        <time>2020-11-10T23:26:02Z</time>
      </trkpt>
      <trkpt lat="28.4822200" lon="-16.2400220">
        <ele>34.0</ele>
        <time>2020-11-10T23:26:03Z</time>
      </trkpt>
      <trkpt lat="28.4822450" lon="-16.2399850">
        <ele>34.0</ele>
        <time>2020-11-10T23:26:04Z</time>
      </trkpt>
      <trkpt lat="28.4822450" lon="-16.2399850">
        <ele>34.0</ele>
        <time>2020-11-10T23:26:05Z</time>
      </trkpt>
      <trkpt lat="28.4823020" lon="-16.2399150">
        <ele>34.0</ele>
        <time>2020-11-10T23:26:06Z</time>
      </trkpt>
      <trkpt lat="28.4823020" lon="-16.2399150">
        <ele>34.0</ele>
        <time>2020-11-10T23:26:07Z</time>
      </trkpt>
      <trkpt lat="28.4823580" lon="-16.2398550">
        <ele>34.0</ele>
        <time>2020-11-10T23:26:08Z</time>
      </trkpt>
      <trkpt lat="28.4823580" lon="-16.2398550">
        <ele>34.0</ele>
        <time>2020-11-10T23:26:09Z</time>
      </trkpt>
      <trkpt lat="28.4824120" lon="-16.2397900">
        <ele>34.0</ele>
        <time>2020-11-10T23:26:10Z</time>
      </trkpt>
      <trkpt lat="28.4824120" lon="-16.2397900">
        <ele>34.0</ele>
        <time>2020-11-10T23:26:11Z</time>
      </trkpt>
      <trkpt lat="28.4824630" lon="-16.2397220">
        <ele>34.0</ele>
        <time>2020-11-10T23:26:12Z</time>
      </trkpt>
      <trkpt lat="28.4824970" lon="-16.2396930">
        <ele>34.0</ele>
        <time>2020-11-10T23:26:13Z</time>
      </trkpt>
      <trkpt lat="28.4825300" lon="-16.2396630">
        <ele>34.0</ele>
        <time>2020-11-10T23:26:14Z</time>
      </trkpt>
      <trkpt lat="28.4825300" lon="-16.2396630">
        <ele>34.0</ele>
        <time>2020-11-10T23:26:15Z</time>
      </trkpt>
      <trkpt lat="28.4825980" lon="-16.2396000">
        <ele>34.0</ele>
        <time>2020-11-10T23:26:16Z</time>
      </trkpt>
      <trkpt lat="28.4825980" lon="-16.2396000">
        <ele>34.0</ele>
        <time>2020-11-10T23:26:17Z</time>
      </trkpt>
      <trkpt lat="28.4826700" lon="-16.2395370">
        <ele>34.0</ele>
        <time>2020-11-10T23:26:18Z</time>
      </trkpt>
      <trkpt lat="28.4827050" lon="-16.2395030">
        <ele>34.0</ele>
        <time>2020-11-10T23:26:19Z</time>
      </trkpt>
      <trkpt lat="28.4827050" lon="-16.2395030">
        <ele>34.0</ele>
        <time>2020-11-10T23:26:20Z</time>
      </trkpt>
      <trkpt lat="28.4827670" lon="-16.2394330">
        <ele>34.0</ele>
        <time>2020-11-10T23:26:21Z</time>
      </trkpt>
      <trkpt lat="28.4827980" lon="-16.2393980">
        <ele>34.0</ele>
        <time>2020-11-10T23:26:22Z</time>
      </trkpt>
      <trkpt lat="28.4827980" lon="-16.2393980">
        <ele>34.0</ele>
        <time>2020-11-10T23:26:23Z</time>
      </trkpt>
      <trkpt lat="28.4828600" lon="-16.2393320">
        <ele>34.0</ele>
        <time>2020-11-10T23:26:24Z</time>
      </trkpt>
      <trkpt lat="28.4828930" lon="-16.2392980">
        <ele>34.0</ele>
        <time>2020-11-10T23:26:25Z</time>
      </trkpt>
      <trkpt lat="28.4828930" lon="-16.2392980">
        <ele>34.0</ele>
        <time>2020-11-10T23:26:26Z</time>
      </trkpt>
      <trkpt lat="28.4829570" lon="-16.2392250">
        <ele>34.0</ele>
        <time>2020-11-10T23:26:27Z</time>
      </trkpt>
      <trkpt lat="28.4829920" lon="-16.2391980">
        <ele>34.0</ele>
        <time>2020-11-10T23:26:28Z</time>
      </trkpt>
      <trkpt lat="28.4829920" lon="-16.2391980">
        <ele>34.0</ele>
        <time>2020-11-10T23:26:29Z</time>
      </trkpt>
      <trkpt lat="28.4830520" lon="-16.2391320">
        <ele>34.0</ele>
        <time>2020-11-10T23:26:30Z</time>
      </trkpt>
      <trkpt lat="28.4830520" lon="-16.2391320">
        <ele>34.0</ele>
        <time>2020-11-10T23:26:31Z</time>
      </trkpt>
      <trkpt lat="28.4831250" lon="-16.2390600">
        <ele>34.0</ele>
        <time>2020-11-10T23:26:32Z</time>
      </trkpt>
      <trkpt lat="28.4831600" lon="-16.2390270">
        <ele>34.0</ele>
        <time>2020-11-10T23:26:33Z</time>
      </trkpt>
      <trkpt lat="28.4831600" lon="-16.2390270">
        <ele>34.0</ele>
        <time>2020-11-10T23:26:34Z</time>
      </trkpt>
      <trkpt lat="28.4832350" lon="-16.2389600">
        <ele>34.0</ele>
        <time>2020-11-10T23:26:35Z</time>
      </trkpt>
      <trkpt lat="28.4832350" lon="-16.2389600">
        <ele>34.0</ele>
        <time>2020-11-10T23:26:36Z</time>
      </trkpt>
      <trkpt lat="28.4833280" lon="-16.2389130">
        <ele>34.0</ele>
        <time>2020-11-10T23:26:37Z</time>
      </trkpt>
      <trkpt lat="28.4833280" lon="-16.2389130">
        <ele>34.0</ele>
        <time>2020-11-10T23:26:38Z</time>
      </trkpt>
      <trkpt lat="28.4834180" lon="-16.2388600">
        <ele>34.0</ele>
        <time>2020-11-10T23:26:39Z</time>
      </trkpt>
      <trkpt lat="28.4834180" lon="-16.2388600">
        <ele>34.0</ele>
        <time>2020-11-10T23:26:40Z</time>
      </trkpt>
      <trkpt lat="28.4835100" lon="-16.2388100">
        <ele>34.0</ele>
        <time>2020-11-10T23:26:41Z</time>
      </trkpt>
      <trkpt lat="28.4835530" lon="-16.2387830">
        <ele>34.0</ele>
        <time>2020-11-10T23:26:42Z</time>
      </trkpt>
      <trkpt lat="28.4835530" lon="-16.2387830">
        <ele>34.0</ele>
        <time>2020-11-10T23:26:43Z</time>
      </trkpt>
      <trkpt lat="28.4836330" lon="-16.2387230">
        <ele>34.0</ele>
        <time>2020-11-10T23:26:44Z</time>
      </trkpt>
      <trkpt lat="28.4836330" lon="-16.2387230">
        <ele>34.0</ele>
        <time>2020-11-10T23:26:45Z</time>
      </trkpt>
      <trkpt lat="28.4837050" lon="-16.2386580">
        <ele>34.0</ele>
        <time>2020-11-10T23:26:46Z</time>
      </trkpt>
      <trkpt lat="28.4837470" lon="-16.2386320">
        <ele>34.0</ele>
        <time>2020-11-10T23:26:47Z</time>
      </trkpt>
      <trkpt lat="28.4837470" lon="-16.2386320">
        <ele>34.0</ele>
        <time>2020-11-10T23:26:48Z</time>
      </trkpt>
      <trkpt lat="28.4838300" lon="-16.2385820">
        <ele>34.0</ele>
        <time>2020-11-10T23:26:49Z</time>
      </trkpt>
      <trkpt lat="28.4838750" lon="-16.2385550">
        <ele>34.0</ele>
        <time>2020-11-10T23:26:50Z</time>
      </trkpt>
      <trkpt lat="28.4838750" lon="-16.2385550">
        <ele>34.0</ele>
        <time>2020-11-10T23:26:51Z</time>
      </trkpt>
      <trkpt lat="28.4839580" lon="-16.2385030">
        <ele>33.0</ele>
        <time>2020-11-10T23:26:52Z</time>
      </trkpt>
      <trkpt lat="28.4839580" lon="-16.2385030">
        <ele>33.0</ele>
        <time>2020-11-10T23:26:53Z</time>
      </trkpt>
      <trkpt lat="28.4840350" lon="-16.2384480">
        <ele>33.0</ele>
        <time>2020-11-10T23:26:54Z</time>
      </trkpt>
      <trkpt lat="28.4840350" lon="-16.2384480">
        <ele>33.0</ele>
        <time>2020-11-10T23:26:55Z</time>
      </trkpt>
      <trkpt lat="28.4841180" lon="-16.2384020">
        <ele>33.0</ele>
        <time>2020-11-10T23:26:56Z</time>
      </trkpt>
      <trkpt lat="28.4841530" lon="-16.2383800">
        <ele>33.0</ele>
        <time>2020-11-10T23:26:57Z</time>
      </trkpt>
      <trkpt lat="28.4841530" lon="-16.2383800">
        <ele>33.0</ele>
        <time>2020-11-10T23:26:58Z</time>
      </trkpt>
      <trkpt lat="28.4842400" lon="-16.2383330">
        <ele>33.0</ele>
        <time>2020-11-10T23:26:59Z</time>
      </trkpt>
      <trkpt lat="28.4842400" lon="-16.2383330">
        <ele>33.0</ele>
        <time>2020-11-10T23:27:00Z</time>
      </trkpt>
      <trkpt lat="28.4843330" lon="-16.2382900">
        <ele>33.0</ele>
        <time>2020-11-10T23:27:01Z</time>
      </trkpt>
      <trkpt lat="28.4843330" lon="-16.2382900">
        <ele>33.0</ele>
        <time>2020-11-10T23:27:02Z</time>
      </trkpt>
      <trkpt lat="28.4844130" lon="-16.2382400">
        <ele>33.0</ele>
        <time>2020-11-10T23:27:03Z</time>
      </trkpt>
      <trkpt lat="28.4844130" lon="-16.2382400">
        <ele>33.0</ele>
        <time>2020-11-10T23:27:04Z</time>
      </trkpt>
      <trkpt lat="28.4844920" lon="-16.2381970">
        <ele>33.0</ele>
        <time>2020-11-10T23:27:05Z</time>
      </trkpt>
      <trkpt lat="28.4844920" lon="-16.2381970">
        <ele>33.0</ele>
        <time>2020-11-10T23:27:06Z</time>
      </trkpt>
      <trkpt lat="28.4845630" lon="-16.2381750">
        <ele>33.0</ele>
        <time>2020-11-10T23:27:07Z</time>
      </trkpt>
      <trkpt lat="28.4845630" lon="-16.2381750">
        <ele>33.0</ele>
        <time>2020-11-10T23:27:08Z</time>
      </trkpt>
      <trkpt lat="28.4846420" lon="-16.2381180">
        <ele>33.0</ele>
        <time>2020-11-10T23:27:09Z</time>
      </trkpt>
      <trkpt lat="28.4846420" lon="-16.2381180">
        <ele>33.0</ele>
        <time>2020-11-10T23:27:10Z</time>
      </trkpt>
      <trkpt lat="28.4847180" lon="-16.2380650">
        <ele>33.0</ele>
        <time>2020-11-10T23:27:11Z</time>
      </trkpt>
      <trkpt lat="28.4847180" lon="-16.2380650">
        <ele>33.0</ele>
        <time>2020-11-10T23:27:12Z</time>
      </trkpt>
      <trkpt lat="28.4848050" lon="-16.2379950">
        <ele>33.0</ele>
        <time>2020-11-10T23:27:13Z</time>
      </trkpt>
      <trkpt lat="28.4848050" lon="-16.2379950">
        <ele>33.0</ele>
        <time>2020-11-10T23:27:14Z</time>
      </trkpt>
      <trkpt lat="28.4848980" lon="-16.2379280">
        <ele>33.0</ele>
        <time>2020-11-10T23:27:15Z</time>
      </trkpt>
      <trkpt lat="28.4848980" lon="-16.2379280">
        <ele>33.0</ele>
        <time>2020-11-10T23:27:16Z</time>
      </trkpt>
      <trkpt lat="28.4849980" lon="-16.2378680">
        <ele>33.0</ele>
        <time>2020-11-10T23:27:17Z</time>
      </trkpt>
      <trkpt lat="28.4850470" lon="-16.2378450">
        <ele>33.0</ele>
        <time>2020-11-10T23:27:18Z</time>
      </trkpt>
      <trkpt lat="28.4850470" lon="-16.2378450">
        <ele>33.0</ele>
        <time>2020-11-10T23:27:19Z</time>
      </trkpt>
      <trkpt lat="28.4851520" lon="-16.2377880">
        <ele>33.0</ele>
        <time>2020-11-10T23:27:20Z</time>
      </trkpt>
      <trkpt lat="28.4851520" lon="-16.2377880">
        <ele>33.0</ele>
        <time>2020-11-10T23:27:21Z</time>
      </trkpt>
      <trkpt lat="28.4852580" lon="-16.2377270">
        <ele>33.0</ele>
        <time>2020-11-10T23:27:22Z</time>
      </trkpt>
      <trkpt lat="28.4852580" lon="-16.2377270">
        <ele>33.0</ele>
        <time>2020-11-10T23:27:23Z</time>
      </trkpt>
      <trkpt lat="28.4853530" lon="-16.2376530">
        <ele>33.0</ele>
        <time>2020-11-10T23:27:24Z</time>
      </trkpt>
      <trkpt lat="28.4854000" lon="-16.2376120">
        <ele>33.0</ele>
        <time>2020-11-10T23:27:25Z</time>
      </trkpt>
      <trkpt lat="28.4854000" lon="-16.2376120">
        <ele>33.0</ele>
        <time>2020-11-10T23:27:26Z</time>
      </trkpt>
      <trkpt lat="28.4855030" lon="-16.2375480">
        <ele>33.0</ele>
        <time>2020-11-10T23:27:27Z</time>
      </trkpt>
      <trkpt lat="28.4855030" lon="-16.2375480">
        <ele>33.0</ele>
        <time>2020-11-10T23:27:28Z</time>
      </trkpt>
      <trkpt lat="28.4856050" lon="-16.2374900">
        <ele>33.0</ele>
        <time>2020-11-10T23:27:29Z</time>
      </trkpt>
      <trkpt lat="28.4856530" lon="-16.2374720">
        <ele>33.0</ele>
        <time>2020-11-10T23:27:30Z</time>
      </trkpt>
      <trkpt lat="28.4856530" lon="-16.2374720">
        <ele>33.0</ele>
        <time>2020-11-10T23:27:31Z</time>
      </trkpt>
      <trkpt lat="28.4857480" lon="-16.2374170">
        <ele>33.0</ele>
        <time>2020-11-10T23:27:32Z</time>
      </trkpt>
      <trkpt lat="28.4857480" lon="-16.2374170">
        <ele>33.0</ele>
        <time>2020-11-10T23:27:33Z</time>
      </trkpt>
      <trkpt lat="28.4858380" lon="-16.2373580">
        <ele>33.0</ele>
        <time>2020-11-10T23:27:34Z</time>
      </trkpt>
      <trkpt lat="28.4858780" lon="-16.2373280">
        <ele>33.0</ele>
        <time>2020-11-10T23:27:35Z</time>
      </trkpt>
      <trkpt lat="28.4859170" lon="-16.2373000">
        <ele>33.0</ele>
        <time>2020-11-10T23:27:36Z</time>
      </trkpt>
      <trkpt lat="28.4859170" lon="-16.2373000">
        <ele>33.0</ele>
        <time>2020-11-10T23:27:37Z</time>
      </trkpt>
      <trkpt lat="28.4859970" lon="-16.2372370">
        <ele>33.0</ele>
        <time>2020-11-10T23:27:38Z</time>
      </trkpt>
      <trkpt lat="28.4859970" lon="-16.2372370">
        <ele>33.0</ele>
        <time>2020-11-10T23:27:39Z</time>
      </trkpt>
      <trkpt lat="28.4860650" lon="-16.2371670">
        <ele>33.0</ele>
        <time>2020-11-10T23:27:40Z</time>
      </trkpt>
      <trkpt lat="28.4860650" lon="-16.2371670">
        <ele>33.0</ele>
        <time>2020-11-10T23:27:41Z</time>
      </trkpt>
      <trkpt lat="28.4861320" lon="-16.2370970">
        <ele>33.0</ele>
        <time>2020-11-10T23:27:42Z</time>
      </trkpt>
      <trkpt lat="28.4861630" lon="-16.2370650">
        <ele>33.0</ele>
        <time>2020-11-10T23:27:43Z</time>
      </trkpt>
      <trkpt lat="28.4861630" lon="-16.2370650">
        <ele>33.0</ele>
        <time>2020-11-10T23:27:44Z</time>
      </trkpt>
      <trkpt lat="28.4862180" lon="-16.2370070">
        <ele>33.0</ele>
        <time>2020-11-10T23:27:45Z</time>
      </trkpt>
      <trkpt lat="28.4862180" lon="-16.2370070">
        <ele>33.0</ele>
        <time>2020-11-10T23:27:46Z</time>
      </trkpt>
      <trkpt lat="28.4862650" lon="-16.2369430">
        <ele>33.0</ele>
        <time>2020-11-10T23:27:47Z</time>
      </trkpt>
      <trkpt lat="28.4862970" lon="-16.2369080">
        <ele>33.0</ele>
        <time>2020-11-10T23:27:48Z</time>
      </trkpt>
      <trkpt lat="28.4862970" lon="-16.2369080">
        <ele>33.0</ele>
        <time>2020-11-10T23:27:49Z</time>
      </trkpt>
      <trkpt lat="28.4863470" lon="-16.2368370">
        <ele>34.0</ele>
        <time>2020-11-10T23:27:50Z</time>
      </trkpt>
      <trkpt lat="28.4863700" lon="-16.2367970">
        <ele>34.0</ele>
        <time>2020-11-10T23:27:51Z</time>
      </trkpt>
      <trkpt lat="28.4863700" lon="-16.2367970">
        <ele>34.0</ele>
        <time>2020-11-10T23:27:52Z</time>
      </trkpt>
      <trkpt lat="28.4864230" lon="-16.2367070">
        <ele>34.0</ele>
        <time>2020-11-10T23:27:53Z</time>
      </trkpt>
      <trkpt lat="28.4864230" lon="-16.2367070">
        <ele>34.0</ele>
        <time>2020-11-10T23:27:54Z</time>
      </trkpt>
      <trkpt lat="28.4864780" lon="-16.2366070">
        <ele>34.0</ele>
        <time>2020-11-10T23:27:55Z</time>
      </trkpt>
      <trkpt lat="28.4864780" lon="-16.2366070">
        <ele>34.0</ele>
        <time>2020-11-10T23:27:56Z</time>
      </trkpt>
      <trkpt lat="28.4865280" lon="-16.2365020">
        <ele>34.0</ele>
        <time>2020-11-10T23:27:57Z</time>
      </trkpt>
      <trkpt lat="28.4865280" lon="-16.2365020">
        <ele>34.0</ele>
        <time>2020-11-10T23:27:58Z</time>
      </trkpt>
      <trkpt lat="28.4865600" lon="-16.2363950">
        <ele>34.0</ele>
        <time>2020-11-10T23:27:59Z</time>
      </trkpt>
      <trkpt lat="28.4865600" lon="-16.2363950">
        <ele>34.0</ele>
        <time>2020-11-10T23:28:00Z</time>
      </trkpt>
      <trkpt lat="28.4865970" lon="-16.2362980">
        <ele>34.0</ele>
        <time>2020-11-10T23:28:01Z</time>
      </trkpt>
      <trkpt lat="28.4865970" lon="-16.2362980">
        <ele>34.0</ele>
        <time>2020-11-10T23:28:02Z</time>
      </trkpt>
      <trkpt lat="28.4866420" lon="-16.2361920">
        <ele>34.0</ele>
        <time>2020-11-10T23:28:03Z</time>
      </trkpt>
      <trkpt lat="28.4866420" lon="-16.2361920">
        <ele>34.0</ele>
        <time>2020-11-10T23:28:04Z</time>
      </trkpt>
      <trkpt lat="28.4866830" lon="-16.2360720">
        <ele>34.0</ele>
        <time>2020-11-10T23:28:05Z</time>
      </trkpt>
      <trkpt lat="28.4866830" lon="-16.2360720">
        <ele>34.0</ele>
        <time>2020-11-10T23:28:06Z</time>
      </trkpt>
      <trkpt lat="28.4867180" lon="-16.2359450">
        <ele>34.0</ele>
        <time>2020-11-10T23:28:07Z</time>
      </trkpt>
      <trkpt lat="28.4867180" lon="-16.2359450">
        <ele>34.0</ele>
        <time>2020-11-10T23:28:08Z</time>
      </trkpt>
      <trkpt lat="28.4867430" lon="-16.2358230">
        <ele>34.0</ele>
        <time>2020-11-10T23:28:09Z</time>
      </trkpt>
      <trkpt lat="28.4867430" lon="-16.2358230">
        <ele>34.0</ele>
        <time>2020-11-10T23:28:10Z</time>
      </trkpt>
      <trkpt lat="28.4867630" lon="-16.2357000">
        <ele>34.0</ele>
        <time>2020-11-10T23:28:11Z</time>
      </trkpt>
      <trkpt lat="28.4867630" lon="-16.2357000">
        <ele>34.0</ele>
        <time>2020-11-10T23:28:12Z</time>
      </trkpt>
      <trkpt lat="28.4867770" lon="-16.2355820">
        <ele>34.0</ele>
        <time>2020-11-10T23:28:13Z</time>
      </trkpt>
      <trkpt lat="28.4867770" lon="-16.2355820">
        <ele>34.0</ele>
        <time>2020-11-10T23:28:14Z</time>
      </trkpt>
      <trkpt lat="28.4867780" lon="-16.2354680">
        <ele>34.0</ele>
        <time>2020-11-10T23:28:15Z</time>
      </trkpt>
      <trkpt lat="28.4867780" lon="-16.2354680">
        <ele>34.0</ele>
        <time>2020-11-10T23:28:16Z</time>
      </trkpt>
      <trkpt lat="28.4867670" lon="-16.2353470">
        <ele>34.0</ele>
        <time>2020-11-10T23:28:17Z</time>
      </trkpt>
      <trkpt lat="28.4867670" lon="-16.2353470">
        <ele>34.0</ele>
        <time>2020-11-10T23:28:18Z</time>
      </trkpt>
      <trkpt lat="28.4867580" lon="-16.2352170">
        <ele>34.0</ele>
        <time>2020-11-10T23:28:19Z</time>
      </trkpt>
      <trkpt lat="28.4867580" lon="-16.2352170">
        <ele>34.0</ele>
        <time>2020-11-10T23:28:20Z</time>
      </trkpt>
      <trkpt lat="28.4867500" lon="-16.2350830">
        <ele>34.0</ele>
        <time>2020-11-10T23:28:21Z</time>
      </trkpt>
      <trkpt lat="28.4867470" lon="-16.2350220">
        <ele>34.0</ele>
        <time>2020-11-10T23:28:22Z</time>
      </trkpt>
      <trkpt lat="28.4867400" lon="-16.2349600">
        <ele>34.0</ele>
        <time>2020-11-10T23:28:23Z</time>
      </trkpt>
      <trkpt lat="28.4867400" lon="-16.2349600">
        <ele>34.0</ele>
        <time>2020-11-10T23:28:24Z</time>
      </trkpt>
      <trkpt lat="28.4867350" lon="-16.2348420">
        <ele>34.0</ele>
        <time>2020-11-10T23:28:25Z</time>
      </trkpt>
      <trkpt lat="28.4867350" lon="-16.2348420">
        <ele>34.0</ele>
        <time>2020-11-10T23:28:26Z</time>
      </trkpt>
      <trkpt lat="28.4867400" lon="-16.2347180">
        <ele>34.0</ele>
        <time>2020-11-10T23:28:27Z</time>
      </trkpt>
      <trkpt lat="28.4867430" lon="-16.2346550">
        <ele>34.0</ele>
        <time>2020-11-10T23:28:28Z</time>
      </trkpt>
      <trkpt lat="28.4867430" lon="-16.2346550">
        <ele>34.0</ele>
        <time>2020-11-10T23:28:29Z</time>
      </trkpt>
      <trkpt lat="28.4867480" lon="-16.2345200">
        <ele>34.0</ele>
        <time>2020-11-10T23:28:30Z</time>
      </trkpt>
      <trkpt lat="28.4867480" lon="-16.2345200">
        <ele>34.0</ele>
        <time>2020-11-10T23:28:31Z</time>
      </trkpt>
      <trkpt lat="28.4867580" lon="-16.2343680">
        <ele>34.0</ele>
        <time>2020-11-10T23:28:32Z</time>
      </trkpt>
      <trkpt lat="28.4867670" lon="-16.2342980">
        <ele>34.0</ele>
        <time>2020-11-10T23:28:33Z</time>
      </trkpt>
      <trkpt lat="28.4867750" lon="-16.2342320">
        <ele>34.0</ele>
        <time>2020-11-10T23:28:34Z</time>
      </trkpt>
      <trkpt lat="28.4867870" lon="-16.2341670">
        <ele>34.0</ele>
        <time>2020-11-10T23:28:35Z</time>
      </trkpt>
      <trkpt lat="28.4867870" lon="-16.2341670">
        <ele>34.0</ele>
        <time>2020-11-10T23:28:36Z</time>
      </trkpt>
      <trkpt lat="28.4868080" lon="-16.2340420">
        <ele>34.0</ele>
        <time>2020-11-10T23:28:37Z</time>
      </trkpt>
      <trkpt lat="28.4868080" lon="-16.2340420">
        <ele>34.0</ele>
        <time>2020-11-10T23:28:38Z</time>
      </trkpt>
      <trkpt lat="28.4868350" lon="-16.2339230">
        <ele>34.0</ele>
        <time>2020-11-10T23:28:39Z</time>
      </trkpt>
      <trkpt lat="28.4868350" lon="-16.2339230">
        <ele>34.0</ele>
        <time>2020-11-10T23:28:40Z</time>
      </trkpt>
      <trkpt lat="28.4868720" lon="-16.2338180">
        <ele>34.0</ele>
        <time>2020-11-10T23:28:41Z</time>
      </trkpt>
      <trkpt lat="28.4868720" lon="-16.2338180">
        <ele>34.0</ele>
        <time>2020-11-10T23:28:42Z</time>
      </trkpt>
      <trkpt lat="28.4869030" lon="-16.2337070">
        <ele>34.0</ele>
        <time>2020-11-10T23:28:43Z</time>
      </trkpt>
      <trkpt lat="28.4869030" lon="-16.2337070">
        <ele>34.0</ele>
        <time>2020-11-10T23:28:44Z</time>
      </trkpt>
      <trkpt lat="28.4869500" lon="-16.2335980">
        <ele>34.0</ele>
        <time>2020-11-10T23:28:45Z</time>
      </trkpt>
      <trkpt lat="28.4869500" lon="-16.2335980">
        <ele>34.0</ele>
        <time>2020-11-10T23:28:46Z</time>
      </trkpt>
      <trkpt lat="28.4869880" lon="-16.2334880">
        <ele>34.0</ele>
        <time>2020-11-10T23:28:47Z</time>
      </trkpt>
      <trkpt lat="28.4869880" lon="-16.2334880">
        <ele>34.0</ele>
        <time>2020-11-10T23:28:48Z</time>
      </trkpt>
      <trkpt lat="28.4870300" lon="-16.2333880">
        <ele>34.0</ele>
        <time>2020-11-10T23:28:49Z</time>
      </trkpt>
      <trkpt lat="28.4870300" lon="-16.2333880">
        <ele>34.0</ele>
        <time>2020-11-10T23:28:50Z</time>
      </trkpt>
      <trkpt lat="28.4870780" lon="-16.2332950">
        <ele>34.0</ele>
        <time>2020-11-10T23:28:51Z</time>
      </trkpt>
      <trkpt lat="28.4870780" lon="-16.2332950">
        <ele>34.0</ele>
        <time>2020-11-10T23:28:52Z</time>
      </trkpt>
      <trkpt lat="28.4871250" lon="-16.2331870">
        <ele>33.0</ele>
        <time>2020-11-10T23:28:53Z</time>
      </trkpt>
      <trkpt lat="28.4871500" lon="-16.2331330">
        <ele>33.0</ele>
        <time>2020-11-10T23:28:54Z</time>
      </trkpt>
      <trkpt lat="28.4871820" lon="-16.2330770">
        <ele>33.0</ele>
        <time>2020-11-10T23:28:55Z</time>
      </trkpt>
      <trkpt lat="28.4871820" lon="-16.2330770">
        <ele>33.0</ele>
        <time>2020-11-10T23:28:56Z</time>
      </trkpt>
      <trkpt lat="28.4872430" lon="-16.2329670">
        <ele>33.0</ele>
        <time>2020-11-10T23:28:57Z</time>
      </trkpt>
      <trkpt lat="28.4872430" lon="-16.2329670">
        <ele>33.0</ele>
        <time>2020-11-10T23:28:58Z</time>
      </trkpt>
      <trkpt lat="28.4873120" lon="-16.2328600">
        <ele>33.0</ele>
        <time>2020-11-10T23:28:59Z</time>
      </trkpt>
      <trkpt lat="28.4873480" lon="-16.2328080">
        <ele>33.0</ele>
        <time>2020-11-10T23:29:00Z</time>
      </trkpt>
      <trkpt lat="28.4873480" lon="-16.2328080">
        <ele>33.0</ele>
        <time>2020-11-10T23:29:01Z</time>
      </trkpt>
      <trkpt lat="28.4874180" lon="-16.2327120">
        <ele>33.0</ele>
        <time>2020-11-10T23:29:02Z</time>
      </trkpt>
      <trkpt lat="28.4874180" lon="-16.2327120">
        <ele>33.0</ele>
        <time>2020-11-10T23:29:03Z</time>
      </trkpt>
      <trkpt lat="28.4875000" lon="-16.2326220">
        <ele>33.0</ele>
        <time>2020-11-10T23:29:04Z</time>
      </trkpt>
      <trkpt lat="28.4875330" lon="-16.2325780">
        <ele>33.0</ele>
        <time>2020-11-10T23:29:05Z</time>
      </trkpt>
      <trkpt lat="28.4875330" lon="-16.2325780">
        <ele>33.0</ele>
        <time>2020-11-10T23:29:06Z</time>
      </trkpt>
      <trkpt lat="28.4876050" lon="-16.2324950">
        <ele>33.0</ele>
        <time>2020-11-10T23:29:07Z</time>
      </trkpt>
      <trkpt lat="28.4876050" lon="-16.2324950">
        <ele>33.0</ele>
        <time>2020-11-10T23:29:08Z</time>
      </trkpt>
      <trkpt lat="28.4876880" lon="-16.2324150">
        <ele>33.0</ele>
        <time>2020-11-10T23:29:09Z</time>
      </trkpt>
      <trkpt lat="28.4876880" lon="-16.2324150">
        <ele>33.0</ele>
        <time>2020-11-10T23:29:10Z</time>
      </trkpt>
      <trkpt lat="28.4877730" lon="-16.2323480">
        <ele>33.0</ele>
        <time>2020-11-10T23:29:11Z</time>
      </trkpt>
      <trkpt lat="28.4877730" lon="-16.2323480">
        <ele>32.0</ele>
        <time>2020-11-10T23:29:12Z</time>
      </trkpt>
      <trkpt lat="28.4878580" lon="-16.2322920">
        <ele>32.0</ele>
        <time>2020-11-10T23:29:13Z</time>
      </trkpt>
      <trkpt lat="28.4878580" lon="-16.2322920">
        <ele>32.0</ele>
        <time>2020-11-10T23:29:14Z</time>
      </trkpt>
      <trkpt lat="28.4879400" lon="-16.2322320">
        <ele>32.0</ele>
        <time>2020-11-10T23:29:15Z</time>
      </trkpt>
      <trkpt lat="28.4879780" lon="-16.2322020">
        <ele>32.0</ele>
        <time>2020-11-10T23:29:16Z</time>
      </trkpt>
      <trkpt lat="28.4879780" lon="-16.2322020">
        <ele>32.0</ele>
        <time>2020-11-10T23:29:17Z</time>
      </trkpt>
      <trkpt lat="28.4880530" lon="-16.2321470">
        <ele>32.0</ele>
        <time>2020-11-10T23:29:18Z</time>
      </trkpt>
      <trkpt lat="28.4880530" lon="-16.2321470">
        <ele>32.0</ele>
        <time>2020-11-10T23:29:19Z</time>
      </trkpt>
      <trkpt lat="28.4881230" lon="-16.2320900">
        <ele>32.0</ele>
        <time>2020-11-10T23:29:20Z</time>
      </trkpt>
      <trkpt lat="28.4881230" lon="-16.2320900">
        <ele>32.0</ele>
        <time>2020-11-10T23:29:21Z</time>
      </trkpt>
      <trkpt lat="28.4881900" lon="-16.2320430">
        <ele>32.0</ele>
        <time>2020-11-10T23:29:22Z</time>
      </trkpt>
      <trkpt lat="28.4882220" lon="-16.2320220">
        <ele>32.0</ele>
        <time>2020-11-10T23:29:23Z</time>
      </trkpt>
      <trkpt lat="28.4882220" lon="-16.2320220">
        <ele>32.0</ele>
        <time>2020-11-10T23:29:24Z</time>
      </trkpt>
      <trkpt lat="28.4882980" lon="-16.2319730">
        <ele>32.0</ele>
        <time>2020-11-10T23:29:25Z</time>
      </trkpt>
      <trkpt lat="28.4882980" lon="-16.2319730">
        <ele>32.0</ele>
        <time>2020-11-10T23:29:26Z</time>
      </trkpt>
      <trkpt lat="28.4883770" lon="-16.2319250">
        <ele>32.0</ele>
        <time>2020-11-10T23:29:27Z</time>
      </trkpt>
      <trkpt lat="28.4883770" lon="-16.2319250">
        <ele>32.0</ele>
        <time>2020-11-10T23:29:28Z</time>
      </trkpt>
      <trkpt lat="28.4884570" lon="-16.2318680">
        <ele>32.0</ele>
        <time>2020-11-10T23:29:29Z</time>
      </trkpt>
      <trkpt lat="28.4884570" lon="-16.2318680">
        <ele>32.0</ele>
        <time>2020-11-10T23:29:30Z</time>
      </trkpt>
      <trkpt lat="28.4885470" lon="-16.2318150">
        <ele>32.0</ele>
        <time>2020-11-10T23:29:31Z</time>
      </trkpt>
      <trkpt lat="28.4885470" lon="-16.2318150">
        <ele>32.0</ele>
        <time>2020-11-10T23:29:32Z</time>
      </trkpt>
      <trkpt lat="28.4886280" lon="-16.2317450">
        <ele>32.0</ele>
        <time>2020-11-10T23:29:33Z</time>
      </trkpt>
      <trkpt lat="28.4886280" lon="-16.2317450">
        <ele>31.0</ele>
        <time>2020-11-10T23:29:34Z</time>
      </trkpt>
      <trkpt lat="28.4887130" lon="-16.2316870">
        <ele>31.0</ele>
        <time>2020-11-10T23:29:35Z</time>
      </trkpt>
      <trkpt lat="28.4887580" lon="-16.2316580">
        <ele>31.0</ele>
        <time>2020-11-10T23:29:36Z</time>
      </trkpt>
      <trkpt lat="28.4887580" lon="-16.2316580">
        <ele>31.0</ele>
        <time>2020-11-10T23:29:37Z</time>
      </trkpt>
      <trkpt lat="28.4888480" lon="-16.2316080">
        <ele>31.0</ele>
        <time>2020-11-10T23:29:38Z</time>
      </trkpt>
      <trkpt lat="28.4888920" lon="-16.2315850">
        <ele>31.0</ele>
        <time>2020-11-10T23:29:39Z</time>
      </trkpt>
      <trkpt lat="28.4889320" lon="-16.2315570">
        <ele>31.0</ele>
        <time>2020-11-10T23:29:40Z</time>
      </trkpt>
      <trkpt lat="28.4889320" lon="-16.2315570">
        <ele>31.0</ele>
        <time>2020-11-10T23:29:41Z</time>
      </trkpt>
      <trkpt lat="28.4890180" lon="-16.2315050">
        <ele>31.0</ele>
        <time>2020-11-10T23:29:42Z</time>
      </trkpt>
      <trkpt lat="28.4890550" lon="-16.2314850">
        <ele>31.0</ele>
        <time>2020-11-10T23:29:43Z</time>
      </trkpt>
      <trkpt lat="28.4890550" lon="-16.2314850">
        <ele>31.0</ele>
        <time>2020-11-10T23:29:44Z</time>
      </trkpt>
      <trkpt lat="28.4891330" lon="-16.2314380">
        <ele>31.0</ele>
        <time>2020-11-10T23:29:45Z</time>
      </trkpt>
      <trkpt lat="28.4891750" lon="-16.2314030">
        <ele>31.0</ele>
        <time>2020-11-10T23:29:46Z</time>
      </trkpt>
      <trkpt lat="28.4891750" lon="-16.2314030">
        <ele>31.0</ele>
        <time>2020-11-10T23:29:47Z</time>
      </trkpt>
      <trkpt lat="28.4892520" lon="-16.2313350">
        <ele>31.0</ele>
        <time>2020-11-10T23:29:48Z</time>
      </trkpt>
      <trkpt lat="28.4892880" lon="-16.2313020">
        <ele>31.0</ele>
        <time>2020-11-10T23:29:49Z</time>
      </trkpt>
      <trkpt lat="28.4892880" lon="-16.2313020">
        <ele>31.0</ele>
        <time>2020-11-10T23:29:50Z</time>
      </trkpt>
      <trkpt lat="28.4893580" lon="-16.2312300">
        <ele>31.0</ele>
        <time>2020-11-10T23:29:51Z</time>
      </trkpt>
      <trkpt lat="28.4893580" lon="-16.2312300">
        <ele>31.0</ele>
        <time>2020-11-10T23:29:52Z</time>
      </trkpt>
      <trkpt lat="28.4894220" lon="-16.2311680">
        <ele>31.0</ele>
        <time>2020-11-10T23:29:53Z</time>
      </trkpt>
      <trkpt lat="28.4894500" lon="-16.2311420">
        <ele>31.0</ele>
        <time>2020-11-10T23:29:54Z</time>
      </trkpt>
      <trkpt lat="28.4894730" lon="-16.2311180">
        <ele>31.0</ele>
        <time>2020-11-10T23:29:55Z</time>
      </trkpt>
      <trkpt lat="28.4894730" lon="-16.2311180">
        <ele>31.0</ele>
        <time>2020-11-10T23:29:56Z</time>
      </trkpt>
      <trkpt lat="28.4895130" lon="-16.2310550">
        <ele>31.0</ele>
        <time>2020-11-10T23:29:57Z</time>
      </trkpt>
      <trkpt lat="28.4895420" lon="-16.2310180">
        <ele>31.0</ele>
        <time>2020-11-10T23:29:58Z</time>
      </trkpt>
      <trkpt lat="28.4895800" lon="-16.2309870">
        <ele>31.0</ele>
        <time>2020-11-10T23:29:59Z</time>
      </trkpt>
      <trkpt lat="28.4895800" lon="-16.2309870">
        <ele>31.0</ele>
        <time>2020-11-10T23:30:00Z</time>
      </trkpt>
      <trkpt lat="28.4896370" lon="-16.2309070">
        <ele>31.0</ele>
        <time>2020-11-10T23:30:01Z</time>
      </trkpt>
      <trkpt lat="28.4896720" lon="-16.2308700">
        <ele>31.0</ele>
        <time>2020-11-10T23:30:02Z</time>
      </trkpt>
      <trkpt lat="28.4896720" lon="-16.2308700">
        <ele>31.0</ele>
        <time>2020-11-10T23:30:03Z</time>
      </trkpt>
      <trkpt lat="28.4897480" lon="-16.2307970">
        <ele>31.0</ele>
        <time>2020-11-10T23:30:04Z</time>
      </trkpt>
      <trkpt lat="28.4897480" lon="-16.2307970">
        <ele>31.0</ele>
        <time>2020-11-10T23:30:05Z</time>
      </trkpt>
      <trkpt lat="28.4898150" lon="-16.2307270">
        <ele>31.0</ele>
        <time>2020-11-10T23:30:06Z</time>
      </trkpt>
      <trkpt lat="28.4898150" lon="-16.2307270">
        <ele>31.0</ele>
        <time>2020-11-10T23:30:07Z</time>
      </trkpt>
      <trkpt lat="28.4898650" lon="-16.2306380">
        <ele>31.0</ele>
        <time>2020-11-10T23:30:08Z</time>
      </trkpt>
      <trkpt lat="28.4899030" lon="-16.2306000">
        <ele>31.0</ele>
        <time>2020-11-10T23:30:09Z</time>
      </trkpt>
      <trkpt lat="28.4899030" lon="-16.2306000">
        <ele>31.0</ele>
        <time>2020-11-10T23:30:10Z</time>
      </trkpt>
      <trkpt lat="28.4899830" lon="-16.2305250">
        <ele>31.0</ele>
        <time>2020-11-10T23:30:11Z</time>
      </trkpt>
      <trkpt lat="28.4899830" lon="-16.2305250">
        <ele>31.0</ele>
        <time>2020-11-10T23:30:12Z</time>
      </trkpt>
      <trkpt lat="28.4900530" lon="-16.2304320">
        <ele>31.0</ele>
        <time>2020-11-10T23:30:13Z</time>
      </trkpt>
      <trkpt lat="28.4900530" lon="-16.2304320">
        <ele>31.0</ele>
        <time>2020-11-10T23:30:14Z</time>
      </trkpt>
      <trkpt lat="28.4901120" lon="-16.2303350">
        <ele>31.0</ele>
        <time>2020-11-10T23:30:15Z</time>
      </trkpt>
      <trkpt lat="28.4901120" lon="-16.2303350">
        <ele>31.0</ele>
        <time>2020-11-10T23:30:16Z</time>
      </trkpt>
      <trkpt lat="28.4901700" lon="-16.2302380">
        <ele>31.0</ele>
        <time>2020-11-10T23:30:17Z</time>
      </trkpt>
      <trkpt lat="28.4901970" lon="-16.2301920">
        <ele>31.0</ele>
        <time>2020-11-10T23:30:18Z</time>
      </trkpt>
      <trkpt lat="28.4902250" lon="-16.2301470">
        <ele>31.0</ele>
        <time>2020-11-10T23:30:19Z</time>
      </trkpt>
      <trkpt lat="28.4902250" lon="-16.2301470">
        <ele>31.0</ele>
        <time>2020-11-10T23:30:20Z</time>
      </trkpt>
      <trkpt lat="28.4902820" lon="-16.2300530">
        <ele>31.0</ele>
        <time>2020-11-10T23:30:21Z</time>
      </trkpt>
      <trkpt lat="28.4902820" lon="-16.2300530">
        <ele>31.0</ele>
        <time>2020-11-10T23:30:22Z</time>
      </trkpt>
      <trkpt lat="28.4903270" lon="-16.2299570">
        <ele>31.0</ele>
        <time>2020-11-10T23:30:23Z</time>
      </trkpt>
      <trkpt lat="28.4903480" lon="-16.2299130">
        <ele>31.0</ele>
        <time>2020-11-10T23:30:24Z</time>
      </trkpt>
      <trkpt lat="28.4903650" lon="-16.2298720">
        <ele>31.0</ele>
        <time>2020-11-10T23:30:25Z</time>
      </trkpt>
      <trkpt lat="28.4903650" lon="-16.2298720">
        <ele>31.0</ele>
        <time>2020-11-10T23:30:26Z</time>
      </trkpt>
      <trkpt lat="28.4903920" lon="-16.2297800">
        <ele>31.0</ele>
        <time>2020-11-10T23:30:27Z</time>
      </trkpt>
      <trkpt lat="28.4903920" lon="-16.2297800">
        <ele>31.0</ele>
        <time>2020-11-10T23:30:28Z</time>
      </trkpt>
      <trkpt lat="28.4903930" lon="-16.2296770">
        <ele>31.0</ele>
        <time>2020-11-10T23:30:29Z</time>
      </trkpt>
      <trkpt lat="28.4903930" lon="-16.2296770">
        <ele>31.0</ele>
        <time>2020-11-10T23:30:30Z</time>
      </trkpt>
      <trkpt lat="28.4904030" lon="-16.2295730">
        <ele>31.0</ele>
        <time>2020-11-10T23:30:31Z</time>
      </trkpt>
      <trkpt lat="28.4904030" lon="-16.2295730">
        <ele>31.0</ele>
        <time>2020-11-10T23:30:32Z</time>
      </trkpt>
      <trkpt lat="28.4904130" lon="-16.2294630">
        <ele>31.0</ele>
        <time>2020-11-10T23:30:33Z</time>
      </trkpt>
      <trkpt lat="28.4904130" lon="-16.2294630">
        <ele>31.0</ele>
        <time>2020-11-10T23:30:34Z</time>
      </trkpt>
      <trkpt lat="28.4904280" lon="-16.2293620">
        <ele>31.0</ele>
        <time>2020-11-10T23:30:35Z</time>
      </trkpt>
      <trkpt lat="28.4904180" lon="-16.2292880">
        <ele>31.0</ele>
        <time>2020-11-10T23:30:36Z</time>
      </trkpt>
      <trkpt lat="28.4904180" lon="-16.2292880">
        <ele>31.0</ele>
        <time>2020-11-10T23:30:37Z</time>
      </trkpt>
      <trkpt lat="28.4904380" lon="-16.2291850">
        <ele>31.0</ele>
        <time>2020-11-10T23:30:38Z</time>
      </trkpt>
      <trkpt lat="28.4904380" lon="-16.2291850">
        <ele>31.0</ele>
        <time>2020-11-10T23:30:39Z</time>
      </trkpt>
      <trkpt lat="28.4904670" lon="-16.2290780">
        <ele>31.0</ele>
        <time>2020-11-10T23:30:40Z</time>
      </trkpt>
      <trkpt lat="28.4904670" lon="-16.2290780">
        <ele>31.0</ele>
        <time>2020-11-10T23:30:41Z</time>
      </trkpt>
      <trkpt lat="28.4904970" lon="-16.2289880">
        <ele>31.0</ele>
        <time>2020-11-10T23:30:42Z</time>
      </trkpt>
      <trkpt lat="28.4905180" lon="-16.2289350">
        <ele>31.0</ele>
        <time>2020-11-10T23:30:43Z</time>
      </trkpt>
      <trkpt lat="28.4905450" lon="-16.2288770">
        <ele>31.0</ele>
        <time>2020-11-10T23:30:44Z</time>
      </trkpt>
      <trkpt lat="28.4905450" lon="-16.2288770">
        <ele>31.0</ele>
        <time>2020-11-10T23:30:45Z</time>
      </trkpt>
      <trkpt lat="28.4906030" lon="-16.2287650">
        <ele>31.0</ele>
        <time>2020-11-10T23:30:46Z</time>
      </trkpt>
      <trkpt lat="28.4906200" lon="-16.2287130">
        <ele>31.0</ele>
        <time>2020-11-10T23:30:47Z</time>
      </trkpt>
      <trkpt lat="28.4906200" lon="-16.2287130">
        <ele>31.0</ele>
        <time>2020-11-10T23:30:48Z</time>
      </trkpt>
      <trkpt lat="28.4906520" lon="-16.2286150">
        <ele>31.0</ele>
        <time>2020-11-10T23:30:49Z</time>
      </trkpt>
      <trkpt lat="28.4906520" lon="-16.2286150">
        <ele>31.0</ele>
        <time>2020-11-10T23:30:50Z</time>
      </trkpt>
      <trkpt lat="28.4906720" lon="-16.2285100">
        <ele>31.0</ele>
        <time>2020-11-10T23:30:51Z</time>
      </trkpt>
      <trkpt lat="28.4906720" lon="-16.2285100">
        <ele>31.0</ele>
        <time>2020-11-10T23:30:52Z</time>
      </trkpt>
      <trkpt lat="28.4907000" lon="-16.2284130">
        <ele>31.0</ele>
        <time>2020-11-10T23:30:53Z</time>
      </trkpt>
      <trkpt lat="28.4907200" lon="-16.2283670">
        <ele>31.0</ele>
        <time>2020-11-10T23:30:54Z</time>
      </trkpt>
      <trkpt lat="28.4907200" lon="-16.2283670">
        <ele>31.0</ele>
        <time>2020-11-10T23:30:55Z</time>
      </trkpt>
      <trkpt lat="28.4907500" lon="-16.2282680">
        <ele>31.0</ele>
        <time>2020-11-10T23:30:56Z</time>
      </trkpt>
      <trkpt lat="28.4907630" lon="-16.2282180">
        <ele>31.0</ele>
        <time>2020-11-10T23:30:57Z</time>
      </trkpt>
      <trkpt lat="28.4907630" lon="-16.2282180">
        <ele>31.0</ele>
        <time>2020-11-10T23:30:58Z</time>
      </trkpt>
      <trkpt lat="28.4907920" lon="-16.2281230">
        <ele>31.0</ele>
        <time>2020-11-10T23:30:59Z</time>
      </trkpt>
      <trkpt lat="28.4907920" lon="-16.2281230">
        <ele>32.0</ele>
        <time>2020-11-10T23:31:00Z</time>
      </trkpt>
      <trkpt lat="28.4908170" lon="-16.2280320">
        <ele>32.0</ele>
        <time>2020-11-10T23:31:01Z</time>
      </trkpt>
      <trkpt lat="28.4908170" lon="-16.2280320">
        <ele>32.0</ele>
        <time>2020-11-10T23:31:02Z</time>
      </trkpt>
      <trkpt lat="28.4908570" lon="-16.2279400">
        <ele>32.0</ele>
        <time>2020-11-10T23:31:03Z</time>
      </trkpt>
      <trkpt lat="28.4908570" lon="-16.2279400">
        <ele>32.0</ele>
        <time>2020-11-10T23:31:04Z</time>
      </trkpt>
      <trkpt lat="28.4908980" lon="-16.2278420">
        <ele>32.0</ele>
        <time>2020-11-10T23:31:05Z</time>
      </trkpt>
      <trkpt lat="28.4908980" lon="-16.2278420">
        <ele>32.0</ele>
        <time>2020-11-10T23:31:06Z</time>
      </trkpt>
      <trkpt lat="28.4909220" lon="-16.2277480">
        <ele>32.0</ele>
        <time>2020-11-10T23:31:07Z</time>
      </trkpt>
      <trkpt lat="28.4909350" lon="-16.2277000">
        <ele>32.0</ele>
        <time>2020-11-10T23:31:08Z</time>
      </trkpt>
      <trkpt lat="28.4909350" lon="-16.2277000">
        <ele>32.0</ele>
        <time>2020-11-10T23:31:09Z</time>
      </trkpt>
      <trkpt lat="28.4909670" lon="-16.2276130">
        <ele>32.0</ele>
        <time>2020-11-10T23:31:10Z</time>
      </trkpt>
      <trkpt lat="28.4909670" lon="-16.2276130">
        <ele>32.0</ele>
        <time>2020-11-10T23:31:11Z</time>
      </trkpt>
      <trkpt lat="28.4909920" lon="-16.2275200">
        <ele>32.0</ele>
        <time>2020-11-10T23:31:12Z</time>
      </trkpt>
      <trkpt lat="28.4910050" lon="-16.2274720">
        <ele>32.0</ele>
        <time>2020-11-10T23:31:13Z</time>
      </trkpt>
      <trkpt lat="28.4910050" lon="-16.2274720">
        <ele>32.0</ele>
        <time>2020-11-10T23:31:14Z</time>
      </trkpt>
      <trkpt lat="28.4910350" lon="-16.2273770">
        <ele>32.0</ele>
        <time>2020-11-10T23:31:15Z</time>
      </trkpt>
      <trkpt lat="28.4910350" lon="-16.2273770">
        <ele>32.0</ele>
        <time>2020-11-10T23:31:16Z</time>
      </trkpt>
      <trkpt lat="28.4910600" lon="-16.2272800">
        <ele>32.0</ele>
        <time>2020-11-10T23:31:17Z</time>
      </trkpt>
      <trkpt lat="28.4910600" lon="-16.2272800">
        <ele>32.0</ele>
        <time>2020-11-10T23:31:18Z</time>
      </trkpt>
      <trkpt lat="28.4910870" lon="-16.2271850">
        <ele>32.0</ele>
        <time>2020-11-10T23:31:19Z</time>
      </trkpt>
      <trkpt lat="28.4910870" lon="-16.2271850">
        <ele>32.0</ele>
        <time>2020-11-10T23:31:20Z</time>
      </trkpt>
      <trkpt lat="28.4911100" lon="-16.2270850">
        <ele>32.0</ele>
        <time>2020-11-10T23:31:21Z</time>
      </trkpt>
      <trkpt lat="28.4911100" lon="-16.2270850">
        <ele>32.0</ele>
        <time>2020-11-10T23:31:22Z</time>
      </trkpt>
      <trkpt lat="28.4911350" lon="-16.2269870">
        <ele>32.0</ele>
        <time>2020-11-10T23:31:23Z</time>
      </trkpt>
      <trkpt lat="28.4911350" lon="-16.2269870">
        <ele>32.0</ele>
        <time>2020-11-10T23:31:24Z</time>
      </trkpt>
      <trkpt lat="28.4911630" lon="-16.2268880">
        <ele>32.0</ele>
        <time>2020-11-10T23:31:25Z</time>
      </trkpt>
      <trkpt lat="28.4911780" lon="-16.2268380">
        <ele>32.0</ele>
        <time>2020-11-10T23:31:26Z</time>
      </trkpt>
      <trkpt lat="28.4911780" lon="-16.2268380">
        <ele>32.0</ele>
        <time>2020-11-10T23:31:27Z</time>
      </trkpt>
      <trkpt lat="28.4912100" lon="-16.2267430">
        <ele>32.0</ele>
        <time>2020-11-10T23:31:28Z</time>
      </trkpt>
      <trkpt lat="28.4912100" lon="-16.2267430">
        <ele>32.0</ele>
        <time>2020-11-10T23:31:29Z</time>
      </trkpt>
      <trkpt lat="28.4912370" lon="-16.2266470">
        <ele>32.0</ele>
        <time>2020-11-10T23:31:30Z</time>
      </trkpt>
      <trkpt lat="28.4912520" lon="-16.2266000">
        <ele>32.0</ele>
        <time>2020-11-10T23:31:31Z</time>
      </trkpt>
      <trkpt lat="28.4912520" lon="-16.2266000">
        <ele>32.0</ele>
        <time>2020-11-10T23:31:32Z</time>
      </trkpt>
      <trkpt lat="28.4912770" lon="-16.2265030">
        <ele>32.0</ele>
        <time>2020-11-10T23:31:33Z</time>
      </trkpt>
      <trkpt lat="28.4912770" lon="-16.2265030">
        <ele>32.0</ele>
        <time>2020-11-10T23:31:34Z</time>
      </trkpt>
      <trkpt lat="28.4913000" lon="-16.2264070">
        <ele>32.0</ele>
        <time>2020-11-10T23:31:35Z</time>
      </trkpt>
      <trkpt lat="28.4913000" lon="-16.2264070">
        <ele>32.0</ele>
        <time>2020-11-10T23:31:36Z</time>
      </trkpt>
      <trkpt lat="28.4913280" lon="-16.2262950">
        <ele>32.0</ele>
        <time>2020-11-10T23:31:37Z</time>
      </trkpt>
      <trkpt lat="28.4913280" lon="-16.2262950">
        <ele>32.0</ele>
        <time>2020-11-10T23:31:38Z</time>
      </trkpt>
      <trkpt lat="28.4913620" lon="-16.2261970">
        <ele>32.0</ele>
        <time>2020-11-10T23:31:39Z</time>
      </trkpt>
      <trkpt lat="28.4913620" lon="-16.2261970">
        <ele>32.0</ele>
        <time>2020-11-10T23:31:40Z</time>
      </trkpt>
      <trkpt lat="28.4913880" lon="-16.2261020">
        <ele>32.0</ele>
        <time>2020-11-10T23:31:41Z</time>
      </trkpt>
      <trkpt lat="28.4914070" lon="-16.2260550">
        <ele>32.0</ele>
        <time>2020-11-10T23:31:42Z</time>
      </trkpt>
      <trkpt lat="28.4914070" lon="-16.2260550">
        <ele>32.0</ele>
        <time>2020-11-10T23:31:43Z</time>
      </trkpt>
      <trkpt lat="28.4914370" lon="-16.2259650">
        <ele>32.0</ele>
        <time>2020-11-10T23:31:44Z</time>
      </trkpt>
      <trkpt lat="28.4914570" lon="-16.2259220">
        <ele>32.0</ele>
        <time>2020-11-10T23:31:45Z</time>
      </trkpt>
      <trkpt lat="28.4914570" lon="-16.2259220">
        <ele>32.0</ele>
        <time>2020-11-10T23:31:46Z</time>
      </trkpt>
      <trkpt lat="28.4914870" lon="-16.2258320">
        <ele>32.0</ele>
        <time>2020-11-10T23:31:47Z</time>
      </trkpt>
      <trkpt lat="28.4914870" lon="-16.2258320">
        <ele>32.0</ele>
        <time>2020-11-10T23:31:48Z</time>
      </trkpt>
      <trkpt lat="28.4915150" lon="-16.2257330">
        <ele>32.0</ele>
        <time>2020-11-10T23:31:49Z</time>
      </trkpt>
      <trkpt lat="28.4915150" lon="-16.2257330">
        <ele>32.0</ele>
        <time>2020-11-10T23:31:50Z</time>
      </trkpt>
      <trkpt lat="28.4915420" lon="-16.2256380">
        <ele>32.0</ele>
        <time>2020-11-10T23:31:51Z</time>
      </trkpt>
      <trkpt lat="28.4915420" lon="-16.2256380">
        <ele>32.0</ele>
        <time>2020-11-10T23:31:52Z</time>
      </trkpt>
      <trkpt lat="28.4915680" lon="-16.2255480">
        <ele>32.0</ele>
        <time>2020-11-10T23:31:53Z</time>
      </trkpt>
      <trkpt lat="28.4915680" lon="-16.2255480">
        <ele>32.0</ele>
        <time>2020-11-10T23:31:54Z</time>
      </trkpt>
      <trkpt lat="28.4916000" lon="-16.2254570">
        <ele>32.0</ele>
        <time>2020-11-10T23:31:55Z</time>
      </trkpt>
      <trkpt lat="28.4916000" lon="-16.2254570">
        <ele>32.0</ele>
        <time>2020-11-10T23:31:56Z</time>
      </trkpt>
      <trkpt lat="28.4916300" lon="-16.2253550">
        <ele>32.0</ele>
        <time>2020-11-10T23:31:57Z</time>
      </trkpt>
      <trkpt lat="28.4916300" lon="-16.2253550">
        <ele>32.0</ele>
        <time>2020-11-10T23:31:58Z</time>
      </trkpt>
      <trkpt lat="28.4916520" lon="-16.2252520">
        <ele>32.0</ele>
        <time>2020-11-10T23:31:59Z</time>
      </trkpt>
      <trkpt lat="28.4916520" lon="-16.2252520">
        <ele>32.0</ele>
        <time>2020-11-10T23:32:00Z</time>
      </trkpt>
      <trkpt lat="28.4916670" lon="-16.2251480">
        <ele>32.0</ele>
        <time>2020-11-10T23:32:01Z</time>
      </trkpt>
      <trkpt lat="28.4916670" lon="-16.2251480">
        <ele>32.0</ele>
        <time>2020-11-10T23:32:02Z</time>
      </trkpt>
      <trkpt lat="28.4916780" lon="-16.2250480">
        <ele>32.0</ele>
        <time>2020-11-10T23:32:03Z</time>
      </trkpt>
      <trkpt lat="28.4916780" lon="-16.2250480">
        <ele>32.0</ele>
        <time>2020-11-10T23:32:04Z</time>
      </trkpt>
      <trkpt lat="28.4916920" lon="-16.2249400">
        <ele>32.0</ele>
        <time>2020-11-10T23:32:05Z</time>
      </trkpt>
      <trkpt lat="28.4916920" lon="-16.2249400">
        <ele>32.0</ele>
        <time>2020-11-10T23:32:06Z</time>
      </trkpt>
      <trkpt lat="28.4917050" lon="-16.2248230">
        <ele>32.0</ele>
        <time>2020-11-10T23:32:07Z</time>
      </trkpt>
      <trkpt lat="28.4917050" lon="-16.2248230">
        <ele>32.0</ele>
        <time>2020-11-10T23:32:08Z</time>
      </trkpt>
      <trkpt lat="28.4917180" lon="-16.2247100">
        <ele>32.0</ele>
        <time>2020-11-10T23:32:09Z</time>
      </trkpt>
      <trkpt lat="28.4917180" lon="-16.2247100">
        <ele>32.0</ele>
        <time>2020-11-10T23:32:10Z</time>
      </trkpt>
      <trkpt lat="28.4917230" lon="-16.2245970">
        <ele>32.0</ele>
        <time>2020-11-10T23:32:11Z</time>
      </trkpt>
      <trkpt lat="28.4917230" lon="-16.2245420">
        <ele>32.0</ele>
        <time>2020-11-10T23:32:12Z</time>
      </trkpt>
      <trkpt lat="28.4917230" lon="-16.2245420">
        <ele>32.0</ele>
        <time>2020-11-10T23:32:13Z</time>
      </trkpt>
      <trkpt lat="28.4917230" lon="-16.2244330">
        <ele>32.0</ele>
        <time>2020-11-10T23:32:14Z</time>
      </trkpt>
      <trkpt lat="28.4917230" lon="-16.2244330">
        <ele>32.0</ele>
        <time>2020-11-10T23:32:15Z</time>
      </trkpt>
      <trkpt lat="28.4917250" lon="-16.2243250">
        <ele>32.0</ele>
        <time>2020-11-10T23:32:16Z</time>
      </trkpt>
      <trkpt lat="28.4917250" lon="-16.2242700">
        <ele>32.0</ele>
        <time>2020-11-10T23:32:17Z</time>
      </trkpt>
      <trkpt lat="28.4917250" lon="-16.2242700">
        <ele>32.0</ele>
        <time>2020-11-10T23:32:18Z</time>
      </trkpt>
      <trkpt lat="28.4917230" lon="-16.2241570">
        <ele>32.0</ele>
        <time>2020-11-10T23:32:19Z</time>
      </trkpt>
      <trkpt lat="28.4917230" lon="-16.2241570">
        <ele>32.0</ele>
        <time>2020-11-10T23:32:20Z</time>
      </trkpt>
      <trkpt lat="28.4917150" lon="-16.2240420">
        <ele>32.0</ele>
        <time>2020-11-10T23:32:21Z</time>
      </trkpt>
      <trkpt lat="28.4917130" lon="-16.2239820">
        <ele>32.0</ele>
        <time>2020-11-10T23:32:22Z</time>
      </trkpt>
      <trkpt lat="28.4917130" lon="-16.2239820">
        <ele>31.0</ele>
        <time>2020-11-10T23:32:23Z</time>
      </trkpt>
      <trkpt lat="28.4917070" lon="-16.2238630">
        <ele>31.0</ele>
        <time>2020-11-10T23:32:24Z</time>
      </trkpt>
      <trkpt lat="28.4917050" lon="-16.2238020">
        <ele>31.0</ele>
        <time>2020-11-10T23:32:25Z</time>
      </trkpt>
      <trkpt lat="28.4917050" lon="-16.2238020">
        <ele>31.0</ele>
        <time>2020-11-10T23:32:26Z</time>
      </trkpt>
      <trkpt lat="28.4916980" lon="-16.2236820">
        <ele>31.0</ele>
        <time>2020-11-10T23:32:27Z</time>
      </trkpt>
      <trkpt lat="28.4916930" lon="-16.2236230">
        <ele>31.0</ele>
        <time>2020-11-10T23:32:28Z</time>
      </trkpt>
      <trkpt lat="28.4916930" lon="-16.2236230">
        <ele>31.0</ele>
        <time>2020-11-10T23:32:29Z</time>
      </trkpt>
      <trkpt lat="28.4916800" lon="-16.2235130">
        <ele>31.0</ele>
        <time>2020-11-10T23:32:30Z</time>
      </trkpt>
      <trkpt lat="28.4916800" lon="-16.2235130">
        <ele>31.0</ele>
        <time>2020-11-10T23:32:31Z</time>
      </trkpt>
      <trkpt lat="28.4916770" lon="-16.2233950">
        <ele>31.0</ele>
        <time>2020-11-10T23:32:32Z</time>
      </trkpt>
      <trkpt lat="28.4916730" lon="-16.2233350">
        <ele>31.0</ele>
        <time>2020-11-10T23:32:33Z</time>
      </trkpt>
      <trkpt lat="28.4916720" lon="-16.2232720">
        <ele>31.0</ele>
        <time>2020-11-10T23:32:34Z</time>
      </trkpt>
      <trkpt lat="28.4916720" lon="-16.2232720">
        <ele>31.0</ele>
        <time>2020-11-10T23:32:35Z</time>
      </trkpt>
      <trkpt lat="28.4916630" lon="-16.2231550">
        <ele>31.0</ele>
        <time>2020-11-10T23:32:36Z</time>
      </trkpt>
      <trkpt lat="28.4916600" lon="-16.2230950">
        <ele>31.0</ele>
        <time>2020-11-10T23:32:37Z</time>
      </trkpt>
      <trkpt lat="28.4916600" lon="-16.2230950">
        <ele>31.0</ele>
        <time>2020-11-10T23:32:38Z</time>
      </trkpt>
      <trkpt lat="28.4916400" lon="-16.2229780">
        <ele>31.0</ele>
        <time>2020-11-10T23:32:39Z</time>
      </trkpt>
      <trkpt lat="28.4916350" lon="-16.2229250">
        <ele>31.0</ele>
        <time>2020-11-10T23:32:40Z</time>
      </trkpt>
      <trkpt lat="28.4916350" lon="-16.2229250">
        <ele>29.0</ele>
        <time>2020-11-10T23:32:41Z</time>
      </trkpt>
      <trkpt lat="28.4916300" lon="-16.2228080">
        <ele>29.0</ele>
        <time>2020-11-10T23:32:42Z</time>
      </trkpt>
      <trkpt lat="28.4916300" lon="-16.2227480">
        <ele>31.0</ele>
        <time>2020-11-10T23:32:43Z</time>
      </trkpt>
      <trkpt lat="28.4916300" lon="-16.2226900">
        <ele>31.0</ele>
        <time>2020-11-10T23:32:44Z</time>
      </trkpt>
      <trkpt lat="28.4916300" lon="-16.2226900">
        <ele>31.0</ele>
        <time>2020-11-10T23:32:45Z</time>
      </trkpt>
      <trkpt lat="28.4916350" lon="-16.2225670">
        <ele>31.0</ele>
        <time>2020-11-10T23:32:46Z</time>
      </trkpt>
      <trkpt lat="28.4916350" lon="-16.2225670">
        <ele>31.0</ele>
        <time>2020-11-10T23:32:47Z</time>
      </trkpt>
      <trkpt lat="28.4916430" lon="-16.2224430">
        <ele>31.0</ele>
        <time>2020-11-10T23:32:48Z</time>
      </trkpt>
      <trkpt lat="28.4916430" lon="-16.2224430">
        <ele>31.0</ele>
        <time>2020-11-10T23:32:49Z</time>
      </trkpt>
      <trkpt lat="28.4916470" lon="-16.2223230">
        <ele>31.0</ele>
        <time>2020-11-10T23:32:50Z</time>
      </trkpt>
      <trkpt lat="28.4916480" lon="-16.2222650">
        <ele>31.0</ele>
        <time>2020-11-10T23:32:51Z</time>
      </trkpt>
      <trkpt lat="28.4916550" lon="-16.2222050">
        <ele>31.0</ele>
        <time>2020-11-10T23:32:52Z</time>
      </trkpt>
      <trkpt lat="28.4916550" lon="-16.2222050">
        <ele>31.0</ele>
        <time>2020-11-10T23:32:53Z</time>
      </trkpt>
      <trkpt lat="28.4916670" lon="-16.2220830">
        <ele>31.0</ele>
        <time>2020-11-10T23:32:54Z</time>
      </trkpt>
      <trkpt lat="28.4916730" lon="-16.2220220">
        <ele>31.0</ele>
        <time>2020-11-10T23:32:55Z</time>
      </trkpt>
      <trkpt lat="28.4916730" lon="-16.2220220">
        <ele>31.0</ele>
        <time>2020-11-10T23:32:56Z</time>
      </trkpt>
      <trkpt lat="28.4916900" lon="-16.2218930">
        <ele>31.0</ele>
        <time>2020-11-10T23:32:57Z</time>
      </trkpt>
      <trkpt lat="28.4916980" lon="-16.2218280">
        <ele>31.0</ele>
        <time>2020-11-10T23:32:58Z</time>
      </trkpt>
      <trkpt lat="28.4916980" lon="-16.2218280">
        <ele>31.0</ele>
        <time>2020-11-10T23:32:59Z</time>
      </trkpt>
      <trkpt lat="28.4917080" lon="-16.2216970">
        <ele>31.0</ele>
        <time>2020-11-10T23:33:00Z</time>
      </trkpt>
      <trkpt lat="28.4917170" lon="-16.2216320">
        <ele>31.0</ele>
        <time>2020-11-10T23:33:01Z</time>
      </trkpt>
      <trkpt lat="28.4917170" lon="-16.2216320">
        <ele>31.0</ele>
        <time>2020-11-10T23:33:02Z</time>
      </trkpt>
      <trkpt lat="28.4917330" lon="-16.2215070">
        <ele>31.0</ele>
        <time>2020-11-10T23:33:03Z</time>
      </trkpt>
      <trkpt lat="28.4917420" lon="-16.2214450">
        <ele>31.0</ele>
        <time>2020-11-10T23:33:04Z</time>
      </trkpt>
      <trkpt lat="28.4917500" lon="-16.2213850">
        <ele>31.0</ele>
        <time>2020-11-10T23:33:05Z</time>
      </trkpt>
      <trkpt lat="28.4917500" lon="-16.2213850">
        <ele>31.0</ele>
        <time>2020-11-10T23:33:06Z</time>
      </trkpt>
      <trkpt lat="28.4917600" lon="-16.2212680">
        <ele>31.0</ele>
        <time>2020-11-10T23:33:07Z</time>
      </trkpt>
      <trkpt lat="28.4917600" lon="-16.2212680">
        <ele>31.0</ele>
        <time>2020-11-10T23:33:08Z</time>
      </trkpt>
      <trkpt lat="28.4917700" lon="-16.2211530">
        <ele>31.0</ele>
        <time>2020-11-10T23:33:09Z</time>
      </trkpt>
      <trkpt lat="28.4917700" lon="-16.2211530">
        <ele>31.0</ele>
        <time>2020-11-10T23:33:10Z</time>
      </trkpt>
      <trkpt lat="28.4917730" lon="-16.2210380">
        <ele>31.0</ele>
        <time>2020-11-10T23:33:11Z</time>
      </trkpt>
      <trkpt lat="28.4917730" lon="-16.2210380">
        <ele>31.0</ele>
        <time>2020-11-10T23:33:12Z</time>
      </trkpt>
      <trkpt lat="28.4917700" lon="-16.2209170">
        <ele>31.0</ele>
        <time>2020-11-10T23:33:13Z</time>
      </trkpt>
      <trkpt lat="28.4917700" lon="-16.2209170">
        <ele>31.0</ele>
        <time>2020-11-10T23:33:14Z</time>
      </trkpt>
      <trkpt lat="28.4917770" lon="-16.2207980">
        <ele>31.0</ele>
        <time>2020-11-10T23:33:15Z</time>
      </trkpt>
      <trkpt lat="28.4917770" lon="-16.2207980">
        <ele>31.0</ele>
        <time>2020-11-10T23:33:16Z</time>
      </trkpt>
      <trkpt lat="28.4917880" lon="-16.2206930">
        <ele>31.0</ele>
        <time>2020-11-10T23:33:17Z</time>
      </trkpt>
      <trkpt lat="28.4917930" lon="-16.2206430">
        <ele>30.0</ele>
        <time>2020-11-10T23:33:18Z</time>
      </trkpt>
      <trkpt lat="28.4918000" lon="-16.2205930">
        <ele>30.0</ele>
        <time>2020-11-10T23:33:19Z</time>
      </trkpt>
      <trkpt lat="28.4918000" lon="-16.2205930">
        <ele>30.0</ele>
        <time>2020-11-10T23:33:20Z</time>
      </trkpt>
      <trkpt lat="28.4918050" lon="-16.2204930">
        <ele>30.0</ele>
        <time>2020-11-10T23:33:21Z</time>
      </trkpt>
      <trkpt lat="28.4918050" lon="-16.2204930">
        <ele>30.0</ele>
        <time>2020-11-10T23:33:22Z</time>
      </trkpt>
      <trkpt lat="28.4918080" lon="-16.2204050">
        <ele>30.0</ele>
        <time>2020-11-10T23:33:23Z</time>
      </trkpt>
      <trkpt lat="28.4918080" lon="-16.2204050">
        <ele>30.0</ele>
        <time>2020-11-10T23:33:24Z</time>
      </trkpt>
      <trkpt lat="28.4918070" lon="-16.2203200">
        <ele>30.0</ele>
        <time>2020-11-10T23:33:25Z</time>
      </trkpt>
      <trkpt lat="28.4918070" lon="-16.2203200">
        <ele>30.0</ele>
        <time>2020-11-10T23:33:26Z</time>
      </trkpt>
      <trkpt lat="28.4918000" lon="-16.2202220">
        <ele>30.0</ele>
        <time>2020-11-10T23:33:27Z</time>
      </trkpt>
      <trkpt lat="28.4918000" lon="-16.2202220">
        <ele>30.0</ele>
        <time>2020-11-10T23:33:28Z</time>
      </trkpt>
      <trkpt lat="28.4917850" lon="-16.2201200">
        <ele>30.0</ele>
        <time>2020-11-10T23:33:29Z</time>
      </trkpt>
      <trkpt lat="28.4917830" lon="-16.2200670">
        <ele>30.0</ele>
        <time>2020-11-10T23:33:30Z</time>
      </trkpt>
      <trkpt lat="28.4917830" lon="-16.2200670">
        <ele>30.0</ele>
        <time>2020-11-10T23:33:31Z</time>
      </trkpt>
      <trkpt lat="28.4917800" lon="-16.2199620">
        <ele>30.0</ele>
        <time>2020-11-10T23:33:32Z</time>
      </trkpt>
      <trkpt lat="28.4917780" lon="-16.2199070">
        <ele>30.0</ele>
        <time>2020-11-10T23:33:33Z</time>
      </trkpt>
      <trkpt lat="28.4917780" lon="-16.2199070">
        <ele>30.0</ele>
        <time>2020-11-10T23:33:34Z</time>
      </trkpt>
      <trkpt lat="28.4917680" lon="-16.2198020">
        <ele>30.0</ele>
        <time>2020-11-10T23:33:35Z</time>
      </trkpt>
      <trkpt lat="28.4917650" lon="-16.2197480">
        <ele>30.0</ele>
        <time>2020-11-10T23:33:36Z</time>
      </trkpt>
      <trkpt lat="28.4917630" lon="-16.2197000">
        <ele>30.0</ele>
        <time>2020-11-10T23:33:37Z</time>
      </trkpt>
      <trkpt lat="28.4917630" lon="-16.2197000">
        <ele>30.0</ele>
        <time>2020-11-10T23:33:38Z</time>
      </trkpt>
      <trkpt lat="28.4917700" lon="-16.2196020">
        <ele>30.0</ele>
        <time>2020-11-10T23:33:39Z</time>
      </trkpt>
      <trkpt lat="28.4917700" lon="-16.2196020">
        <ele>30.0</ele>
        <time>2020-11-10T23:33:40Z</time>
      </trkpt>
      <trkpt lat="28.4917980" lon="-16.2195120">
        <ele>30.0</ele>
        <time>2020-11-10T23:33:41Z</time>
      </trkpt>
      <trkpt lat="28.4918180" lon="-16.2194720">
        <ele>30.0</ele>
        <time>2020-11-10T23:33:42Z</time>
      </trkpt>
      <trkpt lat="28.4918380" lon="-16.2194280">
        <ele>30.0</ele>
        <time>2020-11-10T23:33:43Z</time>
      </trkpt>
      <trkpt lat="28.4918380" lon="-16.2194280">
        <ele>30.0</ele>
        <time>2020-11-10T23:33:44Z</time>
      </trkpt>
      <trkpt lat="28.4918770" lon="-16.2193300">
        <ele>30.0</ele>
        <time>2020-11-10T23:33:45Z</time>
      </trkpt>
      <trkpt lat="28.4918920" lon="-16.2192830">
        <ele>30.0</ele>
        <time>2020-11-10T23:33:46Z</time>
      </trkpt>
      <trkpt lat="28.4918920" lon="-16.2192830">
        <ele>30.0</ele>
        <time>2020-11-10T23:33:47Z</time>
      </trkpt>
      <trkpt lat="28.4919470" lon="-16.2192180">
        <ele>30.0</ele>
        <time>2020-11-10T23:33:48Z</time>
      </trkpt>
      <trkpt lat="28.4919470" lon="-16.2192180">
        <ele>30.0</ele>
        <time>2020-11-10T23:33:49Z</time>
      </trkpt>
      <trkpt lat="28.4920400" lon="-16.2191680">
        <ele>30.0</ele>
        <time>2020-11-10T23:33:50Z</time>
      </trkpt>
      <trkpt lat="28.4920400" lon="-16.2191680">
        <ele>30.0</ele>
        <time>2020-11-10T23:33:51Z</time>
      </trkpt>
      <trkpt lat="28.4921180" lon="-16.2191150">
        <ele>30.0</ele>
        <time>2020-11-10T23:33:52Z</time>
      </trkpt>
      <trkpt lat="28.4921530" lon="-16.2190850">
        <ele>30.0</ele>
        <time>2020-11-10T23:33:53Z</time>
      </trkpt>
      <trkpt lat="28.4921530" lon="-16.2190850">
        <ele>30.0</ele>
        <time>2020-11-10T23:33:54Z</time>
      </trkpt>
      <trkpt lat="28.4922200" lon="-16.2190220">
        <ele>30.0</ele>
        <time>2020-11-10T23:33:55Z</time>
      </trkpt>
      <trkpt lat="28.4922200" lon="-16.2190220">
        <ele>30.0</ele>
        <time>2020-11-10T23:33:56Z</time>
      </trkpt>
      <trkpt lat="28.4922820" lon="-16.2189470">
        <ele>30.0</ele>
        <time>2020-11-10T23:33:57Z</time>
      </trkpt>
      <trkpt lat="28.4923130" lon="-16.2189120">
        <ele>30.0</ele>
        <time>2020-11-10T23:33:58Z</time>
      </trkpt>
      <trkpt lat="28.4923450" lon="-16.2188770">
        <ele>30.0</ele>
        <time>2020-11-10T23:33:59Z</time>
      </trkpt>
      <trkpt lat="28.4923450" lon="-16.2188770">
        <ele>30.0</ele>
        <time>2020-11-10T23:34:00Z</time>
      </trkpt>
      <trkpt lat="28.4924070" lon="-16.2188100">
        <ele>30.0</ele>
        <time>2020-11-10T23:34:01Z</time>
      </trkpt>
      <trkpt lat="28.4924070" lon="-16.2188100">
        <ele>30.0</ele>
        <time>2020-11-10T23:34:02Z</time>
      </trkpt>
      <trkpt lat="28.4924720" lon="-16.2187470">
        <ele>30.0</ele>
        <time>2020-11-10T23:34:03Z</time>
      </trkpt>
      <trkpt lat="28.4925020" lon="-16.2187170">
        <ele>30.0</ele>
        <time>2020-11-10T23:34:04Z</time>
      </trkpt>
      <trkpt lat="28.4925020" lon="-16.2187170">
        <ele>30.0</ele>
        <time>2020-11-10T23:34:05Z</time>
      </trkpt>
      <trkpt lat="28.4925580" lon="-16.2186470">
        <ele>31.0</ele>
        <time>2020-11-10T23:34:06Z</time>
      </trkpt>
      <trkpt lat="28.4925870" lon="-16.2186150">
        <ele>31.0</ele>
        <time>2020-11-10T23:34:07Z</time>
      </trkpt>
      <trkpt lat="28.4925870" lon="-16.2186150">
        <ele>31.0</ele>
        <time>2020-11-10T23:34:08Z</time>
      </trkpt>
      <trkpt lat="28.4926430" lon="-16.2185600">
        <ele>31.0</ele>
        <time>2020-11-10T23:34:09Z</time>
      </trkpt>
      <trkpt lat="28.4926430" lon="-16.2185600">
        <ele>31.0</ele>
        <time>2020-11-10T23:34:10Z</time>
      </trkpt>
      <trkpt lat="28.4927080" lon="-16.2185130">
        <ele>31.0</ele>
        <time>2020-11-10T23:34:11Z</time>
      </trkpt>
      <trkpt lat="28.4927320" lon="-16.2184820">
        <ele>32.0</ele>
        <time>2020-11-10T23:34:12Z</time>
      </trkpt>
      <trkpt lat="28.4927520" lon="-16.2184300">
        <ele>32.0</ele>
        <time>2020-11-10T23:34:13Z</time>
      </trkpt>
      <trkpt lat="28.4927780" lon="-16.2183950">
        <ele>32.0</ele>
        <time>2020-11-10T23:34:14Z</time>
      </trkpt>
      <trkpt lat="28.4927780" lon="-16.2183950">
        <ele>32.0</ele>
        <time>2020-11-10T23:34:15Z</time>
      </trkpt>
      <trkpt lat="28.4928350" lon="-16.2183300">
        <ele>32.0</ele>
        <time>2020-11-10T23:34:16Z</time>
      </trkpt>
      <trkpt lat="28.4928630" lon="-16.2183000">
        <ele>32.0</ele>
        <time>2020-11-10T23:34:17Z</time>
      </trkpt>
      <trkpt lat="28.4928970" lon="-16.2182680">
        <ele>32.0</ele>
        <time>2020-11-10T23:34:18Z</time>
      </trkpt>
      <trkpt lat="28.4929250" lon="-16.2182430">
        <ele>32.0</ele>
        <time>2020-11-10T23:34:19Z</time>
      </trkpt>
      <trkpt lat="28.4929250" lon="-16.2182430">
        <ele>32.0</ele>
        <time>2020-11-10T23:34:20Z</time>
      </trkpt>
      <trkpt lat="28.4929880" lon="-16.2181900">
        <ele>32.0</ele>
        <time>2020-11-10T23:34:21Z</time>
      </trkpt>
      <trkpt lat="28.4930270" lon="-16.2181700">
        <ele>32.0</ele>
        <time>2020-11-10T23:34:22Z</time>
      </trkpt>
      <trkpt lat="28.4930270" lon="-16.2181700">
        <ele>33.0</ele>
        <time>2020-11-10T23:34:23Z</time>
      </trkpt>
      <trkpt lat="28.4930920" lon="-16.2181100">
        <ele>33.0</ele>
        <time>2020-11-10T23:34:24Z</time>
      </trkpt>
      <trkpt lat="28.4931200" lon="-16.2180770">
        <ele>33.0</ele>
        <time>2020-11-10T23:34:25Z</time>
      </trkpt>
      <trkpt lat="28.4931200" lon="-16.2180770">
        <ele>33.0</ele>
        <time>2020-11-10T23:34:26Z</time>
      </trkpt>
      <trkpt lat="28.4931730" lon="-16.2180220">
        <ele>33.0</ele>
        <time>2020-11-10T23:34:27Z</time>
      </trkpt>
      <trkpt lat="28.4931730" lon="-16.2180220">
        <ele>33.0</ele>
        <time>2020-11-10T23:34:28Z</time>
      </trkpt>
      <trkpt lat="28.4932380" lon="-16.2179430">
        <ele>33.0</ele>
        <time>2020-11-10T23:34:29Z</time>
      </trkpt>
      <trkpt lat="28.4932380" lon="-16.2179430">
        <ele>33.0</ele>
        <time>2020-11-10T23:34:30Z</time>
      </trkpt>
      <trkpt lat="28.4933030" lon="-16.2178700">
        <ele>33.0</ele>
        <time>2020-11-10T23:34:31Z</time>
      </trkpt>
      <trkpt lat="28.4933030" lon="-16.2178700">
        <ele>33.0</ele>
        <time>2020-11-10T23:34:32Z</time>
      </trkpt>
      <trkpt lat="28.4933730" lon="-16.2178020">
        <ele>33.0</ele>
        <time>2020-11-10T23:34:33Z</time>
      </trkpt>
      <trkpt lat="28.4933730" lon="-16.2178020">
        <ele>33.0</ele>
        <time>2020-11-10T23:34:34Z</time>
      </trkpt>
      <trkpt lat="28.4934300" lon="-16.2177320">
        <ele>33.0</ele>
        <time>2020-11-10T23:34:35Z</time>
      </trkpt>
      <trkpt lat="28.4934600" lon="-16.2176980">
        <ele>33.0</ele>
        <time>2020-11-10T23:34:36Z</time>
      </trkpt>
      <trkpt lat="28.4934970" lon="-16.2176570">
        <ele>33.0</ele>
        <time>2020-11-10T23:34:37Z</time>
      </trkpt>
      <trkpt lat="28.4934970" lon="-16.2176570">
        <ele>33.0</ele>
        <time>2020-11-10T23:34:38Z</time>
      </trkpt>
      <trkpt lat="28.4935770" lon="-16.2175730">
        <ele>33.0</ele>
        <time>2020-11-10T23:34:39Z</time>
      </trkpt>
      <trkpt lat="28.4936100" lon="-16.2175330">
        <ele>33.0</ele>
        <time>2020-11-10T23:34:40Z</time>
      </trkpt>
      <trkpt lat="28.4936100" lon="-16.2175330">
        <ele>33.0</ele>
        <time>2020-11-10T23:34:41Z</time>
      </trkpt>
      <trkpt lat="28.4936780" lon="-16.2174550">
        <ele>33.0</ele>
        <time>2020-11-10T23:34:42Z</time>
      </trkpt>
      <trkpt lat="28.4937120" lon="-16.2174180">
        <ele>33.0</ele>
        <time>2020-11-10T23:34:43Z</time>
      </trkpt>
      <trkpt lat="28.4937120" lon="-16.2174180">
        <ele>33.0</ele>
        <time>2020-11-10T23:34:44Z</time>
      </trkpt>
      <trkpt lat="28.4937880" lon="-16.2173250">
        <ele>33.0</ele>
        <time>2020-11-10T23:34:45Z</time>
      </trkpt>
      <trkpt lat="28.4937880" lon="-16.2173250">
        <ele>33.0</ele>
        <time>2020-11-10T23:34:46Z</time>
      </trkpt>
      <trkpt lat="28.4938530" lon="-16.2172450">
        <ele>33.0</ele>
        <time>2020-11-10T23:34:47Z</time>
      </trkpt>
      <trkpt lat="28.4938530" lon="-16.2172450">
        <ele>33.0</ele>
        <time>2020-11-10T23:34:48Z</time>
      </trkpt>
      <trkpt lat="28.4939230" lon="-16.2171620">
        <ele>33.0</ele>
        <time>2020-11-10T23:34:49Z</time>
      </trkpt>
      <trkpt lat="28.4939230" lon="-16.2171620">
        <ele>33.0</ele>
        <time>2020-11-10T23:34:50Z</time>
      </trkpt>
      <trkpt lat="28.4939800" lon="-16.2170780">
        <ele>33.0</ele>
        <time>2020-11-10T23:34:51Z</time>
      </trkpt>
      <trkpt lat="28.4939800" lon="-16.2170780">
        <ele>33.0</ele>
        <time>2020-11-10T23:34:52Z</time>
      </trkpt>
      <trkpt lat="28.4940370" lon="-16.2169970">
        <ele>33.0</ele>
        <time>2020-11-10T23:34:53Z</time>
      </trkpt>
      <trkpt lat="28.4940370" lon="-16.2169970">
        <ele>33.0</ele>
        <time>2020-11-10T23:34:54Z</time>
      </trkpt>
      <trkpt lat="28.4940850" lon="-16.2169230">
        <ele>33.0</ele>
        <time>2020-11-10T23:34:55Z</time>
      </trkpt>
      <trkpt lat="28.4940850" lon="-16.2169230">
        <ele>33.0</ele>
        <time>2020-11-10T23:34:56Z</time>
      </trkpt>
      <trkpt lat="28.4941380" lon="-16.2168550">
        <ele>33.0</ele>
        <time>2020-11-10T23:34:57Z</time>
      </trkpt>
      <trkpt lat="28.4941700" lon="-16.2168180">
        <ele>33.0</ele>
        <time>2020-11-10T23:34:58Z</time>
      </trkpt>
      <trkpt lat="28.4942030" lon="-16.2167850">
        <ele>33.0</ele>
        <time>2020-11-10T23:34:59Z</time>
      </trkpt>
      <trkpt lat="28.4942350" lon="-16.2167530">
        <ele>33.0</ele>
        <time>2020-11-10T23:35:00Z</time>
      </trkpt>
      <trkpt lat="28.4942350" lon="-16.2167530">
        <ele>33.0</ele>
        <time>2020-11-10T23:35:01Z</time>
      </trkpt>
      <trkpt lat="28.4942880" lon="-16.2166780">
        <ele>33.0</ele>
        <time>2020-11-10T23:35:02Z</time>
      </trkpt>
      <trkpt lat="28.4943100" lon="-16.2166320">
        <ele>33.0</ele>
        <time>2020-11-10T23:35:03Z</time>
      </trkpt>
      <trkpt lat="28.4943100" lon="-16.2166320">
        <ele>33.0</ele>
        <time>2020-11-10T23:35:04Z</time>
      </trkpt>
      <trkpt lat="28.4943580" lon="-16.2165350">
        <ele>33.0</ele>
        <time>2020-11-10T23:35:05Z</time>
      </trkpt>
      <trkpt lat="28.4943580" lon="-16.2165350">
        <ele>33.0</ele>
        <time>2020-11-10T23:35:06Z</time>
      </trkpt>
      <trkpt lat="28.4944070" lon="-16.2164380">
        <ele>33.0</ele>
        <time>2020-11-10T23:35:07Z</time>
      </trkpt>
      <trkpt lat="28.4944070" lon="-16.2164380">
        <ele>33.0</ele>
        <time>2020-11-10T23:35:08Z</time>
      </trkpt>
      <trkpt lat="28.4944500" lon="-16.2163420">
        <ele>33.0</ele>
        <time>2020-11-10T23:35:09Z</time>
      </trkpt>
      <trkpt lat="28.4944720" lon="-16.2162900">
        <ele>33.0</ele>
        <time>2020-11-10T23:35:10Z</time>
      </trkpt>
      <trkpt lat="28.4944720" lon="-16.2162900">
        <ele>33.0</ele>
        <time>2020-11-10T23:35:11Z</time>
      </trkpt>
      <trkpt lat="28.4945100" lon="-16.2161880">
        <ele>33.0</ele>
        <time>2020-11-10T23:35:12Z</time>
      </trkpt>
      <trkpt lat="28.4945320" lon="-16.2161330">
        <ele>33.0</ele>
        <time>2020-11-10T23:35:13Z</time>
      </trkpt>
      <trkpt lat="28.4945320" lon="-16.2161330">
        <ele>33.0</ele>
        <time>2020-11-10T23:35:14Z</time>
      </trkpt>
      <trkpt lat="28.4945730" lon="-16.2160130">
        <ele>33.0</ele>
        <time>2020-11-10T23:35:15Z</time>
      </trkpt>
      <trkpt lat="28.4945730" lon="-16.2160130">
        <ele>33.0</ele>
        <time>2020-11-10T23:35:16Z</time>
      </trkpt>
      <trkpt lat="28.4946120" lon="-16.2159000">
        <ele>33.0</ele>
        <time>2020-11-10T23:35:17Z</time>
      </trkpt>
      <trkpt lat="28.4946300" lon="-16.2158450">
        <ele>33.0</ele>
        <time>2020-11-10T23:35:18Z</time>
      </trkpt>
      <trkpt lat="28.4946300" lon="-16.2158450">
        <ele>33.0</ele>
        <time>2020-11-10T23:35:19Z</time>
      </trkpt>
      <trkpt lat="28.4946570" lon="-16.2157330">
        <ele>33.0</ele>
        <time>2020-11-10T23:35:20Z</time>
      </trkpt>
      <trkpt lat="28.4946720" lon="-16.2156820">
        <ele>33.0</ele>
        <time>2020-11-10T23:35:21Z</time>
      </trkpt>
      <trkpt lat="28.4946720" lon="-16.2156820">
        <ele>33.0</ele>
        <time>2020-11-10T23:35:22Z</time>
      </trkpt>
      <trkpt lat="28.4947030" lon="-16.2155920">
        <ele>33.0</ele>
        <time>2020-11-10T23:35:23Z</time>
      </trkpt>
      <trkpt lat="28.4947120" lon="-16.2155480">
        <ele>33.0</ele>
        <time>2020-11-10T23:35:24Z</time>
      </trkpt>
      <trkpt lat="28.4947120" lon="-16.2155480">
        <ele>33.0</ele>
        <time>2020-11-10T23:35:25Z</time>
      </trkpt>
      <trkpt lat="28.4947230" lon="-16.2154630">
        <ele>33.0</ele>
        <time>2020-11-10T23:35:26Z</time>
      </trkpt>
      <trkpt lat="28.4947230" lon="-16.2154630">
        <ele>33.0</ele>
        <time>2020-11-10T23:35:27Z</time>
      </trkpt>
      <trkpt lat="28.4947380" lon="-16.2153770">
        <ele>33.0</ele>
        <time>2020-11-10T23:35:28Z</time>
      </trkpt>
      <trkpt lat="28.4947550" lon="-16.2153200">
        <ele>33.0</ele>
        <time>2020-11-10T23:35:29Z</time>
      </trkpt>
      <trkpt lat="28.4947550" lon="-16.2153200">
        <ele>33.0</ele>
        <time>2020-11-10T23:35:30Z</time>
      </trkpt>
      <trkpt lat="28.4947820" lon="-16.2152030">
        <ele>33.0</ele>
        <time>2020-11-10T23:35:31Z</time>
      </trkpt>
      <trkpt lat="28.4947820" lon="-16.2152030">
        <ele>33.0</ele>
        <time>2020-11-10T23:35:32Z</time>
      </trkpt>
      <trkpt lat="28.4947980" lon="-16.2150920">
        <ele>33.0</ele>
        <time>2020-11-10T23:35:33Z</time>
      </trkpt>
      <trkpt lat="28.4947980" lon="-16.2150920">
        <ele>33.0</ele>
        <time>2020-11-10T23:35:34Z</time>
      </trkpt>
      <trkpt lat="28.4948100" lon="-16.2149850">
        <ele>33.0</ele>
        <time>2020-11-10T23:35:35Z</time>
      </trkpt>
      <trkpt lat="28.4948100" lon="-16.2149850">
        <ele>33.0</ele>
        <time>2020-11-10T23:35:36Z</time>
      </trkpt>
      <trkpt lat="28.4948220" lon="-16.2148730">
        <ele>33.0</ele>
        <time>2020-11-10T23:35:37Z</time>
      </trkpt>
      <trkpt lat="28.4948280" lon="-16.2148180">
        <ele>33.0</ele>
        <time>2020-11-10T23:35:38Z</time>
      </trkpt>
      <trkpt lat="28.4948280" lon="-16.2148180">
        <ele>33.0</ele>
        <time>2020-11-10T23:35:39Z</time>
      </trkpt>
      <trkpt lat="28.4948380" lon="-16.2147150">
        <ele>33.0</ele>
        <time>2020-11-10T23:35:40Z</time>
      </trkpt>
      <trkpt lat="28.4948380" lon="-16.2147150">
        <ele>33.0</ele>
        <time>2020-11-10T23:35:41Z</time>
      </trkpt>
      <trkpt lat="28.4948430" lon="-16.2146050">
        <ele>33.0</ele>
        <time>2020-11-10T23:35:42Z</time>
      </trkpt>
      <trkpt lat="28.4948470" lon="-16.2145500">
        <ele>33.0</ele>
        <time>2020-11-10T23:35:43Z</time>
      </trkpt>
      <trkpt lat="28.4948520" lon="-16.2144950">
        <ele>33.0</ele>
        <time>2020-11-10T23:35:44Z</time>
      </trkpt>
      <trkpt lat="28.4948520" lon="-16.2144950">
        <ele>33.0</ele>
        <time>2020-11-10T23:35:45Z</time>
      </trkpt>
      <trkpt lat="28.4948680" lon="-16.2143870">
        <ele>33.0</ele>
        <time>2020-11-10T23:35:46Z</time>
      </trkpt>
      <trkpt lat="28.4948750" lon="-16.2143300">
        <ele>33.0</ele>
        <time>2020-11-10T23:35:47Z</time>
      </trkpt>
      <trkpt lat="28.4948750" lon="-16.2143300">
        <ele>33.0</ele>
        <time>2020-11-10T23:35:48Z</time>
      </trkpt>
      <trkpt lat="28.4948880" lon="-16.2142070">
        <ele>33.0</ele>
        <time>2020-11-10T23:35:49Z</time>
      </trkpt>
      <trkpt lat="28.4948880" lon="-16.2142070">
        <ele>33.0</ele>
        <time>2020-11-10T23:35:50Z</time>
      </trkpt>
      <trkpt lat="28.4948930" lon="-16.2140750">
        <ele>33.0</ele>
        <time>2020-11-10T23:35:51Z</time>
      </trkpt>
      <trkpt lat="28.4948930" lon="-16.2140750">
        <ele>33.0</ele>
        <time>2020-11-10T23:35:52Z</time>
      </trkpt>
      <trkpt lat="28.4949050" lon="-16.2139550">
        <ele>33.0</ele>
        <time>2020-11-10T23:35:53Z</time>
      </trkpt>
      <trkpt lat="28.4949050" lon="-16.2139550">
        <ele>33.0</ele>
        <time>2020-11-10T23:35:54Z</time>
      </trkpt>
      <trkpt lat="28.4949130" lon="-16.2138370">
        <ele>33.0</ele>
        <time>2020-11-10T23:35:55Z</time>
      </trkpt>
      <trkpt lat="28.4949130" lon="-16.2138370">
        <ele>33.0</ele>
        <time>2020-11-10T23:35:56Z</time>
      </trkpt>
      <trkpt lat="28.4949230" lon="-16.2137150">
        <ele>33.0</ele>
        <time>2020-11-10T23:35:57Z</time>
      </trkpt>
      <trkpt lat="28.4949300" lon="-16.2136530">
        <ele>33.0</ele>
        <time>2020-11-10T23:35:58Z</time>
      </trkpt>
      <trkpt lat="28.4949330" lon="-16.2135930">
        <ele>33.0</ele>
        <time>2020-11-10T23:35:59Z</time>
      </trkpt>
      <trkpt lat="28.4949330" lon="-16.2135930">
        <ele>33.0</ele>
        <time>2020-11-10T23:36:00Z</time>
      </trkpt>
      <trkpt lat="28.4949450" lon="-16.2134720">
        <ele>33.0</ele>
        <time>2020-11-10T23:36:01Z</time>
      </trkpt>
      <trkpt lat="28.4949450" lon="-16.2134720">
        <ele>33.0</ele>
        <time>2020-11-10T23:36:02Z</time>
      </trkpt>
      <trkpt lat="28.4949580" lon="-16.2133500">
        <ele>33.0</ele>
        <time>2020-11-10T23:36:03Z</time>
      </trkpt>
      <trkpt lat="28.4949580" lon="-16.2133500">
        <ele>33.0</ele>
        <time>2020-11-10T23:36:04Z</time>
      </trkpt>
      <trkpt lat="28.4949730" lon="-16.2132300">
        <ele>33.0</ele>
        <time>2020-11-10T23:36:05Z</time>
      </trkpt>
      <trkpt lat="28.4949830" lon="-16.2131700">
        <ele>33.0</ele>
        <time>2020-11-10T23:36:06Z</time>
      </trkpt>
      <trkpt lat="28.4949920" lon="-16.2131120">
        <ele>33.0</ele>
        <time>2020-11-10T23:36:07Z</time>
      </trkpt>
      <trkpt lat="28.4950020" lon="-16.2130530">
        <ele>33.0</ele>
        <time>2020-11-10T23:36:08Z</time>
      </trkpt>
      <trkpt lat="28.4950020" lon="-16.2130530">
        <ele>33.0</ele>
        <time>2020-11-10T23:36:09Z</time>
      </trkpt>
      <trkpt lat="28.4950200" lon="-16.2129380">
        <ele>33.0</ele>
        <time>2020-11-10T23:36:10Z</time>
      </trkpt>
      <trkpt lat="28.4950300" lon="-16.2128820">
        <ele>33.0</ele>
        <time>2020-11-10T23:36:11Z</time>
      </trkpt>
      <trkpt lat="28.4950380" lon="-16.2128250">
        <ele>33.0</ele>
        <time>2020-11-10T23:36:12Z</time>
      </trkpt>
      <trkpt lat="28.4950380" lon="-16.2128250">
        <ele>33.0</ele>
        <time>2020-11-10T23:36:13Z</time>
      </trkpt>
      <trkpt lat="28.4950600" lon="-16.2127100">
        <ele>33.0</ele>
        <time>2020-11-10T23:36:14Z</time>
      </trkpt>
      <trkpt lat="28.4950600" lon="-16.2127100">
        <ele>33.0</ele>
        <time>2020-11-10T23:36:15Z</time>
      </trkpt>
      <trkpt lat="28.4950830" lon="-16.2125980">
        <ele>33.0</ele>
        <time>2020-11-10T23:36:16Z</time>
      </trkpt>
      <trkpt lat="28.4950830" lon="-16.2125980">
        <ele>33.0</ele>
        <time>2020-11-10T23:36:17Z</time>
      </trkpt>
      <trkpt lat="28.4951050" lon="-16.2124800">
        <ele>33.0</ele>
        <time>2020-11-10T23:36:18Z</time>
      </trkpt>
      <trkpt lat="28.4951180" lon="-16.2124250">
        <ele>33.0</ele>
        <time>2020-11-10T23:36:19Z</time>
      </trkpt>
      <trkpt lat="28.4951180" lon="-16.2124250">
        <ele>33.0</ele>
        <time>2020-11-10T23:36:20Z</time>
      </trkpt>
      <trkpt lat="28.4951450" lon="-16.2123100">
        <ele>33.0</ele>
        <time>2020-11-10T23:36:21Z</time>
      </trkpt>
      <trkpt lat="28.4951580" lon="-16.2122570">
        <ele>33.0</ele>
        <time>2020-11-10T23:36:22Z</time>
      </trkpt>
      <trkpt lat="28.4951750" lon="-16.2122020">
        <ele>33.0</ele>
        <time>2020-11-10T23:36:23Z</time>
      </trkpt>
      <trkpt lat="28.4951750" lon="-16.2122020">
        <ele>33.0</ele>
        <time>2020-11-10T23:36:24Z</time>
      </trkpt>
      <trkpt lat="28.4952080" lon="-16.2120880">
        <ele>33.0</ele>
        <time>2020-11-10T23:36:25Z</time>
      </trkpt>
      <trkpt lat="28.4952080" lon="-16.2120880">
        <ele>33.0</ele>
        <time>2020-11-10T23:36:26Z</time>
      </trkpt>
      <trkpt lat="28.4952420" lon="-16.2119830">
        <ele>33.0</ele>
        <time>2020-11-10T23:36:27Z</time>
      </trkpt>
      <trkpt lat="28.4952600" lon="-16.2119320">
        <ele>33.0</ele>
        <time>2020-11-10T23:36:28Z</time>
      </trkpt>
      <trkpt lat="28.4952600" lon="-16.2119320">
        <ele>34.0</ele>
        <time>2020-11-10T23:36:29Z</time>
      </trkpt>
      <trkpt lat="28.4952930" lon="-16.2118420">
        <ele>34.0</ele>
        <time>2020-11-10T23:36:30Z</time>
      </trkpt>
      <trkpt lat="28.4952930" lon="-16.2118420">
        <ele>34.0</ele>
        <time>2020-11-10T23:36:31Z</time>
      </trkpt>
      <trkpt lat="28.4953230" lon="-16.2117570">
        <ele>34.0</ele>
        <time>2020-11-10T23:36:32Z</time>
      </trkpt>
      <trkpt lat="28.4953380" lon="-16.2117170">
        <ele>34.0</ele>
        <time>2020-11-10T23:36:33Z</time>
      </trkpt>
      <trkpt lat="28.4953380" lon="-16.2117170">
        <ele>34.0</ele>
        <time>2020-11-10T23:36:34Z</time>
      </trkpt>
      <trkpt lat="28.4953700" lon="-16.2116470">
        <ele>34.0</ele>
        <time>2020-11-10T23:36:35Z</time>
      </trkpt>
      <trkpt lat="28.4953950" lon="-16.2116080">
        <ele>34.0</ele>
        <time>2020-11-10T23:36:36Z</time>
      </trkpt>
      <trkpt lat="28.4954180" lon="-16.2115670">
        <ele>34.0</ele>
        <time>2020-11-10T23:36:37Z</time>
      </trkpt>
      <trkpt lat="28.4954400" lon="-16.2115230">
        <ele>34.0</ele>
        <time>2020-11-10T23:36:38Z</time>
      </trkpt>
      <trkpt lat="28.4954400" lon="-16.2115230">
        <ele>34.0</ele>
        <time>2020-11-10T23:36:39Z</time>
      </trkpt>
      <trkpt lat="28.4954930" lon="-16.2114230">
        <ele>34.0</ele>
        <time>2020-11-10T23:36:40Z</time>
      </trkpt>
      <trkpt lat="28.4955200" lon="-16.2113730">
        <ele>34.0</ele>
        <time>2020-11-10T23:36:41Z</time>
      </trkpt>
      <trkpt lat="28.4955200" lon="-16.2113730">
        <ele>34.0</ele>
        <time>2020-11-10T23:36:42Z</time>
      </trkpt>
      <trkpt lat="28.4955720" lon="-16.2112720">
        <ele>34.0</ele>
        <time>2020-11-10T23:36:43Z</time>
      </trkpt>
      <trkpt lat="28.4955720" lon="-16.2112720">
        <ele>34.0</ele>
        <time>2020-11-10T23:36:44Z</time>
      </trkpt>
      <trkpt lat="28.4956230" lon="-16.2111800">
        <ele>34.0</ele>
        <time>2020-11-10T23:36:45Z</time>
      </trkpt>
      <trkpt lat="28.4956500" lon="-16.2111330">
        <ele>34.0</ele>
        <time>2020-11-10T23:36:46Z</time>
      </trkpt>
      <trkpt lat="28.4956500" lon="-16.2111330">
        <ele>34.0</ele>
        <time>2020-11-10T23:36:47Z</time>
      </trkpt>
      <trkpt lat="28.4957000" lon="-16.2110370">
        <ele>34.0</ele>
        <time>2020-11-10T23:36:48Z</time>
      </trkpt>
      <trkpt lat="28.4957230" lon="-16.2109900">
        <ele>35.0</ele>
        <time>2020-11-10T23:36:49Z</time>
      </trkpt>
      <trkpt lat="28.4957230" lon="-16.2109900">
        <ele>35.0</ele>
        <time>2020-11-10T23:36:50Z</time>
      </trkpt>
      <trkpt lat="28.4957720" lon="-16.2108980">
        <ele>35.0</ele>
        <time>2020-11-10T23:36:51Z</time>
      </trkpt>
      <trkpt lat="28.4957920" lon="-16.2108500">
        <ele>35.0</ele>
        <time>2020-11-10T23:36:52Z</time>
      </trkpt>
      <trkpt lat="28.4958180" lon="-16.2108020">
        <ele>35.0</ele>
        <time>2020-11-10T23:36:53Z</time>
      </trkpt>
      <trkpt lat="28.4958180" lon="-16.2108020">
        <ele>35.0</ele>
        <time>2020-11-10T23:36:54Z</time>
      </trkpt>
      <trkpt lat="28.4958730" lon="-16.2107070">
        <ele>35.0</ele>
        <time>2020-11-10T23:36:55Z</time>
      </trkpt>
      <trkpt lat="28.4958730" lon="-16.2107070">
        <ele>35.0</ele>
        <time>2020-11-10T23:36:56Z</time>
      </trkpt>
      <trkpt lat="28.4959270" lon="-16.2106120">
        <ele>35.0</ele>
        <time>2020-11-10T23:36:57Z</time>
      </trkpt>
      <trkpt lat="28.4959520" lon="-16.2105670">
        <ele>35.0</ele>
        <time>2020-11-10T23:36:58Z</time>
      </trkpt>
      <trkpt lat="28.4959520" lon="-16.2105670">
        <ele>35.0</ele>
        <time>2020-11-10T23:36:59Z</time>
      </trkpt>
      <trkpt lat="28.4960070" lon="-16.2104730">
        <ele>35.0</ele>
        <time>2020-11-10T23:37:00Z</time>
      </trkpt>
      <trkpt lat="28.4960070" lon="-16.2104730">
        <ele>35.0</ele>
        <time>2020-11-10T23:37:01Z</time>
      </trkpt>
      <trkpt lat="28.4960580" lon="-16.2103770">
        <ele>35.0</ele>
        <time>2020-11-10T23:37:02Z</time>
      </trkpt>
      <trkpt lat="28.4960870" lon="-16.2103300">
        <ele>35.0</ele>
        <time>2020-11-10T23:37:03Z</time>
      </trkpt>
      <trkpt lat="28.4960870" lon="-16.2103300">
        <ele>35.0</ele>
        <time>2020-11-10T23:37:04Z</time>
      </trkpt>
      <trkpt lat="28.4961420" lon="-16.2102330">
        <ele>35.0</ele>
        <time>2020-11-10T23:37:05Z</time>
      </trkpt>
      <trkpt lat="28.4961420" lon="-16.2102330">
        <ele>35.0</ele>
        <time>2020-11-10T23:37:06Z</time>
      </trkpt>
      <trkpt lat="28.4962030" lon="-16.2101380">
        <ele>35.0</ele>
        <time>2020-11-10T23:37:07Z</time>
      </trkpt>
      <trkpt lat="28.4962030" lon="-16.2101380">
        <ele>35.0</ele>
        <time>2020-11-10T23:37:08Z</time>
      </trkpt>
      <trkpt lat="28.4962680" lon="-16.2100470">
        <ele>35.0</ele>
        <time>2020-11-10T23:37:09Z</time>
      </trkpt>
      <trkpt lat="28.4962680" lon="-16.2100470">
        <ele>35.0</ele>
        <time>2020-11-10T23:37:10Z</time>
      </trkpt>
      <trkpt lat="28.4963270" lon="-16.2099520">
        <ele>35.0</ele>
        <time>2020-11-10T23:37:11Z</time>
      </trkpt>
      <trkpt lat="28.4963270" lon="-16.2099520">
        <ele>35.0</ele>
        <time>2020-11-10T23:37:12Z</time>
      </trkpt>
      <trkpt lat="28.4963900" lon="-16.2098580">
        <ele>35.0</ele>
        <time>2020-11-10T23:37:13Z</time>
      </trkpt>
      <trkpt lat="28.4963900" lon="-16.2098580">
        <ele>35.0</ele>
        <time>2020-11-10T23:37:14Z</time>
      </trkpt>
      <trkpt lat="28.4964500" lon="-16.2097680">
        <ele>35.0</ele>
        <time>2020-11-10T23:37:15Z</time>
      </trkpt>
      <trkpt lat="28.4964770" lon="-16.2097200">
        <ele>35.0</ele>
        <time>2020-11-10T23:37:16Z</time>
      </trkpt>
      <trkpt lat="28.4964770" lon="-16.2097200">
        <ele>35.0</ele>
        <time>2020-11-10T23:37:17Z</time>
      </trkpt>
      <trkpt lat="28.4965320" lon="-16.2096280">
        <ele>35.0</ele>
        <time>2020-11-10T23:37:18Z</time>
      </trkpt>
      <trkpt lat="28.4965600" lon="-16.2095800">
        <ele>35.0</ele>
        <time>2020-11-10T23:37:19Z</time>
      </trkpt>
      <trkpt lat="28.4965600" lon="-16.2095800">
        <ele>35.0</ele>
        <time>2020-11-10T23:37:20Z</time>
      </trkpt>
      <trkpt lat="28.4966180" lon="-16.2094820">
        <ele>35.0</ele>
        <time>2020-11-10T23:37:21Z</time>
      </trkpt>
      <trkpt lat="28.4966180" lon="-16.2094820">
        <ele>35.0</ele>
        <time>2020-11-10T23:37:22Z</time>
      </trkpt>
      <trkpt lat="28.4966730" lon="-16.2093830">
        <ele>35.0</ele>
        <time>2020-11-10T23:37:23Z</time>
      </trkpt>
      <trkpt lat="28.4966730" lon="-16.2093830">
        <ele>35.0</ele>
        <time>2020-11-10T23:37:24Z</time>
      </trkpt>
      <trkpt lat="28.4967380" lon="-16.2092850">
        <ele>35.0</ele>
        <time>2020-11-10T23:37:25Z</time>
      </trkpt>
      <trkpt lat="28.4967380" lon="-16.2092850">
        <ele>35.0</ele>
        <time>2020-11-10T23:37:26Z</time>
      </trkpt>
      <trkpt lat="28.4968020" lon="-16.2091920">
        <ele>35.0</ele>
        <time>2020-11-10T23:37:27Z</time>
      </trkpt>
      <trkpt lat="28.4968020" lon="-16.2091920">
        <ele>35.0</ele>
        <time>2020-11-10T23:37:28Z</time>
      </trkpt>
      <trkpt lat="28.4968650" lon="-16.2090980">
        <ele>35.0</ele>
        <time>2020-11-10T23:37:29Z</time>
      </trkpt>
      <trkpt lat="28.4968650" lon="-16.2090980">
        <ele>35.0</ele>
        <time>2020-11-10T23:37:30Z</time>
      </trkpt>
      <trkpt lat="28.4969270" lon="-16.2090050">
        <ele>35.0</ele>
        <time>2020-11-10T23:37:31Z</time>
      </trkpt>
      <trkpt lat="28.4969270" lon="-16.2090050">
        <ele>35.0</ele>
        <time>2020-11-10T23:37:32Z</time>
      </trkpt>
      <trkpt lat="28.4969850" lon="-16.2089070">
        <ele>35.0</ele>
        <time>2020-11-10T23:37:33Z</time>
      </trkpt>
      <trkpt lat="28.4970150" lon="-16.2088580">
        <ele>35.0</ele>
        <time>2020-11-10T23:37:34Z</time>
      </trkpt>
      <trkpt lat="28.4970150" lon="-16.2088580">
        <ele>35.0</ele>
        <time>2020-11-10T23:37:35Z</time>
      </trkpt>
      <trkpt lat="28.4970730" lon="-16.2087650">
        <ele>35.0</ele>
        <time>2020-11-10T23:37:36Z</time>
      </trkpt>
      <trkpt lat="28.4971020" lon="-16.2087170">
        <ele>35.0</ele>
        <time>2020-11-10T23:37:37Z</time>
      </trkpt>
      <trkpt lat="28.4971020" lon="-16.2087170">
        <ele>35.0</ele>
        <time>2020-11-10T23:37:38Z</time>
      </trkpt>
      <trkpt lat="28.4971620" lon="-16.2086180">
        <ele>35.0</ele>
        <time>2020-11-10T23:37:39Z</time>
      </trkpt>
      <trkpt lat="28.4971620" lon="-16.2086180">
        <ele>35.0</ele>
        <time>2020-11-10T23:37:40Z</time>
      </trkpt>
      <trkpt lat="28.4972230" lon="-16.2085220">
        <ele>35.0</ele>
        <time>2020-11-10T23:37:41Z</time>
      </trkpt>
      <trkpt lat="28.4972230" lon="-16.2085220">
        <ele>35.0</ele>
        <time>2020-11-10T23:37:42Z</time>
      </trkpt>
      <trkpt lat="28.4972880" lon="-16.2084230">
        <ele>35.0</ele>
        <time>2020-11-10T23:37:43Z</time>
      </trkpt>
      <trkpt lat="28.4972880" lon="-16.2084230">
        <ele>35.0</ele>
        <time>2020-11-10T23:37:44Z</time>
      </trkpt>
      <trkpt lat="28.4973480" lon="-16.2083230">
        <ele>35.0</ele>
        <time>2020-11-10T23:37:45Z</time>
      </trkpt>
      <trkpt lat="28.4973480" lon="-16.2083230">
        <ele>35.0</ele>
        <time>2020-11-10T23:37:46Z</time>
      </trkpt>
      <trkpt lat="28.4974080" lon="-16.2082230">
        <ele>35.0</ele>
        <time>2020-11-10T23:37:47Z</time>
      </trkpt>
      <trkpt lat="28.4974080" lon="-16.2082230">
        <ele>35.0</ele>
        <time>2020-11-10T23:37:48Z</time>
      </trkpt>
      <trkpt lat="28.4974680" lon="-16.2081230">
        <ele>35.0</ele>
        <time>2020-11-10T23:37:49Z</time>
      </trkpt>
      <trkpt lat="28.4974680" lon="-16.2081230">
        <ele>35.0</ele>
        <time>2020-11-10T23:37:50Z</time>
      </trkpt>
      <trkpt lat="28.4975250" lon="-16.2080250">
        <ele>35.0</ele>
        <time>2020-11-10T23:37:51Z</time>
      </trkpt>
      <trkpt lat="28.4975250" lon="-16.2080250">
        <ele>35.0</ele>
        <time>2020-11-10T23:37:52Z</time>
      </trkpt>
      <trkpt lat="28.4975830" lon="-16.2079180">
        <ele>35.0</ele>
        <time>2020-11-10T23:37:53Z</time>
      </trkpt>
      <trkpt lat="28.4975830" lon="-16.2079180">
        <ele>35.0</ele>
        <time>2020-11-10T23:37:54Z</time>
      </trkpt>
      <trkpt lat="28.4976450" lon="-16.2078180">
        <ele>35.0</ele>
        <time>2020-11-10T23:37:55Z</time>
      </trkpt>
      <trkpt lat="28.4976450" lon="-16.2078180">
        <ele>35.0</ele>
        <time>2020-11-10T23:37:56Z</time>
      </trkpt>
      <trkpt lat="28.4977050" lon="-16.2077180">
        <ele>35.0</ele>
        <time>2020-11-10T23:37:57Z</time>
      </trkpt>
      <trkpt lat="28.4977050" lon="-16.2077180">
        <ele>35.0</ele>
        <time>2020-11-10T23:37:58Z</time>
      </trkpt>
      <trkpt lat="28.4977700" lon="-16.2076170">
        <ele>35.0</ele>
        <time>2020-11-10T23:37:59Z</time>
      </trkpt>
      <trkpt lat="28.4978020" lon="-16.2075650">
        <ele>35.0</ele>
        <time>2020-11-10T23:38:00Z</time>
      </trkpt>
      <trkpt lat="28.4978330" lon="-16.2075170">
        <ele>35.0</ele>
        <time>2020-11-10T23:38:01Z</time>
      </trkpt>
      <trkpt lat="28.4978330" lon="-16.2075170">
        <ele>35.0</ele>
        <time>2020-11-10T23:38:02Z</time>
      </trkpt>
      <trkpt lat="28.4979020" lon="-16.2074180">
        <ele>35.0</ele>
        <time>2020-11-10T23:38:03Z</time>
      </trkpt>
      <trkpt lat="28.4979020" lon="-16.2074180">
        <ele>35.0</ele>
        <time>2020-11-10T23:38:04Z</time>
      </trkpt>
      <trkpt lat="28.4979630" lon="-16.2073180">
        <ele>35.0</ele>
        <time>2020-11-10T23:38:05Z</time>
      </trkpt>
      <trkpt lat="28.4979630" lon="-16.2073180">
        <ele>35.0</ele>
        <time>2020-11-10T23:38:06Z</time>
      </trkpt>
      <trkpt lat="28.4980250" lon="-16.2072150">
        <ele>35.0</ele>
        <time>2020-11-10T23:38:07Z</time>
      </trkpt>
      <trkpt lat="28.4980250" lon="-16.2072150">
        <ele>35.0</ele>
        <time>2020-11-10T23:38:08Z</time>
      </trkpt>
      <trkpt lat="28.4980850" lon="-16.2071080">
        <ele>35.0</ele>
        <time>2020-11-10T23:38:09Z</time>
      </trkpt>
      <trkpt lat="28.4980850" lon="-16.2071080">
        <ele>35.0</ele>
        <time>2020-11-10T23:38:10Z</time>
      </trkpt>
      <trkpt lat="28.4981450" lon="-16.2070070">
        <ele>35.0</ele>
        <time>2020-11-10T23:38:11Z</time>
      </trkpt>
      <trkpt lat="28.4981450" lon="-16.2070070">
        <ele>35.0</ele>
        <time>2020-11-10T23:38:12Z</time>
      </trkpt>
      <trkpt lat="28.4982100" lon="-16.2069050">
        <ele>35.0</ele>
        <time>2020-11-10T23:38:13Z</time>
      </trkpt>
      <trkpt lat="28.4982100" lon="-16.2069050">
        <ele>35.0</ele>
        <time>2020-11-10T23:38:14Z</time>
      </trkpt>
      <trkpt lat="28.4982720" lon="-16.2068070">
        <ele>35.0</ele>
        <time>2020-11-10T23:38:15Z</time>
      </trkpt>
      <trkpt lat="28.4982720" lon="-16.2068070">
        <ele>35.0</ele>
        <time>2020-11-10T23:38:16Z</time>
      </trkpt>
      <trkpt lat="28.4983370" lon="-16.2067100">
        <ele>35.0</ele>
        <time>2020-11-10T23:38:17Z</time>
      </trkpt>
      <trkpt lat="28.4983370" lon="-16.2067100">
        <ele>35.0</ele>
        <time>2020-11-10T23:38:18Z</time>
      </trkpt>
      <trkpt lat="28.4984020" lon="-16.2066120">
        <ele>35.0</ele>
        <time>2020-11-10T23:38:19Z</time>
      </trkpt>
      <trkpt lat="28.4984020" lon="-16.2066120">
        <ele>35.0</ele>
        <time>2020-11-10T23:38:20Z</time>
      </trkpt>
      <trkpt lat="28.4984580" lon="-16.2065100">
        <ele>35.0</ele>
        <time>2020-11-10T23:38:21Z</time>
      </trkpt>
      <trkpt lat="28.4984850" lon="-16.2064600">
        <ele>35.0</ele>
        <time>2020-11-10T23:38:22Z</time>
      </trkpt>
      <trkpt lat="28.4984850" lon="-16.2064600">
        <ele>35.0</ele>
        <time>2020-11-10T23:38:23Z</time>
      </trkpt>
      <trkpt lat="28.4985470" lon="-16.2063600">
        <ele>35.0</ele>
        <time>2020-11-10T23:38:24Z</time>
      </trkpt>
      <trkpt lat="28.4985470" lon="-16.2063600">
        <ele>35.0</ele>
        <time>2020-11-10T23:38:25Z</time>
      </trkpt>
      <trkpt lat="28.4986070" lon="-16.2062620">
        <ele>35.0</ele>
        <time>2020-11-10T23:38:26Z</time>
      </trkpt>
      <trkpt lat="28.4986350" lon="-16.2062120">
        <ele>35.0</ele>
        <time>2020-11-10T23:38:27Z</time>
      </trkpt>
      <trkpt lat="28.4986350" lon="-16.2062120">
        <ele>35.0</ele>
        <time>2020-11-10T23:38:28Z</time>
      </trkpt>
      <trkpt lat="28.4986930" lon="-16.2061150">
        <ele>35.0</ele>
        <time>2020-11-10T23:38:29Z</time>
      </trkpt>
      <trkpt lat="28.4986930" lon="-16.2061150">
        <ele>35.0</ele>
        <time>2020-11-10T23:38:30Z</time>
      </trkpt>
      <trkpt lat="28.4987530" lon="-16.2060150">
        <ele>35.0</ele>
        <time>2020-11-10T23:38:31Z</time>
      </trkpt>
      <trkpt lat="28.4987850" lon="-16.2059650">
        <ele>35.0</ele>
        <time>2020-11-10T23:38:32Z</time>
      </trkpt>
      <trkpt lat="28.4987850" lon="-16.2059650">
        <ele>35.0</ele>
        <time>2020-11-10T23:38:33Z</time>
      </trkpt>
      <trkpt lat="28.4988450" lon="-16.2058650">
        <ele>35.0</ele>
        <time>2020-11-10T23:38:34Z</time>
      </trkpt>
      <trkpt lat="28.4988450" lon="-16.2058650">
        <ele>35.0</ele>
        <time>2020-11-10T23:38:35Z</time>
      </trkpt>
      <trkpt lat="28.4989080" lon="-16.2057670">
        <ele>35.0</ele>
        <time>2020-11-10T23:38:36Z</time>
      </trkpt>
      <trkpt lat="28.4989080" lon="-16.2057670">
        <ele>35.0</ele>
        <time>2020-11-10T23:38:37Z</time>
      </trkpt>
      <trkpt lat="28.4989670" lon="-16.2056650">
        <ele>35.0</ele>
        <time>2020-11-10T23:38:38Z</time>
      </trkpt>
      <trkpt lat="28.4989670" lon="-16.2056650">
        <ele>35.0</ele>
        <time>2020-11-10T23:38:39Z</time>
      </trkpt>
      <trkpt lat="28.4990280" lon="-16.2055670">
        <ele>35.0</ele>
        <time>2020-11-10T23:38:40Z</time>
      </trkpt>
      <trkpt lat="28.4990280" lon="-16.2055670">
        <ele>35.0</ele>
        <time>2020-11-10T23:38:41Z</time>
      </trkpt>
      <trkpt lat="28.4990900" lon="-16.2054650">
        <ele>35.0</ele>
        <time>2020-11-10T23:38:42Z</time>
      </trkpt>
      <trkpt lat="28.4991220" lon="-16.2054130">
        <ele>35.0</ele>
        <time>2020-11-10T23:38:43Z</time>
      </trkpt>
      <trkpt lat="28.4991220" lon="-16.2054130">
        <ele>35.0</ele>
        <time>2020-11-10T23:38:44Z</time>
      </trkpt>
      <trkpt lat="28.4991850" lon="-16.2053130">
        <ele>35.0</ele>
        <time>2020-11-10T23:38:45Z</time>
      </trkpt>
      <trkpt lat="28.4991850" lon="-16.2053130">
        <ele>35.0</ele>
        <time>2020-11-10T23:38:46Z</time>
      </trkpt>
      <trkpt lat="28.4992430" lon="-16.2052130">
        <ele>35.0</ele>
        <time>2020-11-10T23:38:47Z</time>
      </trkpt>
      <trkpt lat="28.4992430" lon="-16.2052130">
        <ele>35.0</ele>
        <time>2020-11-10T23:38:48Z</time>
      </trkpt>
      <trkpt lat="28.4993020" lon="-16.2051120">
        <ele>35.0</ele>
        <time>2020-11-10T23:38:49Z</time>
      </trkpt>
      <trkpt lat="28.4993020" lon="-16.2051120">
        <ele>35.0</ele>
        <time>2020-11-10T23:38:50Z</time>
      </trkpt>
      <trkpt lat="28.4993620" lon="-16.2050050">
        <ele>35.0</ele>
        <time>2020-11-10T23:38:51Z</time>
      </trkpt>
      <trkpt lat="28.4993620" lon="-16.2050050">
        <ele>35.0</ele>
        <time>2020-11-10T23:38:52Z</time>
      </trkpt>
      <trkpt lat="28.4994230" lon="-16.2049000">
        <ele>35.0</ele>
        <time>2020-11-10T23:38:53Z</time>
      </trkpt>
      <trkpt lat="28.4994230" lon="-16.2049000">
        <ele>35.0</ele>
        <time>2020-11-10T23:38:54Z</time>
      </trkpt>
      <trkpt lat="28.4994820" lon="-16.2047820">
        <ele>35.0</ele>
        <time>2020-11-10T23:38:55Z</time>
      </trkpt>
      <trkpt lat="28.4994820" lon="-16.2047820">
        <ele>35.0</ele>
        <time>2020-11-10T23:38:56Z</time>
      </trkpt>
      <trkpt lat="28.4995450" lon="-16.2046530">
        <ele>35.0</ele>
        <time>2020-11-10T23:38:57Z</time>
      </trkpt>
      <trkpt lat="28.4995750" lon="-16.2045920">
        <ele>35.0</ele>
        <time>2020-11-10T23:38:58Z</time>
      </trkpt>
      <trkpt lat="28.4995750" lon="-16.2045920">
        <ele>35.0</ele>
        <time>2020-11-10T23:38:59Z</time>
      </trkpt>
      <trkpt lat="28.4996280" lon="-16.2044650">
        <ele>35.0</ele>
        <time>2020-11-10T23:39:00Z</time>
      </trkpt>
      <trkpt lat="28.4996530" lon="-16.2044020">
        <ele>35.0</ele>
        <time>2020-11-10T23:39:01Z</time>
      </trkpt>
      <trkpt lat="28.4996530" lon="-16.2044020">
        <ele>35.0</ele>
        <time>2020-11-10T23:39:02Z</time>
      </trkpt>
      <trkpt lat="28.4997080" lon="-16.2042750">
        <ele>35.0</ele>
        <time>2020-11-10T23:39:03Z</time>
      </trkpt>
      <trkpt lat="28.4997350" lon="-16.2042100">
        <ele>35.0</ele>
        <time>2020-11-10T23:39:04Z</time>
      </trkpt>
      <trkpt lat="28.4997350" lon="-16.2042100">
        <ele>35.0</ele>
        <time>2020-11-10T23:39:05Z</time>
      </trkpt>
      <trkpt lat="28.4997880" lon="-16.2040850">
        <ele>35.0</ele>
        <time>2020-11-10T23:39:06Z</time>
      </trkpt>
      <trkpt lat="28.4998150" lon="-16.2040220">
        <ele>35.0</ele>
        <time>2020-11-10T23:39:07Z</time>
      </trkpt>
      <trkpt lat="28.4998150" lon="-16.2040220">
        <ele>35.0</ele>
        <time>2020-11-10T23:39:08Z</time>
      </trkpt>
      <trkpt lat="28.4998600" lon="-16.2038930">
        <ele>35.0</ele>
        <time>2020-11-10T23:39:09Z</time>
      </trkpt>
      <trkpt lat="28.4998830" lon="-16.2038250">
        <ele>35.0</ele>
        <time>2020-11-10T23:39:10Z</time>
      </trkpt>
      <trkpt lat="28.4998830" lon="-16.2038250">
        <ele>35.0</ele>
        <time>2020-11-10T23:39:11Z</time>
      </trkpt>
      <trkpt lat="28.4999270" lon="-16.2036930">
        <ele>35.0</ele>
        <time>2020-11-10T23:39:12Z</time>
      </trkpt>
      <trkpt lat="28.4999470" lon="-16.2036270">
        <ele>35.0</ele>
        <time>2020-11-10T23:39:13Z</time>
      </trkpt>
      <trkpt lat="28.4999470" lon="-16.2036270">
        <ele>35.0</ele>
        <time>2020-11-10T23:39:14Z</time>
      </trkpt>
      <trkpt lat="28.4999870" lon="-16.2034950">
        <ele>35.0</ele>
        <time>2020-11-10T23:39:15Z</time>
      </trkpt>
      <trkpt lat="28.4999870" lon="-16.2034950">
        <ele>35.0</ele>
        <time>2020-11-10T23:39:16Z</time>
      </trkpt>
      <trkpt lat="28.5000250" lon="-16.2033630">
        <ele>35.0</ele>
        <time>2020-11-10T23:39:17Z</time>
      </trkpt>
      <trkpt lat="28.5000430" lon="-16.2032980">
        <ele>35.0</ele>
        <time>2020-11-10T23:39:18Z</time>
      </trkpt>
      <trkpt lat="28.5000430" lon="-16.2032980">
        <ele>35.0</ele>
        <time>2020-11-10T23:39:19Z</time>
      </trkpt>
      <trkpt lat="28.5000780" lon="-16.2031670">
        <ele>35.0</ele>
        <time>2020-11-10T23:39:20Z</time>
      </trkpt>
      <trkpt lat="28.5000780" lon="-16.2031670">
        <ele>35.0</ele>
        <time>2020-11-10T23:39:21Z</time>
      </trkpt>
      <trkpt lat="28.5001150" lon="-16.2030320">
        <ele>35.0</ele>
        <time>2020-11-10T23:39:22Z</time>
      </trkpt>
      <trkpt lat="28.5001320" lon="-16.2029630">
        <ele>35.0</ele>
        <time>2020-11-10T23:39:23Z</time>
      </trkpt>
      <trkpt lat="28.5001320" lon="-16.2029630">
        <ele>35.0</ele>
        <time>2020-11-10T23:39:24Z</time>
      </trkpt>
      <trkpt lat="28.5001650" lon="-16.2028270">
        <ele>35.0</ele>
        <time>2020-11-10T23:39:25Z</time>
      </trkpt>
      <trkpt lat="28.5001830" lon="-16.2027580">
        <ele>35.0</ele>
        <time>2020-11-10T23:39:26Z</time>
      </trkpt>
      <trkpt lat="28.5001830" lon="-16.2027580">
        <ele>35.0</ele>
        <time>2020-11-10T23:39:27Z</time>
      </trkpt>
      <trkpt lat="28.5002180" lon="-16.2026220">
        <ele>35.0</ele>
        <time>2020-11-10T23:39:28Z</time>
      </trkpt>
      <trkpt lat="28.5002370" lon="-16.2025530">
        <ele>35.0</ele>
        <time>2020-11-10T23:39:29Z</time>
      </trkpt>
      <trkpt lat="28.5002370" lon="-16.2025530">
        <ele>35.0</ele>
        <time>2020-11-10T23:39:30Z</time>
      </trkpt>
      <trkpt lat="28.5002700" lon="-16.2024150">
        <ele>35.0</ele>
        <time>2020-11-10T23:39:31Z</time>
      </trkpt>
      <trkpt lat="28.5002700" lon="-16.2024150">
        <ele>35.0</ele>
        <time>2020-11-10T23:39:32Z</time>
      </trkpt>
      <trkpt lat="28.5003030" lon="-16.2022780">
        <ele>35.0</ele>
        <time>2020-11-10T23:39:33Z</time>
      </trkpt>
      <trkpt lat="28.5003030" lon="-16.2022780">
        <ele>35.0</ele>
        <time>2020-11-10T23:39:34Z</time>
      </trkpt>
      <trkpt lat="28.5003370" lon="-16.2021430">
        <ele>35.0</ele>
        <time>2020-11-10T23:39:35Z</time>
      </trkpt>
      <trkpt lat="28.5003550" lon="-16.2020750">
        <ele>35.0</ele>
        <time>2020-11-10T23:39:36Z</time>
      </trkpt>
      <trkpt lat="28.5003700" lon="-16.2020080">
        <ele>35.0</ele>
        <time>2020-11-10T23:39:37Z</time>
      </trkpt>
      <trkpt lat="28.5003700" lon="-16.2020080">
        <ele>35.0</ele>
        <time>2020-11-10T23:39:38Z</time>
      </trkpt>
      <trkpt lat="28.5004030" lon="-16.2018730">
        <ele>35.0</ele>
        <time>2020-11-10T23:39:39Z</time>
      </trkpt>
      <trkpt lat="28.5004180" lon="-16.2018080">
        <ele>35.0</ele>
        <time>2020-11-10T23:39:40Z</time>
      </trkpt>
      <trkpt lat="28.5004180" lon="-16.2018080">
        <ele>35.0</ele>
        <time>2020-11-10T23:39:41Z</time>
      </trkpt>
      <trkpt lat="28.5004480" lon="-16.2016800">
        <ele>35.0</ele>
        <time>2020-11-10T23:39:42Z</time>
      </trkpt>
      <trkpt lat="28.5004650" lon="-16.2016150">
        <ele>35.0</ele>
        <time>2020-11-10T23:39:43Z</time>
      </trkpt>
      <trkpt lat="28.5004650" lon="-16.2016150">
        <ele>35.0</ele>
        <time>2020-11-10T23:39:44Z</time>
      </trkpt>
      <trkpt lat="28.5004880" lon="-16.2014780">
        <ele>35.0</ele>
        <time>2020-11-10T23:39:45Z</time>
      </trkpt>
      <trkpt lat="28.5004880" lon="-16.2014780">
        <ele>35.0</ele>
        <time>2020-11-10T23:39:46Z</time>
      </trkpt>
      <trkpt lat="28.5005200" lon="-16.2013450">
        <ele>35.0</ele>
        <time>2020-11-10T23:39:47Z</time>
      </trkpt>
      <trkpt lat="28.5005370" lon="-16.2012770">
        <ele>35.0</ele>
        <time>2020-11-10T23:39:48Z</time>
      </trkpt>
      <trkpt lat="28.5005530" lon="-16.2012100">
        <ele>35.0</ele>
        <time>2020-11-10T23:39:49Z</time>
      </trkpt>
      <trkpt lat="28.5005530" lon="-16.2012100">
        <ele>35.0</ele>
        <time>2020-11-10T23:39:50Z</time>
      </trkpt>
      <trkpt lat="28.5005870" lon="-16.2010750">
        <ele>35.0</ele>
        <time>2020-11-10T23:39:51Z</time>
      </trkpt>
      <trkpt lat="28.5006030" lon="-16.2010120">
        <ele>35.0</ele>
        <time>2020-11-10T23:39:52Z</time>
      </trkpt>
      <trkpt lat="28.5006030" lon="-16.2010120">
        <ele>36.0</ele>
        <time>2020-11-10T23:39:53Z</time>
      </trkpt>
      <trkpt lat="28.5006350" lon="-16.2008830">
        <ele>36.0</ele>
        <time>2020-11-10T23:39:54Z</time>
      </trkpt>
      <trkpt lat="28.5006350" lon="-16.2008830">
        <ele>36.0</ele>
        <time>2020-11-10T23:39:55Z</time>
      </trkpt>
      <trkpt lat="28.5006680" lon="-16.2007520">
        <ele>36.0</ele>
        <time>2020-11-10T23:39:56Z</time>
      </trkpt>
      <trkpt lat="28.5006830" lon="-16.2006850">
        <ele>36.0</ele>
        <time>2020-11-10T23:39:57Z</time>
      </trkpt>
      <trkpt lat="28.5006830" lon="-16.2006850">
        <ele>36.0</ele>
        <time>2020-11-10T23:39:58Z</time>
      </trkpt>
      <trkpt lat="28.5007150" lon="-16.2005570">
        <ele>36.0</ele>
        <time>2020-11-10T23:39:59Z</time>
      </trkpt>
      <trkpt lat="28.5007150" lon="-16.2005570">
        <ele>36.0</ele>
        <time>2020-11-10T23:40:00Z</time>
      </trkpt>
      <trkpt lat="28.5007500" lon="-16.2004330">
        <ele>36.0</ele>
        <time>2020-11-10T23:40:01Z</time>
      </trkpt>
      <trkpt lat="28.5007680" lon="-16.2003720">
        <ele>36.0</ele>
        <time>2020-11-10T23:40:02Z</time>
      </trkpt>
      <trkpt lat="28.5007680" lon="-16.2003720">
        <ele>36.0</ele>
        <time>2020-11-10T23:40:03Z</time>
      </trkpt>
      <trkpt lat="28.5008020" lon="-16.2002400">
        <ele>36.0</ele>
        <time>2020-11-10T23:40:04Z</time>
      </trkpt>
      <trkpt lat="28.5008180" lon="-16.2001730">
        <ele>36.0</ele>
        <time>2020-11-10T23:40:05Z</time>
      </trkpt>
      <trkpt lat="28.5008350" lon="-16.2001030">
        <ele>36.0</ele>
        <time>2020-11-10T23:40:06Z</time>
      </trkpt>
      <trkpt lat="28.5008350" lon="-16.2001030">
        <ele>36.0</ele>
        <time>2020-11-10T23:40:07Z</time>
      </trkpt>
      <trkpt lat="28.5008680" lon="-16.1999670">
        <ele>36.0</ele>
        <time>2020-11-10T23:40:08Z</time>
      </trkpt>
      <trkpt lat="28.5008830" lon="-16.1998980">
        <ele>36.0</ele>
        <time>2020-11-10T23:40:09Z</time>
      </trkpt>
      <trkpt lat="28.5008830" lon="-16.1998980">
        <ele>36.0</ele>
        <time>2020-11-10T23:40:10Z</time>
      </trkpt>
      <trkpt lat="28.5009120" lon="-16.1997650">
        <ele>36.0</ele>
        <time>2020-11-10T23:40:11Z</time>
      </trkpt>
      <trkpt lat="28.5009280" lon="-16.1997000">
        <ele>36.0</ele>
        <time>2020-11-10T23:40:12Z</time>
      </trkpt>
      <trkpt lat="28.5009280" lon="-16.1997000">
        <ele>36.0</ele>
        <time>2020-11-10T23:40:13Z</time>
      </trkpt>
      <trkpt lat="28.5009530" lon="-16.1995700">
        <ele>36.0</ele>
        <time>2020-11-10T23:40:14Z</time>
      </trkpt>
      <trkpt lat="28.5009530" lon="-16.1995700">
        <ele>36.0</ele>
        <time>2020-11-10T23:40:15Z</time>
      </trkpt>
      <trkpt lat="28.5009680" lon="-16.1994380">
        <ele>36.0</ele>
        <time>2020-11-10T23:40:16Z</time>
      </trkpt>
      <trkpt lat="28.5009680" lon="-16.1994380">
        <ele>36.0</ele>
        <time>2020-11-10T23:40:17Z</time>
      </trkpt>
      <trkpt lat="28.5009830" lon="-16.1993030">
        <ele>36.0</ele>
        <time>2020-11-10T23:40:18Z</time>
      </trkpt>
      <trkpt lat="28.5009870" lon="-16.1992350">
        <ele>36.0</ele>
        <time>2020-11-10T23:40:19Z</time>
      </trkpt>
      <trkpt lat="28.5009870" lon="-16.1992350">
        <ele>36.0</ele>
        <time>2020-11-10T23:40:20Z</time>
      </trkpt>
      <trkpt lat="28.5009900" lon="-16.1991020">
        <ele>36.0</ele>
        <time>2020-11-10T23:40:21Z</time>
      </trkpt>
      <trkpt lat="28.5009870" lon="-16.1990330">
        <ele>36.0</ele>
        <time>2020-11-10T23:40:22Z</time>
      </trkpt>
      <trkpt lat="28.5009870" lon="-16.1990330">
        <ele>36.0</ele>
        <time>2020-11-10T23:40:23Z</time>
      </trkpt>
      <trkpt lat="28.5009850" lon="-16.1988930">
        <ele>36.0</ele>
        <time>2020-11-10T23:40:24Z</time>
      </trkpt>
      <trkpt lat="28.5009820" lon="-16.1988250">
        <ele>36.0</ele>
        <time>2020-11-10T23:40:25Z</time>
      </trkpt>
      <trkpt lat="28.5009820" lon="-16.1988250">
        <ele>36.0</ele>
        <time>2020-11-10T23:40:26Z</time>
      </trkpt>
      <trkpt lat="28.5009650" lon="-16.1986980">
        <ele>36.0</ele>
        <time>2020-11-10T23:40:27Z</time>
      </trkpt>
      <trkpt lat="28.5009550" lon="-16.1986350">
        <ele>36.0</ele>
        <time>2020-11-10T23:40:28Z</time>
      </trkpt>
      <trkpt lat="28.5009430" lon="-16.1985720">
        <ele>36.0</ele>
        <time>2020-11-10T23:40:29Z</time>
      </trkpt>
      <trkpt lat="28.5009430" lon="-16.1985720">
        <ele>36.0</ele>
        <time>2020-11-10T23:40:30Z</time>
      </trkpt>
      <trkpt lat="28.5009230" lon="-16.1984480">
        <ele>36.0</ele>
        <time>2020-11-10T23:40:31Z</time>
      </trkpt>
      <trkpt lat="28.5009230" lon="-16.1984480">
        <ele>36.0</ele>
        <time>2020-11-10T23:40:32Z</time>
      </trkpt>
      <trkpt lat="28.5008970" lon="-16.1983270">
        <ele>36.0</ele>
        <time>2020-11-10T23:40:33Z</time>
      </trkpt>
      <trkpt lat="28.5008970" lon="-16.1983270">
        <ele>36.0</ele>
        <time>2020-11-10T23:40:34Z</time>
      </trkpt>
      <trkpt lat="28.5008680" lon="-16.1982050">
        <ele>36.0</ele>
        <time>2020-11-10T23:40:35Z</time>
      </trkpt>
      <trkpt lat="28.5008680" lon="-16.1982050">
        <ele>36.0</ele>
        <time>2020-11-10T23:40:36Z</time>
      </trkpt>
      <trkpt lat="28.5008350" lon="-16.1980870">
        <ele>36.0</ele>
        <time>2020-11-10T23:40:37Z</time>
      </trkpt>
      <trkpt lat="28.5008350" lon="-16.1980870">
        <ele>36.0</ele>
        <time>2020-11-10T23:40:38Z</time>
      </trkpt>
      <trkpt lat="28.5007970" lon="-16.1979720">
        <ele>36.0</ele>
        <time>2020-11-10T23:40:39Z</time>
      </trkpt>
      <trkpt lat="28.5007970" lon="-16.1979720">
        <ele>36.0</ele>
        <time>2020-11-10T23:40:40Z</time>
      </trkpt>
      <trkpt lat="28.5007530" lon="-16.1978600">
        <ele>36.0</ele>
        <time>2020-11-10T23:40:41Z</time>
      </trkpt>
      <trkpt lat="28.5007530" lon="-16.1978600">
        <ele>36.0</ele>
        <time>2020-11-10T23:40:42Z</time>
      </trkpt>
      <trkpt lat="28.5007070" lon="-16.1977470">
        <ele>36.0</ele>
        <time>2020-11-10T23:40:43Z</time>
      </trkpt>
      <trkpt lat="28.5007070" lon="-16.1977470">
        <ele>36.0</ele>
        <time>2020-11-10T23:40:44Z</time>
      </trkpt>
      <trkpt lat="28.5006580" lon="-16.1976420">
        <ele>36.0</ele>
        <time>2020-11-10T23:40:45Z</time>
      </trkpt>
      <trkpt lat="28.5006580" lon="-16.1976420">
        <ele>36.0</ele>
        <time>2020-11-10T23:40:46Z</time>
      </trkpt>
      <trkpt lat="28.5006070" lon="-16.1975400">
        <ele>36.0</ele>
        <time>2020-11-10T23:40:47Z</time>
      </trkpt>
      <trkpt lat="28.5006070" lon="-16.1975400">
        <ele>36.0</ele>
        <time>2020-11-10T23:40:48Z</time>
      </trkpt>
      <trkpt lat="28.5005570" lon="-16.1974350">
        <ele>36.0</ele>
        <time>2020-11-10T23:40:49Z</time>
      </trkpt>
      <trkpt lat="28.5005570" lon="-16.1974350">
        <ele>36.0</ele>
        <time>2020-11-10T23:40:50Z</time>
      </trkpt>
      <trkpt lat="28.5005020" lon="-16.1973270">
        <ele>36.0</ele>
        <time>2020-11-10T23:40:51Z</time>
      </trkpt>
      <trkpt lat="28.5004730" lon="-16.1972720">
        <ele>36.0</ele>
        <time>2020-11-10T23:40:52Z</time>
      </trkpt>
      <trkpt lat="28.5004730" lon="-16.1972720">
        <ele>36.0</ele>
        <time>2020-11-10T23:40:53Z</time>
      </trkpt>
      <trkpt lat="28.5004170" lon="-16.1971520">
        <ele>36.0</ele>
        <time>2020-11-10T23:40:54Z</time>
      </trkpt>
      <trkpt lat="28.5003880" lon="-16.1970930">
        <ele>36.0</ele>
        <time>2020-11-10T23:40:55Z</time>
      </trkpt>
      <trkpt lat="28.5003880" lon="-16.1970930">
        <ele>36.0</ele>
        <time>2020-11-10T23:40:56Z</time>
      </trkpt>
      <trkpt lat="28.5003250" lon="-16.1969780">
        <ele>36.0</ele>
        <time>2020-11-10T23:40:57Z</time>
      </trkpt>
      <trkpt lat="28.5002930" lon="-16.1969220">
        <ele>36.0</ele>
        <time>2020-11-10T23:40:58Z</time>
      </trkpt>
      <trkpt lat="28.5002930" lon="-16.1969220">
        <ele>36.0</ele>
        <time>2020-11-10T23:40:59Z</time>
      </trkpt>
      <trkpt lat="28.5002380" lon="-16.1968080">
        <ele>36.0</ele>
        <time>2020-11-10T23:41:00Z</time>
      </trkpt>
      <trkpt lat="28.5002150" lon="-16.1967500">
        <ele>36.0</ele>
        <time>2020-11-10T23:41:01Z</time>
      </trkpt>
      <trkpt lat="28.5002150" lon="-16.1967500">
        <ele>36.0</ele>
        <time>2020-11-10T23:41:02Z</time>
      </trkpt>
      <trkpt lat="28.5001680" lon="-16.1966320">
        <ele>36.0</ele>
        <time>2020-11-10T23:41:03Z</time>
      </trkpt>
      <trkpt lat="28.5001680" lon="-16.1966320">
        <ele>36.0</ele>
        <time>2020-11-10T23:41:04Z</time>
      </trkpt>
      <trkpt lat="28.5001270" lon="-16.1965050">
        <ele>36.0</ele>
        <time>2020-11-10T23:41:05Z</time>
      </trkpt>
      <trkpt lat="28.5001270" lon="-16.1965050">
        <ele>36.0</ele>
        <time>2020-11-10T23:41:06Z</time>
      </trkpt>
      <trkpt lat="28.5000930" lon="-16.1963750">
        <ele>36.0</ele>
        <time>2020-11-10T23:41:07Z</time>
      </trkpt>
      <trkpt lat="28.5000930" lon="-16.1963750">
        <ele>36.0</ele>
        <time>2020-11-10T23:41:08Z</time>
      </trkpt>
      <trkpt lat="28.5000670" lon="-16.1962400">
        <ele>36.0</ele>
        <time>2020-11-10T23:41:09Z</time>
      </trkpt>
      <trkpt lat="28.5000670" lon="-16.1962400">
        <ele>36.0</ele>
        <time>2020-11-10T23:41:10Z</time>
      </trkpt>
      <trkpt lat="28.5000470" lon="-16.1961020">
        <ele>36.0</ele>
        <time>2020-11-10T23:41:11Z</time>
      </trkpt>
      <trkpt lat="28.5000470" lon="-16.1961020">
        <ele>36.0</ele>
        <time>2020-11-10T23:41:12Z</time>
      </trkpt>
      <trkpt lat="28.5000350" lon="-16.1959600">
        <ele>36.0</ele>
        <time>2020-11-10T23:41:13Z</time>
      </trkpt>
      <trkpt lat="28.5000350" lon="-16.1959600">
        <ele>36.0</ele>
        <time>2020-11-10T23:41:14Z</time>
      </trkpt>
      <trkpt lat="28.5000250" lon="-16.1958170">
        <ele>36.0</ele>
        <time>2020-11-10T23:41:15Z</time>
      </trkpt>
      <trkpt lat="28.5000200" lon="-16.1957470">
        <ele>36.0</ele>
        <time>2020-11-10T23:41:16Z</time>
      </trkpt>
      <trkpt lat="28.5000200" lon="-16.1957470">
        <ele>36.0</ele>
        <time>2020-11-10T23:41:17Z</time>
      </trkpt>
      <trkpt lat="28.5000270" lon="-16.1956070">
        <ele>36.0</ele>
        <time>2020-11-10T23:41:18Z</time>
      </trkpt>
      <trkpt lat="28.5000350" lon="-16.1955380">
        <ele>36.0</ele>
        <time>2020-11-10T23:41:19Z</time>
      </trkpt>
      <trkpt lat="28.5000350" lon="-16.1955380">
        <ele>36.0</ele>
        <time>2020-11-10T23:41:20Z</time>
      </trkpt>
      <trkpt lat="28.5000550" lon="-16.1954020">
        <ele>36.0</ele>
        <time>2020-11-10T23:41:21Z</time>
      </trkpt>
      <trkpt lat="28.5000550" lon="-16.1954020">
        <ele>36.0</ele>
        <time>2020-11-10T23:41:22Z</time>
      </trkpt>
      <trkpt lat="28.5000820" lon="-16.1952680">
        <ele>36.0</ele>
        <time>2020-11-10T23:41:23Z</time>
      </trkpt>
      <trkpt lat="28.5000820" lon="-16.1952680">
        <ele>36.0</ele>
        <time>2020-11-10T23:41:24Z</time>
      </trkpt>
      <trkpt lat="28.5001100" lon="-16.1951370">
        <ele>36.0</ele>
        <time>2020-11-10T23:41:25Z</time>
      </trkpt>
      <trkpt lat="28.5001100" lon="-16.1951370">
        <ele>36.0</ele>
        <time>2020-11-10T23:41:26Z</time>
      </trkpt>
      <trkpt lat="28.5001500" lon="-16.1950030">
        <ele>36.0</ele>
        <time>2020-11-10T23:41:27Z</time>
      </trkpt>
      <trkpt lat="28.5001730" lon="-16.1949380">
        <ele>36.0</ele>
        <time>2020-11-10T23:41:28Z</time>
      </trkpt>
      <trkpt lat="28.5001730" lon="-16.1949380">
        <ele>36.0</ele>
        <time>2020-11-10T23:41:29Z</time>
      </trkpt>
      <trkpt lat="28.5002230" lon="-16.1948130">
        <ele>36.0</ele>
        <time>2020-11-10T23:41:30Z</time>
      </trkpt>
      <trkpt lat="28.5002230" lon="-16.1948130">
        <ele>36.0</ele>
        <time>2020-11-10T23:41:31Z</time>
      </trkpt>
      <trkpt lat="28.5002800" lon="-16.1946930">
        <ele>36.0</ele>
        <time>2020-11-10T23:41:32Z</time>
      </trkpt>
      <trkpt lat="28.5002800" lon="-16.1946930">
        <ele>36.0</ele>
        <time>2020-11-10T23:41:33Z</time>
      </trkpt>
      <trkpt lat="28.5003450" lon="-16.1945720">
        <ele>36.0</ele>
        <time>2020-11-10T23:41:34Z</time>
      </trkpt>
      <trkpt lat="28.5003450" lon="-16.1945720">
        <ele>36.0</ele>
        <time>2020-11-10T23:41:35Z</time>
      </trkpt>
      <trkpt lat="28.5004180" lon="-16.1944480">
        <ele>36.0</ele>
        <time>2020-11-10T23:41:36Z</time>
      </trkpt>
      <trkpt lat="28.5004580" lon="-16.1943880">
        <ele>35.0</ele>
        <time>2020-11-10T23:41:37Z</time>
      </trkpt>
      <trkpt lat="28.5004580" lon="-16.1943880">
        <ele>35.0</ele>
        <time>2020-11-10T23:41:38Z</time>
      </trkpt>
      <trkpt lat="28.5005430" lon="-16.1942780">
        <ele>35.0</ele>
        <time>2020-11-10T23:41:39Z</time>
      </trkpt>
      <trkpt lat="28.5005430" lon="-16.1942780">
        <ele>35.0</ele>
        <time>2020-11-10T23:41:40Z</time>
      </trkpt>
      <trkpt lat="28.5006330" lon="-16.1941730">
        <ele>35.0</ele>
        <time>2020-11-10T23:41:41Z</time>
      </trkpt>
      <trkpt lat="28.5006830" lon="-16.1941230">
        <ele>35.0</ele>
        <time>2020-11-10T23:41:42Z</time>
      </trkpt>
      <trkpt lat="28.5007350" lon="-16.1940750">
        <ele>35.0</ele>
        <time>2020-11-10T23:41:43Z</time>
      </trkpt>
      <trkpt lat="28.5007350" lon="-16.1940750">
        <ele>35.0</ele>
        <time>2020-11-10T23:41:44Z</time>
      </trkpt>
      <trkpt lat="28.5008350" lon="-16.1939850">
        <ele>35.0</ele>
        <time>2020-11-10T23:41:45Z</time>
      </trkpt>
      <trkpt lat="28.5008350" lon="-16.1939850">
        <ele>35.0</ele>
        <time>2020-11-10T23:41:46Z</time>
      </trkpt>
      <trkpt lat="28.5009480" lon="-16.1939070">
        <ele>35.0</ele>
        <time>2020-11-10T23:41:47Z</time>
      </trkpt>
      <trkpt lat="28.5009480" lon="-16.1939070">
        <ele>35.0</ele>
        <time>2020-11-10T23:41:48Z</time>
      </trkpt>
      <trkpt lat="28.5010620" lon="-16.1938350">
        <ele>35.0</ele>
        <time>2020-11-10T23:41:49Z</time>
      </trkpt>
      <trkpt lat="28.5010620" lon="-16.1938350">
        <ele>35.0</ele>
        <time>2020-11-10T23:41:50Z</time>
      </trkpt>
      <trkpt lat="28.5011720" lon="-16.1937680">
        <ele>35.0</ele>
        <time>2020-11-10T23:41:51Z</time>
      </trkpt>
      <trkpt lat="28.5012300" lon="-16.1937380">
        <ele>35.0</ele>
        <time>2020-11-10T23:41:52Z</time>
      </trkpt>
      <trkpt lat="28.5012300" lon="-16.1937380">
        <ele>35.0</ele>
        <time>2020-11-10T23:41:53Z</time>
      </trkpt>
      <trkpt lat="28.5013480" lon="-16.1936830">
        <ele>35.0</ele>
        <time>2020-11-10T23:41:54Z</time>
      </trkpt>
      <trkpt lat="28.5014100" lon="-16.1936680">
        <ele>35.0</ele>
        <time>2020-11-10T23:41:55Z</time>
      </trkpt>
      <trkpt lat="28.5014100" lon="-16.1936680">
        <ele>35.0</ele>
        <time>2020-11-10T23:41:56Z</time>
      </trkpt>
      <trkpt lat="28.5015300" lon="-16.1936270">
        <ele>35.0</ele>
        <time>2020-11-10T23:41:57Z</time>
      </trkpt>
      <trkpt lat="28.5015300" lon="-16.1936270">
        <ele>35.0</ele>
        <time>2020-11-10T23:41:58Z</time>
      </trkpt>
      <trkpt lat="28.5016480" lon="-16.1935750">
        <ele>35.0</ele>
        <time>2020-11-10T23:41:59Z</time>
      </trkpt>
      <trkpt lat="28.5016480" lon="-16.1935750">
        <ele>35.0</ele>
        <time>2020-11-10T23:42:00Z</time>
      </trkpt>
      <trkpt lat="28.5017620" lon="-16.1935280">
        <ele>35.0</ele>
        <time>2020-11-10T23:42:01Z</time>
      </trkpt>
      <trkpt lat="28.5017620" lon="-16.1935280">
        <ele>35.0</ele>
        <time>2020-11-10T23:42:02Z</time>
      </trkpt>
      <trkpt lat="28.5018720" lon="-16.1934850">
        <ele>34.0</ele>
        <time>2020-11-10T23:42:03Z</time>
      </trkpt>
      <trkpt lat="28.5019280" lon="-16.1934650">
        <ele>34.0</ele>
        <time>2020-11-10T23:42:04Z</time>
      </trkpt>
      <trkpt lat="28.5019280" lon="-16.1934650">
        <ele>34.0</ele>
        <time>2020-11-10T23:42:05Z</time>
      </trkpt>
      <trkpt lat="28.5020380" lon="-16.1934250">
        <ele>34.0</ele>
        <time>2020-11-10T23:42:06Z</time>
      </trkpt>
      <trkpt lat="28.5020950" lon="-16.1934050">
        <ele>34.0</ele>
        <time>2020-11-10T23:42:07Z</time>
      </trkpt>
      <trkpt lat="28.5020950" lon="-16.1934050">
        <ele>34.0</ele>
        <time>2020-11-10T23:42:08Z</time>
      </trkpt>
      <trkpt lat="28.5022130" lon="-16.1933670">
        <ele>34.0</ele>
        <time>2020-11-10T23:42:09Z</time>
      </trkpt>
      <trkpt lat="28.5022130" lon="-16.1933670">
        <ele>33.0</ele>
        <time>2020-11-10T23:42:10Z</time>
      </trkpt>
      <trkpt lat="28.5023300" lon="-16.1933220">
        <ele>33.0</ele>
        <time>2020-11-10T23:42:11Z</time>
      </trkpt>
      <trkpt lat="28.5023300" lon="-16.1933220">
        <ele>33.0</ele>
        <time>2020-11-10T23:42:12Z</time>
      </trkpt>
      <trkpt lat="28.5024400" lon="-16.1932820">
        <ele>33.0</ele>
        <time>2020-11-10T23:42:13Z</time>
      </trkpt>
      <trkpt lat="28.5024400" lon="-16.1932820">
        <ele>33.0</ele>
        <time>2020-11-10T23:42:14Z</time>
      </trkpt>
      <trkpt lat="28.5025530" lon="-16.1932380">
        <ele>33.0</ele>
        <time>2020-11-10T23:42:15Z</time>
      </trkpt>
      <trkpt lat="28.5025530" lon="-16.1932380">
        <ele>32.0</ele>
        <time>2020-11-10T23:42:16Z</time>
      </trkpt>
      <trkpt lat="28.5026720" lon="-16.1931950">
        <ele>32.0</ele>
        <time>2020-11-10T23:42:17Z</time>
      </trkpt>
      <trkpt lat="28.5026720" lon="-16.1931950">
        <ele>32.0</ele>
        <time>2020-11-10T23:42:18Z</time>
      </trkpt>
      <trkpt lat="28.5027830" lon="-16.1931480">
        <ele>32.0</ele>
        <time>2020-11-10T23:42:19Z</time>
      </trkpt>
      <trkpt lat="28.5027830" lon="-16.1931480">
        <ele>32.0</ele>
        <time>2020-11-10T23:42:20Z</time>
      </trkpt>
      <trkpt lat="28.5028830" lon="-16.1930950">
        <ele>32.0</ele>
        <time>2020-11-10T23:42:21Z</time>
      </trkpt>
      <trkpt lat="28.5029280" lon="-16.1930600">
        <ele>32.0</ele>
        <time>2020-11-10T23:42:22Z</time>
      </trkpt>
      <trkpt lat="28.5029280" lon="-16.1930600">
        <ele>32.0</ele>
        <time>2020-11-10T23:42:23Z</time>
      </trkpt>
      <trkpt lat="28.5030120" lon="-16.1929900">
        <ele>32.0</ele>
        <time>2020-11-10T23:42:24Z</time>
      </trkpt>
      <trkpt lat="28.5030120" lon="-16.1929900">
        <ele>32.0</ele>
        <time>2020-11-10T23:42:25Z</time>
      </trkpt>
      <trkpt lat="28.5030950" lon="-16.1929370">
        <ele>32.0</ele>
        <time>2020-11-10T23:42:26Z</time>
      </trkpt>
      <trkpt lat="28.5030950" lon="-16.1929370">
        <ele>32.0</ele>
        <time>2020-11-10T23:42:27Z</time>
      </trkpt>
      <trkpt lat="28.5031700" lon="-16.1928780">
        <ele>32.0</ele>
        <time>2020-11-10T23:42:28Z</time>
      </trkpt>
      <trkpt lat="28.5031700" lon="-16.1928780">
        <ele>32.0</ele>
        <time>2020-11-10T23:42:29Z</time>
      </trkpt>
      <trkpt lat="28.5032320" lon="-16.1927770">
        <ele>32.0</ele>
        <time>2020-11-10T23:42:30Z</time>
      </trkpt>
      <trkpt lat="28.5032320" lon="-16.1927770">
        <ele>32.0</ele>
        <time>2020-11-10T23:42:31Z</time>
      </trkpt>
      <trkpt lat="28.5033020" lon="-16.1926600">
        <ele>31.0</ele>
        <time>2020-11-10T23:42:32Z</time>
      </trkpt>
      <trkpt lat="28.5033020" lon="-16.1926600">
        <ele>31.0</ele>
        <time>2020-11-10T23:42:33Z</time>
      </trkpt>
      <trkpt lat="28.5033720" lon="-16.1925400">
        <ele>31.0</ele>
        <time>2020-11-10T23:42:34Z</time>
      </trkpt>
      <trkpt lat="28.5033720" lon="-16.1925400">
        <ele>31.0</ele>
        <time>2020-11-10T23:42:35Z</time>
      </trkpt>
      <trkpt lat="28.5034520" lon="-16.1924230">
        <ele>31.0</ele>
        <time>2020-11-10T23:42:36Z</time>
      </trkpt>
      <trkpt lat="28.5034880" lon="-16.1923630">
        <ele>31.0</ele>
        <time>2020-11-10T23:42:37Z</time>
      </trkpt>
      <trkpt lat="28.5034880" lon="-16.1923630">
        <ele>31.0</ele>
        <time>2020-11-10T23:42:38Z</time>
      </trkpt>
      <trkpt lat="28.5035520" lon="-16.1922420">
        <ele>31.0</ele>
        <time>2020-11-10T23:42:39Z</time>
      </trkpt>
      <trkpt lat="28.5035850" lon="-16.1921820">
        <ele>31.0</ele>
        <time>2020-11-10T23:42:40Z</time>
      </trkpt>
      <trkpt lat="28.5035850" lon="-16.1921820">
        <ele>31.0</ele>
        <time>2020-11-10T23:42:41Z</time>
      </trkpt>
      <trkpt lat="28.5036530" lon="-16.1920750">
        <ele>31.0</ele>
        <time>2020-11-10T23:42:42Z</time>
      </trkpt>
      <trkpt lat="28.5036530" lon="-16.1920750">
        <ele>31.0</ele>
        <time>2020-11-10T23:42:43Z</time>
      </trkpt>
      <trkpt lat="28.5037250" lon="-16.1919630">
        <ele>31.0</ele>
        <time>2020-11-10T23:42:44Z</time>
      </trkpt>
      <trkpt lat="28.5037250" lon="-16.1919630">
        <ele>31.0</ele>
        <time>2020-11-10T23:42:45Z</time>
      </trkpt>
      <trkpt lat="28.5037900" lon="-16.1918530">
        <ele>31.0</ele>
        <time>2020-11-10T23:42:46Z</time>
      </trkpt>
      <trkpt lat="28.5038250" lon="-16.1917980">
        <ele>31.0</ele>
        <time>2020-11-10T23:42:47Z</time>
      </trkpt>
      <trkpt lat="28.5038250" lon="-16.1917980">
        <ele>31.0</ele>
        <time>2020-11-10T23:42:48Z</time>
      </trkpt>
      <trkpt lat="28.5038950" lon="-16.1916830">
        <ele>31.0</ele>
        <time>2020-11-10T23:42:49Z</time>
      </trkpt>
      <trkpt lat="28.5038950" lon="-16.1916830">
        <ele>31.0</ele>
        <time>2020-11-10T23:42:50Z</time>
      </trkpt>
      <trkpt lat="28.5039650" lon="-16.1915670">
        <ele>31.0</ele>
        <time>2020-11-10T23:42:51Z</time>
      </trkpt>
      <trkpt lat="28.5039650" lon="-16.1915670">
        <ele>31.0</ele>
        <time>2020-11-10T23:42:52Z</time>
      </trkpt>
      <trkpt lat="28.5040330" lon="-16.1914500">
        <ele>31.0</ele>
        <time>2020-11-10T23:42:53Z</time>
      </trkpt>
      <trkpt lat="28.5040330" lon="-16.1914500">
        <ele>31.0</ele>
        <time>2020-11-10T23:42:54Z</time>
      </trkpt>
      <trkpt lat="28.5041050" lon="-16.1913380">
        <ele>31.0</ele>
        <time>2020-11-10T23:42:55Z</time>
      </trkpt>
      <trkpt lat="28.5041050" lon="-16.1913380">
        <ele>31.0</ele>
        <time>2020-11-10T23:42:56Z</time>
      </trkpt>
      <trkpt lat="28.5041780" lon="-16.1912230">
        <ele>30.0</ele>
        <time>2020-11-10T23:42:57Z</time>
      </trkpt>
      <trkpt lat="28.5041780" lon="-16.1912230">
        <ele>30.0</ele>
        <time>2020-11-10T23:42:58Z</time>
      </trkpt>
      <trkpt lat="28.5042420" lon="-16.1911120">
        <ele>30.0</ele>
        <time>2020-11-10T23:42:59Z</time>
      </trkpt>
      <trkpt lat="28.5042420" lon="-16.1911120">
        <ele>30.0</ele>
        <time>2020-11-10T23:43:00Z</time>
      </trkpt>
      <trkpt lat="28.5043050" lon="-16.1910050">
        <ele>30.0</ele>
        <time>2020-11-10T23:43:01Z</time>
      </trkpt>
      <trkpt lat="28.5043050" lon="-16.1910050">
        <ele>30.0</ele>
        <time>2020-11-10T23:43:02Z</time>
      </trkpt>
      <trkpt lat="28.5043630" lon="-16.1908900">
        <ele>30.0</ele>
        <time>2020-11-10T23:43:03Z</time>
      </trkpt>
      <trkpt lat="28.5043630" lon="-16.1908900">
        <ele>30.0</ele>
        <time>2020-11-10T23:43:04Z</time>
      </trkpt>
      <trkpt lat="28.5044220" lon="-16.1907820">
        <ele>30.0</ele>
        <time>2020-11-10T23:43:05Z</time>
      </trkpt>
      <trkpt lat="28.5044220" lon="-16.1907820">
        <ele>30.0</ele>
        <time>2020-11-10T23:43:06Z</time>
      </trkpt>
      <trkpt lat="28.5044820" lon="-16.1906800">
        <ele>30.0</ele>
        <time>2020-11-10T23:43:07Z</time>
      </trkpt>
      <trkpt lat="28.5044820" lon="-16.1906800">
        <ele>30.0</ele>
        <time>2020-11-10T23:43:08Z</time>
      </trkpt>
      <trkpt lat="28.5045380" lon="-16.1905920">
        <ele>30.0</ele>
        <time>2020-11-10T23:43:09Z</time>
      </trkpt>
      <trkpt lat="28.5045670" lon="-16.1905500">
        <ele>30.0</ele>
        <time>2020-11-10T23:43:10Z</time>
      </trkpt>
      <trkpt lat="28.5045670" lon="-16.1905500">
        <ele>30.0</ele>
        <time>2020-11-10T23:43:11Z</time>
      </trkpt>
      <trkpt lat="28.5046270" lon="-16.1904770">
        <ele>30.0</ele>
        <time>2020-11-10T23:43:12Z</time>
      </trkpt>
      <trkpt lat="28.5046670" lon="-16.1904470">
        <ele>30.0</ele>
        <time>2020-11-10T23:43:13Z</time>
      </trkpt>
      <trkpt lat="28.5046670" lon="-16.1904470">
        <ele>30.0</ele>
        <time>2020-11-10T23:43:14Z</time>
      </trkpt>
      <trkpt lat="28.5047650" lon="-16.1904230">
        <ele>30.0</ele>
        <time>2020-11-10T23:43:15Z</time>
      </trkpt>
      <trkpt lat="28.5048150" lon="-16.1904370">
        <ele>30.0</ele>
        <time>2020-11-10T23:43:16Z</time>
      </trkpt>
      <trkpt lat="28.5048630" lon="-16.1904650">
        <ele>30.0</ele>
        <time>2020-11-10T23:43:17Z</time>
      </trkpt>
      <trkpt lat="28.5048630" lon="-16.1904650">
        <ele>30.0</ele>
        <time>2020-11-10T23:43:18Z</time>
      </trkpt>
      <trkpt lat="28.5049480" lon="-16.1905570">
        <ele>30.0</ele>
        <time>2020-11-10T23:43:19Z</time>
      </trkpt>
      <trkpt lat="28.5049480" lon="-16.1905570">
        <ele>30.0</ele>
        <time>2020-11-10T23:43:20Z</time>
      </trkpt>
      <trkpt lat="28.5050300" lon="-16.1906650">
        <ele>30.0</ele>
        <time>2020-11-10T23:43:21Z</time>
      </trkpt>
      <trkpt lat="28.5050300" lon="-16.1906650">
        <ele>30.0</ele>
        <time>2020-11-10T23:43:22Z</time>
      </trkpt>
      <trkpt lat="28.5051200" lon="-16.1907700">
        <ele>30.0</ele>
        <time>2020-11-10T23:43:23Z</time>
      </trkpt>
      <trkpt lat="28.5051200" lon="-16.1907700">
        <ele>30.0</ele>
        <time>2020-11-10T23:43:24Z</time>
      </trkpt>
      <trkpt lat="28.5052070" lon="-16.1908620">
        <ele>30.0</ele>
        <time>2020-11-10T23:43:25Z</time>
      </trkpt>
      <trkpt lat="28.5052070" lon="-16.1908620">
        <ele>30.0</ele>
        <time>2020-11-10T23:43:26Z</time>
      </trkpt>
      <trkpt lat="28.5052980" lon="-16.1909400">
        <ele>30.0</ele>
        <time>2020-11-10T23:43:27Z</time>
      </trkpt>
      <trkpt lat="28.5052980" lon="-16.1909400">
        <ele>30.0</ele>
        <time>2020-11-10T23:43:28Z</time>
      </trkpt>
      <trkpt lat="28.5053800" lon="-16.1910080">
        <ele>30.0</ele>
        <time>2020-11-10T23:43:29Z</time>
      </trkpt>
      <trkpt lat="28.5053800" lon="-16.1910080">
        <ele>30.0</ele>
        <time>2020-11-10T23:43:30Z</time>
      </trkpt>
      <trkpt lat="28.5054580" lon="-16.1910720">
        <ele>30.0</ele>
        <time>2020-11-10T23:43:31Z</time>
      </trkpt>
      <trkpt lat="28.5054900" lon="-16.1910930">
        <ele>30.0</ele>
        <time>2020-11-10T23:43:32Z</time>
      </trkpt>
      <trkpt lat="28.5054900" lon="-16.1910930">
        <ele>30.0</ele>
        <time>2020-11-10T23:43:33Z</time>
      </trkpt>
      <trkpt lat="28.5055620" lon="-16.1910980">
        <ele>31.0</ele>
        <time>2020-11-10T23:43:34Z</time>
      </trkpt>
      <trkpt lat="28.5055620" lon="-16.1910980">
        <ele>31.0</ele>
        <time>2020-11-10T23:43:35Z</time>
      </trkpt>
      <trkpt lat="28.5056130" lon="-16.1910570">
        <ele>31.0</ele>
        <time>2020-11-10T23:43:36Z</time>
      </trkpt>
      <trkpt lat="28.5056420" lon="-16.1910230">
        <ele>31.0</ele>
        <time>2020-11-10T23:43:37Z</time>
      </trkpt>
      <trkpt lat="28.5056680" lon="-16.1909780">
        <ele>32.0</ele>
        <time>2020-11-10T23:43:38Z</time>
      </trkpt>
      <trkpt lat="28.5056680" lon="-16.1909780">
        <ele>32.0</ele>
        <time>2020-11-10T23:43:39Z</time>
      </trkpt>
      <trkpt lat="28.5057300" lon="-16.1908800">
        <ele>32.0</ele>
        <time>2020-11-10T23:43:40Z</time>
      </trkpt>
      <trkpt lat="28.5057300" lon="-16.1908800">
        <ele>32.0</ele>
        <time>2020-11-10T23:43:41Z</time>
      </trkpt>
      <trkpt lat="28.5058080" lon="-16.1907780">
        <ele>32.0</ele>
        <time>2020-11-10T23:43:42Z</time>
      </trkpt>
      <trkpt lat="28.5058350" lon="-16.1907250">
        <ele>32.0</ele>
        <time>2020-11-10T23:43:43Z</time>
      </trkpt>
      <trkpt lat="28.5058350" lon="-16.1907250">
        <ele>32.0</ele>
        <time>2020-11-10T23:43:44Z</time>
      </trkpt>
      <trkpt lat="28.5058650" lon="-16.1906050">
        <ele>32.0</ele>
        <time>2020-11-10T23:43:45Z</time>
      </trkpt>
      <trkpt lat="28.5058770" lon="-16.1905450">
        <ele>32.0</ele>
        <time>2020-11-10T23:43:46Z</time>
      </trkpt>
      <trkpt lat="28.5058770" lon="-16.1905450">
        <ele>32.0</ele>
        <time>2020-11-10T23:43:47Z</time>
      </trkpt>
      <trkpt lat="28.5059220" lon="-16.1904330">
        <ele>32.0</ele>
        <time>2020-11-10T23:43:48Z</time>
      </trkpt>
      <trkpt lat="28.5059550" lon="-16.1903830">
        <ele>32.0</ele>
        <time>2020-11-10T23:43:49Z</time>
      </trkpt>
      <trkpt lat="28.5059550" lon="-16.1903830">
        <ele>32.0</ele>
        <time>2020-11-10T23:43:50Z</time>
      </trkpt>
      <trkpt lat="28.5060350" lon="-16.1902850">
        <ele>32.0</ele>
        <time>2020-11-10T23:43:51Z</time>
      </trkpt>
      <trkpt lat="28.5060820" lon="-16.1902400">
        <ele>32.0</ele>
        <time>2020-11-10T23:43:52Z</time>
      </trkpt>
      <trkpt lat="28.5060820" lon="-16.1902400">
        <ele>32.0</ele>
        <time>2020-11-10T23:43:53Z</time>
      </trkpt>
      <trkpt lat="28.5061680" lon="-16.1901580">
        <ele>32.0</ele>
        <time>2020-11-10T23:43:54Z</time>
      </trkpt>
      <trkpt lat="28.5061680" lon="-16.1901580">
        <ele>32.0</ele>
        <time>2020-11-10T23:43:55Z</time>
      </trkpt>
      <trkpt lat="28.5062480" lon="-16.1900770">
        <ele>32.0</ele>
        <time>2020-11-10T23:43:56Z</time>
      </trkpt>
      <trkpt lat="28.5062920" lon="-16.1900330">
        <ele>32.0</ele>
        <time>2020-11-10T23:43:57Z</time>
      </trkpt>
      <trkpt lat="28.5062920" lon="-16.1900330">
        <ele>32.0</ele>
        <time>2020-11-10T23:43:58Z</time>
      </trkpt>
      <trkpt lat="28.5063780" lon="-16.1899530">
        <ele>32.0</ele>
        <time>2020-11-10T23:43:59Z</time>
      </trkpt>
      <trkpt lat="28.5063780" lon="-16.1899530">
        <ele>32.0</ele>
        <time>2020-11-10T23:44:00Z</time>
      </trkpt>
      <trkpt lat="28.5064670" lon="-16.1898770">
        <ele>32.0</ele>
        <time>2020-11-10T23:44:01Z</time>
      </trkpt>
      <trkpt lat="28.5064670" lon="-16.1898770">
        <ele>32.0</ele>
        <time>2020-11-10T23:44:02Z</time>
      </trkpt>
      <trkpt lat="28.5065730" lon="-16.1898170">
        <ele>32.0</ele>
        <time>2020-11-10T23:44:03Z</time>
      </trkpt>
      <trkpt lat="28.5065730" lon="-16.1898170">
        <ele>32.0</ele>
        <time>2020-11-10T23:44:04Z</time>
      </trkpt>
      <trkpt lat="28.5066630" lon="-16.1897430">
        <ele>32.0</ele>
        <time>2020-11-10T23:44:05Z</time>
      </trkpt>
      <trkpt lat="28.5067030" lon="-16.1897030">
        <ele>32.0</ele>
        <time>2020-11-10T23:44:06Z</time>
      </trkpt>
      <trkpt lat="28.5067470" lon="-16.1896720">
        <ele>32.0</ele>
        <time>2020-11-10T23:44:07Z</time>
      </trkpt>
      <trkpt lat="28.5067470" lon="-16.1896720">
        <ele>32.0</ele>
        <time>2020-11-10T23:44:08Z</time>
      </trkpt>
      <trkpt lat="28.5068200" lon="-16.1896050">
        <ele>32.0</ele>
        <time>2020-11-10T23:44:09Z</time>
      </trkpt>
      <trkpt lat="28.5068200" lon="-16.1896050">
        <ele>32.0</ele>
        <time>2020-11-10T23:44:10Z</time>
      </trkpt>
      <trkpt lat="28.5068650" lon="-16.1895550">
        <ele>32.0</ele>
        <time>2020-11-10T23:44:11Z</time>
      </trkpt>
      <trkpt lat="28.5068650" lon="-16.1895550">
        <ele>32.0</ele>
        <time>2020-11-10T23:44:12Z</time>
      </trkpt>
      <trkpt lat="28.5069070" lon="-16.1895270">
        <ele>32.0</ele>
        <time>2020-11-10T23:44:13Z</time>
      </trkpt>
      <trkpt lat="28.5069070" lon="-16.1895270">
        <ele>32.0</ele>
        <time>2020-11-10T23:44:14Z</time>
      </trkpt>
      <trkpt lat="28.5069520" lon="-16.1895020">
        <ele>32.0</ele>
        <time>2020-11-10T23:44:15Z</time>
      </trkpt>
      <trkpt lat="28.5069820" lon="-16.1894850">
        <ele>32.0</ele>
        <time>2020-11-10T23:44:16Z</time>
      </trkpt>
      <trkpt lat="28.5069820" lon="-16.1894850">
        <ele>32.0</ele>
        <time>2020-11-10T23:44:17Z</time>
      </trkpt>
      <trkpt lat="28.5070280" lon="-16.1894500">
        <ele>32.0</ele>
        <time>2020-11-10T23:44:18Z</time>
      </trkpt>
      <trkpt lat="28.5070280" lon="-16.1894500">
        <ele>32.0</ele>
        <time>2020-11-10T23:44:19Z</time>
      </trkpt>
      <trkpt lat="28.5070720" lon="-16.1893970">
        <ele>33.0</ele>
        <time>2020-11-10T23:44:20Z</time>
      </trkpt>
      <trkpt lat="28.5070930" lon="-16.1893570">
        <ele>33.0</ele>
        <time>2020-11-10T23:44:21Z</time>
      </trkpt>
      <trkpt lat="28.5070930" lon="-16.1893570">
        <ele>33.0</ele>
        <time>2020-11-10T23:44:22Z</time>
      </trkpt>
      <trkpt lat="28.5071470" lon="-16.1892670">
        <ele>33.0</ele>
        <time>2020-11-10T23:44:23Z</time>
      </trkpt>
      <trkpt lat="28.5071470" lon="-16.1892670">
        <ele>33.0</ele>
        <time>2020-11-10T23:44:24Z</time>
      </trkpt>
      <trkpt lat="28.5071900" lon="-16.1891700">
        <ele>33.0</ele>
        <time>2020-11-10T23:44:25Z</time>
      </trkpt>
      <trkpt lat="28.5071900" lon="-16.1891700">
        <ele>31.0</ele>
        <time>2020-11-10T23:44:26Z</time>
      </trkpt>
      <trkpt lat="28.5071980" lon="-16.1890820">
        <ele>31.0</ele>
        <time>2020-11-10T23:44:27Z</time>
      </trkpt>
      <trkpt lat="28.5071980" lon="-16.1890820">
        <ele>31.0</ele>
        <time>2020-11-10T23:44:28Z</time>
      </trkpt>
      <trkpt lat="28.5071520" lon="-16.1890180">
        <ele>31.0</ele>
        <time>2020-11-10T23:44:29Z</time>
      </trkpt>
      <trkpt lat="28.5071520" lon="-16.1890180">
        <ele>30.0</ele>
        <time>2020-11-10T23:44:30Z</time>
      </trkpt>
      <trkpt lat="28.5070930" lon="-16.1889730">
        <ele>30.0</ele>
        <time>2020-11-10T23:44:31Z</time>
      </trkpt>
      <trkpt lat="28.5070670" lon="-16.1889570">
        <ele>30.0</ele>
        <time>2020-11-10T23:44:32Z</time>
      </trkpt>
      <trkpt lat="28.5070670" lon="-16.1889570">
        <ele>30.0</ele>
        <time>2020-11-10T23:44:33Z</time>
      </trkpt>
      <trkpt lat="28.5070320" lon="-16.1889270">
        <ele>29.0</ele>
        <time>2020-11-10T23:44:34Z</time>
      </trkpt>
      <trkpt lat="28.5070320" lon="-16.1889270">
        <ele>29.0</ele>
        <time>2020-11-10T23:44:35Z</time>
      </trkpt>
      <trkpt lat="28.5070030" lon="-16.1888970">
        <ele>29.0</ele>
        <time>2020-11-10T23:44:36Z</time>
      </trkpt>
      <trkpt lat="28.5069900" lon="-16.1888780">
        <ele>29.0</ele>
        <time>2020-11-10T23:44:37Z</time>
      </trkpt>
      <trkpt lat="28.5069900" lon="-16.1888780">
        <ele>29.0</ele>
        <time>2020-11-10T23:44:38Z</time>
      </trkpt>
      <trkpt lat="28.5069630" lon="-16.1888320">
        <ele>29.0</ele>
        <time>2020-11-10T23:44:39Z</time>
      </trkpt>
      <trkpt lat="28.5069630" lon="-16.1888320">
        <ele>29.0</ele>
        <time>2020-11-10T23:44:40Z</time>
      </trkpt>
      <trkpt lat="28.5069280" lon="-16.1887870">
        <ele>29.0</ele>
        <time>2020-11-10T23:44:41Z</time>
      </trkpt>
      <trkpt lat="28.5069150" lon="-16.1887650">
        <ele>29.0</ele>
        <time>2020-11-10T23:44:42Z</time>
      </trkpt>
      <trkpt lat="28.5069150" lon="-16.1887650">
        <ele>29.0</ele>
        <time>2020-11-10T23:44:43Z</time>
      </trkpt>
      <trkpt lat="28.5068820" lon="-16.1887430">
        <ele>29.0</ele>
        <time>2020-11-10T23:44:44Z</time>
      </trkpt>
      <trkpt lat="28.5068820" lon="-16.1887430">
        <ele>29.0</ele>
        <time>2020-11-10T23:44:45Z</time>
      </trkpt>
      <trkpt lat="28.5068600" lon="-16.1887530">
        <ele>29.0</ele>
        <time>2020-11-10T23:44:46Z</time>
      </trkpt>
      <trkpt lat="28.5068600" lon="-16.1887530">
        <ele>29.0</ele>
        <time>2020-11-10T23:44:47Z</time>
      </trkpt>
      <trkpt lat="28.5068530" lon="-16.1887670">
        <ele>29.0</ele>
        <time>2020-11-10T23:44:48Z</time>
      </trkpt>
      <trkpt lat="28.5068530" lon="-16.1887670">
        <ele>29.0</ele>
        <time>2020-11-10T23:44:49Z</time>
      </trkpt>
      <trkpt lat="28.5068530" lon="-16.1887670">
        <ele>29.0</ele>
        <time>2020-11-10T23:46:24Z</time>
      </trkpt>
      <trkpt lat="28.5068530" lon="-16.1887670">
        <ele>29.0</ele>
        <time>2020-11-10T23:46:25Z</time>
      </trkpt>
      <trkpt lat="28.5069020" lon="-16.1887400">
        <ele>29.0</ele>
        <time>2020-11-10T23:46:26Z</time>
      </trkpt>
      <trkpt lat="28.5069020" lon="-16.1887400">
        <ele>29.0</ele>
        <time>2020-11-10T23:46:27Z</time>
      </trkpt>
      <trkpt lat="28.5069070" lon="-16.1887400">
        <ele>29.0</ele>
        <time>2020-11-10T23:46:28Z</time>
      </trkpt>
      <trkpt lat="28.5069070" lon="-16.1887400">
        <ele>29.0</ele>
        <time>2020-11-10T23:46:29Z</time>
      </trkpt>
      <trkpt lat="28.5069100" lon="-16.1887480">
        <ele>29.0</ele>
        <time>2020-11-10T23:46:30Z</time>
      </trkpt>
      <trkpt lat="28.5069100" lon="-16.1887480">
        <ele>29.0</ele>
        <time>2020-11-10T23:46:31Z</time>
      </trkpt>
      <trkpt lat="28.5069170" lon="-16.1887670">
        <ele>29.0</ele>
        <time>2020-11-10T23:46:32Z</time>
      </trkpt>
      <trkpt lat="28.5069170" lon="-16.1887670">
        <ele>29.0</ele>
        <time>2020-11-10T23:46:33Z</time>
      </trkpt>
      <trkpt lat="28.5069320" lon="-16.1887850">
        <ele>29.0</ele>
        <time>2020-11-10T23:46:34Z</time>
      </trkpt>
      <trkpt lat="28.5069380" lon="-16.1887980">
        <ele>29.0</ele>
        <time>2020-11-10T23:46:35Z</time>
      </trkpt>
      <trkpt lat="28.5069380" lon="-16.1887980">
        <ele>29.0</ele>
        <time>2020-11-10T23:46:36Z</time>
      </trkpt>
      <trkpt lat="28.5069620" lon="-16.1888350">
        <ele>29.0</ele>
        <time>2020-11-10T23:46:37Z</time>
      </trkpt>
      <trkpt lat="28.5069730" lon="-16.1888530">
        <ele>29.0</ele>
        <time>2020-11-10T23:46:38Z</time>
      </trkpt>
      <trkpt lat="28.5069730" lon="-16.1888530">
        <ele>29.0</ele>
        <time>2020-11-10T23:46:39Z</time>
      </trkpt>
      <trkpt lat="28.5070020" lon="-16.1888950">
        <ele>29.0</ele>
        <time>2020-11-10T23:46:40Z</time>
      </trkpt>
      <trkpt lat="28.5070020" lon="-16.1888950">
        <ele>29.0</ele>
        <time>2020-11-10T23:46:41Z</time>
      </trkpt>
      <trkpt lat="28.5070350" lon="-16.1889270">
        <ele>29.0</ele>
        <time>2020-11-10T23:46:42Z</time>
      </trkpt>
      <trkpt lat="28.5070350" lon="-16.1889270">
        <ele>29.0</ele>
        <time>2020-11-10T23:46:43Z</time>
      </trkpt>
      <trkpt lat="28.5070820" lon="-16.1889320">
        <ele>29.0</ele>
        <time>2020-11-10T23:46:44Z</time>
      </trkpt>
      <trkpt lat="28.5070820" lon="-16.1889320">
        <ele>29.0</ele>
        <time>2020-11-10T23:46:45Z</time>
      </trkpt>
      <trkpt lat="28.5071230" lon="-16.1889050">
        <ele>29.0</ele>
        <time>2020-11-10T23:46:46Z</time>
      </trkpt>
      <trkpt lat="28.5071230" lon="-16.1889050">
        <ele>29.0</ele>
        <time>2020-11-10T23:46:47Z</time>
      </trkpt>
      <trkpt lat="28.5071670" lon="-16.1888700">
        <ele>29.0</ele>
        <time>2020-11-10T23:46:48Z</time>
      </trkpt>
      <trkpt lat="28.5071670" lon="-16.1888700">
        <ele>29.0</ele>
        <time>2020-11-10T23:46:49Z</time>
      </trkpt>
      <trkpt lat="28.5072050" lon="-16.1888320">
        <ele>29.0</ele>
        <time>2020-11-10T23:46:50Z</time>
      </trkpt>
      <trkpt lat="28.5072050" lon="-16.1888320">
        <ele>29.0</ele>
        <time>2020-11-10T23:46:51Z</time>
      </trkpt>
      <trkpt lat="28.5072420" lon="-16.1887920">
        <ele>29.0</ele>
        <time>2020-11-10T23:46:52Z</time>
      </trkpt>
      <trkpt lat="28.5072420" lon="-16.1887920">
        <ele>29.0</ele>
        <time>2020-11-10T23:46:53Z</time>
      </trkpt>
      <trkpt lat="28.5072730" lon="-16.1887470">
        <ele>29.0</ele>
        <time>2020-11-10T23:46:54Z</time>
      </trkpt>
      <trkpt lat="28.5072920" lon="-16.1887320">
        <ele>29.0</ele>
        <time>2020-11-10T23:46:55Z</time>
      </trkpt>
      <trkpt lat="28.5073100" lon="-16.1887220">
        <ele>29.0</ele>
        <time>2020-11-10T23:46:56Z</time>
      </trkpt>
      <trkpt lat="28.5073100" lon="-16.1887220">
        <ele>29.0</ele>
        <time>2020-11-10T23:46:57Z</time>
      </trkpt>
      <trkpt lat="28.5073420" lon="-16.1886950">
        <ele>29.0</ele>
        <time>2020-11-10T23:46:58Z</time>
      </trkpt>
      <trkpt lat="28.5073420" lon="-16.1886950">
        <ele>29.0</ele>
        <time>2020-11-10T23:46:59Z</time>
      </trkpt>
      <trkpt lat="28.5073600" lon="-16.1886820">
        <ele>29.0</ele>
        <time>2020-11-10T23:47:00Z</time>
      </trkpt>
      <trkpt lat="28.5073600" lon="-16.1886820">
        <ele>29.0</ele>
        <time>2020-11-10T23:47:01Z</time>
      </trkpt>
      <trkpt lat="28.5073730" lon="-16.1886770">
        <ele>29.0</ele>
        <time>2020-11-10T23:47:02Z</time>
      </trkpt>
      <trkpt lat="28.5073730" lon="-16.1886770">
        <ele>29.0</ele>
        <time>2020-11-10T23:47:03Z</time>
      </trkpt>
      <trkpt lat="28.5073800" lon="-16.1886730">
        <ele>29.0</ele>
        <time>2020-11-10T23:47:04Z</time>
      </trkpt>
      <trkpt lat="28.5073800" lon="-16.1886730">
        <ele>29.0</ele>
        <time>2020-11-10T23:47:06Z</time>
      </trkpt>
      <trkpt lat="28.5074250" lon="-16.1886300">
        <ele>29.0</ele>
        <time>2020-11-10T23:47:07Z</time>
      </trkpt>
      <trkpt lat="28.5074250" lon="-16.1886300">
        <ele>29.0</ele>
        <time>2020-11-10T23:47:08Z</time>
      </trkpt>
      <trkpt lat="28.5074350" lon="-16.1886270">
        <ele>29.0</ele>
        <time>2020-11-10T23:47:09Z</time>
      </trkpt>
      <trkpt lat="28.5074350" lon="-16.1886270">
        <ele>29.0</ele>
        <time>2020-11-10T23:47:10Z</time>
      </trkpt>
      <trkpt lat="28.5074550" lon="-16.1886250">
        <ele>29.0</ele>
        <time>2020-11-10T23:47:11Z</time>
      </trkpt>
      <trkpt lat="28.5074670" lon="-16.1886180">
        <ele>29.0</ele>
        <time>2020-11-10T23:47:12Z</time>
      </trkpt>
      <trkpt lat="28.5074670" lon="-16.1886180">
        <ele>29.0</ele>
        <time>2020-11-10T23:47:13Z</time>
      </trkpt>
      <trkpt lat="28.5075050" lon="-16.1885880">
        <ele>29.0</ele>
        <time>2020-11-10T23:47:14Z</time>
      </trkpt>
      <trkpt lat="28.5075280" lon="-16.1885720">
        <ele>29.0</ele>
        <time>2020-11-10T23:47:15Z</time>
      </trkpt>
      <trkpt lat="28.5075280" lon="-16.1885720">
        <ele>29.0</ele>
        <time>2020-11-10T23:47:16Z</time>
      </trkpt>
      <trkpt lat="28.5075750" lon="-16.1885420">
        <ele>29.0</ele>
        <time>2020-11-10T23:47:17Z</time>
      </trkpt>
      <trkpt lat="28.5075750" lon="-16.1885420">
        <ele>29.0</ele>
        <time>2020-11-10T23:47:18Z</time>
      </trkpt>
      <trkpt lat="28.5076050" lon="-16.1885180">
        <ele>29.0</ele>
        <time>2020-11-10T23:47:19Z</time>
      </trkpt>
      <trkpt lat="28.5076200" lon="-16.1885070">
        <ele>29.0</ele>
        <time>2020-11-10T23:47:20Z</time>
      </trkpt>
      <trkpt lat="28.5076200" lon="-16.1885070">
        <ele>29.0</ele>
        <time>2020-11-10T23:47:21Z</time>
      </trkpt>
      <trkpt lat="28.5076550" lon="-16.1884820">
        <ele>29.0</ele>
        <time>2020-11-10T23:47:22Z</time>
      </trkpt>
      <trkpt lat="28.5076550" lon="-16.1884820">
        <ele>29.0</ele>
        <time>2020-11-10T23:47:23Z</time>
      </trkpt>
      <trkpt lat="28.5076650" lon="-16.1884620">
        <ele>29.0</ele>
        <time>2020-11-10T23:47:24Z</time>
      </trkpt>
      <trkpt lat="28.5076670" lon="-16.1884550">
        <ele>29.0</ele>
        <time>2020-11-10T23:47:25Z</time>
      </trkpt>
      <trkpt lat="28.5076670" lon="-16.1884550">
        <ele>29.0</ele>
        <time>2020-11-10T23:47:26Z</time>
      </trkpt>
      <trkpt lat="28.5076900" lon="-16.1884400">
        <ele>29.0</ele>
        <time>2020-11-10T23:47:27Z</time>
      </trkpt>
      <trkpt lat="28.5076900" lon="-16.1884400">
        <ele>29.0</ele>
        <time>2020-11-10T23:47:28Z</time>
      </trkpt>
      <trkpt lat="28.5077130" lon="-16.1884270">
        <ele>29.0</ele>
        <time>2020-11-10T23:47:29Z</time>
      </trkpt>
      <trkpt lat="28.5077130" lon="-16.1884270">
        <ele>29.0</ele>
        <time>2020-11-10T23:47:30Z</time>
      </trkpt>
      <trkpt lat="28.5077380" lon="-16.1884070">
        <ele>29.0</ele>
        <time>2020-11-10T23:47:31Z</time>
      </trkpt>
      <trkpt lat="28.5077380" lon="-16.1884070">
        <ele>29.0</ele>
        <time>2020-11-10T23:47:32Z</time>
      </trkpt>
      <trkpt lat="28.5077350" lon="-16.1883680">
        <ele>29.0</ele>
        <time>2020-11-10T23:47:33Z</time>
      </trkpt>
      <trkpt lat="28.5077350" lon="-16.1883680">
        <ele>29.0</ele>
        <time>2020-11-10T23:47:34Z</time>
      </trkpt>
      <trkpt lat="28.5077080" lon="-16.1883280">
        <ele>29.0</ele>
        <time>2020-11-10T23:47:35Z</time>
      </trkpt>
      <trkpt lat="28.5077080" lon="-16.1883280">
        <ele>29.0</ele>
        <time>2020-11-10T23:47:36Z</time>
      </trkpt>
      <trkpt lat="28.5076720" lon="-16.1882700">
        <ele>29.0</ele>
        <time>2020-11-10T23:47:37Z</time>
      </trkpt>
      <trkpt lat="28.5076530" lon="-16.1882380">
        <ele>29.0</ele>
        <time>2020-11-10T23:47:38Z</time>
      </trkpt>
      <trkpt lat="28.5076320" lon="-16.1882050">
        <ele>29.0</ele>
        <time>2020-11-10T23:47:39Z</time>
      </trkpt>
      <trkpt lat="28.5076320" lon="-16.1882050">
        <ele>29.0</ele>
        <time>2020-11-10T23:47:40Z</time>
      </trkpt>
      <trkpt lat="28.5075880" lon="-16.1881350">
        <ele>29.0</ele>
        <time>2020-11-10T23:47:41Z</time>
      </trkpt>
      <trkpt lat="28.5075700" lon="-16.1881050">
        <ele>29.0</ele>
        <time>2020-11-10T23:47:42Z</time>
      </trkpt>
      <trkpt lat="28.5075530" lon="-16.1880800">
        <ele>29.0</ele>
        <time>2020-11-10T23:47:43Z</time>
      </trkpt>
      <trkpt lat="28.5075530" lon="-16.1880800">
        <ele>29.0</ele>
        <time>2020-11-10T23:47:44Z</time>
      </trkpt>
      <trkpt lat="28.5075320" lon="-16.1880450">
        <ele>29.0</ele>
        <time>2020-11-10T23:47:45Z</time>
      </trkpt>
      <trkpt lat="28.5075320" lon="-16.1880450">
        <ele>29.0</ele>
        <time>2020-11-10T23:47:46Z</time>
      </trkpt>
      <trkpt lat="28.5075270" lon="-16.1880420">
        <ele>29.0</ele>
        <time>2020-11-10T23:47:47Z</time>
      </trkpt>
      <trkpt lat="28.5075270" lon="-16.1880420">
        <ele>29.0</ele>
        <time>2020-11-10T23:47:48Z</time>
      </trkpt>
      <trkpt lat="28.5081230" lon="-16.1884450">
        <ele>13.9</ele>
        <time>2020-11-11T06:24:25Z</time>
      </trkpt>
      <trkpt lat="28.5081230" lon="-16.1884450">
        <ele>13.9</ele>
        <time>2020-11-11T06:24:26Z</time>
      </trkpt>
      <trkpt lat="28.5080830" lon="-16.1884900">
        <ele>13.9</ele>
        <time>2020-11-11T06:24:27Z</time>
      </trkpt>
      <trkpt lat="28.5080600" lon="-16.1885130">
        <ele>13.9</ele>
        <time>2020-11-11T06:24:28Z</time>
      </trkpt>
      <trkpt lat="28.5080600" lon="-16.1885130">
        <ele>13.9</ele>
        <time>2020-11-11T06:24:29Z</time>
      </trkpt>
      <trkpt lat="28.5080080" lon="-16.1885570">
        <ele>13.9</ele>
        <time>2020-11-11T06:24:30Z</time>
      </trkpt>
      <trkpt lat="28.5079830" lon="-16.1885780">
        <ele>13.9</ele>
        <time>2020-11-11T06:24:31Z</time>
      </trkpt>
      <trkpt lat="28.5079830" lon="-16.1885780">
        <ele>13.9</ele>
        <time>2020-11-11T06:24:32Z</time>
      </trkpt>
      <trkpt lat="28.5079350" lon="-16.1886220">
        <ele>13.9</ele>
        <time>2020-11-11T06:24:33Z</time>
      </trkpt>
      <trkpt lat="28.5079350" lon="-16.1886220">
        <ele>13.9</ele>
        <time>2020-11-11T06:24:34Z</time>
      </trkpt>
      <trkpt lat="28.5078870" lon="-16.1886580">
        <ele>13.9</ele>
        <time>2020-11-11T06:24:35Z</time>
      </trkpt>
      <trkpt lat="28.5078870" lon="-16.1886580">
        <ele>13.9</ele>
        <time>2020-11-11T06:24:36Z</time>
      </trkpt>
      <trkpt lat="28.5078350" lon="-16.1887020">
        <ele>13.9</ele>
        <time>2020-11-11T06:24:37Z</time>
      </trkpt>
      <trkpt lat="28.5078350" lon="-16.1887020">
        <ele>13.9</ele>
        <time>2020-11-11T06:24:38Z</time>
      </trkpt>
      <trkpt lat="28.5077830" lon="-16.1887450">
        <ele>13.9</ele>
        <time>2020-11-11T06:24:39Z</time>
      </trkpt>
      <trkpt lat="28.5077830" lon="-16.1887450">
        <ele>13.9</ele>
        <time>2020-11-11T06:24:40Z</time>
      </trkpt>
      <trkpt lat="28.5077280" lon="-16.1887900">
        <ele>13.9</ele>
        <time>2020-11-11T06:24:41Z</time>
      </trkpt>
      <trkpt lat="28.5077020" lon="-16.1888120">
        <ele>13.9</ele>
        <time>2020-11-11T06:24:42Z</time>
      </trkpt>
      <trkpt lat="28.5077020" lon="-16.1888120">
        <ele>13.9</ele>
        <time>2020-11-11T06:24:43Z</time>
      </trkpt>
      <trkpt lat="28.5076450" lon="-16.1888580">
        <ele>13.9</ele>
        <time>2020-11-11T06:24:44Z</time>
      </trkpt>
      <trkpt lat="28.5076450" lon="-16.1888580">
        <ele>13.9</ele>
        <time>2020-11-11T06:24:45Z</time>
      </trkpt>
      <trkpt lat="28.5075880" lon="-16.1889020">
        <ele>13.9</ele>
        <time>2020-11-11T06:24:46Z</time>
      </trkpt>
      <trkpt lat="28.5075880" lon="-16.1889020">
        <ele>13.9</ele>
        <time>2020-11-11T06:24:47Z</time>
      </trkpt>
      <trkpt lat="28.5075270" lon="-16.1889320">
        <ele>13.9</ele>
        <time>2020-11-11T06:24:48Z</time>
      </trkpt>
      <trkpt lat="28.5074930" lon="-16.1889430">
        <ele>13.9</ele>
        <time>2020-11-11T06:24:49Z</time>
      </trkpt>
      <trkpt lat="28.5074930" lon="-16.1889430">
        <ele>13.9</ele>
        <time>2020-11-11T06:24:50Z</time>
      </trkpt>
      <trkpt lat="28.5074330" lon="-16.1889700">
        <ele>13.9</ele>
        <time>2020-11-11T06:24:51Z</time>
      </trkpt>
      <trkpt lat="28.5074330" lon="-16.1889700">
        <ele>13.9</ele>
        <time>2020-11-11T06:24:52Z</time>
      </trkpt>
      <trkpt lat="28.5073850" lon="-16.1890230">
        <ele>13.9</ele>
        <time>2020-11-11T06:24:53Z</time>
      </trkpt>
      <trkpt lat="28.5073850" lon="-16.1890230">
        <ele>13.9</ele>
        <time>2020-11-11T06:24:54Z</time>
      </trkpt>
      <trkpt lat="28.5073470" lon="-16.1890900">
        <ele>13.9</ele>
        <time>2020-11-11T06:24:55Z</time>
      </trkpt>
      <trkpt lat="28.5073470" lon="-16.1890900">
        <ele>13.9</ele>
        <time>2020-11-11T06:24:56Z</time>
      </trkpt>
      <trkpt lat="28.5073030" lon="-16.1891550">
        <ele>13.9</ele>
        <time>2020-11-11T06:24:57Z</time>
      </trkpt>
      <trkpt lat="28.5073030" lon="-16.1891550">
        <ele>13.9</ele>
        <time>2020-11-11T06:24:58Z</time>
      </trkpt>
      <trkpt lat="28.5072600" lon="-16.1892170">
        <ele>13.9</ele>
        <time>2020-11-11T06:24:59Z</time>
      </trkpt>
      <trkpt lat="28.5072400" lon="-16.1892470">
        <ele>13.9</ele>
        <time>2020-11-11T06:25:00Z</time>
      </trkpt>
      <trkpt lat="28.5072400" lon="-16.1892470">
        <ele>13.9</ele>
        <time>2020-11-11T06:25:01Z</time>
      </trkpt>
      <trkpt lat="28.5072020" lon="-16.1893030">
        <ele>13.9</ele>
        <time>2020-11-11T06:25:02Z</time>
      </trkpt>
      <trkpt lat="28.5071850" lon="-16.1893270">
        <ele>13.9</ele>
        <time>2020-11-11T06:25:03Z</time>
      </trkpt>
      <trkpt lat="28.5071850" lon="-16.1893270">
        <ele>13.9</ele>
        <time>2020-11-11T06:25:04Z</time>
      </trkpt>
      <trkpt lat="28.5071680" lon="-16.1893680">
        <ele>14.9</ele>
        <time>2020-11-11T06:25:05Z</time>
      </trkpt>
      <trkpt lat="28.5071680" lon="-16.1893680">
        <ele>14.9</ele>
        <time>2020-11-11T06:25:06Z</time>
      </trkpt>
      <trkpt lat="28.5071670" lon="-16.1894030">
        <ele>14.9</ele>
        <time>2020-11-11T06:25:07Z</time>
      </trkpt>
      <trkpt lat="28.5071670" lon="-16.1894030">
        <ele>14.9</ele>
        <time>2020-11-11T06:25:08Z</time>
      </trkpt>
      <trkpt lat="28.5071450" lon="-16.1894320">
        <ele>15.9</ele>
        <time>2020-11-11T06:25:09Z</time>
      </trkpt>
      <trkpt lat="28.5071320" lon="-16.1894450">
        <ele>15.9</ele>
        <time>2020-11-11T06:25:10Z</time>
      </trkpt>
      <trkpt lat="28.5071320" lon="-16.1894450">
        <ele>15.9</ele>
        <time>2020-11-11T06:25:11Z</time>
      </trkpt>
      <trkpt lat="28.5071070" lon="-16.1894780">
        <ele>15.9</ele>
        <time>2020-11-11T06:25:12Z</time>
      </trkpt>
      <trkpt lat="28.5070920" lon="-16.1894950">
        <ele>16.9</ele>
        <time>2020-11-11T06:25:13Z</time>
      </trkpt>
      <trkpt lat="28.5070920" lon="-16.1894950">
        <ele>16.9</ele>
        <time>2020-11-11T06:25:14Z</time>
      </trkpt>
      <trkpt lat="28.5070530" lon="-16.1895370">
        <ele>16.9</ele>
        <time>2020-11-11T06:25:15Z</time>
      </trkpt>
      <trkpt lat="28.5070270" lon="-16.1895630">
        <ele>16.9</ele>
        <time>2020-11-11T06:25:16Z</time>
      </trkpt>
      <trkpt lat="28.5070270" lon="-16.1895630">
        <ele>16.9</ele>
        <time>2020-11-11T06:25:17Z</time>
      </trkpt>
      <trkpt lat="28.5069570" lon="-16.1896220">
        <ele>16.9</ele>
        <time>2020-11-11T06:25:18Z</time>
      </trkpt>
      <trkpt lat="28.5069150" lon="-16.1896520">
        <ele>16.9</ele>
        <time>2020-11-11T06:25:19Z</time>
      </trkpt>
      <trkpt lat="28.5069150" lon="-16.1896520">
        <ele>16.9</ele>
        <time>2020-11-11T06:25:20Z</time>
      </trkpt>
      <trkpt lat="28.5068200" lon="-16.1897130">
        <ele>16.9</ele>
        <time>2020-11-11T06:25:21Z</time>
      </trkpt>
      <trkpt lat="28.5068200" lon="-16.1897130">
        <ele>15.9</ele>
        <time>2020-11-11T06:25:22Z</time>
      </trkpt>
      <trkpt lat="28.5067270" lon="-16.1897770">
        <ele>15.9</ele>
        <time>2020-11-11T06:25:23Z</time>
      </trkpt>
      <trkpt lat="28.5067270" lon="-16.1897770">
        <ele>15.9</ele>
        <time>2020-11-11T06:25:24Z</time>
      </trkpt>
      <trkpt lat="28.5066420" lon="-16.1898420">
        <ele>15.9</ele>
        <time>2020-11-11T06:25:25Z</time>
      </trkpt>
      <trkpt lat="28.5066420" lon="-16.1898420">
        <ele>15.9</ele>
        <time>2020-11-11T06:25:26Z</time>
      </trkpt>
      <trkpt lat="28.5065670" lon="-16.1899100">
        <ele>15.9</ele>
        <time>2020-11-11T06:25:27Z</time>
      </trkpt>
      <trkpt lat="28.5065670" lon="-16.1899100">
        <ele>15.9</ele>
        <time>2020-11-11T06:25:28Z</time>
      </trkpt>
      <trkpt lat="28.5064970" lon="-16.1899750">
        <ele>15.9</ele>
        <time>2020-11-11T06:25:29Z</time>
      </trkpt>
      <trkpt lat="28.5064630" lon="-16.1900080">
        <ele>15.9</ele>
        <time>2020-11-11T06:25:30Z</time>
      </trkpt>
      <trkpt lat="28.5064630" lon="-16.1900080">
        <ele>15.9</ele>
        <time>2020-11-11T06:25:31Z</time>
      </trkpt>
      <trkpt lat="28.5063950" lon="-16.1900720">
        <ele>15.9</ele>
        <time>2020-11-11T06:25:32Z</time>
      </trkpt>
      <trkpt lat="28.5063950" lon="-16.1900720">
        <ele>15.9</ele>
        <time>2020-11-11T06:25:33Z</time>
      </trkpt>
      <trkpt lat="28.5063280" lon="-16.1901320">
        <ele>15.9</ele>
        <time>2020-11-11T06:25:34Z</time>
      </trkpt>
      <trkpt lat="28.5062950" lon="-16.1901600">
        <ele>15.9</ele>
        <time>2020-11-11T06:25:35Z</time>
      </trkpt>
      <trkpt lat="28.5062950" lon="-16.1901600">
        <ele>15.9</ele>
        <time>2020-11-11T06:25:36Z</time>
      </trkpt>
      <trkpt lat="28.5062350" lon="-16.1902180">
        <ele>15.9</ele>
        <time>2020-11-11T06:25:37Z</time>
      </trkpt>
      <trkpt lat="28.5062350" lon="-16.1902180">
        <ele>15.9</ele>
        <time>2020-11-11T06:25:38Z</time>
      </trkpt>
      <trkpt lat="28.5061820" lon="-16.1902820">
        <ele>15.9</ele>
        <time>2020-11-11T06:25:39Z</time>
      </trkpt>
      <trkpt lat="28.5061820" lon="-16.1902820">
        <ele>15.9</ele>
        <time>2020-11-11T06:25:40Z</time>
      </trkpt>
      <trkpt lat="28.5061400" lon="-16.1903620">
        <ele>15.9</ele>
        <time>2020-11-11T06:25:41Z</time>
      </trkpt>
      <trkpt lat="28.5061400" lon="-16.1903620">
        <ele>15.9</ele>
        <time>2020-11-11T06:25:42Z</time>
      </trkpt>
      <trkpt lat="28.5061230" lon="-16.1904480">
        <ele>15.9</ele>
        <time>2020-11-11T06:25:43Z</time>
      </trkpt>
      <trkpt lat="28.5061230" lon="-16.1904480">
        <ele>15.9</ele>
        <time>2020-11-11T06:25:44Z</time>
      </trkpt>
      <trkpt lat="28.5061180" lon="-16.1905250">
        <ele>15.9</ele>
        <time>2020-11-11T06:25:45Z</time>
      </trkpt>
      <trkpt lat="28.5061180" lon="-16.1905250">
        <ele>15.9</ele>
        <time>2020-11-11T06:25:46Z</time>
      </trkpt>
      <trkpt lat="28.5061170" lon="-16.1905980">
        <ele>15.9</ele>
        <time>2020-11-11T06:25:47Z</time>
      </trkpt>
      <trkpt lat="28.5061170" lon="-16.1905980">
        <ele>15.9</ele>
        <time>2020-11-11T06:25:48Z</time>
      </trkpt>
      <trkpt lat="28.5061000" lon="-16.1906650">
        <ele>15.9</ele>
        <time>2020-11-11T06:25:49Z</time>
      </trkpt>
      <trkpt lat="28.5061000" lon="-16.1906650">
        <ele>15.9</ele>
        <time>2020-11-11T06:25:50Z</time>
      </trkpt>
      <trkpt lat="28.5060530" lon="-16.1907170">
        <ele>15.9</ele>
        <time>2020-11-11T06:25:51Z</time>
      </trkpt>
      <trkpt lat="28.5060230" lon="-16.1907350">
        <ele>15.9</ele>
        <time>2020-11-11T06:25:52Z</time>
      </trkpt>
      <trkpt lat="28.5059920" lon="-16.1907520">
        <ele>15.9</ele>
        <time>2020-11-11T06:25:53Z</time>
      </trkpt>
      <trkpt lat="28.5059920" lon="-16.1907520">
        <ele>15.9</ele>
        <time>2020-11-11T06:25:54Z</time>
      </trkpt>
      <trkpt lat="28.5059330" lon="-16.1907830">
        <ele>15.9</ele>
        <time>2020-11-11T06:25:55Z</time>
      </trkpt>
      <trkpt lat="28.5059330" lon="-16.1907830">
        <ele>15.9</ele>
        <time>2020-11-11T06:25:56Z</time>
      </trkpt>
      <trkpt lat="28.5058850" lon="-16.1908350">
        <ele>15.9</ele>
        <time>2020-11-11T06:25:57Z</time>
      </trkpt>
      <trkpt lat="28.5058850" lon="-16.1908350">
        <ele>15.9</ele>
        <time>2020-11-11T06:25:58Z</time>
      </trkpt>
      <trkpt lat="28.5058470" lon="-16.1908980">
        <ele>15.9</ele>
        <time>2020-11-11T06:25:59Z</time>
      </trkpt>
      <trkpt lat="28.5058470" lon="-16.1908980">
        <ele>15.9</ele>
        <time>2020-11-11T06:26:00Z</time>
      </trkpt>
      <trkpt lat="28.5058070" lon="-16.1909580">
        <ele>15.9</ele>
        <time>2020-11-11T06:26:01Z</time>
      </trkpt>
      <trkpt lat="28.5058070" lon="-16.1909580">
        <ele>14.9</ele>
        <time>2020-11-11T06:26:02Z</time>
      </trkpt>
      <trkpt lat="28.5057650" lon="-16.1910200">
        <ele>14.9</ele>
        <time>2020-11-11T06:26:03Z</time>
      </trkpt>
      <trkpt lat="28.5057420" lon="-16.1910520">
        <ele>14.9</ele>
        <time>2020-11-11T06:26:04Z</time>
      </trkpt>
      <trkpt lat="28.5057420" lon="-16.1910520">
        <ele>14.9</ele>
        <time>2020-11-11T06:26:05Z</time>
      </trkpt>
      <trkpt lat="28.5056970" lon="-16.1911220">
        <ele>14.9</ele>
        <time>2020-11-11T06:26:06Z</time>
      </trkpt>
      <trkpt lat="28.5056750" lon="-16.1911580">
        <ele>14.9</ele>
        <time>2020-11-11T06:26:07Z</time>
      </trkpt>
      <trkpt lat="28.5056750" lon="-16.1911580">
        <ele>14.9</ele>
        <time>2020-11-11T06:26:08Z</time>
      </trkpt>
      <trkpt lat="28.5056530" lon="-16.1912520">
        <ele>14.9</ele>
        <time>2020-11-11T06:26:09Z</time>
      </trkpt>
      <trkpt lat="28.5056530" lon="-16.1912520">
        <ele>14.9</ele>
        <time>2020-11-11T06:26:10Z</time>
      </trkpt>
      <trkpt lat="28.5056870" lon="-16.1913670">
        <ele>14.9</ele>
        <time>2020-11-11T06:26:11Z</time>
      </trkpt>
      <trkpt lat="28.5057170" lon="-16.1914220">
        <ele>14.9</ele>
        <time>2020-11-11T06:26:12Z</time>
      </trkpt>
      <trkpt lat="28.5057480" lon="-16.1914770">
        <ele>13.9</ele>
        <time>2020-11-11T06:26:13Z</time>
      </trkpt>
      <trkpt lat="28.5057480" lon="-16.1914770">
        <ele>13.9</ele>
        <time>2020-11-11T06:26:14Z</time>
      </trkpt>
      <trkpt lat="28.5058070" lon="-16.1915720">
        <ele>13.9</ele>
        <time>2020-11-11T06:26:15Z</time>
      </trkpt>
      <trkpt lat="28.5058070" lon="-16.1915720">
        <ele>13.9</ele>
        <time>2020-11-11T06:26:16Z</time>
      </trkpt>
      <trkpt lat="28.5058450" lon="-16.1916570">
        <ele>13.9</ele>
        <time>2020-11-11T06:26:17Z</time>
      </trkpt>
      <trkpt lat="28.5058450" lon="-16.1916570">
        <ele>13.9</ele>
        <time>2020-11-11T06:26:18Z</time>
      </trkpt>
      <trkpt lat="28.5058800" lon="-16.1917350">
        <ele>13.9</ele>
        <time>2020-11-11T06:26:19Z</time>
      </trkpt>
      <trkpt lat="28.5058800" lon="-16.1917350">
        <ele>13.9</ele>
        <time>2020-11-11T06:26:20Z</time>
      </trkpt>
      <trkpt lat="28.5059170" lon="-16.1918200">
        <ele>13.9</ele>
        <time>2020-11-11T06:26:21Z</time>
      </trkpt>
      <trkpt lat="28.5059170" lon="-16.1918200">
        <ele>13.9</ele>
        <time>2020-11-11T06:26:22Z</time>
      </trkpt>
      <trkpt lat="28.5059550" lon="-16.1919020">
        <ele>13.9</ele>
        <time>2020-11-11T06:26:23Z</time>
      </trkpt>
      <trkpt lat="28.5059550" lon="-16.1919020">
        <ele>13.9</ele>
        <time>2020-11-11T06:26:24Z</time>
      </trkpt>
      <trkpt lat="28.5059980" lon="-16.1919830">
        <ele>13.9</ele>
        <time>2020-11-11T06:26:25Z</time>
      </trkpt>
      <trkpt lat="28.5059980" lon="-16.1919830">
        <ele>13.9</ele>
        <time>2020-11-11T06:26:26Z</time>
      </trkpt>
      <trkpt lat="28.5060370" lon="-16.1920630">
        <ele>13.9</ele>
        <time>2020-11-11T06:26:27Z</time>
      </trkpt>
      <trkpt lat="28.5060370" lon="-16.1920630">
        <ele>13.9</ele>
        <time>2020-11-11T06:26:28Z</time>
      </trkpt>
      <trkpt lat="28.5060750" lon="-16.1921350">
        <ele>13.9</ele>
        <time>2020-11-11T06:26:29Z</time>
      </trkpt>
      <trkpt lat="28.5060750" lon="-16.1921350">
        <ele>13.9</ele>
        <time>2020-11-11T06:26:30Z</time>
      </trkpt>
      <trkpt lat="28.5061120" lon="-16.1922120">
        <ele>13.9</ele>
        <time>2020-11-11T06:26:31Z</time>
      </trkpt>
      <trkpt lat="28.5061120" lon="-16.1922120">
        <ele>13.9</ele>
        <time>2020-11-11T06:26:32Z</time>
      </trkpt>
      <trkpt lat="28.5061500" lon="-16.1922880">
        <ele>13.9</ele>
        <time>2020-11-11T06:26:33Z</time>
      </trkpt>
      <trkpt lat="28.5061700" lon="-16.1923250">
        <ele>13.9</ele>
        <time>2020-11-11T06:26:34Z</time>
      </trkpt>
      <trkpt lat="28.5061700" lon="-16.1923250">
        <ele>13.9</ele>
        <time>2020-11-11T06:26:35Z</time>
      </trkpt>
      <trkpt lat="28.5062020" lon="-16.1923980">
        <ele>13.9</ele>
        <time>2020-11-11T06:26:36Z</time>
      </trkpt>
      <trkpt lat="28.5062020" lon="-16.1923980">
        <ele>14.9</ele>
        <time>2020-11-11T06:26:37Z</time>
      </trkpt>
      <trkpt lat="28.5062330" lon="-16.1924780">
        <ele>14.9</ele>
        <time>2020-11-11T06:26:38Z</time>
      </trkpt>
      <trkpt lat="28.5062330" lon="-16.1924780">
        <ele>14.9</ele>
        <time>2020-11-11T06:26:39Z</time>
      </trkpt>
      <trkpt lat="28.5062480" lon="-16.1925430">
        <ele>14.9</ele>
        <time>2020-11-11T06:26:40Z</time>
      </trkpt>
      <trkpt lat="28.5062480" lon="-16.1925430">
        <ele>14.9</ele>
        <time>2020-11-11T06:26:41Z</time>
      </trkpt>
      <trkpt lat="28.5062630" lon="-16.1926170">
        <ele>15.9</ele>
        <time>2020-11-11T06:26:42Z</time>
      </trkpt>
      <trkpt lat="28.5062630" lon="-16.1926170">
        <ele>15.9</ele>
        <time>2020-11-11T06:26:43Z</time>
      </trkpt>
      <trkpt lat="28.5062730" lon="-16.1926920">
        <ele>15.9</ele>
        <time>2020-11-11T06:26:44Z</time>
      </trkpt>
      <trkpt lat="28.5062800" lon="-16.1927320">
        <ele>15.9</ele>
        <time>2020-11-11T06:26:45Z</time>
      </trkpt>
      <trkpt lat="28.5062800" lon="-16.1927320">
        <ele>15.9</ele>
        <time>2020-11-11T06:26:46Z</time>
      </trkpt>
      <trkpt lat="28.5063000" lon="-16.1928100">
        <ele>15.9</ele>
        <time>2020-11-11T06:26:47Z</time>
      </trkpt>
      <trkpt lat="28.5063100" lon="-16.1928480">
        <ele>16.9</ele>
        <time>2020-11-11T06:26:48Z</time>
      </trkpt>
      <trkpt lat="28.5063100" lon="-16.1928480">
        <ele>16.9</ele>
        <time>2020-11-11T06:26:49Z</time>
      </trkpt>
      <trkpt lat="28.5063230" lon="-16.1929250">
        <ele>16.9</ele>
        <time>2020-11-11T06:26:50Z</time>
      </trkpt>
      <trkpt lat="28.5063300" lon="-16.1929620">
        <ele>16.9</ele>
        <time>2020-11-11T06:26:51Z</time>
      </trkpt>
      <trkpt lat="28.5063300" lon="-16.1929620">
        <ele>16.9</ele>
        <time>2020-11-11T06:26:52Z</time>
      </trkpt>
      <trkpt lat="28.5063470" lon="-16.1930330">
        <ele>16.9</ele>
        <time>2020-11-11T06:26:53Z</time>
      </trkpt>
      <trkpt lat="28.5063470" lon="-16.1930330">
        <ele>17.9</ele>
        <time>2020-11-11T06:26:54Z</time>
      </trkpt>
      <trkpt lat="28.5063620" lon="-16.1931070">
        <ele>17.9</ele>
        <time>2020-11-11T06:26:55Z</time>
      </trkpt>
      <trkpt lat="28.5063620" lon="-16.1931070">
        <ele>17.9</ele>
        <time>2020-11-11T06:26:56Z</time>
      </trkpt>
      <trkpt lat="28.5063820" lon="-16.1931780">
        <ele>17.9</ele>
        <time>2020-11-11T06:26:57Z</time>
      </trkpt>
      <trkpt lat="28.5063820" lon="-16.1931780">
        <ele>17.9</ele>
        <time>2020-11-11T06:26:58Z</time>
      </trkpt>
      <trkpt lat="28.5064070" lon="-16.1932550">
        <ele>17.9</ele>
        <time>2020-11-11T06:26:59Z</time>
      </trkpt>
      <trkpt lat="28.5064220" lon="-16.1932970">
        <ele>17.9</ele>
        <time>2020-11-11T06:27:00Z</time>
      </trkpt>
      <trkpt lat="28.5064220" lon="-16.1932970">
        <ele>18.9</ele>
        <time>2020-11-11T06:27:01Z</time>
      </trkpt>
      <trkpt lat="28.5064520" lon="-16.1933750">
        <ele>18.9</ele>
        <time>2020-11-11T06:27:02Z</time>
      </trkpt>
      <trkpt lat="28.5064520" lon="-16.1933750">
        <ele>18.9</ele>
        <time>2020-11-11T06:27:03Z</time>
      </trkpt>
      <trkpt lat="28.5064750" lon="-16.1934420">
        <ele>18.9</ele>
        <time>2020-11-11T06:27:04Z</time>
      </trkpt>
      <trkpt lat="28.5064750" lon="-16.1934420">
        <ele>18.9</ele>
        <time>2020-11-11T06:27:05Z</time>
      </trkpt>
      <trkpt lat="28.5065020" lon="-16.1935120">
        <ele>18.9</ele>
        <time>2020-11-11T06:27:06Z</time>
      </trkpt>
      <trkpt lat="28.5065150" lon="-16.1935430">
        <ele>18.9</ele>
        <time>2020-11-11T06:27:07Z</time>
      </trkpt>
      <trkpt lat="28.5065150" lon="-16.1935430">
        <ele>18.9</ele>
        <time>2020-11-11T06:27:08Z</time>
      </trkpt>
      <trkpt lat="28.5065400" lon="-16.1936020">
        <ele>18.9</ele>
        <time>2020-11-11T06:27:09Z</time>
      </trkpt>
      <trkpt lat="28.5065600" lon="-16.1936280">
        <ele>18.9</ele>
        <time>2020-11-11T06:27:10Z</time>
      </trkpt>
      <trkpt lat="28.5065600" lon="-16.1936280">
        <ele>18.9</ele>
        <time>2020-11-11T06:27:11Z</time>
      </trkpt>
      <trkpt lat="28.5066150" lon="-16.1936980">
        <ele>18.9</ele>
        <time>2020-11-11T06:27:12Z</time>
      </trkpt>
      <trkpt lat="28.5066330" lon="-16.1937230">
        <ele>18.9</ele>
        <time>2020-11-11T06:27:13Z</time>
      </trkpt>
      <trkpt lat="28.5066330" lon="-16.1937230">
        <ele>18.9</ele>
        <time>2020-11-11T06:27:14Z</time>
      </trkpt>
      <trkpt lat="28.5066750" lon="-16.1937870">
        <ele>19.9</ele>
        <time>2020-11-11T06:27:15Z</time>
      </trkpt>
      <trkpt lat="28.5066750" lon="-16.1937870">
        <ele>19.9</ele>
        <time>2020-11-11T06:27:16Z</time>
      </trkpt>
      <trkpt lat="28.5067120" lon="-16.1938380">
        <ele>19.9</ele>
        <time>2020-11-11T06:27:17Z</time>
      </trkpt>
      <trkpt lat="28.5067120" lon="-16.1938380">
        <ele>19.9</ele>
        <time>2020-11-11T06:27:18Z</time>
      </trkpt>
      <trkpt lat="28.5067280" lon="-16.1938600">
        <ele>19.9</ele>
        <time>2020-11-11T06:27:19Z</time>
      </trkpt>
      <trkpt lat="28.5067280" lon="-16.1938600">
        <ele>19.9</ele>
        <time>2020-11-11T06:27:20Z</time>
      </trkpt>
      <trkpt lat="28.5067280" lon="-16.1938580">
        <ele>19.9</ele>
        <time>2020-11-11T06:27:21Z</time>
      </trkpt>
      <trkpt lat="28.5067280" lon="-16.1938580">
        <ele>19.9</ele>
        <time>2020-11-11T06:28:22Z</time>
      </trkpt>
      <trkpt lat="28.5067130" lon="-16.1938750">
        <ele>19.9</ele>
        <time>2020-11-11T06:28:23Z</time>
      </trkpt>
      <trkpt lat="28.5067130" lon="-16.1938750">
        <ele>19.9</ele>
        <time>2020-11-11T06:28:24Z</time>
      </trkpt>
      <trkpt lat="28.5066950" lon="-16.1938680">
        <ele>19.9</ele>
        <time>2020-11-11T06:28:25Z</time>
      </trkpt>
      <trkpt lat="28.5066870" lon="-16.1938570">
        <ele>19.9</ele>
        <time>2020-11-11T06:28:26Z</time>
      </trkpt>
      <trkpt lat="28.5066870" lon="-16.1938570">
        <ele>19.9</ele>
        <time>2020-11-11T06:28:27Z</time>
      </trkpt>
      <trkpt lat="28.5066680" lon="-16.1938230">
        <ele>19.9</ele>
        <time>2020-11-11T06:28:28Z</time>
      </trkpt>
      <trkpt lat="28.5066680" lon="-16.1938230">
        <ele>19.9</ele>
        <time>2020-11-11T06:28:29Z</time>
      </trkpt>
      <trkpt lat="28.5066500" lon="-16.1937880">
        <ele>19.9</ele>
        <time>2020-11-11T06:28:30Z</time>
      </trkpt>
      <trkpt lat="28.5066420" lon="-16.1937720">
        <ele>19.9</ele>
        <time>2020-11-11T06:28:31Z</time>
      </trkpt>
      <trkpt lat="28.5066420" lon="-16.1937720">
        <ele>19.9</ele>
        <time>2020-11-11T06:28:32Z</time>
      </trkpt>
      <trkpt lat="28.5066220" lon="-16.1937420">
        <ele>19.9</ele>
        <time>2020-11-11T06:28:33Z</time>
      </trkpt>
      <trkpt lat="28.5066220" lon="-16.1937420">
        <ele>19.9</ele>
        <time>2020-11-11T06:28:34Z</time>
      </trkpt>
      <trkpt lat="28.5065930" lon="-16.1937100">
        <ele>19.9</ele>
        <time>2020-11-11T06:28:35Z</time>
      </trkpt>
      <trkpt lat="28.5065930" lon="-16.1937100">
        <ele>19.9</ele>
        <time>2020-11-11T06:28:36Z</time>
      </trkpt>
      <trkpt lat="28.5065620" lon="-16.1936620">
        <ele>19.9</ele>
        <time>2020-11-11T06:28:37Z</time>
      </trkpt>
      <trkpt lat="28.5065620" lon="-16.1936620">
        <ele>19.9</ele>
        <time>2020-11-11T06:28:38Z</time>
      </trkpt>
      <trkpt lat="28.5065280" lon="-16.1936050">
        <ele>19.9</ele>
        <time>2020-11-11T06:28:39Z</time>
      </trkpt>
      <trkpt lat="28.5065280" lon="-16.1936050">
        <ele>19.9</ele>
        <time>2020-11-11T06:28:40Z</time>
      </trkpt>
      <trkpt lat="28.5064900" lon="-16.1935330">
        <ele>19.9</ele>
        <time>2020-11-11T06:28:41Z</time>
      </trkpt>
      <trkpt lat="28.5064750" lon="-16.1934980">
        <ele>19.9</ele>
        <time>2020-11-11T06:28:42Z</time>
      </trkpt>
      <trkpt lat="28.5064630" lon="-16.1934620">
        <ele>18.9</ele>
        <time>2020-11-11T06:28:43Z</time>
      </trkpt>
      <trkpt lat="28.5064630" lon="-16.1934620">
        <ele>18.9</ele>
        <time>2020-11-11T06:28:44Z</time>
      </trkpt>
      <trkpt lat="28.5064420" lon="-16.1933720">
        <ele>18.9</ele>
        <time>2020-11-11T06:28:45Z</time>
      </trkpt>
      <trkpt lat="28.5064420" lon="-16.1933720">
        <ele>18.9</ele>
        <time>2020-11-11T06:28:46Z</time>
      </trkpt>
      <trkpt lat="28.5064180" lon="-16.1932850">
        <ele>18.9</ele>
        <time>2020-11-11T06:28:47Z</time>
      </trkpt>
      <trkpt lat="28.5064100" lon="-16.1932370">
        <ele>18.9</ele>
        <time>2020-11-11T06:28:48Z</time>
      </trkpt>
      <trkpt lat="28.5064020" lon="-16.1931870">
        <ele>18.9</ele>
        <time>2020-11-11T06:28:49Z</time>
      </trkpt>
      <trkpt lat="28.5064020" lon="-16.1931870">
        <ele>18.9</ele>
        <time>2020-11-11T06:28:50Z</time>
      </trkpt>
      <trkpt lat="28.5063880" lon="-16.1930850">
        <ele>18.9</ele>
        <time>2020-11-11T06:28:51Z</time>
      </trkpt>
      <trkpt lat="28.5063880" lon="-16.1930850">
        <ele>18.9</ele>
        <time>2020-11-11T06:28:52Z</time>
      </trkpt>
      <trkpt lat="28.5063700" lon="-16.1929730">
        <ele>18.9</ele>
        <time>2020-11-11T06:28:53Z</time>
      </trkpt>
      <trkpt lat="28.5063700" lon="-16.1929730">
        <ele>18.9</ele>
        <time>2020-11-11T06:28:54Z</time>
      </trkpt>
      <trkpt lat="28.5063500" lon="-16.1928550">
        <ele>17.9</ele>
        <time>2020-11-11T06:28:55Z</time>
      </trkpt>
      <trkpt lat="28.5063500" lon="-16.1928550">
        <ele>17.9</ele>
        <time>2020-11-11T06:28:56Z</time>
      </trkpt>
      <trkpt lat="28.5063320" lon="-16.1927380">
        <ele>17.9</ele>
        <time>2020-11-11T06:28:57Z</time>
      </trkpt>
      <trkpt lat="28.5063320" lon="-16.1927380">
        <ele>17.9</ele>
        <time>2020-11-11T06:28:58Z</time>
      </trkpt>
      <trkpt lat="28.5063030" lon="-16.1926280">
        <ele>17.9</ele>
        <time>2020-11-11T06:28:59Z</time>
      </trkpt>
      <trkpt lat="28.5062800" lon="-16.1925730">
        <ele>17.9</ele>
        <time>2020-11-11T06:29:00Z</time>
      </trkpt>
      <trkpt lat="28.5062570" lon="-16.1925170">
        <ele>17.9</ele>
        <time>2020-11-11T06:29:01Z</time>
      </trkpt>
      <trkpt lat="28.5062570" lon="-16.1925170">
        <ele>17.9</ele>
        <time>2020-11-11T06:29:02Z</time>
      </trkpt>
      <trkpt lat="28.5062130" lon="-16.1923970">
        <ele>16.9</ele>
        <time>2020-11-11T06:29:03Z</time>
      </trkpt>
      <trkpt lat="28.5061930" lon="-16.1923380">
        <ele>16.9</ele>
        <time>2020-11-11T06:29:04Z</time>
      </trkpt>
      <trkpt lat="28.5061930" lon="-16.1923380">
        <ele>16.9</ele>
        <time>2020-11-11T06:29:05Z</time>
      </trkpt>
      <trkpt lat="28.5061400" lon="-16.1922180">
        <ele>16.9</ele>
        <time>2020-11-11T06:29:06Z</time>
      </trkpt>
      <trkpt lat="28.5061130" lon="-16.1921620">
        <ele>15.9</ele>
        <time>2020-11-11T06:29:07Z</time>
      </trkpt>
      <trkpt lat="28.5061130" lon="-16.1921620">
        <ele>15.9</ele>
        <time>2020-11-11T06:29:08Z</time>
      </trkpt>
      <trkpt lat="28.5060630" lon="-16.1920430">
        <ele>15.9</ele>
        <time>2020-11-11T06:29:09Z</time>
      </trkpt>
      <trkpt lat="28.5060630" lon="-16.1920430">
        <ele>15.9</ele>
        <time>2020-11-11T06:29:10Z</time>
      </trkpt>
      <trkpt lat="28.5060170" lon="-16.1919350">
        <ele>15.9</ele>
        <time>2020-11-11T06:29:11Z</time>
      </trkpt>
      <trkpt lat="28.5059950" lon="-16.1918800">
        <ele>15.9</ele>
        <time>2020-11-11T06:29:12Z</time>
      </trkpt>
      <trkpt lat="28.5059950" lon="-16.1918800">
        <ele>15.9</ele>
        <time>2020-11-11T06:29:13Z</time>
      </trkpt>
      <trkpt lat="28.5059330" lon="-16.1917770">
        <ele>14.9</ele>
        <time>2020-11-11T06:29:14Z</time>
      </trkpt>
      <trkpt lat="28.5059020" lon="-16.1917300">
        <ele>14.9</ele>
        <time>2020-11-11T06:29:15Z</time>
      </trkpt>
      <trkpt lat="28.5059020" lon="-16.1917300">
        <ele>14.9</ele>
        <time>2020-11-11T06:29:16Z</time>
      </trkpt>
      <trkpt lat="28.5058370" lon="-16.1916330">
        <ele>14.9</ele>
        <time>2020-11-11T06:29:17Z</time>
      </trkpt>
      <trkpt lat="28.5058370" lon="-16.1916330">
        <ele>14.9</ele>
        <time>2020-11-11T06:29:18Z</time>
      </trkpt>
      <trkpt lat="28.5057650" lon="-16.1915300">
        <ele>14.9</ele>
        <time>2020-11-11T06:29:19Z</time>
      </trkpt>
      <trkpt lat="28.5057650" lon="-16.1915300">
        <ele>14.9</ele>
        <time>2020-11-11T06:29:20Z</time>
      </trkpt>
      <trkpt lat="28.5056880" lon="-16.1914220">
        <ele>13.9</ele>
        <time>2020-11-11T06:29:21Z</time>
      </trkpt>
      <trkpt lat="28.5056880" lon="-16.1914220">
        <ele>13.9</ele>
        <time>2020-11-11T06:29:22Z</time>
      </trkpt>
      <trkpt lat="28.5056020" lon="-16.1913150">
        <ele>13.9</ele>
        <time>2020-11-11T06:29:23Z</time>
      </trkpt>
      <trkpt lat="28.5055550" lon="-16.1912670">
        <ele>13.9</ele>
        <time>2020-11-11T06:29:24Z</time>
      </trkpt>
      <trkpt lat="28.5055080" lon="-16.1912200">
        <ele>13.9</ele>
        <time>2020-11-11T06:29:25Z</time>
      </trkpt>
      <trkpt lat="28.5055080" lon="-16.1912200">
        <ele>13.9</ele>
        <time>2020-11-11T06:29:26Z</time>
      </trkpt>
      <trkpt lat="28.5054100" lon="-16.1911220">
        <ele>12.9</ele>
        <time>2020-11-11T06:29:27Z</time>
      </trkpt>
      <trkpt lat="28.5053580" lon="-16.1910820">
        <ele>12.9</ele>
        <time>2020-11-11T06:29:28Z</time>
      </trkpt>
      <trkpt lat="28.5053580" lon="-16.1910820">
        <ele>12.9</ele>
        <time>2020-11-11T06:29:29Z</time>
      </trkpt>
      <trkpt lat="28.5052600" lon="-16.1910180">
        <ele>12.9</ele>
        <time>2020-11-11T06:29:30Z</time>
      </trkpt>
      <trkpt lat="28.5052180" lon="-16.1909930">
        <ele>12.9</ele>
        <time>2020-11-11T06:29:31Z</time>
      </trkpt>
      <trkpt lat="28.5052180" lon="-16.1909930">
        <ele>12.9</ele>
        <time>2020-11-11T06:29:32Z</time>
      </trkpt>
      <trkpt lat="28.5051420" lon="-16.1909570">
        <ele>12.9</ele>
        <time>2020-11-11T06:29:33Z</time>
      </trkpt>
      <trkpt lat="28.5051420" lon="-16.1909570">
        <ele>12.9</ele>
        <time>2020-11-11T06:29:34Z</time>
      </trkpt>
      <trkpt lat="28.5050730" lon="-16.1909350">
        <ele>12.9</ele>
        <time>2020-11-11T06:29:35Z</time>
      </trkpt>
      <trkpt lat="28.5050730" lon="-16.1909350">
        <ele>12.9</ele>
        <time>2020-11-11T06:29:36Z</time>
      </trkpt>
      <trkpt lat="28.5050480" lon="-16.1908970">
        <ele>12.9</ele>
        <time>2020-11-11T06:29:37Z</time>
      </trkpt>
      <trkpt lat="28.5050480" lon="-16.1908970">
        <ele>12.9</ele>
        <time>2020-11-11T06:29:38Z</time>
      </trkpt>
      <trkpt lat="28.5050880" lon="-16.1908600">
        <ele>12.9</ele>
        <time>2020-11-11T06:29:39Z</time>
      </trkpt>
      <trkpt lat="28.5050880" lon="-16.1908600">
        <ele>12.9</ele>
        <time>2020-11-11T06:29:40Z</time>
      </trkpt>
      <trkpt lat="28.5051330" lon="-16.1908580">
        <ele>12.9</ele>
        <time>2020-11-11T06:29:41Z</time>
      </trkpt>
      <trkpt lat="28.5051570" lon="-16.1908670">
        <ele>12.9</ele>
        <time>2020-11-11T06:29:42Z</time>
      </trkpt>
      <trkpt lat="28.5051900" lon="-16.1908750">
        <ele>12.9</ele>
        <time>2020-11-11T06:29:43Z</time>
      </trkpt>
      <trkpt lat="28.5051900" lon="-16.1908750">
        <ele>12.9</ele>
        <time>2020-11-11T06:29:44Z</time>
      </trkpt>
      <trkpt lat="28.5052530" lon="-16.1909120">
        <ele>12.9</ele>
        <time>2020-11-11T06:29:45Z</time>
      </trkpt>
      <trkpt lat="28.5052530" lon="-16.1909120">
        <ele>12.9</ele>
        <time>2020-11-11T06:29:46Z</time>
      </trkpt>
      <trkpt lat="28.5053180" lon="-16.1909500">
        <ele>12.9</ele>
        <time>2020-11-11T06:29:47Z</time>
      </trkpt>
      <trkpt lat="28.5053470" lon="-16.1909680">
        <ele>12.9</ele>
        <time>2020-11-11T06:29:48Z</time>
      </trkpt>
      <trkpt lat="28.5053470" lon="-16.1909680">
        <ele>12.9</ele>
        <time>2020-11-11T06:29:49Z</time>
      </trkpt>
      <trkpt lat="28.5054050" lon="-16.1910070">
        <ele>12.9</ele>
        <time>2020-11-11T06:29:50Z</time>
      </trkpt>
      <trkpt lat="28.5054050" lon="-16.1910070">
        <ele>12.9</ele>
        <time>2020-11-11T06:29:51Z</time>
      </trkpt>
      <trkpt lat="28.5054700" lon="-16.1910430">
        <ele>12.9</ele>
        <time>2020-11-11T06:29:52Z</time>
      </trkpt>
      <trkpt lat="28.5054700" lon="-16.1910430">
        <ele>12.9</ele>
        <time>2020-11-11T06:29:53Z</time>
      </trkpt>
      <trkpt lat="28.5055300" lon="-16.1910770">
        <ele>13.9</ele>
        <time>2020-11-11T06:29:54Z</time>
      </trkpt>
      <trkpt lat="28.5055600" lon="-16.1910900">
        <ele>13.9</ele>
        <time>2020-11-11T06:29:55Z</time>
      </trkpt>
      <trkpt lat="28.5055600" lon="-16.1910900">
        <ele>13.9</ele>
        <time>2020-11-11T06:29:56Z</time>
      </trkpt>
      <trkpt lat="28.5056200" lon="-16.1910920">
        <ele>13.9</ele>
        <time>2020-11-11T06:29:57Z</time>
      </trkpt>
      <trkpt lat="28.5056200" lon="-16.1910920">
        <ele>14.9</ele>
        <time>2020-11-11T06:29:58Z</time>
      </trkpt>
      <trkpt lat="28.5056730" lon="-16.1910630">
        <ele>14.9</ele>
        <time>2020-11-11T06:29:59Z</time>
      </trkpt>
      <trkpt lat="28.5056730" lon="-16.1910630">
        <ele>14.9</ele>
        <time>2020-11-11T06:30:00Z</time>
      </trkpt>
      <trkpt lat="28.5057220" lon="-16.1910220">
        <ele>14.9</ele>
        <time>2020-11-11T06:30:01Z</time>
      </trkpt>
      <trkpt lat="28.5057220" lon="-16.1910220">
        <ele>14.9</ele>
        <time>2020-11-11T06:30:02Z</time>
      </trkpt>
      <trkpt lat="28.5057620" lon="-16.1909650">
        <ele>14.9</ele>
        <time>2020-11-11T06:30:03Z</time>
      </trkpt>
      <trkpt lat="28.5057620" lon="-16.1909650">
        <ele>15.9</ele>
        <time>2020-11-11T06:30:04Z</time>
      </trkpt>
      <trkpt lat="28.5058020" lon="-16.1909000">
        <ele>15.9</ele>
        <time>2020-11-11T06:30:05Z</time>
      </trkpt>
      <trkpt lat="28.5058020" lon="-16.1909000">
        <ele>15.9</ele>
        <time>2020-11-11T06:30:06Z</time>
      </trkpt>
      <trkpt lat="28.5058470" lon="-16.1908330">
        <ele>15.9</ele>
        <time>2020-11-11T06:30:07Z</time>
      </trkpt>
      <trkpt lat="28.5058470" lon="-16.1908330">
        <ele>15.9</ele>
        <time>2020-11-11T06:30:08Z</time>
      </trkpt>
      <trkpt lat="28.5058830" lon="-16.1907550">
        <ele>15.9</ele>
        <time>2020-11-11T06:30:09Z</time>
      </trkpt>
      <trkpt lat="28.5058830" lon="-16.1907550">
        <ele>15.9</ele>
        <time>2020-11-11T06:30:10Z</time>
      </trkpt>
      <trkpt lat="28.5059070" lon="-16.1906650">
        <ele>15.9</ele>
        <time>2020-11-11T06:30:11Z</time>
      </trkpt>
      <trkpt lat="28.5059070" lon="-16.1906650">
        <ele>15.9</ele>
        <time>2020-11-11T06:30:12Z</time>
      </trkpt>
      <trkpt lat="28.5059280" lon="-16.1905720">
        <ele>15.9</ele>
        <time>2020-11-11T06:30:13Z</time>
      </trkpt>
      <trkpt lat="28.5059280" lon="-16.1905720">
        <ele>15.9</ele>
        <time>2020-11-11T06:30:14Z</time>
      </trkpt>
      <trkpt lat="28.5059680" lon="-16.1904780">
        <ele>15.9</ele>
        <time>2020-11-11T06:30:15Z</time>
      </trkpt>
      <trkpt lat="28.5059680" lon="-16.1904780">
        <ele>15.9</ele>
        <time>2020-11-11T06:30:16Z</time>
      </trkpt>
      <trkpt lat="28.5060170" lon="-16.1903880">
        <ele>15.9</ele>
        <time>2020-11-11T06:30:17Z</time>
      </trkpt>
      <trkpt lat="28.5060170" lon="-16.1903880">
        <ele>15.9</ele>
        <time>2020-11-11T06:30:18Z</time>
      </trkpt>
      <trkpt lat="28.5060730" lon="-16.1903050">
        <ele>15.9</ele>
        <time>2020-11-11T06:30:19Z</time>
      </trkpt>
      <trkpt lat="28.5060730" lon="-16.1903050">
        <ele>15.9</ele>
        <time>2020-11-11T06:30:20Z</time>
      </trkpt>
      <trkpt lat="28.5061400" lon="-16.1902300">
        <ele>15.9</ele>
        <time>2020-11-11T06:30:21Z</time>
      </trkpt>
      <trkpt lat="28.5061770" lon="-16.1901970">
        <ele>14.9</ele>
        <time>2020-11-11T06:30:22Z</time>
      </trkpt>
      <trkpt lat="28.5061770" lon="-16.1901970">
        <ele>14.9</ele>
        <time>2020-11-11T06:30:23Z</time>
      </trkpt>
      <trkpt lat="28.5062470" lon="-16.1901280">
        <ele>14.9</ele>
        <time>2020-11-11T06:30:24Z</time>
      </trkpt>
      <trkpt lat="28.5062850" lon="-16.1900950">
        <ele>14.9</ele>
        <time>2020-11-11T06:30:25Z</time>
      </trkpt>
      <trkpt lat="28.5062850" lon="-16.1900950">
        <ele>14.9</ele>
        <time>2020-11-11T06:30:26Z</time>
      </trkpt>
      <trkpt lat="28.5063600" lon="-16.1900370">
        <ele>14.9</ele>
        <time>2020-11-11T06:30:27Z</time>
      </trkpt>
      <trkpt lat="28.5063600" lon="-16.1900370">
        <ele>14.9</ele>
        <time>2020-11-11T06:30:28Z</time>
      </trkpt>
      <trkpt lat="28.5064330" lon="-16.1899770">
        <ele>14.9</ele>
        <time>2020-11-11T06:30:29Z</time>
      </trkpt>
      <trkpt lat="28.5064680" lon="-16.1899470">
        <ele>14.9</ele>
        <time>2020-11-11T06:30:30Z</time>
      </trkpt>
      <trkpt lat="28.5064680" lon="-16.1899470">
        <ele>14.9</ele>
        <time>2020-11-11T06:30:31Z</time>
      </trkpt>
      <trkpt lat="28.5065370" lon="-16.1898820">
        <ele>14.9</ele>
        <time>2020-11-11T06:30:32Z</time>
      </trkpt>
      <trkpt lat="28.5065370" lon="-16.1898820">
        <ele>14.9</ele>
        <time>2020-11-11T06:30:33Z</time>
      </trkpt>
      <trkpt lat="28.5066000" lon="-16.1898150">
        <ele>14.9</ele>
        <time>2020-11-11T06:30:34Z</time>
      </trkpt>
      <trkpt lat="28.5066000" lon="-16.1898150">
        <ele>14.9</ele>
        <time>2020-11-11T06:30:35Z</time>
      </trkpt>
      <trkpt lat="28.5066700" lon="-16.1897550">
        <ele>14.9</ele>
        <time>2020-11-11T06:30:36Z</time>
      </trkpt>
      <trkpt lat="28.5067070" lon="-16.1897270">
        <ele>14.9</ele>
        <time>2020-11-11T06:30:37Z</time>
      </trkpt>
      <trkpt lat="28.5067070" lon="-16.1897270">
        <ele>14.9</ele>
        <time>2020-11-11T06:30:38Z</time>
      </trkpt>
      <trkpt lat="28.5067800" lon="-16.1896730">
        <ele>14.9</ele>
        <time>2020-11-11T06:30:39Z</time>
      </trkpt>
      <trkpt lat="28.5067800" lon="-16.1896730">
        <ele>14.9</ele>
        <time>2020-11-11T06:30:40Z</time>
      </trkpt>
      <trkpt lat="28.5068580" lon="-16.1896220">
        <ele>14.9</ele>
        <time>2020-11-11T06:30:41Z</time>
      </trkpt>
      <trkpt lat="28.5068970" lon="-16.1896000">
        <ele>14.9</ele>
        <time>2020-11-11T06:30:42Z</time>
      </trkpt>
      <trkpt lat="28.5069370" lon="-16.1895830">
        <ele>14.9</ele>
        <time>2020-11-11T06:30:43Z</time>
      </trkpt>
      <trkpt lat="28.5069370" lon="-16.1895830">
        <ele>14.9</ele>
        <time>2020-11-11T06:30:44Z</time>
      </trkpt>
      <trkpt lat="28.5070070" lon="-16.1895550">
        <ele>14.9</ele>
        <time>2020-11-11T06:30:45Z</time>
      </trkpt>
      <trkpt lat="28.5070070" lon="-16.1895550">
        <ele>14.9</ele>
        <time>2020-11-11T06:30:46Z</time>
      </trkpt>
      <trkpt lat="28.5070750" lon="-16.1895300">
        <ele>14.9</ele>
        <time>2020-11-11T06:30:47Z</time>
      </trkpt>
      <trkpt lat="28.5070750" lon="-16.1895300">
        <ele>14.9</ele>
        <time>2020-11-11T06:30:48Z</time>
      </trkpt>
      <trkpt lat="28.5071420" lon="-16.1895150">
        <ele>15.9</ele>
        <time>2020-11-11T06:30:49Z</time>
      </trkpt>
      <trkpt lat="28.5071420" lon="-16.1895150">
        <ele>15.9</ele>
        <time>2020-11-11T06:30:50Z</time>
      </trkpt>
      <trkpt lat="28.5072070" lon="-16.1895070">
        <ele>15.9</ele>
        <time>2020-11-11T06:30:51Z</time>
      </trkpt>
      <trkpt lat="28.5072070" lon="-16.1895070">
        <ele>15.9</ele>
        <time>2020-11-11T06:30:52Z</time>
      </trkpt>
      <trkpt lat="28.5072700" lon="-16.1895000">
        <ele>16.9</ele>
        <time>2020-11-11T06:30:53Z</time>
      </trkpt>
      <trkpt lat="28.5072700" lon="-16.1895000">
        <ele>16.9</ele>
        <time>2020-11-11T06:30:54Z</time>
      </trkpt>
      <trkpt lat="28.5073330" lon="-16.1894920">
        <ele>16.9</ele>
        <time>2020-11-11T06:30:55Z</time>
      </trkpt>
      <trkpt lat="28.5073330" lon="-16.1894920">
        <ele>16.9</ele>
        <time>2020-11-11T06:30:56Z</time>
      </trkpt>
      <trkpt lat="28.5073950" lon="-16.1894800">
        <ele>17.9</ele>
        <time>2020-11-11T06:30:57Z</time>
      </trkpt>
      <trkpt lat="28.5073950" lon="-16.1894800">
        <ele>17.9</ele>
        <time>2020-11-11T06:30:58Z</time>
      </trkpt>
      <trkpt lat="28.5074530" lon="-16.1894650">
        <ele>17.9</ele>
        <time>2020-11-11T06:30:59Z</time>
      </trkpt>
      <trkpt lat="28.5074530" lon="-16.1894650">
        <ele>17.9</ele>
        <time>2020-11-11T06:31:00Z</time>
      </trkpt>
      <trkpt lat="28.5075100" lon="-16.1894430">
        <ele>18.9</ele>
        <time>2020-11-11T06:31:01Z</time>
      </trkpt>
      <trkpt lat="28.5075370" lon="-16.1894320">
        <ele>18.9</ele>
        <time>2020-11-11T06:31:02Z</time>
      </trkpt>
      <trkpt lat="28.5075370" lon="-16.1894320">
        <ele>18.9</ele>
        <time>2020-11-11T06:31:03Z</time>
      </trkpt>
      <trkpt lat="28.5075880" lon="-16.1894030">
        <ele>19.9</ele>
        <time>2020-11-11T06:31:04Z</time>
      </trkpt>
      <trkpt lat="28.5075880" lon="-16.1894030">
        <ele>19.9</ele>
        <time>2020-11-11T06:31:05Z</time>
      </trkpt>
      <trkpt lat="28.5076370" lon="-16.1893750">
        <ele>19.9</ele>
        <time>2020-11-11T06:31:06Z</time>
      </trkpt>
      <trkpt lat="28.5076370" lon="-16.1893750">
        <ele>19.9</ele>
        <time>2020-11-11T06:31:07Z</time>
      </trkpt>
      <trkpt lat="28.5076850" lon="-16.1893470">
        <ele>19.9</ele>
        <time>2020-11-11T06:31:08Z</time>
      </trkpt>
      <trkpt lat="28.5077080" lon="-16.1893320">
        <ele>20.9</ele>
        <time>2020-11-11T06:31:09Z</time>
      </trkpt>
      <trkpt lat="28.5077080" lon="-16.1893320">
        <ele>20.9</ele>
        <time>2020-11-11T06:31:10Z</time>
      </trkpt>
      <trkpt lat="28.5077550" lon="-16.1893050">
        <ele>20.9</ele>
        <time>2020-11-11T06:31:11Z</time>
      </trkpt>
      <trkpt lat="28.5077550" lon="-16.1893050">
        <ele>20.9</ele>
        <time>2020-11-11T06:31:12Z</time>
      </trkpt>
      <trkpt lat="28.5078030" lon="-16.1892780">
        <ele>21.9</ele>
        <time>2020-11-11T06:31:13Z</time>
      </trkpt>
      <trkpt lat="28.5078030" lon="-16.1892780">
        <ele>21.9</ele>
        <time>2020-11-11T06:31:14Z</time>
      </trkpt>
      <trkpt lat="28.5078480" lon="-16.1892580">
        <ele>21.9</ele>
        <time>2020-11-11T06:31:15Z</time>
      </trkpt>
      <trkpt lat="28.5078480" lon="-16.1892580">
        <ele>21.9</ele>
        <time>2020-11-11T06:31:16Z</time>
      </trkpt>
      <trkpt lat="28.5078950" lon="-16.1892350">
        <ele>22.9</ele>
        <time>2020-11-11T06:31:17Z</time>
      </trkpt>
      <trkpt lat="28.5078950" lon="-16.1892350">
        <ele>22.9</ele>
        <time>2020-11-11T06:31:18Z</time>
      </trkpt>
      <trkpt lat="28.5079380" lon="-16.1892070">
        <ele>22.9</ele>
        <time>2020-11-11T06:31:19Z</time>
      </trkpt>
      <trkpt lat="28.5079380" lon="-16.1892070">
        <ele>22.9</ele>
        <time>2020-11-11T06:31:20Z</time>
      </trkpt>
      <trkpt lat="28.5079820" lon="-16.1891750">
        <ele>22.9</ele>
        <time>2020-11-11T06:31:21Z</time>
      </trkpt>
      <trkpt lat="28.5079820" lon="-16.1891750">
        <ele>22.9</ele>
        <time>2020-11-11T06:31:22Z</time>
      </trkpt>
      <trkpt lat="28.5080250" lon="-16.1891450">
        <ele>23.9</ele>
        <time>2020-11-11T06:31:23Z</time>
      </trkpt>
      <trkpt lat="28.5080470" lon="-16.1891300">
        <ele>23.9</ele>
        <time>2020-11-11T06:31:24Z</time>
      </trkpt>
      <trkpt lat="28.5080670" lon="-16.1891120">
        <ele>23.9</ele>
        <time>2020-11-11T06:31:25Z</time>
      </trkpt>
      <trkpt lat="28.5080670" lon="-16.1891120">
        <ele>23.9</ele>
        <time>2020-11-11T06:31:26Z</time>
      </trkpt>
      <trkpt lat="28.5081050" lon="-16.1890770">
        <ele>23.9</ele>
        <time>2020-11-11T06:31:27Z</time>
      </trkpt>
      <trkpt lat="28.5081050" lon="-16.1890770">
        <ele>23.9</ele>
        <time>2020-11-11T06:31:28Z</time>
      </trkpt>
      <trkpt lat="28.5081370" lon="-16.1890580">
        <ele>24.9</ele>
        <time>2020-11-11T06:31:29Z</time>
      </trkpt>
      <trkpt lat="28.5081370" lon="-16.1890580">
        <ele>24.9</ele>
        <time>2020-11-11T06:31:30Z</time>
      </trkpt>
      <trkpt lat="28.5081480" lon="-16.1890470">
        <ele>24.9</ele>
        <time>2020-11-11T06:31:31Z</time>
      </trkpt>
      <trkpt lat="28.5081480" lon="-16.1890470">
        <ele>24.9</ele>
        <time>2020-11-11T06:31:32Z</time>
      </trkpt>
      <trkpt lat="28.5081480" lon="-16.1890520">
        <ele>24.9</ele>
        <time>2020-11-11T06:31:33Z</time>
      </trkpt>
      <trkpt lat="28.5081550" lon="-16.1890850">
        <ele>24.9</ele>
        <time>2020-11-11T06:32:22Z</time>
      </trkpt>
      <trkpt lat="28.5081550" lon="-16.1890850">
        <ele>24.9</ele>
        <time>2020-11-11T06:32:23Z</time>
      </trkpt>
      <trkpt lat="28.5081170" lon="-16.1891220">
        <ele>24.9</ele>
        <time>2020-11-11T06:32:24Z</time>
      </trkpt>
      <trkpt lat="28.5080900" lon="-16.1891450">
        <ele>24.9</ele>
        <time>2020-11-11T06:32:25Z</time>
      </trkpt>
      <trkpt lat="28.5080900" lon="-16.1891450">
        <ele>24.9</ele>
        <time>2020-11-11T06:32:26Z</time>
      </trkpt>
      <trkpt lat="28.5080220" lon="-16.1892020">
        <ele>24.9</ele>
        <time>2020-11-11T06:32:27Z</time>
      </trkpt>
      <trkpt lat="28.5080220" lon="-16.1892020">
        <ele>24.9</ele>
        <time>2020-11-11T06:32:28Z</time>
      </trkpt>
      <trkpt lat="28.5079280" lon="-16.1892650">
        <ele>24.9</ele>
        <time>2020-11-11T06:32:29Z</time>
      </trkpt>
      <trkpt lat="28.5079280" lon="-16.1892650">
        <ele>23.9</ele>
        <time>2020-11-11T06:32:30Z</time>
      </trkpt>
      <trkpt lat="28.5078150" lon="-16.1893320">
        <ele>23.9</ele>
        <time>2020-11-11T06:32:31Z</time>
      </trkpt>
      <trkpt lat="28.5078150" lon="-16.1893320">
        <ele>23.9</ele>
        <time>2020-11-11T06:32:32Z</time>
      </trkpt>
      <trkpt lat="28.5076880" lon="-16.1893980">
        <ele>23.9</ele>
        <time>2020-11-11T06:32:33Z</time>
      </trkpt>
      <trkpt lat="28.5076880" lon="-16.1893980">
        <ele>22.9</ele>
        <time>2020-11-11T06:32:34Z</time>
      </trkpt>
      <trkpt lat="28.5075450" lon="-16.1894680">
        <ele>22.9</ele>
        <time>2020-11-11T06:32:35Z</time>
      </trkpt>
      <trkpt lat="28.5075450" lon="-16.1894680">
        <ele>21.9</ele>
        <time>2020-11-11T06:32:36Z</time>
      </trkpt>
      <trkpt lat="28.5073900" lon="-16.1895250">
        <ele>21.9</ele>
        <time>2020-11-11T06:32:37Z</time>
      </trkpt>
      <trkpt lat="28.5073900" lon="-16.1895250">
        <ele>20.9</ele>
        <time>2020-11-11T06:32:38Z</time>
      </trkpt>
      <trkpt lat="28.5072350" lon="-16.1895480">
        <ele>20.9</ele>
        <time>2020-11-11T06:32:39Z</time>
      </trkpt>
      <trkpt lat="28.5072350" lon="-16.1895480">
        <ele>18.9</ele>
        <time>2020-11-11T06:32:40Z</time>
      </trkpt>
      <trkpt lat="28.5071030" lon="-16.1895680">
        <ele>18.9</ele>
        <time>2020-11-11T06:32:41Z</time>
      </trkpt>
      <trkpt lat="28.5071030" lon="-16.1895680">
        <ele>17.9</ele>
        <time>2020-11-11T06:32:42Z</time>
      </trkpt>
      <trkpt lat="28.5069680" lon="-16.1896330">
        <ele>17.9</ele>
        <time>2020-11-11T06:32:43Z</time>
      </trkpt>
      <trkpt lat="28.5069680" lon="-16.1896330">
        <ele>16.9</ele>
        <time>2020-11-11T06:32:44Z</time>
      </trkpt>
      <trkpt lat="28.5068320" lon="-16.1897250">
        <ele>16.9</ele>
        <time>2020-11-11T06:32:45Z</time>
      </trkpt>
      <trkpt lat="28.5068320" lon="-16.1897250">
        <ele>15.9</ele>
        <time>2020-11-11T06:32:46Z</time>
      </trkpt>
      <trkpt lat="28.5067020" lon="-16.1898250">
        <ele>15.9</ele>
        <time>2020-11-11T06:32:47Z</time>
      </trkpt>
      <trkpt lat="28.5067020" lon="-16.1898250">
        <ele>14.9</ele>
        <time>2020-11-11T06:32:48Z</time>
      </trkpt>
      <trkpt lat="28.5065830" lon="-16.1899250">
        <ele>14.9</ele>
        <time>2020-11-11T06:32:49Z</time>
      </trkpt>
      <trkpt lat="28.5065830" lon="-16.1899250">
        <ele>14.9</ele>
        <time>2020-11-11T06:32:50Z</time>
      </trkpt>
      <trkpt lat="28.5064770" lon="-16.1900220">
        <ele>14.9</ele>
        <time>2020-11-11T06:32:51Z</time>
      </trkpt>
      <trkpt lat="28.5064770" lon="-16.1900220">
        <ele>14.9</ele>
        <time>2020-11-11T06:32:52Z</time>
      </trkpt>
      <trkpt lat="28.5063750" lon="-16.1901170">
        <ele>14.9</ele>
        <time>2020-11-11T06:32:53Z</time>
      </trkpt>
      <trkpt lat="28.5063270" lon="-16.1901620">
        <ele>13.9</ele>
        <time>2020-11-11T06:32:54Z</time>
      </trkpt>
      <trkpt lat="28.5062800" lon="-16.1902050">
        <ele>13.9</ele>
        <time>2020-11-11T06:32:55Z</time>
      </trkpt>
      <trkpt lat="28.5062800" lon="-16.1902050">
        <ele>13.9</ele>
        <time>2020-11-11T06:32:56Z</time>
      </trkpt>
      <trkpt lat="28.5061970" lon="-16.1902930">
        <ele>13.9</ele>
        <time>2020-11-11T06:32:57Z</time>
      </trkpt>
      <trkpt lat="28.5061970" lon="-16.1902930">
        <ele>13.9</ele>
        <time>2020-11-11T06:32:58Z</time>
      </trkpt>
      <trkpt lat="28.5061420" lon="-16.1903970">
        <ele>13.9</ele>
        <time>2020-11-11T06:32:59Z</time>
      </trkpt>
      <trkpt lat="28.5061420" lon="-16.1903970">
        <ele>13.9</ele>
        <time>2020-11-11T06:33:00Z</time>
      </trkpt>
      <trkpt lat="28.5061200" lon="-16.1905020">
        <ele>13.9</ele>
        <time>2020-11-11T06:33:01Z</time>
      </trkpt>
      <trkpt lat="28.5061200" lon="-16.1905500">
        <ele>13.9</ele>
        <time>2020-11-11T06:33:02Z</time>
      </trkpt>
      <trkpt lat="28.5061200" lon="-16.1905500">
        <ele>13.9</ele>
        <time>2020-11-11T06:33:03Z</time>
      </trkpt>
      <trkpt lat="28.5061200" lon="-16.1906400">
        <ele>13.9</ele>
        <time>2020-11-11T06:33:04Z</time>
      </trkpt>
      <trkpt lat="28.5061130" lon="-16.1906800">
        <ele>13.9</ele>
        <time>2020-11-11T06:33:05Z</time>
      </trkpt>
      <trkpt lat="28.5061130" lon="-16.1906800">
        <ele>13.9</ele>
        <time>2020-11-11T06:33:06Z</time>
      </trkpt>
      <trkpt lat="28.5060930" lon="-16.1907500">
        <ele>13.9</ele>
        <time>2020-11-11T06:33:07Z</time>
      </trkpt>
      <trkpt lat="28.5060930" lon="-16.1907500">
        <ele>13.9</ele>
        <time>2020-11-11T06:33:08Z</time>
      </trkpt>
      <trkpt lat="28.5060750" lon="-16.1907930">
        <ele>13.9</ele>
        <time>2020-11-11T06:33:09Z</time>
      </trkpt>
      <trkpt lat="28.5060730" lon="-16.1908150">
        <ele>13.9</ele>
        <time>2020-11-11T06:33:10Z</time>
      </trkpt>
      <trkpt lat="28.5060780" lon="-16.1908430">
        <ele>13.9</ele>
        <time>2020-11-11T06:33:11Z</time>
      </trkpt>
      <trkpt lat="28.5060780" lon="-16.1908430">
        <ele>13.9</ele>
        <time>2020-11-11T06:33:12Z</time>
      </trkpt>
      <trkpt lat="28.5061020" lon="-16.1909120">
        <ele>13.9</ele>
        <time>2020-11-11T06:33:13Z</time>
      </trkpt>
      <trkpt lat="28.5061220" lon="-16.1909370">
        <ele>13.9</ele>
        <time>2020-11-11T06:33:14Z</time>
      </trkpt>
      <trkpt lat="28.5061220" lon="-16.1909370">
        <ele>13.9</ele>
        <time>2020-11-11T06:33:15Z</time>
      </trkpt>
      <trkpt lat="28.5061700" lon="-16.1909650">
        <ele>13.9</ele>
        <time>2020-11-11T06:33:16Z</time>
      </trkpt>
      <trkpt lat="28.5061980" lon="-16.1909650">
        <ele>13.9</ele>
        <time>2020-11-11T06:33:17Z</time>
      </trkpt>
      <trkpt lat="28.5062270" lon="-16.1909670">
        <ele>13.9</ele>
        <time>2020-11-11T06:33:18Z</time>
      </trkpt>
      <trkpt lat="28.5062270" lon="-16.1909670">
        <ele>13.9</ele>
        <time>2020-11-11T06:33:19Z</time>
      </trkpt>
      <trkpt lat="28.5062770" lon="-16.1909670">
        <ele>13.9</ele>
        <time>2020-11-11T06:33:20Z</time>
      </trkpt>
      <trkpt lat="28.5063020" lon="-16.1909750">
        <ele>13.9</ele>
        <time>2020-11-11T06:33:21Z</time>
      </trkpt>
      <trkpt lat="28.5063020" lon="-16.1909750">
        <ele>13.9</ele>
        <time>2020-11-11T06:33:22Z</time>
      </trkpt>
      <trkpt lat="28.5063480" lon="-16.1909780">
        <ele>13.9</ele>
        <time>2020-11-11T06:33:23Z</time>
      </trkpt>
      <trkpt lat="28.5063700" lon="-16.1909770">
        <ele>13.9</ele>
        <time>2020-11-11T06:33:24Z</time>
      </trkpt>
      <trkpt lat="28.5063920" lon="-16.1909750">
        <ele>13.9</ele>
        <time>2020-11-11T06:33:25Z</time>
      </trkpt>
      <trkpt lat="28.5063920" lon="-16.1909750">
        <ele>13.9</ele>
        <time>2020-11-11T06:33:26Z</time>
      </trkpt>
      <trkpt lat="28.5064280" lon="-16.1909730">
        <ele>13.9</ele>
        <time>2020-11-11T06:33:27Z</time>
      </trkpt>
      <trkpt lat="28.5064280" lon="-16.1909730">
        <ele>13.9</ele>
        <time>2020-11-11T06:33:28Z</time>
      </trkpt>
      <trkpt lat="28.5064570" lon="-16.1909780">
        <ele>13.9</ele>
        <time>2020-11-11T06:33:29Z</time>
      </trkpt>
      <trkpt lat="28.5064570" lon="-16.1909780">
        <ele>13.9</ele>
        <time>2020-11-11T06:33:30Z</time>
      </trkpt>
      <trkpt lat="28.5064780" lon="-16.1909820">
        <ele>13.9</ele>
        <time>2020-11-11T06:33:31Z</time>
      </trkpt>
      <trkpt lat="28.5064780" lon="-16.1909820">
        <ele>13.9</ele>
        <time>2020-11-11T06:33:32Z</time>
      </trkpt>
      <trkpt lat="28.5065070" lon="-16.1909730">
        <ele>13.9</ele>
        <time>2020-11-11T06:33:33Z</time>
      </trkpt>
      <trkpt lat="28.5065250" lon="-16.1909630">
        <ele>13.9</ele>
        <time>2020-11-11T06:33:34Z</time>
      </trkpt>
      <trkpt lat="28.5065250" lon="-16.1909630">
        <ele>13.9</ele>
        <time>2020-11-11T06:33:35Z</time>
      </trkpt>
      <trkpt lat="28.5065400" lon="-16.1909380">
        <ele>14.9</ele>
        <time>2020-11-11T06:33:36Z</time>
      </trkpt>
      <trkpt lat="28.5065520" lon="-16.1909300">
        <ele>14.9</ele>
        <time>2020-11-11T06:33:37Z</time>
      </trkpt>
      <trkpt lat="28.5065520" lon="-16.1909300">
        <ele>14.9</ele>
        <time>2020-11-11T06:33:38Z</time>
      </trkpt>
      <trkpt lat="28.5065750" lon="-16.1909420">
        <ele>14.9</ele>
        <time>2020-11-11T06:33:39Z</time>
      </trkpt>
      <trkpt lat="28.5065750" lon="-16.1909420">
        <ele>14.9</ele>
        <time>2020-11-11T06:33:40Z</time>
      </trkpt>
      <trkpt lat="28.5065720" lon="-16.1909630">
        <ele>14.9</ele>
        <time>2020-11-11T06:33:41Z</time>
      </trkpt>
      <trkpt lat="28.5065600" lon="-16.1909700">
        <ele>14.9</ele>
        <time>2020-11-11T06:33:42Z</time>
      </trkpt>
      <trkpt lat="28.5065600" lon="-16.1909700">
        <ele>14.9</ele>
        <time>2020-11-11T06:33:43Z</time>
      </trkpt>
      <trkpt lat="28.5065230" lon="-16.1909830">
        <ele>15.9</ele>
        <time>2020-11-11T06:33:44Z</time>
      </trkpt>
      <trkpt lat="28.5065230" lon="-16.1909830">
        <ele>15.9</ele>
        <time>2020-11-11T06:33:45Z</time>
      </trkpt>
      <trkpt lat="28.5064920" lon="-16.1910080">
        <ele>15.9</ele>
        <time>2020-11-11T06:33:46Z</time>
      </trkpt>
      <trkpt lat="28.5064820" lon="-16.1910180">
        <ele>15.9</ele>
        <time>2020-11-11T06:33:47Z</time>
      </trkpt>
      <trkpt lat="28.5064820" lon="-16.1910180">
        <ele>15.9</ele>
        <time>2020-11-11T06:33:48Z</time>
      </trkpt>
      <trkpt lat="28.5064700" lon="-16.1910450">
        <ele>15.9</ele>
        <time>2020-11-11T06:33:49Z</time>
      </trkpt>
      <trkpt lat="28.5064700" lon="-16.1910650">
        <ele>15.9</ele>
        <time>2020-11-11T06:33:50Z</time>
      </trkpt>
      <trkpt lat="28.5064700" lon="-16.1910650">
        <ele>15.9</ele>
        <time>2020-11-11T06:33:51Z</time>
      </trkpt>
      <trkpt lat="28.5064670" lon="-16.1911030">
        <ele>15.9</ele>
        <time>2020-11-11T06:33:52Z</time>
      </trkpt>
      <trkpt lat="28.5064650" lon="-16.1911250">
        <ele>15.9</ele>
        <time>2020-11-11T06:33:53Z</time>
      </trkpt>
      <trkpt lat="28.5064650" lon="-16.1911250">
        <ele>15.9</ele>
        <time>2020-11-11T06:33:54Z</time>
      </trkpt>
      <trkpt lat="28.5064650" lon="-16.1911800">
        <ele>15.9</ele>
        <time>2020-11-11T06:33:55Z</time>
      </trkpt>
      <trkpt lat="28.5064650" lon="-16.1911800">
        <ele>15.9</ele>
        <time>2020-11-11T06:33:56Z</time>
      </trkpt>
      <trkpt lat="28.5064670" lon="-16.1912330">
        <ele>15.9</ele>
        <time>2020-11-11T06:33:57Z</time>
      </trkpt>
      <trkpt lat="28.5064670" lon="-16.1912330">
        <ele>15.9</ele>
        <time>2020-11-11T06:33:58Z</time>
      </trkpt>
      <trkpt lat="28.5064720" lon="-16.1912800">
        <ele>15.9</ele>
        <time>2020-11-11T06:33:59Z</time>
      </trkpt>
      <trkpt lat="28.5064720" lon="-16.1912800">
        <ele>15.9</ele>
        <time>2020-11-11T06:34:00Z</time>
      </trkpt>
      <trkpt lat="28.5064780" lon="-16.1913330">
        <ele>15.9</ele>
        <time>2020-11-11T06:34:01Z</time>
      </trkpt>
      <trkpt lat="28.5064780" lon="-16.1913330">
        <ele>14.9</ele>
        <time>2020-11-11T06:34:02Z</time>
      </trkpt>
      <trkpt lat="28.5064830" lon="-16.1913750">
        <ele>14.9</ele>
        <time>2020-11-11T06:34:03Z</time>
      </trkpt>
      <trkpt lat="28.5064830" lon="-16.1913750">
        <ele>14.9</ele>
        <time>2020-11-11T06:34:04Z</time>
      </trkpt>
      <trkpt lat="28.5064700" lon="-16.1914200">
        <ele>14.9</ele>
        <time>2020-11-11T06:34:05Z</time>
      </trkpt>
      <trkpt lat="28.5064650" lon="-16.1914520">
        <ele>14.9</ele>
        <time>2020-11-11T06:34:06Z</time>
      </trkpt>
      <trkpt lat="28.5064650" lon="-16.1914520">
        <ele>14.9</ele>
        <time>2020-11-11T06:34:07Z</time>
      </trkpt>
      <trkpt lat="28.5064600" lon="-16.1915080">
        <ele>14.9</ele>
        <time>2020-11-11T06:34:08Z</time>
      </trkpt>
      <trkpt lat="28.5064600" lon="-16.1915420">
        <ele>14.9</ele>
        <time>2020-11-11T06:34:09Z</time>
      </trkpt>
      <trkpt lat="28.5064600" lon="-16.1915420">
        <ele>14.9</ele>
        <time>2020-11-11T06:34:10Z</time>
      </trkpt>
      <trkpt lat="28.5064720" lon="-16.1916020">
        <ele>14.9</ele>
        <time>2020-11-11T06:34:11Z</time>
      </trkpt>
      <trkpt lat="28.5064820" lon="-16.1916300">
        <ele>14.9</ele>
        <time>2020-11-11T06:34:12Z</time>
      </trkpt>
      <trkpt lat="28.5064820" lon="-16.1916300">
        <ele>15.9</ele>
        <time>2020-11-11T06:34:13Z</time>
      </trkpt>
      <trkpt lat="28.5064880" lon="-16.1916800">
        <ele>15.9</ele>
        <time>2020-11-11T06:34:14Z</time>
      </trkpt>
      <trkpt lat="28.5064880" lon="-16.1916800">
        <ele>15.9</ele>
        <time>2020-11-11T06:34:15Z</time>
      </trkpt>
      <trkpt lat="28.5064800" lon="-16.1917280">
        <ele>15.9</ele>
        <time>2020-11-11T06:34:16Z</time>
      </trkpt>
      <trkpt lat="28.5064800" lon="-16.1917280">
        <ele>15.9</ele>
        <time>2020-11-11T06:34:17Z</time>
      </trkpt>
      <trkpt lat="28.5064700" lon="-16.1917880">
        <ele>15.9</ele>
        <time>2020-11-11T06:34:18Z</time>
      </trkpt>
      <trkpt lat="28.5064680" lon="-16.1918270">
        <ele>15.9</ele>
        <time>2020-11-11T06:34:19Z</time>
      </trkpt>
      <trkpt lat="28.5064680" lon="-16.1918270">
        <ele>15.9</ele>
        <time>2020-11-11T06:34:20Z</time>
      </trkpt>
      <trkpt lat="28.5064670" lon="-16.1918980">
        <ele>15.9</ele>
        <time>2020-11-11T06:34:21Z</time>
      </trkpt>
      <trkpt lat="28.5064700" lon="-16.1919350">
        <ele>15.9</ele>
        <time>2020-11-11T06:34:22Z</time>
      </trkpt>
      <trkpt lat="28.5064700" lon="-16.1919350">
        <ele>15.9</ele>
        <time>2020-11-11T06:34:23Z</time>
      </trkpt>
      <trkpt lat="28.5064880" lon="-16.1919980">
        <ele>15.9</ele>
        <time>2020-11-11T06:34:24Z</time>
      </trkpt>
      <trkpt lat="28.5064950" lon="-16.1920250">
        <ele>15.9</ele>
        <time>2020-11-11T06:34:25Z</time>
      </trkpt>
      <trkpt lat="28.5064950" lon="-16.1920250">
        <ele>15.9</ele>
        <time>2020-11-11T06:34:26Z</time>
      </trkpt>
      <trkpt lat="28.5065200" lon="-16.1920880">
        <ele>15.9</ele>
        <time>2020-11-11T06:34:27Z</time>
      </trkpt>
      <trkpt lat="28.5065200" lon="-16.1920880">
        <ele>15.9</ele>
        <time>2020-11-11T06:34:28Z</time>
      </trkpt>
      <trkpt lat="28.5065420" lon="-16.1921500">
        <ele>15.9</ele>
        <time>2020-11-11T06:34:29Z</time>
      </trkpt>
      <trkpt lat="28.5065420" lon="-16.1921500">
        <ele>15.9</ele>
        <time>2020-11-11T06:34:30Z</time>
      </trkpt>
      <trkpt lat="28.5065550" lon="-16.1922180">
        <ele>15.9</ele>
        <time>2020-11-11T06:34:31Z</time>
      </trkpt>
      <trkpt lat="28.5065550" lon="-16.1922180">
        <ele>15.9</ele>
        <time>2020-11-11T06:34:32Z</time>
      </trkpt>
      <trkpt lat="28.5065680" lon="-16.1922970">
        <ele>15.9</ele>
        <time>2020-11-11T06:34:33Z</time>
      </trkpt>
      <trkpt lat="28.5065680" lon="-16.1922970">
        <ele>15.9</ele>
        <time>2020-11-11T06:34:34Z</time>
      </trkpt>
      <trkpt lat="28.5065770" lon="-16.1923580">
        <ele>15.9</ele>
        <time>2020-11-11T06:34:35Z</time>
      </trkpt>
      <trkpt lat="28.5065770" lon="-16.1923580">
        <ele>15.9</ele>
        <time>2020-11-11T06:34:36Z</time>
      </trkpt>
      <trkpt lat="28.5065830" lon="-16.1924150">
        <ele>15.9</ele>
        <time>2020-11-11T06:34:37Z</time>
      </trkpt>
      <trkpt lat="28.5065850" lon="-16.1924420">
        <ele>15.9</ele>
        <time>2020-11-11T06:34:38Z</time>
      </trkpt>
      <trkpt lat="28.5065850" lon="-16.1924420">
        <ele>15.9</ele>
        <time>2020-11-11T06:34:39Z</time>
      </trkpt>
      <trkpt lat="28.5065870" lon="-16.1924980">
        <ele>15.9</ele>
        <time>2020-11-11T06:34:40Z</time>
      </trkpt>
      <trkpt lat="28.5065870" lon="-16.1924980">
        <ele>15.9</ele>
        <time>2020-11-11T06:34:41Z</time>
      </trkpt>
      <trkpt lat="28.5065870" lon="-16.1925570">
        <ele>15.9</ele>
        <time>2020-11-11T06:34:42Z</time>
      </trkpt>
      <trkpt lat="28.5065880" lon="-16.1925870">
        <ele>15.9</ele>
        <time>2020-11-11T06:34:43Z</time>
      </trkpt>
      <trkpt lat="28.5065880" lon="-16.1925870">
        <ele>15.9</ele>
        <time>2020-11-11T06:34:44Z</time>
      </trkpt>
      <trkpt lat="28.5065880" lon="-16.1926450">
        <ele>15.9</ele>
        <time>2020-11-11T06:34:45Z</time>
      </trkpt>
      <trkpt lat="28.5065880" lon="-16.1926450">
        <ele>15.9</ele>
        <time>2020-11-11T06:34:46Z</time>
      </trkpt>
      <trkpt lat="28.5065970" lon="-16.1926980">
        <ele>15.9</ele>
        <time>2020-11-11T06:34:47Z</time>
      </trkpt>
      <trkpt lat="28.5065970" lon="-16.1926980">
        <ele>15.9</ele>
        <time>2020-11-11T06:34:48Z</time>
      </trkpt>
      <trkpt lat="28.5066130" lon="-16.1927530">
        <ele>15.9</ele>
        <time>2020-11-11T06:34:49Z</time>
      </trkpt>
      <trkpt lat="28.5066130" lon="-16.1927530">
        <ele>15.9</ele>
        <time>2020-11-11T06:34:50Z</time>
      </trkpt>
      <trkpt lat="28.5066220" lon="-16.1928030">
        <ele>15.9</ele>
        <time>2020-11-11T06:34:51Z</time>
      </trkpt>
      <trkpt lat="28.5066220" lon="-16.1928030">
        <ele>15.9</ele>
        <time>2020-11-11T06:34:52Z</time>
      </trkpt>
      <trkpt lat="28.5066280" lon="-16.1928450">
        <ele>15.9</ele>
        <time>2020-11-11T06:34:53Z</time>
      </trkpt>
      <trkpt lat="28.5066280" lon="-16.1928450">
        <ele>16.9</ele>
        <time>2020-11-11T06:34:54Z</time>
      </trkpt>
      <trkpt lat="28.5066400" lon="-16.1928850">
        <ele>16.9</ele>
        <time>2020-11-11T06:34:55Z</time>
      </trkpt>
      <trkpt lat="28.5066400" lon="-16.1928850">
        <ele>16.9</ele>
        <time>2020-11-11T06:34:56Z</time>
      </trkpt>
      <trkpt lat="28.5066480" lon="-16.1929280">
        <ele>16.9</ele>
        <time>2020-11-11T06:34:57Z</time>
      </trkpt>
      <trkpt lat="28.5066520" lon="-16.1929470">
        <ele>17.9</ele>
        <time>2020-11-11T06:34:58Z</time>
      </trkpt>
      <trkpt lat="28.5066520" lon="-16.1929470">
        <ele>17.9</ele>
        <time>2020-11-11T06:34:59Z</time>
      </trkpt>
      <trkpt lat="28.5066600" lon="-16.1929930">
        <ele>17.9</ele>
        <time>2020-11-11T06:35:00Z</time>
      </trkpt>
      <trkpt lat="28.5066620" lon="-16.1930150">
        <ele>17.9</ele>
        <time>2020-11-11T06:35:01Z</time>
      </trkpt>
      <trkpt lat="28.5066620" lon="-16.1930150">
        <ele>18.9</ele>
        <time>2020-11-11T06:35:02Z</time>
      </trkpt>
      <trkpt lat="28.5066750" lon="-16.1930550">
        <ele>18.9</ele>
        <time>2020-11-11T06:35:03Z</time>
      </trkpt>
      <trkpt lat="28.5066750" lon="-16.1930550">
        <ele>18.9</ele>
        <time>2020-11-11T06:35:04Z</time>
      </trkpt>
      <trkpt lat="28.5066920" lon="-16.1930900">
        <ele>18.9</ele>
        <time>2020-11-11T06:35:05Z</time>
      </trkpt>
      <trkpt lat="28.5066920" lon="-16.1930900">
        <ele>19.9</ele>
        <time>2020-11-11T06:35:06Z</time>
      </trkpt>
      <trkpt lat="28.5067050" lon="-16.1931320">
        <ele>19.9</ele>
        <time>2020-11-11T06:35:07Z</time>
      </trkpt>
      <trkpt lat="28.5067050" lon="-16.1931320">
        <ele>19.9</ele>
        <time>2020-11-11T06:35:08Z</time>
      </trkpt>
      <trkpt lat="28.5067120" lon="-16.1931720">
        <ele>19.9</ele>
        <time>2020-11-11T06:35:09Z</time>
      </trkpt>
      <trkpt lat="28.5067170" lon="-16.1931920">
        <ele>20.9</ele>
        <time>2020-11-11T06:35:10Z</time>
      </trkpt>
      <trkpt lat="28.5067170" lon="-16.1931920">
        <ele>20.9</ele>
        <time>2020-11-11T06:35:11Z</time>
      </trkpt>
      <trkpt lat="28.5067320" lon="-16.1932220">
        <ele>20.9</ele>
        <time>2020-11-11T06:35:12Z</time>
      </trkpt>
      <trkpt lat="28.5067420" lon="-16.1932350">
        <ele>20.9</ele>
        <time>2020-11-11T06:35:13Z</time>
      </trkpt>
      <trkpt lat="28.5067420" lon="-16.1932350">
        <ele>21.9</ele>
        <time>2020-11-11T06:35:14Z</time>
      </trkpt>
      <trkpt lat="28.5067680" lon="-16.1932580">
        <ele>21.9</ele>
        <time>2020-11-11T06:35:15Z</time>
      </trkpt>
      <trkpt lat="28.5067680" lon="-16.1932580">
        <ele>21.9</ele>
        <time>2020-11-11T06:35:16Z</time>
      </trkpt>
      <trkpt lat="28.5068080" lon="-16.1932830">
        <ele>21.9</ele>
        <time>2020-11-11T06:35:17Z</time>
      </trkpt>
      <trkpt lat="28.5068080" lon="-16.1932830">
        <ele>21.9</ele>
        <time>2020-11-11T06:35:18Z</time>
      </trkpt>
      <trkpt lat="28.5068380" lon="-16.1932480">
        <ele>21.9</ele>
        <time>2020-11-11T06:35:19Z</time>
      </trkpt>
      <trkpt lat="28.5068380" lon="-16.1932480">
        <ele>22.9</ele>
        <time>2020-11-11T06:35:20Z</time>
      </trkpt>
      <trkpt lat="28.5068280" lon="-16.1931970">
        <ele>22.9</ele>
        <time>2020-11-11T06:35:21Z</time>
      </trkpt>
      <trkpt lat="28.5068280" lon="-16.1931970">
        <ele>22.9</ele>
        <time>2020-11-11T06:35:22Z</time>
      </trkpt>
      <trkpt lat="28.5068120" lon="-16.1931350">
        <ele>22.9</ele>
        <time>2020-11-11T06:35:23Z</time>
      </trkpt>
      <trkpt lat="28.5068070" lon="-16.1931020">
        <ele>22.9</ele>
        <time>2020-11-11T06:35:24Z</time>
      </trkpt>
      <trkpt lat="28.5068070" lon="-16.1931020">
        <ele>22.9</ele>
        <time>2020-11-11T06:35:25Z</time>
      </trkpt>
      <trkpt lat="28.5068000" lon="-16.1930400">
        <ele>22.9</ele>
        <time>2020-11-11T06:35:26Z</time>
      </trkpt>
      <trkpt lat="28.5068020" lon="-16.1930100">
        <ele>22.9</ele>
        <time>2020-11-11T06:35:27Z</time>
      </trkpt>
      <trkpt lat="28.5068020" lon="-16.1930100">
        <ele>22.9</ele>
        <time>2020-11-11T06:35:28Z</time>
      </trkpt>
      <trkpt lat="28.5068050" lon="-16.1929500">
        <ele>22.9</ele>
        <time>2020-11-11T06:35:29Z</time>
      </trkpt>
      <trkpt lat="28.5068050" lon="-16.1929500">
        <ele>22.9</ele>
        <time>2020-11-11T06:35:30Z</time>
      </trkpt>
      <trkpt lat="28.5068050" lon="-16.1928850">
        <ele>22.9</ele>
        <time>2020-11-11T06:35:31Z</time>
      </trkpt>
      <trkpt lat="28.5068050" lon="-16.1928850">
        <ele>22.9</ele>
        <time>2020-11-11T06:35:32Z</time>
      </trkpt>
      <trkpt lat="28.5068100" lon="-16.1928200">
        <ele>23.9</ele>
        <time>2020-11-11T06:35:33Z</time>
      </trkpt>
      <trkpt lat="28.5068100" lon="-16.1928200">
        <ele>23.9</ele>
        <time>2020-11-11T06:35:34Z</time>
      </trkpt>
      <trkpt lat="28.5068270" lon="-16.1927580">
        <ele>23.9</ele>
        <time>2020-11-11T06:35:35Z</time>
      </trkpt>
      <trkpt lat="28.5068270" lon="-16.1927580">
        <ele>23.9</ele>
        <time>2020-11-11T06:35:36Z</time>
      </trkpt>
      <trkpt lat="28.5068530" lon="-16.1927000">
        <ele>23.9</ele>
        <time>2020-11-11T06:35:37Z</time>
      </trkpt>
      <trkpt lat="28.5068530" lon="-16.1927000">
        <ele>23.9</ele>
        <time>2020-11-11T06:35:38Z</time>
      </trkpt>
      <trkpt lat="28.5068900" lon="-16.1926500">
        <ele>24.9</ele>
        <time>2020-11-11T06:35:39Z</time>
      </trkpt>
      <trkpt lat="28.5069080" lon="-16.1926270">
        <ele>24.9</ele>
        <time>2020-11-11T06:35:40Z</time>
      </trkpt>
      <trkpt lat="28.5069250" lon="-16.1926030">
        <ele>24.9</ele>
        <time>2020-11-11T06:35:41Z</time>
      </trkpt>
      <trkpt lat="28.5069250" lon="-16.1926030">
        <ele>24.9</ele>
        <time>2020-11-11T06:35:42Z</time>
      </trkpt>
      <trkpt lat="28.5069600" lon="-16.1925650">
        <ele>24.9</ele>
        <time>2020-11-11T06:35:43Z</time>
      </trkpt>
      <trkpt lat="28.5069600" lon="-16.1925650">
        <ele>24.9</ele>
        <time>2020-11-11T06:35:44Z</time>
      </trkpt>
      <trkpt lat="28.5069980" lon="-16.1925270">
        <ele>25.9</ele>
        <time>2020-11-11T06:35:45Z</time>
      </trkpt>
      <trkpt lat="28.5070170" lon="-16.1925120">
        <ele>25.9</ele>
        <time>2020-11-11T06:35:46Z</time>
      </trkpt>
      <trkpt lat="28.5070170" lon="-16.1925120">
        <ele>25.9</ele>
        <time>2020-11-11T06:35:47Z</time>
      </trkpt>
      <trkpt lat="28.5070370" lon="-16.1924820">
        <ele>25.9</ele>
        <time>2020-11-11T06:35:48Z</time>
      </trkpt>
      <trkpt lat="28.5070450" lon="-16.1924670">
        <ele>25.9</ele>
        <time>2020-11-11T06:35:49Z</time>
      </trkpt>
      <trkpt lat="28.5070450" lon="-16.1924670">
        <ele>25.9</ele>
        <time>2020-11-11T06:35:50Z</time>
      </trkpt>
      <trkpt lat="28.5070650" lon="-16.1924400">
        <ele>26.9</ele>
        <time>2020-11-11T06:35:51Z</time>
      </trkpt>
      <trkpt lat="28.5070650" lon="-16.1924400">
        <ele>26.9</ele>
        <time>2020-11-11T06:35:52Z</time>
      </trkpt>
      <trkpt lat="28.5070980" lon="-16.1924130">
        <ele>26.9</ele>
        <time>2020-11-11T06:35:53Z</time>
      </trkpt>
      <trkpt lat="28.5070980" lon="-16.1924130">
        <ele>26.9</ele>
        <time>2020-11-11T06:35:54Z</time>
      </trkpt>
      <trkpt lat="28.5071320" lon="-16.1923850">
        <ele>26.9</ele>
        <time>2020-11-11T06:35:55Z</time>
      </trkpt>
      <trkpt lat="28.5071320" lon="-16.1923850">
        <ele>26.9</ele>
        <time>2020-11-11T06:35:56Z</time>
      </trkpt>
      <trkpt lat="28.5071620" lon="-16.1923580">
        <ele>26.9</ele>
        <time>2020-11-11T06:35:57Z</time>
      </trkpt>
      <trkpt lat="28.5071620" lon="-16.1923580">
        <ele>26.9</ele>
        <time>2020-11-11T06:35:58Z</time>
      </trkpt>
      <trkpt lat="28.5071720" lon="-16.1923480">
        <ele>26.9</ele>
        <time>2020-11-11T06:35:59Z</time>
      </trkpt>
      <trkpt lat="28.5071750" lon="-16.1923470">
        <ele>26.9</ele>
        <time>2020-11-11T06:36:00Z</time>
      </trkpt>
      <trkpt lat="28.5071770" lon="-16.1923470">
        <ele>26.9</ele>
        <time>2020-11-11T06:36:01Z</time>
      </trkpt>
      <trkpt lat="28.5072370" lon="-16.1923400">
        <ele>26.9</ele>
        <time>2020-11-11T06:36:50Z</time>
      </trkpt>
      <trkpt lat="28.5072550" lon="-16.1923370">
        <ele>26.9</ele>
        <time>2020-11-11T06:36:51Z</time>
      </trkpt>
      <trkpt lat="28.5072550" lon="-16.1923370">
        <ele>26.9</ele>
        <time>2020-11-11T06:36:52Z</time>
      </trkpt>
      <trkpt lat="28.5073030" lon="-16.1923280">
        <ele>28.9</ele>
        <time>2020-11-11T06:36:53Z</time>
      </trkpt>
      <trkpt lat="28.5073030" lon="-16.1923280">
        <ele>28.9</ele>
        <time>2020-11-11T06:36:54Z</time>
      </trkpt>
      <trkpt lat="28.5073570" lon="-16.1923200">
        <ele>28.9</ele>
        <time>2020-11-11T06:36:55Z</time>
      </trkpt>
      <trkpt lat="28.5073570" lon="-16.1923200">
        <ele>28.9</ele>
        <time>2020-11-11T06:36:56Z</time>
      </trkpt>
      <trkpt lat="28.5074030" lon="-16.1923150">
        <ele>28.9</ele>
        <time>2020-11-11T06:36:57Z</time>
      </trkpt>
      <trkpt lat="28.5074030" lon="-16.1923150">
        <ele>28.9</ele>
        <time>2020-11-11T06:36:58Z</time>
      </trkpt>
      <trkpt lat="28.5074500" lon="-16.1923080">
        <ele>28.9</ele>
        <time>2020-11-11T06:36:59Z</time>
      </trkpt>
      <trkpt lat="28.5074500" lon="-16.1923080">
        <ele>28.9</ele>
        <time>2020-11-11T06:37:00Z</time>
      </trkpt>
      <trkpt lat="28.5074980" lon="-16.1923030">
        <ele>29.9</ele>
        <time>2020-11-11T06:37:01Z</time>
      </trkpt>
      <trkpt lat="28.5074980" lon="-16.1923030">
        <ele>29.9</ele>
        <time>2020-11-11T06:37:02Z</time>
      </trkpt>
      <trkpt lat="28.5075520" lon="-16.1922920">
        <ele>29.9</ele>
        <time>2020-11-11T06:37:03Z</time>
      </trkpt>
      <trkpt lat="28.5075820" lon="-16.1922870">
        <ele>29.9</ele>
        <time>2020-11-11T06:37:04Z</time>
      </trkpt>
      <trkpt lat="28.5076080" lon="-16.1922820">
        <ele>29.9</ele>
        <time>2020-11-11T06:37:05Z</time>
      </trkpt>
      <trkpt lat="28.5076080" lon="-16.1922820">
        <ele>29.9</ele>
        <time>2020-11-11T06:37:06Z</time>
      </trkpt>
      <trkpt lat="28.5076630" lon="-16.1922800">
        <ele>29.9</ele>
        <time>2020-11-11T06:37:07Z</time>
      </trkpt>
      <trkpt lat="28.5076630" lon="-16.1922800">
        <ele>29.9</ele>
        <time>2020-11-11T06:37:08Z</time>
      </trkpt>
      <trkpt lat="28.5077180" lon="-16.1922780">
        <ele>29.9</ele>
        <time>2020-11-11T06:37:09Z</time>
      </trkpt>
      <trkpt lat="28.5077180" lon="-16.1922780">
        <ele>29.9</ele>
        <time>2020-11-11T06:37:10Z</time>
      </trkpt>
      <trkpt lat="28.5077720" lon="-16.1922720">
        <ele>29.9</ele>
        <time>2020-11-11T06:37:11Z</time>
      </trkpt>
      <trkpt lat="28.5078000" lon="-16.1922720">
        <ele>29.9</ele>
        <time>2020-11-11T06:37:12Z</time>
      </trkpt>
      <trkpt lat="28.5078270" lon="-16.1922700">
        <ele>30.9</ele>
        <time>2020-11-11T06:37:13Z</time>
      </trkpt>
      <trkpt lat="28.5078270" lon="-16.1922700">
        <ele>30.9</ele>
        <time>2020-11-11T06:37:14Z</time>
      </trkpt>
      <trkpt lat="28.5078800" lon="-16.1922600">
        <ele>30.9</ele>
        <time>2020-11-11T06:37:15Z</time>
      </trkpt>
      <trkpt lat="28.5078800" lon="-16.1922600">
        <ele>30.9</ele>
        <time>2020-11-11T06:37:16Z</time>
      </trkpt>
      <trkpt lat="28.5079330" lon="-16.1922550">
        <ele>31.9</ele>
        <time>2020-11-11T06:37:17Z</time>
      </trkpt>
      <trkpt lat="28.5079330" lon="-16.1922550">
        <ele>31.9</ele>
        <time>2020-11-11T06:37:18Z</time>
      </trkpt>
      <trkpt lat="28.5079870" lon="-16.1922480">
        <ele>31.9</ele>
        <time>2020-11-11T06:37:19Z</time>
      </trkpt>
      <trkpt lat="28.5079870" lon="-16.1922480">
        <ele>32.9</ele>
        <time>2020-11-11T06:37:20Z</time>
      </trkpt>
      <trkpt lat="28.5080430" lon="-16.1922420">
        <ele>32.9</ele>
        <time>2020-11-11T06:37:21Z</time>
      </trkpt>
      <trkpt lat="28.5080430" lon="-16.1922420">
        <ele>32.9</ele>
        <time>2020-11-11T06:37:22Z</time>
      </trkpt>
      <trkpt lat="28.5081020" lon="-16.1922430">
        <ele>32.9</ele>
        <time>2020-11-11T06:37:23Z</time>
      </trkpt>
      <trkpt lat="28.5081020" lon="-16.1922430">
        <ele>33.9</ele>
        <time>2020-11-11T06:37:24Z</time>
      </trkpt>
      <trkpt lat="28.5081630" lon="-16.1922320">
        <ele>33.9</ele>
        <time>2020-11-11T06:37:25Z</time>
      </trkpt>
      <trkpt lat="28.5081630" lon="-16.1922320">
        <ele>33.9</ele>
        <time>2020-11-11T06:37:26Z</time>
      </trkpt>
      <trkpt lat="28.5082170" lon="-16.1922320">
        <ele>33.9</ele>
        <time>2020-11-11T06:37:27Z</time>
      </trkpt>
      <trkpt lat="28.5082170" lon="-16.1922320">
        <ele>34.9</ele>
        <time>2020-11-11T06:37:28Z</time>
      </trkpt>
      <trkpt lat="28.5082770" lon="-16.1922270">
        <ele>34.9</ele>
        <time>2020-11-11T06:37:29Z</time>
      </trkpt>
      <trkpt lat="28.5082770" lon="-16.1922270">
        <ele>34.9</ele>
        <time>2020-11-11T06:37:30Z</time>
      </trkpt>
      <trkpt lat="28.5083200" lon="-16.1922180">
        <ele>34.9</ele>
        <time>2020-11-11T06:37:31Z</time>
      </trkpt>
      <trkpt lat="28.5083200" lon="-16.1922180">
        <ele>34.9</ele>
        <time>2020-11-11T06:37:32Z</time>
      </trkpt>
      <trkpt lat="28.5083570" lon="-16.1921970">
        <ele>34.9</ele>
        <time>2020-11-11T06:37:33Z</time>
      </trkpt>
      <trkpt lat="28.5083570" lon="-16.1921970">
        <ele>35.9</ele>
        <time>2020-11-11T06:37:34Z</time>
      </trkpt>
      <trkpt lat="28.5084050" lon="-16.1921670">
        <ele>35.9</ele>
        <time>2020-11-11T06:37:35Z</time>
      </trkpt>
      <trkpt lat="28.5084050" lon="-16.1921670">
        <ele>35.9</ele>
        <time>2020-11-11T06:37:36Z</time>
      </trkpt>
      <trkpt lat="28.5084500" lon="-16.1921400">
        <ele>35.9</ele>
        <time>2020-11-11T06:37:37Z</time>
      </trkpt>
      <trkpt lat="28.5084500" lon="-16.1921400">
        <ele>35.9</ele>
        <time>2020-11-11T06:37:38Z</time>
      </trkpt>
      <trkpt lat="28.5084980" lon="-16.1921130">
        <ele>36.9</ele>
        <time>2020-11-11T06:37:39Z</time>
      </trkpt>
      <trkpt lat="28.5084980" lon="-16.1921130">
        <ele>36.9</ele>
        <time>2020-11-11T06:37:40Z</time>
      </trkpt>
      <trkpt lat="28.5085400" lon="-16.1920880">
        <ele>36.9</ele>
        <time>2020-11-11T06:37:41Z</time>
      </trkpt>
      <trkpt lat="28.5085400" lon="-16.1920880">
        <ele>36.9</ele>
        <time>2020-11-11T06:37:42Z</time>
      </trkpt>
      <trkpt lat="28.5085800" lon="-16.1920530">
        <ele>36.9</ele>
        <time>2020-11-11T06:37:43Z</time>
      </trkpt>
      <trkpt lat="28.5085800" lon="-16.1920530">
        <ele>36.9</ele>
        <time>2020-11-11T06:37:44Z</time>
      </trkpt>
      <trkpt lat="28.5086220" lon="-16.1920220">
        <ele>37.9</ele>
        <time>2020-11-11T06:37:45Z</time>
      </trkpt>
      <trkpt lat="28.5086220" lon="-16.1920220">
        <ele>37.9</ele>
        <time>2020-11-11T06:37:46Z</time>
      </trkpt>
      <trkpt lat="28.5086670" lon="-16.1919950">
        <ele>37.9</ele>
        <time>2020-11-11T06:37:47Z</time>
      </trkpt>
      <trkpt lat="28.5086880" lon="-16.1919850">
        <ele>37.9</ele>
        <time>2020-11-11T06:37:48Z</time>
      </trkpt>
      <trkpt lat="28.5087100" lon="-16.1919720">
        <ele>37.9</ele>
        <time>2020-11-11T06:37:49Z</time>
      </trkpt>
      <trkpt lat="28.5087100" lon="-16.1919720">
        <ele>37.9</ele>
        <time>2020-11-11T06:37:50Z</time>
      </trkpt>
      <trkpt lat="28.5087550" lon="-16.1919450">
        <ele>38.9</ele>
        <time>2020-11-11T06:37:51Z</time>
      </trkpt>
      <trkpt lat="28.5087780" lon="-16.1919330">
        <ele>38.9</ele>
        <time>2020-11-11T06:37:52Z</time>
      </trkpt>
      <trkpt lat="28.5087780" lon="-16.1919330">
        <ele>38.9</ele>
        <time>2020-11-11T06:37:53Z</time>
      </trkpt>
      <trkpt lat="28.5088220" lon="-16.1919100">
        <ele>38.9</ele>
        <time>2020-11-11T06:37:54Z</time>
      </trkpt>
      <trkpt lat="28.5088420" lon="-16.1918970">
        <ele>39.9</ele>
        <time>2020-11-11T06:37:55Z</time>
      </trkpt>
      <trkpt lat="28.5088420" lon="-16.1918970">
        <ele>39.9</ele>
        <time>2020-11-11T06:37:56Z</time>
      </trkpt>
      <trkpt lat="28.5088830" lon="-16.1918820">
        <ele>39.9</ele>
        <time>2020-11-11T06:37:57Z</time>
      </trkpt>
      <trkpt lat="28.5089050" lon="-16.1918720">
        <ele>40.9</ele>
        <time>2020-11-11T06:37:58Z</time>
      </trkpt>
      <trkpt lat="28.5089050" lon="-16.1918720">
        <ele>40.9</ele>
        <time>2020-11-11T06:37:59Z</time>
      </trkpt>
      <trkpt lat="28.5089470" lon="-16.1918500">
        <ele>40.9</ele>
        <time>2020-11-11T06:38:00Z</time>
      </trkpt>
      <trkpt lat="28.5089680" lon="-16.1918420">
        <ele>40.9</ele>
        <time>2020-11-11T06:38:01Z</time>
      </trkpt>
      <trkpt lat="28.5089680" lon="-16.1918420">
        <ele>41.9</ele>
        <time>2020-11-11T06:38:02Z</time>
      </trkpt>
      <trkpt lat="28.5090100" lon="-16.1918250">
        <ele>41.9</ele>
        <time>2020-11-11T06:38:03Z</time>
      </trkpt>
      <trkpt lat="28.5090100" lon="-16.1918250">
        <ele>41.9</ele>
        <time>2020-11-11T06:38:04Z</time>
      </trkpt>
      <trkpt lat="28.5090550" lon="-16.1918120">
        <ele>41.9</ele>
        <time>2020-11-11T06:38:05Z</time>
      </trkpt>
      <trkpt lat="28.5090550" lon="-16.1918120">
        <ele>42.9</ele>
        <time>2020-11-11T06:38:06Z</time>
      </trkpt>
      <trkpt lat="28.5091000" lon="-16.1917980">
        <ele>42.9</ele>
        <time>2020-11-11T06:38:07Z</time>
      </trkpt>
      <trkpt lat="28.5091000" lon="-16.1917980">
        <ele>42.9</ele>
        <time>2020-11-11T06:38:08Z</time>
      </trkpt>
      <trkpt lat="28.5091450" lon="-16.1917880">
        <ele>42.9</ele>
        <time>2020-11-11T06:38:09Z</time>
      </trkpt>
      <trkpt lat="28.5091450" lon="-16.1917880">
        <ele>43.9</ele>
        <time>2020-11-11T06:38:10Z</time>
      </trkpt>
      <trkpt lat="28.5091900" lon="-16.1917750">
        <ele>43.9</ele>
        <time>2020-11-11T06:38:11Z</time>
      </trkpt>
      <trkpt lat="28.5092120" lon="-16.1917680">
        <ele>43.9</ele>
        <time>2020-11-11T06:38:12Z</time>
      </trkpt>
      <trkpt lat="28.5092330" lon="-16.1917650">
        <ele>43.9</ele>
        <time>2020-11-11T06:38:13Z</time>
      </trkpt>
      <trkpt lat="28.5092330" lon="-16.1917650">
        <ele>43.9</ele>
        <time>2020-11-11T06:38:14Z</time>
      </trkpt>
      <trkpt lat="28.5092780" lon="-16.1917580">
        <ele>43.9</ele>
        <time>2020-11-11T06:38:15Z</time>
      </trkpt>
      <trkpt lat="28.5092780" lon="-16.1917580">
        <ele>43.9</ele>
        <time>2020-11-11T06:38:16Z</time>
      </trkpt>
      <trkpt lat="28.5093220" lon="-16.1917500">
        <ele>43.9</ele>
        <time>2020-11-11T06:38:17Z</time>
      </trkpt>
      <trkpt lat="28.5093220" lon="-16.1917500">
        <ele>44.9</ele>
        <time>2020-11-11T06:38:18Z</time>
      </trkpt>
      <trkpt lat="28.5093650" lon="-16.1917470">
        <ele>44.9</ele>
        <time>2020-11-11T06:38:19Z</time>
      </trkpt>
      <trkpt lat="28.5093650" lon="-16.1917470">
        <ele>44.9</ele>
        <time>2020-11-11T06:38:20Z</time>
      </trkpt>
      <trkpt lat="28.5094070" lon="-16.1917380">
        <ele>44.9</ele>
        <time>2020-11-11T06:38:21Z</time>
      </trkpt>
      <trkpt lat="28.5094300" lon="-16.1917370">
        <ele>44.9</ele>
        <time>2020-11-11T06:38:22Z</time>
      </trkpt>
      <trkpt lat="28.5094300" lon="-16.1917370">
        <ele>44.9</ele>
        <time>2020-11-11T06:38:23Z</time>
      </trkpt>
      <trkpt lat="28.5094750" lon="-16.1917350">
        <ele>45.9</ele>
        <time>2020-11-11T06:38:24Z</time>
      </trkpt>
      <trkpt lat="28.5095020" lon="-16.1917350">
        <ele>45.9</ele>
        <time>2020-11-11T06:38:25Z</time>
      </trkpt>
      <trkpt lat="28.5095020" lon="-16.1917350">
        <ele>45.9</ele>
        <time>2020-11-11T06:38:26Z</time>
      </trkpt>
      <trkpt lat="28.5095480" lon="-16.1917370">
        <ele>45.9</ele>
        <time>2020-11-11T06:38:27Z</time>
      </trkpt>
      <trkpt lat="28.5095730" lon="-16.1917380">
        <ele>46.9</ele>
        <time>2020-11-11T06:38:28Z</time>
      </trkpt>
      <trkpt lat="28.5095730" lon="-16.1917380">
        <ele>46.9</ele>
        <time>2020-11-11T06:38:29Z</time>
      </trkpt>
      <trkpt lat="28.5096180" lon="-16.1917430">
        <ele>46.9</ele>
        <time>2020-11-11T06:38:30Z</time>
      </trkpt>
      <trkpt lat="28.5096180" lon="-16.1917430">
        <ele>46.9</ele>
        <time>2020-11-11T06:38:31Z</time>
      </trkpt>
      <trkpt lat="28.5096620" lon="-16.1917530">
        <ele>46.9</ele>
        <time>2020-11-11T06:38:32Z</time>
      </trkpt>
      <trkpt lat="28.5096620" lon="-16.1917530">
        <ele>47.9</ele>
        <time>2020-11-11T06:38:33Z</time>
      </trkpt>
      <trkpt lat="28.5097030" lon="-16.1917700">
        <ele>47.9</ele>
        <time>2020-11-11T06:38:34Z</time>
      </trkpt>
      <trkpt lat="28.5097030" lon="-16.1917700">
        <ele>47.9</ele>
        <time>2020-11-11T06:38:35Z</time>
      </trkpt>
      <trkpt lat="28.5097430" lon="-16.1917900">
        <ele>47.9</ele>
        <time>2020-11-11T06:38:36Z</time>
      </trkpt>
      <trkpt lat="28.5097430" lon="-16.1917900">
        <ele>47.9</ele>
        <time>2020-11-11T06:38:37Z</time>
      </trkpt>
      <trkpt lat="28.5097820" lon="-16.1918120">
        <ele>47.9</ele>
        <time>2020-11-11T06:38:38Z</time>
      </trkpt>
      <trkpt lat="28.5097820" lon="-16.1918120">
        <ele>48.9</ele>
        <time>2020-11-11T06:38:39Z</time>
      </trkpt>
      <trkpt lat="28.5098220" lon="-16.1918330">
        <ele>48.9</ele>
        <time>2020-11-11T06:38:40Z</time>
      </trkpt>
      <trkpt lat="28.5098220" lon="-16.1918330">
        <ele>48.9</ele>
        <time>2020-11-11T06:38:41Z</time>
      </trkpt>
      <trkpt lat="28.5098600" lon="-16.1918600">
        <ele>48.9</ele>
        <time>2020-11-11T06:38:42Z</time>
      </trkpt>
      <trkpt lat="28.5098600" lon="-16.1918600">
        <ele>48.9</ele>
        <time>2020-11-11T06:38:43Z</time>
      </trkpt>
      <trkpt lat="28.5099000" lon="-16.1918830">
        <ele>48.9</ele>
        <time>2020-11-11T06:38:44Z</time>
      </trkpt>
      <trkpt lat="28.5099000" lon="-16.1918830">
        <ele>48.9</ele>
        <time>2020-11-11T06:38:45Z</time>
      </trkpt>
      <trkpt lat="28.5099350" lon="-16.1919130">
        <ele>48.9</ele>
        <time>2020-11-11T06:38:46Z</time>
      </trkpt>
      <trkpt lat="28.5099350" lon="-16.1919130">
        <ele>48.9</ele>
        <time>2020-11-11T06:38:47Z</time>
      </trkpt>
      <trkpt lat="28.5099680" lon="-16.1919450">
        <ele>48.9</ele>
        <time>2020-11-11T06:38:48Z</time>
      </trkpt>
      <trkpt lat="28.5099830" lon="-16.1919630">
        <ele>48.9</ele>
        <time>2020-11-11T06:38:49Z</time>
      </trkpt>
      <trkpt lat="28.5099830" lon="-16.1919630">
        <ele>49.9</ele>
        <time>2020-11-11T06:38:50Z</time>
      </trkpt>
      <trkpt lat="28.5100150" lon="-16.1919970">
        <ele>49.9</ele>
        <time>2020-11-11T06:38:51Z</time>
      </trkpt>
      <trkpt lat="28.5100320" lon="-16.1920130">
        <ele>49.9</ele>
        <time>2020-11-11T06:38:52Z</time>
      </trkpt>
      <trkpt lat="28.5100320" lon="-16.1920130">
        <ele>49.9</ele>
        <time>2020-11-11T06:38:53Z</time>
      </trkpt>
      <trkpt lat="28.5100680" lon="-16.1920450">
        <ele>50.9</ele>
        <time>2020-11-11T06:38:54Z</time>
      </trkpt>
      <trkpt lat="28.5100680" lon="-16.1920450">
        <ele>50.9</ele>
        <time>2020-11-11T06:38:55Z</time>
      </trkpt>
      <trkpt lat="28.5101050" lon="-16.1920770">
        <ele>50.9</ele>
        <time>2020-11-11T06:38:56Z</time>
      </trkpt>
      <trkpt lat="28.5101050" lon="-16.1920770">
        <ele>50.9</ele>
        <time>2020-11-11T06:38:57Z</time>
      </trkpt>
      <trkpt lat="28.5101380" lon="-16.1921120">
        <ele>51.9</ele>
        <time>2020-11-11T06:38:58Z</time>
      </trkpt>
      <trkpt lat="28.5101550" lon="-16.1921270">
        <ele>51.9</ele>
        <time>2020-11-11T06:38:59Z</time>
      </trkpt>
      <trkpt lat="28.5101720" lon="-16.1921450">
        <ele>51.9</ele>
        <time>2020-11-11T06:39:00Z</time>
      </trkpt>
      <trkpt lat="28.5101880" lon="-16.1921650">
        <ele>51.9</ele>
        <time>2020-11-11T06:39:01Z</time>
      </trkpt>
      <trkpt lat="28.5101880" lon="-16.1921650">
        <ele>51.9</ele>
        <time>2020-11-11T06:39:02Z</time>
      </trkpt>
      <trkpt lat="28.5102230" lon="-16.1921950">
        <ele>51.9</ele>
        <time>2020-11-11T06:39:03Z</time>
      </trkpt>
      <trkpt lat="28.5102230" lon="-16.1921950">
        <ele>52.9</ele>
        <time>2020-11-11T06:39:04Z</time>
      </trkpt>
      <trkpt lat="28.5102670" lon="-16.1922280">
        <ele>52.9</ele>
        <time>2020-11-11T06:39:05Z</time>
      </trkpt>
      <trkpt lat="28.5102870" lon="-16.1922420">
        <ele>52.9</ele>
        <time>2020-11-11T06:39:06Z</time>
      </trkpt>
      <trkpt lat="28.5103070" lon="-16.1922570">
        <ele>52.9</ele>
        <time>2020-11-11T06:39:07Z</time>
      </trkpt>
      <trkpt lat="28.5103280" lon="-16.1922680">
        <ele>52.9</ele>
        <time>2020-11-11T06:39:08Z</time>
      </trkpt>
      <trkpt lat="28.5103280" lon="-16.1922680">
        <ele>52.9</ele>
        <time>2020-11-11T06:39:09Z</time>
      </trkpt>
      <trkpt lat="28.5103730" lon="-16.1922900">
        <ele>53.9</ele>
        <time>2020-11-11T06:39:10Z</time>
      </trkpt>
      <trkpt lat="28.5103730" lon="-16.1922900">
        <ele>53.9</ele>
        <time>2020-11-11T06:39:11Z</time>
      </trkpt>
      <trkpt lat="28.5104050" lon="-16.1923100">
        <ele>53.9</ele>
        <time>2020-11-11T06:39:12Z</time>
      </trkpt>
      <trkpt lat="28.5104230" lon="-16.1923220">
        <ele>54.9</ele>
        <time>2020-11-11T06:39:13Z</time>
      </trkpt>
      <trkpt lat="28.5104230" lon="-16.1923220">
        <ele>54.9</ele>
        <time>2020-11-11T06:39:14Z</time>
      </trkpt>
      <trkpt lat="28.5104630" lon="-16.1923420">
        <ele>54.9</ele>
        <time>2020-11-11T06:39:15Z</time>
      </trkpt>
      <trkpt lat="28.5104630" lon="-16.1923420">
        <ele>54.9</ele>
        <time>2020-11-11T06:39:16Z</time>
      </trkpt>
      <trkpt lat="28.5105020" lon="-16.1923620">
        <ele>54.9</ele>
        <time>2020-11-11T06:39:17Z</time>
      </trkpt>
      <trkpt lat="28.5105220" lon="-16.1923680">
        <ele>54.9</ele>
        <time>2020-11-11T06:39:18Z</time>
      </trkpt>
      <trkpt lat="28.5105220" lon="-16.1923680">
        <ele>54.9</ele>
        <time>2020-11-11T06:39:19Z</time>
      </trkpt>
      <trkpt lat="28.5105680" lon="-16.1923750">
        <ele>54.9</ele>
        <time>2020-11-11T06:39:20Z</time>
      </trkpt>
      <trkpt lat="28.5105680" lon="-16.1923750">
        <ele>55.9</ele>
        <time>2020-11-11T06:39:21Z</time>
      </trkpt>
      <trkpt lat="28.5106130" lon="-16.1923850">
        <ele>55.9</ele>
        <time>2020-11-11T06:39:22Z</time>
      </trkpt>
      <trkpt lat="28.5106130" lon="-16.1923850">
        <ele>55.9</ele>
        <time>2020-11-11T06:39:23Z</time>
      </trkpt>
      <trkpt lat="28.5106570" lon="-16.1923870">
        <ele>55.9</ele>
        <time>2020-11-11T06:39:24Z</time>
      </trkpt>
      <trkpt lat="28.5106570" lon="-16.1923870">
        <ele>56.9</ele>
        <time>2020-11-11T06:39:25Z</time>
      </trkpt>
      <trkpt lat="28.5107020" lon="-16.1923820">
        <ele>56.9</ele>
        <time>2020-11-11T06:39:26Z</time>
      </trkpt>
      <trkpt lat="28.5107020" lon="-16.1923820">
        <ele>56.9</ele>
        <time>2020-11-11T06:39:27Z</time>
      </trkpt>
      <trkpt lat="28.5107480" lon="-16.1923770">
        <ele>56.9</ele>
        <time>2020-11-11T06:39:28Z</time>
      </trkpt>
      <trkpt lat="28.5107720" lon="-16.1923770">
        <ele>56.9</ele>
        <time>2020-11-11T06:39:29Z</time>
      </trkpt>
      <trkpt lat="28.5107720" lon="-16.1923770">
        <ele>56.9</ele>
        <time>2020-11-11T06:39:30Z</time>
      </trkpt>
      <trkpt lat="28.5108200" lon="-16.1923820">
        <ele>56.9</ele>
        <time>2020-11-11T06:39:31Z</time>
      </trkpt>
      <trkpt lat="28.5108200" lon="-16.1923820">
        <ele>56.9</ele>
        <time>2020-11-11T06:39:32Z</time>
      </trkpt>
      <trkpt lat="28.5108680" lon="-16.1923930">
        <ele>57.9</ele>
        <time>2020-11-11T06:39:33Z</time>
      </trkpt>
      <trkpt lat="28.5108680" lon="-16.1923930">
        <ele>57.9</ele>
        <time>2020-11-11T06:39:34Z</time>
      </trkpt>
      <trkpt lat="28.5109150" lon="-16.1924150">
        <ele>58.9</ele>
        <time>2020-11-11T06:39:35Z</time>
      </trkpt>
      <trkpt lat="28.5109400" lon="-16.1924270">
        <ele>58.9</ele>
        <time>2020-11-11T06:39:36Z</time>
      </trkpt>
      <trkpt lat="28.5109400" lon="-16.1924270">
        <ele>58.9</ele>
        <time>2020-11-11T06:39:37Z</time>
      </trkpt>
      <trkpt lat="28.5109720" lon="-16.1924400">
        <ele>58.9</ele>
        <time>2020-11-11T06:39:38Z</time>
      </trkpt>
      <trkpt lat="28.5109720" lon="-16.1924400">
        <ele>59.9</ele>
        <time>2020-11-11T06:39:39Z</time>
      </trkpt>
      <trkpt lat="28.5110180" lon="-16.1924480">
        <ele>59.9</ele>
        <time>2020-11-11T06:39:40Z</time>
      </trkpt>
      <trkpt lat="28.5110180" lon="-16.1924480">
        <ele>59.9</ele>
        <time>2020-11-11T06:39:41Z</time>
      </trkpt>
      <trkpt lat="28.5110680" lon="-16.1924570">
        <ele>59.9</ele>
        <time>2020-11-11T06:39:42Z</time>
      </trkpt>
      <trkpt lat="28.5110930" lon="-16.1924580">
        <ele>59.9</ele>
        <time>2020-11-11T06:39:43Z</time>
      </trkpt>
      <trkpt lat="28.5110930" lon="-16.1924580">
        <ele>59.9</ele>
        <time>2020-11-11T06:39:44Z</time>
      </trkpt>
      <trkpt lat="28.5111470" lon="-16.1924670">
        <ele>60.9</ele>
        <time>2020-11-11T06:39:45Z</time>
      </trkpt>
      <trkpt lat="28.5111680" lon="-16.1924650">
        <ele>60.9</ele>
        <time>2020-11-11T06:39:46Z</time>
      </trkpt>
      <trkpt lat="28.5111680" lon="-16.1924650">
        <ele>60.9</ele>
        <time>2020-11-11T06:39:47Z</time>
      </trkpt>
      <trkpt lat="28.5112120" lon="-16.1924600">
        <ele>61.9</ele>
        <time>2020-11-11T06:39:48Z</time>
      </trkpt>
      <trkpt lat="28.5112330" lon="-16.1924570">
        <ele>61.9</ele>
        <time>2020-11-11T06:39:49Z</time>
      </trkpt>
      <trkpt lat="28.5112550" lon="-16.1924500">
        <ele>61.9</ele>
        <time>2020-11-11T06:39:50Z</time>
      </trkpt>
      <trkpt lat="28.5112550" lon="-16.1924500">
        <ele>61.9</ele>
        <time>2020-11-11T06:39:51Z</time>
      </trkpt>
      <trkpt lat="28.5113000" lon="-16.1924420">
        <ele>61.9</ele>
        <time>2020-11-11T06:39:52Z</time>
      </trkpt>
      <trkpt lat="28.5113000" lon="-16.1924420">
        <ele>61.9</ele>
        <time>2020-11-11T06:39:53Z</time>
      </trkpt>
      <trkpt lat="28.5113430" lon="-16.1924370">
        <ele>62.9</ele>
        <time>2020-11-11T06:39:54Z</time>
      </trkpt>
      <trkpt lat="28.5113670" lon="-16.1924330">
        <ele>62.9</ele>
        <time>2020-11-11T06:39:55Z</time>
      </trkpt>
      <trkpt lat="28.5113670" lon="-16.1924330">
        <ele>62.9</ele>
        <time>2020-11-11T06:39:56Z</time>
      </trkpt>
      <trkpt lat="28.5114170" lon="-16.1924280">
        <ele>62.9</ele>
        <time>2020-11-11T06:39:57Z</time>
      </trkpt>
      <trkpt lat="28.5114170" lon="-16.1924280">
        <ele>62.9</ele>
        <time>2020-11-11T06:39:58Z</time>
      </trkpt>
      <trkpt lat="28.5114600" lon="-16.1924170">
        <ele>62.9</ele>
        <time>2020-11-11T06:39:59Z</time>
      </trkpt>
      <trkpt lat="28.5114600" lon="-16.1924170">
        <ele>63.9</ele>
        <time>2020-11-11T06:40:00Z</time>
      </trkpt>
      <trkpt lat="28.5115050" lon="-16.1924030">
        <ele>63.9</ele>
        <time>2020-11-11T06:40:01Z</time>
      </trkpt>
      <trkpt lat="28.5115050" lon="-16.1924030">
        <ele>63.9</ele>
        <time>2020-11-11T06:40:02Z</time>
      </trkpt>
      <trkpt lat="28.5115530" lon="-16.1923950">
        <ele>63.9</ele>
        <time>2020-11-11T06:40:03Z</time>
      </trkpt>
      <trkpt lat="28.5115530" lon="-16.1923950">
        <ele>63.9</ele>
        <time>2020-11-11T06:40:04Z</time>
      </trkpt>
      <trkpt lat="28.5115980" lon="-16.1923830">
        <ele>63.9</ele>
        <time>2020-11-11T06:40:05Z</time>
      </trkpt>
      <trkpt lat="28.5115980" lon="-16.1923830">
        <ele>63.9</ele>
        <time>2020-11-11T06:40:06Z</time>
      </trkpt>
      <trkpt lat="28.5116500" lon="-16.1923720">
        <ele>63.9</ele>
        <time>2020-11-11T06:40:07Z</time>
      </trkpt>
      <trkpt lat="28.5116500" lon="-16.1923720">
        <ele>64.9</ele>
        <time>2020-11-11T06:40:08Z</time>
      </trkpt>
      <trkpt lat="28.5117000" lon="-16.1923620">
        <ele>64.9</ele>
        <time>2020-11-11T06:40:09Z</time>
      </trkpt>
      <trkpt lat="28.5117000" lon="-16.1923620">
        <ele>64.9</ele>
        <time>2020-11-11T06:40:10Z</time>
      </trkpt>
      <trkpt lat="28.5117480" lon="-16.1923500">
        <ele>64.9</ele>
        <time>2020-11-11T06:40:11Z</time>
      </trkpt>
      <trkpt lat="28.5117480" lon="-16.1923500">
        <ele>64.9</ele>
        <time>2020-11-11T06:40:12Z</time>
      </trkpt>
      <trkpt lat="28.5117970" lon="-16.1923350">
        <ele>64.9</ele>
        <time>2020-11-11T06:40:13Z</time>
      </trkpt>
      <trkpt lat="28.5117970" lon="-16.1923350">
        <ele>64.9</ele>
        <time>2020-11-11T06:40:14Z</time>
      </trkpt>
      <trkpt lat="28.5118470" lon="-16.1923220">
        <ele>65.9</ele>
        <time>2020-11-11T06:40:15Z</time>
      </trkpt>
      <trkpt lat="28.5118470" lon="-16.1923220">
        <ele>65.9</ele>
        <time>2020-11-11T06:40:16Z</time>
      </trkpt>
      <trkpt lat="28.5118930" lon="-16.1923120">
        <ele>65.9</ele>
        <time>2020-11-11T06:40:17Z</time>
      </trkpt>
      <trkpt lat="28.5118930" lon="-16.1923120">
        <ele>65.9</ele>
        <time>2020-11-11T06:40:18Z</time>
      </trkpt>
      <trkpt lat="28.5119420" lon="-16.1923070">
        <ele>65.9</ele>
        <time>2020-11-11T06:40:19Z</time>
      </trkpt>
      <trkpt lat="28.5119420" lon="-16.1923070">
        <ele>65.9</ele>
        <time>2020-11-11T06:40:20Z</time>
      </trkpt>
      <trkpt lat="28.5119900" lon="-16.1922950">
        <ele>65.9</ele>
        <time>2020-11-11T06:40:21Z</time>
      </trkpt>
      <trkpt lat="28.5120120" lon="-16.1922850">
        <ele>65.9</ele>
        <time>2020-11-11T06:40:22Z</time>
      </trkpt>
      <trkpt lat="28.5120350" lon="-16.1922730">
        <ele>66.9</ele>
        <time>2020-11-11T06:40:23Z</time>
      </trkpt>
      <trkpt lat="28.5120350" lon="-16.1922730">
        <ele>66.9</ele>
        <time>2020-11-11T06:40:24Z</time>
      </trkpt>
      <trkpt lat="28.5120820" lon="-16.1922420">
        <ele>66.9</ele>
        <time>2020-11-11T06:40:25Z</time>
      </trkpt>
      <trkpt lat="28.5120820" lon="-16.1922420">
        <ele>66.9</ele>
        <time>2020-11-11T06:40:26Z</time>
      </trkpt>
      <trkpt lat="28.5121300" lon="-16.1922070">
        <ele>66.9</ele>
        <time>2020-11-11T06:40:27Z</time>
      </trkpt>
      <trkpt lat="28.5121550" lon="-16.1921880">
        <ele>66.9</ele>
        <time>2020-11-11T06:40:28Z</time>
      </trkpt>
      <trkpt lat="28.5121550" lon="-16.1921880">
        <ele>66.9</ele>
        <time>2020-11-11T06:40:29Z</time>
      </trkpt>
      <trkpt lat="28.5122050" lon="-16.1921520">
        <ele>66.9</ele>
        <time>2020-11-11T06:40:30Z</time>
      </trkpt>
      <trkpt lat="28.5122050" lon="-16.1921520">
        <ele>66.9</ele>
        <time>2020-11-11T06:40:31Z</time>
      </trkpt>
      <trkpt lat="28.5122570" lon="-16.1921180">
        <ele>66.9</ele>
        <time>2020-11-11T06:40:32Z</time>
      </trkpt>
      <trkpt lat="28.5122570" lon="-16.1921180">
        <ele>66.9</ele>
        <time>2020-11-11T06:40:33Z</time>
      </trkpt>
      <trkpt lat="28.5123170" lon="-16.1920930">
        <ele>66.9</ele>
        <time>2020-11-11T06:40:34Z</time>
      </trkpt>
      <trkpt lat="28.5123470" lon="-16.1920820">
        <ele>66.9</ele>
        <time>2020-11-11T06:40:35Z</time>
      </trkpt>
      <trkpt lat="28.5123470" lon="-16.1920820">
        <ele>66.9</ele>
        <time>2020-11-11T06:40:36Z</time>
      </trkpt>
      <trkpt lat="28.5124050" lon="-16.1920600">
        <ele>66.9</ele>
        <time>2020-11-11T06:40:37Z</time>
      </trkpt>
      <trkpt lat="28.5124050" lon="-16.1920600">
        <ele>66.9</ele>
        <time>2020-11-11T06:40:38Z</time>
      </trkpt>
      <trkpt lat="28.5124680" lon="-16.1920430">
        <ele>66.9</ele>
        <time>2020-11-11T06:40:39Z</time>
      </trkpt>
      <trkpt lat="28.5124680" lon="-16.1920430">
        <ele>66.9</ele>
        <time>2020-11-11T06:40:40Z</time>
      </trkpt>
      <trkpt lat="28.5125350" lon="-16.1920300">
        <ele>66.9</ele>
        <time>2020-11-11T06:40:41Z</time>
      </trkpt>
      <trkpt lat="28.5125350" lon="-16.1920300">
        <ele>66.9</ele>
        <time>2020-11-11T06:40:42Z</time>
      </trkpt>
      <trkpt lat="28.5126070" lon="-16.1920230">
        <ele>66.9</ele>
        <time>2020-11-11T06:40:43Z</time>
      </trkpt>
      <trkpt lat="28.5126070" lon="-16.1920230">
        <ele>66.9</ele>
        <time>2020-11-11T06:40:44Z</time>
      </trkpt>
      <trkpt lat="28.5126800" lon="-16.1920070">
        <ele>66.9</ele>
        <time>2020-11-11T06:40:45Z</time>
      </trkpt>
      <trkpt lat="28.5126800" lon="-16.1920070">
        <ele>66.9</ele>
        <time>2020-11-11T06:40:46Z</time>
      </trkpt>
      <trkpt lat="28.5127520" lon="-16.1920000">
        <ele>66.9</ele>
        <time>2020-11-11T06:40:47Z</time>
      </trkpt>
      <trkpt lat="28.5127520" lon="-16.1920000">
        <ele>66.9</ele>
        <time>2020-11-11T06:40:48Z</time>
      </trkpt>
      <trkpt lat="28.5128250" lon="-16.1920000">
        <ele>66.9</ele>
        <time>2020-11-11T06:40:49Z</time>
      </trkpt>
      <trkpt lat="28.5128250" lon="-16.1920000">
        <ele>66.9</ele>
        <time>2020-11-11T06:40:50Z</time>
      </trkpt>
      <trkpt lat="28.5128900" lon="-16.1920250">
        <ele>66.9</ele>
        <time>2020-11-11T06:40:51Z</time>
      </trkpt>
      <trkpt lat="28.5129170" lon="-16.1920480">
        <ele>66.9</ele>
        <time>2020-11-11T06:40:52Z</time>
      </trkpt>
      <trkpt lat="28.5129170" lon="-16.1920480">
        <ele>66.9</ele>
        <time>2020-11-11T06:40:53Z</time>
      </trkpt>
      <trkpt lat="28.5129620" lon="-16.1921150">
        <ele>66.9</ele>
        <time>2020-11-11T06:40:54Z</time>
      </trkpt>
      <trkpt lat="28.5129720" lon="-16.1921570">
        <ele>67.9</ele>
        <time>2020-11-11T06:40:55Z</time>
      </trkpt>
      <trkpt lat="28.5129750" lon="-16.1921980">
        <ele>67.9</ele>
        <time>2020-11-11T06:40:56Z</time>
      </trkpt>
      <trkpt lat="28.5129750" lon="-16.1921980">
        <ele>67.9</ele>
        <time>2020-11-11T06:40:57Z</time>
      </trkpt>
      <trkpt lat="28.5129750" lon="-16.1922850">
        <ele>67.9</ele>
        <time>2020-11-11T06:40:58Z</time>
      </trkpt>
      <trkpt lat="28.5129750" lon="-16.1923280">
        <ele>67.9</ele>
        <time>2020-11-11T06:40:59Z</time>
      </trkpt>
      <trkpt lat="28.5129750" lon="-16.1923280">
        <ele>67.9</ele>
        <time>2020-11-11T06:41:00Z</time>
      </trkpt>
      <trkpt lat="28.5129730" lon="-16.1924180">
        <ele>67.9</ele>
        <time>2020-11-11T06:41:01Z</time>
      </trkpt>
      <trkpt lat="28.5129720" lon="-16.1924630">
        <ele>67.9</ele>
        <time>2020-11-11T06:41:02Z</time>
      </trkpt>
      <trkpt lat="28.5129720" lon="-16.1924630">
        <ele>67.9</ele>
        <time>2020-11-11T06:41:03Z</time>
      </trkpt>
      <trkpt lat="28.5129650" lon="-16.1925550">
        <ele>67.9</ele>
        <time>2020-11-11T06:41:04Z</time>
      </trkpt>
      <trkpt lat="28.5129620" lon="-16.1926000">
        <ele>67.9</ele>
        <time>2020-11-11T06:41:05Z</time>
      </trkpt>
      <trkpt lat="28.5129620" lon="-16.1926000">
        <ele>67.9</ele>
        <time>2020-11-11T06:41:06Z</time>
      </trkpt>
      <trkpt lat="28.5129550" lon="-16.1926900">
        <ele>67.9</ele>
        <time>2020-11-11T06:41:07Z</time>
      </trkpt>
      <trkpt lat="28.5129550" lon="-16.1926900">
        <ele>67.9</ele>
        <time>2020-11-11T06:41:08Z</time>
      </trkpt>
      <trkpt lat="28.5129500" lon="-16.1927820">
        <ele>67.9</ele>
        <time>2020-11-11T06:41:09Z</time>
      </trkpt>
      <trkpt lat="28.5129500" lon="-16.1927820">
        <ele>67.9</ele>
        <time>2020-11-11T06:41:10Z</time>
      </trkpt>
      <trkpt lat="28.5129400" lon="-16.1928580">
        <ele>67.9</ele>
        <time>2020-11-11T06:41:11Z</time>
      </trkpt>
      <trkpt lat="28.5129370" lon="-16.1929030">
        <ele>67.9</ele>
        <time>2020-11-11T06:41:12Z</time>
      </trkpt>
      <trkpt lat="28.5129370" lon="-16.1929030">
        <ele>67.9</ele>
        <time>2020-11-11T06:41:13Z</time>
      </trkpt>
      <trkpt lat="28.5129270" lon="-16.1929850">
        <ele>68.9</ele>
        <time>2020-11-11T06:41:14Z</time>
      </trkpt>
      <trkpt lat="28.5129270" lon="-16.1929850">
        <ele>68.9</ele>
        <time>2020-11-11T06:41:15Z</time>
      </trkpt>
      <trkpt lat="28.5129200" lon="-16.1930650">
        <ele>68.9</ele>
        <time>2020-11-11T06:41:16Z</time>
      </trkpt>
      <trkpt lat="28.5129200" lon="-16.1930650">
        <ele>68.9</ele>
        <time>2020-11-11T06:41:17Z</time>
      </trkpt>
      <trkpt lat="28.5129250" lon="-16.1931480">
        <ele>68.9</ele>
        <time>2020-11-11T06:41:18Z</time>
      </trkpt>
      <trkpt lat="28.5129330" lon="-16.1931900">
        <ele>68.9</ele>
        <time>2020-11-11T06:41:19Z</time>
      </trkpt>
      <trkpt lat="28.5129330" lon="-16.1931900">
        <ele>68.9</ele>
        <time>2020-11-11T06:41:20Z</time>
      </trkpt>
      <trkpt lat="28.5129500" lon="-16.1932670">
        <ele>68.9</ele>
        <time>2020-11-11T06:41:21Z</time>
      </trkpt>
      <trkpt lat="28.5129500" lon="-16.1932670">
        <ele>68.9</ele>
        <time>2020-11-11T06:41:22Z</time>
      </trkpt>
      <trkpt lat="28.5129830" lon="-16.1933420">
        <ele>69.9</ele>
        <time>2020-11-11T06:41:23Z</time>
      </trkpt>
      <trkpt lat="28.5129830" lon="-16.1933420">
        <ele>69.9</ele>
        <time>2020-11-11T06:41:24Z</time>
      </trkpt>
      <trkpt lat="28.5130230" lon="-16.1934080">
        <ele>69.9</ele>
        <time>2020-11-11T06:41:25Z</time>
      </trkpt>
      <trkpt lat="28.5130450" lon="-16.1934400">
        <ele>69.9</ele>
        <time>2020-11-11T06:41:26Z</time>
      </trkpt>
      <trkpt lat="28.5130650" lon="-16.1934720">
        <ele>69.9</ele>
        <time>2020-11-11T06:41:27Z</time>
      </trkpt>
      <trkpt lat="28.5130650" lon="-16.1934720">
        <ele>69.9</ele>
        <time>2020-11-11T06:41:28Z</time>
      </trkpt>
      <trkpt lat="28.5131080" lon="-16.1935350">
        <ele>70.9</ele>
        <time>2020-11-11T06:41:29Z</time>
      </trkpt>
      <trkpt lat="28.5131270" lon="-16.1935670">
        <ele>70.9</ele>
        <time>2020-11-11T06:41:30Z</time>
      </trkpt>
      <trkpt lat="28.5131420" lon="-16.1936000">
        <ele>70.9</ele>
        <time>2020-11-11T06:41:31Z</time>
      </trkpt>
      <trkpt lat="28.5131420" lon="-16.1936000">
        <ele>70.9</ele>
        <time>2020-11-11T06:41:32Z</time>
      </trkpt>
      <trkpt lat="28.5131620" lon="-16.1936600">
        <ele>70.9</ele>
        <time>2020-11-11T06:41:33Z</time>
      </trkpt>
      <trkpt lat="28.5131620" lon="-16.1936600">
        <ele>70.9</ele>
        <time>2020-11-11T06:41:34Z</time>
      </trkpt>
      <trkpt lat="28.5131770" lon="-16.1937220">
        <ele>71.9</ele>
        <time>2020-11-11T06:41:35Z</time>
      </trkpt>
      <trkpt lat="28.5131850" lon="-16.1937550">
        <ele>71.9</ele>
        <time>2020-11-11T06:41:36Z</time>
      </trkpt>
      <trkpt lat="28.5131850" lon="-16.1937550">
        <ele>71.9</ele>
        <time>2020-11-11T06:41:37Z</time>
      </trkpt>
      <trkpt lat="28.5132020" lon="-16.1938180">
        <ele>71.9</ele>
        <time>2020-11-11T06:41:38Z</time>
      </trkpt>
      <trkpt lat="28.5132020" lon="-16.1938180">
        <ele>71.9</ele>
        <time>2020-11-11T06:41:39Z</time>
      </trkpt>
      <trkpt lat="28.5132150" lon="-16.1938850">
        <ele>71.9</ele>
        <time>2020-11-11T06:41:40Z</time>
      </trkpt>
      <trkpt lat="28.5132150" lon="-16.1938850">
        <ele>71.9</ele>
        <time>2020-11-11T06:41:41Z</time>
      </trkpt>
      <trkpt lat="28.5132320" lon="-16.1939520">
        <ele>72.9</ele>
        <time>2020-11-11T06:41:42Z</time>
      </trkpt>
      <trkpt lat="28.5132420" lon="-16.1939870">
        <ele>72.9</ele>
        <time>2020-11-11T06:41:43Z</time>
      </trkpt>
      <trkpt lat="28.5132420" lon="-16.1939870">
        <ele>72.9</ele>
        <time>2020-11-11T06:41:44Z</time>
      </trkpt>
      <trkpt lat="28.5132570" lon="-16.1940470">
        <ele>72.9</ele>
        <time>2020-11-11T06:41:45Z</time>
      </trkpt>
      <trkpt lat="28.5132570" lon="-16.1940470">
        <ele>72.9</ele>
        <time>2020-11-11T06:41:46Z</time>
      </trkpt>
      <trkpt lat="28.5132730" lon="-16.1941030">
        <ele>73.9</ele>
        <time>2020-11-11T06:41:47Z</time>
      </trkpt>
      <trkpt lat="28.5132730" lon="-16.1941030">
        <ele>73.9</ele>
        <time>2020-11-11T06:41:48Z</time>
      </trkpt>
      <trkpt lat="28.5132920" lon="-16.1941650">
        <ele>73.9</ele>
        <time>2020-11-11T06:41:49Z</time>
      </trkpt>
      <trkpt lat="28.5132920" lon="-16.1941650">
        <ele>73.9</ele>
        <time>2020-11-11T06:41:50Z</time>
      </trkpt>
      <trkpt lat="28.5133100" lon="-16.1942280">
        <ele>73.9</ele>
        <time>2020-11-11T06:41:51Z</time>
      </trkpt>
      <trkpt lat="28.5133100" lon="-16.1942280">
        <ele>73.9</ele>
        <time>2020-11-11T06:41:52Z</time>
      </trkpt>
      <trkpt lat="28.5133270" lon="-16.1942900">
        <ele>73.9</ele>
        <time>2020-11-11T06:41:53Z</time>
      </trkpt>
      <trkpt lat="28.5133370" lon="-16.1943200">
        <ele>73.9</ele>
        <time>2020-11-11T06:41:54Z</time>
      </trkpt>
      <trkpt lat="28.5133370" lon="-16.1943200">
        <ele>73.9</ele>
        <time>2020-11-11T06:41:55Z</time>
      </trkpt>
      <trkpt lat="28.5133550" lon="-16.1943820">
        <ele>73.9</ele>
        <time>2020-11-11T06:41:56Z</time>
      </trkpt>
      <trkpt lat="28.5133650" lon="-16.1944080">
        <ele>73.9</ele>
        <time>2020-11-11T06:41:57Z</time>
      </trkpt>
      <trkpt lat="28.5133650" lon="-16.1944080">
        <ele>73.9</ele>
        <time>2020-11-11T06:41:58Z</time>
      </trkpt>
      <trkpt lat="28.5133880" lon="-16.1944620">
        <ele>74.9</ele>
        <time>2020-11-11T06:41:59Z</time>
      </trkpt>
      <trkpt lat="28.5134050" lon="-16.1944870">
        <ele>74.9</ele>
        <time>2020-11-11T06:42:00Z</time>
      </trkpt>
      <trkpt lat="28.5134050" lon="-16.1944870">
        <ele>74.9</ele>
        <time>2020-11-11T06:42:01Z</time>
      </trkpt>
      <trkpt lat="28.5134420" lon="-16.1945330">
        <ele>74.9</ele>
        <time>2020-11-11T06:42:02Z</time>
      </trkpt>
      <trkpt lat="28.5134620" lon="-16.1945570">
        <ele>75.9</ele>
        <time>2020-11-11T06:42:03Z</time>
      </trkpt>
      <trkpt lat="28.5134620" lon="-16.1945570">
        <ele>75.9</ele>
        <time>2020-11-11T06:42:04Z</time>
      </trkpt>
      <trkpt lat="28.5134950" lon="-16.1946030">
        <ele>75.9</ele>
        <time>2020-11-11T06:42:05Z</time>
      </trkpt>
      <trkpt lat="28.5135120" lon="-16.1946220">
        <ele>75.9</ele>
        <time>2020-11-11T06:42:06Z</time>
      </trkpt>
      <trkpt lat="28.5135120" lon="-16.1946220">
        <ele>75.9</ele>
        <time>2020-11-11T06:42:07Z</time>
      </trkpt>
      <trkpt lat="28.5135530" lon="-16.1946570">
        <ele>75.9</ele>
        <time>2020-11-11T06:42:08Z</time>
      </trkpt>
      <trkpt lat="28.5135700" lon="-16.1946780">
        <ele>76.9</ele>
        <time>2020-11-11T06:42:09Z</time>
      </trkpt>
      <trkpt lat="28.5135830" lon="-16.1946950">
        <ele>76.9</ele>
        <time>2020-11-11T06:42:10Z</time>
      </trkpt>
      <trkpt lat="28.5135950" lon="-16.1947100">
        <ele>76.9</ele>
        <time>2020-11-11T06:42:11Z</time>
      </trkpt>
      <trkpt lat="28.5135950" lon="-16.1947100">
        <ele>76.9</ele>
        <time>2020-11-11T06:42:12Z</time>
      </trkpt>
      <trkpt lat="28.5136250" lon="-16.1947420">
        <ele>77.9</ele>
        <time>2020-11-11T06:42:13Z</time>
      </trkpt>
      <trkpt lat="28.5136250" lon="-16.1947420">
        <ele>77.9</ele>
        <time>2020-11-11T06:42:14Z</time>
      </trkpt>
      <trkpt lat="28.5136600" lon="-16.1947780">
        <ele>77.9</ele>
        <time>2020-11-11T06:42:15Z</time>
      </trkpt>
      <trkpt lat="28.5136600" lon="-16.1947780">
        <ele>77.9</ele>
        <time>2020-11-11T06:42:16Z</time>
      </trkpt>
      <trkpt lat="28.5136950" lon="-16.1948120">
        <ele>77.9</ele>
        <time>2020-11-11T06:42:17Z</time>
      </trkpt>
      <trkpt lat="28.5137180" lon="-16.1948280">
        <ele>77.9</ele>
        <time>2020-11-11T06:42:18Z</time>
      </trkpt>
      <trkpt lat="28.5137180" lon="-16.1948280">
        <ele>77.9</ele>
        <time>2020-11-11T06:42:19Z</time>
      </trkpt>
      <trkpt lat="28.5137670" lon="-16.1948600">
        <ele>78.9</ele>
        <time>2020-11-11T06:42:20Z</time>
      </trkpt>
      <trkpt lat="28.5137670" lon="-16.1948600">
        <ele>78.9</ele>
        <time>2020-11-11T06:42:21Z</time>
      </trkpt>
      <trkpt lat="28.5138180" lon="-16.1948800">
        <ele>78.9</ele>
        <time>2020-11-11T06:42:22Z</time>
      </trkpt>
      <trkpt lat="28.5138180" lon="-16.1948800">
        <ele>78.9</ele>
        <time>2020-11-11T06:42:23Z</time>
      </trkpt>
      <trkpt lat="28.5138580" lon="-16.1949050">
        <ele>78.9</ele>
        <time>2020-11-11T06:42:24Z</time>
      </trkpt>
      <trkpt lat="28.5138580" lon="-16.1949050">
        <ele>78.9</ele>
        <time>2020-11-11T06:42:25Z</time>
      </trkpt>
      <trkpt lat="28.5138950" lon="-16.1949180">
        <ele>79.9</ele>
        <time>2020-11-11T06:42:26Z</time>
      </trkpt>
      <trkpt lat="28.5138950" lon="-16.1949180">
        <ele>79.9</ele>
        <time>2020-11-11T06:42:27Z</time>
      </trkpt>
      <trkpt lat="28.5139280" lon="-16.1949280">
        <ele>79.9</ele>
        <time>2020-11-11T06:42:28Z</time>
      </trkpt>
      <trkpt lat="28.5139280" lon="-16.1949280">
        <ele>79.9</ele>
        <time>2020-11-11T06:42:29Z</time>
      </trkpt>
      <trkpt lat="28.5139650" lon="-16.1949430">
        <ele>80.9</ele>
        <time>2020-11-11T06:42:30Z</time>
      </trkpt>
      <trkpt lat="28.5139800" lon="-16.1949520">
        <ele>80.9</ele>
        <time>2020-11-11T06:42:31Z</time>
      </trkpt>
      <trkpt lat="28.5139970" lon="-16.1949570">
        <ele>80.9</ele>
        <time>2020-11-11T06:42:32Z</time>
      </trkpt>
      <trkpt lat="28.5139970" lon="-16.1949570">
        <ele>80.9</ele>
        <time>2020-11-11T06:42:33Z</time>
      </trkpt>
      <trkpt lat="28.5140320" lon="-16.1949600">
        <ele>80.9</ele>
        <time>2020-11-11T06:42:34Z</time>
      </trkpt>
      <trkpt lat="28.5140320" lon="-16.1949600">
        <ele>80.9</ele>
        <time>2020-11-11T06:42:35Z</time>
      </trkpt>
      <trkpt lat="28.5140750" lon="-16.1949530">
        <ele>81.9</ele>
        <time>2020-11-11T06:42:36Z</time>
      </trkpt>
      <trkpt lat="28.5140750" lon="-16.1949530">
        <ele>81.9</ele>
        <time>2020-11-11T06:42:37Z</time>
      </trkpt>
      <trkpt lat="28.5141180" lon="-16.1949470">
        <ele>81.9</ele>
        <time>2020-11-11T06:42:38Z</time>
      </trkpt>
      <trkpt lat="28.5141180" lon="-16.1949470">
        <ele>81.9</ele>
        <time>2020-11-11T06:42:39Z</time>
      </trkpt>
      <trkpt lat="28.5141730" lon="-16.1949300">
        <ele>81.9</ele>
        <time>2020-11-11T06:42:40Z</time>
      </trkpt>
      <trkpt lat="28.5141730" lon="-16.1949300">
        <ele>81.9</ele>
        <time>2020-11-11T06:42:41Z</time>
      </trkpt>
      <trkpt lat="28.5142370" lon="-16.1949080">
        <ele>81.9</ele>
        <time>2020-11-11T06:42:42Z</time>
      </trkpt>
      <trkpt lat="28.5142850" lon="-16.1948930">
        <ele>81.9</ele>
        <time>2020-11-11T06:42:43Z</time>
      </trkpt>
      <trkpt lat="28.5142850" lon="-16.1948930">
        <ele>81.9</ele>
        <time>2020-11-11T06:42:44Z</time>
      </trkpt>
      <trkpt lat="28.5143420" lon="-16.1948720">
        <ele>82.9</ele>
        <time>2020-11-11T06:42:45Z</time>
      </trkpt>
      <trkpt lat="28.5143620" lon="-16.1948670">
        <ele>82.9</ele>
        <time>2020-11-11T06:42:46Z</time>
      </trkpt>
      <trkpt lat="28.5143620" lon="-16.1948670">
        <ele>82.9</ele>
        <time>2020-11-11T06:42:47Z</time>
      </trkpt>
      <trkpt lat="28.5144020" lon="-16.1948500">
        <ele>82.9</ele>
        <time>2020-11-11T06:42:48Z</time>
      </trkpt>
      <trkpt lat="28.5144020" lon="-16.1948500">
        <ele>82.9</ele>
        <time>2020-11-11T06:42:49Z</time>
      </trkpt>
      <trkpt lat="28.5144420" lon="-16.1948300">
        <ele>83.9</ele>
        <time>2020-11-11T06:42:50Z</time>
      </trkpt>
      <trkpt lat="28.5144620" lon="-16.1948220">
        <ele>83.9</ele>
        <time>2020-11-11T06:42:51Z</time>
      </trkpt>
      <trkpt lat="28.5144620" lon="-16.1948220">
        <ele>83.9</ele>
        <time>2020-11-11T06:42:52Z</time>
      </trkpt>
      <trkpt lat="28.5145000" lon="-16.1947980">
        <ele>83.9</ele>
        <time>2020-11-11T06:42:53Z</time>
      </trkpt>
      <trkpt lat="28.5145000" lon="-16.1947980">
        <ele>84.9</ele>
        <time>2020-11-11T06:42:54Z</time>
      </trkpt>
      <trkpt lat="28.5145400" lon="-16.1947830">
        <ele>84.9</ele>
        <time>2020-11-11T06:42:55Z</time>
      </trkpt>
      <trkpt lat="28.5145400" lon="-16.1947830">
        <ele>84.9</ele>
        <time>2020-11-11T06:42:56Z</time>
      </trkpt>
      <trkpt lat="28.5145870" lon="-16.1947630">
        <ele>84.9</ele>
        <time>2020-11-11T06:42:57Z</time>
      </trkpt>
      <trkpt lat="28.5145870" lon="-16.1947630">
        <ele>85.9</ele>
        <time>2020-11-11T06:42:58Z</time>
      </trkpt>
      <trkpt lat="28.5146320" lon="-16.1947400">
        <ele>85.9</ele>
        <time>2020-11-11T06:42:59Z</time>
      </trkpt>
      <trkpt lat="28.5146550" lon="-16.1947300">
        <ele>85.9</ele>
        <time>2020-11-11T06:43:00Z</time>
      </trkpt>
      <trkpt lat="28.5146550" lon="-16.1947300">
        <ele>85.9</ele>
        <time>2020-11-11T06:43:01Z</time>
      </trkpt>
      <trkpt lat="28.5146970" lon="-16.1947070">
        <ele>86.9</ele>
        <time>2020-11-11T06:43:02Z</time>
      </trkpt>
      <trkpt lat="28.5146970" lon="-16.1947070">
        <ele>86.9</ele>
        <time>2020-11-11T06:43:03Z</time>
      </trkpt>
      <trkpt lat="28.5147350" lon="-16.1946800">
        <ele>86.9</ele>
        <time>2020-11-11T06:43:04Z</time>
      </trkpt>
      <trkpt lat="28.5147350" lon="-16.1946800">
        <ele>86.9</ele>
        <time>2020-11-11T06:43:05Z</time>
      </trkpt>
      <trkpt lat="28.5147770" lon="-16.1946530">
        <ele>86.9</ele>
        <time>2020-11-11T06:43:06Z</time>
      </trkpt>
      <trkpt lat="28.5148000" lon="-16.1946450">
        <ele>86.9</ele>
        <time>2020-11-11T06:43:07Z</time>
      </trkpt>
      <trkpt lat="28.5148220" lon="-16.1946370">
        <ele>87.9</ele>
        <time>2020-11-11T06:43:08Z</time>
      </trkpt>
      <trkpt lat="28.5148220" lon="-16.1946370">
        <ele>87.9</ele>
        <time>2020-11-11T06:43:09Z</time>
      </trkpt>
      <trkpt lat="28.5148630" lon="-16.1946170">
        <ele>87.9</ele>
        <time>2020-11-11T06:43:10Z</time>
      </trkpt>
      <trkpt lat="28.5148630" lon="-16.1946170">
        <ele>87.9</ele>
        <time>2020-11-11T06:43:11Z</time>
      </trkpt>
      <trkpt lat="28.5149020" lon="-16.1945930">
        <ele>88.9</ele>
        <time>2020-11-11T06:43:12Z</time>
      </trkpt>
      <trkpt lat="28.5149020" lon="-16.1945930">
        <ele>88.9</ele>
        <time>2020-11-11T06:43:13Z</time>
      </trkpt>
      <trkpt lat="28.5149420" lon="-16.1945700">
        <ele>88.9</ele>
        <time>2020-11-11T06:43:14Z</time>
      </trkpt>
      <trkpt lat="28.5149620" lon="-16.1945620">
        <ele>88.9</ele>
        <time>2020-11-11T06:43:15Z</time>
      </trkpt>
      <trkpt lat="28.5149620" lon="-16.1945620">
        <ele>88.9</ele>
        <time>2020-11-11T06:43:16Z</time>
      </trkpt>
      <trkpt lat="28.5150030" lon="-16.1945400">
        <ele>88.9</ele>
        <time>2020-11-11T06:43:17Z</time>
      </trkpt>
      <trkpt lat="28.5150230" lon="-16.1945280">
        <ele>88.9</ele>
        <time>2020-11-11T06:43:18Z</time>
      </trkpt>
      <trkpt lat="28.5150230" lon="-16.1945280">
        <ele>88.9</ele>
        <time>2020-11-11T06:43:19Z</time>
      </trkpt>
      <trkpt lat="28.5150630" lon="-16.1945080">
        <ele>88.9</ele>
        <time>2020-11-11T06:43:20Z</time>
      </trkpt>
      <trkpt lat="28.5150630" lon="-16.1945080">
        <ele>88.9</ele>
        <time>2020-11-11T06:43:21Z</time>
      </trkpt>
      <trkpt lat="28.5151070" lon="-16.1944870">
        <ele>89.9</ele>
        <time>2020-11-11T06:43:22Z</time>
      </trkpt>
      <trkpt lat="28.5151070" lon="-16.1944870">
        <ele>89.9</ele>
        <time>2020-11-11T06:43:23Z</time>
      </trkpt>
      <trkpt lat="28.5151480" lon="-16.1944600">
        <ele>89.9</ele>
        <time>2020-11-11T06:43:24Z</time>
      </trkpt>
      <trkpt lat="28.5151480" lon="-16.1944600">
        <ele>89.9</ele>
        <time>2020-11-11T06:43:25Z</time>
      </trkpt>
      <trkpt lat="28.5151950" lon="-16.1944420">
        <ele>90.9</ele>
        <time>2020-11-11T06:43:26Z</time>
      </trkpt>
      <trkpt lat="28.5151950" lon="-16.1944420">
        <ele>90.9</ele>
        <time>2020-11-11T06:43:27Z</time>
      </trkpt>
      <trkpt lat="28.5152450" lon="-16.1944300">
        <ele>90.9</ele>
        <time>2020-11-11T06:43:28Z</time>
      </trkpt>
      <trkpt lat="28.5152450" lon="-16.1944300">
        <ele>90.9</ele>
        <time>2020-11-11T06:43:29Z</time>
      </trkpt>
      <trkpt lat="28.5152920" lon="-16.1944150">
        <ele>90.9</ele>
        <time>2020-11-11T06:43:30Z</time>
      </trkpt>
      <trkpt lat="28.5153120" lon="-16.1944030">
        <ele>90.9</ele>
        <time>2020-11-11T06:43:31Z</time>
      </trkpt>
      <trkpt lat="28.5153120" lon="-16.1944030">
        <ele>91.9</ele>
        <time>2020-11-11T06:43:32Z</time>
      </trkpt>
      <trkpt lat="28.5153570" lon="-16.1943950">
        <ele>91.9</ele>
        <time>2020-11-11T06:43:33Z</time>
      </trkpt>
      <trkpt lat="28.5153570" lon="-16.1943950">
        <ele>91.9</ele>
        <time>2020-11-11T06:43:34Z</time>
      </trkpt>
      <trkpt lat="28.5154030" lon="-16.1943950">
        <ele>92.9</ele>
        <time>2020-11-11T06:43:35Z</time>
      </trkpt>
      <trkpt lat="28.5154030" lon="-16.1943950">
        <ele>92.9</ele>
        <time>2020-11-11T06:43:36Z</time>
      </trkpt>
      <trkpt lat="28.5154470" lon="-16.1944000">
        <ele>92.9</ele>
        <time>2020-11-11T06:43:37Z</time>
      </trkpt>
      <trkpt lat="28.5154470" lon="-16.1944000">
        <ele>92.9</ele>
        <time>2020-11-11T06:43:38Z</time>
      </trkpt>
      <trkpt lat="28.5154920" lon="-16.1944050">
        <ele>92.9</ele>
        <time>2020-11-11T06:43:39Z</time>
      </trkpt>
      <trkpt lat="28.5154920" lon="-16.1944050">
        <ele>92.9</ele>
        <time>2020-11-11T06:43:40Z</time>
      </trkpt>
      <trkpt lat="28.5155370" lon="-16.1944120">
        <ele>93.9</ele>
        <time>2020-11-11T06:43:41Z</time>
      </trkpt>
      <trkpt lat="28.5155580" lon="-16.1944130">
        <ele>93.9</ele>
        <time>2020-11-11T06:43:42Z</time>
      </trkpt>
      <trkpt lat="28.5155820" lon="-16.1944120">
        <ele>93.9</ele>
        <time>2020-11-11T06:43:43Z</time>
      </trkpt>
      <trkpt lat="28.5155820" lon="-16.1944120">
        <ele>93.9</ele>
        <time>2020-11-11T06:43:44Z</time>
      </trkpt>
      <trkpt lat="28.5156350" lon="-16.1944130">
        <ele>94.9</ele>
        <time>2020-11-11T06:43:45Z</time>
      </trkpt>
      <trkpt lat="28.5156350" lon="-16.1944130">
        <ele>94.9</ele>
        <time>2020-11-11T06:43:46Z</time>
      </trkpt>
      <trkpt lat="28.5156800" lon="-16.1943970">
        <ele>94.9</ele>
        <time>2020-11-11T06:43:47Z</time>
      </trkpt>
      <trkpt lat="28.5156800" lon="-16.1943970">
        <ele>94.9</ele>
        <time>2020-11-11T06:43:48Z</time>
      </trkpt>
      <trkpt lat="28.5157280" lon="-16.1943870">
        <ele>94.9</ele>
        <time>2020-11-11T06:43:49Z</time>
      </trkpt>
      <trkpt lat="28.5157280" lon="-16.1943870">
        <ele>94.9</ele>
        <time>2020-11-11T06:43:50Z</time>
      </trkpt>
      <trkpt lat="28.5157730" lon="-16.1943730">
        <ele>94.9</ele>
        <time>2020-11-11T06:43:51Z</time>
      </trkpt>
      <trkpt lat="28.5157730" lon="-16.1943730">
        <ele>94.9</ele>
        <time>2020-11-11T06:43:52Z</time>
      </trkpt>
      <trkpt lat="28.5158180" lon="-16.1943530">
        <ele>94.9</ele>
        <time>2020-11-11T06:43:53Z</time>
      </trkpt>
      <trkpt lat="28.5158180" lon="-16.1943530">
        <ele>94.9</ele>
        <time>2020-11-11T06:43:54Z</time>
      </trkpt>
      <trkpt lat="28.5158650" lon="-16.1943350">
        <ele>94.9</ele>
        <time>2020-11-11T06:43:55Z</time>
      </trkpt>
      <trkpt lat="28.5158650" lon="-16.1943350">
        <ele>94.9</ele>
        <time>2020-11-11T06:43:56Z</time>
      </trkpt>
      <trkpt lat="28.5159080" lon="-16.1943180">
        <ele>96.9</ele>
        <time>2020-11-11T06:43:57Z</time>
      </trkpt>
      <trkpt lat="28.5159330" lon="-16.1943130">
        <ele>96.9</ele>
        <time>2020-11-11T06:43:58Z</time>
      </trkpt>
      <trkpt lat="28.5159330" lon="-16.1943130">
        <ele>96.9</ele>
        <time>2020-11-11T06:43:59Z</time>
      </trkpt>
      <trkpt lat="28.5159800" lon="-16.1942970">
        <ele>96.9</ele>
        <time>2020-11-11T06:44:00Z</time>
      </trkpt>
      <trkpt lat="28.5160030" lon="-16.1942920">
        <ele>96.9</ele>
        <time>2020-11-11T06:44:01Z</time>
      </trkpt>
      <trkpt lat="28.5160030" lon="-16.1942920">
        <ele>96.9</ele>
        <time>2020-11-11T06:44:02Z</time>
      </trkpt>
      <trkpt lat="28.5160500" lon="-16.1942800">
        <ele>96.9</ele>
        <time>2020-11-11T06:44:03Z</time>
      </trkpt>
      <trkpt lat="28.5160500" lon="-16.1942800">
        <ele>96.9</ele>
        <time>2020-11-11T06:44:04Z</time>
      </trkpt>
      <trkpt lat="28.5160970" lon="-16.1942680">
        <ele>96.9</ele>
        <time>2020-11-11T06:44:05Z</time>
      </trkpt>
      <trkpt lat="28.5160970" lon="-16.1942680">
        <ele>96.9</ele>
        <time>2020-11-11T06:44:06Z</time>
      </trkpt>
      <trkpt lat="28.5161420" lon="-16.1942570">
        <ele>96.9</ele>
        <time>2020-11-11T06:44:07Z</time>
      </trkpt>
      <trkpt lat="28.5161650" lon="-16.1942500">
        <ele>98.9</ele>
        <time>2020-11-11T06:44:08Z</time>
      </trkpt>
      <trkpt lat="28.5161650" lon="-16.1942500">
        <ele>98.9</ele>
        <time>2020-11-11T06:44:09Z</time>
      </trkpt>
      <trkpt lat="28.5162100" lon="-16.1942320">
        <ele>98.9</ele>
        <time>2020-11-11T06:44:10Z</time>
      </trkpt>
      <trkpt lat="28.5162100" lon="-16.1942320">
        <ele>98.9</ele>
        <time>2020-11-11T06:44:11Z</time>
      </trkpt>
      <trkpt lat="28.5162570" lon="-16.1942170">
        <ele>98.9</ele>
        <time>2020-11-11T06:44:12Z</time>
      </trkpt>
      <trkpt lat="28.5162820" lon="-16.1942130">
        <ele>98.9</ele>
        <time>2020-11-11T06:44:13Z</time>
      </trkpt>
      <trkpt lat="28.5162820" lon="-16.1942130">
        <ele>98.9</ele>
        <time>2020-11-11T06:44:14Z</time>
      </trkpt>
      <trkpt lat="28.5163280" lon="-16.1941970">
        <ele>98.9</ele>
        <time>2020-11-11T06:44:15Z</time>
      </trkpt>
      <trkpt lat="28.5163280" lon="-16.1941970">
        <ele>98.9</ele>
        <time>2020-11-11T06:44:16Z</time>
      </trkpt>
      <trkpt lat="28.5163730" lon="-16.1941850">
        <ele>98.9</ele>
        <time>2020-11-11T06:44:17Z</time>
      </trkpt>
      <trkpt lat="28.5163730" lon="-16.1941850">
        <ele>98.9</ele>
        <time>2020-11-11T06:44:18Z</time>
      </trkpt>
      <trkpt lat="28.5164170" lon="-16.1941650">
        <ele>99.9</ele>
        <time>2020-11-11T06:44:19Z</time>
      </trkpt>
      <trkpt lat="28.5164170" lon="-16.1941650">
        <ele>99.9</ele>
        <time>2020-11-11T06:44:20Z</time>
      </trkpt>
      <trkpt lat="28.5164600" lon="-16.1941370">
        <ele>99.9</ele>
        <time>2020-11-11T06:44:21Z</time>
      </trkpt>
      <trkpt lat="28.5164600" lon="-16.1941370">
        <ele>99.9</ele>
        <time>2020-11-11T06:44:22Z</time>
      </trkpt>
      <trkpt lat="28.5165030" lon="-16.1941070">
        <ele>99.9</ele>
        <time>2020-11-11T06:44:23Z</time>
      </trkpt>
      <trkpt lat="28.5165270" lon="-16.1940930">
        <ele>99.9</ele>
        <time>2020-11-11T06:44:24Z</time>
      </trkpt>
      <trkpt lat="28.5165270" lon="-16.1940930">
        <ele>100.9</ele>
        <time>2020-11-11T06:44:25Z</time>
      </trkpt>
      <trkpt lat="28.5165650" lon="-16.1940620">
        <ele>100.9</ele>
        <time>2020-11-11T06:44:26Z</time>
      </trkpt>
      <trkpt lat="28.5165650" lon="-16.1940620">
        <ele>100.9</ele>
        <time>2020-11-11T06:44:27Z</time>
      </trkpt>
      <trkpt lat="28.5165880" lon="-16.1940100">
        <ele>100.9</ele>
        <time>2020-11-11T06:44:28Z</time>
      </trkpt>
      <trkpt lat="28.5165880" lon="-16.1940100">
        <ele>100.9</ele>
        <time>2020-11-11T06:44:29Z</time>
      </trkpt>
      <trkpt lat="28.5166100" lon="-16.1939570">
        <ele>100.9</ele>
        <time>2020-11-11T06:44:30Z</time>
      </trkpt>
      <trkpt lat="28.5166100" lon="-16.1939570">
        <ele>100.9</ele>
        <time>2020-11-11T06:44:31Z</time>
      </trkpt>
      <trkpt lat="28.5166430" lon="-16.1939250">
        <ele>100.9</ele>
        <time>2020-11-11T06:44:32Z</time>
      </trkpt>
      <trkpt lat="28.5166650" lon="-16.1939130">
        <ele>102.9</ele>
        <time>2020-11-11T06:44:33Z</time>
      </trkpt>
      <trkpt lat="28.5166650" lon="-16.1939130">
        <ele>102.9</ele>
        <time>2020-11-11T06:44:34Z</time>
      </trkpt>
      <trkpt lat="28.5167130" lon="-16.1938950">
        <ele>102.9</ele>
        <time>2020-11-11T06:44:35Z</time>
      </trkpt>
      <trkpt lat="28.5167130" lon="-16.1938950">
        <ele>102.9</ele>
        <time>2020-11-11T06:44:36Z</time>
      </trkpt>
      <trkpt lat="28.5167620" lon="-16.1938800">
        <ele>102.9</ele>
        <time>2020-11-11T06:44:37Z</time>
      </trkpt>
      <trkpt lat="28.5167620" lon="-16.1938800">
        <ele>102.9</ele>
        <time>2020-11-11T06:44:38Z</time>
      </trkpt>
      <trkpt lat="28.5168120" lon="-16.1938630">
        <ele>103.9</ele>
        <time>2020-11-11T06:44:39Z</time>
      </trkpt>
      <trkpt lat="28.5168120" lon="-16.1938630">
        <ele>103.9</ele>
        <time>2020-11-11T06:44:40Z</time>
      </trkpt>
      <trkpt lat="28.5168600" lon="-16.1938500">
        <ele>103.9</ele>
        <time>2020-11-11T06:44:41Z</time>
      </trkpt>
      <trkpt lat="28.5168600" lon="-16.1938500">
        <ele>103.9</ele>
        <time>2020-11-11T06:44:42Z</time>
      </trkpt>
      <trkpt lat="28.5169080" lon="-16.1938330">
        <ele>103.9</ele>
        <time>2020-11-11T06:44:43Z</time>
      </trkpt>
      <trkpt lat="28.5169080" lon="-16.1938330">
        <ele>103.9</ele>
        <time>2020-11-11T06:44:44Z</time>
      </trkpt>
      <trkpt lat="28.5169520" lon="-16.1938100">
        <ele>103.9</ele>
        <time>2020-11-11T06:44:45Z</time>
      </trkpt>
      <trkpt lat="28.5169720" lon="-16.1937970">
        <ele>103.9</ele>
        <time>2020-11-11T06:44:46Z</time>
      </trkpt>
      <trkpt lat="28.5169720" lon="-16.1937970">
        <ele>103.9</ele>
        <time>2020-11-11T06:44:47Z</time>
      </trkpt>
      <trkpt lat="28.5170100" lon="-16.1937600">
        <ele>103.9</ele>
        <time>2020-11-11T06:44:48Z</time>
      </trkpt>
      <trkpt lat="28.5170250" lon="-16.1937380">
        <ele>103.9</ele>
        <time>2020-11-11T06:44:49Z</time>
      </trkpt>
      <trkpt lat="28.5170250" lon="-16.1937380">
        <ele>103.9</ele>
        <time>2020-11-11T06:44:50Z</time>
      </trkpt>
      <trkpt lat="28.5170520" lon="-16.1936850">
        <ele>103.9</ele>
        <time>2020-11-11T06:44:51Z</time>
      </trkpt>
      <trkpt lat="28.5170520" lon="-16.1936850">
        <ele>103.9</ele>
        <time>2020-11-11T06:44:52Z</time>
      </trkpt>
      <trkpt lat="28.5170670" lon="-16.1936280">
        <ele>104.9</ele>
        <time>2020-11-11T06:44:53Z</time>
      </trkpt>
      <trkpt lat="28.5170670" lon="-16.1936280">
        <ele>104.9</ele>
        <time>2020-11-11T06:44:54Z</time>
      </trkpt>
      <trkpt lat="28.5170770" lon="-16.1935750">
        <ele>104.9</ele>
        <time>2020-11-11T06:44:55Z</time>
      </trkpt>
      <trkpt lat="28.5170770" lon="-16.1935750">
        <ele>104.9</ele>
        <time>2020-11-11T06:44:56Z</time>
      </trkpt>
      <trkpt lat="28.5170780" lon="-16.1935270">
        <ele>105.9</ele>
        <time>2020-11-11T06:44:57Z</time>
      </trkpt>
      <trkpt lat="28.5170770" lon="-16.1935020">
        <ele>105.9</ele>
        <time>2020-11-11T06:44:58Z</time>
      </trkpt>
      <trkpt lat="28.5170770" lon="-16.1935020">
        <ele>105.9</ele>
        <time>2020-11-11T06:44:59Z</time>
      </trkpt>
      <trkpt lat="28.5170820" lon="-16.1934500">
        <ele>105.9</ele>
        <time>2020-11-11T06:45:00Z</time>
      </trkpt>
      <trkpt lat="28.5170820" lon="-16.1934500">
        <ele>105.9</ele>
        <time>2020-11-11T06:45:01Z</time>
      </trkpt>
      <trkpt lat="28.5170930" lon="-16.1933930">
        <ele>105.9</ele>
        <time>2020-11-11T06:45:02Z</time>
      </trkpt>
      <trkpt lat="28.5170930" lon="-16.1933930">
        <ele>106.9</ele>
        <time>2020-11-11T06:45:03Z</time>
      </trkpt>
      <trkpt lat="28.5171130" lon="-16.1933380">
        <ele>106.9</ele>
        <time>2020-11-11T06:45:04Z</time>
      </trkpt>
      <trkpt lat="28.5171130" lon="-16.1933380">
        <ele>106.9</ele>
        <time>2020-11-11T06:45:05Z</time>
      </trkpt>
      <trkpt lat="28.5171450" lon="-16.1932820">
        <ele>106.9</ele>
        <time>2020-11-11T06:45:06Z</time>
      </trkpt>
      <trkpt lat="28.5171450" lon="-16.1932820">
        <ele>106.9</ele>
        <time>2020-11-11T06:45:07Z</time>
      </trkpt>
      <trkpt lat="28.5171780" lon="-16.1932350">
        <ele>106.9</ele>
        <time>2020-11-11T06:45:08Z</time>
      </trkpt>
      <trkpt lat="28.5171780" lon="-16.1932350">
        <ele>106.9</ele>
        <time>2020-11-11T06:45:09Z</time>
      </trkpt>
      <trkpt lat="28.5172150" lon="-16.1931900">
        <ele>107.9</ele>
        <time>2020-11-11T06:45:10Z</time>
      </trkpt>
      <trkpt lat="28.5172150" lon="-16.1931900">
        <ele>107.9</ele>
        <time>2020-11-11T06:45:11Z</time>
      </trkpt>
      <trkpt lat="28.5172530" lon="-16.1931480">
        <ele>107.9</ele>
        <time>2020-11-11T06:45:12Z</time>
      </trkpt>
      <trkpt lat="28.5172530" lon="-16.1931480">
        <ele>107.9</ele>
        <time>2020-11-11T06:45:13Z</time>
      </trkpt>
      <trkpt lat="28.5172870" lon="-16.1931020">
        <ele>107.9</ele>
        <time>2020-11-11T06:45:14Z</time>
      </trkpt>
      <trkpt lat="28.5172870" lon="-16.1931020">
        <ele>107.9</ele>
        <time>2020-11-11T06:45:15Z</time>
      </trkpt>
      <trkpt lat="28.5173200" lon="-16.1930550">
        <ele>107.9</ele>
        <time>2020-11-11T06:45:16Z</time>
      </trkpt>
      <trkpt lat="28.5173200" lon="-16.1930550">
        <ele>107.9</ele>
        <time>2020-11-11T06:45:17Z</time>
      </trkpt>
      <trkpt lat="28.5173500" lon="-16.1930080">
        <ele>107.9</ele>
        <time>2020-11-11T06:45:18Z</time>
      </trkpt>
      <trkpt lat="28.5173500" lon="-16.1930080">
        <ele>107.9</ele>
        <time>2020-11-11T06:45:19Z</time>
      </trkpt>
      <trkpt lat="28.5173830" lon="-16.1929630">
        <ele>108.9</ele>
        <time>2020-11-11T06:45:20Z</time>
      </trkpt>
      <trkpt lat="28.5174000" lon="-16.1929450">
        <ele>108.9</ele>
        <time>2020-11-11T06:45:21Z</time>
      </trkpt>
      <trkpt lat="28.5174000" lon="-16.1929450">
        <ele>108.9</ele>
        <time>2020-11-11T06:45:22Z</time>
      </trkpt>
      <trkpt lat="28.5174350" lon="-16.1929120">
        <ele>108.9</ele>
        <time>2020-11-11T06:45:23Z</time>
      </trkpt>
      <trkpt lat="28.5174350" lon="-16.1929120">
        <ele>108.9</ele>
        <time>2020-11-11T06:45:24Z</time>
      </trkpt>
      <trkpt lat="28.5174730" lon="-16.1928720">
        <ele>109.9</ele>
        <time>2020-11-11T06:45:25Z</time>
      </trkpt>
      <trkpt lat="28.5174730" lon="-16.1928720">
        <ele>109.9</ele>
        <time>2020-11-11T06:45:26Z</time>
      </trkpt>
      <trkpt lat="28.5175170" lon="-16.1928400">
        <ele>109.9</ele>
        <time>2020-11-11T06:45:27Z</time>
      </trkpt>
      <trkpt lat="28.5175170" lon="-16.1928400">
        <ele>109.9</ele>
        <time>2020-11-11T06:45:28Z</time>
      </trkpt>
      <trkpt lat="28.5175650" lon="-16.1928170">
        <ele>110.9</ele>
        <time>2020-11-11T06:45:29Z</time>
      </trkpt>
      <trkpt lat="28.5175900" lon="-16.1928080">
        <ele>110.9</ele>
        <time>2020-11-11T06:45:30Z</time>
      </trkpt>
      <trkpt lat="28.5175900" lon="-16.1928080">
        <ele>110.9</ele>
        <time>2020-11-11T06:45:31Z</time>
      </trkpt>
      <trkpt lat="28.5176400" lon="-16.1927950">
        <ele>110.9</ele>
        <time>2020-11-11T06:45:32Z</time>
      </trkpt>
      <trkpt lat="28.5176400" lon="-16.1927950">
        <ele>111.9</ele>
        <time>2020-11-11T06:45:33Z</time>
      </trkpt>
      <trkpt lat="28.5176900" lon="-16.1927880">
        <ele>111.9</ele>
        <time>2020-11-11T06:45:34Z</time>
      </trkpt>
      <trkpt lat="28.5176900" lon="-16.1927880">
        <ele>111.9</ele>
        <time>2020-11-11T06:45:35Z</time>
      </trkpt>
      <trkpt lat="28.5177420" lon="-16.1927920">
        <ele>111.9</ele>
        <time>2020-11-11T06:45:36Z</time>
      </trkpt>
      <trkpt lat="28.5177670" lon="-16.1927970">
        <ele>112.9</ele>
        <time>2020-11-11T06:45:37Z</time>
      </trkpt>
      <trkpt lat="28.5177670" lon="-16.1927970">
        <ele>112.9</ele>
        <time>2020-11-11T06:45:38Z</time>
      </trkpt>
      <trkpt lat="28.5178180" lon="-16.1928030">
        <ele>112.9</ele>
        <time>2020-11-11T06:45:39Z</time>
      </trkpt>
      <trkpt lat="28.5178180" lon="-16.1928030">
        <ele>112.9</ele>
        <time>2020-11-11T06:45:40Z</time>
      </trkpt>
      <trkpt lat="28.5178700" lon="-16.1928100">
        <ele>112.9</ele>
        <time>2020-11-11T06:45:41Z</time>
      </trkpt>
      <trkpt lat="28.5178700" lon="-16.1928100">
        <ele>112.9</ele>
        <time>2020-11-11T06:45:42Z</time>
      </trkpt>
      <trkpt lat="28.5179220" lon="-16.1928270">
        <ele>112.9</ele>
        <time>2020-11-11T06:45:43Z</time>
      </trkpt>
      <trkpt lat="28.5179470" lon="-16.1928350">
        <ele>112.9</ele>
        <time>2020-11-11T06:45:44Z</time>
      </trkpt>
      <trkpt lat="28.5179470" lon="-16.1928350">
        <ele>113.9</ele>
        <time>2020-11-11T06:45:45Z</time>
      </trkpt>
      <trkpt lat="28.5180000" lon="-16.1928530">
        <ele>113.9</ele>
        <time>2020-11-11T06:45:46Z</time>
      </trkpt>
      <trkpt lat="28.5180000" lon="-16.1928530">
        <ele>113.9</ele>
        <time>2020-11-11T06:45:47Z</time>
      </trkpt>
      <trkpt lat="28.5180480" lon="-16.1928800">
        <ele>113.9</ele>
        <time>2020-11-11T06:45:48Z</time>
      </trkpt>
      <trkpt lat="28.5180730" lon="-16.1928930">
        <ele>113.9</ele>
        <time>2020-11-11T06:45:49Z</time>
      </trkpt>
      <trkpt lat="28.5180730" lon="-16.1928930">
        <ele>113.9</ele>
        <time>2020-11-11T06:45:50Z</time>
      </trkpt>
      <trkpt lat="28.5181230" lon="-16.1929180">
        <ele>114.9</ele>
        <time>2020-11-11T06:45:51Z</time>
      </trkpt>
      <trkpt lat="28.5181480" lon="-16.1929270">
        <ele>114.9</ele>
        <time>2020-11-11T06:45:52Z</time>
      </trkpt>
      <trkpt lat="28.5181480" lon="-16.1929270">
        <ele>114.9</ele>
        <time>2020-11-11T06:45:53Z</time>
      </trkpt>
      <trkpt lat="28.5181980" lon="-16.1929450">
        <ele>114.9</ele>
        <time>2020-11-11T06:45:54Z</time>
      </trkpt>
      <trkpt lat="28.5182200" lon="-16.1929580">
        <ele>115.9</ele>
        <time>2020-11-11T06:45:55Z</time>
      </trkpt>
      <trkpt lat="28.5182200" lon="-16.1929580">
        <ele>115.9</ele>
        <time>2020-11-11T06:45:56Z</time>
      </trkpt>
      <trkpt lat="28.5182630" lon="-16.1929850">
        <ele>115.9</ele>
        <time>2020-11-11T06:45:57Z</time>
      </trkpt>
      <trkpt lat="28.5182630" lon="-16.1929850">
        <ele>115.9</ele>
        <time>2020-11-11T06:45:58Z</time>
      </trkpt>
      <trkpt lat="28.5183070" lon="-16.1930150">
        <ele>115.9</ele>
        <time>2020-11-11T06:45:59Z</time>
      </trkpt>
      <trkpt lat="28.5183250" lon="-16.1930370">
        <ele>115.9</ele>
        <time>2020-11-11T06:46:00Z</time>
      </trkpt>
      <trkpt lat="28.5183250" lon="-16.1930370">
        <ele>115.9</ele>
        <time>2020-11-11T06:46:01Z</time>
      </trkpt>
      <trkpt lat="28.5183550" lon="-16.1930820">
        <ele>115.9</ele>
        <time>2020-11-11T06:46:02Z</time>
      </trkpt>
      <trkpt lat="28.5183550" lon="-16.1930820">
        <ele>115.9</ele>
        <time>2020-11-11T06:46:03Z</time>
      </trkpt>
      <trkpt lat="28.5183780" lon="-16.1931330">
        <ele>115.9</ele>
        <time>2020-11-11T06:46:04Z</time>
      </trkpt>
      <trkpt lat="28.5183780" lon="-16.1931330">
        <ele>116.9</ele>
        <time>2020-11-11T06:46:05Z</time>
      </trkpt>
      <trkpt lat="28.5183970" lon="-16.1931870">
        <ele>116.9</ele>
        <time>2020-11-11T06:46:06Z</time>
      </trkpt>
      <trkpt lat="28.5184070" lon="-16.1932120">
        <ele>116.9</ele>
        <time>2020-11-11T06:46:07Z</time>
      </trkpt>
      <trkpt lat="28.5184070" lon="-16.1932120">
        <ele>116.9</ele>
        <time>2020-11-11T06:46:08Z</time>
      </trkpt>
      <trkpt lat="28.5184330" lon="-16.1932620">
        <ele>117.9</ele>
        <time>2020-11-11T06:46:09Z</time>
      </trkpt>
      <trkpt lat="28.5184450" lon="-16.1932850">
        <ele>117.9</ele>
        <time>2020-11-11T06:46:10Z</time>
      </trkpt>
      <trkpt lat="28.5184450" lon="-16.1932850">
        <ele>117.9</ele>
        <time>2020-11-11T06:46:11Z</time>
      </trkpt>
      <trkpt lat="28.5184700" lon="-16.1933280">
        <ele>117.9</ele>
        <time>2020-11-11T06:46:12Z</time>
      </trkpt>
      <trkpt lat="28.5184830" lon="-16.1933520">
        <ele>117.9</ele>
        <time>2020-11-11T06:46:13Z</time>
      </trkpt>
      <trkpt lat="28.5184830" lon="-16.1933520">
        <ele>117.9</ele>
        <time>2020-11-11T06:46:14Z</time>
      </trkpt>
      <trkpt lat="28.5185150" lon="-16.1933950">
        <ele>118.9</ele>
        <time>2020-11-11T06:46:15Z</time>
      </trkpt>
      <trkpt lat="28.5185150" lon="-16.1933950">
        <ele>118.9</ele>
        <time>2020-11-11T06:46:16Z</time>
      </trkpt>
      <trkpt lat="28.5185550" lon="-16.1934250">
        <ele>118.9</ele>
        <time>2020-11-11T06:46:17Z</time>
      </trkpt>
      <trkpt lat="28.5185770" lon="-16.1934330">
        <ele>118.9</ele>
        <time>2020-11-11T06:46:18Z</time>
      </trkpt>
      <trkpt lat="28.5185770" lon="-16.1934330">
        <ele>118.9</ele>
        <time>2020-11-11T06:46:19Z</time>
      </trkpt>
      <trkpt lat="28.5186220" lon="-16.1934470">
        <ele>118.9</ele>
        <time>2020-11-11T06:46:20Z</time>
      </trkpt>
      <trkpt lat="28.5186220" lon="-16.1934470">
        <ele>119.9</ele>
        <time>2020-11-11T06:46:21Z</time>
      </trkpt>
      <trkpt lat="28.5186600" lon="-16.1934480">
        <ele>119.9</ele>
        <time>2020-11-11T06:46:22Z</time>
      </trkpt>
      <trkpt lat="28.5186600" lon="-16.1934480">
        <ele>119.9</ele>
        <time>2020-11-11T06:46:23Z</time>
      </trkpt>
      <trkpt lat="28.5187080" lon="-16.1934520">
        <ele>119.9</ele>
        <time>2020-11-11T06:46:24Z</time>
      </trkpt>
      <trkpt lat="28.5187080" lon="-16.1934520">
        <ele>119.9</ele>
        <time>2020-11-11T06:46:25Z</time>
      </trkpt>
      <trkpt lat="28.5187520" lon="-16.1934430">
        <ele>119.9</ele>
        <time>2020-11-11T06:46:26Z</time>
      </trkpt>
      <trkpt lat="28.5187750" lon="-16.1934420">
        <ele>119.9</ele>
        <time>2020-11-11T06:46:27Z</time>
      </trkpt>
      <trkpt lat="28.5187750" lon="-16.1934420">
        <ele>119.9</ele>
        <time>2020-11-11T06:46:28Z</time>
      </trkpt>
      <trkpt lat="28.5188230" lon="-16.1934500">
        <ele>121.9</ele>
        <time>2020-11-11T06:46:29Z</time>
      </trkpt>
      <trkpt lat="28.5188230" lon="-16.1934500">
        <ele>121.9</ele>
        <time>2020-11-11T06:46:30Z</time>
      </trkpt>
      <trkpt lat="28.5188700" lon="-16.1934650">
        <ele>121.9</ele>
        <time>2020-11-11T06:46:31Z</time>
      </trkpt>
      <trkpt lat="28.5188700" lon="-16.1934650">
        <ele>121.9</ele>
        <time>2020-11-11T06:46:32Z</time>
      </trkpt>
      <trkpt lat="28.5189100" lon="-16.1934900">
        <ele>121.9</ele>
        <time>2020-11-11T06:46:33Z</time>
      </trkpt>
      <trkpt lat="28.5189320" lon="-16.1935020">
        <ele>121.9</ele>
        <time>2020-11-11T06:46:34Z</time>
      </trkpt>
      <trkpt lat="28.5189320" lon="-16.1935020">
        <ele>121.9</ele>
        <time>2020-11-11T06:46:35Z</time>
      </trkpt>
      <trkpt lat="28.5189770" lon="-16.1935300">
        <ele>121.9</ele>
        <time>2020-11-11T06:46:36Z</time>
      </trkpt>
      <trkpt lat="28.5189770" lon="-16.1935300">
        <ele>121.9</ele>
        <time>2020-11-11T06:46:37Z</time>
      </trkpt>
      <trkpt lat="28.5190150" lon="-16.1935580">
        <ele>121.9</ele>
        <time>2020-11-11T06:46:38Z</time>
      </trkpt>
      <trkpt lat="28.5190150" lon="-16.1935580">
        <ele>122.9</ele>
        <time>2020-11-11T06:46:39Z</time>
      </trkpt>
      <trkpt lat="28.5190500" lon="-16.1935880">
        <ele>122.9</ele>
        <time>2020-11-11T06:46:40Z</time>
      </trkpt>
      <trkpt lat="28.5190680" lon="-16.1936030">
        <ele>122.9</ele>
        <time>2020-11-11T06:46:41Z</time>
      </trkpt>
      <trkpt lat="28.5190680" lon="-16.1936030">
        <ele>122.9</ele>
        <time>2020-11-11T06:46:42Z</time>
      </trkpt>
      <trkpt lat="28.5191030" lon="-16.1936330">
        <ele>122.9</ele>
        <time>2020-11-11T06:46:43Z</time>
      </trkpt>
      <trkpt lat="28.5191030" lon="-16.1936330">
        <ele>122.9</ele>
        <time>2020-11-11T06:46:44Z</time>
      </trkpt>
      <trkpt lat="28.5191430" lon="-16.1936580">
        <ele>122.9</ele>
        <time>2020-11-11T06:46:45Z</time>
      </trkpt>
      <trkpt lat="28.5191430" lon="-16.1936580">
        <ele>123.9</ele>
        <time>2020-11-11T06:46:46Z</time>
      </trkpt>
      <trkpt lat="28.5191920" lon="-16.1936630">
        <ele>123.9</ele>
        <time>2020-11-11T06:46:47Z</time>
      </trkpt>
      <trkpt lat="28.5192170" lon="-16.1936580">
        <ele>123.9</ele>
        <time>2020-11-11T06:46:48Z</time>
      </trkpt>
      <trkpt lat="28.5192170" lon="-16.1936580">
        <ele>123.9</ele>
        <time>2020-11-11T06:46:49Z</time>
      </trkpt>
      <trkpt lat="28.5192630" lon="-16.1936370">
        <ele>124.9</ele>
        <time>2020-11-11T06:46:50Z</time>
      </trkpt>
      <trkpt lat="28.5192630" lon="-16.1936370">
        <ele>124.9</ele>
        <time>2020-11-11T06:46:51Z</time>
      </trkpt>
      <trkpt lat="28.5193020" lon="-16.1936120">
        <ele>124.9</ele>
        <time>2020-11-11T06:46:52Z</time>
      </trkpt>
      <trkpt lat="28.5193020" lon="-16.1936120">
        <ele>124.9</ele>
        <time>2020-11-11T06:46:53Z</time>
      </trkpt>
      <trkpt lat="28.5193380" lon="-16.1935820">
        <ele>124.9</ele>
        <time>2020-11-11T06:46:54Z</time>
      </trkpt>
      <trkpt lat="28.5193530" lon="-16.1935650">
        <ele>124.9</ele>
        <time>2020-11-11T06:46:55Z</time>
      </trkpt>
      <trkpt lat="28.5193530" lon="-16.1935650">
        <ele>124.9</ele>
        <time>2020-11-11T06:46:56Z</time>
      </trkpt>
      <trkpt lat="28.5193800" lon="-16.1935180">
        <ele>124.9</ele>
        <time>2020-11-11T06:46:57Z</time>
      </trkpt>
      <trkpt lat="28.5193930" lon="-16.1934970">
        <ele>124.9</ele>
        <time>2020-11-11T06:46:58Z</time>
      </trkpt>
      <trkpt lat="28.5193930" lon="-16.1934970">
        <ele>125.9</ele>
        <time>2020-11-11T06:46:59Z</time>
      </trkpt>
      <trkpt lat="28.5194220" lon="-16.1934520">
        <ele>125.9</ele>
        <time>2020-11-11T06:47:00Z</time>
      </trkpt>
      <trkpt lat="28.5194220" lon="-16.1934520">
        <ele>125.9</ele>
        <time>2020-11-11T06:47:01Z</time>
      </trkpt>
      <trkpt lat="28.5194520" lon="-16.1934120">
        <ele>125.9</ele>
        <time>2020-11-11T06:47:02Z</time>
      </trkpt>
      <trkpt lat="28.5194520" lon="-16.1934120">
        <ele>125.9</ele>
        <time>2020-11-11T06:47:03Z</time>
      </trkpt>
      <trkpt lat="28.5194850" lon="-16.1933730">
        <ele>125.9</ele>
        <time>2020-11-11T06:47:04Z</time>
      </trkpt>
      <trkpt lat="28.5195050" lon="-16.1933620">
        <ele>125.9</ele>
        <time>2020-11-11T06:47:05Z</time>
      </trkpt>
      <trkpt lat="28.5195050" lon="-16.1933620">
        <ele>125.9</ele>
        <time>2020-11-11T06:47:06Z</time>
      </trkpt>
      <trkpt lat="28.5195500" lon="-16.1933370">
        <ele>125.9</ele>
        <time>2020-11-11T06:47:07Z</time>
      </trkpt>
      <trkpt lat="28.5195500" lon="-16.1933370">
        <ele>126.9</ele>
        <time>2020-11-11T06:47:08Z</time>
      </trkpt>
      <trkpt lat="28.5195980" lon="-16.1933180">
        <ele>126.9</ele>
        <time>2020-11-11T06:47:09Z</time>
      </trkpt>
      <trkpt lat="28.5195980" lon="-16.1933180">
        <ele>126.9</ele>
        <time>2020-11-11T06:47:10Z</time>
      </trkpt>
      <trkpt lat="28.5196480" lon="-16.1933070">
        <ele>126.9</ele>
        <time>2020-11-11T06:47:11Z</time>
      </trkpt>
      <trkpt lat="28.5196730" lon="-16.1933020">
        <ele>126.9</ele>
        <time>2020-11-11T06:47:12Z</time>
      </trkpt>
      <trkpt lat="28.5196980" lon="-16.1932980">
        <ele>126.9</ele>
        <time>2020-11-11T06:47:13Z</time>
      </trkpt>
      <trkpt lat="28.5196980" lon="-16.1932980">
        <ele>126.9</ele>
        <time>2020-11-11T06:47:14Z</time>
      </trkpt>
      <trkpt lat="28.5197500" lon="-16.1932920">
        <ele>126.9</ele>
        <time>2020-11-11T06:47:15Z</time>
      </trkpt>
      <trkpt lat="28.5197500" lon="-16.1932920">
        <ele>126.9</ele>
        <time>2020-11-11T06:47:16Z</time>
      </trkpt>
      <trkpt lat="28.5198030" lon="-16.1932900">
        <ele>126.9</ele>
        <time>2020-11-11T06:47:17Z</time>
      </trkpt>
      <trkpt lat="28.5198030" lon="-16.1932900">
        <ele>126.9</ele>
        <time>2020-11-11T06:47:18Z</time>
      </trkpt>
      <trkpt lat="28.5198600" lon="-16.1932880">
        <ele>127.9</ele>
        <time>2020-11-11T06:47:19Z</time>
      </trkpt>
      <trkpt lat="28.5198600" lon="-16.1932880">
        <ele>127.9</ele>
        <time>2020-11-11T06:47:20Z</time>
      </trkpt>
      <trkpt lat="28.5199150" lon="-16.1932870">
        <ele>127.9</ele>
        <time>2020-11-11T06:47:21Z</time>
      </trkpt>
      <trkpt lat="28.5199150" lon="-16.1932870">
        <ele>127.9</ele>
        <time>2020-11-11T06:47:22Z</time>
      </trkpt>
      <trkpt lat="28.5199700" lon="-16.1932880">
        <ele>127.9</ele>
        <time>2020-11-11T06:47:23Z</time>
      </trkpt>
      <trkpt lat="28.5199700" lon="-16.1932880">
        <ele>127.9</ele>
        <time>2020-11-11T06:47:24Z</time>
      </trkpt>
      <trkpt lat="28.5200220" lon="-16.1932950">
        <ele>128.9</ele>
        <time>2020-11-11T06:47:25Z</time>
      </trkpt>
      <trkpt lat="28.5200220" lon="-16.1932950">
        <ele>128.9</ele>
        <time>2020-11-11T06:47:26Z</time>
      </trkpt>
      <trkpt lat="28.5200750" lon="-16.1933020">
        <ele>128.9</ele>
        <time>2020-11-11T06:47:27Z</time>
      </trkpt>
      <trkpt lat="28.5200750" lon="-16.1933020">
        <ele>128.9</ele>
        <time>2020-11-11T06:47:28Z</time>
      </trkpt>
      <trkpt lat="28.5201280" lon="-16.1933070">
        <ele>129.9</ele>
        <time>2020-11-11T06:47:29Z</time>
      </trkpt>
      <trkpt lat="28.5201280" lon="-16.1933070">
        <ele>129.9</ele>
        <time>2020-11-11T06:47:30Z</time>
      </trkpt>
      <trkpt lat="28.5201820" lon="-16.1933130">
        <ele>129.9</ele>
        <time>2020-11-11T06:47:31Z</time>
      </trkpt>
      <trkpt lat="28.5201820" lon="-16.1933130">
        <ele>129.9</ele>
        <time>2020-11-11T06:47:32Z</time>
      </trkpt>
      <trkpt lat="28.5202330" lon="-16.1933270">
        <ele>129.9</ele>
        <time>2020-11-11T06:47:33Z</time>
      </trkpt>
      <trkpt lat="28.5202580" lon="-16.1933350">
        <ele>129.9</ele>
        <time>2020-11-11T06:47:34Z</time>
      </trkpt>
      <trkpt lat="28.5202580" lon="-16.1933350">
        <ele>130.9</ele>
        <time>2020-11-11T06:47:35Z</time>
      </trkpt>
      <trkpt lat="28.5203100" lon="-16.1933480">
        <ele>130.9</ele>
        <time>2020-11-11T06:47:36Z</time>
      </trkpt>
      <trkpt lat="28.5203100" lon="-16.1933480">
        <ele>130.9</ele>
        <time>2020-11-11T06:47:37Z</time>
      </trkpt>
      <trkpt lat="28.5203600" lon="-16.1933600">
        <ele>130.9</ele>
        <time>2020-11-11T06:47:38Z</time>
      </trkpt>
      <trkpt lat="28.5203600" lon="-16.1933600">
        <ele>130.9</ele>
        <time>2020-11-11T06:47:39Z</time>
      </trkpt>
      <trkpt lat="28.5204080" lon="-16.1933770">
        <ele>130.9</ele>
        <time>2020-11-11T06:47:40Z</time>
      </trkpt>
      <trkpt lat="28.5204080" lon="-16.1933770">
        <ele>130.9</ele>
        <time>2020-11-11T06:47:41Z</time>
      </trkpt>
      <trkpt lat="28.5204620" lon="-16.1933920">
        <ele>130.9</ele>
        <time>2020-11-11T06:47:42Z</time>
      </trkpt>
      <trkpt lat="28.5204830" lon="-16.1934070">
        <ele>130.9</ele>
        <time>2020-11-11T06:47:43Z</time>
      </trkpt>
      <trkpt lat="28.5204830" lon="-16.1934070">
        <ele>130.9</ele>
        <time>2020-11-11T06:47:44Z</time>
      </trkpt>
      <trkpt lat="28.5205280" lon="-16.1934350">
        <ele>130.9</ele>
        <time>2020-11-11T06:47:45Z</time>
      </trkpt>
      <trkpt lat="28.5205280" lon="-16.1934350">
        <ele>130.9</ele>
        <time>2020-11-11T06:47:46Z</time>
      </trkpt>
      <trkpt lat="28.5205700" lon="-16.1934680">
        <ele>131.9</ele>
        <time>2020-11-11T06:47:47Z</time>
      </trkpt>
      <trkpt lat="28.5205700" lon="-16.1934680">
        <ele>131.9</ele>
        <time>2020-11-11T06:47:48Z</time>
      </trkpt>
      <trkpt lat="28.5206100" lon="-16.1935030">
        <ele>131.9</ele>
        <time>2020-11-11T06:47:49Z</time>
      </trkpt>
      <trkpt lat="28.5206100" lon="-16.1935030">
        <ele>131.9</ele>
        <time>2020-11-11T06:47:50Z</time>
      </trkpt>
      <trkpt lat="28.5206500" lon="-16.1935380">
        <ele>132.9</ele>
        <time>2020-11-11T06:47:51Z</time>
      </trkpt>
      <trkpt lat="28.5206500" lon="-16.1935380">
        <ele>132.9</ele>
        <time>2020-11-11T06:47:52Z</time>
      </trkpt>
      <trkpt lat="28.5206950" lon="-16.1935700">
        <ele>132.9</ele>
        <time>2020-11-11T06:47:53Z</time>
      </trkpt>
      <trkpt lat="28.5207180" lon="-16.1935820">
        <ele>132.9</ele>
        <time>2020-11-11T06:47:54Z</time>
      </trkpt>
      <trkpt lat="28.5207180" lon="-16.1935820">
        <ele>132.9</ele>
        <time>2020-11-11T06:47:55Z</time>
      </trkpt>
      <trkpt lat="28.5207780" lon="-16.1936070">
        <ele>133.9</ele>
        <time>2020-11-11T06:47:56Z</time>
      </trkpt>
      <trkpt lat="28.5208080" lon="-16.1936030">
        <ele>133.9</ele>
        <time>2020-11-11T06:47:57Z</time>
      </trkpt>
      <trkpt lat="28.5208080" lon="-16.1936030">
        <ele>133.9</ele>
        <time>2020-11-11T06:47:58Z</time>
      </trkpt>
      <trkpt lat="28.5208620" lon="-16.1935830">
        <ele>133.9</ele>
        <time>2020-11-11T06:47:59Z</time>
      </trkpt>
      <trkpt lat="28.5208620" lon="-16.1935830">
        <ele>133.9</ele>
        <time>2020-11-11T06:48:00Z</time>
      </trkpt>
      <trkpt lat="28.5209100" lon="-16.1935500">
        <ele>133.9</ele>
        <time>2020-11-11T06:48:01Z</time>
      </trkpt>
      <trkpt lat="28.5209100" lon="-16.1935500">
        <ele>135.9</ele>
        <time>2020-11-11T06:48:02Z</time>
      </trkpt>
      <trkpt lat="28.5209570" lon="-16.1935180">
        <ele>135.9</ele>
        <time>2020-11-11T06:48:03Z</time>
      </trkpt>
      <trkpt lat="28.5209570" lon="-16.1935180">
        <ele>135.9</ele>
        <time>2020-11-11T06:48:04Z</time>
      </trkpt>
      <trkpt lat="28.5210030" lon="-16.1934870">
        <ele>135.9</ele>
        <time>2020-11-11T06:48:05Z</time>
      </trkpt>
      <trkpt lat="28.5210030" lon="-16.1934870">
        <ele>135.9</ele>
        <time>2020-11-11T06:48:06Z</time>
      </trkpt>
      <trkpt lat="28.5210550" lon="-16.1934700">
        <ele>135.9</ele>
        <time>2020-11-11T06:48:07Z</time>
      </trkpt>
      <trkpt lat="28.5210550" lon="-16.1934700">
        <ele>135.9</ele>
        <time>2020-11-11T06:48:08Z</time>
      </trkpt>
      <trkpt lat="28.5211080" lon="-16.1934700">
        <ele>135.9</ele>
        <time>2020-11-11T06:48:09Z</time>
      </trkpt>
      <trkpt lat="28.5211080" lon="-16.1934700">
        <ele>137.9</ele>
        <time>2020-11-11T06:48:10Z</time>
      </trkpt>
      <trkpt lat="28.5211650" lon="-16.1934800">
        <ele>137.9</ele>
        <time>2020-11-11T06:48:11Z</time>
      </trkpt>
      <trkpt lat="28.5211900" lon="-16.1934870">
        <ele>137.9</ele>
        <time>2020-11-11T06:48:12Z</time>
      </trkpt>
      <trkpt lat="28.5212150" lon="-16.1935000">
        <ele>137.9</ele>
        <time>2020-11-11T06:48:13Z</time>
      </trkpt>
      <trkpt lat="28.5212150" lon="-16.1935000">
        <ele>137.9</ele>
        <time>2020-11-11T06:48:14Z</time>
      </trkpt>
      <trkpt lat="28.5212620" lon="-16.1935280">
        <ele>137.9</ele>
        <time>2020-11-11T06:48:15Z</time>
      </trkpt>
      <trkpt lat="28.5212620" lon="-16.1935280">
        <ele>137.9</ele>
        <time>2020-11-11T06:48:16Z</time>
      </trkpt>
      <trkpt lat="28.5213030" lon="-16.1935630">
        <ele>137.9</ele>
        <time>2020-11-11T06:48:17Z</time>
      </trkpt>
      <trkpt lat="28.5213030" lon="-16.1935630">
        <ele>137.9</ele>
        <time>2020-11-11T06:48:18Z</time>
      </trkpt>
      <trkpt lat="28.5213450" lon="-16.1935980">
        <ele>137.9</ele>
        <time>2020-11-11T06:48:19Z</time>
      </trkpt>
      <trkpt lat="28.5213450" lon="-16.1935980">
        <ele>138.9</ele>
        <time>2020-11-11T06:48:20Z</time>
      </trkpt>
      <trkpt lat="28.5213850" lon="-16.1936370">
        <ele>138.9</ele>
        <time>2020-11-11T06:48:21Z</time>
      </trkpt>
      <trkpt lat="28.5213850" lon="-16.1936370">
        <ele>138.9</ele>
        <time>2020-11-11T06:48:22Z</time>
      </trkpt>
      <trkpt lat="28.5214280" lon="-16.1936720">
        <ele>138.9</ele>
        <time>2020-11-11T06:48:23Z</time>
      </trkpt>
      <trkpt lat="28.5214280" lon="-16.1936720">
        <ele>139.9</ele>
        <time>2020-11-11T06:48:24Z</time>
      </trkpt>
      <trkpt lat="28.5214720" lon="-16.1937070">
        <ele>139.9</ele>
        <time>2020-11-11T06:48:25Z</time>
      </trkpt>
      <trkpt lat="28.5214720" lon="-16.1937070">
        <ele>139.9</ele>
        <time>2020-11-11T06:48:26Z</time>
      </trkpt>
      <trkpt lat="28.5215130" lon="-16.1937430">
        <ele>139.9</ele>
        <time>2020-11-11T06:48:27Z</time>
      </trkpt>
      <trkpt lat="28.5215130" lon="-16.1937430">
        <ele>139.9</ele>
        <time>2020-11-11T06:48:28Z</time>
      </trkpt>
      <trkpt lat="28.5215570" lon="-16.1937700">
        <ele>139.9</ele>
        <time>2020-11-11T06:48:29Z</time>
      </trkpt>
      <trkpt lat="28.5215570" lon="-16.1937700">
        <ele>140.9</ele>
        <time>2020-11-11T06:48:30Z</time>
      </trkpt>
      <trkpt lat="28.5216030" lon="-16.1937850">
        <ele>140.9</ele>
        <time>2020-11-11T06:48:31Z</time>
      </trkpt>
      <trkpt lat="28.5216030" lon="-16.1937850">
        <ele>140.9</ele>
        <time>2020-11-11T06:48:32Z</time>
      </trkpt>
      <trkpt lat="28.5216500" lon="-16.1937950">
        <ele>142.9</ele>
        <time>2020-11-11T06:48:33Z</time>
      </trkpt>
      <trkpt lat="28.5216500" lon="-16.1937950">
        <ele>142.9</ele>
        <time>2020-11-11T06:48:34Z</time>
      </trkpt>
      <trkpt lat="28.5216980" lon="-16.1937880">
        <ele>142.9</ele>
        <time>2020-11-11T06:48:35Z</time>
      </trkpt>
      <trkpt lat="28.5216980" lon="-16.1937880">
        <ele>142.9</ele>
        <time>2020-11-11T06:48:36Z</time>
      </trkpt>
      <trkpt lat="28.5217430" lon="-16.1937630">
        <ele>142.9</ele>
        <time>2020-11-11T06:48:37Z</time>
      </trkpt>
      <trkpt lat="28.5217430" lon="-16.1937630">
        <ele>142.9</ele>
        <time>2020-11-11T06:48:38Z</time>
      </trkpt>
      <trkpt lat="28.5217850" lon="-16.1937330">
        <ele>143.9</ele>
        <time>2020-11-11T06:48:39Z</time>
      </trkpt>
      <trkpt lat="28.5217850" lon="-16.1937330">
        <ele>143.9</ele>
        <time>2020-11-11T06:48:40Z</time>
      </trkpt>
      <trkpt lat="28.5218150" lon="-16.1936880">
        <ele>143.9</ele>
        <time>2020-11-11T06:48:41Z</time>
      </trkpt>
      <trkpt lat="28.5218150" lon="-16.1936880">
        <ele>143.9</ele>
        <time>2020-11-11T06:48:42Z</time>
      </trkpt>
      <trkpt lat="28.5218430" lon="-16.1936470">
        <ele>143.9</ele>
        <time>2020-11-11T06:48:43Z</time>
      </trkpt>
      <trkpt lat="28.5218430" lon="-16.1936470">
        <ele>143.9</ele>
        <time>2020-11-11T06:48:44Z</time>
      </trkpt>
      <trkpt lat="28.5218750" lon="-16.1936030">
        <ele>144.9</ele>
        <time>2020-11-11T06:48:45Z</time>
      </trkpt>
      <trkpt lat="28.5218750" lon="-16.1936030">
        <ele>144.9</ele>
        <time>2020-11-11T06:48:46Z</time>
      </trkpt>
      <trkpt lat="28.5219070" lon="-16.1935620">
        <ele>144.9</ele>
        <time>2020-11-11T06:48:47Z</time>
      </trkpt>
      <trkpt lat="28.5219230" lon="-16.1935400">
        <ele>144.9</ele>
        <time>2020-11-11T06:48:48Z</time>
      </trkpt>
      <trkpt lat="28.5219400" lon="-16.1935180">
        <ele>144.9</ele>
        <time>2020-11-11T06:48:49Z</time>
      </trkpt>
      <trkpt lat="28.5219400" lon="-16.1935180">
        <ele>144.9</ele>
        <time>2020-11-11T06:48:50Z</time>
      </trkpt>
      <trkpt lat="28.5219780" lon="-16.1934800">
        <ele>144.9</ele>
        <time>2020-11-11T06:48:51Z</time>
      </trkpt>
      <trkpt lat="28.5219780" lon="-16.1934800">
        <ele>144.9</ele>
        <time>2020-11-11T06:48:52Z</time>
      </trkpt>
      <trkpt lat="28.5220170" lon="-16.1934450">
        <ele>144.9</ele>
        <time>2020-11-11T06:48:53Z</time>
      </trkpt>
      <trkpt lat="28.5220370" lon="-16.1934280">
        <ele>144.9</ele>
        <time>2020-11-11T06:48:54Z</time>
      </trkpt>
      <trkpt lat="28.5220580" lon="-16.1934170">
        <ele>144.9</ele>
        <time>2020-11-11T06:48:55Z</time>
      </trkpt>
      <trkpt lat="28.5220580" lon="-16.1934170">
        <ele>144.9</ele>
        <time>2020-11-11T06:48:56Z</time>
      </trkpt>
      <trkpt lat="28.5221030" lon="-16.1933920">
        <ele>145.9</ele>
        <time>2020-11-11T06:48:57Z</time>
      </trkpt>
      <trkpt lat="28.5221030" lon="-16.1933920">
        <ele>145.9</ele>
        <time>2020-11-11T06:48:58Z</time>
      </trkpt>
      <trkpt lat="28.5221520" lon="-16.1933680">
        <ele>145.9</ele>
        <time>2020-11-11T06:48:59Z</time>
      </trkpt>
      <trkpt lat="28.5221520" lon="-16.1933680">
        <ele>145.9</ele>
        <time>2020-11-11T06:49:00Z</time>
      </trkpt>
      <trkpt lat="28.5221980" lon="-16.1933550">
        <ele>145.9</ele>
        <time>2020-11-11T06:49:01Z</time>
      </trkpt>
      <trkpt lat="28.5221980" lon="-16.1933550">
        <ele>145.9</ele>
        <time>2020-11-11T06:49:02Z</time>
      </trkpt>
      <trkpt lat="28.5222480" lon="-16.1933400">
        <ele>146.9</ele>
        <time>2020-11-11T06:49:03Z</time>
      </trkpt>
      <trkpt lat="28.5222720" lon="-16.1933320">
        <ele>146.9</ele>
        <time>2020-11-11T06:49:04Z</time>
      </trkpt>
      <trkpt lat="28.5222720" lon="-16.1933320">
        <ele>146.9</ele>
        <time>2020-11-11T06:49:05Z</time>
      </trkpt>
      <trkpt lat="28.5223180" lon="-16.1933130">
        <ele>146.9</ele>
        <time>2020-11-11T06:49:06Z</time>
      </trkpt>
      <trkpt lat="28.5223180" lon="-16.1933130">
        <ele>147.9</ele>
        <time>2020-11-11T06:49:07Z</time>
      </trkpt>
      <trkpt lat="28.5223650" lon="-16.1932950">
        <ele>147.9</ele>
        <time>2020-11-11T06:49:08Z</time>
      </trkpt>
      <trkpt lat="28.5223880" lon="-16.1932850">
        <ele>147.9</ele>
        <time>2020-11-11T06:49:09Z</time>
      </trkpt>
      <trkpt lat="28.5224120" lon="-16.1932770">
        <ele>147.9</ele>
        <time>2020-11-11T06:49:10Z</time>
      </trkpt>
      <trkpt lat="28.5224120" lon="-16.1932770">
        <ele>147.9</ele>
        <time>2020-11-11T06:49:11Z</time>
      </trkpt>
      <trkpt lat="28.5224580" lon="-16.1932600">
        <ele>147.9</ele>
        <time>2020-11-11T06:49:12Z</time>
      </trkpt>
      <trkpt lat="28.5224820" lon="-16.1932530">
        <ele>147.9</ele>
        <time>2020-11-11T06:49:13Z</time>
      </trkpt>
      <trkpt lat="28.5224820" lon="-16.1932530">
        <ele>148.9</ele>
        <time>2020-11-11T06:49:14Z</time>
      </trkpt>
      <trkpt lat="28.5225270" lon="-16.1932450">
        <ele>148.9</ele>
        <time>2020-11-11T06:49:15Z</time>
      </trkpt>
      <trkpt lat="28.5225270" lon="-16.1932450">
        <ele>148.9</ele>
        <time>2020-11-11T06:49:16Z</time>
      </trkpt>
      <trkpt lat="28.5225750" lon="-16.1932470">
        <ele>148.9</ele>
        <time>2020-11-11T06:49:17Z</time>
      </trkpt>
      <trkpt lat="28.5225980" lon="-16.1932480">
        <ele>149.9</ele>
        <time>2020-11-11T06:49:18Z</time>
      </trkpt>
      <trkpt lat="28.5225980" lon="-16.1932480">
        <ele>149.9</ele>
        <time>2020-11-11T06:49:19Z</time>
      </trkpt>
      <trkpt lat="28.5226420" lon="-16.1932550">
        <ele>149.9</ele>
        <time>2020-11-11T06:49:20Z</time>
      </trkpt>
      <trkpt lat="28.5226420" lon="-16.1932550">
        <ele>149.9</ele>
        <time>2020-11-11T06:49:21Z</time>
      </trkpt>
      <trkpt lat="28.5226830" lon="-16.1932730">
        <ele>149.9</ele>
        <time>2020-11-11T06:49:22Z</time>
      </trkpt>
      <trkpt lat="28.5227070" lon="-16.1932800">
        <ele>149.9</ele>
        <time>2020-11-11T06:49:23Z</time>
      </trkpt>
      <trkpt lat="28.5227070" lon="-16.1932800">
        <ele>149.9</ele>
        <time>2020-11-11T06:49:24Z</time>
      </trkpt>
      <trkpt lat="28.5227550" lon="-16.1932970">
        <ele>149.9</ele>
        <time>2020-11-11T06:49:25Z</time>
      </trkpt>
      <trkpt lat="28.5227550" lon="-16.1932970">
        <ele>150.9</ele>
        <time>2020-11-11T06:49:26Z</time>
      </trkpt>
      <trkpt lat="28.5228030" lon="-16.1933130">
        <ele>150.9</ele>
        <time>2020-11-11T06:49:27Z</time>
      </trkpt>
      <trkpt lat="28.5228030" lon="-16.1933130">
        <ele>150.9</ele>
        <time>2020-11-11T06:49:28Z</time>
      </trkpt>
      <trkpt lat="28.5228580" lon="-16.1933250">
        <ele>150.9</ele>
        <time>2020-11-11T06:49:29Z</time>
      </trkpt>
      <trkpt lat="28.5228580" lon="-16.1933250">
        <ele>150.9</ele>
        <time>2020-11-11T06:49:30Z</time>
      </trkpt>
      <trkpt lat="28.5229070" lon="-16.1933300">
        <ele>150.9</ele>
        <time>2020-11-11T06:49:31Z</time>
      </trkpt>
      <trkpt lat="28.5229300" lon="-16.1933370">
        <ele>151.9</ele>
        <time>2020-11-11T06:49:32Z</time>
      </trkpt>
      <trkpt lat="28.5229300" lon="-16.1933370">
        <ele>151.9</ele>
        <time>2020-11-11T06:49:33Z</time>
      </trkpt>
      <trkpt lat="28.5229770" lon="-16.1933500">
        <ele>151.9</ele>
        <time>2020-11-11T06:49:34Z</time>
      </trkpt>
      <trkpt lat="28.5230000" lon="-16.1933570">
        <ele>151.9</ele>
        <time>2020-11-11T06:49:35Z</time>
      </trkpt>
      <trkpt lat="28.5230000" lon="-16.1933570">
        <ele>151.9</ele>
        <time>2020-11-11T06:49:36Z</time>
      </trkpt>
      <trkpt lat="28.5230450" lon="-16.1933780">
        <ele>151.9</ele>
        <time>2020-11-11T06:49:37Z</time>
      </trkpt>
      <trkpt lat="28.5230450" lon="-16.1933780">
        <ele>152.9</ele>
        <time>2020-11-11T06:49:38Z</time>
      </trkpt>
      <trkpt lat="28.5230880" lon="-16.1933930">
        <ele>152.9</ele>
        <time>2020-11-11T06:49:39Z</time>
      </trkpt>
      <trkpt lat="28.5230880" lon="-16.1933930">
        <ele>152.9</ele>
        <time>2020-11-11T06:49:40Z</time>
      </trkpt>
      <trkpt lat="28.5231330" lon="-16.1933980">
        <ele>152.9</ele>
        <time>2020-11-11T06:49:41Z</time>
      </trkpt>
      <trkpt lat="28.5231550" lon="-16.1934050">
        <ele>152.9</ele>
        <time>2020-11-11T06:49:42Z</time>
      </trkpt>
      <trkpt lat="28.5231550" lon="-16.1934050">
        <ele>152.9</ele>
        <time>2020-11-11T06:49:43Z</time>
      </trkpt>
      <trkpt lat="28.5231980" lon="-16.1934180">
        <ele>152.9</ele>
        <time>2020-11-11T06:49:44Z</time>
      </trkpt>
      <trkpt lat="28.5231980" lon="-16.1934180">
        <ele>152.9</ele>
        <time>2020-11-11T06:49:45Z</time>
      </trkpt>
      <trkpt lat="28.5232450" lon="-16.1934280">
        <ele>153.9</ele>
        <time>2020-11-11T06:49:46Z</time>
      </trkpt>
      <trkpt lat="28.5232450" lon="-16.1934280">
        <ele>153.9</ele>
        <time>2020-11-11T06:49:47Z</time>
      </trkpt>
      <trkpt lat="28.5232870" lon="-16.1934430">
        <ele>153.9</ele>
        <time>2020-11-11T06:49:48Z</time>
      </trkpt>
      <trkpt lat="28.5233080" lon="-16.1934520">
        <ele>153.9</ele>
        <time>2020-11-11T06:49:49Z</time>
      </trkpt>
      <trkpt lat="28.5233080" lon="-16.1934520">
        <ele>153.9</ele>
        <time>2020-11-11T06:49:50Z</time>
      </trkpt>
      <trkpt lat="28.5233520" lon="-16.1934680">
        <ele>153.9</ele>
        <time>2020-11-11T06:49:51Z</time>
      </trkpt>
      <trkpt lat="28.5233730" lon="-16.1934770">
        <ele>153.9</ele>
        <time>2020-11-11T06:49:52Z</time>
      </trkpt>
      <trkpt lat="28.5233950" lon="-16.1934870">
        <ele>153.9</ele>
        <time>2020-11-11T06:49:53Z</time>
      </trkpt>
      <trkpt lat="28.5233950" lon="-16.1934870">
        <ele>153.9</ele>
        <time>2020-11-11T06:49:54Z</time>
      </trkpt>
      <trkpt lat="28.5234380" lon="-16.1935030">
        <ele>155.9</ele>
        <time>2020-11-11T06:49:55Z</time>
      </trkpt>
      <trkpt lat="28.5234380" lon="-16.1935030">
        <ele>155.9</ele>
        <time>2020-11-11T06:49:56Z</time>
      </trkpt>
      <trkpt lat="28.5234800" lon="-16.1935250">
        <ele>155.9</ele>
        <time>2020-11-11T06:49:57Z</time>
      </trkpt>
      <trkpt lat="28.5234800" lon="-16.1935250">
        <ele>155.9</ele>
        <time>2020-11-11T06:49:58Z</time>
      </trkpt>
      <trkpt lat="28.5235150" lon="-16.1935570">
        <ele>155.9</ele>
        <time>2020-11-11T06:49:59Z</time>
      </trkpt>
      <trkpt lat="28.5235330" lon="-16.1935720">
        <ele>155.9</ele>
        <time>2020-11-11T06:50:00Z</time>
      </trkpt>
      <trkpt lat="28.5235330" lon="-16.1935720">
        <ele>155.9</ele>
        <time>2020-11-11T06:50:01Z</time>
      </trkpt>
      <trkpt lat="28.5235670" lon="-16.1936130">
        <ele>155.9</ele>
        <time>2020-11-11T06:50:02Z</time>
      </trkpt>
      <trkpt lat="28.5235670" lon="-16.1936130">
        <ele>155.9</ele>
        <time>2020-11-11T06:50:03Z</time>
      </trkpt>
      <trkpt lat="28.5235950" lon="-16.1936570">
        <ele>155.9</ele>
        <time>2020-11-11T06:50:04Z</time>
      </trkpt>
      <trkpt lat="28.5235950" lon="-16.1936570">
        <ele>155.9</ele>
        <time>2020-11-11T06:50:05Z</time>
      </trkpt>
      <trkpt lat="28.5236270" lon="-16.1936980">
        <ele>156.9</ele>
        <time>2020-11-11T06:50:06Z</time>
      </trkpt>
      <trkpt lat="28.5236380" lon="-16.1937170">
        <ele>156.9</ele>
        <time>2020-11-11T06:50:07Z</time>
      </trkpt>
      <trkpt lat="28.5236380" lon="-16.1937170">
        <ele>156.9</ele>
        <time>2020-11-11T06:50:08Z</time>
      </trkpt>
      <trkpt lat="28.5236620" lon="-16.1937600">
        <ele>156.9</ele>
        <time>2020-11-11T06:50:09Z</time>
      </trkpt>
      <trkpt lat="28.5236620" lon="-16.1937600">
        <ele>157.9</ele>
        <time>2020-11-11T06:50:10Z</time>
      </trkpt>
      <trkpt lat="28.5236830" lon="-16.1938030">
        <ele>157.9</ele>
        <time>2020-11-11T06:50:11Z</time>
      </trkpt>
      <trkpt lat="28.5236830" lon="-16.1938030">
        <ele>157.9</ele>
        <time>2020-11-11T06:50:12Z</time>
      </trkpt>
      <trkpt lat="28.5236980" lon="-16.1938530">
        <ele>157.9</ele>
        <time>2020-11-11T06:50:13Z</time>
      </trkpt>
      <trkpt lat="28.5236980" lon="-16.1938530">
        <ele>157.9</ele>
        <time>2020-11-11T06:50:14Z</time>
      </trkpt>
      <trkpt lat="28.5237200" lon="-16.1939000">
        <ele>157.9</ele>
        <time>2020-11-11T06:50:15Z</time>
      </trkpt>
      <trkpt lat="28.5237200" lon="-16.1939000">
        <ele>158.9</ele>
        <time>2020-11-11T06:50:16Z</time>
      </trkpt>
      <trkpt lat="28.5237430" lon="-16.1939450">
        <ele>158.9</ele>
        <time>2020-11-11T06:50:17Z</time>
      </trkpt>
      <trkpt lat="28.5237600" lon="-16.1939670">
        <ele>158.9</ele>
        <time>2020-11-11T06:50:18Z</time>
      </trkpt>
      <trkpt lat="28.5237600" lon="-16.1939670">
        <ele>158.9</ele>
        <time>2020-11-11T06:50:19Z</time>
      </trkpt>
      <trkpt lat="28.5237920" lon="-16.1940050">
        <ele>158.9</ele>
        <time>2020-11-11T06:50:20Z</time>
      </trkpt>
      <trkpt lat="28.5237920" lon="-16.1940050">
        <ele>158.9</ele>
        <time>2020-11-11T06:50:21Z</time>
      </trkpt>
      <trkpt lat="28.5238300" lon="-16.1940230">
        <ele>159.9</ele>
        <time>2020-11-11T06:50:22Z</time>
      </trkpt>
      <trkpt lat="28.5238300" lon="-16.1940230">
        <ele>159.9</ele>
        <time>2020-11-11T06:50:23Z</time>
      </trkpt>
      <trkpt lat="28.5238720" lon="-16.1940320">
        <ele>159.9</ele>
        <time>2020-11-11T06:50:24Z</time>
      </trkpt>
      <trkpt lat="28.5238980" lon="-16.1940300">
        <ele>160.9</ele>
        <time>2020-11-11T06:50:25Z</time>
      </trkpt>
      <trkpt lat="28.5238980" lon="-16.1940300">
        <ele>160.9</ele>
        <time>2020-11-11T06:50:26Z</time>
      </trkpt>
      <trkpt lat="28.5239420" lon="-16.1940180">
        <ele>160.9</ele>
        <time>2020-11-11T06:50:27Z</time>
      </trkpt>
      <trkpt lat="28.5239650" lon="-16.1940070">
        <ele>160.9</ele>
        <time>2020-11-11T06:50:28Z</time>
      </trkpt>
      <trkpt lat="28.5239820" lon="-16.1939880">
        <ele>160.9</ele>
        <time>2020-11-11T06:50:29Z</time>
      </trkpt>
      <trkpt lat="28.5239820" lon="-16.1939880">
        <ele>160.9</ele>
        <time>2020-11-11T06:50:30Z</time>
      </trkpt>
      <trkpt lat="28.5240130" lon="-16.1939470">
        <ele>160.9</ele>
        <time>2020-11-11T06:50:31Z</time>
      </trkpt>
      <trkpt lat="28.5240130" lon="-16.1939470">
        <ele>160.9</ele>
        <time>2020-11-11T06:50:32Z</time>
      </trkpt>
      <trkpt lat="28.5240380" lon="-16.1939020">
        <ele>160.9</ele>
        <time>2020-11-11T06:50:33Z</time>
      </trkpt>
      <trkpt lat="28.5240530" lon="-16.1938750">
        <ele>160.9</ele>
        <time>2020-11-11T06:50:34Z</time>
      </trkpt>
      <trkpt lat="28.5240530" lon="-16.1938750">
        <ele>160.9</ele>
        <time>2020-11-11T06:50:35Z</time>
      </trkpt>
      <trkpt lat="28.5240770" lon="-16.1938280">
        <ele>160.9</ele>
        <time>2020-11-11T06:50:36Z</time>
      </trkpt>
      <trkpt lat="28.5240900" lon="-16.1938030">
        <ele>160.9</ele>
        <time>2020-11-11T06:50:37Z</time>
      </trkpt>
      <trkpt lat="28.5240900" lon="-16.1938030">
        <ele>160.9</ele>
        <time>2020-11-11T06:50:38Z</time>
      </trkpt>
      <trkpt lat="28.5241150" lon="-16.1937600">
        <ele>161.9</ele>
        <time>2020-11-11T06:50:39Z</time>
      </trkpt>
      <trkpt lat="28.5241250" lon="-16.1937370">
        <ele>161.9</ele>
        <time>2020-11-11T06:50:40Z</time>
      </trkpt>
      <trkpt lat="28.5241250" lon="-16.1937370">
        <ele>161.9</ele>
        <time>2020-11-11T06:50:41Z</time>
      </trkpt>
      <trkpt lat="28.5241450" lon="-16.1936880">
        <ele>161.9</ele>
        <time>2020-11-11T06:50:42Z</time>
      </trkpt>
      <trkpt lat="28.5241550" lon="-16.1936650">
        <ele>162.9</ele>
        <time>2020-11-11T06:50:43Z</time>
      </trkpt>
      <trkpt lat="28.5241550" lon="-16.1936650">
        <ele>162.9</ele>
        <time>2020-11-11T06:50:44Z</time>
      </trkpt>
      <trkpt lat="28.5241780" lon="-16.1936200">
        <ele>162.9</ele>
        <time>2020-11-11T06:50:45Z</time>
      </trkpt>
      <trkpt lat="28.5241780" lon="-16.1936200">
        <ele>162.9</ele>
        <time>2020-11-11T06:50:46Z</time>
      </trkpt>
      <trkpt lat="28.5241980" lon="-16.1935750">
        <ele>162.9</ele>
        <time>2020-11-11T06:50:47Z</time>
      </trkpt>
      <trkpt lat="28.5241980" lon="-16.1935750">
        <ele>162.9</ele>
        <time>2020-11-11T06:50:48Z</time>
      </trkpt>
      <trkpt lat="28.5242180" lon="-16.1935300">
        <ele>162.9</ele>
        <time>2020-11-11T06:50:49Z</time>
      </trkpt>
      <trkpt lat="28.5242180" lon="-16.1935300">
        <ele>162.9</ele>
        <time>2020-11-11T06:50:50Z</time>
      </trkpt>
      <trkpt lat="28.5242420" lon="-16.1934870">
        <ele>163.9</ele>
        <time>2020-11-11T06:50:51Z</time>
      </trkpt>
      <trkpt lat="28.5242420" lon="-16.1934870">
        <ele>163.9</ele>
        <time>2020-11-11T06:50:52Z</time>
      </trkpt>
      <trkpt lat="28.5242700" lon="-16.1934430">
        <ele>163.9</ele>
        <time>2020-11-11T06:50:53Z</time>
      </trkpt>
      <trkpt lat="28.5242700" lon="-16.1934430">
        <ele>163.9</ele>
        <time>2020-11-11T06:50:54Z</time>
      </trkpt>
      <trkpt lat="28.5243030" lon="-16.1934070">
        <ele>163.9</ele>
        <time>2020-11-11T06:50:55Z</time>
      </trkpt>
      <trkpt lat="28.5243030" lon="-16.1934070">
        <ele>163.9</ele>
        <time>2020-11-11T06:50:56Z</time>
      </trkpt>
      <trkpt lat="28.5243470" lon="-16.1933780">
        <ele>164.9</ele>
        <time>2020-11-11T06:50:57Z</time>
      </trkpt>
      <trkpt lat="28.5243700" lon="-16.1933650">
        <ele>164.9</ele>
        <time>2020-11-11T06:50:58Z</time>
      </trkpt>
      <trkpt lat="28.5243930" lon="-16.1933530">
        <ele>164.9</ele>
        <time>2020-11-11T06:50:59Z</time>
      </trkpt>
      <trkpt lat="28.5243930" lon="-16.1933530">
        <ele>164.9</ele>
        <time>2020-11-11T06:51:00Z</time>
      </trkpt>
      <trkpt lat="28.5244450" lon="-16.1933450">
        <ele>164.9</ele>
        <time>2020-11-11T06:51:01Z</time>
      </trkpt>
      <trkpt lat="28.5244450" lon="-16.1933450">
        <ele>165.9</ele>
        <time>2020-11-11T06:51:02Z</time>
      </trkpt>
      <trkpt lat="28.5244950" lon="-16.1933350">
        <ele>165.9</ele>
        <time>2020-11-11T06:51:03Z</time>
      </trkpt>
      <trkpt lat="28.5244950" lon="-16.1933350">
        <ele>165.9</ele>
        <time>2020-11-11T06:51:04Z</time>
      </trkpt>
      <trkpt lat="28.5245430" lon="-16.1933300">
        <ele>165.9</ele>
        <time>2020-11-11T06:51:05Z</time>
      </trkpt>
      <trkpt lat="28.5245430" lon="-16.1933300">
        <ele>165.9</ele>
        <time>2020-11-11T06:51:06Z</time>
      </trkpt>
      <trkpt lat="28.5245920" lon="-16.1933270">
        <ele>165.9</ele>
        <time>2020-11-11T06:51:07Z</time>
      </trkpt>
      <trkpt lat="28.5245920" lon="-16.1933270">
        <ele>166.9</ele>
        <time>2020-11-11T06:51:08Z</time>
      </trkpt>
      <trkpt lat="28.5246400" lon="-16.1933350">
        <ele>166.9</ele>
        <time>2020-11-11T06:51:09Z</time>
      </trkpt>
      <trkpt lat="28.5246400" lon="-16.1933350">
        <ele>166.9</ele>
        <time>2020-11-11T06:51:10Z</time>
      </trkpt>
      <trkpt lat="28.5246870" lon="-16.1933480">
        <ele>166.9</ele>
        <time>2020-11-11T06:51:11Z</time>
      </trkpt>
      <trkpt lat="28.5246870" lon="-16.1933480">
        <ele>167.9</ele>
        <time>2020-11-11T06:51:12Z</time>
      </trkpt>
      <trkpt lat="28.5247300" lon="-16.1933630">
        <ele>167.9</ele>
        <time>2020-11-11T06:51:13Z</time>
      </trkpt>
      <trkpt lat="28.5247300" lon="-16.1933630">
        <ele>167.9</ele>
        <time>2020-11-11T06:51:14Z</time>
      </trkpt>
      <trkpt lat="28.5247750" lon="-16.1933820">
        <ele>167.9</ele>
        <time>2020-11-11T06:51:15Z</time>
      </trkpt>
      <trkpt lat="28.5247750" lon="-16.1933820">
        <ele>167.9</ele>
        <time>2020-11-11T06:51:16Z</time>
      </trkpt>
      <trkpt lat="28.5248200" lon="-16.1934030">
        <ele>167.9</ele>
        <time>2020-11-11T06:51:17Z</time>
      </trkpt>
      <trkpt lat="28.5248200" lon="-16.1934030">
        <ele>167.9</ele>
        <time>2020-11-11T06:51:18Z</time>
      </trkpt>
      <trkpt lat="28.5248650" lon="-16.1934250">
        <ele>167.9</ele>
        <time>2020-11-11T06:51:19Z</time>
      </trkpt>
      <trkpt lat="28.5248650" lon="-16.1934250">
        <ele>167.9</ele>
        <time>2020-11-11T06:51:20Z</time>
      </trkpt>
      <trkpt lat="28.5249100" lon="-16.1934480">
        <ele>167.9</ele>
        <time>2020-11-11T06:51:21Z</time>
      </trkpt>
      <trkpt lat="28.5249100" lon="-16.1934480">
        <ele>167.9</ele>
        <time>2020-11-11T06:51:22Z</time>
      </trkpt>
      <trkpt lat="28.5249530" lon="-16.1934720">
        <ele>167.9</ele>
        <time>2020-11-11T06:51:23Z</time>
      </trkpt>
      <trkpt lat="28.5249530" lon="-16.1934720">
        <ele>168.9</ele>
        <time>2020-11-11T06:51:24Z</time>
      </trkpt>
      <trkpt lat="28.5249980" lon="-16.1934950">
        <ele>168.9</ele>
        <time>2020-11-11T06:51:25Z</time>
      </trkpt>
      <trkpt lat="28.5249980" lon="-16.1934950">
        <ele>168.9</ele>
        <time>2020-11-11T06:51:26Z</time>
      </trkpt>
      <trkpt lat="28.5250450" lon="-16.1935130">
        <ele>168.9</ele>
        <time>2020-11-11T06:51:27Z</time>
      </trkpt>
      <trkpt lat="28.5250700" lon="-16.1935200">
        <ele>169.9</ele>
        <time>2020-11-11T06:51:28Z</time>
      </trkpt>
      <trkpt lat="28.5250970" lon="-16.1935280">
        <ele>169.9</ele>
        <time>2020-11-11T06:51:29Z</time>
      </trkpt>
      <trkpt lat="28.5250970" lon="-16.1935280">
        <ele>169.9</ele>
        <time>2020-11-11T06:51:30Z</time>
      </trkpt>
      <trkpt lat="28.5251480" lon="-16.1935350">
        <ele>169.9</ele>
        <time>2020-11-11T06:51:31Z</time>
      </trkpt>
      <trkpt lat="28.5251480" lon="-16.1935350">
        <ele>169.9</ele>
        <time>2020-11-11T06:51:32Z</time>
      </trkpt>
      <trkpt lat="28.5251970" lon="-16.1935220">
        <ele>169.9</ele>
        <time>2020-11-11T06:51:33Z</time>
      </trkpt>
      <trkpt lat="28.5251970" lon="-16.1935220">
        <ele>170.9</ele>
        <time>2020-11-11T06:51:34Z</time>
      </trkpt>
      <trkpt lat="28.5252400" lon="-16.1934980">
        <ele>170.9</ele>
        <time>2020-11-11T06:51:35Z</time>
      </trkpt>
      <trkpt lat="28.5252620" lon="-16.1934800">
        <ele>170.9</ele>
        <time>2020-11-11T06:51:36Z</time>
      </trkpt>
      <trkpt lat="28.5252620" lon="-16.1934800">
        <ele>170.9</ele>
        <time>2020-11-11T06:51:37Z</time>
      </trkpt>
      <trkpt lat="28.5253020" lon="-16.1934430">
        <ele>171.9</ele>
        <time>2020-11-11T06:51:38Z</time>
      </trkpt>
      <trkpt lat="28.5253020" lon="-16.1934430">
        <ele>171.9</ele>
        <time>2020-11-11T06:51:39Z</time>
      </trkpt>
      <trkpt lat="28.5253420" lon="-16.1934050">
        <ele>171.9</ele>
        <time>2020-11-11T06:51:40Z</time>
      </trkpt>
      <trkpt lat="28.5253420" lon="-16.1934050">
        <ele>172.9</ele>
        <time>2020-11-11T06:51:41Z</time>
      </trkpt>
      <trkpt lat="28.5253800" lon="-16.1933700">
        <ele>172.9</ele>
        <time>2020-11-11T06:51:42Z</time>
      </trkpt>
      <trkpt lat="28.5254000" lon="-16.1933550">
        <ele>172.9</ele>
        <time>2020-11-11T06:51:43Z</time>
      </trkpt>
      <trkpt lat="28.5254000" lon="-16.1933550">
        <ele>172.9</ele>
        <time>2020-11-11T06:51:44Z</time>
      </trkpt>
      <trkpt lat="28.5254450" lon="-16.1933220">
        <ele>173.9</ele>
        <time>2020-11-11T06:51:45Z</time>
      </trkpt>
      <trkpt lat="28.5254450" lon="-16.1933220">
        <ele>173.9</ele>
        <time>2020-11-11T06:51:46Z</time>
      </trkpt>
      <trkpt lat="28.5254870" lon="-16.1932950">
        <ele>173.9</ele>
        <time>2020-11-11T06:51:47Z</time>
      </trkpt>
      <trkpt lat="28.5255100" lon="-16.1932870">
        <ele>173.9</ele>
        <time>2020-11-11T06:51:48Z</time>
      </trkpt>
      <trkpt lat="28.5255100" lon="-16.1932870">
        <ele>173.9</ele>
        <time>2020-11-11T06:51:49Z</time>
      </trkpt>
      <trkpt lat="28.5255570" lon="-16.1932730">
        <ele>173.9</ele>
        <time>2020-11-11T06:51:50Z</time>
      </trkpt>
      <trkpt lat="28.5255570" lon="-16.1932730">
        <ele>174.9</ele>
        <time>2020-11-11T06:51:51Z</time>
      </trkpt>
      <trkpt lat="28.5256070" lon="-16.1932630">
        <ele>174.9</ele>
        <time>2020-11-11T06:51:52Z</time>
      </trkpt>
      <trkpt lat="28.5256070" lon="-16.1932630">
        <ele>174.9</ele>
        <time>2020-11-11T06:51:53Z</time>
      </trkpt>
      <trkpt lat="28.5256570" lon="-16.1932600">
        <ele>174.9</ele>
        <time>2020-11-11T06:51:54Z</time>
      </trkpt>
      <trkpt lat="28.5256820" lon="-16.1932600">
        <ele>174.9</ele>
        <time>2020-11-11T06:51:55Z</time>
      </trkpt>
      <trkpt lat="28.5257070" lon="-16.1932650">
        <ele>174.9</ele>
        <time>2020-11-11T06:51:56Z</time>
      </trkpt>
      <trkpt lat="28.5257070" lon="-16.1932650">
        <ele>174.9</ele>
        <time>2020-11-11T06:51:57Z</time>
      </trkpt>
      <trkpt lat="28.5257500" lon="-16.1932830">
        <ele>174.9</ele>
        <time>2020-11-11T06:51:58Z</time>
      </trkpt>
      <trkpt lat="28.5257500" lon="-16.1932830">
        <ele>174.9</ele>
        <time>2020-11-11T06:51:59Z</time>
      </trkpt>
      <trkpt lat="28.5257930" lon="-16.1933100">
        <ele>174.9</ele>
        <time>2020-11-11T06:52:00Z</time>
      </trkpt>
      <trkpt lat="28.5258130" lon="-16.1933250">
        <ele>175.9</ele>
        <time>2020-11-11T06:52:01Z</time>
      </trkpt>
      <trkpt lat="28.5258130" lon="-16.1933250">
        <ele>175.9</ele>
        <time>2020-11-11T06:52:02Z</time>
      </trkpt>
      <trkpt lat="28.5258470" lon="-16.1933600">
        <ele>175.9</ele>
        <time>2020-11-11T06:52:03Z</time>
      </trkpt>
      <trkpt lat="28.5258630" lon="-16.1933770">
        <ele>175.9</ele>
        <time>2020-11-11T06:52:04Z</time>
      </trkpt>
      <trkpt lat="28.5258780" lon="-16.1933920">
        <ele>176.9</ele>
        <time>2020-11-11T06:52:05Z</time>
      </trkpt>
      <trkpt lat="28.5258780" lon="-16.1933920">
        <ele>176.9</ele>
        <time>2020-11-11T06:52:06Z</time>
      </trkpt>
      <trkpt lat="28.5259120" lon="-16.1934270">
        <ele>176.9</ele>
        <time>2020-11-11T06:52:07Z</time>
      </trkpt>
      <trkpt lat="28.5259120" lon="-16.1934270">
        <ele>176.9</ele>
        <time>2020-11-11T06:52:08Z</time>
      </trkpt>
      <trkpt lat="28.5259430" lon="-16.1934670">
        <ele>176.9</ele>
        <time>2020-11-11T06:52:09Z</time>
      </trkpt>
      <trkpt lat="28.5259580" lon="-16.1934850">
        <ele>176.9</ele>
        <time>2020-11-11T06:52:10Z</time>
      </trkpt>
      <trkpt lat="28.5259580" lon="-16.1934850">
        <ele>177.9</ele>
        <time>2020-11-11T06:52:11Z</time>
      </trkpt>
      <trkpt lat="28.5259870" lon="-16.1935220">
        <ele>177.9</ele>
        <time>2020-11-11T06:52:12Z</time>
      </trkpt>
      <trkpt lat="28.5259870" lon="-16.1935220">
        <ele>177.9</ele>
        <time>2020-11-11T06:52:13Z</time>
      </trkpt>
      <trkpt lat="28.5260130" lon="-16.1935630">
        <ele>177.9</ele>
        <time>2020-11-11T06:52:14Z</time>
      </trkpt>
      <trkpt lat="28.5260130" lon="-16.1935630">
        <ele>177.9</ele>
        <time>2020-11-11T06:52:15Z</time>
      </trkpt>
      <trkpt lat="28.5260320" lon="-16.1936100">
        <ele>178.9</ele>
        <time>2020-11-11T06:52:16Z</time>
      </trkpt>
      <trkpt lat="28.5260320" lon="-16.1936100">
        <ele>178.9</ele>
        <time>2020-11-11T06:52:17Z</time>
      </trkpt>
      <trkpt lat="28.5260520" lon="-16.1936570">
        <ele>178.9</ele>
        <time>2020-11-11T06:52:18Z</time>
      </trkpt>
      <trkpt lat="28.5260620" lon="-16.1936800">
        <ele>178.9</ele>
        <time>2020-11-11T06:52:19Z</time>
      </trkpt>
      <trkpt lat="28.5260620" lon="-16.1936800">
        <ele>178.9</ele>
        <time>2020-11-11T06:52:20Z</time>
      </trkpt>
      <trkpt lat="28.5260830" lon="-16.1937270">
        <ele>178.9</ele>
        <time>2020-11-11T06:52:21Z</time>
      </trkpt>
      <trkpt lat="28.5260830" lon="-16.1937270">
        <ele>178.9</ele>
        <time>2020-11-11T06:52:22Z</time>
      </trkpt>
      <trkpt lat="28.5261020" lon="-16.1937720">
        <ele>179.9</ele>
        <time>2020-11-11T06:52:23Z</time>
      </trkpt>
      <trkpt lat="28.5261020" lon="-16.1937720">
        <ele>179.9</ele>
        <time>2020-11-11T06:52:24Z</time>
      </trkpt>
      <trkpt lat="28.5261150" lon="-16.1938200">
        <ele>179.9</ele>
        <time>2020-11-11T06:52:25Z</time>
      </trkpt>
      <trkpt lat="28.5261150" lon="-16.1938200">
        <ele>179.9</ele>
        <time>2020-11-11T06:52:26Z</time>
      </trkpt>
      <trkpt lat="28.5261300" lon="-16.1938700">
        <ele>180.9</ele>
        <time>2020-11-11T06:52:27Z</time>
      </trkpt>
      <trkpt lat="28.5261300" lon="-16.1938700">
        <ele>180.9</ele>
        <time>2020-11-11T06:52:28Z</time>
      </trkpt>
      <trkpt lat="28.5261480" lon="-16.1939220">
        <ele>180.9</ele>
        <time>2020-11-11T06:52:29Z</time>
      </trkpt>
      <trkpt lat="28.5261480" lon="-16.1939220">
        <ele>180.9</ele>
        <time>2020-11-11T06:52:30Z</time>
      </trkpt>
      <trkpt lat="28.5261700" lon="-16.1939700">
        <ele>181.9</ele>
        <time>2020-11-11T06:52:31Z</time>
      </trkpt>
      <trkpt lat="28.5261850" lon="-16.1939900">
        <ele>181.9</ele>
        <time>2020-11-11T06:52:32Z</time>
      </trkpt>
      <trkpt lat="28.5261850" lon="-16.1939900">
        <ele>181.9</ele>
        <time>2020-11-11T06:52:33Z</time>
      </trkpt>
      <trkpt lat="28.5262150" lon="-16.1940320">
        <ele>181.9</ele>
        <time>2020-11-11T06:52:34Z</time>
      </trkpt>
      <trkpt lat="28.5262150" lon="-16.1940320">
        <ele>181.9</ele>
        <time>2020-11-11T06:52:35Z</time>
      </trkpt>
      <trkpt lat="28.5262350" lon="-16.1940750">
        <ele>181.9</ele>
        <time>2020-11-11T06:52:36Z</time>
      </trkpt>
      <trkpt lat="28.5262430" lon="-16.1940980">
        <ele>182.9</ele>
        <time>2020-11-11T06:52:37Z</time>
      </trkpt>
      <trkpt lat="28.5262430" lon="-16.1940980">
        <ele>182.9</ele>
        <time>2020-11-11T06:52:38Z</time>
      </trkpt>
      <trkpt lat="28.5262550" lon="-16.1941450">
        <ele>182.9</ele>
        <time>2020-11-11T06:52:39Z</time>
      </trkpt>
      <trkpt lat="28.5262620" lon="-16.1941670">
        <ele>182.9</ele>
        <time>2020-11-11T06:52:40Z</time>
      </trkpt>
      <trkpt lat="28.5262620" lon="-16.1941670">
        <ele>182.9</ele>
        <time>2020-11-11T06:52:41Z</time>
      </trkpt>
      <trkpt lat="28.5262820" lon="-16.1942130">
        <ele>182.9</ele>
        <time>2020-11-11T06:52:42Z</time>
      </trkpt>
      <trkpt lat="28.5262920" lon="-16.1942380">
        <ele>183.9</ele>
        <time>2020-11-11T06:52:43Z</time>
      </trkpt>
      <trkpt lat="28.5262920" lon="-16.1942380">
        <ele>183.9</ele>
        <time>2020-11-11T06:52:44Z</time>
      </trkpt>
      <trkpt lat="28.5263100" lon="-16.1942920">
        <ele>183.9</ele>
        <time>2020-11-11T06:52:45Z</time>
      </trkpt>
      <trkpt lat="28.5263100" lon="-16.1942920">
        <ele>183.9</ele>
        <time>2020-11-11T06:52:46Z</time>
      </trkpt>
      <trkpt lat="28.5263280" lon="-16.1943400">
        <ele>183.9</ele>
        <time>2020-11-11T06:52:47Z</time>
      </trkpt>
      <trkpt lat="28.5263370" lon="-16.1943670">
        <ele>183.9</ele>
        <time>2020-11-11T06:52:48Z</time>
      </trkpt>
      <trkpt lat="28.5263370" lon="-16.1943670">
        <ele>183.9</ele>
        <time>2020-11-11T06:52:49Z</time>
      </trkpt>
      <trkpt lat="28.5263430" lon="-16.1944180">
        <ele>183.9</ele>
        <time>2020-11-11T06:52:50Z</time>
      </trkpt>
      <trkpt lat="28.5263450" lon="-16.1944450">
        <ele>183.9</ele>
        <time>2020-11-11T06:52:51Z</time>
      </trkpt>
      <trkpt lat="28.5263450" lon="-16.1944450">
        <ele>183.9</ele>
        <time>2020-11-11T06:52:52Z</time>
      </trkpt>
      <trkpt lat="28.5263400" lon="-16.1944920">
        <ele>184.9</ele>
        <time>2020-11-11T06:52:53Z</time>
      </trkpt>
      <trkpt lat="28.5263400" lon="-16.1944920">
        <ele>184.9</ele>
        <time>2020-11-11T06:52:54Z</time>
      </trkpt>
      <trkpt lat="28.5263320" lon="-16.1945400">
        <ele>184.9</ele>
        <time>2020-11-11T06:52:55Z</time>
      </trkpt>
      <trkpt lat="28.5263230" lon="-16.1945620">
        <ele>184.9</ele>
        <time>2020-11-11T06:52:56Z</time>
      </trkpt>
      <trkpt lat="28.5263230" lon="-16.1945620">
        <ele>184.9</ele>
        <time>2020-11-11T06:52:57Z</time>
      </trkpt>
      <trkpt lat="28.5263020" lon="-16.1946080">
        <ele>185.9</ele>
        <time>2020-11-11T06:52:58Z</time>
      </trkpt>
      <trkpt lat="28.5263020" lon="-16.1946080">
        <ele>185.9</ele>
        <time>2020-11-11T06:52:59Z</time>
      </trkpt>
      <trkpt lat="28.5262830" lon="-16.1946520">
        <ele>185.9</ele>
        <time>2020-11-11T06:53:00Z</time>
      </trkpt>
      <trkpt lat="28.5262830" lon="-16.1946520">
        <ele>185.9</ele>
        <time>2020-11-11T06:53:01Z</time>
      </trkpt>
      <trkpt lat="28.5262620" lon="-16.1946970">
        <ele>185.9</ele>
        <time>2020-11-11T06:53:02Z</time>
      </trkpt>
      <trkpt lat="28.5262620" lon="-16.1946970">
        <ele>185.9</ele>
        <time>2020-11-11T06:53:03Z</time>
      </trkpt>
      <trkpt lat="28.5262500" lon="-16.1947380">
        <ele>186.9</ele>
        <time>2020-11-11T06:53:04Z</time>
      </trkpt>
      <trkpt lat="28.5262500" lon="-16.1947380">
        <ele>186.9</ele>
        <time>2020-11-11T06:53:05Z</time>
      </trkpt>
      <trkpt lat="28.5262220" lon="-16.1947800">
        <ele>186.9</ele>
        <time>2020-11-11T06:53:06Z</time>
      </trkpt>
      <trkpt lat="28.5262220" lon="-16.1947800">
        <ele>186.9</ele>
        <time>2020-11-11T06:53:07Z</time>
      </trkpt>
      <trkpt lat="28.5262050" lon="-16.1948230">
        <ele>186.9</ele>
        <time>2020-11-11T06:53:08Z</time>
      </trkpt>
      <trkpt lat="28.5262050" lon="-16.1948230">
        <ele>186.9</ele>
        <time>2020-11-11T06:53:09Z</time>
      </trkpt>
      <trkpt lat="28.5261920" lon="-16.1948670">
        <ele>187.9</ele>
        <time>2020-11-11T06:53:10Z</time>
      </trkpt>
      <trkpt lat="28.5261920" lon="-16.1948670">
        <ele>187.9</ele>
        <time>2020-11-11T06:53:11Z</time>
      </trkpt>
      <trkpt lat="28.5261900" lon="-16.1949150">
        <ele>187.9</ele>
        <time>2020-11-11T06:53:12Z</time>
      </trkpt>
      <trkpt lat="28.5261950" lon="-16.1949380">
        <ele>187.9</ele>
        <time>2020-11-11T06:53:13Z</time>
      </trkpt>
      <trkpt lat="28.5261950" lon="-16.1949380">
        <ele>187.9</ele>
        <time>2020-11-11T06:53:14Z</time>
      </trkpt>
      <trkpt lat="28.5262150" lon="-16.1949830">
        <ele>187.9</ele>
        <time>2020-11-11T06:53:15Z</time>
      </trkpt>
      <trkpt lat="28.5262300" lon="-16.1950030">
        <ele>188.9</ele>
        <time>2020-11-11T06:53:16Z</time>
      </trkpt>
      <trkpt lat="28.5262300" lon="-16.1950030">
        <ele>188.9</ele>
        <time>2020-11-11T06:53:17Z</time>
      </trkpt>
      <trkpt lat="28.5262600" lon="-16.1950430">
        <ele>188.9</ele>
        <time>2020-11-11T06:53:18Z</time>
      </trkpt>
      <trkpt lat="28.5262800" lon="-16.1950570">
        <ele>188.9</ele>
        <time>2020-11-11T06:53:19Z</time>
      </trkpt>
      <trkpt lat="28.5262800" lon="-16.1950570">
        <ele>189.9</ele>
        <time>2020-11-11T06:53:20Z</time>
      </trkpt>
      <trkpt lat="28.5263180" lon="-16.1950870">
        <ele>189.9</ele>
        <time>2020-11-11T06:53:21Z</time>
      </trkpt>
      <trkpt lat="28.5263380" lon="-16.1950980">
        <ele>189.9</ele>
        <time>2020-11-11T06:53:22Z</time>
      </trkpt>
      <trkpt lat="28.5263580" lon="-16.1951100">
        <ele>189.9</ele>
        <time>2020-11-11T06:53:23Z</time>
      </trkpt>
      <trkpt lat="28.5263580" lon="-16.1951100">
        <ele>190.9</ele>
        <time>2020-11-11T06:53:24Z</time>
      </trkpt>
      <trkpt lat="28.5263980" lon="-16.1951380">
        <ele>190.9</ele>
        <time>2020-11-11T06:53:25Z</time>
      </trkpt>
      <trkpt lat="28.5264150" lon="-16.1951530">
        <ele>190.9</ele>
        <time>2020-11-11T06:53:26Z</time>
      </trkpt>
      <trkpt lat="28.5264330" lon="-16.1951670">
        <ele>190.9</ele>
        <time>2020-11-11T06:53:27Z</time>
      </trkpt>
      <trkpt lat="28.5264330" lon="-16.1951670">
        <ele>190.9</ele>
        <time>2020-11-11T06:53:28Z</time>
      </trkpt>
      <trkpt lat="28.5264680" lon="-16.1952020">
        <ele>190.9</ele>
        <time>2020-11-11T06:53:29Z</time>
      </trkpt>
      <trkpt lat="28.5264850" lon="-16.1952200">
        <ele>190.9</ele>
        <time>2020-11-11T06:53:30Z</time>
      </trkpt>
      <trkpt lat="28.5265030" lon="-16.1952380">
        <ele>190.9</ele>
        <time>2020-11-11T06:53:31Z</time>
      </trkpt>
      <trkpt lat="28.5265030" lon="-16.1952380">
        <ele>190.9</ele>
        <time>2020-11-11T06:53:32Z</time>
      </trkpt>
      <trkpt lat="28.5265400" lon="-16.1952650">
        <ele>190.9</ele>
        <time>2020-11-11T06:53:33Z</time>
      </trkpt>
      <trkpt lat="28.5265400" lon="-16.1952650">
        <ele>191.9</ele>
        <time>2020-11-11T06:53:34Z</time>
      </trkpt>
      <trkpt lat="28.5265870" lon="-16.1952980">
        <ele>191.9</ele>
        <time>2020-11-11T06:53:35Z</time>
      </trkpt>
      <trkpt lat="28.5265870" lon="-16.1952980">
        <ele>191.9</ele>
        <time>2020-11-11T06:53:36Z</time>
      </trkpt>
      <trkpt lat="28.5266220" lon="-16.1953230">
        <ele>191.9</ele>
        <time>2020-11-11T06:53:37Z</time>
      </trkpt>
      <trkpt lat="28.5266220" lon="-16.1953230">
        <ele>191.9</ele>
        <time>2020-11-11T06:53:38Z</time>
      </trkpt>
      <trkpt lat="28.5266550" lon="-16.1953380">
        <ele>191.9</ele>
        <time>2020-11-11T06:53:39Z</time>
      </trkpt>
      <trkpt lat="28.5266780" lon="-16.1953430">
        <ele>192.9</ele>
        <time>2020-11-11T06:53:40Z</time>
      </trkpt>
      <trkpt lat="28.5267020" lon="-16.1953430">
        <ele>192.9</ele>
        <time>2020-11-11T06:53:41Z</time>
      </trkpt>
      <trkpt lat="28.5267020" lon="-16.1953430">
        <ele>192.9</ele>
        <time>2020-11-11T06:53:42Z</time>
      </trkpt>
      <trkpt lat="28.5267470" lon="-16.1953400">
        <ele>192.9</ele>
        <time>2020-11-11T06:53:43Z</time>
      </trkpt>
      <trkpt lat="28.5267470" lon="-16.1953400">
        <ele>192.9</ele>
        <time>2020-11-11T06:53:44Z</time>
      </trkpt>
      <trkpt lat="28.5267880" lon="-16.1953350">
        <ele>192.9</ele>
        <time>2020-11-11T06:53:45Z</time>
      </trkpt>
      <trkpt lat="28.5267880" lon="-16.1953350">
        <ele>193.9</ele>
        <time>2020-11-11T06:53:46Z</time>
      </trkpt>
      <trkpt lat="28.5268270" lon="-16.1953330">
        <ele>193.9</ele>
        <time>2020-11-11T06:53:47Z</time>
      </trkpt>
      <trkpt lat="28.5268450" lon="-16.1953270">
        <ele>193.9</ele>
        <time>2020-11-11T06:53:48Z</time>
      </trkpt>
      <trkpt lat="28.5268450" lon="-16.1953270">
        <ele>193.9</ele>
        <time>2020-11-11T06:53:49Z</time>
      </trkpt>
      <trkpt lat="28.5268870" lon="-16.1953100">
        <ele>194.9</ele>
        <time>2020-11-11T06:53:50Z</time>
      </trkpt>
      <trkpt lat="28.5268870" lon="-16.1953100">
        <ele>194.9</ele>
        <time>2020-11-11T06:53:51Z</time>
      </trkpt>
      <trkpt lat="28.5269280" lon="-16.1952920">
        <ele>194.9</ele>
        <time>2020-11-11T06:53:52Z</time>
      </trkpt>
      <trkpt lat="28.5269280" lon="-16.1952920">
        <ele>194.9</ele>
        <time>2020-11-11T06:53:53Z</time>
      </trkpt>
      <trkpt lat="28.5269700" lon="-16.1952750">
        <ele>195.9</ele>
        <time>2020-11-11T06:53:54Z</time>
      </trkpt>
      <trkpt lat="28.5269880" lon="-16.1952650">
        <ele>195.9</ele>
        <time>2020-11-11T06:53:55Z</time>
      </trkpt>
      <trkpt lat="28.5269880" lon="-16.1952650">
        <ele>195.9</ele>
        <time>2020-11-11T06:53:56Z</time>
      </trkpt>
      <trkpt lat="28.5270320" lon="-16.1952470">
        <ele>195.9</ele>
        <time>2020-11-11T06:53:57Z</time>
      </trkpt>
      <trkpt lat="28.5270320" lon="-16.1952470">
        <ele>196.9</ele>
        <time>2020-11-11T06:53:58Z</time>
      </trkpt>
      <trkpt lat="28.5270820" lon="-16.1952330">
        <ele>196.9</ele>
        <time>2020-11-11T06:53:59Z</time>
      </trkpt>
      <trkpt lat="28.5271070" lon="-16.1952230">
        <ele>196.9</ele>
        <time>2020-11-11T06:54:00Z</time>
      </trkpt>
      <trkpt lat="28.5271070" lon="-16.1952230">
        <ele>196.9</ele>
        <time>2020-11-11T06:54:01Z</time>
      </trkpt>
      <trkpt lat="28.5271550" lon="-16.1952050">
        <ele>196.9</ele>
        <time>2020-11-11T06:54:02Z</time>
      </trkpt>
      <trkpt lat="28.5271550" lon="-16.1952050">
        <ele>196.9</ele>
        <time>2020-11-11T06:54:03Z</time>
      </trkpt>
      <trkpt lat="28.5272030" lon="-16.1951880">
        <ele>196.9</ele>
        <time>2020-11-11T06:54:04Z</time>
      </trkpt>
      <trkpt lat="28.5272030" lon="-16.1951880">
        <ele>196.9</ele>
        <time>2020-11-11T06:54:05Z</time>
      </trkpt>
      <trkpt lat="28.5272470" lon="-16.1951750">
        <ele>197.9</ele>
        <time>2020-11-11T06:54:06Z</time>
      </trkpt>
      <trkpt lat="28.5272470" lon="-16.1951750">
        <ele>197.9</ele>
        <time>2020-11-11T06:54:07Z</time>
      </trkpt>
      <trkpt lat="28.5272880" lon="-16.1951520">
        <ele>197.9</ele>
        <time>2020-11-11T06:54:08Z</time>
      </trkpt>
      <trkpt lat="28.5273120" lon="-16.1951450">
        <ele>198.9</ele>
        <time>2020-11-11T06:54:09Z</time>
      </trkpt>
      <trkpt lat="28.5273120" lon="-16.1951450">
        <ele>198.9</ele>
        <time>2020-11-11T06:54:10Z</time>
      </trkpt>
      <trkpt lat="28.5273600" lon="-16.1951420">
        <ele>198.9</ele>
        <time>2020-11-11T06:54:11Z</time>
      </trkpt>
      <trkpt lat="28.5273600" lon="-16.1951420">
        <ele>198.9</ele>
        <time>2020-11-11T06:54:12Z</time>
      </trkpt>
      <trkpt lat="28.5274120" lon="-16.1951450">
        <ele>199.9</ele>
        <time>2020-11-11T06:54:13Z</time>
      </trkpt>
      <trkpt lat="28.5274120" lon="-16.1951450">
        <ele>199.9</ele>
        <time>2020-11-11T06:54:14Z</time>
      </trkpt>
      <trkpt lat="28.5274620" lon="-16.1951620">
        <ele>199.9</ele>
        <time>2020-11-11T06:54:15Z</time>
      </trkpt>
      <trkpt lat="28.5274850" lon="-16.1951750">
        <ele>199.9</ele>
        <time>2020-11-11T06:54:16Z</time>
      </trkpt>
      <trkpt lat="28.5274850" lon="-16.1951750">
        <ele>199.9</ele>
        <time>2020-11-11T06:54:17Z</time>
      </trkpt>
      <trkpt lat="28.5275250" lon="-16.1952070">
        <ele>199.9</ele>
        <time>2020-11-11T06:54:18Z</time>
      </trkpt>
      <trkpt lat="28.5275450" lon="-16.1952230">
        <ele>200.9</ele>
        <time>2020-11-11T06:54:19Z</time>
      </trkpt>
      <trkpt lat="28.5275450" lon="-16.1952230">
        <ele>200.9</ele>
        <time>2020-11-11T06:54:20Z</time>
      </trkpt>
      <trkpt lat="28.5275820" lon="-16.1952600">
        <ele>200.9</ele>
        <time>2020-11-11T06:54:21Z</time>
      </trkpt>
      <trkpt lat="28.5275970" lon="-16.1952800">
        <ele>200.9</ele>
        <time>2020-11-11T06:54:22Z</time>
      </trkpt>
      <trkpt lat="28.5275970" lon="-16.1952800">
        <ele>201.9</ele>
        <time>2020-11-11T06:54:23Z</time>
      </trkpt>
      <trkpt lat="28.5276270" lon="-16.1953230">
        <ele>201.9</ele>
        <time>2020-11-11T06:54:24Z</time>
      </trkpt>
      <trkpt lat="28.5276380" lon="-16.1953470">
        <ele>201.9</ele>
        <time>2020-11-11T06:54:25Z</time>
      </trkpt>
      <trkpt lat="28.5276380" lon="-16.1953470">
        <ele>201.9</ele>
        <time>2020-11-11T06:54:26Z</time>
      </trkpt>
      <trkpt lat="28.5276670" lon="-16.1953880">
        <ele>201.9</ele>
        <time>2020-11-11T06:54:27Z</time>
      </trkpt>
      <trkpt lat="28.5276830" lon="-16.1954070">
        <ele>201.9</ele>
        <time>2020-11-11T06:54:28Z</time>
      </trkpt>
      <trkpt lat="28.5276830" lon="-16.1954070">
        <ele>201.9</ele>
        <time>2020-11-11T06:54:29Z</time>
      </trkpt>
      <trkpt lat="28.5277180" lon="-16.1954450">
        <ele>201.9</ele>
        <time>2020-11-11T06:54:30Z</time>
      </trkpt>
      <trkpt lat="28.5277180" lon="-16.1954450">
        <ele>201.9</ele>
        <time>2020-11-11T06:54:31Z</time>
      </trkpt>
      <trkpt lat="28.5277480" lon="-16.1954900">
        <ele>201.9</ele>
        <time>2020-11-11T06:54:32Z</time>
      </trkpt>
      <trkpt lat="28.5277480" lon="-16.1954900">
        <ele>203.9</ele>
        <time>2020-11-11T06:54:33Z</time>
      </trkpt>
      <trkpt lat="28.5277730" lon="-16.1955300">
        <ele>203.9</ele>
        <time>2020-11-11T06:54:34Z</time>
      </trkpt>
      <trkpt lat="28.5277730" lon="-16.1955300">
        <ele>203.9</ele>
        <time>2020-11-11T06:54:35Z</time>
      </trkpt>
      <trkpt lat="28.5278020" lon="-16.1955680">
        <ele>203.9</ele>
        <time>2020-11-11T06:54:36Z</time>
      </trkpt>
      <trkpt lat="28.5278020" lon="-16.1955680">
        <ele>204.9</ele>
        <time>2020-11-11T06:54:37Z</time>
      </trkpt>
      <trkpt lat="28.5278270" lon="-16.1956200">
        <ele>204.9</ele>
        <time>2020-11-11T06:54:38Z</time>
      </trkpt>
      <trkpt lat="28.5278270" lon="-16.1956200">
        <ele>204.9</ele>
        <time>2020-11-11T06:54:39Z</time>
      </trkpt>
      <trkpt lat="28.5278600" lon="-16.1956750">
        <ele>204.9</ele>
        <time>2020-11-11T06:54:40Z</time>
      </trkpt>
      <trkpt lat="28.5278730" lon="-16.1957020">
        <ele>204.9</ele>
        <time>2020-11-11T06:54:41Z</time>
      </trkpt>
      <trkpt lat="28.5278730" lon="-16.1957020">
        <ele>204.9</ele>
        <time>2020-11-11T06:54:42Z</time>
      </trkpt>
      <trkpt lat="28.5279050" lon="-16.1957520">
        <ele>205.9</ele>
        <time>2020-11-11T06:54:43Z</time>
      </trkpt>
      <trkpt lat="28.5279050" lon="-16.1957520">
        <ele>205.9</ele>
        <time>2020-11-11T06:54:44Z</time>
      </trkpt>
      <trkpt lat="28.5279400" lon="-16.1958050">
        <ele>205.9</ele>
        <time>2020-11-11T06:54:45Z</time>
      </trkpt>
      <trkpt lat="28.5279400" lon="-16.1958050">
        <ele>205.9</ele>
        <time>2020-11-11T06:54:46Z</time>
      </trkpt>
      <trkpt lat="28.5279750" lon="-16.1958650">
        <ele>205.9</ele>
        <time>2020-11-11T06:54:47Z</time>
      </trkpt>
      <trkpt lat="28.5279750" lon="-16.1958650">
        <ele>205.9</ele>
        <time>2020-11-11T06:54:48Z</time>
      </trkpt>
      <trkpt lat="28.5280120" lon="-16.1959230">
        <ele>205.9</ele>
        <time>2020-11-11T06:54:49Z</time>
      </trkpt>
      <trkpt lat="28.5280120" lon="-16.1959230">
        <ele>205.9</ele>
        <time>2020-11-11T06:54:50Z</time>
      </trkpt>
      <trkpt lat="28.5280480" lon="-16.1959730">
        <ele>205.9</ele>
        <time>2020-11-11T06:54:51Z</time>
      </trkpt>
      <trkpt lat="28.5280680" lon="-16.1959970">
        <ele>205.9</ele>
        <time>2020-11-11T06:54:52Z</time>
      </trkpt>
      <trkpt lat="28.5280680" lon="-16.1959970">
        <ele>205.9</ele>
        <time>2020-11-11T06:54:53Z</time>
      </trkpt>
      <trkpt lat="28.5281200" lon="-16.1960330">
        <ele>205.9</ele>
        <time>2020-11-11T06:54:54Z</time>
      </trkpt>
      <trkpt lat="28.5281470" lon="-16.1960430">
        <ele>205.9</ele>
        <time>2020-11-11T06:54:55Z</time>
      </trkpt>
      <trkpt lat="28.5281470" lon="-16.1960430">
        <ele>205.9</ele>
        <time>2020-11-11T06:54:56Z</time>
      </trkpt>
      <trkpt lat="28.5282100" lon="-16.1960470">
        <ele>205.9</ele>
        <time>2020-11-11T06:54:57Z</time>
      </trkpt>
      <trkpt lat="28.5282100" lon="-16.1960470">
        <ele>205.9</ele>
        <time>2020-11-11T06:54:58Z</time>
      </trkpt>
      <trkpt lat="28.5282730" lon="-16.1960350">
        <ele>205.9</ele>
        <time>2020-11-11T06:54:59Z</time>
      </trkpt>
      <trkpt lat="28.5282730" lon="-16.1960350">
        <ele>205.9</ele>
        <time>2020-11-11T06:55:00Z</time>
      </trkpt>
      <trkpt lat="28.5283270" lon="-16.1960120">
        <ele>206.9</ele>
        <time>2020-11-11T06:55:01Z</time>
      </trkpt>
      <trkpt lat="28.5283270" lon="-16.1960120">
        <ele>206.9</ele>
        <time>2020-11-11T06:55:02Z</time>
      </trkpt>
      <trkpt lat="28.5283720" lon="-16.1959770">
        <ele>206.9</ele>
        <time>2020-11-11T06:55:03Z</time>
      </trkpt>
      <trkpt lat="28.5283720" lon="-16.1959770">
        <ele>206.9</ele>
        <time>2020-11-11T06:55:04Z</time>
      </trkpt>
      <trkpt lat="28.5284120" lon="-16.1959320">
        <ele>206.9</ele>
        <time>2020-11-11T06:55:05Z</time>
      </trkpt>
      <trkpt lat="28.5284120" lon="-16.1959320">
        <ele>206.9</ele>
        <time>2020-11-11T06:55:06Z</time>
      </trkpt>
      <trkpt lat="28.5284470" lon="-16.1958820">
        <ele>207.9</ele>
        <time>2020-11-11T06:55:07Z</time>
      </trkpt>
      <trkpt lat="28.5284470" lon="-16.1958820">
        <ele>207.9</ele>
        <time>2020-11-11T06:55:08Z</time>
      </trkpt>
      <trkpt lat="28.5284780" lon="-16.1958250">
        <ele>207.9</ele>
        <time>2020-11-11T06:55:09Z</time>
      </trkpt>
      <trkpt lat="28.5284780" lon="-16.1958250">
        <ele>207.9</ele>
        <time>2020-11-11T06:55:10Z</time>
      </trkpt>
      <trkpt lat="28.5285120" lon="-16.1957750">
        <ele>207.9</ele>
        <time>2020-11-11T06:55:11Z</time>
      </trkpt>
      <trkpt lat="28.5285330" lon="-16.1957520">
        <ele>207.9</ele>
        <time>2020-11-11T06:55:12Z</time>
      </trkpt>
      <trkpt lat="28.5285330" lon="-16.1957520">
        <ele>208.9</ele>
        <time>2020-11-11T06:55:13Z</time>
      </trkpt>
      <trkpt lat="28.5285830" lon="-16.1957120">
        <ele>208.9</ele>
        <time>2020-11-11T06:55:14Z</time>
      </trkpt>
      <trkpt lat="28.5285830" lon="-16.1957120">
        <ele>208.9</ele>
        <time>2020-11-11T06:55:15Z</time>
      </trkpt>
      <trkpt lat="28.5286400" lon="-16.1956850">
        <ele>208.9</ele>
        <time>2020-11-11T06:55:16Z</time>
      </trkpt>
      <trkpt lat="28.5286720" lon="-16.1956820">
        <ele>208.9</ele>
        <time>2020-11-11T06:55:17Z</time>
      </trkpt>
      <trkpt lat="28.5286720" lon="-16.1956820">
        <ele>208.9</ele>
        <time>2020-11-11T06:55:18Z</time>
      </trkpt>
      <trkpt lat="28.5287320" lon="-16.1956830">
        <ele>208.9</ele>
        <time>2020-11-11T06:55:19Z</time>
      </trkpt>
      <trkpt lat="28.5287320" lon="-16.1956830">
        <ele>208.9</ele>
        <time>2020-11-11T06:55:20Z</time>
      </trkpt>
      <trkpt lat="28.5287900" lon="-16.1957000">
        <ele>208.9</ele>
        <time>2020-11-11T06:55:21Z</time>
      </trkpt>
      <trkpt lat="28.5288200" lon="-16.1957130">
        <ele>208.9</ele>
        <time>2020-11-11T06:55:22Z</time>
      </trkpt>
      <trkpt lat="28.5288200" lon="-16.1957130">
        <ele>209.9</ele>
        <time>2020-11-11T06:55:23Z</time>
      </trkpt>
      <trkpt lat="28.5288720" lon="-16.1957420">
        <ele>209.9</ele>
        <time>2020-11-11T06:55:24Z</time>
      </trkpt>
      <trkpt lat="28.5288720" lon="-16.1957420">
        <ele>209.9</ele>
        <time>2020-11-11T06:55:25Z</time>
      </trkpt>
      <trkpt lat="28.5289220" lon="-16.1957750">
        <ele>210.9</ele>
        <time>2020-11-11T06:55:26Z</time>
      </trkpt>
      <trkpt lat="28.5289220" lon="-16.1957750">
        <ele>210.9</ele>
        <time>2020-11-11T06:55:27Z</time>
      </trkpt>
      <trkpt lat="28.5289670" lon="-16.1958050">
        <ele>210.9</ele>
        <time>2020-11-11T06:55:28Z</time>
      </trkpt>
      <trkpt lat="28.5289670" lon="-16.1958050">
        <ele>210.9</ele>
        <time>2020-11-11T06:55:29Z</time>
      </trkpt>
      <trkpt lat="28.5290080" lon="-16.1958320">
        <ele>211.9</ele>
        <time>2020-11-11T06:55:30Z</time>
      </trkpt>
      <trkpt lat="28.5290300" lon="-16.1958420">
        <ele>211.9</ele>
        <time>2020-11-11T06:55:31Z</time>
      </trkpt>
      <trkpt lat="28.5290300" lon="-16.1958420">
        <ele>211.9</ele>
        <time>2020-11-11T06:55:32Z</time>
      </trkpt>
      <trkpt lat="28.5290770" lon="-16.1958480">
        <ele>211.9</ele>
        <time>2020-11-11T06:55:33Z</time>
      </trkpt>
      <trkpt lat="28.5290970" lon="-16.1958530">
        <ele>212.9</ele>
        <time>2020-11-11T06:55:34Z</time>
      </trkpt>
      <trkpt lat="28.5290970" lon="-16.1958530">
        <ele>212.9</ele>
        <time>2020-11-11T06:55:35Z</time>
      </trkpt>
      <trkpt lat="28.5291400" lon="-16.1958530">
        <ele>212.9</ele>
        <time>2020-11-11T06:55:36Z</time>
      </trkpt>
      <trkpt lat="28.5291400" lon="-16.1958530">
        <ele>212.9</ele>
        <time>2020-11-11T06:55:37Z</time>
      </trkpt>
      <trkpt lat="28.5291870" lon="-16.1958300">
        <ele>212.9</ele>
        <time>2020-11-11T06:55:38Z</time>
      </trkpt>
      <trkpt lat="28.5291870" lon="-16.1958300">
        <ele>212.9</ele>
        <time>2020-11-11T06:55:39Z</time>
      </trkpt>
      <trkpt lat="28.5292270" lon="-16.1958000">
        <ele>212.9</ele>
        <time>2020-11-11T06:55:40Z</time>
      </trkpt>
      <trkpt lat="28.5292270" lon="-16.1958000">
        <ele>212.9</ele>
        <time>2020-11-11T06:55:41Z</time>
      </trkpt>
      <trkpt lat="28.5292600" lon="-16.1957630">
        <ele>213.9</ele>
        <time>2020-11-11T06:55:42Z</time>
      </trkpt>
      <trkpt lat="28.5292600" lon="-16.1957630">
        <ele>213.9</ele>
        <time>2020-11-11T06:55:43Z</time>
      </trkpt>
      <trkpt lat="28.5292800" lon="-16.1957150">
        <ele>213.9</ele>
        <time>2020-11-11T06:55:44Z</time>
      </trkpt>
      <trkpt lat="28.5292870" lon="-16.1956920">
        <ele>213.9</ele>
        <time>2020-11-11T06:55:45Z</time>
      </trkpt>
      <trkpt lat="28.5292870" lon="-16.1956920">
        <ele>213.9</ele>
        <time>2020-11-11T06:55:46Z</time>
      </trkpt>
      <trkpt lat="28.5292950" lon="-16.1956450">
        <ele>213.9</ele>
        <time>2020-11-11T06:55:47Z</time>
      </trkpt>
      <trkpt lat="28.5292950" lon="-16.1956450">
        <ele>214.9</ele>
        <time>2020-11-11T06:55:48Z</time>
      </trkpt>
      <trkpt lat="28.5293050" lon="-16.1955980">
        <ele>214.9</ele>
        <time>2020-11-11T06:55:49Z</time>
      </trkpt>
      <trkpt lat="28.5293050" lon="-16.1955980">
        <ele>214.9</ele>
        <time>2020-11-11T06:55:50Z</time>
      </trkpt>
      <trkpt lat="28.5293180" lon="-16.1955530">
        <ele>214.9</ele>
        <time>2020-11-11T06:55:51Z</time>
      </trkpt>
      <trkpt lat="28.5293270" lon="-16.1955320">
        <ele>215.9</ele>
        <time>2020-11-11T06:55:52Z</time>
      </trkpt>
      <trkpt lat="28.5293270" lon="-16.1955320">
        <ele>215.9</ele>
        <time>2020-11-11T06:55:53Z</time>
      </trkpt>
      <trkpt lat="28.5293570" lon="-16.1954980">
        <ele>215.9</ele>
        <time>2020-11-11T06:55:54Z</time>
      </trkpt>
      <trkpt lat="28.5293720" lon="-16.1954800">
        <ele>215.9</ele>
        <time>2020-11-11T06:55:55Z</time>
      </trkpt>
      <trkpt lat="28.5293720" lon="-16.1954800">
        <ele>215.9</ele>
        <time>2020-11-11T06:55:56Z</time>
      </trkpt>
      <trkpt lat="28.5294050" lon="-16.1954480">
        <ele>215.9</ele>
        <time>2020-11-11T06:55:57Z</time>
      </trkpt>
      <trkpt lat="28.5294230" lon="-16.1954330">
        <ele>216.9</ele>
        <time>2020-11-11T06:55:58Z</time>
      </trkpt>
      <trkpt lat="28.5294230" lon="-16.1954330">
        <ele>216.9</ele>
        <time>2020-11-11T06:55:59Z</time>
      </trkpt>
      <trkpt lat="28.5294650" lon="-16.1954120">
        <ele>216.9</ele>
        <time>2020-11-11T06:56:00Z</time>
      </trkpt>
      <trkpt lat="28.5294650" lon="-16.1954120">
        <ele>216.9</ele>
        <time>2020-11-11T06:56:01Z</time>
      </trkpt>
      <trkpt lat="28.5295070" lon="-16.1954000">
        <ele>216.9</ele>
        <time>2020-11-11T06:56:02Z</time>
      </trkpt>
      <trkpt lat="28.5295270" lon="-16.1953920">
        <ele>216.9</ele>
        <time>2020-11-11T06:56:03Z</time>
      </trkpt>
      <trkpt lat="28.5295270" lon="-16.1953920">
        <ele>216.9</ele>
        <time>2020-11-11T06:56:04Z</time>
      </trkpt>
      <trkpt lat="28.5295680" lon="-16.1953770">
        <ele>217.9</ele>
        <time>2020-11-11T06:56:05Z</time>
      </trkpt>
      <trkpt lat="28.5295680" lon="-16.1953770">
        <ele>217.9</ele>
        <time>2020-11-11T06:56:06Z</time>
      </trkpt>
      <trkpt lat="28.5296030" lon="-16.1953520">
        <ele>217.9</ele>
        <time>2020-11-11T06:56:07Z</time>
      </trkpt>
      <trkpt lat="28.5296030" lon="-16.1953520">
        <ele>217.9</ele>
        <time>2020-11-11T06:56:08Z</time>
      </trkpt>
      <trkpt lat="28.5296350" lon="-16.1953230">
        <ele>217.9</ele>
        <time>2020-11-11T06:56:09Z</time>
      </trkpt>
      <trkpt lat="28.5296450" lon="-16.1953030">
        <ele>217.9</ele>
        <time>2020-11-11T06:56:10Z</time>
      </trkpt>
      <trkpt lat="28.5296450" lon="-16.1953030">
        <ele>218.9</ele>
        <time>2020-11-11T06:56:11Z</time>
      </trkpt>
      <trkpt lat="28.5296630" lon="-16.1952620">
        <ele>218.9</ele>
        <time>2020-11-11T06:56:12Z</time>
      </trkpt>
      <trkpt lat="28.5296630" lon="-16.1952620">
        <ele>218.9</ele>
        <time>2020-11-11T06:56:13Z</time>
      </trkpt>
      <trkpt lat="28.5296670" lon="-16.1952120">
        <ele>218.9</ele>
        <time>2020-11-11T06:56:14Z</time>
      </trkpt>
      <trkpt lat="28.5296670" lon="-16.1952120">
        <ele>218.9</ele>
        <time>2020-11-11T06:56:15Z</time>
      </trkpt>
      <trkpt lat="28.5296600" lon="-16.1951630">
        <ele>218.9</ele>
        <time>2020-11-11T06:56:16Z</time>
      </trkpt>
      <trkpt lat="28.5296600" lon="-16.1951630">
        <ele>218.9</ele>
        <time>2020-11-11T06:56:17Z</time>
      </trkpt>
      <trkpt lat="28.5296400" lon="-16.1951220">
        <ele>218.9</ele>
        <time>2020-11-11T06:56:18Z</time>
      </trkpt>
      <trkpt lat="28.5296300" lon="-16.1951020">
        <ele>218.9</ele>
        <time>2020-11-11T06:56:19Z</time>
      </trkpt>
      <trkpt lat="28.5296300" lon="-16.1951020">
        <ele>218.9</ele>
        <time>2020-11-11T06:56:20Z</time>
      </trkpt>
      <trkpt lat="28.5296020" lon="-16.1950630">
        <ele>219.9</ele>
        <time>2020-11-11T06:56:21Z</time>
      </trkpt>
      <trkpt lat="28.5296020" lon="-16.1950630">
        <ele>219.9</ele>
        <time>2020-11-11T06:56:22Z</time>
      </trkpt>
      <trkpt lat="28.5295700" lon="-16.1950230">
        <ele>219.9</ele>
        <time>2020-11-11T06:56:23Z</time>
      </trkpt>
      <trkpt lat="28.5295530" lon="-16.1950030">
        <ele>219.9</ele>
        <time>2020-11-11T06:56:24Z</time>
      </trkpt>
      <trkpt lat="28.5295530" lon="-16.1950030">
        <ele>220.9</ele>
        <time>2020-11-11T06:56:25Z</time>
      </trkpt>
      <trkpt lat="28.5295200" lon="-16.1949630">
        <ele>220.9</ele>
        <time>2020-11-11T06:56:26Z</time>
      </trkpt>
      <trkpt lat="28.5295200" lon="-16.1949630">
        <ele>220.9</ele>
        <time>2020-11-11T06:56:27Z</time>
      </trkpt>
      <trkpt lat="28.5294850" lon="-16.1949230">
        <ele>220.9</ele>
        <time>2020-11-11T06:56:28Z</time>
      </trkpt>
      <trkpt lat="28.5294680" lon="-16.1949020">
        <ele>220.9</ele>
        <time>2020-11-11T06:56:29Z</time>
      </trkpt>
      <trkpt lat="28.5294520" lon="-16.1948800">
        <ele>220.9</ele>
        <time>2020-11-11T06:56:30Z</time>
      </trkpt>
      <trkpt lat="28.5294520" lon="-16.1948800">
        <ele>221.9</ele>
        <time>2020-11-11T06:56:31Z</time>
      </trkpt>
      <trkpt lat="28.5294230" lon="-16.1948350">
        <ele>221.9</ele>
        <time>2020-11-11T06:56:32Z</time>
      </trkpt>
      <trkpt lat="28.5294230" lon="-16.1948350">
        <ele>221.9</ele>
        <time>2020-11-11T06:56:33Z</time>
      </trkpt>
      <trkpt lat="28.5294020" lon="-16.1947850">
        <ele>221.9</ele>
        <time>2020-11-11T06:56:34Z</time>
      </trkpt>
      <trkpt lat="28.5293930" lon="-16.1947580">
        <ele>222.9</ele>
        <time>2020-11-11T06:56:35Z</time>
      </trkpt>
      <trkpt lat="28.5293930" lon="-16.1947580">
        <ele>222.9</ele>
        <time>2020-11-11T06:56:36Z</time>
      </trkpt>
      <trkpt lat="28.5293850" lon="-16.1947070">
        <ele>222.9</ele>
        <time>2020-11-11T06:56:37Z</time>
      </trkpt>
      <trkpt lat="28.5293820" lon="-16.1946780">
        <ele>222.9</ele>
        <time>2020-11-11T06:56:38Z</time>
      </trkpt>
      <trkpt lat="28.5293830" lon="-16.1946520">
        <ele>223.9</ele>
        <time>2020-11-11T06:56:39Z</time>
      </trkpt>
      <trkpt lat="28.5293830" lon="-16.1946520">
        <ele>223.9</ele>
        <time>2020-11-11T06:56:40Z</time>
      </trkpt>
      <trkpt lat="28.5293900" lon="-16.1945950">
        <ele>223.9</ele>
        <time>2020-11-11T06:56:41Z</time>
      </trkpt>
      <trkpt lat="28.5293900" lon="-16.1945950">
        <ele>223.9</ele>
        <time>2020-11-11T06:56:42Z</time>
      </trkpt>
      <trkpt lat="28.5293950" lon="-16.1945420">
        <ele>223.9</ele>
        <time>2020-11-11T06:56:43Z</time>
      </trkpt>
      <trkpt lat="28.5293950" lon="-16.1945420">
        <ele>223.9</ele>
        <time>2020-11-11T06:56:44Z</time>
      </trkpt>
      <trkpt lat="28.5293980" lon="-16.1944900">
        <ele>223.9</ele>
        <time>2020-11-11T06:56:45Z</time>
      </trkpt>
      <trkpt lat="28.5293980" lon="-16.1944900">
        <ele>223.9</ele>
        <time>2020-11-11T06:56:46Z</time>
      </trkpt>
      <trkpt lat="28.5294050" lon="-16.1944430">
        <ele>223.9</ele>
        <time>2020-11-11T06:56:47Z</time>
      </trkpt>
      <trkpt lat="28.5294050" lon="-16.1944430">
        <ele>223.9</ele>
        <time>2020-11-11T06:56:48Z</time>
      </trkpt>
      <trkpt lat="28.5294150" lon="-16.1943980">
        <ele>224.9</ele>
        <time>2020-11-11T06:56:49Z</time>
      </trkpt>
      <trkpt lat="28.5294150" lon="-16.1943980">
        <ele>224.9</ele>
        <time>2020-11-11T06:56:50Z</time>
      </trkpt>
      <trkpt lat="28.5294320" lon="-16.1943530">
        <ele>224.9</ele>
        <time>2020-11-11T06:56:51Z</time>
      </trkpt>
      <trkpt lat="28.5294320" lon="-16.1943530">
        <ele>224.9</ele>
        <time>2020-11-11T06:56:52Z</time>
      </trkpt>
      <trkpt lat="28.5294500" lon="-16.1943120">
        <ele>224.9</ele>
        <time>2020-11-11T06:56:53Z</time>
      </trkpt>
      <trkpt lat="28.5294500" lon="-16.1943120">
        <ele>224.9</ele>
        <time>2020-11-11T06:56:54Z</time>
      </trkpt>
      <trkpt lat="28.5294800" lon="-16.1942770">
        <ele>225.9</ele>
        <time>2020-11-11T06:56:55Z</time>
      </trkpt>
      <trkpt lat="28.5294800" lon="-16.1942770">
        <ele>225.9</ele>
        <time>2020-11-11T06:56:56Z</time>
      </trkpt>
      <trkpt lat="28.5295130" lon="-16.1942420">
        <ele>225.9</ele>
        <time>2020-11-11T06:56:57Z</time>
      </trkpt>
      <trkpt lat="28.5295350" lon="-16.1942250">
        <ele>225.9</ele>
        <time>2020-11-11T06:56:58Z</time>
      </trkpt>
      <trkpt lat="28.5295350" lon="-16.1942250">
        <ele>226.9</ele>
        <time>2020-11-11T06:56:59Z</time>
      </trkpt>
      <trkpt lat="28.5295770" lon="-16.1941970">
        <ele>226.9</ele>
        <time>2020-11-11T06:57:00Z</time>
      </trkpt>
      <trkpt lat="28.5295980" lon="-16.1941850">
        <ele>226.9</ele>
        <time>2020-11-11T06:57:01Z</time>
      </trkpt>
      <trkpt lat="28.5295980" lon="-16.1941850">
        <ele>226.9</ele>
        <time>2020-11-11T06:57:02Z</time>
      </trkpt>
      <trkpt lat="28.5296430" lon="-16.1941650">
        <ele>226.9</ele>
        <time>2020-11-11T06:57:03Z</time>
      </trkpt>
      <trkpt lat="28.5296430" lon="-16.1941650">
        <ele>226.9</ele>
        <time>2020-11-11T06:57:04Z</time>
      </trkpt>
      <trkpt lat="28.5296900" lon="-16.1941530">
        <ele>227.9</ele>
        <time>2020-11-11T06:57:05Z</time>
      </trkpt>
      <trkpt lat="28.5296900" lon="-16.1941530">
        <ele>227.9</ele>
        <time>2020-11-11T06:57:06Z</time>
      </trkpt>
      <trkpt lat="28.5297400" lon="-16.1941530">
        <ele>227.9</ele>
        <time>2020-11-11T06:57:07Z</time>
      </trkpt>
      <trkpt lat="28.5297400" lon="-16.1941530">
        <ele>227.9</ele>
        <time>2020-11-11T06:57:08Z</time>
      </trkpt>
      <trkpt lat="28.5297880" lon="-16.1941630">
        <ele>227.9</ele>
        <time>2020-11-11T06:57:09Z</time>
      </trkpt>
      <trkpt lat="28.5297880" lon="-16.1941630">
        <ele>227.9</ele>
        <time>2020-11-11T06:57:10Z</time>
      </trkpt>
      <trkpt lat="28.5298350" lon="-16.1941820">
        <ele>228.9</ele>
        <time>2020-11-11T06:57:11Z</time>
      </trkpt>
      <trkpt lat="28.5298350" lon="-16.1941820">
        <ele>228.9</ele>
        <time>2020-11-11T06:57:12Z</time>
      </trkpt>
      <trkpt lat="28.5298800" lon="-16.1941980">
        <ele>228.9</ele>
        <time>2020-11-11T06:57:13Z</time>
      </trkpt>
      <trkpt lat="28.5298800" lon="-16.1941980">
        <ele>228.9</ele>
        <time>2020-11-11T06:57:14Z</time>
      </trkpt>
      <trkpt lat="28.5299270" lon="-16.1942120">
        <ele>228.9</ele>
        <time>2020-11-11T06:57:15Z</time>
      </trkpt>
      <trkpt lat="28.5299270" lon="-16.1942120">
        <ele>228.9</ele>
        <time>2020-11-11T06:57:16Z</time>
      </trkpt>
      <trkpt lat="28.5299720" lon="-16.1942270">
        <ele>228.9</ele>
        <time>2020-11-11T06:57:17Z</time>
      </trkpt>
      <trkpt lat="28.5299950" lon="-16.1942320">
        <ele>228.9</ele>
        <time>2020-11-11T06:57:18Z</time>
      </trkpt>
      <trkpt lat="28.5299950" lon="-16.1942320">
        <ele>228.9</ele>
        <time>2020-11-11T06:57:19Z</time>
      </trkpt>
      <trkpt lat="28.5300500" lon="-16.1942450">
        <ele>228.9</ele>
        <time>2020-11-11T06:57:20Z</time>
      </trkpt>
      <trkpt lat="28.5300730" lon="-16.1942470">
        <ele>228.9</ele>
        <time>2020-11-11T06:57:21Z</time>
      </trkpt>
      <trkpt lat="28.5300730" lon="-16.1942470">
        <ele>229.9</ele>
        <time>2020-11-11T06:57:22Z</time>
      </trkpt>
      <trkpt lat="28.5301130" lon="-16.1942500">
        <ele>229.9</ele>
        <time>2020-11-11T06:57:23Z</time>
      </trkpt>
      <trkpt lat="28.5301130" lon="-16.1942500">
        <ele>229.9</ele>
        <time>2020-11-11T06:57:24Z</time>
      </trkpt>
      <trkpt lat="28.5301500" lon="-16.1942430">
        <ele>229.9</ele>
        <time>2020-11-11T06:57:25Z</time>
      </trkpt>
      <trkpt lat="28.5301500" lon="-16.1942430">
        <ele>230.9</ele>
        <time>2020-11-11T06:57:26Z</time>
      </trkpt>
      <trkpt lat="28.5301850" lon="-16.1942200">
        <ele>230.9</ele>
        <time>2020-11-11T06:57:27Z</time>
      </trkpt>
      <trkpt lat="28.5301850" lon="-16.1942200">
        <ele>230.9</ele>
        <time>2020-11-11T06:57:28Z</time>
      </trkpt>
      <trkpt lat="28.5302220" lon="-16.1941920">
        <ele>230.9</ele>
        <time>2020-11-11T06:57:29Z</time>
      </trkpt>
      <trkpt lat="28.5302220" lon="-16.1941920">
        <ele>230.9</ele>
        <time>2020-11-11T06:57:30Z</time>
      </trkpt>
      <trkpt lat="28.5302600" lon="-16.1941630">
        <ele>230.9</ele>
        <time>2020-11-11T06:57:31Z</time>
      </trkpt>
      <trkpt lat="28.5302600" lon="-16.1941630">
        <ele>231.9</ele>
        <time>2020-11-11T06:57:32Z</time>
      </trkpt>
      <trkpt lat="28.5302980" lon="-16.1941420">
        <ele>231.9</ele>
        <time>2020-11-11T06:57:33Z</time>
      </trkpt>
      <trkpt lat="28.5303200" lon="-16.1941320">
        <ele>231.9</ele>
        <time>2020-11-11T06:57:34Z</time>
      </trkpt>
      <trkpt lat="28.5303200" lon="-16.1941320">
        <ele>231.9</ele>
        <time>2020-11-11T06:57:35Z</time>
      </trkpt>
      <trkpt lat="28.5303600" lon="-16.1941120">
        <ele>232.9</ele>
        <time>2020-11-11T06:57:36Z</time>
      </trkpt>
      <trkpt lat="28.5303800" lon="-16.1941030">
        <ele>232.9</ele>
        <time>2020-11-11T06:57:37Z</time>
      </trkpt>
      <trkpt lat="28.5303800" lon="-16.1941030">
        <ele>232.9</ele>
        <time>2020-11-11T06:57:38Z</time>
      </trkpt>
      <trkpt lat="28.5304220" lon="-16.1940970">
        <ele>232.9</ele>
        <time>2020-11-11T06:57:39Z</time>
      </trkpt>
      <trkpt lat="28.5304220" lon="-16.1940970">
        <ele>233.9</ele>
        <time>2020-11-11T06:57:40Z</time>
      </trkpt>
      <trkpt lat="28.5304630" lon="-16.1940980">
        <ele>233.9</ele>
        <time>2020-11-11T06:57:41Z</time>
      </trkpt>
      <trkpt lat="28.5304850" lon="-16.1941020">
        <ele>233.9</ele>
        <time>2020-11-11T06:57:42Z</time>
      </trkpt>
      <trkpt lat="28.5305120" lon="-16.1941070">
        <ele>233.9</ele>
        <time>2020-11-11T06:57:43Z</time>
      </trkpt>
      <trkpt lat="28.5305120" lon="-16.1941070">
        <ele>234.9</ele>
        <time>2020-11-11T06:57:44Z</time>
      </trkpt>
      <trkpt lat="28.5305550" lon="-16.1941270">
        <ele>234.9</ele>
        <time>2020-11-11T06:57:45Z</time>
      </trkpt>
      <trkpt lat="28.5305750" lon="-16.1941370">
        <ele>234.9</ele>
        <time>2020-11-11T06:57:46Z</time>
      </trkpt>
      <trkpt lat="28.5305750" lon="-16.1941370">
        <ele>234.9</ele>
        <time>2020-11-11T06:57:47Z</time>
      </trkpt>
      <trkpt lat="28.5306180" lon="-16.1941570">
        <ele>234.9</ele>
        <time>2020-11-11T06:57:48Z</time>
      </trkpt>
      <trkpt lat="28.5306180" lon="-16.1941570">
        <ele>234.9</ele>
        <time>2020-11-11T06:57:49Z</time>
      </trkpt>
      <trkpt lat="28.5306600" lon="-16.1941820">
        <ele>235.9</ele>
        <time>2020-11-11T06:57:50Z</time>
      </trkpt>
      <trkpt lat="28.5306600" lon="-16.1941820">
        <ele>235.9</ele>
        <time>2020-11-11T06:57:51Z</time>
      </trkpt>
      <trkpt lat="28.5306950" lon="-16.1942180">
        <ele>235.9</ele>
        <time>2020-11-11T06:57:52Z</time>
      </trkpt>
      <trkpt lat="28.5307080" lon="-16.1942420">
        <ele>235.9</ele>
        <time>2020-11-11T06:57:53Z</time>
      </trkpt>
      <trkpt lat="28.5307080" lon="-16.1942420">
        <ele>235.9</ele>
        <time>2020-11-11T06:57:54Z</time>
      </trkpt>
      <trkpt lat="28.5307330" lon="-16.1942880">
        <ele>235.9</ele>
        <time>2020-11-11T06:57:55Z</time>
      </trkpt>
      <trkpt lat="28.5307330" lon="-16.1942880">
        <ele>235.9</ele>
        <time>2020-11-11T06:57:56Z</time>
      </trkpt>
      <trkpt lat="28.5307580" lon="-16.1943330">
        <ele>235.9</ele>
        <time>2020-11-11T06:57:57Z</time>
      </trkpt>
      <trkpt lat="28.5307580" lon="-16.1943330">
        <ele>235.9</ele>
        <time>2020-11-11T06:57:58Z</time>
      </trkpt>
      <trkpt lat="28.5307750" lon="-16.1943870">
        <ele>236.9</ele>
        <time>2020-11-11T06:57:59Z</time>
      </trkpt>
      <trkpt lat="28.5307750" lon="-16.1943870">
        <ele>236.9</ele>
        <time>2020-11-11T06:58:00Z</time>
      </trkpt>
      <trkpt lat="28.5307850" lon="-16.1944430">
        <ele>236.9</ele>
        <time>2020-11-11T06:58:01Z</time>
      </trkpt>
      <trkpt lat="28.5307850" lon="-16.1944430">
        <ele>236.9</ele>
        <time>2020-11-11T06:58:02Z</time>
      </trkpt>
      <trkpt lat="28.5307920" lon="-16.1945070">
        <ele>236.9</ele>
        <time>2020-11-11T06:58:03Z</time>
      </trkpt>
      <trkpt lat="28.5307920" lon="-16.1945070">
        <ele>236.9</ele>
        <time>2020-11-11T06:58:04Z</time>
      </trkpt>
      <trkpt lat="28.5307880" lon="-16.1945670">
        <ele>237.9</ele>
        <time>2020-11-11T06:58:05Z</time>
      </trkpt>
      <trkpt lat="28.5307870" lon="-16.1946000">
        <ele>237.9</ele>
        <time>2020-11-11T06:58:06Z</time>
      </trkpt>
      <trkpt lat="28.5307870" lon="-16.1946000">
        <ele>237.9</ele>
        <time>2020-11-11T06:58:07Z</time>
      </trkpt>
      <trkpt lat="28.5307780" lon="-16.1946620">
        <ele>237.9</ele>
        <time>2020-11-11T06:58:08Z</time>
      </trkpt>
      <trkpt lat="28.5307780" lon="-16.1946620">
        <ele>237.9</ele>
        <time>2020-11-11T06:58:09Z</time>
      </trkpt>
      <trkpt lat="28.5307680" lon="-16.1947220">
        <ele>237.9</ele>
        <time>2020-11-11T06:58:10Z</time>
      </trkpt>
      <trkpt lat="28.5307680" lon="-16.1947220">
        <ele>237.9</ele>
        <time>2020-11-11T06:58:11Z</time>
      </trkpt>
      <trkpt lat="28.5307580" lon="-16.1947830">
        <ele>237.9</ele>
        <time>2020-11-11T06:58:12Z</time>
      </trkpt>
      <trkpt lat="28.5307500" lon="-16.1948150">
        <ele>237.9</ele>
        <time>2020-11-11T06:58:13Z</time>
      </trkpt>
      <trkpt lat="28.5307500" lon="-16.1948150">
        <ele>237.9</ele>
        <time>2020-11-11T06:58:14Z</time>
      </trkpt>
      <trkpt lat="28.5307330" lon="-16.1948780">
        <ele>238.9</ele>
        <time>2020-11-11T06:58:15Z</time>
      </trkpt>
      <trkpt lat="28.5307330" lon="-16.1948780">
        <ele>238.9</ele>
        <time>2020-11-11T06:58:16Z</time>
      </trkpt>
      <trkpt lat="28.5307200" lon="-16.1949380">
        <ele>238.9</ele>
        <time>2020-11-11T06:58:17Z</time>
      </trkpt>
      <trkpt lat="28.5307200" lon="-16.1949380">
        <ele>238.9</ele>
        <time>2020-11-11T06:58:18Z</time>
      </trkpt>
      <trkpt lat="28.5307220" lon="-16.1949980">
        <ele>238.9</ele>
        <time>2020-11-11T06:58:19Z</time>
      </trkpt>
      <trkpt lat="28.5307230" lon="-16.1950250">
        <ele>238.9</ele>
        <time>2020-11-11T06:58:20Z</time>
      </trkpt>
      <trkpt lat="28.5307230" lon="-16.1950250">
        <ele>238.9</ele>
        <time>2020-11-11T06:58:21Z</time>
      </trkpt>
      <trkpt lat="28.5307400" lon="-16.1950780">
        <ele>238.9</ele>
        <time>2020-11-11T06:58:22Z</time>
      </trkpt>
      <trkpt lat="28.5307400" lon="-16.1950780">
        <ele>238.9</ele>
        <time>2020-11-11T06:58:23Z</time>
      </trkpt>
      <trkpt lat="28.5307700" lon="-16.1951270">
        <ele>238.9</ele>
        <time>2020-11-11T06:58:24Z</time>
      </trkpt>
      <trkpt lat="28.5307920" lon="-16.1951430">
        <ele>238.9</ele>
        <time>2020-11-11T06:58:25Z</time>
      </trkpt>
      <trkpt lat="28.5307920" lon="-16.1951430">
        <ele>238.9</ele>
        <time>2020-11-11T06:58:26Z</time>
      </trkpt>
      <trkpt lat="28.5308430" lon="-16.1951680">
        <ele>239.9</ele>
        <time>2020-11-11T06:58:27Z</time>
      </trkpt>
      <trkpt lat="28.5308670" lon="-16.1951770">
        <ele>239.9</ele>
        <time>2020-11-11T06:58:28Z</time>
      </trkpt>
      <trkpt lat="28.5308900" lon="-16.1951850">
        <ele>239.9</ele>
        <time>2020-11-11T06:58:29Z</time>
      </trkpt>
      <trkpt lat="28.5308900" lon="-16.1951850">
        <ele>240.9</ele>
        <time>2020-11-11T06:58:30Z</time>
      </trkpt>
      <trkpt lat="28.5309330" lon="-16.1952030">
        <ele>240.9</ele>
        <time>2020-11-11T06:58:31Z</time>
      </trkpt>
      <trkpt lat="28.5309330" lon="-16.1952030">
        <ele>240.9</ele>
        <time>2020-11-11T06:58:32Z</time>
      </trkpt>
      <trkpt lat="28.5309780" lon="-16.1952080">
        <ele>240.9</ele>
        <time>2020-11-11T06:58:33Z</time>
      </trkpt>
      <trkpt lat="28.5309780" lon="-16.1952080">
        <ele>241.9</ele>
        <time>2020-11-11T06:58:34Z</time>
      </trkpt>
      <trkpt lat="28.5310250" lon="-16.1952030">
        <ele>241.9</ele>
        <time>2020-11-11T06:58:35Z</time>
      </trkpt>
      <trkpt lat="28.5310520" lon="-16.1952030">
        <ele>241.9</ele>
        <time>2020-11-11T06:58:36Z</time>
      </trkpt>
      <trkpt lat="28.5310520" lon="-16.1952030">
        <ele>241.9</ele>
        <time>2020-11-11T06:58:37Z</time>
      </trkpt>
      <trkpt lat="28.5311020" lon="-16.1951850">
        <ele>242.9</ele>
        <time>2020-11-11T06:58:38Z</time>
      </trkpt>
      <trkpt lat="28.5311020" lon="-16.1951850">
        <ele>242.9</ele>
        <time>2020-11-11T06:58:39Z</time>
      </trkpt>
      <trkpt lat="28.5311470" lon="-16.1951720">
        <ele>242.9</ele>
        <time>2020-11-11T06:58:40Z</time>
      </trkpt>
      <trkpt lat="28.5311470" lon="-16.1951720">
        <ele>242.9</ele>
        <time>2020-11-11T06:58:41Z</time>
      </trkpt>
      <trkpt lat="28.5311950" lon="-16.1951680">
        <ele>243.9</ele>
        <time>2020-11-11T06:58:42Z</time>
      </trkpt>
      <trkpt lat="28.5312180" lon="-16.1951650">
        <ele>243.9</ele>
        <time>2020-11-11T06:58:43Z</time>
      </trkpt>
      <trkpt lat="28.5312180" lon="-16.1951650">
        <ele>243.9</ele>
        <time>2020-11-11T06:58:44Z</time>
      </trkpt>
      <trkpt lat="28.5312670" lon="-16.1951600">
        <ele>243.9</ele>
        <time>2020-11-11T06:58:45Z</time>
      </trkpt>
      <trkpt lat="28.5312670" lon="-16.1951600">
        <ele>243.9</ele>
        <time>2020-11-11T06:58:46Z</time>
      </trkpt>
      <trkpt lat="28.5313150" lon="-16.1951630">
        <ele>243.9</ele>
        <time>2020-11-11T06:58:47Z</time>
      </trkpt>
      <trkpt lat="28.5313150" lon="-16.1951630">
        <ele>243.9</ele>
        <time>2020-11-11T06:58:48Z</time>
      </trkpt>
      <trkpt lat="28.5313620" lon="-16.1951780">
        <ele>243.9</ele>
        <time>2020-11-11T06:58:49Z</time>
      </trkpt>
      <trkpt lat="28.5313620" lon="-16.1951780">
        <ele>244.9</ele>
        <time>2020-11-11T06:58:50Z</time>
      </trkpt>
      <trkpt lat="28.5314030" lon="-16.1952030">
        <ele>244.9</ele>
        <time>2020-11-11T06:58:51Z</time>
      </trkpt>
      <trkpt lat="28.5314030" lon="-16.1952030">
        <ele>244.9</ele>
        <time>2020-11-11T06:58:52Z</time>
      </trkpt>
      <trkpt lat="28.5314350" lon="-16.1952470">
        <ele>244.9</ele>
        <time>2020-11-11T06:58:53Z</time>
      </trkpt>
      <trkpt lat="28.5314480" lon="-16.1952680">
        <ele>245.9</ele>
        <time>2020-11-11T06:58:54Z</time>
      </trkpt>
      <trkpt lat="28.5314480" lon="-16.1952680">
        <ele>245.9</ele>
        <time>2020-11-11T06:58:55Z</time>
      </trkpt>
      <trkpt lat="28.5314750" lon="-16.1953120">
        <ele>245.9</ele>
        <time>2020-11-11T06:58:56Z</time>
      </trkpt>
      <trkpt lat="28.5314880" lon="-16.1953350">
        <ele>245.9</ele>
        <time>2020-11-11T06:58:57Z</time>
      </trkpt>
      <trkpt lat="28.5314880" lon="-16.1953350">
        <ele>246.9</ele>
        <time>2020-11-11T06:58:58Z</time>
      </trkpt>
      <trkpt lat="28.5315100" lon="-16.1953850">
        <ele>246.9</ele>
        <time>2020-11-11T06:58:59Z</time>
      </trkpt>
      <trkpt lat="28.5315100" lon="-16.1953850">
        <ele>246.9</ele>
        <time>2020-11-11T06:59:00Z</time>
      </trkpt>
      <trkpt lat="28.5315180" lon="-16.1954380">
        <ele>246.9</ele>
        <time>2020-11-11T06:59:01Z</time>
      </trkpt>
      <trkpt lat="28.5315180" lon="-16.1954380">
        <ele>247.9</ele>
        <time>2020-11-11T06:59:02Z</time>
      </trkpt>
      <trkpt lat="28.5315220" lon="-16.1954920">
        <ele>247.9</ele>
        <time>2020-11-11T06:59:03Z</time>
      </trkpt>
      <trkpt lat="28.5315250" lon="-16.1955170">
        <ele>247.9</ele>
        <time>2020-11-11T06:59:04Z</time>
      </trkpt>
      <trkpt lat="28.5315250" lon="-16.1955170">
        <ele>247.9</ele>
        <time>2020-11-11T06:59:05Z</time>
      </trkpt>
      <trkpt lat="28.5315370" lon="-16.1955680">
        <ele>247.9</ele>
        <time>2020-11-11T06:59:06Z</time>
      </trkpt>
      <trkpt lat="28.5315370" lon="-16.1955680">
        <ele>247.9</ele>
        <time>2020-11-11T06:59:07Z</time>
      </trkpt>
      <trkpt lat="28.5315570" lon="-16.1956170">
        <ele>247.9</ele>
        <time>2020-11-11T06:59:08Z</time>
      </trkpt>
      <trkpt lat="28.5315680" lon="-16.1956400">
        <ele>248.9</ele>
        <time>2020-11-11T06:59:09Z</time>
      </trkpt>
      <trkpt lat="28.5315830" lon="-16.1956600">
        <ele>248.9</ele>
        <time>2020-11-11T06:59:10Z</time>
      </trkpt>
      <trkpt lat="28.5315830" lon="-16.1956600">
        <ele>248.9</ele>
        <time>2020-11-11T06:59:11Z</time>
      </trkpt>
      <trkpt lat="28.5316150" lon="-16.1957020">
        <ele>248.9</ele>
        <time>2020-11-11T06:59:12Z</time>
      </trkpt>
      <trkpt lat="28.5316350" lon="-16.1957180">
        <ele>249.9</ele>
        <time>2020-11-11T06:59:13Z</time>
      </trkpt>
      <trkpt lat="28.5316350" lon="-16.1957180">
        <ele>249.9</ele>
        <time>2020-11-11T06:59:14Z</time>
      </trkpt>
      <trkpt lat="28.5316780" lon="-16.1957500">
        <ele>249.9</ele>
        <time>2020-11-11T06:59:15Z</time>
      </trkpt>
      <trkpt lat="28.5316780" lon="-16.1957500">
        <ele>249.9</ele>
        <time>2020-11-11T06:59:16Z</time>
      </trkpt>
      <trkpt lat="28.5317230" lon="-16.1957800">
        <ele>249.9</ele>
        <time>2020-11-11T06:59:17Z</time>
      </trkpt>
      <trkpt lat="28.5317230" lon="-16.1957800">
        <ele>249.9</ele>
        <time>2020-11-11T06:59:18Z</time>
      </trkpt>
      <trkpt lat="28.5317680" lon="-16.1958150">
        <ele>249.9</ele>
        <time>2020-11-11T06:59:19Z</time>
      </trkpt>
      <trkpt lat="28.5317680" lon="-16.1958150">
        <ele>249.9</ele>
        <time>2020-11-11T06:59:20Z</time>
      </trkpt>
      <trkpt lat="28.5318030" lon="-16.1958600">
        <ele>250.9</ele>
        <time>2020-11-11T06:59:21Z</time>
      </trkpt>
      <trkpt lat="28.5318030" lon="-16.1958600">
        <ele>250.9</ele>
        <time>2020-11-11T06:59:22Z</time>
      </trkpt>
      <trkpt lat="28.5318320" lon="-16.1959080">
        <ele>250.9</ele>
        <time>2020-11-11T06:59:23Z</time>
      </trkpt>
      <trkpt lat="28.5318320" lon="-16.1959080">
        <ele>250.9</ele>
        <time>2020-11-11T06:59:24Z</time>
      </trkpt>
      <trkpt lat="28.5318570" lon="-16.1959620">
        <ele>250.9</ele>
        <time>2020-11-11T06:59:25Z</time>
      </trkpt>
      <trkpt lat="28.5318570" lon="-16.1959620">
        <ele>250.9</ele>
        <time>2020-11-11T06:59:26Z</time>
      </trkpt>
      <trkpt lat="28.5318800" lon="-16.1960170">
        <ele>250.9</ele>
        <time>2020-11-11T06:59:27Z</time>
      </trkpt>
      <trkpt lat="28.5318800" lon="-16.1960170">
        <ele>250.9</ele>
        <time>2020-11-11T06:59:28Z</time>
      </trkpt>
      <trkpt lat="28.5319030" lon="-16.1960720">
        <ele>250.9</ele>
        <time>2020-11-11T06:59:29Z</time>
      </trkpt>
      <trkpt lat="28.5319030" lon="-16.1960720">
        <ele>250.9</ele>
        <time>2020-11-11T06:59:30Z</time>
      </trkpt>
      <trkpt lat="28.5319250" lon="-16.1961250">
        <ele>251.9</ele>
        <time>2020-11-11T06:59:31Z</time>
      </trkpt>
      <trkpt lat="28.5319250" lon="-16.1961250">
        <ele>251.9</ele>
        <time>2020-11-11T06:59:32Z</time>
      </trkpt>
      <trkpt lat="28.5319480" lon="-16.1961780">
        <ele>251.9</ele>
        <time>2020-11-11T06:59:33Z</time>
      </trkpt>
      <trkpt lat="28.5319600" lon="-16.1962050">
        <ele>251.9</ele>
        <time>2020-11-11T06:59:34Z</time>
      </trkpt>
      <trkpt lat="28.5319600" lon="-16.1962050">
        <ele>251.9</ele>
        <time>2020-11-11T06:59:35Z</time>
      </trkpt>
      <trkpt lat="28.5319770" lon="-16.1962570">
        <ele>251.9</ele>
        <time>2020-11-11T06:59:36Z</time>
      </trkpt>
      <trkpt lat="28.5319770" lon="-16.1962570">
        <ele>251.9</ele>
        <time>2020-11-11T06:59:37Z</time>
      </trkpt>
      <trkpt lat="28.5319830" lon="-16.1963170">
        <ele>251.9</ele>
        <time>2020-11-11T06:59:38Z</time>
      </trkpt>
      <trkpt lat="28.5319830" lon="-16.1963170">
        <ele>251.9</ele>
        <time>2020-11-11T06:59:39Z</time>
      </trkpt>
      <trkpt lat="28.5319780" lon="-16.1963770">
        <ele>251.9</ele>
        <time>2020-11-11T06:59:40Z</time>
      </trkpt>
      <trkpt lat="28.5319780" lon="-16.1963770">
        <ele>252.9</ele>
        <time>2020-11-11T06:59:41Z</time>
      </trkpt>
      <trkpt lat="28.5319630" lon="-16.1964350">
        <ele>252.9</ele>
        <time>2020-11-11T06:59:42Z</time>
      </trkpt>
      <trkpt lat="28.5319520" lon="-16.1964630">
        <ele>252.9</ele>
        <time>2020-11-11T06:59:43Z</time>
      </trkpt>
      <trkpt lat="28.5319520" lon="-16.1964630">
        <ele>252.9</ele>
        <time>2020-11-11T06:59:44Z</time>
      </trkpt>
      <trkpt lat="28.5319280" lon="-16.1965200">
        <ele>252.9</ele>
        <time>2020-11-11T06:59:45Z</time>
      </trkpt>
      <trkpt lat="28.5319170" lon="-16.1965430">
        <ele>252.9</ele>
        <time>2020-11-11T06:59:46Z</time>
      </trkpt>
      <trkpt lat="28.5319030" lon="-16.1965700">
        <ele>253.9</ele>
        <time>2020-11-11T06:59:47Z</time>
      </trkpt>
      <trkpt lat="28.5319030" lon="-16.1965700">
        <ele>253.9</ele>
        <time>2020-11-11T06:59:48Z</time>
      </trkpt>
      <trkpt lat="28.5318820" lon="-16.1966230">
        <ele>253.9</ele>
        <time>2020-11-11T06:59:49Z</time>
      </trkpt>
      <trkpt lat="28.5318820" lon="-16.1966230">
        <ele>253.9</ele>
        <time>2020-11-11T06:59:50Z</time>
      </trkpt>
      <trkpt lat="28.5318600" lon="-16.1966700">
        <ele>253.9</ele>
        <time>2020-11-11T06:59:51Z</time>
      </trkpt>
      <trkpt lat="28.5318600" lon="-16.1966700">
        <ele>253.9</ele>
        <time>2020-11-11T06:59:52Z</time>
      </trkpt>
      <trkpt lat="28.5318380" lon="-16.1967180">
        <ele>254.9</ele>
        <time>2020-11-11T06:59:53Z</time>
      </trkpt>
      <trkpt lat="28.5318380" lon="-16.1967180">
        <ele>254.9</ele>
        <time>2020-11-11T06:59:54Z</time>
      </trkpt>
      <trkpt lat="28.5318150" lon="-16.1967680">
        <ele>254.9</ele>
        <time>2020-11-11T06:59:55Z</time>
      </trkpt>
      <trkpt lat="28.5318150" lon="-16.1967680">
        <ele>254.9</ele>
        <time>2020-11-11T06:59:56Z</time>
      </trkpt>
      <trkpt lat="28.5317950" lon="-16.1968130">
        <ele>254.9</ele>
        <time>2020-11-11T06:59:57Z</time>
      </trkpt>
      <trkpt lat="28.5317950" lon="-16.1968130">
        <ele>254.9</ele>
        <time>2020-11-11T06:59:58Z</time>
      </trkpt>
      <trkpt lat="28.5317800" lon="-16.1968620">
        <ele>255.9</ele>
        <time>2020-11-11T06:59:59Z</time>
      </trkpt>
      <trkpt lat="28.5317730" lon="-16.1968870">
        <ele>255.9</ele>
        <time>2020-11-11T07:00:00Z</time>
      </trkpt>
      <trkpt lat="28.5317700" lon="-16.1969100">
        <ele>255.9</ele>
        <time>2020-11-11T07:00:01Z</time>
      </trkpt>
      <trkpt lat="28.5317700" lon="-16.1969100">
        <ele>255.9</ele>
        <time>2020-11-11T07:00:02Z</time>
      </trkpt>
      <trkpt lat="28.5317700" lon="-16.1969580">
        <ele>255.9</ele>
        <time>2020-11-11T07:00:03Z</time>
      </trkpt>
      <trkpt lat="28.5317700" lon="-16.1969580">
        <ele>255.9</ele>
        <time>2020-11-11T07:00:04Z</time>
      </trkpt>
      <trkpt lat="28.5317720" lon="-16.1970050">
        <ele>256.9</ele>
        <time>2020-11-11T07:00:05Z</time>
      </trkpt>
      <trkpt lat="28.5317720" lon="-16.1970050">
        <ele>256.9</ele>
        <time>2020-11-11T07:00:06Z</time>
      </trkpt>
      <trkpt lat="28.5317720" lon="-16.1970570">
        <ele>256.9</ele>
        <time>2020-11-11T07:00:07Z</time>
      </trkpt>
      <trkpt lat="28.5317720" lon="-16.1970570">
        <ele>256.9</ele>
        <time>2020-11-11T07:00:08Z</time>
      </trkpt>
      <trkpt lat="28.5317750" lon="-16.1971080">
        <ele>256.9</ele>
        <time>2020-11-11T07:00:09Z</time>
      </trkpt>
      <trkpt lat="28.5317780" lon="-16.1971350">
        <ele>256.9</ele>
        <time>2020-11-11T07:00:10Z</time>
      </trkpt>
      <trkpt lat="28.5317780" lon="-16.1971350">
        <ele>257.9</ele>
        <time>2020-11-11T07:00:11Z</time>
      </trkpt>
      <trkpt lat="28.5317770" lon="-16.1971830">
        <ele>257.9</ele>
        <time>2020-11-11T07:00:12Z</time>
      </trkpt>
      <trkpt lat="28.5317730" lon="-16.1972120">
        <ele>257.9</ele>
        <time>2020-11-11T07:00:13Z</time>
      </trkpt>
      <trkpt lat="28.5317730" lon="-16.1972120">
        <ele>257.9</ele>
        <time>2020-11-11T07:00:14Z</time>
      </trkpt>
      <trkpt lat="28.5317680" lon="-16.1972630">
        <ele>257.9</ele>
        <time>2020-11-11T07:00:15Z</time>
      </trkpt>
      <trkpt lat="28.5317680" lon="-16.1972630">
        <ele>257.9</ele>
        <time>2020-11-11T07:00:16Z</time>
      </trkpt>
      <trkpt lat="28.5317820" lon="-16.1973100">
        <ele>258.9</ele>
        <time>2020-11-11T07:00:17Z</time>
      </trkpt>
      <trkpt lat="28.5317820" lon="-16.1973100">
        <ele>258.9</ele>
        <time>2020-11-11T07:00:18Z</time>
      </trkpt>
      <trkpt lat="28.5318030" lon="-16.1973600">
        <ele>258.9</ele>
        <time>2020-11-11T07:00:19Z</time>
      </trkpt>
      <trkpt lat="28.5318030" lon="-16.1973600">
        <ele>258.9</ele>
        <time>2020-11-11T07:00:20Z</time>
      </trkpt>
      <trkpt lat="28.5318280" lon="-16.1974050">
        <ele>258.9</ele>
        <time>2020-11-11T07:00:21Z</time>
      </trkpt>
      <trkpt lat="28.5318280" lon="-16.1974050">
        <ele>258.9</ele>
        <time>2020-11-11T07:00:22Z</time>
      </trkpt>
      <trkpt lat="28.5318580" lon="-16.1974480">
        <ele>258.9</ele>
        <time>2020-11-11T07:00:23Z</time>
      </trkpt>
      <trkpt lat="28.5318580" lon="-16.1974480">
        <ele>258.9</ele>
        <time>2020-11-11T07:00:24Z</time>
      </trkpt>
      <trkpt lat="28.5318920" lon="-16.1974880">
        <ele>258.9</ele>
        <time>2020-11-11T07:00:25Z</time>
      </trkpt>
      <trkpt lat="28.5318920" lon="-16.1974880">
        <ele>258.9</ele>
        <time>2020-11-11T07:00:26Z</time>
      </trkpt>
      <trkpt lat="28.5319330" lon="-16.1975220">
        <ele>259.9</ele>
        <time>2020-11-11T07:00:27Z</time>
      </trkpt>
      <trkpt lat="28.5319330" lon="-16.1975220">
        <ele>259.9</ele>
        <time>2020-11-11T07:00:28Z</time>
      </trkpt>
      <trkpt lat="28.5319730" lon="-16.1975480">
        <ele>259.9</ele>
        <time>2020-11-11T07:00:29Z</time>
      </trkpt>
      <trkpt lat="28.5319930" lon="-16.1975600">
        <ele>259.9</ele>
        <time>2020-11-11T07:00:30Z</time>
      </trkpt>
      <trkpt lat="28.5319930" lon="-16.1975600">
        <ele>259.9</ele>
        <time>2020-11-11T07:00:31Z</time>
      </trkpt>
      <trkpt lat="28.5320380" lon="-16.1975750">
        <ele>259.9</ele>
        <time>2020-11-11T07:00:32Z</time>
      </trkpt>
      <trkpt lat="28.5320380" lon="-16.1975750">
        <ele>260.9</ele>
        <time>2020-11-11T07:00:33Z</time>
      </trkpt>
      <trkpt lat="28.5320850" lon="-16.1975850">
        <ele>260.9</ele>
        <time>2020-11-11T07:00:34Z</time>
      </trkpt>
      <trkpt lat="28.5321050" lon="-16.1975850">
        <ele>260.9</ele>
        <time>2020-11-11T07:00:35Z</time>
      </trkpt>
      <trkpt lat="28.5321250" lon="-16.1975820">
        <ele>260.9</ele>
        <time>2020-11-11T07:00:36Z</time>
      </trkpt>
      <trkpt lat="28.5321450" lon="-16.1975850">
        <ele>261.9</ele>
        <time>2020-11-11T07:00:37Z</time>
      </trkpt>
      <trkpt lat="28.5321450" lon="-16.1975850">
        <ele>261.9</ele>
        <time>2020-11-11T07:00:38Z</time>
      </trkpt>
      <trkpt lat="28.5321870" lon="-16.1975830">
        <ele>261.9</ele>
        <time>2020-11-11T07:00:39Z</time>
      </trkpt>
      <trkpt lat="28.5322080" lon="-16.1975800">
        <ele>261.9</ele>
        <time>2020-11-11T07:00:40Z</time>
      </trkpt>
      <trkpt lat="28.5322080" lon="-16.1975800">
        <ele>262.9</ele>
        <time>2020-11-11T07:00:41Z</time>
      </trkpt>
      <trkpt lat="28.5322520" lon="-16.1975680">
        <ele>262.9</ele>
        <time>2020-11-11T07:00:42Z</time>
      </trkpt>
      <trkpt lat="28.5322750" lon="-16.1975620">
        <ele>262.9</ele>
        <time>2020-11-11T07:00:43Z</time>
      </trkpt>
      <trkpt lat="28.5322970" lon="-16.1975600">
        <ele>262.9</ele>
        <time>2020-11-11T07:00:44Z</time>
      </trkpt>
      <trkpt lat="28.5322970" lon="-16.1975600">
        <ele>263.9</ele>
        <time>2020-11-11T07:00:45Z</time>
      </trkpt>
      <trkpt lat="28.5323430" lon="-16.1975700">
        <ele>263.9</ele>
        <time>2020-11-11T07:00:46Z</time>
      </trkpt>
      <trkpt lat="28.5323670" lon="-16.1975820">
        <ele>263.9</ele>
        <time>2020-11-11T07:00:47Z</time>
      </trkpt>
      <trkpt lat="28.5323670" lon="-16.1975820">
        <ele>263.9</ele>
        <time>2020-11-11T07:00:48Z</time>
      </trkpt>
      <trkpt lat="28.5324070" lon="-16.1976080">
        <ele>264.9</ele>
        <time>2020-11-11T07:00:49Z</time>
      </trkpt>
      <trkpt lat="28.5324070" lon="-16.1976080">
        <ele>264.9</ele>
        <time>2020-11-11T07:00:50Z</time>
      </trkpt>
      <trkpt lat="28.5324430" lon="-16.1976450">
        <ele>264.9</ele>
        <time>2020-11-11T07:00:51Z</time>
      </trkpt>
      <trkpt lat="28.5324430" lon="-16.1976450">
        <ele>264.9</ele>
        <time>2020-11-11T07:00:52Z</time>
      </trkpt>
      <trkpt lat="28.5324820" lon="-16.1976870">
        <ele>264.9</ele>
        <time>2020-11-11T07:00:53Z</time>
      </trkpt>
      <trkpt lat="28.5324980" lon="-16.1977080">
        <ele>264.9</ele>
        <time>2020-11-11T07:00:54Z</time>
      </trkpt>
      <trkpt lat="28.5324980" lon="-16.1977080">
        <ele>264.9</ele>
        <time>2020-11-11T07:00:55Z</time>
      </trkpt>
      <trkpt lat="28.5325380" lon="-16.1977450">
        <ele>264.9</ele>
        <time>2020-11-11T07:00:56Z</time>
      </trkpt>
      <trkpt lat="28.5325380" lon="-16.1977450">
        <ele>265.9</ele>
        <time>2020-11-11T07:00:57Z</time>
      </trkpt>
      <trkpt lat="28.5325800" lon="-16.1977870">
        <ele>265.9</ele>
        <time>2020-11-11T07:00:58Z</time>
      </trkpt>
      <trkpt lat="28.5325800" lon="-16.1977870">
        <ele>265.9</ele>
        <time>2020-11-11T07:00:59Z</time>
      </trkpt>
      <trkpt lat="28.5326170" lon="-16.1978230">
        <ele>265.9</ele>
        <time>2020-11-11T07:01:00Z</time>
      </trkpt>
      <trkpt lat="28.5326350" lon="-16.1978420">
        <ele>265.9</ele>
        <time>2020-11-11T07:01:01Z</time>
      </trkpt>
      <trkpt lat="28.5326350" lon="-16.1978420">
        <ele>265.9</ele>
        <time>2020-11-11T07:01:02Z</time>
      </trkpt>
      <trkpt lat="28.5326650" lon="-16.1978750">
        <ele>265.9</ele>
        <time>2020-11-11T07:01:03Z</time>
      </trkpt>
      <trkpt lat="28.5326650" lon="-16.1978750">
        <ele>265.9</ele>
        <time>2020-11-11T07:01:04Z</time>
      </trkpt>
      <trkpt lat="28.5326980" lon="-16.1979100">
        <ele>265.9</ele>
        <time>2020-11-11T07:01:05Z</time>
      </trkpt>
      <trkpt lat="28.5326980" lon="-16.1979100">
        <ele>266.9</ele>
        <time>2020-11-11T07:01:06Z</time>
      </trkpt>
      <trkpt lat="28.5327270" lon="-16.1979480">
        <ele>266.9</ele>
        <time>2020-11-11T07:01:07Z</time>
      </trkpt>
      <trkpt lat="28.5327270" lon="-16.1979480">
        <ele>266.9</ele>
        <time>2020-11-11T07:01:08Z</time>
      </trkpt>
      <trkpt lat="28.5327570" lon="-16.1979880">
        <ele>266.9</ele>
        <time>2020-11-11T07:01:09Z</time>
      </trkpt>
      <trkpt lat="28.5327570" lon="-16.1979880">
        <ele>266.9</ele>
        <time>2020-11-11T07:01:10Z</time>
      </trkpt>
      <trkpt lat="28.5327780" lon="-16.1980330">
        <ele>266.9</ele>
        <time>2020-11-11T07:01:11Z</time>
      </trkpt>
      <trkpt lat="28.5327920" lon="-16.1980530">
        <ele>267.9</ele>
        <time>2020-11-11T07:01:12Z</time>
      </trkpt>
      <trkpt lat="28.5327920" lon="-16.1980530">
        <ele>267.9</ele>
        <time>2020-11-11T07:01:13Z</time>
      </trkpt>
      <trkpt lat="28.5328150" lon="-16.1981000">
        <ele>267.9</ele>
        <time>2020-11-11T07:01:14Z</time>
      </trkpt>
      <trkpt lat="28.5328150" lon="-16.1981000">
        <ele>267.9</ele>
        <time>2020-11-11T07:01:15Z</time>
      </trkpt>
      <trkpt lat="28.5328220" lon="-16.1981500">
        <ele>267.9</ele>
        <time>2020-11-11T07:01:16Z</time>
      </trkpt>
      <trkpt lat="28.5328220" lon="-16.1981750">
        <ele>267.9</ele>
        <time>2020-11-11T07:01:17Z</time>
      </trkpt>
      <trkpt lat="28.5328220" lon="-16.1981750">
        <ele>268.9</ele>
        <time>2020-11-11T07:01:18Z</time>
      </trkpt>
      <trkpt lat="28.5328220" lon="-16.1982300">
        <ele>268.9</ele>
        <time>2020-11-11T07:01:19Z</time>
      </trkpt>
      <trkpt lat="28.5328220" lon="-16.1982300">
        <ele>268.9</ele>
        <time>2020-11-11T07:01:20Z</time>
      </trkpt>
      <trkpt lat="28.5328170" lon="-16.1982820">
        <ele>268.9</ele>
        <time>2020-11-11T07:01:21Z</time>
      </trkpt>
      <trkpt lat="28.5328130" lon="-16.1983070">
        <ele>268.9</ele>
        <time>2020-11-11T07:01:22Z</time>
      </trkpt>
      <trkpt lat="28.5328130" lon="-16.1983070">
        <ele>268.9</ele>
        <time>2020-11-11T07:01:23Z</time>
      </trkpt>
      <trkpt lat="28.5328030" lon="-16.1983650">
        <ele>268.9</ele>
        <time>2020-11-11T07:01:24Z</time>
      </trkpt>
      <trkpt lat="28.5328030" lon="-16.1983650">
        <ele>268.9</ele>
        <time>2020-11-11T07:01:25Z</time>
      </trkpt>
      <trkpt lat="28.5327980" lon="-16.1984230">
        <ele>269.9</ele>
        <time>2020-11-11T07:01:26Z</time>
      </trkpt>
      <trkpt lat="28.5327980" lon="-16.1984520">
        <ele>269.9</ele>
        <time>2020-11-11T07:01:27Z</time>
      </trkpt>
      <trkpt lat="28.5327980" lon="-16.1984520">
        <ele>269.9</ele>
        <time>2020-11-11T07:01:28Z</time>
      </trkpt>
      <trkpt lat="28.5328120" lon="-16.1985050">
        <ele>269.9</ele>
        <time>2020-11-11T07:01:29Z</time>
      </trkpt>
      <trkpt lat="28.5328200" lon="-16.1985320">
        <ele>269.9</ele>
        <time>2020-11-11T07:01:30Z</time>
      </trkpt>
      <trkpt lat="28.5328200" lon="-16.1985320">
        <ele>269.9</ele>
        <time>2020-11-11T07:01:31Z</time>
      </trkpt>
      <trkpt lat="28.5328470" lon="-16.1985820">
        <ele>270.9</ele>
        <time>2020-11-11T07:01:32Z</time>
      </trkpt>
      <trkpt lat="28.5328470" lon="-16.1985820">
        <ele>270.9</ele>
        <time>2020-11-11T07:01:33Z</time>
      </trkpt>
      <trkpt lat="28.5328900" lon="-16.1986200">
        <ele>270.9</ele>
        <time>2020-11-11T07:01:34Z</time>
      </trkpt>
      <trkpt lat="28.5328900" lon="-16.1986200">
        <ele>270.9</ele>
        <time>2020-11-11T07:01:35Z</time>
      </trkpt>
      <trkpt lat="28.5329370" lon="-16.1986470">
        <ele>270.9</ele>
        <time>2020-11-11T07:01:36Z</time>
      </trkpt>
      <trkpt lat="28.5329600" lon="-16.1986600">
        <ele>270.9</ele>
        <time>2020-11-11T07:01:37Z</time>
      </trkpt>
      <trkpt lat="28.5329600" lon="-16.1986600">
        <ele>270.9</ele>
        <time>2020-11-11T07:01:38Z</time>
      </trkpt>
      <trkpt lat="28.5330070" lon="-16.1986780">
        <ele>270.9</ele>
        <time>2020-11-11T07:01:39Z</time>
      </trkpt>
      <trkpt lat="28.5330070" lon="-16.1986780">
        <ele>270.9</ele>
        <time>2020-11-11T07:01:40Z</time>
      </trkpt>
      <trkpt lat="28.5330550" lon="-16.1986950">
        <ele>270.9</ele>
        <time>2020-11-11T07:01:41Z</time>
      </trkpt>
      <trkpt lat="28.5330550" lon="-16.1986950">
        <ele>270.9</ele>
        <time>2020-11-11T07:01:42Z</time>
      </trkpt>
      <trkpt lat="28.5331020" lon="-16.1987080">
        <ele>270.9</ele>
        <time>2020-11-11T07:01:43Z</time>
      </trkpt>
      <trkpt lat="28.5331220" lon="-16.1987130">
        <ele>271.9</ele>
        <time>2020-11-11T07:01:44Z</time>
      </trkpt>
      <trkpt lat="28.5331430" lon="-16.1987180">
        <ele>271.9</ele>
        <time>2020-11-11T07:01:45Z</time>
      </trkpt>
      <trkpt lat="28.5331430" lon="-16.1987180">
        <ele>271.9</ele>
        <time>2020-11-11T07:01:46Z</time>
      </trkpt>
      <trkpt lat="28.5331920" lon="-16.1987220">
        <ele>271.9</ele>
        <time>2020-11-11T07:01:47Z</time>
      </trkpt>
      <trkpt lat="28.5332170" lon="-16.1987230">
        <ele>271.9</ele>
        <time>2020-11-11T07:01:48Z</time>
      </trkpt>
      <trkpt lat="28.5332170" lon="-16.1987230">
        <ele>271.9</ele>
        <time>2020-11-11T07:01:49Z</time>
      </trkpt>
      <trkpt lat="28.5332650" lon="-16.1987270">
        <ele>271.9</ele>
        <time>2020-11-11T07:01:50Z</time>
      </trkpt>
      <trkpt lat="28.5332920" lon="-16.1987250">
        <ele>272.9</ele>
        <time>2020-11-11T07:01:51Z</time>
      </trkpt>
      <trkpt lat="28.5332920" lon="-16.1987250">
        <ele>272.9</ele>
        <time>2020-11-11T07:01:52Z</time>
      </trkpt>
      <trkpt lat="28.5333370" lon="-16.1987270">
        <ele>272.9</ele>
        <time>2020-11-11T07:01:53Z</time>
      </trkpt>
      <trkpt lat="28.5333370" lon="-16.1987270">
        <ele>272.9</ele>
        <time>2020-11-11T07:01:54Z</time>
      </trkpt>
      <trkpt lat="28.5333820" lon="-16.1987270">
        <ele>273.9</ele>
        <time>2020-11-11T07:01:55Z</time>
      </trkpt>
      <trkpt lat="28.5333820" lon="-16.1987270">
        <ele>273.9</ele>
        <time>2020-11-11T07:01:56Z</time>
      </trkpt>
      <trkpt lat="28.5334230" lon="-16.1987280">
        <ele>273.9</ele>
        <time>2020-11-11T07:01:57Z</time>
      </trkpt>
      <trkpt lat="28.5334230" lon="-16.1987280">
        <ele>273.9</ele>
        <time>2020-11-11T07:01:58Z</time>
      </trkpt>
      <trkpt lat="28.5334620" lon="-16.1987300">
        <ele>273.9</ele>
        <time>2020-11-11T07:01:59Z</time>
      </trkpt>
      <trkpt lat="28.5334820" lon="-16.1987300">
        <ele>273.9</ele>
        <time>2020-11-11T07:02:00Z</time>
      </trkpt>
      <trkpt lat="28.5334820" lon="-16.1987300">
        <ele>274.9</ele>
        <time>2020-11-11T07:02:01Z</time>
      </trkpt>
      <trkpt lat="28.5335200" lon="-16.1987300">
        <ele>274.9</ele>
        <time>2020-11-11T07:02:02Z</time>
      </trkpt>
      <trkpt lat="28.5335200" lon="-16.1987300">
        <ele>274.9</ele>
        <time>2020-11-11T07:02:03Z</time>
      </trkpt>
      <trkpt lat="28.5335620" lon="-16.1987230">
        <ele>274.9</ele>
        <time>2020-11-11T07:02:04Z</time>
      </trkpt>
      <trkpt lat="28.5335620" lon="-16.1987230">
        <ele>274.9</ele>
        <time>2020-11-11T07:02:05Z</time>
      </trkpt>
      <trkpt lat="28.5336000" lon="-16.1987120">
        <ele>274.9</ele>
        <time>2020-11-11T07:02:06Z</time>
      </trkpt>
      <trkpt lat="28.5336220" lon="-16.1987070">
        <ele>275.9</ele>
        <time>2020-11-11T07:02:07Z</time>
      </trkpt>
      <trkpt lat="28.5336220" lon="-16.1987070">
        <ele>275.9</ele>
        <time>2020-11-11T07:02:08Z</time>
      </trkpt>
      <trkpt lat="28.5336630" lon="-16.1986880">
        <ele>275.9</ele>
        <time>2020-11-11T07:02:09Z</time>
      </trkpt>
      <trkpt lat="28.5336630" lon="-16.1986880">
        <ele>275.9</ele>
        <time>2020-11-11T07:02:10Z</time>
      </trkpt>
      <trkpt lat="28.5336970" lon="-16.1986600">
        <ele>276.9</ele>
        <time>2020-11-11T07:02:11Z</time>
      </trkpt>
      <trkpt lat="28.5336970" lon="-16.1986600">
        <ele>276.9</ele>
        <time>2020-11-11T07:02:12Z</time>
      </trkpt>
      <trkpt lat="28.5337250" lon="-16.1986270">
        <ele>276.9</ele>
        <time>2020-11-11T07:02:13Z</time>
      </trkpt>
      <trkpt lat="28.5337250" lon="-16.1986270">
        <ele>276.9</ele>
        <time>2020-11-11T07:02:14Z</time>
      </trkpt>
      <trkpt lat="28.5337470" lon="-16.1985820">
        <ele>276.9</ele>
        <time>2020-11-11T07:02:15Z</time>
      </trkpt>
      <trkpt lat="28.5337470" lon="-16.1985820">
        <ele>277.9</ele>
        <time>2020-11-11T07:02:16Z</time>
      </trkpt>
      <trkpt lat="28.5337680" lon="-16.1985350">
        <ele>277.9</ele>
        <time>2020-11-11T07:02:17Z</time>
      </trkpt>
      <trkpt lat="28.5337680" lon="-16.1985350">
        <ele>277.9</ele>
        <time>2020-11-11T07:02:18Z</time>
      </trkpt>
      <trkpt lat="28.5337980" lon="-16.1984980">
        <ele>277.9</ele>
        <time>2020-11-11T07:02:19Z</time>
      </trkpt>
      <trkpt lat="28.5337980" lon="-16.1984980">
        <ele>277.9</ele>
        <time>2020-11-11T07:02:20Z</time>
      </trkpt>
      <trkpt lat="28.5338270" lon="-16.1984570">
        <ele>277.9</ele>
        <time>2020-11-11T07:02:21Z</time>
      </trkpt>
      <trkpt lat="28.5338400" lon="-16.1984370">
        <ele>277.9</ele>
        <time>2020-11-11T07:02:22Z</time>
      </trkpt>
      <trkpt lat="28.5338400" lon="-16.1984370">
        <ele>277.9</ele>
        <time>2020-11-11T07:02:23Z</time>
      </trkpt>
      <trkpt lat="28.5338700" lon="-16.1984020">
        <ele>277.9</ele>
        <time>2020-11-11T07:02:24Z</time>
      </trkpt>
      <trkpt lat="28.5338900" lon="-16.1983870">
        <ele>277.9</ele>
        <time>2020-11-11T07:02:25Z</time>
      </trkpt>
      <trkpt lat="28.5338900" lon="-16.1983870">
        <ele>278.9</ele>
        <time>2020-11-11T07:02:26Z</time>
      </trkpt>
      <trkpt lat="28.5339280" lon="-16.1983650">
        <ele>278.9</ele>
        <time>2020-11-11T07:02:27Z</time>
      </trkpt>
      <trkpt lat="28.5339280" lon="-16.1983650">
        <ele>278.9</ele>
        <time>2020-11-11T07:02:28Z</time>
      </trkpt>
      <trkpt lat="28.5339680" lon="-16.1983450">
        <ele>278.9</ele>
        <time>2020-11-11T07:02:29Z</time>
      </trkpt>
      <trkpt lat="28.5339680" lon="-16.1983450">
        <ele>278.9</ele>
        <time>2020-11-11T07:02:30Z</time>
      </trkpt>
      <trkpt lat="28.5340120" lon="-16.1983300">
        <ele>278.9</ele>
        <time>2020-11-11T07:02:31Z</time>
      </trkpt>
      <trkpt lat="28.5340330" lon="-16.1983250">
        <ele>279.9</ele>
        <time>2020-11-11T07:02:32Z</time>
      </trkpt>
      <trkpt lat="28.5340330" lon="-16.1983250">
        <ele>279.9</ele>
        <time>2020-11-11T07:02:33Z</time>
      </trkpt>
      <trkpt lat="28.5340800" lon="-16.1983200">
        <ele>279.9</ele>
        <time>2020-11-11T07:02:34Z</time>
      </trkpt>
      <trkpt lat="28.5340800" lon="-16.1983200">
        <ele>279.9</ele>
        <time>2020-11-11T07:02:35Z</time>
      </trkpt>
      <trkpt lat="28.5341270" lon="-16.1983220">
        <ele>279.9</ele>
        <time>2020-11-11T07:02:36Z</time>
      </trkpt>
      <trkpt lat="28.5341520" lon="-16.1983250">
        <ele>279.9</ele>
        <time>2020-11-11T07:02:37Z</time>
      </trkpt>
      <trkpt lat="28.5341520" lon="-16.1983250">
        <ele>280.9</ele>
        <time>2020-11-11T07:02:38Z</time>
      </trkpt>
      <trkpt lat="28.5341970" lon="-16.1983350">
        <ele>280.9</ele>
        <time>2020-11-11T07:02:39Z</time>
      </trkpt>
      <trkpt lat="28.5342200" lon="-16.1983380">
        <ele>280.9</ele>
        <time>2020-11-11T07:02:40Z</time>
      </trkpt>
      <trkpt lat="28.5342200" lon="-16.1983380">
        <ele>280.9</ele>
        <time>2020-11-11T07:02:41Z</time>
      </trkpt>
      <trkpt lat="28.5342650" lon="-16.1983420">
        <ele>280.9</ele>
        <time>2020-11-11T07:02:42Z</time>
      </trkpt>
      <trkpt lat="28.5342880" lon="-16.1983450">
        <ele>280.9</ele>
        <time>2020-11-11T07:02:43Z</time>
      </trkpt>
      <trkpt lat="28.5342880" lon="-16.1983450">
        <ele>281.9</ele>
        <time>2020-11-11T07:02:44Z</time>
      </trkpt>
      <trkpt lat="28.5343330" lon="-16.1983520">
        <ele>281.9</ele>
        <time>2020-11-11T07:02:45Z</time>
      </trkpt>
      <trkpt lat="28.5343330" lon="-16.1983520">
        <ele>281.9</ele>
        <time>2020-11-11T07:02:46Z</time>
      </trkpt>
      <trkpt lat="28.5343770" lon="-16.1983600">
        <ele>281.9</ele>
        <time>2020-11-11T07:02:47Z</time>
      </trkpt>
      <trkpt lat="28.5343770" lon="-16.1983600">
        <ele>281.9</ele>
        <time>2020-11-11T07:02:48Z</time>
      </trkpt>
      <trkpt lat="28.5344180" lon="-16.1983720">
        <ele>281.9</ele>
        <time>2020-11-11T07:02:49Z</time>
      </trkpt>
      <trkpt lat="28.5344180" lon="-16.1983720">
        <ele>282.9</ele>
        <time>2020-11-11T07:02:50Z</time>
      </trkpt>
      <trkpt lat="28.5344570" lon="-16.1983900">
        <ele>282.9</ele>
        <time>2020-11-11T07:02:51Z</time>
      </trkpt>
      <trkpt lat="28.5344780" lon="-16.1984000">
        <ele>282.9</ele>
        <time>2020-11-11T07:02:52Z</time>
      </trkpt>
      <trkpt lat="28.5344780" lon="-16.1984000">
        <ele>283.9</ele>
        <time>2020-11-11T07:02:53Z</time>
      </trkpt>
      <trkpt lat="28.5345180" lon="-16.1984230">
        <ele>283.9</ele>
        <time>2020-11-11T07:02:54Z</time>
      </trkpt>
      <trkpt lat="28.5345180" lon="-16.1984230">
        <ele>283.9</ele>
        <time>2020-11-11T07:02:55Z</time>
      </trkpt>
      <trkpt lat="28.5345570" lon="-16.1984480">
        <ele>283.9</ele>
        <time>2020-11-11T07:02:56Z</time>
      </trkpt>
      <trkpt lat="28.5345570" lon="-16.1984480">
        <ele>283.9</ele>
        <time>2020-11-11T07:02:57Z</time>
      </trkpt>
      <trkpt lat="28.5345950" lon="-16.1984730">
        <ele>283.9</ele>
        <time>2020-11-11T07:02:58Z</time>
      </trkpt>
      <trkpt lat="28.5346130" lon="-16.1984870">
        <ele>283.9</ele>
        <time>2020-11-11T07:02:59Z</time>
      </trkpt>
      <trkpt lat="28.5346130" lon="-16.1984870">
        <ele>283.9</ele>
        <time>2020-11-11T07:03:00Z</time>
      </trkpt>
      <trkpt lat="28.5346500" lon="-16.1985170">
        <ele>283.9</ele>
        <time>2020-11-11T07:03:01Z</time>
      </trkpt>
      <trkpt lat="28.5346500" lon="-16.1985170">
        <ele>283.9</ele>
        <time>2020-11-11T07:03:02Z</time>
      </trkpt>
      <trkpt lat="28.5346870" lon="-16.1985450">
        <ele>283.9</ele>
        <time>2020-11-11T07:03:03Z</time>
      </trkpt>
      <trkpt lat="28.5347030" lon="-16.1985620">
        <ele>283.9</ele>
        <time>2020-11-11T07:03:04Z</time>
      </trkpt>
      <trkpt lat="28.5347030" lon="-16.1985620">
        <ele>284.9</ele>
        <time>2020-11-11T07:03:05Z</time>
      </trkpt>
      <trkpt lat="28.5347380" lon="-16.1985970">
        <ele>284.9</ele>
        <time>2020-11-11T07:03:06Z</time>
      </trkpt>
      <trkpt lat="28.5347380" lon="-16.1985970">
        <ele>284.9</ele>
        <time>2020-11-11T07:03:07Z</time>
      </trkpt>
      <trkpt lat="28.5347770" lon="-16.1986230">
        <ele>284.9</ele>
        <time>2020-11-11T07:03:08Z</time>
      </trkpt>
      <trkpt lat="28.5347970" lon="-16.1986370">
        <ele>285.9</ele>
        <time>2020-11-11T07:03:09Z</time>
      </trkpt>
      <trkpt lat="28.5347970" lon="-16.1986370">
        <ele>285.9</ele>
        <time>2020-11-11T07:03:10Z</time>
      </trkpt>
      <trkpt lat="28.5348330" lon="-16.1986620">
        <ele>285.9</ele>
        <time>2020-11-11T07:03:11Z</time>
      </trkpt>
      <trkpt lat="28.5348330" lon="-16.1986620">
        <ele>285.9</ele>
        <time>2020-11-11T07:03:12Z</time>
      </trkpt>
      <trkpt lat="28.5348730" lon="-16.1986800">
        <ele>286.9</ele>
        <time>2020-11-11T07:03:13Z</time>
      </trkpt>
      <trkpt lat="28.5348730" lon="-16.1986800">
        <ele>286.9</ele>
        <time>2020-11-11T07:03:14Z</time>
      </trkpt>
      <trkpt lat="28.5349150" lon="-16.1986900">
        <ele>286.9</ele>
        <time>2020-11-11T07:03:15Z</time>
      </trkpt>
      <trkpt lat="28.5349150" lon="-16.1986900">
        <ele>286.9</ele>
        <time>2020-11-11T07:03:16Z</time>
      </trkpt>
      <trkpt lat="28.5349620" lon="-16.1986900">
        <ele>287.9</ele>
        <time>2020-11-11T07:03:17Z</time>
      </trkpt>
      <trkpt lat="28.5349620" lon="-16.1986900">
        <ele>287.9</ele>
        <time>2020-11-11T07:03:18Z</time>
      </trkpt>
      <trkpt lat="28.5350070" lon="-16.1986780">
        <ele>287.9</ele>
        <time>2020-11-11T07:03:19Z</time>
      </trkpt>
      <trkpt lat="28.5350070" lon="-16.1986780">
        <ele>287.9</ele>
        <time>2020-11-11T07:03:20Z</time>
      </trkpt>
      <trkpt lat="28.5350520" lon="-16.1986620">
        <ele>288.9</ele>
        <time>2020-11-11T07:03:21Z</time>
      </trkpt>
      <trkpt lat="28.5350520" lon="-16.1986620">
        <ele>288.9</ele>
        <time>2020-11-11T07:03:22Z</time>
      </trkpt>
      <trkpt lat="28.5350950" lon="-16.1986430">
        <ele>288.9</ele>
        <time>2020-11-11T07:03:23Z</time>
      </trkpt>
      <trkpt lat="28.5350950" lon="-16.1986430">
        <ele>288.9</ele>
        <time>2020-11-11T07:03:24Z</time>
      </trkpt>
      <trkpt lat="28.5351380" lon="-16.1986220">
        <ele>289.9</ele>
        <time>2020-11-11T07:03:25Z</time>
      </trkpt>
      <trkpt lat="28.5351380" lon="-16.1986220">
        <ele>289.9</ele>
        <time>2020-11-11T07:03:26Z</time>
      </trkpt>
      <trkpt lat="28.5351800" lon="-16.1986030">
        <ele>289.9</ele>
        <time>2020-11-11T07:03:27Z</time>
      </trkpt>
      <trkpt lat="28.5351800" lon="-16.1986030">
        <ele>289.9</ele>
        <time>2020-11-11T07:03:28Z</time>
      </trkpt>
      <trkpt lat="28.5352170" lon="-16.1985770">
        <ele>290.9</ele>
        <time>2020-11-11T07:03:29Z</time>
      </trkpt>
      <trkpt lat="28.5352170" lon="-16.1985770">
        <ele>290.9</ele>
        <time>2020-11-11T07:03:30Z</time>
      </trkpt>
      <trkpt lat="28.5352500" lon="-16.1985480">
        <ele>290.9</ele>
        <time>2020-11-11T07:03:31Z</time>
      </trkpt>
      <trkpt lat="28.5352500" lon="-16.1985480">
        <ele>290.9</ele>
        <time>2020-11-11T07:03:32Z</time>
      </trkpt>
      <trkpt lat="28.5352800" lon="-16.1985120">
        <ele>291.9</ele>
        <time>2020-11-11T07:03:33Z</time>
      </trkpt>
      <trkpt lat="28.5352800" lon="-16.1985120">
        <ele>291.9</ele>
        <time>2020-11-11T07:03:34Z</time>
      </trkpt>
      <trkpt lat="28.5353030" lon="-16.1984700">
        <ele>291.9</ele>
        <time>2020-11-11T07:03:35Z</time>
      </trkpt>
      <trkpt lat="28.5353100" lon="-16.1984450">
        <ele>291.9</ele>
        <time>2020-11-11T07:03:36Z</time>
      </trkpt>
      <trkpt lat="28.5353100" lon="-16.1984450">
        <ele>292.9</ele>
        <time>2020-11-11T07:03:37Z</time>
      </trkpt>
      <trkpt lat="28.5353170" lon="-16.1983930">
        <ele>292.9</ele>
        <time>2020-11-11T07:03:38Z</time>
      </trkpt>
      <trkpt lat="28.5353200" lon="-16.1983680">
        <ele>292.9</ele>
        <time>2020-11-11T07:03:39Z</time>
      </trkpt>
      <trkpt lat="28.5353200" lon="-16.1983680">
        <ele>292.9</ele>
        <time>2020-11-11T07:03:40Z</time>
      </trkpt>
      <trkpt lat="28.5353280" lon="-16.1983150">
        <ele>293.9</ele>
        <time>2020-11-11T07:03:41Z</time>
      </trkpt>
      <trkpt lat="28.5353330" lon="-16.1982870">
        <ele>293.9</ele>
        <time>2020-11-11T07:03:42Z</time>
      </trkpt>
      <trkpt lat="28.5353330" lon="-16.1982870">
        <ele>293.9</ele>
        <time>2020-11-11T07:03:43Z</time>
      </trkpt>
      <trkpt lat="28.5353520" lon="-16.1982370">
        <ele>293.9</ele>
        <time>2020-11-11T07:03:44Z</time>
      </trkpt>
      <trkpt lat="28.5353680" lon="-16.1982130">
        <ele>293.9</ele>
        <time>2020-11-11T07:03:45Z</time>
      </trkpt>
      <trkpt lat="28.5353680" lon="-16.1982130">
        <ele>293.9</ele>
        <time>2020-11-11T07:03:46Z</time>
      </trkpt>
      <trkpt lat="28.5354070" lon="-16.1981730">
        <ele>294.9</ele>
        <time>2020-11-11T07:03:47Z</time>
      </trkpt>
      <trkpt lat="28.5354070" lon="-16.1981730">
        <ele>294.9</ele>
        <time>2020-11-11T07:03:48Z</time>
      </trkpt>
      <trkpt lat="28.5354580" lon="-16.1981430">
        <ele>294.9</ele>
        <time>2020-11-11T07:03:49Z</time>
      </trkpt>
      <trkpt lat="28.5354580" lon="-16.1981430">
        <ele>294.9</ele>
        <time>2020-11-11T07:03:50Z</time>
      </trkpt>
      <trkpt lat="28.5355120" lon="-16.1981220">
        <ele>294.9</ele>
        <time>2020-11-11T07:03:51Z</time>
      </trkpt>
      <trkpt lat="28.5355420" lon="-16.1981080">
        <ele>294.9</ele>
        <time>2020-11-11T07:03:52Z</time>
      </trkpt>
      <trkpt lat="28.5355420" lon="-16.1981080">
        <ele>294.9</ele>
        <time>2020-11-11T07:03:53Z</time>
      </trkpt>
      <trkpt lat="28.5355950" lon="-16.1980830">
        <ele>294.9</ele>
        <time>2020-11-11T07:03:54Z</time>
      </trkpt>
      <trkpt lat="28.5355950" lon="-16.1980830">
        <ele>294.9</ele>
        <time>2020-11-11T07:03:55Z</time>
      </trkpt>
      <trkpt lat="28.5356520" lon="-16.1980550">
        <ele>294.9</ele>
        <time>2020-11-11T07:03:56Z</time>
      </trkpt>
      <trkpt lat="28.5356520" lon="-16.1980550">
        <ele>294.9</ele>
        <time>2020-11-11T07:03:57Z</time>
      </trkpt>
      <trkpt lat="28.5357100" lon="-16.1980250">
        <ele>294.9</ele>
        <time>2020-11-11T07:03:58Z</time>
      </trkpt>
      <trkpt lat="28.5357100" lon="-16.1980250">
        <ele>294.9</ele>
        <time>2020-11-11T07:03:59Z</time>
      </trkpt>
      <trkpt lat="28.5357630" lon="-16.1979930">
        <ele>294.9</ele>
        <time>2020-11-11T07:04:00Z</time>
      </trkpt>
      <trkpt lat="28.5357900" lon="-16.1979750">
        <ele>294.9</ele>
        <time>2020-11-11T07:04:01Z</time>
      </trkpt>
      <trkpt lat="28.5357900" lon="-16.1979750">
        <ele>294.9</ele>
        <time>2020-11-11T07:04:02Z</time>
      </trkpt>
      <trkpt lat="28.5358400" lon="-16.1979380">
        <ele>295.9</ele>
        <time>2020-11-11T07:04:03Z</time>
      </trkpt>
      <trkpt lat="28.5358400" lon="-16.1979380">
        <ele>295.9</ele>
        <time>2020-11-11T07:04:04Z</time>
      </trkpt>
      <trkpt lat="28.5358870" lon="-16.1979020">
        <ele>295.9</ele>
        <time>2020-11-11T07:04:05Z</time>
      </trkpt>
      <trkpt lat="28.5358870" lon="-16.1979020">
        <ele>295.9</ele>
        <time>2020-11-11T07:04:06Z</time>
      </trkpt>
      <trkpt lat="28.5359300" lon="-16.1978680">
        <ele>296.9</ele>
        <time>2020-11-11T07:04:07Z</time>
      </trkpt>
      <trkpt lat="28.5359300" lon="-16.1978680">
        <ele>296.9</ele>
        <time>2020-11-11T07:04:08Z</time>
      </trkpt>
      <trkpt lat="28.5359870" lon="-16.1978530">
        <ele>296.9</ele>
        <time>2020-11-11T07:04:09Z</time>
      </trkpt>
      <trkpt lat="28.5359870" lon="-16.1978530">
        <ele>297.9</ele>
        <time>2020-11-11T07:04:10Z</time>
      </trkpt>
      <trkpt lat="28.5360470" lon="-16.1978530">
        <ele>297.9</ele>
        <time>2020-11-11T07:04:11Z</time>
      </trkpt>
      <trkpt lat="28.5360770" lon="-16.1978630">
        <ele>297.9</ele>
        <time>2020-11-11T07:04:12Z</time>
      </trkpt>
      <trkpt lat="28.5360770" lon="-16.1978630">
        <ele>297.9</ele>
        <time>2020-11-11T07:04:13Z</time>
      </trkpt>
      <trkpt lat="28.5361270" lon="-16.1978980">
        <ele>297.9</ele>
        <time>2020-11-11T07:04:14Z</time>
      </trkpt>
      <trkpt lat="28.5361270" lon="-16.1978980">
        <ele>297.9</ele>
        <time>2020-11-11T07:04:15Z</time>
      </trkpt>
      <trkpt lat="28.5361700" lon="-16.1979480">
        <ele>297.9</ele>
        <time>2020-11-11T07:04:16Z</time>
      </trkpt>
      <trkpt lat="28.5361700" lon="-16.1979480">
        <ele>297.9</ele>
        <time>2020-11-11T07:04:17Z</time>
      </trkpt>
      <trkpt lat="28.5362030" lon="-16.1980130">
        <ele>297.9</ele>
        <time>2020-11-11T07:04:18Z</time>
      </trkpt>
      <trkpt lat="28.5362200" lon="-16.1980470">
        <ele>297.9</ele>
        <time>2020-11-11T07:04:19Z</time>
      </trkpt>
      <trkpt lat="28.5362200" lon="-16.1980470">
        <ele>298.9</ele>
        <time>2020-11-11T07:04:20Z</time>
      </trkpt>
      <trkpt lat="28.5362450" lon="-16.1981220">
        <ele>298.9</ele>
        <time>2020-11-11T07:04:21Z</time>
      </trkpt>
      <trkpt lat="28.5362450" lon="-16.1981220">
        <ele>298.9</ele>
        <time>2020-11-11T07:04:22Z</time>
      </trkpt>
      <trkpt lat="28.5362670" lon="-16.1982020">
        <ele>298.9</ele>
        <time>2020-11-11T07:04:23Z</time>
      </trkpt>
      <trkpt lat="28.5362670" lon="-16.1982020">
        <ele>298.9</ele>
        <time>2020-11-11T07:04:24Z</time>
      </trkpt>
      <trkpt lat="28.5362920" lon="-16.1982800">
        <ele>298.9</ele>
        <time>2020-11-11T07:04:25Z</time>
      </trkpt>
      <trkpt lat="28.5362920" lon="-16.1982800">
        <ele>298.9</ele>
        <time>2020-11-11T07:04:26Z</time>
      </trkpt>
      <trkpt lat="28.5363130" lon="-16.1983520">
        <ele>298.9</ele>
        <time>2020-11-11T07:04:27Z</time>
      </trkpt>
      <trkpt lat="28.5363130" lon="-16.1983520">
        <ele>298.9</ele>
        <time>2020-11-11T07:04:28Z</time>
      </trkpt>
      <trkpt lat="28.5363370" lon="-16.1984180">
        <ele>298.9</ele>
        <time>2020-11-11T07:04:29Z</time>
      </trkpt>
      <trkpt lat="28.5363520" lon="-16.1984520">
        <ele>299.9</ele>
        <time>2020-11-11T07:04:30Z</time>
      </trkpt>
      <trkpt lat="28.5363520" lon="-16.1984520">
        <ele>299.9</ele>
        <time>2020-11-11T07:04:31Z</time>
      </trkpt>
      <trkpt lat="28.5363820" lon="-16.1985170">
        <ele>299.9</ele>
        <time>2020-11-11T07:04:32Z</time>
      </trkpt>
      <trkpt lat="28.5363820" lon="-16.1985170">
        <ele>299.9</ele>
        <time>2020-11-11T07:04:33Z</time>
      </trkpt>
      <trkpt lat="28.5364200" lon="-16.1985700">
        <ele>299.9</ele>
        <time>2020-11-11T07:04:34Z</time>
      </trkpt>
      <trkpt lat="28.5364450" lon="-16.1985970">
        <ele>299.9</ele>
        <time>2020-11-11T07:04:35Z</time>
      </trkpt>
      <trkpt lat="28.5364450" lon="-16.1985970">
        <ele>300.9</ele>
        <time>2020-11-11T07:04:36Z</time>
      </trkpt>
      <trkpt lat="28.5364970" lon="-16.1986430">
        <ele>300.9</ele>
        <time>2020-11-11T07:04:37Z</time>
      </trkpt>
      <trkpt lat="28.5364970" lon="-16.1986430">
        <ele>300.9</ele>
        <time>2020-11-11T07:04:38Z</time>
      </trkpt>
      <trkpt lat="28.5365520" lon="-16.1986720">
        <ele>300.9</ele>
        <time>2020-11-11T07:04:39Z</time>
      </trkpt>
      <trkpt lat="28.5365820" lon="-16.1986820">
        <ele>300.9</ele>
        <time>2020-11-11T07:04:40Z</time>
      </trkpt>
      <trkpt lat="28.5365820" lon="-16.1986820">
        <ele>300.9</ele>
        <time>2020-11-11T07:04:41Z</time>
      </trkpt>
      <trkpt lat="28.5366380" lon="-16.1986830">
        <ele>301.9</ele>
        <time>2020-11-11T07:04:42Z</time>
      </trkpt>
      <trkpt lat="28.5366380" lon="-16.1986830">
        <ele>301.9</ele>
        <time>2020-11-11T07:04:43Z</time>
      </trkpt>
      <trkpt lat="28.5366880" lon="-16.1986480">
        <ele>301.9</ele>
        <time>2020-11-11T07:04:44Z</time>
      </trkpt>
      <trkpt lat="28.5366880" lon="-16.1986480">
        <ele>301.9</ele>
        <time>2020-11-11T07:04:45Z</time>
      </trkpt>
      <trkpt lat="28.5367330" lon="-16.1986030">
        <ele>301.9</ele>
        <time>2020-11-11T07:04:46Z</time>
      </trkpt>
      <trkpt lat="28.5367330" lon="-16.1986030">
        <ele>301.9</ele>
        <time>2020-11-11T07:04:47Z</time>
      </trkpt>
      <trkpt lat="28.5367780" lon="-16.1985670">
        <ele>301.9</ele>
        <time>2020-11-11T07:04:48Z</time>
      </trkpt>
      <trkpt lat="28.5368020" lon="-16.1985520">
        <ele>301.9</ele>
        <time>2020-11-11T07:04:49Z</time>
      </trkpt>
      <trkpt lat="28.5368020" lon="-16.1985520">
        <ele>301.9</ele>
        <time>2020-11-11T07:04:50Z</time>
      </trkpt>
      <trkpt lat="28.5368580" lon="-16.1985330">
        <ele>302.9</ele>
        <time>2020-11-11T07:04:51Z</time>
      </trkpt>
      <trkpt lat="28.5368580" lon="-16.1985330">
        <ele>302.9</ele>
        <time>2020-11-11T07:04:52Z</time>
      </trkpt>
      <trkpt lat="28.5369180" lon="-16.1985180">
        <ele>302.9</ele>
        <time>2020-11-11T07:04:53Z</time>
      </trkpt>
      <trkpt lat="28.5369180" lon="-16.1985180">
        <ele>302.9</ele>
        <time>2020-11-11T07:04:54Z</time>
      </trkpt>
      <trkpt lat="28.5369780" lon="-16.1985220">
        <ele>304.9</ele>
        <time>2020-11-11T07:04:55Z</time>
      </trkpt>
      <trkpt lat="28.5369780" lon="-16.1985220">
        <ele>304.9</ele>
        <time>2020-11-11T07:04:56Z</time>
      </trkpt>
      <trkpt lat="28.5370330" lon="-16.1985430">
        <ele>304.9</ele>
        <time>2020-11-11T07:04:57Z</time>
      </trkpt>
      <trkpt lat="28.5370620" lon="-16.1985530">
        <ele>304.9</ele>
        <time>2020-11-11T07:04:58Z</time>
      </trkpt>
      <trkpt lat="28.5370620" lon="-16.1985530">
        <ele>305.9</ele>
        <time>2020-11-11T07:04:59Z</time>
      </trkpt>
      <trkpt lat="28.5371170" lon="-16.1985720">
        <ele>305.9</ele>
        <time>2020-11-11T07:05:00Z</time>
      </trkpt>
      <trkpt lat="28.5371420" lon="-16.1985850">
        <ele>305.9</ele>
        <time>2020-11-11T07:05:01Z</time>
      </trkpt>
      <trkpt lat="28.5371420" lon="-16.1985850">
        <ele>305.9</ele>
        <time>2020-11-11T07:05:02Z</time>
      </trkpt>
      <trkpt lat="28.5371900" lon="-16.1986120">
        <ele>306.9</ele>
        <time>2020-11-11T07:05:03Z</time>
      </trkpt>
      <trkpt lat="28.5371900" lon="-16.1986120">
        <ele>306.9</ele>
        <time>2020-11-11T07:05:04Z</time>
      </trkpt>
      <trkpt lat="28.5372380" lon="-16.1986430">
        <ele>306.9</ele>
        <time>2020-11-11T07:05:05Z</time>
      </trkpt>
      <trkpt lat="28.5372380" lon="-16.1986430">
        <ele>306.9</ele>
        <time>2020-11-11T07:05:06Z</time>
      </trkpt>
      <trkpt lat="28.5372900" lon="-16.1986800">
        <ele>306.9</ele>
        <time>2020-11-11T07:05:07Z</time>
      </trkpt>
      <trkpt lat="28.5372900" lon="-16.1986800">
        <ele>306.9</ele>
        <time>2020-11-11T07:05:08Z</time>
      </trkpt>
      <trkpt lat="28.5373420" lon="-16.1987150">
        <ele>307.9</ele>
        <time>2020-11-11T07:05:09Z</time>
      </trkpt>
      <trkpt lat="28.5373420" lon="-16.1987150">
        <ele>307.9</ele>
        <time>2020-11-11T07:05:10Z</time>
      </trkpt>
      <trkpt lat="28.5373930" lon="-16.1987470">
        <ele>307.9</ele>
        <time>2020-11-11T07:05:11Z</time>
      </trkpt>
      <trkpt lat="28.5374170" lon="-16.1987600">
        <ele>307.9</ele>
        <time>2020-11-11T07:05:12Z</time>
      </trkpt>
      <trkpt lat="28.5374380" lon="-16.1987750">
        <ele>308.9</ele>
        <time>2020-11-11T07:05:13Z</time>
      </trkpt>
      <trkpt lat="28.5374380" lon="-16.1987750">
        <ele>308.9</ele>
        <time>2020-11-11T07:05:14Z</time>
      </trkpt>
      <trkpt lat="28.5374830" lon="-16.1988080">
        <ele>308.9</ele>
        <time>2020-11-11T07:05:15Z</time>
      </trkpt>
      <trkpt lat="28.5374830" lon="-16.1988080">
        <ele>308.9</ele>
        <time>2020-11-11T07:05:16Z</time>
      </trkpt>
      <trkpt lat="28.5375250" lon="-16.1988370">
        <ele>309.9</ele>
        <time>2020-11-11T07:05:17Z</time>
      </trkpt>
      <trkpt lat="28.5375450" lon="-16.1988520">
        <ele>309.9</ele>
        <time>2020-11-11T07:05:18Z</time>
      </trkpt>
      <trkpt lat="28.5375450" lon="-16.1988520">
        <ele>309.9</ele>
        <time>2020-11-11T07:05:19Z</time>
      </trkpt>
      <trkpt lat="28.5375850" lon="-16.1988820">
        <ele>309.9</ele>
        <time>2020-11-11T07:05:20Z</time>
      </trkpt>
      <trkpt lat="28.5375850" lon="-16.1988820">
        <ele>310.9</ele>
        <time>2020-11-11T07:05:21Z</time>
      </trkpt>
      <trkpt lat="28.5376270" lon="-16.1989100">
        <ele>310.9</ele>
        <time>2020-11-11T07:05:22Z</time>
      </trkpt>
      <trkpt lat="28.5376270" lon="-16.1989100">
        <ele>310.9</ele>
        <time>2020-11-11T07:05:23Z</time>
      </trkpt>
      <trkpt lat="28.5376620" lon="-16.1989450">
        <ele>311.9</ele>
        <time>2020-11-11T07:05:24Z</time>
      </trkpt>
      <trkpt lat="28.5376730" lon="-16.1989680">
        <ele>311.9</ele>
        <time>2020-11-11T07:05:25Z</time>
      </trkpt>
      <trkpt lat="28.5376730" lon="-16.1989680">
        <ele>311.9</ele>
        <time>2020-11-11T07:05:26Z</time>
      </trkpt>
      <trkpt lat="28.5376920" lon="-16.1990130">
        <ele>311.9</ele>
        <time>2020-11-11T07:05:27Z</time>
      </trkpt>
      <trkpt lat="28.5376920" lon="-16.1990130">
        <ele>312.9</ele>
        <time>2020-11-11T07:05:28Z</time>
      </trkpt>
      <trkpt lat="28.5377080" lon="-16.1990630">
        <ele>312.9</ele>
        <time>2020-11-11T07:05:29Z</time>
      </trkpt>
      <trkpt lat="28.5377130" lon="-16.1990900">
        <ele>312.9</ele>
        <time>2020-11-11T07:05:30Z</time>
      </trkpt>
      <trkpt lat="28.5377130" lon="-16.1990900">
        <ele>312.9</ele>
        <time>2020-11-11T07:05:31Z</time>
      </trkpt>
      <trkpt lat="28.5377180" lon="-16.1991420">
        <ele>312.9</ele>
        <time>2020-11-11T07:05:32Z</time>
      </trkpt>
      <trkpt lat="28.5377200" lon="-16.1991680">
        <ele>312.9</ele>
        <time>2020-11-11T07:05:33Z</time>
      </trkpt>
      <trkpt lat="28.5377200" lon="-16.1991680">
        <ele>312.9</ele>
        <time>2020-11-11T07:05:34Z</time>
      </trkpt>
      <trkpt lat="28.5377250" lon="-16.1992200">
        <ele>312.9</ele>
        <time>2020-11-11T07:05:35Z</time>
      </trkpt>
      <trkpt lat="28.5377250" lon="-16.1992200">
        <ele>312.9</ele>
        <time>2020-11-11T07:05:36Z</time>
      </trkpt>
      <trkpt lat="28.5377280" lon="-16.1992730">
        <ele>312.9</ele>
        <time>2020-11-11T07:05:37Z</time>
      </trkpt>
      <trkpt lat="28.5377280" lon="-16.1992730">
        <ele>313.9</ele>
        <time>2020-11-11T07:05:38Z</time>
      </trkpt>
      <trkpt lat="28.5377300" lon="-16.1993270">
        <ele>313.9</ele>
        <time>2020-11-11T07:05:39Z</time>
      </trkpt>
      <trkpt lat="28.5377300" lon="-16.1993270">
        <ele>313.9</ele>
        <time>2020-11-11T07:05:40Z</time>
      </trkpt>
      <trkpt lat="28.5377300" lon="-16.1993830">
        <ele>313.9</ele>
        <time>2020-11-11T07:05:41Z</time>
      </trkpt>
      <trkpt lat="28.5377300" lon="-16.1993830">
        <ele>313.9</ele>
        <time>2020-11-11T07:05:42Z</time>
      </trkpt>
      <trkpt lat="28.5377350" lon="-16.1994400">
        <ele>313.9</ele>
        <time>2020-11-11T07:05:43Z</time>
      </trkpt>
      <trkpt lat="28.5377350" lon="-16.1994400">
        <ele>313.9</ele>
        <time>2020-11-11T07:05:44Z</time>
      </trkpt>
      <trkpt lat="28.5377480" lon="-16.1995000">
        <ele>313.9</ele>
        <time>2020-11-11T07:05:45Z</time>
      </trkpt>
      <trkpt lat="28.5377480" lon="-16.1995000">
        <ele>314.9</ele>
        <time>2020-11-11T07:05:46Z</time>
      </trkpt>
      <trkpt lat="28.5377720" lon="-16.1995570">
        <ele>314.9</ele>
        <time>2020-11-11T07:05:47Z</time>
      </trkpt>
      <trkpt lat="28.5377720" lon="-16.1995570">
        <ele>314.9</ele>
        <time>2020-11-11T07:05:48Z</time>
      </trkpt>
      <trkpt lat="28.5378100" lon="-16.1996050">
        <ele>314.9</ele>
        <time>2020-11-11T07:05:49Z</time>
      </trkpt>
      <trkpt lat="28.5378100" lon="-16.1996050">
        <ele>314.9</ele>
        <time>2020-11-11T07:05:50Z</time>
      </trkpt>
      <trkpt lat="28.5378580" lon="-16.1996400">
        <ele>314.9</ele>
        <time>2020-11-11T07:05:51Z</time>
      </trkpt>
      <trkpt lat="28.5378580" lon="-16.1996400">
        <ele>314.9</ele>
        <time>2020-11-11T07:05:52Z</time>
      </trkpt>
      <trkpt lat="28.5379080" lon="-16.1996630">
        <ele>314.9</ele>
        <time>2020-11-11T07:05:53Z</time>
      </trkpt>
      <trkpt lat="28.5379080" lon="-16.1996630">
        <ele>314.9</ele>
        <time>2020-11-11T07:05:54Z</time>
      </trkpt>
      <trkpt lat="28.5379680" lon="-16.1996670">
        <ele>314.9</ele>
        <time>2020-11-11T07:05:55Z</time>
      </trkpt>
      <trkpt lat="28.5379680" lon="-16.1996670">
        <ele>315.9</ele>
        <time>2020-11-11T07:05:56Z</time>
      </trkpt>
      <trkpt lat="28.5380130" lon="-16.1996530">
        <ele>315.9</ele>
        <time>2020-11-11T07:05:57Z</time>
      </trkpt>
      <trkpt lat="28.5380130" lon="-16.1996530">
        <ele>315.9</ele>
        <time>2020-11-11T07:05:58Z</time>
      </trkpt>
      <trkpt lat="28.5380650" lon="-16.1996420">
        <ele>315.9</ele>
        <time>2020-11-11T07:05:59Z</time>
      </trkpt>
      <trkpt lat="28.5380650" lon="-16.1996420">
        <ele>315.9</ele>
        <time>2020-11-11T07:06:00Z</time>
      </trkpt>
      <trkpt lat="28.5381130" lon="-16.1996230">
        <ele>315.9</ele>
        <time>2020-11-11T07:06:01Z</time>
      </trkpt>
      <trkpt lat="28.5381320" lon="-16.1996000">
        <ele>315.9</ele>
        <time>2020-11-11T07:06:02Z</time>
      </trkpt>
      <trkpt lat="28.5381320" lon="-16.1996000">
        <ele>316.9</ele>
        <time>2020-11-11T07:06:03Z</time>
      </trkpt>
      <trkpt lat="28.5381700" lon="-16.1995620">
        <ele>316.9</ele>
        <time>2020-11-11T07:06:04Z</time>
      </trkpt>
      <trkpt lat="28.5381700" lon="-16.1995620">
        <ele>316.9</ele>
        <time>2020-11-11T07:06:05Z</time>
      </trkpt>
      <trkpt lat="28.5382070" lon="-16.1995280">
        <ele>316.9</ele>
        <time>2020-11-11T07:06:06Z</time>
      </trkpt>
      <trkpt lat="28.5382070" lon="-16.1995280">
        <ele>316.9</ele>
        <time>2020-11-11T07:06:07Z</time>
      </trkpt>
      <trkpt lat="28.5382430" lon="-16.1995020">
        <ele>316.9</ele>
        <time>2020-11-11T07:06:08Z</time>
      </trkpt>
      <trkpt lat="28.5382430" lon="-16.1995020">
        <ele>317.9</ele>
        <time>2020-11-11T07:06:09Z</time>
      </trkpt>
      <trkpt lat="28.5382850" lon="-16.1994750">
        <ele>317.9</ele>
        <time>2020-11-11T07:06:10Z</time>
      </trkpt>
      <trkpt lat="28.5383030" lon="-16.1994620">
        <ele>317.9</ele>
        <time>2020-11-11T07:06:11Z</time>
      </trkpt>
      <trkpt lat="28.5383030" lon="-16.1994620">
        <ele>317.9</ele>
        <time>2020-11-11T07:06:12Z</time>
      </trkpt>
      <trkpt lat="28.5383450" lon="-16.1994330">
        <ele>317.9</ele>
        <time>2020-11-11T07:06:13Z</time>
      </trkpt>
      <trkpt lat="28.5383450" lon="-16.1994330">
        <ele>317.9</ele>
        <time>2020-11-11T07:06:14Z</time>
      </trkpt>
      <trkpt lat="28.5383820" lon="-16.1994100">
        <ele>317.9</ele>
        <time>2020-11-11T07:06:15Z</time>
      </trkpt>
      <trkpt lat="28.5383980" lon="-16.1994050">
        <ele>318.9</ele>
        <time>2020-11-11T07:06:16Z</time>
      </trkpt>
      <trkpt lat="28.5383980" lon="-16.1994050">
        <ele>318.9</ele>
        <time>2020-11-11T07:06:17Z</time>
      </trkpt>
      <trkpt lat="28.5384420" lon="-16.1994000">
        <ele>318.9</ele>
        <time>2020-11-11T07:06:18Z</time>
      </trkpt>
      <trkpt lat="28.5384420" lon="-16.1994000">
        <ele>318.9</ele>
        <time>2020-11-11T07:06:19Z</time>
      </trkpt>
      <trkpt lat="28.5384900" lon="-16.1993980">
        <ele>319.9</ele>
        <time>2020-11-11T07:06:20Z</time>
      </trkpt>
      <trkpt lat="28.5385100" lon="-16.1994030">
        <ele>319.9</ele>
        <time>2020-11-11T07:06:21Z</time>
      </trkpt>
      <trkpt lat="28.5385100" lon="-16.1994030">
        <ele>319.9</ele>
        <time>2020-11-11T07:06:22Z</time>
      </trkpt>
      <trkpt lat="28.5385550" lon="-16.1994130">
        <ele>319.9</ele>
        <time>2020-11-11T07:06:23Z</time>
      </trkpt>
      <trkpt lat="28.5385550" lon="-16.1994130">
        <ele>319.9</ele>
        <time>2020-11-11T07:06:24Z</time>
      </trkpt>
      <trkpt lat="28.5386000" lon="-16.1994280">
        <ele>319.9</ele>
        <time>2020-11-11T07:06:25Z</time>
      </trkpt>
      <trkpt lat="28.5386000" lon="-16.1994280">
        <ele>320.9</ele>
        <time>2020-11-11T07:06:26Z</time>
      </trkpt>
      <trkpt lat="28.5386450" lon="-16.1994470">
        <ele>320.9</ele>
        <time>2020-11-11T07:06:27Z</time>
      </trkpt>
      <trkpt lat="28.5386450" lon="-16.1994470">
        <ele>320.9</ele>
        <time>2020-11-11T07:06:28Z</time>
      </trkpt>
      <trkpt lat="28.5386830" lon="-16.1994750">
        <ele>320.9</ele>
        <time>2020-11-11T07:06:29Z</time>
      </trkpt>
      <trkpt lat="28.5386830" lon="-16.1994750">
        <ele>320.9</ele>
        <time>2020-11-11T07:06:30Z</time>
      </trkpt>
      <trkpt lat="28.5387150" lon="-16.1995100">
        <ele>320.9</ele>
        <time>2020-11-11T07:06:31Z</time>
      </trkpt>
      <trkpt lat="28.5387300" lon="-16.1995300">
        <ele>320.9</ele>
        <time>2020-11-11T07:06:32Z</time>
      </trkpt>
      <trkpt lat="28.5387300" lon="-16.1995300">
        <ele>320.9</ele>
        <time>2020-11-11T07:06:33Z</time>
      </trkpt>
      <trkpt lat="28.5387600" lon="-16.1995720">
        <ele>320.9</ele>
        <time>2020-11-11T07:06:34Z</time>
      </trkpt>
      <trkpt lat="28.5387600" lon="-16.1995720">
        <ele>320.9</ele>
        <time>2020-11-11T07:06:35Z</time>
      </trkpt>
      <trkpt lat="28.5387920" lon="-16.1996120">
        <ele>320.9</ele>
        <time>2020-11-11T07:06:36Z</time>
      </trkpt>
      <trkpt lat="28.5387920" lon="-16.1996120">
        <ele>320.9</ele>
        <time>2020-11-11T07:06:37Z</time>
      </trkpt>
      <trkpt lat="28.5388380" lon="-16.1996450">
        <ele>320.9</ele>
        <time>2020-11-11T07:06:38Z</time>
      </trkpt>
      <trkpt lat="28.5388380" lon="-16.1996450">
        <ele>320.9</ele>
        <time>2020-11-11T07:06:39Z</time>
      </trkpt>
      <trkpt lat="28.5388870" lon="-16.1996670">
        <ele>321.9</ele>
        <time>2020-11-11T07:06:40Z</time>
      </trkpt>
      <trkpt lat="28.5388870" lon="-16.1996670">
        <ele>321.9</ele>
        <time>2020-11-11T07:06:41Z</time>
      </trkpt>
      <trkpt lat="28.5389330" lon="-16.1996900">
        <ele>321.9</ele>
        <time>2020-11-11T07:06:42Z</time>
      </trkpt>
      <trkpt lat="28.5389550" lon="-16.1996970">
        <ele>321.9</ele>
        <time>2020-11-11T07:06:43Z</time>
      </trkpt>
      <trkpt lat="28.5389550" lon="-16.1996970">
        <ele>321.9</ele>
        <time>2020-11-11T07:06:44Z</time>
      </trkpt>
      <trkpt lat="28.5390000" lon="-16.1997080">
        <ele>321.9</ele>
        <time>2020-11-11T07:06:45Z</time>
      </trkpt>
      <trkpt lat="28.5390000" lon="-16.1997080">
        <ele>321.9</ele>
        <time>2020-11-11T07:06:46Z</time>
      </trkpt>
      <trkpt lat="28.5390450" lon="-16.1997070">
        <ele>322.9</ele>
        <time>2020-11-11T07:06:47Z</time>
      </trkpt>
      <trkpt lat="28.5390450" lon="-16.1997070">
        <ele>322.9</ele>
        <time>2020-11-11T07:06:48Z</time>
      </trkpt>
      <trkpt lat="28.5390920" lon="-16.1996950">
        <ele>322.9</ele>
        <time>2020-11-11T07:06:49Z</time>
      </trkpt>
      <trkpt lat="28.5390920" lon="-16.1996950">
        <ele>322.9</ele>
        <time>2020-11-11T07:06:50Z</time>
      </trkpt>
      <trkpt lat="28.5391380" lon="-16.1996850">
        <ele>322.9</ele>
        <time>2020-11-11T07:06:51Z</time>
      </trkpt>
      <trkpt lat="28.5391380" lon="-16.1996850">
        <ele>323.9</ele>
        <time>2020-11-11T07:06:52Z</time>
      </trkpt>
      <trkpt lat="28.5391800" lon="-16.1996650">
        <ele>323.9</ele>
        <time>2020-11-11T07:06:53Z</time>
      </trkpt>
      <trkpt lat="28.5391800" lon="-16.1996650">
        <ele>323.9</ele>
        <time>2020-11-11T07:06:54Z</time>
      </trkpt>
      <trkpt lat="28.5392200" lon="-16.1996380">
        <ele>323.9</ele>
        <time>2020-11-11T07:06:55Z</time>
      </trkpt>
      <trkpt lat="28.5392200" lon="-16.1996380">
        <ele>324.9</ele>
        <time>2020-11-11T07:06:56Z</time>
      </trkpt>
      <trkpt lat="28.5392550" lon="-16.1996100">
        <ele>324.9</ele>
        <time>2020-11-11T07:06:57Z</time>
      </trkpt>
      <trkpt lat="28.5392550" lon="-16.1996100">
        <ele>324.9</ele>
        <time>2020-11-11T07:06:58Z</time>
      </trkpt>
      <trkpt lat="28.5392930" lon="-16.1995770">
        <ele>324.9</ele>
        <time>2020-11-11T07:06:59Z</time>
      </trkpt>
      <trkpt lat="28.5392930" lon="-16.1995770">
        <ele>324.9</ele>
        <time>2020-11-11T07:07:00Z</time>
      </trkpt>
      <trkpt lat="28.5393350" lon="-16.1995580">
        <ele>324.9</ele>
        <time>2020-11-11T07:07:01Z</time>
      </trkpt>
      <trkpt lat="28.5393350" lon="-16.1995580">
        <ele>325.9</ele>
        <time>2020-11-11T07:07:02Z</time>
      </trkpt>
      <trkpt lat="28.5393750" lon="-16.1995380">
        <ele>325.9</ele>
        <time>2020-11-11T07:07:03Z</time>
      </trkpt>
      <trkpt lat="28.5393970" lon="-16.1995280">
        <ele>325.9</ele>
        <time>2020-11-11T07:07:04Z</time>
      </trkpt>
      <trkpt lat="28.5393970" lon="-16.1995280">
        <ele>325.9</ele>
        <time>2020-11-11T07:07:05Z</time>
      </trkpt>
      <trkpt lat="28.5394400" lon="-16.1995120">
        <ele>326.9</ele>
        <time>2020-11-11T07:07:06Z</time>
      </trkpt>
      <trkpt lat="28.5394400" lon="-16.1995120">
        <ele>326.9</ele>
        <time>2020-11-11T07:07:07Z</time>
      </trkpt>
      <trkpt lat="28.5394820" lon="-16.1994980">
        <ele>326.9</ele>
        <time>2020-11-11T07:07:08Z</time>
      </trkpt>
      <trkpt lat="28.5394820" lon="-16.1994980">
        <ele>326.9</ele>
        <time>2020-11-11T07:07:09Z</time>
      </trkpt>
      <trkpt lat="28.5395270" lon="-16.1994920">
        <ele>326.9</ele>
        <time>2020-11-11T07:07:10Z</time>
      </trkpt>
      <trkpt lat="28.5395270" lon="-16.1994920">
        <ele>326.9</ele>
        <time>2020-11-11T07:07:11Z</time>
      </trkpt>
      <trkpt lat="28.5395750" lon="-16.1994900">
        <ele>326.9</ele>
        <time>2020-11-11T07:07:12Z</time>
      </trkpt>
      <trkpt lat="28.5395970" lon="-16.1994930">
        <ele>326.9</ele>
        <time>2020-11-11T07:07:13Z</time>
      </trkpt>
      <trkpt lat="28.5395970" lon="-16.1994930">
        <ele>326.9</ele>
        <time>2020-11-11T07:07:14Z</time>
      </trkpt>
      <trkpt lat="28.5396420" lon="-16.1995030">
        <ele>326.9</ele>
        <time>2020-11-11T07:07:15Z</time>
      </trkpt>
      <trkpt lat="28.5396420" lon="-16.1995030">
        <ele>326.9</ele>
        <time>2020-11-11T07:07:16Z</time>
      </trkpt>
      <trkpt lat="28.5396870" lon="-16.1995070">
        <ele>327.9</ele>
        <time>2020-11-11T07:07:17Z</time>
      </trkpt>
      <trkpt lat="28.5396870" lon="-16.1995070">
        <ele>327.9</ele>
        <time>2020-11-11T07:07:18Z</time>
      </trkpt>
      <trkpt lat="28.5397330" lon="-16.1995080">
        <ele>327.9</ele>
        <time>2020-11-11T07:07:19Z</time>
      </trkpt>
      <trkpt lat="28.5397330" lon="-16.1995080">
        <ele>327.9</ele>
        <time>2020-11-11T07:07:20Z</time>
      </trkpt>
      <trkpt lat="28.5397820" lon="-16.1995080">
        <ele>327.9</ele>
        <time>2020-11-11T07:07:21Z</time>
      </trkpt>
      <trkpt lat="28.5397820" lon="-16.1995080">
        <ele>327.9</ele>
        <time>2020-11-11T07:07:22Z</time>
      </trkpt>
      <trkpt lat="28.5398230" lon="-16.1995130">
        <ele>328.9</ele>
        <time>2020-11-11T07:07:23Z</time>
      </trkpt>
      <trkpt lat="28.5398230" lon="-16.1995130">
        <ele>328.9</ele>
        <time>2020-11-11T07:07:24Z</time>
      </trkpt>
      <trkpt lat="28.5398770" lon="-16.1995220">
        <ele>328.9</ele>
        <time>2020-11-11T07:07:25Z</time>
      </trkpt>
      <trkpt lat="28.5399000" lon="-16.1995230">
        <ele>328.9</ele>
        <time>2020-11-11T07:07:26Z</time>
      </trkpt>
      <trkpt lat="28.5399000" lon="-16.1995230">
        <ele>329.9</ele>
        <time>2020-11-11T07:07:27Z</time>
      </trkpt>
      <trkpt lat="28.5399470" lon="-16.1995280">
        <ele>329.9</ele>
        <time>2020-11-11T07:07:28Z</time>
      </trkpt>
      <trkpt lat="28.5399680" lon="-16.1995300">
        <ele>329.9</ele>
        <time>2020-11-11T07:07:29Z</time>
      </trkpt>
      <trkpt lat="28.5399680" lon="-16.1995300">
        <ele>329.9</ele>
        <time>2020-11-11T07:07:30Z</time>
      </trkpt>
      <trkpt lat="28.5400130" lon="-16.1995400">
        <ele>330.9</ele>
        <time>2020-11-11T07:07:31Z</time>
      </trkpt>
      <trkpt lat="28.5400130" lon="-16.1995400">
        <ele>330.9</ele>
        <time>2020-11-11T07:07:32Z</time>
      </trkpt>
      <trkpt lat="28.5400570" lon="-16.1995530">
        <ele>330.9</ele>
        <time>2020-11-11T07:07:33Z</time>
      </trkpt>
      <trkpt lat="28.5400570" lon="-16.1995530">
        <ele>330.9</ele>
        <time>2020-11-11T07:07:34Z</time>
      </trkpt>
      <trkpt lat="28.5400980" lon="-16.1995680">
        <ele>330.9</ele>
        <time>2020-11-11T07:07:35Z</time>
      </trkpt>
      <trkpt lat="28.5401220" lon="-16.1995720">
        <ele>330.9</ele>
        <time>2020-11-11T07:07:36Z</time>
      </trkpt>
      <trkpt lat="28.5401220" lon="-16.1995720">
        <ele>331.9</ele>
        <time>2020-11-11T07:07:37Z</time>
      </trkpt>
      <trkpt lat="28.5401700" lon="-16.1995780">
        <ele>331.9</ele>
        <time>2020-11-11T07:07:38Z</time>
      </trkpt>
      <trkpt lat="28.5401700" lon="-16.1995780">
        <ele>331.9</ele>
        <time>2020-11-11T07:07:39Z</time>
      </trkpt>
      <trkpt lat="28.5402170" lon="-16.1995880">
        <ele>331.9</ele>
        <time>2020-11-11T07:07:40Z</time>
      </trkpt>
      <trkpt lat="28.5402170" lon="-16.1995880">
        <ele>331.9</ele>
        <time>2020-11-11T07:07:41Z</time>
      </trkpt>
      <trkpt lat="28.5402620" lon="-16.1996050">
        <ele>331.9</ele>
        <time>2020-11-11T07:07:42Z</time>
      </trkpt>
      <trkpt lat="28.5402620" lon="-16.1996050">
        <ele>332.9</ele>
        <time>2020-11-11T07:07:43Z</time>
      </trkpt>
      <trkpt lat="28.5403080" lon="-16.1996230">
        <ele>332.9</ele>
        <time>2020-11-11T07:07:44Z</time>
      </trkpt>
      <trkpt lat="28.5403080" lon="-16.1996230">
        <ele>332.9</ele>
        <time>2020-11-11T07:07:45Z</time>
      </trkpt>
      <trkpt lat="28.5403500" lon="-16.1996450">
        <ele>332.9</ele>
        <time>2020-11-11T07:07:46Z</time>
      </trkpt>
      <trkpt lat="28.5403720" lon="-16.1996570">
        <ele>332.9</ele>
        <time>2020-11-11T07:07:47Z</time>
      </trkpt>
      <trkpt lat="28.5403720" lon="-16.1996570">
        <ele>332.9</ele>
        <time>2020-11-11T07:07:48Z</time>
      </trkpt>
      <trkpt lat="28.5404100" lon="-16.1996780">
        <ele>332.9</ele>
        <time>2020-11-11T07:07:49Z</time>
      </trkpt>
      <trkpt lat="28.5404100" lon="-16.1996780">
        <ele>332.9</ele>
        <time>2020-11-11T07:07:50Z</time>
      </trkpt>
      <trkpt lat="28.5404480" lon="-16.1997070">
        <ele>332.9</ele>
        <time>2020-11-11T07:07:51Z</time>
      </trkpt>
      <trkpt lat="28.5404670" lon="-16.1997220">
        <ele>332.9</ele>
        <time>2020-11-11T07:07:52Z</time>
      </trkpt>
      <trkpt lat="28.5404670" lon="-16.1997220">
        <ele>333.9</ele>
        <time>2020-11-11T07:07:53Z</time>
      </trkpt>
      <trkpt lat="28.5405050" lon="-16.1997570">
        <ele>333.9</ele>
        <time>2020-11-11T07:07:54Z</time>
      </trkpt>
      <trkpt lat="28.5405050" lon="-16.1997570">
        <ele>333.9</ele>
        <time>2020-11-11T07:07:55Z</time>
      </trkpt>
      <trkpt lat="28.5405470" lon="-16.1997930">
        <ele>334.9</ele>
        <time>2020-11-11T07:07:56Z</time>
      </trkpt>
      <trkpt lat="28.5405650" lon="-16.1998080">
        <ele>334.9</ele>
        <time>2020-11-11T07:07:57Z</time>
      </trkpt>
      <trkpt lat="28.5405850" lon="-16.1998220">
        <ele>334.9</ele>
        <time>2020-11-11T07:07:58Z</time>
      </trkpt>
      <trkpt lat="28.5405850" lon="-16.1998220">
        <ele>334.9</ele>
        <time>2020-11-11T07:07:59Z</time>
      </trkpt>
      <trkpt lat="28.5406200" lon="-16.1998650">
        <ele>334.9</ele>
        <time>2020-11-11T07:08:00Z</time>
      </trkpt>
      <trkpt lat="28.5406350" lon="-16.1998880">
        <ele>334.9</ele>
        <time>2020-11-11T07:08:01Z</time>
      </trkpt>
      <trkpt lat="28.5406350" lon="-16.1998880">
        <ele>335.9</ele>
        <time>2020-11-11T07:08:02Z</time>
      </trkpt>
      <trkpt lat="28.5406680" lon="-16.1999250">
        <ele>335.9</ele>
        <time>2020-11-11T07:08:03Z</time>
      </trkpt>
      <trkpt lat="28.5406680" lon="-16.1999250">
        <ele>335.9</ele>
        <time>2020-11-11T07:08:04Z</time>
      </trkpt>
      <trkpt lat="28.5407030" lon="-16.1999580">
        <ele>335.9</ele>
        <time>2020-11-11T07:08:05Z</time>
      </trkpt>
      <trkpt lat="28.5407030" lon="-16.1999580">
        <ele>336.9</ele>
        <time>2020-11-11T07:08:06Z</time>
      </trkpt>
      <trkpt lat="28.5407280" lon="-16.2000030">
        <ele>336.9</ele>
        <time>2020-11-11T07:08:07Z</time>
      </trkpt>
      <trkpt lat="28.5407430" lon="-16.2000250">
        <ele>336.9</ele>
        <time>2020-11-11T07:08:08Z</time>
      </trkpt>
      <trkpt lat="28.5407430" lon="-16.2000250">
        <ele>336.9</ele>
        <time>2020-11-11T07:08:09Z</time>
      </trkpt>
      <trkpt lat="28.5407720" lon="-16.2000680">
        <ele>336.9</ele>
        <time>2020-11-11T07:08:10Z</time>
      </trkpt>
      <trkpt lat="28.5407900" lon="-16.2000900">
        <ele>336.9</ele>
        <time>2020-11-11T07:08:11Z</time>
      </trkpt>
      <trkpt lat="28.5408100" lon="-16.2001080">
        <ele>337.9</ele>
        <time>2020-11-11T07:08:12Z</time>
      </trkpt>
      <trkpt lat="28.5408100" lon="-16.2001080">
        <ele>337.9</ele>
        <time>2020-11-11T07:08:13Z</time>
      </trkpt>
      <trkpt lat="28.5408600" lon="-16.2001400">
        <ele>337.9</ele>
        <time>2020-11-11T07:08:14Z</time>
      </trkpt>
      <trkpt lat="28.5408600" lon="-16.2001400">
        <ele>337.9</ele>
        <time>2020-11-11T07:08:15Z</time>
      </trkpt>
      <trkpt lat="28.5409080" lon="-16.2001720">
        <ele>337.9</ele>
        <time>2020-11-11T07:08:16Z</time>
      </trkpt>
      <trkpt lat="28.5409080" lon="-16.2001720">
        <ele>337.9</ele>
        <time>2020-11-11T07:08:17Z</time>
      </trkpt>
      <trkpt lat="28.5409530" lon="-16.2001970">
        <ele>337.9</ele>
        <time>2020-11-11T07:08:18Z</time>
      </trkpt>
      <trkpt lat="28.5409780" lon="-16.2002080">
        <ele>337.9</ele>
        <time>2020-11-11T07:08:19Z</time>
      </trkpt>
      <trkpt lat="28.5410050" lon="-16.2002170">
        <ele>337.9</ele>
        <time>2020-11-11T07:08:20Z</time>
      </trkpt>
      <trkpt lat="28.5410050" lon="-16.2002170">
        <ele>337.9</ele>
        <time>2020-11-11T07:08:21Z</time>
      </trkpt>
      <trkpt lat="28.5410630" lon="-16.2002230">
        <ele>337.9</ele>
        <time>2020-11-11T07:08:22Z</time>
      </trkpt>
      <trkpt lat="28.5410630" lon="-16.2002230">
        <ele>337.9</ele>
        <time>2020-11-11T07:08:23Z</time>
      </trkpt>
      <trkpt lat="28.5411280" lon="-16.2002230">
        <ele>337.9</ele>
        <time>2020-11-11T07:08:24Z</time>
      </trkpt>
      <trkpt lat="28.5411580" lon="-16.2002220">
        <ele>337.9</ele>
        <time>2020-11-11T07:08:25Z</time>
      </trkpt>
      <trkpt lat="28.5411580" lon="-16.2002220">
        <ele>337.9</ele>
        <time>2020-11-11T07:08:26Z</time>
      </trkpt>
      <trkpt lat="28.5412250" lon="-16.2002100">
        <ele>337.9</ele>
        <time>2020-11-11T07:08:27Z</time>
      </trkpt>
      <trkpt lat="28.5412250" lon="-16.2002100">
        <ele>338.9</ele>
        <time>2020-11-11T07:08:28Z</time>
      </trkpt>
      <trkpt lat="28.5412800" lon="-16.2001830">
        <ele>338.9</ele>
        <time>2020-11-11T07:08:29Z</time>
      </trkpt>
      <trkpt lat="28.5412800" lon="-16.2001830">
        <ele>338.9</ele>
        <time>2020-11-11T07:08:30Z</time>
      </trkpt>
      <trkpt lat="28.5413350" lon="-16.2001500">
        <ele>338.9</ele>
        <time>2020-11-11T07:08:31Z</time>
      </trkpt>
      <trkpt lat="28.5413350" lon="-16.2001500">
        <ele>338.9</ele>
        <time>2020-11-11T07:08:32Z</time>
      </trkpt>
      <trkpt lat="28.5413850" lon="-16.2001080">
        <ele>338.9</ele>
        <time>2020-11-11T07:08:33Z</time>
      </trkpt>
      <trkpt lat="28.5413850" lon="-16.2001080">
        <ele>338.9</ele>
        <time>2020-11-11T07:08:34Z</time>
      </trkpt>
      <trkpt lat="28.5414350" lon="-16.2000600">
        <ele>338.9</ele>
        <time>2020-11-11T07:08:35Z</time>
      </trkpt>
      <trkpt lat="28.5414350" lon="-16.2000600">
        <ele>338.9</ele>
        <time>2020-11-11T07:08:36Z</time>
      </trkpt>
      <trkpt lat="28.5414870" lon="-16.2000030">
        <ele>338.9</ele>
        <time>2020-11-11T07:08:37Z</time>
      </trkpt>
      <trkpt lat="28.5415180" lon="-16.1999800">
        <ele>338.9</ele>
        <time>2020-11-11T07:08:38Z</time>
      </trkpt>
      <trkpt lat="28.5415180" lon="-16.1999800">
        <ele>338.9</ele>
        <time>2020-11-11T07:08:39Z</time>
      </trkpt>
      <trkpt lat="28.5415670" lon="-16.1999150">
        <ele>338.9</ele>
        <time>2020-11-11T07:08:40Z</time>
      </trkpt>
      <trkpt lat="28.5415670" lon="-16.1999150">
        <ele>338.9</ele>
        <time>2020-11-11T07:08:41Z</time>
      </trkpt>
      <trkpt lat="28.5416330" lon="-16.1998630">
        <ele>338.9</ele>
        <time>2020-11-11T07:08:42Z</time>
      </trkpt>
      <trkpt lat="28.5416330" lon="-16.1998630">
        <ele>338.9</ele>
        <time>2020-11-11T07:08:43Z</time>
      </trkpt>
      <trkpt lat="28.5416880" lon="-16.1997800">
        <ele>338.9</ele>
        <time>2020-11-11T07:08:44Z</time>
      </trkpt>
      <trkpt lat="28.5417120" lon="-16.1997220">
        <ele>338.9</ele>
        <time>2020-11-11T07:08:45Z</time>
      </trkpt>
      <trkpt lat="28.5417120" lon="-16.1997220">
        <ele>338.9</ele>
        <time>2020-11-11T07:08:46Z</time>
      </trkpt>
      <trkpt lat="28.5417550" lon="-16.1996270">
        <ele>338.9</ele>
        <time>2020-11-11T07:08:47Z</time>
      </trkpt>
      <trkpt lat="28.5417550" lon="-16.1996270">
        <ele>338.9</ele>
        <time>2020-11-11T07:08:48Z</time>
      </trkpt>
      <trkpt lat="28.5417730" lon="-16.1995370">
        <ele>338.9</ele>
        <time>2020-11-11T07:08:49Z</time>
      </trkpt>
      <trkpt lat="28.5417730" lon="-16.1994880">
        <ele>338.9</ele>
        <time>2020-11-11T07:08:50Z</time>
      </trkpt>
      <trkpt lat="28.5417680" lon="-16.1994430">
        <ele>338.9</ele>
        <time>2020-11-11T07:08:51Z</time>
      </trkpt>
      <trkpt lat="28.5417680" lon="-16.1994430">
        <ele>338.9</ele>
        <time>2020-11-11T07:08:52Z</time>
      </trkpt>
      <trkpt lat="28.5417200" lon="-16.1993670">
        <ele>338.9</ele>
        <time>2020-11-11T07:08:53Z</time>
      </trkpt>
      <trkpt lat="28.5416780" lon="-16.1993330">
        <ele>338.9</ele>
        <time>2020-11-11T07:08:54Z</time>
      </trkpt>
      <trkpt lat="28.5416780" lon="-16.1993330">
        <ele>338.9</ele>
        <time>2020-11-11T07:08:55Z</time>
      </trkpt>
      <trkpt lat="28.5415900" lon="-16.1992800">
        <ele>338.9</ele>
        <time>2020-11-11T07:08:56Z</time>
      </trkpt>
      <trkpt lat="28.5415900" lon="-16.1992800">
        <ele>338.9</ele>
        <time>2020-11-11T07:08:57Z</time>
      </trkpt>
      <trkpt lat="28.5414800" lon="-16.1992500">
        <ele>338.9</ele>
        <time>2020-11-11T07:08:58Z</time>
      </trkpt>
      <trkpt lat="28.5414800" lon="-16.1992500">
        <ele>338.9</ele>
        <time>2020-11-11T07:08:59Z</time>
      </trkpt>
      <trkpt lat="28.5413800" lon="-16.1991980">
        <ele>338.9</ele>
        <time>2020-11-11T07:09:00Z</time>
      </trkpt>
      <trkpt lat="28.5413420" lon="-16.1991600">
        <ele>338.9</ele>
        <time>2020-11-11T07:09:01Z</time>
      </trkpt>
      <trkpt lat="28.5413420" lon="-16.1991600">
        <ele>338.9</ele>
        <time>2020-11-11T07:09:02Z</time>
      </trkpt>
      <trkpt lat="28.5412780" lon="-16.1990600">
        <ele>338.9</ele>
        <time>2020-11-11T07:09:03Z</time>
      </trkpt>
      <trkpt lat="28.5412780" lon="-16.1990600">
        <ele>338.9</ele>
        <time>2020-11-11T07:09:04Z</time>
      </trkpt>
      <trkpt lat="28.5412320" lon="-16.1989480">
        <ele>338.9</ele>
        <time>2020-11-11T07:09:05Z</time>
      </trkpt>
      <trkpt lat="28.5412230" lon="-16.1988900">
        <ele>338.9</ele>
        <time>2020-11-11T07:09:06Z</time>
      </trkpt>
      <trkpt lat="28.5412250" lon="-16.1988300">
        <ele>338.9</ele>
        <time>2020-11-11T07:09:07Z</time>
      </trkpt>
      <trkpt lat="28.5412250" lon="-16.1988300">
        <ele>338.9</ele>
        <time>2020-11-11T07:09:08Z</time>
      </trkpt>
      <trkpt lat="28.5412520" lon="-16.1987200">
        <ele>338.9</ele>
        <time>2020-11-11T07:09:09Z</time>
      </trkpt>
      <trkpt lat="28.5412520" lon="-16.1987200">
        <ele>338.9</ele>
        <time>2020-11-11T07:09:10Z</time>
      </trkpt>
      <trkpt lat="28.5412900" lon="-16.1986270">
        <ele>338.9</ele>
        <time>2020-11-11T07:09:11Z</time>
      </trkpt>
      <trkpt lat="28.5412900" lon="-16.1986270">
        <ele>338.9</ele>
        <time>2020-11-11T07:09:12Z</time>
      </trkpt>
      <trkpt lat="28.5413270" lon="-16.1985420">
        <ele>338.9</ele>
        <time>2020-11-11T07:09:13Z</time>
      </trkpt>
      <trkpt lat="28.5413270" lon="-16.1985420">
        <ele>338.9</ele>
        <time>2020-11-11T07:09:14Z</time>
      </trkpt>
      <trkpt lat="28.5413600" lon="-16.1984630">
        <ele>339.9</ele>
        <time>2020-11-11T07:09:15Z</time>
      </trkpt>
      <trkpt lat="28.5413600" lon="-16.1984630">
        <ele>339.9</ele>
        <time>2020-11-11T07:09:16Z</time>
      </trkpt>
      <trkpt lat="28.5413970" lon="-16.1983950">
        <ele>339.9</ele>
        <time>2020-11-11T07:09:17Z</time>
      </trkpt>
      <trkpt lat="28.5413970" lon="-16.1983950">
        <ele>339.9</ele>
        <time>2020-11-11T07:09:18Z</time>
      </trkpt>
      <trkpt lat="28.5414270" lon="-16.1983300">
        <ele>341.9</ele>
        <time>2020-11-11T07:09:19Z</time>
      </trkpt>
      <trkpt lat="28.5414270" lon="-16.1983300">
        <ele>341.9</ele>
        <time>2020-11-11T07:09:20Z</time>
      </trkpt>
      <trkpt lat="28.5414500" lon="-16.1982650">
        <ele>341.9</ele>
        <time>2020-11-11T07:09:21Z</time>
      </trkpt>
      <trkpt lat="28.5414500" lon="-16.1982650">
        <ele>341.9</ele>
        <time>2020-11-11T07:09:22Z</time>
      </trkpt>
      <trkpt lat="28.5414700" lon="-16.1982050">
        <ele>341.9</ele>
        <time>2020-11-11T07:09:23Z</time>
      </trkpt>
      <trkpt lat="28.5414700" lon="-16.1982050">
        <ele>341.9</ele>
        <time>2020-11-11T07:09:24Z</time>
      </trkpt>
      <trkpt lat="28.5415030" lon="-16.1981550">
        <ele>342.9</ele>
        <time>2020-11-11T07:09:25Z</time>
      </trkpt>
      <trkpt lat="28.5415030" lon="-16.1981550">
        <ele>342.9</ele>
        <time>2020-11-11T07:09:26Z</time>
      </trkpt>
      <trkpt lat="28.5415330" lon="-16.1981030">
        <ele>342.9</ele>
        <time>2020-11-11T07:09:27Z</time>
      </trkpt>
      <trkpt lat="28.5415330" lon="-16.1981030">
        <ele>342.9</ele>
        <time>2020-11-11T07:09:28Z</time>
      </trkpt>
      <trkpt lat="28.5415680" lon="-16.1980530">
        <ele>343.9</ele>
        <time>2020-11-11T07:09:29Z</time>
      </trkpt>
      <trkpt lat="28.5415880" lon="-16.1980280">
        <ele>343.9</ele>
        <time>2020-11-11T07:09:30Z</time>
      </trkpt>
      <trkpt lat="28.5415880" lon="-16.1980280">
        <ele>343.9</ele>
        <time>2020-11-11T07:09:31Z</time>
      </trkpt>
      <trkpt lat="28.5416300" lon="-16.1979820">
        <ele>343.9</ele>
        <time>2020-11-11T07:09:32Z</time>
      </trkpt>
      <trkpt lat="28.5416520" lon="-16.1979600">
        <ele>343.9</ele>
        <time>2020-11-11T07:09:33Z</time>
      </trkpt>
      <trkpt lat="28.5416520" lon="-16.1979600">
        <ele>343.9</ele>
        <time>2020-11-11T07:09:34Z</time>
      </trkpt>
      <trkpt lat="28.5417020" lon="-16.1979150">
        <ele>344.9</ele>
        <time>2020-11-11T07:09:35Z</time>
      </trkpt>
      <trkpt lat="28.5417020" lon="-16.1979150">
        <ele>344.9</ele>
        <time>2020-11-11T07:09:36Z</time>
      </trkpt>
      <trkpt lat="28.5417530" lon="-16.1978770">
        <ele>344.9</ele>
        <time>2020-11-11T07:09:37Z</time>
      </trkpt>
      <trkpt lat="28.5417530" lon="-16.1978770">
        <ele>344.9</ele>
        <time>2020-11-11T07:09:38Z</time>
      </trkpt>
      <trkpt lat="28.5417970" lon="-16.1978400">
        <ele>345.9</ele>
        <time>2020-11-11T07:09:39Z</time>
      </trkpt>
      <trkpt lat="28.5417970" lon="-16.1978400">
        <ele>345.9</ele>
        <time>2020-11-11T07:09:40Z</time>
      </trkpt>
      <trkpt lat="28.5418400" lon="-16.1978070">
        <ele>345.9</ele>
        <time>2020-11-11T07:09:41Z</time>
      </trkpt>
      <trkpt lat="28.5418400" lon="-16.1978070">
        <ele>345.9</ele>
        <time>2020-11-11T07:09:42Z</time>
      </trkpt>
      <trkpt lat="28.5418800" lon="-16.1977820">
        <ele>345.9</ele>
        <time>2020-11-11T07:09:43Z</time>
      </trkpt>
      <trkpt lat="28.5418800" lon="-16.1977820">
        <ele>345.9</ele>
        <time>2020-11-11T07:09:44Z</time>
      </trkpt>
      <trkpt lat="28.5419170" lon="-16.1977600">
        <ele>345.9</ele>
        <time>2020-11-11T07:09:45Z</time>
      </trkpt>
      <trkpt lat="28.5419350" lon="-16.1977480">
        <ele>345.9</ele>
        <time>2020-11-11T07:09:46Z</time>
      </trkpt>
      <trkpt lat="28.5419350" lon="-16.1977480">
        <ele>346.9</ele>
        <time>2020-11-11T07:09:47Z</time>
      </trkpt>
      <trkpt lat="28.5419700" lon="-16.1977350">
        <ele>346.9</ele>
        <time>2020-11-11T07:09:48Z</time>
      </trkpt>
      <trkpt lat="28.5419900" lon="-16.1977250">
        <ele>346.9</ele>
        <time>2020-11-11T07:09:49Z</time>
      </trkpt>
      <trkpt lat="28.5419900" lon="-16.1977250">
        <ele>346.9</ele>
        <time>2020-11-11T07:09:50Z</time>
      </trkpt>
      <trkpt lat="28.5420300" lon="-16.1977030">
        <ele>347.9</ele>
        <time>2020-11-11T07:09:51Z</time>
      </trkpt>
      <trkpt lat="28.5420300" lon="-16.1977030">
        <ele>347.9</ele>
        <time>2020-11-11T07:09:52Z</time>
      </trkpt>
      <trkpt lat="28.5420720" lon="-16.1976880">
        <ele>347.9</ele>
        <time>2020-11-11T07:09:53Z</time>
      </trkpt>
      <trkpt lat="28.5420720" lon="-16.1976880">
        <ele>347.9</ele>
        <time>2020-11-11T07:09:54Z</time>
      </trkpt>
      <trkpt lat="28.5421150" lon="-16.1976700">
        <ele>348.9</ele>
        <time>2020-11-11T07:09:55Z</time>
      </trkpt>
      <trkpt lat="28.5421150" lon="-16.1976700">
        <ele>348.9</ele>
        <time>2020-11-11T07:09:56Z</time>
      </trkpt>
      <trkpt lat="28.5421600" lon="-16.1976500">
        <ele>348.9</ele>
        <time>2020-11-11T07:09:57Z</time>
      </trkpt>
      <trkpt lat="28.5421600" lon="-16.1976500">
        <ele>348.9</ele>
        <time>2020-11-11T07:09:58Z</time>
      </trkpt>
      <trkpt lat="28.5421970" lon="-16.1976230">
        <ele>348.9</ele>
        <time>2020-11-11T07:09:59Z</time>
      </trkpt>
      <trkpt lat="28.5421970" lon="-16.1976230">
        <ele>348.9</ele>
        <time>2020-11-11T07:10:00Z</time>
      </trkpt>
      <trkpt lat="28.5422330" lon="-16.1975880">
        <ele>349.9</ele>
        <time>2020-11-11T07:10:01Z</time>
      </trkpt>
      <trkpt lat="28.5422330" lon="-16.1975880">
        <ele>349.9</ele>
        <time>2020-11-11T07:10:02Z</time>
      </trkpt>
      <trkpt lat="28.5422630" lon="-16.1975500">
        <ele>349.9</ele>
        <time>2020-11-11T07:10:03Z</time>
      </trkpt>
      <trkpt lat="28.5422630" lon="-16.1975500">
        <ele>349.9</ele>
        <time>2020-11-11T07:10:04Z</time>
      </trkpt>
      <trkpt lat="28.5422850" lon="-16.1975070">
        <ele>349.9</ele>
        <time>2020-11-11T07:10:05Z</time>
      </trkpt>
      <trkpt lat="28.5422850" lon="-16.1975070">
        <ele>349.9</ele>
        <time>2020-11-11T07:10:06Z</time>
      </trkpt>
      <trkpt lat="28.5422980" lon="-16.1974600">
        <ele>349.9</ele>
        <time>2020-11-11T07:10:07Z</time>
      </trkpt>
      <trkpt lat="28.5422980" lon="-16.1974600">
        <ele>349.9</ele>
        <time>2020-11-11T07:10:08Z</time>
      </trkpt>
      <trkpt lat="28.5423000" lon="-16.1974100">
        <ele>350.9</ele>
        <time>2020-11-11T07:10:09Z</time>
      </trkpt>
      <trkpt lat="28.5422970" lon="-16.1973850">
        <ele>350.9</ele>
        <time>2020-11-11T07:10:10Z</time>
      </trkpt>
      <trkpt lat="28.5422900" lon="-16.1973620">
        <ele>350.9</ele>
        <time>2020-11-11T07:10:11Z</time>
      </trkpt>
      <trkpt lat="28.5422900" lon="-16.1973620">
        <ele>350.9</ele>
        <time>2020-11-11T07:10:12Z</time>
      </trkpt>
      <trkpt lat="28.5422750" lon="-16.1973120">
        <ele>350.9</ele>
        <time>2020-11-11T07:10:13Z</time>
      </trkpt>
      <trkpt lat="28.5422750" lon="-16.1973120">
        <ele>350.9</ele>
        <time>2020-11-11T07:10:14Z</time>
      </trkpt>
      <trkpt lat="28.5422550" lon="-16.1972670">
        <ele>351.9</ele>
        <time>2020-11-11T07:10:15Z</time>
      </trkpt>
      <trkpt lat="28.5422550" lon="-16.1972670">
        <ele>351.9</ele>
        <time>2020-11-11T07:10:16Z</time>
      </trkpt>
      <trkpt lat="28.5422320" lon="-16.1972220">
        <ele>351.9</ele>
        <time>2020-11-11T07:10:17Z</time>
      </trkpt>
      <trkpt lat="28.5422170" lon="-16.1972000">
        <ele>351.9</ele>
        <time>2020-11-11T07:10:18Z</time>
      </trkpt>
      <trkpt lat="28.5422170" lon="-16.1972000">
        <ele>351.9</ele>
        <time>2020-11-11T07:10:19Z</time>
      </trkpt>
      <trkpt lat="28.5421870" lon="-16.1971630">
        <ele>351.9</ele>
        <time>2020-11-11T07:10:20Z</time>
      </trkpt>
      <trkpt lat="28.5421870" lon="-16.1971630">
        <ele>352.9</ele>
        <time>2020-11-11T07:10:21Z</time>
      </trkpt>
      <trkpt lat="28.5421530" lon="-16.1971330">
        <ele>352.9</ele>
        <time>2020-11-11T07:10:22Z</time>
      </trkpt>
      <trkpt lat="28.5421320" lon="-16.1971220">
        <ele>352.9</ele>
        <time>2020-11-11T07:10:23Z</time>
      </trkpt>
      <trkpt lat="28.5421320" lon="-16.1971220">
        <ele>352.9</ele>
        <time>2020-11-11T07:10:24Z</time>
      </trkpt>
      <trkpt lat="28.5420900" lon="-16.1971050">
        <ele>352.9</ele>
        <time>2020-11-11T07:10:25Z</time>
      </trkpt>
      <trkpt lat="28.5420900" lon="-16.1971050">
        <ele>352.9</ele>
        <time>2020-11-11T07:10:26Z</time>
      </trkpt>
      <trkpt lat="28.5420430" lon="-16.1970920">
        <ele>352.9</ele>
        <time>2020-11-11T07:10:27Z</time>
      </trkpt>
      <trkpt lat="28.5420220" lon="-16.1970870">
        <ele>352.9</ele>
        <time>2020-11-11T07:10:28Z</time>
      </trkpt>
      <trkpt lat="28.5420220" lon="-16.1970870">
        <ele>352.9</ele>
        <time>2020-11-11T07:10:29Z</time>
      </trkpt>
      <trkpt lat="28.5419770" lon="-16.1970680">
        <ele>353.9</ele>
        <time>2020-11-11T07:10:30Z</time>
      </trkpt>
      <trkpt lat="28.5419770" lon="-16.1970680">
        <ele>353.9</ele>
        <time>2020-11-11T07:10:31Z</time>
      </trkpt>
      <trkpt lat="28.5419350" lon="-16.1970430">
        <ele>353.9</ele>
        <time>2020-11-11T07:10:32Z</time>
      </trkpt>
      <trkpt lat="28.5419350" lon="-16.1970430">
        <ele>353.9</ele>
        <time>2020-11-11T07:10:33Z</time>
      </trkpt>
      <trkpt lat="28.5419000" lon="-16.1970030">
        <ele>354.9</ele>
        <time>2020-11-11T07:10:34Z</time>
      </trkpt>
      <trkpt lat="28.5418870" lon="-16.1969830">
        <ele>354.9</ele>
        <time>2020-11-11T07:10:35Z</time>
      </trkpt>
      <trkpt lat="28.5418870" lon="-16.1969830">
        <ele>354.9</ele>
        <time>2020-11-11T07:10:36Z</time>
      </trkpt>
      <trkpt lat="28.5418650" lon="-16.1969370">
        <ele>354.9</ele>
        <time>2020-11-11T07:10:37Z</time>
      </trkpt>
      <trkpt lat="28.5418650" lon="-16.1969370">
        <ele>354.9</ele>
        <time>2020-11-11T07:10:38Z</time>
      </trkpt>
      <trkpt lat="28.5418520" lon="-16.1968850">
        <ele>355.9</ele>
        <time>2020-11-11T07:10:39Z</time>
      </trkpt>
      <trkpt lat="28.5418520" lon="-16.1968850">
        <ele>355.9</ele>
        <time>2020-11-11T07:10:40Z</time>
      </trkpt>
      <trkpt lat="28.5418470" lon="-16.1968330">
        <ele>355.9</ele>
        <time>2020-11-11T07:10:41Z</time>
      </trkpt>
      <trkpt lat="28.5418470" lon="-16.1968330">
        <ele>355.9</ele>
        <time>2020-11-11T07:10:42Z</time>
      </trkpt>
      <trkpt lat="28.5418450" lon="-16.1967820">
        <ele>355.9</ele>
        <time>2020-11-11T07:10:43Z</time>
      </trkpt>
      <trkpt lat="28.5418450" lon="-16.1967820">
        <ele>355.9</ele>
        <time>2020-11-11T07:10:44Z</time>
      </trkpt>
      <trkpt lat="28.5418470" lon="-16.1967280">
        <ele>356.9</ele>
        <time>2020-11-11T07:10:45Z</time>
      </trkpt>
      <trkpt lat="28.5418470" lon="-16.1967280">
        <ele>356.9</ele>
        <time>2020-11-11T07:10:46Z</time>
      </trkpt>
      <trkpt lat="28.5418520" lon="-16.1966730">
        <ele>356.9</ele>
        <time>2020-11-11T07:10:47Z</time>
      </trkpt>
      <trkpt lat="28.5418550" lon="-16.1966480">
        <ele>356.9</ele>
        <time>2020-11-11T07:10:48Z</time>
      </trkpt>
      <trkpt lat="28.5418550" lon="-16.1966480">
        <ele>356.9</ele>
        <time>2020-11-11T07:10:49Z</time>
      </trkpt>
      <trkpt lat="28.5418620" lon="-16.1965970">
        <ele>356.9</ele>
        <time>2020-11-11T07:10:50Z</time>
      </trkpt>
      <trkpt lat="28.5418620" lon="-16.1965970">
        <ele>356.9</ele>
        <time>2020-11-11T07:10:51Z</time>
      </trkpt>
      <trkpt lat="28.5418680" lon="-16.1965450">
        <ele>356.9</ele>
        <time>2020-11-11T07:10:52Z</time>
      </trkpt>
      <trkpt lat="28.5418680" lon="-16.1965450">
        <ele>357.9</ele>
        <time>2020-11-11T07:10:53Z</time>
      </trkpt>
      <trkpt lat="28.5418780" lon="-16.1964900">
        <ele>357.9</ele>
        <time>2020-11-11T07:10:54Z</time>
      </trkpt>
      <trkpt lat="28.5418820" lon="-16.1964650">
        <ele>357.9</ele>
        <time>2020-11-11T07:10:55Z</time>
      </trkpt>
      <trkpt lat="28.5418820" lon="-16.1964650">
        <ele>357.9</ele>
        <time>2020-11-11T07:10:56Z</time>
      </trkpt>
      <trkpt lat="28.5418850" lon="-16.1964100">
        <ele>357.9</ele>
        <time>2020-11-11T07:10:57Z</time>
      </trkpt>
      <trkpt lat="28.5418830" lon="-16.1963830">
        <ele>357.9</ele>
        <time>2020-11-11T07:10:58Z</time>
      </trkpt>
      <trkpt lat="28.5418800" lon="-16.1963530">
        <ele>357.9</ele>
        <time>2020-11-11T07:10:59Z</time>
      </trkpt>
      <trkpt lat="28.5418750" lon="-16.1963250">
        <ele>357.9</ele>
        <time>2020-11-11T07:11:00Z</time>
      </trkpt>
      <trkpt lat="28.5418750" lon="-16.1963250">
        <ele>357.9</ele>
        <time>2020-11-11T07:11:01Z</time>
      </trkpt>
      <trkpt lat="28.5418630" lon="-16.1962720">
        <ele>357.9</ele>
        <time>2020-11-11T07:11:02Z</time>
      </trkpt>
      <trkpt lat="28.5418550" lon="-16.1962450">
        <ele>357.9</ele>
        <time>2020-11-11T07:11:03Z</time>
      </trkpt>
      <trkpt lat="28.5418550" lon="-16.1962450">
        <ele>358.9</ele>
        <time>2020-11-11T07:11:04Z</time>
      </trkpt>
      <trkpt lat="28.5418200" lon="-16.1962020">
        <ele>358.9</ele>
        <time>2020-11-11T07:11:05Z</time>
      </trkpt>
      <trkpt lat="28.5418200" lon="-16.1962020">
        <ele>358.9</ele>
        <time>2020-11-11T07:11:06Z</time>
      </trkpt>
      <trkpt lat="28.5417920" lon="-16.1961650">
        <ele>358.9</ele>
        <time>2020-11-11T07:11:07Z</time>
      </trkpt>
      <trkpt lat="28.5417920" lon="-16.1961650">
        <ele>358.9</ele>
        <time>2020-11-11T07:11:08Z</time>
      </trkpt>
      <trkpt lat="28.5417530" lon="-16.1961400">
        <ele>358.9</ele>
        <time>2020-11-11T07:11:09Z</time>
      </trkpt>
      <trkpt lat="28.5417530" lon="-16.1961400">
        <ele>358.9</ele>
        <time>2020-11-11T07:11:10Z</time>
      </trkpt>
      <trkpt lat="28.5417100" lon="-16.1961280">
        <ele>359.9</ele>
        <time>2020-11-11T07:11:11Z</time>
      </trkpt>
      <trkpt lat="28.5417100" lon="-16.1961280">
        <ele>359.9</ele>
        <time>2020-11-11T07:11:12Z</time>
      </trkpt>
      <trkpt lat="28.5416600" lon="-16.1961220">
        <ele>359.9</ele>
        <time>2020-11-11T07:11:13Z</time>
      </trkpt>
      <trkpt lat="28.5416600" lon="-16.1961220">
        <ele>359.9</ele>
        <time>2020-11-11T07:11:14Z</time>
      </trkpt>
      <trkpt lat="28.5416120" lon="-16.1961230">
        <ele>359.9</ele>
        <time>2020-11-11T07:11:15Z</time>
      </trkpt>
      <trkpt lat="28.5416120" lon="-16.1961230">
        <ele>360.9</ele>
        <time>2020-11-11T07:11:16Z</time>
      </trkpt>
      <trkpt lat="28.5415620" lon="-16.1961350">
        <ele>360.9</ele>
        <time>2020-11-11T07:11:17Z</time>
      </trkpt>
      <trkpt lat="28.5415620" lon="-16.1961350">
        <ele>360.9</ele>
        <time>2020-11-11T07:11:18Z</time>
      </trkpt>
      <trkpt lat="28.5415150" lon="-16.1961430">
        <ele>360.9</ele>
        <time>2020-11-11T07:11:19Z</time>
      </trkpt>
      <trkpt lat="28.5415150" lon="-16.1961430">
        <ele>360.9</ele>
        <time>2020-11-11T07:11:20Z</time>
      </trkpt>
      <trkpt lat="28.5414700" lon="-16.1961580">
        <ele>360.9</ele>
        <time>2020-11-11T07:11:21Z</time>
      </trkpt>
      <trkpt lat="28.5414470" lon="-16.1961650">
        <ele>361.9</ele>
        <time>2020-11-11T07:11:22Z</time>
      </trkpt>
      <trkpt lat="28.5414220" lon="-16.1961700">
        <ele>361.9</ele>
        <time>2020-11-11T07:11:23Z</time>
      </trkpt>
      <trkpt lat="28.5414220" lon="-16.1961700">
        <ele>361.9</ele>
        <time>2020-11-11T07:11:24Z</time>
      </trkpt>
      <trkpt lat="28.5413770" lon="-16.1961820">
        <ele>361.9</ele>
        <time>2020-11-11T07:11:25Z</time>
      </trkpt>
      <trkpt lat="28.5413770" lon="-16.1961820">
        <ele>361.9</ele>
        <time>2020-11-11T07:11:26Z</time>
      </trkpt>
      <trkpt lat="28.5413330" lon="-16.1961900">
        <ele>361.9</ele>
        <time>2020-11-11T07:11:27Z</time>
      </trkpt>
      <trkpt lat="28.5413330" lon="-16.1961900">
        <ele>361.9</ele>
        <time>2020-11-11T07:11:28Z</time>
      </trkpt>
      <trkpt lat="28.5412920" lon="-16.1962000">
        <ele>361.9</ele>
        <time>2020-11-11T07:11:29Z</time>
      </trkpt>
      <trkpt lat="28.5412700" lon="-16.1962070">
        <ele>361.9</ele>
        <time>2020-11-11T07:11:30Z</time>
      </trkpt>
      <trkpt lat="28.5412500" lon="-16.1962120">
        <ele>361.9</ele>
        <time>2020-11-11T07:11:31Z</time>
      </trkpt>
      <trkpt lat="28.5412500" lon="-16.1962120">
        <ele>361.9</ele>
        <time>2020-11-11T07:11:32Z</time>
      </trkpt>
      <trkpt lat="28.5412020" lon="-16.1962230">
        <ele>361.9</ele>
        <time>2020-11-11T07:11:33Z</time>
      </trkpt>
      <trkpt lat="28.5412020" lon="-16.1962230">
        <ele>363.9</ele>
        <time>2020-11-11T07:11:34Z</time>
      </trkpt>
      <trkpt lat="28.5411520" lon="-16.1962300">
        <ele>363.9</ele>
        <time>2020-11-11T07:11:35Z</time>
      </trkpt>
      <trkpt lat="28.5411520" lon="-16.1962300">
        <ele>363.9</ele>
        <time>2020-11-11T07:11:36Z</time>
      </trkpt>
      <trkpt lat="28.5411030" lon="-16.1962350">
        <ele>363.9</ele>
        <time>2020-11-11T07:11:37Z</time>
      </trkpt>
      <trkpt lat="28.5411030" lon="-16.1962350">
        <ele>363.9</ele>
        <time>2020-11-11T07:11:38Z</time>
      </trkpt>
      <trkpt lat="28.5410570" lon="-16.1962500">
        <ele>363.9</ele>
        <time>2020-11-11T07:11:39Z</time>
      </trkpt>
      <trkpt lat="28.5410570" lon="-16.1962500">
        <ele>364.9</ele>
        <time>2020-11-11T07:11:40Z</time>
      </trkpt>
      <trkpt lat="28.5410130" lon="-16.1962600">
        <ele>364.9</ele>
        <time>2020-11-11T07:11:41Z</time>
      </trkpt>
      <trkpt lat="28.5409920" lon="-16.1962670">
        <ele>364.9</ele>
        <time>2020-11-11T07:11:42Z</time>
      </trkpt>
      <trkpt lat="28.5409920" lon="-16.1962670">
        <ele>365.9</ele>
        <time>2020-11-11T07:11:43Z</time>
      </trkpt>
      <trkpt lat="28.5409500" lon="-16.1962800">
        <ele>365.9</ele>
        <time>2020-11-11T07:11:44Z</time>
      </trkpt>
      <trkpt lat="28.5409270" lon="-16.1962830">
        <ele>365.9</ele>
        <time>2020-11-11T07:11:45Z</time>
      </trkpt>
      <trkpt lat="28.5409270" lon="-16.1962830">
        <ele>365.9</ele>
        <time>2020-11-11T07:11:46Z</time>
      </trkpt>
      <trkpt lat="28.5408800" lon="-16.1962820">
        <ele>366.9</ele>
        <time>2020-11-11T07:11:47Z</time>
      </trkpt>
      <trkpt lat="28.5408800" lon="-16.1962820">
        <ele>366.9</ele>
        <time>2020-11-11T07:11:48Z</time>
      </trkpt>
      <trkpt lat="28.5408420" lon="-16.1962680">
        <ele>366.9</ele>
        <time>2020-11-11T07:11:49Z</time>
      </trkpt>
      <trkpt lat="28.5408420" lon="-16.1962680">
        <ele>366.9</ele>
        <time>2020-11-11T07:11:50Z</time>
      </trkpt>
      <trkpt lat="28.5408050" lon="-16.1962550">
        <ele>367.9</ele>
        <time>2020-11-11T07:11:51Z</time>
      </trkpt>
      <trkpt lat="28.5407970" lon="-16.1962520">
        <ele>367.9</ele>
        <time>2020-11-11T07:11:52Z</time>
      </trkpt>
      <trkpt lat="28.5407920" lon="-16.1962500">
        <ele>367.9</ele>
        <time>2020-11-11T07:11:53Z</time>
      </trkpt>
      <trkpt lat="28.5407920" lon="-16.1962500">
        <ele>367.9</ele>
        <time>2020-11-11T07:11:54Z</time>
      </trkpt>
      <trkpt lat="28.5407900" lon="-16.1962520">
        <ele>367.9</ele>
        <time>2020-11-11T07:12:37Z</time>
      </trkpt>
      <trkpt lat="28.5407900" lon="-16.1962520">
        <ele>368.9</ele>
        <time>2020-11-11T07:12:38Z</time>
      </trkpt>
      <trkpt lat="28.5407700" lon="-16.1961950">
        <ele>368.9</ele>
        <time>2020-11-11T07:12:39Z</time>
      </trkpt>
      <trkpt lat="28.5407700" lon="-16.1961950">
        <ele>368.9</ele>
        <time>2020-11-11T07:12:40Z</time>
      </trkpt>
      <trkpt lat="28.5407700" lon="-16.1961470">
        <ele>368.9</ele>
        <time>2020-11-11T07:12:41Z</time>
      </trkpt>
      <trkpt lat="28.5407750" lon="-16.1961220">
        <ele>368.9</ele>
        <time>2020-11-11T07:12:42Z</time>
      </trkpt>
      <trkpt lat="28.5407750" lon="-16.1961220">
        <ele>368.9</ele>
        <time>2020-11-11T07:12:43Z</time>
      </trkpt>
      <trkpt lat="28.5407970" lon="-16.1960750">
        <ele>368.9</ele>
        <time>2020-11-11T07:12:44Z</time>
      </trkpt>
      <trkpt lat="28.5407970" lon="-16.1960750">
        <ele>368.9</ele>
        <time>2020-11-11T07:12:45Z</time>
      </trkpt>
      <trkpt lat="28.5408200" lon="-16.1960270">
        <ele>368.9</ele>
        <time>2020-11-11T07:12:46Z</time>
      </trkpt>
      <trkpt lat="28.5408200" lon="-16.1960270">
        <ele>368.9</ele>
        <time>2020-11-11T07:12:47Z</time>
      </trkpt>
      <trkpt lat="28.5408470" lon="-16.1959900">
        <ele>368.9</ele>
        <time>2020-11-11T07:12:48Z</time>
      </trkpt>
      <trkpt lat="28.5408630" lon="-16.1959780">
        <ele>368.9</ele>
        <time>2020-11-11T07:12:49Z</time>
      </trkpt>
      <trkpt lat="28.5408630" lon="-16.1959780">
        <ele>369.9</ele>
        <time>2020-11-11T07:12:50Z</time>
      </trkpt>
      <trkpt lat="28.5408900" lon="-16.1959450">
        <ele>369.9</ele>
        <time>2020-11-11T07:12:51Z</time>
      </trkpt>
      <trkpt lat="28.5408900" lon="-16.1959450">
        <ele>369.9</ele>
        <time>2020-11-11T07:12:52Z</time>
      </trkpt>
      <trkpt lat="28.5409230" lon="-16.1959180">
        <ele>369.9</ele>
        <time>2020-11-11T07:12:53Z</time>
      </trkpt>
      <trkpt lat="28.5409370" lon="-16.1959030">
        <ele>370.9</ele>
        <time>2020-11-11T07:12:54Z</time>
      </trkpt>
      <trkpt lat="28.5409370" lon="-16.1959030">
        <ele>370.9</ele>
        <time>2020-11-11T07:12:55Z</time>
      </trkpt>
      <trkpt lat="28.5409670" lon="-16.1958770">
        <ele>370.9</ele>
        <time>2020-11-11T07:12:56Z</time>
      </trkpt>
      <trkpt lat="28.5409670" lon="-16.1958770">
        <ele>372.9</ele>
        <time>2020-11-11T07:12:57Z</time>
      </trkpt>
      <trkpt lat="28.5410080" lon="-16.1958630">
        <ele>372.9</ele>
        <time>2020-11-11T07:12:58Z</time>
      </trkpt>
      <trkpt lat="28.5410080" lon="-16.1958630">
        <ele>372.9</ele>
        <time>2020-11-11T07:12:59Z</time>
      </trkpt>
      <trkpt lat="28.5410480" lon="-16.1958500">
        <ele>372.9</ele>
        <time>2020-11-11T07:13:00Z</time>
      </trkpt>
      <trkpt lat="28.5410480" lon="-16.1958500">
        <ele>373.9</ele>
        <time>2020-11-11T07:13:01Z</time>
      </trkpt>
      <trkpt lat="28.5410750" lon="-16.1958370">
        <ele>373.9</ele>
        <time>2020-11-11T07:13:02Z</time>
      </trkpt>
      <trkpt lat="28.5410750" lon="-16.1958370">
        <ele>373.9</ele>
        <time>2020-11-11T07:13:03Z</time>
      </trkpt>
      <trkpt lat="28.5411170" lon="-16.1958300">
        <ele>373.9</ele>
        <time>2020-11-11T07:13:04Z</time>
      </trkpt>
      <trkpt lat="28.5411170" lon="-16.1958300">
        <ele>374.9</ele>
        <time>2020-11-11T07:13:05Z</time>
      </trkpt>
      <trkpt lat="28.5411550" lon="-16.1958200">
        <ele>374.9</ele>
        <time>2020-11-11T07:13:06Z</time>
      </trkpt>
      <trkpt lat="28.5411750" lon="-16.1958170">
        <ele>374.9</ele>
        <time>2020-11-11T07:13:07Z</time>
      </trkpt>
      <trkpt lat="28.5411750" lon="-16.1958170">
        <ele>374.9</ele>
        <time>2020-11-11T07:13:08Z</time>
      </trkpt>
      <trkpt lat="28.5412180" lon="-16.1957970">
        <ele>374.9</ele>
        <time>2020-11-11T07:13:09Z</time>
      </trkpt>
      <trkpt lat="28.5412370" lon="-16.1957850">
        <ele>374.9</ele>
        <time>2020-11-11T07:13:10Z</time>
      </trkpt>
      <trkpt lat="28.5412370" lon="-16.1957850">
        <ele>375.9</ele>
        <time>2020-11-11T07:13:11Z</time>
      </trkpt>
      <trkpt lat="28.5412820" lon="-16.1957680">
        <ele>375.9</ele>
        <time>2020-11-11T07:13:12Z</time>
      </trkpt>
      <trkpt lat="28.5412820" lon="-16.1957680">
        <ele>375.9</ele>
        <time>2020-11-11T07:13:13Z</time>
      </trkpt>
      <trkpt lat="28.5413830" lon="-16.1957800">
        <ele>375.9</ele>
        <time>2020-11-11T07:13:14Z</time>
      </trkpt>
      <trkpt lat="28.5413830" lon="-16.1957800">
        <ele>376.9</ele>
        <time>2020-11-11T07:13:15Z</time>
      </trkpt>
      <trkpt lat="28.5414370" lon="-16.1957730">
        <ele>376.9</ele>
        <time>2020-11-11T07:13:16Z</time>
      </trkpt>
      <trkpt lat="28.5414580" lon="-16.1957600">
        <ele>376.9</ele>
        <time>2020-11-11T07:13:17Z</time>
      </trkpt>
      <trkpt lat="28.5414800" lon="-16.1957470">
        <ele>376.9</ele>
        <time>2020-11-11T07:13:18Z</time>
      </trkpt>
      <trkpt lat="28.5414980" lon="-16.1957330">
        <ele>376.9</ele>
        <time>2020-11-11T07:13:19Z</time>
      </trkpt>
      <trkpt lat="28.5414980" lon="-16.1957330">
        <ele>376.9</ele>
        <time>2020-11-11T07:13:20Z</time>
      </trkpt>
      <trkpt lat="28.5415350" lon="-16.1957200">
        <ele>376.9</ele>
        <time>2020-11-11T07:13:21Z</time>
      </trkpt>
      <trkpt lat="28.5415530" lon="-16.1957180">
        <ele>377.9</ele>
        <time>2020-11-11T07:13:22Z</time>
      </trkpt>
      <trkpt lat="28.5415530" lon="-16.1957180">
        <ele>377.9</ele>
        <time>2020-11-11T07:13:23Z</time>
      </trkpt>
      <trkpt lat="28.5415930" lon="-16.1957050">
        <ele>377.9</ele>
        <time>2020-11-11T07:13:24Z</time>
      </trkpt>
      <trkpt lat="28.5416120" lon="-16.1956970">
        <ele>377.9</ele>
        <time>2020-11-11T07:13:25Z</time>
      </trkpt>
      <trkpt lat="28.5416120" lon="-16.1956970">
        <ele>377.9</ele>
        <time>2020-11-11T07:13:26Z</time>
      </trkpt>
      <trkpt lat="28.5416500" lon="-16.1956850">
        <ele>377.9</ele>
        <time>2020-11-11T07:13:27Z</time>
      </trkpt>
      <trkpt lat="28.5416500" lon="-16.1956850">
        <ele>377.9</ele>
        <time>2020-11-11T07:13:28Z</time>
      </trkpt>
      <trkpt lat="28.5416880" lon="-16.1956670">
        <ele>378.9</ele>
        <time>2020-11-11T07:13:29Z</time>
      </trkpt>
      <trkpt lat="28.5416880" lon="-16.1956670">
        <ele>378.9</ele>
        <time>2020-11-11T07:13:30Z</time>
      </trkpt>
      <trkpt lat="28.5417270" lon="-16.1956470">
        <ele>378.9</ele>
        <time>2020-11-11T07:13:31Z</time>
      </trkpt>
      <trkpt lat="28.5417270" lon="-16.1956470">
        <ele>378.9</ele>
        <time>2020-11-11T07:13:32Z</time>
      </trkpt>
      <trkpt lat="28.5417680" lon="-16.1956370">
        <ele>379.9</ele>
        <time>2020-11-11T07:13:33Z</time>
      </trkpt>
      <trkpt lat="28.5417680" lon="-16.1956370">
        <ele>379.9</ele>
        <time>2020-11-11T07:13:34Z</time>
      </trkpt>
      <trkpt lat="28.5418170" lon="-16.1956270">
        <ele>379.9</ele>
        <time>2020-11-11T07:13:35Z</time>
      </trkpt>
      <trkpt lat="28.5418170" lon="-16.1956270">
        <ele>379.9</ele>
        <time>2020-11-11T07:13:36Z</time>
      </trkpt>
      <trkpt lat="28.5418670" lon="-16.1956170">
        <ele>379.9</ele>
        <time>2020-11-11T07:13:37Z</time>
      </trkpt>
      <trkpt lat="28.5418670" lon="-16.1956170">
        <ele>379.9</ele>
        <time>2020-11-11T07:13:38Z</time>
      </trkpt>
      <trkpt lat="28.5419100" lon="-16.1956050">
        <ele>379.9</ele>
        <time>2020-11-11T07:13:39Z</time>
      </trkpt>
      <trkpt lat="28.5419100" lon="-16.1956050">
        <ele>379.9</ele>
        <time>2020-11-11T07:13:40Z</time>
      </trkpt>
      <trkpt lat="28.5419520" lon="-16.1956020">
        <ele>379.9</ele>
        <time>2020-11-11T07:13:41Z</time>
      </trkpt>
      <trkpt lat="28.5419520" lon="-16.1956020">
        <ele>379.9</ele>
        <time>2020-11-11T07:13:42Z</time>
      </trkpt>
      <trkpt lat="28.5419980" lon="-16.1956070">
        <ele>379.9</ele>
        <time>2020-11-11T07:13:43Z</time>
      </trkpt>
      <trkpt lat="28.5419980" lon="-16.1956070">
        <ele>379.9</ele>
        <time>2020-11-11T07:13:44Z</time>
      </trkpt>
      <trkpt lat="28.5420520" lon="-16.1956130">
        <ele>379.9</ele>
        <time>2020-11-11T07:13:45Z</time>
      </trkpt>
      <trkpt lat="28.5420730" lon="-16.1956130">
        <ele>379.9</ele>
        <time>2020-11-11T07:13:46Z</time>
      </trkpt>
      <trkpt lat="28.5420730" lon="-16.1956130">
        <ele>380.9</ele>
        <time>2020-11-11T07:13:47Z</time>
      </trkpt>
      <trkpt lat="28.5421220" lon="-16.1956170">
        <ele>380.9</ele>
        <time>2020-11-11T07:13:48Z</time>
      </trkpt>
      <trkpt lat="28.5421450" lon="-16.1956220">
        <ele>380.9</ele>
        <time>2020-11-11T07:13:49Z</time>
      </trkpt>
      <trkpt lat="28.5421650" lon="-16.1956280">
        <ele>380.9</ele>
        <time>2020-11-11T07:13:50Z</time>
      </trkpt>
      <trkpt lat="28.5421650" lon="-16.1956280">
        <ele>380.9</ele>
        <time>2020-11-11T07:13:51Z</time>
      </trkpt>
      <trkpt lat="28.5422080" lon="-16.1956380">
        <ele>380.9</ele>
        <time>2020-11-11T07:13:52Z</time>
      </trkpt>
      <trkpt lat="28.5422080" lon="-16.1956380">
        <ele>381.9</ele>
        <time>2020-11-11T07:13:53Z</time>
      </trkpt>
      <trkpt lat="28.5422500" lon="-16.1956480">
        <ele>381.9</ele>
        <time>2020-11-11T07:13:54Z</time>
      </trkpt>
      <trkpt lat="28.5422700" lon="-16.1956500">
        <ele>381.9</ele>
        <time>2020-11-11T07:13:55Z</time>
      </trkpt>
      <trkpt lat="28.5422700" lon="-16.1956500">
        <ele>381.9</ele>
        <time>2020-11-11T07:13:56Z</time>
      </trkpt>
      <trkpt lat="28.5423120" lon="-16.1956500">
        <ele>381.9</ele>
        <time>2020-11-11T07:13:57Z</time>
      </trkpt>
      <trkpt lat="28.5423120" lon="-16.1956500">
        <ele>381.9</ele>
        <time>2020-11-11T07:13:58Z</time>
      </trkpt>
      <trkpt lat="28.5423520" lon="-16.1956500">
        <ele>382.9</ele>
        <time>2020-11-11T07:13:59Z</time>
      </trkpt>
      <trkpt lat="28.5423730" lon="-16.1956520">
        <ele>382.9</ele>
        <time>2020-11-11T07:14:00Z</time>
      </trkpt>
      <trkpt lat="28.5423730" lon="-16.1956520">
        <ele>382.9</ele>
        <time>2020-11-11T07:14:01Z</time>
      </trkpt>
      <trkpt lat="28.5424170" lon="-16.1956450">
        <ele>382.9</ele>
        <time>2020-11-11T07:14:02Z</time>
      </trkpt>
      <trkpt lat="28.5424170" lon="-16.1956450">
        <ele>382.9</ele>
        <time>2020-11-11T07:14:03Z</time>
      </trkpt>
      <trkpt lat="28.5424570" lon="-16.1956280">
        <ele>382.9</ele>
        <time>2020-11-11T07:14:04Z</time>
      </trkpt>
      <trkpt lat="28.5424570" lon="-16.1956280">
        <ele>383.9</ele>
        <time>2020-11-11T07:14:05Z</time>
      </trkpt>
      <trkpt lat="28.5424900" lon="-16.1955980">
        <ele>383.9</ele>
        <time>2020-11-11T07:14:06Z</time>
      </trkpt>
      <trkpt lat="28.5425030" lon="-16.1955780">
        <ele>383.9</ele>
        <time>2020-11-11T07:14:07Z</time>
      </trkpt>
      <trkpt lat="28.5425030" lon="-16.1955780">
        <ele>383.9</ele>
        <time>2020-11-11T07:14:08Z</time>
      </trkpt>
      <trkpt lat="28.5425300" lon="-16.1955330">
        <ele>383.9</ele>
        <time>2020-11-11T07:14:09Z</time>
      </trkpt>
      <trkpt lat="28.5425300" lon="-16.1955330">
        <ele>383.9</ele>
        <time>2020-11-11T07:14:10Z</time>
      </trkpt>
      <trkpt lat="28.5425430" lon="-16.1954830">
        <ele>384.9</ele>
        <time>2020-11-11T07:14:11Z</time>
      </trkpt>
      <trkpt lat="28.5425470" lon="-16.1954570">
        <ele>384.9</ele>
        <time>2020-11-11T07:14:12Z</time>
      </trkpt>
      <trkpt lat="28.5425500" lon="-16.1954320">
        <ele>384.9</ele>
        <time>2020-11-11T07:14:13Z</time>
      </trkpt>
      <trkpt lat="28.5425500" lon="-16.1954320">
        <ele>384.9</ele>
        <time>2020-11-11T07:14:14Z</time>
      </trkpt>
      <trkpt lat="28.5425470" lon="-16.1953770">
        <ele>384.9</ele>
        <time>2020-11-11T07:14:15Z</time>
      </trkpt>
      <trkpt lat="28.5425400" lon="-16.1953500">
        <ele>384.9</ele>
        <time>2020-11-11T07:14:16Z</time>
      </trkpt>
      <trkpt lat="28.5425400" lon="-16.1953500">
        <ele>384.9</ele>
        <time>2020-11-11T07:14:17Z</time>
      </trkpt>
      <trkpt lat="28.5425250" lon="-16.1953030">
        <ele>385.9</ele>
        <time>2020-11-11T07:14:18Z</time>
      </trkpt>
      <trkpt lat="28.5425250" lon="-16.1953030">
        <ele>385.9</ele>
        <time>2020-11-11T07:14:19Z</time>
      </trkpt>
      <trkpt lat="28.5424830" lon="-16.1952750">
        <ele>385.9</ele>
        <time>2020-11-11T07:14:20Z</time>
      </trkpt>
      <trkpt lat="28.5424830" lon="-16.1952750">
        <ele>385.9</ele>
        <time>2020-11-11T07:14:21Z</time>
      </trkpt>
      <trkpt lat="28.5424280" lon="-16.1952670">
        <ele>385.9</ele>
        <time>2020-11-11T07:14:22Z</time>
      </trkpt>
      <trkpt lat="28.5424280" lon="-16.1952670">
        <ele>385.9</ele>
        <time>2020-11-11T07:14:23Z</time>
      </trkpt>
      <trkpt lat="28.5423730" lon="-16.1952670">
        <ele>386.9</ele>
        <time>2020-11-11T07:14:24Z</time>
      </trkpt>
      <trkpt lat="28.5423430" lon="-16.1952750">
        <ele>386.9</ele>
        <time>2020-11-11T07:14:25Z</time>
      </trkpt>
      <trkpt lat="28.5423430" lon="-16.1952750">
        <ele>386.9</ele>
        <time>2020-11-11T07:14:26Z</time>
      </trkpt>
      <trkpt lat="28.5422870" lon="-16.1952880">
        <ele>386.9</ele>
        <time>2020-11-11T07:14:27Z</time>
      </trkpt>
      <trkpt lat="28.5422870" lon="-16.1952880">
        <ele>386.9</ele>
        <time>2020-11-11T07:14:28Z</time>
      </trkpt>
      <trkpt lat="28.5422320" lon="-16.1952980">
        <ele>386.9</ele>
        <time>2020-11-11T07:14:29Z</time>
      </trkpt>
      <trkpt lat="28.5422320" lon="-16.1952980">
        <ele>386.9</ele>
        <time>2020-11-11T07:14:30Z</time>
      </trkpt>
      <trkpt lat="28.5421800" lon="-16.1953130">
        <ele>386.9</ele>
        <time>2020-11-11T07:14:31Z</time>
      </trkpt>
      <trkpt lat="28.5421800" lon="-16.1953130">
        <ele>386.9</ele>
        <time>2020-11-11T07:14:32Z</time>
      </trkpt>
      <trkpt lat="28.5421280" lon="-16.1953270">
        <ele>386.9</ele>
        <time>2020-11-11T07:14:33Z</time>
      </trkpt>
      <trkpt lat="28.5421020" lon="-16.1953300">
        <ele>386.9</ele>
        <time>2020-11-11T07:14:34Z</time>
      </trkpt>
      <trkpt lat="28.5421020" lon="-16.1953300">
        <ele>386.9</ele>
        <time>2020-11-11T07:14:35Z</time>
      </trkpt>
      <trkpt lat="28.5420450" lon="-16.1953250">
        <ele>387.9</ele>
        <time>2020-11-11T07:14:36Z</time>
      </trkpt>
      <trkpt lat="28.5420150" lon="-16.1953200">
        <ele>387.9</ele>
        <time>2020-11-11T07:14:37Z</time>
      </trkpt>
      <trkpt lat="28.5420150" lon="-16.1953200">
        <ele>387.9</ele>
        <time>2020-11-11T07:14:38Z</time>
      </trkpt>
      <trkpt lat="28.5419580" lon="-16.1952930">
        <ele>387.9</ele>
        <time>2020-11-11T07:14:39Z</time>
      </trkpt>
      <trkpt lat="28.5419580" lon="-16.1952930">
        <ele>387.9</ele>
        <time>2020-11-11T07:14:40Z</time>
      </trkpt>
      <trkpt lat="28.5419070" lon="-16.1952570">
        <ele>387.9</ele>
        <time>2020-11-11T07:14:41Z</time>
      </trkpt>
      <trkpt lat="28.5419070" lon="-16.1952570">
        <ele>388.9</ele>
        <time>2020-11-11T07:14:42Z</time>
      </trkpt>
      <trkpt lat="28.5418650" lon="-16.1952150">
        <ele>388.9</ele>
        <time>2020-11-11T07:14:43Z</time>
      </trkpt>
      <trkpt lat="28.5418650" lon="-16.1952150">
        <ele>388.9</ele>
        <time>2020-11-11T07:14:44Z</time>
      </trkpt>
      <trkpt lat="28.5418370" lon="-16.1951650">
        <ele>388.9</ele>
        <time>2020-11-11T07:14:45Z</time>
      </trkpt>
      <trkpt lat="28.5418370" lon="-16.1951650">
        <ele>389.9</ele>
        <time>2020-11-11T07:14:46Z</time>
      </trkpt>
      <trkpt lat="28.5418200" lon="-16.1951020">
        <ele>389.9</ele>
        <time>2020-11-11T07:14:47Z</time>
      </trkpt>
      <trkpt lat="28.5418150" lon="-16.1950700">
        <ele>389.9</ele>
        <time>2020-11-11T07:14:48Z</time>
      </trkpt>
      <trkpt lat="28.5418150" lon="-16.1950700">
        <ele>389.9</ele>
        <time>2020-11-11T07:14:49Z</time>
      </trkpt>
      <trkpt lat="28.5418100" lon="-16.1950050">
        <ele>389.9</ele>
        <time>2020-11-11T07:14:50Z</time>
      </trkpt>
      <trkpt lat="28.5418100" lon="-16.1950050">
        <ele>390.9</ele>
        <time>2020-11-11T07:14:51Z</time>
      </trkpt>
      <trkpt lat="28.5418200" lon="-16.1949450">
        <ele>390.9</ele>
        <time>2020-11-11T07:14:52Z</time>
      </trkpt>
      <trkpt lat="28.5418200" lon="-16.1949450">
        <ele>390.9</ele>
        <time>2020-11-11T07:14:53Z</time>
      </trkpt>
      <trkpt lat="28.5418400" lon="-16.1948850">
        <ele>391.9</ele>
        <time>2020-11-11T07:14:54Z</time>
      </trkpt>
      <trkpt lat="28.5418570" lon="-16.1948570">
        <ele>391.9</ele>
        <time>2020-11-11T07:14:55Z</time>
      </trkpt>
      <trkpt lat="28.5418570" lon="-16.1948570">
        <ele>391.9</ele>
        <time>2020-11-11T07:14:56Z</time>
      </trkpt>
      <trkpt lat="28.5419080" lon="-16.1948120">
        <ele>391.9</ele>
        <time>2020-11-11T07:14:57Z</time>
      </trkpt>
      <trkpt lat="28.5419080" lon="-16.1948120">
        <ele>392.9</ele>
        <time>2020-11-11T07:14:58Z</time>
      </trkpt>
      <trkpt lat="28.5419680" lon="-16.1947820">
        <ele>392.9</ele>
        <time>2020-11-11T07:14:59Z</time>
      </trkpt>
      <trkpt lat="28.5419680" lon="-16.1947820">
        <ele>392.9</ele>
        <time>2020-11-11T07:15:00Z</time>
      </trkpt>
      <trkpt lat="28.5420320" lon="-16.1947680">
        <ele>392.9</ele>
        <time>2020-11-11T07:15:01Z</time>
      </trkpt>
      <trkpt lat="28.5420320" lon="-16.1947680">
        <ele>392.9</ele>
        <time>2020-11-11T07:15:02Z</time>
      </trkpt>
      <trkpt lat="28.5420930" lon="-16.1947800">
        <ele>392.9</ele>
        <time>2020-11-11T07:15:03Z</time>
      </trkpt>
      <trkpt lat="28.5421220" lon="-16.1947920">
        <ele>393.9</ele>
        <time>2020-11-11T07:15:04Z</time>
      </trkpt>
      <trkpt lat="28.5421220" lon="-16.1947920">
        <ele>393.9</ele>
        <time>2020-11-11T07:15:05Z</time>
      </trkpt>
      <trkpt lat="28.5421730" lon="-16.1948100">
        <ele>393.9</ele>
        <time>2020-11-11T07:15:06Z</time>
      </trkpt>
      <trkpt lat="28.5422000" lon="-16.1948220">
        <ele>393.9</ele>
        <time>2020-11-11T07:15:07Z</time>
      </trkpt>
      <trkpt lat="28.5422000" lon="-16.1948220">
        <ele>393.9</ele>
        <time>2020-11-11T07:15:08Z</time>
      </trkpt>
      <trkpt lat="28.5422500" lon="-16.1948470">
        <ele>393.9</ele>
        <time>2020-11-11T07:15:09Z</time>
      </trkpt>
      <trkpt lat="28.5422500" lon="-16.1948470">
        <ele>393.9</ele>
        <time>2020-11-11T07:15:10Z</time>
      </trkpt>
      <trkpt lat="28.5423020" lon="-16.1948700">
        <ele>393.9</ele>
        <time>2020-11-11T07:15:11Z</time>
      </trkpt>
      <trkpt lat="28.5423020" lon="-16.1948700">
        <ele>394.9</ele>
        <time>2020-11-11T07:15:12Z</time>
      </trkpt>
      <trkpt lat="28.5423550" lon="-16.1948830">
        <ele>394.9</ele>
        <time>2020-11-11T07:15:13Z</time>
      </trkpt>
      <trkpt lat="28.5423550" lon="-16.1948830">
        <ele>394.9</ele>
        <time>2020-11-11T07:15:14Z</time>
      </trkpt>
      <trkpt lat="28.5424070" lon="-16.1949050">
        <ele>394.9</ele>
        <time>2020-11-11T07:15:15Z</time>
      </trkpt>
      <trkpt lat="28.5424070" lon="-16.1949050">
        <ele>395.9</ele>
        <time>2020-11-11T07:15:16Z</time>
      </trkpt>
      <trkpt lat="28.5424580" lon="-16.1949320">
        <ele>395.9</ele>
        <time>2020-11-11T07:15:17Z</time>
      </trkpt>
      <trkpt lat="28.5424580" lon="-16.1949320">
        <ele>395.9</ele>
        <time>2020-11-11T07:15:18Z</time>
      </trkpt>
      <trkpt lat="28.5425120" lon="-16.1949550">
        <ele>395.9</ele>
        <time>2020-11-11T07:15:19Z</time>
      </trkpt>
      <trkpt lat="28.5425120" lon="-16.1949550">
        <ele>395.9</ele>
        <time>2020-11-11T07:15:20Z</time>
      </trkpt>
      <trkpt lat="28.5425680" lon="-16.1949700">
        <ele>395.9</ele>
        <time>2020-11-11T07:15:21Z</time>
      </trkpt>
      <trkpt lat="28.5425950" lon="-16.1949780">
        <ele>396.9</ele>
        <time>2020-11-11T07:15:22Z</time>
      </trkpt>
      <trkpt lat="28.5425950" lon="-16.1949780">
        <ele>396.9</ele>
        <time>2020-11-11T07:15:23Z</time>
      </trkpt>
      <trkpt lat="28.5426470" lon="-16.1950020">
        <ele>396.9</ele>
        <time>2020-11-11T07:15:24Z</time>
      </trkpt>
      <trkpt lat="28.5426470" lon="-16.1950020">
        <ele>396.9</ele>
        <time>2020-11-11T07:15:25Z</time>
      </trkpt>
      <trkpt lat="28.5426900" lon="-16.1950280">
        <ele>397.9</ele>
        <time>2020-11-11T07:15:26Z</time>
      </trkpt>
      <trkpt lat="28.5426900" lon="-16.1950280">
        <ele>397.9</ele>
        <time>2020-11-11T07:15:27Z</time>
      </trkpt>
      <trkpt lat="28.5427330" lon="-16.1950500">
        <ele>397.9</ele>
        <time>2020-11-11T07:15:28Z</time>
      </trkpt>
      <trkpt lat="28.5427330" lon="-16.1950500">
        <ele>398.9</ele>
        <time>2020-11-11T07:15:29Z</time>
      </trkpt>
      <trkpt lat="28.5427680" lon="-16.1950800">
        <ele>398.9</ele>
        <time>2020-11-11T07:15:30Z</time>
      </trkpt>
      <trkpt lat="28.5427830" lon="-16.1950950">
        <ele>398.9</ele>
        <time>2020-11-11T07:15:31Z</time>
      </trkpt>
      <trkpt lat="28.5427830" lon="-16.1950950">
        <ele>398.9</ele>
        <time>2020-11-11T07:15:32Z</time>
      </trkpt>
      <trkpt lat="28.5428130" lon="-16.1951200">
        <ele>398.9</ele>
        <time>2020-11-11T07:15:33Z</time>
      </trkpt>
      <trkpt lat="28.5428130" lon="-16.1951200">
        <ele>398.9</ele>
        <time>2020-11-11T07:15:34Z</time>
      </trkpt>
      <trkpt lat="28.5428470" lon="-16.1951420">
        <ele>398.9</ele>
        <time>2020-11-11T07:15:35Z</time>
      </trkpt>
      <trkpt lat="28.5428620" lon="-16.1951570">
        <ele>398.9</ele>
        <time>2020-11-11T07:15:36Z</time>
      </trkpt>
      <trkpt lat="28.5428620" lon="-16.1951570">
        <ele>399.9</ele>
        <time>2020-11-11T07:15:37Z</time>
      </trkpt>
      <trkpt lat="28.5428800" lon="-16.1951870">
        <ele>399.9</ele>
        <time>2020-11-11T07:15:38Z</time>
      </trkpt>
      <trkpt lat="28.5428800" lon="-16.1951870">
        <ele>399.9</ele>
        <time>2020-11-11T07:15:39Z</time>
      </trkpt>
      <trkpt lat="28.5428850" lon="-16.1952120">
        <ele>399.9</ele>
        <time>2020-11-11T07:15:40Z</time>
      </trkpt>
      <trkpt lat="28.5428850" lon="-16.1952120">
        <ele>400.9</ele>
        <time>2020-11-11T07:15:41Z</time>
      </trkpt>
      <trkpt lat="28.5428870" lon="-16.1952130">
        <ele>400.9</ele>
        <time>2020-11-11T07:15:42Z</time>
      </trkpt>
      <trkpt lat="28.5428870" lon="-16.1952130">
        <ele>400.9</ele>
        <time>2020-11-11T07:15:58Z</time>
      </trkpt>
      <trkpt lat="28.5429350" lon="-16.1952550">
        <ele>400.9</ele>
        <time>2020-11-11T07:15:59Z</time>
      </trkpt>
      <trkpt lat="28.5429620" lon="-16.1952750">
        <ele>400.9</ele>
        <time>2020-11-11T07:16:00Z</time>
      </trkpt>
      <trkpt lat="28.5429900" lon="-16.1952920">
        <ele>400.9</ele>
        <time>2020-11-11T07:16:01Z</time>
      </trkpt>
      <trkpt lat="28.5429900" lon="-16.1952920">
        <ele>400.9</ele>
        <time>2020-11-11T07:16:02Z</time>
      </trkpt>
      <trkpt lat="28.5430370" lon="-16.1953320">
        <ele>400.9</ele>
        <time>2020-11-11T07:16:03Z</time>
      </trkpt>
      <trkpt lat="28.5430370" lon="-16.1953320">
        <ele>401.9</ele>
        <time>2020-11-11T07:16:04Z</time>
      </trkpt>
      <trkpt lat="28.5430730" lon="-16.1953830">
        <ele>401.9</ele>
        <time>2020-11-11T07:16:05Z</time>
      </trkpt>
      <trkpt lat="28.5430730" lon="-16.1953830">
        <ele>401.9</ele>
        <time>2020-11-11T07:16:06Z</time>
      </trkpt>
      <trkpt lat="28.5431000" lon="-16.1954330">
        <ele>401.9</ele>
        <time>2020-11-11T07:16:07Z</time>
      </trkpt>
      <trkpt lat="28.5431000" lon="-16.1954330">
        <ele>401.9</ele>
        <time>2020-11-11T07:16:08Z</time>
      </trkpt>
      <trkpt lat="28.5431300" lon="-16.1954830">
        <ele>402.9</ele>
        <time>2020-11-11T07:16:09Z</time>
      </trkpt>
      <trkpt lat="28.5431450" lon="-16.1955120">
        <ele>402.9</ele>
        <time>2020-11-11T07:16:10Z</time>
      </trkpt>
      <trkpt lat="28.5431450" lon="-16.1955120">
        <ele>402.9</ele>
        <time>2020-11-11T07:16:11Z</time>
      </trkpt>
      <trkpt lat="28.5431750" lon="-16.1955620">
        <ele>402.9</ele>
        <time>2020-11-11T07:16:12Z</time>
      </trkpt>
      <trkpt lat="28.5431930" lon="-16.1955900">
        <ele>402.9</ele>
        <time>2020-11-11T07:16:13Z</time>
      </trkpt>
      <trkpt lat="28.5431930" lon="-16.1955900">
        <ele>403.9</ele>
        <time>2020-11-11T07:16:14Z</time>
      </trkpt>
      <trkpt lat="28.5432270" lon="-16.1956370">
        <ele>403.9</ele>
        <time>2020-11-11T07:16:15Z</time>
      </trkpt>
      <trkpt lat="28.5432270" lon="-16.1956370">
        <ele>403.9</ele>
        <time>2020-11-11T07:16:16Z</time>
      </trkpt>
      <trkpt lat="28.5432670" lon="-16.1956850">
        <ele>403.9</ele>
        <time>2020-11-11T07:16:17Z</time>
      </trkpt>
      <trkpt lat="28.5432670" lon="-16.1956850">
        <ele>403.9</ele>
        <time>2020-11-11T07:16:18Z</time>
      </trkpt>
      <trkpt lat="28.5433050" lon="-16.1957370">
        <ele>403.9</ele>
        <time>2020-11-11T07:16:19Z</time>
      </trkpt>
      <trkpt lat="28.5433050" lon="-16.1957370">
        <ele>403.9</ele>
        <time>2020-11-11T07:16:20Z</time>
      </trkpt>
      <trkpt lat="28.5433430" lon="-16.1957880">
        <ele>403.9</ele>
        <time>2020-11-11T07:16:21Z</time>
      </trkpt>
      <trkpt lat="28.5433430" lon="-16.1957880">
        <ele>403.9</ele>
        <time>2020-11-11T07:16:22Z</time>
      </trkpt>
      <trkpt lat="28.5433780" lon="-16.1958470">
        <ele>403.9</ele>
        <time>2020-11-11T07:16:23Z</time>
      </trkpt>
      <trkpt lat="28.5433780" lon="-16.1958470">
        <ele>403.9</ele>
        <time>2020-11-11T07:16:24Z</time>
      </trkpt>
      <trkpt lat="28.5434080" lon="-16.1959130">
        <ele>403.9</ele>
        <time>2020-11-11T07:16:25Z</time>
      </trkpt>
      <trkpt lat="28.5434080" lon="-16.1959130">
        <ele>404.9</ele>
        <time>2020-11-11T07:16:26Z</time>
      </trkpt>
      <trkpt lat="28.5434420" lon="-16.1959720">
        <ele>404.9</ele>
        <time>2020-11-11T07:16:27Z</time>
      </trkpt>
      <trkpt lat="28.5434420" lon="-16.1959720">
        <ele>404.9</ele>
        <time>2020-11-11T07:16:28Z</time>
      </trkpt>
      <trkpt lat="28.5434730" lon="-16.1960320">
        <ele>404.9</ele>
        <time>2020-11-11T07:16:29Z</time>
      </trkpt>
      <trkpt lat="28.5434730" lon="-16.1960320">
        <ele>404.9</ele>
        <time>2020-11-11T07:16:30Z</time>
      </trkpt>
      <trkpt lat="28.5435000" lon="-16.1961020">
        <ele>404.9</ele>
        <time>2020-11-11T07:16:31Z</time>
      </trkpt>
      <trkpt lat="28.5435170" lon="-16.1961330">
        <ele>404.9</ele>
        <time>2020-11-11T07:16:32Z</time>
      </trkpt>
      <trkpt lat="28.5435170" lon="-16.1961330">
        <ele>404.9</ele>
        <time>2020-11-11T07:16:33Z</time>
      </trkpt>
      <trkpt lat="28.5435470" lon="-16.1961950">
        <ele>404.9</ele>
        <time>2020-11-11T07:16:34Z</time>
      </trkpt>
      <trkpt lat="28.5435620" lon="-16.1962220">
        <ele>405.9</ele>
        <time>2020-11-11T07:16:35Z</time>
      </trkpt>
      <trkpt lat="28.5435620" lon="-16.1962220">
        <ele>405.9</ele>
        <time>2020-11-11T07:16:36Z</time>
      </trkpt>
      <trkpt lat="28.5435920" lon="-16.1962730">
        <ele>405.9</ele>
        <time>2020-11-11T07:16:37Z</time>
      </trkpt>
      <trkpt lat="28.5436070" lon="-16.1962980">
        <ele>405.9</ele>
        <time>2020-11-11T07:16:38Z</time>
      </trkpt>
      <trkpt lat="28.5436070" lon="-16.1962980">
        <ele>405.9</ele>
        <time>2020-11-11T07:16:39Z</time>
      </trkpt>
      <trkpt lat="28.5436420" lon="-16.1963500">
        <ele>405.9</ele>
        <time>2020-11-11T07:16:40Z</time>
      </trkpt>
      <trkpt lat="28.5436570" lon="-16.1963720">
        <ele>405.9</ele>
        <time>2020-11-11T07:16:41Z</time>
      </trkpt>
      <trkpt lat="28.5436770" lon="-16.1963920">
        <ele>405.9</ele>
        <time>2020-11-11T07:16:42Z</time>
      </trkpt>
      <trkpt lat="28.5436770" lon="-16.1963920">
        <ele>405.9</ele>
        <time>2020-11-11T07:16:43Z</time>
      </trkpt>
      <trkpt lat="28.5437070" lon="-16.1964480">
        <ele>405.9</ele>
        <time>2020-11-11T07:16:44Z</time>
      </trkpt>
      <trkpt lat="28.5437070" lon="-16.1964480">
        <ele>406.9</ele>
        <time>2020-11-11T07:16:45Z</time>
      </trkpt>
      <trkpt lat="28.5437220" lon="-16.1965120">
        <ele>406.9</ele>
        <time>2020-11-11T07:16:46Z</time>
      </trkpt>
      <trkpt lat="28.5437220" lon="-16.1965120">
        <ele>406.9</ele>
        <time>2020-11-11T07:16:47Z</time>
      </trkpt>
      <trkpt lat="28.5437280" lon="-16.1965750">
        <ele>406.9</ele>
        <time>2020-11-11T07:16:48Z</time>
      </trkpt>
      <trkpt lat="28.5437280" lon="-16.1966070">
        <ele>406.9</ele>
        <time>2020-11-11T07:16:49Z</time>
      </trkpt>
      <trkpt lat="28.5437280" lon="-16.1966070">
        <ele>407.9</ele>
        <time>2020-11-11T07:16:50Z</time>
      </trkpt>
      <trkpt lat="28.5437280" lon="-16.1966720">
        <ele>407.9</ele>
        <time>2020-11-11T07:16:51Z</time>
      </trkpt>
      <trkpt lat="28.5437270" lon="-16.1967050">
        <ele>407.9</ele>
        <time>2020-11-11T07:16:52Z</time>
      </trkpt>
      <trkpt lat="28.5437270" lon="-16.1967050">
        <ele>407.9</ele>
        <time>2020-11-11T07:16:53Z</time>
      </trkpt>
      <trkpt lat="28.5437200" lon="-16.1967700">
        <ele>407.9</ele>
        <time>2020-11-11T07:16:54Z</time>
      </trkpt>
      <trkpt lat="28.5437150" lon="-16.1968030">
        <ele>407.9</ele>
        <time>2020-11-11T07:16:55Z</time>
      </trkpt>
      <trkpt lat="28.5437150" lon="-16.1968030">
        <ele>407.9</ele>
        <time>2020-11-11T07:16:56Z</time>
      </trkpt>
      <trkpt lat="28.5437030" lon="-16.1968630">
        <ele>407.9</ele>
        <time>2020-11-11T07:16:57Z</time>
      </trkpt>
      <trkpt lat="28.5437000" lon="-16.1968930">
        <ele>408.9</ele>
        <time>2020-11-11T07:16:58Z</time>
      </trkpt>
      <trkpt lat="28.5437000" lon="-16.1968930">
        <ele>408.9</ele>
        <time>2020-11-11T07:16:59Z</time>
      </trkpt>
      <trkpt lat="28.5436800" lon="-16.1969550">
        <ele>408.9</ele>
        <time>2020-11-11T07:17:00Z</time>
      </trkpt>
      <trkpt lat="28.5436670" lon="-16.1969870">
        <ele>408.9</ele>
        <time>2020-11-11T07:17:01Z</time>
      </trkpt>
      <trkpt lat="28.5436670" lon="-16.1969870">
        <ele>408.9</ele>
        <time>2020-11-11T07:17:02Z</time>
      </trkpt>
      <trkpt lat="28.5436420" lon="-16.1970450">
        <ele>408.9</ele>
        <time>2020-11-11T07:17:03Z</time>
      </trkpt>
      <trkpt lat="28.5436420" lon="-16.1970450">
        <ele>409.9</ele>
        <time>2020-11-11T07:17:04Z</time>
      </trkpt>
      <trkpt lat="28.5436170" lon="-16.1971100">
        <ele>409.9</ele>
        <time>2020-11-11T07:17:05Z</time>
      </trkpt>
      <trkpt lat="28.5436170" lon="-16.1971100">
        <ele>409.9</ele>
        <time>2020-11-11T07:17:06Z</time>
      </trkpt>
      <trkpt lat="28.5435850" lon="-16.1971620">
        <ele>409.9</ele>
        <time>2020-11-11T07:17:07Z</time>
      </trkpt>
      <trkpt lat="28.5435850" lon="-16.1971620">
        <ele>409.9</ele>
        <time>2020-11-11T07:17:08Z</time>
      </trkpt>
      <trkpt lat="28.5435480" lon="-16.1972100">
        <ele>409.9</ele>
        <time>2020-11-11T07:17:09Z</time>
      </trkpt>
      <trkpt lat="28.5435480" lon="-16.1972100">
        <ele>409.9</ele>
        <time>2020-11-11T07:17:10Z</time>
      </trkpt>
      <trkpt lat="28.5435050" lon="-16.1972470">
        <ele>409.9</ele>
        <time>2020-11-11T07:17:11Z</time>
      </trkpt>
      <trkpt lat="28.5435050" lon="-16.1972470">
        <ele>410.9</ele>
        <time>2020-11-11T07:17:12Z</time>
      </trkpt>
      <trkpt lat="28.5434580" lon="-16.1972830">
        <ele>410.9</ele>
        <time>2020-11-11T07:17:13Z</time>
      </trkpt>
      <trkpt lat="28.5434580" lon="-16.1972830">
        <ele>410.9</ele>
        <time>2020-11-11T07:17:14Z</time>
      </trkpt>
      <trkpt lat="28.5434080" lon="-16.1973150">
        <ele>410.9</ele>
        <time>2020-11-11T07:17:15Z</time>
      </trkpt>
      <trkpt lat="28.5434080" lon="-16.1973150">
        <ele>410.9</ele>
        <time>2020-11-11T07:17:16Z</time>
      </trkpt>
      <trkpt lat="28.5433650" lon="-16.1973500">
        <ele>410.9</ele>
        <time>2020-11-11T07:17:17Z</time>
      </trkpt>
      <trkpt lat="28.5433650" lon="-16.1973500">
        <ele>411.9</ele>
        <time>2020-11-11T07:17:18Z</time>
      </trkpt>
      <trkpt lat="28.5433230" lon="-16.1973880">
        <ele>411.9</ele>
        <time>2020-11-11T07:17:19Z</time>
      </trkpt>
      <trkpt lat="28.5433230" lon="-16.1973880">
        <ele>411.9</ele>
        <time>2020-11-11T07:17:20Z</time>
      </trkpt>
      <trkpt lat="28.5432900" lon="-16.1974300">
        <ele>411.9</ele>
        <time>2020-11-11T07:17:21Z</time>
      </trkpt>
      <trkpt lat="28.5432900" lon="-16.1974300">
        <ele>411.9</ele>
        <time>2020-11-11T07:17:22Z</time>
      </trkpt>
      <trkpt lat="28.5432630" lon="-16.1974820">
        <ele>412.9</ele>
        <time>2020-11-11T07:17:23Z</time>
      </trkpt>
      <trkpt lat="28.5432630" lon="-16.1974820">
        <ele>412.9</ele>
        <time>2020-11-11T07:17:24Z</time>
      </trkpt>
      <trkpt lat="28.5432300" lon="-16.1975280">
        <ele>412.9</ele>
        <time>2020-11-11T07:17:25Z</time>
      </trkpt>
      <trkpt lat="28.5432300" lon="-16.1975280">
        <ele>412.9</ele>
        <time>2020-11-11T07:17:26Z</time>
      </trkpt>
      <trkpt lat="28.5431980" lon="-16.1975670">
        <ele>413.9</ele>
        <time>2020-11-11T07:17:27Z</time>
      </trkpt>
      <trkpt lat="28.5431900" lon="-16.1975920">
        <ele>413.9</ele>
        <time>2020-11-11T07:17:28Z</time>
      </trkpt>
      <trkpt lat="28.5431900" lon="-16.1975920">
        <ele>413.9</ele>
        <time>2020-11-11T07:17:29Z</time>
      </trkpt>
      <trkpt lat="28.5431800" lon="-16.1976420">
        <ele>413.9</ele>
        <time>2020-11-11T07:17:30Z</time>
      </trkpt>
      <trkpt lat="28.5431730" lon="-16.1976670">
        <ele>413.9</ele>
        <time>2020-11-11T07:17:31Z</time>
      </trkpt>
      <trkpt lat="28.5431670" lon="-16.1976900">
        <ele>413.9</ele>
        <time>2020-11-11T07:17:32Z</time>
      </trkpt>
      <trkpt lat="28.5431670" lon="-16.1976900">
        <ele>414.9</ele>
        <time>2020-11-11T07:17:33Z</time>
      </trkpt>
      <trkpt lat="28.5431570" lon="-16.1977380">
        <ele>414.9</ele>
        <time>2020-11-11T07:17:34Z</time>
      </trkpt>
      <trkpt lat="28.5431570" lon="-16.1977380">
        <ele>414.9</ele>
        <time>2020-11-11T07:17:35Z</time>
      </trkpt>
      <trkpt lat="28.5431500" lon="-16.1977930">
        <ele>414.9</ele>
        <time>2020-11-11T07:17:36Z</time>
      </trkpt>
      <trkpt lat="28.5431470" lon="-16.1978200">
        <ele>415.9</ele>
        <time>2020-11-11T07:17:37Z</time>
      </trkpt>
      <trkpt lat="28.5431470" lon="-16.1978200">
        <ele>415.9</ele>
        <time>2020-11-11T07:17:38Z</time>
      </trkpt>
      <trkpt lat="28.5431400" lon="-16.1978730">
        <ele>415.9</ele>
        <time>2020-11-11T07:17:39Z</time>
      </trkpt>
      <trkpt lat="28.5431400" lon="-16.1978730">
        <ele>415.9</ele>
        <time>2020-11-11T07:17:40Z</time>
      </trkpt>
      <trkpt lat="28.5431230" lon="-16.1979270">
        <ele>415.9</ele>
        <time>2020-11-11T07:17:41Z</time>
      </trkpt>
      <trkpt lat="28.5431230" lon="-16.1979270">
        <ele>416.9</ele>
        <time>2020-11-11T07:17:42Z</time>
      </trkpt>
      <trkpt lat="28.5431070" lon="-16.1979770">
        <ele>416.9</ele>
        <time>2020-11-11T07:17:43Z</time>
      </trkpt>
      <trkpt lat="28.5431070" lon="-16.1979770">
        <ele>416.9</ele>
        <time>2020-11-11T07:17:44Z</time>
      </trkpt>
      <trkpt lat="28.5430900" lon="-16.1980280">
        <ele>416.9</ele>
        <time>2020-11-11T07:17:45Z</time>
      </trkpt>
      <trkpt lat="28.5430900" lon="-16.1980280">
        <ele>417.9</ele>
        <time>2020-11-11T07:17:46Z</time>
      </trkpt>
      <trkpt lat="28.5430750" lon="-16.1980800">
        <ele>417.9</ele>
        <time>2020-11-11T07:17:47Z</time>
      </trkpt>
      <trkpt lat="28.5430650" lon="-16.1981050">
        <ele>417.9</ele>
        <time>2020-11-11T07:17:48Z</time>
      </trkpt>
      <trkpt lat="28.5430650" lon="-16.1981050">
        <ele>417.9</ele>
        <time>2020-11-11T07:17:49Z</time>
      </trkpt>
      <trkpt lat="28.5430480" lon="-16.1981570">
        <ele>418.9</ele>
        <time>2020-11-11T07:17:50Z</time>
      </trkpt>
      <trkpt lat="28.5430420" lon="-16.1981820">
        <ele>418.9</ele>
        <time>2020-11-11T07:17:51Z</time>
      </trkpt>
      <trkpt lat="28.5430420" lon="-16.1981820">
        <ele>418.9</ele>
        <time>2020-11-11T07:17:52Z</time>
      </trkpt>
      <trkpt lat="28.5430300" lon="-16.1982350">
        <ele>418.9</ele>
        <time>2020-11-11T07:17:53Z</time>
      </trkpt>
      <trkpt lat="28.5430300" lon="-16.1982350">
        <ele>418.9</ele>
        <time>2020-11-11T07:17:54Z</time>
      </trkpt>
      <trkpt lat="28.5430270" lon="-16.1982900">
        <ele>418.9</ele>
        <time>2020-11-11T07:17:55Z</time>
      </trkpt>
      <trkpt lat="28.5430270" lon="-16.1982900">
        <ele>418.9</ele>
        <time>2020-11-11T07:17:56Z</time>
      </trkpt>
      <trkpt lat="28.5430220" lon="-16.1983450">
        <ele>418.9</ele>
        <time>2020-11-11T07:17:57Z</time>
      </trkpt>
      <trkpt lat="28.5430170" lon="-16.1983700">
        <ele>418.9</ele>
        <time>2020-11-11T07:17:58Z</time>
      </trkpt>
      <trkpt lat="28.5430170" lon="-16.1983700">
        <ele>418.9</ele>
        <time>2020-11-11T07:17:59Z</time>
      </trkpt>
      <trkpt lat="28.5430070" lon="-16.1984220">
        <ele>418.9</ele>
        <time>2020-11-11T07:18:00Z</time>
      </trkpt>
      <trkpt lat="28.5430070" lon="-16.1984220">
        <ele>419.9</ele>
        <time>2020-11-11T07:18:01Z</time>
      </trkpt>
      <trkpt lat="28.5430030" lon="-16.1984730">
        <ele>419.9</ele>
        <time>2020-11-11T07:18:02Z</time>
      </trkpt>
      <trkpt lat="28.5430030" lon="-16.1984730">
        <ele>419.9</ele>
        <time>2020-11-11T07:18:03Z</time>
      </trkpt>
      <trkpt lat="28.5430130" lon="-16.1985250">
        <ele>419.9</ele>
        <time>2020-11-11T07:18:04Z</time>
      </trkpt>
      <trkpt lat="28.5430180" lon="-16.1985500">
        <ele>419.9</ele>
        <time>2020-11-11T07:18:05Z</time>
      </trkpt>
      <trkpt lat="28.5430180" lon="-16.1985500">
        <ele>419.9</ele>
        <time>2020-11-11T07:18:06Z</time>
      </trkpt>
      <trkpt lat="28.5430480" lon="-16.1985920">
        <ele>420.9</ele>
        <time>2020-11-11T07:18:07Z</time>
      </trkpt>
      <trkpt lat="28.5430480" lon="-16.1985920">
        <ele>420.9</ele>
        <time>2020-11-11T07:18:08Z</time>
      </trkpt>
      <trkpt lat="28.5430880" lon="-16.1986250">
        <ele>420.9</ele>
        <time>2020-11-11T07:18:09Z</time>
      </trkpt>
      <trkpt lat="28.5430880" lon="-16.1986250">
        <ele>420.9</ele>
        <time>2020-11-11T07:18:10Z</time>
      </trkpt>
      <trkpt lat="28.5431300" lon="-16.1986430">
        <ele>420.9</ele>
        <time>2020-11-11T07:18:11Z</time>
      </trkpt>
      <trkpt lat="28.5431520" lon="-16.1986400">
        <ele>421.9</ele>
        <time>2020-11-11T07:18:12Z</time>
      </trkpt>
      <trkpt lat="28.5431730" lon="-16.1986350">
        <ele>421.9</ele>
        <time>2020-11-11T07:18:13Z</time>
      </trkpt>
      <trkpt lat="28.5431730" lon="-16.1986350">
        <ele>421.9</ele>
        <time>2020-11-11T07:18:14Z</time>
      </trkpt>
      <trkpt lat="28.5432070" lon="-16.1986030">
        <ele>421.9</ele>
        <time>2020-11-11T07:18:15Z</time>
      </trkpt>
      <trkpt lat="28.5432070" lon="-16.1986030">
        <ele>422.9</ele>
        <time>2020-11-11T07:18:16Z</time>
      </trkpt>
      <trkpt lat="28.5432350" lon="-16.1985570">
        <ele>422.9</ele>
        <time>2020-11-11T07:18:17Z</time>
      </trkpt>
      <trkpt lat="28.5432350" lon="-16.1985570">
        <ele>422.9</ele>
        <time>2020-11-11T07:18:18Z</time>
      </trkpt>
      <trkpt lat="28.5432500" lon="-16.1985070">
        <ele>422.9</ele>
        <time>2020-11-11T07:18:19Z</time>
      </trkpt>
      <trkpt lat="28.5432500" lon="-16.1985070">
        <ele>423.9</ele>
        <time>2020-11-11T07:18:20Z</time>
      </trkpt>
      <trkpt lat="28.5432520" lon="-16.1984530">
        <ele>423.9</ele>
        <time>2020-11-11T07:18:21Z</time>
      </trkpt>
      <trkpt lat="28.5432480" lon="-16.1984230">
        <ele>423.9</ele>
        <time>2020-11-11T07:18:22Z</time>
      </trkpt>
      <trkpt lat="28.5432480" lon="-16.1984230">
        <ele>423.9</ele>
        <time>2020-11-11T07:18:23Z</time>
      </trkpt>
      <trkpt lat="28.5432470" lon="-16.1983750">
        <ele>424.9</ele>
        <time>2020-11-11T07:18:24Z</time>
      </trkpt>
      <trkpt lat="28.5432470" lon="-16.1983520">
        <ele>424.9</ele>
        <time>2020-11-11T07:18:25Z</time>
      </trkpt>
      <trkpt lat="28.5432470" lon="-16.1983520">
        <ele>424.9</ele>
        <time>2020-11-11T07:18:26Z</time>
      </trkpt>
      <trkpt lat="28.5432430" lon="-16.1983030">
        <ele>424.9</ele>
        <time>2020-11-11T07:18:27Z</time>
      </trkpt>
      <trkpt lat="28.5432430" lon="-16.1983030">
        <ele>425.9</ele>
        <time>2020-11-11T07:18:28Z</time>
      </trkpt>
      <trkpt lat="28.5432370" lon="-16.1982480">
        <ele>425.9</ele>
        <time>2020-11-11T07:18:29Z</time>
      </trkpt>
      <trkpt lat="28.5432370" lon="-16.1982480">
        <ele>425.9</ele>
        <time>2020-11-11T07:18:30Z</time>
      </trkpt>
      <trkpt lat="28.5432470" lon="-16.1982000">
        <ele>425.9</ele>
        <time>2020-11-11T07:18:31Z</time>
      </trkpt>
      <trkpt lat="28.5432500" lon="-16.1981730">
        <ele>425.9</ele>
        <time>2020-11-11T07:18:32Z</time>
      </trkpt>
      <trkpt lat="28.5432500" lon="-16.1981730">
        <ele>425.9</ele>
        <time>2020-11-11T07:18:33Z</time>
      </trkpt>
      <trkpt lat="28.5432600" lon="-16.1981170">
        <ele>426.9</ele>
        <time>2020-11-11T07:18:34Z</time>
      </trkpt>
      <trkpt lat="28.5432600" lon="-16.1981170">
        <ele>426.9</ele>
        <time>2020-11-11T07:18:35Z</time>
      </trkpt>
      <trkpt lat="28.5432670" lon="-16.1980680">
        <ele>426.9</ele>
        <time>2020-11-11T07:18:36Z</time>
      </trkpt>
      <trkpt lat="28.5432630" lon="-16.1980550">
        <ele>426.9</ele>
        <time>2020-11-11T07:18:37Z</time>
      </trkpt>
      <trkpt lat="28.5432630" lon="-16.1980550">
        <ele>426.9</ele>
        <time>2020-11-11T07:18:38Z</time>
      </trkpt>
      <trkpt lat="28.5432600" lon="-16.1980550">
        <ele>426.9</ele>
        <time>2020-11-11T07:18:39Z</time>
      </trkpt>
      <trkpt lat="28.5432600" lon="-16.1980550">
        <ele>426.9</ele>
        <time>2020-11-11T07:18:40Z</time>
      </trkpt>
      <trkpt lat="28.5432600" lon="-16.1980550">
        <ele>426.9</ele>
        <time>2020-11-11T07:19:38Z</time>
      </trkpt>
      <trkpt lat="28.5432820" lon="-16.1980100">
        <ele>426.9</ele>
        <time>2020-11-11T07:19:39Z</time>
      </trkpt>
      <trkpt lat="28.5432820" lon="-16.1980100">
        <ele>426.9</ele>
        <time>2020-11-11T07:19:40Z</time>
      </trkpt>
      <trkpt lat="28.5432980" lon="-16.1979670">
        <ele>426.9</ele>
        <time>2020-11-11T07:19:41Z</time>
      </trkpt>
      <trkpt lat="28.5432980" lon="-16.1979670">
        <ele>426.9</ele>
        <time>2020-11-11T07:19:42Z</time>
      </trkpt>
      <trkpt lat="28.5433230" lon="-16.1979230">
        <ele>427.9</ele>
        <time>2020-11-11T07:19:43Z</time>
      </trkpt>
      <trkpt lat="28.5433230" lon="-16.1979230">
        <ele>427.9</ele>
        <time>2020-11-11T07:19:44Z</time>
      </trkpt>
      <trkpt lat="28.5433520" lon="-16.1978850">
        <ele>427.9</ele>
        <time>2020-11-11T07:19:45Z</time>
      </trkpt>
      <trkpt lat="28.5433520" lon="-16.1978850">
        <ele>427.9</ele>
        <time>2020-11-11T07:19:46Z</time>
      </trkpt>
      <trkpt lat="28.5433800" lon="-16.1978470">
        <ele>427.9</ele>
        <time>2020-11-11T07:19:47Z</time>
      </trkpt>
      <trkpt lat="28.5433800" lon="-16.1978470">
        <ele>427.9</ele>
        <time>2020-11-11T07:19:48Z</time>
      </trkpt>
      <trkpt lat="28.5434070" lon="-16.1978030">
        <ele>427.9</ele>
        <time>2020-11-11T07:19:49Z</time>
      </trkpt>
      <trkpt lat="28.5434070" lon="-16.1978030">
        <ele>427.9</ele>
        <time>2020-11-11T07:19:50Z</time>
      </trkpt>
      <trkpt lat="28.5434320" lon="-16.1977600">
        <ele>427.9</ele>
        <time>2020-11-11T07:19:51Z</time>
      </trkpt>
      <trkpt lat="28.5434320" lon="-16.1977600">
        <ele>427.9</ele>
        <time>2020-11-11T07:19:52Z</time>
      </trkpt>
      <trkpt lat="28.5434620" lon="-16.1977220">
        <ele>428.9</ele>
        <time>2020-11-11T07:19:53Z</time>
      </trkpt>
      <trkpt lat="28.5434620" lon="-16.1977220">
        <ele>428.9</ele>
        <time>2020-11-11T07:19:54Z</time>
      </trkpt>
      <trkpt lat="28.5434900" lon="-16.1976800">
        <ele>428.9</ele>
        <time>2020-11-11T07:19:55Z</time>
      </trkpt>
      <trkpt lat="28.5434900" lon="-16.1976800">
        <ele>428.9</ele>
        <time>2020-11-11T07:19:56Z</time>
      </trkpt>
      <trkpt lat="28.5435180" lon="-16.1976400">
        <ele>428.9</ele>
        <time>2020-11-11T07:19:57Z</time>
      </trkpt>
      <trkpt lat="28.5435180" lon="-16.1976400">
        <ele>429.9</ele>
        <time>2020-11-11T07:19:58Z</time>
      </trkpt>
      <trkpt lat="28.5435480" lon="-16.1975980">
        <ele>429.9</ele>
        <time>2020-11-11T07:19:59Z</time>
      </trkpt>
      <trkpt lat="28.5435480" lon="-16.1975980">
        <ele>429.9</ele>
        <time>2020-11-11T07:20:00Z</time>
      </trkpt>
      <trkpt lat="28.5435770" lon="-16.1975570">
        <ele>429.9</ele>
        <time>2020-11-11T07:20:01Z</time>
      </trkpt>
      <trkpt lat="28.5435770" lon="-16.1975570">
        <ele>429.9</ele>
        <time>2020-11-11T07:20:02Z</time>
      </trkpt>
      <trkpt lat="28.5436080" lon="-16.1975150">
        <ele>429.9</ele>
        <time>2020-11-11T07:20:03Z</time>
      </trkpt>
      <trkpt lat="28.5436080" lon="-16.1975150">
        <ele>429.9</ele>
        <time>2020-11-11T07:20:04Z</time>
      </trkpt>
      <trkpt lat="28.5436380" lon="-16.1974820">
        <ele>429.9</ele>
        <time>2020-11-11T07:20:05Z</time>
      </trkpt>
      <trkpt lat="28.5436380" lon="-16.1974820">
        <ele>429.9</ele>
        <time>2020-11-11T07:20:06Z</time>
      </trkpt>
      <trkpt lat="28.5436550" lon="-16.1974550">
        <ele>429.9</ele>
        <time>2020-11-11T07:20:07Z</time>
      </trkpt>
      <trkpt lat="28.5436550" lon="-16.1974550">
        <ele>429.9</ele>
        <time>2020-11-11T07:20:08Z</time>
      </trkpt>
      <trkpt lat="28.5436750" lon="-16.1974130">
        <ele>430.9</ele>
        <time>2020-11-11T07:20:09Z</time>
      </trkpt>
      <trkpt lat="28.5436750" lon="-16.1974130">
        <ele>430.9</ele>
        <time>2020-11-11T07:20:10Z</time>
      </trkpt>
      <trkpt lat="28.5436970" lon="-16.1973720">
        <ele>430.9</ele>
        <time>2020-11-11T07:20:11Z</time>
      </trkpt>
      <trkpt lat="28.5436970" lon="-16.1973720">
        <ele>430.9</ele>
        <time>2020-11-11T07:20:12Z</time>
      </trkpt>
      <trkpt lat="28.5437230" lon="-16.1973330">
        <ele>430.9</ele>
        <time>2020-11-11T07:20:13Z</time>
      </trkpt>
      <trkpt lat="28.5437230" lon="-16.1973330">
        <ele>430.9</ele>
        <time>2020-11-11T07:20:14Z</time>
      </trkpt>
      <trkpt lat="28.5437500" lon="-16.1972930">
        <ele>432.9</ele>
        <time>2020-11-11T07:20:15Z</time>
      </trkpt>
      <trkpt lat="28.5437650" lon="-16.1972730">
        <ele>432.9</ele>
        <time>2020-11-11T07:20:16Z</time>
      </trkpt>
      <trkpt lat="28.5437650" lon="-16.1972730">
        <ele>432.9</ele>
        <time>2020-11-11T07:20:17Z</time>
      </trkpt>
      <trkpt lat="28.5437900" lon="-16.1972320">
        <ele>432.9</ele>
        <time>2020-11-11T07:20:18Z</time>
      </trkpt>
      <trkpt lat="28.5437900" lon="-16.1972320">
        <ele>432.9</ele>
        <time>2020-11-11T07:20:19Z</time>
      </trkpt>
      <trkpt lat="28.5438180" lon="-16.1971950">
        <ele>433.9</ele>
        <time>2020-11-11T07:20:20Z</time>
      </trkpt>
      <trkpt lat="28.5438330" lon="-16.1971770">
        <ele>433.9</ele>
        <time>2020-11-11T07:20:21Z</time>
      </trkpt>
      <trkpt lat="28.5438330" lon="-16.1971770">
        <ele>433.9</ele>
        <time>2020-11-11T07:20:22Z</time>
      </trkpt>
      <trkpt lat="28.5438670" lon="-16.1971470">
        <ele>433.9</ele>
        <time>2020-11-11T07:20:23Z</time>
      </trkpt>
      <trkpt lat="28.5438670" lon="-16.1971470">
        <ele>434.9</ele>
        <time>2020-11-11T07:20:24Z</time>
      </trkpt>
      <trkpt lat="28.5439000" lon="-16.1971130">
        <ele>434.9</ele>
        <time>2020-11-11T07:20:25Z</time>
      </trkpt>
      <trkpt lat="28.5439000" lon="-16.1971130">
        <ele>434.9</ele>
        <time>2020-11-11T07:20:26Z</time>
      </trkpt>
      <trkpt lat="28.5439330" lon="-16.1970800">
        <ele>434.9</ele>
        <time>2020-11-11T07:20:27Z</time>
      </trkpt>
      <trkpt lat="28.5439330" lon="-16.1970800">
        <ele>435.9</ele>
        <time>2020-11-11T07:20:28Z</time>
      </trkpt>
      <trkpt lat="28.5439700" lon="-16.1970620">
        <ele>435.9</ele>
        <time>2020-11-11T07:20:29Z</time>
      </trkpt>
      <trkpt lat="28.5439920" lon="-16.1970530">
        <ele>435.9</ele>
        <time>2020-11-11T07:20:30Z</time>
      </trkpt>
      <trkpt lat="28.5440130" lon="-16.1970470">
        <ele>435.9</ele>
        <time>2020-11-11T07:20:31Z</time>
      </trkpt>
      <trkpt lat="28.5440130" lon="-16.1970470">
        <ele>436.9</ele>
        <time>2020-11-11T07:20:32Z</time>
      </trkpt>
      <trkpt lat="28.5440550" lon="-16.1970420">
        <ele>436.9</ele>
        <time>2020-11-11T07:20:33Z</time>
      </trkpt>
      <trkpt lat="28.5440550" lon="-16.1970420">
        <ele>436.9</ele>
        <time>2020-11-11T07:20:34Z</time>
      </trkpt>
      <trkpt lat="28.5440980" lon="-16.1970370">
        <ele>437.9</ele>
        <time>2020-11-11T07:20:35Z</time>
      </trkpt>
      <trkpt lat="28.5441200" lon="-16.1970350">
        <ele>437.9</ele>
        <time>2020-11-11T07:20:36Z</time>
      </trkpt>
      <trkpt lat="28.5441430" lon="-16.1970350">
        <ele>437.9</ele>
        <time>2020-11-11T07:20:37Z</time>
      </trkpt>
      <trkpt lat="28.5441430" lon="-16.1970350">
        <ele>437.9</ele>
        <time>2020-11-11T07:20:38Z</time>
      </trkpt>
      <trkpt lat="28.5441900" lon="-16.1970380">
        <ele>437.9</ele>
        <time>2020-11-11T07:20:39Z</time>
      </trkpt>
      <trkpt lat="28.5442120" lon="-16.1970430">
        <ele>438.9</ele>
        <time>2020-11-11T07:20:40Z</time>
      </trkpt>
      <trkpt lat="28.5442120" lon="-16.1970430">
        <ele>438.9</ele>
        <time>2020-11-11T07:20:41Z</time>
      </trkpt>
      <trkpt lat="28.5442570" lon="-16.1970470">
        <ele>438.9</ele>
        <time>2020-11-11T07:20:42Z</time>
      </trkpt>
      <trkpt lat="28.5442570" lon="-16.1970470">
        <ele>438.9</ele>
        <time>2020-11-11T07:20:43Z</time>
      </trkpt>
      <trkpt lat="28.5443020" lon="-16.1970530">
        <ele>438.9</ele>
        <time>2020-11-11T07:20:44Z</time>
      </trkpt>
      <trkpt lat="28.5443270" lon="-16.1970570">
        <ele>438.9</ele>
        <time>2020-11-11T07:20:45Z</time>
      </trkpt>
      <trkpt lat="28.5443270" lon="-16.1970570">
        <ele>438.9</ele>
        <time>2020-11-11T07:20:46Z</time>
      </trkpt>
      <trkpt lat="28.5443720" lon="-16.1970650">
        <ele>438.9</ele>
        <time>2020-11-11T07:20:47Z</time>
      </trkpt>
      <trkpt lat="28.5443950" lon="-16.1970670">
        <ele>438.9</ele>
        <time>2020-11-11T07:20:48Z</time>
      </trkpt>
      <trkpt lat="28.5443950" lon="-16.1970670">
        <ele>438.9</ele>
        <time>2020-11-11T07:20:49Z</time>
      </trkpt>
      <trkpt lat="28.5444430" lon="-16.1970630">
        <ele>439.9</ele>
        <time>2020-11-11T07:20:50Z</time>
      </trkpt>
      <trkpt lat="28.5444650" lon="-16.1970570">
        <ele>439.9</ele>
        <time>2020-11-11T07:20:51Z</time>
      </trkpt>
      <trkpt lat="28.5444650" lon="-16.1970570">
        <ele>439.9</ele>
        <time>2020-11-11T07:20:52Z</time>
      </trkpt>
      <trkpt lat="28.5445100" lon="-16.1970420">
        <ele>439.9</ele>
        <time>2020-11-11T07:20:53Z</time>
      </trkpt>
      <trkpt lat="28.5445100" lon="-16.1970420">
        <ele>439.9</ele>
        <time>2020-11-11T07:20:54Z</time>
      </trkpt>
      <trkpt lat="28.5445550" lon="-16.1970230">
        <ele>439.9</ele>
        <time>2020-11-11T07:20:55Z</time>
      </trkpt>
      <trkpt lat="28.5445550" lon="-16.1970230">
        <ele>440.9</ele>
        <time>2020-11-11T07:20:56Z</time>
      </trkpt>
      <trkpt lat="28.5445950" lon="-16.1969980">
        <ele>440.9</ele>
        <time>2020-11-11T07:20:57Z</time>
      </trkpt>
      <trkpt lat="28.5445950" lon="-16.1969980">
        <ele>440.9</ele>
        <time>2020-11-11T07:20:58Z</time>
      </trkpt>
      <trkpt lat="28.5446330" lon="-16.1969620">
        <ele>440.9</ele>
        <time>2020-11-11T07:20:59Z</time>
      </trkpt>
      <trkpt lat="28.5446480" lon="-16.1969420">
        <ele>441.9</ele>
        <time>2020-11-11T07:21:00Z</time>
      </trkpt>
      <trkpt lat="28.5446480" lon="-16.1969420">
        <ele>441.9</ele>
        <time>2020-11-11T07:21:01Z</time>
      </trkpt>
      <trkpt lat="28.5446720" lon="-16.1968970">
        <ele>441.9</ele>
        <time>2020-11-11T07:21:02Z</time>
      </trkpt>
      <trkpt lat="28.5446720" lon="-16.1968970">
        <ele>441.9</ele>
        <time>2020-11-11T07:21:03Z</time>
      </trkpt>
      <trkpt lat="28.5446880" lon="-16.1968470">
        <ele>442.9</ele>
        <time>2020-11-11T07:21:04Z</time>
      </trkpt>
      <trkpt lat="28.5446880" lon="-16.1968470">
        <ele>442.9</ele>
        <time>2020-11-11T07:21:05Z</time>
      </trkpt>
      <trkpt lat="28.5447020" lon="-16.1967950">
        <ele>442.9</ele>
        <time>2020-11-11T07:21:06Z</time>
      </trkpt>
      <trkpt lat="28.5447080" lon="-16.1967680">
        <ele>442.9</ele>
        <time>2020-11-11T07:21:07Z</time>
      </trkpt>
      <trkpt lat="28.5447170" lon="-16.1967430">
        <ele>442.9</ele>
        <time>2020-11-11T07:21:08Z</time>
      </trkpt>
      <trkpt lat="28.5447230" lon="-16.1967180">
        <ele>442.9</ele>
        <time>2020-11-11T07:21:09Z</time>
      </trkpt>
      <trkpt lat="28.5447230" lon="-16.1967180">
        <ele>443.9</ele>
        <time>2020-11-11T07:21:10Z</time>
      </trkpt>
      <trkpt lat="28.5447350" lon="-16.1966680">
        <ele>443.9</ele>
        <time>2020-11-11T07:21:11Z</time>
      </trkpt>
      <trkpt lat="28.5447350" lon="-16.1966680">
        <ele>443.9</ele>
        <time>2020-11-11T07:21:12Z</time>
      </trkpt>
      <trkpt lat="28.5447430" lon="-16.1966170">
        <ele>443.9</ele>
        <time>2020-11-11T07:21:13Z</time>
      </trkpt>
      <trkpt lat="28.5447430" lon="-16.1966170">
        <ele>443.9</ele>
        <time>2020-11-11T07:21:14Z</time>
      </trkpt>
      <trkpt lat="28.5447480" lon="-16.1965670">
        <ele>443.9</ele>
        <time>2020-11-11T07:21:15Z</time>
      </trkpt>
      <trkpt lat="28.5447480" lon="-16.1965380">
        <ele>443.9</ele>
        <time>2020-11-11T07:21:16Z</time>
      </trkpt>
      <trkpt lat="28.5447480" lon="-16.1965380">
        <ele>443.9</ele>
        <time>2020-11-11T07:21:17Z</time>
      </trkpt>
      <trkpt lat="28.5447480" lon="-16.1964870">
        <ele>443.9</ele>
        <time>2020-11-11T07:21:18Z</time>
      </trkpt>
      <trkpt lat="28.5447480" lon="-16.1964870">
        <ele>445.9</ele>
        <time>2020-11-11T07:21:19Z</time>
      </trkpt>
      <trkpt lat="28.5447400" lon="-16.1964350">
        <ele>445.9</ele>
        <time>2020-11-11T07:21:20Z</time>
      </trkpt>
      <trkpt lat="28.5447400" lon="-16.1964350">
        <ele>445.9</ele>
        <time>2020-11-11T07:21:21Z</time>
      </trkpt>
      <trkpt lat="28.5447300" lon="-16.1963820">
        <ele>445.9</ele>
        <time>2020-11-11T07:21:22Z</time>
      </trkpt>
      <trkpt lat="28.5447220" lon="-16.1963570">
        <ele>445.9</ele>
        <time>2020-11-11T07:21:23Z</time>
      </trkpt>
      <trkpt lat="28.5447220" lon="-16.1963570">
        <ele>445.9</ele>
        <time>2020-11-11T07:21:24Z</time>
      </trkpt>
      <trkpt lat="28.5447120" lon="-16.1963070">
        <ele>446.9</ele>
        <time>2020-11-11T07:21:25Z</time>
      </trkpt>
      <trkpt lat="28.5447120" lon="-16.1963070">
        <ele>446.9</ele>
        <time>2020-11-11T07:21:26Z</time>
      </trkpt>
      <trkpt lat="28.5446970" lon="-16.1962550">
        <ele>446.9</ele>
        <time>2020-11-11T07:21:27Z</time>
      </trkpt>
      <trkpt lat="28.5446970" lon="-16.1962550">
        <ele>446.9</ele>
        <time>2020-11-11T07:21:28Z</time>
      </trkpt>
      <trkpt lat="28.5446780" lon="-16.1962100">
        <ele>447.9</ele>
        <time>2020-11-11T07:21:29Z</time>
      </trkpt>
      <trkpt lat="28.5446780" lon="-16.1962100">
        <ele>447.9</ele>
        <time>2020-11-11T07:21:30Z</time>
      </trkpt>
      <trkpt lat="28.5446600" lon="-16.1961670">
        <ele>447.9</ele>
        <time>2020-11-11T07:21:31Z</time>
      </trkpt>
      <trkpt lat="28.5446520" lon="-16.1961450">
        <ele>447.9</ele>
        <time>2020-11-11T07:21:32Z</time>
      </trkpt>
      <trkpt lat="28.5446430" lon="-16.1961230">
        <ele>447.9</ele>
        <time>2020-11-11T07:21:33Z</time>
      </trkpt>
      <trkpt lat="28.5446430" lon="-16.1961230">
        <ele>447.9</ele>
        <time>2020-11-11T07:21:34Z</time>
      </trkpt>
      <trkpt lat="28.5446300" lon="-16.1960770">
        <ele>447.9</ele>
        <time>2020-11-11T07:21:35Z</time>
      </trkpt>
      <trkpt lat="28.5446230" lon="-16.1960520">
        <ele>447.9</ele>
        <time>2020-11-11T07:21:36Z</time>
      </trkpt>
      <trkpt lat="28.5446230" lon="-16.1960520">
        <ele>448.9</ele>
        <time>2020-11-11T07:21:37Z</time>
      </trkpt>
      <trkpt lat="28.5446080" lon="-16.1960030">
        <ele>448.9</ele>
        <time>2020-11-11T07:21:38Z</time>
      </trkpt>
      <trkpt lat="28.5446080" lon="-16.1960030">
        <ele>448.9</ele>
        <time>2020-11-11T07:21:39Z</time>
      </trkpt>
      <trkpt lat="28.5445920" lon="-16.1959550">
        <ele>448.9</ele>
        <time>2020-11-11T07:21:40Z</time>
      </trkpt>
      <trkpt lat="28.5445800" lon="-16.1959280">
        <ele>449.9</ele>
        <time>2020-11-11T07:21:41Z</time>
      </trkpt>
      <trkpt lat="28.5445800" lon="-16.1959280">
        <ele>449.9</ele>
        <time>2020-11-11T07:21:42Z</time>
      </trkpt>
      <trkpt lat="28.5445630" lon="-16.1958730">
        <ele>449.9</ele>
        <time>2020-11-11T07:21:43Z</time>
      </trkpt>
      <trkpt lat="28.5445630" lon="-16.1958730">
        <ele>449.9</ele>
        <time>2020-11-11T07:21:44Z</time>
      </trkpt>
      <trkpt lat="28.5445430" lon="-16.1958270">
        <ele>450.9</ele>
        <time>2020-11-11T07:21:45Z</time>
      </trkpt>
      <trkpt lat="28.5445430" lon="-16.1958270">
        <ele>450.9</ele>
        <time>2020-11-11T07:21:46Z</time>
      </trkpt>
      <trkpt lat="28.5445230" lon="-16.1957820">
        <ele>450.9</ele>
        <time>2020-11-11T07:21:47Z</time>
      </trkpt>
      <trkpt lat="28.5445130" lon="-16.1957580">
        <ele>450.9</ele>
        <time>2020-11-11T07:21:48Z</time>
      </trkpt>
      <trkpt lat="28.5445130" lon="-16.1957580">
        <ele>450.9</ele>
        <time>2020-11-11T07:21:49Z</time>
      </trkpt>
      <trkpt lat="28.5444970" lon="-16.1957080">
        <ele>451.9</ele>
        <time>2020-11-11T07:21:50Z</time>
      </trkpt>
      <trkpt lat="28.5444970" lon="-16.1957080">
        <ele>451.9</ele>
        <time>2020-11-11T07:21:51Z</time>
      </trkpt>
      <trkpt lat="28.5444720" lon="-16.1956570">
        <ele>451.9</ele>
        <time>2020-11-11T07:21:52Z</time>
      </trkpt>
      <trkpt lat="28.5444720" lon="-16.1956570">
        <ele>452.9</ele>
        <time>2020-11-11T07:21:53Z</time>
      </trkpt>
      <trkpt lat="28.5444570" lon="-16.1956030">
        <ele>452.9</ele>
        <time>2020-11-11T07:21:54Z</time>
      </trkpt>
      <trkpt lat="28.5444520" lon="-16.1955780">
        <ele>452.9</ele>
        <time>2020-11-11T07:21:55Z</time>
      </trkpt>
      <trkpt lat="28.5444520" lon="-16.1955780">
        <ele>452.9</ele>
        <time>2020-11-11T07:21:56Z</time>
      </trkpt>
      <trkpt lat="28.5444400" lon="-16.1955270">
        <ele>453.9</ele>
        <time>2020-11-11T07:21:57Z</time>
      </trkpt>
      <trkpt lat="28.5444400" lon="-16.1955270">
        <ele>453.9</ele>
        <time>2020-11-11T07:21:58Z</time>
      </trkpt>
      <trkpt lat="28.5444430" lon="-16.1954730">
        <ele>453.9</ele>
        <time>2020-11-11T07:21:59Z</time>
      </trkpt>
      <trkpt lat="28.5444430" lon="-16.1954730">
        <ele>453.9</ele>
        <time>2020-11-11T07:22:00Z</time>
      </trkpt>
      <trkpt lat="28.5444650" lon="-16.1954200">
        <ele>454.9</ele>
        <time>2020-11-11T07:22:01Z</time>
      </trkpt>
      <trkpt lat="28.5444650" lon="-16.1954200">
        <ele>454.9</ele>
        <time>2020-11-11T07:22:02Z</time>
      </trkpt>
      <trkpt lat="28.5444950" lon="-16.1953780">
        <ele>454.9</ele>
        <time>2020-11-11T07:22:03Z</time>
      </trkpt>
      <trkpt lat="28.5444950" lon="-16.1953780">
        <ele>454.9</ele>
        <time>2020-11-11T07:22:04Z</time>
      </trkpt>
      <trkpt lat="28.5445400" lon="-16.1953520">
        <ele>455.9</ele>
        <time>2020-11-11T07:22:05Z</time>
      </trkpt>
      <trkpt lat="28.5445650" lon="-16.1953480">
        <ele>455.9</ele>
        <time>2020-11-11T07:22:06Z</time>
      </trkpt>
      <trkpt lat="28.5445900" lon="-16.1953480">
        <ele>455.9</ele>
        <time>2020-11-11T07:22:07Z</time>
      </trkpt>
      <trkpt lat="28.5445900" lon="-16.1953480">
        <ele>455.9</ele>
        <time>2020-11-11T07:22:08Z</time>
      </trkpt>
      <trkpt lat="28.5446400" lon="-16.1953600">
        <ele>456.9</ele>
        <time>2020-11-11T07:22:09Z</time>
      </trkpt>
      <trkpt lat="28.5446400" lon="-16.1953600">
        <ele>456.9</ele>
        <time>2020-11-11T07:22:10Z</time>
      </trkpt>
      <trkpt lat="28.5446830" lon="-16.1953830">
        <ele>456.9</ele>
        <time>2020-11-11T07:22:11Z</time>
      </trkpt>
      <trkpt lat="28.5447030" lon="-16.1954000">
        <ele>456.9</ele>
        <time>2020-11-11T07:22:12Z</time>
      </trkpt>
      <trkpt lat="28.5447220" lon="-16.1954200">
        <ele>457.9</ele>
        <time>2020-11-11T07:22:13Z</time>
      </trkpt>
      <trkpt lat="28.5447220" lon="-16.1954200">
        <ele>457.9</ele>
        <time>2020-11-11T07:22:14Z</time>
      </trkpt>
      <trkpt lat="28.5447500" lon="-16.1954670">
        <ele>457.9</ele>
        <time>2020-11-11T07:22:15Z</time>
      </trkpt>
      <trkpt lat="28.5447500" lon="-16.1954670">
        <ele>457.9</ele>
        <time>2020-11-11T07:22:16Z</time>
      </trkpt>
      <trkpt lat="28.5447650" lon="-16.1955230">
        <ele>458.9</ele>
        <time>2020-11-11T07:22:17Z</time>
      </trkpt>
      <trkpt lat="28.5447650" lon="-16.1955230">
        <ele>458.9</ele>
        <time>2020-11-11T07:22:18Z</time>
      </trkpt>
      <trkpt lat="28.5447750" lon="-16.1955780">
        <ele>458.9</ele>
        <time>2020-11-11T07:22:19Z</time>
      </trkpt>
      <trkpt lat="28.5447750" lon="-16.1955780">
        <ele>458.9</ele>
        <time>2020-11-11T07:22:20Z</time>
      </trkpt>
      <trkpt lat="28.5447830" lon="-16.1956380">
        <ele>458.9</ele>
        <time>2020-11-11T07:22:21Z</time>
      </trkpt>
      <trkpt lat="28.5447870" lon="-16.1956700">
        <ele>458.9</ele>
        <time>2020-11-11T07:22:22Z</time>
      </trkpt>
      <trkpt lat="28.5447870" lon="-16.1956700">
        <ele>458.9</ele>
        <time>2020-11-11T07:22:23Z</time>
      </trkpt>
      <trkpt lat="28.5447920" lon="-16.1957300">
        <ele>458.9</ele>
        <time>2020-11-11T07:22:24Z</time>
      </trkpt>
      <trkpt lat="28.5447920" lon="-16.1957300">
        <ele>459.9</ele>
        <time>2020-11-11T07:22:25Z</time>
      </trkpt>
      <trkpt lat="28.5447920" lon="-16.1957920">
        <ele>459.9</ele>
        <time>2020-11-11T07:22:26Z</time>
      </trkpt>
      <trkpt lat="28.5447920" lon="-16.1957920">
        <ele>459.9</ele>
        <time>2020-11-11T07:22:27Z</time>
      </trkpt>
      <trkpt lat="28.5447930" lon="-16.1958450">
        <ele>459.9</ele>
        <time>2020-11-11T07:22:28Z</time>
      </trkpt>
      <trkpt lat="28.5447930" lon="-16.1958450">
        <ele>459.9</ele>
        <time>2020-11-11T07:22:29Z</time>
      </trkpt>
      <trkpt lat="28.5448020" lon="-16.1959020">
        <ele>460.9</ele>
        <time>2020-11-11T07:22:30Z</time>
      </trkpt>
      <trkpt lat="28.5448070" lon="-16.1959250">
        <ele>460.9</ele>
        <time>2020-11-11T07:22:31Z</time>
      </trkpt>
      <trkpt lat="28.5448070" lon="-16.1959250">
        <ele>460.9</ele>
        <time>2020-11-11T07:22:32Z</time>
      </trkpt>
      <trkpt lat="28.5448200" lon="-16.1959750">
        <ele>460.9</ele>
        <time>2020-11-11T07:22:33Z</time>
      </trkpt>
      <trkpt lat="28.5448200" lon="-16.1959750">
        <ele>460.9</ele>
        <time>2020-11-11T07:22:34Z</time>
      </trkpt>
      <trkpt lat="28.5448420" lon="-16.1960220">
        <ele>460.9</ele>
        <time>2020-11-11T07:22:35Z</time>
      </trkpt>
      <trkpt lat="28.5448420" lon="-16.1960220">
        <ele>461.9</ele>
        <time>2020-11-11T07:22:36Z</time>
      </trkpt>
      <trkpt lat="28.5448700" lon="-16.1960650">
        <ele>461.9</ele>
        <time>2020-11-11T07:22:37Z</time>
      </trkpt>
      <trkpt lat="28.5448700" lon="-16.1960650">
        <ele>461.9</ele>
        <time>2020-11-11T07:22:38Z</time>
      </trkpt>
      <trkpt lat="28.5448950" lon="-16.1961100">
        <ele>461.9</ele>
        <time>2020-11-11T07:22:39Z</time>
      </trkpt>
      <trkpt lat="28.5448950" lon="-16.1961100">
        <ele>461.9</ele>
        <time>2020-11-11T07:22:40Z</time>
      </trkpt>
      <trkpt lat="28.5449130" lon="-16.1961580">
        <ele>461.9</ele>
        <time>2020-11-11T07:22:41Z</time>
      </trkpt>
      <trkpt lat="28.5449130" lon="-16.1961580">
        <ele>461.9</ele>
        <time>2020-11-11T07:22:42Z</time>
      </trkpt>
      <trkpt lat="28.5449150" lon="-16.1962080">
        <ele>461.9</ele>
        <time>2020-11-11T07:22:43Z</time>
      </trkpt>
      <trkpt lat="28.5449150" lon="-16.1962080">
        <ele>461.9</ele>
        <time>2020-11-11T07:22:44Z</time>
      </trkpt>
      <trkpt lat="28.5449180" lon="-16.1962400">
        <ele>462.9</ele>
        <time>2020-11-11T07:22:45Z</time>
      </trkpt>
      <trkpt lat="28.5449180" lon="-16.1962400">
        <ele>462.9</ele>
        <time>2020-11-11T07:22:46Z</time>
      </trkpt>
      <trkpt lat="28.5449180" lon="-16.1962450">
        <ele>462.9</ele>
        <time>2020-11-11T07:22:47Z</time>
      </trkpt>
      <trkpt lat="28.5449180" lon="-16.1962450">
        <ele>462.9</ele>
        <time>2020-11-11T07:22:48Z</time>
      </trkpt>
      <trkpt lat="28.5449180" lon="-16.1962450">
        <ele>462.9</ele>
        <time>2020-11-11T07:22:49Z</time>
      </trkpt>
      <trkpt lat="28.5449280" lon="-16.1962530">
        <ele>462.9</ele>
        <time>2020-11-11T07:23:22Z</time>
      </trkpt>
      <trkpt lat="28.5449280" lon="-16.1962530">
        <ele>462.9</ele>
        <time>2020-11-11T07:23:23Z</time>
      </trkpt>
      <trkpt lat="28.5449630" lon="-16.1962830">
        <ele>462.9</ele>
        <time>2020-11-11T07:23:24Z</time>
      </trkpt>
      <trkpt lat="28.5449750" lon="-16.1963000">
        <ele>462.9</ele>
        <time>2020-11-11T07:23:25Z</time>
      </trkpt>
      <trkpt lat="28.5449750" lon="-16.1963000">
        <ele>462.9</ele>
        <time>2020-11-11T07:23:26Z</time>
      </trkpt>
      <trkpt lat="28.5450080" lon="-16.1963350">
        <ele>462.9</ele>
        <time>2020-11-11T07:23:27Z</time>
      </trkpt>
      <trkpt lat="28.5450080" lon="-16.1963350">
        <ele>462.9</ele>
        <time>2020-11-11T07:23:28Z</time>
      </trkpt>
      <trkpt lat="28.5450350" lon="-16.1963730">
        <ele>463.9</ele>
        <time>2020-11-11T07:23:29Z</time>
      </trkpt>
      <trkpt lat="28.5450350" lon="-16.1963730">
        <ele>463.9</ele>
        <time>2020-11-11T07:23:30Z</time>
      </trkpt>
      <trkpt lat="28.5450580" lon="-16.1964180">
        <ele>463.9</ele>
        <time>2020-11-11T07:23:31Z</time>
      </trkpt>
      <trkpt lat="28.5450580" lon="-16.1964180">
        <ele>463.9</ele>
        <time>2020-11-11T07:23:32Z</time>
      </trkpt>
      <trkpt lat="28.5450830" lon="-16.1964630">
        <ele>463.9</ele>
        <time>2020-11-11T07:23:33Z</time>
      </trkpt>
      <trkpt lat="28.5450930" lon="-16.1964850">
        <ele>463.9</ele>
        <time>2020-11-11T07:23:34Z</time>
      </trkpt>
      <trkpt lat="28.5450930" lon="-16.1964850">
        <ele>463.9</ele>
        <time>2020-11-11T07:23:35Z</time>
      </trkpt>
      <trkpt lat="28.5451150" lon="-16.1965350">
        <ele>464.9</ele>
        <time>2020-11-11T07:23:36Z</time>
      </trkpt>
      <trkpt lat="28.5451150" lon="-16.1965350">
        <ele>464.9</ele>
        <time>2020-11-11T07:23:37Z</time>
      </trkpt>
      <trkpt lat="28.5451380" lon="-16.1965830">
        <ele>464.9</ele>
        <time>2020-11-11T07:23:38Z</time>
      </trkpt>
      <trkpt lat="28.5451380" lon="-16.1965830">
        <ele>464.9</ele>
        <time>2020-11-11T07:23:39Z</time>
      </trkpt>
      <trkpt lat="28.5451550" lon="-16.1966330">
        <ele>464.9</ele>
        <time>2020-11-11T07:23:40Z</time>
      </trkpt>
      <trkpt lat="28.5451550" lon="-16.1966330">
        <ele>464.9</ele>
        <time>2020-11-11T07:23:41Z</time>
      </trkpt>
      <trkpt lat="28.5451650" lon="-16.1966900">
        <ele>464.9</ele>
        <time>2020-11-11T07:23:42Z</time>
      </trkpt>
      <trkpt lat="28.5451650" lon="-16.1966900">
        <ele>464.9</ele>
        <time>2020-11-11T07:23:43Z</time>
      </trkpt>
      <trkpt lat="28.5451720" lon="-16.1967470">
        <ele>464.9</ele>
        <time>2020-11-11T07:23:44Z</time>
      </trkpt>
      <trkpt lat="28.5451720" lon="-16.1967470">
        <ele>464.9</ele>
        <time>2020-11-11T07:23:45Z</time>
      </trkpt>
      <trkpt lat="28.5451780" lon="-16.1968030">
        <ele>464.9</ele>
        <time>2020-11-11T07:23:46Z</time>
      </trkpt>
      <trkpt lat="28.5451780" lon="-16.1968030">
        <ele>464.9</ele>
        <time>2020-11-11T07:23:47Z</time>
      </trkpt>
      <trkpt lat="28.5451830" lon="-16.1968630">
        <ele>464.9</ele>
        <time>2020-11-11T07:23:48Z</time>
      </trkpt>
      <trkpt lat="28.5451830" lon="-16.1968630">
        <ele>464.9</ele>
        <time>2020-11-11T07:23:49Z</time>
      </trkpt>
      <trkpt lat="28.5451820" lon="-16.1969150">
        <ele>464.9</ele>
        <time>2020-11-11T07:23:50Z</time>
      </trkpt>
      <trkpt lat="28.5451820" lon="-16.1969150">
        <ele>464.9</ele>
        <time>2020-11-11T07:23:51Z</time>
      </trkpt>
      <trkpt lat="28.5451800" lon="-16.1969720">
        <ele>464.9</ele>
        <time>2020-11-11T07:23:52Z</time>
      </trkpt>
      <trkpt lat="28.5451780" lon="-16.1970000">
        <ele>465.9</ele>
        <time>2020-11-11T07:23:53Z</time>
      </trkpt>
      <trkpt lat="28.5451780" lon="-16.1970000">
        <ele>465.9</ele>
        <time>2020-11-11T07:23:54Z</time>
      </trkpt>
      <trkpt lat="28.5451750" lon="-16.1970550">
        <ele>465.9</ele>
        <time>2020-11-11T07:23:55Z</time>
      </trkpt>
      <trkpt lat="28.5451750" lon="-16.1970550">
        <ele>465.9</ele>
        <time>2020-11-11T07:23:56Z</time>
      </trkpt>
      <trkpt lat="28.5451720" lon="-16.1971100">
        <ele>465.9</ele>
        <time>2020-11-11T07:23:57Z</time>
      </trkpt>
      <trkpt lat="28.5451680" lon="-16.1971350">
        <ele>465.9</ele>
        <time>2020-11-11T07:23:58Z</time>
      </trkpt>
      <trkpt lat="28.5451680" lon="-16.1971350">
        <ele>465.9</ele>
        <time>2020-11-11T07:23:59Z</time>
      </trkpt>
      <trkpt lat="28.5451600" lon="-16.1971880">
        <ele>465.9</ele>
        <time>2020-11-11T07:24:00Z</time>
      </trkpt>
      <trkpt lat="28.5451530" lon="-16.1972180">
        <ele>466.9</ele>
        <time>2020-11-11T07:24:01Z</time>
      </trkpt>
      <trkpt lat="28.5451470" lon="-16.1972450">
        <ele>466.9</ele>
        <time>2020-11-11T07:24:02Z</time>
      </trkpt>
      <trkpt lat="28.5451470" lon="-16.1972450">
        <ele>466.9</ele>
        <time>2020-11-11T07:24:03Z</time>
      </trkpt>
      <trkpt lat="28.5451270" lon="-16.1972970">
        <ele>466.9</ele>
        <time>2020-11-11T07:24:04Z</time>
      </trkpt>
      <trkpt lat="28.5451270" lon="-16.1972970">
        <ele>466.9</ele>
        <time>2020-11-11T07:24:05Z</time>
      </trkpt>
      <trkpt lat="28.5450950" lon="-16.1973380">
        <ele>466.9</ele>
        <time>2020-11-11T07:24:06Z</time>
      </trkpt>
      <trkpt lat="28.5450950" lon="-16.1973380">
        <ele>466.9</ele>
        <time>2020-11-11T07:24:07Z</time>
      </trkpt>
      <trkpt lat="28.5450600" lon="-16.1973820">
        <ele>466.9</ele>
        <time>2020-11-11T07:24:08Z</time>
      </trkpt>
      <trkpt lat="28.5450600" lon="-16.1973820">
        <ele>466.9</ele>
        <time>2020-11-11T07:24:09Z</time>
      </trkpt>
      <trkpt lat="28.5450170" lon="-16.1974230">
        <ele>467.9</ele>
        <time>2020-11-11T07:24:10Z</time>
      </trkpt>
      <trkpt lat="28.5450170" lon="-16.1974230">
        <ele>467.9</ele>
        <time>2020-11-11T07:24:11Z</time>
      </trkpt>
      <trkpt lat="28.5449630" lon="-16.1974580">
        <ele>467.9</ele>
        <time>2020-11-11T07:24:12Z</time>
      </trkpt>
      <trkpt lat="28.5449350" lon="-16.1974700">
        <ele>467.9</ele>
        <time>2020-11-11T07:24:13Z</time>
      </trkpt>
      <trkpt lat="28.5449100" lon="-16.1974820">
        <ele>467.9</ele>
        <time>2020-11-11T07:24:14Z</time>
      </trkpt>
      <trkpt lat="28.5449100" lon="-16.1974820">
        <ele>467.9</ele>
        <time>2020-11-11T07:24:15Z</time>
      </trkpt>
      <trkpt lat="28.5448620" lon="-16.1975050">
        <ele>467.9</ele>
        <time>2020-11-11T07:24:16Z</time>
      </trkpt>
      <trkpt lat="28.5448380" lon="-16.1975150">
        <ele>467.9</ele>
        <time>2020-11-11T07:24:17Z</time>
      </trkpt>
      <trkpt lat="28.5448380" lon="-16.1975150">
        <ele>467.9</ele>
        <time>2020-11-11T07:24:18Z</time>
      </trkpt>
      <trkpt lat="28.5447900" lon="-16.1975420">
        <ele>467.9</ele>
        <time>2020-11-11T07:24:19Z</time>
      </trkpt>
      <trkpt lat="28.5447700" lon="-16.1975580">
        <ele>467.9</ele>
        <time>2020-11-11T07:24:20Z</time>
      </trkpt>
      <trkpt lat="28.5447700" lon="-16.1975580">
        <ele>467.9</ele>
        <time>2020-11-11T07:24:21Z</time>
      </trkpt>
      <trkpt lat="28.5447270" lon="-16.1975950">
        <ele>467.9</ele>
        <time>2020-11-11T07:24:22Z</time>
      </trkpt>
      <trkpt lat="28.5447020" lon="-16.1976080">
        <ele>467.9</ele>
        <time>2020-11-11T07:24:23Z</time>
      </trkpt>
      <trkpt lat="28.5447020" lon="-16.1976080">
        <ele>467.9</ele>
        <time>2020-11-11T07:24:24Z</time>
      </trkpt>
      <trkpt lat="28.5446550" lon="-16.1976370">
        <ele>467.9</ele>
        <time>2020-11-11T07:24:25Z</time>
      </trkpt>
      <trkpt lat="28.5446320" lon="-16.1976430">
        <ele>467.9</ele>
        <time>2020-11-11T07:24:26Z</time>
      </trkpt>
      <trkpt lat="28.5446320" lon="-16.1976430">
        <ele>467.9</ele>
        <time>2020-11-11T07:24:27Z</time>
      </trkpt>
      <trkpt lat="28.5445800" lon="-16.1976450">
        <ele>467.9</ele>
        <time>2020-11-11T07:24:28Z</time>
      </trkpt>
      <trkpt lat="28.5445530" lon="-16.1976470">
        <ele>467.9</ele>
        <time>2020-11-11T07:24:29Z</time>
      </trkpt>
      <trkpt lat="28.5445530" lon="-16.1976470">
        <ele>467.9</ele>
        <time>2020-11-11T07:24:30Z</time>
      </trkpt>
      <trkpt lat="28.5445030" lon="-16.1976370">
        <ele>467.9</ele>
        <time>2020-11-11T07:24:31Z</time>
      </trkpt>
      <trkpt lat="28.5445030" lon="-16.1976370">
        <ele>467.9</ele>
        <time>2020-11-11T07:24:32Z</time>
      </trkpt>
      <trkpt lat="28.5444530" lon="-16.1976250">
        <ele>467.9</ele>
        <time>2020-11-11T07:24:33Z</time>
      </trkpt>
      <trkpt lat="28.5444270" lon="-16.1976170">
        <ele>467.9</ele>
        <time>2020-11-11T07:24:34Z</time>
      </trkpt>
      <trkpt lat="28.5444270" lon="-16.1976170">
        <ele>467.9</ele>
        <time>2020-11-11T07:24:35Z</time>
      </trkpt>
      <trkpt lat="28.5443730" lon="-16.1976020">
        <ele>467.9</ele>
        <time>2020-11-11T07:24:36Z</time>
      </trkpt>
      <trkpt lat="28.5443730" lon="-16.1976020">
        <ele>467.9</ele>
        <time>2020-11-11T07:24:37Z</time>
      </trkpt>
      <trkpt lat="28.5443170" lon="-16.1975780">
        <ele>467.9</ele>
        <time>2020-11-11T07:24:38Z</time>
      </trkpt>
      <trkpt lat="28.5443170" lon="-16.1975780">
        <ele>467.9</ele>
        <time>2020-11-11T07:24:39Z</time>
      </trkpt>
      <trkpt lat="28.5442550" lon="-16.1975580">
        <ele>467.9</ele>
        <time>2020-11-11T07:24:40Z</time>
      </trkpt>
      <trkpt lat="28.5442550" lon="-16.1975580">
        <ele>467.9</ele>
        <time>2020-11-11T07:24:41Z</time>
      </trkpt>
      <trkpt lat="28.5441880" lon="-16.1975600">
        <ele>468.9</ele>
        <time>2020-11-11T07:24:42Z</time>
      </trkpt>
      <trkpt lat="28.5441550" lon="-16.1975670">
        <ele>468.9</ele>
        <time>2020-11-11T07:24:43Z</time>
      </trkpt>
      <trkpt lat="28.5441230" lon="-16.1975800">
        <ele>468.9</ele>
        <time>2020-11-11T07:24:44Z</time>
      </trkpt>
      <trkpt lat="28.5441230" lon="-16.1975800">
        <ele>468.9</ele>
        <time>2020-11-11T07:24:45Z</time>
      </trkpt>
      <trkpt lat="28.5440630" lon="-16.1976170">
        <ele>468.9</ele>
        <time>2020-11-11T07:24:46Z</time>
      </trkpt>
      <trkpt lat="28.5440630" lon="-16.1976170">
        <ele>468.9</ele>
        <time>2020-11-11T07:24:47Z</time>
      </trkpt>
      <trkpt lat="28.5440100" lon="-16.1976630">
        <ele>468.9</ele>
        <time>2020-11-11T07:24:48Z</time>
      </trkpt>
      <trkpt lat="28.5440100" lon="-16.1976630">
        <ele>468.9</ele>
        <time>2020-11-11T07:24:49Z</time>
      </trkpt>
      <trkpt lat="28.5439650" lon="-16.1977230">
        <ele>468.9</ele>
        <time>2020-11-11T07:24:50Z</time>
      </trkpt>
      <trkpt lat="28.5439650" lon="-16.1977230">
        <ele>468.9</ele>
        <time>2020-11-11T07:24:51Z</time>
      </trkpt>
      <trkpt lat="28.5439220" lon="-16.1977950">
        <ele>468.9</ele>
        <time>2020-11-11T07:24:52Z</time>
      </trkpt>
      <trkpt lat="28.5439220" lon="-16.1977950">
        <ele>468.9</ele>
        <time>2020-11-11T07:24:53Z</time>
      </trkpt>
      <trkpt lat="28.5438800" lon="-16.1978850">
        <ele>468.9</ele>
        <time>2020-11-11T07:24:54Z</time>
      </trkpt>
      <trkpt lat="28.5438800" lon="-16.1978850">
        <ele>468.9</ele>
        <time>2020-11-11T07:24:55Z</time>
      </trkpt>
      <trkpt lat="28.5438530" lon="-16.1979700">
        <ele>468.9</ele>
        <time>2020-11-11T07:24:56Z</time>
      </trkpt>
      <trkpt lat="28.5438470" lon="-16.1980150">
        <ele>468.9</ele>
        <time>2020-11-11T07:24:57Z</time>
      </trkpt>
      <trkpt lat="28.5438450" lon="-16.1980680">
        <ele>468.9</ele>
        <time>2020-11-11T07:24:58Z</time>
      </trkpt>
      <trkpt lat="28.5438450" lon="-16.1980680">
        <ele>468.9</ele>
        <time>2020-11-11T07:24:59Z</time>
      </trkpt>
      <trkpt lat="28.5438550" lon="-16.1981650">
        <ele>468.9</ele>
        <time>2020-11-11T07:25:00Z</time>
      </trkpt>
      <trkpt lat="28.5438680" lon="-16.1982130">
        <ele>468.9</ele>
        <time>2020-11-11T07:25:01Z</time>
      </trkpt>
      <trkpt lat="28.5438680" lon="-16.1982130">
        <ele>468.9</ele>
        <time>2020-11-11T07:25:02Z</time>
      </trkpt>
      <trkpt lat="28.5439300" lon="-16.1982930">
        <ele>468.9</ele>
        <time>2020-11-11T07:25:03Z</time>
      </trkpt>
      <trkpt lat="28.5439720" lon="-16.1983150">
        <ele>468.9</ele>
        <time>2020-11-11T07:25:04Z</time>
      </trkpt>
      <trkpt lat="28.5439720" lon="-16.1983150">
        <ele>468.9</ele>
        <time>2020-11-11T07:25:05Z</time>
      </trkpt>
      <trkpt lat="28.5440630" lon="-16.1983530">
        <ele>468.9</ele>
        <time>2020-11-11T07:25:06Z</time>
      </trkpt>
      <trkpt lat="28.5440630" lon="-16.1983530">
        <ele>468.9</ele>
        <time>2020-11-11T07:25:07Z</time>
      </trkpt>
      <trkpt lat="28.5441570" lon="-16.1983880">
        <ele>468.9</ele>
        <time>2020-11-11T07:25:08Z</time>
      </trkpt>
      <trkpt lat="28.5441570" lon="-16.1983880">
        <ele>468.9</ele>
        <time>2020-11-11T07:25:09Z</time>
      </trkpt>
      <trkpt lat="28.5442530" lon="-16.1984280">
        <ele>467.9</ele>
        <time>2020-11-11T07:25:10Z</time>
      </trkpt>
      <trkpt lat="28.5443000" lon="-16.1984500">
        <ele>467.9</ele>
        <time>2020-11-11T07:25:11Z</time>
      </trkpt>
      <trkpt lat="28.5443000" lon="-16.1984500">
        <ele>467.9</ele>
        <time>2020-11-11T07:25:12Z</time>
      </trkpt>
      <trkpt lat="28.5443900" lon="-16.1985000">
        <ele>467.9</ele>
        <time>2020-11-11T07:25:13Z</time>
      </trkpt>
      <trkpt lat="28.5443900" lon="-16.1985000">
        <ele>467.9</ele>
        <time>2020-11-11T07:25:14Z</time>
      </trkpt>
      <trkpt lat="28.5444680" lon="-16.1985750">
        <ele>467.9</ele>
        <time>2020-11-11T07:25:15Z</time>
      </trkpt>
      <trkpt lat="28.5444680" lon="-16.1985750">
        <ele>467.9</ele>
        <time>2020-11-11T07:25:16Z</time>
      </trkpt>
      <trkpt lat="28.5445330" lon="-16.1986630">
        <ele>467.9</ele>
        <time>2020-11-11T07:25:17Z</time>
      </trkpt>
      <trkpt lat="28.5445330" lon="-16.1986630">
        <ele>467.9</ele>
        <time>2020-11-11T07:25:18Z</time>
      </trkpt>
      <trkpt lat="28.5445900" lon="-16.1987500">
        <ele>467.9</ele>
        <time>2020-11-11T07:25:19Z</time>
      </trkpt>
      <trkpt lat="28.5446180" lon="-16.1987980">
        <ele>467.9</ele>
        <time>2020-11-11T07:25:20Z</time>
      </trkpt>
      <trkpt lat="28.5446180" lon="-16.1987980">
        <ele>467.9</ele>
        <time>2020-11-11T07:25:21Z</time>
      </trkpt>
      <trkpt lat="28.5446700" lon="-16.1988970">
        <ele>467.9</ele>
        <time>2020-11-11T07:25:22Z</time>
      </trkpt>
      <trkpt lat="28.5446700" lon="-16.1988970">
        <ele>467.9</ele>
        <time>2020-11-11T07:25:23Z</time>
      </trkpt>
      <trkpt lat="28.5447200" lon="-16.1989930">
        <ele>467.9</ele>
        <time>2020-11-11T07:25:24Z</time>
      </trkpt>
      <trkpt lat="28.5447200" lon="-16.1989930">
        <ele>467.9</ele>
        <time>2020-11-11T07:25:25Z</time>
      </trkpt>
      <trkpt lat="28.5447720" lon="-16.1990850">
        <ele>467.9</ele>
        <time>2020-11-11T07:25:26Z</time>
      </trkpt>
      <trkpt lat="28.5447720" lon="-16.1990850">
        <ele>468.9</ele>
        <time>2020-11-11T07:25:27Z</time>
      </trkpt>
      <trkpt lat="28.5448120" lon="-16.1991730">
        <ele>468.9</ele>
        <time>2020-11-11T07:25:28Z</time>
      </trkpt>
      <trkpt lat="28.5448320" lon="-16.1992180">
        <ele>468.9</ele>
        <time>2020-11-11T07:25:29Z</time>
      </trkpt>
      <trkpt lat="28.5448320" lon="-16.1992180">
        <ele>468.9</ele>
        <time>2020-11-11T07:25:30Z</time>
      </trkpt>
      <trkpt lat="28.5448700" lon="-16.1993050">
        <ele>468.9</ele>
        <time>2020-11-11T07:25:31Z</time>
      </trkpt>
      <trkpt lat="28.5448880" lon="-16.1993580">
        <ele>468.9</ele>
        <time>2020-11-11T07:25:32Z</time>
      </trkpt>
      <trkpt lat="28.5448880" lon="-16.1993580">
        <ele>469.9</ele>
        <time>2020-11-11T07:25:33Z</time>
      </trkpt>
      <trkpt lat="28.5449150" lon="-16.1994530">
        <ele>469.9</ele>
        <time>2020-11-11T07:25:34Z</time>
      </trkpt>
      <trkpt lat="28.5449150" lon="-16.1994530">
        <ele>469.9</ele>
        <time>2020-11-11T07:25:35Z</time>
      </trkpt>
      <trkpt lat="28.5449030" lon="-16.1995470">
        <ele>469.9</ele>
        <time>2020-11-11T07:25:36Z</time>
      </trkpt>
      <trkpt lat="28.5448880" lon="-16.1995900">
        <ele>469.9</ele>
        <time>2020-11-11T07:25:37Z</time>
      </trkpt>
      <trkpt lat="28.5448700" lon="-16.1996280">
        <ele>469.9</ele>
        <time>2020-11-11T07:25:38Z</time>
      </trkpt>
      <trkpt lat="28.5448700" lon="-16.1996280">
        <ele>470.9</ele>
        <time>2020-11-11T07:25:39Z</time>
      </trkpt>
      <trkpt lat="28.5448280" lon="-16.1996950">
        <ele>470.9</ele>
        <time>2020-11-11T07:25:40Z</time>
      </trkpt>
      <trkpt lat="28.5448280" lon="-16.1996950">
        <ele>470.9</ele>
        <time>2020-11-11T07:25:41Z</time>
      </trkpt>
      <trkpt lat="28.5447780" lon="-16.1997600">
        <ele>470.9</ele>
        <time>2020-11-11T07:25:42Z</time>
      </trkpt>
      <trkpt lat="28.5447780" lon="-16.1997600">
        <ele>470.9</ele>
        <time>2020-11-11T07:25:43Z</time>
      </trkpt>
      <trkpt lat="28.5447430" lon="-16.1998170">
        <ele>470.9</ele>
        <time>2020-11-11T07:25:44Z</time>
      </trkpt>
      <trkpt lat="28.5447430" lon="-16.1998170">
        <ele>471.9</ele>
        <time>2020-11-11T07:25:45Z</time>
      </trkpt>
      <trkpt lat="28.5447100" lon="-16.1998580">
        <ele>471.9</ele>
        <time>2020-11-11T07:25:46Z</time>
      </trkpt>
      <trkpt lat="28.5446950" lon="-16.1998720">
        <ele>471.9</ele>
        <time>2020-11-11T07:25:47Z</time>
      </trkpt>
      <trkpt lat="28.5446950" lon="-16.1998720">
        <ele>471.9</ele>
        <time>2020-11-11T07:25:48Z</time>
      </trkpt>
      <trkpt lat="28.5446850" lon="-16.1998350">
        <ele>471.9</ele>
        <time>2020-11-11T07:25:49Z</time>
      </trkpt>
      <trkpt lat="28.5446850" lon="-16.1998350">
        <ele>471.9</ele>
        <time>2020-11-11T07:25:50Z</time>
      </trkpt>
      <trkpt lat="28.5447100" lon="-16.1997950">
        <ele>471.9</ele>
        <time>2020-11-11T07:25:51Z</time>
      </trkpt>
      <trkpt lat="28.5447100" lon="-16.1997950">
        <ele>471.9</ele>
        <time>2020-11-11T07:25:52Z</time>
      </trkpt>
      <trkpt lat="28.5447230" lon="-16.1997670">
        <ele>471.9</ele>
        <time>2020-11-11T07:25:53Z</time>
      </trkpt>
      <trkpt lat="28.5447230" lon="-16.1997670">
        <ele>471.9</ele>
        <time>2020-11-11T07:25:54Z</time>
      </trkpt>
      <trkpt lat="28.5447230" lon="-16.1997680">
        <ele>471.9</ele>
        <time>2020-11-11T07:25:55Z</time>
      </trkpt>
      <trkpt lat="28.5447250" lon="-16.1997650">
        <ele>471.9</ele>
        <time>2020-11-11T07:26:24Z</time>
      </trkpt>
      <trkpt lat="28.5447500" lon="-16.1997600">
        <ele>471.9</ele>
        <time>2020-11-11T07:26:25Z</time>
      </trkpt>
      <trkpt lat="28.5447550" lon="-16.1997900">
        <ele>471.9</ele>
        <time>2020-11-11T07:26:26Z</time>
      </trkpt>
      <trkpt lat="28.5447550" lon="-16.1997900">
        <ele>471.9</ele>
        <time>2020-11-11T07:26:27Z</time>
      </trkpt>
      <trkpt lat="28.5447330" lon="-16.1998380">
        <ele>471.9</ele>
        <time>2020-11-11T07:26:28Z</time>
      </trkpt>
      <trkpt lat="28.5447330" lon="-16.1998380">
        <ele>471.9</ele>
        <time>2020-11-11T07:26:29Z</time>
      </trkpt>
      <trkpt lat="28.5447020" lon="-16.1998850">
        <ele>471.9</ele>
        <time>2020-11-11T07:26:30Z</time>
      </trkpt>
      <trkpt lat="28.5447020" lon="-16.1998850">
        <ele>471.9</ele>
        <time>2020-11-11T07:26:31Z</time>
      </trkpt>
      <trkpt lat="28.5446720" lon="-16.1999230">
        <ele>471.9</ele>
        <time>2020-11-11T07:26:32Z</time>
      </trkpt>
      <trkpt lat="28.5446720" lon="-16.1999230">
        <ele>471.9</ele>
        <time>2020-11-11T07:26:33Z</time>
      </trkpt>
      <trkpt lat="28.5446470" lon="-16.1999600">
        <ele>471.9</ele>
        <time>2020-11-11T07:26:34Z</time>
      </trkpt>
      <trkpt lat="28.5446470" lon="-16.1999600">
        <ele>472.9</ele>
        <time>2020-11-11T07:26:35Z</time>
      </trkpt>
      <trkpt lat="28.5446220" lon="-16.2000080">
        <ele>472.9</ele>
        <time>2020-11-11T07:26:36Z</time>
      </trkpt>
      <trkpt lat="28.5446070" lon="-16.2000280">
        <ele>472.9</ele>
        <time>2020-11-11T07:26:37Z</time>
      </trkpt>
      <trkpt lat="28.5446070" lon="-16.2000280">
        <ele>472.9</ele>
        <time>2020-11-11T07:26:38Z</time>
      </trkpt>
      <trkpt lat="28.5445770" lon="-16.2000730">
        <ele>472.9</ele>
        <time>2020-11-11T07:26:39Z</time>
      </trkpt>
      <trkpt lat="28.5445600" lon="-16.2000980">
        <ele>472.9</ele>
        <time>2020-11-11T07:26:40Z</time>
      </trkpt>
      <trkpt lat="28.5445600" lon="-16.2000980">
        <ele>473.9</ele>
        <time>2020-11-11T07:26:41Z</time>
      </trkpt>
      <trkpt lat="28.5445270" lon="-16.2001400">
        <ele>473.9</ele>
        <time>2020-11-11T07:26:42Z</time>
      </trkpt>
      <trkpt lat="28.5445130" lon="-16.2001600">
        <ele>473.9</ele>
        <time>2020-11-11T07:26:43Z</time>
      </trkpt>
      <trkpt lat="28.5445130" lon="-16.2001600">
        <ele>473.9</ele>
        <time>2020-11-11T07:26:44Z</time>
      </trkpt>
      <trkpt lat="28.5444970" lon="-16.2002050">
        <ele>473.9</ele>
        <time>2020-11-11T07:26:45Z</time>
      </trkpt>
      <trkpt lat="28.5444970" lon="-16.2002050">
        <ele>473.9</ele>
        <time>2020-11-11T07:26:46Z</time>
      </trkpt>
      <trkpt lat="28.5444720" lon="-16.2002570">
        <ele>473.9</ele>
        <time>2020-11-11T07:26:47Z</time>
      </trkpt>
      <trkpt lat="28.5444720" lon="-16.2002570">
        <ele>473.9</ele>
        <time>2020-11-11T07:26:48Z</time>
      </trkpt>
      <trkpt lat="28.5444550" lon="-16.2003080">
        <ele>474.9</ele>
        <time>2020-11-11T07:26:49Z</time>
      </trkpt>
      <trkpt lat="28.5444550" lon="-16.2003080">
        <ele>474.9</ele>
        <time>2020-11-11T07:26:50Z</time>
      </trkpt>
      <trkpt lat="28.5444430" lon="-16.2003670">
        <ele>474.9</ele>
        <time>2020-11-11T07:26:51Z</time>
      </trkpt>
      <trkpt lat="28.5444370" lon="-16.2003920">
        <ele>474.9</ele>
        <time>2020-11-11T07:26:52Z</time>
      </trkpt>
      <trkpt lat="28.5444370" lon="-16.2003920">
        <ele>474.9</ele>
        <time>2020-11-11T07:26:53Z</time>
      </trkpt>
      <trkpt lat="28.5444330" lon="-16.2004400">
        <ele>474.9</ele>
        <time>2020-11-11T07:26:54Z</time>
      </trkpt>
      <trkpt lat="28.5444350" lon="-16.2004670">
        <ele>475.9</ele>
        <time>2020-11-11T07:26:55Z</time>
      </trkpt>
      <trkpt lat="28.5444350" lon="-16.2004670">
        <ele>475.9</ele>
        <time>2020-11-11T07:26:56Z</time>
      </trkpt>
      <trkpt lat="28.5444520" lon="-16.2005220">
        <ele>475.9</ele>
        <time>2020-11-11T07:26:57Z</time>
      </trkpt>
      <trkpt lat="28.5444670" lon="-16.2005470">
        <ele>476.9</ele>
        <time>2020-11-11T07:26:58Z</time>
      </trkpt>
      <trkpt lat="28.5444670" lon="-16.2005470">
        <ele>476.9</ele>
        <time>2020-11-11T07:26:59Z</time>
      </trkpt>
      <trkpt lat="28.5444950" lon="-16.2005900">
        <ele>476.9</ele>
        <time>2020-11-11T07:27:00Z</time>
      </trkpt>
      <trkpt lat="28.5445100" lon="-16.2006120">
        <ele>476.9</ele>
        <time>2020-11-11T07:27:01Z</time>
      </trkpt>
      <trkpt lat="28.5445100" lon="-16.2006120">
        <ele>477.9</ele>
        <time>2020-11-11T07:27:02Z</time>
      </trkpt>
      <trkpt lat="28.5445420" lon="-16.2006520">
        <ele>477.9</ele>
        <time>2020-11-11T07:27:03Z</time>
      </trkpt>
      <trkpt lat="28.5445620" lon="-16.2006650">
        <ele>477.9</ele>
        <time>2020-11-11T07:27:04Z</time>
      </trkpt>
      <trkpt lat="28.5445620" lon="-16.2006650">
        <ele>477.9</ele>
        <time>2020-11-11T07:27:05Z</time>
      </trkpt>
      <trkpt lat="28.5446000" lon="-16.2006920">
        <ele>478.9</ele>
        <time>2020-11-11T07:27:06Z</time>
      </trkpt>
      <trkpt lat="28.5446000" lon="-16.2006920">
        <ele>478.9</ele>
        <time>2020-11-11T07:27:07Z</time>
      </trkpt>
      <trkpt lat="28.5446420" lon="-16.2007170">
        <ele>478.9</ele>
        <time>2020-11-11T07:27:08Z</time>
      </trkpt>
      <trkpt lat="28.5446420" lon="-16.2007170">
        <ele>478.9</ele>
        <time>2020-11-11T07:27:09Z</time>
      </trkpt>
      <trkpt lat="28.5446870" lon="-16.2007300">
        <ele>479.9</ele>
        <time>2020-11-11T07:27:10Z</time>
      </trkpt>
      <trkpt lat="28.5446870" lon="-16.2007300">
        <ele>479.9</ele>
        <time>2020-11-11T07:27:11Z</time>
      </trkpt>
      <trkpt lat="28.5447330" lon="-16.2007330">
        <ele>479.9</ele>
        <time>2020-11-11T07:27:12Z</time>
      </trkpt>
      <trkpt lat="28.5447330" lon="-16.2007330">
        <ele>479.9</ele>
        <time>2020-11-11T07:27:13Z</time>
      </trkpt>
      <trkpt lat="28.5447780" lon="-16.2007370">
        <ele>480.9</ele>
        <time>2020-11-11T07:27:14Z</time>
      </trkpt>
      <trkpt lat="28.5448020" lon="-16.2007350">
        <ele>480.9</ele>
        <time>2020-11-11T07:27:15Z</time>
      </trkpt>
      <trkpt lat="28.5448020" lon="-16.2007350">
        <ele>480.9</ele>
        <time>2020-11-11T07:27:16Z</time>
      </trkpt>
      <trkpt lat="28.5448450" lon="-16.2007350">
        <ele>480.9</ele>
        <time>2020-11-11T07:27:17Z</time>
      </trkpt>
      <trkpt lat="28.5448450" lon="-16.2007350">
        <ele>480.9</ele>
        <time>2020-11-11T07:27:18Z</time>
      </trkpt>
      <trkpt lat="28.5448920" lon="-16.2007400">
        <ele>480.9</ele>
        <time>2020-11-11T07:27:19Z</time>
      </trkpt>
      <trkpt lat="28.5448920" lon="-16.2007400">
        <ele>480.9</ele>
        <time>2020-11-11T07:27:20Z</time>
      </trkpt>
      <trkpt lat="28.5449380" lon="-16.2007500">
        <ele>480.9</ele>
        <time>2020-11-11T07:27:21Z</time>
      </trkpt>
      <trkpt lat="28.5449620" lon="-16.2007580">
        <ele>481.9</ele>
        <time>2020-11-11T07:27:22Z</time>
      </trkpt>
      <trkpt lat="28.5449620" lon="-16.2007580">
        <ele>481.9</ele>
        <time>2020-11-11T07:27:23Z</time>
      </trkpt>
      <trkpt lat="28.5450100" lon="-16.2007770">
        <ele>481.9</ele>
        <time>2020-11-11T07:27:24Z</time>
      </trkpt>
      <trkpt lat="28.5450300" lon="-16.2007880">
        <ele>481.9</ele>
        <time>2020-11-11T07:27:25Z</time>
      </trkpt>
      <trkpt lat="28.5450300" lon="-16.2007880">
        <ele>481.9</ele>
        <time>2020-11-11T07:27:26Z</time>
      </trkpt>
      <trkpt lat="28.5450670" lon="-16.2008170">
        <ele>481.9</ele>
        <time>2020-11-11T07:27:27Z</time>
      </trkpt>
      <trkpt lat="28.5450670" lon="-16.2008170">
        <ele>482.9</ele>
        <time>2020-11-11T07:27:28Z</time>
      </trkpt>
      <trkpt lat="28.5451100" lon="-16.2008430">
        <ele>482.9</ele>
        <time>2020-11-11T07:27:29Z</time>
      </trkpt>
      <trkpt lat="28.5451100" lon="-16.2008430">
        <ele>482.9</ele>
        <time>2020-11-11T07:27:30Z</time>
      </trkpt>
      <trkpt lat="28.5451550" lon="-16.2008630">
        <ele>482.9</ele>
        <time>2020-11-11T07:27:31Z</time>
      </trkpt>
      <trkpt lat="28.5451550" lon="-16.2008630">
        <ele>482.9</ele>
        <time>2020-11-11T07:27:32Z</time>
      </trkpt>
      <trkpt lat="28.5451980" lon="-16.2008800">
        <ele>482.9</ele>
        <time>2020-11-11T07:27:33Z</time>
      </trkpt>
      <trkpt lat="28.5451980" lon="-16.2008800">
        <ele>483.9</ele>
        <time>2020-11-11T07:27:34Z</time>
      </trkpt>
      <trkpt lat="28.5452380" lon="-16.2009030">
        <ele>483.9</ele>
        <time>2020-11-11T07:27:35Z</time>
      </trkpt>
      <trkpt lat="28.5452580" lon="-16.2009130">
        <ele>483.9</ele>
        <time>2020-11-11T07:27:36Z</time>
      </trkpt>
      <trkpt lat="28.5452580" lon="-16.2009130">
        <ele>484.9</ele>
        <time>2020-11-11T07:27:37Z</time>
      </trkpt>
      <trkpt lat="28.5453020" lon="-16.2009320">
        <ele>484.9</ele>
        <time>2020-11-11T07:27:38Z</time>
      </trkpt>
      <trkpt lat="28.5453020" lon="-16.2009320">
        <ele>484.9</ele>
        <time>2020-11-11T07:27:39Z</time>
      </trkpt>
      <trkpt lat="28.5453370" lon="-16.2009650">
        <ele>484.9</ele>
        <time>2020-11-11T07:27:40Z</time>
      </trkpt>
      <trkpt lat="28.5453370" lon="-16.2009650">
        <ele>484.9</ele>
        <time>2020-11-11T07:27:41Z</time>
      </trkpt>
      <trkpt lat="28.5453770" lon="-16.2009900">
        <ele>484.9</ele>
        <time>2020-11-11T07:27:42Z</time>
      </trkpt>
      <trkpt lat="28.5453770" lon="-16.2009900">
        <ele>484.9</ele>
        <time>2020-11-11T07:27:43Z</time>
      </trkpt>
      <trkpt lat="28.5454200" lon="-16.2010100">
        <ele>484.9</ele>
        <time>2020-11-11T07:27:44Z</time>
      </trkpt>
      <trkpt lat="28.5454200" lon="-16.2010100">
        <ele>485.9</ele>
        <time>2020-11-11T07:27:45Z</time>
      </trkpt>
      <trkpt lat="28.5454600" lon="-16.2010420">
        <ele>485.9</ele>
        <time>2020-11-11T07:27:46Z</time>
      </trkpt>
      <trkpt lat="28.5454820" lon="-16.2010550">
        <ele>485.9</ele>
        <time>2020-11-11T07:27:47Z</time>
      </trkpt>
      <trkpt lat="28.5454820" lon="-16.2010550">
        <ele>485.9</ele>
        <time>2020-11-11T07:27:48Z</time>
      </trkpt>
      <trkpt lat="28.5455280" lon="-16.2010770">
        <ele>486.9</ele>
        <time>2020-11-11T07:27:49Z</time>
      </trkpt>
      <trkpt lat="28.5455280" lon="-16.2010770">
        <ele>486.9</ele>
        <time>2020-11-11T07:27:50Z</time>
      </trkpt>
      <trkpt lat="28.5455770" lon="-16.2010870">
        <ele>486.9</ele>
        <time>2020-11-11T07:27:51Z</time>
      </trkpt>
      <trkpt lat="28.5455770" lon="-16.2010870">
        <ele>486.9</ele>
        <time>2020-11-11T07:27:52Z</time>
      </trkpt>
      <trkpt lat="28.5456180" lon="-16.2011080">
        <ele>486.9</ele>
        <time>2020-11-11T07:27:53Z</time>
      </trkpt>
      <trkpt lat="28.5456380" lon="-16.2011230">
        <ele>486.9</ele>
        <time>2020-11-11T07:27:54Z</time>
      </trkpt>
      <trkpt lat="28.5456380" lon="-16.2011230">
        <ele>486.9</ele>
        <time>2020-11-11T07:27:55Z</time>
      </trkpt>
      <trkpt lat="28.5456830" lon="-16.2011480">
        <ele>486.9</ele>
        <time>2020-11-11T07:27:56Z</time>
      </trkpt>
      <trkpt lat="28.5456830" lon="-16.2011480">
        <ele>486.9</ele>
        <time>2020-11-11T07:27:57Z</time>
      </trkpt>
      <trkpt lat="28.5457280" lon="-16.2011650">
        <ele>486.9</ele>
        <time>2020-11-11T07:27:58Z</time>
      </trkpt>
      <trkpt lat="28.5457280" lon="-16.2011650">
        <ele>487.9</ele>
        <time>2020-11-11T07:27:59Z</time>
      </trkpt>
      <trkpt lat="28.5457680" lon="-16.2011750">
        <ele>487.9</ele>
        <time>2020-11-11T07:28:00Z</time>
      </trkpt>
      <trkpt lat="28.5457920" lon="-16.2011780">
        <ele>487.9</ele>
        <time>2020-11-11T07:28:01Z</time>
      </trkpt>
      <trkpt lat="28.5457920" lon="-16.2011780">
        <ele>487.9</ele>
        <time>2020-11-11T07:28:02Z</time>
      </trkpt>
      <trkpt lat="28.5458380" lon="-16.2011830">
        <ele>487.9</ele>
        <time>2020-11-11T07:28:03Z</time>
      </trkpt>
      <trkpt lat="28.5458620" lon="-16.2011830">
        <ele>487.9</ele>
        <time>2020-11-11T07:28:04Z</time>
      </trkpt>
      <trkpt lat="28.5458620" lon="-16.2011830">
        <ele>487.9</ele>
        <time>2020-11-11T07:28:05Z</time>
      </trkpt>
      <trkpt lat="28.5459100" lon="-16.2012050">
        <ele>487.9</ele>
        <time>2020-11-11T07:28:06Z</time>
      </trkpt>
      <trkpt lat="28.5459330" lon="-16.2012170">
        <ele>488.9</ele>
        <time>2020-11-11T07:28:07Z</time>
      </trkpt>
      <trkpt lat="28.5459330" lon="-16.2012170">
        <ele>488.9</ele>
        <time>2020-11-11T07:28:08Z</time>
      </trkpt>
      <trkpt lat="28.5459880" lon="-16.2012400">
        <ele>488.9</ele>
        <time>2020-11-11T07:28:09Z</time>
      </trkpt>
      <trkpt lat="28.5460100" lon="-16.2012550">
        <ele>488.9</ele>
        <time>2020-11-11T07:28:10Z</time>
      </trkpt>
      <trkpt lat="28.5460100" lon="-16.2012550">
        <ele>488.9</ele>
        <time>2020-11-11T07:28:11Z</time>
      </trkpt>
      <trkpt lat="28.5460570" lon="-16.2012880">
        <ele>488.9</ele>
        <time>2020-11-11T07:28:12Z</time>
      </trkpt>
      <trkpt lat="28.5460570" lon="-16.2012880">
        <ele>489.9</ele>
        <time>2020-11-11T07:28:13Z</time>
      </trkpt>
      <trkpt lat="28.5460970" lon="-16.2013300">
        <ele>489.9</ele>
        <time>2020-11-11T07:28:14Z</time>
      </trkpt>
      <trkpt lat="28.5460970" lon="-16.2013300">
        <ele>489.9</ele>
        <time>2020-11-11T07:28:15Z</time>
      </trkpt>
      <trkpt lat="28.5461180" lon="-16.2013880">
        <ele>489.9</ele>
        <time>2020-11-11T07:28:16Z</time>
      </trkpt>
      <trkpt lat="28.5461180" lon="-16.2013880">
        <ele>489.9</ele>
        <time>2020-11-11T07:28:17Z</time>
      </trkpt>
      <trkpt lat="28.5461300" lon="-16.2014570">
        <ele>489.9</ele>
        <time>2020-11-11T07:28:18Z</time>
      </trkpt>
      <trkpt lat="28.5461320" lon="-16.2014880">
        <ele>489.9</ele>
        <time>2020-11-11T07:28:19Z</time>
      </trkpt>
      <trkpt lat="28.5461320" lon="-16.2014880">
        <ele>489.9</ele>
        <time>2020-11-11T07:28:20Z</time>
      </trkpt>
      <trkpt lat="28.5461300" lon="-16.2015480">
        <ele>489.9</ele>
        <time>2020-11-11T07:28:21Z</time>
      </trkpt>
      <trkpt lat="28.5461300" lon="-16.2015480">
        <ele>489.9</ele>
        <time>2020-11-11T07:28:22Z</time>
      </trkpt>
      <trkpt lat="28.5461150" lon="-16.2016100">
        <ele>490.9</ele>
        <time>2020-11-11T07:28:23Z</time>
      </trkpt>
      <trkpt lat="28.5461150" lon="-16.2016100">
        <ele>490.9</ele>
        <time>2020-11-11T07:28:24Z</time>
      </trkpt>
      <trkpt lat="28.5460920" lon="-16.2016700">
        <ele>490.9</ele>
        <time>2020-11-11T07:28:25Z</time>
      </trkpt>
      <trkpt lat="28.5460920" lon="-16.2016700">
        <ele>490.9</ele>
        <time>2020-11-11T07:28:26Z</time>
      </trkpt>
      <trkpt lat="28.5460620" lon="-16.2017200">
        <ele>490.9</ele>
        <time>2020-11-11T07:28:27Z</time>
      </trkpt>
      <trkpt lat="28.5460620" lon="-16.2017200">
        <ele>490.9</ele>
        <time>2020-11-11T07:28:28Z</time>
      </trkpt>
      <trkpt lat="28.5460280" lon="-16.2017700">
        <ele>491.9</ele>
        <time>2020-11-11T07:28:29Z</time>
      </trkpt>
      <trkpt lat="28.5460280" lon="-16.2017700">
        <ele>491.9</ele>
        <time>2020-11-11T07:28:30Z</time>
      </trkpt>
      <trkpt lat="28.5459820" lon="-16.2018170">
        <ele>491.9</ele>
        <time>2020-11-11T07:28:31Z</time>
      </trkpt>
      <trkpt lat="28.5459820" lon="-16.2018170">
        <ele>491.9</ele>
        <time>2020-11-11T07:28:32Z</time>
      </trkpt>
      <trkpt lat="28.5459330" lon="-16.2018530">
        <ele>491.9</ele>
        <time>2020-11-11T07:28:33Z</time>
      </trkpt>
      <trkpt lat="28.5459330" lon="-16.2018530">
        <ele>491.9</ele>
        <time>2020-11-11T07:28:34Z</time>
      </trkpt>
      <trkpt lat="28.5458980" lon="-16.2019000">
        <ele>491.9</ele>
        <time>2020-11-11T07:28:35Z</time>
      </trkpt>
      <trkpt lat="28.5458980" lon="-16.2019000">
        <ele>491.9</ele>
        <time>2020-11-11T07:28:36Z</time>
      </trkpt>
      <trkpt lat="28.5458770" lon="-16.2019580">
        <ele>492.9</ele>
        <time>2020-11-11T07:28:37Z</time>
      </trkpt>
      <trkpt lat="28.5458770" lon="-16.2019580">
        <ele>492.9</ele>
        <time>2020-11-11T07:28:38Z</time>
      </trkpt>
      <trkpt lat="28.5458630" lon="-16.2020120">
        <ele>493.9</ele>
        <time>2020-11-11T07:28:39Z</time>
      </trkpt>
      <trkpt lat="28.5458630" lon="-16.2020120">
        <ele>493.9</ele>
        <time>2020-11-11T07:28:40Z</time>
      </trkpt>
      <trkpt lat="28.5458530" lon="-16.2020720">
        <ele>493.9</ele>
        <time>2020-11-11T07:28:41Z</time>
      </trkpt>
      <trkpt lat="28.5458530" lon="-16.2020720">
        <ele>493.9</ele>
        <time>2020-11-11T07:28:42Z</time>
      </trkpt>
      <trkpt lat="28.5458530" lon="-16.2021350">
        <ele>494.9</ele>
        <time>2020-11-11T07:28:43Z</time>
      </trkpt>
      <trkpt lat="28.5458530" lon="-16.2021350">
        <ele>494.9</ele>
        <time>2020-11-11T07:28:44Z</time>
      </trkpt>
      <trkpt lat="28.5458530" lon="-16.2021950">
        <ele>494.9</ele>
        <time>2020-11-11T07:28:45Z</time>
      </trkpt>
      <trkpt lat="28.5458530" lon="-16.2021950">
        <ele>494.9</ele>
        <time>2020-11-11T07:28:46Z</time>
      </trkpt>
      <trkpt lat="28.5458570" lon="-16.2022530">
        <ele>495.9</ele>
        <time>2020-11-11T07:28:47Z</time>
      </trkpt>
      <trkpt lat="28.5458580" lon="-16.2022850">
        <ele>495.9</ele>
        <time>2020-11-11T07:28:48Z</time>
      </trkpt>
      <trkpt lat="28.5458570" lon="-16.2023150">
        <ele>495.9</ele>
        <time>2020-11-11T07:28:49Z</time>
      </trkpt>
      <trkpt lat="28.5458570" lon="-16.2023150">
        <ele>495.9</ele>
        <time>2020-11-11T07:28:50Z</time>
      </trkpt>
      <trkpt lat="28.5458480" lon="-16.2023730">
        <ele>496.9</ele>
        <time>2020-11-11T07:28:51Z</time>
      </trkpt>
      <trkpt lat="28.5458480" lon="-16.2023730">
        <ele>496.9</ele>
        <time>2020-11-11T07:28:52Z</time>
      </trkpt>
      <trkpt lat="28.5458350" lon="-16.2024320">
        <ele>496.9</ele>
        <time>2020-11-11T07:28:53Z</time>
      </trkpt>
      <trkpt lat="28.5458350" lon="-16.2024320">
        <ele>496.9</ele>
        <time>2020-11-11T07:28:54Z</time>
      </trkpt>
      <trkpt lat="28.5458070" lon="-16.2024830">
        <ele>496.9</ele>
        <time>2020-11-11T07:28:55Z</time>
      </trkpt>
      <trkpt lat="28.5458070" lon="-16.2024830">
        <ele>496.9</ele>
        <time>2020-11-11T07:28:56Z</time>
      </trkpt>
      <trkpt lat="28.5457670" lon="-16.2025220">
        <ele>496.9</ele>
        <time>2020-11-11T07:28:57Z</time>
      </trkpt>
      <trkpt lat="28.5457470" lon="-16.2025380">
        <ele>496.9</ele>
        <time>2020-11-11T07:28:58Z</time>
      </trkpt>
      <trkpt lat="28.5457470" lon="-16.2025380">
        <ele>496.9</ele>
        <time>2020-11-11T07:28:59Z</time>
      </trkpt>
      <trkpt lat="28.5457070" lon="-16.2025600">
        <ele>497.9</ele>
        <time>2020-11-11T07:29:00Z</time>
      </trkpt>
      <trkpt lat="28.5457070" lon="-16.2025600">
        <ele>497.9</ele>
        <time>2020-11-11T07:29:01Z</time>
      </trkpt>
      <trkpt lat="28.5456700" lon="-16.2025800">
        <ele>497.9</ele>
        <time>2020-11-11T07:29:02Z</time>
      </trkpt>
      <trkpt lat="28.5456480" lon="-16.2025870">
        <ele>497.9</ele>
        <time>2020-11-11T07:29:03Z</time>
      </trkpt>
      <trkpt lat="28.5456480" lon="-16.2025870">
        <ele>498.9</ele>
        <time>2020-11-11T07:29:04Z</time>
      </trkpt>
      <trkpt lat="28.5456020" lon="-16.2026000">
        <ele>498.9</ele>
        <time>2020-11-11T07:29:05Z</time>
      </trkpt>
      <trkpt lat="28.5456020" lon="-16.2026000">
        <ele>498.9</ele>
        <time>2020-11-11T07:29:06Z</time>
      </trkpt>
      <trkpt lat="28.5455520" lon="-16.2026070">
        <ele>498.9</ele>
        <time>2020-11-11T07:29:07Z</time>
      </trkpt>
      <trkpt lat="28.5455520" lon="-16.2026070">
        <ele>499.9</ele>
        <time>2020-11-11T07:29:08Z</time>
      </trkpt>
      <trkpt lat="28.5455020" lon="-16.2026050">
        <ele>499.9</ele>
        <time>2020-11-11T07:29:09Z</time>
      </trkpt>
      <trkpt lat="28.5455020" lon="-16.2026050">
        <ele>499.9</ele>
        <time>2020-11-11T07:29:10Z</time>
      </trkpt>
      <trkpt lat="28.5454520" lon="-16.2025930">
        <ele>499.9</ele>
        <time>2020-11-11T07:29:11Z</time>
      </trkpt>
      <trkpt lat="28.5454270" lon="-16.2025820">
        <ele>499.9</ele>
        <time>2020-11-11T07:29:12Z</time>
      </trkpt>
      <trkpt lat="28.5454270" lon="-16.2025820">
        <ele>499.9</ele>
        <time>2020-11-11T07:29:13Z</time>
      </trkpt>
      <trkpt lat="28.5453770" lon="-16.2025580">
        <ele>500.9</ele>
        <time>2020-11-11T07:29:14Z</time>
      </trkpt>
      <trkpt lat="28.5453530" lon="-16.2025470">
        <ele>500.9</ele>
        <time>2020-11-11T07:29:15Z</time>
      </trkpt>
      <trkpt lat="28.5453530" lon="-16.2025470">
        <ele>500.9</ele>
        <time>2020-11-11T07:29:16Z</time>
      </trkpt>
      <trkpt lat="28.5453100" lon="-16.2025170">
        <ele>500.9</ele>
        <time>2020-11-11T07:29:17Z</time>
      </trkpt>
      <trkpt lat="28.5453100" lon="-16.2025170">
        <ele>501.9</ele>
        <time>2020-11-11T07:29:18Z</time>
      </trkpt>
      <trkpt lat="28.5452700" lon="-16.2024850">
        <ele>501.9</ele>
        <time>2020-11-11T07:29:19Z</time>
      </trkpt>
      <trkpt lat="28.5452700" lon="-16.2024850">
        <ele>501.9</ele>
        <time>2020-11-11T07:29:20Z</time>
      </trkpt>
      <trkpt lat="28.5452250" lon="-16.2024600">
        <ele>501.9</ele>
        <time>2020-11-11T07:29:21Z</time>
      </trkpt>
      <trkpt lat="28.5452250" lon="-16.2024600">
        <ele>501.9</ele>
        <time>2020-11-11T07:29:22Z</time>
      </trkpt>
      <trkpt lat="28.5451820" lon="-16.2024420">
        <ele>502.9</ele>
        <time>2020-11-11T07:29:23Z</time>
      </trkpt>
      <trkpt lat="28.5451820" lon="-16.2024420">
        <ele>502.9</ele>
        <time>2020-11-11T07:29:24Z</time>
      </trkpt>
      <trkpt lat="28.5451350" lon="-16.2024370">
        <ele>502.9</ele>
        <time>2020-11-11T07:29:25Z</time>
      </trkpt>
      <trkpt lat="28.5451350" lon="-16.2024370">
        <ele>502.9</ele>
        <time>2020-11-11T07:29:26Z</time>
      </trkpt>
      <trkpt lat="28.5450920" lon="-16.2024580">
        <ele>502.9</ele>
        <time>2020-11-11T07:29:27Z</time>
      </trkpt>
      <trkpt lat="28.5450920" lon="-16.2024580">
        <ele>502.9</ele>
        <time>2020-11-11T07:29:28Z</time>
      </trkpt>
      <trkpt lat="28.5450500" lon="-16.2024830">
        <ele>502.9</ele>
        <time>2020-11-11T07:29:29Z</time>
      </trkpt>
      <trkpt lat="28.5450280" lon="-16.2024920">
        <ele>502.9</ele>
        <time>2020-11-11T07:29:30Z</time>
      </trkpt>
      <trkpt lat="28.5450280" lon="-16.2024920">
        <ele>502.9</ele>
        <time>2020-11-11T07:29:31Z</time>
      </trkpt>
      <trkpt lat="28.5449850" lon="-16.2025120">
        <ele>502.9</ele>
        <time>2020-11-11T07:29:32Z</time>
      </trkpt>
      <trkpt lat="28.5449650" lon="-16.2025200">
        <ele>502.9</ele>
        <time>2020-11-11T07:29:33Z</time>
      </trkpt>
      <trkpt lat="28.5449650" lon="-16.2025200">
        <ele>502.9</ele>
        <time>2020-11-11T07:29:34Z</time>
      </trkpt>
      <trkpt lat="28.5449220" lon="-16.2025430">
        <ele>502.9</ele>
        <time>2020-11-11T07:29:35Z</time>
      </trkpt>
      <trkpt lat="28.5449020" lon="-16.2025550">
        <ele>503.9</ele>
        <time>2020-11-11T07:29:36Z</time>
      </trkpt>
      <trkpt lat="28.5449020" lon="-16.2025550">
        <ele>503.9</ele>
        <time>2020-11-11T07:29:37Z</time>
      </trkpt>
      <trkpt lat="28.5448580" lon="-16.2025770">
        <ele>503.9</ele>
        <time>2020-11-11T07:29:38Z</time>
      </trkpt>
      <trkpt lat="28.5448350" lon="-16.2025880">
        <ele>503.9</ele>
        <time>2020-11-11T07:29:39Z</time>
      </trkpt>
      <trkpt lat="28.5448350" lon="-16.2025880">
        <ele>503.9</ele>
        <time>2020-11-11T07:29:40Z</time>
      </trkpt>
      <trkpt lat="28.5447880" lon="-16.2026100">
        <ele>503.9</ele>
        <time>2020-11-11T07:29:41Z</time>
      </trkpt>
      <trkpt lat="28.5447880" lon="-16.2026100">
        <ele>504.9</ele>
        <time>2020-11-11T07:29:42Z</time>
      </trkpt>
      <trkpt lat="28.5447350" lon="-16.2026180">
        <ele>504.9</ele>
        <time>2020-11-11T07:29:43Z</time>
      </trkpt>
      <trkpt lat="28.5447350" lon="-16.2026180">
        <ele>504.9</ele>
        <time>2020-11-11T07:29:44Z</time>
      </trkpt>
      <trkpt lat="28.5446800" lon="-16.2026180">
        <ele>504.9</ele>
        <time>2020-11-11T07:29:45Z</time>
      </trkpt>
      <trkpt lat="28.5446800" lon="-16.2026180">
        <ele>504.9</ele>
        <time>2020-11-11T07:29:46Z</time>
      </trkpt>
      <trkpt lat="28.5446270" lon="-16.2026200">
        <ele>504.9</ele>
        <time>2020-11-11T07:29:47Z</time>
      </trkpt>
      <trkpt lat="28.5446270" lon="-16.2026200">
        <ele>504.9</ele>
        <time>2020-11-11T07:29:48Z</time>
      </trkpt>
      <trkpt lat="28.5445720" lon="-16.2026200">
        <ele>505.9</ele>
        <time>2020-11-11T07:29:49Z</time>
      </trkpt>
      <trkpt lat="28.5445720" lon="-16.2026200">
        <ele>505.9</ele>
        <time>2020-11-11T07:29:50Z</time>
      </trkpt>
      <trkpt lat="28.5445180" lon="-16.2026230">
        <ele>505.9</ele>
        <time>2020-11-11T07:29:51Z</time>
      </trkpt>
      <trkpt lat="28.5444900" lon="-16.2026300">
        <ele>505.9</ele>
        <time>2020-11-11T07:29:52Z</time>
      </trkpt>
      <trkpt lat="28.5444900" lon="-16.2026300">
        <ele>505.9</ele>
        <time>2020-11-11T07:29:53Z</time>
      </trkpt>
      <trkpt lat="28.5444350" lon="-16.2026370">
        <ele>505.9</ele>
        <time>2020-11-11T07:29:54Z</time>
      </trkpt>
      <trkpt lat="28.5444080" lon="-16.2026400">
        <ele>506.9</ele>
        <time>2020-11-11T07:29:55Z</time>
      </trkpt>
      <trkpt lat="28.5444080" lon="-16.2026400">
        <ele>506.9</ele>
        <time>2020-11-11T07:29:56Z</time>
      </trkpt>
      <trkpt lat="28.5443520" lon="-16.2026520">
        <ele>506.9</ele>
        <time>2020-11-11T07:29:57Z</time>
      </trkpt>
      <trkpt lat="28.5443520" lon="-16.2026520">
        <ele>506.9</ele>
        <time>2020-11-11T07:29:58Z</time>
      </trkpt>
      <trkpt lat="28.5443070" lon="-16.2026720">
        <ele>506.9</ele>
        <time>2020-11-11T07:29:59Z</time>
      </trkpt>
      <trkpt lat="28.5443070" lon="-16.2026720">
        <ele>506.9</ele>
        <time>2020-11-11T07:30:00Z</time>
      </trkpt>
      <trkpt lat="28.5442670" lon="-16.2027120">
        <ele>507.9</ele>
        <time>2020-11-11T07:30:01Z</time>
      </trkpt>
      <trkpt lat="28.5442670" lon="-16.2027120">
        <ele>507.9</ele>
        <time>2020-11-11T07:30:02Z</time>
      </trkpt>
      <trkpt lat="28.5442250" lon="-16.2027550">
        <ele>507.9</ele>
        <time>2020-11-11T07:30:03Z</time>
      </trkpt>
      <trkpt lat="28.5442250" lon="-16.2027550">
        <ele>507.9</ele>
        <time>2020-11-11T07:30:04Z</time>
      </trkpt>
      <trkpt lat="28.5441820" lon="-16.2027920">
        <ele>507.9</ele>
        <time>2020-11-11T07:30:05Z</time>
      </trkpt>
      <trkpt lat="28.5441820" lon="-16.2027920">
        <ele>507.9</ele>
        <time>2020-11-11T07:30:06Z</time>
      </trkpt>
      <trkpt lat="28.5441370" lon="-16.2028150">
        <ele>508.9</ele>
        <time>2020-11-11T07:30:07Z</time>
      </trkpt>
      <trkpt lat="28.5441370" lon="-16.2028150">
        <ele>508.9</ele>
        <time>2020-11-11T07:30:08Z</time>
      </trkpt>
      <trkpt lat="28.5440920" lon="-16.2028370">
        <ele>508.9</ele>
        <time>2020-11-11T07:30:09Z</time>
      </trkpt>
      <trkpt lat="28.5440920" lon="-16.2028370">
        <ele>509.9</ele>
        <time>2020-11-11T07:30:10Z</time>
      </trkpt>
      <trkpt lat="28.5440470" lon="-16.2028600">
        <ele>509.9</ele>
        <time>2020-11-11T07:30:11Z</time>
      </trkpt>
      <trkpt lat="28.5440470" lon="-16.2028600">
        <ele>509.9</ele>
        <time>2020-11-11T07:30:12Z</time>
      </trkpt>
      <trkpt lat="28.5439970" lon="-16.2028700">
        <ele>509.9</ele>
        <time>2020-11-11T07:30:13Z</time>
      </trkpt>
      <trkpt lat="28.5439970" lon="-16.2028700">
        <ele>509.9</ele>
        <time>2020-11-11T07:30:14Z</time>
      </trkpt>
      <trkpt lat="28.5439400" lon="-16.2028780">
        <ele>509.9</ele>
        <time>2020-11-11T07:30:15Z</time>
      </trkpt>
      <trkpt lat="28.5439400" lon="-16.2028780">
        <ele>509.9</ele>
        <time>2020-11-11T07:30:16Z</time>
      </trkpt>
      <trkpt lat="28.5438900" lon="-16.2028850">
        <ele>509.9</ele>
        <time>2020-11-11T07:30:17Z</time>
      </trkpt>
      <trkpt lat="28.5438900" lon="-16.2028850">
        <ele>509.9</ele>
        <time>2020-11-11T07:30:18Z</time>
      </trkpt>
      <trkpt lat="28.5438330" lon="-16.2028950">
        <ele>510.9</ele>
        <time>2020-11-11T07:30:19Z</time>
      </trkpt>
      <trkpt lat="28.5438330" lon="-16.2028950">
        <ele>510.9</ele>
        <time>2020-11-11T07:30:20Z</time>
      </trkpt>
      <trkpt lat="28.5437820" lon="-16.2029120">
        <ele>510.9</ele>
        <time>2020-11-11T07:30:21Z</time>
      </trkpt>
      <trkpt lat="28.5437600" lon="-16.2029250">
        <ele>510.9</ele>
        <time>2020-11-11T07:30:22Z</time>
      </trkpt>
      <trkpt lat="28.5437600" lon="-16.2029250">
        <ele>510.9</ele>
        <time>2020-11-11T07:30:23Z</time>
      </trkpt>
      <trkpt lat="28.5437230" lon="-16.2029580">
        <ele>510.9</ele>
        <time>2020-11-11T07:30:24Z</time>
      </trkpt>
      <trkpt lat="28.5437230" lon="-16.2029580">
        <ele>510.9</ele>
        <time>2020-11-11T07:30:25Z</time>
      </trkpt>
      <trkpt lat="28.5437000" lon="-16.2030030">
        <ele>510.9</ele>
        <time>2020-11-11T07:30:26Z</time>
      </trkpt>
      <trkpt lat="28.5436950" lon="-16.2030330">
        <ele>511.9</ele>
        <time>2020-11-11T07:30:27Z</time>
      </trkpt>
      <trkpt lat="28.5436950" lon="-16.2030330">
        <ele>511.9</ele>
        <time>2020-11-11T07:30:28Z</time>
      </trkpt>
      <trkpt lat="28.5436970" lon="-16.2030930">
        <ele>512.9</ele>
        <time>2020-11-11T07:30:29Z</time>
      </trkpt>
      <trkpt lat="28.5436970" lon="-16.2030930">
        <ele>512.9</ele>
        <time>2020-11-11T07:30:30Z</time>
      </trkpt>
      <trkpt lat="28.5437080" lon="-16.2031380">
        <ele>512.9</ele>
        <time>2020-11-11T07:30:31Z</time>
      </trkpt>
      <trkpt lat="28.5437080" lon="-16.2031380">
        <ele>512.9</ele>
        <time>2020-11-11T07:30:32Z</time>
      </trkpt>
      <trkpt lat="28.5437420" lon="-16.2031730">
        <ele>513.9</ele>
        <time>2020-11-11T07:30:33Z</time>
      </trkpt>
      <trkpt lat="28.5437650" lon="-16.2031980">
        <ele>513.9</ele>
        <time>2020-11-11T07:30:34Z</time>
      </trkpt>
      <trkpt lat="28.5437650" lon="-16.2031980">
        <ele>513.9</ele>
        <time>2020-11-11T07:30:35Z</time>
      </trkpt>
      <trkpt lat="28.5438120" lon="-16.2032300">
        <ele>513.9</ele>
        <time>2020-11-11T07:30:36Z</time>
      </trkpt>
      <trkpt lat="28.5438120" lon="-16.2032300">
        <ele>514.9</ele>
        <time>2020-11-11T07:30:37Z</time>
      </trkpt>
      <trkpt lat="28.5438570" lon="-16.2032600">
        <ele>514.9</ele>
        <time>2020-11-11T07:30:38Z</time>
      </trkpt>
      <trkpt lat="28.5438780" lon="-16.2032730">
        <ele>514.9</ele>
        <time>2020-11-11T07:30:39Z</time>
      </trkpt>
      <trkpt lat="28.5438780" lon="-16.2032730">
        <ele>514.9</ele>
        <time>2020-11-11T07:30:40Z</time>
      </trkpt>
      <trkpt lat="28.5439170" lon="-16.2033050">
        <ele>514.9</ele>
        <time>2020-11-11T07:30:41Z</time>
      </trkpt>
      <trkpt lat="28.5439170" lon="-16.2033050">
        <ele>514.9</ele>
        <time>2020-11-11T07:30:42Z</time>
      </trkpt>
      <trkpt lat="28.5439550" lon="-16.2033280">
        <ele>515.9</ele>
        <time>2020-11-11T07:30:43Z</time>
      </trkpt>
      <trkpt lat="28.5439550" lon="-16.2033280">
        <ele>515.9</ele>
        <time>2020-11-11T07:30:44Z</time>
      </trkpt>
      <trkpt lat="28.5439920" lon="-16.2033570">
        <ele>515.9</ele>
        <time>2020-11-11T07:30:45Z</time>
      </trkpt>
      <trkpt lat="28.5439920" lon="-16.2033570">
        <ele>515.9</ele>
        <time>2020-11-11T07:30:46Z</time>
      </trkpt>
      <trkpt lat="28.5440330" lon="-16.2033820">
        <ele>515.9</ele>
        <time>2020-11-11T07:30:47Z</time>
      </trkpt>
      <trkpt lat="28.5440530" lon="-16.2033930">
        <ele>515.9</ele>
        <time>2020-11-11T07:30:48Z</time>
      </trkpt>
      <trkpt lat="28.5440530" lon="-16.2033930">
        <ele>515.9</ele>
        <time>2020-11-11T07:30:49Z</time>
      </trkpt>
      <trkpt lat="28.5440950" lon="-16.2034120">
        <ele>516.9</ele>
        <time>2020-11-11T07:30:50Z</time>
      </trkpt>
      <trkpt lat="28.5440950" lon="-16.2034120">
        <ele>516.9</ele>
        <time>2020-11-11T07:30:51Z</time>
      </trkpt>
      <trkpt lat="28.5441370" lon="-16.2034320">
        <ele>516.9</ele>
        <time>2020-11-11T07:30:52Z</time>
      </trkpt>
      <trkpt lat="28.5441370" lon="-16.2034320">
        <ele>516.9</ele>
        <time>2020-11-11T07:30:53Z</time>
      </trkpt>
      <trkpt lat="28.5441780" lon="-16.2034530">
        <ele>516.9</ele>
        <time>2020-11-11T07:30:54Z</time>
      </trkpt>
      <trkpt lat="28.5442020" lon="-16.2034650">
        <ele>516.9</ele>
        <time>2020-11-11T07:30:55Z</time>
      </trkpt>
      <trkpt lat="28.5442020" lon="-16.2034650">
        <ele>517.9</ele>
        <time>2020-11-11T07:30:56Z</time>
      </trkpt>
      <trkpt lat="28.5442480" lon="-16.2034820">
        <ele>517.9</ele>
        <time>2020-11-11T07:30:57Z</time>
      </trkpt>
      <trkpt lat="28.5442700" lon="-16.2034930">
        <ele>517.9</ele>
        <time>2020-11-11T07:30:58Z</time>
      </trkpt>
      <trkpt lat="28.5442920" lon="-16.2035070">
        <ele>517.9</ele>
        <time>2020-11-11T07:30:59Z</time>
      </trkpt>
      <trkpt lat="28.5442920" lon="-16.2035070">
        <ele>517.9</ele>
        <time>2020-11-11T07:31:00Z</time>
      </trkpt>
      <trkpt lat="28.5443350" lon="-16.2035320">
        <ele>517.9</ele>
        <time>2020-11-11T07:31:01Z</time>
      </trkpt>
      <trkpt lat="28.5443350" lon="-16.2035320">
        <ele>517.9</ele>
        <time>2020-11-11T07:31:02Z</time>
      </trkpt>
      <trkpt lat="28.5443780" lon="-16.2035520">
        <ele>517.9</ele>
        <time>2020-11-11T07:31:03Z</time>
      </trkpt>
      <trkpt lat="28.5443780" lon="-16.2035520">
        <ele>517.9</ele>
        <time>2020-11-11T07:31:04Z</time>
      </trkpt>
      <trkpt lat="28.5444200" lon="-16.2035830">
        <ele>517.9</ele>
        <time>2020-11-11T07:31:05Z</time>
      </trkpt>
      <trkpt lat="28.5444200" lon="-16.2035830">
        <ele>517.9</ele>
        <time>2020-11-11T07:31:06Z</time>
      </trkpt>
      <trkpt lat="28.5444550" lon="-16.2036070">
        <ele>517.9</ele>
        <time>2020-11-11T07:31:07Z</time>
      </trkpt>
      <trkpt lat="28.5444550" lon="-16.2036070">
        <ele>518.9</ele>
        <time>2020-11-11T07:31:08Z</time>
      </trkpt>
      <trkpt lat="28.5444970" lon="-16.2036280">
        <ele>518.9</ele>
        <time>2020-11-11T07:31:09Z</time>
      </trkpt>
      <trkpt lat="28.5444970" lon="-16.2036280">
        <ele>518.9</ele>
        <time>2020-11-11T07:31:10Z</time>
      </trkpt>
      <trkpt lat="28.5445380" lon="-16.2036480">
        <ele>518.9</ele>
        <time>2020-11-11T07:31:11Z</time>
      </trkpt>
      <trkpt lat="28.5445580" lon="-16.2036570">
        <ele>518.9</ele>
        <time>2020-11-11T07:31:12Z</time>
      </trkpt>
      <trkpt lat="28.5445800" lon="-16.2036600">
        <ele>518.9</ele>
        <time>2020-11-11T07:31:13Z</time>
      </trkpt>
      <trkpt lat="28.5445800" lon="-16.2036600">
        <ele>518.9</ele>
        <time>2020-11-11T07:31:14Z</time>
      </trkpt>
      <trkpt lat="28.5446230" lon="-16.2036780">
        <ele>518.9</ele>
        <time>2020-11-11T07:31:15Z</time>
      </trkpt>
      <trkpt lat="28.5446230" lon="-16.2036780">
        <ele>519.9</ele>
        <time>2020-11-11T07:31:16Z</time>
      </trkpt>
      <trkpt lat="28.5446600" lon="-16.2037050">
        <ele>519.9</ele>
        <time>2020-11-11T07:31:17Z</time>
      </trkpt>
      <trkpt lat="28.5446600" lon="-16.2037050">
        <ele>519.9</ele>
        <time>2020-11-11T07:31:18Z</time>
      </trkpt>
      <trkpt lat="28.5447000" lon="-16.2037230">
        <ele>519.9</ele>
        <time>2020-11-11T07:31:19Z</time>
      </trkpt>
      <trkpt lat="28.5447220" lon="-16.2037320">
        <ele>519.9</ele>
        <time>2020-11-11T07:31:20Z</time>
      </trkpt>
      <trkpt lat="28.5447220" lon="-16.2037320">
        <ele>520.9</ele>
        <time>2020-11-11T07:31:21Z</time>
      </trkpt>
      <trkpt lat="28.5447600" lon="-16.2037500">
        <ele>520.9</ele>
        <time>2020-11-11T07:31:22Z</time>
      </trkpt>
      <trkpt lat="28.5447600" lon="-16.2037500">
        <ele>520.9</ele>
        <time>2020-11-11T07:31:23Z</time>
      </trkpt>
      <trkpt lat="28.5447930" lon="-16.2037820">
        <ele>520.9</ele>
        <time>2020-11-11T07:31:24Z</time>
      </trkpt>
      <trkpt lat="28.5448080" lon="-16.2037980">
        <ele>520.9</ele>
        <time>2020-11-11T07:31:25Z</time>
      </trkpt>
      <trkpt lat="28.5448080" lon="-16.2037980">
        <ele>521.9</ele>
        <time>2020-11-11T07:31:26Z</time>
      </trkpt>
      <trkpt lat="28.5448400" lon="-16.2038350">
        <ele>521.9</ele>
        <time>2020-11-11T07:31:27Z</time>
      </trkpt>
      <trkpt lat="28.5448400" lon="-16.2038350">
        <ele>521.9</ele>
        <time>2020-11-11T07:31:28Z</time>
      </trkpt>
      <trkpt lat="28.5448680" lon="-16.2038780">
        <ele>521.9</ele>
        <time>2020-11-11T07:31:29Z</time>
      </trkpt>
      <trkpt lat="28.5448680" lon="-16.2038780">
        <ele>522.9</ele>
        <time>2020-11-11T07:31:30Z</time>
      </trkpt>
      <trkpt lat="28.5449020" lon="-16.2039250">
        <ele>522.9</ele>
        <time>2020-11-11T07:31:31Z</time>
      </trkpt>
      <trkpt lat="28.5449020" lon="-16.2039250">
        <ele>522.9</ele>
        <time>2020-11-11T07:31:32Z</time>
      </trkpt>
      <trkpt lat="28.5449270" lon="-16.2039800">
        <ele>522.9</ele>
        <time>2020-11-11T07:31:33Z</time>
      </trkpt>
      <trkpt lat="28.5449270" lon="-16.2039800">
        <ele>523.9</ele>
        <time>2020-11-11T07:31:34Z</time>
      </trkpt>
      <trkpt lat="28.5449470" lon="-16.2040370">
        <ele>523.9</ele>
        <time>2020-11-11T07:31:35Z</time>
      </trkpt>
      <trkpt lat="28.5449470" lon="-16.2040370">
        <ele>523.9</ele>
        <time>2020-11-11T07:31:36Z</time>
      </trkpt>
      <trkpt lat="28.5449620" lon="-16.2040880">
        <ele>523.9</ele>
        <time>2020-11-11T07:31:37Z</time>
      </trkpt>
      <trkpt lat="28.5449650" lon="-16.2041200">
        <ele>523.9</ele>
        <time>2020-11-11T07:31:38Z</time>
      </trkpt>
      <trkpt lat="28.5449650" lon="-16.2041200">
        <ele>523.9</ele>
        <time>2020-11-11T07:31:39Z</time>
      </trkpt>
      <trkpt lat="28.5449770" lon="-16.2041780">
        <ele>524.9</ele>
        <time>2020-11-11T07:31:40Z</time>
      </trkpt>
      <trkpt lat="28.5449770" lon="-16.2041780">
        <ele>524.9</ele>
        <time>2020-11-11T07:31:41Z</time>
      </trkpt>
      <trkpt lat="28.5449720" lon="-16.2042450">
        <ele>524.9</ele>
        <time>2020-11-11T07:31:42Z</time>
      </trkpt>
      <trkpt lat="28.5449530" lon="-16.2042850">
        <ele>524.9</ele>
        <time>2020-11-11T07:31:43Z</time>
      </trkpt>
      <trkpt lat="28.5449530" lon="-16.2042850">
        <ele>524.9</ele>
        <time>2020-11-11T07:31:44Z</time>
      </trkpt>
      <trkpt lat="28.5449150" lon="-16.2043420">
        <ele>524.9</ele>
        <time>2020-11-11T07:31:45Z</time>
      </trkpt>
      <trkpt lat="28.5449150" lon="-16.2043420">
        <ele>524.9</ele>
        <time>2020-11-11T07:31:46Z</time>
      </trkpt>
      <trkpt lat="28.5448620" lon="-16.2043870">
        <ele>524.9</ele>
        <time>2020-11-11T07:31:47Z</time>
      </trkpt>
      <trkpt lat="28.5448620" lon="-16.2043870">
        <ele>524.9</ele>
        <time>2020-11-11T07:31:48Z</time>
      </trkpt>
      <trkpt lat="28.5448030" lon="-16.2044080">
        <ele>524.9</ele>
        <time>2020-11-11T07:31:49Z</time>
      </trkpt>
      <trkpt lat="28.5448030" lon="-16.2044080">
        <ele>525.9</ele>
        <time>2020-11-11T07:31:50Z</time>
      </trkpt>
      <trkpt lat="28.5447400" lon="-16.2044180">
        <ele>525.9</ele>
        <time>2020-11-11T07:31:51Z</time>
      </trkpt>
      <trkpt lat="28.5447400" lon="-16.2044180">
        <ele>525.9</ele>
        <time>2020-11-11T07:31:52Z</time>
      </trkpt>
      <trkpt lat="28.5446820" lon="-16.2044370">
        <ele>525.9</ele>
        <time>2020-11-11T07:31:53Z</time>
      </trkpt>
      <trkpt lat="28.5446580" lon="-16.2044520">
        <ele>525.9</ele>
        <time>2020-11-11T07:31:54Z</time>
      </trkpt>
      <trkpt lat="28.5446580" lon="-16.2044520">
        <ele>525.9</ele>
        <time>2020-11-11T07:31:55Z</time>
      </trkpt>
      <trkpt lat="28.5446120" lon="-16.2044800">
        <ele>526.9</ele>
        <time>2020-11-11T07:31:56Z</time>
      </trkpt>
      <trkpt lat="28.5446120" lon="-16.2044800">
        <ele>526.9</ele>
        <time>2020-11-11T07:31:57Z</time>
      </trkpt>
      <trkpt lat="28.5445770" lon="-16.2045170">
        <ele>526.9</ele>
        <time>2020-11-11T07:31:58Z</time>
      </trkpt>
      <trkpt lat="28.5445770" lon="-16.2045170">
        <ele>526.9</ele>
        <time>2020-11-11T07:31:59Z</time>
      </trkpt>
      <trkpt lat="28.5445380" lon="-16.2045430">
        <ele>527.9</ele>
        <time>2020-11-11T07:32:00Z</time>
      </trkpt>
      <trkpt lat="28.5445270" lon="-16.2045630">
        <ele>527.9</ele>
        <time>2020-11-11T07:32:01Z</time>
      </trkpt>
      <trkpt lat="28.5445270" lon="-16.2045630">
        <ele>527.9</ele>
        <time>2020-11-11T07:32:02Z</time>
      </trkpt>
      <trkpt lat="28.5445000" lon="-16.2046130">
        <ele>527.9</ele>
        <time>2020-11-11T07:32:03Z</time>
      </trkpt>
      <trkpt lat="28.5445000" lon="-16.2046130">
        <ele>528.9</ele>
        <time>2020-11-11T07:32:04Z</time>
      </trkpt>
      <trkpt lat="28.5444780" lon="-16.2046580">
        <ele>528.9</ele>
        <time>2020-11-11T07:32:05Z</time>
      </trkpt>
      <trkpt lat="28.5444680" lon="-16.2046820">
        <ele>528.9</ele>
        <time>2020-11-11T07:32:06Z</time>
      </trkpt>
      <trkpt lat="28.5444680" lon="-16.2046820">
        <ele>529.9</ele>
        <time>2020-11-11T07:32:07Z</time>
      </trkpt>
      <trkpt lat="28.5444550" lon="-16.2047250">
        <ele>529.9</ele>
        <time>2020-11-11T07:32:08Z</time>
      </trkpt>
      <trkpt lat="28.5444550" lon="-16.2047250">
        <ele>529.9</ele>
        <time>2020-11-11T07:32:09Z</time>
      </trkpt>
      <trkpt lat="28.5444330" lon="-16.2047700">
        <ele>529.9</ele>
        <time>2020-11-11T07:32:10Z</time>
      </trkpt>
      <trkpt lat="28.5444220" lon="-16.2047880">
        <ele>529.9</ele>
        <time>2020-11-11T07:32:11Z</time>
      </trkpt>
      <trkpt lat="28.5444220" lon="-16.2047880">
        <ele>529.9</ele>
        <time>2020-11-11T07:32:12Z</time>
      </trkpt>
      <trkpt lat="28.5444020" lon="-16.2048200">
        <ele>530.9</ele>
        <time>2020-11-11T07:32:13Z</time>
      </trkpt>
      <trkpt lat="28.5444020" lon="-16.2048200">
        <ele>530.9</ele>
        <time>2020-11-11T07:32:14Z</time>
      </trkpt>
      <trkpt lat="28.5443800" lon="-16.2048650">
        <ele>530.9</ele>
        <time>2020-11-11T07:32:15Z</time>
      </trkpt>
      <trkpt lat="28.5443800" lon="-16.2048650">
        <ele>530.9</ele>
        <time>2020-11-11T07:32:16Z</time>
      </trkpt>
      <trkpt lat="28.5443600" lon="-16.2049100">
        <ele>530.9</ele>
        <time>2020-11-11T07:32:17Z</time>
      </trkpt>
      <trkpt lat="28.5443600" lon="-16.2049100">
        <ele>530.9</ele>
        <time>2020-11-11T07:32:18Z</time>
      </trkpt>
      <trkpt lat="28.5443450" lon="-16.2049680">
        <ele>530.9</ele>
        <time>2020-11-11T07:32:19Z</time>
      </trkpt>
      <trkpt lat="28.5443450" lon="-16.2049680">
        <ele>530.9</ele>
        <time>2020-11-11T07:32:20Z</time>
      </trkpt>
      <trkpt lat="28.5443230" lon="-16.2050070">
        <ele>530.9</ele>
        <time>2020-11-11T07:32:21Z</time>
      </trkpt>
      <trkpt lat="28.5443120" lon="-16.2050230">
        <ele>530.9</ele>
        <time>2020-11-11T07:32:22Z</time>
      </trkpt>
      <trkpt lat="28.5443120" lon="-16.2050230">
        <ele>530.9</ele>
        <time>2020-11-11T07:32:23Z</time>
      </trkpt>
      <trkpt lat="28.5442820" lon="-16.2050350">
        <ele>530.9</ele>
        <time>2020-11-11T07:32:24Z</time>
      </trkpt>
      <trkpt lat="28.5442820" lon="-16.2050350">
        <ele>531.9</ele>
        <time>2020-11-11T07:32:25Z</time>
      </trkpt>
      <trkpt lat="28.5442600" lon="-16.2050150">
        <ele>531.9</ele>
        <time>2020-11-11T07:32:26Z</time>
      </trkpt>
      <trkpt lat="28.5442600" lon="-16.2050150">
        <ele>531.9</ele>
        <time>2020-11-11T07:32:27Z</time>
      </trkpt>
      <trkpt lat="28.5442320" lon="-16.2050200">
        <ele>531.9</ele>
        <time>2020-11-11T07:32:28Z</time>
      </trkpt>
      <trkpt lat="28.5442320" lon="-16.2050200">
        <ele>531.9</ele>
        <time>2020-11-11T07:32:29Z</time>
      </trkpt>
      <trkpt lat="28.5442050" lon="-16.2050330">
        <ele>531.9</ele>
        <time>2020-11-11T07:32:30Z</time>
      </trkpt>
      <trkpt lat="28.5442050" lon="-16.2050330">
        <ele>531.9</ele>
        <time>2020-11-11T07:32:31Z</time>
      </trkpt>
      <trkpt lat="28.5441750" lon="-16.2050500">
        <ele>531.9</ele>
        <time>2020-11-11T07:32:32Z</time>
      </trkpt>
      <trkpt lat="28.5441750" lon="-16.2050500">
        <ele>531.9</ele>
        <time>2020-11-11T07:32:33Z</time>
      </trkpt>
      <trkpt lat="28.5441470" lon="-16.2050650">
        <ele>531.9</ele>
        <time>2020-11-11T07:32:34Z</time>
      </trkpt>
      <trkpt lat="28.5441470" lon="-16.2050650">
        <ele>532.9</ele>
        <time>2020-11-11T07:32:35Z</time>
      </trkpt>
      <trkpt lat="28.5441130" lon="-16.2050770">
        <ele>532.9</ele>
        <time>2020-11-11T07:32:36Z</time>
      </trkpt>
      <trkpt lat="28.5440930" lon="-16.2050720">
        <ele>532.9</ele>
        <time>2020-11-11T07:32:37Z</time>
      </trkpt>
      <trkpt lat="28.5440930" lon="-16.2050720">
        <ele>532.9</ele>
        <time>2020-11-11T07:32:38Z</time>
      </trkpt>
      <trkpt lat="28.5440630" lon="-16.2050720">
        <ele>532.9</ele>
        <time>2020-11-11T07:32:39Z</time>
      </trkpt>
      <trkpt lat="28.5440470" lon="-16.2050750">
        <ele>532.9</ele>
        <time>2020-11-11T07:32:40Z</time>
      </trkpt>
      <trkpt lat="28.5440470" lon="-16.2050750">
        <ele>532.9</ele>
        <time>2020-11-11T07:32:41Z</time>
      </trkpt>
      <trkpt lat="28.5440080" lon="-16.2050770">
        <ele>532.9</ele>
        <time>2020-11-11T07:32:42Z</time>
      </trkpt>
      <trkpt lat="28.5440080" lon="-16.2050770">
        <ele>532.9</ele>
        <time>2020-11-11T07:32:43Z</time>
      </trkpt>
      <trkpt lat="28.5439730" lon="-16.2050830">
        <ele>533.9</ele>
        <time>2020-11-11T07:32:44Z</time>
      </trkpt>
      <trkpt lat="28.5439730" lon="-16.2050830">
        <ele>533.9</ele>
        <time>2020-11-11T07:32:45Z</time>
      </trkpt>
      <trkpt lat="28.5439400" lon="-16.2050850">
        <ele>533.9</ele>
        <time>2020-11-11T07:32:46Z</time>
      </trkpt>
      <trkpt lat="28.5439220" lon="-16.2050900">
        <ele>533.9</ele>
        <time>2020-11-11T07:32:47Z</time>
      </trkpt>
      <trkpt lat="28.5439220" lon="-16.2050900">
        <ele>533.9</ele>
        <time>2020-11-11T07:32:48Z</time>
      </trkpt>
      <trkpt lat="28.5438870" lon="-16.2050920">
        <ele>533.9</ele>
        <time>2020-11-11T07:32:49Z</time>
      </trkpt>
      <trkpt lat="28.5438720" lon="-16.2050970">
        <ele>533.9</ele>
        <time>2020-11-11T07:32:50Z</time>
      </trkpt>
      <trkpt lat="28.5438720" lon="-16.2050970">
        <ele>533.9</ele>
        <time>2020-11-11T07:32:51Z</time>
      </trkpt>
      <trkpt lat="28.5438400" lon="-16.2051150">
        <ele>533.9</ele>
        <time>2020-11-11T07:32:52Z</time>
      </trkpt>
      <trkpt lat="28.5438400" lon="-16.2051150">
        <ele>533.9</ele>
        <time>2020-11-11T07:32:53Z</time>
      </trkpt>
      <trkpt lat="28.5438130" lon="-16.2051370">
        <ele>534.9</ele>
        <time>2020-11-11T07:32:54Z</time>
      </trkpt>
      <trkpt lat="28.5438020" lon="-16.2051480">
        <ele>534.9</ele>
        <time>2020-11-11T07:32:55Z</time>
      </trkpt>
      <trkpt lat="28.5437900" lon="-16.2051650">
        <ele>534.9</ele>
        <time>2020-11-11T07:32:56Z</time>
      </trkpt>
      <trkpt lat="28.5437900" lon="-16.2051650">
        <ele>534.9</ele>
        <time>2020-11-11T07:32:57Z</time>
      </trkpt>
      <trkpt lat="28.5437670" lon="-16.2051980">
        <ele>534.9</ele>
        <time>2020-11-11T07:32:58Z</time>
      </trkpt>
      <trkpt lat="28.5437670" lon="-16.2051980">
        <ele>534.9</ele>
        <time>2020-11-11T07:32:59Z</time>
      </trkpt>
      <trkpt lat="28.5437470" lon="-16.2052370">
        <ele>535.9</ele>
        <time>2020-11-11T07:33:00Z</time>
      </trkpt>
      <trkpt lat="28.5437350" lon="-16.2052530">
        <ele>535.9</ele>
        <time>2020-11-11T07:33:01Z</time>
      </trkpt>
      <trkpt lat="28.5437350" lon="-16.2052530">
        <ele>535.9</ele>
        <time>2020-11-11T07:33:02Z</time>
      </trkpt>
      <trkpt lat="28.5437030" lon="-16.2052930">
        <ele>535.9</ele>
        <time>2020-11-11T07:33:03Z</time>
      </trkpt>
      <trkpt lat="28.5436880" lon="-16.2053130">
        <ele>535.9</ele>
        <time>2020-11-11T07:33:04Z</time>
      </trkpt>
      <trkpt lat="28.5436880" lon="-16.2053130">
        <ele>535.9</ele>
        <time>2020-11-11T07:33:05Z</time>
      </trkpt>
      <trkpt lat="28.5436620" lon="-16.2053550">
        <ele>535.9</ele>
        <time>2020-11-11T07:33:06Z</time>
      </trkpt>
      <trkpt lat="28.5436480" lon="-16.2053700">
        <ele>535.9</ele>
        <time>2020-11-11T07:33:07Z</time>
      </trkpt>
      <trkpt lat="28.5436480" lon="-16.2053700">
        <ele>535.9</ele>
        <time>2020-11-11T07:33:08Z</time>
      </trkpt>
      <trkpt lat="28.5436170" lon="-16.2053980">
        <ele>535.9</ele>
        <time>2020-11-11T07:33:09Z</time>
      </trkpt>
      <trkpt lat="28.5436170" lon="-16.2053980">
        <ele>536.9</ele>
        <time>2020-11-11T07:33:10Z</time>
      </trkpt>
      <trkpt lat="28.5436000" lon="-16.2054070">
        <ele>536.9</ele>
        <time>2020-11-11T07:33:11Z</time>
      </trkpt>
      <trkpt lat="28.5436000" lon="-16.2054050">
        <ele>536.9</ele>
        <time>2020-11-11T07:33:44Z</time>
      </trkpt>
      <trkpt lat="28.5436000" lon="-16.2054050">
        <ele>536.9</ele>
        <time>2020-11-11T07:33:45Z</time>
      </trkpt>
      <trkpt lat="28.5435320" lon="-16.2054130">
        <ele>537.9</ele>
        <time>2020-11-11T07:33:46Z</time>
      </trkpt>
      <trkpt lat="28.5435320" lon="-16.2054130">
        <ele>537.9</ele>
        <time>2020-11-11T07:33:47Z</time>
      </trkpt>
      <trkpt lat="28.5434800" lon="-16.2054100">
        <ele>537.9</ele>
        <time>2020-11-11T07:33:48Z</time>
      </trkpt>
      <trkpt lat="28.5434800" lon="-16.2054100">
        <ele>537.9</ele>
        <time>2020-11-11T07:33:49Z</time>
      </trkpt>
      <trkpt lat="28.5434350" lon="-16.2054000">
        <ele>538.9</ele>
        <time>2020-11-11T07:33:50Z</time>
      </trkpt>
      <trkpt lat="28.5434350" lon="-16.2054000">
        <ele>538.9</ele>
        <time>2020-11-11T07:33:51Z</time>
      </trkpt>
      <trkpt lat="28.5433930" lon="-16.2053850">
        <ele>538.9</ele>
        <time>2020-11-11T07:33:52Z</time>
      </trkpt>
      <trkpt lat="28.5433930" lon="-16.2053850">
        <ele>538.9</ele>
        <time>2020-11-11T07:33:53Z</time>
      </trkpt>
      <trkpt lat="28.5433670" lon="-16.2053500">
        <ele>538.9</ele>
        <time>2020-11-11T07:33:54Z</time>
      </trkpt>
      <trkpt lat="28.5433670" lon="-16.2053500">
        <ele>538.9</ele>
        <time>2020-11-11T07:33:55Z</time>
      </trkpt>
      <trkpt lat="28.5433450" lon="-16.2053100">
        <ele>539.9</ele>
        <time>2020-11-11T07:33:56Z</time>
      </trkpt>
      <trkpt lat="28.5433450" lon="-16.2053100">
        <ele>539.9</ele>
        <time>2020-11-11T07:33:57Z</time>
      </trkpt>
      <trkpt lat="28.5433370" lon="-16.2052670">
        <ele>539.9</ele>
        <time>2020-11-11T07:33:58Z</time>
      </trkpt>
      <trkpt lat="28.5433370" lon="-16.2052670">
        <ele>539.9</ele>
        <time>2020-11-11T07:33:59Z</time>
      </trkpt>
      <trkpt lat="28.5433120" lon="-16.2052130">
        <ele>539.9</ele>
        <time>2020-11-11T07:34:00Z</time>
      </trkpt>
      <trkpt lat="28.5433120" lon="-16.2052130">
        <ele>539.9</ele>
        <time>2020-11-11T07:34:01Z</time>
      </trkpt>
      <trkpt lat="28.5432920" lon="-16.2051480">
        <ele>539.9</ele>
        <time>2020-11-11T07:34:02Z</time>
      </trkpt>
      <trkpt lat="28.5432920" lon="-16.2051480">
        <ele>539.9</ele>
        <time>2020-11-11T07:34:03Z</time>
      </trkpt>
      <trkpt lat="28.5432630" lon="-16.2050770">
        <ele>540.9</ele>
        <time>2020-11-11T07:34:04Z</time>
      </trkpt>
      <trkpt lat="28.5432630" lon="-16.2050770">
        <ele>540.9</ele>
        <time>2020-11-11T07:34:05Z</time>
      </trkpt>
      <trkpt lat="28.5432500" lon="-16.2050280">
        <ele>540.9</ele>
        <time>2020-11-11T07:34:06Z</time>
      </trkpt>
      <trkpt lat="28.5432500" lon="-16.2050280">
        <ele>540.9</ele>
        <time>2020-11-11T07:34:07Z</time>
      </trkpt>
      <trkpt lat="28.5432370" lon="-16.2049830">
        <ele>541.9</ele>
        <time>2020-11-11T07:34:08Z</time>
      </trkpt>
      <trkpt lat="28.5432370" lon="-16.2049830">
        <ele>541.9</ele>
        <time>2020-11-11T07:34:09Z</time>
      </trkpt>
      <trkpt lat="28.5432180" lon="-16.2049400">
        <ele>541.9</ele>
        <time>2020-11-11T07:34:10Z</time>
      </trkpt>
      <trkpt lat="28.5432180" lon="-16.2049400">
        <ele>541.9</ele>
        <time>2020-11-11T07:34:11Z</time>
      </trkpt>
      <trkpt lat="28.5431950" lon="-16.2049000">
        <ele>542.9</ele>
        <time>2020-11-11T07:34:12Z</time>
      </trkpt>
      <trkpt lat="28.5431950" lon="-16.2049000">
        <ele>542.9</ele>
        <time>2020-11-11T07:34:13Z</time>
      </trkpt>
      <trkpt lat="28.5431580" lon="-16.2048670">
        <ele>542.9</ele>
        <time>2020-11-11T07:34:14Z</time>
      </trkpt>
      <trkpt lat="28.5431580" lon="-16.2048670">
        <ele>542.9</ele>
        <time>2020-11-11T07:34:15Z</time>
      </trkpt>
      <trkpt lat="28.5431150" lon="-16.2048420">
        <ele>542.9</ele>
        <time>2020-11-11T07:34:16Z</time>
      </trkpt>
      <trkpt lat="28.5431150" lon="-16.2048420">
        <ele>542.9</ele>
        <time>2020-11-11T07:34:17Z</time>
      </trkpt>
      <trkpt lat="28.5430630" lon="-16.2048330">
        <ele>543.9</ele>
        <time>2020-11-11T07:34:18Z</time>
      </trkpt>
      <trkpt lat="28.5430380" lon="-16.2048280">
        <ele>543.9</ele>
        <time>2020-11-11T07:34:19Z</time>
      </trkpt>
      <trkpt lat="28.5430380" lon="-16.2048280">
        <ele>543.9</ele>
        <time>2020-11-11T07:34:20Z</time>
      </trkpt>
      <trkpt lat="28.5429900" lon="-16.2048200">
        <ele>543.9</ele>
        <time>2020-11-11T07:34:21Z</time>
      </trkpt>
      <trkpt lat="28.5429650" lon="-16.2048150">
        <ele>543.9</ele>
        <time>2020-11-11T07:34:22Z</time>
      </trkpt>
      <trkpt lat="28.5429650" lon="-16.2048150">
        <ele>544.9</ele>
        <time>2020-11-11T07:34:23Z</time>
      </trkpt>
      <trkpt lat="28.5429130" lon="-16.2048070">
        <ele>544.9</ele>
        <time>2020-11-11T07:34:24Z</time>
      </trkpt>
      <trkpt lat="28.5428870" lon="-16.2048020">
        <ele>544.9</ele>
        <time>2020-11-11T07:34:25Z</time>
      </trkpt>
      <trkpt lat="28.5428870" lon="-16.2048020">
        <ele>544.9</ele>
        <time>2020-11-11T07:34:26Z</time>
      </trkpt>
      <trkpt lat="28.5428370" lon="-16.2047950">
        <ele>544.9</ele>
        <time>2020-11-11T07:34:27Z</time>
      </trkpt>
      <trkpt lat="28.5428170" lon="-16.2047930">
        <ele>544.9</ele>
        <time>2020-11-11T07:34:28Z</time>
      </trkpt>
      <trkpt lat="28.5428170" lon="-16.2047930">
        <ele>545.9</ele>
        <time>2020-11-11T07:34:29Z</time>
      </trkpt>
      <trkpt lat="28.5427820" lon="-16.2047750">
        <ele>545.9</ele>
        <time>2020-11-11T07:34:30Z</time>
      </trkpt>
      <trkpt lat="28.5427820" lon="-16.2047750">
        <ele>545.9</ele>
        <time>2020-11-11T07:34:31Z</time>
      </trkpt>
      <trkpt lat="28.5427400" lon="-16.2047470">
        <ele>545.9</ele>
        <time>2020-11-11T07:34:32Z</time>
      </trkpt>
      <trkpt lat="28.5427220" lon="-16.2047330">
        <ele>545.9</ele>
        <time>2020-11-11T07:34:33Z</time>
      </trkpt>
      <trkpt lat="28.5427220" lon="-16.2047330">
        <ele>545.9</ele>
        <time>2020-11-11T07:34:34Z</time>
      </trkpt>
      <trkpt lat="28.5426850" lon="-16.2046980">
        <ele>546.9</ele>
        <time>2020-11-11T07:34:35Z</time>
      </trkpt>
      <trkpt lat="28.5426850" lon="-16.2046980">
        <ele>546.9</ele>
        <time>2020-11-11T07:34:36Z</time>
      </trkpt>
      <trkpt lat="28.5426580" lon="-16.2046450">
        <ele>546.9</ele>
        <time>2020-11-11T07:34:37Z</time>
      </trkpt>
      <trkpt lat="28.5426500" lon="-16.2046170">
        <ele>546.9</ele>
        <time>2020-11-11T07:34:38Z</time>
      </trkpt>
      <trkpt lat="28.5426500" lon="-16.2046170">
        <ele>546.9</ele>
        <time>2020-11-11T07:34:39Z</time>
      </trkpt>
      <trkpt lat="28.5426380" lon="-16.2045620">
        <ele>546.9</ele>
        <time>2020-11-11T07:34:40Z</time>
      </trkpt>
      <trkpt lat="28.5426380" lon="-16.2045620">
        <ele>546.9</ele>
        <time>2020-11-11T07:34:41Z</time>
      </trkpt>
      <trkpt lat="28.5426250" lon="-16.2045070">
        <ele>546.9</ele>
        <time>2020-11-11T07:34:42Z</time>
      </trkpt>
      <trkpt lat="28.5426170" lon="-16.2044800">
        <ele>546.9</ele>
        <time>2020-11-11T07:34:43Z</time>
      </trkpt>
      <trkpt lat="28.5426080" lon="-16.2044530">
        <ele>546.9</ele>
        <time>2020-11-11T07:34:44Z</time>
      </trkpt>
      <trkpt lat="28.5426080" lon="-16.2044530">
        <ele>546.9</ele>
        <time>2020-11-11T07:34:45Z</time>
      </trkpt>
      <trkpt lat="28.5425900" lon="-16.2044020">
        <ele>546.9</ele>
        <time>2020-11-11T07:34:46Z</time>
      </trkpt>
      <trkpt lat="28.5425900" lon="-16.2044020">
        <ele>546.9</ele>
        <time>2020-11-11T07:34:47Z</time>
      </trkpt>
      <trkpt lat="28.5425500" lon="-16.2043700">
        <ele>547.9</ele>
        <time>2020-11-11T07:34:48Z</time>
      </trkpt>
      <trkpt lat="28.5425280" lon="-16.2043580">
        <ele>547.9</ele>
        <time>2020-11-11T07:34:49Z</time>
      </trkpt>
      <trkpt lat="28.5425280" lon="-16.2043580">
        <ele>547.9</ele>
        <time>2020-11-11T07:34:50Z</time>
      </trkpt>
      <trkpt lat="28.5424900" lon="-16.2043500">
        <ele>547.9</ele>
        <time>2020-11-11T07:34:51Z</time>
      </trkpt>
      <trkpt lat="28.5424770" lon="-16.2043520">
        <ele>547.9</ele>
        <time>2020-11-11T07:34:52Z</time>
      </trkpt>
      <trkpt lat="28.5424770" lon="-16.2043520">
        <ele>547.9</ele>
        <time>2020-11-11T07:34:53Z</time>
      </trkpt>
      <trkpt lat="28.5424550" lon="-16.2043550">
        <ele>548.9</ele>
        <time>2020-11-11T07:34:54Z</time>
      </trkpt>
      <trkpt lat="28.5424550" lon="-16.2043550">
        <ele>548.9</ele>
        <time>2020-11-11T07:34:55Z</time>
      </trkpt>
      <trkpt lat="28.5424380" lon="-16.2043600">
        <ele>548.9</ele>
        <time>2020-11-11T07:34:56Z</time>
      </trkpt>
      <trkpt lat="28.5424380" lon="-16.2043600">
        <ele>548.9</ele>
        <time>2020-11-11T07:34:57Z</time>
      </trkpt>
      <trkpt lat="28.5424250" lon="-16.2043670">
        <ele>548.9</ele>
        <time>2020-11-11T07:34:58Z</time>
      </trkpt>
      <trkpt lat="28.5424250" lon="-16.2043680">
        <ele>548.9</ele>
        <time>2020-11-11T07:34:59Z</time>
      </trkpt>
      <trkpt lat="28.5424230" lon="-16.2043680">
        <ele>548.9</ele>
        <time>2020-11-11T07:35:00Z</time>
      </trkpt>
      <trkpt lat="28.5424280" lon="-16.2044050">
        <ele>548.9</ele>
        <time>2020-11-11T07:37:41Z</time>
      </trkpt>
      <trkpt lat="28.5424280" lon="-16.2044050">
        <ele>548.9</ele>
        <time>2020-11-11T07:37:42Z</time>
      </trkpt>
      <trkpt lat="28.5424320" lon="-16.2044600">
        <ele>549.9</ele>
        <time>2020-11-11T07:37:43Z</time>
      </trkpt>
      <trkpt lat="28.5424320" lon="-16.2044600">
        <ele>549.9</ele>
        <time>2020-11-11T07:37:44Z</time>
      </trkpt>
      <trkpt lat="28.5424400" lon="-16.2045250">
        <ele>549.9</ele>
        <time>2020-11-11T07:37:45Z</time>
      </trkpt>
      <trkpt lat="28.5424400" lon="-16.2045250">
        <ele>549.9</ele>
        <time>2020-11-11T07:37:46Z</time>
      </trkpt>
      <trkpt lat="28.5424600" lon="-16.2045850">
        <ele>550.9</ele>
        <time>2020-11-11T07:37:47Z</time>
      </trkpt>
      <trkpt lat="28.5424600" lon="-16.2045850">
        <ele>550.9</ele>
        <time>2020-11-11T07:37:48Z</time>
      </trkpt>
      <trkpt lat="28.5424820" lon="-16.2046370">
        <ele>550.9</ele>
        <time>2020-11-11T07:37:49Z</time>
      </trkpt>
      <trkpt lat="28.5424820" lon="-16.2046370">
        <ele>550.9</ele>
        <time>2020-11-11T07:37:50Z</time>
      </trkpt>
      <trkpt lat="28.5425100" lon="-16.2046870">
        <ele>550.9</ele>
        <time>2020-11-11T07:37:51Z</time>
      </trkpt>
      <trkpt lat="28.5425230" lon="-16.2047070">
        <ele>550.9</ele>
        <time>2020-11-11T07:37:52Z</time>
      </trkpt>
      <trkpt lat="28.5425380" lon="-16.2047280">
        <ele>551.9</ele>
        <time>2020-11-11T07:37:53Z</time>
      </trkpt>
      <trkpt lat="28.5425380" lon="-16.2047280">
        <ele>551.9</ele>
        <time>2020-11-11T07:37:54Z</time>
      </trkpt>
      <trkpt lat="28.5425630" lon="-16.2047670">
        <ele>551.9</ele>
        <time>2020-11-11T07:37:55Z</time>
      </trkpt>
      <trkpt lat="28.5425630" lon="-16.2047670">
        <ele>551.9</ele>
        <time>2020-11-11T07:37:56Z</time>
      </trkpt>
      <trkpt lat="28.5425900" lon="-16.2047980">
        <ele>551.9</ele>
        <time>2020-11-11T07:37:57Z</time>
      </trkpt>
      <trkpt lat="28.5425900" lon="-16.2047980">
        <ele>551.9</ele>
        <time>2020-11-11T07:37:58Z</time>
      </trkpt>
      <trkpt lat="28.5426230" lon="-16.2048280">
        <ele>551.9</ele>
        <time>2020-11-11T07:37:59Z</time>
      </trkpt>
      <trkpt lat="28.5426230" lon="-16.2048280">
        <ele>551.9</ele>
        <time>2020-11-11T07:38:00Z</time>
      </trkpt>
      <trkpt lat="28.5426580" lon="-16.2048620">
        <ele>551.9</ele>
        <time>2020-11-11T07:38:01Z</time>
      </trkpt>
      <trkpt lat="28.5426580" lon="-16.2048620">
        <ele>551.9</ele>
        <time>2020-11-11T07:38:02Z</time>
      </trkpt>
      <trkpt lat="28.5426970" lon="-16.2048930">
        <ele>552.9</ele>
        <time>2020-11-11T07:38:03Z</time>
      </trkpt>
      <trkpt lat="28.5426970" lon="-16.2048930">
        <ele>552.9</ele>
        <time>2020-11-11T07:38:04Z</time>
      </trkpt>
      <trkpt lat="28.5427400" lon="-16.2049180">
        <ele>552.9</ele>
        <time>2020-11-11T07:38:05Z</time>
      </trkpt>
      <trkpt lat="28.5427400" lon="-16.2049180">
        <ele>552.9</ele>
        <time>2020-11-11T07:38:06Z</time>
      </trkpt>
      <trkpt lat="28.5427880" lon="-16.2049430">
        <ele>553.9</ele>
        <time>2020-11-11T07:38:07Z</time>
      </trkpt>
      <trkpt lat="28.5427880" lon="-16.2049430">
        <ele>553.9</ele>
        <time>2020-11-11T07:38:08Z</time>
      </trkpt>
      <trkpt lat="28.5428350" lon="-16.2049630">
        <ele>553.9</ele>
        <time>2020-11-11T07:38:09Z</time>
      </trkpt>
      <trkpt lat="28.5428350" lon="-16.2049630">
        <ele>553.9</ele>
        <time>2020-11-11T07:38:10Z</time>
      </trkpt>
      <trkpt lat="28.5428880" lon="-16.2049800">
        <ele>553.9</ele>
        <time>2020-11-11T07:38:11Z</time>
      </trkpt>
      <trkpt lat="28.5428880" lon="-16.2049800">
        <ele>553.9</ele>
        <time>2020-11-11T07:38:12Z</time>
      </trkpt>
      <trkpt lat="28.5429380" lon="-16.2050100">
        <ele>554.9</ele>
        <time>2020-11-11T07:38:13Z</time>
      </trkpt>
      <trkpt lat="28.5429380" lon="-16.2050100">
        <ele>554.9</ele>
        <time>2020-11-11T07:38:14Z</time>
      </trkpt>
      <trkpt lat="28.5429900" lon="-16.2050400">
        <ele>554.9</ele>
        <time>2020-11-11T07:38:15Z</time>
      </trkpt>
      <trkpt lat="28.5429900" lon="-16.2050400">
        <ele>554.9</ele>
        <time>2020-11-11T07:38:16Z</time>
      </trkpt>
      <trkpt lat="28.5430300" lon="-16.2050670">
        <ele>555.9</ele>
        <time>2020-11-11T07:38:17Z</time>
      </trkpt>
      <trkpt lat="28.5430300" lon="-16.2050670">
        <ele>555.9</ele>
        <time>2020-11-11T07:38:18Z</time>
      </trkpt>
      <trkpt lat="28.5430670" lon="-16.2051030">
        <ele>555.9</ele>
        <time>2020-11-11T07:38:19Z</time>
      </trkpt>
      <trkpt lat="28.5430670" lon="-16.2051030">
        <ele>555.9</ele>
        <time>2020-11-11T07:38:20Z</time>
      </trkpt>
      <trkpt lat="28.5430930" lon="-16.2051480">
        <ele>556.9</ele>
        <time>2020-11-11T07:38:21Z</time>
      </trkpt>
      <trkpt lat="28.5430930" lon="-16.2051480">
        <ele>556.9</ele>
        <time>2020-11-11T07:38:22Z</time>
      </trkpt>
      <trkpt lat="28.5431120" lon="-16.2051980">
        <ele>556.9</ele>
        <time>2020-11-11T07:38:23Z</time>
      </trkpt>
      <trkpt lat="28.5431120" lon="-16.2051980">
        <ele>556.9</ele>
        <time>2020-11-11T07:38:24Z</time>
      </trkpt>
      <trkpt lat="28.5431280" lon="-16.2052520">
        <ele>557.9</ele>
        <time>2020-11-11T07:38:25Z</time>
      </trkpt>
      <trkpt lat="28.5431280" lon="-16.2052520">
        <ele>557.9</ele>
        <time>2020-11-11T07:38:26Z</time>
      </trkpt>
      <trkpt lat="28.5431400" lon="-16.2053050">
        <ele>557.9</ele>
        <time>2020-11-11T07:38:27Z</time>
      </trkpt>
      <trkpt lat="28.5431400" lon="-16.2053050">
        <ele>557.9</ele>
        <time>2020-11-11T07:38:28Z</time>
      </trkpt>
      <trkpt lat="28.5431520" lon="-16.2053570">
        <ele>558.9</ele>
        <time>2020-11-11T07:38:29Z</time>
      </trkpt>
      <trkpt lat="28.5431520" lon="-16.2053570">
        <ele>558.9</ele>
        <time>2020-11-11T07:38:30Z</time>
      </trkpt>
      <trkpt lat="28.5431630" lon="-16.2054080">
        <ele>558.9</ele>
        <time>2020-11-11T07:38:31Z</time>
      </trkpt>
      <trkpt lat="28.5431630" lon="-16.2054080">
        <ele>559.9</ele>
        <time>2020-11-11T07:38:32Z</time>
      </trkpt>
      <trkpt lat="28.5431770" lon="-16.2054620">
        <ele>559.9</ele>
        <time>2020-11-11T07:38:33Z</time>
      </trkpt>
      <trkpt lat="28.5431770" lon="-16.2054620">
        <ele>559.9</ele>
        <time>2020-11-11T07:38:34Z</time>
      </trkpt>
      <trkpt lat="28.5431870" lon="-16.2055130">
        <ele>559.9</ele>
        <time>2020-11-11T07:38:35Z</time>
      </trkpt>
      <trkpt lat="28.5431870" lon="-16.2055130">
        <ele>559.9</ele>
        <time>2020-11-11T07:38:36Z</time>
      </trkpt>
      <trkpt lat="28.5432080" lon="-16.2055550">
        <ele>559.9</ele>
        <time>2020-11-11T07:38:37Z</time>
      </trkpt>
      <trkpt lat="28.5432080" lon="-16.2055550">
        <ele>560.9</ele>
        <time>2020-11-11T07:38:38Z</time>
      </trkpt>
      <trkpt lat="28.5432370" lon="-16.2055920">
        <ele>560.9</ele>
        <time>2020-11-11T07:38:39Z</time>
      </trkpt>
      <trkpt lat="28.5432370" lon="-16.2055920">
        <ele>560.9</ele>
        <time>2020-11-11T07:38:40Z</time>
      </trkpt>
      <trkpt lat="28.5432720" lon="-16.2056180">
        <ele>560.9</ele>
        <time>2020-11-11T07:38:41Z</time>
      </trkpt>
      <trkpt lat="28.5432720" lon="-16.2056180">
        <ele>561.9</ele>
        <time>2020-11-11T07:38:42Z</time>
      </trkpt>
      <trkpt lat="28.5433080" lon="-16.2056550">
        <ele>561.9</ele>
        <time>2020-11-11T07:38:43Z</time>
      </trkpt>
      <trkpt lat="28.5433080" lon="-16.2056550">
        <ele>561.9</ele>
        <time>2020-11-11T07:38:44Z</time>
      </trkpt>
      <trkpt lat="28.5433470" lon="-16.2056970">
        <ele>561.9</ele>
        <time>2020-11-11T07:38:45Z</time>
      </trkpt>
      <trkpt lat="28.5433470" lon="-16.2056970">
        <ele>561.9</ele>
        <time>2020-11-11T07:38:46Z</time>
      </trkpt>
      <trkpt lat="28.5433920" lon="-16.2057220">
        <ele>561.9</ele>
        <time>2020-11-11T07:38:47Z</time>
      </trkpt>
      <trkpt lat="28.5433920" lon="-16.2057220">
        <ele>562.9</ele>
        <time>2020-11-11T07:38:48Z</time>
      </trkpt>
      <trkpt lat="28.5434350" lon="-16.2057480">
        <ele>562.9</ele>
        <time>2020-11-11T07:38:49Z</time>
      </trkpt>
      <trkpt lat="28.5434600" lon="-16.2057550">
        <ele>562.9</ele>
        <time>2020-11-11T07:38:50Z</time>
      </trkpt>
      <trkpt lat="28.5434600" lon="-16.2057550">
        <ele>562.9</ele>
        <time>2020-11-11T07:38:51Z</time>
      </trkpt>
      <trkpt lat="28.5435050" lon="-16.2057750">
        <ele>562.9</ele>
        <time>2020-11-11T07:38:52Z</time>
      </trkpt>
      <trkpt lat="28.5435050" lon="-16.2057750">
        <ele>562.9</ele>
        <time>2020-11-11T07:38:53Z</time>
      </trkpt>
      <trkpt lat="28.5435500" lon="-16.2057830">
        <ele>562.9</ele>
        <time>2020-11-11T07:38:54Z</time>
      </trkpt>
      <trkpt lat="28.5435730" lon="-16.2057820">
        <ele>562.9</ele>
        <time>2020-11-11T07:38:55Z</time>
      </trkpt>
      <trkpt lat="28.5435730" lon="-16.2057820">
        <ele>562.9</ele>
        <time>2020-11-11T07:38:56Z</time>
      </trkpt>
      <trkpt lat="28.5436180" lon="-16.2057830">
        <ele>562.9</ele>
        <time>2020-11-11T07:38:57Z</time>
      </trkpt>
      <trkpt lat="28.5436180" lon="-16.2057830">
        <ele>563.9</ele>
        <time>2020-11-11T07:38:58Z</time>
      </trkpt>
      <trkpt lat="28.5436600" lon="-16.2057550">
        <ele>563.9</ele>
        <time>2020-11-11T07:38:59Z</time>
      </trkpt>
      <trkpt lat="28.5436600" lon="-16.2057550">
        <ele>563.9</ele>
        <time>2020-11-11T07:39:00Z</time>
      </trkpt>
      <trkpt lat="28.5437020" lon="-16.2057300">
        <ele>563.9</ele>
        <time>2020-11-11T07:39:01Z</time>
      </trkpt>
      <trkpt lat="28.5437230" lon="-16.2057150">
        <ele>564.9</ele>
        <time>2020-11-11T07:39:02Z</time>
      </trkpt>
      <trkpt lat="28.5437230" lon="-16.2057150">
        <ele>564.9</ele>
        <time>2020-11-11T07:39:03Z</time>
      </trkpt>
      <trkpt lat="28.5437650" lon="-16.2056830">
        <ele>564.9</ele>
        <time>2020-11-11T07:39:04Z</time>
      </trkpt>
      <trkpt lat="28.5437650" lon="-16.2056830">
        <ele>564.9</ele>
        <time>2020-11-11T07:39:05Z</time>
      </trkpt>
      <trkpt lat="28.5438050" lon="-16.2056570">
        <ele>564.9</ele>
        <time>2020-11-11T07:39:06Z</time>
      </trkpt>
      <trkpt lat="28.5438250" lon="-16.2056380">
        <ele>564.9</ele>
        <time>2020-11-11T07:39:07Z</time>
      </trkpt>
      <trkpt lat="28.5438250" lon="-16.2056380">
        <ele>565.9</ele>
        <time>2020-11-11T07:39:08Z</time>
      </trkpt>
      <trkpt lat="28.5438620" lon="-16.2055970">
        <ele>565.9</ele>
        <time>2020-11-11T07:39:09Z</time>
      </trkpt>
      <trkpt lat="28.5438850" lon="-16.2055850">
        <ele>565.9</ele>
        <time>2020-11-11T07:39:10Z</time>
      </trkpt>
      <trkpt lat="28.5438850" lon="-16.2055850">
        <ele>565.9</ele>
        <time>2020-11-11T07:39:11Z</time>
      </trkpt>
      <trkpt lat="28.5439280" lon="-16.2055650">
        <ele>565.9</ele>
        <time>2020-11-11T07:39:12Z</time>
      </trkpt>
      <trkpt lat="28.5439530" lon="-16.2055570">
        <ele>566.9</ele>
        <time>2020-11-11T07:39:13Z</time>
      </trkpt>
      <trkpt lat="28.5439530" lon="-16.2055570">
        <ele>566.9</ele>
        <time>2020-11-11T07:39:14Z</time>
      </trkpt>
      <trkpt lat="28.5439980" lon="-16.2055430">
        <ele>566.9</ele>
        <time>2020-11-11T07:39:15Z</time>
      </trkpt>
      <trkpt lat="28.5440170" lon="-16.2055370">
        <ele>566.9</ele>
        <time>2020-11-11T07:39:16Z</time>
      </trkpt>
      <trkpt lat="28.5440170" lon="-16.2055370">
        <ele>567.9</ele>
        <time>2020-11-11T07:39:17Z</time>
      </trkpt>
      <trkpt lat="28.5440520" lon="-16.2055400">
        <ele>567.9</ele>
        <time>2020-11-11T07:39:18Z</time>
      </trkpt>
      <trkpt lat="28.5440720" lon="-16.2055500">
        <ele>567.9</ele>
        <time>2020-11-11T07:39:19Z</time>
      </trkpt>
      <trkpt lat="28.5440720" lon="-16.2055500">
        <ele>567.9</ele>
        <time>2020-11-11T07:39:20Z</time>
      </trkpt>
      <trkpt lat="28.5441080" lon="-16.2055830">
        <ele>568.9</ele>
        <time>2020-11-11T07:39:21Z</time>
      </trkpt>
      <trkpt lat="28.5441280" lon="-16.2056000">
        <ele>568.9</ele>
        <time>2020-11-11T07:39:22Z</time>
      </trkpt>
      <trkpt lat="28.5441470" lon="-16.2056150">
        <ele>568.9</ele>
        <time>2020-11-11T07:39:23Z</time>
      </trkpt>
      <trkpt lat="28.5441470" lon="-16.2056150">
        <ele>568.9</ele>
        <time>2020-11-11T07:39:24Z</time>
      </trkpt>
      <trkpt lat="28.5441830" lon="-16.2056470">
        <ele>568.9</ele>
        <time>2020-11-11T07:39:25Z</time>
      </trkpt>
      <trkpt lat="28.5441830" lon="-16.2056470">
        <ele>568.9</ele>
        <time>2020-11-11T07:39:26Z</time>
      </trkpt>
      <trkpt lat="28.5442200" lon="-16.2056780">
        <ele>569.9</ele>
        <time>2020-11-11T07:39:27Z</time>
      </trkpt>
      <trkpt lat="28.5442200" lon="-16.2056780">
        <ele>569.9</ele>
        <time>2020-11-11T07:39:28Z</time>
      </trkpt>
      <trkpt lat="28.5442570" lon="-16.2057130">
        <ele>569.9</ele>
        <time>2020-11-11T07:39:29Z</time>
      </trkpt>
      <trkpt lat="28.5442570" lon="-16.2057130">
        <ele>569.9</ele>
        <time>2020-11-11T07:39:30Z</time>
      </trkpt>
      <trkpt lat="28.5442950" lon="-16.2057450">
        <ele>569.9</ele>
        <time>2020-11-11T07:39:31Z</time>
      </trkpt>
      <trkpt lat="28.5442950" lon="-16.2057450">
        <ele>569.9</ele>
        <time>2020-11-11T07:39:32Z</time>
      </trkpt>
      <trkpt lat="28.5443330" lon="-16.2057780">
        <ele>570.9</ele>
        <time>2020-11-11T07:39:33Z</time>
      </trkpt>
      <trkpt lat="28.5443330" lon="-16.2057780">
        <ele>570.9</ele>
        <time>2020-11-11T07:39:34Z</time>
      </trkpt>
      <trkpt lat="28.5443680" lon="-16.2058150">
        <ele>570.9</ele>
        <time>2020-11-11T07:39:35Z</time>
      </trkpt>
      <trkpt lat="28.5443680" lon="-16.2058150">
        <ele>570.9</ele>
        <time>2020-11-11T07:39:36Z</time>
      </trkpt>
      <trkpt lat="28.5444050" lon="-16.2058500">
        <ele>571.9</ele>
        <time>2020-11-11T07:39:37Z</time>
      </trkpt>
      <trkpt lat="28.5444050" lon="-16.2058500">
        <ele>571.9</ele>
        <time>2020-11-11T07:39:38Z</time>
      </trkpt>
      <trkpt lat="28.5444450" lon="-16.2058780">
        <ele>571.9</ele>
        <time>2020-11-11T07:39:39Z</time>
      </trkpt>
      <trkpt lat="28.5444650" lon="-16.2058920">
        <ele>571.9</ele>
        <time>2020-11-11T07:39:40Z</time>
      </trkpt>
      <trkpt lat="28.5444650" lon="-16.2058920">
        <ele>571.9</ele>
        <time>2020-11-11T07:39:41Z</time>
      </trkpt>
      <trkpt lat="28.5445050" lon="-16.2059230">
        <ele>571.9</ele>
        <time>2020-11-11T07:39:42Z</time>
      </trkpt>
      <trkpt lat="28.5445050" lon="-16.2059230">
        <ele>571.9</ele>
        <time>2020-11-11T07:39:43Z</time>
      </trkpt>
      <trkpt lat="28.5445420" lon="-16.2059530">
        <ele>571.9</ele>
        <time>2020-11-11T07:39:44Z</time>
      </trkpt>
      <trkpt lat="28.5445420" lon="-16.2059530">
        <ele>572.9</ele>
        <time>2020-11-11T07:39:45Z</time>
      </trkpt>
      <trkpt lat="28.5445780" lon="-16.2059830">
        <ele>572.9</ele>
        <time>2020-11-11T07:39:46Z</time>
      </trkpt>
      <trkpt lat="28.5445980" lon="-16.2060000">
        <ele>572.9</ele>
        <time>2020-11-11T07:39:47Z</time>
      </trkpt>
      <trkpt lat="28.5445980" lon="-16.2060000">
        <ele>572.9</ele>
        <time>2020-11-11T07:39:48Z</time>
      </trkpt>
      <trkpt lat="28.5446400" lon="-16.2060170">
        <ele>572.9</ele>
        <time>2020-11-11T07:39:49Z</time>
      </trkpt>
      <trkpt lat="28.5446620" lon="-16.2060200">
        <ele>573.9</ele>
        <time>2020-11-11T07:39:50Z</time>
      </trkpt>
      <trkpt lat="28.5446830" lon="-16.2060300">
        <ele>573.9</ele>
        <time>2020-11-11T07:39:51Z</time>
      </trkpt>
      <trkpt lat="28.5446830" lon="-16.2060300">
        <ele>573.9</ele>
        <time>2020-11-11T07:39:52Z</time>
      </trkpt>
      <trkpt lat="28.5447170" lon="-16.2060650">
        <ele>573.9</ele>
        <time>2020-11-11T07:39:53Z</time>
      </trkpt>
      <trkpt lat="28.5447170" lon="-16.2060650">
        <ele>573.9</ele>
        <time>2020-11-11T07:39:54Z</time>
      </trkpt>
      <trkpt lat="28.5447550" lon="-16.2060930">
        <ele>573.9</ele>
        <time>2020-11-11T07:39:55Z</time>
      </trkpt>
      <trkpt lat="28.5447550" lon="-16.2060930">
        <ele>573.9</ele>
        <time>2020-11-11T07:39:56Z</time>
      </trkpt>
      <trkpt lat="28.5447920" lon="-16.2061200">
        <ele>573.9</ele>
        <time>2020-11-11T07:39:57Z</time>
      </trkpt>
      <trkpt lat="28.5447920" lon="-16.2061200">
        <ele>575.9</ele>
        <time>2020-11-11T07:39:58Z</time>
      </trkpt>
      <trkpt lat="28.5448330" lon="-16.2061420">
        <ele>575.9</ele>
        <time>2020-11-11T07:39:59Z</time>
      </trkpt>
      <trkpt lat="28.5448330" lon="-16.2061420">
        <ele>575.9</ele>
        <time>2020-11-11T07:40:00Z</time>
      </trkpt>
      <trkpt lat="28.5448750" lon="-16.2061620">
        <ele>575.9</ele>
        <time>2020-11-11T07:40:01Z</time>
      </trkpt>
      <trkpt lat="28.5448750" lon="-16.2061620">
        <ele>575.9</ele>
        <time>2020-11-11T07:40:02Z</time>
      </trkpt>
      <trkpt lat="28.5449170" lon="-16.2061830">
        <ele>575.9</ele>
        <time>2020-11-11T07:40:03Z</time>
      </trkpt>
      <trkpt lat="28.5449170" lon="-16.2061830">
        <ele>575.9</ele>
        <time>2020-11-11T07:40:04Z</time>
      </trkpt>
      <trkpt lat="28.5449620" lon="-16.2061950">
        <ele>575.9</ele>
        <time>2020-11-11T07:40:05Z</time>
      </trkpt>
      <trkpt lat="28.5449850" lon="-16.2061980">
        <ele>575.9</ele>
        <time>2020-11-11T07:40:06Z</time>
      </trkpt>
      <trkpt lat="28.5449850" lon="-16.2061980">
        <ele>575.9</ele>
        <time>2020-11-11T07:40:07Z</time>
      </trkpt>
      <trkpt lat="28.5450330" lon="-16.2061970">
        <ele>576.9</ele>
        <time>2020-11-11T07:40:08Z</time>
      </trkpt>
      <trkpt lat="28.5450580" lon="-16.2061930">
        <ele>576.9</ele>
        <time>2020-11-11T07:40:09Z</time>
      </trkpt>
      <trkpt lat="28.5450580" lon="-16.2061930">
        <ele>576.9</ele>
        <time>2020-11-11T07:40:10Z</time>
      </trkpt>
      <trkpt lat="28.5451030" lon="-16.2061970">
        <ele>576.9</ele>
        <time>2020-11-11T07:40:11Z</time>
      </trkpt>
      <trkpt lat="28.5451250" lon="-16.2061970">
        <ele>577.9</ele>
        <time>2020-11-11T07:40:12Z</time>
      </trkpt>
      <trkpt lat="28.5451450" lon="-16.2061930">
        <ele>577.9</ele>
        <time>2020-11-11T07:40:13Z</time>
      </trkpt>
      <trkpt lat="28.5451450" lon="-16.2061930">
        <ele>577.9</ele>
        <time>2020-11-11T07:40:14Z</time>
      </trkpt>
      <trkpt lat="28.5451900" lon="-16.2061870">
        <ele>577.9</ele>
        <time>2020-11-11T07:40:15Z</time>
      </trkpt>
      <trkpt lat="28.5451900" lon="-16.2061870">
        <ele>578.9</ele>
        <time>2020-11-11T07:40:16Z</time>
      </trkpt>
      <trkpt lat="28.5452450" lon="-16.2061970">
        <ele>578.9</ele>
        <time>2020-11-11T07:40:17Z</time>
      </trkpt>
      <trkpt lat="28.5452450" lon="-16.2061970">
        <ele>579.9</ele>
        <time>2020-11-11T07:40:18Z</time>
      </trkpt>
      <trkpt lat="28.5452880" lon="-16.2061980">
        <ele>579.9</ele>
        <time>2020-11-11T07:40:19Z</time>
      </trkpt>
      <trkpt lat="28.5452880" lon="-16.2061980">
        <ele>579.9</ele>
        <time>2020-11-11T07:40:20Z</time>
      </trkpt>
      <trkpt lat="28.5453280" lon="-16.2062080">
        <ele>579.9</ele>
        <time>2020-11-11T07:40:21Z</time>
      </trkpt>
      <trkpt lat="28.5453570" lon="-16.2062170">
        <ele>579.9</ele>
        <time>2020-11-11T07:40:22Z</time>
      </trkpt>
      <trkpt lat="28.5453820" lon="-16.2062180">
        <ele>579.9</ele>
        <time>2020-11-11T07:40:23Z</time>
      </trkpt>
      <trkpt lat="28.5453820" lon="-16.2062180">
        <ele>580.9</ele>
        <time>2020-11-11T07:40:24Z</time>
      </trkpt>
      <trkpt lat="28.5454320" lon="-16.2062220">
        <ele>580.9</ele>
        <time>2020-11-11T07:40:25Z</time>
      </trkpt>
      <trkpt lat="28.5454570" lon="-16.2062280">
        <ele>580.9</ele>
        <time>2020-11-11T07:40:26Z</time>
      </trkpt>
      <trkpt lat="28.5454570" lon="-16.2062280">
        <ele>581.9</ele>
        <time>2020-11-11T07:40:27Z</time>
      </trkpt>
      <trkpt lat="28.5454970" lon="-16.2062220">
        <ele>581.9</ele>
        <time>2020-11-11T07:40:28Z</time>
      </trkpt>
      <trkpt lat="28.5455170" lon="-16.2062170">
        <ele>581.9</ele>
        <time>2020-11-11T07:40:29Z</time>
      </trkpt>
      <trkpt lat="28.5455420" lon="-16.2062080">
        <ele>581.9</ele>
        <time>2020-11-11T07:40:30Z</time>
      </trkpt>
      <trkpt lat="28.5455420" lon="-16.2062080">
        <ele>582.9</ele>
        <time>2020-11-11T07:40:31Z</time>
      </trkpt>
      <trkpt lat="28.5455850" lon="-16.2061970">
        <ele>582.9</ele>
        <time>2020-11-11T07:40:32Z</time>
      </trkpt>
      <trkpt lat="28.5456070" lon="-16.2061850">
        <ele>582.9</ele>
        <time>2020-11-11T07:40:33Z</time>
      </trkpt>
      <trkpt lat="28.5456070" lon="-16.2061850">
        <ele>582.9</ele>
        <time>2020-11-11T07:40:34Z</time>
      </trkpt>
      <trkpt lat="28.5456480" lon="-16.2061670">
        <ele>582.9</ele>
        <time>2020-11-11T07:40:35Z</time>
      </trkpt>
      <trkpt lat="28.5456480" lon="-16.2061670">
        <ele>582.9</ele>
        <time>2020-11-11T07:40:36Z</time>
      </trkpt>
      <trkpt lat="28.5456900" lon="-16.2061520">
        <ele>583.9</ele>
        <time>2020-11-11T07:40:37Z</time>
      </trkpt>
      <trkpt lat="28.5456900" lon="-16.2061520">
        <ele>583.9</ele>
        <time>2020-11-11T07:40:38Z</time>
      </trkpt>
      <trkpt lat="28.5457330" lon="-16.2061320">
        <ele>583.9</ele>
        <time>2020-11-11T07:40:39Z</time>
      </trkpt>
      <trkpt lat="28.5457330" lon="-16.2061320">
        <ele>583.9</ele>
        <time>2020-11-11T07:40:40Z</time>
      </trkpt>
      <trkpt lat="28.5457770" lon="-16.2061150">
        <ele>583.9</ele>
        <time>2020-11-11T07:40:41Z</time>
      </trkpt>
      <trkpt lat="28.5457770" lon="-16.2061150">
        <ele>584.9</ele>
        <time>2020-11-11T07:40:42Z</time>
      </trkpt>
      <trkpt lat="28.5458200" lon="-16.2061080">
        <ele>584.9</ele>
        <time>2020-11-11T07:40:43Z</time>
      </trkpt>
      <trkpt lat="28.5458200" lon="-16.2061080">
        <ele>584.9</ele>
        <time>2020-11-11T07:40:44Z</time>
      </trkpt>
      <trkpt lat="28.5458620" lon="-16.2061150">
        <ele>584.9</ele>
        <time>2020-11-11T07:40:45Z</time>
      </trkpt>
      <trkpt lat="28.5458620" lon="-16.2061150">
        <ele>585.9</ele>
        <time>2020-11-11T07:40:46Z</time>
      </trkpt>
      <trkpt lat="28.5458980" lon="-16.2061370">
        <ele>585.9</ele>
        <time>2020-11-11T07:40:47Z</time>
      </trkpt>
      <trkpt lat="28.5458980" lon="-16.2061370">
        <ele>585.9</ele>
        <time>2020-11-11T07:40:48Z</time>
      </trkpt>
      <trkpt lat="28.5459270" lon="-16.2061750">
        <ele>585.9</ele>
        <time>2020-11-11T07:40:49Z</time>
      </trkpt>
      <trkpt lat="28.5459270" lon="-16.2061750">
        <ele>585.9</ele>
        <time>2020-11-11T07:40:50Z</time>
      </trkpt>
      <trkpt lat="28.5459570" lon="-16.2062120">
        <ele>585.9</ele>
        <time>2020-11-11T07:40:51Z</time>
      </trkpt>
      <trkpt lat="28.5459570" lon="-16.2062120">
        <ele>585.9</ele>
        <time>2020-11-11T07:40:52Z</time>
      </trkpt>
      <trkpt lat="28.5459850" lon="-16.2062530">
        <ele>585.9</ele>
        <time>2020-11-11T07:40:53Z</time>
      </trkpt>
      <trkpt lat="28.5459850" lon="-16.2062530">
        <ele>586.9</ele>
        <time>2020-11-11T07:40:54Z</time>
      </trkpt>
      <trkpt lat="28.5460180" lon="-16.2062820">
        <ele>586.9</ele>
        <time>2020-11-11T07:40:55Z</time>
      </trkpt>
      <trkpt lat="28.5460180" lon="-16.2062820">
        <ele>586.9</ele>
        <time>2020-11-11T07:40:56Z</time>
      </trkpt>
      <trkpt lat="28.5460600" lon="-16.2063000">
        <ele>586.9</ele>
        <time>2020-11-11T07:40:57Z</time>
      </trkpt>
      <trkpt lat="28.5460600" lon="-16.2063000">
        <ele>586.9</ele>
        <time>2020-11-11T07:40:58Z</time>
      </trkpt>
      <trkpt lat="28.5460970" lon="-16.2063250">
        <ele>586.9</ele>
        <time>2020-11-11T07:40:59Z</time>
      </trkpt>
      <trkpt lat="28.5460970" lon="-16.2063250">
        <ele>587.9</ele>
        <time>2020-11-11T07:41:00Z</time>
      </trkpt>
      <trkpt lat="28.5461430" lon="-16.2063430">
        <ele>587.9</ele>
        <time>2020-11-11T07:41:01Z</time>
      </trkpt>
      <trkpt lat="28.5461430" lon="-16.2063430">
        <ele>587.9</ele>
        <time>2020-11-11T07:41:02Z</time>
      </trkpt>
      <trkpt lat="28.5461900" lon="-16.2063470">
        <ele>587.9</ele>
        <time>2020-11-11T07:41:03Z</time>
      </trkpt>
      <trkpt lat="28.5462130" lon="-16.2063500">
        <ele>588.9</ele>
        <time>2020-11-11T07:41:04Z</time>
      </trkpt>
      <trkpt lat="28.5462370" lon="-16.2063450">
        <ele>588.9</ele>
        <time>2020-11-11T07:41:05Z</time>
      </trkpt>
      <trkpt lat="28.5462580" lon="-16.2063400">
        <ele>588.9</ele>
        <time>2020-11-11T07:41:06Z</time>
      </trkpt>
      <trkpt lat="28.5462770" lon="-16.2063320">
        <ele>588.9</ele>
        <time>2020-11-11T07:41:07Z</time>
      </trkpt>
      <trkpt lat="28.5462770" lon="-16.2063320">
        <ele>588.9</ele>
        <time>2020-11-11T07:41:08Z</time>
      </trkpt>
      <trkpt lat="28.5463100" lon="-16.2063020">
        <ele>589.9</ele>
        <time>2020-11-11T07:41:09Z</time>
      </trkpt>
      <trkpt lat="28.5463100" lon="-16.2063020">
        <ele>589.9</ele>
        <time>2020-11-11T07:41:10Z</time>
      </trkpt>
      <trkpt lat="28.5463380" lon="-16.2062570">
        <ele>589.9</ele>
        <time>2020-11-11T07:41:11Z</time>
      </trkpt>
      <trkpt lat="28.5463550" lon="-16.2062350">
        <ele>589.9</ele>
        <time>2020-11-11T07:41:12Z</time>
      </trkpt>
      <trkpt lat="28.5463670" lon="-16.2062120">
        <ele>590.9</ele>
        <time>2020-11-11T07:41:13Z</time>
      </trkpt>
      <trkpt lat="28.5463670" lon="-16.2062120">
        <ele>590.9</ele>
        <time>2020-11-11T07:41:14Z</time>
      </trkpt>
      <trkpt lat="28.5463870" lon="-16.2061630">
        <ele>590.9</ele>
        <time>2020-11-11T07:41:15Z</time>
      </trkpt>
      <trkpt lat="28.5463870" lon="-16.2061630">
        <ele>590.9</ele>
        <time>2020-11-11T07:41:16Z</time>
      </trkpt>
      <trkpt lat="28.5464020" lon="-16.2061130">
        <ele>590.9</ele>
        <time>2020-11-11T07:41:17Z</time>
      </trkpt>
      <trkpt lat="28.5464070" lon="-16.2060850">
        <ele>590.9</ele>
        <time>2020-11-11T07:41:18Z</time>
      </trkpt>
      <trkpt lat="28.5464070" lon="-16.2060850">
        <ele>591.9</ele>
        <time>2020-11-11T07:41:19Z</time>
      </trkpt>
      <trkpt lat="28.5464130" lon="-16.2060320">
        <ele>591.9</ele>
        <time>2020-11-11T07:41:20Z</time>
      </trkpt>
      <trkpt lat="28.5464200" lon="-16.2060070">
        <ele>591.9</ele>
        <time>2020-11-11T07:41:21Z</time>
      </trkpt>
      <trkpt lat="28.5464200" lon="-16.2060070">
        <ele>591.9</ele>
        <time>2020-11-11T07:41:22Z</time>
      </trkpt>
      <trkpt lat="28.5464330" lon="-16.2059570">
        <ele>591.9</ele>
        <time>2020-11-11T07:41:23Z</time>
      </trkpt>
      <trkpt lat="28.5464330" lon="-16.2059570">
        <ele>591.9</ele>
        <time>2020-11-11T07:41:24Z</time>
      </trkpt>
      <trkpt lat="28.5464470" lon="-16.2059100">
        <ele>591.9</ele>
        <time>2020-11-11T07:41:25Z</time>
      </trkpt>
      <trkpt lat="28.5464470" lon="-16.2059100">
        <ele>591.9</ele>
        <time>2020-11-11T07:41:26Z</time>
      </trkpt>
      <trkpt lat="28.5464670" lon="-16.2058670">
        <ele>591.9</ele>
        <time>2020-11-11T07:41:27Z</time>
      </trkpt>
      <trkpt lat="28.5464670" lon="-16.2058670">
        <ele>591.9</ele>
        <time>2020-11-11T07:41:28Z</time>
      </trkpt>
      <trkpt lat="28.5464780" lon="-16.2058200">
        <ele>592.9</ele>
        <time>2020-11-11T07:41:29Z</time>
      </trkpt>
      <trkpt lat="28.5464770" lon="-16.2057950">
        <ele>592.9</ele>
        <time>2020-11-11T07:41:30Z</time>
      </trkpt>
      <trkpt lat="28.5464770" lon="-16.2057950">
        <ele>592.9</ele>
        <time>2020-11-11T07:41:31Z</time>
      </trkpt>
      <trkpt lat="28.5464720" lon="-16.2057500">
        <ele>592.9</ele>
        <time>2020-11-11T07:41:32Z</time>
      </trkpt>
      <trkpt lat="28.5464720" lon="-16.2057500">
        <ele>592.9</ele>
        <time>2020-11-11T07:41:33Z</time>
      </trkpt>
      <trkpt lat="28.5464700" lon="-16.2057100">
        <ele>592.9</ele>
        <time>2020-11-11T07:41:34Z</time>
      </trkpt>
      <trkpt lat="28.5464700" lon="-16.2057100">
        <ele>593.9</ele>
        <time>2020-11-11T07:41:35Z</time>
      </trkpt>
      <trkpt lat="28.5464600" lon="-16.2056670">
        <ele>593.9</ele>
        <time>2020-11-11T07:41:36Z</time>
      </trkpt>
      <trkpt lat="28.5464550" lon="-16.2056430">
        <ele>593.9</ele>
        <time>2020-11-11T07:41:37Z</time>
      </trkpt>
      <trkpt lat="28.5464550" lon="-16.2056430">
        <ele>593.9</ele>
        <time>2020-11-11T07:41:38Z</time>
      </trkpt>
      <trkpt lat="28.5464450" lon="-16.2055970">
        <ele>593.9</ele>
        <time>2020-11-11T07:41:39Z</time>
      </trkpt>
      <trkpt lat="28.5464450" lon="-16.2055970">
        <ele>593.9</ele>
        <time>2020-11-11T07:41:40Z</time>
      </trkpt>
      <trkpt lat="28.5464350" lon="-16.2055480">
        <ele>594.9</ele>
        <time>2020-11-11T07:41:41Z</time>
      </trkpt>
      <trkpt lat="28.5464330" lon="-16.2055220">
        <ele>594.9</ele>
        <time>2020-11-11T07:41:42Z</time>
      </trkpt>
      <trkpt lat="28.5464330" lon="-16.2055000">
        <ele>594.9</ele>
        <time>2020-11-11T07:41:43Z</time>
      </trkpt>
      <trkpt lat="28.5464330" lon="-16.2055000">
        <ele>595.9</ele>
        <time>2020-11-11T07:41:44Z</time>
      </trkpt>
      <trkpt lat="28.5464400" lon="-16.2054570">
        <ele>595.9</ele>
        <time>2020-11-11T07:41:45Z</time>
      </trkpt>
      <trkpt lat="28.5464470" lon="-16.2054350">
        <ele>595.9</ele>
        <time>2020-11-11T07:41:46Z</time>
      </trkpt>
      <trkpt lat="28.5464470" lon="-16.2054350">
        <ele>595.9</ele>
        <time>2020-11-11T07:41:47Z</time>
      </trkpt>
      <trkpt lat="28.5464650" lon="-16.2053880">
        <ele>595.9</ele>
        <time>2020-11-11T07:41:48Z</time>
      </trkpt>
      <trkpt lat="28.5464780" lon="-16.2053650">
        <ele>595.9</ele>
        <time>2020-11-11T07:41:49Z</time>
      </trkpt>
      <trkpt lat="28.5464780" lon="-16.2053650">
        <ele>597.9</ele>
        <time>2020-11-11T07:41:50Z</time>
      </trkpt>
      <trkpt lat="28.5465020" lon="-16.2053250">
        <ele>597.9</ele>
        <time>2020-11-11T07:41:51Z</time>
      </trkpt>
      <trkpt lat="28.5465020" lon="-16.2053250">
        <ele>597.9</ele>
        <time>2020-11-11T07:41:52Z</time>
      </trkpt>
      <trkpt lat="28.5465320" lon="-16.2052920">
        <ele>597.9</ele>
        <time>2020-11-11T07:41:53Z</time>
      </trkpt>
      <trkpt lat="28.5465480" lon="-16.2052780">
        <ele>598.9</ele>
        <time>2020-11-11T07:41:54Z</time>
      </trkpt>
      <trkpt lat="28.5465680" lon="-16.2052670">
        <ele>598.9</ele>
        <time>2020-11-11T07:41:55Z</time>
      </trkpt>
      <trkpt lat="28.5465680" lon="-16.2052670">
        <ele>598.9</ele>
        <time>2020-11-11T07:41:56Z</time>
      </trkpt>
      <trkpt lat="28.5466120" lon="-16.2052520">
        <ele>598.9</ele>
        <time>2020-11-11T07:41:57Z</time>
      </trkpt>
      <trkpt lat="28.5466300" lon="-16.2052500">
        <ele>598.9</ele>
        <time>2020-11-11T07:41:58Z</time>
      </trkpt>
      <trkpt lat="28.5466500" lon="-16.2052480">
        <ele>598.9</ele>
        <time>2020-11-11T07:41:59Z</time>
      </trkpt>
      <trkpt lat="28.5466500" lon="-16.2052480">
        <ele>599.9</ele>
        <time>2020-11-11T07:42:00Z</time>
      </trkpt>
      <trkpt lat="28.5466880" lon="-16.2052450">
        <ele>599.9</ele>
        <time>2020-11-11T07:42:01Z</time>
      </trkpt>
      <trkpt lat="28.5466880" lon="-16.2052450">
        <ele>599.9</ele>
        <time>2020-11-11T07:42:02Z</time>
      </trkpt>
      <trkpt lat="28.5467280" lon="-16.2052600">
        <ele>599.9</ele>
        <time>2020-11-11T07:42:03Z</time>
      </trkpt>
      <trkpt lat="28.5467480" lon="-16.2052670">
        <ele>600.9</ele>
        <time>2020-11-11T07:42:04Z</time>
      </trkpt>
      <trkpt lat="28.5467480" lon="-16.2052670">
        <ele>600.9</ele>
        <time>2020-11-11T07:42:05Z</time>
      </trkpt>
      <trkpt lat="28.5467850" lon="-16.2052680">
        <ele>600.9</ele>
        <time>2020-11-11T07:42:06Z</time>
      </trkpt>
      <trkpt lat="28.5468000" lon="-16.2052700">
        <ele>600.9</ele>
        <time>2020-11-11T07:42:07Z</time>
      </trkpt>
      <trkpt lat="28.5468000" lon="-16.2052700">
        <ele>601.9</ele>
        <time>2020-11-11T07:42:08Z</time>
      </trkpt>
      <trkpt lat="28.5468230" lon="-16.2052680">
        <ele>601.9</ele>
        <time>2020-11-11T07:42:09Z</time>
      </trkpt>
      <trkpt lat="28.5468300" lon="-16.2052850">
        <ele>601.9</ele>
        <time>2020-11-11T07:42:10Z</time>
      </trkpt>
      <trkpt lat="28.5468450" lon="-16.2052950">
        <ele>601.9</ele>
        <time>2020-11-11T07:42:11Z</time>
      </trkpt>
      <trkpt lat="28.5468450" lon="-16.2052950">
        <ele>601.9</ele>
        <time>2020-11-11T07:42:12Z</time>
      </trkpt>
      <trkpt lat="28.5468820" lon="-16.2053170">
        <ele>602.9</ele>
        <time>2020-11-11T07:42:13Z</time>
      </trkpt>
      <trkpt lat="28.5468820" lon="-16.2053170">
        <ele>602.9</ele>
        <time>2020-11-11T07:42:14Z</time>
      </trkpt>
      <trkpt lat="28.5469150" lon="-16.2053450">
        <ele>602.9</ele>
        <time>2020-11-11T07:42:15Z</time>
      </trkpt>
      <trkpt lat="28.5469150" lon="-16.2053450">
        <ele>602.9</ele>
        <time>2020-11-11T07:42:16Z</time>
      </trkpt>
      <trkpt lat="28.5469570" lon="-16.2053670">
        <ele>603.9</ele>
        <time>2020-11-11T07:42:17Z</time>
      </trkpt>
      <trkpt lat="28.5469570" lon="-16.2053670">
        <ele>603.9</ele>
        <time>2020-11-11T07:42:18Z</time>
      </trkpt>
      <trkpt lat="28.5469920" lon="-16.2053800">
        <ele>603.9</ele>
        <time>2020-11-11T07:42:19Z</time>
      </trkpt>
      <trkpt lat="28.5469920" lon="-16.2053800">
        <ele>603.9</ele>
        <time>2020-11-11T07:42:20Z</time>
      </trkpt>
      <trkpt lat="28.5470230" lon="-16.2053920">
        <ele>604.9</ele>
        <time>2020-11-11T07:42:21Z</time>
      </trkpt>
      <trkpt lat="28.5470450" lon="-16.2054020">
        <ele>604.9</ele>
        <time>2020-11-11T07:42:22Z</time>
      </trkpt>
      <trkpt lat="28.5470450" lon="-16.2054020">
        <ele>604.9</ele>
        <time>2020-11-11T07:42:23Z</time>
      </trkpt>
      <trkpt lat="28.5470880" lon="-16.2054180">
        <ele>604.9</ele>
        <time>2020-11-11T07:42:24Z</time>
      </trkpt>
      <trkpt lat="28.5471020" lon="-16.2054320">
        <ele>604.9</ele>
        <time>2020-11-11T07:42:25Z</time>
      </trkpt>
      <trkpt lat="28.5471020" lon="-16.2054320">
        <ele>605.9</ele>
        <time>2020-11-11T07:42:26Z</time>
      </trkpt>
      <trkpt lat="28.5471380" lon="-16.2054420">
        <ele>605.9</ele>
        <time>2020-11-11T07:42:27Z</time>
      </trkpt>
      <trkpt lat="28.5471380" lon="-16.2054420">
        <ele>605.9</ele>
        <time>2020-11-11T07:42:28Z</time>
      </trkpt>
      <trkpt lat="28.5471700" lon="-16.2054650">
        <ele>605.9</ele>
        <time>2020-11-11T07:42:29Z</time>
      </trkpt>
      <trkpt lat="28.5471700" lon="-16.2054650">
        <ele>606.9</ele>
        <time>2020-11-11T07:42:30Z</time>
      </trkpt>
      <trkpt lat="28.5472020" lon="-16.2054800">
        <ele>606.9</ele>
        <time>2020-11-11T07:42:31Z</time>
      </trkpt>
      <trkpt lat="28.5472020" lon="-16.2054800">
        <ele>606.9</ele>
        <time>2020-11-11T07:42:32Z</time>
      </trkpt>
      <trkpt lat="28.5472280" lon="-16.2054970">
        <ele>606.9</ele>
        <time>2020-11-11T07:42:33Z</time>
      </trkpt>
      <trkpt lat="28.5472280" lon="-16.2054970">
        <ele>607.9</ele>
        <time>2020-11-11T07:42:34Z</time>
      </trkpt>
      <trkpt lat="28.5472620" lon="-16.2055170">
        <ele>607.9</ele>
        <time>2020-11-11T07:42:35Z</time>
      </trkpt>
      <trkpt lat="28.5472620" lon="-16.2055170">
        <ele>607.9</ele>
        <time>2020-11-11T07:42:36Z</time>
      </trkpt>
      <trkpt lat="28.5473030" lon="-16.2055350">
        <ele>607.9</ele>
        <time>2020-11-11T07:42:37Z</time>
      </trkpt>
      <trkpt lat="28.5473030" lon="-16.2055350">
        <ele>607.9</ele>
        <time>2020-11-11T07:42:38Z</time>
      </trkpt>
      <trkpt lat="28.5473570" lon="-16.2055480">
        <ele>608.9</ele>
        <time>2020-11-11T07:42:39Z</time>
      </trkpt>
      <trkpt lat="28.5473820" lon="-16.2055530">
        <ele>608.9</ele>
        <time>2020-11-11T07:42:40Z</time>
      </trkpt>
      <trkpt lat="28.5473820" lon="-16.2055530">
        <ele>608.9</ele>
        <time>2020-11-11T07:42:41Z</time>
      </trkpt>
      <trkpt lat="28.5474230" lon="-16.2055670">
        <ele>608.9</ele>
        <time>2020-11-11T07:42:42Z</time>
      </trkpt>
      <trkpt lat="28.5474230" lon="-16.2055670">
        <ele>609.9</ele>
        <time>2020-11-11T07:42:43Z</time>
      </trkpt>
      <trkpt lat="28.5474720" lon="-16.2055800">
        <ele>609.9</ele>
        <time>2020-11-11T07:42:44Z</time>
      </trkpt>
      <trkpt lat="28.5474720" lon="-16.2055800">
        <ele>609.9</ele>
        <time>2020-11-11T07:42:45Z</time>
      </trkpt>
      <trkpt lat="28.5475220" lon="-16.2055930">
        <ele>609.9</ele>
        <time>2020-11-11T07:42:46Z</time>
      </trkpt>
      <trkpt lat="28.5475420" lon="-16.2056050">
        <ele>609.9</ele>
        <time>2020-11-11T07:42:47Z</time>
      </trkpt>
      <trkpt lat="28.5475420" lon="-16.2056050">
        <ele>609.9</ele>
        <time>2020-11-11T07:42:48Z</time>
      </trkpt>
      <trkpt lat="28.5475830" lon="-16.2056220">
        <ele>609.9</ele>
        <time>2020-11-11T07:42:49Z</time>
      </trkpt>
      <trkpt lat="28.5475830" lon="-16.2056220">
        <ele>609.9</ele>
        <time>2020-11-11T07:42:50Z</time>
      </trkpt>
      <trkpt lat="28.5476270" lon="-16.2056380">
        <ele>610.9</ele>
        <time>2020-11-11T07:42:51Z</time>
      </trkpt>
      <trkpt lat="28.5476530" lon="-16.2056500">
        <ele>610.9</ele>
        <time>2020-11-11T07:42:52Z</time>
      </trkpt>
      <trkpt lat="28.5476750" lon="-16.2056600">
        <ele>610.9</ele>
        <time>2020-11-11T07:42:53Z</time>
      </trkpt>
      <trkpt lat="28.5476750" lon="-16.2056600">
        <ele>610.9</ele>
        <time>2020-11-11T07:42:54Z</time>
      </trkpt>
      <trkpt lat="28.5477180" lon="-16.2056730">
        <ele>610.9</ele>
        <time>2020-11-11T07:42:55Z</time>
      </trkpt>
      <trkpt lat="28.5477180" lon="-16.2056730">
        <ele>610.9</ele>
        <time>2020-11-11T07:42:56Z</time>
      </trkpt>
      <trkpt lat="28.5477580" lon="-16.2056880">
        <ele>611.9</ele>
        <time>2020-11-11T07:42:57Z</time>
      </trkpt>
      <trkpt lat="28.5477580" lon="-16.2056880">
        <ele>611.9</ele>
        <time>2020-11-11T07:42:58Z</time>
      </trkpt>
      <trkpt lat="28.5477950" lon="-16.2057070">
        <ele>611.9</ele>
        <time>2020-11-11T07:42:59Z</time>
      </trkpt>
      <trkpt lat="28.5477950" lon="-16.2057070">
        <ele>611.9</ele>
        <time>2020-11-11T07:43:00Z</time>
      </trkpt>
      <trkpt lat="28.5478330" lon="-16.2057230">
        <ele>612.9</ele>
        <time>2020-11-11T07:43:01Z</time>
      </trkpt>
      <trkpt lat="28.5478520" lon="-16.2057380">
        <ele>612.9</ele>
        <time>2020-11-11T07:43:02Z</time>
      </trkpt>
      <trkpt lat="28.5478520" lon="-16.2057380">
        <ele>612.9</ele>
        <time>2020-11-11T07:43:03Z</time>
      </trkpt>
      <trkpt lat="28.5478870" lon="-16.2057650">
        <ele>612.9</ele>
        <time>2020-11-11T07:43:04Z</time>
      </trkpt>
      <trkpt lat="28.5478870" lon="-16.2057650">
        <ele>612.9</ele>
        <time>2020-11-11T07:43:05Z</time>
      </trkpt>
      <trkpt lat="28.5479180" lon="-16.2058000">
        <ele>612.9</ele>
        <time>2020-11-11T07:43:06Z</time>
      </trkpt>
      <trkpt lat="28.5479180" lon="-16.2058000">
        <ele>613.9</ele>
        <time>2020-11-11T07:43:07Z</time>
      </trkpt>
      <trkpt lat="28.5479480" lon="-16.2058420">
        <ele>613.9</ele>
        <time>2020-11-11T07:43:08Z</time>
      </trkpt>
      <trkpt lat="28.5479630" lon="-16.2058550">
        <ele>613.9</ele>
        <time>2020-11-11T07:43:09Z</time>
      </trkpt>
      <trkpt lat="28.5479630" lon="-16.2058550">
        <ele>613.9</ele>
        <time>2020-11-11T07:43:10Z</time>
      </trkpt>
      <trkpt lat="28.5480020" lon="-16.2058850">
        <ele>613.9</ele>
        <time>2020-11-11T07:43:11Z</time>
      </trkpt>
      <trkpt lat="28.5480020" lon="-16.2058850">
        <ele>613.9</ele>
        <time>2020-11-11T07:43:12Z</time>
      </trkpt>
      <trkpt lat="28.5480380" lon="-16.2059130">
        <ele>614.9</ele>
        <time>2020-11-11T07:43:13Z</time>
      </trkpt>
      <trkpt lat="28.5480380" lon="-16.2059130">
        <ele>614.9</ele>
        <time>2020-11-11T07:43:14Z</time>
      </trkpt>
      <trkpt lat="28.5480680" lon="-16.2059480">
        <ele>614.9</ele>
        <time>2020-11-11T07:43:15Z</time>
      </trkpt>
      <trkpt lat="28.5480680" lon="-16.2059480">
        <ele>614.9</ele>
        <time>2020-11-11T07:43:16Z</time>
      </trkpt>
      <trkpt lat="28.5481100" lon="-16.2059720">
        <ele>614.9</ele>
        <time>2020-11-11T07:43:17Z</time>
      </trkpt>
      <trkpt lat="28.5481100" lon="-16.2059720">
        <ele>614.9</ele>
        <time>2020-11-11T07:43:18Z</time>
      </trkpt>
      <trkpt lat="28.5481520" lon="-16.2059830">
        <ele>614.9</ele>
        <time>2020-11-11T07:43:19Z</time>
      </trkpt>
      <trkpt lat="28.5481520" lon="-16.2059830">
        <ele>614.9</ele>
        <time>2020-11-11T07:43:20Z</time>
      </trkpt>
      <trkpt lat="28.5481950" lon="-16.2059820">
        <ele>615.9</ele>
        <time>2020-11-11T07:43:21Z</time>
      </trkpt>
      <trkpt lat="28.5481950" lon="-16.2059820">
        <ele>615.9</ele>
        <time>2020-11-11T07:43:22Z</time>
      </trkpt>
      <trkpt lat="28.5482430" lon="-16.2059880">
        <ele>615.9</ele>
        <time>2020-11-11T07:43:23Z</time>
      </trkpt>
      <trkpt lat="28.5482670" lon="-16.2059930">
        <ele>615.9</ele>
        <time>2020-11-11T07:43:24Z</time>
      </trkpt>
      <trkpt lat="28.5482670" lon="-16.2059930">
        <ele>615.9</ele>
        <time>2020-11-11T07:43:25Z</time>
      </trkpt>
      <trkpt lat="28.5483070" lon="-16.2060000">
        <ele>615.9</ele>
        <time>2020-11-11T07:43:26Z</time>
      </trkpt>
      <trkpt lat="28.5483070" lon="-16.2060000">
        <ele>615.9</ele>
        <time>2020-11-11T07:43:27Z</time>
      </trkpt>
      <trkpt lat="28.5483470" lon="-16.2059830">
        <ele>615.9</ele>
        <time>2020-11-11T07:43:28Z</time>
      </trkpt>
      <trkpt lat="28.5483670" lon="-16.2059770">
        <ele>616.9</ele>
        <time>2020-11-11T07:43:29Z</time>
      </trkpt>
      <trkpt lat="28.5483850" lon="-16.2059700">
        <ele>616.9</ele>
        <time>2020-11-11T07:43:30Z</time>
      </trkpt>
      <trkpt lat="28.5484030" lon="-16.2059620">
        <ele>616.9</ele>
        <time>2020-11-11T07:43:31Z</time>
      </trkpt>
      <trkpt lat="28.5484030" lon="-16.2059620">
        <ele>616.9</ele>
        <time>2020-11-11T07:43:32Z</time>
      </trkpt>
      <trkpt lat="28.5484470" lon="-16.2059520">
        <ele>616.9</ele>
        <time>2020-11-11T07:43:33Z</time>
      </trkpt>
      <trkpt lat="28.5484650" lon="-16.2059480">
        <ele>616.9</ele>
        <time>2020-11-11T07:43:34Z</time>
      </trkpt>
      <trkpt lat="28.5484650" lon="-16.2059480">
        <ele>616.9</ele>
        <time>2020-11-11T07:43:35Z</time>
      </trkpt>
      <trkpt lat="28.5485070" lon="-16.2059350">
        <ele>616.9</ele>
        <time>2020-11-11T07:43:36Z</time>
      </trkpt>
      <trkpt lat="28.5485280" lon="-16.2059250">
        <ele>616.9</ele>
        <time>2020-11-11T07:43:37Z</time>
      </trkpt>
      <trkpt lat="28.5485500" lon="-16.2059170">
        <ele>616.9</ele>
        <time>2020-11-11T07:43:38Z</time>
      </trkpt>
      <trkpt lat="28.5485500" lon="-16.2059170">
        <ele>616.9</ele>
        <time>2020-11-11T07:43:39Z</time>
      </trkpt>
      <trkpt lat="28.5485920" lon="-16.2059000">
        <ele>616.9</ele>
        <time>2020-11-11T07:43:40Z</time>
      </trkpt>
      <trkpt lat="28.5485920" lon="-16.2059000">
        <ele>617.9</ele>
        <time>2020-11-11T07:43:41Z</time>
      </trkpt>
      <trkpt lat="28.5486370" lon="-16.2058900">
        <ele>617.9</ele>
        <time>2020-11-11T07:43:42Z</time>
      </trkpt>
      <trkpt lat="28.5486600" lon="-16.2058820">
        <ele>617.9</ele>
        <time>2020-11-11T07:43:43Z</time>
      </trkpt>
      <trkpt lat="28.5486600" lon="-16.2058820">
        <ele>617.9</ele>
        <time>2020-11-11T07:43:44Z</time>
      </trkpt>
      <trkpt lat="28.5487050" lon="-16.2058650">
        <ele>617.9</ele>
        <time>2020-11-11T07:43:45Z</time>
      </trkpt>
      <trkpt lat="28.5487270" lon="-16.2058530">
        <ele>617.9</ele>
        <time>2020-11-11T07:43:46Z</time>
      </trkpt>
      <trkpt lat="28.5487270" lon="-16.2058530">
        <ele>618.9</ele>
        <time>2020-11-11T07:43:47Z</time>
      </trkpt>
      <trkpt lat="28.5487670" lon="-16.2058270">
        <ele>618.9</ele>
        <time>2020-11-11T07:43:48Z</time>
      </trkpt>
      <trkpt lat="28.5487870" lon="-16.2058070">
        <ele>618.9</ele>
        <time>2020-11-11T07:43:49Z</time>
      </trkpt>
      <trkpt lat="28.5488080" lon="-16.2057900">
        <ele>618.9</ele>
        <time>2020-11-11T07:43:50Z</time>
      </trkpt>
      <trkpt lat="28.5488080" lon="-16.2057900">
        <ele>618.9</ele>
        <time>2020-11-11T07:43:51Z</time>
      </trkpt>
      <trkpt lat="28.5488450" lon="-16.2057520">
        <ele>618.9</ele>
        <time>2020-11-11T07:43:52Z</time>
      </trkpt>
      <trkpt lat="28.5488450" lon="-16.2057520">
        <ele>618.9</ele>
        <time>2020-11-11T07:43:53Z</time>
      </trkpt>
      <trkpt lat="28.5488720" lon="-16.2057170">
        <ele>618.9</ele>
        <time>2020-11-11T07:43:54Z</time>
      </trkpt>
      <trkpt lat="28.5488900" lon="-16.2056950">
        <ele>619.9</ele>
        <time>2020-11-11T07:43:55Z</time>
      </trkpt>
      <trkpt lat="28.5488900" lon="-16.2056950">
        <ele>619.9</ele>
        <time>2020-11-11T07:43:56Z</time>
      </trkpt>
      <trkpt lat="28.5489250" lon="-16.2056480">
        <ele>619.9</ele>
        <time>2020-11-11T07:43:57Z</time>
      </trkpt>
      <trkpt lat="28.5489250" lon="-16.2056480">
        <ele>619.9</ele>
        <time>2020-11-11T07:43:58Z</time>
      </trkpt>
      <trkpt lat="28.5489600" lon="-16.2056120">
        <ele>619.9</ele>
        <time>2020-11-11T07:43:59Z</time>
      </trkpt>
      <trkpt lat="28.5489770" lon="-16.2055870">
        <ele>619.9</ele>
        <time>2020-11-11T07:44:00Z</time>
      </trkpt>
      <trkpt lat="28.5489920" lon="-16.2055620">
        <ele>619.9</ele>
        <time>2020-11-11T07:44:01Z</time>
      </trkpt>
      <trkpt lat="28.5489920" lon="-16.2055620">
        <ele>620.9</ele>
        <time>2020-11-11T07:44:02Z</time>
      </trkpt>
      <trkpt lat="28.5490120" lon="-16.2055100">
        <ele>620.9</ele>
        <time>2020-11-11T07:44:03Z</time>
      </trkpt>
      <trkpt lat="28.5490120" lon="-16.2055100">
        <ele>620.9</ele>
        <time>2020-11-11T07:44:04Z</time>
      </trkpt>
      <trkpt lat="28.5490230" lon="-16.2054530">
        <ele>620.9</ele>
        <time>2020-11-11T07:44:05Z</time>
      </trkpt>
      <trkpt lat="28.5490230" lon="-16.2054530">
        <ele>621.9</ele>
        <time>2020-11-11T07:44:06Z</time>
      </trkpt>
      <trkpt lat="28.5490370" lon="-16.2054020">
        <ele>621.9</ele>
        <time>2020-11-11T07:44:07Z</time>
      </trkpt>
      <trkpt lat="28.5490370" lon="-16.2054020">
        <ele>621.9</ele>
        <time>2020-11-11T07:44:08Z</time>
      </trkpt>
      <trkpt lat="28.5490220" lon="-16.2053570">
        <ele>621.9</ele>
        <time>2020-11-11T07:44:09Z</time>
      </trkpt>
      <trkpt lat="28.5490220" lon="-16.2053570">
        <ele>621.9</ele>
        <time>2020-11-11T07:44:10Z</time>
      </trkpt>
      <trkpt lat="28.5489980" lon="-16.2053100">
        <ele>621.9</ele>
        <time>2020-11-11T07:44:11Z</time>
      </trkpt>
      <trkpt lat="28.5489820" lon="-16.2052880">
        <ele>621.9</ele>
        <time>2020-11-11T07:44:12Z</time>
      </trkpt>
      <trkpt lat="28.5489820" lon="-16.2052880">
        <ele>621.9</ele>
        <time>2020-11-11T07:44:13Z</time>
      </trkpt>
      <trkpt lat="28.5489520" lon="-16.2052450">
        <ele>621.9</ele>
        <time>2020-11-11T07:44:14Z</time>
      </trkpt>
      <trkpt lat="28.5489330" lon="-16.2052270">
        <ele>622.9</ele>
        <time>2020-11-11T07:44:15Z</time>
      </trkpt>
      <trkpt lat="28.5489330" lon="-16.2052270">
        <ele>622.9</ele>
        <time>2020-11-11T07:44:16Z</time>
      </trkpt>
      <trkpt lat="28.5488930" lon="-16.2051870">
        <ele>622.9</ele>
        <time>2020-11-11T07:44:17Z</time>
      </trkpt>
      <trkpt lat="28.5488930" lon="-16.2051870">
        <ele>622.9</ele>
        <time>2020-11-11T07:44:18Z</time>
      </trkpt>
      <trkpt lat="28.5488570" lon="-16.2051430">
        <ele>623.9</ele>
        <time>2020-11-11T07:44:19Z</time>
      </trkpt>
      <trkpt lat="28.5488570" lon="-16.2051430">
        <ele>623.9</ele>
        <time>2020-11-11T07:44:20Z</time>
      </trkpt>
      <trkpt lat="28.5488230" lon="-16.2051000">
        <ele>623.9</ele>
        <time>2020-11-11T07:44:21Z</time>
      </trkpt>
      <trkpt lat="28.5488230" lon="-16.2051000">
        <ele>624.9</ele>
        <time>2020-11-11T07:44:22Z</time>
      </trkpt>
      <trkpt lat="28.5487950" lon="-16.2050620">
        <ele>624.9</ele>
        <time>2020-11-11T07:44:23Z</time>
      </trkpt>
      <trkpt lat="28.5487850" lon="-16.2050420">
        <ele>624.9</ele>
        <time>2020-11-11T07:44:24Z</time>
      </trkpt>
      <trkpt lat="28.5487850" lon="-16.2050420">
        <ele>624.9</ele>
        <time>2020-11-11T07:44:25Z</time>
      </trkpt>
      <trkpt lat="28.5487680" lon="-16.2049930">
        <ele>624.9</ele>
        <time>2020-11-11T07:44:26Z</time>
      </trkpt>
      <trkpt lat="28.5487580" lon="-16.2049780">
        <ele>624.9</ele>
        <time>2020-11-11T07:44:27Z</time>
      </trkpt>
      <trkpt lat="28.5487580" lon="-16.2049780">
        <ele>625.9</ele>
        <time>2020-11-11T07:44:28Z</time>
      </trkpt>
      <trkpt lat="28.5487520" lon="-16.2049320">
        <ele>625.9</ele>
        <time>2020-11-11T07:44:29Z</time>
      </trkpt>
      <trkpt lat="28.5487530" lon="-16.2049070">
        <ele>625.9</ele>
        <time>2020-11-11T07:44:30Z</time>
      </trkpt>
      <trkpt lat="28.5487530" lon="-16.2049070">
        <ele>625.9</ele>
        <time>2020-11-11T07:44:31Z</time>
      </trkpt>
      <trkpt lat="28.5487520" lon="-16.2048620">
        <ele>625.9</ele>
        <time>2020-11-11T07:44:32Z</time>
      </trkpt>
      <trkpt lat="28.5487550" lon="-16.2048370">
        <ele>625.9</ele>
        <time>2020-11-11T07:44:33Z</time>
      </trkpt>
      <trkpt lat="28.5487550" lon="-16.2048370">
        <ele>625.9</ele>
        <time>2020-11-11T07:44:34Z</time>
      </trkpt>
      <trkpt lat="28.5487580" lon="-16.2047880">
        <ele>625.9</ele>
        <time>2020-11-11T07:44:35Z</time>
      </trkpt>
      <trkpt lat="28.5487580" lon="-16.2047880">
        <ele>626.9</ele>
        <time>2020-11-11T07:44:36Z</time>
      </trkpt>
      <trkpt lat="28.5487580" lon="-16.2047480">
        <ele>626.9</ele>
        <time>2020-11-11T07:44:37Z</time>
      </trkpt>
      <trkpt lat="28.5487580" lon="-16.2047480">
        <ele>626.9</ele>
        <time>2020-11-11T07:44:38Z</time>
      </trkpt>
      <trkpt lat="28.5487620" lon="-16.2047000">
        <ele>626.9</ele>
        <time>2020-11-11T07:44:39Z</time>
      </trkpt>
      <trkpt lat="28.5487620" lon="-16.2047000">
        <ele>626.9</ele>
        <time>2020-11-11T07:44:40Z</time>
      </trkpt>
      <trkpt lat="28.5487620" lon="-16.2046430">
        <ele>627.9</ele>
        <time>2020-11-11T07:44:41Z</time>
      </trkpt>
      <trkpt lat="28.5487550" lon="-16.2046100">
        <ele>627.9</ele>
        <time>2020-11-11T07:44:42Z</time>
      </trkpt>
      <trkpt lat="28.5487480" lon="-16.2045780">
        <ele>627.9</ele>
        <time>2020-11-11T07:44:43Z</time>
      </trkpt>
      <trkpt lat="28.5487480" lon="-16.2045780">
        <ele>627.9</ele>
        <time>2020-11-11T07:44:44Z</time>
      </trkpt>
      <trkpt lat="28.5487450" lon="-16.2045100">
        <ele>628.9</ele>
        <time>2020-11-11T07:44:45Z</time>
      </trkpt>
      <trkpt lat="28.5487450" lon="-16.2045100">
        <ele>628.9</ele>
        <time>2020-11-11T07:44:46Z</time>
      </trkpt>
      <trkpt lat="28.5487500" lon="-16.2044420">
        <ele>628.9</ele>
        <time>2020-11-11T07:44:47Z</time>
      </trkpt>
      <trkpt lat="28.5487530" lon="-16.2044030">
        <ele>628.9</ele>
        <time>2020-11-11T07:44:48Z</time>
      </trkpt>
      <trkpt lat="28.5487570" lon="-16.2043670">
        <ele>629.9</ele>
        <time>2020-11-11T07:44:49Z</time>
      </trkpt>
      <trkpt lat="28.5487570" lon="-16.2043670">
        <ele>629.9</ele>
        <time>2020-11-11T07:44:50Z</time>
      </trkpt>
      <trkpt lat="28.5487720" lon="-16.2043050">
        <ele>629.9</ele>
        <time>2020-11-11T07:44:51Z</time>
      </trkpt>
      <trkpt lat="28.5487720" lon="-16.2043050">
        <ele>629.9</ele>
        <time>2020-11-11T07:44:52Z</time>
      </trkpt>
      <trkpt lat="28.5487870" lon="-16.2042580">
        <ele>629.9</ele>
        <time>2020-11-11T07:44:53Z</time>
      </trkpt>
      <trkpt lat="28.5487870" lon="-16.2042580">
        <ele>630.9</ele>
        <time>2020-11-11T07:44:54Z</time>
      </trkpt>
      <trkpt lat="28.5488170" lon="-16.2042270">
        <ele>630.9</ele>
        <time>2020-11-11T07:44:55Z</time>
      </trkpt>
      <trkpt lat="28.5488170" lon="-16.2042270">
        <ele>630.9</ele>
        <time>2020-11-11T07:44:56Z</time>
      </trkpt>
      <trkpt lat="28.5488500" lon="-16.2042170">
        <ele>630.9</ele>
        <time>2020-11-11T07:44:57Z</time>
      </trkpt>
      <trkpt lat="28.5488500" lon="-16.2042170">
        <ele>631.9</ele>
        <time>2020-11-11T07:44:58Z</time>
      </trkpt>
      <trkpt lat="28.5488780" lon="-16.2042200">
        <ele>631.9</ele>
        <time>2020-11-11T07:44:59Z</time>
      </trkpt>
      <trkpt lat="28.5488780" lon="-16.2042200">
        <ele>631.9</ele>
        <time>2020-11-11T07:45:00Z</time>
      </trkpt>
      <trkpt lat="28.5489030" lon="-16.2042450">
        <ele>632.9</ele>
        <time>2020-11-11T07:45:01Z</time>
      </trkpt>
      <trkpt lat="28.5489030" lon="-16.2042450">
        <ele>632.9</ele>
        <time>2020-11-11T07:45:02Z</time>
      </trkpt>
      <trkpt lat="28.5489180" lon="-16.2042800">
        <ele>632.9</ele>
        <time>2020-11-11T07:45:03Z</time>
      </trkpt>
      <trkpt lat="28.5489180" lon="-16.2042800">
        <ele>632.9</ele>
        <time>2020-11-11T07:45:04Z</time>
      </trkpt>
      <trkpt lat="28.5489370" lon="-16.2043250">
        <ele>632.9</ele>
        <time>2020-11-11T07:45:05Z</time>
      </trkpt>
      <trkpt lat="28.5489370" lon="-16.2043250">
        <ele>632.9</ele>
        <time>2020-11-11T07:45:06Z</time>
      </trkpt>
      <trkpt lat="28.5489470" lon="-16.2043700">
        <ele>633.9</ele>
        <time>2020-11-11T07:45:07Z</time>
      </trkpt>
      <trkpt lat="28.5489470" lon="-16.2043700">
        <ele>633.9</ele>
        <time>2020-11-11T07:45:08Z</time>
      </trkpt>
      <trkpt lat="28.5489570" lon="-16.2044100">
        <ele>633.9</ele>
        <time>2020-11-11T07:45:09Z</time>
      </trkpt>
      <trkpt lat="28.5489570" lon="-16.2044100">
        <ele>633.9</ele>
        <time>2020-11-11T07:45:10Z</time>
      </trkpt>
      <trkpt lat="28.5489620" lon="-16.2044520">
        <ele>634.9</ele>
        <time>2020-11-11T07:45:11Z</time>
      </trkpt>
      <trkpt lat="28.5489620" lon="-16.2044520">
        <ele>634.9</ele>
        <time>2020-11-11T07:45:12Z</time>
      </trkpt>
      <trkpt lat="28.5489650" lon="-16.2044970">
        <ele>634.9</ele>
        <time>2020-11-11T07:45:13Z</time>
      </trkpt>
      <trkpt lat="28.5489650" lon="-16.2044970">
        <ele>634.9</ele>
        <time>2020-11-11T07:45:14Z</time>
      </trkpt>
      <trkpt lat="28.5489680" lon="-16.2045430">
        <ele>635.9</ele>
        <time>2020-11-11T07:45:15Z</time>
      </trkpt>
      <trkpt lat="28.5489680" lon="-16.2045430">
        <ele>635.9</ele>
        <time>2020-11-11T07:45:16Z</time>
      </trkpt>
      <trkpt lat="28.5489830" lon="-16.2045880">
        <ele>635.9</ele>
        <time>2020-11-11T07:45:17Z</time>
      </trkpt>
      <trkpt lat="28.5489920" lon="-16.2046130">
        <ele>635.9</ele>
        <time>2020-11-11T07:45:18Z</time>
      </trkpt>
      <trkpt lat="28.5489920" lon="-16.2046130">
        <ele>636.9</ele>
        <time>2020-11-11T07:45:19Z</time>
      </trkpt>
      <trkpt lat="28.5490130" lon="-16.2046480">
        <ele>636.9</ele>
        <time>2020-11-11T07:45:20Z</time>
      </trkpt>
      <trkpt lat="28.5490300" lon="-16.2046630">
        <ele>636.9</ele>
        <time>2020-11-11T07:45:21Z</time>
      </trkpt>
      <trkpt lat="28.5490300" lon="-16.2046630">
        <ele>636.9</ele>
        <time>2020-11-11T07:45:22Z</time>
      </trkpt>
      <trkpt lat="28.5490570" lon="-16.2047000">
        <ele>636.9</ele>
        <time>2020-11-11T07:45:23Z</time>
      </trkpt>
      <trkpt lat="28.5490570" lon="-16.2047000">
        <ele>637.9</ele>
        <time>2020-11-11T07:45:24Z</time>
      </trkpt>
      <trkpt lat="28.5490870" lon="-16.2047400">
        <ele>637.9</ele>
        <time>2020-11-11T07:45:25Z</time>
      </trkpt>
      <trkpt lat="28.5490870" lon="-16.2047400">
        <ele>637.9</ele>
        <time>2020-11-11T07:45:26Z</time>
      </trkpt>
      <trkpt lat="28.5491280" lon="-16.2048080">
        <ele>637.9</ele>
        <time>2020-11-11T07:45:27Z</time>
      </trkpt>
      <trkpt lat="28.5491280" lon="-16.2048080">
        <ele>638.9</ele>
        <time>2020-11-11T07:45:28Z</time>
      </trkpt>
      <trkpt lat="28.5491720" lon="-16.2048480">
        <ele>638.9</ele>
        <time>2020-11-11T07:45:29Z</time>
      </trkpt>
      <trkpt lat="28.5491720" lon="-16.2048480">
        <ele>638.9</ele>
        <time>2020-11-11T07:45:30Z</time>
      </trkpt>
      <trkpt lat="28.5492080" lon="-16.2048900">
        <ele>638.9</ele>
        <time>2020-11-11T07:45:31Z</time>
      </trkpt>
      <trkpt lat="28.5492080" lon="-16.2048900">
        <ele>639.9</ele>
        <time>2020-11-11T07:45:32Z</time>
      </trkpt>
      <trkpt lat="28.5492550" lon="-16.2049330">
        <ele>639.9</ele>
        <time>2020-11-11T07:45:33Z</time>
      </trkpt>
      <trkpt lat="28.5492550" lon="-16.2049330">
        <ele>639.9</ele>
        <time>2020-11-11T07:45:34Z</time>
      </trkpt>
      <trkpt lat="28.5493030" lon="-16.2049720">
        <ele>639.9</ele>
        <time>2020-11-11T07:45:35Z</time>
      </trkpt>
      <trkpt lat="28.5493030" lon="-16.2049720">
        <ele>640.9</ele>
        <time>2020-11-11T07:45:36Z</time>
      </trkpt>
      <trkpt lat="28.5493500" lon="-16.2050030">
        <ele>640.9</ele>
        <time>2020-11-11T07:45:37Z</time>
      </trkpt>
      <trkpt lat="28.5493500" lon="-16.2050030">
        <ele>640.9</ele>
        <time>2020-11-11T07:45:38Z</time>
      </trkpt>
      <trkpt lat="28.5493980" lon="-16.2050400">
        <ele>640.9</ele>
        <time>2020-11-11T07:45:39Z</time>
      </trkpt>
      <trkpt lat="28.5493980" lon="-16.2050400">
        <ele>640.9</ele>
        <time>2020-11-11T07:45:40Z</time>
      </trkpt>
      <trkpt lat="28.5494450" lon="-16.2050820">
        <ele>640.9</ele>
        <time>2020-11-11T07:45:41Z</time>
      </trkpt>
      <trkpt lat="28.5494450" lon="-16.2050820">
        <ele>640.9</ele>
        <time>2020-11-11T07:45:42Z</time>
      </trkpt>
      <trkpt lat="28.5494850" lon="-16.2051330">
        <ele>641.9</ele>
        <time>2020-11-11T07:45:43Z</time>
      </trkpt>
      <trkpt lat="28.5494850" lon="-16.2051330">
        <ele>641.9</ele>
        <time>2020-11-11T07:45:44Z</time>
      </trkpt>
      <trkpt lat="28.5495170" lon="-16.2051850">
        <ele>641.9</ele>
        <time>2020-11-11T07:45:45Z</time>
      </trkpt>
      <trkpt lat="28.5495170" lon="-16.2051850">
        <ele>641.9</ele>
        <time>2020-11-11T07:45:46Z</time>
      </trkpt>
      <trkpt lat="28.5495330" lon="-16.2052480">
        <ele>641.9</ele>
        <time>2020-11-11T07:45:47Z</time>
      </trkpt>
      <trkpt lat="28.5495370" lon="-16.2052770">
        <ele>641.9</ele>
        <time>2020-11-11T07:45:48Z</time>
      </trkpt>
      <trkpt lat="28.5495400" lon="-16.2053070">
        <ele>642.9</ele>
        <time>2020-11-11T07:45:49Z</time>
      </trkpt>
      <trkpt lat="28.5495400" lon="-16.2053070">
        <ele>642.9</ele>
        <time>2020-11-11T07:45:50Z</time>
      </trkpt>
      <trkpt lat="28.5495450" lon="-16.2053670">
        <ele>643.9</ele>
        <time>2020-11-11T07:45:51Z</time>
      </trkpt>
      <trkpt lat="28.5495450" lon="-16.2053670">
        <ele>643.9</ele>
        <time>2020-11-11T07:45:52Z</time>
      </trkpt>
      <trkpt lat="28.5495420" lon="-16.2054280">
        <ele>643.9</ele>
        <time>2020-11-11T07:45:53Z</time>
      </trkpt>
      <trkpt lat="28.5495420" lon="-16.2054280">
        <ele>643.9</ele>
        <time>2020-11-11T07:45:54Z</time>
      </trkpt>
      <trkpt lat="28.5495270" lon="-16.2054830">
        <ele>643.9</ele>
        <time>2020-11-11T07:45:55Z</time>
      </trkpt>
      <trkpt lat="28.5495270" lon="-16.2054830">
        <ele>643.9</ele>
        <time>2020-11-11T07:45:56Z</time>
      </trkpt>
      <trkpt lat="28.5495220" lon="-16.2055270">
        <ele>643.9</ele>
        <time>2020-11-11T07:45:57Z</time>
      </trkpt>
      <trkpt lat="28.5495170" lon="-16.2055570">
        <ele>643.9</ele>
        <time>2020-11-11T07:45:58Z</time>
      </trkpt>
      <trkpt lat="28.5495080" lon="-16.2055780">
        <ele>643.9</ele>
        <time>2020-11-11T07:45:59Z</time>
      </trkpt>
      <trkpt lat="28.5495080" lon="-16.2055780">
        <ele>643.9</ele>
        <time>2020-11-11T07:46:00Z</time>
      </trkpt>
      <trkpt lat="28.5494930" lon="-16.2056330">
        <ele>643.9</ele>
        <time>2020-11-11T07:46:01Z</time>
      </trkpt>
      <trkpt lat="28.5494930" lon="-16.2056330">
        <ele>644.9</ele>
        <time>2020-11-11T07:46:02Z</time>
      </trkpt>
      <trkpt lat="28.5494730" lon="-16.2057050">
        <ele>644.9</ele>
        <time>2020-11-11T07:46:03Z</time>
      </trkpt>
      <trkpt lat="28.5494620" lon="-16.2057400">
        <ele>644.9</ele>
        <time>2020-11-11T07:46:04Z</time>
      </trkpt>
      <trkpt lat="28.5494620" lon="-16.2057400">
        <ele>644.9</ele>
        <time>2020-11-11T07:46:05Z</time>
      </trkpt>
      <trkpt lat="28.5494370" lon="-16.2058080">
        <ele>644.9</ele>
        <time>2020-11-11T07:46:06Z</time>
      </trkpt>
      <trkpt lat="28.5494370" lon="-16.2058080">
        <ele>644.9</ele>
        <time>2020-11-11T07:46:07Z</time>
      </trkpt>
      <trkpt lat="28.5494130" lon="-16.2058720">
        <ele>645.9</ele>
        <time>2020-11-11T07:46:08Z</time>
      </trkpt>
      <trkpt lat="28.5494020" lon="-16.2059020">
        <ele>645.9</ele>
        <time>2020-11-11T07:46:09Z</time>
      </trkpt>
      <trkpt lat="28.5494020" lon="-16.2059020">
        <ele>645.9</ele>
        <time>2020-11-11T07:46:10Z</time>
      </trkpt>
      <trkpt lat="28.5493800" lon="-16.2059630">
        <ele>645.9</ele>
        <time>2020-11-11T07:46:11Z</time>
      </trkpt>
      <trkpt lat="28.5493800" lon="-16.2059630">
        <ele>645.9</ele>
        <time>2020-11-11T07:46:12Z</time>
      </trkpt>
      <trkpt lat="28.5493530" lon="-16.2060280">
        <ele>645.9</ele>
        <time>2020-11-11T07:46:13Z</time>
      </trkpt>
      <trkpt lat="28.5493530" lon="-16.2060280">
        <ele>645.9</ele>
        <time>2020-11-11T07:46:14Z</time>
      </trkpt>
      <trkpt lat="28.5493250" lon="-16.2060830">
        <ele>645.9</ele>
        <time>2020-11-11T07:46:15Z</time>
      </trkpt>
      <trkpt lat="28.5493250" lon="-16.2060830">
        <ele>645.9</ele>
        <time>2020-11-11T07:46:16Z</time>
      </trkpt>
      <trkpt lat="28.5492950" lon="-16.2061300">
        <ele>645.9</ele>
        <time>2020-11-11T07:46:17Z</time>
      </trkpt>
      <trkpt lat="28.5492780" lon="-16.2061480">
        <ele>646.9</ele>
        <time>2020-11-11T07:46:18Z</time>
      </trkpt>
      <trkpt lat="28.5492780" lon="-16.2061480">
        <ele>646.9</ele>
        <time>2020-11-11T07:46:19Z</time>
      </trkpt>
      <trkpt lat="28.5492450" lon="-16.2061920">
        <ele>646.9</ele>
        <time>2020-11-11T07:46:20Z</time>
      </trkpt>
      <trkpt lat="28.5492370" lon="-16.2062150">
        <ele>646.9</ele>
        <time>2020-11-11T07:46:21Z</time>
      </trkpt>
      <trkpt lat="28.5492270" lon="-16.2062320">
        <ele>646.9</ele>
        <time>2020-11-11T07:46:22Z</time>
      </trkpt>
      <trkpt lat="28.5492270" lon="-16.2062320">
        <ele>646.9</ele>
        <time>2020-11-11T07:46:23Z</time>
      </trkpt>
      <trkpt lat="28.5491880" lon="-16.2062700">
        <ele>646.9</ele>
        <time>2020-11-11T07:46:24Z</time>
      </trkpt>
      <trkpt lat="28.5491670" lon="-16.2062880">
        <ele>646.9</ele>
        <time>2020-11-11T07:46:25Z</time>
      </trkpt>
      <trkpt lat="28.5491670" lon="-16.2062880">
        <ele>647.9</ele>
        <time>2020-11-11T07:46:26Z</time>
      </trkpt>
      <trkpt lat="28.5491280" lon="-16.2063430">
        <ele>647.9</ele>
        <time>2020-11-11T07:46:27Z</time>
      </trkpt>
      <trkpt lat="28.5491280" lon="-16.2063430">
        <ele>647.9</ele>
        <time>2020-11-11T07:46:28Z</time>
      </trkpt>
      <trkpt lat="28.5490820" lon="-16.2064100">
        <ele>647.9</ele>
        <time>2020-11-11T07:46:29Z</time>
      </trkpt>
      <trkpt lat="28.5490820" lon="-16.2064100">
        <ele>647.9</ele>
        <time>2020-11-11T07:46:30Z</time>
      </trkpt>
      <trkpt lat="28.5490350" lon="-16.2064730">
        <ele>647.9</ele>
        <time>2020-11-11T07:46:31Z</time>
      </trkpt>
      <trkpt lat="28.5490350" lon="-16.2064730">
        <ele>647.9</ele>
        <time>2020-11-11T07:46:32Z</time>
      </trkpt>
      <trkpt lat="28.5489930" lon="-16.2065180">
        <ele>647.9</ele>
        <time>2020-11-11T07:46:33Z</time>
      </trkpt>
      <trkpt lat="28.5489770" lon="-16.2065430">
        <ele>648.9</ele>
        <time>2020-11-11T07:46:34Z</time>
      </trkpt>
      <trkpt lat="28.5489770" lon="-16.2065430">
        <ele>648.9</ele>
        <time>2020-11-11T07:46:35Z</time>
      </trkpt>
      <trkpt lat="28.5489380" lon="-16.2065830">
        <ele>648.9</ele>
        <time>2020-11-11T07:46:36Z</time>
      </trkpt>
      <trkpt lat="28.5489170" lon="-16.2066080">
        <ele>648.9</ele>
        <time>2020-11-11T07:46:37Z</time>
      </trkpt>
      <trkpt lat="28.5489170" lon="-16.2066080">
        <ele>648.9</ele>
        <time>2020-11-11T07:46:38Z</time>
      </trkpt>
      <trkpt lat="28.5488730" lon="-16.2066520">
        <ele>648.9</ele>
        <time>2020-11-11T07:46:39Z</time>
      </trkpt>
      <trkpt lat="28.5488480" lon="-16.2066720">
        <ele>649.9</ele>
        <time>2020-11-11T07:46:40Z</time>
      </trkpt>
      <trkpt lat="28.5488230" lon="-16.2066920">
        <ele>649.9</ele>
        <time>2020-11-11T07:46:41Z</time>
      </trkpt>
      <trkpt lat="28.5488230" lon="-16.2066920">
        <ele>649.9</ele>
        <time>2020-11-11T07:46:42Z</time>
      </trkpt>
      <trkpt lat="28.5487720" lon="-16.2067400">
        <ele>649.9</ele>
        <time>2020-11-11T07:46:43Z</time>
      </trkpt>
      <trkpt lat="28.5487720" lon="-16.2067400">
        <ele>649.9</ele>
        <time>2020-11-11T07:46:44Z</time>
      </trkpt>
      <trkpt lat="28.5487230" lon="-16.2067930">
        <ele>649.9</ele>
        <time>2020-11-11T07:46:45Z</time>
      </trkpt>
      <trkpt lat="28.5487230" lon="-16.2067930">
        <ele>649.9</ele>
        <time>2020-11-11T07:46:46Z</time>
      </trkpt>
      <trkpt lat="28.5486700" lon="-16.2068350">
        <ele>649.9</ele>
        <time>2020-11-11T07:46:47Z</time>
      </trkpt>
      <trkpt lat="28.5486700" lon="-16.2068350">
        <ele>649.9</ele>
        <time>2020-11-11T07:46:48Z</time>
      </trkpt>
      <trkpt lat="28.5486130" lon="-16.2068780">
        <ele>649.9</ele>
        <time>2020-11-11T07:46:49Z</time>
      </trkpt>
      <trkpt lat="28.5485870" lon="-16.2068980">
        <ele>650.9</ele>
        <time>2020-11-11T07:46:50Z</time>
      </trkpt>
      <trkpt lat="28.5485870" lon="-16.2068980">
        <ele>650.9</ele>
        <time>2020-11-11T07:46:51Z</time>
      </trkpt>
      <trkpt lat="28.5485320" lon="-16.2069380">
        <ele>650.9</ele>
        <time>2020-11-11T07:46:52Z</time>
      </trkpt>
      <trkpt lat="28.5485080" lon="-16.2069550">
        <ele>650.9</ele>
        <time>2020-11-11T07:46:53Z</time>
      </trkpt>
      <trkpt lat="28.5485080" lon="-16.2069550">
        <ele>650.9</ele>
        <time>2020-11-11T07:46:54Z</time>
      </trkpt>
      <trkpt lat="28.5484550" lon="-16.2069750">
        <ele>650.9</ele>
        <time>2020-11-11T07:46:55Z</time>
      </trkpt>
      <trkpt lat="28.5484550" lon="-16.2069750">
        <ele>650.9</ele>
        <time>2020-11-11T07:46:56Z</time>
      </trkpt>
      <trkpt lat="28.5483920" lon="-16.2069950">
        <ele>650.9</ele>
        <time>2020-11-11T07:46:57Z</time>
      </trkpt>
      <trkpt lat="28.5483920" lon="-16.2069950">
        <ele>650.9</ele>
        <time>2020-11-11T07:46:58Z</time>
      </trkpt>
      <trkpt lat="28.5483270" lon="-16.2070030">
        <ele>650.9</ele>
        <time>2020-11-11T07:46:59Z</time>
      </trkpt>
      <trkpt lat="28.5482930" lon="-16.2070220">
        <ele>650.9</ele>
        <time>2020-11-11T07:47:00Z</time>
      </trkpt>
      <trkpt lat="28.5482930" lon="-16.2070220">
        <ele>650.9</ele>
        <time>2020-11-11T07:47:01Z</time>
      </trkpt>
      <trkpt lat="28.5482350" lon="-16.2070080">
        <ele>650.9</ele>
        <time>2020-11-11T07:47:02Z</time>
      </trkpt>
      <trkpt lat="28.5482080" lon="-16.2069950">
        <ele>650.9</ele>
        <time>2020-11-11T07:47:03Z</time>
      </trkpt>
      <trkpt lat="28.5482080" lon="-16.2069950">
        <ele>650.9</ele>
        <time>2020-11-11T07:47:04Z</time>
      </trkpt>
      <trkpt lat="28.5481750" lon="-16.2069870">
        <ele>650.9</ele>
        <time>2020-11-11T07:47:05Z</time>
      </trkpt>
      <trkpt lat="28.5481750" lon="-16.2069870">
        <ele>650.9</ele>
        <time>2020-11-11T07:47:06Z</time>
      </trkpt>
      <trkpt lat="28.5481350" lon="-16.2069480">
        <ele>650.9</ele>
        <time>2020-11-11T07:47:07Z</time>
      </trkpt>
      <trkpt lat="28.5481350" lon="-16.2069480">
        <ele>650.9</ele>
        <time>2020-11-11T07:47:08Z</time>
      </trkpt>
      <trkpt lat="28.5480880" lon="-16.2068950">
        <ele>650.9</ele>
        <time>2020-11-11T07:47:09Z</time>
      </trkpt>
      <trkpt lat="28.5480630" lon="-16.2068680">
        <ele>650.9</ele>
        <time>2020-11-11T07:47:10Z</time>
      </trkpt>
      <trkpt lat="28.5480630" lon="-16.2068680">
        <ele>650.9</ele>
        <time>2020-11-11T07:47:11Z</time>
      </trkpt>
      <trkpt lat="28.5480080" lon="-16.2068250">
        <ele>651.9</ele>
        <time>2020-11-11T07:47:12Z</time>
      </trkpt>
      <trkpt lat="28.5479800" lon="-16.2068100">
        <ele>651.9</ele>
        <time>2020-11-11T07:47:13Z</time>
      </trkpt>
      <trkpt lat="28.5479800" lon="-16.2068100">
        <ele>651.9</ele>
        <time>2020-11-11T07:47:14Z</time>
      </trkpt>
      <trkpt lat="28.5479030" lon="-16.2068030">
        <ele>651.9</ele>
        <time>2020-11-11T07:47:15Z</time>
      </trkpt>
      <trkpt lat="28.5478620" lon="-16.2068080">
        <ele>651.9</ele>
        <time>2020-11-11T07:47:16Z</time>
      </trkpt>
      <trkpt lat="28.5478620" lon="-16.2068080">
        <ele>651.9</ele>
        <time>2020-11-11T07:47:17Z</time>
      </trkpt>
      <trkpt lat="28.5477820" lon="-16.2068300">
        <ele>651.9</ele>
        <time>2020-11-11T07:47:18Z</time>
      </trkpt>
      <trkpt lat="28.5477480" lon="-16.2068470">
        <ele>651.9</ele>
        <time>2020-11-11T07:47:19Z</time>
      </trkpt>
      <trkpt lat="28.5477480" lon="-16.2068470">
        <ele>652.9</ele>
        <time>2020-11-11T07:47:20Z</time>
      </trkpt>
      <trkpt lat="28.5476880" lon="-16.2068830">
        <ele>652.9</ele>
        <time>2020-11-11T07:47:21Z</time>
      </trkpt>
      <trkpt lat="28.5476880" lon="-16.2068830">
        <ele>652.9</ele>
        <time>2020-11-11T07:47:22Z</time>
      </trkpt>
      <trkpt lat="28.5476370" lon="-16.2069230">
        <ele>652.9</ele>
        <time>2020-11-11T07:47:23Z</time>
      </trkpt>
      <trkpt lat="28.5476130" lon="-16.2069430">
        <ele>652.9</ele>
        <time>2020-11-11T07:47:24Z</time>
      </trkpt>
      <trkpt lat="28.5476130" lon="-16.2069430">
        <ele>652.9</ele>
        <time>2020-11-11T07:47:25Z</time>
      </trkpt>
      <trkpt lat="28.5475620" lon="-16.2069820">
        <ele>653.9</ele>
        <time>2020-11-11T07:47:26Z</time>
      </trkpt>
      <trkpt lat="28.5475400" lon="-16.2069980">
        <ele>653.9</ele>
        <time>2020-11-11T07:47:27Z</time>
      </trkpt>
      <trkpt lat="28.5475400" lon="-16.2069980">
        <ele>653.9</ele>
        <time>2020-11-11T07:47:28Z</time>
      </trkpt>
      <trkpt lat="28.5475080" lon="-16.2070200">
        <ele>653.9</ele>
        <time>2020-11-11T07:47:29Z</time>
      </trkpt>
      <trkpt lat="28.5475080" lon="-16.2070200">
        <ele>653.9</ele>
        <time>2020-11-11T07:47:30Z</time>
      </trkpt>
      <trkpt lat="28.5474920" lon="-16.2070380">
        <ele>653.9</ele>
        <time>2020-11-11T07:47:31Z</time>
      </trkpt>
      <trkpt lat="28.5474920" lon="-16.2070380">
        <ele>653.9</ele>
        <time>2020-11-11T07:47:32Z</time>
      </trkpt>
      <trkpt lat="28.5474970" lon="-16.2070500">
        <ele>653.9</ele>
        <time>2020-11-11T07:47:33Z</time>
      </trkpt>
      <trkpt lat="28.5474970" lon="-16.2070500">
        <ele>653.9</ele>
        <time>2020-11-11T07:47:34Z</time>
      </trkpt>
      <trkpt lat="28.5474880" lon="-16.2070570">
        <ele>653.9</ele>
        <time>2020-11-11T07:47:35Z</time>
      </trkpt>
      <trkpt lat="28.5474880" lon="-16.2070570">
        <ele>653.9</ele>
        <time>2020-11-11T07:47:36Z</time>
      </trkpt>
      <trkpt lat="28.5474880" lon="-16.2070570">
        <ele>653.9</ele>
        <time>2020-11-11T07:48:27Z</time>
      </trkpt>
      <trkpt lat="28.5474370" lon="-16.2071200">
        <ele>653.9</ele>
        <time>2020-11-11T07:48:28Z</time>
      </trkpt>
      <trkpt lat="28.5474370" lon="-16.2071200">
        <ele>653.9</ele>
        <time>2020-11-11T07:48:29Z</time>
      </trkpt>
      <trkpt lat="28.5474030" lon="-16.2071350">
        <ele>653.9</ele>
        <time>2020-11-11T07:48:30Z</time>
      </trkpt>
      <trkpt lat="28.5474030" lon="-16.2071350">
        <ele>653.9</ele>
        <time>2020-11-11T07:48:31Z</time>
      </trkpt>
      <trkpt lat="28.5473770" lon="-16.2071700">
        <ele>653.9</ele>
        <time>2020-11-11T07:48:32Z</time>
      </trkpt>
      <trkpt lat="28.5473770" lon="-16.2071700">
        <ele>653.9</ele>
        <time>2020-11-11T07:48:33Z</time>
      </trkpt>
      <trkpt lat="28.5473550" lon="-16.2072030">
        <ele>653.9</ele>
        <time>2020-11-11T07:48:34Z</time>
      </trkpt>
      <trkpt lat="28.5473550" lon="-16.2072030">
        <ele>655.9</ele>
        <time>2020-11-11T07:48:35Z</time>
      </trkpt>
      <trkpt lat="28.5473500" lon="-16.2072470">
        <ele>655.9</ele>
        <time>2020-11-11T07:48:36Z</time>
      </trkpt>
      <trkpt lat="28.5473570" lon="-16.2072730">
        <ele>655.9</ele>
        <time>2020-11-11T07:48:37Z</time>
      </trkpt>
      <trkpt lat="28.5473570" lon="-16.2072730">
        <ele>655.9</ele>
        <time>2020-11-11T07:48:38Z</time>
      </trkpt>
      <trkpt lat="28.5473730" lon="-16.2073250">
        <ele>655.9</ele>
        <time>2020-11-11T07:48:39Z</time>
      </trkpt>
      <trkpt lat="28.5473870" lon="-16.2073520">
        <ele>655.9</ele>
        <time>2020-11-11T07:48:40Z</time>
      </trkpt>
      <trkpt lat="28.5473870" lon="-16.2073520">
        <ele>655.9</ele>
        <time>2020-11-11T07:48:41Z</time>
      </trkpt>
      <trkpt lat="28.5474200" lon="-16.2073980">
        <ele>655.9</ele>
        <time>2020-11-11T07:48:42Z</time>
      </trkpt>
      <trkpt lat="28.5474420" lon="-16.2074200">
        <ele>656.9</ele>
        <time>2020-11-11T07:48:43Z</time>
      </trkpt>
      <trkpt lat="28.5474580" lon="-16.2074400">
        <ele>656.9</ele>
        <time>2020-11-11T07:48:44Z</time>
      </trkpt>
      <trkpt lat="28.5474580" lon="-16.2074400">
        <ele>656.9</ele>
        <time>2020-11-11T07:48:45Z</time>
      </trkpt>
      <trkpt lat="28.5474930" lon="-16.2074770">
        <ele>656.9</ele>
        <time>2020-11-11T07:48:46Z</time>
      </trkpt>
      <trkpt lat="28.5475080" lon="-16.2075020">
        <ele>656.9</ele>
        <time>2020-11-11T07:48:47Z</time>
      </trkpt>
      <trkpt lat="28.5475230" lon="-16.2075230">
        <ele>656.9</ele>
        <time>2020-11-11T07:48:48Z</time>
      </trkpt>
      <trkpt lat="28.5475230" lon="-16.2075230">
        <ele>657.9</ele>
        <time>2020-11-11T07:48:49Z</time>
      </trkpt>
      <trkpt lat="28.5475550" lon="-16.2075720">
        <ele>657.9</ele>
        <time>2020-11-11T07:48:50Z</time>
      </trkpt>
      <trkpt lat="28.5475550" lon="-16.2075720">
        <ele>657.9</ele>
        <time>2020-11-11T07:48:51Z</time>
      </trkpt>
      <trkpt lat="28.5475870" lon="-16.2076220">
        <ele>657.9</ele>
        <time>2020-11-11T07:48:52Z</time>
      </trkpt>
      <trkpt lat="28.5475870" lon="-16.2076220">
        <ele>658.9</ele>
        <time>2020-11-11T07:48:53Z</time>
      </trkpt>
      <trkpt lat="28.5476200" lon="-16.2076680">
        <ele>658.9</ele>
        <time>2020-11-11T07:48:54Z</time>
      </trkpt>
      <trkpt lat="28.5476200" lon="-16.2076680">
        <ele>658.9</ele>
        <time>2020-11-11T07:48:55Z</time>
      </trkpt>
      <trkpt lat="28.5476520" lon="-16.2077120">
        <ele>658.9</ele>
        <time>2020-11-11T07:48:56Z</time>
      </trkpt>
      <trkpt lat="28.5476520" lon="-16.2077120">
        <ele>658.9</ele>
        <time>2020-11-11T07:48:57Z</time>
      </trkpt>
      <trkpt lat="28.5476820" lon="-16.2077580">
        <ele>658.9</ele>
        <time>2020-11-11T07:48:58Z</time>
      </trkpt>
      <trkpt lat="28.5476970" lon="-16.2077850">
        <ele>659.9</ele>
        <time>2020-11-11T07:48:59Z</time>
      </trkpt>
      <trkpt lat="28.5476970" lon="-16.2077850">
        <ele>659.9</ele>
        <time>2020-11-11T07:49:00Z</time>
      </trkpt>
      <trkpt lat="28.5477200" lon="-16.2078350">
        <ele>659.9</ele>
        <time>2020-11-11T07:49:01Z</time>
      </trkpt>
      <trkpt lat="28.5477280" lon="-16.2078650">
        <ele>659.9</ele>
        <time>2020-11-11T07:49:02Z</time>
      </trkpt>
      <trkpt lat="28.5477280" lon="-16.2078650">
        <ele>659.9</ele>
        <time>2020-11-11T07:49:03Z</time>
      </trkpt>
      <trkpt lat="28.5477530" lon="-16.2079230">
        <ele>659.9</ele>
        <time>2020-11-11T07:49:04Z</time>
      </trkpt>
      <trkpt lat="28.5477630" lon="-16.2079480">
        <ele>660.9</ele>
        <time>2020-11-11T07:49:05Z</time>
      </trkpt>
      <trkpt lat="28.5477730" lon="-16.2079730">
        <ele>660.9</ele>
        <time>2020-11-11T07:49:06Z</time>
      </trkpt>
      <trkpt lat="28.5477730" lon="-16.2079730">
        <ele>660.9</ele>
        <time>2020-11-11T07:49:07Z</time>
      </trkpt>
      <trkpt lat="28.5477900" lon="-16.2080300">
        <ele>660.9</ele>
        <time>2020-11-11T07:49:08Z</time>
      </trkpt>
      <trkpt lat="28.5477900" lon="-16.2080300">
        <ele>661.9</ele>
        <time>2020-11-11T07:49:09Z</time>
      </trkpt>
      <trkpt lat="28.5478050" lon="-16.2080770">
        <ele>661.9</ele>
        <time>2020-11-11T07:49:10Z</time>
      </trkpt>
      <trkpt lat="28.5478050" lon="-16.2080770">
        <ele>661.9</ele>
        <time>2020-11-11T07:49:11Z</time>
      </trkpt>
      <trkpt lat="28.5478180" lon="-16.2081250">
        <ele>661.9</ele>
        <time>2020-11-11T07:49:12Z</time>
      </trkpt>
      <trkpt lat="28.5478180" lon="-16.2081250">
        <ele>662.9</ele>
        <time>2020-11-11T07:49:13Z</time>
      </trkpt>
      <trkpt lat="28.5478300" lon="-16.2081720">
        <ele>662.9</ele>
        <time>2020-11-11T07:49:14Z</time>
      </trkpt>
      <trkpt lat="28.5478300" lon="-16.2081720">
        <ele>662.9</ele>
        <time>2020-11-11T07:49:15Z</time>
      </trkpt>
      <trkpt lat="28.5478370" lon="-16.2082170">
        <ele>663.9</ele>
        <time>2020-11-11T07:49:16Z</time>
      </trkpt>
      <trkpt lat="28.5478370" lon="-16.2082170">
        <ele>663.9</ele>
        <time>2020-11-11T07:49:17Z</time>
      </trkpt>
      <trkpt lat="28.5478280" lon="-16.2082700">
        <ele>663.9</ele>
        <time>2020-11-11T07:49:18Z</time>
      </trkpt>
      <trkpt lat="28.5478250" lon="-16.2082980">
        <ele>663.9</ele>
        <time>2020-11-11T07:49:19Z</time>
      </trkpt>
      <trkpt lat="28.5478250" lon="-16.2082980">
        <ele>664.9</ele>
        <time>2020-11-11T07:49:20Z</time>
      </trkpt>
      <trkpt lat="28.5478100" lon="-16.2083550">
        <ele>664.9</ele>
        <time>2020-11-11T07:49:21Z</time>
      </trkpt>
      <trkpt lat="28.5478030" lon="-16.2083820">
        <ele>664.9</ele>
        <time>2020-11-11T07:49:22Z</time>
      </trkpt>
      <trkpt lat="28.5477930" lon="-16.2084030">
        <ele>664.9</ele>
        <time>2020-11-11T07:49:23Z</time>
      </trkpt>
      <trkpt lat="28.5477930" lon="-16.2084030">
        <ele>664.9</ele>
        <time>2020-11-11T07:49:24Z</time>
      </trkpt>
      <trkpt lat="28.5477780" lon="-16.2084600">
        <ele>664.9</ele>
        <time>2020-11-11T07:49:25Z</time>
      </trkpt>
      <trkpt lat="28.5477680" lon="-16.2084870">
        <ele>664.9</ele>
        <time>2020-11-11T07:49:26Z</time>
      </trkpt>
      <trkpt lat="28.5477680" lon="-16.2084870">
        <ele>664.9</ele>
        <time>2020-11-11T07:49:27Z</time>
      </trkpt>
      <trkpt lat="28.5477570" lon="-16.2085380">
        <ele>666.9</ele>
        <time>2020-11-11T07:49:28Z</time>
      </trkpt>
      <trkpt lat="28.5477570" lon="-16.2085380">
        <ele>666.9</ele>
        <time>2020-11-11T07:49:29Z</time>
      </trkpt>
      <trkpt lat="28.5477530" lon="-16.2086000">
        <ele>666.9</ele>
        <time>2020-11-11T07:49:30Z</time>
      </trkpt>
      <trkpt lat="28.5477550" lon="-16.2086280">
        <ele>666.9</ele>
        <time>2020-11-11T07:49:31Z</time>
      </trkpt>
      <trkpt lat="28.5477550" lon="-16.2086280">
        <ele>666.9</ele>
        <time>2020-11-11T07:49:32Z</time>
      </trkpt>
      <trkpt lat="28.5477550" lon="-16.2086850">
        <ele>667.9</ele>
        <time>2020-11-11T07:49:33Z</time>
      </trkpt>
      <trkpt lat="28.5477550" lon="-16.2086850">
        <ele>667.9</ele>
        <time>2020-11-11T07:49:34Z</time>
      </trkpt>
      <trkpt lat="28.5477600" lon="-16.2087370">
        <ele>667.9</ele>
        <time>2020-11-11T07:49:35Z</time>
      </trkpt>
      <trkpt lat="28.5477600" lon="-16.2087370">
        <ele>667.9</ele>
        <time>2020-11-11T07:49:36Z</time>
      </trkpt>
      <trkpt lat="28.5477620" lon="-16.2087880">
        <ele>668.9</ele>
        <time>2020-11-11T07:49:37Z</time>
      </trkpt>
      <trkpt lat="28.5477620" lon="-16.2088100">
        <ele>668.9</ele>
        <time>2020-11-11T07:49:38Z</time>
      </trkpt>
      <trkpt lat="28.5477620" lon="-16.2088100">
        <ele>668.9</ele>
        <time>2020-11-11T07:49:39Z</time>
      </trkpt>
      <trkpt lat="28.5477530" lon="-16.2088600">
        <ele>668.9</ele>
        <time>2020-11-11T07:49:40Z</time>
      </trkpt>
      <trkpt lat="28.5477530" lon="-16.2088600">
        <ele>669.9</ele>
        <time>2020-11-11T07:49:41Z</time>
      </trkpt>
      <trkpt lat="28.5477350" lon="-16.2089000">
        <ele>669.9</ele>
        <time>2020-11-11T07:49:42Z</time>
      </trkpt>
      <trkpt lat="28.5477350" lon="-16.2089000">
        <ele>669.9</ele>
        <time>2020-11-11T07:49:43Z</time>
      </trkpt>
      <trkpt lat="28.5477070" lon="-16.2089430">
        <ele>669.9</ele>
        <time>2020-11-11T07:49:44Z</time>
      </trkpt>
      <trkpt lat="28.5477070" lon="-16.2089430">
        <ele>669.9</ele>
        <time>2020-11-11T07:49:45Z</time>
      </trkpt>
      <trkpt lat="28.5476670" lon="-16.2089730">
        <ele>669.9</ele>
        <time>2020-11-11T07:49:46Z</time>
      </trkpt>
      <trkpt lat="28.5476670" lon="-16.2089730">
        <ele>669.9</ele>
        <time>2020-11-11T07:49:47Z</time>
      </trkpt>
      <trkpt lat="28.5476220" lon="-16.2089930">
        <ele>669.9</ele>
        <time>2020-11-11T07:49:48Z</time>
      </trkpt>
      <trkpt lat="28.5476220" lon="-16.2089930">
        <ele>669.9</ele>
        <time>2020-11-11T07:49:49Z</time>
      </trkpt>
      <trkpt lat="28.5475720" lon="-16.2090030">
        <ele>669.9</ele>
        <time>2020-11-11T07:49:50Z</time>
      </trkpt>
      <trkpt lat="28.5475480" lon="-16.2090020">
        <ele>670.9</ele>
        <time>2020-11-11T07:49:51Z</time>
      </trkpt>
      <trkpt lat="28.5475480" lon="-16.2090020">
        <ele>670.9</ele>
        <time>2020-11-11T07:49:52Z</time>
      </trkpt>
      <trkpt lat="28.5475000" lon="-16.2089970">
        <ele>670.9</ele>
        <time>2020-11-11T07:49:53Z</time>
      </trkpt>
      <trkpt lat="28.5475000" lon="-16.2089970">
        <ele>671.9</ele>
        <time>2020-11-11T07:49:54Z</time>
      </trkpt>
      <trkpt lat="28.5474520" lon="-16.2089780">
        <ele>671.9</ele>
        <time>2020-11-11T07:49:55Z</time>
      </trkpt>
      <trkpt lat="28.5474300" lon="-16.2089730">
        <ele>671.9</ele>
        <time>2020-11-11T07:49:56Z</time>
      </trkpt>
      <trkpt lat="28.5474300" lon="-16.2089730">
        <ele>671.9</ele>
        <time>2020-11-11T07:49:57Z</time>
      </trkpt>
      <trkpt lat="28.5473870" lon="-16.2089570">
        <ele>672.9</ele>
        <time>2020-11-11T07:49:58Z</time>
      </trkpt>
      <trkpt lat="28.5473670" lon="-16.2089470">
        <ele>672.9</ele>
        <time>2020-11-11T07:49:59Z</time>
      </trkpt>
      <trkpt lat="28.5473480" lon="-16.2089350">
        <ele>672.9</ele>
        <time>2020-11-11T07:50:00Z</time>
      </trkpt>
      <trkpt lat="28.5473480" lon="-16.2089350">
        <ele>672.9</ele>
        <time>2020-11-11T07:50:01Z</time>
      </trkpt>
      <trkpt lat="28.5473120" lon="-16.2089270">
        <ele>672.9</ele>
        <time>2020-11-11T07:50:02Z</time>
      </trkpt>
      <trkpt lat="28.5472950" lon="-16.2089120">
        <ele>672.9</ele>
        <time>2020-11-11T07:50:03Z</time>
      </trkpt>
      <trkpt lat="28.5472950" lon="-16.2089120">
        <ele>673.9</ele>
        <time>2020-11-11T07:50:04Z</time>
      </trkpt>
      <trkpt lat="28.5472570" lon="-16.2088870">
        <ele>673.9</ele>
        <time>2020-11-11T07:50:05Z</time>
      </trkpt>
      <trkpt lat="28.5472370" lon="-16.2088750">
        <ele>673.9</ele>
        <time>2020-11-11T07:50:06Z</time>
      </trkpt>
      <trkpt lat="28.5472370" lon="-16.2088750">
        <ele>673.9</ele>
        <time>2020-11-11T07:50:07Z</time>
      </trkpt>
      <trkpt lat="28.5471920" lon="-16.2088550">
        <ele>673.9</ele>
        <time>2020-11-11T07:50:08Z</time>
      </trkpt>
      <trkpt lat="28.5471920" lon="-16.2088550">
        <ele>673.9</ele>
        <time>2020-11-11T07:50:09Z</time>
      </trkpt>
      <trkpt lat="28.5471500" lon="-16.2088350">
        <ele>674.9</ele>
        <time>2020-11-11T07:50:10Z</time>
      </trkpt>
      <trkpt lat="28.5471500" lon="-16.2088350">
        <ele>674.9</ele>
        <time>2020-11-11T07:50:11Z</time>
      </trkpt>
      <trkpt lat="28.5471070" lon="-16.2088200">
        <ele>674.9</ele>
        <time>2020-11-11T07:50:12Z</time>
      </trkpt>
      <trkpt lat="28.5471070" lon="-16.2088200">
        <ele>674.9</ele>
        <time>2020-11-11T07:50:13Z</time>
      </trkpt>
      <trkpt lat="28.5470680" lon="-16.2088100">
        <ele>675.9</ele>
        <time>2020-11-11T07:50:14Z</time>
      </trkpt>
      <trkpt lat="28.5470680" lon="-16.2088100">
        <ele>675.9</ele>
        <time>2020-11-11T07:50:15Z</time>
      </trkpt>
      <trkpt lat="28.5470320" lon="-16.2088120">
        <ele>675.9</ele>
        <time>2020-11-11T07:50:16Z</time>
      </trkpt>
      <trkpt lat="28.5470130" lon="-16.2088180">
        <ele>675.9</ele>
        <time>2020-11-11T07:50:17Z</time>
      </trkpt>
      <trkpt lat="28.5470130" lon="-16.2088180">
        <ele>675.9</ele>
        <time>2020-11-11T07:50:18Z</time>
      </trkpt>
      <trkpt lat="28.5469730" lon="-16.2088300">
        <ele>675.9</ele>
        <time>2020-11-11T07:50:19Z</time>
      </trkpt>
      <trkpt lat="28.5469530" lon="-16.2088330">
        <ele>676.9</ele>
        <time>2020-11-11T07:50:20Z</time>
      </trkpt>
      <trkpt lat="28.5469530" lon="-16.2088330">
        <ele>676.9</ele>
        <time>2020-11-11T07:50:21Z</time>
      </trkpt>
      <trkpt lat="28.5469130" lon="-16.2088430">
        <ele>676.9</ele>
        <time>2020-11-11T07:50:22Z</time>
      </trkpt>
      <trkpt lat="28.5468920" lon="-16.2088500">
        <ele>676.9</ele>
        <time>2020-11-11T07:50:23Z</time>
      </trkpt>
      <trkpt lat="28.5468920" lon="-16.2088500">
        <ele>676.9</ele>
        <time>2020-11-11T07:50:24Z</time>
      </trkpt>
      <trkpt lat="28.5468550" lon="-16.2088650">
        <ele>676.9</ele>
        <time>2020-11-11T07:50:25Z</time>
      </trkpt>
      <trkpt lat="28.5468380" lon="-16.2088770">
        <ele>676.9</ele>
        <time>2020-11-11T07:50:26Z</time>
      </trkpt>
      <trkpt lat="28.5468380" lon="-16.2088770">
        <ele>676.9</ele>
        <time>2020-11-11T07:50:27Z</time>
      </trkpt>
      <trkpt lat="28.5468030" lon="-16.2088980">
        <ele>676.9</ele>
        <time>2020-11-11T07:50:28Z</time>
      </trkpt>
      <trkpt lat="28.5468030" lon="-16.2088980">
        <ele>676.9</ele>
        <time>2020-11-11T07:50:29Z</time>
      </trkpt>
      <trkpt lat="28.5467650" lon="-16.2089050">
        <ele>676.9</ele>
        <time>2020-11-11T07:50:30Z</time>
      </trkpt>
      <trkpt lat="28.5467650" lon="-16.2089050">
        <ele>677.9</ele>
        <time>2020-11-11T07:50:31Z</time>
      </trkpt>
      <trkpt lat="28.5467300" lon="-16.2089200">
        <ele>677.9</ele>
        <time>2020-11-11T07:50:32Z</time>
      </trkpt>
      <trkpt lat="28.5467300" lon="-16.2089200">
        <ele>677.9</ele>
        <time>2020-11-11T07:50:33Z</time>
      </trkpt>
      <trkpt lat="28.5466870" lon="-16.2089330">
        <ele>677.9</ele>
        <time>2020-11-11T07:50:34Z</time>
      </trkpt>
      <trkpt lat="28.5466670" lon="-16.2089400">
        <ele>677.9</ele>
        <time>2020-11-11T07:50:35Z</time>
      </trkpt>
      <trkpt lat="28.5466670" lon="-16.2089400">
        <ele>677.9</ele>
        <time>2020-11-11T07:50:36Z</time>
      </trkpt>
      <trkpt lat="28.5466200" lon="-16.2089550">
        <ele>678.9</ele>
        <time>2020-11-11T07:50:37Z</time>
      </trkpt>
      <trkpt lat="28.5466200" lon="-16.2089550">
        <ele>678.9</ele>
        <time>2020-11-11T07:50:38Z</time>
      </trkpt>
      <trkpt lat="28.5465750" lon="-16.2089620">
        <ele>678.9</ele>
        <time>2020-11-11T07:50:39Z</time>
      </trkpt>
      <trkpt lat="28.5465750" lon="-16.2089620">
        <ele>678.9</ele>
        <time>2020-11-11T07:50:40Z</time>
      </trkpt>
      <trkpt lat="28.5465250" lon="-16.2089700">
        <ele>678.9</ele>
        <time>2020-11-11T07:50:41Z</time>
      </trkpt>
      <trkpt lat="28.5465050" lon="-16.2089700">
        <ele>679.9</ele>
        <time>2020-11-11T07:50:42Z</time>
      </trkpt>
      <trkpt lat="28.5465050" lon="-16.2089700">
        <ele>679.9</ele>
        <time>2020-11-11T07:50:43Z</time>
      </trkpt>
      <trkpt lat="28.5464620" lon="-16.2089650">
        <ele>679.9</ele>
        <time>2020-11-11T07:50:44Z</time>
      </trkpt>
      <trkpt lat="28.5464620" lon="-16.2089650">
        <ele>679.9</ele>
        <time>2020-11-11T07:50:45Z</time>
      </trkpt>
      <trkpt lat="28.5464180" lon="-16.2089530">
        <ele>680.9</ele>
        <time>2020-11-11T07:50:46Z</time>
      </trkpt>
      <trkpt lat="28.5463970" lon="-16.2089500">
        <ele>680.9</ele>
        <time>2020-11-11T07:50:47Z</time>
      </trkpt>
      <trkpt lat="28.5463970" lon="-16.2089500">
        <ele>680.9</ele>
        <time>2020-11-11T07:50:48Z</time>
      </trkpt>
      <trkpt lat="28.5463620" lon="-16.2089370">
        <ele>680.9</ele>
        <time>2020-11-11T07:50:49Z</time>
      </trkpt>
      <trkpt lat="28.5463470" lon="-16.2089270">
        <ele>680.9</ele>
        <time>2020-11-11T07:50:50Z</time>
      </trkpt>
      <trkpt lat="28.5463470" lon="-16.2089270">
        <ele>680.9</ele>
        <time>2020-11-11T07:50:51Z</time>
      </trkpt>
      <trkpt lat="28.5463120" lon="-16.2089030">
        <ele>681.9</ele>
        <time>2020-11-11T07:50:52Z</time>
      </trkpt>
      <trkpt lat="28.5462930" lon="-16.2088900">
        <ele>681.9</ele>
        <time>2020-11-11T07:50:53Z</time>
      </trkpt>
      <trkpt lat="28.5462930" lon="-16.2088900">
        <ele>681.9</ele>
        <time>2020-11-11T07:50:54Z</time>
      </trkpt>
      <trkpt lat="28.5462570" lon="-16.2088630">
        <ele>681.9</ele>
        <time>2020-11-11T07:50:55Z</time>
      </trkpt>
      <trkpt lat="28.5462570" lon="-16.2088630">
        <ele>681.9</ele>
        <time>2020-11-11T07:50:56Z</time>
      </trkpt>
      <trkpt lat="28.5462220" lon="-16.2088320">
        <ele>681.9</ele>
        <time>2020-11-11T07:50:57Z</time>
      </trkpt>
      <trkpt lat="28.5462220" lon="-16.2088320">
        <ele>682.9</ele>
        <time>2020-11-11T07:50:58Z</time>
      </trkpt>
      <trkpt lat="28.5461820" lon="-16.2088020">
        <ele>682.9</ele>
        <time>2020-11-11T07:50:59Z</time>
      </trkpt>
      <trkpt lat="28.5461820" lon="-16.2088020">
        <ele>682.9</ele>
        <time>2020-11-11T07:51:00Z</time>
      </trkpt>
      <trkpt lat="28.5461520" lon="-16.2087700">
        <ele>682.9</ele>
        <time>2020-11-11T07:51:01Z</time>
      </trkpt>
      <trkpt lat="28.5461370" lon="-16.2087530">
        <ele>682.9</ele>
        <time>2020-11-11T07:51:02Z</time>
      </trkpt>
      <trkpt lat="28.5461370" lon="-16.2087530">
        <ele>682.9</ele>
        <time>2020-11-11T07:51:03Z</time>
      </trkpt>
      <trkpt lat="28.5460930" lon="-16.2087170">
        <ele>682.9</ele>
        <time>2020-11-11T07:51:04Z</time>
      </trkpt>
      <trkpt lat="28.5460930" lon="-16.2087170">
        <ele>682.9</ele>
        <time>2020-11-11T07:51:05Z</time>
      </trkpt>
      <trkpt lat="28.5460650" lon="-16.2086830">
        <ele>682.9</ele>
        <time>2020-11-11T07:51:06Z</time>
      </trkpt>
      <trkpt lat="28.5460470" lon="-16.2086620">
        <ele>682.9</ele>
        <time>2020-11-11T07:51:07Z</time>
      </trkpt>
      <trkpt lat="28.5460380" lon="-16.2086400">
        <ele>682.9</ele>
        <time>2020-11-11T07:51:08Z</time>
      </trkpt>
      <trkpt lat="28.5460380" lon="-16.2086400">
        <ele>683.9</ele>
        <time>2020-11-11T07:51:09Z</time>
      </trkpt>
      <trkpt lat="28.5460130" lon="-16.2085970">
        <ele>683.9</ele>
        <time>2020-11-11T07:51:10Z</time>
      </trkpt>
      <trkpt lat="28.5460020" lon="-16.2085730">
        <ele>683.9</ele>
        <time>2020-11-11T07:51:11Z</time>
      </trkpt>
      <trkpt lat="28.5460020" lon="-16.2085730">
        <ele>683.9</ele>
        <time>2020-11-11T07:51:12Z</time>
      </trkpt>
      <trkpt lat="28.5459820" lon="-16.2085330">
        <ele>684.9</ele>
        <time>2020-11-11T07:51:13Z</time>
      </trkpt>
      <trkpt lat="28.5459700" lon="-16.2085150">
        <ele>684.9</ele>
        <time>2020-11-11T07:51:14Z</time>
      </trkpt>
      <trkpt lat="28.5459700" lon="-16.2085150">
        <ele>684.9</ele>
        <time>2020-11-11T07:51:15Z</time>
      </trkpt>
      <trkpt lat="28.5459550" lon="-16.2084730">
        <ele>684.9</ele>
        <time>2020-11-11T07:51:16Z</time>
      </trkpt>
      <trkpt lat="28.5459550" lon="-16.2084730">
        <ele>684.9</ele>
        <time>2020-11-11T07:51:17Z</time>
      </trkpt>
      <trkpt lat="28.5459370" lon="-16.2084370">
        <ele>684.9</ele>
        <time>2020-11-11T07:51:18Z</time>
      </trkpt>
      <trkpt lat="28.5459370" lon="-16.2084370">
        <ele>685.9</ele>
        <time>2020-11-11T07:51:19Z</time>
      </trkpt>
      <trkpt lat="28.5459170" lon="-16.2084000">
        <ele>685.9</ele>
        <time>2020-11-11T07:51:20Z</time>
      </trkpt>
      <trkpt lat="28.5459170" lon="-16.2084000">
        <ele>685.9</ele>
        <time>2020-11-11T07:51:21Z</time>
      </trkpt>
      <trkpt lat="28.5458920" lon="-16.2083620">
        <ele>685.9</ele>
        <time>2020-11-11T07:51:22Z</time>
      </trkpt>
      <trkpt lat="28.5458830" lon="-16.2083450">
        <ele>685.9</ele>
        <time>2020-11-11T07:51:23Z</time>
      </trkpt>
      <trkpt lat="28.5458830" lon="-16.2083450">
        <ele>685.9</ele>
        <time>2020-11-11T07:51:24Z</time>
      </trkpt>
      <trkpt lat="28.5458530" lon="-16.2083130">
        <ele>686.9</ele>
        <time>2020-11-11T07:51:25Z</time>
      </trkpt>
      <trkpt lat="28.5458530" lon="-16.2083130">
        <ele>686.9</ele>
        <time>2020-11-11T07:51:26Z</time>
      </trkpt>
      <trkpt lat="28.5458170" lon="-16.2082850">
        <ele>686.9</ele>
        <time>2020-11-11T07:51:27Z</time>
      </trkpt>
      <trkpt lat="28.5458170" lon="-16.2082850">
        <ele>686.9</ele>
        <time>2020-11-11T07:51:28Z</time>
      </trkpt>
      <trkpt lat="28.5457770" lon="-16.2082570">
        <ele>687.9</ele>
        <time>2020-11-11T07:51:29Z</time>
      </trkpt>
      <trkpt lat="28.5457520" lon="-16.2082480">
        <ele>687.9</ele>
        <time>2020-11-11T07:51:30Z</time>
      </trkpt>
      <trkpt lat="28.5457520" lon="-16.2082480">
        <ele>687.9</ele>
        <time>2020-11-11T07:51:31Z</time>
      </trkpt>
      <trkpt lat="28.5457000" lon="-16.2082600">
        <ele>687.9</ele>
        <time>2020-11-11T07:51:32Z</time>
      </trkpt>
      <trkpt lat="28.5457000" lon="-16.2082600">
        <ele>688.9</ele>
        <time>2020-11-11T07:51:33Z</time>
      </trkpt>
      <trkpt lat="28.5456570" lon="-16.2083030">
        <ele>688.9</ele>
        <time>2020-11-11T07:51:34Z</time>
      </trkpt>
      <trkpt lat="28.5456570" lon="-16.2083030">
        <ele>688.9</ele>
        <time>2020-11-11T07:51:35Z</time>
      </trkpt>
      <trkpt lat="28.5456330" lon="-16.2083470">
        <ele>688.9</ele>
        <time>2020-11-11T07:51:36Z</time>
      </trkpt>
      <trkpt lat="28.5456300" lon="-16.2083650">
        <ele>689.9</ele>
        <time>2020-11-11T07:51:37Z</time>
      </trkpt>
      <trkpt lat="28.5456300" lon="-16.2083900">
        <ele>689.9</ele>
        <time>2020-11-11T07:51:38Z</time>
      </trkpt>
      <trkpt lat="28.5456300" lon="-16.2083900">
        <ele>689.9</ele>
        <time>2020-11-11T07:51:39Z</time>
      </trkpt>
      <trkpt lat="28.5456430" lon="-16.2084180">
        <ele>689.9</ele>
        <time>2020-11-11T07:51:40Z</time>
      </trkpt>
      <trkpt lat="28.5456430" lon="-16.2084180">
        <ele>690.9</ele>
        <time>2020-11-11T07:51:41Z</time>
      </trkpt>
      <trkpt lat="28.5456700" lon="-16.2084450">
        <ele>690.9</ele>
        <time>2020-11-11T07:51:42Z</time>
      </trkpt>
      <trkpt lat="28.5456700" lon="-16.2084450">
        <ele>690.9</ele>
        <time>2020-11-11T07:51:43Z</time>
      </trkpt>
      <trkpt lat="28.5456970" lon="-16.2084750">
        <ele>690.9</ele>
        <time>2020-11-11T07:51:44Z</time>
      </trkpt>
      <trkpt lat="28.5456970" lon="-16.2084750">
        <ele>691.9</ele>
        <time>2020-11-11T07:51:45Z</time>
      </trkpt>
      <trkpt lat="28.5457350" lon="-16.2085000">
        <ele>691.9</ele>
        <time>2020-11-11T07:51:46Z</time>
      </trkpt>
      <trkpt lat="28.5457350" lon="-16.2085000">
        <ele>691.9</ele>
        <time>2020-11-11T07:51:47Z</time>
      </trkpt>
      <trkpt lat="28.5457730" lon="-16.2085300">
        <ele>692.9</ele>
        <time>2020-11-11T07:51:48Z</time>
      </trkpt>
      <trkpt lat="28.5457730" lon="-16.2085300">
        <ele>692.9</ele>
        <time>2020-11-11T07:51:49Z</time>
      </trkpt>
      <trkpt lat="28.5458020" lon="-16.2085600">
        <ele>692.9</ele>
        <time>2020-11-11T07:51:50Z</time>
      </trkpt>
      <trkpt lat="28.5458020" lon="-16.2085600">
        <ele>692.9</ele>
        <time>2020-11-11T07:51:51Z</time>
      </trkpt>
      <trkpt lat="28.5458300" lon="-16.2085820">
        <ele>692.9</ele>
        <time>2020-11-11T07:51:52Z</time>
      </trkpt>
      <trkpt lat="28.5458300" lon="-16.2085820">
        <ele>692.9</ele>
        <time>2020-11-11T07:51:53Z</time>
      </trkpt>
      <trkpt lat="28.5458570" lon="-16.2086020">
        <ele>692.9</ele>
        <time>2020-11-11T07:51:54Z</time>
      </trkpt>
      <trkpt lat="28.5458570" lon="-16.2086020">
        <ele>692.9</ele>
        <time>2020-11-11T07:51:55Z</time>
      </trkpt>
      <trkpt lat="28.5458670" lon="-16.2086170">
        <ele>692.9</ele>
        <time>2020-11-11T07:51:56Z</time>
      </trkpt>
      <trkpt lat="28.5458670" lon="-16.2086170">
        <ele>693.9</ele>
        <time>2020-11-11T07:51:57Z</time>
      </trkpt>
      <trkpt lat="28.5458680" lon="-16.2086200">
        <ele>693.9</ele>
        <time>2020-11-11T07:52:17Z</time>
      </trkpt>
      <trkpt lat="28.5458680" lon="-16.2086200">
        <ele>693.9</ele>
        <time>2020-11-11T07:52:18Z</time>
      </trkpt>
      <trkpt lat="28.5457980" lon="-16.2085650">
        <ele>693.9</ele>
        <time>2020-11-11T07:52:19Z</time>
      </trkpt>
      <trkpt lat="28.5457980" lon="-16.2085650">
        <ele>693.9</ele>
        <time>2020-11-11T07:52:20Z</time>
      </trkpt>
      <trkpt lat="28.5457320" lon="-16.2085270">
        <ele>693.9</ele>
        <time>2020-11-11T07:52:21Z</time>
      </trkpt>
      <trkpt lat="28.5457320" lon="-16.2085270">
        <ele>693.9</ele>
        <time>2020-11-11T07:52:22Z</time>
      </trkpt>
      <trkpt lat="28.5456650" lon="-16.2084950">
        <ele>692.9</ele>
        <time>2020-11-11T07:52:23Z</time>
      </trkpt>
      <trkpt lat="28.5456650" lon="-16.2084950">
        <ele>692.9</ele>
        <time>2020-11-11T07:52:24Z</time>
      </trkpt>
      <trkpt lat="28.5456400" lon="-16.2084580">
        <ele>692.9</ele>
        <time>2020-11-11T07:52:25Z</time>
      </trkpt>
      <trkpt lat="28.5456400" lon="-16.2084580">
        <ele>692.9</ele>
        <time>2020-11-11T07:52:26Z</time>
      </trkpt>
      <trkpt lat="28.5456220" lon="-16.2083970">
        <ele>691.9</ele>
        <time>2020-11-11T07:52:27Z</time>
      </trkpt>
      <trkpt lat="28.5456200" lon="-16.2083680">
        <ele>691.9</ele>
        <time>2020-11-11T07:52:28Z</time>
      </trkpt>
      <trkpt lat="28.5456200" lon="-16.2083680">
        <ele>691.9</ele>
        <time>2020-11-11T07:52:29Z</time>
      </trkpt>
      <trkpt lat="28.5456270" lon="-16.2083200">
        <ele>691.9</ele>
        <time>2020-11-11T07:52:30Z</time>
      </trkpt>
      <trkpt lat="28.5456270" lon="-16.2083200">
        <ele>690.9</ele>
        <time>2020-11-11T07:52:31Z</time>
      </trkpt>
      <trkpt lat="28.5456630" lon="-16.2083070">
        <ele>690.9</ele>
        <time>2020-11-11T07:52:32Z</time>
      </trkpt>
      <trkpt lat="28.5456630" lon="-16.2083070">
        <ele>690.9</ele>
        <time>2020-11-11T07:52:33Z</time>
      </trkpt>
      <trkpt lat="28.5456750" lon="-16.2083530">
        <ele>690.9</ele>
        <time>2020-11-11T07:52:34Z</time>
      </trkpt>
      <trkpt lat="28.5456750" lon="-16.2083530">
        <ele>690.9</ele>
        <time>2020-11-11T07:52:35Z</time>
      </trkpt>
      <trkpt lat="28.5456870" lon="-16.2083880">
        <ele>690.9</ele>
        <time>2020-11-11T07:52:36Z</time>
      </trkpt>
      <trkpt lat="28.5457020" lon="-16.2083950">
        <ele>690.9</ele>
        <time>2020-11-11T07:52:37Z</time>
      </trkpt>
      <trkpt lat="28.5457020" lon="-16.2083950">
        <ele>690.9</ele>
        <time>2020-11-11T07:52:38Z</time>
      </trkpt>
      <trkpt lat="28.5457370" lon="-16.2084200">
        <ele>690.9</ele>
        <time>2020-11-11T07:52:39Z</time>
      </trkpt>
      <trkpt lat="28.5457370" lon="-16.2084200">
        <ele>690.9</ele>
        <time>2020-11-11T07:52:40Z</time>
      </trkpt>
      <trkpt lat="28.5457680" lon="-16.2084470">
        <ele>691.9</ele>
        <time>2020-11-11T07:52:41Z</time>
      </trkpt>
      <trkpt lat="28.5457820" lon="-16.2084670">
        <ele>691.9</ele>
        <time>2020-11-11T07:52:42Z</time>
      </trkpt>
      <trkpt lat="28.5457820" lon="-16.2084670">
        <ele>691.9</ele>
        <time>2020-11-11T07:52:43Z</time>
      </trkpt>
      <trkpt lat="28.5458180" lon="-16.2085000">
        <ele>692.9</ele>
        <time>2020-11-11T07:52:44Z</time>
      </trkpt>
      <trkpt lat="28.5458180" lon="-16.2085000">
        <ele>692.9</ele>
        <time>2020-11-11T07:52:45Z</time>
      </trkpt>
      <trkpt lat="28.5458450" lon="-16.2085370">
        <ele>692.9</ele>
        <time>2020-11-11T07:52:46Z</time>
      </trkpt>
      <trkpt lat="28.5458450" lon="-16.2085370">
        <ele>692.9</ele>
        <time>2020-11-11T07:52:47Z</time>
      </trkpt>
      <trkpt lat="28.5458680" lon="-16.2085720">
        <ele>692.9</ele>
        <time>2020-11-11T07:52:48Z</time>
      </trkpt>
      <trkpt lat="28.5458770" lon="-16.2085800">
        <ele>692.9</ele>
        <time>2020-11-11T07:52:49Z</time>
      </trkpt>
      <trkpt lat="28.5458770" lon="-16.2085800">
        <ele>692.9</ele>
        <time>2020-11-11T07:52:50Z</time>
      </trkpt>
      <trkpt lat="28.5458620" lon="-16.2086250">
        <ele>692.9</ele>
        <time>2020-11-11T07:52:51Z</time>
      </trkpt>
      <trkpt lat="28.5458620" lon="-16.2086250">
        <ele>692.9</ele>
        <time>2020-11-11T07:52:52Z</time>
      </trkpt>
      <trkpt lat="28.5458550" lon="-16.2086380">
        <ele>692.9</ele>
        <time>2020-11-11T07:52:53Z</time>
      </trkpt>
      <trkpt lat="28.5458550" lon="-16.2086380">
        <ele>692.9</ele>
        <time>2020-11-11T07:52:54Z</time>
      </trkpt>
      <trkpt lat="28.5458550" lon="-16.2086380">
        <ele>692.9</ele>
        <time>2020-11-11T07:53:12Z</time>
      </trkpt>
      <trkpt lat="28.5458550" lon="-16.2086380">
        <ele>692.9</ele>
        <time>2020-11-11T07:53:13Z</time>
      </trkpt>
      <trkpt lat="28.5458650" lon="-16.2086650">
        <ele>692.9</ele>
        <time>2020-11-11T07:53:14Z</time>
      </trkpt>
      <trkpt lat="28.5458650" lon="-16.2086650">
        <ele>692.9</ele>
        <time>2020-11-11T07:53:15Z</time>
      </trkpt>
      <trkpt lat="28.5458930" lon="-16.2086880">
        <ele>692.9</ele>
        <time>2020-11-11T07:53:16Z</time>
      </trkpt>
      <trkpt lat="28.5459080" lon="-16.2087030">
        <ele>693.9</ele>
        <time>2020-11-11T07:53:17Z</time>
      </trkpt>
      <trkpt lat="28.5459080" lon="-16.2087030">
        <ele>693.9</ele>
        <time>2020-11-11T07:53:18Z</time>
      </trkpt>
      <trkpt lat="28.5459300" lon="-16.2087470">
        <ele>693.9</ele>
        <time>2020-11-11T07:53:19Z</time>
      </trkpt>
      <trkpt lat="28.5459400" lon="-16.2087700">
        <ele>693.9</ele>
        <time>2020-11-11T07:53:20Z</time>
      </trkpt>
      <trkpt lat="28.5459400" lon="-16.2087700">
        <ele>694.9</ele>
        <time>2020-11-11T07:53:21Z</time>
      </trkpt>
      <trkpt lat="28.5459650" lon="-16.2088220">
        <ele>694.9</ele>
        <time>2020-11-11T07:53:22Z</time>
      </trkpt>
      <trkpt lat="28.5459650" lon="-16.2088220">
        <ele>694.9</ele>
        <time>2020-11-11T07:53:23Z</time>
      </trkpt>
      <trkpt lat="28.5459950" lon="-16.2088720">
        <ele>694.9</ele>
        <time>2020-11-11T07:53:24Z</time>
      </trkpt>
      <trkpt lat="28.5459950" lon="-16.2088720">
        <ele>695.9</ele>
        <time>2020-11-11T07:53:25Z</time>
      </trkpt>
      <trkpt lat="28.5460280" lon="-16.2089200">
        <ele>695.9</ele>
        <time>2020-11-11T07:53:26Z</time>
      </trkpt>
      <trkpt lat="28.5460280" lon="-16.2089200">
        <ele>695.9</ele>
        <time>2020-11-11T07:53:27Z</time>
      </trkpt>
      <trkpt lat="28.5460650" lon="-16.2089680">
        <ele>695.9</ele>
        <time>2020-11-11T07:53:28Z</time>
      </trkpt>
      <trkpt lat="28.5460650" lon="-16.2089680">
        <ele>696.9</ele>
        <time>2020-11-11T07:53:29Z</time>
      </trkpt>
      <trkpt lat="28.5461100" lon="-16.2089980">
        <ele>696.9</ele>
        <time>2020-11-11T07:53:30Z</time>
      </trkpt>
      <trkpt lat="28.5461380" lon="-16.2090080">
        <ele>696.9</ele>
        <time>2020-11-11T07:53:31Z</time>
      </trkpt>
      <trkpt lat="28.5461570" lon="-16.2090250">
        <ele>696.9</ele>
        <time>2020-11-11T07:53:32Z</time>
      </trkpt>
      <trkpt lat="28.5461570" lon="-16.2090250">
        <ele>696.9</ele>
        <time>2020-11-11T07:53:33Z</time>
      </trkpt>
      <trkpt lat="28.5461900" lon="-16.2090580">
        <ele>696.9</ele>
        <time>2020-11-11T07:53:34Z</time>
      </trkpt>
      <trkpt lat="28.5462030" lon="-16.2090770">
        <ele>696.9</ele>
        <time>2020-11-11T07:53:35Z</time>
      </trkpt>
      <trkpt lat="28.5462030" lon="-16.2090770">
        <ele>696.9</ele>
        <time>2020-11-11T07:53:36Z</time>
      </trkpt>
      <trkpt lat="28.5462370" lon="-16.2091130">
        <ele>696.9</ele>
        <time>2020-11-11T07:53:37Z</time>
      </trkpt>
      <trkpt lat="28.5462530" lon="-16.2091330">
        <ele>696.9</ele>
        <time>2020-11-11T07:53:38Z</time>
      </trkpt>
      <trkpt lat="28.5462530" lon="-16.2091330">
        <ele>697.9</ele>
        <time>2020-11-11T07:53:39Z</time>
      </trkpt>
      <trkpt lat="28.5462870" lon="-16.2091770">
        <ele>697.9</ele>
        <time>2020-11-11T07:53:40Z</time>
      </trkpt>
      <trkpt lat="28.5462870" lon="-16.2091770">
        <ele>697.9</ele>
        <time>2020-11-11T07:53:41Z</time>
      </trkpt>
      <trkpt lat="28.5463230" lon="-16.2092150">
        <ele>697.9</ele>
        <time>2020-11-11T07:53:42Z</time>
      </trkpt>
      <trkpt lat="28.5463230" lon="-16.2092150">
        <ele>697.9</ele>
        <time>2020-11-11T07:53:43Z</time>
      </trkpt>
      <trkpt lat="28.5463600" lon="-16.2092450">
        <ele>698.9</ele>
        <time>2020-11-11T07:53:44Z</time>
      </trkpt>
      <trkpt lat="28.5463600" lon="-16.2092450">
        <ele>698.9</ele>
        <time>2020-11-11T07:53:45Z</time>
      </trkpt>
      <trkpt lat="28.5463880" lon="-16.2092900">
        <ele>698.9</ele>
        <time>2020-11-11T07:53:46Z</time>
      </trkpt>
      <trkpt lat="28.5464000" lon="-16.2093130">
        <ele>698.9</ele>
        <time>2020-11-11T07:53:47Z</time>
      </trkpt>
      <trkpt lat="28.5464000" lon="-16.2093130">
        <ele>698.9</ele>
        <time>2020-11-11T07:53:48Z</time>
      </trkpt>
      <trkpt lat="28.5464300" lon="-16.2093520">
        <ele>698.9</ele>
        <time>2020-11-11T07:53:49Z</time>
      </trkpt>
      <trkpt lat="28.5464480" lon="-16.2093680">
        <ele>698.9</ele>
        <time>2020-11-11T07:53:50Z</time>
      </trkpt>
      <trkpt lat="28.5464480" lon="-16.2093680">
        <ele>698.9</ele>
        <time>2020-11-11T07:53:51Z</time>
      </trkpt>
      <trkpt lat="28.5464900" lon="-16.2094080">
        <ele>698.9</ele>
        <time>2020-11-11T07:53:52Z</time>
      </trkpt>
      <trkpt lat="28.5465150" lon="-16.2094330">
        <ele>698.9</ele>
        <time>2020-11-11T07:53:53Z</time>
      </trkpt>
      <trkpt lat="28.5465400" lon="-16.2094580">
        <ele>699.9</ele>
        <time>2020-11-11T07:53:54Z</time>
      </trkpt>
      <trkpt lat="28.5465400" lon="-16.2094580">
        <ele>699.9</ele>
        <time>2020-11-11T07:53:55Z</time>
      </trkpt>
      <trkpt lat="28.5465820" lon="-16.2095130">
        <ele>699.9</ele>
        <time>2020-11-11T07:53:56Z</time>
      </trkpt>
      <trkpt lat="28.5465820" lon="-16.2095130">
        <ele>699.9</ele>
        <time>2020-11-11T07:53:57Z</time>
      </trkpt>
      <trkpt lat="28.5466200" lon="-16.2095720">
        <ele>699.9</ele>
        <time>2020-11-11T07:53:58Z</time>
      </trkpt>
      <trkpt lat="28.5466420" lon="-16.2096030">
        <ele>699.9</ele>
        <time>2020-11-11T07:53:59Z</time>
      </trkpt>
      <trkpt lat="28.5466620" lon="-16.2096320">
        <ele>699.9</ele>
        <time>2020-11-11T07:54:00Z</time>
      </trkpt>
      <trkpt lat="28.5466620" lon="-16.2096320">
        <ele>699.9</ele>
        <time>2020-11-11T07:54:01Z</time>
      </trkpt>
      <trkpt lat="28.5467020" lon="-16.2096930">
        <ele>699.9</ele>
        <time>2020-11-11T07:54:02Z</time>
      </trkpt>
      <trkpt lat="28.5467020" lon="-16.2096930">
        <ele>699.9</ele>
        <time>2020-11-11T07:54:03Z</time>
      </trkpt>
      <trkpt lat="28.5467430" lon="-16.2097530">
        <ele>700.9</ele>
        <time>2020-11-11T07:54:04Z</time>
      </trkpt>
      <trkpt lat="28.5467650" lon="-16.2097850">
        <ele>700.9</ele>
        <time>2020-11-11T07:54:05Z</time>
      </trkpt>
      <trkpt lat="28.5467650" lon="-16.2097850">
        <ele>700.9</ele>
        <time>2020-11-11T07:54:06Z</time>
      </trkpt>
      <trkpt lat="28.5468080" lon="-16.2098520">
        <ele>700.9</ele>
        <time>2020-11-11T07:54:07Z</time>
      </trkpt>
      <trkpt lat="28.5468080" lon="-16.2098520">
        <ele>700.9</ele>
        <time>2020-11-11T07:54:08Z</time>
      </trkpt>
      <trkpt lat="28.5468500" lon="-16.2099100">
        <ele>700.9</ele>
        <time>2020-11-11T07:54:09Z</time>
      </trkpt>
      <trkpt lat="28.5468500" lon="-16.2099100">
        <ele>701.9</ele>
        <time>2020-11-11T07:54:10Z</time>
      </trkpt>
      <trkpt lat="28.5468980" lon="-16.2099670">
        <ele>701.9</ele>
        <time>2020-11-11T07:54:11Z</time>
      </trkpt>
      <trkpt lat="28.5469220" lon="-16.2099980">
        <ele>701.9</ele>
        <time>2020-11-11T07:54:12Z</time>
      </trkpt>
      <trkpt lat="28.5469220" lon="-16.2099980">
        <ele>701.9</ele>
        <time>2020-11-11T07:54:13Z</time>
      </trkpt>
      <trkpt lat="28.5469600" lon="-16.2100670">
        <ele>701.9</ele>
        <time>2020-11-11T07:54:14Z</time>
      </trkpt>
      <trkpt lat="28.5469600" lon="-16.2100670">
        <ele>701.9</ele>
        <time>2020-11-11T07:54:15Z</time>
      </trkpt>
      <trkpt lat="28.5469880" lon="-16.2101430">
        <ele>702.9</ele>
        <time>2020-11-11T07:54:16Z</time>
      </trkpt>
      <trkpt lat="28.5469880" lon="-16.2101430">
        <ele>702.9</ele>
        <time>2020-11-11T07:54:17Z</time>
      </trkpt>
      <trkpt lat="28.5470070" lon="-16.2102300">
        <ele>702.9</ele>
        <time>2020-11-11T07:54:18Z</time>
      </trkpt>
      <trkpt lat="28.5470170" lon="-16.2102700">
        <ele>702.9</ele>
        <time>2020-11-11T07:54:19Z</time>
      </trkpt>
      <trkpt lat="28.5470170" lon="-16.2102700">
        <ele>702.9</ele>
        <time>2020-11-11T07:54:20Z</time>
      </trkpt>
      <trkpt lat="28.5470400" lon="-16.2103530">
        <ele>702.9</ele>
        <time>2020-11-11T07:54:21Z</time>
      </trkpt>
      <trkpt lat="28.5470400" lon="-16.2103530">
        <ele>702.9</ele>
        <time>2020-11-11T07:54:22Z</time>
      </trkpt>
      <trkpt lat="28.5470700" lon="-16.2104330">
        <ele>703.9</ele>
        <time>2020-11-11T07:54:23Z</time>
      </trkpt>
      <trkpt lat="28.5470700" lon="-16.2104330">
        <ele>703.9</ele>
        <time>2020-11-11T07:54:24Z</time>
      </trkpt>
      <trkpt lat="28.5471080" lon="-16.2105000">
        <ele>703.9</ele>
        <time>2020-11-11T07:54:25Z</time>
      </trkpt>
      <trkpt lat="28.5471220" lon="-16.2105330">
        <ele>703.9</ele>
        <time>2020-11-11T07:54:26Z</time>
      </trkpt>
      <trkpt lat="28.5471220" lon="-16.2105330">
        <ele>703.9</ele>
        <time>2020-11-11T07:54:27Z</time>
      </trkpt>
      <trkpt lat="28.5471400" lon="-16.2106130">
        <ele>703.9</ele>
        <time>2020-11-11T07:54:28Z</time>
      </trkpt>
      <trkpt lat="28.5471400" lon="-16.2106130">
        <ele>704.9</ele>
        <time>2020-11-11T07:54:29Z</time>
      </trkpt>
      <trkpt lat="28.5471670" lon="-16.2106880">
        <ele>704.9</ele>
        <time>2020-11-11T07:54:30Z</time>
      </trkpt>
      <trkpt lat="28.5471670" lon="-16.2106880">
        <ele>704.9</ele>
        <time>2020-11-11T07:54:31Z</time>
      </trkpt>
      <trkpt lat="28.5471930" lon="-16.2107670">
        <ele>704.9</ele>
        <time>2020-11-11T07:54:32Z</time>
      </trkpt>
      <trkpt lat="28.5471930" lon="-16.2107670">
        <ele>704.9</ele>
        <time>2020-11-11T07:54:33Z</time>
      </trkpt>
      <trkpt lat="28.5472220" lon="-16.2108400">
        <ele>704.9</ele>
        <time>2020-11-11T07:54:34Z</time>
      </trkpt>
      <trkpt lat="28.5472380" lon="-16.2108770">
        <ele>705.9</ele>
        <time>2020-11-11T07:54:35Z</time>
      </trkpt>
      <trkpt lat="28.5472380" lon="-16.2108770">
        <ele>705.9</ele>
        <time>2020-11-11T07:54:36Z</time>
      </trkpt>
      <trkpt lat="28.5472680" lon="-16.2109530">
        <ele>705.9</ele>
        <time>2020-11-11T07:54:37Z</time>
      </trkpt>
      <trkpt lat="28.5472680" lon="-16.2109530">
        <ele>705.9</ele>
        <time>2020-11-11T07:54:38Z</time>
      </trkpt>
      <trkpt lat="28.5473020" lon="-16.2110230">
        <ele>705.9</ele>
        <time>2020-11-11T07:54:39Z</time>
      </trkpt>
      <trkpt lat="28.5473020" lon="-16.2110230">
        <ele>705.9</ele>
        <time>2020-11-11T07:54:40Z</time>
      </trkpt>
      <trkpt lat="28.5473450" lon="-16.2110970">
        <ele>705.9</ele>
        <time>2020-11-11T07:54:41Z</time>
      </trkpt>
      <trkpt lat="28.5473670" lon="-16.2111370">
        <ele>705.9</ele>
        <time>2020-11-11T07:54:42Z</time>
      </trkpt>
      <trkpt lat="28.5473670" lon="-16.2111370">
        <ele>706.9</ele>
        <time>2020-11-11T07:54:43Z</time>
      </trkpt>
      <trkpt lat="28.5474100" lon="-16.2112170">
        <ele>706.9</ele>
        <time>2020-11-11T07:54:44Z</time>
      </trkpt>
      <trkpt lat="28.5474100" lon="-16.2112170">
        <ele>706.9</ele>
        <time>2020-11-11T07:54:45Z</time>
      </trkpt>
      <trkpt lat="28.5474550" lon="-16.2112950">
        <ele>706.9</ele>
        <time>2020-11-11T07:54:46Z</time>
      </trkpt>
      <trkpt lat="28.5474730" lon="-16.2113350">
        <ele>706.9</ele>
        <time>2020-11-11T07:54:47Z</time>
      </trkpt>
      <trkpt lat="28.5474730" lon="-16.2113350">
        <ele>706.9</ele>
        <time>2020-11-11T07:54:48Z</time>
      </trkpt>
      <trkpt lat="28.5474930" lon="-16.2114200">
        <ele>706.9</ele>
        <time>2020-11-11T07:54:49Z</time>
      </trkpt>
      <trkpt lat="28.5474930" lon="-16.2114670">
        <ele>706.9</ele>
        <time>2020-11-11T07:54:50Z</time>
      </trkpt>
      <trkpt lat="28.5474930" lon="-16.2114670">
        <ele>706.9</ele>
        <time>2020-11-11T07:54:51Z</time>
      </trkpt>
      <trkpt lat="28.5474780" lon="-16.2115550">
        <ele>706.9</ele>
        <time>2020-11-11T07:54:52Z</time>
      </trkpt>
      <trkpt lat="28.5474780" lon="-16.2115550">
        <ele>706.9</ele>
        <time>2020-11-11T07:54:53Z</time>
      </trkpt>
      <trkpt lat="28.5474450" lon="-16.2116380">
        <ele>706.9</ele>
        <time>2020-11-11T07:54:54Z</time>
      </trkpt>
      <trkpt lat="28.5474450" lon="-16.2116380">
        <ele>706.9</ele>
        <time>2020-11-11T07:54:55Z</time>
      </trkpt>
      <trkpt lat="28.5473970" lon="-16.2117130">
        <ele>706.9</ele>
        <time>2020-11-11T07:54:56Z</time>
      </trkpt>
      <trkpt lat="28.5473970" lon="-16.2117130">
        <ele>707.9</ele>
        <time>2020-11-11T07:54:57Z</time>
      </trkpt>
      <trkpt lat="28.5473470" lon="-16.2117930">
        <ele>707.9</ele>
        <time>2020-11-11T07:54:58Z</time>
      </trkpt>
      <trkpt lat="28.5473470" lon="-16.2117930">
        <ele>707.9</ele>
        <time>2020-11-11T07:54:59Z</time>
      </trkpt>
      <trkpt lat="28.5473000" lon="-16.2118670">
        <ele>707.9</ele>
        <time>2020-11-11T07:55:00Z</time>
      </trkpt>
      <trkpt lat="28.5473000" lon="-16.2118670">
        <ele>707.9</ele>
        <time>2020-11-11T07:55:01Z</time>
      </trkpt>
      <trkpt lat="28.5472500" lon="-16.2119430">
        <ele>707.9</ele>
        <time>2020-11-11T07:55:02Z</time>
      </trkpt>
      <trkpt lat="28.5472500" lon="-16.2119430">
        <ele>707.9</ele>
        <time>2020-11-11T07:55:03Z</time>
      </trkpt>
      <trkpt lat="28.5472130" lon="-16.2120300">
        <ele>708.9</ele>
        <time>2020-11-11T07:55:04Z</time>
      </trkpt>
      <trkpt lat="28.5472130" lon="-16.2120300">
        <ele>708.9</ele>
        <time>2020-11-11T07:55:05Z</time>
      </trkpt>
      <trkpt lat="28.5471850" lon="-16.2121220">
        <ele>708.9</ele>
        <time>2020-11-11T07:55:06Z</time>
      </trkpt>
      <trkpt lat="28.5471750" lon="-16.2121680">
        <ele>708.9</ele>
        <time>2020-11-11T07:55:07Z</time>
      </trkpt>
      <trkpt lat="28.5471680" lon="-16.2122150">
        <ele>708.9</ele>
        <time>2020-11-11T07:55:08Z</time>
      </trkpt>
      <trkpt lat="28.5471680" lon="-16.2122150">
        <ele>708.9</ele>
        <time>2020-11-11T07:55:09Z</time>
      </trkpt>
      <trkpt lat="28.5471620" lon="-16.2123080">
        <ele>709.9</ele>
        <time>2020-11-11T07:55:10Z</time>
      </trkpt>
      <trkpt lat="28.5471580" lon="-16.2123570">
        <ele>709.9</ele>
        <time>2020-11-11T07:55:11Z</time>
      </trkpt>
      <trkpt lat="28.5471580" lon="-16.2123570">
        <ele>709.9</ele>
        <time>2020-11-11T07:55:12Z</time>
      </trkpt>
      <trkpt lat="28.5471520" lon="-16.2124550">
        <ele>709.9</ele>
        <time>2020-11-11T07:55:13Z</time>
      </trkpt>
      <trkpt lat="28.5471430" lon="-16.2125050">
        <ele>709.9</ele>
        <time>2020-11-11T07:55:14Z</time>
      </trkpt>
      <trkpt lat="28.5471430" lon="-16.2125050">
        <ele>709.9</ele>
        <time>2020-11-11T07:55:15Z</time>
      </trkpt>
      <trkpt lat="28.5471250" lon="-16.2126000">
        <ele>710.9</ele>
        <time>2020-11-11T07:55:16Z</time>
      </trkpt>
      <trkpt lat="28.5471250" lon="-16.2126000">
        <ele>710.9</ele>
        <time>2020-11-11T07:55:17Z</time>
      </trkpt>
      <trkpt lat="28.5470970" lon="-16.2126950">
        <ele>710.9</ele>
        <time>2020-11-11T07:55:18Z</time>
      </trkpt>
      <trkpt lat="28.5470970" lon="-16.2126950">
        <ele>710.9</ele>
        <time>2020-11-11T07:55:19Z</time>
      </trkpt>
      <trkpt lat="28.5470630" lon="-16.2127820">
        <ele>711.9</ele>
        <time>2020-11-11T07:55:20Z</time>
      </trkpt>
      <trkpt lat="28.5470630" lon="-16.2127820">
        <ele>711.9</ele>
        <time>2020-11-11T07:55:21Z</time>
      </trkpt>
      <trkpt lat="28.5470250" lon="-16.2128580">
        <ele>711.9</ele>
        <time>2020-11-11T07:55:22Z</time>
      </trkpt>
      <trkpt lat="28.5470150" lon="-16.2128950">
        <ele>711.9</ele>
        <time>2020-11-11T07:55:23Z</time>
      </trkpt>
      <trkpt lat="28.5470150" lon="-16.2128950">
        <ele>712.9</ele>
        <time>2020-11-11T07:55:24Z</time>
      </trkpt>
      <trkpt lat="28.5470070" lon="-16.2129720">
        <ele>712.9</ele>
        <time>2020-11-11T07:55:25Z</time>
      </trkpt>
      <trkpt lat="28.5470070" lon="-16.2129720">
        <ele>712.9</ele>
        <time>2020-11-11T07:55:26Z</time>
      </trkpt>
      <trkpt lat="28.5470030" lon="-16.2130670">
        <ele>712.9</ele>
        <time>2020-11-11T07:55:27Z</time>
      </trkpt>
      <trkpt lat="28.5470030" lon="-16.2130670">
        <ele>712.9</ele>
        <time>2020-11-11T07:55:28Z</time>
      </trkpt>
      <trkpt lat="28.5469870" lon="-16.2131500">
        <ele>712.9</ele>
        <time>2020-11-11T07:55:29Z</time>
      </trkpt>
      <trkpt lat="28.5469730" lon="-16.2131870">
        <ele>712.9</ele>
        <time>2020-11-11T07:55:30Z</time>
      </trkpt>
      <trkpt lat="28.5469730" lon="-16.2131870">
        <ele>712.9</ele>
        <time>2020-11-11T07:55:31Z</time>
      </trkpt>
      <trkpt lat="28.5469270" lon="-16.2132500">
        <ele>712.9</ele>
        <time>2020-11-11T07:55:32Z</time>
      </trkpt>
      <trkpt lat="28.5469270" lon="-16.2132500">
        <ele>713.9</ele>
        <time>2020-11-11T07:55:33Z</time>
      </trkpt>
      <trkpt lat="28.5468750" lon="-16.2133080">
        <ele>713.9</ele>
        <time>2020-11-11T07:55:34Z</time>
      </trkpt>
      <trkpt lat="28.5468520" lon="-16.2133420">
        <ele>713.9</ele>
        <time>2020-11-11T07:55:35Z</time>
      </trkpt>
      <trkpt lat="28.5468520" lon="-16.2133420">
        <ele>713.9</ele>
        <time>2020-11-11T07:55:36Z</time>
      </trkpt>
      <trkpt lat="28.5468100" lon="-16.2134070">
        <ele>713.9</ele>
        <time>2020-11-11T07:55:37Z</time>
      </trkpt>
      <trkpt lat="28.5467950" lon="-16.2134400">
        <ele>713.9</ele>
        <time>2020-11-11T07:55:38Z</time>
      </trkpt>
      <trkpt lat="28.5467950" lon="-16.2134400">
        <ele>713.9</ele>
        <time>2020-11-11T07:55:39Z</time>
      </trkpt>
      <trkpt lat="28.5467770" lon="-16.2135200">
        <ele>714.9</ele>
        <time>2020-11-11T07:55:40Z</time>
      </trkpt>
      <trkpt lat="28.5467670" lon="-16.2135630">
        <ele>714.9</ele>
        <time>2020-11-11T07:55:41Z</time>
      </trkpt>
      <trkpt lat="28.5467670" lon="-16.2135630">
        <ele>714.9</ele>
        <time>2020-11-11T07:55:42Z</time>
      </trkpt>
      <trkpt lat="28.5467550" lon="-16.2136470">
        <ele>714.9</ele>
        <time>2020-11-11T07:55:43Z</time>
      </trkpt>
      <trkpt lat="28.5467550" lon="-16.2136470">
        <ele>714.9</ele>
        <time>2020-11-11T07:55:44Z</time>
      </trkpt>
      <trkpt lat="28.5467520" lon="-16.2137280">
        <ele>715.9</ele>
        <time>2020-11-11T07:55:45Z</time>
      </trkpt>
      <trkpt lat="28.5467520" lon="-16.2137280">
        <ele>715.9</ele>
        <time>2020-11-11T07:55:46Z</time>
      </trkpt>
      <trkpt lat="28.5467480" lon="-16.2138080">
        <ele>715.9</ele>
        <time>2020-11-11T07:55:47Z</time>
      </trkpt>
      <trkpt lat="28.5467450" lon="-16.2138520">
        <ele>715.9</ele>
        <time>2020-11-11T07:55:48Z</time>
      </trkpt>
      <trkpt lat="28.5467450" lon="-16.2138520">
        <ele>715.9</ele>
        <time>2020-11-11T07:55:49Z</time>
      </trkpt>
      <trkpt lat="28.5467370" lon="-16.2139400">
        <ele>715.9</ele>
        <time>2020-11-11T07:55:50Z</time>
      </trkpt>
      <trkpt lat="28.5467370" lon="-16.2139400">
        <ele>715.9</ele>
        <time>2020-11-11T07:55:51Z</time>
      </trkpt>
      <trkpt lat="28.5467330" lon="-16.2140280">
        <ele>715.9</ele>
        <time>2020-11-11T07:55:52Z</time>
      </trkpt>
      <trkpt lat="28.5467300" lon="-16.2140750">
        <ele>716.9</ele>
        <time>2020-11-11T07:55:53Z</time>
      </trkpt>
      <trkpt lat="28.5467300" lon="-16.2140750">
        <ele>716.9</ele>
        <time>2020-11-11T07:55:54Z</time>
      </trkpt>
      <trkpt lat="28.5467250" lon="-16.2141730">
        <ele>716.9</ele>
        <time>2020-11-11T07:55:55Z</time>
      </trkpt>
      <trkpt lat="28.5467170" lon="-16.2142250">
        <ele>716.9</ele>
        <time>2020-11-11T07:55:56Z</time>
      </trkpt>
      <trkpt lat="28.5467170" lon="-16.2142770">
        <ele>716.9</ele>
        <time>2020-11-11T07:55:57Z</time>
      </trkpt>
      <trkpt lat="28.5467030" lon="-16.2143220">
        <ele>716.9</ele>
        <time>2020-11-11T07:55:58Z</time>
      </trkpt>
      <trkpt lat="28.5467030" lon="-16.2143220">
        <ele>716.9</ele>
        <time>2020-11-11T07:55:59Z</time>
      </trkpt>
      <trkpt lat="28.5466830" lon="-16.2144020">
        <ele>716.9</ele>
        <time>2020-11-11T07:56:00Z</time>
      </trkpt>
      <trkpt lat="28.5466830" lon="-16.2144020">
        <ele>716.9</ele>
        <time>2020-11-11T07:56:01Z</time>
      </trkpt>
      <trkpt lat="28.5466480" lon="-16.2144870">
        <ele>716.9</ele>
        <time>2020-11-11T07:56:02Z</time>
      </trkpt>
      <trkpt lat="28.5466480" lon="-16.2144870">
        <ele>716.9</ele>
        <time>2020-11-11T07:56:03Z</time>
      </trkpt>
      <trkpt lat="28.5466150" lon="-16.2145750">
        <ele>716.9</ele>
        <time>2020-11-11T07:56:04Z</time>
      </trkpt>
      <trkpt lat="28.5466150" lon="-16.2145750">
        <ele>716.9</ele>
        <time>2020-11-11T07:56:05Z</time>
      </trkpt>
      <trkpt lat="28.5465970" lon="-16.2146680">
        <ele>716.9</ele>
        <time>2020-11-11T07:56:06Z</time>
      </trkpt>
      <trkpt lat="28.5465870" lon="-16.2147120">
        <ele>716.9</ele>
        <time>2020-11-11T07:56:07Z</time>
      </trkpt>
      <trkpt lat="28.5465870" lon="-16.2147120">
        <ele>716.9</ele>
        <time>2020-11-11T07:56:08Z</time>
      </trkpt>
      <trkpt lat="28.5465730" lon="-16.2147930">
        <ele>715.9</ele>
        <time>2020-11-11T07:56:09Z</time>
      </trkpt>
      <trkpt lat="28.5465730" lon="-16.2147930">
        <ele>715.9</ele>
        <time>2020-11-11T07:56:10Z</time>
      </trkpt>
      <trkpt lat="28.5465220" lon="-16.2148970">
        <ele>715.9</ele>
        <time>2020-11-11T07:56:11Z</time>
      </trkpt>
      <trkpt lat="28.5465220" lon="-16.2148970">
        <ele>715.9</ele>
        <time>2020-11-11T07:56:12Z</time>
      </trkpt>
      <trkpt lat="28.5464620" lon="-16.2150170">
        <ele>715.9</ele>
        <time>2020-11-11T07:56:13Z</time>
      </trkpt>
      <trkpt lat="28.5464430" lon="-16.2150770">
        <ele>715.9</ele>
        <time>2020-11-11T07:56:14Z</time>
      </trkpt>
      <trkpt lat="28.5464430" lon="-16.2150770">
        <ele>714.9</ele>
        <time>2020-11-11T07:56:15Z</time>
      </trkpt>
      <trkpt lat="28.5464300" lon="-16.2152280">
        <ele>714.9</ele>
        <time>2020-11-11T07:56:16Z</time>
      </trkpt>
      <trkpt lat="28.5464370" lon="-16.2153050">
        <ele>713.9</ele>
        <time>2020-11-11T07:56:17Z</time>
      </trkpt>
      <trkpt lat="28.5464370" lon="-16.2153050">
        <ele>713.9</ele>
        <time>2020-11-11T07:56:18Z</time>
      </trkpt>
      <trkpt lat="28.5464170" lon="-16.2154580">
        <ele>713.9</ele>
        <time>2020-11-11T07:56:19Z</time>
      </trkpt>
      <trkpt lat="28.5464070" lon="-16.2155330">
        <ele>711.9</ele>
        <time>2020-11-11T07:56:20Z</time>
      </trkpt>
      <trkpt lat="28.5464070" lon="-16.2155330">
        <ele>711.9</ele>
        <time>2020-11-11T07:56:21Z</time>
      </trkpt>
      <trkpt lat="28.5463930" lon="-16.2156780">
        <ele>710.9</ele>
        <time>2020-11-11T07:56:22Z</time>
      </trkpt>
      <trkpt lat="28.5463800" lon="-16.2157500">
        <ele>710.9</ele>
        <time>2020-11-11T07:56:23Z</time>
      </trkpt>
      <trkpt lat="28.5463800" lon="-16.2157500">
        <ele>709.9</ele>
        <time>2020-11-11T07:56:24Z</time>
      </trkpt>
      <trkpt lat="28.5463330" lon="-16.2158870">
        <ele>709.9</ele>
        <time>2020-11-11T07:56:25Z</time>
      </trkpt>
      <trkpt lat="28.5462980" lon="-16.2159620">
        <ele>708.9</ele>
        <time>2020-11-11T07:56:26Z</time>
      </trkpt>
      <trkpt lat="28.5462980" lon="-16.2159620">
        <ele>708.9</ele>
        <time>2020-11-11T07:56:27Z</time>
      </trkpt>
      <trkpt lat="28.5462050" lon="-16.2161150">
        <ele>708.9</ele>
        <time>2020-11-11T07:56:28Z</time>
      </trkpt>
      <trkpt lat="28.5461380" lon="-16.2161950">
        <ele>708.9</ele>
        <time>2020-11-11T07:56:29Z</time>
      </trkpt>
      <trkpt lat="28.5461330" lon="-16.2162920">
        <ele>707.9</ele>
        <time>2020-11-11T07:56:30Z</time>
      </trkpt>
      <trkpt lat="28.5461330" lon="-16.2162920">
        <ele>707.9</ele>
        <time>2020-11-11T07:56:31Z</time>
      </trkpt>
      <trkpt lat="28.5460750" lon="-16.2164480">
        <ele>706.9</ele>
        <time>2020-11-11T07:56:32Z</time>
      </trkpt>
      <trkpt lat="28.5460750" lon="-16.2164480">
        <ele>706.9</ele>
        <time>2020-11-11T07:56:33Z</time>
      </trkpt>
      <trkpt lat="28.5460280" lon="-16.2166180">
        <ele>705.9</ele>
        <time>2020-11-11T07:56:34Z</time>
      </trkpt>
      <trkpt lat="28.5460070" lon="-16.2167020">
        <ele>705.9</ele>
        <time>2020-11-11T07:56:35Z</time>
      </trkpt>
      <trkpt lat="28.5460070" lon="-16.2167020">
        <ele>705.9</ele>
        <time>2020-11-11T07:56:36Z</time>
      </trkpt>
      <trkpt lat="28.5459300" lon="-16.2168770">
        <ele>705.9</ele>
        <time>2020-11-11T07:56:37Z</time>
      </trkpt>
      <trkpt lat="28.5459300" lon="-16.2168770">
        <ele>705.9</ele>
        <time>2020-11-11T07:56:38Z</time>
      </trkpt>
      <trkpt lat="28.5458180" lon="-16.2170100">
        <ele>705.9</ele>
        <time>2020-11-11T07:56:39Z</time>
      </trkpt>
      <trkpt lat="28.5458180" lon="-16.2170100">
        <ele>705.9</ele>
        <time>2020-11-11T07:56:40Z</time>
      </trkpt>
      <trkpt lat="28.5456930" lon="-16.2171120">
        <ele>705.9</ele>
        <time>2020-11-11T07:56:41Z</time>
      </trkpt>
      <trkpt lat="28.5456930" lon="-16.2171120">
        <ele>705.9</ele>
        <time>2020-11-11T07:56:42Z</time>
      </trkpt>
      <trkpt lat="28.5455820" lon="-16.2172130">
        <ele>705.9</ele>
        <time>2020-11-11T07:56:43Z</time>
      </trkpt>
      <trkpt lat="28.5455820" lon="-16.2172130">
        <ele>705.9</ele>
        <time>2020-11-11T07:56:44Z</time>
      </trkpt>
      <trkpt lat="28.5455150" lon="-16.2173670">
        <ele>705.9</ele>
        <time>2020-11-11T07:56:45Z</time>
      </trkpt>
      <trkpt lat="28.5455150" lon="-16.2173670">
        <ele>705.9</ele>
        <time>2020-11-11T07:56:46Z</time>
      </trkpt>
      <trkpt lat="28.5454820" lon="-16.2175200">
        <ele>705.9</ele>
        <time>2020-11-11T07:56:47Z</time>
      </trkpt>
      <trkpt lat="28.5454820" lon="-16.2175200">
        <ele>705.9</ele>
        <time>2020-11-11T07:56:48Z</time>
      </trkpt>
      <trkpt lat="28.5454130" lon="-16.2176480">
        <ele>705.9</ele>
        <time>2020-11-11T07:56:49Z</time>
      </trkpt>
      <trkpt lat="28.5453630" lon="-16.2176970">
        <ele>705.9</ele>
        <time>2020-11-11T07:56:50Z</time>
      </trkpt>
      <trkpt lat="28.5453630" lon="-16.2176970">
        <ele>705.9</ele>
        <time>2020-11-11T07:56:51Z</time>
      </trkpt>
      <trkpt lat="28.5452550" lon="-16.2177880">
        <ele>705.9</ele>
        <time>2020-11-11T07:56:52Z</time>
      </trkpt>
      <trkpt lat="28.5452550" lon="-16.2177880">
        <ele>705.9</ele>
        <time>2020-11-11T07:56:53Z</time>
      </trkpt>
      <trkpt lat="28.5451530" lon="-16.2178900">
        <ele>705.9</ele>
        <time>2020-11-11T07:56:54Z</time>
      </trkpt>
      <trkpt lat="28.5451530" lon="-16.2178900">
        <ele>705.9</ele>
        <time>2020-11-11T07:56:55Z</time>
      </trkpt>
      <trkpt lat="28.5450500" lon="-16.2179850">
        <ele>705.9</ele>
        <time>2020-11-11T07:56:56Z</time>
      </trkpt>
      <trkpt lat="28.5450500" lon="-16.2179850">
        <ele>705.9</ele>
        <time>2020-11-11T07:56:57Z</time>
      </trkpt>
      <trkpt lat="28.5449470" lon="-16.2180670">
        <ele>705.9</ele>
        <time>2020-11-11T07:56:58Z</time>
      </trkpt>
      <trkpt lat="28.5449470" lon="-16.2180670">
        <ele>705.9</ele>
        <time>2020-11-11T07:56:59Z</time>
      </trkpt>
      <trkpt lat="28.5448170" lon="-16.2181050">
        <ele>705.9</ele>
        <time>2020-11-11T07:57:00Z</time>
      </trkpt>
      <trkpt lat="28.5448170" lon="-16.2181050">
        <ele>705.9</ele>
        <time>2020-11-11T07:57:01Z</time>
      </trkpt>
      <trkpt lat="28.5446900" lon="-16.2181130">
        <ele>705.9</ele>
        <time>2020-11-11T07:57:02Z</time>
      </trkpt>
      <trkpt lat="28.5446900" lon="-16.2181130">
        <ele>705.9</ele>
        <time>2020-11-11T07:57:03Z</time>
      </trkpt>
      <trkpt lat="28.5445820" lon="-16.2181120">
        <ele>706.9</ele>
        <time>2020-11-11T07:57:04Z</time>
      </trkpt>
      <trkpt lat="28.5445820" lon="-16.2181120">
        <ele>706.9</ele>
        <time>2020-11-11T07:57:05Z</time>
      </trkpt>
      <trkpt lat="28.5444800" lon="-16.2181350">
        <ele>706.9</ele>
        <time>2020-11-11T07:57:06Z</time>
      </trkpt>
      <trkpt lat="28.5444800" lon="-16.2181350">
        <ele>706.9</ele>
        <time>2020-11-11T07:57:07Z</time>
      </trkpt>
      <trkpt lat="28.5443850" lon="-16.2181780">
        <ele>706.9</ele>
        <time>2020-11-11T07:57:08Z</time>
      </trkpt>
      <trkpt lat="28.5443850" lon="-16.2181780">
        <ele>706.9</ele>
        <time>2020-11-11T07:57:09Z</time>
      </trkpt>
      <trkpt lat="28.5442950" lon="-16.2182370">
        <ele>706.9</ele>
        <time>2020-11-11T07:57:10Z</time>
      </trkpt>
      <trkpt lat="28.5442530" lon="-16.2182770">
        <ele>706.9</ele>
        <time>2020-11-11T07:57:11Z</time>
      </trkpt>
      <trkpt lat="28.5442530" lon="-16.2182770">
        <ele>706.9</ele>
        <time>2020-11-11T07:57:12Z</time>
      </trkpt>
      <trkpt lat="28.5441630" lon="-16.2183530">
        <ele>706.9</ele>
        <time>2020-11-11T07:57:13Z</time>
      </trkpt>
      <trkpt lat="28.5441630" lon="-16.2183530">
        <ele>706.9</ele>
        <time>2020-11-11T07:57:14Z</time>
      </trkpt>
      <trkpt lat="28.5440680" lon="-16.2184250">
        <ele>706.9</ele>
        <time>2020-11-11T07:57:15Z</time>
      </trkpt>
      <trkpt lat="28.5440680" lon="-16.2184250">
        <ele>706.9</ele>
        <time>2020-11-11T07:57:16Z</time>
      </trkpt>
      <trkpt lat="28.5439730" lon="-16.2185070">
        <ele>706.9</ele>
        <time>2020-11-11T07:57:17Z</time>
      </trkpt>
      <trkpt lat="28.5439730" lon="-16.2185070">
        <ele>706.9</ele>
        <time>2020-11-11T07:57:18Z</time>
      </trkpt>
      <trkpt lat="28.5438820" lon="-16.2185870">
        <ele>706.9</ele>
        <time>2020-11-11T07:57:19Z</time>
      </trkpt>
      <trkpt lat="28.5438370" lon="-16.2186300">
        <ele>706.9</ele>
        <time>2020-11-11T07:57:20Z</time>
      </trkpt>
      <trkpt lat="28.5438370" lon="-16.2186300">
        <ele>706.9</ele>
        <time>2020-11-11T07:57:21Z</time>
      </trkpt>
      <trkpt lat="28.5437470" lon="-16.2187000">
        <ele>706.9</ele>
        <time>2020-11-11T07:57:22Z</time>
      </trkpt>
      <trkpt lat="28.5437470" lon="-16.2187000">
        <ele>706.9</ele>
        <time>2020-11-11T07:57:23Z</time>
      </trkpt>
      <trkpt lat="28.5436620" lon="-16.2187670">
        <ele>706.9</ele>
        <time>2020-11-11T07:57:24Z</time>
      </trkpt>
      <trkpt lat="28.5436620" lon="-16.2187670">
        <ele>706.9</ele>
        <time>2020-11-11T07:57:25Z</time>
      </trkpt>
      <trkpt lat="28.5435780" lon="-16.2188220">
        <ele>706.9</ele>
        <time>2020-11-11T07:57:26Z</time>
      </trkpt>
      <trkpt lat="28.5435780" lon="-16.2188220">
        <ele>706.9</ele>
        <time>2020-11-11T07:57:27Z</time>
      </trkpt>
      <trkpt lat="28.5435100" lon="-16.2188800">
        <ele>706.9</ele>
        <time>2020-11-11T07:57:28Z</time>
      </trkpt>
      <trkpt lat="28.5435100" lon="-16.2188800">
        <ele>706.9</ele>
        <time>2020-11-11T07:57:29Z</time>
      </trkpt>
      <trkpt lat="28.5434480" lon="-16.2189380">
        <ele>706.9</ele>
        <time>2020-11-11T07:57:30Z</time>
      </trkpt>
      <trkpt lat="28.5434480" lon="-16.2189380">
        <ele>706.9</ele>
        <time>2020-11-11T07:57:31Z</time>
      </trkpt>
      <trkpt lat="28.5433970" lon="-16.2189820">
        <ele>706.9</ele>
        <time>2020-11-11T07:57:32Z</time>
      </trkpt>
      <trkpt lat="28.5433970" lon="-16.2189820">
        <ele>706.9</ele>
        <time>2020-11-11T07:57:33Z</time>
      </trkpt>
      <trkpt lat="28.5433520" lon="-16.2190380">
        <ele>708.9</ele>
        <time>2020-11-11T07:57:34Z</time>
      </trkpt>
      <trkpt lat="28.5433370" lon="-16.2190770">
        <ele>708.9</ele>
        <time>2020-11-11T07:57:35Z</time>
      </trkpt>
      <trkpt lat="28.5433370" lon="-16.2190770">
        <ele>708.9</ele>
        <time>2020-11-11T07:57:36Z</time>
      </trkpt>
      <trkpt lat="28.5433250" lon="-16.2191430">
        <ele>708.9</ele>
        <time>2020-11-11T07:57:37Z</time>
      </trkpt>
      <trkpt lat="28.5433220" lon="-16.2191730">
        <ele>708.9</ele>
        <time>2020-11-11T07:57:38Z</time>
      </trkpt>
      <trkpt lat="28.5433220" lon="-16.2191730">
        <ele>709.9</ele>
        <time>2020-11-11T07:57:39Z</time>
      </trkpt>
      <trkpt lat="28.5433350" lon="-16.2192230">
        <ele>709.9</ele>
        <time>2020-11-11T07:57:40Z</time>
      </trkpt>
      <trkpt lat="28.5433350" lon="-16.2192230">
        <ele>709.9</ele>
        <time>2020-11-11T07:57:41Z</time>
      </trkpt>
      <trkpt lat="28.5433470" lon="-16.2192780">
        <ele>709.9</ele>
        <time>2020-11-11T07:57:42Z</time>
      </trkpt>
      <trkpt lat="28.5433470" lon="-16.2192780">
        <ele>710.9</ele>
        <time>2020-11-11T07:57:43Z</time>
      </trkpt>
      <trkpt lat="28.5433650" lon="-16.2193250">
        <ele>710.9</ele>
        <time>2020-11-11T07:57:44Z</time>
      </trkpt>
      <trkpt lat="28.5433650" lon="-16.2193250">
        <ele>710.9</ele>
        <time>2020-11-11T07:57:45Z</time>
      </trkpt>
      <trkpt lat="28.5433870" lon="-16.2193720">
        <ele>710.9</ele>
        <time>2020-11-11T07:57:46Z</time>
      </trkpt>
      <trkpt lat="28.5434000" lon="-16.2193980">
        <ele>711.9</ele>
        <time>2020-11-11T07:57:47Z</time>
      </trkpt>
      <trkpt lat="28.5434000" lon="-16.2193980">
        <ele>711.9</ele>
        <time>2020-11-11T07:57:48Z</time>
      </trkpt>
      <trkpt lat="28.5434180" lon="-16.2194450">
        <ele>711.9</ele>
        <time>2020-11-11T07:57:49Z</time>
      </trkpt>
      <trkpt lat="28.5434270" lon="-16.2194650">
        <ele>711.9</ele>
        <time>2020-11-11T07:57:50Z</time>
      </trkpt>
      <trkpt lat="28.5434270" lon="-16.2194650">
        <ele>712.9</ele>
        <time>2020-11-11T07:57:51Z</time>
      </trkpt>
      <trkpt lat="28.5434280" lon="-16.2195000">
        <ele>712.9</ele>
        <time>2020-11-11T07:57:52Z</time>
      </trkpt>
      <trkpt lat="28.5434280" lon="-16.2195000">
        <ele>712.9</ele>
        <time>2020-11-11T07:57:53Z</time>
      </trkpt>
      <trkpt lat="28.5434130" lon="-16.2195200">
        <ele>712.9</ele>
        <time>2020-11-11T07:57:54Z</time>
      </trkpt>
      <trkpt lat="28.5434130" lon="-16.2195200">
        <ele>713.9</ele>
        <time>2020-11-11T07:57:55Z</time>
      </trkpt>
      <trkpt lat="28.5433970" lon="-16.2195420">
        <ele>713.9</ele>
        <time>2020-11-11T07:57:56Z</time>
      </trkpt>
      <trkpt lat="28.5433970" lon="-16.2195420">
        <ele>713.9</ele>
        <time>2020-11-11T07:57:57Z</time>
      </trkpt>
      <trkpt lat="28.5433570" lon="-16.2195850">
        <ele>713.9</ele>
        <time>2020-11-11T07:57:58Z</time>
      </trkpt>
      <trkpt lat="28.5433570" lon="-16.2195850">
        <ele>714.9</ele>
        <time>2020-11-11T07:57:59Z</time>
      </trkpt>
      <trkpt lat="28.5433120" lon="-16.2196100">
        <ele>714.9</ele>
        <time>2020-11-11T07:58:00Z</time>
      </trkpt>
      <trkpt lat="28.5433120" lon="-16.2196100">
        <ele>714.9</ele>
        <time>2020-11-11T07:58:01Z</time>
      </trkpt>
      <trkpt lat="28.5432500" lon="-16.2196380">
        <ele>714.9</ele>
        <time>2020-11-11T07:58:02Z</time>
      </trkpt>
      <trkpt lat="28.5432500" lon="-16.2196380">
        <ele>715.9</ele>
        <time>2020-11-11T07:58:03Z</time>
      </trkpt>
      <trkpt lat="28.5432080" lon="-16.2196470">
        <ele>715.9</ele>
        <time>2020-11-11T07:58:04Z</time>
      </trkpt>
      <trkpt lat="28.5432080" lon="-16.2196470">
        <ele>715.9</ele>
        <time>2020-11-11T07:58:05Z</time>
      </trkpt>
      <trkpt lat="28.5431750" lon="-16.2196670">
        <ele>715.9</ele>
        <time>2020-11-11T07:58:06Z</time>
      </trkpt>
      <trkpt lat="28.5431570" lon="-16.2196870">
        <ele>715.9</ele>
        <time>2020-11-11T07:58:07Z</time>
      </trkpt>
      <trkpt lat="28.5431280" lon="-16.2197080">
        <ele>715.9</ele>
        <time>2020-11-11T07:58:08Z</time>
      </trkpt>
      <trkpt lat="28.5431280" lon="-16.2197080">
        <ele>715.9</ele>
        <time>2020-11-11T07:58:09Z</time>
      </trkpt>
      <trkpt lat="28.5430820" lon="-16.2197370">
        <ele>715.9</ele>
        <time>2020-11-11T07:58:10Z</time>
      </trkpt>
      <trkpt lat="28.5430820" lon="-16.2197370">
        <ele>716.9</ele>
        <time>2020-11-11T07:58:11Z</time>
      </trkpt>
      <trkpt lat="28.5430420" lon="-16.2197500">
        <ele>716.9</ele>
        <time>2020-11-11T07:58:12Z</time>
      </trkpt>
      <trkpt lat="28.5430420" lon="-16.2197500">
        <ele>716.9</ele>
        <time>2020-11-11T07:58:13Z</time>
      </trkpt>
      <trkpt lat="28.5429930" lon="-16.2197580">
        <ele>716.9</ele>
        <time>2020-11-11T07:58:14Z</time>
      </trkpt>
      <trkpt lat="28.5429930" lon="-16.2197580">
        <ele>716.9</ele>
        <time>2020-11-11T07:58:15Z</time>
      </trkpt>
      <trkpt lat="28.5429520" lon="-16.2197770">
        <ele>717.9</ele>
        <time>2020-11-11T07:58:16Z</time>
      </trkpt>
      <trkpt lat="28.5429520" lon="-16.2197770">
        <ele>717.9</ele>
        <time>2020-11-11T07:58:17Z</time>
      </trkpt>
      <trkpt lat="28.5429050" lon="-16.2197970">
        <ele>717.9</ele>
        <time>2020-11-11T07:58:18Z</time>
      </trkpt>
      <trkpt lat="28.5429050" lon="-16.2197970">
        <ele>717.9</ele>
        <time>2020-11-11T07:58:19Z</time>
      </trkpt>
      <trkpt lat="28.5428630" lon="-16.2198150">
        <ele>718.9</ele>
        <time>2020-11-11T07:58:20Z</time>
      </trkpt>
      <trkpt lat="28.5428470" lon="-16.2198180">
        <ele>718.9</ele>
        <time>2020-11-11T07:58:21Z</time>
      </trkpt>
      <trkpt lat="28.5428470" lon="-16.2198180">
        <ele>718.9</ele>
        <time>2020-11-11T07:58:22Z</time>
      </trkpt>
      <trkpt lat="28.5428070" lon="-16.2198400">
        <ele>718.9</ele>
        <time>2020-11-11T07:58:23Z</time>
      </trkpt>
      <trkpt lat="28.5428070" lon="-16.2198400">
        <ele>718.9</ele>
        <time>2020-11-11T07:58:24Z</time>
      </trkpt>
      <trkpt lat="28.5427670" lon="-16.2198470">
        <ele>718.9</ele>
        <time>2020-11-11T07:58:25Z</time>
      </trkpt>
      <trkpt lat="28.5427430" lon="-16.2198480">
        <ele>719.9</ele>
        <time>2020-11-11T07:58:26Z</time>
      </trkpt>
      <trkpt lat="28.5427430" lon="-16.2198480">
        <ele>719.9</ele>
        <time>2020-11-11T07:58:27Z</time>
      </trkpt>
      <trkpt lat="28.5427000" lon="-16.2198550">
        <ele>719.9</ele>
        <time>2020-11-11T07:58:28Z</time>
      </trkpt>
      <trkpt lat="28.5427000" lon="-16.2198550">
        <ele>719.9</ele>
        <time>2020-11-11T07:58:29Z</time>
      </trkpt>
      <trkpt lat="28.5426580" lon="-16.2198580">
        <ele>719.9</ele>
        <time>2020-11-11T07:58:30Z</time>
      </trkpt>
      <trkpt lat="28.5426580" lon="-16.2198580">
        <ele>720.9</ele>
        <time>2020-11-11T07:58:31Z</time>
      </trkpt>
      <trkpt lat="28.5426150" lon="-16.2198900">
        <ele>720.9</ele>
        <time>2020-11-11T07:58:32Z</time>
      </trkpt>
      <trkpt lat="28.5426150" lon="-16.2198900">
        <ele>720.9</ele>
        <time>2020-11-11T07:58:33Z</time>
      </trkpt>
      <trkpt lat="28.5425730" lon="-16.2198770">
        <ele>720.9</ele>
        <time>2020-11-11T07:58:34Z</time>
      </trkpt>
      <trkpt lat="28.5425520" lon="-16.2198750">
        <ele>721.9</ele>
        <time>2020-11-11T07:58:35Z</time>
      </trkpt>
      <trkpt lat="28.5425520" lon="-16.2198750">
        <ele>721.9</ele>
        <time>2020-11-11T07:58:36Z</time>
      </trkpt>
      <trkpt lat="28.5425120" lon="-16.2198570">
        <ele>721.9</ele>
        <time>2020-11-11T07:58:37Z</time>
      </trkpt>
      <trkpt lat="28.5424920" lon="-16.2198470">
        <ele>721.9</ele>
        <time>2020-11-11T07:58:38Z</time>
      </trkpt>
      <trkpt lat="28.5424700" lon="-16.2198400">
        <ele>721.9</ele>
        <time>2020-11-11T07:58:39Z</time>
      </trkpt>
      <trkpt lat="28.5424700" lon="-16.2198400">
        <ele>721.9</ele>
        <time>2020-11-11T07:58:40Z</time>
      </trkpt>
      <trkpt lat="28.5424250" lon="-16.2198250">
        <ele>722.9</ele>
        <time>2020-11-11T07:58:41Z</time>
      </trkpt>
      <trkpt lat="28.5424250" lon="-16.2198250">
        <ele>722.9</ele>
        <time>2020-11-11T07:58:42Z</time>
      </trkpt>
      <trkpt lat="28.5423850" lon="-16.2198170">
        <ele>722.9</ele>
        <time>2020-11-11T07:58:43Z</time>
      </trkpt>
      <trkpt lat="28.5423650" lon="-16.2198180">
        <ele>722.9</ele>
        <time>2020-11-11T07:58:44Z</time>
      </trkpt>
      <trkpt lat="28.5423650" lon="-16.2198180">
        <ele>723.9</ele>
        <time>2020-11-11T07:58:45Z</time>
      </trkpt>
      <trkpt lat="28.5423280" lon="-16.2198180">
        <ele>723.9</ele>
        <time>2020-11-11T07:58:46Z</time>
      </trkpt>
      <trkpt lat="28.5423280" lon="-16.2198180">
        <ele>723.9</ele>
        <time>2020-11-11T07:58:47Z</time>
      </trkpt>
      <trkpt lat="28.5422920" lon="-16.2198320">
        <ele>723.9</ele>
        <time>2020-11-11T07:58:48Z</time>
      </trkpt>
      <trkpt lat="28.5422750" lon="-16.2198470">
        <ele>724.9</ele>
        <time>2020-11-11T07:58:49Z</time>
      </trkpt>
      <trkpt lat="28.5422620" lon="-16.2198600">
        <ele>724.9</ele>
        <time>2020-11-11T07:58:50Z</time>
      </trkpt>
      <trkpt lat="28.5422620" lon="-16.2198600">
        <ele>724.9</ele>
        <time>2020-11-11T07:58:51Z</time>
      </trkpt>
      <trkpt lat="28.5422400" lon="-16.2198980">
        <ele>724.9</ele>
        <time>2020-11-11T07:58:52Z</time>
      </trkpt>
      <trkpt lat="28.5422370" lon="-16.2199200">
        <ele>724.9</ele>
        <time>2020-11-11T07:58:53Z</time>
      </trkpt>
      <trkpt lat="28.5422370" lon="-16.2199200">
        <ele>724.9</ele>
        <time>2020-11-11T07:58:54Z</time>
      </trkpt>
      <trkpt lat="28.5422280" lon="-16.2199670">
        <ele>724.9</ele>
        <time>2020-11-11T07:58:55Z</time>
      </trkpt>
      <trkpt lat="28.5422280" lon="-16.2199670">
        <ele>724.9</ele>
        <time>2020-11-11T07:58:56Z</time>
      </trkpt>
      <trkpt lat="28.5422270" lon="-16.2200170">
        <ele>724.9</ele>
        <time>2020-11-11T07:58:57Z</time>
      </trkpt>
      <trkpt lat="28.5422270" lon="-16.2200170">
        <ele>726.9</ele>
        <time>2020-11-11T07:58:58Z</time>
      </trkpt>
      <trkpt lat="28.5422230" lon="-16.2200630">
        <ele>726.9</ele>
        <time>2020-11-11T07:58:59Z</time>
      </trkpt>
      <trkpt lat="28.5422230" lon="-16.2200630">
        <ele>726.9</ele>
        <time>2020-11-11T07:59:00Z</time>
      </trkpt>
      <trkpt lat="28.5422230" lon="-16.2201070">
        <ele>726.9</ele>
        <time>2020-11-11T07:59:01Z</time>
      </trkpt>
      <trkpt lat="28.5422230" lon="-16.2201070">
        <ele>726.9</ele>
        <time>2020-11-11T07:59:02Z</time>
      </trkpt>
      <trkpt lat="28.5422280" lon="-16.2201400">
        <ele>726.9</ele>
        <time>2020-11-11T07:59:03Z</time>
      </trkpt>
      <trkpt lat="28.5422280" lon="-16.2201400">
        <ele>726.9</ele>
        <time>2020-11-11T07:59:04Z</time>
      </trkpt>
      <trkpt lat="28.5422330" lon="-16.2201770">
        <ele>726.9</ele>
        <time>2020-11-11T07:59:05Z</time>
      </trkpt>
      <trkpt lat="28.5422330" lon="-16.2201770">
        <ele>727.9</ele>
        <time>2020-11-11T07:59:06Z</time>
      </trkpt>
      <trkpt lat="28.5422450" lon="-16.2202170">
        <ele>727.9</ele>
        <time>2020-11-11T07:59:07Z</time>
      </trkpt>
      <trkpt lat="28.5422500" lon="-16.2202370">
        <ele>727.9</ele>
        <time>2020-11-11T07:59:08Z</time>
      </trkpt>
      <trkpt lat="28.5422500" lon="-16.2202370">
        <ele>727.9</ele>
        <time>2020-11-11T07:59:09Z</time>
      </trkpt>
      <trkpt lat="28.5422620" lon="-16.2202750">
        <ele>727.9</ele>
        <time>2020-11-11T07:59:10Z</time>
      </trkpt>
      <trkpt lat="28.5422650" lon="-16.2202930">
        <ele>727.9</ele>
        <time>2020-11-11T07:59:11Z</time>
      </trkpt>
      <trkpt lat="28.5422650" lon="-16.2202930">
        <ele>728.9</ele>
        <time>2020-11-11T07:59:12Z</time>
      </trkpt>
      <trkpt lat="28.5422720" lon="-16.2203350">
        <ele>728.9</ele>
        <time>2020-11-11T07:59:13Z</time>
      </trkpt>
      <trkpt lat="28.5422730" lon="-16.2203550">
        <ele>728.9</ele>
        <time>2020-11-11T07:59:14Z</time>
      </trkpt>
      <trkpt lat="28.5422730" lon="-16.2203550">
        <ele>728.9</ele>
        <time>2020-11-11T07:59:15Z</time>
      </trkpt>
      <trkpt lat="28.5422850" lon="-16.2203880">
        <ele>729.9</ele>
        <time>2020-11-11T07:59:16Z</time>
      </trkpt>
      <trkpt lat="28.5422850" lon="-16.2203880">
        <ele>729.9</ele>
        <time>2020-11-11T07:59:17Z</time>
      </trkpt>
      <trkpt lat="28.5422950" lon="-16.2204280">
        <ele>729.9</ele>
        <time>2020-11-11T07:59:18Z</time>
      </trkpt>
      <trkpt lat="28.5422950" lon="-16.2204280">
        <ele>729.9</ele>
        <time>2020-11-11T07:59:19Z</time>
      </trkpt>
      <trkpt lat="28.5423050" lon="-16.2204670">
        <ele>730.9</ele>
        <time>2020-11-11T07:59:20Z</time>
      </trkpt>
      <trkpt lat="28.5423050" lon="-16.2204670">
        <ele>730.9</ele>
        <time>2020-11-11T07:59:21Z</time>
      </trkpt>
      <trkpt lat="28.5423130" lon="-16.2205030">
        <ele>730.9</ele>
        <time>2020-11-11T07:59:22Z</time>
      </trkpt>
      <trkpt lat="28.5423130" lon="-16.2205030">
        <ele>730.9</ele>
        <time>2020-11-11T07:59:23Z</time>
      </trkpt>
      <trkpt lat="28.5423180" lon="-16.2205380">
        <ele>730.9</ele>
        <time>2020-11-11T07:59:24Z</time>
      </trkpt>
      <trkpt lat="28.5423180" lon="-16.2205380">
        <ele>730.9</ele>
        <time>2020-11-11T07:59:25Z</time>
      </trkpt>
      <trkpt lat="28.5423120" lon="-16.2205750">
        <ele>731.9</ele>
        <time>2020-11-11T07:59:26Z</time>
      </trkpt>
      <trkpt lat="28.5423120" lon="-16.2205750">
        <ele>731.9</ele>
        <time>2020-11-11T07:59:27Z</time>
      </trkpt>
      <trkpt lat="28.5422980" lon="-16.2206270">
        <ele>731.9</ele>
        <time>2020-11-11T07:59:28Z</time>
      </trkpt>
      <trkpt lat="28.5422980" lon="-16.2206270">
        <ele>731.9</ele>
        <time>2020-11-11T07:59:29Z</time>
      </trkpt>
      <trkpt lat="28.5422880" lon="-16.2206670">
        <ele>732.9</ele>
        <time>2020-11-11T07:59:30Z</time>
      </trkpt>
      <trkpt lat="28.5422700" lon="-16.2206850">
        <ele>732.9</ele>
        <time>2020-11-11T07:59:31Z</time>
      </trkpt>
      <trkpt lat="28.5422700" lon="-16.2206850">
        <ele>732.9</ele>
        <time>2020-11-11T07:59:32Z</time>
      </trkpt>
      <trkpt lat="28.5422470" lon="-16.2207050">
        <ele>732.9</ele>
        <time>2020-11-11T07:59:33Z</time>
      </trkpt>
      <trkpt lat="28.5422470" lon="-16.2207050">
        <ele>732.9</ele>
        <time>2020-11-11T07:59:34Z</time>
      </trkpt>
      <trkpt lat="28.5422150" lon="-16.2207620">
        <ele>732.9</ele>
        <time>2020-11-11T07:59:35Z</time>
      </trkpt>
      <trkpt lat="28.5422150" lon="-16.2207620">
        <ele>732.9</ele>
        <time>2020-11-11T07:59:36Z</time>
      </trkpt>
      <trkpt lat="28.5421820" lon="-16.2208030">
        <ele>733.9</ele>
        <time>2020-11-11T07:59:37Z</time>
      </trkpt>
      <trkpt lat="28.5421680" lon="-16.2208150">
        <ele>733.9</ele>
        <time>2020-11-11T07:59:38Z</time>
      </trkpt>
      <trkpt lat="28.5421680" lon="-16.2208150">
        <ele>733.9</ele>
        <time>2020-11-11T07:59:39Z</time>
      </trkpt>
      <trkpt lat="28.5421330" lon="-16.2208470">
        <ele>733.9</ele>
        <time>2020-11-11T07:59:40Z</time>
      </trkpt>
      <trkpt lat="28.5421330" lon="-16.2208470">
        <ele>733.9</ele>
        <time>2020-11-11T07:59:41Z</time>
      </trkpt>
      <trkpt lat="28.5420980" lon="-16.2208750">
        <ele>733.9</ele>
        <time>2020-11-11T07:59:42Z</time>
      </trkpt>
      <trkpt lat="28.5420980" lon="-16.2208750">
        <ele>733.9</ele>
        <time>2020-11-11T07:59:43Z</time>
      </trkpt>
      <trkpt lat="28.5420530" lon="-16.2208850">
        <ele>733.9</ele>
        <time>2020-11-11T07:59:44Z</time>
      </trkpt>
      <trkpt lat="28.5420530" lon="-16.2208850">
        <ele>733.9</ele>
        <time>2020-11-11T07:59:45Z</time>
      </trkpt>
      <trkpt lat="28.5420270" lon="-16.2209070">
        <ele>733.9</ele>
        <time>2020-11-11T07:59:46Z</time>
      </trkpt>
      <trkpt lat="28.5420270" lon="-16.2209070">
        <ele>734.9</ele>
        <time>2020-11-11T07:59:47Z</time>
      </trkpt>
      <trkpt lat="28.5419950" lon="-16.2209300">
        <ele>734.9</ele>
        <time>2020-11-11T07:59:48Z</time>
      </trkpt>
      <trkpt lat="28.5419950" lon="-16.2209300">
        <ele>734.9</ele>
        <time>2020-11-11T07:59:49Z</time>
      </trkpt>
      <trkpt lat="28.5419620" lon="-16.2209600">
        <ele>734.9</ele>
        <time>2020-11-11T07:59:50Z</time>
      </trkpt>
      <trkpt lat="28.5419620" lon="-16.2209600">
        <ele>735.9</ele>
        <time>2020-11-11T07:59:51Z</time>
      </trkpt>
      <trkpt lat="28.5419300" lon="-16.2209970">
        <ele>735.9</ele>
        <time>2020-11-11T07:59:52Z</time>
      </trkpt>
      <trkpt lat="28.5419300" lon="-16.2209970">
        <ele>735.9</ele>
        <time>2020-11-11T07:59:53Z</time>
      </trkpt>
      <trkpt lat="28.5418880" lon="-16.2210120">
        <ele>735.9</ele>
        <time>2020-11-11T07:59:54Z</time>
      </trkpt>
      <trkpt lat="28.5418880" lon="-16.2210120">
        <ele>736.9</ele>
        <time>2020-11-11T07:59:55Z</time>
      </trkpt>
      <trkpt lat="28.5418500" lon="-16.2210280">
        <ele>736.9</ele>
        <time>2020-11-11T07:59:56Z</time>
      </trkpt>
      <trkpt lat="28.5418500" lon="-16.2210280">
        <ele>736.9</ele>
        <time>2020-11-11T07:59:57Z</time>
      </trkpt>
      <trkpt lat="28.5418130" lon="-16.2210570">
        <ele>736.9</ele>
        <time>2020-11-11T07:59:58Z</time>
      </trkpt>
      <trkpt lat="28.5418130" lon="-16.2210570">
        <ele>736.9</ele>
        <time>2020-11-11T07:59:59Z</time>
      </trkpt>
      <trkpt lat="28.5417780" lon="-16.2210800">
        <ele>737.9</ele>
        <time>2020-11-11T08:00:00Z</time>
      </trkpt>
      <trkpt lat="28.5417670" lon="-16.2210970">
        <ele>737.9</ele>
        <time>2020-11-11T08:00:01Z</time>
      </trkpt>
      <trkpt lat="28.5417520" lon="-16.2211150">
        <ele>737.9</ele>
        <time>2020-11-11T08:00:02Z</time>
      </trkpt>
      <trkpt lat="28.5417520" lon="-16.2211150">
        <ele>737.9</ele>
        <time>2020-11-11T08:00:03Z</time>
      </trkpt>
      <trkpt lat="28.5417270" lon="-16.2211520">
        <ele>738.9</ele>
        <time>2020-11-11T08:00:04Z</time>
      </trkpt>
      <trkpt lat="28.5417270" lon="-16.2211520">
        <ele>738.9</ele>
        <time>2020-11-11T08:00:05Z</time>
      </trkpt>
      <trkpt lat="28.5417000" lon="-16.2211900">
        <ele>738.9</ele>
        <time>2020-11-11T08:00:06Z</time>
      </trkpt>
      <trkpt lat="28.5417000" lon="-16.2211900">
        <ele>738.9</ele>
        <time>2020-11-11T08:00:07Z</time>
      </trkpt>
      <trkpt lat="28.5416830" lon="-16.2212180">
        <ele>739.9</ele>
        <time>2020-11-11T08:00:08Z</time>
      </trkpt>
      <trkpt lat="28.5416830" lon="-16.2212180">
        <ele>739.9</ele>
        <time>2020-11-11T08:00:09Z</time>
      </trkpt>
      <trkpt lat="28.5416680" lon="-16.2212420">
        <ele>739.9</ele>
        <time>2020-11-11T08:00:10Z</time>
      </trkpt>
      <trkpt lat="28.5416680" lon="-16.2212420">
        <ele>739.9</ele>
        <time>2020-11-11T08:00:11Z</time>
      </trkpt>
      <trkpt lat="28.5416620" lon="-16.2212700">
        <ele>739.9</ele>
        <time>2020-11-11T08:00:12Z</time>
      </trkpt>
      <trkpt lat="28.5416620" lon="-16.2212700">
        <ele>739.9</ele>
        <time>2020-11-11T08:00:13Z</time>
      </trkpt>
      <trkpt lat="28.5416630" lon="-16.2212900">
        <ele>739.9</ele>
        <time>2020-11-11T08:00:14Z</time>
      </trkpt>
      <trkpt lat="28.5416630" lon="-16.2212900">
        <ele>740.9</ele>
        <time>2020-11-11T08:00:15Z</time>
      </trkpt>
      <trkpt lat="28.5416520" lon="-16.2213150">
        <ele>740.9</ele>
        <time>2020-11-11T08:00:16Z</time>
      </trkpt>
      <trkpt lat="28.5416520" lon="-16.2213150">
        <ele>740.9</ele>
        <time>2020-11-11T08:00:17Z</time>
      </trkpt>
      <trkpt lat="28.5416250" lon="-16.2213450">
        <ele>740.9</ele>
        <time>2020-11-11T08:00:18Z</time>
      </trkpt>
      <trkpt lat="28.5416250" lon="-16.2213450">
        <ele>741.9</ele>
        <time>2020-11-11T08:00:19Z</time>
      </trkpt>
      <trkpt lat="28.5415900" lon="-16.2213720">
        <ele>741.9</ele>
        <time>2020-11-11T08:00:20Z</time>
      </trkpt>
      <trkpt lat="28.5415900" lon="-16.2213720">
        <ele>741.9</ele>
        <time>2020-11-11T08:00:21Z</time>
      </trkpt>
      <trkpt lat="28.5415500" lon="-16.2213930">
        <ele>741.9</ele>
        <time>2020-11-11T08:00:22Z</time>
      </trkpt>
      <trkpt lat="28.5415300" lon="-16.2214020">
        <ele>741.9</ele>
        <time>2020-11-11T08:00:23Z</time>
      </trkpt>
      <trkpt lat="28.5415300" lon="-16.2214020">
        <ele>741.9</ele>
        <time>2020-11-11T08:00:24Z</time>
      </trkpt>
      <trkpt lat="28.5414870" lon="-16.2213970">
        <ele>742.9</ele>
        <time>2020-11-11T08:00:25Z</time>
      </trkpt>
      <trkpt lat="28.5414680" lon="-16.2214030">
        <ele>742.9</ele>
        <time>2020-11-11T08:00:26Z</time>
      </trkpt>
      <trkpt lat="28.5414680" lon="-16.2214030">
        <ele>742.9</ele>
        <time>2020-11-11T08:00:27Z</time>
      </trkpt>
      <trkpt lat="28.5414300" lon="-16.2214130">
        <ele>742.9</ele>
        <time>2020-11-11T08:00:28Z</time>
      </trkpt>
      <trkpt lat="28.5414120" lon="-16.2214130">
        <ele>743.9</ele>
        <time>2020-11-11T08:00:29Z</time>
      </trkpt>
      <trkpt lat="28.5414120" lon="-16.2214130">
        <ele>743.9</ele>
        <time>2020-11-11T08:00:30Z</time>
      </trkpt>
      <trkpt lat="28.5413730" lon="-16.2214170">
        <ele>743.9</ele>
        <time>2020-11-11T08:00:31Z</time>
      </trkpt>
      <trkpt lat="28.5413730" lon="-16.2214170">
        <ele>743.9</ele>
        <time>2020-11-11T08:00:32Z</time>
      </trkpt>
      <trkpt lat="28.5413300" lon="-16.2214350">
        <ele>744.9</ele>
        <time>2020-11-11T08:00:33Z</time>
      </trkpt>
      <trkpt lat="28.5413120" lon="-16.2214450">
        <ele>744.9</ele>
        <time>2020-11-11T08:00:34Z</time>
      </trkpt>
      <trkpt lat="28.5412930" lon="-16.2214630">
        <ele>744.9</ele>
        <time>2020-11-11T08:00:35Z</time>
      </trkpt>
      <trkpt lat="28.5412730" lon="-16.2214950">
        <ele>744.9</ele>
        <time>2020-11-11T08:00:36Z</time>
      </trkpt>
      <trkpt lat="28.5412730" lon="-16.2214950">
        <ele>744.9</ele>
        <time>2020-11-11T08:00:37Z</time>
      </trkpt>
      <trkpt lat="28.5412270" lon="-16.2215400">
        <ele>744.9</ele>
        <time>2020-11-11T08:00:38Z</time>
      </trkpt>
      <trkpt lat="28.5412270" lon="-16.2215400">
        <ele>744.9</ele>
        <time>2020-11-11T08:00:39Z</time>
      </trkpt>
      <trkpt lat="28.5411950" lon="-16.2215770">
        <ele>744.9</ele>
        <time>2020-11-11T08:00:40Z</time>
      </trkpt>
      <trkpt lat="28.5411880" lon="-16.2215900">
        <ele>745.9</ele>
        <time>2020-11-11T08:00:41Z</time>
      </trkpt>
      <trkpt lat="28.5411880" lon="-16.2215900">
        <ele>745.9</ele>
        <time>2020-11-11T08:00:42Z</time>
      </trkpt>
      <trkpt lat="28.5411680" lon="-16.2216280">
        <ele>745.9</ele>
        <time>2020-11-11T08:00:43Z</time>
      </trkpt>
      <trkpt lat="28.5411620" lon="-16.2216550">
        <ele>745.9</ele>
        <time>2020-11-11T08:00:44Z</time>
      </trkpt>
      <trkpt lat="28.5411620" lon="-16.2216550">
        <ele>746.9</ele>
        <time>2020-11-11T08:00:45Z</time>
      </trkpt>
      <trkpt lat="28.5411570" lon="-16.2217030">
        <ele>746.9</ele>
        <time>2020-11-11T08:00:46Z</time>
      </trkpt>
      <trkpt lat="28.5411570" lon="-16.2217030">
        <ele>746.9</ele>
        <time>2020-11-11T08:00:47Z</time>
      </trkpt>
      <trkpt lat="28.5411470" lon="-16.2217380">
        <ele>746.9</ele>
        <time>2020-11-11T08:00:48Z</time>
      </trkpt>
      <trkpt lat="28.5411450" lon="-16.2217480">
        <ele>746.9</ele>
        <time>2020-11-11T08:00:49Z</time>
      </trkpt>
      <trkpt lat="28.5411420" lon="-16.2217530">
        <ele>746.9</ele>
        <time>2020-11-11T08:00:50Z</time>
      </trkpt>
      <trkpt lat="28.5411420" lon="-16.2217530">
        <ele>747.9</ele>
        <time>2020-11-11T08:00:51Z</time>
      </trkpt>
      <trkpt lat="28.5411470" lon="-16.2217670">
        <ele>747.9</ele>
        <time>2020-11-11T08:00:52Z</time>
      </trkpt>
      <trkpt lat="28.5411470" lon="-16.2217670">
        <ele>747.9</ele>
        <time>2020-11-11T08:00:53Z</time>
      </trkpt>
      <trkpt lat="28.5411430" lon="-16.2217930">
        <ele>747.9</ele>
        <time>2020-11-11T08:00:54Z</time>
      </trkpt>
      <trkpt lat="28.5411430" lon="-16.2217930">
        <ele>747.9</ele>
        <time>2020-11-11T08:00:55Z</time>
      </trkpt>
      <trkpt lat="28.5411220" lon="-16.2218150">
        <ele>748.9</ele>
        <time>2020-11-11T08:00:56Z</time>
      </trkpt>
      <trkpt lat="28.5411220" lon="-16.2218150">
        <ele>748.9</ele>
        <time>2020-11-11T08:00:57Z</time>
      </trkpt>
      <trkpt lat="28.5410920" lon="-16.2218420">
        <ele>748.9</ele>
        <time>2020-11-11T08:00:58Z</time>
      </trkpt>
      <trkpt lat="28.5410800" lon="-16.2218570">
        <ele>748.9</ele>
        <time>2020-11-11T08:00:59Z</time>
      </trkpt>
      <trkpt lat="28.5410800" lon="-16.2218570">
        <ele>749.9</ele>
        <time>2020-11-11T08:01:00Z</time>
      </trkpt>
      <trkpt lat="28.5410750" lon="-16.2218830">
        <ele>749.9</ele>
        <time>2020-11-11T08:01:01Z</time>
      </trkpt>
      <trkpt lat="28.5410720" lon="-16.2218970">
        <ele>749.9</ele>
        <time>2020-11-11T08:01:02Z</time>
      </trkpt>
      <trkpt lat="28.5410720" lon="-16.2218970">
        <ele>749.9</ele>
        <time>2020-11-11T08:01:03Z</time>
      </trkpt>
      <trkpt lat="28.5410570" lon="-16.2219320">
        <ele>750.9</ele>
        <time>2020-11-11T08:01:04Z</time>
      </trkpt>
      <trkpt lat="28.5410470" lon="-16.2219580">
        <ele>750.9</ele>
        <time>2020-11-11T08:01:05Z</time>
      </trkpt>
      <trkpt lat="28.5410470" lon="-16.2219580">
        <ele>750.9</ele>
        <time>2020-11-11T08:01:06Z</time>
      </trkpt>
      <trkpt lat="28.5410230" lon="-16.2220520">
        <ele>750.9</ele>
        <time>2020-11-11T08:01:07Z</time>
      </trkpt>
      <trkpt lat="28.5410150" lon="-16.2220870">
        <ele>750.9</ele>
        <time>2020-11-11T08:01:08Z</time>
      </trkpt>
      <trkpt lat="28.5410150" lon="-16.2220870">
        <ele>750.9</ele>
        <time>2020-11-11T08:01:09Z</time>
      </trkpt>
      <trkpt lat="28.5410070" lon="-16.2221470">
        <ele>751.9</ele>
        <time>2020-11-11T08:01:10Z</time>
      </trkpt>
      <trkpt lat="28.5410070" lon="-16.2221470">
        <ele>751.9</ele>
        <time>2020-11-11T08:01:11Z</time>
      </trkpt>
      <trkpt lat="28.5410120" lon="-16.2222130">
        <ele>751.9</ele>
        <time>2020-11-11T08:01:12Z</time>
      </trkpt>
      <trkpt lat="28.5410120" lon="-16.2222130">
        <ele>751.9</ele>
        <time>2020-11-11T08:01:13Z</time>
      </trkpt>
      <trkpt lat="28.5410170" lon="-16.2222630">
        <ele>752.9</ele>
        <time>2020-11-11T08:01:14Z</time>
      </trkpt>
      <trkpt lat="28.5410170" lon="-16.2222630">
        <ele>752.9</ele>
        <time>2020-11-11T08:01:15Z</time>
      </trkpt>
      <trkpt lat="28.5410220" lon="-16.2222900">
        <ele>752.9</ele>
        <time>2020-11-11T08:01:16Z</time>
      </trkpt>
      <trkpt lat="28.5410220" lon="-16.2222900">
        <ele>752.9</ele>
        <time>2020-11-11T08:01:17Z</time>
      </trkpt>
      <trkpt lat="28.5410280" lon="-16.2223250">
        <ele>752.9</ele>
        <time>2020-11-11T08:01:18Z</time>
      </trkpt>
      <trkpt lat="28.5410300" lon="-16.2223430">
        <ele>752.9</ele>
        <time>2020-11-11T08:01:19Z</time>
      </trkpt>
      <trkpt lat="28.5410300" lon="-16.2223430">
        <ele>753.9</ele>
        <time>2020-11-11T08:01:20Z</time>
      </trkpt>
      <trkpt lat="28.5410370" lon="-16.2223750">
        <ele>753.9</ele>
        <time>2020-11-11T08:01:21Z</time>
      </trkpt>
      <trkpt lat="28.5410370" lon="-16.2223750">
        <ele>753.9</ele>
        <time>2020-11-11T08:01:22Z</time>
      </trkpt>
      <trkpt lat="28.5410470" lon="-16.2224120">
        <ele>753.9</ele>
        <time>2020-11-11T08:01:23Z</time>
      </trkpt>
      <trkpt lat="28.5410470" lon="-16.2224120">
        <ele>753.9</ele>
        <time>2020-11-11T08:01:24Z</time>
      </trkpt>
      <trkpt lat="28.5410670" lon="-16.2224700">
        <ele>753.9</ele>
        <time>2020-11-11T08:01:25Z</time>
      </trkpt>
      <trkpt lat="28.5410670" lon="-16.2224880">
        <ele>754.9</ele>
        <time>2020-11-11T08:01:26Z</time>
      </trkpt>
      <trkpt lat="28.5410670" lon="-16.2224880">
        <ele>754.9</ele>
        <time>2020-11-11T08:01:27Z</time>
      </trkpt>
      <trkpt lat="28.5410680" lon="-16.2225320">
        <ele>754.9</ele>
        <time>2020-11-11T08:01:28Z</time>
      </trkpt>
      <trkpt lat="28.5410680" lon="-16.2225530">
        <ele>754.9</ele>
        <time>2020-11-11T08:01:29Z</time>
      </trkpt>
      <trkpt lat="28.5410680" lon="-16.2225530">
        <ele>755.9</ele>
        <time>2020-11-11T08:01:30Z</time>
      </trkpt>
      <trkpt lat="28.5410670" lon="-16.2225920">
        <ele>755.9</ele>
        <time>2020-11-11T08:01:31Z</time>
      </trkpt>
      <trkpt lat="28.5410670" lon="-16.2225920">
        <ele>755.9</ele>
        <time>2020-11-11T08:01:32Z</time>
      </trkpt>
      <trkpt lat="28.5410620" lon="-16.2226200">
        <ele>755.9</ele>
        <time>2020-11-11T08:01:33Z</time>
      </trkpt>
      <trkpt lat="28.5410620" lon="-16.2226200">
        <ele>755.9</ele>
        <time>2020-11-11T08:01:34Z</time>
      </trkpt>
      <trkpt lat="28.5410600" lon="-16.2226420">
        <ele>755.9</ele>
        <time>2020-11-11T08:01:35Z</time>
      </trkpt>
      <trkpt lat="28.5410600" lon="-16.2226420">
        <ele>755.9</ele>
        <time>2020-11-11T08:01:36Z</time>
      </trkpt>
      <trkpt lat="28.5410530" lon="-16.2226520">
        <ele>756.9</ele>
        <time>2020-11-11T08:01:37Z</time>
      </trkpt>
      <trkpt lat="28.5410530" lon="-16.2226520">
        <ele>756.9</ele>
        <time>2020-11-11T08:01:38Z</time>
      </trkpt>
      <trkpt lat="28.5410270" lon="-16.2226870">
        <ele>756.9</ele>
        <time>2020-11-11T08:01:39Z</time>
      </trkpt>
      <trkpt lat="28.5410270" lon="-16.2226870">
        <ele>756.9</ele>
        <time>2020-11-11T08:01:40Z</time>
      </trkpt>
      <trkpt lat="28.5409880" lon="-16.2227280">
        <ele>757.9</ele>
        <time>2020-11-11T08:01:41Z</time>
      </trkpt>
      <trkpt lat="28.5409880" lon="-16.2227280">
        <ele>757.9</ele>
        <time>2020-11-11T08:01:42Z</time>
      </trkpt>
      <trkpt lat="28.5409680" lon="-16.2228270">
        <ele>757.9</ele>
        <time>2020-11-11T08:01:43Z</time>
      </trkpt>
      <trkpt lat="28.5409680" lon="-16.2228270">
        <ele>757.9</ele>
        <time>2020-11-11T08:01:44Z</time>
      </trkpt>
      <trkpt lat="28.5409380" lon="-16.2228820">
        <ele>757.9</ele>
        <time>2020-11-11T08:01:45Z</time>
      </trkpt>
      <trkpt lat="28.5409380" lon="-16.2228820">
        <ele>757.9</ele>
        <time>2020-11-11T08:01:46Z</time>
      </trkpt>
      <trkpt lat="28.5408980" lon="-16.2229130">
        <ele>758.9</ele>
        <time>2020-11-11T08:01:47Z</time>
      </trkpt>
      <trkpt lat="28.5408980" lon="-16.2229130">
        <ele>758.9</ele>
        <time>2020-11-11T08:01:48Z</time>
      </trkpt>
      <trkpt lat="28.5408500" lon="-16.2229520">
        <ele>758.9</ele>
        <time>2020-11-11T08:01:49Z</time>
      </trkpt>
      <trkpt lat="28.5408250" lon="-16.2229770">
        <ele>758.9</ele>
        <time>2020-11-11T08:01:50Z</time>
      </trkpt>
      <trkpt lat="28.5408130" lon="-16.2229880">
        <ele>758.9</ele>
        <time>2020-11-11T08:01:51Z</time>
      </trkpt>
      <trkpt lat="28.5408130" lon="-16.2229880">
        <ele>758.9</ele>
        <time>2020-11-11T08:01:52Z</time>
      </trkpt>
      <trkpt lat="28.5407920" lon="-16.2230070">
        <ele>758.9</ele>
        <time>2020-11-11T08:01:53Z</time>
      </trkpt>
      <trkpt lat="28.5407920" lon="-16.2230070">
        <ele>759.9</ele>
        <time>2020-11-11T08:01:54Z</time>
      </trkpt>
      <trkpt lat="28.5407630" lon="-16.2230350">
        <ele>759.9</ele>
        <time>2020-11-11T08:01:55Z</time>
      </trkpt>
      <trkpt lat="28.5407630" lon="-16.2230350">
        <ele>759.9</ele>
        <time>2020-11-11T08:01:56Z</time>
      </trkpt>
      <trkpt lat="28.5407370" lon="-16.2230550">
        <ele>759.9</ele>
        <time>2020-11-11T08:01:57Z</time>
      </trkpt>
      <trkpt lat="28.5407180" lon="-16.2230630">
        <ele>759.9</ele>
        <time>2020-11-11T08:01:58Z</time>
      </trkpt>
      <trkpt lat="28.5407180" lon="-16.2230630">
        <ele>759.9</ele>
        <time>2020-11-11T08:01:59Z</time>
      </trkpt>
      <trkpt lat="28.5406780" lon="-16.2230720">
        <ele>759.9</ele>
        <time>2020-11-11T08:02:00Z</time>
      </trkpt>
      <trkpt lat="28.5406570" lon="-16.2230780">
        <ele>760.9</ele>
        <time>2020-11-11T08:02:01Z</time>
      </trkpt>
      <trkpt lat="28.5406570" lon="-16.2230780">
        <ele>760.9</ele>
        <time>2020-11-11T08:02:02Z</time>
      </trkpt>
      <trkpt lat="28.5406180" lon="-16.2230750">
        <ele>760.9</ele>
        <time>2020-11-11T08:02:03Z</time>
      </trkpt>
      <trkpt lat="28.5406180" lon="-16.2230750">
        <ele>760.9</ele>
        <time>2020-11-11T08:02:04Z</time>
      </trkpt>
      <trkpt lat="28.5405870" lon="-16.2230630">
        <ele>760.9</ele>
        <time>2020-11-11T08:02:05Z</time>
      </trkpt>
      <trkpt lat="28.5405870" lon="-16.2230630">
        <ele>760.9</ele>
        <time>2020-11-11T08:02:06Z</time>
      </trkpt>
      <trkpt lat="28.5405350" lon="-16.2230580">
        <ele>760.9</ele>
        <time>2020-11-11T08:02:07Z</time>
      </trkpt>
      <trkpt lat="28.5405050" lon="-16.2230580">
        <ele>760.9</ele>
        <time>2020-11-11T08:02:08Z</time>
      </trkpt>
      <trkpt lat="28.5405050" lon="-16.2230580">
        <ele>760.9</ele>
        <time>2020-11-11T08:02:09Z</time>
      </trkpt>
      <trkpt lat="28.5404520" lon="-16.2230470">
        <ele>762.9</ele>
        <time>2020-11-11T08:02:10Z</time>
      </trkpt>
      <trkpt lat="28.5404520" lon="-16.2230470">
        <ele>762.9</ele>
        <time>2020-11-11T08:02:11Z</time>
      </trkpt>
      <trkpt lat="28.5404130" lon="-16.2230480">
        <ele>762.9</ele>
        <time>2020-11-11T08:02:12Z</time>
      </trkpt>
      <trkpt lat="28.5404130" lon="-16.2230480">
        <ele>762.9</ele>
        <time>2020-11-11T08:02:13Z</time>
      </trkpt>
      <trkpt lat="28.5403700" lon="-16.2230430">
        <ele>763.9</ele>
        <time>2020-11-11T08:02:14Z</time>
      </trkpt>
      <trkpt lat="28.5403700" lon="-16.2230430">
        <ele>763.9</ele>
        <time>2020-11-11T08:02:15Z</time>
      </trkpt>
      <trkpt lat="28.5403370" lon="-16.2230450">
        <ele>763.9</ele>
        <time>2020-11-11T08:02:16Z</time>
      </trkpt>
      <trkpt lat="28.5403370" lon="-16.2230450">
        <ele>763.9</ele>
        <time>2020-11-11T08:02:17Z</time>
      </trkpt>
      <trkpt lat="28.5403020" lon="-16.2230550">
        <ele>764.9</ele>
        <time>2020-11-11T08:02:18Z</time>
      </trkpt>
      <trkpt lat="28.5402850" lon="-16.2230520">
        <ele>764.9</ele>
        <time>2020-11-11T08:02:19Z</time>
      </trkpt>
      <trkpt lat="28.5402720" lon="-16.2230430">
        <ele>764.9</ele>
        <time>2020-11-11T08:02:20Z</time>
      </trkpt>
      <trkpt lat="28.5402720" lon="-16.2230430">
        <ele>764.9</ele>
        <time>2020-11-11T08:02:21Z</time>
      </trkpt>
      <trkpt lat="28.5402650" lon="-16.2230250">
        <ele>764.9</ele>
        <time>2020-11-11T08:02:22Z</time>
      </trkpt>
      <trkpt lat="28.5402650" lon="-16.2230250">
        <ele>764.9</ele>
        <time>2020-11-11T08:02:23Z</time>
      </trkpt>
      <trkpt lat="28.5402550" lon="-16.2230020">
        <ele>764.9</ele>
        <time>2020-11-11T08:02:24Z</time>
      </trkpt>
      <trkpt lat="28.5402280" lon="-16.2229920">
        <ele>764.9</ele>
        <time>2020-11-11T08:02:25Z</time>
      </trkpt>
      <trkpt lat="28.5402280" lon="-16.2229920">
        <ele>764.9</ele>
        <time>2020-11-11T08:02:26Z</time>
      </trkpt>
      <trkpt lat="28.5402120" lon="-16.2229580">
        <ele>764.9</ele>
        <time>2020-11-11T08:02:27Z</time>
      </trkpt>
      <trkpt lat="28.5402100" lon="-16.2229380">
        <ele>765.9</ele>
        <time>2020-11-11T08:02:28Z</time>
      </trkpt>
      <trkpt lat="28.5402100" lon="-16.2229380">
        <ele>765.9</ele>
        <time>2020-11-11T08:02:29Z</time>
      </trkpt>
      <trkpt lat="28.5402100" lon="-16.2228880">
        <ele>765.9</ele>
        <time>2020-11-11T08:02:30Z</time>
      </trkpt>
      <trkpt lat="28.5402100" lon="-16.2228880">
        <ele>765.9</ele>
        <time>2020-11-11T08:02:31Z</time>
      </trkpt>
      <trkpt lat="28.5402070" lon="-16.2228380">
        <ele>765.9</ele>
        <time>2020-11-11T08:02:32Z</time>
      </trkpt>
      <trkpt lat="28.5402070" lon="-16.2228380">
        <ele>766.9</ele>
        <time>2020-11-11T08:02:33Z</time>
      </trkpt>
      <trkpt lat="28.5402020" lon="-16.2227870">
        <ele>766.9</ele>
        <time>2020-11-11T08:02:34Z</time>
      </trkpt>
      <trkpt lat="28.5401970" lon="-16.2227620">
        <ele>766.9</ele>
        <time>2020-11-11T08:02:35Z</time>
      </trkpt>
      <trkpt lat="28.5401970" lon="-16.2227620">
        <ele>766.9</ele>
        <time>2020-11-11T08:02:36Z</time>
      </trkpt>
      <trkpt lat="28.5401830" lon="-16.2227120">
        <ele>766.9</ele>
        <time>2020-11-11T08:02:37Z</time>
      </trkpt>
      <trkpt lat="28.5401770" lon="-16.2226870">
        <ele>766.9</ele>
        <time>2020-11-11T08:02:38Z</time>
      </trkpt>
      <trkpt lat="28.5401830" lon="-16.2226580">
        <ele>767.9</ele>
        <time>2020-11-11T08:02:39Z</time>
      </trkpt>
      <trkpt lat="28.5401830" lon="-16.2226580">
        <ele>767.9</ele>
        <time>2020-11-11T08:02:40Z</time>
      </trkpt>
      <trkpt lat="28.5401680" lon="-16.2226120">
        <ele>767.9</ele>
        <time>2020-11-11T08:02:41Z</time>
      </trkpt>
      <trkpt lat="28.5401680" lon="-16.2226120">
        <ele>767.9</ele>
        <time>2020-11-11T08:02:42Z</time>
      </trkpt>
      <trkpt lat="28.5401520" lon="-16.2225680">
        <ele>767.9</ele>
        <time>2020-11-11T08:02:43Z</time>
      </trkpt>
      <trkpt lat="28.5401520" lon="-16.2225680">
        <ele>767.9</ele>
        <time>2020-11-11T08:02:44Z</time>
      </trkpt>
      <trkpt lat="28.5401300" lon="-16.2225250">
        <ele>768.9</ele>
        <time>2020-11-11T08:02:45Z</time>
      </trkpt>
      <trkpt lat="28.5401250" lon="-16.2225100">
        <ele>768.9</ele>
        <time>2020-11-11T08:02:46Z</time>
      </trkpt>
      <trkpt lat="28.5401250" lon="-16.2225100">
        <ele>768.9</ele>
        <time>2020-11-11T08:02:47Z</time>
      </trkpt>
      <trkpt lat="28.5401100" lon="-16.2224700">
        <ele>768.9</ele>
        <time>2020-11-11T08:02:48Z</time>
      </trkpt>
      <trkpt lat="28.5401020" lon="-16.2224530">
        <ele>768.9</ele>
        <time>2020-11-11T08:02:49Z</time>
      </trkpt>
      <trkpt lat="28.5401020" lon="-16.2224530">
        <ele>769.9</ele>
        <time>2020-11-11T08:02:50Z</time>
      </trkpt>
      <trkpt lat="28.5400830" lon="-16.2224170">
        <ele>769.9</ele>
        <time>2020-11-11T08:02:51Z</time>
      </trkpt>
      <trkpt lat="28.5400830" lon="-16.2224170">
        <ele>769.9</ele>
        <time>2020-11-11T08:02:52Z</time>
      </trkpt>
      <trkpt lat="28.5400680" lon="-16.2223870">
        <ele>769.9</ele>
        <time>2020-11-11T08:02:53Z</time>
      </trkpt>
      <trkpt lat="28.5400680" lon="-16.2223870">
        <ele>769.9</ele>
        <time>2020-11-11T08:02:54Z</time>
      </trkpt>
      <trkpt lat="28.5400600" lon="-16.2223520">
        <ele>769.9</ele>
        <time>2020-11-11T08:02:55Z</time>
      </trkpt>
      <trkpt lat="28.5400600" lon="-16.2223520">
        <ele>770.9</ele>
        <time>2020-11-11T08:02:56Z</time>
      </trkpt>
      <trkpt lat="28.5400450" lon="-16.2223130">
        <ele>770.9</ele>
        <time>2020-11-11T08:02:57Z</time>
      </trkpt>
      <trkpt lat="28.5400450" lon="-16.2223130">
        <ele>770.9</ele>
        <time>2020-11-11T08:02:58Z</time>
      </trkpt>
      <trkpt lat="28.5400350" lon="-16.2222750">
        <ele>770.9</ele>
        <time>2020-11-11T08:02:59Z</time>
      </trkpt>
      <trkpt lat="28.5400350" lon="-16.2222750">
        <ele>770.9</ele>
        <time>2020-11-11T08:03:00Z</time>
      </trkpt>
      <trkpt lat="28.5400170" lon="-16.2222330">
        <ele>770.9</ele>
        <time>2020-11-11T08:03:01Z</time>
      </trkpt>
      <trkpt lat="28.5400080" lon="-16.2222150">
        <ele>771.9</ele>
        <time>2020-11-11T08:03:02Z</time>
      </trkpt>
      <trkpt lat="28.5400080" lon="-16.2222150">
        <ele>771.9</ele>
        <time>2020-11-11T08:03:03Z</time>
      </trkpt>
      <trkpt lat="28.5399830" lon="-16.2221800">
        <ele>771.9</ele>
        <time>2020-11-11T08:03:04Z</time>
      </trkpt>
      <trkpt lat="28.5399680" lon="-16.2221630">
        <ele>771.9</ele>
        <time>2020-11-11T08:03:05Z</time>
      </trkpt>
      <trkpt lat="28.5399680" lon="-16.2221630">
        <ele>771.9</ele>
        <time>2020-11-11T08:03:06Z</time>
      </trkpt>
      <trkpt lat="28.5399370" lon="-16.2221220">
        <ele>771.9</ele>
        <time>2020-11-11T08:03:07Z</time>
      </trkpt>
      <trkpt lat="28.5399230" lon="-16.2221030">
        <ele>772.9</ele>
        <time>2020-11-11T08:03:08Z</time>
      </trkpt>
      <trkpt lat="28.5399230" lon="-16.2221030">
        <ele>772.9</ele>
        <time>2020-11-11T08:03:09Z</time>
      </trkpt>
      <trkpt lat="28.5399130" lon="-16.2220730">
        <ele>772.9</ele>
        <time>2020-11-11T08:03:10Z</time>
      </trkpt>
      <trkpt lat="28.5399070" lon="-16.2220570">
        <ele>772.9</ele>
        <time>2020-11-11T08:03:11Z</time>
      </trkpt>
      <trkpt lat="28.5399070" lon="-16.2220570">
        <ele>773.9</ele>
        <time>2020-11-11T08:03:12Z</time>
      </trkpt>
      <trkpt lat="28.5398920" lon="-16.2220170">
        <ele>773.9</ele>
        <time>2020-11-11T08:03:13Z</time>
      </trkpt>
      <trkpt lat="28.5398920" lon="-16.2220170">
        <ele>773.9</ele>
        <time>2020-11-11T08:03:14Z</time>
      </trkpt>
      <trkpt lat="28.5398430" lon="-16.2219680">
        <ele>773.9</ele>
        <time>2020-11-11T08:03:15Z</time>
      </trkpt>
      <trkpt lat="28.5398430" lon="-16.2219680">
        <ele>773.9</ele>
        <time>2020-11-11T08:03:16Z</time>
      </trkpt>
      <trkpt lat="28.5398270" lon="-16.2219220">
        <ele>773.9</ele>
        <time>2020-11-11T08:03:17Z</time>
      </trkpt>
      <trkpt lat="28.5398270" lon="-16.2219220">
        <ele>774.9</ele>
        <time>2020-11-11T08:03:18Z</time>
      </trkpt>
      <trkpt lat="28.5398050" lon="-16.2218770">
        <ele>774.9</ele>
        <time>2020-11-11T08:03:19Z</time>
      </trkpt>
      <trkpt lat="28.5398050" lon="-16.2218770">
        <ele>774.9</ele>
        <time>2020-11-11T08:03:20Z</time>
      </trkpt>
      <trkpt lat="28.5397720" lon="-16.2218400">
        <ele>774.9</ele>
        <time>2020-11-11T08:03:21Z</time>
      </trkpt>
      <trkpt lat="28.5397720" lon="-16.2218400">
        <ele>774.9</ele>
        <time>2020-11-11T08:03:22Z</time>
      </trkpt>
      <trkpt lat="28.5397380" lon="-16.2217970">
        <ele>774.9</ele>
        <time>2020-11-11T08:03:23Z</time>
      </trkpt>
      <trkpt lat="28.5397380" lon="-16.2217970">
        <ele>774.9</ele>
        <time>2020-11-11T08:03:24Z</time>
      </trkpt>
      <trkpt lat="28.5397220" lon="-16.2217570">
        <ele>774.9</ele>
        <time>2020-11-11T08:03:25Z</time>
      </trkpt>
      <trkpt lat="28.5397220" lon="-16.2217570">
        <ele>774.9</ele>
        <time>2020-11-11T08:03:26Z</time>
      </trkpt>
      <trkpt lat="28.5397020" lon="-16.2217320">
        <ele>774.9</ele>
        <time>2020-11-11T08:03:27Z</time>
      </trkpt>
      <trkpt lat="28.5397020" lon="-16.2217320">
        <ele>776.9</ele>
        <time>2020-11-11T08:03:28Z</time>
      </trkpt>
      <trkpt lat="28.5396680" lon="-16.2216970">
        <ele>776.9</ele>
        <time>2020-11-11T08:03:29Z</time>
      </trkpt>
      <trkpt lat="28.5396680" lon="-16.2216970">
        <ele>776.9</ele>
        <time>2020-11-11T08:03:30Z</time>
      </trkpt>
      <trkpt lat="28.5396470" lon="-16.2216600">
        <ele>776.9</ele>
        <time>2020-11-11T08:03:31Z</time>
      </trkpt>
      <trkpt lat="28.5396470" lon="-16.2216600">
        <ele>776.9</ele>
        <time>2020-11-11T08:03:32Z</time>
      </trkpt>
      <trkpt lat="28.5396400" lon="-16.2216230">
        <ele>776.9</ele>
        <time>2020-11-11T08:03:33Z</time>
      </trkpt>
      <trkpt lat="28.5396320" lon="-16.2216050">
        <ele>776.9</ele>
        <time>2020-11-11T08:03:34Z</time>
      </trkpt>
      <trkpt lat="28.5396320" lon="-16.2216050">
        <ele>777.9</ele>
        <time>2020-11-11T08:03:35Z</time>
      </trkpt>
      <trkpt lat="28.5396150" lon="-16.2215650">
        <ele>777.9</ele>
        <time>2020-11-11T08:03:36Z</time>
      </trkpt>
      <trkpt lat="28.5396150" lon="-16.2215650">
        <ele>777.9</ele>
        <time>2020-11-11T08:03:37Z</time>
      </trkpt>
      <trkpt lat="28.5395980" lon="-16.2215320">
        <ele>777.9</ele>
        <time>2020-11-11T08:03:38Z</time>
      </trkpt>
      <trkpt lat="28.5395980" lon="-16.2215320">
        <ele>778.9</ele>
        <time>2020-11-11T08:03:39Z</time>
      </trkpt>
      <trkpt lat="28.5395800" lon="-16.2215070">
        <ele>778.9</ele>
        <time>2020-11-11T08:03:40Z</time>
      </trkpt>
      <trkpt lat="28.5395700" lon="-16.2214880">
        <ele>778.9</ele>
        <time>2020-11-11T08:03:41Z</time>
      </trkpt>
      <trkpt lat="28.5395700" lon="-16.2214880">
        <ele>778.9</ele>
        <time>2020-11-11T08:03:42Z</time>
      </trkpt>
      <trkpt lat="28.5395300" lon="-16.2214350">
        <ele>779.9</ele>
        <time>2020-11-11T08:03:43Z</time>
      </trkpt>
      <trkpt lat="28.5395300" lon="-16.2214350">
        <ele>779.9</ele>
        <time>2020-11-11T08:03:44Z</time>
      </trkpt>
      <trkpt lat="28.5395030" lon="-16.2213950">
        <ele>779.9</ele>
        <time>2020-11-11T08:03:45Z</time>
      </trkpt>
      <trkpt lat="28.5395030" lon="-16.2213950">
        <ele>779.9</ele>
        <time>2020-11-11T08:03:46Z</time>
      </trkpt>
      <trkpt lat="28.5394930" lon="-16.2213430">
        <ele>779.9</ele>
        <time>2020-11-11T08:03:47Z</time>
      </trkpt>
      <trkpt lat="28.5394930" lon="-16.2213430">
        <ele>779.9</ele>
        <time>2020-11-11T08:03:48Z</time>
      </trkpt>
      <trkpt lat="28.5394780" lon="-16.2212930">
        <ele>780.9</ele>
        <time>2020-11-11T08:03:49Z</time>
      </trkpt>
      <trkpt lat="28.5394780" lon="-16.2212930">
        <ele>780.9</ele>
        <time>2020-11-11T08:03:50Z</time>
      </trkpt>
      <trkpt lat="28.5394680" lon="-16.2212400">
        <ele>780.9</ele>
        <time>2020-11-11T08:03:51Z</time>
      </trkpt>
      <trkpt lat="28.5394570" lon="-16.2212180">
        <ele>780.9</ele>
        <time>2020-11-11T08:03:52Z</time>
      </trkpt>
      <trkpt lat="28.5394570" lon="-16.2212180">
        <ele>781.9</ele>
        <time>2020-11-11T08:03:53Z</time>
      </trkpt>
      <trkpt lat="28.5394470" lon="-16.2211820">
        <ele>781.9</ele>
        <time>2020-11-11T08:03:54Z</time>
      </trkpt>
      <trkpt lat="28.5394470" lon="-16.2211820">
        <ele>781.9</ele>
        <time>2020-11-11T08:03:55Z</time>
      </trkpt>
      <trkpt lat="28.5394430" lon="-16.2211450">
        <ele>781.9</ele>
        <time>2020-11-11T08:03:56Z</time>
      </trkpt>
      <trkpt lat="28.5394430" lon="-16.2211250">
        <ele>781.9</ele>
        <time>2020-11-11T08:03:57Z</time>
      </trkpt>
      <trkpt lat="28.5394430" lon="-16.2211250">
        <ele>781.9</ele>
        <time>2020-11-11T08:03:58Z</time>
      </trkpt>
      <trkpt lat="28.5394330" lon="-16.2210920">
        <ele>781.9</ele>
        <time>2020-11-11T08:03:59Z</time>
      </trkpt>
      <trkpt lat="28.5394330" lon="-16.2210920">
        <ele>781.9</ele>
        <time>2020-11-11T08:04:00Z</time>
      </trkpt>
      <trkpt lat="28.5394330" lon="-16.2210430">
        <ele>781.9</ele>
        <time>2020-11-11T08:04:01Z</time>
      </trkpt>
      <trkpt lat="28.5394380" lon="-16.2210200">
        <ele>782.9</ele>
        <time>2020-11-11T08:04:02Z</time>
      </trkpt>
      <trkpt lat="28.5394380" lon="-16.2210200">
        <ele>782.9</ele>
        <time>2020-11-11T08:04:03Z</time>
      </trkpt>
      <trkpt lat="28.5394420" lon="-16.2209770">
        <ele>782.9</ele>
        <time>2020-11-11T08:04:04Z</time>
      </trkpt>
      <trkpt lat="28.5394420" lon="-16.2209770">
        <ele>782.9</ele>
        <time>2020-11-11T08:04:05Z</time>
      </trkpt>
      <trkpt lat="28.5394470" lon="-16.2209320">
        <ele>783.9</ele>
        <time>2020-11-11T08:04:06Z</time>
      </trkpt>
      <trkpt lat="28.5394470" lon="-16.2209320">
        <ele>783.9</ele>
        <time>2020-11-11T08:04:07Z</time>
      </trkpt>
      <trkpt lat="28.5394670" lon="-16.2208820">
        <ele>783.9</ele>
        <time>2020-11-11T08:04:08Z</time>
      </trkpt>
      <trkpt lat="28.5394730" lon="-16.2208600">
        <ele>783.9</ele>
        <time>2020-11-11T08:04:09Z</time>
      </trkpt>
      <trkpt lat="28.5394730" lon="-16.2208600">
        <ele>783.9</ele>
        <time>2020-11-11T08:04:10Z</time>
      </trkpt>
      <trkpt lat="28.5394820" lon="-16.2208130">
        <ele>784.9</ele>
        <time>2020-11-11T08:04:11Z</time>
      </trkpt>
      <trkpt lat="28.5394820" lon="-16.2208130">
        <ele>784.9</ele>
        <time>2020-11-11T08:04:12Z</time>
      </trkpt>
      <trkpt lat="28.5395050" lon="-16.2207680">
        <ele>784.9</ele>
        <time>2020-11-11T08:04:13Z</time>
      </trkpt>
      <trkpt lat="28.5395050" lon="-16.2207680">
        <ele>784.9</ele>
        <time>2020-11-11T08:04:14Z</time>
      </trkpt>
      <trkpt lat="28.5395170" lon="-16.2207200">
        <ele>784.9</ele>
        <time>2020-11-11T08:04:15Z</time>
      </trkpt>
      <trkpt lat="28.5395170" lon="-16.2207200">
        <ele>784.9</ele>
        <time>2020-11-11T08:04:16Z</time>
      </trkpt>
      <trkpt lat="28.5395500" lon="-16.2206580">
        <ele>784.9</ele>
        <time>2020-11-11T08:04:17Z</time>
      </trkpt>
      <trkpt lat="28.5395500" lon="-16.2206580">
        <ele>785.9</ele>
        <time>2020-11-11T08:04:18Z</time>
      </trkpt>
      <trkpt lat="28.5395650" lon="-16.2206020">
        <ele>785.9</ele>
        <time>2020-11-11T08:04:19Z</time>
      </trkpt>
      <trkpt lat="28.5395630" lon="-16.2205720">
        <ele>785.9</ele>
        <time>2020-11-11T08:04:20Z</time>
      </trkpt>
      <trkpt lat="28.5395630" lon="-16.2205720">
        <ele>785.9</ele>
        <time>2020-11-11T08:04:21Z</time>
      </trkpt>
      <trkpt lat="28.5395500" lon="-16.2205150">
        <ele>785.9</ele>
        <time>2020-11-11T08:04:22Z</time>
      </trkpt>
      <trkpt lat="28.5395500" lon="-16.2205150">
        <ele>787.9</ele>
        <time>2020-11-11T08:04:23Z</time>
      </trkpt>
      <trkpt lat="28.5395270" lon="-16.2204700">
        <ele>787.9</ele>
        <time>2020-11-11T08:04:24Z</time>
      </trkpt>
      <trkpt lat="28.5395270" lon="-16.2204700">
        <ele>787.9</ele>
        <time>2020-11-11T08:04:25Z</time>
      </trkpt>
      <trkpt lat="28.5395020" lon="-16.2204330">
        <ele>787.9</ele>
        <time>2020-11-11T08:04:26Z</time>
      </trkpt>
      <trkpt lat="28.5395020" lon="-16.2204330">
        <ele>788.9</ele>
        <time>2020-11-11T08:04:27Z</time>
      </trkpt>
      <trkpt lat="28.5394770" lon="-16.2204000">
        <ele>788.9</ele>
        <time>2020-11-11T08:04:28Z</time>
      </trkpt>
      <trkpt lat="28.5394770" lon="-16.2203880">
        <ele>788.9</ele>
        <time>2020-11-11T08:04:29Z</time>
      </trkpt>
      <trkpt lat="28.5394700" lon="-16.2203730">
        <ele>788.9</ele>
        <time>2020-11-11T08:04:30Z</time>
      </trkpt>
      <trkpt lat="28.5394700" lon="-16.2203730">
        <ele>789.9</ele>
        <time>2020-11-11T08:04:31Z</time>
      </trkpt>
      <trkpt lat="28.5394430" lon="-16.2203430">
        <ele>789.9</ele>
        <time>2020-11-11T08:04:32Z</time>
      </trkpt>
      <trkpt lat="28.5394430" lon="-16.2203430">
        <ele>789.9</ele>
        <time>2020-11-11T08:04:33Z</time>
      </trkpt>
      <trkpt lat="28.5394250" lon="-16.2203220">
        <ele>789.9</ele>
        <time>2020-11-11T08:04:34Z</time>
      </trkpt>
      <trkpt lat="28.5394250" lon="-16.2203220">
        <ele>789.9</ele>
        <time>2020-11-11T08:04:35Z</time>
      </trkpt>
      <trkpt lat="28.5394100" lon="-16.2202870">
        <ele>789.9</ele>
        <time>2020-11-11T08:04:36Z</time>
      </trkpt>
      <trkpt lat="28.5394100" lon="-16.2202870">
        <ele>790.9</ele>
        <time>2020-11-11T08:04:37Z</time>
      </trkpt>
      <trkpt lat="28.5393800" lon="-16.2202620">
        <ele>790.9</ele>
        <time>2020-11-11T08:04:38Z</time>
      </trkpt>
      <trkpt lat="28.5393800" lon="-16.2202620">
        <ele>790.9</ele>
        <time>2020-11-11T08:04:39Z</time>
      </trkpt>
      <trkpt lat="28.5393500" lon="-16.2202320">
        <ele>790.9</ele>
        <time>2020-11-11T08:04:40Z</time>
      </trkpt>
      <trkpt lat="28.5393500" lon="-16.2202320">
        <ele>790.9</ele>
        <time>2020-11-11T08:04:41Z</time>
      </trkpt>
      <trkpt lat="28.5393170" lon="-16.2201870">
        <ele>790.9</ele>
        <time>2020-11-11T08:04:42Z</time>
      </trkpt>
      <trkpt lat="28.5393200" lon="-16.2201600">
        <ele>791.9</ele>
        <time>2020-11-11T08:04:43Z</time>
      </trkpt>
      <trkpt lat="28.5393200" lon="-16.2201600">
        <ele>791.9</ele>
        <time>2020-11-11T08:04:44Z</time>
      </trkpt>
      <trkpt lat="28.5392950" lon="-16.2200920">
        <ele>791.9</ele>
        <time>2020-11-11T08:04:45Z</time>
      </trkpt>
      <trkpt lat="28.5392600" lon="-16.2200520">
        <ele>791.9</ele>
        <time>2020-11-11T08:04:46Z</time>
      </trkpt>
      <trkpt lat="28.5392680" lon="-16.2200150">
        <ele>791.9</ele>
        <time>2020-11-11T08:04:47Z</time>
      </trkpt>
      <trkpt lat="28.5392680" lon="-16.2200150">
        <ele>792.9</ele>
        <time>2020-11-11T08:04:48Z</time>
      </trkpt>
      <trkpt lat="28.5392800" lon="-16.2199620">
        <ele>792.9</ele>
        <time>2020-11-11T08:04:49Z</time>
      </trkpt>
      <trkpt lat="28.5392800" lon="-16.2199380">
        <ele>792.9</ele>
        <time>2020-11-11T08:04:50Z</time>
      </trkpt>
      <trkpt lat="28.5392800" lon="-16.2199380">
        <ele>792.9</ele>
        <time>2020-11-11T08:04:51Z</time>
      </trkpt>
      <trkpt lat="28.5392880" lon="-16.2198900">
        <ele>793.9</ele>
        <time>2020-11-11T08:04:52Z</time>
      </trkpt>
      <trkpt lat="28.5392880" lon="-16.2198900">
        <ele>793.9</ele>
        <time>2020-11-11T08:04:53Z</time>
      </trkpt>
      <trkpt lat="28.5392950" lon="-16.2198420">
        <ele>793.9</ele>
        <time>2020-11-11T08:04:54Z</time>
      </trkpt>
      <trkpt lat="28.5392950" lon="-16.2198420">
        <ele>793.9</ele>
        <time>2020-11-11T08:04:55Z</time>
      </trkpt>
      <trkpt lat="28.5393050" lon="-16.2197930">
        <ele>793.9</ele>
        <time>2020-11-11T08:04:56Z</time>
      </trkpt>
      <trkpt lat="28.5392950" lon="-16.2197780">
        <ele>793.9</ele>
        <time>2020-11-11T08:04:57Z</time>
      </trkpt>
      <trkpt lat="28.5392950" lon="-16.2197580">
        <ele>793.9</ele>
        <time>2020-11-11T08:04:58Z</time>
      </trkpt>
      <trkpt lat="28.5392950" lon="-16.2197580">
        <ele>793.9</ele>
        <time>2020-11-11T08:04:59Z</time>
      </trkpt>
      <trkpt lat="28.5392950" lon="-16.2197200">
        <ele>793.9</ele>
        <time>2020-11-11T08:05:00Z</time>
      </trkpt>
      <trkpt lat="28.5392950" lon="-16.2197200">
        <ele>793.9</ele>
        <time>2020-11-11T08:05:01Z</time>
      </trkpt>
      <trkpt lat="28.5393020" lon="-16.2196780">
        <ele>794.9</ele>
        <time>2020-11-11T08:05:02Z</time>
      </trkpt>
      <trkpt lat="28.5393020" lon="-16.2196780">
        <ele>794.9</ele>
        <time>2020-11-11T08:05:03Z</time>
      </trkpt>
      <trkpt lat="28.5393130" lon="-16.2196350">
        <ele>794.9</ele>
        <time>2020-11-11T08:05:04Z</time>
      </trkpt>
      <trkpt lat="28.5393130" lon="-16.2196350">
        <ele>794.9</ele>
        <time>2020-11-11T08:05:05Z</time>
      </trkpt>
      <trkpt lat="28.5393250" lon="-16.2195830">
        <ele>794.9</ele>
        <time>2020-11-11T08:05:06Z</time>
      </trkpt>
      <trkpt lat="28.5393250" lon="-16.2195830">
        <ele>794.9</ele>
        <time>2020-11-11T08:05:07Z</time>
      </trkpt>
      <trkpt lat="28.5393400" lon="-16.2195370">
        <ele>795.9</ele>
        <time>2020-11-11T08:05:08Z</time>
      </trkpt>
      <trkpt lat="28.5393400" lon="-16.2195370">
        <ele>795.9</ele>
        <time>2020-11-11T08:05:09Z</time>
      </trkpt>
      <trkpt lat="28.5393520" lon="-16.2194950">
        <ele>795.9</ele>
        <time>2020-11-11T08:05:10Z</time>
      </trkpt>
      <trkpt lat="28.5393520" lon="-16.2194950">
        <ele>795.9</ele>
        <time>2020-11-11T08:05:11Z</time>
      </trkpt>
      <trkpt lat="28.5393600" lon="-16.2194570">
        <ele>796.9</ele>
        <time>2020-11-11T08:05:12Z</time>
      </trkpt>
      <trkpt lat="28.5393650" lon="-16.2194380">
        <ele>796.9</ele>
        <time>2020-11-11T08:05:13Z</time>
      </trkpt>
      <trkpt lat="28.5393650" lon="-16.2194380">
        <ele>796.9</ele>
        <time>2020-11-11T08:05:14Z</time>
      </trkpt>
      <trkpt lat="28.5393650" lon="-16.2193950">
        <ele>796.9</ele>
        <time>2020-11-11T08:05:15Z</time>
      </trkpt>
      <trkpt lat="28.5393650" lon="-16.2193950">
        <ele>796.9</ele>
        <time>2020-11-11T08:05:16Z</time>
      </trkpt>
      <trkpt lat="28.5393520" lon="-16.2193470">
        <ele>796.9</ele>
        <time>2020-11-11T08:05:17Z</time>
      </trkpt>
      <trkpt lat="28.5393520" lon="-16.2193470">
        <ele>797.9</ele>
        <time>2020-11-11T08:05:18Z</time>
      </trkpt>
      <trkpt lat="28.5393400" lon="-16.2192970">
        <ele>797.9</ele>
        <time>2020-11-11T08:05:19Z</time>
      </trkpt>
      <trkpt lat="28.5393400" lon="-16.2192970">
        <ele>797.9</ele>
        <time>2020-11-11T08:05:20Z</time>
      </trkpt>
      <trkpt lat="28.5393230" lon="-16.2192580">
        <ele>797.9</ele>
        <time>2020-11-11T08:05:21Z</time>
      </trkpt>
      <trkpt lat="28.5393230" lon="-16.2192580">
        <ele>798.9</ele>
        <time>2020-11-11T08:05:22Z</time>
      </trkpt>
      <trkpt lat="28.5393000" lon="-16.2192230">
        <ele>798.9</ele>
        <time>2020-11-11T08:05:23Z</time>
      </trkpt>
      <trkpt lat="28.5392880" lon="-16.2192080">
        <ele>799.9</ele>
        <time>2020-11-11T08:05:24Z</time>
      </trkpt>
      <trkpt lat="28.5392770" lon="-16.2191950">
        <ele>799.9</ele>
        <time>2020-11-11T08:05:25Z</time>
      </trkpt>
      <trkpt lat="28.5392770" lon="-16.2191950">
        <ele>799.9</ele>
        <time>2020-11-11T08:05:26Z</time>
      </trkpt>
      <trkpt lat="28.5392450" lon="-16.2191780">
        <ele>799.9</ele>
        <time>2020-11-11T08:05:27Z</time>
      </trkpt>
      <trkpt lat="28.5392250" lon="-16.2191720">
        <ele>799.9</ele>
        <time>2020-11-11T08:05:28Z</time>
      </trkpt>
      <trkpt lat="28.5392250" lon="-16.2191720">
        <ele>799.9</ele>
        <time>2020-11-11T08:05:29Z</time>
      </trkpt>
      <trkpt lat="28.5391870" lon="-16.2191600">
        <ele>800.9</ele>
        <time>2020-11-11T08:05:30Z</time>
      </trkpt>
      <trkpt lat="28.5391870" lon="-16.2191600">
        <ele>800.9</ele>
        <time>2020-11-11T08:05:31Z</time>
      </trkpt>
      <trkpt lat="28.5391480" lon="-16.2191550">
        <ele>800.9</ele>
        <time>2020-11-11T08:05:32Z</time>
      </trkpt>
      <trkpt lat="28.5391480" lon="-16.2191550">
        <ele>800.9</ele>
        <time>2020-11-11T08:05:33Z</time>
      </trkpt>
      <trkpt lat="28.5391080" lon="-16.2191600">
        <ele>801.9</ele>
        <time>2020-11-11T08:05:34Z</time>
      </trkpt>
      <trkpt lat="28.5390880" lon="-16.2191670">
        <ele>801.9</ele>
        <time>2020-11-11T08:05:35Z</time>
      </trkpt>
      <trkpt lat="28.5390880" lon="-16.2191670">
        <ele>801.9</ele>
        <time>2020-11-11T08:05:36Z</time>
      </trkpt>
      <trkpt lat="28.5390530" lon="-16.2191830">
        <ele>801.9</ele>
        <time>2020-11-11T08:05:37Z</time>
      </trkpt>
      <trkpt lat="28.5390430" lon="-16.2191900">
        <ele>801.9</ele>
        <time>2020-11-11T08:05:38Z</time>
      </trkpt>
      <trkpt lat="28.5390430" lon="-16.2191900">
        <ele>801.9</ele>
        <time>2020-11-11T08:05:39Z</time>
      </trkpt>
      <trkpt lat="28.5390470" lon="-16.2191920">
        <ele>801.9</ele>
        <time>2020-11-11T08:05:40Z</time>
      </trkpt>
      <trkpt lat="28.5390470" lon="-16.2191920">
        <ele>801.9</ele>
        <time>2020-11-11T08:05:41Z</time>
      </trkpt>
      <trkpt lat="28.5390470" lon="-16.2191930">
        <ele>801.9</ele>
        <time>2020-11-11T08:08:12Z</time>
      </trkpt>
      <trkpt lat="28.5390470" lon="-16.2191930">
        <ele>801.9</ele>
        <time>2020-11-11T08:08:13Z</time>
      </trkpt>
      <trkpt lat="28.5390170" lon="-16.2192280">
        <ele>802.9</ele>
        <time>2020-11-11T08:08:14Z</time>
      </trkpt>
      <trkpt lat="28.5390170" lon="-16.2192280">
        <ele>802.9</ele>
        <time>2020-11-11T08:08:15Z</time>
      </trkpt>
      <trkpt lat="28.5390170" lon="-16.2192270">
        <ele>802.9</ele>
        <time>2020-11-11T08:08:16Z</time>
      </trkpt>
      <trkpt lat="28.5390170" lon="-16.2192270">
        <ele>802.9</ele>
        <time>2020-11-11T08:08:17Z</time>
      </trkpt>
      <trkpt lat="28.5390170" lon="-16.2192270">
        <ele>802.9</ele>
        <time>2020-11-11T08:09:52Z</time>
      </trkpt>
      <trkpt lat="28.5390150" lon="-16.2192880">
        <ele>802.9</ele>
        <time>2020-11-11T08:09:53Z</time>
      </trkpt>
      <trkpt lat="28.5390030" lon="-16.2193100">
        <ele>803.9</ele>
        <time>2020-11-11T08:09:54Z</time>
      </trkpt>
      <trkpt lat="28.5390030" lon="-16.2193100">
        <ele>803.9</ele>
        <time>2020-11-11T08:09:55Z</time>
      </trkpt>
      <trkpt lat="28.5389820" lon="-16.2193530">
        <ele>803.9</ele>
        <time>2020-11-11T08:09:56Z</time>
      </trkpt>
      <trkpt lat="28.5389820" lon="-16.2193530">
        <ele>803.9</ele>
        <time>2020-11-11T08:09:57Z</time>
      </trkpt>
      <trkpt lat="28.5389620" lon="-16.2194000">
        <ele>804.9</ele>
        <time>2020-11-11T08:09:58Z</time>
      </trkpt>
      <trkpt lat="28.5389550" lon="-16.2194220">
        <ele>804.9</ele>
        <time>2020-11-11T08:09:59Z</time>
      </trkpt>
      <trkpt lat="28.5389550" lon="-16.2194220">
        <ele>804.9</ele>
        <time>2020-11-11T08:10:00Z</time>
      </trkpt>
      <trkpt lat="28.5389480" lon="-16.2194630">
        <ele>804.9</ele>
        <time>2020-11-11T08:10:01Z</time>
      </trkpt>
      <trkpt lat="28.5389480" lon="-16.2194630">
        <ele>805.9</ele>
        <time>2020-11-11T08:10:02Z</time>
      </trkpt>
      <trkpt lat="28.5389420" lon="-16.2194980">
        <ele>805.9</ele>
        <time>2020-11-11T08:10:03Z</time>
      </trkpt>
      <trkpt lat="28.5389420" lon="-16.2194980">
        <ele>805.9</ele>
        <time>2020-11-11T08:10:04Z</time>
      </trkpt>
      <trkpt lat="28.5389450" lon="-16.2195300">
        <ele>805.9</ele>
        <time>2020-11-11T08:10:05Z</time>
      </trkpt>
      <trkpt lat="28.5389450" lon="-16.2195480">
        <ele>806.9</ele>
        <time>2020-11-11T08:10:06Z</time>
      </trkpt>
      <trkpt lat="28.5389450" lon="-16.2195480">
        <ele>806.9</ele>
        <time>2020-11-11T08:10:07Z</time>
      </trkpt>
      <trkpt lat="28.5389400" lon="-16.2195750">
        <ele>806.9</ele>
        <time>2020-11-11T08:10:08Z</time>
      </trkpt>
      <trkpt lat="28.5389420" lon="-16.2195920">
        <ele>806.9</ele>
        <time>2020-11-11T08:10:09Z</time>
      </trkpt>
      <trkpt lat="28.5389420" lon="-16.2195920">
        <ele>806.9</ele>
        <time>2020-11-11T08:10:10Z</time>
      </trkpt>
      <trkpt lat="28.5389470" lon="-16.2196300">
        <ele>806.9</ele>
        <time>2020-11-11T08:10:11Z</time>
      </trkpt>
      <trkpt lat="28.5389470" lon="-16.2196300">
        <ele>806.9</ele>
        <time>2020-11-11T08:10:12Z</time>
      </trkpt>
      <trkpt lat="28.5389570" lon="-16.2196620">
        <ele>806.9</ele>
        <time>2020-11-11T08:10:13Z</time>
      </trkpt>
      <trkpt lat="28.5389570" lon="-16.2196620">
        <ele>806.9</ele>
        <time>2020-11-11T08:10:14Z</time>
      </trkpt>
      <trkpt lat="28.5389600" lon="-16.2196950">
        <ele>806.9</ele>
        <time>2020-11-11T08:10:15Z</time>
      </trkpt>
      <trkpt lat="28.5389600" lon="-16.2197130">
        <ele>808.9</ele>
        <time>2020-11-11T08:10:16Z</time>
      </trkpt>
      <trkpt lat="28.5389600" lon="-16.2197130">
        <ele>808.9</ele>
        <time>2020-11-11T08:10:17Z</time>
      </trkpt>
      <trkpt lat="28.5389670" lon="-16.2197480">
        <ele>808.9</ele>
        <time>2020-11-11T08:10:18Z</time>
      </trkpt>
      <trkpt lat="28.5389750" lon="-16.2197670">
        <ele>808.9</ele>
        <time>2020-11-11T08:10:19Z</time>
      </trkpt>
      <trkpt lat="28.5389750" lon="-16.2197670">
        <ele>808.9</ele>
        <time>2020-11-11T08:10:20Z</time>
      </trkpt>
      <trkpt lat="28.5389820" lon="-16.2198050">
        <ele>808.9</ele>
        <time>2020-11-11T08:10:21Z</time>
      </trkpt>
      <trkpt lat="28.5389820" lon="-16.2198050">
        <ele>808.9</ele>
        <time>2020-11-11T08:10:22Z</time>
      </trkpt>
      <trkpt lat="28.5389850" lon="-16.2198470">
        <ele>808.9</ele>
        <time>2020-11-11T08:10:23Z</time>
      </trkpt>
      <trkpt lat="28.5389850" lon="-16.2198470">
        <ele>808.9</ele>
        <time>2020-11-11T08:10:24Z</time>
      </trkpt>
      <trkpt lat="28.5389670" lon="-16.2199130">
        <ele>809.9</ele>
        <time>2020-11-11T08:10:25Z</time>
      </trkpt>
      <trkpt lat="28.5389670" lon="-16.2199130">
        <ele>809.9</ele>
        <time>2020-11-11T08:10:26Z</time>
      </trkpt>
      <trkpt lat="28.5389770" lon="-16.2199700">
        <ele>809.9</ele>
        <time>2020-11-11T08:10:27Z</time>
      </trkpt>
      <trkpt lat="28.5389770" lon="-16.2199700">
        <ele>809.9</ele>
        <time>2020-11-11T08:10:28Z</time>
      </trkpt>
      <trkpt lat="28.5389630" lon="-16.2200150">
        <ele>810.9</ele>
        <time>2020-11-11T08:10:29Z</time>
      </trkpt>
      <trkpt lat="28.5389630" lon="-16.2200150">
        <ele>810.9</ele>
        <time>2020-11-11T08:10:30Z</time>
      </trkpt>
      <trkpt lat="28.5389600" lon="-16.2200500">
        <ele>810.9</ele>
        <time>2020-11-11T08:10:31Z</time>
      </trkpt>
      <trkpt lat="28.5389600" lon="-16.2200500">
        <ele>810.9</ele>
        <time>2020-11-11T08:10:32Z</time>
      </trkpt>
      <trkpt lat="28.5389450" lon="-16.2200830">
        <ele>811.9</ele>
        <time>2020-11-11T08:10:33Z</time>
      </trkpt>
      <trkpt lat="28.5389400" lon="-16.2201030">
        <ele>811.9</ele>
        <time>2020-11-11T08:10:34Z</time>
      </trkpt>
      <trkpt lat="28.5389400" lon="-16.2201030">
        <ele>811.9</ele>
        <time>2020-11-11T08:10:35Z</time>
      </trkpt>
      <trkpt lat="28.5389250" lon="-16.2201470">
        <ele>811.9</ele>
        <time>2020-11-11T08:10:36Z</time>
      </trkpt>
      <trkpt lat="28.5389250" lon="-16.2201650">
        <ele>811.9</ele>
        <time>2020-11-11T08:10:37Z</time>
      </trkpt>
      <trkpt lat="28.5389250" lon="-16.2201650">
        <ele>811.9</ele>
        <time>2020-11-11T08:10:38Z</time>
      </trkpt>
      <trkpt lat="28.5389370" lon="-16.2202050">
        <ele>812.9</ele>
        <time>2020-11-11T08:10:39Z</time>
      </trkpt>
      <trkpt lat="28.5389370" lon="-16.2202270">
        <ele>812.9</ele>
        <time>2020-11-11T08:10:40Z</time>
      </trkpt>
      <trkpt lat="28.5389370" lon="-16.2202450">
        <ele>812.9</ele>
        <time>2020-11-11T08:10:41Z</time>
      </trkpt>
      <trkpt lat="28.5389370" lon="-16.2202450">
        <ele>812.9</ele>
        <time>2020-11-11T08:10:42Z</time>
      </trkpt>
      <trkpt lat="28.5389530" lon="-16.2202930">
        <ele>812.9</ele>
        <time>2020-11-11T08:10:43Z</time>
      </trkpt>
      <trkpt lat="28.5389530" lon="-16.2202930">
        <ele>812.9</ele>
        <time>2020-11-11T08:10:44Z</time>
      </trkpt>
      <trkpt lat="28.5389630" lon="-16.2203470">
        <ele>813.9</ele>
        <time>2020-11-11T08:10:45Z</time>
      </trkpt>
      <trkpt lat="28.5389630" lon="-16.2203470">
        <ele>813.9</ele>
        <time>2020-11-11T08:10:46Z</time>
      </trkpt>
      <trkpt lat="28.5390220" lon="-16.2203780">
        <ele>813.9</ele>
        <time>2020-11-11T08:10:47Z</time>
      </trkpt>
      <trkpt lat="28.5390220" lon="-16.2203780">
        <ele>813.9</ele>
        <time>2020-11-11T08:10:48Z</time>
      </trkpt>
      <trkpt lat="28.5390700" lon="-16.2204170">
        <ele>813.9</ele>
        <time>2020-11-11T08:10:49Z</time>
      </trkpt>
      <trkpt lat="28.5390700" lon="-16.2204170">
        <ele>813.9</ele>
        <time>2020-11-11T08:10:50Z</time>
      </trkpt>
      <trkpt lat="28.5391050" lon="-16.2204580">
        <ele>813.9</ele>
        <time>2020-11-11T08:10:51Z</time>
      </trkpt>
      <trkpt lat="28.5391050" lon="-16.2204580">
        <ele>814.9</ele>
        <time>2020-11-11T08:10:52Z</time>
      </trkpt>
      <trkpt lat="28.5391120" lon="-16.2205220">
        <ele>814.9</ele>
        <time>2020-11-11T08:10:53Z</time>
      </trkpt>
      <trkpt lat="28.5391200" lon="-16.2205550">
        <ele>814.9</ele>
        <time>2020-11-11T08:10:54Z</time>
      </trkpt>
      <trkpt lat="28.5391200" lon="-16.2205550">
        <ele>814.9</ele>
        <time>2020-11-11T08:10:55Z</time>
      </trkpt>
      <trkpt lat="28.5391350" lon="-16.2206230">
        <ele>814.9</ele>
        <time>2020-11-11T08:10:56Z</time>
      </trkpt>
      <trkpt lat="28.5391370" lon="-16.2206530">
        <ele>814.9</ele>
        <time>2020-11-11T08:10:57Z</time>
      </trkpt>
      <trkpt lat="28.5391370" lon="-16.2206530">
        <ele>815.9</ele>
        <time>2020-11-11T08:10:58Z</time>
      </trkpt>
      <trkpt lat="28.5391400" lon="-16.2207050">
        <ele>815.9</ele>
        <time>2020-11-11T08:10:59Z</time>
      </trkpt>
      <trkpt lat="28.5391400" lon="-16.2207050">
        <ele>815.9</ele>
        <time>2020-11-11T08:11:00Z</time>
      </trkpt>
      <trkpt lat="28.5391370" lon="-16.2207550">
        <ele>815.9</ele>
        <time>2020-11-11T08:11:01Z</time>
      </trkpt>
      <trkpt lat="28.5391370" lon="-16.2207550">
        <ele>815.9</ele>
        <time>2020-11-11T08:11:02Z</time>
      </trkpt>
      <trkpt lat="28.5391230" lon="-16.2207970">
        <ele>816.9</ele>
        <time>2020-11-11T08:11:03Z</time>
      </trkpt>
      <trkpt lat="28.5391180" lon="-16.2208180">
        <ele>816.9</ele>
        <time>2020-11-11T08:11:04Z</time>
      </trkpt>
      <trkpt lat="28.5391180" lon="-16.2208180">
        <ele>816.9</ele>
        <time>2020-11-11T08:11:05Z</time>
      </trkpt>
      <trkpt lat="28.5390950" lon="-16.2208600">
        <ele>816.9</ele>
        <time>2020-11-11T08:11:06Z</time>
      </trkpt>
      <trkpt lat="28.5390820" lon="-16.2208820">
        <ele>816.9</ele>
        <time>2020-11-11T08:11:07Z</time>
      </trkpt>
      <trkpt lat="28.5390670" lon="-16.2209030">
        <ele>816.9</ele>
        <time>2020-11-11T08:11:08Z</time>
      </trkpt>
      <trkpt lat="28.5390670" lon="-16.2209030">
        <ele>816.9</ele>
        <time>2020-11-11T08:11:09Z</time>
      </trkpt>
      <trkpt lat="28.5390350" lon="-16.2209400">
        <ele>816.9</ele>
        <time>2020-11-11T08:11:10Z</time>
      </trkpt>
      <trkpt lat="28.5390350" lon="-16.2209400">
        <ele>816.9</ele>
        <time>2020-11-11T08:11:11Z</time>
      </trkpt>
      <trkpt lat="28.5390070" lon="-16.2209780">
        <ele>816.9</ele>
        <time>2020-11-11T08:11:12Z</time>
      </trkpt>
      <trkpt lat="28.5389980" lon="-16.2210000">
        <ele>816.9</ele>
        <time>2020-11-11T08:11:13Z</time>
      </trkpt>
      <trkpt lat="28.5389980" lon="-16.2210000">
        <ele>816.9</ele>
        <time>2020-11-11T08:11:14Z</time>
      </trkpt>
      <trkpt lat="28.5389900" lon="-16.2210450">
        <ele>817.9</ele>
        <time>2020-11-11T08:11:15Z</time>
      </trkpt>
      <trkpt lat="28.5389900" lon="-16.2210450">
        <ele>817.9</ele>
        <time>2020-11-11T08:11:16Z</time>
      </trkpt>
      <trkpt lat="28.5389720" lon="-16.2210900">
        <ele>817.9</ele>
        <time>2020-11-11T08:11:17Z</time>
      </trkpt>
      <trkpt lat="28.5389580" lon="-16.2211100">
        <ele>817.9</ele>
        <time>2020-11-11T08:11:18Z</time>
      </trkpt>
      <trkpt lat="28.5389470" lon="-16.2211300">
        <ele>817.9</ele>
        <time>2020-11-11T08:11:19Z</time>
      </trkpt>
      <trkpt lat="28.5389470" lon="-16.2211300">
        <ele>817.9</ele>
        <time>2020-11-11T08:11:20Z</time>
      </trkpt>
      <trkpt lat="28.5389130" lon="-16.2211650">
        <ele>818.9</ele>
        <time>2020-11-11T08:11:21Z</time>
      </trkpt>
      <trkpt lat="28.5389130" lon="-16.2211650">
        <ele>818.9</ele>
        <time>2020-11-11T08:11:22Z</time>
      </trkpt>
      <trkpt lat="28.5388880" lon="-16.2212080">
        <ele>818.9</ele>
        <time>2020-11-11T08:11:23Z</time>
      </trkpt>
      <trkpt lat="28.5388880" lon="-16.2212080">
        <ele>818.9</ele>
        <time>2020-11-11T08:11:24Z</time>
      </trkpt>
      <trkpt lat="28.5388680" lon="-16.2212480">
        <ele>818.9</ele>
        <time>2020-11-11T08:11:25Z</time>
      </trkpt>
      <trkpt lat="28.5388680" lon="-16.2212480">
        <ele>818.9</ele>
        <time>2020-11-11T08:11:26Z</time>
      </trkpt>
      <trkpt lat="28.5388580" lon="-16.2213020">
        <ele>819.9</ele>
        <time>2020-11-11T08:11:27Z</time>
      </trkpt>
      <trkpt lat="28.5388580" lon="-16.2213020">
        <ele>819.9</ele>
        <time>2020-11-11T08:11:28Z</time>
      </trkpt>
      <trkpt lat="28.5388400" lon="-16.2213480">
        <ele>819.9</ele>
        <time>2020-11-11T08:11:29Z</time>
      </trkpt>
      <trkpt lat="28.5388400" lon="-16.2213480">
        <ele>819.9</ele>
        <time>2020-11-11T08:11:30Z</time>
      </trkpt>
      <trkpt lat="28.5388320" lon="-16.2214000">
        <ele>819.9</ele>
        <time>2020-11-11T08:11:31Z</time>
      </trkpt>
      <trkpt lat="28.5388320" lon="-16.2214000">
        <ele>819.9</ele>
        <time>2020-11-11T08:11:32Z</time>
      </trkpt>
      <trkpt lat="28.5388250" lon="-16.2214280">
        <ele>819.9</ele>
        <time>2020-11-11T08:11:33Z</time>
      </trkpt>
      <trkpt lat="28.5388250" lon="-16.2214280">
        <ele>819.9</ele>
        <time>2020-11-11T08:11:34Z</time>
      </trkpt>
      <trkpt lat="28.5388250" lon="-16.2214620">
        <ele>819.9</ele>
        <time>2020-11-11T08:11:35Z</time>
      </trkpt>
      <trkpt lat="28.5388250" lon="-16.2214620">
        <ele>819.9</ele>
        <time>2020-11-11T08:11:36Z</time>
      </trkpt>
      <trkpt lat="28.5388280" lon="-16.2214870">
        <ele>820.9</ele>
        <time>2020-11-11T08:11:37Z</time>
      </trkpt>
      <trkpt lat="28.5388280" lon="-16.2214870">
        <ele>820.9</ele>
        <time>2020-11-11T08:11:38Z</time>
      </trkpt>
      <trkpt lat="28.5388450" lon="-16.2215180">
        <ele>820.9</ele>
        <time>2020-11-11T08:11:39Z</time>
      </trkpt>
      <trkpt lat="28.5388450" lon="-16.2215180">
        <ele>820.9</ele>
        <time>2020-11-11T08:11:40Z</time>
      </trkpt>
      <trkpt lat="28.5388620" lon="-16.2215550">
        <ele>820.9</ele>
        <time>2020-11-11T08:11:41Z</time>
      </trkpt>
      <trkpt lat="28.5388620" lon="-16.2215550">
        <ele>821.9</ele>
        <time>2020-11-11T08:11:42Z</time>
      </trkpt>
      <trkpt lat="28.5388730" lon="-16.2215950">
        <ele>821.9</ele>
        <time>2020-11-11T08:11:43Z</time>
      </trkpt>
      <trkpt lat="28.5388730" lon="-16.2215950">
        <ele>821.9</ele>
        <time>2020-11-11T08:11:44Z</time>
      </trkpt>
      <trkpt lat="28.5388680" lon="-16.2216400">
        <ele>821.9</ele>
        <time>2020-11-11T08:11:45Z</time>
      </trkpt>
      <trkpt lat="28.5388680" lon="-16.2216400">
        <ele>821.9</ele>
        <time>2020-11-11T08:11:46Z</time>
      </trkpt>
      <trkpt lat="28.5388770" lon="-16.2216850">
        <ele>821.9</ele>
        <time>2020-11-11T08:11:47Z</time>
      </trkpt>
      <trkpt lat="28.5388770" lon="-16.2216850">
        <ele>822.9</ele>
        <time>2020-11-11T08:11:48Z</time>
      </trkpt>
      <trkpt lat="28.5388920" lon="-16.2217420">
        <ele>822.9</ele>
        <time>2020-11-11T08:11:49Z</time>
      </trkpt>
      <trkpt lat="28.5388920" lon="-16.2217420">
        <ele>822.9</ele>
        <time>2020-11-11T08:11:50Z</time>
      </trkpt>
      <trkpt lat="28.5389050" lon="-16.2217870">
        <ele>822.9</ele>
        <time>2020-11-11T08:11:51Z</time>
      </trkpt>
      <trkpt lat="28.5389050" lon="-16.2217870">
        <ele>822.9</ele>
        <time>2020-11-11T08:11:52Z</time>
      </trkpt>
      <trkpt lat="28.5389080" lon="-16.2218350">
        <ele>822.9</ele>
        <time>2020-11-11T08:11:53Z</time>
      </trkpt>
      <trkpt lat="28.5389130" lon="-16.2218520">
        <ele>822.9</ele>
        <time>2020-11-11T08:11:54Z</time>
      </trkpt>
      <trkpt lat="28.5389130" lon="-16.2218520">
        <ele>822.9</ele>
        <time>2020-11-11T08:11:55Z</time>
      </trkpt>
      <trkpt lat="28.5389180" lon="-16.2218970">
        <ele>823.9</ele>
        <time>2020-11-11T08:11:56Z</time>
      </trkpt>
      <trkpt lat="28.5389330" lon="-16.2219520">
        <ele>823.9</ele>
        <time>2020-11-11T08:11:57Z</time>
      </trkpt>
      <trkpt lat="28.5389330" lon="-16.2219520">
        <ele>823.9</ele>
        <time>2020-11-11T08:11:58Z</time>
      </trkpt>
      <trkpt lat="28.5389350" lon="-16.2220130">
        <ele>823.9</ele>
        <time>2020-11-11T08:11:59Z</time>
      </trkpt>
      <trkpt lat="28.5389350" lon="-16.2220130">
        <ele>823.9</ele>
        <time>2020-11-11T08:12:00Z</time>
      </trkpt>
      <trkpt lat="28.5389530" lon="-16.2220750">
        <ele>823.9</ele>
        <time>2020-11-11T08:12:01Z</time>
      </trkpt>
      <trkpt lat="28.5389530" lon="-16.2220750">
        <ele>824.9</ele>
        <time>2020-11-11T08:12:02Z</time>
      </trkpt>
      <trkpt lat="28.5389600" lon="-16.2221150">
        <ele>824.9</ele>
        <time>2020-11-11T08:12:03Z</time>
      </trkpt>
      <trkpt lat="28.5389600" lon="-16.2221150">
        <ele>824.9</ele>
        <time>2020-11-11T08:12:04Z</time>
      </trkpt>
      <trkpt lat="28.5389650" lon="-16.2221520">
        <ele>824.9</ele>
        <time>2020-11-11T08:12:05Z</time>
      </trkpt>
      <trkpt lat="28.5389650" lon="-16.2221520">
        <ele>824.9</ele>
        <time>2020-11-11T08:12:06Z</time>
      </trkpt>
      <trkpt lat="28.5389750" lon="-16.2221870">
        <ele>824.9</ele>
        <time>2020-11-11T08:12:07Z</time>
      </trkpt>
      <trkpt lat="28.5389750" lon="-16.2221870">
        <ele>825.9</ele>
        <time>2020-11-11T08:12:08Z</time>
      </trkpt>
      <trkpt lat="28.5389870" lon="-16.2222450">
        <ele>825.9</ele>
        <time>2020-11-11T08:12:09Z</time>
      </trkpt>
      <trkpt lat="28.5389900" lon="-16.2222630">
        <ele>825.9</ele>
        <time>2020-11-11T08:12:10Z</time>
      </trkpt>
      <trkpt lat="28.5389900" lon="-16.2222630">
        <ele>825.9</ele>
        <time>2020-11-11T08:12:11Z</time>
      </trkpt>
      <trkpt lat="28.5389930" lon="-16.2223070">
        <ele>825.9</ele>
        <time>2020-11-11T08:12:12Z</time>
      </trkpt>
      <trkpt lat="28.5390020" lon="-16.2223320">
        <ele>825.9</ele>
        <time>2020-11-11T08:12:13Z</time>
      </trkpt>
      <trkpt lat="28.5390020" lon="-16.2223320">
        <ele>826.9</ele>
        <time>2020-11-11T08:12:14Z</time>
      </trkpt>
      <trkpt lat="28.5390250" lon="-16.2223730">
        <ele>826.9</ele>
        <time>2020-11-11T08:12:15Z</time>
      </trkpt>
      <trkpt lat="28.5390250" lon="-16.2223730">
        <ele>826.9</ele>
        <time>2020-11-11T08:12:16Z</time>
      </trkpt>
      <trkpt lat="28.5390280" lon="-16.2224280">
        <ele>826.9</ele>
        <time>2020-11-11T08:12:17Z</time>
      </trkpt>
      <trkpt lat="28.5390280" lon="-16.2224280">
        <ele>826.9</ele>
        <time>2020-11-11T08:12:18Z</time>
      </trkpt>
      <trkpt lat="28.5390450" lon="-16.2224830">
        <ele>826.9</ele>
        <time>2020-11-11T08:12:19Z</time>
      </trkpt>
      <trkpt lat="28.5390450" lon="-16.2224830">
        <ele>827.9</ele>
        <time>2020-11-11T08:12:20Z</time>
      </trkpt>
      <trkpt lat="28.5390650" lon="-16.2225300">
        <ele>827.9</ele>
        <time>2020-11-11T08:12:21Z</time>
      </trkpt>
      <trkpt lat="28.5390650" lon="-16.2225300">
        <ele>827.9</ele>
        <time>2020-11-11T08:12:22Z</time>
      </trkpt>
      <trkpt lat="28.5390770" lon="-16.2225680">
        <ele>827.9</ele>
        <time>2020-11-11T08:12:23Z</time>
      </trkpt>
      <trkpt lat="28.5390770" lon="-16.2225680">
        <ele>827.9</ele>
        <time>2020-11-11T08:12:24Z</time>
      </trkpt>
      <trkpt lat="28.5390980" lon="-16.2226080">
        <ele>827.9</ele>
        <time>2020-11-11T08:12:25Z</time>
      </trkpt>
      <trkpt lat="28.5390980" lon="-16.2226080">
        <ele>827.9</ele>
        <time>2020-11-11T08:12:26Z</time>
      </trkpt>
      <trkpt lat="28.5391120" lon="-16.2226500">
        <ele>827.9</ele>
        <time>2020-11-11T08:12:27Z</time>
      </trkpt>
      <trkpt lat="28.5391120" lon="-16.2226500">
        <ele>827.9</ele>
        <time>2020-11-11T08:12:28Z</time>
      </trkpt>
      <trkpt lat="28.5391320" lon="-16.2226820">
        <ele>828.9</ele>
        <time>2020-11-11T08:12:29Z</time>
      </trkpt>
      <trkpt lat="28.5391320" lon="-16.2226820">
        <ele>828.9</ele>
        <time>2020-11-11T08:12:30Z</time>
      </trkpt>
      <trkpt lat="28.5391430" lon="-16.2227170">
        <ele>828.9</ele>
        <time>2020-11-11T08:12:31Z</time>
      </trkpt>
      <trkpt lat="28.5391430" lon="-16.2227170">
        <ele>828.9</ele>
        <time>2020-11-11T08:12:32Z</time>
      </trkpt>
      <trkpt lat="28.5391500" lon="-16.2227600">
        <ele>828.9</ele>
        <time>2020-11-11T08:12:33Z</time>
      </trkpt>
      <trkpt lat="28.5391500" lon="-16.2227600">
        <ele>828.9</ele>
        <time>2020-11-11T08:12:34Z</time>
      </trkpt>
      <trkpt lat="28.5391770" lon="-16.2228100">
        <ele>829.9</ele>
        <time>2020-11-11T08:12:35Z</time>
      </trkpt>
      <trkpt lat="28.5391770" lon="-16.2228100">
        <ele>829.9</ele>
        <time>2020-11-11T08:12:36Z</time>
      </trkpt>
      <trkpt lat="28.5391920" lon="-16.2228570">
        <ele>829.9</ele>
        <time>2020-11-11T08:12:37Z</time>
      </trkpt>
      <trkpt lat="28.5391920" lon="-16.2228570">
        <ele>829.9</ele>
        <time>2020-11-11T08:12:38Z</time>
      </trkpt>
      <trkpt lat="28.5392070" lon="-16.2228850">
        <ele>830.9</ele>
        <time>2020-11-11T08:12:39Z</time>
      </trkpt>
      <trkpt lat="28.5392150" lon="-16.2228950">
        <ele>830.9</ele>
        <time>2020-11-11T08:12:40Z</time>
      </trkpt>
      <trkpt lat="28.5392150" lon="-16.2228950">
        <ele>830.9</ele>
        <time>2020-11-11T08:12:41Z</time>
      </trkpt>
      <trkpt lat="28.5392270" lon="-16.2229370">
        <ele>830.9</ele>
        <time>2020-11-11T08:12:42Z</time>
      </trkpt>
      <trkpt lat="28.5392350" lon="-16.2229570">
        <ele>830.9</ele>
        <time>2020-11-11T08:12:43Z</time>
      </trkpt>
      <trkpt lat="28.5392350" lon="-16.2229570">
        <ele>830.9</ele>
        <time>2020-11-11T08:12:44Z</time>
      </trkpt>
      <trkpt lat="28.5392450" lon="-16.2229930">
        <ele>831.9</ele>
        <time>2020-11-11T08:12:45Z</time>
      </trkpt>
      <trkpt lat="28.5392450" lon="-16.2229930">
        <ele>831.9</ele>
        <time>2020-11-11T08:12:46Z</time>
      </trkpt>
      <trkpt lat="28.5392620" lon="-16.2230280">
        <ele>831.9</ele>
        <time>2020-11-11T08:12:47Z</time>
      </trkpt>
      <trkpt lat="28.5392650" lon="-16.2230450">
        <ele>831.9</ele>
        <time>2020-11-11T08:12:48Z</time>
      </trkpt>
      <trkpt lat="28.5392650" lon="-16.2230450">
        <ele>831.9</ele>
        <time>2020-11-11T08:12:49Z</time>
      </trkpt>
      <trkpt lat="28.5392630" lon="-16.2230820">
        <ele>831.9</ele>
        <time>2020-11-11T08:12:50Z</time>
      </trkpt>
      <trkpt lat="28.5392680" lon="-16.2230920">
        <ele>832.9</ele>
        <time>2020-11-11T08:12:51Z</time>
      </trkpt>
      <trkpt lat="28.5392680" lon="-16.2230920">
        <ele>832.9</ele>
        <time>2020-11-11T08:12:52Z</time>
      </trkpt>
      <trkpt lat="28.5392730" lon="-16.2231320">
        <ele>832.9</ele>
        <time>2020-11-11T08:12:53Z</time>
      </trkpt>
      <trkpt lat="28.5392730" lon="-16.2231320">
        <ele>832.9</ele>
        <time>2020-11-11T08:12:54Z</time>
      </trkpt>
      <trkpt lat="28.5392800" lon="-16.2231670">
        <ele>833.9</ele>
        <time>2020-11-11T08:12:55Z</time>
      </trkpt>
      <trkpt lat="28.5392850" lon="-16.2231830">
        <ele>833.9</ele>
        <time>2020-11-11T08:12:56Z</time>
      </trkpt>
      <trkpt lat="28.5392850" lon="-16.2231830">
        <ele>833.9</ele>
        <time>2020-11-11T08:12:57Z</time>
      </trkpt>
      <trkpt lat="28.5393050" lon="-16.2232180">
        <ele>833.9</ele>
        <time>2020-11-11T08:12:58Z</time>
      </trkpt>
      <trkpt lat="28.5393070" lon="-16.2232480">
        <ele>833.9</ele>
        <time>2020-11-11T08:12:59Z</time>
      </trkpt>
      <trkpt lat="28.5393070" lon="-16.2232480">
        <ele>834.9</ele>
        <time>2020-11-11T08:13:00Z</time>
      </trkpt>
      <trkpt lat="28.5393500" lon="-16.2233000">
        <ele>834.9</ele>
        <time>2020-11-11T08:13:01Z</time>
      </trkpt>
      <trkpt lat="28.5393620" lon="-16.2233220">
        <ele>834.9</ele>
        <time>2020-11-11T08:13:02Z</time>
      </trkpt>
      <trkpt lat="28.5393620" lon="-16.2233220">
        <ele>834.9</ele>
        <time>2020-11-11T08:13:03Z</time>
      </trkpt>
      <trkpt lat="28.5393920" lon="-16.2233780">
        <ele>834.9</ele>
        <time>2020-11-11T08:13:04Z</time>
      </trkpt>
      <trkpt lat="28.5394000" lon="-16.2234070">
        <ele>834.9</ele>
        <time>2020-11-11T08:13:05Z</time>
      </trkpt>
      <trkpt lat="28.5394000" lon="-16.2234070">
        <ele>836.9</ele>
        <time>2020-11-11T08:13:06Z</time>
      </trkpt>
      <trkpt lat="28.5394180" lon="-16.2234550">
        <ele>836.9</ele>
        <time>2020-11-11T08:13:07Z</time>
      </trkpt>
      <trkpt lat="28.5394180" lon="-16.2234550">
        <ele>836.9</ele>
        <time>2020-11-11T08:13:08Z</time>
      </trkpt>
      <trkpt lat="28.5394280" lon="-16.2235120">
        <ele>836.9</ele>
        <time>2020-11-11T08:13:09Z</time>
      </trkpt>
      <trkpt lat="28.5394280" lon="-16.2235120">
        <ele>836.9</ele>
        <time>2020-11-11T08:13:10Z</time>
      </trkpt>
      <trkpt lat="28.5394480" lon="-16.2235580">
        <ele>836.9</ele>
        <time>2020-11-11T08:13:11Z</time>
      </trkpt>
      <trkpt lat="28.5394480" lon="-16.2235580">
        <ele>836.9</ele>
        <time>2020-11-11T08:13:12Z</time>
      </trkpt>
      <trkpt lat="28.5394570" lon="-16.2236120">
        <ele>836.9</ele>
        <time>2020-11-11T08:13:13Z</time>
      </trkpt>
      <trkpt lat="28.5394570" lon="-16.2236120">
        <ele>837.9</ele>
        <time>2020-11-11T08:13:14Z</time>
      </trkpt>
      <trkpt lat="28.5394900" lon="-16.2236650">
        <ele>837.9</ele>
        <time>2020-11-11T08:13:15Z</time>
      </trkpt>
      <trkpt lat="28.5394900" lon="-16.2236650">
        <ele>837.9</ele>
        <time>2020-11-11T08:13:16Z</time>
      </trkpt>
      <trkpt lat="28.5395220" lon="-16.2237150">
        <ele>837.9</ele>
        <time>2020-11-11T08:13:17Z</time>
      </trkpt>
      <trkpt lat="28.5395380" lon="-16.2237370">
        <ele>837.9</ele>
        <time>2020-11-11T08:13:18Z</time>
      </trkpt>
      <trkpt lat="28.5395380" lon="-16.2237370">
        <ele>837.9</ele>
        <time>2020-11-11T08:13:19Z</time>
      </trkpt>
      <trkpt lat="28.5395730" lon="-16.2237880">
        <ele>838.9</ele>
        <time>2020-11-11T08:13:20Z</time>
      </trkpt>
      <trkpt lat="28.5395730" lon="-16.2237880">
        <ele>838.9</ele>
        <time>2020-11-11T08:13:21Z</time>
      </trkpt>
      <trkpt lat="28.5396080" lon="-16.2238320">
        <ele>838.9</ele>
        <time>2020-11-11T08:13:22Z</time>
      </trkpt>
      <trkpt lat="28.5396180" lon="-16.2238500">
        <ele>838.9</ele>
        <time>2020-11-11T08:13:23Z</time>
      </trkpt>
      <trkpt lat="28.5396180" lon="-16.2238500">
        <ele>838.9</ele>
        <time>2020-11-11T08:13:24Z</time>
      </trkpt>
      <trkpt lat="28.5396470" lon="-16.2238950">
        <ele>838.9</ele>
        <time>2020-11-11T08:13:25Z</time>
      </trkpt>
      <trkpt lat="28.5396470" lon="-16.2238950">
        <ele>838.9</ele>
        <time>2020-11-11T08:13:26Z</time>
      </trkpt>
      <trkpt lat="28.5396780" lon="-16.2239420">
        <ele>838.9</ele>
        <time>2020-11-11T08:13:27Z</time>
      </trkpt>
      <trkpt lat="28.5396900" lon="-16.2239630">
        <ele>838.9</ele>
        <time>2020-11-11T08:13:28Z</time>
      </trkpt>
      <trkpt lat="28.5396900" lon="-16.2239630">
        <ele>838.9</ele>
        <time>2020-11-11T08:13:29Z</time>
      </trkpt>
      <trkpt lat="28.5397370" lon="-16.2240100">
        <ele>839.9</ele>
        <time>2020-11-11T08:13:30Z</time>
      </trkpt>
      <trkpt lat="28.5397370" lon="-16.2240100">
        <ele>839.9</ele>
        <time>2020-11-11T08:13:31Z</time>
      </trkpt>
      <trkpt lat="28.5397720" lon="-16.2240630">
        <ele>839.9</ele>
        <time>2020-11-11T08:13:32Z</time>
      </trkpt>
      <trkpt lat="28.5397720" lon="-16.2240630">
        <ele>839.9</ele>
        <time>2020-11-11T08:13:33Z</time>
      </trkpt>
      <trkpt lat="28.5398280" lon="-16.2241450">
        <ele>839.9</ele>
        <time>2020-11-11T08:13:34Z</time>
      </trkpt>
      <trkpt lat="28.5398280" lon="-16.2241450">
        <ele>839.9</ele>
        <time>2020-11-11T08:13:35Z</time>
      </trkpt>
      <trkpt lat="28.5398650" lon="-16.2242030">
        <ele>840.9</ele>
        <time>2020-11-11T08:13:36Z</time>
      </trkpt>
      <trkpt lat="28.5398650" lon="-16.2242030">
        <ele>840.9</ele>
        <time>2020-11-11T08:13:37Z</time>
      </trkpt>
      <trkpt lat="28.5398970" lon="-16.2242580">
        <ele>840.9</ele>
        <time>2020-11-11T08:13:38Z</time>
      </trkpt>
      <trkpt lat="28.5399070" lon="-16.2242800">
        <ele>840.9</ele>
        <time>2020-11-11T08:13:39Z</time>
      </trkpt>
      <trkpt lat="28.5399270" lon="-16.2243020">
        <ele>840.9</ele>
        <time>2020-11-11T08:13:40Z</time>
      </trkpt>
      <trkpt lat="28.5399270" lon="-16.2243020">
        <ele>841.9</ele>
        <time>2020-11-11T08:13:41Z</time>
      </trkpt>
      <trkpt lat="28.5399620" lon="-16.2243450">
        <ele>841.9</ele>
        <time>2020-11-11T08:13:42Z</time>
      </trkpt>
      <trkpt lat="28.5399800" lon="-16.2243600">
        <ele>841.9</ele>
        <time>2020-11-11T08:13:43Z</time>
      </trkpt>
      <trkpt lat="28.5399800" lon="-16.2243600">
        <ele>841.9</ele>
        <time>2020-11-11T08:13:44Z</time>
      </trkpt>
      <trkpt lat="28.5400130" lon="-16.2243880">
        <ele>841.9</ele>
        <time>2020-11-11T08:13:45Z</time>
      </trkpt>
      <trkpt lat="28.5400130" lon="-16.2243880">
        <ele>841.9</ele>
        <time>2020-11-11T08:13:46Z</time>
      </trkpt>
      <trkpt lat="28.5400380" lon="-16.2244200">
        <ele>841.9</ele>
        <time>2020-11-11T08:13:47Z</time>
      </trkpt>
      <trkpt lat="28.5400380" lon="-16.2244200">
        <ele>841.9</ele>
        <time>2020-11-11T08:13:48Z</time>
      </trkpt>
      <trkpt lat="28.5400630" lon="-16.2244480">
        <ele>841.9</ele>
        <time>2020-11-11T08:13:49Z</time>
      </trkpt>
      <trkpt lat="28.5400780" lon="-16.2244680">
        <ele>841.9</ele>
        <time>2020-11-11T08:13:50Z</time>
      </trkpt>
      <trkpt lat="28.5400920" lon="-16.2244900">
        <ele>842.9</ele>
        <time>2020-11-11T08:13:51Z</time>
      </trkpt>
      <trkpt lat="28.5400920" lon="-16.2244900">
        <ele>842.9</ele>
        <time>2020-11-11T08:13:52Z</time>
      </trkpt>
      <trkpt lat="28.5401100" lon="-16.2245270">
        <ele>842.9</ele>
        <time>2020-11-11T08:13:53Z</time>
      </trkpt>
      <trkpt lat="28.5401170" lon="-16.2245450">
        <ele>842.9</ele>
        <time>2020-11-11T08:13:54Z</time>
      </trkpt>
      <trkpt lat="28.5401170" lon="-16.2245450">
        <ele>842.9</ele>
        <time>2020-11-11T08:13:55Z</time>
      </trkpt>
      <trkpt lat="28.5401350" lon="-16.2245850">
        <ele>842.9</ele>
        <time>2020-11-11T08:13:56Z</time>
      </trkpt>
      <trkpt lat="28.5401450" lon="-16.2246020">
        <ele>842.9</ele>
        <time>2020-11-11T08:13:57Z</time>
      </trkpt>
      <trkpt lat="28.5401450" lon="-16.2246020">
        <ele>842.9</ele>
        <time>2020-11-11T08:13:58Z</time>
      </trkpt>
      <trkpt lat="28.5401650" lon="-16.2246480">
        <ele>842.9</ele>
        <time>2020-11-11T08:13:59Z</time>
      </trkpt>
      <trkpt lat="28.5401650" lon="-16.2246480">
        <ele>842.9</ele>
        <time>2020-11-11T08:14:00Z</time>
      </trkpt>
      <trkpt lat="28.5401850" lon="-16.2247300">
        <ele>842.9</ele>
        <time>2020-11-11T08:14:01Z</time>
      </trkpt>
      <trkpt lat="28.5401850" lon="-16.2247300">
        <ele>842.9</ele>
        <time>2020-11-11T08:14:02Z</time>
      </trkpt>
      <trkpt lat="28.5401870" lon="-16.2248070">
        <ele>842.9</ele>
        <time>2020-11-11T08:14:03Z</time>
      </trkpt>
      <trkpt lat="28.5401870" lon="-16.2248070">
        <ele>842.9</ele>
        <time>2020-11-11T08:14:04Z</time>
      </trkpt>
      <trkpt lat="28.5401900" lon="-16.2248920">
        <ele>842.9</ele>
        <time>2020-11-11T08:14:05Z</time>
      </trkpt>
      <trkpt lat="28.5401900" lon="-16.2248920">
        <ele>842.9</ele>
        <time>2020-11-11T08:14:06Z</time>
      </trkpt>
      <trkpt lat="28.5401980" lon="-16.2249600">
        <ele>842.9</ele>
        <time>2020-11-11T08:14:07Z</time>
      </trkpt>
      <trkpt lat="28.5401980" lon="-16.2249600">
        <ele>842.9</ele>
        <time>2020-11-11T08:14:08Z</time>
      </trkpt>
      <trkpt lat="28.5402070" lon="-16.2250280">
        <ele>842.9</ele>
        <time>2020-11-11T08:14:09Z</time>
      </trkpt>
      <trkpt lat="28.5402070" lon="-16.2250280">
        <ele>842.9</ele>
        <time>2020-11-11T08:14:10Z</time>
      </trkpt>
      <trkpt lat="28.5402000" lon="-16.2250870">
        <ele>842.9</ele>
        <time>2020-11-11T08:14:11Z</time>
      </trkpt>
      <trkpt lat="28.5402000" lon="-16.2250870">
        <ele>842.9</ele>
        <time>2020-11-11T08:14:12Z</time>
      </trkpt>
      <trkpt lat="28.5401800" lon="-16.2251650">
        <ele>842.9</ele>
        <time>2020-11-11T08:14:13Z</time>
      </trkpt>
      <trkpt lat="28.5401800" lon="-16.2251650">
        <ele>842.9</ele>
        <time>2020-11-11T08:14:14Z</time>
      </trkpt>
      <trkpt lat="28.5401730" lon="-16.2252680">
        <ele>842.9</ele>
        <time>2020-11-11T08:14:15Z</time>
      </trkpt>
      <trkpt lat="28.5401730" lon="-16.2253080">
        <ele>842.9</ele>
        <time>2020-11-11T08:14:16Z</time>
      </trkpt>
      <trkpt lat="28.5401730" lon="-16.2253080">
        <ele>842.9</ele>
        <time>2020-11-11T08:14:17Z</time>
      </trkpt>
      <trkpt lat="28.5401700" lon="-16.2253970">
        <ele>841.9</ele>
        <time>2020-11-11T08:14:18Z</time>
      </trkpt>
      <trkpt lat="28.5401680" lon="-16.2254500">
        <ele>841.9</ele>
        <time>2020-11-11T08:14:19Z</time>
      </trkpt>
      <trkpt lat="28.5401680" lon="-16.2254500">
        <ele>841.9</ele>
        <time>2020-11-11T08:14:20Z</time>
      </trkpt>
      <trkpt lat="28.5401550" lon="-16.2255680">
        <ele>841.9</ele>
        <time>2020-11-11T08:14:21Z</time>
      </trkpt>
      <trkpt lat="28.5401430" lon="-16.2256220">
        <ele>841.9</ele>
        <time>2020-11-11T08:14:22Z</time>
      </trkpt>
      <trkpt lat="28.5401430" lon="-16.2256220">
        <ele>840.9</ele>
        <time>2020-11-11T08:14:23Z</time>
      </trkpt>
      <trkpt lat="28.5401280" lon="-16.2258030">
        <ele>840.9</ele>
        <time>2020-11-11T08:14:24Z</time>
      </trkpt>
      <trkpt lat="28.5401250" lon="-16.2258670">
        <ele>840.9</ele>
        <time>2020-11-11T08:14:25Z</time>
      </trkpt>
      <trkpt lat="28.5401250" lon="-16.2258670">
        <ele>840.9</ele>
        <time>2020-11-11T08:14:26Z</time>
      </trkpt>
      <trkpt lat="28.5401280" lon="-16.2260720">
        <ele>839.9</ele>
        <time>2020-11-11T08:14:27Z</time>
      </trkpt>
      <trkpt lat="28.5401400" lon="-16.2261470">
        <ele>839.9</ele>
        <time>2020-11-11T08:14:28Z</time>
      </trkpt>
      <trkpt lat="28.5401400" lon="-16.2261470">
        <ele>838.9</ele>
        <time>2020-11-11T08:14:29Z</time>
      </trkpt>
      <trkpt lat="28.5401700" lon="-16.2262670">
        <ele>838.9</ele>
        <time>2020-11-11T08:14:30Z</time>
      </trkpt>
      <trkpt lat="28.5402000" lon="-16.2263180">
        <ele>838.9</ele>
        <time>2020-11-11T08:14:31Z</time>
      </trkpt>
      <trkpt lat="28.5402000" lon="-16.2263650">
        <ele>838.9</ele>
        <time>2020-11-11T08:14:32Z</time>
      </trkpt>
      <trkpt lat="28.5402000" lon="-16.2263650">
        <ele>837.9</ele>
        <time>2020-11-11T08:14:33Z</time>
      </trkpt>
      <trkpt lat="28.5402220" lon="-16.2265370">
        <ele>837.9</ele>
        <time>2020-11-11T08:14:34Z</time>
      </trkpt>
      <trkpt lat="28.5402220" lon="-16.2265370">
        <ele>837.9</ele>
        <time>2020-11-11T08:14:35Z</time>
      </trkpt>
      <trkpt lat="28.5402500" lon="-16.2267520">
        <ele>837.9</ele>
        <time>2020-11-11T08:14:36Z</time>
      </trkpt>
      <trkpt lat="28.5402520" lon="-16.2268670">
        <ele>835.9</ele>
        <time>2020-11-11T08:14:37Z</time>
      </trkpt>
      <trkpt lat="28.5402520" lon="-16.2268670">
        <ele>835.9</ele>
        <time>2020-11-11T08:14:38Z</time>
      </trkpt>
      <trkpt lat="28.5402700" lon="-16.2270550">
        <ele>835.9</ele>
        <time>2020-11-11T08:14:39Z</time>
      </trkpt>
      <trkpt lat="28.5402700" lon="-16.2270550">
        <ele>835.9</ele>
        <time>2020-11-11T08:14:40Z</time>
      </trkpt>
      <trkpt lat="28.5402750" lon="-16.2272380">
        <ele>834.9</ele>
        <time>2020-11-11T08:14:41Z</time>
      </trkpt>
      <trkpt lat="28.5402750" lon="-16.2272380">
        <ele>834.9</ele>
        <time>2020-11-11T08:14:42Z</time>
      </trkpt>
      <trkpt lat="28.5402250" lon="-16.2274230">
        <ele>833.9</ele>
        <time>2020-11-11T08:14:43Z</time>
      </trkpt>
      <trkpt lat="28.5402250" lon="-16.2274230">
        <ele>833.9</ele>
        <time>2020-11-11T08:14:44Z</time>
      </trkpt>
      <trkpt lat="28.5401970" lon="-16.2276200">
        <ele>832.9</ele>
        <time>2020-11-11T08:14:45Z</time>
      </trkpt>
      <trkpt lat="28.5401970" lon="-16.2276200">
        <ele>832.9</ele>
        <time>2020-11-11T08:14:46Z</time>
      </trkpt>
      <trkpt lat="28.5401680" lon="-16.2278230">
        <ele>831.9</ele>
        <time>2020-11-11T08:14:47Z</time>
      </trkpt>
      <trkpt lat="28.5401680" lon="-16.2278230">
        <ele>831.9</ele>
        <time>2020-11-11T08:14:48Z</time>
      </trkpt>
      <trkpt lat="28.5401630" lon="-16.2279920">
        <ele>831.9</ele>
        <time>2020-11-11T08:14:49Z</time>
      </trkpt>
      <trkpt lat="28.5401630" lon="-16.2279920">
        <ele>831.9</ele>
        <time>2020-11-11T08:14:50Z</time>
      </trkpt>
      <trkpt lat="28.5402270" lon="-16.2281320">
        <ele>830.9</ele>
        <time>2020-11-11T08:14:51Z</time>
      </trkpt>
      <trkpt lat="28.5402270" lon="-16.2281320">
        <ele>830.9</ele>
        <time>2020-11-11T08:14:52Z</time>
      </trkpt>
      <trkpt lat="28.5403630" lon="-16.2282230">
        <ele>829.9</ele>
        <time>2020-11-11T08:14:53Z</time>
      </trkpt>
      <trkpt lat="28.5404450" lon="-16.2282180">
        <ele>829.9</ele>
        <time>2020-11-11T08:14:54Z</time>
      </trkpt>
      <trkpt lat="28.5404450" lon="-16.2282180">
        <ele>829.9</ele>
        <time>2020-11-11T08:14:55Z</time>
      </trkpt>
      <trkpt lat="28.5406120" lon="-16.2282050">
        <ele>829.9</ele>
        <time>2020-11-11T08:14:56Z</time>
      </trkpt>
      <trkpt lat="28.5406120" lon="-16.2282050">
        <ele>827.9</ele>
        <time>2020-11-11T08:14:57Z</time>
      </trkpt>
      <trkpt lat="28.5407820" lon="-16.2281950">
        <ele>826.9</ele>
        <time>2020-11-11T08:14:58Z</time>
      </trkpt>
      <trkpt lat="28.5407820" lon="-16.2281950">
        <ele>826.9</ele>
        <time>2020-11-11T08:14:59Z</time>
      </trkpt>
      <trkpt lat="28.5409570" lon="-16.2281700">
        <ele>826.9</ele>
        <time>2020-11-11T08:15:00Z</time>
      </trkpt>
      <trkpt lat="28.5410420" lon="-16.2281630">
        <ele>825.9</ele>
        <time>2020-11-11T08:15:01Z</time>
      </trkpt>
      <trkpt lat="28.5410420" lon="-16.2281630">
        <ele>825.9</ele>
        <time>2020-11-11T08:15:02Z</time>
      </trkpt>
      <trkpt lat="28.5412050" lon="-16.2281750">
        <ele>823.9</ele>
        <time>2020-11-11T08:15:03Z</time>
      </trkpt>
      <trkpt lat="28.5412050" lon="-16.2281750">
        <ele>823.9</ele>
        <time>2020-11-11T08:15:04Z</time>
      </trkpt>
      <trkpt lat="28.5413780" lon="-16.2282280">
        <ele>822.9</ele>
        <time>2020-11-11T08:15:05Z</time>
      </trkpt>
      <trkpt lat="28.5414630" lon="-16.2282720">
        <ele>822.9</ele>
        <time>2020-11-11T08:15:06Z</time>
      </trkpt>
      <trkpt lat="28.5414630" lon="-16.2282720">
        <ele>821.9</ele>
        <time>2020-11-11T08:15:07Z</time>
      </trkpt>
      <trkpt lat="28.5416150" lon="-16.2283820">
        <ele>821.9</ele>
        <time>2020-11-11T08:15:08Z</time>
      </trkpt>
      <trkpt lat="28.5416820" lon="-16.2284330">
        <ele>819.9</ele>
        <time>2020-11-11T08:15:09Z</time>
      </trkpt>
      <trkpt lat="28.5416820" lon="-16.2284330">
        <ele>819.9</ele>
        <time>2020-11-11T08:15:10Z</time>
      </trkpt>
      <trkpt lat="28.5417730" lon="-16.2285550">
        <ele>818.9</ele>
        <time>2020-11-11T08:15:11Z</time>
      </trkpt>
      <trkpt lat="28.5417730" lon="-16.2285550">
        <ele>818.9</ele>
        <time>2020-11-11T08:15:12Z</time>
      </trkpt>
      <trkpt lat="28.5417870" lon="-16.2287230">
        <ele>818.9</ele>
        <time>2020-11-11T08:15:13Z</time>
      </trkpt>
      <trkpt lat="28.5417870" lon="-16.2287230">
        <ele>818.9</ele>
        <time>2020-11-11T08:15:14Z</time>
      </trkpt>
      <trkpt lat="28.5417230" lon="-16.2289380">
        <ele>817.9</ele>
        <time>2020-11-11T08:15:15Z</time>
      </trkpt>
      <trkpt lat="28.5417230" lon="-16.2289380">
        <ele>817.9</ele>
        <time>2020-11-11T08:15:16Z</time>
      </trkpt>
      <trkpt lat="28.5416580" lon="-16.2290720">
        <ele>817.9</ele>
        <time>2020-11-11T08:15:17Z</time>
      </trkpt>
      <trkpt lat="28.5416580" lon="-16.2290720">
        <ele>817.9</ele>
        <time>2020-11-11T08:15:18Z</time>
      </trkpt>
      <trkpt lat="28.5416020" lon="-16.2291820">
        <ele>816.9</ele>
        <time>2020-11-11T08:15:19Z</time>
      </trkpt>
      <trkpt lat="28.5416020" lon="-16.2291820">
        <ele>816.9</ele>
        <time>2020-11-11T08:15:20Z</time>
      </trkpt>
      <trkpt lat="28.5415500" lon="-16.2292800">
        <ele>816.9</ele>
        <time>2020-11-11T08:15:21Z</time>
      </trkpt>
      <trkpt lat="28.5415500" lon="-16.2292800">
        <ele>816.9</ele>
        <time>2020-11-11T08:15:22Z</time>
      </trkpt>
      <trkpt lat="28.5415080" lon="-16.2293720">
        <ele>816.9</ele>
        <time>2020-11-11T08:15:23Z</time>
      </trkpt>
      <trkpt lat="28.5415080" lon="-16.2293720">
        <ele>816.9</ele>
        <time>2020-11-11T08:15:24Z</time>
      </trkpt>
      <trkpt lat="28.5414650" lon="-16.2294650">
        <ele>816.9</ele>
        <time>2020-11-11T08:15:25Z</time>
      </trkpt>
      <trkpt lat="28.5414650" lon="-16.2294650">
        <ele>816.9</ele>
        <time>2020-11-11T08:15:26Z</time>
      </trkpt>
      <trkpt lat="28.5414270" lon="-16.2295450">
        <ele>816.9</ele>
        <time>2020-11-11T08:15:27Z</time>
      </trkpt>
      <trkpt lat="28.5414050" lon="-16.2295920">
        <ele>816.9</ele>
        <time>2020-11-11T08:15:28Z</time>
      </trkpt>
      <trkpt lat="28.5414050" lon="-16.2295920">
        <ele>816.9</ele>
        <time>2020-11-11T08:15:29Z</time>
      </trkpt>
      <trkpt lat="28.5413530" lon="-16.2296830">
        <ele>816.9</ele>
        <time>2020-11-11T08:15:30Z</time>
      </trkpt>
      <trkpt lat="28.5413300" lon="-16.2297380">
        <ele>817.9</ele>
        <time>2020-11-11T08:15:31Z</time>
      </trkpt>
      <trkpt lat="28.5413300" lon="-16.2297380">
        <ele>817.9</ele>
        <time>2020-11-11T08:15:32Z</time>
      </trkpt>
      <trkpt lat="28.5412870" lon="-16.2298350">
        <ele>817.9</ele>
        <time>2020-11-11T08:15:33Z</time>
      </trkpt>
      <trkpt lat="28.5412870" lon="-16.2298350">
        <ele>817.9</ele>
        <time>2020-11-11T08:15:34Z</time>
      </trkpt>
      <trkpt lat="28.5412430" lon="-16.2299300">
        <ele>817.9</ele>
        <time>2020-11-11T08:15:35Z</time>
      </trkpt>
      <trkpt lat="28.5412430" lon="-16.2299300">
        <ele>817.9</ele>
        <time>2020-11-11T08:15:36Z</time>
      </trkpt>
      <trkpt lat="28.5412070" lon="-16.2300250">
        <ele>817.9</ele>
        <time>2020-11-11T08:15:37Z</time>
      </trkpt>
      <trkpt lat="28.5412070" lon="-16.2300250">
        <ele>817.9</ele>
        <time>2020-11-11T08:15:38Z</time>
      </trkpt>
      <trkpt lat="28.5411630" lon="-16.2301220">
        <ele>818.9</ele>
        <time>2020-11-11T08:15:39Z</time>
      </trkpt>
      <trkpt lat="28.5411630" lon="-16.2301220">
        <ele>818.9</ele>
        <time>2020-11-11T08:15:40Z</time>
      </trkpt>
      <trkpt lat="28.5411230" lon="-16.2302080">
        <ele>818.9</ele>
        <time>2020-11-11T08:15:41Z</time>
      </trkpt>
      <trkpt lat="28.5411230" lon="-16.2302080">
        <ele>818.9</ele>
        <time>2020-11-11T08:15:42Z</time>
      </trkpt>
      <trkpt lat="28.5410820" lon="-16.2303150">
        <ele>818.9</ele>
        <time>2020-11-11T08:15:43Z</time>
      </trkpt>
      <trkpt lat="28.5410820" lon="-16.2303150">
        <ele>818.9</ele>
        <time>2020-11-11T08:15:44Z</time>
      </trkpt>
      <trkpt lat="28.5410530" lon="-16.2304220">
        <ele>818.9</ele>
        <time>2020-11-11T08:15:45Z</time>
      </trkpt>
      <trkpt lat="28.5410530" lon="-16.2304220">
        <ele>818.9</ele>
        <time>2020-11-11T08:15:46Z</time>
      </trkpt>
      <trkpt lat="28.5410120" lon="-16.2305200">
        <ele>818.9</ele>
        <time>2020-11-11T08:15:47Z</time>
      </trkpt>
      <trkpt lat="28.5410120" lon="-16.2305200">
        <ele>818.9</ele>
        <time>2020-11-11T08:15:48Z</time>
      </trkpt>
      <trkpt lat="28.5409670" lon="-16.2306270">
        <ele>819.9</ele>
        <time>2020-11-11T08:15:49Z</time>
      </trkpt>
      <trkpt lat="28.5409670" lon="-16.2306270">
        <ele>819.9</ele>
        <time>2020-11-11T08:15:50Z</time>
      </trkpt>
      <trkpt lat="28.5409230" lon="-16.2307450">
        <ele>819.9</ele>
        <time>2020-11-11T08:15:51Z</time>
      </trkpt>
      <trkpt lat="28.5409230" lon="-16.2307450">
        <ele>819.9</ele>
        <time>2020-11-11T08:15:52Z</time>
      </trkpt>
      <trkpt lat="28.5408800" lon="-16.2308620">
        <ele>819.9</ele>
        <time>2020-11-11T08:15:53Z</time>
      </trkpt>
      <trkpt lat="28.5408630" lon="-16.2309180">
        <ele>819.9</ele>
        <time>2020-11-11T08:15:54Z</time>
      </trkpt>
      <trkpt lat="28.5408630" lon="-16.2309180">
        <ele>819.9</ele>
        <time>2020-11-11T08:15:55Z</time>
      </trkpt>
      <trkpt lat="28.5408130" lon="-16.2310320">
        <ele>819.9</ele>
        <time>2020-11-11T08:15:56Z</time>
      </trkpt>
      <trkpt lat="28.5407820" lon="-16.2310880">
        <ele>819.9</ele>
        <time>2020-11-11T08:15:57Z</time>
      </trkpt>
      <trkpt lat="28.5407820" lon="-16.2310880">
        <ele>819.9</ele>
        <time>2020-11-11T08:15:58Z</time>
      </trkpt>
      <trkpt lat="28.5407020" lon="-16.2312050">
        <ele>819.9</ele>
        <time>2020-11-11T08:15:59Z</time>
      </trkpt>
      <trkpt lat="28.5407020" lon="-16.2312050">
        <ele>819.9</ele>
        <time>2020-11-11T08:16:00Z</time>
      </trkpt>
      <trkpt lat="28.5405980" lon="-16.2313050">
        <ele>818.9</ele>
        <time>2020-11-11T08:16:01Z</time>
      </trkpt>
      <trkpt lat="28.5405470" lon="-16.2313550">
        <ele>818.9</ele>
        <time>2020-11-11T08:16:02Z</time>
      </trkpt>
      <trkpt lat="28.5404920" lon="-16.2314120">
        <ele>818.9</ele>
        <time>2020-11-11T08:16:03Z</time>
      </trkpt>
      <trkpt lat="28.5404920" lon="-16.2314120">
        <ele>818.9</ele>
        <time>2020-11-11T08:16:04Z</time>
      </trkpt>
      <trkpt lat="28.5403770" lon="-16.2315300">
        <ele>817.9</ele>
        <time>2020-11-11T08:16:05Z</time>
      </trkpt>
      <trkpt lat="28.5403150" lon="-16.2315870">
        <ele>817.9</ele>
        <time>2020-11-11T08:16:06Z</time>
      </trkpt>
      <trkpt lat="28.5403150" lon="-16.2315870">
        <ele>817.9</ele>
        <time>2020-11-11T08:16:07Z</time>
      </trkpt>
      <trkpt lat="28.5401970" lon="-16.2316970">
        <ele>817.9</ele>
        <time>2020-11-11T08:16:08Z</time>
      </trkpt>
      <trkpt lat="28.5401320" lon="-16.2317580">
        <ele>815.9</ele>
        <time>2020-11-11T08:16:09Z</time>
      </trkpt>
      <trkpt lat="28.5401320" lon="-16.2317580">
        <ele>815.9</ele>
        <time>2020-11-11T08:16:10Z</time>
      </trkpt>
      <trkpt lat="28.5400150" lon="-16.2319050">
        <ele>815.9</ele>
        <time>2020-11-11T08:16:11Z</time>
      </trkpt>
      <trkpt lat="28.5400150" lon="-16.2319050">
        <ele>815.9</ele>
        <time>2020-11-11T08:16:12Z</time>
      </trkpt>
      <trkpt lat="28.5399130" lon="-16.2320570">
        <ele>815.9</ele>
        <time>2020-11-11T08:16:13Z</time>
      </trkpt>
      <trkpt lat="28.5399130" lon="-16.2320570">
        <ele>815.9</ele>
        <time>2020-11-11T08:16:14Z</time>
      </trkpt>
      <trkpt lat="28.5398150" lon="-16.2321600">
        <ele>815.9</ele>
        <time>2020-11-11T08:16:15Z</time>
      </trkpt>
      <trkpt lat="28.5398150" lon="-16.2321600">
        <ele>815.9</ele>
        <time>2020-11-11T08:16:16Z</time>
      </trkpt>
      <trkpt lat="28.5397300" lon="-16.2322670">
        <ele>815.9</ele>
        <time>2020-11-11T08:16:17Z</time>
      </trkpt>
      <trkpt lat="28.5396920" lon="-16.2323170">
        <ele>815.9</ele>
        <time>2020-11-11T08:16:18Z</time>
      </trkpt>
      <trkpt lat="28.5396920" lon="-16.2323170">
        <ele>815.9</ele>
        <time>2020-11-11T08:16:19Z</time>
      </trkpt>
      <trkpt lat="28.5396230" lon="-16.2323930">
        <ele>816.9</ele>
        <time>2020-11-11T08:16:20Z</time>
      </trkpt>
      <trkpt lat="28.5395900" lon="-16.2324300">
        <ele>816.9</ele>
        <time>2020-11-11T08:16:21Z</time>
      </trkpt>
      <trkpt lat="28.5395900" lon="-16.2324300">
        <ele>816.9</ele>
        <time>2020-11-11T08:16:22Z</time>
      </trkpt>
      <trkpt lat="28.5395230" lon="-16.2324920">
        <ele>816.9</ele>
        <time>2020-11-11T08:16:23Z</time>
      </trkpt>
      <trkpt lat="28.5395230" lon="-16.2324920">
        <ele>817.9</ele>
        <time>2020-11-11T08:16:24Z</time>
      </trkpt>
      <trkpt lat="28.5394670" lon="-16.2325520">
        <ele>817.9</ele>
        <time>2020-11-11T08:16:25Z</time>
      </trkpt>
      <trkpt lat="28.5394670" lon="-16.2325520">
        <ele>817.9</ele>
        <time>2020-11-11T08:16:26Z</time>
      </trkpt>
      <trkpt lat="28.5394000" lon="-16.2326000">
        <ele>817.9</ele>
        <time>2020-11-11T08:16:27Z</time>
      </trkpt>
      <trkpt lat="28.5394000" lon="-16.2326000">
        <ele>817.9</ele>
        <time>2020-11-11T08:16:28Z</time>
      </trkpt>
      <trkpt lat="28.5393280" lon="-16.2326400">
        <ele>817.9</ele>
        <time>2020-11-11T08:16:29Z</time>
      </trkpt>
      <trkpt lat="28.5392970" lon="-16.2326520">
        <ele>817.9</ele>
        <time>2020-11-11T08:16:30Z</time>
      </trkpt>
      <trkpt lat="28.5392970" lon="-16.2326520">
        <ele>817.9</ele>
        <time>2020-11-11T08:16:31Z</time>
      </trkpt>
      <trkpt lat="28.5392270" lon="-16.2326830">
        <ele>817.9</ele>
        <time>2020-11-11T08:16:32Z</time>
      </trkpt>
      <trkpt lat="28.5392270" lon="-16.2326830">
        <ele>817.9</ele>
        <time>2020-11-11T08:16:33Z</time>
      </trkpt>
      <trkpt lat="28.5391530" lon="-16.2327100">
        <ele>818.9</ele>
        <time>2020-11-11T08:16:34Z</time>
      </trkpt>
      <trkpt lat="28.5391200" lon="-16.2327250">
        <ele>818.9</ele>
        <time>2020-11-11T08:16:35Z</time>
      </trkpt>
      <trkpt lat="28.5391200" lon="-16.2327250">
        <ele>818.9</ele>
        <time>2020-11-11T08:16:36Z</time>
      </trkpt>
      <trkpt lat="28.5390530" lon="-16.2327470">
        <ele>818.9</ele>
        <time>2020-11-11T08:16:37Z</time>
      </trkpt>
      <trkpt lat="28.5390530" lon="-16.2327470">
        <ele>818.9</ele>
        <time>2020-11-11T08:16:38Z</time>
      </trkpt>
      <trkpt lat="28.5389720" lon="-16.2327730">
        <ele>818.9</ele>
        <time>2020-11-11T08:16:39Z</time>
      </trkpt>
      <trkpt lat="28.5389720" lon="-16.2327730">
        <ele>818.9</ele>
        <time>2020-11-11T08:16:40Z</time>
      </trkpt>
      <trkpt lat="28.5388930" lon="-16.2327870">
        <ele>818.9</ele>
        <time>2020-11-11T08:16:41Z</time>
      </trkpt>
      <trkpt lat="28.5388930" lon="-16.2327870">
        <ele>818.9</ele>
        <time>2020-11-11T08:16:42Z</time>
      </trkpt>
      <trkpt lat="28.5388070" lon="-16.2327820">
        <ele>818.9</ele>
        <time>2020-11-11T08:16:43Z</time>
      </trkpt>
      <trkpt lat="28.5388070" lon="-16.2327820">
        <ele>818.9</ele>
        <time>2020-11-11T08:16:44Z</time>
      </trkpt>
      <trkpt lat="28.5386820" lon="-16.2327980">
        <ele>818.9</ele>
        <time>2020-11-11T08:16:45Z</time>
      </trkpt>
      <trkpt lat="28.5386820" lon="-16.2327980">
        <ele>818.9</ele>
        <time>2020-11-11T08:16:46Z</time>
      </trkpt>
      <trkpt lat="28.5385850" lon="-16.2327880">
        <ele>818.9</ele>
        <time>2020-11-11T08:16:47Z</time>
      </trkpt>
      <trkpt lat="28.5385330" lon="-16.2327830">
        <ele>818.9</ele>
        <time>2020-11-11T08:16:48Z</time>
      </trkpt>
      <trkpt lat="28.5384870" lon="-16.2327720">
        <ele>818.9</ele>
        <time>2020-11-11T08:16:49Z</time>
      </trkpt>
      <trkpt lat="28.5384870" lon="-16.2327720">
        <ele>818.9</ele>
        <time>2020-11-11T08:16:50Z</time>
      </trkpt>
      <trkpt lat="28.5383920" lon="-16.2327520">
        <ele>818.9</ele>
        <time>2020-11-11T08:16:51Z</time>
      </trkpt>
      <trkpt lat="28.5383920" lon="-16.2327520">
        <ele>818.9</ele>
        <time>2020-11-11T08:16:52Z</time>
      </trkpt>
      <trkpt lat="28.5382880" lon="-16.2327300">
        <ele>818.9</ele>
        <time>2020-11-11T08:16:53Z</time>
      </trkpt>
      <trkpt lat="28.5382880" lon="-16.2327300">
        <ele>818.9</ele>
        <time>2020-11-11T08:16:54Z</time>
      </trkpt>
      <trkpt lat="28.5381750" lon="-16.2326980">
        <ele>818.9</ele>
        <time>2020-11-11T08:16:55Z</time>
      </trkpt>
      <trkpt lat="28.5381750" lon="-16.2326980">
        <ele>818.9</ele>
        <time>2020-11-11T08:16:56Z</time>
      </trkpt>
      <trkpt lat="28.5380680" lon="-16.2326750">
        <ele>818.9</ele>
        <time>2020-11-11T08:16:57Z</time>
      </trkpt>
      <trkpt lat="28.5380680" lon="-16.2326750">
        <ele>818.9</ele>
        <time>2020-11-11T08:16:58Z</time>
      </trkpt>
      <trkpt lat="28.5379650" lon="-16.2326550">
        <ele>818.9</ele>
        <time>2020-11-11T08:16:59Z</time>
      </trkpt>
      <trkpt lat="28.5379650" lon="-16.2326550">
        <ele>818.9</ele>
        <time>2020-11-11T08:17:00Z</time>
      </trkpt>
      <trkpt lat="28.5378700" lon="-16.2326450">
        <ele>818.9</ele>
        <time>2020-11-11T08:17:01Z</time>
      </trkpt>
      <trkpt lat="28.5378700" lon="-16.2326450">
        <ele>818.9</ele>
        <time>2020-11-11T08:17:02Z</time>
      </trkpt>
      <trkpt lat="28.5377770" lon="-16.2326680">
        <ele>818.9</ele>
        <time>2020-11-11T08:17:03Z</time>
      </trkpt>
      <trkpt lat="28.5377770" lon="-16.2326680">
        <ele>818.9</ele>
        <time>2020-11-11T08:17:04Z</time>
      </trkpt>
      <trkpt lat="28.5376800" lon="-16.2327150">
        <ele>818.9</ele>
        <time>2020-11-11T08:17:05Z</time>
      </trkpt>
      <trkpt lat="28.5376800" lon="-16.2327150">
        <ele>818.9</ele>
        <time>2020-11-11T08:17:06Z</time>
      </trkpt>
      <trkpt lat="28.5375920" lon="-16.2327730">
        <ele>818.9</ele>
        <time>2020-11-11T08:17:07Z</time>
      </trkpt>
      <trkpt lat="28.5375920" lon="-16.2327730">
        <ele>818.9</ele>
        <time>2020-11-11T08:17:08Z</time>
      </trkpt>
      <trkpt lat="28.5375100" lon="-16.2328500">
        <ele>818.9</ele>
        <time>2020-11-11T08:17:09Z</time>
      </trkpt>
      <trkpt lat="28.5375100" lon="-16.2328500">
        <ele>818.9</ele>
        <time>2020-11-11T08:17:10Z</time>
      </trkpt>
      <trkpt lat="28.5374300" lon="-16.2329180">
        <ele>818.9</ele>
        <time>2020-11-11T08:17:11Z</time>
      </trkpt>
      <trkpt lat="28.5374300" lon="-16.2329180">
        <ele>818.9</ele>
        <time>2020-11-11T08:17:12Z</time>
      </trkpt>
      <trkpt lat="28.5373580" lon="-16.2329980">
        <ele>818.9</ele>
        <time>2020-11-11T08:17:13Z</time>
      </trkpt>
      <trkpt lat="28.5373580" lon="-16.2329980">
        <ele>818.9</ele>
        <time>2020-11-11T08:17:14Z</time>
      </trkpt>
      <trkpt lat="28.5372880" lon="-16.2330950">
        <ele>818.9</ele>
        <time>2020-11-11T08:17:15Z</time>
      </trkpt>
      <trkpt lat="28.5372880" lon="-16.2330950">
        <ele>818.9</ele>
        <time>2020-11-11T08:17:16Z</time>
      </trkpt>
      <trkpt lat="28.5372230" lon="-16.2332070">
        <ele>818.9</ele>
        <time>2020-11-11T08:17:17Z</time>
      </trkpt>
      <trkpt lat="28.5372230" lon="-16.2332070">
        <ele>817.9</ele>
        <time>2020-11-11T08:17:18Z</time>
      </trkpt>
      <trkpt lat="28.5371650" lon="-16.2333580">
        <ele>817.9</ele>
        <time>2020-11-11T08:17:19Z</time>
      </trkpt>
      <trkpt lat="28.5371650" lon="-16.2333580">
        <ele>817.9</ele>
        <time>2020-11-11T08:17:20Z</time>
      </trkpt>
      <trkpt lat="28.5370920" lon="-16.2335050">
        <ele>817.9</ele>
        <time>2020-11-11T08:17:21Z</time>
      </trkpt>
      <trkpt lat="28.5370920" lon="-16.2335050">
        <ele>816.9</ele>
        <time>2020-11-11T08:17:22Z</time>
      </trkpt>
      <trkpt lat="28.5370370" lon="-16.2336800">
        <ele>816.9</ele>
        <time>2020-11-11T08:17:23Z</time>
      </trkpt>
      <trkpt lat="28.5370370" lon="-16.2336800">
        <ele>815.9</ele>
        <time>2020-11-11T08:17:24Z</time>
      </trkpt>
      <trkpt lat="28.5370150" lon="-16.2338830">
        <ele>815.9</ele>
        <time>2020-11-11T08:17:25Z</time>
      </trkpt>
      <trkpt lat="28.5370150" lon="-16.2338830">
        <ele>814.9</ele>
        <time>2020-11-11T08:17:26Z</time>
      </trkpt>
      <trkpt lat="28.5370050" lon="-16.2340880">
        <ele>814.9</ele>
        <time>2020-11-11T08:17:27Z</time>
      </trkpt>
      <trkpt lat="28.5370050" lon="-16.2340880">
        <ele>813.9</ele>
        <time>2020-11-11T08:17:28Z</time>
      </trkpt>
      <trkpt lat="28.5369670" lon="-16.2342800">
        <ele>813.9</ele>
        <time>2020-11-11T08:17:29Z</time>
      </trkpt>
      <trkpt lat="28.5369300" lon="-16.2343680">
        <ele>812.9</ele>
        <time>2020-11-11T08:17:30Z</time>
      </trkpt>
      <trkpt lat="28.5369300" lon="-16.2343680">
        <ele>812.9</ele>
        <time>2020-11-11T08:17:31Z</time>
      </trkpt>
      <trkpt lat="28.5368220" lon="-16.2345170">
        <ele>811.9</ele>
        <time>2020-11-11T08:17:32Z</time>
      </trkpt>
      <trkpt lat="28.5368220" lon="-16.2345170">
        <ele>811.9</ele>
        <time>2020-11-11T08:17:33Z</time>
      </trkpt>
      <trkpt lat="28.5366850" lon="-16.2346250">
        <ele>811.9</ele>
        <time>2020-11-11T08:17:34Z</time>
      </trkpt>
      <trkpt lat="28.5366850" lon="-16.2346250">
        <ele>811.9</ele>
        <time>2020-11-11T08:17:35Z</time>
      </trkpt>
      <trkpt lat="28.5365480" lon="-16.2347120">
        <ele>810.9</ele>
        <time>2020-11-11T08:17:36Z</time>
      </trkpt>
      <trkpt lat="28.5365480" lon="-16.2347120">
        <ele>810.9</ele>
        <time>2020-11-11T08:17:37Z</time>
      </trkpt>
      <trkpt lat="28.5364320" lon="-16.2347970">
        <ele>810.9</ele>
        <time>2020-11-11T08:17:38Z</time>
      </trkpt>
      <trkpt lat="28.5364320" lon="-16.2347970">
        <ele>811.9</ele>
        <time>2020-11-11T08:17:39Z</time>
      </trkpt>
      <trkpt lat="28.5363530" lon="-16.2348970">
        <ele>811.9</ele>
        <time>2020-11-11T08:17:40Z</time>
      </trkpt>
      <trkpt lat="28.5363530" lon="-16.2348970">
        <ele>811.9</ele>
        <time>2020-11-11T08:17:41Z</time>
      </trkpt>
      <trkpt lat="28.5362920" lon="-16.2350070">
        <ele>811.9</ele>
        <time>2020-11-11T08:17:42Z</time>
      </trkpt>
      <trkpt lat="28.5362620" lon="-16.2350620">
        <ele>811.9</ele>
        <time>2020-11-11T08:17:43Z</time>
      </trkpt>
      <trkpt lat="28.5362620" lon="-16.2350620">
        <ele>811.9</ele>
        <time>2020-11-11T08:17:44Z</time>
      </trkpt>
      <trkpt lat="28.5362200" lon="-16.2351650">
        <ele>812.9</ele>
        <time>2020-11-11T08:17:45Z</time>
      </trkpt>
      <trkpt lat="28.5362100" lon="-16.2352220">
        <ele>812.9</ele>
        <time>2020-11-11T08:17:46Z</time>
      </trkpt>
      <trkpt lat="28.5362100" lon="-16.2352220">
        <ele>812.9</ele>
        <time>2020-11-11T08:17:47Z</time>
      </trkpt>
      <trkpt lat="28.5361830" lon="-16.2353320">
        <ele>812.9</ele>
        <time>2020-11-11T08:17:48Z</time>
      </trkpt>
      <trkpt lat="28.5361830" lon="-16.2353320">
        <ele>812.9</ele>
        <time>2020-11-11T08:17:49Z</time>
      </trkpt>
      <trkpt lat="28.5361600" lon="-16.2354350">
        <ele>812.9</ele>
        <time>2020-11-11T08:17:50Z</time>
      </trkpt>
      <trkpt lat="28.5361600" lon="-16.2354350">
        <ele>812.9</ele>
        <time>2020-11-11T08:17:51Z</time>
      </trkpt>
      <trkpt lat="28.5361280" lon="-16.2355420">
        <ele>812.9</ele>
        <time>2020-11-11T08:17:52Z</time>
      </trkpt>
      <trkpt lat="28.5361130" lon="-16.2355930">
        <ele>813.9</ele>
        <time>2020-11-11T08:17:53Z</time>
      </trkpt>
      <trkpt lat="28.5361130" lon="-16.2355930">
        <ele>813.9</ele>
        <time>2020-11-11T08:17:54Z</time>
      </trkpt>
      <trkpt lat="28.5360850" lon="-16.2356970">
        <ele>813.9</ele>
        <time>2020-11-11T08:17:55Z</time>
      </trkpt>
      <trkpt lat="28.5360850" lon="-16.2356970">
        <ele>813.9</ele>
        <time>2020-11-11T08:17:56Z</time>
      </trkpt>
      <trkpt lat="28.5360530" lon="-16.2357950">
        <ele>813.9</ele>
        <time>2020-11-11T08:17:57Z</time>
      </trkpt>
      <trkpt lat="28.5360530" lon="-16.2357950">
        <ele>813.9</ele>
        <time>2020-11-11T08:17:58Z</time>
      </trkpt>
      <trkpt lat="28.5360320" lon="-16.2359000">
        <ele>813.9</ele>
        <time>2020-11-11T08:17:59Z</time>
      </trkpt>
      <trkpt lat="28.5360200" lon="-16.2359520">
        <ele>813.9</ele>
        <time>2020-11-11T08:18:00Z</time>
      </trkpt>
      <trkpt lat="28.5360070" lon="-16.2360030">
        <ele>813.9</ele>
        <time>2020-11-11T08:18:01Z</time>
      </trkpt>
      <trkpt lat="28.5360070" lon="-16.2360030">
        <ele>813.9</ele>
        <time>2020-11-11T08:18:02Z</time>
      </trkpt>
      <trkpt lat="28.5359800" lon="-16.2361000">
        <ele>813.9</ele>
        <time>2020-11-11T08:18:03Z</time>
      </trkpt>
      <trkpt lat="28.5359800" lon="-16.2361000">
        <ele>813.9</ele>
        <time>2020-11-11T08:18:04Z</time>
      </trkpt>
      <trkpt lat="28.5359550" lon="-16.2361970">
        <ele>814.9</ele>
        <time>2020-11-11T08:18:05Z</time>
      </trkpt>
      <trkpt lat="28.5359450" lon="-16.2362450">
        <ele>814.9</ele>
        <time>2020-11-11T08:18:06Z</time>
      </trkpt>
      <trkpt lat="28.5359450" lon="-16.2362450">
        <ele>814.9</ele>
        <time>2020-11-11T08:18:07Z</time>
      </trkpt>
      <trkpt lat="28.5359280" lon="-16.2363400">
        <ele>814.9</ele>
        <time>2020-11-11T08:18:08Z</time>
      </trkpt>
      <trkpt lat="28.5359280" lon="-16.2363400">
        <ele>814.9</ele>
        <time>2020-11-11T08:18:09Z</time>
      </trkpt>
      <trkpt lat="28.5359100" lon="-16.2364320">
        <ele>814.9</ele>
        <time>2020-11-11T08:18:10Z</time>
      </trkpt>
      <trkpt lat="28.5359020" lon="-16.2364750">
        <ele>814.9</ele>
        <time>2020-11-11T08:18:11Z</time>
      </trkpt>
      <trkpt lat="28.5359020" lon="-16.2364750">
        <ele>814.9</ele>
        <time>2020-11-11T08:18:12Z</time>
      </trkpt>
      <trkpt lat="28.5358800" lon="-16.2365600">
        <ele>815.9</ele>
        <time>2020-11-11T08:18:13Z</time>
      </trkpt>
      <trkpt lat="28.5358800" lon="-16.2365600">
        <ele>815.9</ele>
        <time>2020-11-11T08:18:14Z</time>
      </trkpt>
      <trkpt lat="28.5358580" lon="-16.2366450">
        <ele>815.9</ele>
        <time>2020-11-11T08:18:15Z</time>
      </trkpt>
      <trkpt lat="28.5358480" lon="-16.2366900">
        <ele>816.9</ele>
        <time>2020-11-11T08:18:16Z</time>
      </trkpt>
      <trkpt lat="28.5358480" lon="-16.2366900">
        <ele>816.9</ele>
        <time>2020-11-11T08:18:17Z</time>
      </trkpt>
      <trkpt lat="28.5358320" lon="-16.2367970">
        <ele>816.9</ele>
        <time>2020-11-11T08:18:18Z</time>
      </trkpt>
      <trkpt lat="28.5358230" lon="-16.2368400">
        <ele>816.9</ele>
        <time>2020-11-11T08:18:19Z</time>
      </trkpt>
      <trkpt lat="28.5358230" lon="-16.2368400">
        <ele>816.9</ele>
        <time>2020-11-11T08:18:20Z</time>
      </trkpt>
      <trkpt lat="28.5358000" lon="-16.2369320">
        <ele>816.9</ele>
        <time>2020-11-11T08:18:21Z</time>
      </trkpt>
      <trkpt lat="28.5357900" lon="-16.2369750">
        <ele>816.9</ele>
        <time>2020-11-11T08:18:22Z</time>
      </trkpt>
      <trkpt lat="28.5357900" lon="-16.2369750">
        <ele>816.9</ele>
        <time>2020-11-11T08:18:23Z</time>
      </trkpt>
      <trkpt lat="28.5357700" lon="-16.2370620">
        <ele>816.9</ele>
        <time>2020-11-11T08:18:24Z</time>
      </trkpt>
      <trkpt lat="28.5357700" lon="-16.2370620">
        <ele>816.9</ele>
        <time>2020-11-11T08:18:25Z</time>
      </trkpt>
      <trkpt lat="28.5357470" lon="-16.2371480">
        <ele>816.9</ele>
        <time>2020-11-11T08:18:26Z</time>
      </trkpt>
      <trkpt lat="28.5357470" lon="-16.2371480">
        <ele>816.9</ele>
        <time>2020-11-11T08:18:27Z</time>
      </trkpt>
      <trkpt lat="28.5357220" lon="-16.2372270">
        <ele>816.9</ele>
        <time>2020-11-11T08:18:28Z</time>
      </trkpt>
      <trkpt lat="28.5357080" lon="-16.2372700">
        <ele>816.9</ele>
        <time>2020-11-11T08:18:29Z</time>
      </trkpt>
      <trkpt lat="28.5357080" lon="-16.2372700">
        <ele>817.9</ele>
        <time>2020-11-11T08:18:30Z</time>
      </trkpt>
      <trkpt lat="28.5356850" lon="-16.2373530">
        <ele>817.9</ele>
        <time>2020-11-11T08:18:31Z</time>
      </trkpt>
      <trkpt lat="28.5356730" lon="-16.2373950">
        <ele>817.9</ele>
        <time>2020-11-11T08:18:32Z</time>
      </trkpt>
      <trkpt lat="28.5356730" lon="-16.2373950">
        <ele>817.9</ele>
        <time>2020-11-11T08:18:33Z</time>
      </trkpt>
      <trkpt lat="28.5356430" lon="-16.2374780">
        <ele>817.9</ele>
        <time>2020-11-11T08:18:34Z</time>
      </trkpt>
      <trkpt lat="28.5356430" lon="-16.2374780">
        <ele>817.9</ele>
        <time>2020-11-11T08:18:35Z</time>
      </trkpt>
      <trkpt lat="28.5356250" lon="-16.2375650">
        <ele>817.9</ele>
        <time>2020-11-11T08:18:36Z</time>
      </trkpt>
      <trkpt lat="28.5356180" lon="-16.2376030">
        <ele>817.9</ele>
        <time>2020-11-11T08:18:37Z</time>
      </trkpt>
      <trkpt lat="28.5356180" lon="-16.2376030">
        <ele>818.9</ele>
        <time>2020-11-11T08:18:38Z</time>
      </trkpt>
      <trkpt lat="28.5356150" lon="-16.2376680">
        <ele>818.9</ele>
        <time>2020-11-11T08:18:39Z</time>
      </trkpt>
      <trkpt lat="28.5356220" lon="-16.2376980">
        <ele>818.9</ele>
        <time>2020-11-11T08:18:40Z</time>
      </trkpt>
      <trkpt lat="28.5356220" lon="-16.2376980">
        <ele>818.9</ele>
        <time>2020-11-11T08:18:41Z</time>
      </trkpt>
      <trkpt lat="28.5356330" lon="-16.2377650">
        <ele>818.9</ele>
        <time>2020-11-11T08:18:42Z</time>
      </trkpt>
      <trkpt lat="28.5356420" lon="-16.2378030">
        <ele>818.9</ele>
        <time>2020-11-11T08:18:43Z</time>
      </trkpt>
      <trkpt lat="28.5356420" lon="-16.2378030">
        <ele>818.9</ele>
        <time>2020-11-11T08:18:44Z</time>
      </trkpt>
      <trkpt lat="28.5356530" lon="-16.2378700">
        <ele>818.9</ele>
        <time>2020-11-11T08:18:45Z</time>
      </trkpt>
      <trkpt lat="28.5356530" lon="-16.2378700">
        <ele>819.9</ele>
        <time>2020-11-11T08:18:46Z</time>
      </trkpt>
      <trkpt lat="28.5356770" lon="-16.2379470">
        <ele>819.9</ele>
        <time>2020-11-11T08:18:47Z</time>
      </trkpt>
      <trkpt lat="28.5356850" lon="-16.2380000">
        <ele>819.9</ele>
        <time>2020-11-11T08:18:48Z</time>
      </trkpt>
      <trkpt lat="28.5356850" lon="-16.2380000">
        <ele>819.9</ele>
        <time>2020-11-11T08:18:49Z</time>
      </trkpt>
      <trkpt lat="28.5357080" lon="-16.2380800">
        <ele>819.9</ele>
        <time>2020-11-11T08:18:50Z</time>
      </trkpt>
      <trkpt lat="28.5357080" lon="-16.2380800">
        <ele>819.9</ele>
        <time>2020-11-11T08:18:51Z</time>
      </trkpt>
      <trkpt lat="28.5357200" lon="-16.2381580">
        <ele>820.9</ele>
        <time>2020-11-11T08:18:52Z</time>
      </trkpt>
      <trkpt lat="28.5357200" lon="-16.2381580">
        <ele>820.9</ele>
        <time>2020-11-11T08:18:53Z</time>
      </trkpt>
      <trkpt lat="28.5357300" lon="-16.2382220">
        <ele>820.9</ele>
        <time>2020-11-11T08:18:54Z</time>
      </trkpt>
      <trkpt lat="28.5357300" lon="-16.2382220">
        <ele>820.9</ele>
        <time>2020-11-11T08:18:55Z</time>
      </trkpt>
      <trkpt lat="28.5357430" lon="-16.2382670">
        <ele>820.9</ele>
        <time>2020-11-11T08:18:56Z</time>
      </trkpt>
      <trkpt lat="28.5357430" lon="-16.2382670">
        <ele>820.9</ele>
        <time>2020-11-11T08:18:57Z</time>
      </trkpt>
      <trkpt lat="28.5357620" lon="-16.2383220">
        <ele>820.9</ele>
        <time>2020-11-11T08:18:58Z</time>
      </trkpt>
      <trkpt lat="28.5357620" lon="-16.2383220">
        <ele>820.9</ele>
        <time>2020-11-11T08:18:59Z</time>
      </trkpt>
      <trkpt lat="28.5357780" lon="-16.2383820">
        <ele>820.9</ele>
        <time>2020-11-11T08:19:00Z</time>
      </trkpt>
      <trkpt lat="28.5357900" lon="-16.2383980">
        <ele>820.9</ele>
        <time>2020-11-11T08:19:01Z</time>
      </trkpt>
      <trkpt lat="28.5357900" lon="-16.2383980">
        <ele>820.9</ele>
        <time>2020-11-11T08:19:02Z</time>
      </trkpt>
      <trkpt lat="28.5358120" lon="-16.2384700">
        <ele>820.9</ele>
        <time>2020-11-11T08:19:03Z</time>
      </trkpt>
      <trkpt lat="28.5358000" lon="-16.2385250">
        <ele>820.9</ele>
        <time>2020-11-11T08:19:04Z</time>
      </trkpt>
      <trkpt lat="28.5358000" lon="-16.2385250">
        <ele>820.9</ele>
        <time>2020-11-11T08:19:05Z</time>
      </trkpt>
      <trkpt lat="28.5357930" lon="-16.2386670">
        <ele>820.9</ele>
        <time>2020-11-11T08:19:06Z</time>
      </trkpt>
      <trkpt lat="28.5358020" lon="-16.2387570">
        <ele>820.9</ele>
        <time>2020-11-11T08:19:07Z</time>
      </trkpt>
      <trkpt lat="28.5358020" lon="-16.2387570">
        <ele>820.9</ele>
        <time>2020-11-11T08:19:08Z</time>
      </trkpt>
      <trkpt lat="28.5357920" lon="-16.2389550">
        <ele>820.9</ele>
        <time>2020-11-11T08:19:09Z</time>
      </trkpt>
      <trkpt lat="28.5357730" lon="-16.2390820">
        <ele>819.9</ele>
        <time>2020-11-11T08:19:10Z</time>
      </trkpt>
      <trkpt lat="28.5357730" lon="-16.2390820">
        <ele>819.9</ele>
        <time>2020-11-11T08:19:11Z</time>
      </trkpt>
      <trkpt lat="28.5357570" lon="-16.2393070">
        <ele>817.9</ele>
        <time>2020-11-11T08:19:12Z</time>
      </trkpt>
      <trkpt lat="28.5357420" lon="-16.2394100">
        <ele>817.9</ele>
        <time>2020-11-11T08:19:13Z</time>
      </trkpt>
      <trkpt lat="28.5357420" lon="-16.2394100">
        <ele>817.9</ele>
        <time>2020-11-11T08:19:14Z</time>
      </trkpt>
      <trkpt lat="28.5357230" lon="-16.2396100">
        <ele>817.9</ele>
        <time>2020-11-11T08:19:15Z</time>
      </trkpt>
      <trkpt lat="28.5357230" lon="-16.2396100">
        <ele>817.9</ele>
        <time>2020-11-11T08:19:16Z</time>
      </trkpt>
      <trkpt lat="28.5357450" lon="-16.2398170">
        <ele>817.9</ele>
        <time>2020-11-11T08:19:17Z</time>
      </trkpt>
      <trkpt lat="28.5357450" lon="-16.2398170">
        <ele>815.9</ele>
        <time>2020-11-11T08:19:18Z</time>
      </trkpt>
      <trkpt lat="28.5357250" lon="-16.2400080">
        <ele>815.9</ele>
        <time>2020-11-11T08:19:19Z</time>
      </trkpt>
      <trkpt lat="28.5357250" lon="-16.2400080">
        <ele>814.9</ele>
        <time>2020-11-11T08:19:20Z</time>
      </trkpt>
      <trkpt lat="28.5357270" lon="-16.2402330">
        <ele>814.9</ele>
        <time>2020-11-11T08:19:21Z</time>
      </trkpt>
      <trkpt lat="28.5357270" lon="-16.2402330">
        <ele>813.9</ele>
        <time>2020-11-11T08:19:22Z</time>
      </trkpt>
      <trkpt lat="28.5357330" lon="-16.2404530">
        <ele>813.9</ele>
        <time>2020-11-11T08:19:23Z</time>
      </trkpt>
      <trkpt lat="28.5357450" lon="-16.2405650">
        <ele>812.9</ele>
        <time>2020-11-11T08:19:24Z</time>
      </trkpt>
      <trkpt lat="28.5357600" lon="-16.2406780">
        <ele>812.9</ele>
        <time>2020-11-11T08:19:25Z</time>
      </trkpt>
      <trkpt lat="28.5357600" lon="-16.2406780">
        <ele>811.9</ele>
        <time>2020-11-11T08:19:26Z</time>
      </trkpt>
      <trkpt lat="28.5357880" lon="-16.2409120">
        <ele>811.9</ele>
        <time>2020-11-11T08:19:27Z</time>
      </trkpt>
      <trkpt lat="28.5357730" lon="-16.2410330">
        <ele>810.9</ele>
        <time>2020-11-11T08:19:28Z</time>
      </trkpt>
      <trkpt lat="28.5357730" lon="-16.2410330">
        <ele>810.9</ele>
        <time>2020-11-11T08:19:29Z</time>
      </trkpt>
      <trkpt lat="28.5357300" lon="-16.2412700">
        <ele>808.9</ele>
        <time>2020-11-11T08:19:30Z</time>
      </trkpt>
      <trkpt lat="28.5356920" lon="-16.2413830">
        <ele>808.9</ele>
        <time>2020-11-11T08:19:31Z</time>
      </trkpt>
      <trkpt lat="28.5356920" lon="-16.2413830">
        <ele>806.9</ele>
        <time>2020-11-11T08:19:32Z</time>
      </trkpt>
      <trkpt lat="28.5356100" lon="-16.2415980">
        <ele>806.9</ele>
        <time>2020-11-11T08:19:33Z</time>
      </trkpt>
      <trkpt lat="28.5356100" lon="-16.2415980">
        <ele>805.9</ele>
        <time>2020-11-11T08:19:34Z</time>
      </trkpt>
      <trkpt lat="28.5355330" lon="-16.2418000">
        <ele>805.9</ele>
        <time>2020-11-11T08:19:35Z</time>
      </trkpt>
      <trkpt lat="28.5355330" lon="-16.2418000">
        <ele>805.9</ele>
        <time>2020-11-11T08:19:36Z</time>
      </trkpt>
      <trkpt lat="28.5354600" lon="-16.2419820">
        <ele>804.9</ele>
        <time>2020-11-11T08:19:37Z</time>
      </trkpt>
      <trkpt lat="28.5354600" lon="-16.2419820">
        <ele>804.9</ele>
        <time>2020-11-11T08:19:38Z</time>
      </trkpt>
      <trkpt lat="28.5353700" lon="-16.2421300">
        <ele>804.9</ele>
        <time>2020-11-11T08:19:39Z</time>
      </trkpt>
      <trkpt lat="28.5353200" lon="-16.2421850">
        <ele>804.9</ele>
        <time>2020-11-11T08:19:40Z</time>
      </trkpt>
      <trkpt lat="28.5353200" lon="-16.2421850">
        <ele>805.9</ele>
        <time>2020-11-11T08:19:41Z</time>
      </trkpt>
      <trkpt lat="28.5352200" lon="-16.2422720">
        <ele>805.9</ele>
        <time>2020-11-11T08:19:42Z</time>
      </trkpt>
      <trkpt lat="28.5352200" lon="-16.2422720">
        <ele>805.9</ele>
        <time>2020-11-11T08:19:43Z</time>
      </trkpt>
      <trkpt lat="28.5351330" lon="-16.2423470">
        <ele>805.9</ele>
        <time>2020-11-11T08:19:44Z</time>
      </trkpt>
      <trkpt lat="28.5351330" lon="-16.2423470">
        <ele>806.9</ele>
        <time>2020-11-11T08:19:45Z</time>
      </trkpt>
      <trkpt lat="28.5350530" lon="-16.2424050">
        <ele>806.9</ele>
        <time>2020-11-11T08:19:46Z</time>
      </trkpt>
      <trkpt lat="28.5350530" lon="-16.2424050">
        <ele>806.9</ele>
        <time>2020-11-11T08:19:47Z</time>
      </trkpt>
      <trkpt lat="28.5349870" lon="-16.2424570">
        <ele>806.9</ele>
        <time>2020-11-11T08:19:48Z</time>
      </trkpt>
      <trkpt lat="28.5349570" lon="-16.2424780">
        <ele>808.9</ele>
        <time>2020-11-11T08:19:49Z</time>
      </trkpt>
      <trkpt lat="28.5349570" lon="-16.2424780">
        <ele>808.9</ele>
        <time>2020-11-11T08:19:50Z</time>
      </trkpt>
      <trkpt lat="28.5348950" lon="-16.2425250">
        <ele>808.9</ele>
        <time>2020-11-11T08:19:51Z</time>
      </trkpt>
      <trkpt lat="28.5348650" lon="-16.2425530">
        <ele>808.9</ele>
        <time>2020-11-11T08:19:52Z</time>
      </trkpt>
      <trkpt lat="28.5348650" lon="-16.2425530">
        <ele>809.9</ele>
        <time>2020-11-11T08:19:53Z</time>
      </trkpt>
      <trkpt lat="28.5348170" lon="-16.2426180">
        <ele>809.9</ele>
        <time>2020-11-11T08:19:54Z</time>
      </trkpt>
      <trkpt lat="28.5348170" lon="-16.2426180">
        <ele>809.9</ele>
        <time>2020-11-11T08:19:55Z</time>
      </trkpt>
      <trkpt lat="28.5347880" lon="-16.2426930">
        <ele>809.9</ele>
        <time>2020-11-11T08:19:56Z</time>
      </trkpt>
      <trkpt lat="28.5347880" lon="-16.2426930">
        <ele>809.9</ele>
        <time>2020-11-11T08:19:57Z</time>
      </trkpt>
      <trkpt lat="28.5347730" lon="-16.2427720">
        <ele>809.9</ele>
        <time>2020-11-11T08:19:58Z</time>
      </trkpt>
      <trkpt lat="28.5347770" lon="-16.2428180">
        <ele>809.9</ele>
        <time>2020-11-11T08:19:59Z</time>
      </trkpt>
      <trkpt lat="28.5347770" lon="-16.2428180">
        <ele>809.9</ele>
        <time>2020-11-11T08:20:00Z</time>
      </trkpt>
      <trkpt lat="28.5347980" lon="-16.2429270">
        <ele>809.9</ele>
        <time>2020-11-11T08:20:01Z</time>
      </trkpt>
      <trkpt lat="28.5347980" lon="-16.2429270">
        <ele>809.9</ele>
        <time>2020-11-11T08:20:02Z</time>
      </trkpt>
      <trkpt lat="28.5348270" lon="-16.2430570">
        <ele>809.9</ele>
        <time>2020-11-11T08:20:03Z</time>
      </trkpt>
      <trkpt lat="28.5348450" lon="-16.2431280">
        <ele>809.9</ele>
        <time>2020-11-11T08:20:04Z</time>
      </trkpt>
      <trkpt lat="28.5348630" lon="-16.2432080">
        <ele>809.9</ele>
        <time>2020-11-11T08:20:05Z</time>
      </trkpt>
      <trkpt lat="28.5348630" lon="-16.2432080">
        <ele>808.9</ele>
        <time>2020-11-11T08:20:06Z</time>
      </trkpt>
      <trkpt lat="28.5349080" lon="-16.2433750">
        <ele>808.9</ele>
        <time>2020-11-11T08:20:07Z</time>
      </trkpt>
      <trkpt lat="28.5349080" lon="-16.2433750">
        <ele>807.9</ele>
        <time>2020-11-11T08:20:08Z</time>
      </trkpt>
      <trkpt lat="28.5349420" lon="-16.2435530">
        <ele>807.9</ele>
        <time>2020-11-11T08:20:09Z</time>
      </trkpt>
      <trkpt lat="28.5349420" lon="-16.2435530">
        <ele>806.9</ele>
        <time>2020-11-11T08:20:10Z</time>
      </trkpt>
      <trkpt lat="28.5349500" lon="-16.2437550">
        <ele>806.9</ele>
        <time>2020-11-11T08:20:11Z</time>
      </trkpt>
      <trkpt lat="28.5349500" lon="-16.2438600">
        <ele>804.9</ele>
        <time>2020-11-11T08:20:12Z</time>
      </trkpt>
      <trkpt lat="28.5349500" lon="-16.2438600">
        <ele>802.9</ele>
        <time>2020-11-11T08:20:13Z</time>
      </trkpt>
      <trkpt lat="28.5349470" lon="-16.2440580">
        <ele>802.9</ele>
        <time>2020-11-11T08:20:14Z</time>
      </trkpt>
      <trkpt lat="28.5349470" lon="-16.2440580">
        <ele>800.9</ele>
        <time>2020-11-11T08:20:15Z</time>
      </trkpt>
      <trkpt lat="28.5349070" lon="-16.2442350">
        <ele>800.9</ele>
        <time>2020-11-11T08:20:16Z</time>
      </trkpt>
      <trkpt lat="28.5349070" lon="-16.2442350">
        <ele>799.9</ele>
        <time>2020-11-11T08:20:17Z</time>
      </trkpt>
      <trkpt lat="28.5348050" lon="-16.2443800">
        <ele>799.9</ele>
        <time>2020-11-11T08:20:18Z</time>
      </trkpt>
      <trkpt lat="28.5347420" lon="-16.2444380">
        <ele>798.9</ele>
        <time>2020-11-11T08:20:19Z</time>
      </trkpt>
      <trkpt lat="28.5347420" lon="-16.2444380">
        <ele>798.9</ele>
        <time>2020-11-11T08:20:20Z</time>
      </trkpt>
      <trkpt lat="28.5346220" lon="-16.2445420">
        <ele>797.9</ele>
        <time>2020-11-11T08:20:21Z</time>
      </trkpt>
      <trkpt lat="28.5346220" lon="-16.2445420">
        <ele>797.9</ele>
        <time>2020-11-11T08:20:22Z</time>
      </trkpt>
      <trkpt lat="28.5345820" lon="-16.2446870">
        <ele>796.9</ele>
        <time>2020-11-11T08:20:23Z</time>
      </trkpt>
      <trkpt lat="28.5345820" lon="-16.2446870">
        <ele>796.9</ele>
        <time>2020-11-11T08:20:24Z</time>
      </trkpt>
      <trkpt lat="28.5345850" lon="-16.2448520">
        <ele>795.9</ele>
        <time>2020-11-11T08:20:25Z</time>
      </trkpt>
      <trkpt lat="28.5345850" lon="-16.2448520">
        <ele>795.9</ele>
        <time>2020-11-11T08:20:26Z</time>
      </trkpt>
      <trkpt lat="28.5345980" lon="-16.2450220">
        <ele>794.9</ele>
        <time>2020-11-11T08:20:27Z</time>
      </trkpt>
      <trkpt lat="28.5345980" lon="-16.2450220">
        <ele>794.9</ele>
        <time>2020-11-11T08:20:28Z</time>
      </trkpt>
      <trkpt lat="28.5346000" lon="-16.2451970">
        <ele>794.9</ele>
        <time>2020-11-11T08:20:29Z</time>
      </trkpt>
      <trkpt lat="28.5345930" lon="-16.2452870">
        <ele>794.9</ele>
        <time>2020-11-11T08:20:30Z</time>
      </trkpt>
      <trkpt lat="28.5345930" lon="-16.2452870">
        <ele>793.9</ele>
        <time>2020-11-11T08:20:31Z</time>
      </trkpt>
      <trkpt lat="28.5345680" lon="-16.2454700">
        <ele>793.9</ele>
        <time>2020-11-11T08:20:32Z</time>
      </trkpt>
      <trkpt lat="28.5345480" lon="-16.2455630">
        <ele>793.9</ele>
        <time>2020-11-11T08:20:33Z</time>
      </trkpt>
      <trkpt lat="28.5345480" lon="-16.2455630">
        <ele>793.9</ele>
        <time>2020-11-11T08:20:34Z</time>
      </trkpt>
      <trkpt lat="28.5344980" lon="-16.2457520">
        <ele>791.9</ele>
        <time>2020-11-11T08:20:35Z</time>
      </trkpt>
      <trkpt lat="28.5344980" lon="-16.2457520">
        <ele>791.9</ele>
        <time>2020-11-11T08:20:36Z</time>
      </trkpt>
      <trkpt lat="28.5344320" lon="-16.2459330">
        <ele>791.9</ele>
        <time>2020-11-11T08:20:37Z</time>
      </trkpt>
      <trkpt lat="28.5344320" lon="-16.2459330">
        <ele>791.9</ele>
        <time>2020-11-11T08:20:38Z</time>
      </trkpt>
      <trkpt lat="28.5343700" lon="-16.2461170">
        <ele>790.9</ele>
        <time>2020-11-11T08:20:39Z</time>
      </trkpt>
      <trkpt lat="28.5343700" lon="-16.2461170">
        <ele>790.9</ele>
        <time>2020-11-11T08:20:40Z</time>
      </trkpt>
      <trkpt lat="28.5343130" lon="-16.2463000">
        <ele>790.9</ele>
        <time>2020-11-11T08:20:41Z</time>
      </trkpt>
      <trkpt lat="28.5342800" lon="-16.2463920">
        <ele>790.9</ele>
        <time>2020-11-11T08:20:42Z</time>
      </trkpt>
      <trkpt lat="28.5342800" lon="-16.2463920">
        <ele>789.9</ele>
        <time>2020-11-11T08:20:43Z</time>
      </trkpt>
      <trkpt lat="28.5341800" lon="-16.2465650">
        <ele>789.9</ele>
        <time>2020-11-11T08:20:44Z</time>
      </trkpt>
      <trkpt lat="28.5341170" lon="-16.2466450">
        <ele>788.9</ele>
        <time>2020-11-11T08:20:45Z</time>
      </trkpt>
      <trkpt lat="28.5341170" lon="-16.2466450">
        <ele>788.9</ele>
        <time>2020-11-11T08:20:46Z</time>
      </trkpt>
      <trkpt lat="28.5339650" lon="-16.2467730">
        <ele>787.9</ele>
        <time>2020-11-11T08:20:47Z</time>
      </trkpt>
      <trkpt lat="28.5338780" lon="-16.2468250">
        <ele>787.9</ele>
        <time>2020-11-11T08:20:48Z</time>
      </trkpt>
      <trkpt lat="28.5337980" lon="-16.2468800">
        <ele>786.9</ele>
        <time>2020-11-11T08:20:49Z</time>
      </trkpt>
      <trkpt lat="28.5337980" lon="-16.2468800">
        <ele>786.9</ele>
        <time>2020-11-11T08:20:50Z</time>
      </trkpt>
      <trkpt lat="28.5336580" lon="-16.2470000">
        <ele>785.9</ele>
        <time>2020-11-11T08:20:51Z</time>
      </trkpt>
      <trkpt lat="28.5336580" lon="-16.2470000">
        <ele>785.9</ele>
        <time>2020-11-11T08:20:52Z</time>
      </trkpt>
      <trkpt lat="28.5335630" lon="-16.2471530">
        <ele>783.9</ele>
        <time>2020-11-11T08:20:53Z</time>
      </trkpt>
      <trkpt lat="28.5335630" lon="-16.2471530">
        <ele>782.9</ele>
        <time>2020-11-11T08:20:54Z</time>
      </trkpt>
      <trkpt lat="28.5335220" lon="-16.2473470">
        <ele>782.9</ele>
        <time>2020-11-11T08:20:55Z</time>
      </trkpt>
      <trkpt lat="28.5335220" lon="-16.2473470">
        <ele>781.9</ele>
        <time>2020-11-11T08:20:56Z</time>
      </trkpt>
      <trkpt lat="28.5335200" lon="-16.2475420">
        <ele>781.9</ele>
        <time>2020-11-11T08:20:57Z</time>
      </trkpt>
      <trkpt lat="28.5335220" lon="-16.2476320">
        <ele>780.9</ele>
        <time>2020-11-11T08:20:58Z</time>
      </trkpt>
      <trkpt lat="28.5335220" lon="-16.2476320">
        <ele>780.9</ele>
        <time>2020-11-11T08:20:59Z</time>
      </trkpt>
      <trkpt lat="28.5335300" lon="-16.2477970">
        <ele>779.9</ele>
        <time>2020-11-11T08:21:00Z</time>
      </trkpt>
      <trkpt lat="28.5335220" lon="-16.2478750">
        <ele>779.9</ele>
        <time>2020-11-11T08:21:01Z</time>
      </trkpt>
      <trkpt lat="28.5335220" lon="-16.2478750">
        <ele>779.9</ele>
        <time>2020-11-11T08:21:02Z</time>
      </trkpt>
      <trkpt lat="28.5334650" lon="-16.2480330">
        <ele>779.9</ele>
        <time>2020-11-11T08:21:03Z</time>
      </trkpt>
      <trkpt lat="28.5334280" lon="-16.2481150">
        <ele>778.9</ele>
        <time>2020-11-11T08:21:04Z</time>
      </trkpt>
      <trkpt lat="28.5334280" lon="-16.2481150">
        <ele>778.9</ele>
        <time>2020-11-11T08:21:05Z</time>
      </trkpt>
      <trkpt lat="28.5333370" lon="-16.2482830">
        <ele>777.9</ele>
        <time>2020-11-11T08:21:06Z</time>
      </trkpt>
      <trkpt lat="28.5333370" lon="-16.2482830">
        <ele>777.9</ele>
        <time>2020-11-11T08:21:07Z</time>
      </trkpt>
      <trkpt lat="28.5332550" lon="-16.2484720">
        <ele>776.9</ele>
        <time>2020-11-11T08:21:08Z</time>
      </trkpt>
      <trkpt lat="28.5332250" lon="-16.2485700">
        <ele>776.9</ele>
        <time>2020-11-11T08:21:09Z</time>
      </trkpt>
      <trkpt lat="28.5332250" lon="-16.2485700">
        <ele>774.9</ele>
        <time>2020-11-11T08:21:10Z</time>
      </trkpt>
      <trkpt lat="28.5331800" lon="-16.2487480">
        <ele>774.9</ele>
        <time>2020-11-11T08:21:11Z</time>
      </trkpt>
      <trkpt lat="28.5331800" lon="-16.2487480">
        <ele>773.9</ele>
        <time>2020-11-11T08:21:12Z</time>
      </trkpt>
      <trkpt lat="28.5331830" lon="-16.2489130">
        <ele>773.9</ele>
        <time>2020-11-11T08:21:13Z</time>
      </trkpt>
      <trkpt lat="28.5331830" lon="-16.2489130">
        <ele>772.9</ele>
        <time>2020-11-11T08:21:14Z</time>
      </trkpt>
      <trkpt lat="28.5332170" lon="-16.2490530">
        <ele>772.9</ele>
        <time>2020-11-11T08:21:15Z</time>
      </trkpt>
      <trkpt lat="28.5332170" lon="-16.2490530">
        <ele>770.9</ele>
        <time>2020-11-11T08:21:16Z</time>
      </trkpt>
      <trkpt lat="28.5332750" lon="-16.2492050">
        <ele>770.9</ele>
        <time>2020-11-11T08:21:17Z</time>
      </trkpt>
      <trkpt lat="28.5332750" lon="-16.2492050">
        <ele>769.9</ele>
        <time>2020-11-11T08:21:18Z</time>
      </trkpt>
      <trkpt lat="28.5333350" lon="-16.2493920">
        <ele>769.9</ele>
        <time>2020-11-11T08:21:19Z</time>
      </trkpt>
      <trkpt lat="28.5333350" lon="-16.2493920">
        <ele>768.9</ele>
        <time>2020-11-11T08:21:20Z</time>
      </trkpt>
      <trkpt lat="28.5333400" lon="-16.2495900">
        <ele>768.9</ele>
        <time>2020-11-11T08:21:21Z</time>
      </trkpt>
      <trkpt lat="28.5333400" lon="-16.2495900">
        <ele>766.9</ele>
        <time>2020-11-11T08:21:22Z</time>
      </trkpt>
      <trkpt lat="28.5333870" lon="-16.2497580">
        <ele>766.9</ele>
        <time>2020-11-11T08:21:23Z</time>
      </trkpt>
      <trkpt lat="28.5333870" lon="-16.2497580">
        <ele>765.9</ele>
        <time>2020-11-11T08:21:24Z</time>
      </trkpt>
      <trkpt lat="28.5334500" lon="-16.2499300">
        <ele>765.9</ele>
        <time>2020-11-11T08:21:25Z</time>
      </trkpt>
      <trkpt lat="28.5334500" lon="-16.2499300">
        <ele>764.9</ele>
        <time>2020-11-11T08:21:26Z</time>
      </trkpt>
      <trkpt lat="28.5334550" lon="-16.2501080">
        <ele>764.9</ele>
        <time>2020-11-11T08:21:27Z</time>
      </trkpt>
      <trkpt lat="28.5334300" lon="-16.2501920">
        <ele>764.9</ele>
        <time>2020-11-11T08:21:28Z</time>
      </trkpt>
      <trkpt lat="28.5334070" lon="-16.2502720">
        <ele>764.9</ele>
        <time>2020-11-11T08:21:29Z</time>
      </trkpt>
      <trkpt lat="28.5334070" lon="-16.2502720">
        <ele>763.9</ele>
        <time>2020-11-11T08:21:30Z</time>
      </trkpt>
      <trkpt lat="28.5333800" lon="-16.2504420">
        <ele>763.9</ele>
        <time>2020-11-11T08:21:31Z</time>
      </trkpt>
      <trkpt lat="28.5333800" lon="-16.2504420">
        <ele>763.9</ele>
        <time>2020-11-11T08:21:32Z</time>
      </trkpt>
      <trkpt lat="28.5333850" lon="-16.2506120">
        <ele>762.9</ele>
        <time>2020-11-11T08:21:33Z</time>
      </trkpt>
      <trkpt lat="28.5333850" lon="-16.2506120">
        <ele>762.9</ele>
        <time>2020-11-11T08:21:34Z</time>
      </trkpt>
      <trkpt lat="28.5333970" lon="-16.2507830">
        <ele>762.9</ele>
        <time>2020-11-11T08:21:35Z</time>
      </trkpt>
      <trkpt lat="28.5333970" lon="-16.2507830">
        <ele>762.9</ele>
        <time>2020-11-11T08:21:36Z</time>
      </trkpt>
      <trkpt lat="28.5334170" lon="-16.2509570">
        <ele>761.9</ele>
        <time>2020-11-11T08:21:37Z</time>
      </trkpt>
      <trkpt lat="28.5334170" lon="-16.2509570">
        <ele>761.9</ele>
        <time>2020-11-11T08:21:38Z</time>
      </trkpt>
      <trkpt lat="28.5334400" lon="-16.2511230">
        <ele>761.9</ele>
        <time>2020-11-11T08:21:39Z</time>
      </trkpt>
      <trkpt lat="28.5334400" lon="-16.2511230">
        <ele>761.9</ele>
        <time>2020-11-11T08:21:40Z</time>
      </trkpt>
      <trkpt lat="28.5334600" lon="-16.2512900">
        <ele>760.9</ele>
        <time>2020-11-11T08:21:41Z</time>
      </trkpt>
      <trkpt lat="28.5334730" lon="-16.2513700">
        <ele>760.9</ele>
        <time>2020-11-11T08:21:42Z</time>
      </trkpt>
      <trkpt lat="28.5334730" lon="-16.2513700">
        <ele>760.9</ele>
        <time>2020-11-11T08:21:43Z</time>
      </trkpt>
      <trkpt lat="28.5334980" lon="-16.2515320">
        <ele>760.9</ele>
        <time>2020-11-11T08:21:44Z</time>
      </trkpt>
      <trkpt lat="28.5335030" lon="-16.2516150">
        <ele>760.9</ele>
        <time>2020-11-11T08:21:45Z</time>
      </trkpt>
      <trkpt lat="28.5335030" lon="-16.2516150">
        <ele>760.9</ele>
        <time>2020-11-11T08:21:46Z</time>
      </trkpt>
      <trkpt lat="28.5335000" lon="-16.2517780">
        <ele>760.9</ele>
        <time>2020-11-11T08:21:47Z</time>
      </trkpt>
      <trkpt lat="28.5334830" lon="-16.2518570">
        <ele>760.9</ele>
        <time>2020-11-11T08:21:48Z</time>
      </trkpt>
      <trkpt lat="28.5334620" lon="-16.2519320">
        <ele>760.9</ele>
        <time>2020-11-11T08:21:49Z</time>
      </trkpt>
      <trkpt lat="28.5334620" lon="-16.2519320">
        <ele>760.9</ele>
        <time>2020-11-11T08:21:50Z</time>
      </trkpt>
      <trkpt lat="28.5334150" lon="-16.2520850">
        <ele>759.9</ele>
        <time>2020-11-11T08:21:51Z</time>
      </trkpt>
      <trkpt lat="28.5334150" lon="-16.2520850">
        <ele>759.9</ele>
        <time>2020-11-11T08:21:52Z</time>
      </trkpt>
      <trkpt lat="28.5333700" lon="-16.2522350">
        <ele>759.9</ele>
        <time>2020-11-11T08:21:53Z</time>
      </trkpt>
      <trkpt lat="28.5333700" lon="-16.2522350">
        <ele>759.9</ele>
        <time>2020-11-11T08:21:54Z</time>
      </trkpt>
      <trkpt lat="28.5333330" lon="-16.2523730">
        <ele>759.9</ele>
        <time>2020-11-11T08:21:55Z</time>
      </trkpt>
      <trkpt lat="28.5333330" lon="-16.2523730">
        <ele>759.9</ele>
        <time>2020-11-11T08:21:56Z</time>
      </trkpt>
      <trkpt lat="28.5333080" lon="-16.2525000">
        <ele>759.9</ele>
        <time>2020-11-11T08:21:57Z</time>
      </trkpt>
      <trkpt lat="28.5333020" lon="-16.2525500">
        <ele>759.9</ele>
        <time>2020-11-11T08:21:58Z</time>
      </trkpt>
      <trkpt lat="28.5333020" lon="-16.2525500">
        <ele>759.9</ele>
        <time>2020-11-11T08:21:59Z</time>
      </trkpt>
      <trkpt lat="28.5332820" lon="-16.2526150">
        <ele>759.9</ele>
        <time>2020-11-11T08:22:00Z</time>
      </trkpt>
      <trkpt lat="28.5332720" lon="-16.2526380">
        <ele>759.9</ele>
        <time>2020-11-11T08:22:01Z</time>
      </trkpt>
      <trkpt lat="28.5332720" lon="-16.2526380">
        <ele>759.9</ele>
        <time>2020-11-11T08:22:02Z</time>
      </trkpt>
      <trkpt lat="28.5332550" lon="-16.2526850">
        <ele>760.9</ele>
        <time>2020-11-11T08:22:03Z</time>
      </trkpt>
      <trkpt lat="28.5332550" lon="-16.2526850">
        <ele>760.9</ele>
        <time>2020-11-11T08:22:04Z</time>
      </trkpt>
      <trkpt lat="28.5332450" lon="-16.2527330">
        <ele>760.9</ele>
        <time>2020-11-11T08:22:05Z</time>
      </trkpt>
      <trkpt lat="28.5332450" lon="-16.2527330">
        <ele>760.9</ele>
        <time>2020-11-11T08:22:06Z</time>
      </trkpt>
      <trkpt lat="28.5332320" lon="-16.2527780">
        <ele>760.9</ele>
        <time>2020-11-11T08:22:07Z</time>
      </trkpt>
      <trkpt lat="28.5332320" lon="-16.2527780">
        <ele>760.9</ele>
        <time>2020-11-11T08:22:08Z</time>
      </trkpt>
      <trkpt lat="28.5332270" lon="-16.2528220">
        <ele>762.9</ele>
        <time>2020-11-11T08:22:09Z</time>
      </trkpt>
      <trkpt lat="28.5332230" lon="-16.2528450">
        <ele>762.9</ele>
        <time>2020-11-11T08:22:10Z</time>
      </trkpt>
      <trkpt lat="28.5332230" lon="-16.2528450">
        <ele>762.9</ele>
        <time>2020-11-11T08:22:11Z</time>
      </trkpt>
      <trkpt lat="28.5332130" lon="-16.2528820">
        <ele>762.9</ele>
        <time>2020-11-11T08:22:12Z</time>
      </trkpt>
      <trkpt lat="28.5332080" lon="-16.2529070">
        <ele>762.9</ele>
        <time>2020-11-11T08:22:13Z</time>
      </trkpt>
      <trkpt lat="28.5332080" lon="-16.2529070">
        <ele>762.9</ele>
        <time>2020-11-11T08:22:14Z</time>
      </trkpt>
      <trkpt lat="28.5332100" lon="-16.2529480">
        <ele>762.9</ele>
        <time>2020-11-11T08:22:15Z</time>
      </trkpt>
      <trkpt lat="28.5332100" lon="-16.2529480">
        <ele>762.9</ele>
        <time>2020-11-11T08:22:16Z</time>
      </trkpt>
      <trkpt lat="28.5332100" lon="-16.2529870">
        <ele>764.9</ele>
        <time>2020-11-11T08:22:17Z</time>
      </trkpt>
      <trkpt lat="28.5332100" lon="-16.2529870">
        <ele>764.9</ele>
        <time>2020-11-11T08:22:18Z</time>
      </trkpt>
      <trkpt lat="28.5332050" lon="-16.2530170">
        <ele>764.9</ele>
        <time>2020-11-11T08:22:19Z</time>
      </trkpt>
      <trkpt lat="28.5332100" lon="-16.2530300">
        <ele>764.9</ele>
        <time>2020-11-11T08:22:20Z</time>
      </trkpt>
      <trkpt lat="28.5332100" lon="-16.2530300">
        <ele>764.9</ele>
        <time>2020-11-11T08:22:21Z</time>
      </trkpt>
      <trkpt lat="28.5332070" lon="-16.2530670">
        <ele>764.9</ele>
        <time>2020-11-11T08:22:22Z</time>
      </trkpt>
      <trkpt lat="28.5332100" lon="-16.2530780">
        <ele>765.9</ele>
        <time>2020-11-11T08:22:23Z</time>
      </trkpt>
      <trkpt lat="28.5332170" lon="-16.2530930">
        <ele>765.9</ele>
        <time>2020-11-11T08:22:24Z</time>
      </trkpt>
      <trkpt lat="28.5332170" lon="-16.2530930">
        <ele>765.9</ele>
        <time>2020-11-11T08:22:25Z</time>
      </trkpt>
      <trkpt lat="28.5332250" lon="-16.2531220">
        <ele>765.9</ele>
        <time>2020-11-11T08:22:26Z</time>
      </trkpt>
      <trkpt lat="28.5332250" lon="-16.2531220">
        <ele>766.9</ele>
        <time>2020-11-11T08:22:27Z</time>
      </trkpt>
      <trkpt lat="28.5332420" lon="-16.2531470">
        <ele>766.9</ele>
        <time>2020-11-11T08:22:28Z</time>
      </trkpt>
      <trkpt lat="28.5332420" lon="-16.2531470">
        <ele>766.9</ele>
        <time>2020-11-11T08:22:29Z</time>
      </trkpt>
      <trkpt lat="28.5332530" lon="-16.2531730">
        <ele>766.9</ele>
        <time>2020-11-11T08:22:30Z</time>
      </trkpt>
      <trkpt lat="28.5332570" lon="-16.2531970">
        <ele>767.9</ele>
        <time>2020-11-11T08:22:31Z</time>
      </trkpt>
      <trkpt lat="28.5332570" lon="-16.2531970">
        <ele>767.9</ele>
        <time>2020-11-11T08:22:32Z</time>
      </trkpt>
      <trkpt lat="28.5332730" lon="-16.2532770">
        <ele>767.9</ele>
        <time>2020-11-11T08:22:33Z</time>
      </trkpt>
      <trkpt lat="28.5332800" lon="-16.2533030">
        <ele>767.9</ele>
        <time>2020-11-11T08:22:34Z</time>
      </trkpt>
      <trkpt lat="28.5332800" lon="-16.2533030">
        <ele>768.9</ele>
        <time>2020-11-11T08:22:35Z</time>
      </trkpt>
      <trkpt lat="28.5332930" lon="-16.2533500">
        <ele>768.9</ele>
        <time>2020-11-11T08:22:36Z</time>
      </trkpt>
      <trkpt lat="28.5332930" lon="-16.2533500">
        <ele>768.9</ele>
        <time>2020-11-11T08:22:37Z</time>
      </trkpt>
      <trkpt lat="28.5333180" lon="-16.2533880">
        <ele>768.9</ele>
        <time>2020-11-11T08:22:38Z</time>
      </trkpt>
      <trkpt lat="28.5333180" lon="-16.2533880">
        <ele>769.9</ele>
        <time>2020-11-11T08:22:39Z</time>
      </trkpt>
      <trkpt lat="28.5333320" lon="-16.2534270">
        <ele>769.9</ele>
        <time>2020-11-11T08:22:40Z</time>
      </trkpt>
      <trkpt lat="28.5333320" lon="-16.2534270">
        <ele>769.9</ele>
        <time>2020-11-11T08:22:41Z</time>
      </trkpt>
      <trkpt lat="28.5333750" lon="-16.2534630">
        <ele>769.9</ele>
        <time>2020-11-11T08:22:42Z</time>
      </trkpt>
      <trkpt lat="28.5333900" lon="-16.2534780">
        <ele>770.9</ele>
        <time>2020-11-11T08:22:43Z</time>
      </trkpt>
      <trkpt lat="28.5333900" lon="-16.2534780">
        <ele>770.9</ele>
        <time>2020-11-11T08:22:44Z</time>
      </trkpt>
      <trkpt lat="28.5334150" lon="-16.2535170">
        <ele>770.9</ele>
        <time>2020-11-11T08:22:45Z</time>
      </trkpt>
      <trkpt lat="28.5334150" lon="-16.2535170">
        <ele>770.9</ele>
        <time>2020-11-11T08:22:46Z</time>
      </trkpt>
      <trkpt lat="28.5334570" lon="-16.2535470">
        <ele>770.9</ele>
        <time>2020-11-11T08:22:47Z</time>
      </trkpt>
      <trkpt lat="28.5334570" lon="-16.2535470">
        <ele>770.9</ele>
        <time>2020-11-11T08:22:48Z</time>
      </trkpt>
      <trkpt lat="28.5334770" lon="-16.2535830">
        <ele>770.9</ele>
        <time>2020-11-11T08:22:49Z</time>
      </trkpt>
      <trkpt lat="28.5334770" lon="-16.2535830">
        <ele>771.9</ele>
        <time>2020-11-11T08:22:50Z</time>
      </trkpt>
      <trkpt lat="28.5334830" lon="-16.2536330">
        <ele>771.9</ele>
        <time>2020-11-11T08:22:51Z</time>
      </trkpt>
      <trkpt lat="28.5334830" lon="-16.2536330">
        <ele>771.9</ele>
        <time>2020-11-11T08:22:52Z</time>
      </trkpt>
      <trkpt lat="28.5335050" lon="-16.2536800">
        <ele>772.9</ele>
        <time>2020-11-11T08:22:53Z</time>
      </trkpt>
      <trkpt lat="28.5335050" lon="-16.2536800">
        <ele>772.9</ele>
        <time>2020-11-11T08:22:54Z</time>
      </trkpt>
      <trkpt lat="28.5335250" lon="-16.2537250">
        <ele>772.9</ele>
        <time>2020-11-11T08:22:55Z</time>
      </trkpt>
      <trkpt lat="28.5335250" lon="-16.2537250">
        <ele>772.9</ele>
        <time>2020-11-11T08:22:56Z</time>
      </trkpt>
      <trkpt lat="28.5335420" lon="-16.2537770">
        <ele>772.9</ele>
        <time>2020-11-11T08:22:57Z</time>
      </trkpt>
      <trkpt lat="28.5335420" lon="-16.2537770">
        <ele>772.9</ele>
        <time>2020-11-11T08:22:58Z</time>
      </trkpt>
      <trkpt lat="28.5335600" lon="-16.2538350">
        <ele>772.9</ele>
        <time>2020-11-11T08:22:59Z</time>
      </trkpt>
      <trkpt lat="28.5335630" lon="-16.2538670">
        <ele>772.9</ele>
        <time>2020-11-11T08:23:00Z</time>
      </trkpt>
      <trkpt lat="28.5335630" lon="-16.2538670">
        <ele>772.9</ele>
        <time>2020-11-11T08:23:01Z</time>
      </trkpt>
      <trkpt lat="28.5335730" lon="-16.2539280">
        <ele>773.9</ele>
        <time>2020-11-11T08:23:02Z</time>
      </trkpt>
      <trkpt lat="28.5335750" lon="-16.2539650">
        <ele>773.9</ele>
        <time>2020-11-11T08:23:03Z</time>
      </trkpt>
      <trkpt lat="28.5335680" lon="-16.2540000">
        <ele>773.9</ele>
        <time>2020-11-11T08:23:04Z</time>
      </trkpt>
      <trkpt lat="28.5335680" lon="-16.2540000">
        <ele>773.9</ele>
        <time>2020-11-11T08:23:05Z</time>
      </trkpt>
      <trkpt lat="28.5335450" lon="-16.2540630">
        <ele>773.9</ele>
        <time>2020-11-11T08:23:06Z</time>
      </trkpt>
      <trkpt lat="28.5335450" lon="-16.2540630">
        <ele>773.9</ele>
        <time>2020-11-11T08:23:07Z</time>
      </trkpt>
      <trkpt lat="28.5335180" lon="-16.2541250">
        <ele>773.9</ele>
        <time>2020-11-11T08:23:08Z</time>
      </trkpt>
      <trkpt lat="28.5334980" lon="-16.2541530">
        <ele>773.9</ele>
        <time>2020-11-11T08:23:09Z</time>
      </trkpt>
      <trkpt lat="28.5334980" lon="-16.2541530">
        <ele>773.9</ele>
        <time>2020-11-11T08:23:10Z</time>
      </trkpt>
      <trkpt lat="28.5334520" lon="-16.2542120">
        <ele>773.9</ele>
        <time>2020-11-11T08:23:11Z</time>
      </trkpt>
      <trkpt lat="28.5334520" lon="-16.2542120">
        <ele>773.9</ele>
        <time>2020-11-11T08:23:12Z</time>
      </trkpt>
      <trkpt lat="28.5334120" lon="-16.2542600">
        <ele>773.9</ele>
        <time>2020-11-11T08:23:13Z</time>
      </trkpt>
      <trkpt lat="28.5334120" lon="-16.2542600">
        <ele>773.9</ele>
        <time>2020-11-11T08:23:14Z</time>
      </trkpt>
      <trkpt lat="28.5333720" lon="-16.2543020">
        <ele>773.9</ele>
        <time>2020-11-11T08:23:15Z</time>
      </trkpt>
      <trkpt lat="28.5333720" lon="-16.2543020">
        <ele>773.9</ele>
        <time>2020-11-11T08:23:16Z</time>
      </trkpt>
      <trkpt lat="28.5333450" lon="-16.2543520">
        <ele>773.9</ele>
        <time>2020-11-11T08:23:17Z</time>
      </trkpt>
      <trkpt lat="28.5333450" lon="-16.2543520">
        <ele>773.9</ele>
        <time>2020-11-11T08:23:18Z</time>
      </trkpt>
      <trkpt lat="28.5333170" lon="-16.2544200">
        <ele>773.9</ele>
        <time>2020-11-11T08:23:19Z</time>
      </trkpt>
      <trkpt lat="28.5333170" lon="-16.2544200">
        <ele>773.9</ele>
        <time>2020-11-11T08:23:20Z</time>
      </trkpt>
      <trkpt lat="28.5333080" lon="-16.2544980">
        <ele>773.9</ele>
        <time>2020-11-11T08:23:21Z</time>
      </trkpt>
      <trkpt lat="28.5333070" lon="-16.2545320">
        <ele>773.9</ele>
        <time>2020-11-11T08:23:22Z</time>
      </trkpt>
      <trkpt lat="28.5333070" lon="-16.2545320">
        <ele>774.9</ele>
        <time>2020-11-11T08:23:23Z</time>
      </trkpt>
      <trkpt lat="28.5333070" lon="-16.2545970">
        <ele>774.9</ele>
        <time>2020-11-11T08:23:24Z</time>
      </trkpt>
      <trkpt lat="28.5333080" lon="-16.2546300">
        <ele>775.9</ele>
        <time>2020-11-11T08:23:25Z</time>
      </trkpt>
      <trkpt lat="28.5333030" lon="-16.2546670">
        <ele>775.9</ele>
        <time>2020-11-11T08:23:26Z</time>
      </trkpt>
      <trkpt lat="28.5333030" lon="-16.2546670">
        <ele>774.9</ele>
        <time>2020-11-11T08:23:27Z</time>
      </trkpt>
      <trkpt lat="28.5332970" lon="-16.2547350">
        <ele>774.9</ele>
        <time>2020-11-11T08:23:28Z</time>
      </trkpt>
      <trkpt lat="28.5332970" lon="-16.2547350">
        <ele>775.9</ele>
        <time>2020-11-11T08:23:29Z</time>
      </trkpt>
      <trkpt lat="28.5332870" lon="-16.2548100">
        <ele>775.9</ele>
        <time>2020-11-11T08:23:30Z</time>
      </trkpt>
      <trkpt lat="28.5332870" lon="-16.2548100">
        <ele>774.9</ele>
        <time>2020-11-11T08:23:31Z</time>
      </trkpt>
      <trkpt lat="28.5332820" lon="-16.2548700">
        <ele>774.9</ele>
        <time>2020-11-11T08:23:32Z</time>
      </trkpt>
      <trkpt lat="28.5332780" lon="-16.2549050">
        <ele>774.9</ele>
        <time>2020-11-11T08:23:33Z</time>
      </trkpt>
      <trkpt lat="28.5332780" lon="-16.2549050">
        <ele>775.9</ele>
        <time>2020-11-11T08:23:34Z</time>
      </trkpt>
      <trkpt lat="28.5332680" lon="-16.2549770">
        <ele>775.9</ele>
        <time>2020-11-11T08:23:35Z</time>
      </trkpt>
      <trkpt lat="28.5332630" lon="-16.2550070">
        <ele>775.9</ele>
        <time>2020-11-11T08:23:36Z</time>
      </trkpt>
      <trkpt lat="28.5332630" lon="-16.2550070">
        <ele>775.9</ele>
        <time>2020-11-11T08:23:37Z</time>
      </trkpt>
      <trkpt lat="28.5332550" lon="-16.2550650">
        <ele>776.9</ele>
        <time>2020-11-11T08:23:38Z</time>
      </trkpt>
      <trkpt lat="28.5332550" lon="-16.2550650">
        <ele>776.9</ele>
        <time>2020-11-11T08:23:39Z</time>
      </trkpt>
      <trkpt lat="28.5332500" lon="-16.2551470">
        <ele>776.9</ele>
        <time>2020-11-11T08:23:40Z</time>
      </trkpt>
      <trkpt lat="28.5332500" lon="-16.2551470">
        <ele>776.9</ele>
        <time>2020-11-11T08:23:41Z</time>
      </trkpt>
      <trkpt lat="28.5332670" lon="-16.2552100">
        <ele>777.9</ele>
        <time>2020-11-11T08:23:42Z</time>
      </trkpt>
      <trkpt lat="28.5332670" lon="-16.2552100">
        <ele>777.9</ele>
        <time>2020-11-11T08:23:43Z</time>
      </trkpt>
      <trkpt lat="28.5332920" lon="-16.2552630">
        <ele>777.9</ele>
        <time>2020-11-11T08:23:44Z</time>
      </trkpt>
      <trkpt lat="28.5333070" lon="-16.2552880">
        <ele>777.9</ele>
        <time>2020-11-11T08:23:45Z</time>
      </trkpt>
      <trkpt lat="28.5333070" lon="-16.2552880">
        <ele>778.9</ele>
        <time>2020-11-11T08:23:46Z</time>
      </trkpt>
      <trkpt lat="28.5333270" lon="-16.2553430">
        <ele>778.9</ele>
        <time>2020-11-11T08:23:47Z</time>
      </trkpt>
      <trkpt lat="28.5333270" lon="-16.2553430">
        <ele>778.9</ele>
        <time>2020-11-11T08:23:48Z</time>
      </trkpt>
      <trkpt lat="28.5333530" lon="-16.2553870">
        <ele>778.9</ele>
        <time>2020-11-11T08:23:49Z</time>
      </trkpt>
      <trkpt lat="28.5333530" lon="-16.2553870">
        <ele>778.9</ele>
        <time>2020-11-11T08:23:50Z</time>
      </trkpt>
      <trkpt lat="28.5333720" lon="-16.2554370">
        <ele>778.9</ele>
        <time>2020-11-11T08:23:51Z</time>
      </trkpt>
      <trkpt lat="28.5333720" lon="-16.2554370">
        <ele>778.9</ele>
        <time>2020-11-11T08:23:52Z</time>
      </trkpt>
      <trkpt lat="28.5333950" lon="-16.2554720">
        <ele>779.9</ele>
        <time>2020-11-11T08:23:53Z</time>
      </trkpt>
      <trkpt lat="28.5333950" lon="-16.2554720">
        <ele>779.9</ele>
        <time>2020-11-11T08:23:54Z</time>
      </trkpt>
      <trkpt lat="28.5334220" lon="-16.2555050">
        <ele>779.9</ele>
        <time>2020-11-11T08:23:55Z</time>
      </trkpt>
      <trkpt lat="28.5334220" lon="-16.2555050">
        <ele>779.9</ele>
        <time>2020-11-11T08:23:56Z</time>
      </trkpt>
      <trkpt lat="28.5334400" lon="-16.2555400">
        <ele>780.9</ele>
        <time>2020-11-11T08:23:57Z</time>
      </trkpt>
      <trkpt lat="28.5334530" lon="-16.2555580">
        <ele>780.9</ele>
        <time>2020-11-11T08:23:58Z</time>
      </trkpt>
      <trkpt lat="28.5334530" lon="-16.2555580">
        <ele>780.9</ele>
        <time>2020-11-11T08:23:59Z</time>
      </trkpt>
      <trkpt lat="28.5334780" lon="-16.2555930">
        <ele>780.9</ele>
        <time>2020-11-11T08:24:00Z</time>
      </trkpt>
      <trkpt lat="28.5334830" lon="-16.2556120">
        <ele>780.9</ele>
        <time>2020-11-11T08:24:01Z</time>
      </trkpt>
      <trkpt lat="28.5334830" lon="-16.2556120">
        <ele>781.9</ele>
        <time>2020-11-11T08:24:02Z</time>
      </trkpt>
      <trkpt lat="28.5334830" lon="-16.2556570">
        <ele>781.9</ele>
        <time>2020-11-11T08:24:03Z</time>
      </trkpt>
      <trkpt lat="28.5334780" lon="-16.2556800">
        <ele>781.9</ele>
        <time>2020-11-11T08:24:04Z</time>
      </trkpt>
      <trkpt lat="28.5334780" lon="-16.2556800">
        <ele>781.9</ele>
        <time>2020-11-11T08:24:05Z</time>
      </trkpt>
      <trkpt lat="28.5334580" lon="-16.2557330">
        <ele>781.9</ele>
        <time>2020-11-11T08:24:06Z</time>
      </trkpt>
      <trkpt lat="28.5334500" lon="-16.2557600">
        <ele>781.9</ele>
        <time>2020-11-11T08:24:07Z</time>
      </trkpt>
      <trkpt lat="28.5334500" lon="-16.2557600">
        <ele>782.9</ele>
        <time>2020-11-11T08:24:08Z</time>
      </trkpt>
      <trkpt lat="28.5334480" lon="-16.2558070">
        <ele>782.9</ele>
        <time>2020-11-11T08:24:09Z</time>
      </trkpt>
      <trkpt lat="28.5334430" lon="-16.2558250">
        <ele>782.9</ele>
        <time>2020-11-11T08:24:10Z</time>
      </trkpt>
      <trkpt lat="28.5334430" lon="-16.2558250">
        <ele>782.9</ele>
        <time>2020-11-11T08:24:11Z</time>
      </trkpt>
      <trkpt lat="28.5334270" lon="-16.2558630">
        <ele>782.9</ele>
        <time>2020-11-11T08:24:12Z</time>
      </trkpt>
      <trkpt lat="28.5334150" lon="-16.2558830">
        <ele>783.9</ele>
        <time>2020-11-11T08:24:13Z</time>
      </trkpt>
      <trkpt lat="28.5334150" lon="-16.2558830">
        <ele>783.9</ele>
        <time>2020-11-11T08:24:14Z</time>
      </trkpt>
      <trkpt lat="28.5333850" lon="-16.2559180">
        <ele>783.9</ele>
        <time>2020-11-11T08:24:15Z</time>
      </trkpt>
      <trkpt lat="28.5333850" lon="-16.2559180">
        <ele>783.9</ele>
        <time>2020-11-11T08:24:16Z</time>
      </trkpt>
      <trkpt lat="28.5333650" lon="-16.2559570">
        <ele>783.9</ele>
        <time>2020-11-11T08:24:17Z</time>
      </trkpt>
      <trkpt lat="28.5333650" lon="-16.2559570">
        <ele>783.9</ele>
        <time>2020-11-11T08:24:18Z</time>
      </trkpt>
      <trkpt lat="28.5333450" lon="-16.2559880">
        <ele>783.9</ele>
        <time>2020-11-11T08:24:19Z</time>
      </trkpt>
      <trkpt lat="28.5333450" lon="-16.2559880">
        <ele>783.9</ele>
        <time>2020-11-11T08:24:20Z</time>
      </trkpt>
      <trkpt lat="28.5333320" lon="-16.2560230">
        <ele>783.9</ele>
        <time>2020-11-11T08:24:21Z</time>
      </trkpt>
      <trkpt lat="28.5333320" lon="-16.2560230">
        <ele>783.9</ele>
        <time>2020-11-11T08:24:22Z</time>
      </trkpt>
      <trkpt lat="28.5333230" lon="-16.2560520">
        <ele>783.9</ele>
        <time>2020-11-11T08:24:23Z</time>
      </trkpt>
      <trkpt lat="28.5333150" lon="-16.2560650">
        <ele>783.9</ele>
        <time>2020-11-11T08:24:24Z</time>
      </trkpt>
      <trkpt lat="28.5333150" lon="-16.2560650">
        <ele>784.9</ele>
        <time>2020-11-11T08:24:25Z</time>
      </trkpt>
      <trkpt lat="28.5333020" lon="-16.2560950">
        <ele>784.9</ele>
        <time>2020-11-11T08:24:26Z</time>
      </trkpt>
      <trkpt lat="28.5333020" lon="-16.2560950">
        <ele>784.9</ele>
        <time>2020-11-11T08:24:27Z</time>
      </trkpt>
      <trkpt lat="28.5332920" lon="-16.2561300">
        <ele>784.9</ele>
        <time>2020-11-11T08:24:28Z</time>
      </trkpt>
      <trkpt lat="28.5332920" lon="-16.2561300">
        <ele>785.9</ele>
        <time>2020-11-11T08:24:29Z</time>
      </trkpt>
      <trkpt lat="28.5332820" lon="-16.2561620">
        <ele>785.9</ele>
        <time>2020-11-11T08:24:30Z</time>
      </trkpt>
      <trkpt lat="28.5332820" lon="-16.2561620">
        <ele>785.9</ele>
        <time>2020-11-11T08:24:31Z</time>
      </trkpt>
      <trkpt lat="28.5332620" lon="-16.2561900">
        <ele>785.9</ele>
        <time>2020-11-11T08:24:32Z</time>
      </trkpt>
      <trkpt lat="28.5332580" lon="-16.2562180">
        <ele>785.9</ele>
        <time>2020-11-11T08:24:33Z</time>
      </trkpt>
      <trkpt lat="28.5332580" lon="-16.2562180">
        <ele>785.9</ele>
        <time>2020-11-11T08:24:34Z</time>
      </trkpt>
      <trkpt lat="28.5332400" lon="-16.2562650">
        <ele>786.9</ele>
        <time>2020-11-11T08:24:35Z</time>
      </trkpt>
      <trkpt lat="28.5332400" lon="-16.2562650">
        <ele>786.9</ele>
        <time>2020-11-11T08:24:36Z</time>
      </trkpt>
      <trkpt lat="28.5331920" lon="-16.2563120">
        <ele>786.9</ele>
        <time>2020-11-11T08:24:37Z</time>
      </trkpt>
      <trkpt lat="28.5331780" lon="-16.2563330">
        <ele>786.9</ele>
        <time>2020-11-11T08:24:38Z</time>
      </trkpt>
      <trkpt lat="28.5331780" lon="-16.2563330">
        <ele>786.9</ele>
        <time>2020-11-11T08:24:39Z</time>
      </trkpt>
      <trkpt lat="28.5331730" lon="-16.2563730">
        <ele>786.9</ele>
        <time>2020-11-11T08:24:40Z</time>
      </trkpt>
      <trkpt lat="28.5331620" lon="-16.2563880">
        <ele>786.9</ele>
        <time>2020-11-11T08:24:41Z</time>
      </trkpt>
      <trkpt lat="28.5331620" lon="-16.2563880">
        <ele>786.9</ele>
        <time>2020-11-11T08:24:42Z</time>
      </trkpt>
      <trkpt lat="28.5331380" lon="-16.2564250">
        <ele>787.9</ele>
        <time>2020-11-11T08:24:43Z</time>
      </trkpt>
      <trkpt lat="28.5331380" lon="-16.2564250">
        <ele>787.9</ele>
        <time>2020-11-11T08:24:44Z</time>
      </trkpt>
      <trkpt lat="28.5331300" lon="-16.2564700">
        <ele>787.9</ele>
        <time>2020-11-11T08:24:45Z</time>
      </trkpt>
      <trkpt lat="28.5331150" lon="-16.2564920">
        <ele>787.9</ele>
        <time>2020-11-11T08:24:46Z</time>
      </trkpt>
      <trkpt lat="28.5331150" lon="-16.2564920">
        <ele>787.9</ele>
        <time>2020-11-11T08:24:47Z</time>
      </trkpt>
      <trkpt lat="28.5330930" lon="-16.2565330">
        <ele>787.9</ele>
        <time>2020-11-11T08:24:48Z</time>
      </trkpt>
      <trkpt lat="28.5330850" lon="-16.2565520">
        <ele>787.9</ele>
        <time>2020-11-11T08:24:49Z</time>
      </trkpt>
      <trkpt lat="28.5330850" lon="-16.2565520">
        <ele>787.9</ele>
        <time>2020-11-11T08:24:50Z</time>
      </trkpt>
      <trkpt lat="28.5330720" lon="-16.2565830">
        <ele>787.9</ele>
        <time>2020-11-11T08:24:51Z</time>
      </trkpt>
      <trkpt lat="28.5330720" lon="-16.2565830">
        <ele>788.9</ele>
        <time>2020-11-11T08:24:52Z</time>
      </trkpt>
      <trkpt lat="28.5330580" lon="-16.2566180">
        <ele>788.9</ele>
        <time>2020-11-11T08:24:53Z</time>
      </trkpt>
      <trkpt lat="28.5330580" lon="-16.2566180">
        <ele>788.9</ele>
        <time>2020-11-11T08:24:54Z</time>
      </trkpt>
      <trkpt lat="28.5330550" lon="-16.2566580">
        <ele>788.9</ele>
        <time>2020-11-11T08:24:55Z</time>
      </trkpt>
      <trkpt lat="28.5330550" lon="-16.2566580">
        <ele>788.9</ele>
        <time>2020-11-11T08:24:56Z</time>
      </trkpt>
      <trkpt lat="28.5330270" lon="-16.2566980">
        <ele>788.9</ele>
        <time>2020-11-11T08:24:57Z</time>
      </trkpt>
      <trkpt lat="28.5330080" lon="-16.2567130">
        <ele>789.9</ele>
        <time>2020-11-11T08:24:58Z</time>
      </trkpt>
      <trkpt lat="28.5330080" lon="-16.2567130">
        <ele>789.9</ele>
        <time>2020-11-11T08:24:59Z</time>
      </trkpt>
      <trkpt lat="28.5329850" lon="-16.2567620">
        <ele>789.9</ele>
        <time>2020-11-11T08:25:00Z</time>
      </trkpt>
      <trkpt lat="28.5329850" lon="-16.2567620">
        <ele>789.9</ele>
        <time>2020-11-11T08:25:01Z</time>
      </trkpt>
      <trkpt lat="28.5329800" lon="-16.2568030">
        <ele>790.9</ele>
        <time>2020-11-11T08:25:02Z</time>
      </trkpt>
      <trkpt lat="28.5329800" lon="-16.2568030">
        <ele>790.9</ele>
        <time>2020-11-11T08:25:03Z</time>
      </trkpt>
      <trkpt lat="28.5329750" lon="-16.2568430">
        <ele>790.9</ele>
        <time>2020-11-11T08:25:04Z</time>
      </trkpt>
      <trkpt lat="28.5329750" lon="-16.2568430">
        <ele>790.9</ele>
        <time>2020-11-11T08:25:05Z</time>
      </trkpt>
      <trkpt lat="28.5329750" lon="-16.2568750">
        <ele>790.9</ele>
        <time>2020-11-11T08:25:06Z</time>
      </trkpt>
      <trkpt lat="28.5329830" lon="-16.2568850">
        <ele>790.9</ele>
        <time>2020-11-11T08:25:07Z</time>
      </trkpt>
      <trkpt lat="28.5329830" lon="-16.2568850">
        <ele>790.9</ele>
        <time>2020-11-11T08:25:08Z</time>
      </trkpt>
      <trkpt lat="28.5329920" lon="-16.2569580">
        <ele>790.9</ele>
        <time>2020-11-11T08:25:09Z</time>
      </trkpt>
      <trkpt lat="28.5329920" lon="-16.2569580">
        <ele>791.9</ele>
        <time>2020-11-11T08:25:10Z</time>
      </trkpt>
      <trkpt lat="28.5330100" lon="-16.2570220">
        <ele>791.9</ele>
        <time>2020-11-11T08:25:11Z</time>
      </trkpt>
      <trkpt lat="28.5330100" lon="-16.2570220">
        <ele>791.9</ele>
        <time>2020-11-11T08:25:12Z</time>
      </trkpt>
      <trkpt lat="28.5330180" lon="-16.2570820">
        <ele>791.9</ele>
        <time>2020-11-11T08:25:13Z</time>
      </trkpt>
      <trkpt lat="28.5330180" lon="-16.2570820">
        <ele>792.9</ele>
        <time>2020-11-11T08:25:14Z</time>
      </trkpt>
      <trkpt lat="28.5330300" lon="-16.2571350">
        <ele>792.9</ele>
        <time>2020-11-11T08:25:15Z</time>
      </trkpt>
      <trkpt lat="28.5330350" lon="-16.2571650">
        <ele>792.9</ele>
        <time>2020-11-11T08:25:16Z</time>
      </trkpt>
      <trkpt lat="28.5330400" lon="-16.2571930">
        <ele>792.9</ele>
        <time>2020-11-11T08:25:17Z</time>
      </trkpt>
      <trkpt lat="28.5330400" lon="-16.2571930">
        <ele>793.9</ele>
        <time>2020-11-11T08:25:18Z</time>
      </trkpt>
      <trkpt lat="28.5330450" lon="-16.2572450">
        <ele>793.9</ele>
        <time>2020-11-11T08:25:19Z</time>
      </trkpt>
      <trkpt lat="28.5330450" lon="-16.2572450">
        <ele>793.9</ele>
        <time>2020-11-11T08:25:20Z</time>
      </trkpt>
      <trkpt lat="28.5330350" lon="-16.2572980">
        <ele>793.9</ele>
        <time>2020-11-11T08:25:21Z</time>
      </trkpt>
      <trkpt lat="28.5330350" lon="-16.2572980">
        <ele>794.9</ele>
        <time>2020-11-11T08:25:22Z</time>
      </trkpt>
      <trkpt lat="28.5330170" lon="-16.2573400">
        <ele>794.9</ele>
        <time>2020-11-11T08:25:23Z</time>
      </trkpt>
      <trkpt lat="28.5330170" lon="-16.2573400">
        <ele>794.9</ele>
        <time>2020-11-11T08:25:24Z</time>
      </trkpt>
      <trkpt lat="28.5329980" lon="-16.2573820">
        <ele>794.9</ele>
        <time>2020-11-11T08:25:25Z</time>
      </trkpt>
      <trkpt lat="28.5329980" lon="-16.2573820">
        <ele>794.9</ele>
        <time>2020-11-11T08:25:26Z</time>
      </trkpt>
      <trkpt lat="28.5329730" lon="-16.2574200">
        <ele>794.9</ele>
        <time>2020-11-11T08:25:27Z</time>
      </trkpt>
      <trkpt lat="28.5329730" lon="-16.2574200">
        <ele>795.9</ele>
        <time>2020-11-11T08:25:28Z</time>
      </trkpt>
      <trkpt lat="28.5329470" lon="-16.2574570">
        <ele>795.9</ele>
        <time>2020-11-11T08:25:29Z</time>
      </trkpt>
      <trkpt lat="28.5329320" lon="-16.2574720">
        <ele>795.9</ele>
        <time>2020-11-11T08:25:30Z</time>
      </trkpt>
      <trkpt lat="28.5329320" lon="-16.2574720">
        <ele>795.9</ele>
        <time>2020-11-11T08:25:31Z</time>
      </trkpt>
      <trkpt lat="28.5329000" lon="-16.2574970">
        <ele>795.9</ele>
        <time>2020-11-11T08:25:32Z</time>
      </trkpt>
      <trkpt lat="28.5329000" lon="-16.2574970">
        <ele>796.9</ele>
        <time>2020-11-11T08:25:33Z</time>
      </trkpt>
      <trkpt lat="28.5328730" lon="-16.2575180">
        <ele>796.9</ele>
        <time>2020-11-11T08:25:34Z</time>
      </trkpt>
      <trkpt lat="28.5328730" lon="-16.2575180">
        <ele>796.9</ele>
        <time>2020-11-11T08:25:35Z</time>
      </trkpt>
      <trkpt lat="28.5328550" lon="-16.2575420">
        <ele>796.9</ele>
        <time>2020-11-11T08:25:36Z</time>
      </trkpt>
      <trkpt lat="28.5328480" lon="-16.2575520">
        <ele>796.9</ele>
        <time>2020-11-11T08:25:37Z</time>
      </trkpt>
      <trkpt lat="28.5328480" lon="-16.2575520">
        <ele>796.9</ele>
        <time>2020-11-11T08:25:38Z</time>
      </trkpt>
      <trkpt lat="28.5327970" lon="-16.2575800">
        <ele>796.9</ele>
        <time>2020-11-11T08:25:39Z</time>
      </trkpt>
      <trkpt lat="28.5327720" lon="-16.2575870">
        <ele>796.9</ele>
        <time>2020-11-11T08:25:40Z</time>
      </trkpt>
      <trkpt lat="28.5327720" lon="-16.2575870">
        <ele>796.9</ele>
        <time>2020-11-11T08:25:41Z</time>
      </trkpt>
      <trkpt lat="28.5327370" lon="-16.2576120">
        <ele>796.9</ele>
        <time>2020-11-11T08:25:42Z</time>
      </trkpt>
      <trkpt lat="28.5327270" lon="-16.2576200">
        <ele>796.9</ele>
        <time>2020-11-11T08:25:43Z</time>
      </trkpt>
      <trkpt lat="28.5327270" lon="-16.2576200">
        <ele>797.9</ele>
        <time>2020-11-11T08:25:44Z</time>
      </trkpt>
      <trkpt lat="28.5327000" lon="-16.2576420">
        <ele>797.9</ele>
        <time>2020-11-11T08:25:45Z</time>
      </trkpt>
      <trkpt lat="28.5326830" lon="-16.2576600">
        <ele>797.9</ele>
        <time>2020-11-11T08:25:46Z</time>
      </trkpt>
      <trkpt lat="28.5326830" lon="-16.2576600">
        <ele>797.9</ele>
        <time>2020-11-11T08:25:47Z</time>
      </trkpt>
      <trkpt lat="28.5326550" lon="-16.2576850">
        <ele>798.9</ele>
        <time>2020-11-11T08:25:48Z</time>
      </trkpt>
      <trkpt lat="28.5326430" lon="-16.2577080">
        <ele>798.9</ele>
        <time>2020-11-11T08:25:49Z</time>
      </trkpt>
      <trkpt lat="28.5326430" lon="-16.2577080">
        <ele>798.9</ele>
        <time>2020-11-11T08:25:50Z</time>
      </trkpt>
      <trkpt lat="28.5326230" lon="-16.2577320">
        <ele>798.9</ele>
        <time>2020-11-11T08:25:51Z</time>
      </trkpt>
      <trkpt lat="28.5326230" lon="-16.2577320">
        <ele>799.9</ele>
        <time>2020-11-11T08:25:52Z</time>
      </trkpt>
      <trkpt lat="28.5326050" lon="-16.2577620">
        <ele>799.9</ele>
        <time>2020-11-11T08:25:53Z</time>
      </trkpt>
      <trkpt lat="28.5326050" lon="-16.2577620">
        <ele>799.9</ele>
        <time>2020-11-11T08:25:54Z</time>
      </trkpt>
      <trkpt lat="28.5325900" lon="-16.2577880">
        <ele>799.9</ele>
        <time>2020-11-11T08:25:55Z</time>
      </trkpt>
      <trkpt lat="28.5325900" lon="-16.2577880">
        <ele>800.9</ele>
        <time>2020-11-11T08:25:56Z</time>
      </trkpt>
      <trkpt lat="28.5325670" lon="-16.2578130">
        <ele>800.9</ele>
        <time>2020-11-11T08:25:57Z</time>
      </trkpt>
      <trkpt lat="28.5325670" lon="-16.2578130">
        <ele>800.9</ele>
        <time>2020-11-11T08:25:58Z</time>
      </trkpt>
      <trkpt lat="28.5325520" lon="-16.2578400">
        <ele>800.9</ele>
        <time>2020-11-11T08:25:59Z</time>
      </trkpt>
      <trkpt lat="28.5325520" lon="-16.2578400">
        <ele>801.9</ele>
        <time>2020-11-11T08:26:00Z</time>
      </trkpt>
      <trkpt lat="28.5325320" lon="-16.2578750">
        <ele>801.9</ele>
        <time>2020-11-11T08:26:01Z</time>
      </trkpt>
      <trkpt lat="28.5325320" lon="-16.2578750">
        <ele>801.9</ele>
        <time>2020-11-11T08:26:02Z</time>
      </trkpt>
      <trkpt lat="28.5325220" lon="-16.2579130">
        <ele>801.9</ele>
        <time>2020-11-11T08:26:03Z</time>
      </trkpt>
      <trkpt lat="28.5325220" lon="-16.2579130">
        <ele>802.9</ele>
        <time>2020-11-11T08:26:04Z</time>
      </trkpt>
      <trkpt lat="28.5325070" lon="-16.2579470">
        <ele>802.9</ele>
        <time>2020-11-11T08:26:05Z</time>
      </trkpt>
      <trkpt lat="28.5325070" lon="-16.2579470">
        <ele>802.9</ele>
        <time>2020-11-11T08:26:06Z</time>
      </trkpt>
      <trkpt lat="28.5324870" lon="-16.2579730">
        <ele>802.9</ele>
        <time>2020-11-11T08:26:07Z</time>
      </trkpt>
      <trkpt lat="28.5324870" lon="-16.2579730">
        <ele>803.9</ele>
        <time>2020-11-11T08:26:08Z</time>
      </trkpt>
      <trkpt lat="28.5324880" lon="-16.2580250">
        <ele>803.9</ele>
        <time>2020-11-11T08:26:09Z</time>
      </trkpt>
      <trkpt lat="28.5324900" lon="-16.2580420">
        <ele>803.9</ele>
        <time>2020-11-11T08:26:10Z</time>
      </trkpt>
      <trkpt lat="28.5324850" lon="-16.2580530">
        <ele>804.9</ele>
        <time>2020-11-11T08:26:11Z</time>
      </trkpt>
      <trkpt lat="28.5324850" lon="-16.2580530">
        <ele>804.9</ele>
        <time>2020-11-11T08:26:12Z</time>
      </trkpt>
      <trkpt lat="28.5324750" lon="-16.2580700">
        <ele>804.9</ele>
        <time>2020-11-11T08:26:13Z</time>
      </trkpt>
      <trkpt lat="28.5324750" lon="-16.2580700">
        <ele>804.9</ele>
        <time>2020-11-11T08:26:14Z</time>
      </trkpt>
      <trkpt lat="28.5324800" lon="-16.2580920">
        <ele>805.9</ele>
        <time>2020-11-11T08:26:15Z</time>
      </trkpt>
      <trkpt lat="28.5324480" lon="-16.2581130">
        <ele>805.9</ele>
        <time>2020-11-11T08:26:16Z</time>
      </trkpt>
      <trkpt lat="28.5324480" lon="-16.2581130">
        <ele>805.9</ele>
        <time>2020-11-11T08:26:17Z</time>
      </trkpt>
      <trkpt lat="28.5323980" lon="-16.2581330">
        <ele>805.9</ele>
        <time>2020-11-11T08:26:18Z</time>
      </trkpt>
      <trkpt lat="28.5323980" lon="-16.2581330">
        <ele>805.9</ele>
        <time>2020-11-11T08:26:19Z</time>
      </trkpt>
      <trkpt lat="28.5323550" lon="-16.2581400">
        <ele>805.9</ele>
        <time>2020-11-11T08:26:20Z</time>
      </trkpt>
      <trkpt lat="28.5323550" lon="-16.2581400">
        <ele>806.9</ele>
        <time>2020-11-11T08:26:21Z</time>
      </trkpt>
      <trkpt lat="28.5323150" lon="-16.2581600">
        <ele>806.9</ele>
        <time>2020-11-11T08:26:22Z</time>
      </trkpt>
      <trkpt lat="28.5323150" lon="-16.2581600">
        <ele>806.9</ele>
        <time>2020-11-11T08:26:23Z</time>
      </trkpt>
      <trkpt lat="28.5322880" lon="-16.2581870">
        <ele>806.9</ele>
        <time>2020-11-11T08:26:24Z</time>
      </trkpt>
      <trkpt lat="28.5322680" lon="-16.2582150">
        <ele>806.9</ele>
        <time>2020-11-11T08:26:25Z</time>
      </trkpt>
      <trkpt lat="28.5322680" lon="-16.2582150">
        <ele>806.9</ele>
        <time>2020-11-11T08:26:26Z</time>
      </trkpt>
      <trkpt lat="28.5321820" lon="-16.2583550">
        <ele>806.9</ele>
        <time>2020-11-11T08:26:27Z</time>
      </trkpt>
      <trkpt lat="28.5321820" lon="-16.2583550">
        <ele>806.9</ele>
        <time>2020-11-11T08:26:28Z</time>
      </trkpt>
      <trkpt lat="28.5321370" lon="-16.2584400">
        <ele>806.9</ele>
        <time>2020-11-11T08:26:29Z</time>
      </trkpt>
      <trkpt lat="28.5321370" lon="-16.2584400">
        <ele>806.9</ele>
        <time>2020-11-11T08:26:30Z</time>
      </trkpt>
      <trkpt lat="28.5321050" lon="-16.2584950">
        <ele>807.9</ele>
        <time>2020-11-11T08:26:31Z</time>
      </trkpt>
      <trkpt lat="28.5321050" lon="-16.2584950">
        <ele>807.9</ele>
        <time>2020-11-11T08:26:32Z</time>
      </trkpt>
      <trkpt lat="28.5320930" lon="-16.2585430">
        <ele>807.9</ele>
        <time>2020-11-11T08:26:33Z</time>
      </trkpt>
      <trkpt lat="28.5320880" lon="-16.2585630">
        <ele>807.9</ele>
        <time>2020-11-11T08:26:34Z</time>
      </trkpt>
      <trkpt lat="28.5320880" lon="-16.2585630">
        <ele>807.9</ele>
        <time>2020-11-11T08:26:35Z</time>
      </trkpt>
      <trkpt lat="28.5320830" lon="-16.2586020">
        <ele>807.9</ele>
        <time>2020-11-11T08:26:36Z</time>
      </trkpt>
      <trkpt lat="28.5320830" lon="-16.2586020">
        <ele>807.9</ele>
        <time>2020-11-11T08:26:37Z</time>
      </trkpt>
      <trkpt lat="28.5320750" lon="-16.2586430">
        <ele>807.9</ele>
        <time>2020-11-11T08:26:38Z</time>
      </trkpt>
      <trkpt lat="28.5320750" lon="-16.2586430">
        <ele>808.9</ele>
        <time>2020-11-11T08:26:39Z</time>
      </trkpt>
      <trkpt lat="28.5320580" lon="-16.2586800">
        <ele>808.9</ele>
        <time>2020-11-11T08:26:40Z</time>
      </trkpt>
      <trkpt lat="28.5320430" lon="-16.2587020">
        <ele>808.9</ele>
        <time>2020-11-11T08:26:41Z</time>
      </trkpt>
      <trkpt lat="28.5320430" lon="-16.2587020">
        <ele>808.9</ele>
        <time>2020-11-11T08:26:42Z</time>
      </trkpt>
      <trkpt lat="28.5320320" lon="-16.2587480">
        <ele>808.9</ele>
        <time>2020-11-11T08:26:43Z</time>
      </trkpt>
      <trkpt lat="28.5320320" lon="-16.2587700">
        <ele>808.9</ele>
        <time>2020-11-11T08:26:44Z</time>
      </trkpt>
      <trkpt lat="28.5320350" lon="-16.2587870">
        <ele>808.9</ele>
        <time>2020-11-11T08:26:45Z</time>
      </trkpt>
      <trkpt lat="28.5320350" lon="-16.2587870">
        <ele>808.9</ele>
        <time>2020-11-11T08:26:46Z</time>
      </trkpt>
      <trkpt lat="28.5320700" lon="-16.2588230">
        <ele>808.9</ele>
        <time>2020-11-11T08:26:47Z</time>
      </trkpt>
      <trkpt lat="28.5320880" lon="-16.2588380">
        <ele>809.9</ele>
        <time>2020-11-11T08:26:48Z</time>
      </trkpt>
      <trkpt lat="28.5320880" lon="-16.2588380">
        <ele>809.9</ele>
        <time>2020-11-11T08:26:49Z</time>
      </trkpt>
      <trkpt lat="28.5321030" lon="-16.2588820">
        <ele>809.9</ele>
        <time>2020-11-11T08:26:50Z</time>
      </trkpt>
      <trkpt lat="28.5321150" lon="-16.2589080">
        <ele>809.9</ele>
        <time>2020-11-11T08:26:51Z</time>
      </trkpt>
      <trkpt lat="28.5321150" lon="-16.2589080">
        <ele>810.9</ele>
        <time>2020-11-11T08:26:52Z</time>
      </trkpt>
      <trkpt lat="28.5321330" lon="-16.2589620">
        <ele>810.9</ele>
        <time>2020-11-11T08:26:53Z</time>
      </trkpt>
      <trkpt lat="28.5321420" lon="-16.2589770">
        <ele>810.9</ele>
        <time>2020-11-11T08:26:54Z</time>
      </trkpt>
      <trkpt lat="28.5321420" lon="-16.2589770">
        <ele>810.9</ele>
        <time>2020-11-11T08:26:55Z</time>
      </trkpt>
      <trkpt lat="28.5321570" lon="-16.2590120">
        <ele>810.9</ele>
        <time>2020-11-11T08:26:56Z</time>
      </trkpt>
      <trkpt lat="28.5321630" lon="-16.2590420">
        <ele>810.9</ele>
        <time>2020-11-11T08:26:57Z</time>
      </trkpt>
      <trkpt lat="28.5321630" lon="-16.2590420">
        <ele>811.9</ele>
        <time>2020-11-11T08:26:58Z</time>
      </trkpt>
      <trkpt lat="28.5321720" lon="-16.2590970">
        <ele>811.9</ele>
        <time>2020-11-11T08:26:59Z</time>
      </trkpt>
      <trkpt lat="28.5321720" lon="-16.2590970">
        <ele>811.9</ele>
        <time>2020-11-11T08:27:00Z</time>
      </trkpt>
      <trkpt lat="28.5321580" lon="-16.2591770">
        <ele>811.9</ele>
        <time>2020-11-11T08:27:01Z</time>
      </trkpt>
      <trkpt lat="28.5321580" lon="-16.2591770">
        <ele>811.9</ele>
        <time>2020-11-11T08:27:02Z</time>
      </trkpt>
      <trkpt lat="28.5321580" lon="-16.2592170">
        <ele>811.9</ele>
        <time>2020-11-11T08:27:03Z</time>
      </trkpt>
      <trkpt lat="28.5321680" lon="-16.2592330">
        <ele>812.9</ele>
        <time>2020-11-11T08:27:04Z</time>
      </trkpt>
      <trkpt lat="28.5321680" lon="-16.2592330">
        <ele>812.9</ele>
        <time>2020-11-11T08:27:05Z</time>
      </trkpt>
      <trkpt lat="28.5321620" lon="-16.2592930">
        <ele>812.9</ele>
        <time>2020-11-11T08:27:06Z</time>
      </trkpt>
      <trkpt lat="28.5321620" lon="-16.2592930">
        <ele>812.9</ele>
        <time>2020-11-11T08:27:07Z</time>
      </trkpt>
      <trkpt lat="28.5321580" lon="-16.2593500">
        <ele>812.9</ele>
        <time>2020-11-11T08:27:08Z</time>
      </trkpt>
      <trkpt lat="28.5321580" lon="-16.2593500">
        <ele>812.9</ele>
        <time>2020-11-11T08:27:09Z</time>
      </trkpt>
      <trkpt lat="28.5321480" lon="-16.2594020">
        <ele>813.9</ele>
        <time>2020-11-11T08:27:10Z</time>
      </trkpt>
      <trkpt lat="28.5321480" lon="-16.2594020">
        <ele>813.9</ele>
        <time>2020-11-11T08:27:11Z</time>
      </trkpt>
      <trkpt lat="28.5321650" lon="-16.2594600">
        <ele>813.9</ele>
        <time>2020-11-11T08:27:12Z</time>
      </trkpt>
      <trkpt lat="28.5321670" lon="-16.2594920">
        <ele>813.9</ele>
        <time>2020-11-11T08:27:13Z</time>
      </trkpt>
      <trkpt lat="28.5321670" lon="-16.2594920">
        <ele>813.9</ele>
        <time>2020-11-11T08:27:14Z</time>
      </trkpt>
      <trkpt lat="28.5321850" lon="-16.2595470">
        <ele>813.9</ele>
        <time>2020-11-11T08:27:15Z</time>
      </trkpt>
      <trkpt lat="28.5321850" lon="-16.2595470">
        <ele>813.9</ele>
        <time>2020-11-11T08:27:16Z</time>
      </trkpt>
      <trkpt lat="28.5322100" lon="-16.2595970">
        <ele>813.9</ele>
        <time>2020-11-11T08:27:17Z</time>
      </trkpt>
      <trkpt lat="28.5322230" lon="-16.2596180">
        <ele>813.9</ele>
        <time>2020-11-11T08:27:18Z</time>
      </trkpt>
      <trkpt lat="28.5322400" lon="-16.2596400">
        <ele>813.9</ele>
        <time>2020-11-11T08:27:19Z</time>
      </trkpt>
      <trkpt lat="28.5322400" lon="-16.2596400">
        <ele>813.9</ele>
        <time>2020-11-11T08:27:20Z</time>
      </trkpt>
      <trkpt lat="28.5322580" lon="-16.2596930">
        <ele>813.9</ele>
        <time>2020-11-11T08:27:21Z</time>
      </trkpt>
      <trkpt lat="28.5322720" lon="-16.2597130">
        <ele>813.9</ele>
        <time>2020-11-11T08:27:22Z</time>
      </trkpt>
      <trkpt lat="28.5322720" lon="-16.2597130">
        <ele>813.9</ele>
        <time>2020-11-11T08:27:23Z</time>
      </trkpt>
      <trkpt lat="28.5323080" lon="-16.2597450">
        <ele>814.9</ele>
        <time>2020-11-11T08:27:24Z</time>
      </trkpt>
      <trkpt lat="28.5323300" lon="-16.2597580">
        <ele>814.9</ele>
        <time>2020-11-11T08:27:25Z</time>
      </trkpt>
      <trkpt lat="28.5323300" lon="-16.2597580">
        <ele>814.9</ele>
        <time>2020-11-11T08:27:26Z</time>
      </trkpt>
      <trkpt lat="28.5323680" lon="-16.2597770">
        <ele>814.9</ele>
        <time>2020-11-11T08:27:27Z</time>
      </trkpt>
      <trkpt lat="28.5323680" lon="-16.2597770">
        <ele>814.9</ele>
        <time>2020-11-11T08:27:28Z</time>
      </trkpt>
      <trkpt lat="28.5324030" lon="-16.2597850">
        <ele>815.9</ele>
        <time>2020-11-11T08:27:29Z</time>
      </trkpt>
      <trkpt lat="28.5324030" lon="-16.2597850">
        <ele>815.9</ele>
        <time>2020-11-11T08:27:30Z</time>
      </trkpt>
      <trkpt lat="28.5324430" lon="-16.2597980">
        <ele>815.9</ele>
        <time>2020-11-11T08:27:31Z</time>
      </trkpt>
      <trkpt lat="28.5324430" lon="-16.2597980">
        <ele>815.9</ele>
        <time>2020-11-11T08:27:32Z</time>
      </trkpt>
      <trkpt lat="28.5324820" lon="-16.2598150">
        <ele>815.9</ele>
        <time>2020-11-11T08:27:33Z</time>
      </trkpt>
      <trkpt lat="28.5324970" lon="-16.2598230">
        <ele>815.9</ele>
        <time>2020-11-11T08:27:34Z</time>
      </trkpt>
      <trkpt lat="28.5324970" lon="-16.2598230">
        <ele>816.9</ele>
        <time>2020-11-11T08:27:35Z</time>
      </trkpt>
      <trkpt lat="28.5325270" lon="-16.2598150">
        <ele>816.9</ele>
        <time>2020-11-11T08:27:36Z</time>
      </trkpt>
      <trkpt lat="28.5325450" lon="-16.2598200">
        <ele>816.9</ele>
        <time>2020-11-11T08:27:37Z</time>
      </trkpt>
      <trkpt lat="28.5325630" lon="-16.2598150">
        <ele>816.9</ele>
        <time>2020-11-11T08:27:38Z</time>
      </trkpt>
      <trkpt lat="28.5325630" lon="-16.2598150">
        <ele>816.9</ele>
        <time>2020-11-11T08:27:39Z</time>
      </trkpt>
      <trkpt lat="28.5326020" lon="-16.2598120">
        <ele>816.9</ele>
        <time>2020-11-11T08:27:40Z</time>
      </trkpt>
      <trkpt lat="28.5326020" lon="-16.2598120">
        <ele>816.9</ele>
        <time>2020-11-11T08:27:41Z</time>
      </trkpt>
      <trkpt lat="28.5326430" lon="-16.2598030">
        <ele>817.9</ele>
        <time>2020-11-11T08:27:42Z</time>
      </trkpt>
      <trkpt lat="28.5326630" lon="-16.2597980">
        <ele>817.9</ele>
        <time>2020-11-11T08:27:43Z</time>
      </trkpt>
      <trkpt lat="28.5326630" lon="-16.2597980">
        <ele>817.9</ele>
        <time>2020-11-11T08:27:44Z</time>
      </trkpt>
      <trkpt lat="28.5326970" lon="-16.2597950">
        <ele>817.9</ele>
        <time>2020-11-11T08:27:45Z</time>
      </trkpt>
      <trkpt lat="28.5326970" lon="-16.2597950">
        <ele>817.9</ele>
        <time>2020-11-11T08:27:46Z</time>
      </trkpt>
      <trkpt lat="28.5327300" lon="-16.2597930">
        <ele>817.9</ele>
        <time>2020-11-11T08:27:47Z</time>
      </trkpt>
      <trkpt lat="28.5327580" lon="-16.2597880">
        <ele>818.9</ele>
        <time>2020-11-11T08:27:48Z</time>
      </trkpt>
      <trkpt lat="28.5327870" lon="-16.2597780">
        <ele>818.9</ele>
        <time>2020-11-11T08:27:49Z</time>
      </trkpt>
      <trkpt lat="28.5327870" lon="-16.2597780">
        <ele>818.9</ele>
        <time>2020-11-11T08:27:50Z</time>
      </trkpt>
      <trkpt lat="28.5328420" lon="-16.2597830">
        <ele>818.9</ele>
        <time>2020-11-11T08:27:51Z</time>
      </trkpt>
      <trkpt lat="28.5328420" lon="-16.2597830">
        <ele>818.9</ele>
        <time>2020-11-11T08:27:52Z</time>
      </trkpt>
      <trkpt lat="28.5328920" lon="-16.2598050">
        <ele>818.9</ele>
        <time>2020-11-11T08:27:53Z</time>
      </trkpt>
      <trkpt lat="28.5328920" lon="-16.2598050">
        <ele>818.9</ele>
        <time>2020-11-11T08:27:54Z</time>
      </trkpt>
      <trkpt lat="28.5329370" lon="-16.2598420">
        <ele>818.9</ele>
        <time>2020-11-11T08:27:55Z</time>
      </trkpt>
      <trkpt lat="28.5329370" lon="-16.2598420">
        <ele>818.9</ele>
        <time>2020-11-11T08:27:56Z</time>
      </trkpt>
      <trkpt lat="28.5329730" lon="-16.2598850">
        <ele>818.9</ele>
        <time>2020-11-11T08:27:57Z</time>
      </trkpt>
      <trkpt lat="28.5329730" lon="-16.2598850">
        <ele>818.9</ele>
        <time>2020-11-11T08:27:58Z</time>
      </trkpt>
      <trkpt lat="28.5330050" lon="-16.2599200">
        <ele>819.9</ele>
        <time>2020-11-11T08:27:59Z</time>
      </trkpt>
      <trkpt lat="28.5330170" lon="-16.2599400">
        <ele>819.9</ele>
        <time>2020-11-11T08:28:00Z</time>
      </trkpt>
      <trkpt lat="28.5330170" lon="-16.2599400">
        <ele>819.9</ele>
        <time>2020-11-11T08:28:01Z</time>
      </trkpt>
      <trkpt lat="28.5330530" lon="-16.2599670">
        <ele>819.9</ele>
        <time>2020-11-11T08:28:02Z</time>
      </trkpt>
      <trkpt lat="28.5330530" lon="-16.2599670">
        <ele>819.9</ele>
        <time>2020-11-11T08:28:03Z</time>
      </trkpt>
      <trkpt lat="28.5330770" lon="-16.2600120">
        <ele>819.9</ele>
        <time>2020-11-11T08:28:04Z</time>
      </trkpt>
      <trkpt lat="28.5330770" lon="-16.2600120">
        <ele>819.9</ele>
        <time>2020-11-11T08:28:05Z</time>
      </trkpt>
      <trkpt lat="28.5331100" lon="-16.2600480">
        <ele>819.9</ele>
        <time>2020-11-11T08:28:06Z</time>
      </trkpt>
      <trkpt lat="28.5331100" lon="-16.2600480">
        <ele>819.9</ele>
        <time>2020-11-11T08:28:07Z</time>
      </trkpt>
      <trkpt lat="28.5331430" lon="-16.2600800">
        <ele>819.9</ele>
        <time>2020-11-11T08:28:08Z</time>
      </trkpt>
      <trkpt lat="28.5331430" lon="-16.2600800">
        <ele>819.9</ele>
        <time>2020-11-11T08:28:09Z</time>
      </trkpt>
      <trkpt lat="28.5331680" lon="-16.2601250">
        <ele>820.9</ele>
        <time>2020-11-11T08:28:10Z</time>
      </trkpt>
      <trkpt lat="28.5331820" lon="-16.2601480">
        <ele>820.9</ele>
        <time>2020-11-11T08:28:11Z</time>
      </trkpt>
      <trkpt lat="28.5331820" lon="-16.2601480">
        <ele>820.9</ele>
        <time>2020-11-11T08:28:12Z</time>
      </trkpt>
      <trkpt lat="28.5332050" lon="-16.2601880">
        <ele>820.9</ele>
        <time>2020-11-11T08:28:13Z</time>
      </trkpt>
      <trkpt lat="28.5332180" lon="-16.2602030">
        <ele>821.9</ele>
        <time>2020-11-11T08:28:14Z</time>
      </trkpt>
      <trkpt lat="28.5332180" lon="-16.2602030">
        <ele>821.9</ele>
        <time>2020-11-11T08:28:15Z</time>
      </trkpt>
      <trkpt lat="28.5332420" lon="-16.2602330">
        <ele>821.9</ele>
        <time>2020-11-11T08:28:16Z</time>
      </trkpt>
      <trkpt lat="28.5332420" lon="-16.2602330">
        <ele>821.9</ele>
        <time>2020-11-11T08:28:17Z</time>
      </trkpt>
      <trkpt lat="28.5332670" lon="-16.2602620">
        <ele>822.9</ele>
        <time>2020-11-11T08:28:18Z</time>
      </trkpt>
      <trkpt lat="28.5332670" lon="-16.2602620">
        <ele>822.9</ele>
        <time>2020-11-11T08:28:19Z</time>
      </trkpt>
      <trkpt lat="28.5332880" lon="-16.2602780">
        <ele>822.9</ele>
        <time>2020-11-11T08:28:20Z</time>
      </trkpt>
      <trkpt lat="28.5332880" lon="-16.2602780">
        <ele>822.9</ele>
        <time>2020-11-11T08:28:21Z</time>
      </trkpt>
      <trkpt lat="28.5333180" lon="-16.2602920">
        <ele>822.9</ele>
        <time>2020-11-11T08:28:22Z</time>
      </trkpt>
      <trkpt lat="28.5333180" lon="-16.2602920">
        <ele>822.9</ele>
        <time>2020-11-11T08:28:23Z</time>
      </trkpt>
      <trkpt lat="28.5333500" lon="-16.2603020">
        <ele>822.9</ele>
        <time>2020-11-11T08:28:24Z</time>
      </trkpt>
      <trkpt lat="28.5333500" lon="-16.2603020">
        <ele>822.9</ele>
        <time>2020-11-11T08:28:25Z</time>
      </trkpt>
      <trkpt lat="28.5333970" lon="-16.2602970">
        <ele>822.9</ele>
        <time>2020-11-11T08:28:26Z</time>
      </trkpt>
      <trkpt lat="28.5333970" lon="-16.2602970">
        <ele>822.9</ele>
        <time>2020-11-11T08:28:27Z</time>
      </trkpt>
      <trkpt lat="28.5334550" lon="-16.2602900">
        <ele>823.9</ele>
        <time>2020-11-11T08:28:28Z</time>
      </trkpt>
      <trkpt lat="28.5334550" lon="-16.2602900">
        <ele>823.9</ele>
        <time>2020-11-11T08:28:29Z</time>
      </trkpt>
      <trkpt lat="28.5335050" lon="-16.2602970">
        <ele>823.9</ele>
        <time>2020-11-11T08:28:30Z</time>
      </trkpt>
      <trkpt lat="28.5335050" lon="-16.2602970">
        <ele>823.9</ele>
        <time>2020-11-11T08:28:31Z</time>
      </trkpt>
      <trkpt lat="28.5335520" lon="-16.2603120">
        <ele>823.9</ele>
        <time>2020-11-11T08:28:32Z</time>
      </trkpt>
      <trkpt lat="28.5335870" lon="-16.2603320">
        <ele>823.9</ele>
        <time>2020-11-11T08:28:33Z</time>
      </trkpt>
      <trkpt lat="28.5335870" lon="-16.2603320">
        <ele>824.9</ele>
        <time>2020-11-11T08:28:34Z</time>
      </trkpt>
      <trkpt lat="28.5336270" lon="-16.2603700">
        <ele>824.9</ele>
        <time>2020-11-11T08:28:35Z</time>
      </trkpt>
      <trkpt lat="28.5336270" lon="-16.2603700">
        <ele>824.9</ele>
        <time>2020-11-11T08:28:36Z</time>
      </trkpt>
      <trkpt lat="28.5336580" lon="-16.2604070">
        <ele>824.9</ele>
        <time>2020-11-11T08:28:37Z</time>
      </trkpt>
      <trkpt lat="28.5336580" lon="-16.2604070">
        <ele>824.9</ele>
        <time>2020-11-11T08:28:38Z</time>
      </trkpt>
      <trkpt lat="28.5336900" lon="-16.2604330">
        <ele>824.9</ele>
        <time>2020-11-11T08:28:39Z</time>
      </trkpt>
      <trkpt lat="28.5337030" lon="-16.2604520">
        <ele>824.9</ele>
        <time>2020-11-11T08:28:40Z</time>
      </trkpt>
      <trkpt lat="28.5337030" lon="-16.2604520">
        <ele>824.9</ele>
        <time>2020-11-11T08:28:41Z</time>
      </trkpt>
      <trkpt lat="28.5337180" lon="-16.2604980">
        <ele>825.9</ele>
        <time>2020-11-11T08:28:42Z</time>
      </trkpt>
      <trkpt lat="28.5337300" lon="-16.2605130">
        <ele>825.9</ele>
        <time>2020-11-11T08:28:43Z</time>
      </trkpt>
      <trkpt lat="28.5337300" lon="-16.2605130">
        <ele>825.9</ele>
        <time>2020-11-11T08:28:44Z</time>
      </trkpt>
      <trkpt lat="28.5337530" lon="-16.2605400">
        <ele>825.9</ele>
        <time>2020-11-11T08:28:45Z</time>
      </trkpt>
      <trkpt lat="28.5337580" lon="-16.2605530">
        <ele>825.9</ele>
        <time>2020-11-11T08:28:46Z</time>
      </trkpt>
      <trkpt lat="28.5337700" lon="-16.2605670">
        <ele>825.9</ele>
        <time>2020-11-11T08:28:47Z</time>
      </trkpt>
      <trkpt lat="28.5337700" lon="-16.2605670">
        <ele>825.9</ele>
        <time>2020-11-11T08:28:48Z</time>
      </trkpt>
      <trkpt lat="28.5337830" lon="-16.2605980">
        <ele>826.9</ele>
        <time>2020-11-11T08:28:49Z</time>
      </trkpt>
      <trkpt lat="28.5337830" lon="-16.2605980">
        <ele>826.9</ele>
        <time>2020-11-11T08:28:50Z</time>
      </trkpt>
      <trkpt lat="28.5337930" lon="-16.2606280">
        <ele>826.9</ele>
        <time>2020-11-11T08:28:51Z</time>
      </trkpt>
      <trkpt lat="28.5337930" lon="-16.2606280">
        <ele>826.9</ele>
        <time>2020-11-11T08:28:52Z</time>
      </trkpt>
      <trkpt lat="28.5338130" lon="-16.2606550">
        <ele>826.9</ele>
        <time>2020-11-11T08:28:53Z</time>
      </trkpt>
      <trkpt lat="28.5338130" lon="-16.2606550">
        <ele>826.9</ele>
        <time>2020-11-11T08:28:54Z</time>
      </trkpt>
      <trkpt lat="28.5338300" lon="-16.2606900">
        <ele>826.9</ele>
        <time>2020-11-11T08:28:55Z</time>
      </trkpt>
      <trkpt lat="28.5338300" lon="-16.2606900">
        <ele>826.9</ele>
        <time>2020-11-11T08:28:56Z</time>
      </trkpt>
      <trkpt lat="28.5338430" lon="-16.2607320">
        <ele>826.9</ele>
        <time>2020-11-11T08:28:57Z</time>
      </trkpt>
      <trkpt lat="28.5338430" lon="-16.2607320">
        <ele>826.9</ele>
        <time>2020-11-11T08:28:58Z</time>
      </trkpt>
      <trkpt lat="28.5338580" lon="-16.2607680">
        <ele>826.9</ele>
        <time>2020-11-11T08:28:59Z</time>
      </trkpt>
      <trkpt lat="28.5338670" lon="-16.2607850">
        <ele>826.9</ele>
        <time>2020-11-11T08:29:00Z</time>
      </trkpt>
      <trkpt lat="28.5338770" lon="-16.2608020">
        <ele>827.9</ele>
        <time>2020-11-11T08:29:01Z</time>
      </trkpt>
      <trkpt lat="28.5338770" lon="-16.2608020">
        <ele>827.9</ele>
        <time>2020-11-11T08:29:02Z</time>
      </trkpt>
      <trkpt lat="28.5338900" lon="-16.2608350">
        <ele>827.9</ele>
        <time>2020-11-11T08:29:03Z</time>
      </trkpt>
      <trkpt lat="28.5338900" lon="-16.2608350">
        <ele>827.9</ele>
        <time>2020-11-11T08:29:04Z</time>
      </trkpt>
      <trkpt lat="28.5338930" lon="-16.2609170">
        <ele>827.9</ele>
        <time>2020-11-11T08:29:05Z</time>
      </trkpt>
      <trkpt lat="28.5338930" lon="-16.2609170">
        <ele>827.9</ele>
        <time>2020-11-11T08:29:06Z</time>
      </trkpt>
      <trkpt lat="28.5338830" lon="-16.2609730">
        <ele>827.9</ele>
        <time>2020-11-11T08:29:07Z</time>
      </trkpt>
      <trkpt lat="28.5338830" lon="-16.2609730">
        <ele>829.9</ele>
        <time>2020-11-11T08:29:08Z</time>
      </trkpt>
      <trkpt lat="28.5338820" lon="-16.2610150">
        <ele>829.9</ele>
        <time>2020-11-11T08:29:09Z</time>
      </trkpt>
      <trkpt lat="28.5338820" lon="-16.2610150">
        <ele>829.9</ele>
        <time>2020-11-11T08:29:10Z</time>
      </trkpt>
      <trkpt lat="28.5338770" lon="-16.2610580">
        <ele>829.9</ele>
        <time>2020-11-11T08:29:11Z</time>
      </trkpt>
      <trkpt lat="28.5338770" lon="-16.2610580">
        <ele>829.9</ele>
        <time>2020-11-11T08:29:12Z</time>
      </trkpt>
      <trkpt lat="28.5338720" lon="-16.2610950">
        <ele>829.9</ele>
        <time>2020-11-11T08:29:13Z</time>
      </trkpt>
      <trkpt lat="28.5338720" lon="-16.2610950">
        <ele>830.9</ele>
        <time>2020-11-11T08:29:14Z</time>
      </trkpt>
      <trkpt lat="28.5338570" lon="-16.2611330">
        <ele>830.9</ele>
        <time>2020-11-11T08:29:15Z</time>
      </trkpt>
      <trkpt lat="28.5338570" lon="-16.2611330">
        <ele>830.9</ele>
        <time>2020-11-11T08:29:16Z</time>
      </trkpt>
      <trkpt lat="28.5338430" lon="-16.2611680">
        <ele>830.9</ele>
        <time>2020-11-11T08:29:17Z</time>
      </trkpt>
      <trkpt lat="28.5338430" lon="-16.2611680">
        <ele>830.9</ele>
        <time>2020-11-11T08:29:18Z</time>
      </trkpt>
      <trkpt lat="28.5338300" lon="-16.2612000">
        <ele>830.9</ele>
        <time>2020-11-11T08:29:19Z</time>
      </trkpt>
      <trkpt lat="28.5338300" lon="-16.2612000">
        <ele>830.9</ele>
        <time>2020-11-11T08:29:20Z</time>
      </trkpt>
      <trkpt lat="28.5338180" lon="-16.2612350">
        <ele>830.9</ele>
        <time>2020-11-11T08:29:21Z</time>
      </trkpt>
      <trkpt lat="28.5338180" lon="-16.2612350">
        <ele>830.9</ele>
        <time>2020-11-11T08:29:22Z</time>
      </trkpt>
      <trkpt lat="28.5338100" lon="-16.2612750">
        <ele>830.9</ele>
        <time>2020-11-11T08:29:23Z</time>
      </trkpt>
      <trkpt lat="28.5338100" lon="-16.2612750">
        <ele>830.9</ele>
        <time>2020-11-11T08:29:24Z</time>
      </trkpt>
      <trkpt lat="28.5338030" lon="-16.2613070">
        <ele>830.9</ele>
        <time>2020-11-11T08:29:25Z</time>
      </trkpt>
      <trkpt lat="28.5338030" lon="-16.2613070">
        <ele>831.9</ele>
        <time>2020-11-11T08:29:26Z</time>
      </trkpt>
      <trkpt lat="28.5337920" lon="-16.2613480">
        <ele>831.9</ele>
        <time>2020-11-11T08:29:27Z</time>
      </trkpt>
      <trkpt lat="28.5337920" lon="-16.2613480">
        <ele>831.9</ele>
        <time>2020-11-11T08:29:28Z</time>
      </trkpt>
      <trkpt lat="28.5337900" lon="-16.2613830">
        <ele>831.9</ele>
        <time>2020-11-11T08:29:29Z</time>
      </trkpt>
      <trkpt lat="28.5337900" lon="-16.2613830">
        <ele>831.9</ele>
        <time>2020-11-11T08:29:30Z</time>
      </trkpt>
      <trkpt lat="28.5337830" lon="-16.2614220">
        <ele>831.9</ele>
        <time>2020-11-11T08:29:31Z</time>
      </trkpt>
      <trkpt lat="28.5337830" lon="-16.2614220">
        <ele>831.9</ele>
        <time>2020-11-11T08:29:32Z</time>
      </trkpt>
      <trkpt lat="28.5337770" lon="-16.2614630">
        <ele>831.9</ele>
        <time>2020-11-11T08:29:33Z</time>
      </trkpt>
      <trkpt lat="28.5337770" lon="-16.2614630">
        <ele>831.9</ele>
        <time>2020-11-11T08:29:34Z</time>
      </trkpt>
      <trkpt lat="28.5337600" lon="-16.2615280">
        <ele>832.9</ele>
        <time>2020-11-11T08:29:35Z</time>
      </trkpt>
      <trkpt lat="28.5337480" lon="-16.2615630">
        <ele>832.9</ele>
        <time>2020-11-11T08:29:36Z</time>
      </trkpt>
      <trkpt lat="28.5337380" lon="-16.2615900">
        <ele>832.9</ele>
        <time>2020-11-11T08:29:37Z</time>
      </trkpt>
      <trkpt lat="28.5337380" lon="-16.2615900">
        <ele>832.9</ele>
        <time>2020-11-11T08:29:38Z</time>
      </trkpt>
      <trkpt lat="28.5337200" lon="-16.2616520">
        <ele>832.9</ele>
        <time>2020-11-11T08:29:39Z</time>
      </trkpt>
      <trkpt lat="28.5337200" lon="-16.2616520">
        <ele>832.9</ele>
        <time>2020-11-11T08:29:40Z</time>
      </trkpt>
      <trkpt lat="28.5336920" lon="-16.2617180">
        <ele>832.9</ele>
        <time>2020-11-11T08:29:41Z</time>
      </trkpt>
      <trkpt lat="28.5336920" lon="-16.2617180">
        <ele>832.9</ele>
        <time>2020-11-11T08:29:42Z</time>
      </trkpt>
      <trkpt lat="28.5336900" lon="-16.2617780">
        <ele>832.9</ele>
        <time>2020-11-11T08:29:43Z</time>
      </trkpt>
      <trkpt lat="28.5336900" lon="-16.2617780">
        <ele>832.9</ele>
        <time>2020-11-11T08:29:44Z</time>
      </trkpt>
      <trkpt lat="28.5336730" lon="-16.2618250">
        <ele>833.9</ele>
        <time>2020-11-11T08:29:45Z</time>
      </trkpt>
      <trkpt lat="28.5336730" lon="-16.2618250">
        <ele>833.9</ele>
        <time>2020-11-11T08:29:46Z</time>
      </trkpt>
      <trkpt lat="28.5336620" lon="-16.2618770">
        <ele>833.9</ele>
        <time>2020-11-11T08:29:47Z</time>
      </trkpt>
      <trkpt lat="28.5336620" lon="-16.2618770">
        <ele>833.9</ele>
        <time>2020-11-11T08:29:48Z</time>
      </trkpt>
      <trkpt lat="28.5336420" lon="-16.2619250">
        <ele>833.9</ele>
        <time>2020-11-11T08:29:49Z</time>
      </trkpt>
      <trkpt lat="28.5336420" lon="-16.2619250">
        <ele>833.9</ele>
        <time>2020-11-11T08:29:50Z</time>
      </trkpt>
      <trkpt lat="28.5336330" lon="-16.2619770">
        <ele>833.9</ele>
        <time>2020-11-11T08:29:51Z</time>
      </trkpt>
      <trkpt lat="28.5336330" lon="-16.2619770">
        <ele>833.9</ele>
        <time>2020-11-11T08:29:52Z</time>
      </trkpt>
      <trkpt lat="28.5336480" lon="-16.2620180">
        <ele>833.9</ele>
        <time>2020-11-11T08:29:53Z</time>
      </trkpt>
      <trkpt lat="28.5336620" lon="-16.2620320">
        <ele>833.9</ele>
        <time>2020-11-11T08:29:54Z</time>
      </trkpt>
      <trkpt lat="28.5336670" lon="-16.2620570">
        <ele>833.9</ele>
        <time>2020-11-11T08:29:55Z</time>
      </trkpt>
      <trkpt lat="28.5336670" lon="-16.2620570">
        <ele>833.9</ele>
        <time>2020-11-11T08:29:56Z</time>
      </trkpt>
      <trkpt lat="28.5336850" lon="-16.2620880">
        <ele>833.9</ele>
        <time>2020-11-11T08:29:57Z</time>
      </trkpt>
      <trkpt lat="28.5336980" lon="-16.2621030">
        <ele>833.9</ele>
        <time>2020-11-11T08:29:58Z</time>
      </trkpt>
      <trkpt lat="28.5336980" lon="-16.2621030">
        <ele>834.9</ele>
        <time>2020-11-11T08:29:59Z</time>
      </trkpt>
      <trkpt lat="28.5337630" lon="-16.2621120">
        <ele>834.9</ele>
        <time>2020-11-11T08:30:00Z</time>
      </trkpt>
      <trkpt lat="28.5337980" lon="-16.2621030">
        <ele>834.9</ele>
        <time>2020-11-11T08:30:01Z</time>
      </trkpt>
      <trkpt lat="28.5337980" lon="-16.2621030">
        <ele>834.9</ele>
        <time>2020-11-11T08:30:02Z</time>
      </trkpt>
      <trkpt lat="28.5338480" lon="-16.2621150">
        <ele>834.9</ele>
        <time>2020-11-11T08:30:03Z</time>
      </trkpt>
      <trkpt lat="28.5338480" lon="-16.2621150">
        <ele>834.9</ele>
        <time>2020-11-11T08:30:04Z</time>
      </trkpt>
      <trkpt lat="28.5339020" lon="-16.2621170">
        <ele>835.9</ele>
        <time>2020-11-11T08:30:05Z</time>
      </trkpt>
      <trkpt lat="28.5339300" lon="-16.2621900">
        <ele>835.9</ele>
        <time>2020-11-11T08:30:06Z</time>
      </trkpt>
      <trkpt lat="28.5339300" lon="-16.2621900">
        <ele>835.9</ele>
        <time>2020-11-11T08:30:07Z</time>
      </trkpt>
      <trkpt lat="28.5339980" lon="-16.2621880">
        <ele>836.9</ele>
        <time>2020-11-11T08:30:08Z</time>
      </trkpt>
      <trkpt lat="28.5340250" lon="-16.2621830">
        <ele>836.9</ele>
        <time>2020-11-11T08:30:09Z</time>
      </trkpt>
      <trkpt lat="28.5340250" lon="-16.2621830">
        <ele>836.9</ele>
        <time>2020-11-11T08:30:10Z</time>
      </trkpt>
      <trkpt lat="28.5340750" lon="-16.2621970">
        <ele>836.9</ele>
        <time>2020-11-11T08:30:11Z</time>
      </trkpt>
      <trkpt lat="28.5340750" lon="-16.2621970">
        <ele>837.9</ele>
        <time>2020-11-11T08:30:12Z</time>
      </trkpt>
      <trkpt lat="28.5341270" lon="-16.2621930">
        <ele>837.9</ele>
        <time>2020-11-11T08:30:13Z</time>
      </trkpt>
      <trkpt lat="28.5341270" lon="-16.2621930">
        <ele>837.9</ele>
        <time>2020-11-11T08:30:14Z</time>
      </trkpt>
      <trkpt lat="28.5341770" lon="-16.2621800">
        <ele>837.9</ele>
        <time>2020-11-11T08:30:15Z</time>
      </trkpt>
      <trkpt lat="28.5342030" lon="-16.2621870">
        <ele>837.9</ele>
        <time>2020-11-11T08:30:16Z</time>
      </trkpt>
      <trkpt lat="28.5342030" lon="-16.2621870">
        <ele>837.9</ele>
        <time>2020-11-11T08:30:17Z</time>
      </trkpt>
      <trkpt lat="28.5342480" lon="-16.2621920">
        <ele>838.9</ele>
        <time>2020-11-11T08:30:18Z</time>
      </trkpt>
      <trkpt lat="28.5342730" lon="-16.2621880">
        <ele>838.9</ele>
        <time>2020-11-11T08:30:19Z</time>
      </trkpt>
      <trkpt lat="28.5342730" lon="-16.2621880">
        <ele>838.9</ele>
        <time>2020-11-11T08:30:20Z</time>
      </trkpt>
      <trkpt lat="28.5343250" lon="-16.2621820">
        <ele>838.9</ele>
        <time>2020-11-11T08:30:21Z</time>
      </trkpt>
      <trkpt lat="28.5343250" lon="-16.2621820">
        <ele>838.9</ele>
        <time>2020-11-11T08:30:22Z</time>
      </trkpt>
      <trkpt lat="28.5343650" lon="-16.2621730">
        <ele>838.9</ele>
        <time>2020-11-11T08:30:23Z</time>
      </trkpt>
      <trkpt lat="28.5343650" lon="-16.2621730">
        <ele>838.9</ele>
        <time>2020-11-11T08:30:24Z</time>
      </trkpt>
      <trkpt lat="28.5344000" lon="-16.2621550">
        <ele>838.9</ele>
        <time>2020-11-11T08:30:25Z</time>
      </trkpt>
      <trkpt lat="28.5344000" lon="-16.2621550">
        <ele>839.9</ele>
        <time>2020-11-11T08:30:26Z</time>
      </trkpt>
      <trkpt lat="28.5344380" lon="-16.2621420">
        <ele>839.9</ele>
        <time>2020-11-11T08:30:27Z</time>
      </trkpt>
      <trkpt lat="28.5344580" lon="-16.2621350">
        <ele>839.9</ele>
        <time>2020-11-11T08:30:28Z</time>
      </trkpt>
      <trkpt lat="28.5344580" lon="-16.2621350">
        <ele>839.9</ele>
        <time>2020-11-11T08:30:29Z</time>
      </trkpt>
      <trkpt lat="28.5344950" lon="-16.2621330">
        <ele>839.9</ele>
        <time>2020-11-11T08:30:30Z</time>
      </trkpt>
      <trkpt lat="28.5345100" lon="-16.2621350">
        <ele>839.9</ele>
        <time>2020-11-11T08:30:31Z</time>
      </trkpt>
      <trkpt lat="28.5345100" lon="-16.2621350">
        <ele>840.9</ele>
        <time>2020-11-11T08:30:32Z</time>
      </trkpt>
      <trkpt lat="28.5345500" lon="-16.2621350">
        <ele>840.9</ele>
        <time>2020-11-11T08:30:33Z</time>
      </trkpt>
      <trkpt lat="28.5345500" lon="-16.2621350">
        <ele>840.9</ele>
        <time>2020-11-11T08:30:34Z</time>
      </trkpt>
      <trkpt lat="28.5345900" lon="-16.2621400">
        <ele>840.9</ele>
        <time>2020-11-11T08:30:35Z</time>
      </trkpt>
      <trkpt lat="28.5346130" lon="-16.2621400">
        <ele>840.9</ele>
        <time>2020-11-11T08:30:36Z</time>
      </trkpt>
      <trkpt lat="28.5346470" lon="-16.2621420">
        <ele>840.9</ele>
        <time>2020-11-11T08:30:37Z</time>
      </trkpt>
      <trkpt lat="28.5346470" lon="-16.2621420">
        <ele>841.9</ele>
        <time>2020-11-11T08:30:38Z</time>
      </trkpt>
      <trkpt lat="28.5346930" lon="-16.2621450">
        <ele>841.9</ele>
        <time>2020-11-11T08:30:39Z</time>
      </trkpt>
      <trkpt lat="28.5347120" lon="-16.2621450">
        <ele>841.9</ele>
        <time>2020-11-11T08:30:40Z</time>
      </trkpt>
      <trkpt lat="28.5347120" lon="-16.2621450">
        <ele>841.9</ele>
        <time>2020-11-11T08:30:41Z</time>
      </trkpt>
      <trkpt lat="28.5347480" lon="-16.2621370">
        <ele>842.9</ele>
        <time>2020-11-11T08:30:42Z</time>
      </trkpt>
      <trkpt lat="28.5347480" lon="-16.2621370">
        <ele>842.9</ele>
        <time>2020-11-11T08:30:43Z</time>
      </trkpt>
      <trkpt lat="28.5347900" lon="-16.2621520">
        <ele>842.9</ele>
        <time>2020-11-11T08:30:44Z</time>
      </trkpt>
      <trkpt lat="28.5348080" lon="-16.2621630">
        <ele>843.9</ele>
        <time>2020-11-11T08:30:45Z</time>
      </trkpt>
      <trkpt lat="28.5348080" lon="-16.2621630">
        <ele>843.9</ele>
        <time>2020-11-11T08:30:46Z</time>
      </trkpt>
      <trkpt lat="28.5348450" lon="-16.2621930">
        <ele>843.9</ele>
        <time>2020-11-11T08:30:47Z</time>
      </trkpt>
      <trkpt lat="28.5348450" lon="-16.2621930">
        <ele>843.9</ele>
        <time>2020-11-11T08:30:48Z</time>
      </trkpt>
      <trkpt lat="28.5348700" lon="-16.2622280">
        <ele>843.9</ele>
        <time>2020-11-11T08:30:49Z</time>
      </trkpt>
      <trkpt lat="28.5348700" lon="-16.2622280">
        <ele>843.9</ele>
        <time>2020-11-11T08:30:50Z</time>
      </trkpt>
      <trkpt lat="28.5348880" lon="-16.2622750">
        <ele>844.9</ele>
        <time>2020-11-11T08:30:51Z</time>
      </trkpt>
      <trkpt lat="28.5348880" lon="-16.2622750">
        <ele>844.9</ele>
        <time>2020-11-11T08:30:52Z</time>
      </trkpt>
      <trkpt lat="28.5349030" lon="-16.2623180">
        <ele>844.9</ele>
        <time>2020-11-11T08:30:53Z</time>
      </trkpt>
      <trkpt lat="28.5349080" lon="-16.2623400">
        <ele>844.9</ele>
        <time>2020-11-11T08:30:54Z</time>
      </trkpt>
      <trkpt lat="28.5349080" lon="-16.2623400">
        <ele>845.9</ele>
        <time>2020-11-11T08:30:55Z</time>
      </trkpt>
      <trkpt lat="28.5349150" lon="-16.2623800">
        <ele>845.9</ele>
        <time>2020-11-11T08:30:56Z</time>
      </trkpt>
      <trkpt lat="28.5349150" lon="-16.2623800">
        <ele>845.9</ele>
        <time>2020-11-11T08:30:57Z</time>
      </trkpt>
      <trkpt lat="28.5349180" lon="-16.2624230">
        <ele>845.9</ele>
        <time>2020-11-11T08:30:58Z</time>
      </trkpt>
      <trkpt lat="28.5349180" lon="-16.2624230">
        <ele>845.9</ele>
        <time>2020-11-11T08:30:59Z</time>
      </trkpt>
      <trkpt lat="28.5349100" lon="-16.2624720">
        <ele>845.9</ele>
        <time>2020-11-11T08:31:00Z</time>
      </trkpt>
      <trkpt lat="28.5349030" lon="-16.2624950">
        <ele>845.9</ele>
        <time>2020-11-11T08:31:01Z</time>
      </trkpt>
      <trkpt lat="28.5349030" lon="-16.2624950">
        <ele>846.9</ele>
        <time>2020-11-11T08:31:02Z</time>
      </trkpt>
      <trkpt lat="28.5348850" lon="-16.2625370">
        <ele>846.9</ele>
        <time>2020-11-11T08:31:03Z</time>
      </trkpt>
      <trkpt lat="28.5348780" lon="-16.2625550">
        <ele>846.9</ele>
        <time>2020-11-11T08:31:04Z</time>
      </trkpt>
      <trkpt lat="28.5348780" lon="-16.2625550">
        <ele>846.9</ele>
        <time>2020-11-11T08:31:05Z</time>
      </trkpt>
      <trkpt lat="28.5348600" lon="-16.2625980">
        <ele>846.9</ele>
        <time>2020-11-11T08:31:06Z</time>
      </trkpt>
      <trkpt lat="28.5348520" lon="-16.2626220">
        <ele>846.9</ele>
        <time>2020-11-11T08:31:07Z</time>
      </trkpt>
      <trkpt lat="28.5348520" lon="-16.2626220">
        <ele>847.9</ele>
        <time>2020-11-11T08:31:08Z</time>
      </trkpt>
      <trkpt lat="28.5348270" lon="-16.2626670">
        <ele>847.9</ele>
        <time>2020-11-11T08:31:09Z</time>
      </trkpt>
      <trkpt lat="28.5348270" lon="-16.2626670">
        <ele>847.9</ele>
        <time>2020-11-11T08:31:10Z</time>
      </trkpt>
      <trkpt lat="28.5348030" lon="-16.2627050">
        <ele>847.9</ele>
        <time>2020-11-11T08:31:11Z</time>
      </trkpt>
      <trkpt lat="28.5348030" lon="-16.2627050">
        <ele>847.9</ele>
        <time>2020-11-11T08:31:12Z</time>
      </trkpt>
      <trkpt lat="28.5347850" lon="-16.2627530">
        <ele>847.9</ele>
        <time>2020-11-11T08:31:13Z</time>
      </trkpt>
      <trkpt lat="28.5347850" lon="-16.2627530">
        <ele>848.9</ele>
        <time>2020-11-11T08:31:14Z</time>
      </trkpt>
      <trkpt lat="28.5347670" lon="-16.2628020">
        <ele>848.9</ele>
        <time>2020-11-11T08:31:15Z</time>
      </trkpt>
      <trkpt lat="28.5347620" lon="-16.2628300">
        <ele>848.9</ele>
        <time>2020-11-11T08:31:16Z</time>
      </trkpt>
      <trkpt lat="28.5347620" lon="-16.2628300">
        <ele>848.9</ele>
        <time>2020-11-11T08:31:17Z</time>
      </trkpt>
      <trkpt lat="28.5347420" lon="-16.2628830">
        <ele>849.9</ele>
        <time>2020-11-11T08:31:18Z</time>
      </trkpt>
      <trkpt lat="28.5347300" lon="-16.2629070">
        <ele>849.9</ele>
        <time>2020-11-11T08:31:19Z</time>
      </trkpt>
      <trkpt lat="28.5347300" lon="-16.2629070">
        <ele>849.9</ele>
        <time>2020-11-11T08:31:20Z</time>
      </trkpt>
      <trkpt lat="28.5347100" lon="-16.2629470">
        <ele>849.9</ele>
        <time>2020-11-11T08:31:21Z</time>
      </trkpt>
      <trkpt lat="28.5347000" lon="-16.2629700">
        <ele>849.9</ele>
        <time>2020-11-11T08:31:22Z</time>
      </trkpt>
      <trkpt lat="28.5347000" lon="-16.2629700">
        <ele>849.9</ele>
        <time>2020-11-11T08:31:23Z</time>
      </trkpt>
      <trkpt lat="28.5346870" lon="-16.2630220">
        <ele>849.9</ele>
        <time>2020-11-11T08:31:24Z</time>
      </trkpt>
      <trkpt lat="28.5346870" lon="-16.2630220">
        <ele>850.9</ele>
        <time>2020-11-11T08:31:25Z</time>
      </trkpt>
      <trkpt lat="28.5346770" lon="-16.2630750">
        <ele>850.9</ele>
        <time>2020-11-11T08:31:26Z</time>
      </trkpt>
      <trkpt lat="28.5346770" lon="-16.2630750">
        <ele>850.9</ele>
        <time>2020-11-11T08:31:27Z</time>
      </trkpt>
      <trkpt lat="28.5346730" lon="-16.2631300">
        <ele>850.9</ele>
        <time>2020-11-11T08:31:28Z</time>
      </trkpt>
      <trkpt lat="28.5346730" lon="-16.2631300">
        <ele>851.9</ele>
        <time>2020-11-11T08:31:29Z</time>
      </trkpt>
      <trkpt lat="28.5346750" lon="-16.2631880">
        <ele>851.9</ele>
        <time>2020-11-11T08:31:30Z</time>
      </trkpt>
      <trkpt lat="28.5346780" lon="-16.2632130">
        <ele>851.9</ele>
        <time>2020-11-11T08:31:31Z</time>
      </trkpt>
      <trkpt lat="28.5346800" lon="-16.2632420">
        <ele>851.9</ele>
        <time>2020-11-11T08:31:32Z</time>
      </trkpt>
      <trkpt lat="28.5346800" lon="-16.2632420">
        <ele>852.9</ele>
        <time>2020-11-11T08:31:33Z</time>
      </trkpt>
      <trkpt lat="28.5347000" lon="-16.2632930">
        <ele>852.9</ele>
        <time>2020-11-11T08:31:34Z</time>
      </trkpt>
      <trkpt lat="28.5347000" lon="-16.2632930">
        <ele>852.9</ele>
        <time>2020-11-11T08:31:35Z</time>
      </trkpt>
      <trkpt lat="28.5347280" lon="-16.2633450">
        <ele>852.9</ele>
        <time>2020-11-11T08:31:36Z</time>
      </trkpt>
      <trkpt lat="28.5347280" lon="-16.2633450">
        <ele>853.9</ele>
        <time>2020-11-11T08:31:37Z</time>
      </trkpt>
      <trkpt lat="28.5347570" lon="-16.2633850">
        <ele>853.9</ele>
        <time>2020-11-11T08:31:38Z</time>
      </trkpt>
      <trkpt lat="28.5347570" lon="-16.2633850">
        <ele>853.9</ele>
        <time>2020-11-11T08:31:39Z</time>
      </trkpt>
      <trkpt lat="28.5347830" lon="-16.2634120">
        <ele>853.9</ele>
        <time>2020-11-11T08:31:40Z</time>
      </trkpt>
      <trkpt lat="28.5348000" lon="-16.2634270">
        <ele>853.9</ele>
        <time>2020-11-11T08:31:41Z</time>
      </trkpt>
      <trkpt lat="28.5348000" lon="-16.2634270">
        <ele>853.9</ele>
        <time>2020-11-11T08:31:42Z</time>
      </trkpt>
      <trkpt lat="28.5348300" lon="-16.2634600">
        <ele>853.9</ele>
        <time>2020-11-11T08:31:43Z</time>
      </trkpt>
      <trkpt lat="28.5348300" lon="-16.2634600">
        <ele>853.9</ele>
        <time>2020-11-11T08:31:44Z</time>
      </trkpt>
      <trkpt lat="28.5348550" lon="-16.2634930">
        <ele>853.9</ele>
        <time>2020-11-11T08:31:45Z</time>
      </trkpt>
      <trkpt lat="28.5348550" lon="-16.2634930">
        <ele>854.9</ele>
        <time>2020-11-11T08:31:46Z</time>
      </trkpt>
      <trkpt lat="28.5348730" lon="-16.2635280">
        <ele>854.9</ele>
        <time>2020-11-11T08:31:47Z</time>
      </trkpt>
      <trkpt lat="28.5348730" lon="-16.2635280">
        <ele>854.9</ele>
        <time>2020-11-11T08:31:48Z</time>
      </trkpt>
      <trkpt lat="28.5348950" lon="-16.2635650">
        <ele>854.9</ele>
        <time>2020-11-11T08:31:49Z</time>
      </trkpt>
      <trkpt lat="28.5348950" lon="-16.2635650">
        <ele>855.9</ele>
        <time>2020-11-11T08:31:50Z</time>
      </trkpt>
      <trkpt lat="28.5349170" lon="-16.2636070">
        <ele>855.9</ele>
        <time>2020-11-11T08:31:51Z</time>
      </trkpt>
      <trkpt lat="28.5349170" lon="-16.2636070">
        <ele>855.9</ele>
        <time>2020-11-11T08:31:52Z</time>
      </trkpt>
      <trkpt lat="28.5349380" lon="-16.2636450">
        <ele>855.9</ele>
        <time>2020-11-11T08:31:53Z</time>
      </trkpt>
      <trkpt lat="28.5349380" lon="-16.2636450">
        <ele>856.9</ele>
        <time>2020-11-11T08:31:54Z</time>
      </trkpt>
      <trkpt lat="28.5349600" lon="-16.2636900">
        <ele>856.9</ele>
        <time>2020-11-11T08:31:55Z</time>
      </trkpt>
      <trkpt lat="28.5349600" lon="-16.2636900">
        <ele>856.9</ele>
        <time>2020-11-11T08:31:56Z</time>
      </trkpt>
      <trkpt lat="28.5349820" lon="-16.2637350">
        <ele>856.9</ele>
        <time>2020-11-11T08:31:57Z</time>
      </trkpt>
      <trkpt lat="28.5349880" lon="-16.2637580">
        <ele>856.9</ele>
        <time>2020-11-11T08:31:58Z</time>
      </trkpt>
      <trkpt lat="28.5349880" lon="-16.2637580">
        <ele>856.9</ele>
        <time>2020-11-11T08:31:59Z</time>
      </trkpt>
      <trkpt lat="28.5350050" lon="-16.2637980">
        <ele>857.9</ele>
        <time>2020-11-11T08:32:00Z</time>
      </trkpt>
      <trkpt lat="28.5350120" lon="-16.2638200">
        <ele>857.9</ele>
        <time>2020-11-11T08:32:01Z</time>
      </trkpt>
      <trkpt lat="28.5350120" lon="-16.2638200">
        <ele>857.9</ele>
        <time>2020-11-11T08:32:02Z</time>
      </trkpt>
      <trkpt lat="28.5350130" lon="-16.2638620">
        <ele>857.9</ele>
        <time>2020-11-11T08:32:03Z</time>
      </trkpt>
      <trkpt lat="28.5350130" lon="-16.2638620">
        <ele>857.9</ele>
        <time>2020-11-11T08:32:04Z</time>
      </trkpt>
      <trkpt lat="28.5350070" lon="-16.2639050">
        <ele>857.9</ele>
        <time>2020-11-11T08:32:05Z</time>
      </trkpt>
      <trkpt lat="28.5350070" lon="-16.2639050">
        <ele>857.9</ele>
        <time>2020-11-11T08:32:06Z</time>
      </trkpt>
      <trkpt lat="28.5349920" lon="-16.2639520">
        <ele>857.9</ele>
        <time>2020-11-11T08:32:07Z</time>
      </trkpt>
      <trkpt lat="28.5349920" lon="-16.2639520">
        <ele>858.9</ele>
        <time>2020-11-11T08:32:08Z</time>
      </trkpt>
      <trkpt lat="28.5349730" lon="-16.2639900">
        <ele>858.9</ele>
        <time>2020-11-11T08:32:09Z</time>
      </trkpt>
      <trkpt lat="28.5349730" lon="-16.2639900">
        <ele>858.9</ele>
        <time>2020-11-11T08:32:10Z</time>
      </trkpt>
      <trkpt lat="28.5349520" lon="-16.2640200">
        <ele>858.9</ele>
        <time>2020-11-11T08:32:11Z</time>
      </trkpt>
      <trkpt lat="28.5349520" lon="-16.2640200">
        <ele>859.9</ele>
        <time>2020-11-11T08:32:12Z</time>
      </trkpt>
      <trkpt lat="28.5349230" lon="-16.2640620">
        <ele>859.9</ele>
        <time>2020-11-11T08:32:13Z</time>
      </trkpt>
      <trkpt lat="28.5349080" lon="-16.2640800">
        <ele>859.9</ele>
        <time>2020-11-11T08:32:14Z</time>
      </trkpt>
      <trkpt lat="28.5348930" lon="-16.2640950">
        <ele>859.9</ele>
        <time>2020-11-11T08:32:15Z</time>
      </trkpt>
      <trkpt lat="28.5348930" lon="-16.2640950">
        <ele>859.9</ele>
        <time>2020-11-11T08:32:16Z</time>
      </trkpt>
      <trkpt lat="28.5348630" lon="-16.2641230">
        <ele>859.9</ele>
        <time>2020-11-11T08:32:17Z</time>
      </trkpt>
      <trkpt lat="28.5348630" lon="-16.2641230">
        <ele>860.9</ele>
        <time>2020-11-11T08:32:18Z</time>
      </trkpt>
      <trkpt lat="28.5348430" lon="-16.2641480">
        <ele>860.9</ele>
        <time>2020-11-11T08:32:19Z</time>
      </trkpt>
      <trkpt lat="28.5348430" lon="-16.2641480">
        <ele>860.9</ele>
        <time>2020-11-11T08:32:20Z</time>
      </trkpt>
      <trkpt lat="28.5348250" lon="-16.2641820">
        <ele>860.9</ele>
        <time>2020-11-11T08:32:21Z</time>
      </trkpt>
      <trkpt lat="28.5348250" lon="-16.2641820">
        <ele>860.9</ele>
        <time>2020-11-11T08:32:22Z</time>
      </trkpt>
      <trkpt lat="28.5348070" lon="-16.2642130">
        <ele>860.9</ele>
        <time>2020-11-11T08:32:23Z</time>
      </trkpt>
      <trkpt lat="28.5348070" lon="-16.2642130">
        <ele>861.9</ele>
        <time>2020-11-11T08:32:24Z</time>
      </trkpt>
      <trkpt lat="28.5347870" lon="-16.2642530">
        <ele>861.9</ele>
        <time>2020-11-11T08:32:25Z</time>
      </trkpt>
      <trkpt lat="28.5347870" lon="-16.2642530">
        <ele>861.9</ele>
        <time>2020-11-11T08:32:26Z</time>
      </trkpt>
      <trkpt lat="28.5347620" lon="-16.2642880">
        <ele>861.9</ele>
        <time>2020-11-11T08:32:27Z</time>
      </trkpt>
      <trkpt lat="28.5347570" lon="-16.2643080">
        <ele>861.9</ele>
        <time>2020-11-11T08:32:28Z</time>
      </trkpt>
      <trkpt lat="28.5347500" lon="-16.2643200">
        <ele>861.9</ele>
        <time>2020-11-11T08:32:29Z</time>
      </trkpt>
      <trkpt lat="28.5347500" lon="-16.2643200">
        <ele>862.9</ele>
        <time>2020-11-11T08:32:30Z</time>
      </trkpt>
      <trkpt lat="28.5347580" lon="-16.2643520">
        <ele>862.9</ele>
        <time>2020-11-11T08:32:31Z</time>
      </trkpt>
      <trkpt lat="28.5347580" lon="-16.2643520">
        <ele>862.9</ele>
        <time>2020-11-11T08:32:32Z</time>
      </trkpt>
      <trkpt lat="28.5347570" lon="-16.2644030">
        <ele>862.9</ele>
        <time>2020-11-11T08:32:33Z</time>
      </trkpt>
      <trkpt lat="28.5347570" lon="-16.2644030">
        <ele>862.9</ele>
        <time>2020-11-11T08:32:34Z</time>
      </trkpt>
      <trkpt lat="28.5347320" lon="-16.2644720">
        <ele>862.9</ele>
        <time>2020-11-11T08:32:35Z</time>
      </trkpt>
      <trkpt lat="28.5347320" lon="-16.2644720">
        <ele>863.9</ele>
        <time>2020-11-11T08:32:36Z</time>
      </trkpt>
      <trkpt lat="28.5347300" lon="-16.2645200">
        <ele>863.9</ele>
        <time>2020-11-11T08:32:37Z</time>
      </trkpt>
      <trkpt lat="28.5347380" lon="-16.2645430">
        <ele>863.9</ele>
        <time>2020-11-11T08:32:38Z</time>
      </trkpt>
      <trkpt lat="28.5347380" lon="-16.2645430">
        <ele>863.9</ele>
        <time>2020-11-11T08:32:39Z</time>
      </trkpt>
      <trkpt lat="28.5347270" lon="-16.2645880">
        <ele>863.9</ele>
        <time>2020-11-11T08:32:40Z</time>
      </trkpt>
      <trkpt lat="28.5347050" lon="-16.2646130">
        <ele>863.9</ele>
        <time>2020-11-11T08:32:41Z</time>
      </trkpt>
      <trkpt lat="28.5347050" lon="-16.2646130">
        <ele>863.9</ele>
        <time>2020-11-11T08:32:42Z</time>
      </trkpt>
      <trkpt lat="28.5346800" lon="-16.2646300">
        <ele>863.9</ele>
        <time>2020-11-11T08:32:43Z</time>
      </trkpt>
      <trkpt lat="28.5346750" lon="-16.2646480">
        <ele>863.9</ele>
        <time>2020-11-11T08:32:44Z</time>
      </trkpt>
      <trkpt lat="28.5346750" lon="-16.2646480">
        <ele>863.9</ele>
        <time>2020-11-11T08:32:45Z</time>
      </trkpt>
      <trkpt lat="28.5346720" lon="-16.2646970">
        <ele>863.9</ele>
        <time>2020-11-11T08:32:46Z</time>
      </trkpt>
      <trkpt lat="28.5346750" lon="-16.2647220">
        <ele>864.9</ele>
        <time>2020-11-11T08:32:47Z</time>
      </trkpt>
      <trkpt lat="28.5346750" lon="-16.2647220">
        <ele>864.9</ele>
        <time>2020-11-11T08:32:48Z</time>
      </trkpt>
      <trkpt lat="28.5346800" lon="-16.2647770">
        <ele>864.9</ele>
        <time>2020-11-11T08:32:49Z</time>
      </trkpt>
      <trkpt lat="28.5346800" lon="-16.2647770">
        <ele>864.9</ele>
        <time>2020-11-11T08:32:50Z</time>
      </trkpt>
      <trkpt lat="28.5346900" lon="-16.2648420">
        <ele>864.9</ele>
        <time>2020-11-11T08:32:51Z</time>
      </trkpt>
      <trkpt lat="28.5346900" lon="-16.2648420">
        <ele>864.9</ele>
        <time>2020-11-11T08:32:52Z</time>
      </trkpt>
      <trkpt lat="28.5346980" lon="-16.2648900">
        <ele>865.9</ele>
        <time>2020-11-11T08:32:53Z</time>
      </trkpt>
      <trkpt lat="28.5346980" lon="-16.2648900">
        <ele>865.9</ele>
        <time>2020-11-11T08:32:54Z</time>
      </trkpt>
      <trkpt lat="28.5347150" lon="-16.2649330">
        <ele>865.9</ele>
        <time>2020-11-11T08:32:55Z</time>
      </trkpt>
      <trkpt lat="28.5347150" lon="-16.2649330">
        <ele>865.9</ele>
        <time>2020-11-11T08:32:56Z</time>
      </trkpt>
      <trkpt lat="28.5347300" lon="-16.2649750">
        <ele>865.9</ele>
        <time>2020-11-11T08:32:57Z</time>
      </trkpt>
      <trkpt lat="28.5347300" lon="-16.2649750">
        <ele>865.9</ele>
        <time>2020-11-11T08:32:58Z</time>
      </trkpt>
      <trkpt lat="28.5347570" lon="-16.2650100">
        <ele>866.9</ele>
        <time>2020-11-11T08:32:59Z</time>
      </trkpt>
      <trkpt lat="28.5347570" lon="-16.2650100">
        <ele>866.9</ele>
        <time>2020-11-11T08:33:00Z</time>
      </trkpt>
      <trkpt lat="28.5347750" lon="-16.2650530">
        <ele>866.9</ele>
        <time>2020-11-11T08:33:01Z</time>
      </trkpt>
      <trkpt lat="28.5347750" lon="-16.2650530">
        <ele>866.9</ele>
        <time>2020-11-11T08:33:02Z</time>
      </trkpt>
      <trkpt lat="28.5347800" lon="-16.2651080">
        <ele>867.9</ele>
        <time>2020-11-11T08:33:03Z</time>
      </trkpt>
      <trkpt lat="28.5347850" lon="-16.2651350">
        <ele>867.9</ele>
        <time>2020-11-11T08:33:04Z</time>
      </trkpt>
      <trkpt lat="28.5347850" lon="-16.2651350">
        <ele>867.9</ele>
        <time>2020-11-11T08:33:05Z</time>
      </trkpt>
      <trkpt lat="28.5348000" lon="-16.2651800">
        <ele>867.9</ele>
        <time>2020-11-11T08:33:06Z</time>
      </trkpt>
      <trkpt lat="28.5348130" lon="-16.2652020">
        <ele>868.9</ele>
        <time>2020-11-11T08:33:07Z</time>
      </trkpt>
      <trkpt lat="28.5348130" lon="-16.2652020">
        <ele>868.9</ele>
        <time>2020-11-11T08:33:08Z</time>
      </trkpt>
      <trkpt lat="28.5348320" lon="-16.2652480">
        <ele>868.9</ele>
        <time>2020-11-11T08:33:09Z</time>
      </trkpt>
      <trkpt lat="28.5348320" lon="-16.2652480">
        <ele>868.9</ele>
        <time>2020-11-11T08:33:10Z</time>
      </trkpt>
      <trkpt lat="28.5348320" lon="-16.2652970">
        <ele>868.9</ele>
        <time>2020-11-11T08:33:11Z</time>
      </trkpt>
      <trkpt lat="28.5348320" lon="-16.2652970">
        <ele>868.9</ele>
        <time>2020-11-11T08:33:12Z</time>
      </trkpt>
      <trkpt lat="28.5348550" lon="-16.2653620">
        <ele>868.9</ele>
        <time>2020-11-11T08:33:13Z</time>
      </trkpt>
      <trkpt lat="28.5348650" lon="-16.2654000">
        <ele>868.9</ele>
        <time>2020-11-11T08:33:14Z</time>
      </trkpt>
      <trkpt lat="28.5348650" lon="-16.2654000">
        <ele>868.9</ele>
        <time>2020-11-11T08:33:15Z</time>
      </trkpt>
      <trkpt lat="28.5348850" lon="-16.2654530">
        <ele>868.9</ele>
        <time>2020-11-11T08:33:16Z</time>
      </trkpt>
      <trkpt lat="28.5348950" lon="-16.2654770">
        <ele>868.9</ele>
        <time>2020-11-11T08:33:17Z</time>
      </trkpt>
      <trkpt lat="28.5349080" lon="-16.2654950">
        <ele>869.9</ele>
        <time>2020-11-11T08:33:18Z</time>
      </trkpt>
      <trkpt lat="28.5349080" lon="-16.2654950">
        <ele>869.9</ele>
        <time>2020-11-11T08:33:19Z</time>
      </trkpt>
      <trkpt lat="28.5349320" lon="-16.2655370">
        <ele>869.9</ele>
        <time>2020-11-11T08:33:20Z</time>
      </trkpt>
      <trkpt lat="28.5349380" lon="-16.2655650">
        <ele>869.9</ele>
        <time>2020-11-11T08:33:21Z</time>
      </trkpt>
      <trkpt lat="28.5349380" lon="-16.2655650">
        <ele>869.9</ele>
        <time>2020-11-11T08:33:22Z</time>
      </trkpt>
      <trkpt lat="28.5349550" lon="-16.2656170">
        <ele>869.9</ele>
        <time>2020-11-11T08:33:23Z</time>
      </trkpt>
      <trkpt lat="28.5349550" lon="-16.2656170">
        <ele>869.9</ele>
        <time>2020-11-11T08:33:24Z</time>
      </trkpt>
      <trkpt lat="28.5349920" lon="-16.2656600">
        <ele>869.9</ele>
        <time>2020-11-11T08:33:25Z</time>
      </trkpt>
      <trkpt lat="28.5349920" lon="-16.2656600">
        <ele>869.9</ele>
        <time>2020-11-11T08:33:26Z</time>
      </trkpt>
      <trkpt lat="28.5350320" lon="-16.2656950">
        <ele>870.9</ele>
        <time>2020-11-11T08:33:27Z</time>
      </trkpt>
      <trkpt lat="28.5350320" lon="-16.2656950">
        <ele>870.9</ele>
        <time>2020-11-11T08:33:28Z</time>
      </trkpt>
      <trkpt lat="28.5350720" lon="-16.2657170">
        <ele>870.9</ele>
        <time>2020-11-11T08:33:29Z</time>
      </trkpt>
      <trkpt lat="28.5350950" lon="-16.2657300">
        <ele>870.9</ele>
        <time>2020-11-11T08:33:30Z</time>
      </trkpt>
      <trkpt lat="28.5350950" lon="-16.2657300">
        <ele>871.9</ele>
        <time>2020-11-11T08:33:31Z</time>
      </trkpt>
      <trkpt lat="28.5351350" lon="-16.2657530">
        <ele>871.9</ele>
        <time>2020-11-11T08:33:32Z</time>
      </trkpt>
      <trkpt lat="28.5351350" lon="-16.2657530">
        <ele>871.9</ele>
        <time>2020-11-11T08:33:33Z</time>
      </trkpt>
      <trkpt lat="28.5351730" lon="-16.2657670">
        <ele>871.9</ele>
        <time>2020-11-11T08:33:34Z</time>
      </trkpt>
      <trkpt lat="28.5351730" lon="-16.2657670">
        <ele>871.9</ele>
        <time>2020-11-11T08:33:35Z</time>
      </trkpt>
      <trkpt lat="28.5352120" lon="-16.2657780">
        <ele>871.9</ele>
        <time>2020-11-11T08:33:36Z</time>
      </trkpt>
      <trkpt lat="28.5352320" lon="-16.2657830">
        <ele>872.9</ele>
        <time>2020-11-11T08:33:37Z</time>
      </trkpt>
      <trkpt lat="28.5352320" lon="-16.2657830">
        <ele>872.9</ele>
        <time>2020-11-11T08:33:38Z</time>
      </trkpt>
      <trkpt lat="28.5352700" lon="-16.2657870">
        <ele>872.9</ele>
        <time>2020-11-11T08:33:39Z</time>
      </trkpt>
      <trkpt lat="28.5352700" lon="-16.2657870">
        <ele>872.9</ele>
        <time>2020-11-11T08:33:40Z</time>
      </trkpt>
      <trkpt lat="28.5353000" lon="-16.2658120">
        <ele>872.9</ele>
        <time>2020-11-11T08:33:41Z</time>
      </trkpt>
      <trkpt lat="28.5353220" lon="-16.2658150">
        <ele>873.9</ele>
        <time>2020-11-11T08:33:42Z</time>
      </trkpt>
      <trkpt lat="28.5353220" lon="-16.2658150">
        <ele>873.9</ele>
        <time>2020-11-11T08:33:43Z</time>
      </trkpt>
      <trkpt lat="28.5353970" lon="-16.2658580">
        <ele>873.9</ele>
        <time>2020-11-11T08:33:44Z</time>
      </trkpt>
      <trkpt lat="28.5353970" lon="-16.2658580">
        <ele>873.9</ele>
        <time>2020-11-11T08:33:45Z</time>
      </trkpt>
      <trkpt lat="28.5354500" lon="-16.2658900">
        <ele>874.9</ele>
        <time>2020-11-11T08:33:46Z</time>
      </trkpt>
      <trkpt lat="28.5354750" lon="-16.2658970">
        <ele>874.9</ele>
        <time>2020-11-11T08:33:47Z</time>
      </trkpt>
      <trkpt lat="28.5354750" lon="-16.2658970">
        <ele>874.9</ele>
        <time>2020-11-11T08:33:48Z</time>
      </trkpt>
      <trkpt lat="28.5355150" lon="-16.2659100">
        <ele>874.9</ele>
        <time>2020-11-11T08:33:49Z</time>
      </trkpt>
      <trkpt lat="28.5355350" lon="-16.2659180">
        <ele>874.9</ele>
        <time>2020-11-11T08:33:50Z</time>
      </trkpt>
      <trkpt lat="28.5355350" lon="-16.2659180">
        <ele>875.9</ele>
        <time>2020-11-11T08:33:51Z</time>
      </trkpt>
      <trkpt lat="28.5355720" lon="-16.2659450">
        <ele>875.9</ele>
        <time>2020-11-11T08:33:52Z</time>
      </trkpt>
      <trkpt lat="28.5355900" lon="-16.2659570">
        <ele>875.9</ele>
        <time>2020-11-11T08:33:53Z</time>
      </trkpt>
      <trkpt lat="28.5355900" lon="-16.2659570">
        <ele>875.9</ele>
        <time>2020-11-11T08:33:54Z</time>
      </trkpt>
      <trkpt lat="28.5356300" lon="-16.2659820">
        <ele>875.9</ele>
        <time>2020-11-11T08:33:55Z</time>
      </trkpt>
      <trkpt lat="28.5356300" lon="-16.2659820">
        <ele>875.9</ele>
        <time>2020-11-11T08:33:56Z</time>
      </trkpt>
      <trkpt lat="28.5356670" lon="-16.2660100">
        <ele>875.9</ele>
        <time>2020-11-11T08:33:57Z</time>
      </trkpt>
      <trkpt lat="28.5356670" lon="-16.2660100">
        <ele>875.9</ele>
        <time>2020-11-11T08:33:58Z</time>
      </trkpt>
      <trkpt lat="28.5357030" lon="-16.2660380">
        <ele>875.9</ele>
        <time>2020-11-11T08:33:59Z</time>
      </trkpt>
      <trkpt lat="28.5357030" lon="-16.2660380">
        <ele>875.9</ele>
        <time>2020-11-11T08:34:00Z</time>
      </trkpt>
      <trkpt lat="28.5357430" lon="-16.2660700">
        <ele>876.9</ele>
        <time>2020-11-11T08:34:01Z</time>
      </trkpt>
      <trkpt lat="28.5357430" lon="-16.2660700">
        <ele>876.9</ele>
        <time>2020-11-11T08:34:02Z</time>
      </trkpt>
      <trkpt lat="28.5357720" lon="-16.2661050">
        <ele>876.9</ele>
        <time>2020-11-11T08:34:03Z</time>
      </trkpt>
      <trkpt lat="28.5357720" lon="-16.2661050">
        <ele>876.9</ele>
        <time>2020-11-11T08:34:04Z</time>
      </trkpt>
      <trkpt lat="28.5357950" lon="-16.2661400">
        <ele>876.9</ele>
        <time>2020-11-11T08:34:05Z</time>
      </trkpt>
      <trkpt lat="28.5357950" lon="-16.2661400">
        <ele>877.9</ele>
        <time>2020-11-11T08:34:06Z</time>
      </trkpt>
      <trkpt lat="28.5358080" lon="-16.2661780">
        <ele>877.9</ele>
        <time>2020-11-11T08:34:07Z</time>
      </trkpt>
      <trkpt lat="28.5358080" lon="-16.2661780">
        <ele>877.9</ele>
        <time>2020-11-11T08:34:08Z</time>
      </trkpt>
      <trkpt lat="28.5358230" lon="-16.2662170">
        <ele>877.9</ele>
        <time>2020-11-11T08:34:09Z</time>
      </trkpt>
      <trkpt lat="28.5358300" lon="-16.2662400">
        <ele>878.9</ele>
        <time>2020-11-11T08:34:10Z</time>
      </trkpt>
      <trkpt lat="28.5358300" lon="-16.2662400">
        <ele>878.9</ele>
        <time>2020-11-11T08:34:11Z</time>
      </trkpt>
      <trkpt lat="28.5358380" lon="-16.2662820">
        <ele>878.9</ele>
        <time>2020-11-11T08:34:12Z</time>
      </trkpt>
      <trkpt lat="28.5358380" lon="-16.2662820">
        <ele>878.9</ele>
        <time>2020-11-11T08:34:13Z</time>
      </trkpt>
      <trkpt lat="28.5358520" lon="-16.2663200">
        <ele>878.9</ele>
        <time>2020-11-11T08:34:14Z</time>
      </trkpt>
      <trkpt lat="28.5358550" lon="-16.2663420">
        <ele>878.9</ele>
        <time>2020-11-11T08:34:15Z</time>
      </trkpt>
      <trkpt lat="28.5358550" lon="-16.2663420">
        <ele>878.9</ele>
        <time>2020-11-11T08:34:16Z</time>
      </trkpt>
      <trkpt lat="28.5358620" lon="-16.2663830">
        <ele>878.9</ele>
        <time>2020-11-11T08:34:17Z</time>
      </trkpt>
      <trkpt lat="28.5358620" lon="-16.2663830">
        <ele>879.9</ele>
        <time>2020-11-11T08:34:18Z</time>
      </trkpt>
      <trkpt lat="28.5358680" lon="-16.2664370">
        <ele>879.9</ele>
        <time>2020-11-11T08:34:19Z</time>
      </trkpt>
      <trkpt lat="28.5358680" lon="-16.2664370">
        <ele>879.9</ele>
        <time>2020-11-11T08:34:20Z</time>
      </trkpt>
      <trkpt lat="28.5358750" lon="-16.2664920">
        <ele>879.9</ele>
        <time>2020-11-11T08:34:21Z</time>
      </trkpt>
      <trkpt lat="28.5358750" lon="-16.2664920">
        <ele>879.9</ele>
        <time>2020-11-11T08:34:22Z</time>
      </trkpt>
      <trkpt lat="28.5358830" lon="-16.2665430">
        <ele>879.9</ele>
        <time>2020-11-11T08:34:23Z</time>
      </trkpt>
      <trkpt lat="28.5358830" lon="-16.2665430">
        <ele>880.9</ele>
        <time>2020-11-11T08:34:24Z</time>
      </trkpt>
      <trkpt lat="28.5358980" lon="-16.2665900">
        <ele>880.9</ele>
        <time>2020-11-11T08:34:25Z</time>
      </trkpt>
      <trkpt lat="28.5358980" lon="-16.2665900">
        <ele>880.9</ele>
        <time>2020-11-11T08:34:26Z</time>
      </trkpt>
      <trkpt lat="28.5359170" lon="-16.2666400">
        <ele>880.9</ele>
        <time>2020-11-11T08:34:27Z</time>
      </trkpt>
      <trkpt lat="28.5359250" lon="-16.2666650">
        <ele>880.9</ele>
        <time>2020-11-11T08:34:28Z</time>
      </trkpt>
      <trkpt lat="28.5359330" lon="-16.2666880">
        <ele>880.9</ele>
        <time>2020-11-11T08:34:29Z</time>
      </trkpt>
      <trkpt lat="28.5359330" lon="-16.2666880">
        <ele>880.9</ele>
        <time>2020-11-11T08:34:30Z</time>
      </trkpt>
      <trkpt lat="28.5359380" lon="-16.2667350">
        <ele>880.9</ele>
        <time>2020-11-11T08:34:31Z</time>
      </trkpt>
      <trkpt lat="28.5359380" lon="-16.2667350">
        <ele>880.9</ele>
        <time>2020-11-11T08:34:32Z</time>
      </trkpt>
      <trkpt lat="28.5359470" lon="-16.2667830">
        <ele>880.9</ele>
        <time>2020-11-11T08:34:33Z</time>
      </trkpt>
      <trkpt lat="28.5359470" lon="-16.2667830">
        <ele>880.9</ele>
        <time>2020-11-11T08:34:34Z</time>
      </trkpt>
      <trkpt lat="28.5359630" lon="-16.2668280">
        <ele>880.9</ele>
        <time>2020-11-11T08:34:35Z</time>
      </trkpt>
      <trkpt lat="28.5359630" lon="-16.2668280">
        <ele>881.9</ele>
        <time>2020-11-11T08:34:36Z</time>
      </trkpt>
      <trkpt lat="28.5359750" lon="-16.2668720">
        <ele>881.9</ele>
        <time>2020-11-11T08:34:37Z</time>
      </trkpt>
      <trkpt lat="28.5359750" lon="-16.2668720">
        <ele>881.9</ele>
        <time>2020-11-11T08:34:38Z</time>
      </trkpt>
      <trkpt lat="28.5359950" lon="-16.2669100">
        <ele>881.9</ele>
        <time>2020-11-11T08:34:39Z</time>
      </trkpt>
      <trkpt lat="28.5359950" lon="-16.2669100">
        <ele>882.9</ele>
        <time>2020-11-11T08:34:40Z</time>
      </trkpt>
      <trkpt lat="28.5360150" lon="-16.2669530">
        <ele>882.9</ele>
        <time>2020-11-11T08:34:41Z</time>
      </trkpt>
      <trkpt lat="28.5360150" lon="-16.2669530">
        <ele>882.9</ele>
        <time>2020-11-11T08:34:42Z</time>
      </trkpt>
      <trkpt lat="28.5360400" lon="-16.2669880">
        <ele>882.9</ele>
        <time>2020-11-11T08:34:43Z</time>
      </trkpt>
      <trkpt lat="28.5360400" lon="-16.2669880">
        <ele>882.9</ele>
        <time>2020-11-11T08:34:44Z</time>
      </trkpt>
      <trkpt lat="28.5360670" lon="-16.2670370">
        <ele>882.9</ele>
        <time>2020-11-11T08:34:45Z</time>
      </trkpt>
      <trkpt lat="28.5360670" lon="-16.2670370">
        <ele>882.9</ele>
        <time>2020-11-11T08:34:46Z</time>
      </trkpt>
      <trkpt lat="28.5361020" lon="-16.2670620">
        <ele>883.9</ele>
        <time>2020-11-11T08:34:47Z</time>
      </trkpt>
      <trkpt lat="28.5361020" lon="-16.2670620">
        <ele>883.9</ele>
        <time>2020-11-11T08:34:48Z</time>
      </trkpt>
      <trkpt lat="28.5361520" lon="-16.2670730">
        <ele>883.9</ele>
        <time>2020-11-11T08:34:49Z</time>
      </trkpt>
      <trkpt lat="28.5361520" lon="-16.2670730">
        <ele>883.9</ele>
        <time>2020-11-11T08:34:50Z</time>
      </trkpt>
      <trkpt lat="28.5362100" lon="-16.2670780">
        <ele>883.9</ele>
        <time>2020-11-11T08:34:51Z</time>
      </trkpt>
      <trkpt lat="28.5362100" lon="-16.2670780">
        <ele>883.9</ele>
        <time>2020-11-11T08:34:52Z</time>
      </trkpt>
      <trkpt lat="28.5362620" lon="-16.2670930">
        <ele>885.9</ele>
        <time>2020-11-11T08:34:53Z</time>
      </trkpt>
      <trkpt lat="28.5362620" lon="-16.2670930">
        <ele>885.9</ele>
        <time>2020-11-11T08:34:54Z</time>
      </trkpt>
      <trkpt lat="28.5363120" lon="-16.2671020">
        <ele>885.9</ele>
        <time>2020-11-11T08:34:55Z</time>
      </trkpt>
      <trkpt lat="28.5363370" lon="-16.2671050">
        <ele>885.9</ele>
        <time>2020-11-11T08:34:56Z</time>
      </trkpt>
      <trkpt lat="28.5363370" lon="-16.2671050">
        <ele>885.9</ele>
        <time>2020-11-11T08:34:57Z</time>
      </trkpt>
      <trkpt lat="28.5363830" lon="-16.2671080">
        <ele>885.9</ele>
        <time>2020-11-11T08:34:58Z</time>
      </trkpt>
      <trkpt lat="28.5364070" lon="-16.2671070">
        <ele>886.9</ele>
        <time>2020-11-11T08:34:59Z</time>
      </trkpt>
      <trkpt lat="28.5364070" lon="-16.2671070">
        <ele>886.9</ele>
        <time>2020-11-11T08:35:00Z</time>
      </trkpt>
      <trkpt lat="28.5364480" lon="-16.2671080">
        <ele>886.9</ele>
        <time>2020-11-11T08:35:01Z</time>
      </trkpt>
      <trkpt lat="28.5364480" lon="-16.2671080">
        <ele>886.9</ele>
        <time>2020-11-11T08:35:02Z</time>
      </trkpt>
      <trkpt lat="28.5364950" lon="-16.2671100">
        <ele>886.9</ele>
        <time>2020-11-11T08:35:03Z</time>
      </trkpt>
      <trkpt lat="28.5364950" lon="-16.2671100">
        <ele>886.9</ele>
        <time>2020-11-11T08:35:04Z</time>
      </trkpt>
      <trkpt lat="28.5365420" lon="-16.2671130">
        <ele>886.9</ele>
        <time>2020-11-11T08:35:05Z</time>
      </trkpt>
      <trkpt lat="28.5365650" lon="-16.2671150">
        <ele>886.9</ele>
        <time>2020-11-11T08:35:06Z</time>
      </trkpt>
      <trkpt lat="28.5365650" lon="-16.2671150">
        <ele>887.9</ele>
        <time>2020-11-11T08:35:07Z</time>
      </trkpt>
      <trkpt lat="28.5366050" lon="-16.2671100">
        <ele>887.9</ele>
        <time>2020-11-11T08:35:08Z</time>
      </trkpt>
      <trkpt lat="28.5366050" lon="-16.2671100">
        <ele>887.9</ele>
        <time>2020-11-11T08:35:09Z</time>
      </trkpt>
      <trkpt lat="28.5366420" lon="-16.2670950">
        <ele>887.9</ele>
        <time>2020-11-11T08:35:10Z</time>
      </trkpt>
      <trkpt lat="28.5366600" lon="-16.2670880">
        <ele>888.9</ele>
        <time>2020-11-11T08:35:11Z</time>
      </trkpt>
      <trkpt lat="28.5366600" lon="-16.2670880">
        <ele>888.9</ele>
        <time>2020-11-11T08:35:12Z</time>
      </trkpt>
      <trkpt lat="28.5366970" lon="-16.2670800">
        <ele>888.9</ele>
        <time>2020-11-11T08:35:13Z</time>
      </trkpt>
      <trkpt lat="28.5366970" lon="-16.2670800">
        <ele>888.9</ele>
        <time>2020-11-11T08:35:14Z</time>
      </trkpt>
      <trkpt lat="28.5367370" lon="-16.2670750">
        <ele>888.9</ele>
        <time>2020-11-11T08:35:15Z</time>
      </trkpt>
      <trkpt lat="28.5367370" lon="-16.2670750">
        <ele>888.9</ele>
        <time>2020-11-11T08:35:16Z</time>
      </trkpt>
      <trkpt lat="28.5367830" lon="-16.2670700">
        <ele>889.9</ele>
        <time>2020-11-11T08:35:17Z</time>
      </trkpt>
      <trkpt lat="28.5368020" lon="-16.2670630">
        <ele>889.9</ele>
        <time>2020-11-11T08:35:18Z</time>
      </trkpt>
      <trkpt lat="28.5368170" lon="-16.2670550">
        <ele>889.9</ele>
        <time>2020-11-11T08:35:19Z</time>
      </trkpt>
      <trkpt lat="28.5368170" lon="-16.2670550">
        <ele>889.9</ele>
        <time>2020-11-11T08:35:20Z</time>
      </trkpt>
      <trkpt lat="28.5368670" lon="-16.2670220">
        <ele>890.9</ele>
        <time>2020-11-11T08:35:21Z</time>
      </trkpt>
      <trkpt lat="28.5368830" lon="-16.2670130">
        <ele>890.9</ele>
        <time>2020-11-11T08:35:22Z</time>
      </trkpt>
      <trkpt lat="28.5368830" lon="-16.2670130">
        <ele>890.9</ele>
        <time>2020-11-11T08:35:23Z</time>
      </trkpt>
      <trkpt lat="28.5369180" lon="-16.2669800">
        <ele>890.9</ele>
        <time>2020-11-11T08:35:24Z</time>
      </trkpt>
      <trkpt lat="28.5369180" lon="-16.2669800">
        <ele>890.9</ele>
        <time>2020-11-11T08:35:25Z</time>
      </trkpt>
      <trkpt lat="28.5369480" lon="-16.2669430">
        <ele>891.9</ele>
        <time>2020-11-11T08:35:26Z</time>
      </trkpt>
      <trkpt lat="28.5369480" lon="-16.2669430">
        <ele>891.9</ele>
        <time>2020-11-11T08:35:27Z</time>
      </trkpt>
      <trkpt lat="28.5369780" lon="-16.2669320">
        <ele>891.9</ele>
        <time>2020-11-11T08:35:28Z</time>
      </trkpt>
      <trkpt lat="28.5369780" lon="-16.2669320">
        <ele>891.9</ele>
        <time>2020-11-11T08:35:29Z</time>
      </trkpt>
      <trkpt lat="28.5370120" lon="-16.2669180">
        <ele>891.9</ele>
        <time>2020-11-11T08:35:30Z</time>
      </trkpt>
      <trkpt lat="28.5370120" lon="-16.2669180">
        <ele>891.9</ele>
        <time>2020-11-11T08:35:31Z</time>
      </trkpt>
      <trkpt lat="28.5370430" lon="-16.2668920">
        <ele>892.9</ele>
        <time>2020-11-11T08:35:32Z</time>
      </trkpt>
      <trkpt lat="28.5370430" lon="-16.2668920">
        <ele>892.9</ele>
        <time>2020-11-11T08:35:33Z</time>
      </trkpt>
      <trkpt lat="28.5370880" lon="-16.2668730">
        <ele>892.9</ele>
        <time>2020-11-11T08:35:34Z</time>
      </trkpt>
      <trkpt lat="28.5370880" lon="-16.2668730">
        <ele>892.9</ele>
        <time>2020-11-11T08:35:35Z</time>
      </trkpt>
      <trkpt lat="28.5371300" lon="-16.2668730">
        <ele>892.9</ele>
        <time>2020-11-11T08:35:36Z</time>
      </trkpt>
      <trkpt lat="28.5371530" lon="-16.2668670">
        <ele>892.9</ele>
        <time>2020-11-11T08:35:37Z</time>
      </trkpt>
      <trkpt lat="28.5371530" lon="-16.2668670">
        <ele>893.9</ele>
        <time>2020-11-11T08:35:38Z</time>
      </trkpt>
      <trkpt lat="28.5372020" lon="-16.2668670">
        <ele>893.9</ele>
        <time>2020-11-11T08:35:39Z</time>
      </trkpt>
      <trkpt lat="28.5372020" lon="-16.2668670">
        <ele>893.9</ele>
        <time>2020-11-11T08:35:40Z</time>
      </trkpt>
      <trkpt lat="28.5372480" lon="-16.2668800">
        <ele>893.9</ele>
        <time>2020-11-11T08:35:41Z</time>
      </trkpt>
      <trkpt lat="28.5372480" lon="-16.2668800">
        <ele>893.9</ele>
        <time>2020-11-11T08:35:42Z</time>
      </trkpt>
      <trkpt lat="28.5372880" lon="-16.2668880">
        <ele>893.9</ele>
        <time>2020-11-11T08:35:43Z</time>
      </trkpt>
      <trkpt lat="28.5372880" lon="-16.2668880">
        <ele>894.9</ele>
        <time>2020-11-11T08:35:44Z</time>
      </trkpt>
      <trkpt lat="28.5373270" lon="-16.2668880">
        <ele>894.9</ele>
        <time>2020-11-11T08:35:45Z</time>
      </trkpt>
      <trkpt lat="28.5373270" lon="-16.2668880">
        <ele>894.9</ele>
        <time>2020-11-11T08:35:46Z</time>
      </trkpt>
      <trkpt lat="28.5373670" lon="-16.2669100">
        <ele>894.9</ele>
        <time>2020-11-11T08:35:47Z</time>
      </trkpt>
      <trkpt lat="28.5373670" lon="-16.2669100">
        <ele>895.9</ele>
        <time>2020-11-11T08:35:48Z</time>
      </trkpt>
      <trkpt lat="28.5374020" lon="-16.2669500">
        <ele>895.9</ele>
        <time>2020-11-11T08:35:49Z</time>
      </trkpt>
      <trkpt lat="28.5374020" lon="-16.2669500">
        <ele>895.9</ele>
        <time>2020-11-11T08:35:50Z</time>
      </trkpt>
      <trkpt lat="28.5374400" lon="-16.2669800">
        <ele>895.9</ele>
        <time>2020-11-11T08:35:51Z</time>
      </trkpt>
      <trkpt lat="28.5374400" lon="-16.2669800">
        <ele>895.9</ele>
        <time>2020-11-11T08:35:52Z</time>
      </trkpt>
      <trkpt lat="28.5374750" lon="-16.2669950">
        <ele>895.9</ele>
        <time>2020-11-11T08:35:53Z</time>
      </trkpt>
      <trkpt lat="28.5374750" lon="-16.2669950">
        <ele>895.9</ele>
        <time>2020-11-11T08:35:54Z</time>
      </trkpt>
      <trkpt lat="28.5375120" lon="-16.2670170">
        <ele>895.9</ele>
        <time>2020-11-11T08:35:55Z</time>
      </trkpt>
      <trkpt lat="28.5375120" lon="-16.2670170">
        <ele>896.9</ele>
        <time>2020-11-11T08:35:56Z</time>
      </trkpt>
      <trkpt lat="28.5375500" lon="-16.2670200">
        <ele>896.9</ele>
        <time>2020-11-11T08:35:57Z</time>
      </trkpt>
      <trkpt lat="28.5375500" lon="-16.2670200">
        <ele>896.9</ele>
        <time>2020-11-11T08:35:58Z</time>
      </trkpt>
      <trkpt lat="28.5375870" lon="-16.2670330">
        <ele>896.9</ele>
        <time>2020-11-11T08:35:59Z</time>
      </trkpt>
      <trkpt lat="28.5375870" lon="-16.2670330">
        <ele>896.9</ele>
        <time>2020-11-11T08:36:00Z</time>
      </trkpt>
      <trkpt lat="28.5376180" lon="-16.2670500">
        <ele>896.9</ele>
        <time>2020-11-11T08:36:01Z</time>
      </trkpt>
      <trkpt lat="28.5376180" lon="-16.2670500">
        <ele>896.9</ele>
        <time>2020-11-11T08:36:02Z</time>
      </trkpt>
      <trkpt lat="28.5376400" lon="-16.2670670">
        <ele>896.9</ele>
        <time>2020-11-11T08:36:03Z</time>
      </trkpt>
      <trkpt lat="28.5376400" lon="-16.2670670">
        <ele>897.9</ele>
        <time>2020-11-11T08:36:04Z</time>
      </trkpt>
      <trkpt lat="28.5376620" lon="-16.2670800">
        <ele>897.9</ele>
        <time>2020-11-11T08:36:05Z</time>
      </trkpt>
      <trkpt lat="28.5376620" lon="-16.2670800">
        <ele>897.9</ele>
        <time>2020-11-11T08:36:06Z</time>
      </trkpt>
      <trkpt lat="28.5376900" lon="-16.2671070">
        <ele>897.9</ele>
        <time>2020-11-11T08:36:07Z</time>
      </trkpt>
      <trkpt lat="28.5376900" lon="-16.2671070">
        <ele>897.9</ele>
        <time>2020-11-11T08:36:08Z</time>
      </trkpt>
      <trkpt lat="28.5377270" lon="-16.2671320">
        <ele>897.9</ele>
        <time>2020-11-11T08:36:09Z</time>
      </trkpt>
      <trkpt lat="28.5377270" lon="-16.2671320">
        <ele>897.9</ele>
        <time>2020-11-11T08:36:10Z</time>
      </trkpt>
      <trkpt lat="28.5377520" lon="-16.2671630">
        <ele>897.9</ele>
        <time>2020-11-11T08:36:11Z</time>
      </trkpt>
      <trkpt lat="28.5377520" lon="-16.2671630">
        <ele>897.9</ele>
        <time>2020-11-11T08:36:12Z</time>
      </trkpt>
      <trkpt lat="28.5377900" lon="-16.2671880">
        <ele>897.9</ele>
        <time>2020-11-11T08:36:13Z</time>
      </trkpt>
      <trkpt lat="28.5377900" lon="-16.2671880">
        <ele>897.9</ele>
        <time>2020-11-11T08:36:14Z</time>
      </trkpt>
      <trkpt lat="28.5378220" lon="-16.2672030">
        <ele>897.9</ele>
        <time>2020-11-11T08:36:15Z</time>
      </trkpt>
      <trkpt lat="28.5378220" lon="-16.2672030">
        <ele>897.9</ele>
        <time>2020-11-11T08:36:16Z</time>
      </trkpt>
      <trkpt lat="28.5378370" lon="-16.2672070">
        <ele>897.9</ele>
        <time>2020-11-11T08:36:17Z</time>
      </trkpt>
      <trkpt lat="28.5378370" lon="-16.2672070">
        <ele>898.9</ele>
        <time>2020-11-11T08:36:18Z</time>
      </trkpt>
      <trkpt lat="28.5378620" lon="-16.2672070">
        <ele>898.9</ele>
        <time>2020-11-11T08:36:19Z</time>
      </trkpt>
      <trkpt lat="28.5378620" lon="-16.2672070">
        <ele>898.9</ele>
        <time>2020-11-11T08:36:20Z</time>
      </trkpt>
      <trkpt lat="28.5378900" lon="-16.2672050">
        <ele>898.9</ele>
        <time>2020-11-11T08:36:21Z</time>
      </trkpt>
      <trkpt lat="28.5378900" lon="-16.2672050">
        <ele>898.9</ele>
        <time>2020-11-11T08:36:22Z</time>
      </trkpt>
      <trkpt lat="28.5379420" lon="-16.2672130">
        <ele>898.9</ele>
        <time>2020-11-11T08:36:23Z</time>
      </trkpt>
      <trkpt lat="28.5379630" lon="-16.2672230">
        <ele>899.9</ele>
        <time>2020-11-11T08:36:24Z</time>
      </trkpt>
      <trkpt lat="28.5379630" lon="-16.2672230">
        <ele>899.9</ele>
        <time>2020-11-11T08:36:25Z</time>
      </trkpt>
      <trkpt lat="28.5380300" lon="-16.2672320">
        <ele>899.9</ele>
        <time>2020-11-11T08:36:26Z</time>
      </trkpt>
      <trkpt lat="28.5380300" lon="-16.2672320">
        <ele>899.9</ele>
        <time>2020-11-11T08:36:27Z</time>
      </trkpt>
      <trkpt lat="28.5380900" lon="-16.2672300">
        <ele>899.9</ele>
        <time>2020-11-11T08:36:28Z</time>
      </trkpt>
      <trkpt lat="28.5381230" lon="-16.2672300">
        <ele>899.9</ele>
        <time>2020-11-11T08:36:29Z</time>
      </trkpt>
      <trkpt lat="28.5381520" lon="-16.2672230">
        <ele>900.9</ele>
        <time>2020-11-11T08:36:30Z</time>
      </trkpt>
      <trkpt lat="28.5381520" lon="-16.2672230">
        <ele>900.9</ele>
        <time>2020-11-11T08:36:31Z</time>
      </trkpt>
      <trkpt lat="28.5382070" lon="-16.2672130">
        <ele>900.9</ele>
        <time>2020-11-11T08:36:32Z</time>
      </trkpt>
      <trkpt lat="28.5382330" lon="-16.2672020">
        <ele>900.9</ele>
        <time>2020-11-11T08:36:33Z</time>
      </trkpt>
      <trkpt lat="28.5382330" lon="-16.2672020">
        <ele>900.9</ele>
        <time>2020-11-11T08:36:34Z</time>
      </trkpt>
      <trkpt lat="28.5382780" lon="-16.2671850">
        <ele>900.9</ele>
        <time>2020-11-11T08:36:35Z</time>
      </trkpt>
      <trkpt lat="28.5382780" lon="-16.2671850">
        <ele>901.9</ele>
        <time>2020-11-11T08:36:36Z</time>
      </trkpt>
      <trkpt lat="28.5383180" lon="-16.2671670">
        <ele>901.9</ele>
        <time>2020-11-11T08:36:37Z</time>
      </trkpt>
      <trkpt lat="28.5383180" lon="-16.2671670">
        <ele>901.9</ele>
        <time>2020-11-11T08:36:38Z</time>
      </trkpt>
      <trkpt lat="28.5383570" lon="-16.2671420">
        <ele>901.9</ele>
        <time>2020-11-11T08:36:39Z</time>
      </trkpt>
      <trkpt lat="28.5383750" lon="-16.2671350">
        <ele>902.9</ele>
        <time>2020-11-11T08:36:40Z</time>
      </trkpt>
      <trkpt lat="28.5383750" lon="-16.2671350">
        <ele>902.9</ele>
        <time>2020-11-11T08:36:41Z</time>
      </trkpt>
      <trkpt lat="28.5384080" lon="-16.2671200">
        <ele>902.9</ele>
        <time>2020-11-11T08:36:42Z</time>
      </trkpt>
      <trkpt lat="28.5384250" lon="-16.2671130">
        <ele>902.9</ele>
        <time>2020-11-11T08:36:43Z</time>
      </trkpt>
      <trkpt lat="28.5384250" lon="-16.2671130">
        <ele>902.9</ele>
        <time>2020-11-11T08:36:44Z</time>
      </trkpt>
      <trkpt lat="28.5384550" lon="-16.2670850">
        <ele>902.9</ele>
        <time>2020-11-11T08:36:45Z</time>
      </trkpt>
      <trkpt lat="28.5384550" lon="-16.2670850">
        <ele>902.9</ele>
        <time>2020-11-11T08:36:46Z</time>
      </trkpt>
      <trkpt lat="28.5384950" lon="-16.2670700">
        <ele>903.9</ele>
        <time>2020-11-11T08:36:47Z</time>
      </trkpt>
      <trkpt lat="28.5385130" lon="-16.2670680">
        <ele>903.9</ele>
        <time>2020-11-11T08:36:48Z</time>
      </trkpt>
      <trkpt lat="28.5385300" lon="-16.2670670">
        <ele>903.9</ele>
        <time>2020-11-11T08:36:49Z</time>
      </trkpt>
      <trkpt lat="28.5385300" lon="-16.2670670">
        <ele>903.9</ele>
        <time>2020-11-11T08:36:50Z</time>
      </trkpt>
      <trkpt lat="28.5385650" lon="-16.2670700">
        <ele>904.9</ele>
        <time>2020-11-11T08:36:51Z</time>
      </trkpt>
      <trkpt lat="28.5385650" lon="-16.2670700">
        <ele>904.9</ele>
        <time>2020-11-11T08:36:52Z</time>
      </trkpt>
      <trkpt lat="28.5386070" lon="-16.2670900">
        <ele>904.9</ele>
        <time>2020-11-11T08:36:53Z</time>
      </trkpt>
      <trkpt lat="28.5386070" lon="-16.2670900">
        <ele>904.9</ele>
        <time>2020-11-11T08:36:54Z</time>
      </trkpt>
      <trkpt lat="28.5386650" lon="-16.2671020">
        <ele>904.9</ele>
        <time>2020-11-11T08:36:55Z</time>
      </trkpt>
      <trkpt lat="28.5386650" lon="-16.2671020">
        <ele>904.9</ele>
        <time>2020-11-11T08:36:56Z</time>
      </trkpt>
      <trkpt lat="28.5387080" lon="-16.2670980">
        <ele>905.9</ele>
        <time>2020-11-11T08:36:57Z</time>
      </trkpt>
      <trkpt lat="28.5387080" lon="-16.2670980">
        <ele>905.9</ele>
        <time>2020-11-11T08:36:58Z</time>
      </trkpt>
      <trkpt lat="28.5387450" lon="-16.2671170">
        <ele>905.9</ele>
        <time>2020-11-11T08:36:59Z</time>
      </trkpt>
      <trkpt lat="28.5387630" lon="-16.2671330">
        <ele>905.9</ele>
        <time>2020-11-11T08:37:00Z</time>
      </trkpt>
      <trkpt lat="28.5387780" lon="-16.2671500">
        <ele>905.9</ele>
        <time>2020-11-11T08:37:01Z</time>
      </trkpt>
      <trkpt lat="28.5387780" lon="-16.2671500">
        <ele>905.9</ele>
        <time>2020-11-11T08:37:02Z</time>
      </trkpt>
      <trkpt lat="28.5388070" lon="-16.2671870">
        <ele>905.9</ele>
        <time>2020-11-11T08:37:03Z</time>
      </trkpt>
      <trkpt lat="28.5388180" lon="-16.2672050">
        <ele>905.9</ele>
        <time>2020-11-11T08:37:04Z</time>
      </trkpt>
      <trkpt lat="28.5388180" lon="-16.2672050">
        <ele>906.9</ele>
        <time>2020-11-11T08:37:05Z</time>
      </trkpt>
      <trkpt lat="28.5388370" lon="-16.2672500">
        <ele>906.9</ele>
        <time>2020-11-11T08:37:06Z</time>
      </trkpt>
      <trkpt lat="28.5388370" lon="-16.2672500">
        <ele>906.9</ele>
        <time>2020-11-11T08:37:07Z</time>
      </trkpt>
      <trkpt lat="28.5388530" lon="-16.2672950">
        <ele>906.9</ele>
        <time>2020-11-11T08:37:08Z</time>
      </trkpt>
      <trkpt lat="28.5388620" lon="-16.2673180">
        <ele>906.9</ele>
        <time>2020-11-11T08:37:09Z</time>
      </trkpt>
      <trkpt lat="28.5388620" lon="-16.2673180">
        <ele>906.9</ele>
        <time>2020-11-11T08:37:10Z</time>
      </trkpt>
      <trkpt lat="28.5388800" lon="-16.2673620">
        <ele>906.9</ele>
        <time>2020-11-11T08:37:11Z</time>
      </trkpt>
      <trkpt lat="28.5388800" lon="-16.2673620">
        <ele>906.9</ele>
        <time>2020-11-11T08:37:12Z</time>
      </trkpt>
      <trkpt lat="28.5388880" lon="-16.2674030">
        <ele>906.9</ele>
        <time>2020-11-11T08:37:13Z</time>
      </trkpt>
      <trkpt lat="28.5388880" lon="-16.2674030">
        <ele>906.9</ele>
        <time>2020-11-11T08:37:14Z</time>
      </trkpt>
      <trkpt lat="28.5388920" lon="-16.2674430">
        <ele>906.9</ele>
        <time>2020-11-11T08:37:15Z</time>
      </trkpt>
      <trkpt lat="28.5388920" lon="-16.2674430">
        <ele>906.9</ele>
        <time>2020-11-11T08:37:16Z</time>
      </trkpt>
      <trkpt lat="28.5388880" lon="-16.2674850">
        <ele>907.9</ele>
        <time>2020-11-11T08:37:17Z</time>
      </trkpt>
      <trkpt lat="28.5388850" lon="-16.2675070">
        <ele>907.9</ele>
        <time>2020-11-11T08:37:18Z</time>
      </trkpt>
      <trkpt lat="28.5388820" lon="-16.2675270">
        <ele>907.9</ele>
        <time>2020-11-11T08:37:19Z</time>
      </trkpt>
      <trkpt lat="28.5388820" lon="-16.2675270">
        <ele>907.9</ele>
        <time>2020-11-11T08:37:20Z</time>
      </trkpt>
      <trkpt lat="28.5388730" lon="-16.2675730">
        <ele>907.9</ele>
        <time>2020-11-11T08:37:21Z</time>
      </trkpt>
      <trkpt lat="28.5388730" lon="-16.2675730">
        <ele>908.9</ele>
        <time>2020-11-11T08:37:22Z</time>
      </trkpt>
      <trkpt lat="28.5388650" lon="-16.2676220">
        <ele>908.9</ele>
        <time>2020-11-11T08:37:23Z</time>
      </trkpt>
      <trkpt lat="28.5388650" lon="-16.2676220">
        <ele>908.9</ele>
        <time>2020-11-11T08:37:24Z</time>
      </trkpt>
      <trkpt lat="28.5388570" lon="-16.2676670">
        <ele>908.9</ele>
        <time>2020-11-11T08:37:25Z</time>
      </trkpt>
      <trkpt lat="28.5388570" lon="-16.2676670">
        <ele>909.9</ele>
        <time>2020-11-11T08:37:26Z</time>
      </trkpt>
      <trkpt lat="28.5388420" lon="-16.2677020">
        <ele>909.9</ele>
        <time>2020-11-11T08:37:27Z</time>
      </trkpt>
      <trkpt lat="28.5388420" lon="-16.2677020">
        <ele>909.9</ele>
        <time>2020-11-11T08:37:28Z</time>
      </trkpt>
      <trkpt lat="28.5388370" lon="-16.2677330">
        <ele>909.9</ele>
        <time>2020-11-11T08:37:29Z</time>
      </trkpt>
      <trkpt lat="28.5388380" lon="-16.2677500">
        <ele>909.9</ele>
        <time>2020-11-11T08:37:30Z</time>
      </trkpt>
      <trkpt lat="28.5388380" lon="-16.2677500">
        <ele>909.9</ele>
        <time>2020-11-11T08:37:31Z</time>
      </trkpt>
      <trkpt lat="28.5388350" lon="-16.2677870">
        <ele>909.9</ele>
        <time>2020-11-11T08:37:32Z</time>
      </trkpt>
      <trkpt lat="28.5388350" lon="-16.2677870">
        <ele>910.9</ele>
        <time>2020-11-11T08:37:33Z</time>
      </trkpt>
      <trkpt lat="28.5388300" lon="-16.2678150">
        <ele>910.9</ele>
        <time>2020-11-11T08:37:34Z</time>
      </trkpt>
      <trkpt lat="28.5388280" lon="-16.2678330">
        <ele>910.9</ele>
        <time>2020-11-11T08:37:35Z</time>
      </trkpt>
      <trkpt lat="28.5388280" lon="-16.2678330">
        <ele>910.9</ele>
        <time>2020-11-11T08:37:36Z</time>
      </trkpt>
      <trkpt lat="28.5388100" lon="-16.2678870">
        <ele>910.9</ele>
        <time>2020-11-11T08:37:37Z</time>
      </trkpt>
      <trkpt lat="28.5388100" lon="-16.2678870">
        <ele>910.9</ele>
        <time>2020-11-11T08:37:38Z</time>
      </trkpt>
      <trkpt lat="28.5387930" lon="-16.2679420">
        <ele>911.9</ele>
        <time>2020-11-11T08:37:39Z</time>
      </trkpt>
      <trkpt lat="28.5387930" lon="-16.2679420">
        <ele>911.9</ele>
        <time>2020-11-11T08:37:40Z</time>
      </trkpt>
      <trkpt lat="28.5387780" lon="-16.2679870">
        <ele>911.9</ele>
        <time>2020-11-11T08:37:41Z</time>
      </trkpt>
      <trkpt lat="28.5387780" lon="-16.2679870">
        <ele>911.9</ele>
        <time>2020-11-11T08:37:42Z</time>
      </trkpt>
      <trkpt lat="28.5387570" lon="-16.2680300">
        <ele>911.9</ele>
        <time>2020-11-11T08:37:43Z</time>
      </trkpt>
      <trkpt lat="28.5387570" lon="-16.2680300">
        <ele>911.9</ele>
        <time>2020-11-11T08:37:44Z</time>
      </trkpt>
      <trkpt lat="28.5387300" lon="-16.2680880">
        <ele>911.9</ele>
        <time>2020-11-11T08:37:45Z</time>
      </trkpt>
      <trkpt lat="28.5387170" lon="-16.2681080">
        <ele>911.9</ele>
        <time>2020-11-11T08:37:46Z</time>
      </trkpt>
      <trkpt lat="28.5387170" lon="-16.2681080">
        <ele>911.9</ele>
        <time>2020-11-11T08:37:47Z</time>
      </trkpt>
      <trkpt lat="28.5386850" lon="-16.2681550">
        <ele>911.9</ele>
        <time>2020-11-11T08:37:48Z</time>
      </trkpt>
      <trkpt lat="28.5386850" lon="-16.2681550">
        <ele>911.9</ele>
        <time>2020-11-11T08:37:49Z</time>
      </trkpt>
      <trkpt lat="28.5386580" lon="-16.2681930">
        <ele>911.9</ele>
        <time>2020-11-11T08:37:50Z</time>
      </trkpt>
      <trkpt lat="28.5386450" lon="-16.2682130">
        <ele>911.9</ele>
        <time>2020-11-11T08:37:51Z</time>
      </trkpt>
      <trkpt lat="28.5386450" lon="-16.2682130">
        <ele>911.9</ele>
        <time>2020-11-11T08:37:52Z</time>
      </trkpt>
      <trkpt lat="28.5386370" lon="-16.2682630">
        <ele>911.9</ele>
        <time>2020-11-11T08:37:53Z</time>
      </trkpt>
      <trkpt lat="28.5386370" lon="-16.2682630">
        <ele>911.9</ele>
        <time>2020-11-11T08:37:54Z</time>
      </trkpt>
      <trkpt lat="28.5386400" lon="-16.2683020">
        <ele>911.9</ele>
        <time>2020-11-11T08:37:55Z</time>
      </trkpt>
      <trkpt lat="28.5386400" lon="-16.2683020">
        <ele>911.9</ele>
        <time>2020-11-11T08:37:56Z</time>
      </trkpt>
      <trkpt lat="28.5386470" lon="-16.2683520">
        <ele>912.9</ele>
        <time>2020-11-11T08:37:57Z</time>
      </trkpt>
      <trkpt lat="28.5386470" lon="-16.2683520">
        <ele>912.9</ele>
        <time>2020-11-11T08:37:58Z</time>
      </trkpt>
      <trkpt lat="28.5386480" lon="-16.2683870">
        <ele>912.9</ele>
        <time>2020-11-11T08:37:59Z</time>
      </trkpt>
      <trkpt lat="28.5386480" lon="-16.2683870">
        <ele>912.9</ele>
        <time>2020-11-11T08:38:00Z</time>
      </trkpt>
      <trkpt lat="28.5386430" lon="-16.2684200">
        <ele>912.9</ele>
        <time>2020-11-11T08:38:01Z</time>
      </trkpt>
      <trkpt lat="28.5386430" lon="-16.2684200">
        <ele>912.9</ele>
        <time>2020-11-11T08:38:02Z</time>
      </trkpt>
      <trkpt lat="28.5386420" lon="-16.2684570">
        <ele>912.9</ele>
        <time>2020-11-11T08:38:03Z</time>
      </trkpt>
      <trkpt lat="28.5386420" lon="-16.2684670">
        <ele>912.9</ele>
        <time>2020-11-11T08:38:04Z</time>
      </trkpt>
      <trkpt lat="28.5386420" lon="-16.2684670">
        <ele>912.9</ele>
        <time>2020-11-11T08:38:05Z</time>
      </trkpt>
      <trkpt lat="28.5386450" lon="-16.2684730">
        <ele>912.9</ele>
        <time>2020-11-11T08:38:06Z</time>
      </trkpt>
      <trkpt lat="28.5386450" lon="-16.2684730">
        <ele>912.9</ele>
        <time>2020-11-11T08:38:07Z</time>
      </trkpt>
      <trkpt lat="28.5386450" lon="-16.2684730">
        <ele>912.9</ele>
        <time>2020-11-11T08:38:08Z</time>
      </trkpt>
      <trkpt lat="28.5386450" lon="-16.2684730">
        <ele>912.9</ele>
        <time>2020-11-11T08:38:09Z</time>
      </trkpt>
      <trkpt lat="28.5386450" lon="-16.2684730">
        <ele>912.9</ele>
        <time>2020-11-11T08:38:10Z</time>
      </trkpt>
      <trkpt lat="28.5386450" lon="-16.2684730">
        <ele>912.9</ele>
        <time>2020-11-11T08:38:40Z</time>
      </trkpt>
      <trkpt lat="28.5386020" lon="-16.2684770">
        <ele>912.9</ele>
        <time>2020-11-11T08:38:41Z</time>
      </trkpt>
      <trkpt lat="28.5386050" lon="-16.2685080">
        <ele>912.9</ele>
        <time>2020-11-11T08:38:42Z</time>
      </trkpt>
      <trkpt lat="28.5386050" lon="-16.2685080">
        <ele>912.9</ele>
        <time>2020-11-11T08:38:43Z</time>
      </trkpt>
      <trkpt lat="28.5386130" lon="-16.2685750">
        <ele>912.9</ele>
        <time>2020-11-11T08:38:44Z</time>
      </trkpt>
      <trkpt lat="28.5386130" lon="-16.2685750">
        <ele>911.9</ele>
        <time>2020-11-11T08:38:45Z</time>
      </trkpt>
      <trkpt lat="28.5386620" lon="-16.2686700">
        <ele>911.9</ele>
        <time>2020-11-11T08:38:46Z</time>
      </trkpt>
      <trkpt lat="28.5386620" lon="-16.2686700">
        <ele>911.9</ele>
        <time>2020-11-11T08:38:47Z</time>
      </trkpt>
      <trkpt lat="28.5387300" lon="-16.2687780">
        <ele>911.9</ele>
        <time>2020-11-11T08:38:48Z</time>
      </trkpt>
      <trkpt lat="28.5387700" lon="-16.2688300">
        <ele>910.9</ele>
        <time>2020-11-11T08:38:49Z</time>
      </trkpt>
      <trkpt lat="28.5387700" lon="-16.2688300">
        <ele>910.9</ele>
        <time>2020-11-11T08:38:50Z</time>
      </trkpt>
      <trkpt lat="28.5388330" lon="-16.2689150">
        <ele>909.9</ele>
        <time>2020-11-11T08:38:51Z</time>
      </trkpt>
      <trkpt lat="28.5388330" lon="-16.2689150">
        <ele>909.9</ele>
        <time>2020-11-11T08:38:52Z</time>
      </trkpt>
      <trkpt lat="28.5388420" lon="-16.2690300">
        <ele>908.9</ele>
        <time>2020-11-11T08:38:53Z</time>
      </trkpt>
      <trkpt lat="28.5388420" lon="-16.2690300">
        <ele>908.9</ele>
        <time>2020-11-11T08:38:54Z</time>
      </trkpt>
      <trkpt lat="28.5388230" lon="-16.2691530">
        <ele>908.9</ele>
        <time>2020-11-11T08:38:55Z</time>
      </trkpt>
      <trkpt lat="28.5388230" lon="-16.2691530">
        <ele>907.9</ele>
        <time>2020-11-11T08:38:56Z</time>
      </trkpt>
      <trkpt lat="28.5388050" lon="-16.2692800">
        <ele>907.9</ele>
        <time>2020-11-11T08:38:57Z</time>
      </trkpt>
      <trkpt lat="28.5388050" lon="-16.2692800">
        <ele>906.9</ele>
        <time>2020-11-11T08:38:58Z</time>
      </trkpt>
      <trkpt lat="28.5388030" lon="-16.2693950">
        <ele>906.9</ele>
        <time>2020-11-11T08:38:59Z</time>
      </trkpt>
      <trkpt lat="28.5388280" lon="-16.2694480">
        <ele>905.9</ele>
        <time>2020-11-11T08:39:00Z</time>
      </trkpt>
      <trkpt lat="28.5388530" lon="-16.2694930">
        <ele>905.9</ele>
        <time>2020-11-11T08:39:01Z</time>
      </trkpt>
      <trkpt lat="28.5388850" lon="-16.2695320">
        <ele>904.9</ele>
        <time>2020-11-11T08:39:02Z</time>
      </trkpt>
      <trkpt lat="28.5388850" lon="-16.2695320">
        <ele>904.9</ele>
        <time>2020-11-11T08:39:03Z</time>
      </trkpt>
      <trkpt lat="28.5389570" lon="-16.2695830">
        <ele>903.9</ele>
        <time>2020-11-11T08:39:04Z</time>
      </trkpt>
      <trkpt lat="28.5389570" lon="-16.2695830">
        <ele>903.9</ele>
        <time>2020-11-11T08:39:05Z</time>
      </trkpt>
      <trkpt lat="28.5390520" lon="-16.2696230">
        <ele>902.9</ele>
        <time>2020-11-11T08:39:06Z</time>
      </trkpt>
      <trkpt lat="28.5390520" lon="-16.2696230">
        <ele>902.9</ele>
        <time>2020-11-11T08:39:07Z</time>
      </trkpt>
      <trkpt lat="28.5391720" lon="-16.2696750">
        <ele>901.9</ele>
        <time>2020-11-11T08:39:08Z</time>
      </trkpt>
      <trkpt lat="28.5392100" lon="-16.2697270">
        <ele>901.9</ele>
        <time>2020-11-11T08:39:09Z</time>
      </trkpt>
      <trkpt lat="28.5392100" lon="-16.2697270">
        <ele>901.9</ele>
        <time>2020-11-11T08:39:10Z</time>
      </trkpt>
      <trkpt lat="28.5392980" lon="-16.2698450">
        <ele>901.9</ele>
        <time>2020-11-11T08:39:11Z</time>
      </trkpt>
      <trkpt lat="28.5392980" lon="-16.2698450">
        <ele>899.9</ele>
        <time>2020-11-11T08:39:12Z</time>
      </trkpt>
      <trkpt lat="28.5393870" lon="-16.2699870">
        <ele>899.9</ele>
        <time>2020-11-11T08:39:13Z</time>
      </trkpt>
      <trkpt lat="28.5394330" lon="-16.2700570">
        <ele>898.9</ele>
        <time>2020-11-11T08:39:14Z</time>
      </trkpt>
      <trkpt lat="28.5394330" lon="-16.2700570">
        <ele>898.9</ele>
        <time>2020-11-11T08:39:15Z</time>
      </trkpt>
      <trkpt lat="28.5395420" lon="-16.2701770">
        <ele>897.9</ele>
        <time>2020-11-11T08:39:16Z</time>
      </trkpt>
      <trkpt lat="28.5396130" lon="-16.2702180">
        <ele>897.9</ele>
        <time>2020-11-11T08:39:17Z</time>
      </trkpt>
      <trkpt lat="28.5396850" lon="-16.2702550">
        <ele>897.9</ele>
        <time>2020-11-11T08:39:18Z</time>
      </trkpt>
      <trkpt lat="28.5396850" lon="-16.2702550">
        <ele>897.9</ele>
        <time>2020-11-11T08:39:19Z</time>
      </trkpt>
      <trkpt lat="28.5398320" lon="-16.2703080">
        <ele>897.9</ele>
        <time>2020-11-11T08:39:20Z</time>
      </trkpt>
      <trkpt lat="28.5398320" lon="-16.2703080">
        <ele>895.9</ele>
        <time>2020-11-11T08:39:21Z</time>
      </trkpt>
      <trkpt lat="28.5399680" lon="-16.2703680">
        <ele>895.9</ele>
        <time>2020-11-11T08:39:22Z</time>
      </trkpt>
      <trkpt lat="28.5399680" lon="-16.2703680">
        <ele>895.9</ele>
        <time>2020-11-11T08:39:23Z</time>
      </trkpt>
      <trkpt lat="28.5400930" lon="-16.2703620">
        <ele>895.9</ele>
        <time>2020-11-11T08:39:24Z</time>
      </trkpt>
      <trkpt lat="28.5400930" lon="-16.2703620">
        <ele>894.9</ele>
        <time>2020-11-11T08:39:25Z</time>
      </trkpt>
      <trkpt lat="28.5402170" lon="-16.2703580">
        <ele>894.9</ele>
        <time>2020-11-11T08:39:26Z</time>
      </trkpt>
      <trkpt lat="28.5402170" lon="-16.2703580">
        <ele>893.9</ele>
        <time>2020-11-11T08:39:27Z</time>
      </trkpt>
      <trkpt lat="28.5403350" lon="-16.2704230">
        <ele>893.9</ele>
        <time>2020-11-11T08:39:28Z</time>
      </trkpt>
      <trkpt lat="28.5403350" lon="-16.2704230">
        <ele>892.9</ele>
        <time>2020-11-11T08:39:29Z</time>
      </trkpt>
      <trkpt lat="28.5404480" lon="-16.2705280">
        <ele>892.9</ele>
        <time>2020-11-11T08:39:30Z</time>
      </trkpt>
      <trkpt lat="28.5404480" lon="-16.2705280">
        <ele>891.9</ele>
        <time>2020-11-11T08:39:31Z</time>
      </trkpt>
      <trkpt lat="28.5405380" lon="-16.2706200">
        <ele>891.9</ele>
        <time>2020-11-11T08:39:32Z</time>
      </trkpt>
      <trkpt lat="28.5405380" lon="-16.2706200">
        <ele>890.9</ele>
        <time>2020-11-11T08:39:33Z</time>
      </trkpt>
      <trkpt lat="28.5405630" lon="-16.2707270">
        <ele>890.9</ele>
        <time>2020-11-11T08:39:34Z</time>
      </trkpt>
      <trkpt lat="28.5405630" lon="-16.2707270">
        <ele>890.9</ele>
        <time>2020-11-11T08:39:35Z</time>
      </trkpt>
      <trkpt lat="28.5405670" lon="-16.2708420">
        <ele>889.9</ele>
        <time>2020-11-11T08:39:36Z</time>
      </trkpt>
      <trkpt lat="28.5405670" lon="-16.2708420">
        <ele>889.9</ele>
        <time>2020-11-11T08:39:37Z</time>
      </trkpt>
      <trkpt lat="28.5405820" lon="-16.2709700">
        <ele>888.9</ele>
        <time>2020-11-11T08:39:38Z</time>
      </trkpt>
      <trkpt lat="28.5405820" lon="-16.2709700">
        <ele>888.9</ele>
        <time>2020-11-11T08:39:39Z</time>
      </trkpt>
      <trkpt lat="28.5406170" lon="-16.2710900">
        <ele>887.9</ele>
        <time>2020-11-11T08:39:40Z</time>
      </trkpt>
      <trkpt lat="28.5406430" lon="-16.2711420">
        <ele>887.9</ele>
        <time>2020-11-11T08:39:41Z</time>
      </trkpt>
      <trkpt lat="28.5406430" lon="-16.2711420">
        <ele>886.9</ele>
        <time>2020-11-11T08:39:42Z</time>
      </trkpt>
      <trkpt lat="28.5407020" lon="-16.2712850">
        <ele>886.9</ele>
        <time>2020-11-11T08:39:43Z</time>
      </trkpt>
      <trkpt lat="28.5407020" lon="-16.2712850">
        <ele>886.9</ele>
        <time>2020-11-11T08:39:44Z</time>
      </trkpt>
      <trkpt lat="28.5407730" lon="-16.2714600">
        <ele>886.9</ele>
        <time>2020-11-11T08:39:45Z</time>
      </trkpt>
      <trkpt lat="28.5408000" lon="-16.2715400">
        <ele>885.9</ele>
        <time>2020-11-11T08:39:46Z</time>
      </trkpt>
      <trkpt lat="28.5408330" lon="-16.2716170">
        <ele>885.9</ele>
        <time>2020-11-11T08:39:47Z</time>
      </trkpt>
      <trkpt lat="28.5408330" lon="-16.2716170">
        <ele>885.9</ele>
        <time>2020-11-11T08:39:48Z</time>
      </trkpt>
      <trkpt lat="28.5409020" lon="-16.2717550">
        <ele>885.9</ele>
        <time>2020-11-11T08:39:49Z</time>
      </trkpt>
      <trkpt lat="28.5409380" lon="-16.2718220">
        <ele>884.9</ele>
        <time>2020-11-11T08:39:50Z</time>
      </trkpt>
      <trkpt lat="28.5409380" lon="-16.2718220">
        <ele>884.9</ele>
        <time>2020-11-11T08:39:51Z</time>
      </trkpt>
      <trkpt lat="28.5410080" lon="-16.2719470">
        <ele>884.9</ele>
        <time>2020-11-11T08:39:52Z</time>
      </trkpt>
      <trkpt lat="28.5410080" lon="-16.2719470">
        <ele>884.9</ele>
        <time>2020-11-11T08:39:53Z</time>
      </trkpt>
      <trkpt lat="28.5410470" lon="-16.2721020">
        <ele>883.9</ele>
        <time>2020-11-11T08:39:54Z</time>
      </trkpt>
      <trkpt lat="28.5410470" lon="-16.2721020">
        <ele>883.9</ele>
        <time>2020-11-11T08:39:55Z</time>
      </trkpt>
      <trkpt lat="28.5410580" lon="-16.2722900">
        <ele>883.9</ele>
        <time>2020-11-11T08:39:56Z</time>
      </trkpt>
      <trkpt lat="28.5410580" lon="-16.2722900">
        <ele>883.9</ele>
        <time>2020-11-11T08:39:57Z</time>
      </trkpt>
      <trkpt lat="28.5410300" lon="-16.2724530">
        <ele>883.9</ele>
        <time>2020-11-11T08:39:58Z</time>
      </trkpt>
      <trkpt lat="28.5410350" lon="-16.2725150">
        <ele>881.9</ele>
        <time>2020-11-11T08:39:59Z</time>
      </trkpt>
      <trkpt lat="28.5410420" lon="-16.2725950">
        <ele>881.9</ele>
        <time>2020-11-11T08:40:00Z</time>
      </trkpt>
      <trkpt lat="28.5410420" lon="-16.2725950">
        <ele>880.9</ele>
        <time>2020-11-11T08:40:01Z</time>
      </trkpt>
      <trkpt lat="28.5410730" lon="-16.2727250">
        <ele>880.9</ele>
        <time>2020-11-11T08:40:02Z</time>
      </trkpt>
      <trkpt lat="28.5410730" lon="-16.2727250">
        <ele>879.9</ele>
        <time>2020-11-11T08:40:03Z</time>
      </trkpt>
      <trkpt lat="28.5411900" lon="-16.2729080">
        <ele>879.9</ele>
        <time>2020-11-11T08:40:04Z</time>
      </trkpt>
      <trkpt lat="28.5411900" lon="-16.2729080">
        <ele>878.9</ele>
        <time>2020-11-11T08:40:05Z</time>
      </trkpt>
      <trkpt lat="28.5413720" lon="-16.2730600">
        <ele>878.9</ele>
        <time>2020-11-11T08:40:06Z</time>
      </trkpt>
      <trkpt lat="28.5413720" lon="-16.2730600">
        <ele>877.9</ele>
        <time>2020-11-11T08:40:07Z</time>
      </trkpt>
      <trkpt lat="28.5415120" lon="-16.2732000">
        <ele>877.9</ele>
        <time>2020-11-11T08:40:08Z</time>
      </trkpt>
      <trkpt lat="28.5415120" lon="-16.2732000">
        <ele>876.9</ele>
        <time>2020-11-11T08:40:09Z</time>
      </trkpt>
      <trkpt lat="28.5416350" lon="-16.2733180">
        <ele>876.9</ele>
        <time>2020-11-11T08:40:10Z</time>
      </trkpt>
      <trkpt lat="28.5416780" lon="-16.2733820">
        <ele>874.9</ele>
        <time>2020-11-11T08:40:11Z</time>
      </trkpt>
      <trkpt lat="28.5416780" lon="-16.2733820">
        <ele>874.9</ele>
        <time>2020-11-11T08:40:12Z</time>
      </trkpt>
      <trkpt lat="28.5417420" lon="-16.2735300">
        <ele>873.9</ele>
        <time>2020-11-11T08:40:13Z</time>
      </trkpt>
      <trkpt lat="28.5417420" lon="-16.2735300">
        <ele>872.9</ele>
        <time>2020-11-11T08:40:14Z</time>
      </trkpt>
      <trkpt lat="28.5417450" lon="-16.2737170">
        <ele>872.9</ele>
        <time>2020-11-11T08:40:15Z</time>
      </trkpt>
      <trkpt lat="28.5417450" lon="-16.2737170">
        <ele>871.9</ele>
        <time>2020-11-11T08:40:16Z</time>
      </trkpt>
      <trkpt lat="28.5417650" lon="-16.2739220">
        <ele>871.9</ele>
        <time>2020-11-11T08:40:17Z</time>
      </trkpt>
      <trkpt lat="28.5417650" lon="-16.2739220">
        <ele>870.9</ele>
        <time>2020-11-11T08:40:18Z</time>
      </trkpt>
      <trkpt lat="28.5417970" lon="-16.2741330">
        <ele>870.9</ele>
        <time>2020-11-11T08:40:19Z</time>
      </trkpt>
      <trkpt lat="28.5417970" lon="-16.2741330">
        <ele>868.9</ele>
        <time>2020-11-11T08:40:20Z</time>
      </trkpt>
      <trkpt lat="28.5418180" lon="-16.2743050">
        <ele>868.9</ele>
        <time>2020-11-11T08:40:21Z</time>
      </trkpt>
      <trkpt lat="28.5418180" lon="-16.2743050">
        <ele>866.9</ele>
        <time>2020-11-11T08:40:22Z</time>
      </trkpt>
      <trkpt lat="28.5418730" lon="-16.2744630">
        <ele>866.9</ele>
        <time>2020-11-11T08:40:23Z</time>
      </trkpt>
      <trkpt lat="28.5418730" lon="-16.2744630">
        <ele>864.9</ele>
        <time>2020-11-11T08:40:24Z</time>
      </trkpt>
      <trkpt lat="28.5419880" lon="-16.2746700">
        <ele>864.9</ele>
        <time>2020-11-11T08:40:25Z</time>
      </trkpt>
      <trkpt lat="28.5420670" lon="-16.2747650">
        <ele>863.9</ele>
        <time>2020-11-11T08:40:26Z</time>
      </trkpt>
      <trkpt lat="28.5420670" lon="-16.2747650">
        <ele>863.9</ele>
        <time>2020-11-11T08:40:27Z</time>
      </trkpt>
      <trkpt lat="28.5421830" lon="-16.2749650">
        <ele>862.9</ele>
        <time>2020-11-11T08:40:28Z</time>
      </trkpt>
      <trkpt lat="28.5422680" lon="-16.2750570">
        <ele>862.9</ele>
        <time>2020-11-11T08:40:29Z</time>
      </trkpt>
      <trkpt lat="28.5422680" lon="-16.2750570">
        <ele>861.9</ele>
        <time>2020-11-11T08:40:30Z</time>
      </trkpt>
      <trkpt lat="28.5424200" lon="-16.2752530">
        <ele>861.9</ele>
        <time>2020-11-11T08:40:31Z</time>
      </trkpt>
      <trkpt lat="28.5424750" lon="-16.2753480">
        <ele>860.9</ele>
        <time>2020-11-11T08:40:32Z</time>
      </trkpt>
      <trkpt lat="28.5424750" lon="-16.2753480">
        <ele>860.9</ele>
        <time>2020-11-11T08:40:33Z</time>
      </trkpt>
      <trkpt lat="28.5425730" lon="-16.2755180">
        <ele>858.9</ele>
        <time>2020-11-11T08:40:34Z</time>
      </trkpt>
      <trkpt lat="28.5425970" lon="-16.2755900">
        <ele>858.9</ele>
        <time>2020-11-11T08:40:35Z</time>
      </trkpt>
      <trkpt lat="28.5426030" lon="-16.2756630">
        <ele>856.9</ele>
        <time>2020-11-11T08:40:36Z</time>
      </trkpt>
      <trkpt lat="28.5426030" lon="-16.2756630">
        <ele>856.9</ele>
        <time>2020-11-11T08:40:37Z</time>
      </trkpt>
      <trkpt lat="28.5426020" lon="-16.2757820">
        <ele>855.9</ele>
        <time>2020-11-11T08:40:38Z</time>
      </trkpt>
      <trkpt lat="28.5426020" lon="-16.2757820">
        <ele>855.9</ele>
        <time>2020-11-11T08:40:39Z</time>
      </trkpt>
      <trkpt lat="28.5425420" lon="-16.2758320">
        <ele>854.9</ele>
        <time>2020-11-11T08:40:40Z</time>
      </trkpt>
      <trkpt lat="28.5425420" lon="-16.2758320">
        <ele>854.9</ele>
        <time>2020-11-11T08:40:41Z</time>
      </trkpt>
      <trkpt lat="28.5424380" lon="-16.2758100">
        <ele>853.9</ele>
        <time>2020-11-11T08:40:42Z</time>
      </trkpt>
      <trkpt lat="28.5423800" lon="-16.2757830">
        <ele>853.9</ele>
        <time>2020-11-11T08:40:43Z</time>
      </trkpt>
      <trkpt lat="28.5423170" lon="-16.2757500">
        <ele>852.9</ele>
        <time>2020-11-11T08:40:44Z</time>
      </trkpt>
      <trkpt lat="28.5423170" lon="-16.2757500">
        <ele>852.9</ele>
        <time>2020-11-11T08:40:45Z</time>
      </trkpt>
      <trkpt lat="28.5421950" lon="-16.2757120">
        <ele>851.9</ele>
        <time>2020-11-11T08:40:46Z</time>
      </trkpt>
      <trkpt lat="28.5421350" lon="-16.2756880">
        <ele>851.9</ele>
        <time>2020-11-11T08:40:47Z</time>
      </trkpt>
      <trkpt lat="28.5421350" lon="-16.2756880">
        <ele>850.9</ele>
        <time>2020-11-11T08:40:48Z</time>
      </trkpt>
      <trkpt lat="28.5420150" lon="-16.2756380">
        <ele>850.9</ele>
        <time>2020-11-11T08:40:49Z</time>
      </trkpt>
      <trkpt lat="28.5419480" lon="-16.2756080">
        <ele>849.9</ele>
        <time>2020-11-11T08:40:50Z</time>
      </trkpt>
      <trkpt lat="28.5419480" lon="-16.2756080">
        <ele>849.9</ele>
        <time>2020-11-11T08:40:51Z</time>
      </trkpt>
      <trkpt lat="28.5417980" lon="-16.2755600">
        <ele>848.9</ele>
        <time>2020-11-11T08:40:52Z</time>
      </trkpt>
      <trkpt lat="28.5417170" lon="-16.2755420">
        <ele>847.9</ele>
        <time>2020-11-11T08:40:53Z</time>
      </trkpt>
      <trkpt lat="28.5416350" lon="-16.2755320">
        <ele>847.9</ele>
        <time>2020-11-11T08:40:54Z</time>
      </trkpt>
      <trkpt lat="28.5416350" lon="-16.2755320">
        <ele>845.9</ele>
        <time>2020-11-11T08:40:55Z</time>
      </trkpt>
      <trkpt lat="28.5414370" lon="-16.2755250">
        <ele>845.9</ele>
        <time>2020-11-11T08:40:56Z</time>
      </trkpt>
      <trkpt lat="28.5414370" lon="-16.2755250">
        <ele>843.9</ele>
        <time>2020-11-11T08:40:57Z</time>
      </trkpt>
      <trkpt lat="28.5412830" lon="-16.2755100">
        <ele>843.9</ele>
        <time>2020-11-11T08:40:58Z</time>
      </trkpt>
      <trkpt lat="28.5412180" lon="-16.2755180">
        <ele>841.9</ele>
        <time>2020-11-11T08:40:59Z</time>
      </trkpt>
      <trkpt lat="28.5412180" lon="-16.2755180">
        <ele>841.9</ele>
        <time>2020-11-11T08:41:00Z</time>
      </trkpt>
      <trkpt lat="28.5410050" lon="-16.2756920">
        <ele>840.9</ele>
        <time>2020-11-11T08:41:01Z</time>
      </trkpt>
      <trkpt lat="28.5409220" lon="-16.2757550">
        <ele>840.9</ele>
        <time>2020-11-11T08:41:02Z</time>
      </trkpt>
      <trkpt lat="28.5409220" lon="-16.2757550">
        <ele>839.9</ele>
        <time>2020-11-11T08:41:03Z</time>
      </trkpt>
      <trkpt lat="28.5407930" lon="-16.2758500">
        <ele>839.9</ele>
        <time>2020-11-11T08:41:04Z</time>
      </trkpt>
      <trkpt lat="28.5407930" lon="-16.2758500">
        <ele>837.9</ele>
        <time>2020-11-11T08:41:05Z</time>
      </trkpt>
      <trkpt lat="28.5406680" lon="-16.2758670">
        <ele>837.9</ele>
        <time>2020-11-11T08:41:06Z</time>
      </trkpt>
      <trkpt lat="28.5406680" lon="-16.2758670">
        <ele>836.9</ele>
        <time>2020-11-11T08:41:07Z</time>
      </trkpt>
      <trkpt lat="28.5405070" lon="-16.2758420">
        <ele>836.9</ele>
        <time>2020-11-11T08:41:08Z</time>
      </trkpt>
      <trkpt lat="28.5405070" lon="-16.2758420">
        <ele>835.9</ele>
        <time>2020-11-11T08:41:09Z</time>
      </trkpt>
      <trkpt lat="28.5403550" lon="-16.2758080">
        <ele>835.9</ele>
        <time>2020-11-11T08:41:10Z</time>
      </trkpt>
      <trkpt lat="28.5403550" lon="-16.2758080">
        <ele>833.9</ele>
        <time>2020-11-11T08:41:11Z</time>
      </trkpt>
      <trkpt lat="28.5401780" lon="-16.2757980">
        <ele>833.9</ele>
        <time>2020-11-11T08:41:12Z</time>
      </trkpt>
      <trkpt lat="28.5401780" lon="-16.2757980">
        <ele>832.9</ele>
        <time>2020-11-11T08:41:13Z</time>
      </trkpt>
      <trkpt lat="28.5400030" lon="-16.2758380">
        <ele>832.9</ele>
        <time>2020-11-11T08:41:14Z</time>
      </trkpt>
      <trkpt lat="28.5400030" lon="-16.2758380">
        <ele>830.9</ele>
        <time>2020-11-11T08:41:15Z</time>
      </trkpt>
      <trkpt lat="28.5398580" lon="-16.2759180">
        <ele>830.9</ele>
        <time>2020-11-11T08:41:16Z</time>
      </trkpt>
      <trkpt lat="28.5398580" lon="-16.2759180">
        <ele>828.9</ele>
        <time>2020-11-11T08:41:17Z</time>
      </trkpt>
      <trkpt lat="28.5397350" lon="-16.2760580">
        <ele>828.9</ele>
        <time>2020-11-11T08:41:18Z</time>
      </trkpt>
      <trkpt lat="28.5397350" lon="-16.2760580">
        <ele>827.9</ele>
        <time>2020-11-11T08:41:19Z</time>
      </trkpt>
      <trkpt lat="28.5397270" lon="-16.2761450">
        <ele>827.9</ele>
        <time>2020-11-11T08:41:20Z</time>
      </trkpt>
      <trkpt lat="28.5397270" lon="-16.2761450">
        <ele>826.9</ele>
        <time>2020-11-11T08:41:21Z</time>
      </trkpt>
      <trkpt lat="28.5398170" lon="-16.2762300">
        <ele>826.9</ele>
        <time>2020-11-11T08:41:22Z</time>
      </trkpt>
      <trkpt lat="28.5398170" lon="-16.2762300">
        <ele>825.9</ele>
        <time>2020-11-11T08:41:23Z</time>
      </trkpt>
      <trkpt lat="28.5399380" lon="-16.2763300">
        <ele>825.9</ele>
        <time>2020-11-11T08:41:24Z</time>
      </trkpt>
      <trkpt lat="28.5399380" lon="-16.2763300">
        <ele>824.9</ele>
        <time>2020-11-11T08:41:25Z</time>
      </trkpt>
      <trkpt lat="28.5400570" lon="-16.2764330">
        <ele>824.9</ele>
        <time>2020-11-11T08:41:26Z</time>
      </trkpt>
      <trkpt lat="28.5400570" lon="-16.2764330">
        <ele>823.9</ele>
        <time>2020-11-11T08:41:27Z</time>
      </trkpt>
      <trkpt lat="28.5401780" lon="-16.2764730">
        <ele>823.9</ele>
        <time>2020-11-11T08:41:28Z</time>
      </trkpt>
      <trkpt lat="28.5401780" lon="-16.2764730">
        <ele>822.9</ele>
        <time>2020-11-11T08:41:29Z</time>
      </trkpt>
      <trkpt lat="28.5403120" lon="-16.2764670">
        <ele>822.9</ele>
        <time>2020-11-11T08:41:30Z</time>
      </trkpt>
      <trkpt lat="28.5403800" lon="-16.2764580">
        <ele>821.9</ele>
        <time>2020-11-11T08:41:31Z</time>
      </trkpt>
      <trkpt lat="28.5403800" lon="-16.2764580">
        <ele>820.9</ele>
        <time>2020-11-11T08:41:32Z</time>
      </trkpt>
      <trkpt lat="28.5405170" lon="-16.2764650">
        <ele>820.9</ele>
        <time>2020-11-11T08:41:33Z</time>
      </trkpt>
      <trkpt lat="28.5405870" lon="-16.2764820">
        <ele>820.9</ele>
        <time>2020-11-11T08:41:34Z</time>
      </trkpt>
      <trkpt lat="28.5405870" lon="-16.2764820">
        <ele>820.9</ele>
        <time>2020-11-11T08:41:35Z</time>
      </trkpt>
      <trkpt lat="28.5407130" lon="-16.2765400">
        <ele>819.9</ele>
        <time>2020-11-11T08:41:36Z</time>
      </trkpt>
      <trkpt lat="28.5407130" lon="-16.2765400">
        <ele>819.9</ele>
        <time>2020-11-11T08:41:37Z</time>
      </trkpt>
      <trkpt lat="28.5408350" lon="-16.2765830">
        <ele>818.9</ele>
        <time>2020-11-11T08:41:38Z</time>
      </trkpt>
      <trkpt lat="28.5408350" lon="-16.2765830">
        <ele>818.9</ele>
        <time>2020-11-11T08:41:39Z</time>
      </trkpt>
      <trkpt lat="28.5409530" lon="-16.2765700">
        <ele>817.9</ele>
        <time>2020-11-11T08:41:40Z</time>
      </trkpt>
      <trkpt lat="28.5409530" lon="-16.2765700">
        <ele>817.9</ele>
        <time>2020-11-11T08:41:41Z</time>
      </trkpt>
      <trkpt lat="28.5410570" lon="-16.2765250">
        <ele>816.9</ele>
        <time>2020-11-11T08:41:42Z</time>
      </trkpt>
      <trkpt lat="28.5410570" lon="-16.2765250">
        <ele>816.9</ele>
        <time>2020-11-11T08:41:43Z</time>
      </trkpt>
      <trkpt lat="28.5411500" lon="-16.2765180">
        <ele>815.9</ele>
        <time>2020-11-11T08:41:44Z</time>
      </trkpt>
      <trkpt lat="28.5411500" lon="-16.2765180">
        <ele>815.9</ele>
        <time>2020-11-11T08:41:45Z</time>
      </trkpt>
      <trkpt lat="28.5412050" lon="-16.2765350">
        <ele>815.9</ele>
        <time>2020-11-11T08:41:46Z</time>
      </trkpt>
      <trkpt lat="28.5412050" lon="-16.2765350">
        <ele>815.9</ele>
        <time>2020-11-11T08:41:47Z</time>
      </trkpt>
      <trkpt lat="28.5412170" lon="-16.2765520">
        <ele>815.9</ele>
        <time>2020-11-11T08:41:48Z</time>
      </trkpt>
      <trkpt lat="28.5412130" lon="-16.2765500">
        <ele>815.9</ele>
        <time>2020-11-11T08:41:49Z</time>
      </trkpt>
      <trkpt lat="28.5412130" lon="-16.2765500">
        <ele>815.9</ele>
        <time>2020-11-11T08:42:21Z</time>
      </trkpt>
      <trkpt lat="28.5412130" lon="-16.2765500">
        <ele>815.9</ele>
        <time>2020-11-11T08:42:22Z</time>
      </trkpt>
      <trkpt lat="28.5412470" lon="-16.2765580">
        <ele>815.9</ele>
        <time>2020-11-11T08:42:23Z</time>
      </trkpt>
      <trkpt lat="28.5412350" lon="-16.2765470">
        <ele>815.9</ele>
        <time>2020-11-11T08:42:24Z</time>
      </trkpt>
      <trkpt lat="28.5412350" lon="-16.2765470">
        <ele>815.9</ele>
        <time>2020-11-11T08:42:25Z</time>
      </trkpt>
      <trkpt lat="28.5411950" lon="-16.2765380">
        <ele>815.9</ele>
        <time>2020-11-11T08:42:26Z</time>
      </trkpt>
      <trkpt lat="28.5411950" lon="-16.2765380">
        <ele>815.9</ele>
        <time>2020-11-11T08:42:27Z</time>
      </trkpt>
      <trkpt lat="28.5411420" lon="-16.2765430">
        <ele>815.9</ele>
        <time>2020-11-11T08:42:28Z</time>
      </trkpt>
      <trkpt lat="28.5411420" lon="-16.2765430">
        <ele>815.9</ele>
        <time>2020-11-11T08:42:29Z</time>
      </trkpt>
      <trkpt lat="28.5410870" lon="-16.2765530">
        <ele>815.9</ele>
        <time>2020-11-11T08:42:30Z</time>
      </trkpt>
      <trkpt lat="28.5410870" lon="-16.2765530">
        <ele>815.9</ele>
        <time>2020-11-11T08:42:31Z</time>
      </trkpt>
      <trkpt lat="28.5410320" lon="-16.2765700">
        <ele>815.9</ele>
        <time>2020-11-11T08:42:32Z</time>
      </trkpt>
      <trkpt lat="28.5410320" lon="-16.2765700">
        <ele>815.9</ele>
        <time>2020-11-11T08:42:33Z</time>
      </trkpt>
      <trkpt lat="28.5409820" lon="-16.2765770">
        <ele>815.9</ele>
        <time>2020-11-11T08:42:34Z</time>
      </trkpt>
      <trkpt lat="28.5409580" lon="-16.2765820">
        <ele>815.9</ele>
        <time>2020-11-11T08:42:35Z</time>
      </trkpt>
      <trkpt lat="28.5409580" lon="-16.2765820">
        <ele>815.9</ele>
        <time>2020-11-11T08:42:36Z</time>
      </trkpt>
      <trkpt lat="28.5409120" lon="-16.2765900">
        <ele>815.9</ele>
        <time>2020-11-11T08:42:37Z</time>
      </trkpt>
      <trkpt lat="28.5409120" lon="-16.2765900">
        <ele>815.9</ele>
        <time>2020-11-11T08:42:38Z</time>
      </trkpt>
      <trkpt lat="28.5408600" lon="-16.2765800">
        <ele>815.9</ele>
        <time>2020-11-11T08:42:39Z</time>
      </trkpt>
      <trkpt lat="28.5408600" lon="-16.2765800">
        <ele>816.9</ele>
        <time>2020-11-11T08:42:40Z</time>
      </trkpt>
      <trkpt lat="28.5408080" lon="-16.2765650">
        <ele>816.9</ele>
        <time>2020-11-11T08:42:41Z</time>
      </trkpt>
      <trkpt lat="28.5407830" lon="-16.2765550">
        <ele>816.9</ele>
        <time>2020-11-11T08:42:42Z</time>
      </trkpt>
      <trkpt lat="28.5407580" lon="-16.2765470">
        <ele>816.9</ele>
        <time>2020-11-11T08:42:43Z</time>
      </trkpt>
      <trkpt lat="28.5407580" lon="-16.2765470">
        <ele>816.9</ele>
        <time>2020-11-11T08:42:44Z</time>
      </trkpt>
      <trkpt lat="28.5407050" lon="-16.2765280">
        <ele>816.9</ele>
        <time>2020-11-11T08:42:45Z</time>
      </trkpt>
      <trkpt lat="28.5406780" lon="-16.2765200">
        <ele>817.9</ele>
        <time>2020-11-11T08:42:46Z</time>
      </trkpt>
      <trkpt lat="28.5406780" lon="-16.2765200">
        <ele>817.9</ele>
        <time>2020-11-11T08:42:47Z</time>
      </trkpt>
      <trkpt lat="28.5406250" lon="-16.2765020">
        <ele>817.9</ele>
        <time>2020-11-11T08:42:48Z</time>
      </trkpt>
      <trkpt lat="28.5406000" lon="-16.2764900">
        <ele>817.9</ele>
        <time>2020-11-11T08:42:49Z</time>
      </trkpt>
      <trkpt lat="28.5406000" lon="-16.2764900">
        <ele>817.9</ele>
        <time>2020-11-11T08:42:50Z</time>
      </trkpt>
      <trkpt lat="28.5405370" lon="-16.2764670">
        <ele>817.9</ele>
        <time>2020-11-11T08:42:51Z</time>
      </trkpt>
      <trkpt lat="28.5405100" lon="-16.2764600">
        <ele>818.9</ele>
        <time>2020-11-11T08:42:52Z</time>
      </trkpt>
      <trkpt lat="28.5404830" lon="-16.2764530">
        <ele>818.9</ele>
        <time>2020-11-11T08:42:53Z</time>
      </trkpt>
      <trkpt lat="28.5404830" lon="-16.2764530">
        <ele>818.9</ele>
        <time>2020-11-11T08:42:54Z</time>
      </trkpt>
      <trkpt lat="28.5404270" lon="-16.2764520">
        <ele>818.9</ele>
        <time>2020-11-11T08:42:55Z</time>
      </trkpt>
      <trkpt lat="28.5404270" lon="-16.2764520">
        <ele>818.9</ele>
        <time>2020-11-11T08:42:56Z</time>
      </trkpt>
      <trkpt lat="28.5403750" lon="-16.2764500">
        <ele>818.9</ele>
        <time>2020-11-11T08:42:57Z</time>
      </trkpt>
      <trkpt lat="28.5403750" lon="-16.2764500">
        <ele>819.9</ele>
        <time>2020-11-11T08:42:58Z</time>
      </trkpt>
      <trkpt lat="28.5403280" lon="-16.2764570">
        <ele>819.9</ele>
        <time>2020-11-11T08:42:59Z</time>
      </trkpt>
      <trkpt lat="28.5403280" lon="-16.2764570">
        <ele>819.9</ele>
        <time>2020-11-11T08:43:00Z</time>
      </trkpt>
      <trkpt lat="28.5402800" lon="-16.2764670">
        <ele>819.9</ele>
        <time>2020-11-11T08:43:01Z</time>
      </trkpt>
      <trkpt lat="28.5402800" lon="-16.2764670">
        <ele>819.9</ele>
        <time>2020-11-11T08:43:02Z</time>
      </trkpt>
      <trkpt lat="28.5402320" lon="-16.2764700">
        <ele>819.9</ele>
        <time>2020-11-11T08:43:03Z</time>
      </trkpt>
      <trkpt lat="28.5402320" lon="-16.2764700">
        <ele>819.9</ele>
        <time>2020-11-11T08:43:04Z</time>
      </trkpt>
      <trkpt lat="28.5401820" lon="-16.2764780">
        <ele>819.9</ele>
        <time>2020-11-11T08:43:05Z</time>
      </trkpt>
      <trkpt lat="28.5401820" lon="-16.2764780">
        <ele>819.9</ele>
        <time>2020-11-11T08:43:06Z</time>
      </trkpt>
      <trkpt lat="28.5401370" lon="-16.2764770">
        <ele>819.9</ele>
        <time>2020-11-11T08:43:07Z</time>
      </trkpt>
      <trkpt lat="28.5401120" lon="-16.2764680">
        <ele>819.9</ele>
        <time>2020-11-11T08:43:08Z</time>
      </trkpt>
      <trkpt lat="28.5401120" lon="-16.2764680">
        <ele>819.9</ele>
        <time>2020-11-11T08:43:09Z</time>
      </trkpt>
      <trkpt lat="28.5400650" lon="-16.2764430">
        <ele>820.9</ele>
        <time>2020-11-11T08:43:10Z</time>
      </trkpt>
      <trkpt lat="28.5400650" lon="-16.2764430">
        <ele>820.9</ele>
        <time>2020-11-11T08:43:11Z</time>
      </trkpt>
      <trkpt lat="28.5400220" lon="-16.2764200">
        <ele>820.9</ele>
        <time>2020-11-11T08:43:12Z</time>
      </trkpt>
      <trkpt lat="28.5399980" lon="-16.2764050">
        <ele>820.9</ele>
        <time>2020-11-11T08:43:13Z</time>
      </trkpt>
      <trkpt lat="28.5399980" lon="-16.2764050">
        <ele>821.9</ele>
        <time>2020-11-11T08:43:14Z</time>
      </trkpt>
      <trkpt lat="28.5399580" lon="-16.2763780">
        <ele>821.9</ele>
        <time>2020-11-11T08:43:15Z</time>
      </trkpt>
      <trkpt lat="28.5399580" lon="-16.2763780">
        <ele>821.9</ele>
        <time>2020-11-11T08:43:16Z</time>
      </trkpt>
      <trkpt lat="28.5399200" lon="-16.2763480">
        <ele>821.9</ele>
        <time>2020-11-11T08:43:17Z</time>
      </trkpt>
      <trkpt lat="28.5399020" lon="-16.2763330">
        <ele>821.9</ele>
        <time>2020-11-11T08:43:18Z</time>
      </trkpt>
      <trkpt lat="28.5398800" lon="-16.2763200">
        <ele>821.9</ele>
        <time>2020-11-11T08:43:19Z</time>
      </trkpt>
      <trkpt lat="28.5398800" lon="-16.2763200">
        <ele>822.9</ele>
        <time>2020-11-11T08:43:20Z</time>
      </trkpt>
      <trkpt lat="28.5398370" lon="-16.2762970">
        <ele>822.9</ele>
        <time>2020-11-11T08:43:21Z</time>
      </trkpt>
      <trkpt lat="28.5398370" lon="-16.2762970">
        <ele>822.9</ele>
        <time>2020-11-11T08:43:22Z</time>
      </trkpt>
      <trkpt lat="28.5397930" lon="-16.2762700">
        <ele>822.9</ele>
        <time>2020-11-11T08:43:23Z</time>
      </trkpt>
      <trkpt lat="28.5397750" lon="-16.2762580">
        <ele>823.9</ele>
        <time>2020-11-11T08:43:24Z</time>
      </trkpt>
      <trkpt lat="28.5397750" lon="-16.2762580">
        <ele>823.9</ele>
        <time>2020-11-11T08:43:25Z</time>
      </trkpt>
      <trkpt lat="28.5397370" lon="-16.2762330">
        <ele>823.9</ele>
        <time>2020-11-11T08:43:26Z</time>
      </trkpt>
      <trkpt lat="28.5397370" lon="-16.2762330">
        <ele>823.9</ele>
        <time>2020-11-11T08:43:27Z</time>
      </trkpt>
      <trkpt lat="28.5396970" lon="-16.2762100">
        <ele>824.9</ele>
        <time>2020-11-11T08:43:28Z</time>
      </trkpt>
      <trkpt lat="28.5396970" lon="-16.2762100">
        <ele>824.9</ele>
        <time>2020-11-11T08:43:29Z</time>
      </trkpt>
      <trkpt lat="28.5396600" lon="-16.2761850">
        <ele>824.9</ele>
        <time>2020-11-11T08:43:30Z</time>
      </trkpt>
      <trkpt lat="28.5396430" lon="-16.2761700">
        <ele>824.9</ele>
        <time>2020-11-11T08:43:31Z</time>
      </trkpt>
      <trkpt lat="28.5396430" lon="-16.2761700">
        <ele>824.9</ele>
        <time>2020-11-11T08:43:32Z</time>
      </trkpt>
      <trkpt lat="28.5396030" lon="-16.2761580">
        <ele>824.9</ele>
        <time>2020-11-11T08:43:33Z</time>
      </trkpt>
      <trkpt lat="28.5396030" lon="-16.2761580">
        <ele>825.9</ele>
        <time>2020-11-11T08:43:34Z</time>
      </trkpt>
      <trkpt lat="28.5395700" lon="-16.2761620">
        <ele>825.9</ele>
        <time>2020-11-11T08:43:35Z</time>
      </trkpt>
      <trkpt lat="28.5395550" lon="-16.2761680">
        <ele>825.9</ele>
        <time>2020-11-11T08:43:36Z</time>
      </trkpt>
      <trkpt lat="28.5395400" lon="-16.2761750">
        <ele>825.9</ele>
        <time>2020-11-11T08:43:37Z</time>
      </trkpt>
      <trkpt lat="28.5395400" lon="-16.2761750">
        <ele>826.9</ele>
        <time>2020-11-11T08:43:38Z</time>
      </trkpt>
      <trkpt lat="28.5395130" lon="-16.2761820">
        <ele>826.9</ele>
        <time>2020-11-11T08:43:39Z</time>
      </trkpt>
      <trkpt lat="28.5395130" lon="-16.2761820">
        <ele>826.9</ele>
        <time>2020-11-11T08:43:40Z</time>
      </trkpt>
      <trkpt lat="28.5394680" lon="-16.2761780">
        <ele>826.9</ele>
        <time>2020-11-11T08:43:41Z</time>
      </trkpt>
      <trkpt lat="28.5394470" lon="-16.2761770">
        <ele>826.9</ele>
        <time>2020-11-11T08:43:42Z</time>
      </trkpt>
      <trkpt lat="28.5394300" lon="-16.2761700">
        <ele>826.9</ele>
        <time>2020-11-11T08:43:43Z</time>
      </trkpt>
      <trkpt lat="28.5394300" lon="-16.2761700">
        <ele>826.9</ele>
        <time>2020-11-11T08:43:44Z</time>
      </trkpt>
      <trkpt lat="28.5393950" lon="-16.2761480">
        <ele>826.9</ele>
        <time>2020-11-11T08:43:45Z</time>
      </trkpt>
      <trkpt lat="28.5393950" lon="-16.2761480">
        <ele>826.9</ele>
        <time>2020-11-11T08:43:46Z</time>
      </trkpt>
      <trkpt lat="28.5393620" lon="-16.2761320">
        <ele>826.9</ele>
        <time>2020-11-11T08:43:47Z</time>
      </trkpt>
      <trkpt lat="28.5393620" lon="-16.2761320">
        <ele>827.9</ele>
        <time>2020-11-11T08:43:48Z</time>
      </trkpt>
      <trkpt lat="28.5393480" lon="-16.2760920">
        <ele>827.9</ele>
        <time>2020-11-11T08:43:49Z</time>
      </trkpt>
      <trkpt lat="28.5393480" lon="-16.2760920">
        <ele>827.9</ele>
        <time>2020-11-11T08:43:50Z</time>
      </trkpt>
      <trkpt lat="28.5393620" lon="-16.2760580">
        <ele>827.9</ele>
        <time>2020-11-11T08:43:51Z</time>
      </trkpt>
      <trkpt lat="28.5393620" lon="-16.2760580">
        <ele>827.9</ele>
        <time>2020-11-11T08:43:52Z</time>
      </trkpt>
      <trkpt lat="28.5393570" lon="-16.2760350">
        <ele>827.9</ele>
        <time>2020-11-11T08:43:53Z</time>
      </trkpt>
      <trkpt lat="28.5393570" lon="-16.2760250">
        <ele>827.9</ele>
        <time>2020-11-11T08:43:54Z</time>
      </trkpt>
      <trkpt lat="28.5393570" lon="-16.2760250">
        <ele>827.9</ele>
        <time>2020-11-11T08:43:55Z</time>
      </trkpt>
      <trkpt lat="28.5393500" lon="-16.2759970">
        <ele>827.9</ele>
        <time>2020-11-11T08:43:56Z</time>
      </trkpt>
      <trkpt lat="28.5393500" lon="-16.2759970">
        <ele>828.9</ele>
        <time>2020-11-11T08:43:57Z</time>
      </trkpt>
      <trkpt lat="28.5393530" lon="-16.2759650">
        <ele>828.9</ele>
        <time>2020-11-11T08:43:58Z</time>
      </trkpt>
      <trkpt lat="28.5393530" lon="-16.2759650">
        <ele>828.9</ele>
        <time>2020-11-11T08:43:59Z</time>
      </trkpt>
      <trkpt lat="28.5393650" lon="-16.2759320">
        <ele>828.9</ele>
        <time>2020-11-11T08:44:00Z</time>
      </trkpt>
      <trkpt lat="28.5393650" lon="-16.2759320">
        <ele>828.9</ele>
        <time>2020-11-11T08:44:01Z</time>
      </trkpt>
      <trkpt lat="28.5393570" lon="-16.2758930">
        <ele>828.9</ele>
        <time>2020-11-11T08:44:02Z</time>
      </trkpt>
      <trkpt lat="28.5393570" lon="-16.2758930">
        <ele>828.9</ele>
        <time>2020-11-11T08:44:03Z</time>
      </trkpt>
      <trkpt lat="28.5393570" lon="-16.2758430">
        <ele>828.9</ele>
        <time>2020-11-11T08:44:04Z</time>
      </trkpt>
      <trkpt lat="28.5393550" lon="-16.2758250">
        <ele>828.9</ele>
        <time>2020-11-11T08:44:05Z</time>
      </trkpt>
      <trkpt lat="28.5393550" lon="-16.2758250">
        <ele>829.9</ele>
        <time>2020-11-11T08:44:06Z</time>
      </trkpt>
      <trkpt lat="28.5393530" lon="-16.2757820">
        <ele>829.9</ele>
        <time>2020-11-11T08:44:07Z</time>
      </trkpt>
      <trkpt lat="28.5393530" lon="-16.2757820">
        <ele>829.9</ele>
        <time>2020-11-11T08:44:08Z</time>
      </trkpt>
      <trkpt lat="28.5393550" lon="-16.2757380">
        <ele>829.9</ele>
        <time>2020-11-11T08:44:09Z</time>
      </trkpt>
      <trkpt lat="28.5393550" lon="-16.2757380">
        <ele>829.9</ele>
        <time>2020-11-11T08:44:10Z</time>
      </trkpt>
      <trkpt lat="28.5393280" lon="-16.2756620">
        <ele>829.9</ele>
        <time>2020-11-11T08:44:11Z</time>
      </trkpt>
      <trkpt lat="28.5393170" lon="-16.2756280">
        <ele>829.9</ele>
        <time>2020-11-11T08:44:12Z</time>
      </trkpt>
      <trkpt lat="28.5393170" lon="-16.2756280">
        <ele>829.9</ele>
        <time>2020-11-11T08:44:13Z</time>
      </trkpt>
      <trkpt lat="28.5392930" lon="-16.2755750">
        <ele>829.9</ele>
        <time>2020-11-11T08:44:14Z</time>
      </trkpt>
      <trkpt lat="28.5392930" lon="-16.2755750">
        <ele>829.9</ele>
        <time>2020-11-11T08:44:15Z</time>
      </trkpt>
      <trkpt lat="28.5392950" lon="-16.2755170">
        <ele>829.9</ele>
        <time>2020-11-11T08:44:16Z</time>
      </trkpt>
      <trkpt lat="28.5392950" lon="-16.2755170">
        <ele>829.9</ele>
        <time>2020-11-11T08:44:17Z</time>
      </trkpt>
      <trkpt lat="28.5392800" lon="-16.2754700">
        <ele>829.9</ele>
        <time>2020-11-11T08:44:18Z</time>
      </trkpt>
      <trkpt lat="28.5392720" lon="-16.2754550">
        <ele>829.9</ele>
        <time>2020-11-11T08:44:19Z</time>
      </trkpt>
      <trkpt lat="28.5392720" lon="-16.2754550">
        <ele>829.9</ele>
        <time>2020-11-11T08:44:20Z</time>
      </trkpt>
      <trkpt lat="28.5392480" lon="-16.2754100">
        <ele>829.9</ele>
        <time>2020-11-11T08:44:21Z</time>
      </trkpt>
      <trkpt lat="28.5392480" lon="-16.2754100">
        <ele>829.9</ele>
        <time>2020-11-11T08:44:22Z</time>
      </trkpt>
      <trkpt lat="28.5392450" lon="-16.2753820">
        <ele>829.9</ele>
        <time>2020-11-11T08:44:23Z</time>
      </trkpt>
      <trkpt lat="28.5392380" lon="-16.2753720">
        <ele>829.9</ele>
        <time>2020-11-11T08:44:24Z</time>
      </trkpt>
      <trkpt lat="28.5392380" lon="-16.2753720">
        <ele>829.9</ele>
        <time>2020-11-11T08:44:25Z</time>
      </trkpt>
      <trkpt lat="28.5392070" lon="-16.2753420">
        <ele>830.9</ele>
        <time>2020-11-11T08:44:26Z</time>
      </trkpt>
      <trkpt lat="28.5392070" lon="-16.2753420">
        <ele>830.9</ele>
        <time>2020-11-11T08:44:27Z</time>
      </trkpt>
      <trkpt lat="28.5391870" lon="-16.2753220">
        <ele>830.9</ele>
        <time>2020-11-11T08:44:28Z</time>
      </trkpt>
      <trkpt lat="28.5391870" lon="-16.2753220">
        <ele>830.9</ele>
        <time>2020-11-11T08:44:29Z</time>
      </trkpt>
      <trkpt lat="28.5391600" lon="-16.2752930">
        <ele>830.9</ele>
        <time>2020-11-11T08:44:30Z</time>
      </trkpt>
      <trkpt lat="28.5391530" lon="-16.2752830">
        <ele>830.9</ele>
        <time>2020-11-11T08:44:31Z</time>
      </trkpt>
      <trkpt lat="28.5391530" lon="-16.2752830">
        <ele>830.9</ele>
        <time>2020-11-11T08:44:32Z</time>
      </trkpt>
      <trkpt lat="28.5391370" lon="-16.2752670">
        <ele>830.9</ele>
        <time>2020-11-11T08:44:33Z</time>
      </trkpt>
      <trkpt lat="28.5391180" lon="-16.2752720">
        <ele>830.9</ele>
        <time>2020-11-11T08:44:34Z</time>
      </trkpt>
      <trkpt lat="28.5391050" lon="-16.2752780">
        <ele>830.9</ele>
        <time>2020-11-11T08:44:35Z</time>
      </trkpt>
      <trkpt lat="28.5391050" lon="-16.2752780">
        <ele>830.9</ele>
        <time>2020-11-11T08:44:36Z</time>
      </trkpt>
      <trkpt lat="28.5390730" lon="-16.2752980">
        <ele>830.9</ele>
        <time>2020-11-11T08:44:37Z</time>
      </trkpt>
      <trkpt lat="28.5390730" lon="-16.2752980">
        <ele>830.9</ele>
        <time>2020-11-11T08:44:38Z</time>
      </trkpt>
      <trkpt lat="28.5390470" lon="-16.2753130">
        <ele>831.9</ele>
        <time>2020-11-11T08:44:39Z</time>
      </trkpt>
      <trkpt lat="28.5390470" lon="-16.2753130">
        <ele>831.9</ele>
        <time>2020-11-11T08:44:40Z</time>
      </trkpt>
      <trkpt lat="28.5390100" lon="-16.2753330">
        <ele>831.9</ele>
        <time>2020-11-11T08:44:41Z</time>
      </trkpt>
      <trkpt lat="28.5390100" lon="-16.2753330">
        <ele>831.9</ele>
        <time>2020-11-11T08:44:42Z</time>
      </trkpt>
      <trkpt lat="28.5389770" lon="-16.2753700">
        <ele>831.9</ele>
        <time>2020-11-11T08:44:43Z</time>
      </trkpt>
      <trkpt lat="28.5389770" lon="-16.2753700">
        <ele>831.9</ele>
        <time>2020-11-11T08:44:44Z</time>
      </trkpt>
      <trkpt lat="28.5389600" lon="-16.2754230">
        <ele>831.9</ele>
        <time>2020-11-11T08:44:45Z</time>
      </trkpt>
      <trkpt lat="28.5389600" lon="-16.2754230">
        <ele>831.9</ele>
        <time>2020-11-11T08:44:46Z</time>
      </trkpt>
      <trkpt lat="28.5389420" lon="-16.2754750">
        <ele>831.9</ele>
        <time>2020-11-11T08:44:47Z</time>
      </trkpt>
      <trkpt lat="28.5389420" lon="-16.2754750">
        <ele>831.9</ele>
        <time>2020-11-11T08:44:48Z</time>
      </trkpt>
      <trkpt lat="28.5389170" lon="-16.2755230">
        <ele>831.9</ele>
        <time>2020-11-11T08:44:49Z</time>
      </trkpt>
      <trkpt lat="28.5389170" lon="-16.2755230">
        <ele>831.9</ele>
        <time>2020-11-11T08:44:50Z</time>
      </trkpt>
      <trkpt lat="28.5388780" lon="-16.2755730">
        <ele>829.9</ele>
        <time>2020-11-11T08:44:51Z</time>
      </trkpt>
      <trkpt lat="28.5388780" lon="-16.2755730">
        <ele>829.9</ele>
        <time>2020-11-11T08:44:52Z</time>
      </trkpt>
      <trkpt lat="28.5388470" lon="-16.2756080">
        <ele>829.9</ele>
        <time>2020-11-11T08:44:53Z</time>
      </trkpt>
      <trkpt lat="28.5388470" lon="-16.2756080">
        <ele>829.9</ele>
        <time>2020-11-11T08:44:54Z</time>
      </trkpt>
      <trkpt lat="28.5388100" lon="-16.2756250">
        <ele>829.9</ele>
        <time>2020-11-11T08:44:55Z</time>
      </trkpt>
      <trkpt lat="28.5388100" lon="-16.2756250">
        <ele>829.9</ele>
        <time>2020-11-11T08:44:56Z</time>
      </trkpt>
      <trkpt lat="28.5387470" lon="-16.2756330">
        <ele>828.9</ele>
        <time>2020-11-11T08:44:57Z</time>
      </trkpt>
      <trkpt lat="28.5387120" lon="-16.2756350">
        <ele>828.9</ele>
        <time>2020-11-11T08:44:58Z</time>
      </trkpt>
      <trkpt lat="28.5387120" lon="-16.2756350">
        <ele>828.9</ele>
        <time>2020-11-11T08:44:59Z</time>
      </trkpt>
      <trkpt lat="28.5386530" lon="-16.2756370">
        <ele>828.9</ele>
        <time>2020-11-11T08:45:00Z</time>
      </trkpt>
      <trkpt lat="28.5386270" lon="-16.2756330">
        <ele>828.9</ele>
        <time>2020-11-11T08:45:01Z</time>
      </trkpt>
      <trkpt lat="28.5386270" lon="-16.2756330">
        <ele>828.9</ele>
        <time>2020-11-11T08:45:02Z</time>
      </trkpt>
      <trkpt lat="28.5385730" lon="-16.2756200">
        <ele>827.9</ele>
        <time>2020-11-11T08:45:03Z</time>
      </trkpt>
      <trkpt lat="28.5385730" lon="-16.2756200">
        <ele>827.9</ele>
        <time>2020-11-11T08:45:04Z</time>
      </trkpt>
      <trkpt lat="28.5385230" lon="-16.2756100">
        <ele>827.9</ele>
        <time>2020-11-11T08:45:05Z</time>
      </trkpt>
      <trkpt lat="28.5385230" lon="-16.2756100">
        <ele>827.9</ele>
        <time>2020-11-11T08:45:06Z</time>
      </trkpt>
      <trkpt lat="28.5384570" lon="-16.2756170">
        <ele>826.9</ele>
        <time>2020-11-11T08:45:07Z</time>
      </trkpt>
      <trkpt lat="28.5384570" lon="-16.2756170">
        <ele>826.9</ele>
        <time>2020-11-11T08:45:08Z</time>
      </trkpt>
      <trkpt lat="28.5383830" lon="-16.2756120">
        <ele>826.9</ele>
        <time>2020-11-11T08:45:09Z</time>
      </trkpt>
      <trkpt lat="28.5383830" lon="-16.2756120">
        <ele>826.9</ele>
        <time>2020-11-11T08:45:10Z</time>
      </trkpt>
      <trkpt lat="28.5383330" lon="-16.2755920">
        <ele>826.9</ele>
        <time>2020-11-11T08:45:11Z</time>
      </trkpt>
      <trkpt lat="28.5383330" lon="-16.2755920">
        <ele>825.9</ele>
        <time>2020-11-11T08:45:12Z</time>
      </trkpt>
      <trkpt lat="28.5382720" lon="-16.2755820">
        <ele>825.9</ele>
        <time>2020-11-11T08:45:13Z</time>
      </trkpt>
      <trkpt lat="28.5382720" lon="-16.2755820">
        <ele>825.9</ele>
        <time>2020-11-11T08:45:14Z</time>
      </trkpt>
      <trkpt lat="28.5382230" lon="-16.2755480">
        <ele>825.9</ele>
        <time>2020-11-11T08:45:15Z</time>
      </trkpt>
      <trkpt lat="28.5382230" lon="-16.2755480">
        <ele>825.9</ele>
        <time>2020-11-11T08:45:16Z</time>
      </trkpt>
      <trkpt lat="28.5381920" lon="-16.2754950">
        <ele>825.9</ele>
        <time>2020-11-11T08:45:17Z</time>
      </trkpt>
      <trkpt lat="28.5381920" lon="-16.2754950">
        <ele>825.9</ele>
        <time>2020-11-11T08:45:18Z</time>
      </trkpt>
      <trkpt lat="28.5381600" lon="-16.2754500">
        <ele>825.9</ele>
        <time>2020-11-11T08:45:19Z</time>
      </trkpt>
      <trkpt lat="28.5381600" lon="-16.2754500">
        <ele>825.9</ele>
        <time>2020-11-11T08:45:20Z</time>
      </trkpt>
      <trkpt lat="28.5381170" lon="-16.2753980">
        <ele>825.9</ele>
        <time>2020-11-11T08:45:21Z</time>
      </trkpt>
      <trkpt lat="28.5381170" lon="-16.2753980">
        <ele>823.9</ele>
        <time>2020-11-11T08:45:22Z</time>
      </trkpt>
      <trkpt lat="28.5380720" lon="-16.2753280">
        <ele>823.9</ele>
        <time>2020-11-11T08:45:23Z</time>
      </trkpt>
      <trkpt lat="28.5380720" lon="-16.2753280">
        <ele>823.9</ele>
        <time>2020-11-11T08:45:24Z</time>
      </trkpt>
      <trkpt lat="28.5380350" lon="-16.2752680">
        <ele>823.9</ele>
        <time>2020-11-11T08:45:25Z</time>
      </trkpt>
      <trkpt lat="28.5380350" lon="-16.2752680">
        <ele>823.9</ele>
        <time>2020-11-11T08:45:26Z</time>
      </trkpt>
      <trkpt lat="28.5380070" lon="-16.2752100">
        <ele>823.9</ele>
        <time>2020-11-11T08:45:27Z</time>
      </trkpt>
      <trkpt lat="28.5379950" lon="-16.2751800">
        <ele>822.9</ele>
        <time>2020-11-11T08:45:28Z</time>
      </trkpt>
      <trkpt lat="28.5379950" lon="-16.2751800">
        <ele>822.9</ele>
        <time>2020-11-11T08:45:29Z</time>
      </trkpt>
      <trkpt lat="28.5379780" lon="-16.2751350">
        <ele>822.9</ele>
        <time>2020-11-11T08:45:30Z</time>
      </trkpt>
      <trkpt lat="28.5379680" lon="-16.2751180">
        <ele>822.9</ele>
        <time>2020-11-11T08:45:31Z</time>
      </trkpt>
      <trkpt lat="28.5379680" lon="-16.2751180">
        <ele>821.9</ele>
        <time>2020-11-11T08:45:32Z</time>
      </trkpt>
      <trkpt lat="28.5379220" lon="-16.2750880">
        <ele>821.9</ele>
        <time>2020-11-11T08:45:33Z</time>
      </trkpt>
      <trkpt lat="28.5379220" lon="-16.2750880">
        <ele>821.9</ele>
        <time>2020-11-11T08:45:34Z</time>
      </trkpt>
      <trkpt lat="28.5379100" lon="-16.2750920">
        <ele>821.9</ele>
        <time>2020-11-11T08:45:35Z</time>
      </trkpt>
      <trkpt lat="28.5379100" lon="-16.2750920">
        <ele>821.9</ele>
        <time>2020-11-11T08:45:48Z</time>
      </trkpt>
      <trkpt lat="28.5377830" lon="-16.2750330">
        <ele>821.9</ele>
        <time>2020-11-11T08:45:49Z</time>
      </trkpt>
      <trkpt lat="28.5377830" lon="-16.2750330">
        <ele>821.9</ele>
        <time>2020-11-11T08:45:50Z</time>
      </trkpt>
      <trkpt lat="28.5377850" lon="-16.2750070">
        <ele>821.9</ele>
        <time>2020-11-11T08:45:51Z</time>
      </trkpt>
      <trkpt lat="28.5377850" lon="-16.2750070">
        <ele>821.9</ele>
        <time>2020-11-11T08:45:52Z</time>
      </trkpt>
      <trkpt lat="28.5377830" lon="-16.2749800">
        <ele>821.9</ele>
        <time>2020-11-11T08:45:53Z</time>
      </trkpt>
      <trkpt lat="28.5377780" lon="-16.2749730">
        <ele>821.9</ele>
        <time>2020-11-11T08:45:54Z</time>
      </trkpt>
      <trkpt lat="28.5377730" lon="-16.2749700">
        <ele>821.9</ele>
        <time>2020-11-11T08:45:55Z</time>
      </trkpt>
      <trkpt lat="28.5377730" lon="-16.2749700">
        <ele>821.9</ele>
        <time>2020-11-11T08:45:56Z</time>
      </trkpt>
      <trkpt lat="28.5377750" lon="-16.2749670">
        <ele>821.9</ele>
        <time>2020-11-11T08:46:05Z</time>
      </trkpt>
      <trkpt lat="28.5377750" lon="-16.2749670">
        <ele>821.9</ele>
        <time>2020-11-11T08:46:06Z</time>
      </trkpt>
      <trkpt lat="28.5377080" lon="-16.2750530">
        <ele>821.9</ele>
        <time>2020-11-11T08:46:07Z</time>
      </trkpt>
      <trkpt lat="28.5377130" lon="-16.2750700">
        <ele>821.9</ele>
        <time>2020-11-11T08:46:08Z</time>
      </trkpt>
      <trkpt lat="28.5377130" lon="-16.2750700">
        <ele>821.9</ele>
        <time>2020-11-11T08:46:09Z</time>
      </trkpt>
      <trkpt lat="28.5376900" lon="-16.2751220">
        <ele>821.9</ele>
        <time>2020-11-11T08:46:10Z</time>
      </trkpt>
      <trkpt lat="28.5376900" lon="-16.2751220">
        <ele>821.9</ele>
        <time>2020-11-11T08:46:11Z</time>
      </trkpt>
      <trkpt lat="28.5376920" lon="-16.2751550">
        <ele>821.9</ele>
        <time>2020-11-11T08:46:12Z</time>
      </trkpt>
      <trkpt lat="28.5376920" lon="-16.2751550">
        <ele>821.9</ele>
        <time>2020-11-11T08:46:13Z</time>
      </trkpt>
      <trkpt lat="28.5376400" lon="-16.2752300">
        <ele>821.9</ele>
        <time>2020-11-11T08:46:14Z</time>
      </trkpt>
      <trkpt lat="28.5376400" lon="-16.2752300">
        <ele>821.9</ele>
        <time>2020-11-11T08:46:15Z</time>
      </trkpt>
      <trkpt lat="28.5376300" lon="-16.2752820">
        <ele>821.9</ele>
        <time>2020-11-11T08:46:16Z</time>
      </trkpt>
      <trkpt lat="28.5376180" lon="-16.2753020">
        <ele>820.9</ele>
        <time>2020-11-11T08:46:17Z</time>
      </trkpt>
      <trkpt lat="28.5376180" lon="-16.2753020">
        <ele>820.9</ele>
        <time>2020-11-11T08:46:18Z</time>
      </trkpt>
      <trkpt lat="28.5375770" lon="-16.2753370">
        <ele>820.9</ele>
        <time>2020-11-11T08:46:19Z</time>
      </trkpt>
      <trkpt lat="28.5375770" lon="-16.2753370">
        <ele>820.9</ele>
        <time>2020-11-11T08:46:20Z</time>
      </trkpt>
      <trkpt lat="28.5375620" lon="-16.2753650">
        <ele>820.9</ele>
        <time>2020-11-11T08:46:21Z</time>
      </trkpt>
      <trkpt lat="28.5375620" lon="-16.2753650">
        <ele>820.9</ele>
        <time>2020-11-11T08:46:22Z</time>
      </trkpt>
      <trkpt lat="28.5375600" lon="-16.2754300">
        <ele>820.9</ele>
        <time>2020-11-11T08:46:23Z</time>
      </trkpt>
      <trkpt lat="28.5375650" lon="-16.2754630">
        <ele>820.9</ele>
        <time>2020-11-11T08:46:24Z</time>
      </trkpt>
      <trkpt lat="28.5375720" lon="-16.2754920">
        <ele>820.9</ele>
        <time>2020-11-11T08:46:25Z</time>
      </trkpt>
      <trkpt lat="28.5375720" lon="-16.2754920">
        <ele>820.9</ele>
        <time>2020-11-11T08:46:26Z</time>
      </trkpt>
      <trkpt lat="28.5375900" lon="-16.2755520">
        <ele>819.9</ele>
        <time>2020-11-11T08:46:27Z</time>
      </trkpt>
      <trkpt lat="28.5375900" lon="-16.2755520">
        <ele>819.9</ele>
        <time>2020-11-11T08:46:28Z</time>
      </trkpt>
      <trkpt lat="28.5376250" lon="-16.2756080">
        <ele>819.9</ele>
        <time>2020-11-11T08:46:29Z</time>
      </trkpt>
      <trkpt lat="28.5376520" lon="-16.2756380">
        <ele>819.9</ele>
        <time>2020-11-11T08:46:30Z</time>
      </trkpt>
      <trkpt lat="28.5376520" lon="-16.2756380">
        <ele>819.9</ele>
        <time>2020-11-11T08:46:31Z</time>
      </trkpt>
      <trkpt lat="28.5376720" lon="-16.2757120">
        <ele>819.9</ele>
        <time>2020-11-11T08:46:32Z</time>
      </trkpt>
      <trkpt lat="28.5376720" lon="-16.2757120">
        <ele>819.9</ele>
        <time>2020-11-11T08:46:33Z</time>
      </trkpt>
      <trkpt lat="28.5376920" lon="-16.2757800">
        <ele>819.9</ele>
        <time>2020-11-11T08:46:34Z</time>
      </trkpt>
      <trkpt lat="28.5376900" lon="-16.2758170">
        <ele>818.9</ele>
        <time>2020-11-11T08:46:35Z</time>
      </trkpt>
      <trkpt lat="28.5376900" lon="-16.2758170">
        <ele>818.9</ele>
        <time>2020-11-11T08:46:36Z</time>
      </trkpt>
      <trkpt lat="28.5377000" lon="-16.2758920">
        <ele>818.9</ele>
        <time>2020-11-11T08:46:37Z</time>
      </trkpt>
      <trkpt lat="28.5377100" lon="-16.2759300">
        <ele>818.9</ele>
        <time>2020-11-11T08:46:38Z</time>
      </trkpt>
      <trkpt lat="28.5377100" lon="-16.2759300">
        <ele>818.9</ele>
        <time>2020-11-11T08:46:39Z</time>
      </trkpt>
      <trkpt lat="28.5377400" lon="-16.2759880">
        <ele>818.9</ele>
        <time>2020-11-11T08:46:40Z</time>
      </trkpt>
      <trkpt lat="28.5377450" lon="-16.2760170">
        <ele>817.9</ele>
        <time>2020-11-11T08:46:41Z</time>
      </trkpt>
      <trkpt lat="28.5377450" lon="-16.2760170">
        <ele>817.9</ele>
        <time>2020-11-11T08:46:42Z</time>
      </trkpt>
      <trkpt lat="28.5377680" lon="-16.2760800">
        <ele>817.9</ele>
        <time>2020-11-11T08:46:43Z</time>
      </trkpt>
      <trkpt lat="28.5377920" lon="-16.2761030">
        <ele>817.9</ele>
        <time>2020-11-11T08:46:44Z</time>
      </trkpt>
      <trkpt lat="28.5377920" lon="-16.2761030">
        <ele>817.9</ele>
        <time>2020-11-11T08:46:45Z</time>
      </trkpt>
      <trkpt lat="28.5378350" lon="-16.2761650">
        <ele>817.9</ele>
        <time>2020-11-11T08:46:46Z</time>
      </trkpt>
      <trkpt lat="28.5378350" lon="-16.2761650">
        <ele>817.9</ele>
        <time>2020-11-11T08:46:47Z</time>
      </trkpt>
      <trkpt lat="28.5378850" lon="-16.2762220">
        <ele>816.9</ele>
        <time>2020-11-11T08:46:48Z</time>
      </trkpt>
      <trkpt lat="28.5379070" lon="-16.2762520">
        <ele>816.9</ele>
        <time>2020-11-11T08:46:49Z</time>
      </trkpt>
      <trkpt lat="28.5379120" lon="-16.2762900">
        <ele>816.9</ele>
        <time>2020-11-11T08:46:50Z</time>
      </trkpt>
      <trkpt lat="28.5379120" lon="-16.2762900">
        <ele>816.9</ele>
        <time>2020-11-11T08:46:51Z</time>
      </trkpt>
      <trkpt lat="28.5379520" lon="-16.2763730">
        <ele>816.9</ele>
        <time>2020-11-11T08:46:52Z</time>
      </trkpt>
      <trkpt lat="28.5379620" lon="-16.2764230">
        <ele>816.9</ele>
        <time>2020-11-11T08:46:53Z</time>
      </trkpt>
      <trkpt lat="28.5379620" lon="-16.2764230">
        <ele>816.9</ele>
        <time>2020-11-11T08:46:54Z</time>
      </trkpt>
      <trkpt lat="28.5379920" lon="-16.2764400">
        <ele>816.9</ele>
        <time>2020-11-11T08:46:55Z</time>
      </trkpt>
      <trkpt lat="28.5379980" lon="-16.2764400">
        <ele>816.9</ele>
        <time>2020-11-11T08:46:56Z</time>
      </trkpt>
      <trkpt lat="28.5379980" lon="-16.2764400">
        <ele>816.9</ele>
        <time>2020-11-11T08:46:57Z</time>
      </trkpt>
      <trkpt lat="28.5380130" lon="-16.2764420">
        <ele>816.9</ele>
        <time>2020-11-11T08:46:58Z</time>
      </trkpt>
      <trkpt lat="28.5380130" lon="-16.2764420">
        <ele>816.9</ele>
        <time>2020-11-11T08:46:59Z</time>
      </trkpt>
      <trkpt lat="28.5380130" lon="-16.2764420">
        <ele>816.9</ele>
        <time>2020-11-11T08:47:00Z</time>
      </trkpt>
      <trkpt lat="28.5380130" lon="-16.2764420">
        <ele>816.9</ele>
        <time>2020-11-11T08:47:13Z</time>
      </trkpt>
      <trkpt lat="28.5380730" lon="-16.2765100">
        <ele>816.9</ele>
        <time>2020-11-11T08:47:14Z</time>
      </trkpt>
      <trkpt lat="28.5380730" lon="-16.2765100">
        <ele>816.9</ele>
        <time>2020-11-11T08:47:15Z</time>
      </trkpt>
      <trkpt lat="28.5380820" lon="-16.2765570">
        <ele>816.9</ele>
        <time>2020-11-11T08:47:16Z</time>
      </trkpt>
      <trkpt lat="28.5380850" lon="-16.2765870">
        <ele>816.9</ele>
        <time>2020-11-11T08:47:17Z</time>
      </trkpt>
      <trkpt lat="28.5380850" lon="-16.2765870">
        <ele>816.9</ele>
        <time>2020-11-11T08:47:18Z</time>
      </trkpt>
      <trkpt lat="28.5380930" lon="-16.2766480">
        <ele>815.9</ele>
        <time>2020-11-11T08:47:19Z</time>
      </trkpt>
      <trkpt lat="28.5381050" lon="-16.2766780">
        <ele>815.9</ele>
        <time>2020-11-11T08:47:20Z</time>
      </trkpt>
      <trkpt lat="28.5381050" lon="-16.2766780">
        <ele>815.9</ele>
        <time>2020-11-11T08:47:21Z</time>
      </trkpt>
      <trkpt lat="28.5381280" lon="-16.2767480">
        <ele>815.9</ele>
        <time>2020-11-11T08:47:22Z</time>
      </trkpt>
      <trkpt lat="28.5381280" lon="-16.2767480">
        <ele>815.9</ele>
        <time>2020-11-11T08:47:23Z</time>
      </trkpt>
      <trkpt lat="28.5381080" lon="-16.2768420">
        <ele>815.9</ele>
        <time>2020-11-11T08:47:24Z</time>
      </trkpt>
      <trkpt lat="28.5381070" lon="-16.2768770">
        <ele>815.9</ele>
        <time>2020-11-11T08:47:25Z</time>
      </trkpt>
      <trkpt lat="28.5381020" lon="-16.2769100">
        <ele>815.9</ele>
        <time>2020-11-11T08:47:26Z</time>
      </trkpt>
      <trkpt lat="28.5381020" lon="-16.2769100">
        <ele>815.9</ele>
        <time>2020-11-11T08:47:27Z</time>
      </trkpt>
      <trkpt lat="28.5380920" lon="-16.2769350">
        <ele>815.9</ele>
        <time>2020-11-11T08:47:28Z</time>
      </trkpt>
      <trkpt lat="28.5380920" lon="-16.2769350">
        <ele>815.9</ele>
        <time>2020-11-11T08:47:29Z</time>
      </trkpt>
      <trkpt lat="28.5380780" lon="-16.2769650">
        <ele>815.9</ele>
        <time>2020-11-11T08:47:30Z</time>
      </trkpt>
      <trkpt lat="28.5380780" lon="-16.2769650">
        <ele>815.9</ele>
        <time>2020-11-11T08:47:31Z</time>
      </trkpt>
      <trkpt lat="28.5380830" lon="-16.2770070">
        <ele>815.9</ele>
        <time>2020-11-11T08:47:32Z</time>
      </trkpt>
      <trkpt lat="28.5380830" lon="-16.2770070">
        <ele>815.9</ele>
        <time>2020-11-11T08:47:33Z</time>
      </trkpt>
      <trkpt lat="28.5380880" lon="-16.2770500">
        <ele>815.9</ele>
        <time>2020-11-11T08:47:34Z</time>
      </trkpt>
      <trkpt lat="28.5380880" lon="-16.2770500">
        <ele>815.9</ele>
        <time>2020-11-11T08:47:35Z</time>
      </trkpt>
      <trkpt lat="28.5381050" lon="-16.2770750">
        <ele>815.9</ele>
        <time>2020-11-11T08:47:36Z</time>
      </trkpt>
      <trkpt lat="28.5381230" lon="-16.2770850">
        <ele>815.9</ele>
        <time>2020-11-11T08:47:37Z</time>
      </trkpt>
      <trkpt lat="28.5381230" lon="-16.2770850">
        <ele>815.9</ele>
        <time>2020-11-11T08:47:38Z</time>
      </trkpt>
      <trkpt lat="28.5381530" lon="-16.2770970">
        <ele>815.9</ele>
        <time>2020-11-11T08:47:39Z</time>
      </trkpt>
      <trkpt lat="28.5381530" lon="-16.2770970">
        <ele>815.9</ele>
        <time>2020-11-11T08:47:40Z</time>
      </trkpt>
      <trkpt lat="28.5382120" lon="-16.2771020">
        <ele>815.9</ele>
        <time>2020-11-11T08:47:41Z</time>
      </trkpt>
      <trkpt lat="28.5382430" lon="-16.2771050">
        <ele>815.9</ele>
        <time>2020-11-11T08:47:42Z</time>
      </trkpt>
      <trkpt lat="28.5382430" lon="-16.2771050">
        <ele>815.9</ele>
        <time>2020-11-11T08:47:43Z</time>
      </trkpt>
      <trkpt lat="28.5383050" lon="-16.2771330">
        <ele>815.9</ele>
        <time>2020-11-11T08:47:44Z</time>
      </trkpt>
      <trkpt lat="28.5383430" lon="-16.2771550">
        <ele>815.9</ele>
        <time>2020-11-11T08:47:45Z</time>
      </trkpt>
      <trkpt lat="28.5383820" lon="-16.2771870">
        <ele>814.9</ele>
        <time>2020-11-11T08:47:46Z</time>
      </trkpt>
      <trkpt lat="28.5383820" lon="-16.2771870">
        <ele>814.9</ele>
        <time>2020-11-11T08:47:47Z</time>
      </trkpt>
      <trkpt lat="28.5384570" lon="-16.2772750">
        <ele>814.9</ele>
        <time>2020-11-11T08:47:48Z</time>
      </trkpt>
      <trkpt lat="28.5384570" lon="-16.2772750">
        <ele>814.9</ele>
        <time>2020-11-11T08:47:49Z</time>
      </trkpt>
      <trkpt lat="28.5385120" lon="-16.2773630">
        <ele>814.9</ele>
        <time>2020-11-11T08:47:50Z</time>
      </trkpt>
      <trkpt lat="28.5385120" lon="-16.2773630">
        <ele>814.9</ele>
        <time>2020-11-11T08:47:51Z</time>
      </trkpt>
      <trkpt lat="28.5385530" lon="-16.2774320">
        <ele>814.9</ele>
        <time>2020-11-11T08:47:52Z</time>
      </trkpt>
      <trkpt lat="28.5385530" lon="-16.2774320">
        <ele>814.9</ele>
        <time>2020-11-11T08:47:53Z</time>
      </trkpt>
      <trkpt lat="28.5386150" lon="-16.2775030">
        <ele>813.9</ele>
        <time>2020-11-11T08:47:54Z</time>
      </trkpt>
      <trkpt lat="28.5386350" lon="-16.2775430">
        <ele>813.9</ele>
        <time>2020-11-11T08:47:55Z</time>
      </trkpt>
      <trkpt lat="28.5386350" lon="-16.2775430">
        <ele>813.9</ele>
        <time>2020-11-11T08:47:56Z</time>
      </trkpt>
      <trkpt lat="28.5386430" lon="-16.2776270">
        <ele>813.9</ele>
        <time>2020-11-11T08:47:57Z</time>
      </trkpt>
      <trkpt lat="28.5386430" lon="-16.2776270">
        <ele>812.9</ele>
        <time>2020-11-11T08:47:58Z</time>
      </trkpt>
      <trkpt lat="28.5386250" lon="-16.2777080">
        <ele>812.9</ele>
        <time>2020-11-11T08:47:59Z</time>
      </trkpt>
      <trkpt lat="28.5386250" lon="-16.2777080">
        <ele>812.9</ele>
        <time>2020-11-11T08:48:00Z</time>
      </trkpt>
      <trkpt lat="28.5386250" lon="-16.2777830">
        <ele>812.9</ele>
        <time>2020-11-11T08:48:01Z</time>
      </trkpt>
      <trkpt lat="28.5386250" lon="-16.2777830">
        <ele>811.9</ele>
        <time>2020-11-11T08:48:02Z</time>
      </trkpt>
      <trkpt lat="28.5386630" lon="-16.2778480">
        <ele>811.9</ele>
        <time>2020-11-11T08:48:03Z</time>
      </trkpt>
      <trkpt lat="28.5386920" lon="-16.2778720">
        <ele>811.9</ele>
        <time>2020-11-11T08:48:04Z</time>
      </trkpt>
      <trkpt lat="28.5386920" lon="-16.2778720">
        <ele>811.9</ele>
        <time>2020-11-11T08:48:05Z</time>
      </trkpt>
      <trkpt lat="28.5387220" lon="-16.2779220">
        <ele>811.9</ele>
        <time>2020-11-11T08:48:06Z</time>
      </trkpt>
      <trkpt lat="28.5387220" lon="-16.2779220">
        <ele>810.9</ele>
        <time>2020-11-11T08:48:07Z</time>
      </trkpt>
      <trkpt lat="28.5387650" lon="-16.2779770">
        <ele>810.9</ele>
        <time>2020-11-11T08:48:08Z</time>
      </trkpt>
      <trkpt lat="28.5387650" lon="-16.2779770">
        <ele>810.9</ele>
        <time>2020-11-11T08:48:09Z</time>
      </trkpt>
      <trkpt lat="28.5388230" lon="-16.2780250">
        <ele>810.9</ele>
        <time>2020-11-11T08:48:10Z</time>
      </trkpt>
      <trkpt lat="28.5388500" lon="-16.2780430">
        <ele>809.9</ele>
        <time>2020-11-11T08:48:11Z</time>
      </trkpt>
      <trkpt lat="28.5388500" lon="-16.2780430">
        <ele>809.9</ele>
        <time>2020-11-11T08:48:12Z</time>
      </trkpt>
      <trkpt lat="28.5389070" lon="-16.2780830">
        <ele>809.9</ele>
        <time>2020-11-11T08:48:13Z</time>
      </trkpt>
      <trkpt lat="28.5389300" lon="-16.2781230">
        <ele>809.9</ele>
        <time>2020-11-11T08:48:14Z</time>
      </trkpt>
      <trkpt lat="28.5389300" lon="-16.2781230">
        <ele>809.9</ele>
        <time>2020-11-11T08:48:15Z</time>
      </trkpt>
      <trkpt lat="28.5389570" lon="-16.2782020">
        <ele>809.9</ele>
        <time>2020-11-11T08:48:16Z</time>
      </trkpt>
      <trkpt lat="28.5389500" lon="-16.2782380">
        <ele>808.9</ele>
        <time>2020-11-11T08:48:17Z</time>
      </trkpt>
      <trkpt lat="28.5389500" lon="-16.2782380">
        <ele>808.9</ele>
        <time>2020-11-11T08:48:18Z</time>
      </trkpt>
      <trkpt lat="28.5389230" lon="-16.2783200">
        <ele>808.9</ele>
        <time>2020-11-11T08:48:19Z</time>
      </trkpt>
      <trkpt lat="28.5389050" lon="-16.2783600">
        <ele>808.9</ele>
        <time>2020-11-11T08:48:20Z</time>
      </trkpt>
      <trkpt lat="28.5389050" lon="-16.2783600">
        <ele>808.9</ele>
        <time>2020-11-11T08:48:21Z</time>
      </trkpt>
      <trkpt lat="28.5389000" lon="-16.2784370">
        <ele>808.9</ele>
        <time>2020-11-11T08:48:22Z</time>
      </trkpt>
      <trkpt lat="28.5389000" lon="-16.2784370">
        <ele>808.9</ele>
        <time>2020-11-11T08:48:23Z</time>
      </trkpt>
      <trkpt lat="28.5388650" lon="-16.2784870">
        <ele>808.9</ele>
        <time>2020-11-11T08:48:24Z</time>
      </trkpt>
      <trkpt lat="28.5388650" lon="-16.2784870">
        <ele>808.9</ele>
        <time>2020-11-11T08:48:25Z</time>
      </trkpt>
      <trkpt lat="28.5388300" lon="-16.2785380">
        <ele>808.9</ele>
        <time>2020-11-11T08:48:26Z</time>
      </trkpt>
      <trkpt lat="28.5388300" lon="-16.2785380">
        <ele>808.9</ele>
        <time>2020-11-11T08:48:27Z</time>
      </trkpt>
      <trkpt lat="28.5387750" lon="-16.2785650">
        <ele>808.9</ele>
        <time>2020-11-11T08:48:28Z</time>
      </trkpt>
      <trkpt lat="28.5387750" lon="-16.2785650">
        <ele>808.9</ele>
        <time>2020-11-11T08:48:29Z</time>
      </trkpt>
      <trkpt lat="28.5387300" lon="-16.2785930">
        <ele>808.9</ele>
        <time>2020-11-11T08:48:30Z</time>
      </trkpt>
      <trkpt lat="28.5387300" lon="-16.2785930">
        <ele>808.9</ele>
        <time>2020-11-11T08:48:31Z</time>
      </trkpt>
      <trkpt lat="28.5386930" lon="-16.2786320">
        <ele>808.9</ele>
        <time>2020-11-11T08:48:32Z</time>
      </trkpt>
      <trkpt lat="28.5386930" lon="-16.2786320">
        <ele>808.9</ele>
        <time>2020-11-11T08:48:33Z</time>
      </trkpt>
      <trkpt lat="28.5386380" lon="-16.2786830">
        <ele>808.9</ele>
        <time>2020-11-11T08:48:34Z</time>
      </trkpt>
      <trkpt lat="28.5386380" lon="-16.2786830">
        <ele>808.9</ele>
        <time>2020-11-11T08:48:35Z</time>
      </trkpt>
      <trkpt lat="28.5385830" lon="-16.2787450">
        <ele>808.9</ele>
        <time>2020-11-11T08:48:36Z</time>
      </trkpt>
      <trkpt lat="28.5385830" lon="-16.2787450">
        <ele>808.9</ele>
        <time>2020-11-11T08:48:37Z</time>
      </trkpt>
      <trkpt lat="28.5385420" lon="-16.2787880">
        <ele>808.9</ele>
        <time>2020-11-11T08:48:38Z</time>
      </trkpt>
      <trkpt lat="28.5385420" lon="-16.2787880">
        <ele>808.9</ele>
        <time>2020-11-11T08:48:39Z</time>
      </trkpt>
      <trkpt lat="28.5384950" lon="-16.2788420">
        <ele>808.9</ele>
        <time>2020-11-11T08:48:40Z</time>
      </trkpt>
      <trkpt lat="28.5384950" lon="-16.2788420">
        <ele>808.9</ele>
        <time>2020-11-11T08:48:41Z</time>
      </trkpt>
      <trkpt lat="28.5384530" lon="-16.2788730">
        <ele>808.9</ele>
        <time>2020-11-11T08:48:42Z</time>
      </trkpt>
      <trkpt lat="28.5384300" lon="-16.2788770">
        <ele>808.9</ele>
        <time>2020-11-11T08:48:43Z</time>
      </trkpt>
      <trkpt lat="28.5384300" lon="-16.2788770">
        <ele>808.9</ele>
        <time>2020-11-11T08:48:44Z</time>
      </trkpt>
      <trkpt lat="28.5383820" lon="-16.2788780">
        <ele>808.9</ele>
        <time>2020-11-11T08:48:45Z</time>
      </trkpt>
      <trkpt lat="28.5383820" lon="-16.2788780">
        <ele>808.9</ele>
        <time>2020-11-11T08:48:46Z</time>
      </trkpt>
      <trkpt lat="28.5383420" lon="-16.2788950">
        <ele>808.9</ele>
        <time>2020-11-11T08:48:47Z</time>
      </trkpt>
      <trkpt lat="28.5383170" lon="-16.2789080">
        <ele>808.9</ele>
        <time>2020-11-11T08:48:48Z</time>
      </trkpt>
      <trkpt lat="28.5382980" lon="-16.2789230">
        <ele>808.9</ele>
        <time>2020-11-11T08:48:49Z</time>
      </trkpt>
      <trkpt lat="28.5382980" lon="-16.2789230">
        <ele>808.9</ele>
        <time>2020-11-11T08:48:50Z</time>
      </trkpt>
      <trkpt lat="28.5382550" lon="-16.2789900">
        <ele>808.9</ele>
        <time>2020-11-11T08:48:51Z</time>
      </trkpt>
      <trkpt lat="28.5382230" lon="-16.2790350">
        <ele>808.9</ele>
        <time>2020-11-11T08:48:52Z</time>
      </trkpt>
      <trkpt lat="28.5382230" lon="-16.2790350">
        <ele>808.9</ele>
        <time>2020-11-11T08:48:53Z</time>
      </trkpt>
      <trkpt lat="28.5381600" lon="-16.2791170">
        <ele>809.9</ele>
        <time>2020-11-11T08:48:54Z</time>
      </trkpt>
      <trkpt lat="28.5381220" lon="-16.2791600">
        <ele>809.9</ele>
        <time>2020-11-11T08:48:55Z</time>
      </trkpt>
      <trkpt lat="28.5380680" lon="-16.2792350">
        <ele>809.9</ele>
        <time>2020-11-11T08:48:56Z</time>
      </trkpt>
      <trkpt lat="28.5380680" lon="-16.2792350">
        <ele>809.9</ele>
        <time>2020-11-11T08:48:57Z</time>
      </trkpt>
      <trkpt lat="28.5380070" lon="-16.2792470">
        <ele>809.9</ele>
        <time>2020-11-11T08:48:58Z</time>
      </trkpt>
      <trkpt lat="28.5379630" lon="-16.2792700">
        <ele>809.9</ele>
        <time>2020-11-11T08:48:59Z</time>
      </trkpt>
      <trkpt lat="28.5379630" lon="-16.2792700">
        <ele>809.9</ele>
        <time>2020-11-11T08:49:00Z</time>
      </trkpt>
      <trkpt lat="28.5379250" lon="-16.2792680">
        <ele>809.9</ele>
        <time>2020-11-11T08:49:01Z</time>
      </trkpt>
      <trkpt lat="28.5379250" lon="-16.2792680">
        <ele>809.9</ele>
        <time>2020-11-11T08:49:02Z</time>
      </trkpt>
      <trkpt lat="28.5378920" lon="-16.2792450">
        <ele>809.9</ele>
        <time>2020-11-11T08:49:03Z</time>
      </trkpt>
      <trkpt lat="28.5378920" lon="-16.2792450">
        <ele>810.9</ele>
        <time>2020-11-11T08:49:04Z</time>
      </trkpt>
      <trkpt lat="28.5378650" lon="-16.2792070">
        <ele>810.9</ele>
        <time>2020-11-11T08:49:05Z</time>
      </trkpt>
      <trkpt lat="28.5378650" lon="-16.2792070">
        <ele>810.9</ele>
        <time>2020-11-11T08:49:06Z</time>
      </trkpt>
      <trkpt lat="28.5378270" lon="-16.2791870">
        <ele>810.9</ele>
        <time>2020-11-11T08:49:07Z</time>
      </trkpt>
      <trkpt lat="28.5378130" lon="-16.2791720">
        <ele>810.9</ele>
        <time>2020-11-11T08:49:08Z</time>
      </trkpt>
      <trkpt lat="28.5378130" lon="-16.2791720">
        <ele>810.9</ele>
        <time>2020-11-11T08:49:09Z</time>
      </trkpt>
      <trkpt lat="28.5377820" lon="-16.2791430">
        <ele>810.9</ele>
        <time>2020-11-11T08:49:10Z</time>
      </trkpt>
      <trkpt lat="28.5377820" lon="-16.2791430">
        <ele>810.9</ele>
        <time>2020-11-11T08:49:11Z</time>
      </trkpt>
      <trkpt lat="28.5377580" lon="-16.2791170">
        <ele>811.9</ele>
        <time>2020-11-11T08:49:12Z</time>
      </trkpt>
      <trkpt lat="28.5377580" lon="-16.2791170">
        <ele>811.9</ele>
        <time>2020-11-11T08:49:13Z</time>
      </trkpt>
      <trkpt lat="28.5377270" lon="-16.2790950">
        <ele>811.9</ele>
        <time>2020-11-11T08:49:14Z</time>
      </trkpt>
      <trkpt lat="28.5377270" lon="-16.2790950">
        <ele>811.9</ele>
        <time>2020-11-11T08:49:15Z</time>
      </trkpt>
      <trkpt lat="28.5377030" lon="-16.2790680">
        <ele>811.9</ele>
        <time>2020-11-11T08:49:16Z</time>
      </trkpt>
      <trkpt lat="28.5377000" lon="-16.2790480">
        <ele>811.9</ele>
        <time>2020-11-11T08:49:17Z</time>
      </trkpt>
      <trkpt lat="28.5377000" lon="-16.2790480">
        <ele>811.9</ele>
        <time>2020-11-11T08:49:18Z</time>
      </trkpt>
      <trkpt lat="28.5376920" lon="-16.2790080">
        <ele>811.9</ele>
        <time>2020-11-11T08:49:19Z</time>
      </trkpt>
      <trkpt lat="28.5376950" lon="-16.2789880">
        <ele>812.9</ele>
        <time>2020-11-11T08:49:20Z</time>
      </trkpt>
      <trkpt lat="28.5376950" lon="-16.2789880">
        <ele>812.9</ele>
        <time>2020-11-11T08:49:21Z</time>
      </trkpt>
      <trkpt lat="28.5376950" lon="-16.2789500">
        <ele>812.9</ele>
        <time>2020-11-11T08:49:22Z</time>
      </trkpt>
      <trkpt lat="28.5376950" lon="-16.2789500">
        <ele>812.9</ele>
        <time>2020-11-11T08:49:23Z</time>
      </trkpt>
      <trkpt lat="28.5376950" lon="-16.2789080">
        <ele>812.9</ele>
        <time>2020-11-11T08:49:24Z</time>
      </trkpt>
      <trkpt lat="28.5376950" lon="-16.2789080">
        <ele>812.9</ele>
        <time>2020-11-11T08:49:25Z</time>
      </trkpt>
      <trkpt lat="28.5376930" lon="-16.2788700">
        <ele>812.9</ele>
        <time>2020-11-11T08:49:26Z</time>
      </trkpt>
      <trkpt lat="28.5376930" lon="-16.2788700">
        <ele>812.9</ele>
        <time>2020-11-11T08:49:27Z</time>
      </trkpt>
      <trkpt lat="28.5377080" lon="-16.2788430">
        <ele>812.9</ele>
        <time>2020-11-11T08:49:28Z</time>
      </trkpt>
      <trkpt lat="28.5377080" lon="-16.2788430">
        <ele>812.9</ele>
        <time>2020-11-11T08:49:29Z</time>
      </trkpt>
      <trkpt lat="28.5377020" lon="-16.2787980">
        <ele>812.9</ele>
        <time>2020-11-11T08:49:30Z</time>
      </trkpt>
      <trkpt lat="28.5376980" lon="-16.2787780">
        <ele>812.9</ele>
        <time>2020-11-11T08:49:31Z</time>
      </trkpt>
      <trkpt lat="28.5376980" lon="-16.2787780">
        <ele>812.9</ele>
        <time>2020-11-11T08:49:32Z</time>
      </trkpt>
      <trkpt lat="28.5376820" lon="-16.2787300">
        <ele>814.9</ele>
        <time>2020-11-11T08:49:33Z</time>
      </trkpt>
      <trkpt lat="28.5376820" lon="-16.2787300">
        <ele>814.9</ele>
        <time>2020-11-11T08:49:34Z</time>
      </trkpt>
      <trkpt lat="28.5376680" lon="-16.2786930">
        <ele>814.9</ele>
        <time>2020-11-11T08:49:35Z</time>
      </trkpt>
      <trkpt lat="28.5376580" lon="-16.2786730">
        <ele>814.9</ele>
        <time>2020-11-11T08:49:36Z</time>
      </trkpt>
      <trkpt lat="28.5376450" lon="-16.2786570">
        <ele>814.9</ele>
        <time>2020-11-11T08:49:37Z</time>
      </trkpt>
      <trkpt lat="28.5376450" lon="-16.2786570">
        <ele>814.9</ele>
        <time>2020-11-11T08:49:38Z</time>
      </trkpt>
      <trkpt lat="28.5376180" lon="-16.2786130">
        <ele>814.9</ele>
        <time>2020-11-11T08:49:39Z</time>
      </trkpt>
      <trkpt lat="28.5376000" lon="-16.2785900">
        <ele>814.9</ele>
        <time>2020-11-11T08:49:40Z</time>
      </trkpt>
      <trkpt lat="28.5376000" lon="-16.2785900">
        <ele>815.9</ele>
        <time>2020-11-11T08:49:41Z</time>
      </trkpt>
      <trkpt lat="28.5375720" lon="-16.2785550">
        <ele>815.9</ele>
        <time>2020-11-11T08:49:42Z</time>
      </trkpt>
      <trkpt lat="28.5375720" lon="-16.2785550">
        <ele>815.9</ele>
        <time>2020-11-11T08:49:43Z</time>
      </trkpt>
      <trkpt lat="28.5375400" lon="-16.2785150">
        <ele>815.9</ele>
        <time>2020-11-11T08:49:44Z</time>
      </trkpt>
      <trkpt lat="28.5375400" lon="-16.2785150">
        <ele>815.9</ele>
        <time>2020-11-11T08:49:45Z</time>
      </trkpt>
      <trkpt lat="28.5375180" lon="-16.2784700">
        <ele>815.9</ele>
        <time>2020-11-11T08:49:46Z</time>
      </trkpt>
      <trkpt lat="28.5375180" lon="-16.2784700">
        <ele>815.9</ele>
        <time>2020-11-11T08:49:47Z</time>
      </trkpt>
      <trkpt lat="28.5374950" lon="-16.2784320">
        <ele>815.9</ele>
        <time>2020-11-11T08:49:48Z</time>
      </trkpt>
      <trkpt lat="28.5374950" lon="-16.2784320">
        <ele>815.9</ele>
        <time>2020-11-11T08:49:49Z</time>
      </trkpt>
      <trkpt lat="28.5374770" lon="-16.2784030">
        <ele>815.9</ele>
        <time>2020-11-11T08:49:50Z</time>
      </trkpt>
      <trkpt lat="28.5374730" lon="-16.2783850">
        <ele>815.9</ele>
        <time>2020-11-11T08:49:51Z</time>
      </trkpt>
      <trkpt lat="28.5374730" lon="-16.2783850">
        <ele>815.9</ele>
        <time>2020-11-11T08:49:52Z</time>
      </trkpt>
      <trkpt lat="28.5374730" lon="-16.2783520">
        <ele>815.9</ele>
        <time>2020-11-11T08:49:53Z</time>
      </trkpt>
      <trkpt lat="28.5374700" lon="-16.2783330">
        <ele>815.9</ele>
        <time>2020-11-11T08:49:54Z</time>
      </trkpt>
      <trkpt lat="28.5374700" lon="-16.2783330">
        <ele>815.9</ele>
        <time>2020-11-11T08:49:55Z</time>
      </trkpt>
      <trkpt lat="28.5374750" lon="-16.2782900">
        <ele>815.9</ele>
        <time>2020-11-11T08:49:56Z</time>
      </trkpt>
      <trkpt lat="28.5374750" lon="-16.2782900">
        <ele>816.9</ele>
        <time>2020-11-11T08:49:57Z</time>
      </trkpt>
      <trkpt lat="28.5374730" lon="-16.2782380">
        <ele>816.9</ele>
        <time>2020-11-11T08:49:58Z</time>
      </trkpt>
      <trkpt lat="28.5374730" lon="-16.2782380">
        <ele>816.9</ele>
        <time>2020-11-11T08:49:59Z</time>
      </trkpt>
      <trkpt lat="28.5374750" lon="-16.2781850">
        <ele>816.9</ele>
        <time>2020-11-11T08:50:00Z</time>
      </trkpt>
      <trkpt lat="28.5374750" lon="-16.2781850">
        <ele>816.9</ele>
        <time>2020-11-11T08:50:01Z</time>
      </trkpt>
      <trkpt lat="28.5374630" lon="-16.2781370">
        <ele>816.9</ele>
        <time>2020-11-11T08:50:02Z</time>
      </trkpt>
      <trkpt lat="28.5374600" lon="-16.2781170">
        <ele>817.9</ele>
        <time>2020-11-11T08:50:03Z</time>
      </trkpt>
      <trkpt lat="28.5374600" lon="-16.2781170">
        <ele>817.9</ele>
        <time>2020-11-11T08:50:04Z</time>
      </trkpt>
      <trkpt lat="28.5374520" lon="-16.2780780">
        <ele>817.9</ele>
        <time>2020-11-11T08:50:05Z</time>
      </trkpt>
      <trkpt lat="28.5374520" lon="-16.2780780">
        <ele>817.9</ele>
        <time>2020-11-11T08:50:06Z</time>
      </trkpt>
      <trkpt lat="28.5374480" lon="-16.2780370">
        <ele>817.9</ele>
        <time>2020-11-11T08:50:07Z</time>
      </trkpt>
      <trkpt lat="28.5374430" lon="-16.2780200">
        <ele>817.9</ele>
        <time>2020-11-11T08:50:08Z</time>
      </trkpt>
      <trkpt lat="28.5374430" lon="-16.2780200">
        <ele>817.9</ele>
        <time>2020-11-11T08:50:09Z</time>
      </trkpt>
      <trkpt lat="28.5374350" lon="-16.2779880">
        <ele>817.9</ele>
        <time>2020-11-11T08:50:10Z</time>
      </trkpt>
      <trkpt lat="28.5374350" lon="-16.2779880">
        <ele>817.9</ele>
        <time>2020-11-11T08:50:11Z</time>
      </trkpt>
      <trkpt lat="28.5374070" lon="-16.2779580">
        <ele>818.9</ele>
        <time>2020-11-11T08:50:12Z</time>
      </trkpt>
      <trkpt lat="28.5374070" lon="-16.2779580">
        <ele>818.9</ele>
        <time>2020-11-11T08:50:13Z</time>
      </trkpt>
      <trkpt lat="28.5373780" lon="-16.2779370">
        <ele>818.9</ele>
        <time>2020-11-11T08:50:14Z</time>
      </trkpt>
      <trkpt lat="28.5373780" lon="-16.2779370">
        <ele>818.9</ele>
        <time>2020-11-11T08:50:15Z</time>
      </trkpt>
      <trkpt lat="28.5373450" lon="-16.2779000">
        <ele>819.9</ele>
        <time>2020-11-11T08:50:16Z</time>
      </trkpt>
      <trkpt lat="28.5373280" lon="-16.2778820">
        <ele>819.9</ele>
        <time>2020-11-11T08:50:17Z</time>
      </trkpt>
      <trkpt lat="28.5373280" lon="-16.2778820">
        <ele>819.9</ele>
        <time>2020-11-11T08:50:18Z</time>
      </trkpt>
      <trkpt lat="28.5372950" lon="-16.2778450">
        <ele>819.9</ele>
        <time>2020-11-11T08:50:19Z</time>
      </trkpt>
      <trkpt lat="28.5372950" lon="-16.2778450">
        <ele>819.9</ele>
        <time>2020-11-11T08:50:20Z</time>
      </trkpt>
      <trkpt lat="28.5372670" lon="-16.2778150">
        <ele>819.9</ele>
        <time>2020-11-11T08:50:21Z</time>
      </trkpt>
      <trkpt lat="28.5372500" lon="-16.2778020">
        <ele>819.9</ele>
        <time>2020-11-11T08:50:22Z</time>
      </trkpt>
      <trkpt lat="28.5372500" lon="-16.2778020">
        <ele>819.9</ele>
        <time>2020-11-11T08:50:23Z</time>
      </trkpt>
      <trkpt lat="28.5372080" lon="-16.2777880">
        <ele>819.9</ele>
        <time>2020-11-11T08:50:24Z</time>
      </trkpt>
      <trkpt lat="28.5371900" lon="-16.2777800">
        <ele>819.9</ele>
        <time>2020-11-11T08:50:25Z</time>
      </trkpt>
      <trkpt lat="28.5371900" lon="-16.2777800">
        <ele>819.9</ele>
        <time>2020-11-11T08:50:26Z</time>
      </trkpt>
      <trkpt lat="28.5371430" lon="-16.2777680">
        <ele>819.9</ele>
        <time>2020-11-11T08:50:27Z</time>
      </trkpt>
      <trkpt lat="28.5371230" lon="-16.2777580">
        <ele>819.9</ele>
        <time>2020-11-11T08:50:28Z</time>
      </trkpt>
      <trkpt lat="28.5371230" lon="-16.2777580">
        <ele>819.9</ele>
        <time>2020-11-11T08:50:29Z</time>
      </trkpt>
      <trkpt lat="28.5370730" lon="-16.2777000">
        <ele>820.9</ele>
        <time>2020-11-11T08:50:30Z</time>
      </trkpt>
      <trkpt lat="28.5370730" lon="-16.2777000">
        <ele>820.9</ele>
        <time>2020-11-11T08:50:31Z</time>
      </trkpt>
      <trkpt lat="28.5370300" lon="-16.2776900">
        <ele>820.9</ele>
        <time>2020-11-11T08:50:32Z</time>
      </trkpt>
      <trkpt lat="28.5370130" lon="-16.2776830">
        <ele>820.9</ele>
        <time>2020-11-11T08:50:33Z</time>
      </trkpt>
      <trkpt lat="28.5370130" lon="-16.2776830">
        <ele>820.9</ele>
        <time>2020-11-11T08:50:34Z</time>
      </trkpt>
      <trkpt lat="28.5369850" lon="-16.2776650">
        <ele>820.9</ele>
        <time>2020-11-11T08:50:35Z</time>
      </trkpt>
      <trkpt lat="28.5369670" lon="-16.2776570">
        <ele>821.9</ele>
        <time>2020-11-11T08:50:36Z</time>
      </trkpt>
      <trkpt lat="28.5369670" lon="-16.2776570">
        <ele>821.9</ele>
        <time>2020-11-11T08:50:37Z</time>
      </trkpt>
      <trkpt lat="28.5369300" lon="-16.2776520">
        <ele>821.9</ele>
        <time>2020-11-11T08:50:38Z</time>
      </trkpt>
      <trkpt lat="28.5369100" lon="-16.2776520">
        <ele>821.9</ele>
        <time>2020-11-11T08:50:39Z</time>
      </trkpt>
      <trkpt lat="28.5369100" lon="-16.2776520">
        <ele>821.9</ele>
        <time>2020-11-11T08:50:40Z</time>
      </trkpt>
      <trkpt lat="28.5368720" lon="-16.2776480">
        <ele>821.9</ele>
        <time>2020-11-11T08:50:41Z</time>
      </trkpt>
      <trkpt lat="28.5368520" lon="-16.2776430">
        <ele>821.9</ele>
        <time>2020-11-11T08:50:42Z</time>
      </trkpt>
      <trkpt lat="28.5368520" lon="-16.2776430">
        <ele>821.9</ele>
        <time>2020-11-11T08:50:43Z</time>
      </trkpt>
      <trkpt lat="28.5368030" lon="-16.2776370">
        <ele>821.9</ele>
        <time>2020-11-11T08:50:44Z</time>
      </trkpt>
      <trkpt lat="28.5368030" lon="-16.2776370">
        <ele>822.9</ele>
        <time>2020-11-11T08:50:45Z</time>
      </trkpt>
      <trkpt lat="28.5367550" lon="-16.2776320">
        <ele>822.9</ele>
        <time>2020-11-11T08:50:46Z</time>
      </trkpt>
      <trkpt lat="28.5367550" lon="-16.2776320">
        <ele>822.9</ele>
        <time>2020-11-11T08:50:47Z</time>
      </trkpt>
      <trkpt lat="28.5367030" lon="-16.2776450">
        <ele>822.9</ele>
        <time>2020-11-11T08:50:48Z</time>
      </trkpt>
      <trkpt lat="28.5367030" lon="-16.2776450">
        <ele>822.9</ele>
        <time>2020-11-11T08:50:49Z</time>
      </trkpt>
      <trkpt lat="28.5366480" lon="-16.2776650">
        <ele>822.9</ele>
        <time>2020-11-11T08:50:50Z</time>
      </trkpt>
      <trkpt lat="28.5366480" lon="-16.2776650">
        <ele>822.9</ele>
        <time>2020-11-11T08:50:51Z</time>
      </trkpt>
      <trkpt lat="28.5365900" lon="-16.2776880">
        <ele>822.9</ele>
        <time>2020-11-11T08:50:52Z</time>
      </trkpt>
      <trkpt lat="28.5365670" lon="-16.2776900">
        <ele>822.9</ele>
        <time>2020-11-11T08:50:53Z</time>
      </trkpt>
      <trkpt lat="28.5365670" lon="-16.2776900">
        <ele>822.9</ele>
        <time>2020-11-11T08:50:54Z</time>
      </trkpt>
      <trkpt lat="28.5365270" lon="-16.2776950">
        <ele>822.9</ele>
        <time>2020-11-11T08:50:55Z</time>
      </trkpt>
      <trkpt lat="28.5365100" lon="-16.2776930">
        <ele>822.9</ele>
        <time>2020-11-11T08:50:56Z</time>
      </trkpt>
      <trkpt lat="28.5364870" lon="-16.2776950">
        <ele>822.9</ele>
        <time>2020-11-11T08:50:57Z</time>
      </trkpt>
      <trkpt lat="28.5364870" lon="-16.2776950">
        <ele>822.9</ele>
        <time>2020-11-11T08:50:58Z</time>
      </trkpt>
      <trkpt lat="28.5364430" lon="-16.2776930">
        <ele>822.9</ele>
        <time>2020-11-11T08:50:59Z</time>
      </trkpt>
      <trkpt lat="28.5364180" lon="-16.2776800">
        <ele>822.9</ele>
        <time>2020-11-11T08:51:00Z</time>
      </trkpt>
      <trkpt lat="28.5364180" lon="-16.2776800">
        <ele>822.9</ele>
        <time>2020-11-11T08:51:01Z</time>
      </trkpt>
      <trkpt lat="28.5363880" lon="-16.2776880">
        <ele>822.9</ele>
        <time>2020-11-11T08:51:02Z</time>
      </trkpt>
      <trkpt lat="28.5363880" lon="-16.2776880">
        <ele>822.9</ele>
        <time>2020-11-11T08:51:03Z</time>
      </trkpt>
      <trkpt lat="28.5363570" lon="-16.2776900">
        <ele>822.9</ele>
        <time>2020-11-11T08:51:04Z</time>
      </trkpt>
      <trkpt lat="28.5363400" lon="-16.2776970">
        <ele>822.9</ele>
        <time>2020-11-11T08:51:05Z</time>
      </trkpt>
      <trkpt lat="28.5363400" lon="-16.2776970">
        <ele>822.9</ele>
        <time>2020-11-11T08:51:06Z</time>
      </trkpt>
      <trkpt lat="28.5362930" lon="-16.2777470">
        <ele>822.9</ele>
        <time>2020-11-11T08:51:07Z</time>
      </trkpt>
      <trkpt lat="28.5362600" lon="-16.2777620">
        <ele>822.9</ele>
        <time>2020-11-11T08:51:08Z</time>
      </trkpt>
      <trkpt lat="28.5362600" lon="-16.2777620">
        <ele>822.9</ele>
        <time>2020-11-11T08:51:09Z</time>
      </trkpt>
      <trkpt lat="28.5362050" lon="-16.2777920">
        <ele>822.9</ele>
        <time>2020-11-11T08:51:10Z</time>
      </trkpt>
      <trkpt lat="28.5361850" lon="-16.2777930">
        <ele>822.9</ele>
        <time>2020-11-11T08:51:11Z</time>
      </trkpt>
      <trkpt lat="28.5361850" lon="-16.2777930">
        <ele>822.9</ele>
        <time>2020-11-11T08:51:12Z</time>
      </trkpt>
      <trkpt lat="28.5361350" lon="-16.2777850">
        <ele>824.9</ele>
        <time>2020-11-11T08:51:13Z</time>
      </trkpt>
      <trkpt lat="28.5361350" lon="-16.2777850">
        <ele>824.9</ele>
        <time>2020-11-11T08:51:14Z</time>
      </trkpt>
      <trkpt lat="28.5360880" lon="-16.2777750">
        <ele>824.9</ele>
        <time>2020-11-11T08:51:15Z</time>
      </trkpt>
      <trkpt lat="28.5360880" lon="-16.2777750">
        <ele>824.9</ele>
        <time>2020-11-11T08:51:16Z</time>
      </trkpt>
      <trkpt lat="28.5360550" lon="-16.2777680">
        <ele>824.9</ele>
        <time>2020-11-11T08:51:17Z</time>
      </trkpt>
      <trkpt lat="28.5360550" lon="-16.2777680">
        <ele>824.9</ele>
        <time>2020-11-11T08:51:18Z</time>
      </trkpt>
      <trkpt lat="28.5360200" lon="-16.2777530">
        <ele>824.9</ele>
        <time>2020-11-11T08:51:19Z</time>
      </trkpt>
      <trkpt lat="28.5360200" lon="-16.2777530">
        <ele>824.9</ele>
        <time>2020-11-11T08:51:20Z</time>
      </trkpt>
      <trkpt lat="28.5359850" lon="-16.2777400">
        <ele>824.9</ele>
        <time>2020-11-11T08:51:21Z</time>
      </trkpt>
      <trkpt lat="28.5359850" lon="-16.2777400">
        <ele>824.9</ele>
        <time>2020-11-11T08:51:22Z</time>
      </trkpt>
      <trkpt lat="28.5359400" lon="-16.2777180">
        <ele>824.9</ele>
        <time>2020-11-11T08:51:23Z</time>
      </trkpt>
      <trkpt lat="28.5359400" lon="-16.2777180">
        <ele>824.9</ele>
        <time>2020-11-11T08:51:24Z</time>
      </trkpt>
      <trkpt lat="28.5359020" lon="-16.2776980">
        <ele>824.9</ele>
        <time>2020-11-11T08:51:25Z</time>
      </trkpt>
      <trkpt lat="28.5358820" lon="-16.2776880">
        <ele>825.9</ele>
        <time>2020-11-11T08:51:26Z</time>
      </trkpt>
      <trkpt lat="28.5358820" lon="-16.2776880">
        <ele>825.9</ele>
        <time>2020-11-11T08:51:27Z</time>
      </trkpt>
      <trkpt lat="28.5358380" lon="-16.2776780">
        <ele>825.9</ele>
        <time>2020-11-11T08:51:28Z</time>
      </trkpt>
      <trkpt lat="28.5358150" lon="-16.2776730">
        <ele>825.9</ele>
        <time>2020-11-11T08:51:29Z</time>
      </trkpt>
      <trkpt lat="28.5358150" lon="-16.2776730">
        <ele>825.9</ele>
        <time>2020-11-11T08:51:30Z</time>
      </trkpt>
      <trkpt lat="28.5357600" lon="-16.2776400">
        <ele>825.9</ele>
        <time>2020-11-11T08:51:31Z</time>
      </trkpt>
      <trkpt lat="28.5357280" lon="-16.2776330">
        <ele>826.9</ele>
        <time>2020-11-11T08:51:32Z</time>
      </trkpt>
      <trkpt lat="28.5357280" lon="-16.2776330">
        <ele>826.9</ele>
        <time>2020-11-11T08:51:33Z</time>
      </trkpt>
      <trkpt lat="28.5356770" lon="-16.2776230">
        <ele>826.9</ele>
        <time>2020-11-11T08:51:34Z</time>
      </trkpt>
      <trkpt lat="28.5356770" lon="-16.2776230">
        <ele>826.9</ele>
        <time>2020-11-11T08:51:35Z</time>
      </trkpt>
      <trkpt lat="28.5356330" lon="-16.2776350">
        <ele>826.9</ele>
        <time>2020-11-11T08:51:36Z</time>
      </trkpt>
      <trkpt lat="28.5356330" lon="-16.2776350">
        <ele>826.9</ele>
        <time>2020-11-11T08:51:37Z</time>
      </trkpt>
      <trkpt lat="28.5355950" lon="-16.2776430">
        <ele>826.9</ele>
        <time>2020-11-11T08:51:38Z</time>
      </trkpt>
      <trkpt lat="28.5355950" lon="-16.2776430">
        <ele>826.9</ele>
        <time>2020-11-11T08:51:39Z</time>
      </trkpt>
      <trkpt lat="28.5355630" lon="-16.2776380">
        <ele>826.9</ele>
        <time>2020-11-11T08:51:40Z</time>
      </trkpt>
      <trkpt lat="28.5355630" lon="-16.2776380">
        <ele>826.9</ele>
        <time>2020-11-11T08:51:41Z</time>
      </trkpt>
      <trkpt lat="28.5355270" lon="-16.2776520">
        <ele>827.9</ele>
        <time>2020-11-11T08:51:42Z</time>
      </trkpt>
      <trkpt lat="28.5355270" lon="-16.2776520">
        <ele>827.9</ele>
        <time>2020-11-11T08:51:43Z</time>
      </trkpt>
      <trkpt lat="28.5354950" lon="-16.2776770">
        <ele>827.9</ele>
        <time>2020-11-11T08:51:44Z</time>
      </trkpt>
      <trkpt lat="28.5354950" lon="-16.2776770">
        <ele>827.9</ele>
        <time>2020-11-11T08:51:45Z</time>
      </trkpt>
      <trkpt lat="28.5354530" lon="-16.2777170">
        <ele>827.9</ele>
        <time>2020-11-11T08:51:46Z</time>
      </trkpt>
      <trkpt lat="28.5354370" lon="-16.2777270">
        <ele>827.9</ele>
        <time>2020-11-11T08:51:47Z</time>
      </trkpt>
      <trkpt lat="28.5354370" lon="-16.2777270">
        <ele>828.9</ele>
        <time>2020-11-11T08:51:48Z</time>
      </trkpt>
      <trkpt lat="28.5353980" lon="-16.2777320">
        <ele>828.9</ele>
        <time>2020-11-11T08:51:49Z</time>
      </trkpt>
      <trkpt lat="28.5353780" lon="-16.2777230">
        <ele>828.9</ele>
        <time>2020-11-11T08:51:50Z</time>
      </trkpt>
      <trkpt lat="28.5353780" lon="-16.2777230">
        <ele>828.9</ele>
        <time>2020-11-11T08:51:51Z</time>
      </trkpt>
      <trkpt lat="28.5353200" lon="-16.2777330">
        <ele>828.9</ele>
        <time>2020-11-11T08:51:52Z</time>
      </trkpt>
      <trkpt lat="28.5352950" lon="-16.2777430">
        <ele>828.9</ele>
        <time>2020-11-11T08:51:53Z</time>
      </trkpt>
      <trkpt lat="28.5352950" lon="-16.2777430">
        <ele>828.9</ele>
        <time>2020-11-11T08:51:54Z</time>
      </trkpt>
      <trkpt lat="28.5352780" lon="-16.2777520">
        <ele>828.9</ele>
        <time>2020-11-11T08:51:55Z</time>
      </trkpt>
      <trkpt lat="28.5352780" lon="-16.2777520">
        <ele>828.9</ele>
        <time>2020-11-11T08:51:56Z</time>
      </trkpt>
      <trkpt lat="28.5352550" lon="-16.2777400">
        <ele>828.9</ele>
        <time>2020-11-11T08:51:57Z</time>
      </trkpt>
      <trkpt lat="28.5352550" lon="-16.2777400">
        <ele>828.9</ele>
        <time>2020-11-11T08:51:58Z</time>
      </trkpt>
      <trkpt lat="28.5352350" lon="-16.2777470">
        <ele>828.9</ele>
        <time>2020-11-11T08:51:59Z</time>
      </trkpt>
      <trkpt lat="28.5352350" lon="-16.2777470">
        <ele>828.9</ele>
        <time>2020-11-11T08:52:00Z</time>
      </trkpt>
      <trkpt lat="28.5352130" lon="-16.2777730">
        <ele>828.9</ele>
        <time>2020-11-11T08:52:01Z</time>
      </trkpt>
      <trkpt lat="28.5352130" lon="-16.2777730">
        <ele>829.9</ele>
        <time>2020-11-11T08:52:02Z</time>
      </trkpt>
      <trkpt lat="28.5351750" lon="-16.2778200">
        <ele>829.9</ele>
        <time>2020-11-11T08:52:03Z</time>
      </trkpt>
      <trkpt lat="28.5351270" lon="-16.2778530">
        <ele>829.9</ele>
        <time>2020-11-11T08:52:04Z</time>
      </trkpt>
      <trkpt lat="28.5351270" lon="-16.2778530">
        <ele>829.9</ele>
        <time>2020-11-11T08:52:05Z</time>
      </trkpt>
      <trkpt lat="28.5350600" lon="-16.2778880">
        <ele>829.9</ele>
        <time>2020-11-11T08:52:06Z</time>
      </trkpt>
      <trkpt lat="28.5350600" lon="-16.2778880">
        <ele>829.9</ele>
        <time>2020-11-11T08:52:07Z</time>
      </trkpt>
      <trkpt lat="28.5350180" lon="-16.2779100">
        <ele>830.9</ele>
        <time>2020-11-11T08:52:08Z</time>
      </trkpt>
      <trkpt lat="28.5350180" lon="-16.2779100">
        <ele>830.9</ele>
        <time>2020-11-11T08:52:09Z</time>
      </trkpt>
      <trkpt lat="28.5349830" lon="-16.2779320">
        <ele>830.9</ele>
        <time>2020-11-11T08:52:10Z</time>
      </trkpt>
      <trkpt lat="28.5349720" lon="-16.2779420">
        <ele>830.9</ele>
        <time>2020-11-11T08:52:11Z</time>
      </trkpt>
      <trkpt lat="28.5349600" lon="-16.2779430">
        <ele>830.9</ele>
        <time>2020-11-11T08:52:12Z</time>
      </trkpt>
      <trkpt lat="28.5349600" lon="-16.2779430">
        <ele>830.9</ele>
        <time>2020-11-11T08:52:13Z</time>
      </trkpt>
      <trkpt lat="28.5349400" lon="-16.2779570">
        <ele>830.9</ele>
        <time>2020-11-11T08:52:14Z</time>
      </trkpt>
      <trkpt lat="28.5349270" lon="-16.2779600">
        <ele>830.9</ele>
        <time>2020-11-11T08:52:15Z</time>
      </trkpt>
      <trkpt lat="28.5349270" lon="-16.2779600">
        <ele>830.9</ele>
        <time>2020-11-11T08:52:16Z</time>
      </trkpt>
      <trkpt lat="28.5349000" lon="-16.2779680">
        <ele>830.9</ele>
        <time>2020-11-11T08:52:17Z</time>
      </trkpt>
      <trkpt lat="28.5348800" lon="-16.2779780">
        <ele>831.9</ele>
        <time>2020-11-11T08:52:18Z</time>
      </trkpt>
      <trkpt lat="28.5348800" lon="-16.2779780">
        <ele>831.9</ele>
        <time>2020-11-11T08:52:19Z</time>
      </trkpt>
      <trkpt lat="28.5348550" lon="-16.2779920">
        <ele>831.9</ele>
        <time>2020-11-11T08:52:20Z</time>
      </trkpt>
      <trkpt lat="28.5348550" lon="-16.2779920">
        <ele>831.9</ele>
        <time>2020-11-11T08:52:21Z</time>
      </trkpt>
      <trkpt lat="28.5348430" lon="-16.2780050">
        <ele>831.9</ele>
        <time>2020-11-11T08:52:22Z</time>
      </trkpt>
      <trkpt lat="28.5348430" lon="-16.2780050">
        <ele>831.9</ele>
        <time>2020-11-11T08:52:23Z</time>
      </trkpt>
      <trkpt lat="28.5348270" lon="-16.2780300">
        <ele>831.9</ele>
        <time>2020-11-11T08:52:24Z</time>
      </trkpt>
      <trkpt lat="28.5348270" lon="-16.2780300">
        <ele>831.9</ele>
        <time>2020-11-11T08:52:25Z</time>
      </trkpt>
      <trkpt lat="28.5348130" lon="-16.2780480">
        <ele>832.9</ele>
        <time>2020-11-11T08:52:26Z</time>
      </trkpt>
      <trkpt lat="28.5348130" lon="-16.2780480">
        <ele>832.9</ele>
        <time>2020-11-11T08:52:27Z</time>
      </trkpt>
      <trkpt lat="28.5347870" lon="-16.2780800">
        <ele>832.9</ele>
        <time>2020-11-11T08:52:28Z</time>
      </trkpt>
      <trkpt lat="28.5347870" lon="-16.2780800">
        <ele>832.9</ele>
        <time>2020-11-11T08:52:29Z</time>
      </trkpt>
      <trkpt lat="28.5347630" lon="-16.2781180">
        <ele>832.9</ele>
        <time>2020-11-11T08:52:30Z</time>
      </trkpt>
      <trkpt lat="28.5347500" lon="-16.2781370">
        <ele>832.9</ele>
        <time>2020-11-11T08:52:31Z</time>
      </trkpt>
      <trkpt lat="28.5347500" lon="-16.2781370">
        <ele>832.9</ele>
        <time>2020-11-11T08:52:32Z</time>
      </trkpt>
      <trkpt lat="28.5347030" lon="-16.2781930">
        <ele>832.9</ele>
        <time>2020-11-11T08:52:33Z</time>
      </trkpt>
      <trkpt lat="28.5346880" lon="-16.2782180">
        <ele>833.9</ele>
        <time>2020-11-11T08:52:34Z</time>
      </trkpt>
      <trkpt lat="28.5346880" lon="-16.2782180">
        <ele>833.9</ele>
        <time>2020-11-11T08:52:35Z</time>
      </trkpt>
      <trkpt lat="28.5346180" lon="-16.2782850">
        <ele>833.9</ele>
        <time>2020-11-11T08:52:36Z</time>
      </trkpt>
      <trkpt lat="28.5346180" lon="-16.2782850">
        <ele>833.9</ele>
        <time>2020-11-11T08:52:37Z</time>
      </trkpt>
      <trkpt lat="28.5345680" lon="-16.2783380">
        <ele>833.9</ele>
        <time>2020-11-11T08:52:38Z</time>
      </trkpt>
      <trkpt lat="28.5345680" lon="-16.2783380">
        <ele>833.9</ele>
        <time>2020-11-11T08:52:39Z</time>
      </trkpt>
      <trkpt lat="28.5345230" lon="-16.2783720">
        <ele>833.9</ele>
        <time>2020-11-11T08:52:40Z</time>
      </trkpt>
      <trkpt lat="28.5345230" lon="-16.2783720">
        <ele>833.9</ele>
        <time>2020-11-11T08:52:41Z</time>
      </trkpt>
      <trkpt lat="28.5344850" lon="-16.2783820">
        <ele>833.9</ele>
        <time>2020-11-11T08:52:42Z</time>
      </trkpt>
      <trkpt lat="28.5344850" lon="-16.2783820">
        <ele>834.9</ele>
        <time>2020-11-11T08:52:43Z</time>
      </trkpt>
      <trkpt lat="28.5344480" lon="-16.2783880">
        <ele>834.9</ele>
        <time>2020-11-11T08:52:44Z</time>
      </trkpt>
      <trkpt lat="28.5344480" lon="-16.2783880">
        <ele>834.9</ele>
        <time>2020-11-11T08:52:45Z</time>
      </trkpt>
      <trkpt lat="28.5344220" lon="-16.2783920">
        <ele>834.9</ele>
        <time>2020-11-11T08:52:46Z</time>
      </trkpt>
      <trkpt lat="28.5344130" lon="-16.2783950">
        <ele>834.9</ele>
        <time>2020-11-11T08:52:47Z</time>
      </trkpt>
      <trkpt lat="28.5344130" lon="-16.2783950">
        <ele>834.9</ele>
        <time>2020-11-11T08:52:48Z</time>
      </trkpt>
      <trkpt lat="28.5343970" lon="-16.2784050">
        <ele>834.9</ele>
        <time>2020-11-11T08:52:49Z</time>
      </trkpt>
      <trkpt lat="28.5343870" lon="-16.2784150">
        <ele>834.9</ele>
        <time>2020-11-11T08:52:50Z</time>
      </trkpt>
      <trkpt lat="28.5343700" lon="-16.2784230">
        <ele>834.9</ele>
        <time>2020-11-11T08:52:51Z</time>
      </trkpt>
      <trkpt lat="28.5343700" lon="-16.2784230">
        <ele>834.9</ele>
        <time>2020-11-11T08:52:52Z</time>
      </trkpt>
      <trkpt lat="28.5343400" lon="-16.2784470">
        <ele>834.9</ele>
        <time>2020-11-11T08:52:53Z</time>
      </trkpt>
      <trkpt lat="28.5343350" lon="-16.2784670">
        <ele>834.9</ele>
        <time>2020-11-11T08:52:54Z</time>
      </trkpt>
      <trkpt lat="28.5343350" lon="-16.2784670">
        <ele>834.9</ele>
        <time>2020-11-11T08:52:55Z</time>
      </trkpt>
      <trkpt lat="28.5343130" lon="-16.2785130">
        <ele>834.9</ele>
        <time>2020-11-11T08:52:56Z</time>
      </trkpt>
      <trkpt lat="28.5343080" lon="-16.2785330">
        <ele>834.9</ele>
        <time>2020-11-11T08:52:57Z</time>
      </trkpt>
      <trkpt lat="28.5343080" lon="-16.2785330">
        <ele>834.9</ele>
        <time>2020-11-11T08:52:58Z</time>
      </trkpt>
      <trkpt lat="28.5343170" lon="-16.2785820">
        <ele>834.9</ele>
        <time>2020-11-11T08:52:59Z</time>
      </trkpt>
      <trkpt lat="28.5343170" lon="-16.2785820">
        <ele>834.9</ele>
        <time>2020-11-11T08:53:00Z</time>
      </trkpt>
      <trkpt lat="28.5343170" lon="-16.2786530">
        <ele>835.9</ele>
        <time>2020-11-11T08:53:01Z</time>
      </trkpt>
      <trkpt lat="28.5343170" lon="-16.2786530">
        <ele>835.9</ele>
        <time>2020-11-11T08:53:02Z</time>
      </trkpt>
      <trkpt lat="28.5343150" lon="-16.2787330">
        <ele>835.9</ele>
        <time>2020-11-11T08:53:03Z</time>
      </trkpt>
      <trkpt lat="28.5343150" lon="-16.2787330">
        <ele>835.9</ele>
        <time>2020-11-11T08:53:04Z</time>
      </trkpt>
      <trkpt lat="28.5343220" lon="-16.2788030">
        <ele>835.9</ele>
        <time>2020-11-11T08:53:05Z</time>
      </trkpt>
      <trkpt lat="28.5343220" lon="-16.2788030">
        <ele>835.9</ele>
        <time>2020-11-11T08:53:06Z</time>
      </trkpt>
      <trkpt lat="28.5343450" lon="-16.2788920">
        <ele>835.9</ele>
        <time>2020-11-11T08:53:07Z</time>
      </trkpt>
      <trkpt lat="28.5343450" lon="-16.2789280">
        <ele>835.9</ele>
        <time>2020-11-11T08:53:08Z</time>
      </trkpt>
      <trkpt lat="28.5343450" lon="-16.2789280">
        <ele>835.9</ele>
        <time>2020-11-11T08:53:09Z</time>
      </trkpt>
      <trkpt lat="28.5343670" lon="-16.2789930">
        <ele>835.9</ele>
        <time>2020-11-11T08:53:10Z</time>
      </trkpt>
      <trkpt lat="28.5343670" lon="-16.2789930">
        <ele>835.9</ele>
        <time>2020-11-11T08:53:11Z</time>
      </trkpt>
      <trkpt lat="28.5343920" lon="-16.2790550">
        <ele>835.9</ele>
        <time>2020-11-11T08:53:12Z</time>
      </trkpt>
      <trkpt lat="28.5344000" lon="-16.2790850">
        <ele>835.9</ele>
        <time>2020-11-11T08:53:13Z</time>
      </trkpt>
      <trkpt lat="28.5344000" lon="-16.2790850">
        <ele>835.9</ele>
        <time>2020-11-11T08:53:14Z</time>
      </trkpt>
      <trkpt lat="28.5344150" lon="-16.2791470">
        <ele>835.9</ele>
        <time>2020-11-11T08:53:15Z</time>
      </trkpt>
      <trkpt lat="28.5344150" lon="-16.2791470">
        <ele>835.9</ele>
        <time>2020-11-11T08:53:16Z</time>
      </trkpt>
      <trkpt lat="28.5344250" lon="-16.2792130">
        <ele>835.9</ele>
        <time>2020-11-11T08:53:17Z</time>
      </trkpt>
      <trkpt lat="28.5344250" lon="-16.2792130">
        <ele>835.9</ele>
        <time>2020-11-11T08:53:18Z</time>
      </trkpt>
      <trkpt lat="28.5344080" lon="-16.2793000">
        <ele>835.9</ele>
        <time>2020-11-11T08:53:19Z</time>
      </trkpt>
      <trkpt lat="28.5344020" lon="-16.2793350">
        <ele>835.9</ele>
        <time>2020-11-11T08:53:20Z</time>
      </trkpt>
      <trkpt lat="28.5344020" lon="-16.2793350">
        <ele>835.9</ele>
        <time>2020-11-11T08:53:21Z</time>
      </trkpt>
      <trkpt lat="28.5343520" lon="-16.2793930">
        <ele>836.9</ele>
        <time>2020-11-11T08:53:22Z</time>
      </trkpt>
      <trkpt lat="28.5343280" lon="-16.2794200">
        <ele>836.9</ele>
        <time>2020-11-11T08:53:23Z</time>
      </trkpt>
      <trkpt lat="28.5343070" lon="-16.2794420">
        <ele>836.9</ele>
        <time>2020-11-11T08:53:24Z</time>
      </trkpt>
      <trkpt lat="28.5342720" lon="-16.2794630">
        <ele>836.9</ele>
        <time>2020-11-11T08:53:25Z</time>
      </trkpt>
      <trkpt lat="28.5342370" lon="-16.2794900">
        <ele>836.9</ele>
        <time>2020-11-11T08:53:26Z</time>
      </trkpt>
      <trkpt lat="28.5342370" lon="-16.2794900">
        <ele>836.9</ele>
        <time>2020-11-11T08:53:27Z</time>
      </trkpt>
      <trkpt lat="28.5341770" lon="-16.2795450">
        <ele>836.9</ele>
        <time>2020-11-11T08:53:28Z</time>
      </trkpt>
      <trkpt lat="28.5341470" lon="-16.2795750">
        <ele>836.9</ele>
        <time>2020-11-11T08:53:29Z</time>
      </trkpt>
      <trkpt lat="28.5341470" lon="-16.2795750">
        <ele>836.9</ele>
        <time>2020-11-11T08:53:30Z</time>
      </trkpt>
      <trkpt lat="28.5340980" lon="-16.2796250">
        <ele>836.9</ele>
        <time>2020-11-11T08:53:31Z</time>
      </trkpt>
      <trkpt lat="28.5340870" lon="-16.2796530">
        <ele>836.9</ele>
        <time>2020-11-11T08:53:32Z</time>
      </trkpt>
      <trkpt lat="28.5340870" lon="-16.2796530">
        <ele>836.9</ele>
        <time>2020-11-11T08:53:33Z</time>
      </trkpt>
      <trkpt lat="28.5340600" lon="-16.2796970">
        <ele>836.9</ele>
        <time>2020-11-11T08:53:34Z</time>
      </trkpt>
      <trkpt lat="28.5340600" lon="-16.2796970">
        <ele>836.9</ele>
        <time>2020-11-11T08:53:35Z</time>
      </trkpt>
      <trkpt lat="28.5340150" lon="-16.2797450">
        <ele>835.9</ele>
        <time>2020-11-11T08:53:36Z</time>
      </trkpt>
      <trkpt lat="28.5340070" lon="-16.2797570">
        <ele>835.9</ele>
        <time>2020-11-11T08:53:37Z</time>
      </trkpt>
      <trkpt lat="28.5340070" lon="-16.2797570">
        <ele>835.9</ele>
        <time>2020-11-11T08:53:38Z</time>
      </trkpt>
      <trkpt lat="28.5339400" lon="-16.2798170">
        <ele>835.9</ele>
        <time>2020-11-11T08:53:39Z</time>
      </trkpt>
      <trkpt lat="28.5339100" lon="-16.2798530">
        <ele>835.9</ele>
        <time>2020-11-11T08:53:40Z</time>
      </trkpt>
      <trkpt lat="28.5339100" lon="-16.2798530">
        <ele>835.9</ele>
        <time>2020-11-11T08:53:41Z</time>
      </trkpt>
      <trkpt lat="28.5338630" lon="-16.2799180">
        <ele>835.9</ele>
        <time>2020-11-11T08:53:42Z</time>
      </trkpt>
      <trkpt lat="28.5338630" lon="-16.2799180">
        <ele>835.9</ele>
        <time>2020-11-11T08:53:43Z</time>
      </trkpt>
      <trkpt lat="28.5338230" lon="-16.2799800">
        <ele>834.9</ele>
        <time>2020-11-11T08:53:44Z</time>
      </trkpt>
      <trkpt lat="28.5338230" lon="-16.2799800">
        <ele>834.9</ele>
        <time>2020-11-11T08:53:45Z</time>
      </trkpt>
      <trkpt lat="28.5337930" lon="-16.2800370">
        <ele>834.9</ele>
        <time>2020-11-11T08:53:46Z</time>
      </trkpt>
      <trkpt lat="28.5337700" lon="-16.2800670">
        <ele>834.9</ele>
        <time>2020-11-11T08:53:47Z</time>
      </trkpt>
      <trkpt lat="28.5337700" lon="-16.2800670">
        <ele>834.9</ele>
        <time>2020-11-11T08:53:48Z</time>
      </trkpt>
      <trkpt lat="28.5337150" lon="-16.2801320">
        <ele>834.9</ele>
        <time>2020-11-11T08:53:49Z</time>
      </trkpt>
      <trkpt lat="28.5337150" lon="-16.2801320">
        <ele>833.9</ele>
        <time>2020-11-11T08:53:50Z</time>
      </trkpt>
      <trkpt lat="28.5336670" lon="-16.2801920">
        <ele>833.9</ele>
        <time>2020-11-11T08:53:51Z</time>
      </trkpt>
      <trkpt lat="28.5336670" lon="-16.2801920">
        <ele>833.9</ele>
        <time>2020-11-11T08:53:52Z</time>
      </trkpt>
      <trkpt lat="28.5336250" lon="-16.2802450">
        <ele>833.9</ele>
        <time>2020-11-11T08:53:53Z</time>
      </trkpt>
      <trkpt lat="28.5336250" lon="-16.2802450">
        <ele>833.9</ele>
        <time>2020-11-11T08:53:54Z</time>
      </trkpt>
      <trkpt lat="28.5335920" lon="-16.2802950">
        <ele>833.9</ele>
        <time>2020-11-11T08:53:55Z</time>
      </trkpt>
      <trkpt lat="28.5335800" lon="-16.2803180">
        <ele>832.9</ele>
        <time>2020-11-11T08:53:56Z</time>
      </trkpt>
      <trkpt lat="28.5335800" lon="-16.2803180">
        <ele>832.9</ele>
        <time>2020-11-11T08:53:57Z</time>
      </trkpt>
      <trkpt lat="28.5335820" lon="-16.2803430">
        <ele>832.9</ele>
        <time>2020-11-11T08:53:58Z</time>
      </trkpt>
      <trkpt lat="28.5335820" lon="-16.2803430">
        <ele>832.9</ele>
        <time>2020-11-11T08:53:59Z</time>
      </trkpt>
      <trkpt lat="28.5335700" lon="-16.2803680">
        <ele>832.9</ele>
        <time>2020-11-11T08:54:00Z</time>
      </trkpt>
      <trkpt lat="28.5335650" lon="-16.2803820">
        <ele>831.9</ele>
        <time>2020-11-11T08:54:01Z</time>
      </trkpt>
      <trkpt lat="28.5335650" lon="-16.2803820">
        <ele>831.9</ele>
        <time>2020-11-11T08:54:02Z</time>
      </trkpt>
      <trkpt lat="28.5335500" lon="-16.2804120">
        <ele>831.9</ele>
        <time>2020-11-11T08:54:03Z</time>
      </trkpt>
      <trkpt lat="28.5335500" lon="-16.2804120">
        <ele>831.9</ele>
        <time>2020-11-11T08:54:04Z</time>
      </trkpt>
      <trkpt lat="28.5335430" lon="-16.2804530">
        <ele>831.9</ele>
        <time>2020-11-11T08:54:05Z</time>
      </trkpt>
      <trkpt lat="28.5335380" lon="-16.2804830">
        <ele>831.9</ele>
        <time>2020-11-11T08:54:06Z</time>
      </trkpt>
      <trkpt lat="28.5335380" lon="-16.2804830">
        <ele>831.9</ele>
        <time>2020-11-11T08:54:07Z</time>
      </trkpt>
      <trkpt lat="28.5335550" lon="-16.2805600">
        <ele>831.9</ele>
        <time>2020-11-11T08:54:08Z</time>
      </trkpt>
      <trkpt lat="28.5335550" lon="-16.2805600">
        <ele>831.9</ele>
        <time>2020-11-11T08:54:09Z</time>
      </trkpt>
      <trkpt lat="28.5335500" lon="-16.2806380">
        <ele>831.9</ele>
        <time>2020-11-11T08:54:10Z</time>
      </trkpt>
      <trkpt lat="28.5335500" lon="-16.2806380">
        <ele>831.9</ele>
        <time>2020-11-11T08:54:11Z</time>
      </trkpt>
      <trkpt lat="28.5335020" lon="-16.2807080">
        <ele>831.9</ele>
        <time>2020-11-11T08:54:12Z</time>
      </trkpt>
      <trkpt lat="28.5335020" lon="-16.2807080">
        <ele>830.9</ele>
        <time>2020-11-11T08:54:13Z</time>
      </trkpt>
      <trkpt lat="28.5334420" lon="-16.2807820">
        <ele>830.9</ele>
        <time>2020-11-11T08:54:14Z</time>
      </trkpt>
      <trkpt lat="28.5334130" lon="-16.2808200">
        <ele>830.9</ele>
        <time>2020-11-11T08:54:15Z</time>
      </trkpt>
      <trkpt lat="28.5334130" lon="-16.2808200">
        <ele>830.9</ele>
        <time>2020-11-11T08:54:16Z</time>
      </trkpt>
      <trkpt lat="28.5333530" lon="-16.2808920">
        <ele>830.9</ele>
        <time>2020-11-11T08:54:17Z</time>
      </trkpt>
      <trkpt lat="28.5333530" lon="-16.2808920">
        <ele>830.9</ele>
        <time>2020-11-11T08:54:18Z</time>
      </trkpt>
      <trkpt lat="28.5333270" lon="-16.2809500">
        <ele>830.9</ele>
        <time>2020-11-11T08:54:19Z</time>
      </trkpt>
      <trkpt lat="28.5333030" lon="-16.2809780">
        <ele>830.9</ele>
        <time>2020-11-11T08:54:20Z</time>
      </trkpt>
      <trkpt lat="28.5333030" lon="-16.2809780">
        <ele>830.9</ele>
        <time>2020-11-11T08:54:21Z</time>
      </trkpt>
      <trkpt lat="28.5332830" lon="-16.2810420">
        <ele>830.9</ele>
        <time>2020-11-11T08:54:22Z</time>
      </trkpt>
      <trkpt lat="28.5332800" lon="-16.2810770">
        <ele>829.9</ele>
        <time>2020-11-11T08:54:23Z</time>
      </trkpt>
      <trkpt lat="28.5332950" lon="-16.2811130">
        <ele>829.9</ele>
        <time>2020-11-11T08:54:24Z</time>
      </trkpt>
      <trkpt lat="28.5332950" lon="-16.2811130">
        <ele>829.9</ele>
        <time>2020-11-11T08:54:25Z</time>
      </trkpt>
      <trkpt lat="28.5333270" lon="-16.2811820">
        <ele>829.9</ele>
        <time>2020-11-11T08:54:26Z</time>
      </trkpt>
      <trkpt lat="28.5333270" lon="-16.2811820">
        <ele>829.9</ele>
        <time>2020-11-11T08:54:27Z</time>
      </trkpt>
      <trkpt lat="28.5333180" lon="-16.2812820">
        <ele>829.9</ele>
        <time>2020-11-11T08:54:28Z</time>
      </trkpt>
      <trkpt lat="28.5333150" lon="-16.2813380">
        <ele>828.9</ele>
        <time>2020-11-11T08:54:29Z</time>
      </trkpt>
      <trkpt lat="28.5333150" lon="-16.2813380">
        <ele>828.9</ele>
        <time>2020-11-11T08:54:30Z</time>
      </trkpt>
      <trkpt lat="28.5333530" lon="-16.2814630">
        <ele>828.9</ele>
        <time>2020-11-11T08:54:31Z</time>
      </trkpt>
      <trkpt lat="28.5333770" lon="-16.2815270">
        <ele>828.9</ele>
        <time>2020-11-11T08:54:32Z</time>
      </trkpt>
      <trkpt lat="28.5333770" lon="-16.2815270">
        <ele>828.9</ele>
        <time>2020-11-11T08:54:33Z</time>
      </trkpt>
      <trkpt lat="28.5334100" lon="-16.2816730">
        <ele>828.9</ele>
        <time>2020-11-11T08:54:34Z</time>
      </trkpt>
      <trkpt lat="28.5334430" lon="-16.2817350">
        <ele>828.9</ele>
        <time>2020-11-11T08:54:35Z</time>
      </trkpt>
      <trkpt lat="28.5334430" lon="-16.2817350">
        <ele>828.9</ele>
        <time>2020-11-11T08:54:36Z</time>
      </trkpt>
      <trkpt lat="28.5334880" lon="-16.2818430">
        <ele>828.9</ele>
        <time>2020-11-11T08:54:37Z</time>
      </trkpt>
      <trkpt lat="28.5334980" lon="-16.2818920">
        <ele>828.9</ele>
        <time>2020-11-11T08:54:38Z</time>
      </trkpt>
      <trkpt lat="28.5334980" lon="-16.2818920">
        <ele>828.9</ele>
        <time>2020-11-11T08:54:39Z</time>
      </trkpt>
      <trkpt lat="28.5335580" lon="-16.2819850">
        <ele>828.9</ele>
        <time>2020-11-11T08:54:40Z</time>
      </trkpt>
      <trkpt lat="28.5335800" lon="-16.2820320">
        <ele>828.9</ele>
        <time>2020-11-11T08:54:41Z</time>
      </trkpt>
      <trkpt lat="28.5335800" lon="-16.2820320">
        <ele>827.9</ele>
        <time>2020-11-11T08:54:42Z</time>
      </trkpt>
      <trkpt lat="28.5336080" lon="-16.2821030">
        <ele>827.9</ele>
        <time>2020-11-11T08:54:43Z</time>
      </trkpt>
      <trkpt lat="28.5336250" lon="-16.2821330">
        <ele>827.9</ele>
        <time>2020-11-11T08:54:44Z</time>
      </trkpt>
      <trkpt lat="28.5336250" lon="-16.2821330">
        <ele>827.9</ele>
        <time>2020-11-11T08:54:45Z</time>
      </trkpt>
      <trkpt lat="28.5336600" lon="-16.2822080">
        <ele>827.9</ele>
        <time>2020-11-11T08:54:46Z</time>
      </trkpt>
      <trkpt lat="28.5336600" lon="-16.2822080">
        <ele>827.9</ele>
        <time>2020-11-11T08:54:47Z</time>
      </trkpt>
      <trkpt lat="28.5337080" lon="-16.2822670">
        <ele>827.9</ele>
        <time>2020-11-11T08:54:48Z</time>
      </trkpt>
      <trkpt lat="28.5337080" lon="-16.2822670">
        <ele>827.9</ele>
        <time>2020-11-11T08:54:49Z</time>
      </trkpt>
      <trkpt lat="28.5337480" lon="-16.2823150">
        <ele>827.9</ele>
        <time>2020-11-11T08:54:50Z</time>
      </trkpt>
      <trkpt lat="28.5337480" lon="-16.2823150">
        <ele>827.9</ele>
        <time>2020-11-11T08:54:51Z</time>
      </trkpt>
      <trkpt lat="28.5338180" lon="-16.2823720">
        <ele>827.9</ele>
        <time>2020-11-11T08:54:52Z</time>
      </trkpt>
      <trkpt lat="28.5338430" lon="-16.2824020">
        <ele>827.9</ele>
        <time>2020-11-11T08:54:53Z</time>
      </trkpt>
      <trkpt lat="28.5338430" lon="-16.2824020">
        <ele>827.9</ele>
        <time>2020-11-11T08:54:54Z</time>
      </trkpt>
      <trkpt lat="28.5338930" lon="-16.2824480">
        <ele>827.9</ele>
        <time>2020-11-11T08:54:55Z</time>
      </trkpt>
      <trkpt lat="28.5338930" lon="-16.2824480">
        <ele>827.9</ele>
        <time>2020-11-11T08:54:56Z</time>
      </trkpt>
      <trkpt lat="28.5339620" lon="-16.2824900">
        <ele>827.9</ele>
        <time>2020-11-11T08:54:57Z</time>
      </trkpt>
      <trkpt lat="28.5339620" lon="-16.2824900">
        <ele>828.9</ele>
        <time>2020-11-11T08:54:58Z</time>
      </trkpt>
      <trkpt lat="28.5340520" lon="-16.2825350">
        <ele>828.9</ele>
        <time>2020-11-11T08:54:59Z</time>
      </trkpt>
      <trkpt lat="28.5340850" lon="-16.2825670">
        <ele>828.9</ele>
        <time>2020-11-11T08:55:00Z</time>
      </trkpt>
      <trkpt lat="28.5340850" lon="-16.2825670">
        <ele>828.9</ele>
        <time>2020-11-11T08:55:01Z</time>
      </trkpt>
      <trkpt lat="28.5341320" lon="-16.2826580">
        <ele>828.9</ele>
        <time>2020-11-11T08:55:02Z</time>
      </trkpt>
      <trkpt lat="28.5341320" lon="-16.2826580">
        <ele>828.9</ele>
        <time>2020-11-11T08:55:03Z</time>
      </trkpt>
      <trkpt lat="28.5342170" lon="-16.2827530">
        <ele>828.9</ele>
        <time>2020-11-11T08:55:04Z</time>
      </trkpt>
      <trkpt lat="28.5342550" lon="-16.2828030">
        <ele>828.9</ele>
        <time>2020-11-11T08:55:05Z</time>
      </trkpt>
      <trkpt lat="28.5342550" lon="-16.2828030">
        <ele>828.9</ele>
        <time>2020-11-11T08:55:06Z</time>
      </trkpt>
      <trkpt lat="28.5343120" lon="-16.2828730">
        <ele>828.9</ele>
        <time>2020-11-11T08:55:07Z</time>
      </trkpt>
      <trkpt lat="28.5343120" lon="-16.2828730">
        <ele>828.9</ele>
        <time>2020-11-11T08:55:08Z</time>
      </trkpt>
      <trkpt lat="28.5343570" lon="-16.2829450">
        <ele>828.9</ele>
        <time>2020-11-11T08:55:09Z</time>
      </trkpt>
      <trkpt lat="28.5343570" lon="-16.2829450">
        <ele>828.9</ele>
        <time>2020-11-11T08:55:10Z</time>
      </trkpt>
      <trkpt lat="28.5343970" lon="-16.2830180">
        <ele>828.9</ele>
        <time>2020-11-11T08:55:11Z</time>
      </trkpt>
      <trkpt lat="28.5343970" lon="-16.2830180">
        <ele>828.9</ele>
        <time>2020-11-11T08:55:12Z</time>
      </trkpt>
      <trkpt lat="28.5344320" lon="-16.2830970">
        <ele>828.9</ele>
        <time>2020-11-11T08:55:13Z</time>
      </trkpt>
      <trkpt lat="28.5344320" lon="-16.2830970">
        <ele>828.9</ele>
        <time>2020-11-11T08:55:14Z</time>
      </trkpt>
      <trkpt lat="28.5344500" lon="-16.2831780">
        <ele>829.9</ele>
        <time>2020-11-11T08:55:15Z</time>
      </trkpt>
      <trkpt lat="28.5344630" lon="-16.2832180">
        <ele>829.9</ele>
        <time>2020-11-11T08:55:16Z</time>
      </trkpt>
      <trkpt lat="28.5344630" lon="-16.2832180">
        <ele>829.9</ele>
        <time>2020-11-11T08:55:17Z</time>
      </trkpt>
      <trkpt lat="28.5344950" lon="-16.2832880">
        <ele>829.9</ele>
        <time>2020-11-11T08:55:18Z</time>
      </trkpt>
      <trkpt lat="28.5344950" lon="-16.2832880">
        <ele>829.9</ele>
        <time>2020-11-11T08:55:19Z</time>
      </trkpt>
      <trkpt lat="28.5345280" lon="-16.2833670">
        <ele>829.9</ele>
        <time>2020-11-11T08:55:20Z</time>
      </trkpt>
      <trkpt lat="28.5345280" lon="-16.2833670">
        <ele>829.9</ele>
        <time>2020-11-11T08:55:21Z</time>
      </trkpt>
      <trkpt lat="28.5345550" lon="-16.2834450">
        <ele>829.9</ele>
        <time>2020-11-11T08:55:22Z</time>
      </trkpt>
      <trkpt lat="28.5345730" lon="-16.2834850">
        <ele>829.9</ele>
        <time>2020-11-11T08:55:23Z</time>
      </trkpt>
      <trkpt lat="28.5345730" lon="-16.2834850">
        <ele>829.9</ele>
        <time>2020-11-11T08:55:24Z</time>
      </trkpt>
      <trkpt lat="28.5345870" lon="-16.2835670">
        <ele>829.9</ele>
        <time>2020-11-11T08:55:25Z</time>
      </trkpt>
      <trkpt lat="28.5345870" lon="-16.2835670">
        <ele>829.9</ele>
        <time>2020-11-11T08:55:26Z</time>
      </trkpt>
      <trkpt lat="28.5345970" lon="-16.2836450">
        <ele>829.9</ele>
        <time>2020-11-11T08:55:27Z</time>
      </trkpt>
      <trkpt lat="28.5345970" lon="-16.2836450">
        <ele>829.9</ele>
        <time>2020-11-11T08:55:28Z</time>
      </trkpt>
      <trkpt lat="28.5346150" lon="-16.2837270">
        <ele>829.9</ele>
        <time>2020-11-11T08:55:29Z</time>
      </trkpt>
      <trkpt lat="28.5346150" lon="-16.2837270">
        <ele>830.9</ele>
        <time>2020-11-11T08:55:30Z</time>
      </trkpt>
      <trkpt lat="28.5346080" lon="-16.2837980">
        <ele>830.9</ele>
        <time>2020-11-11T08:55:31Z</time>
      </trkpt>
      <trkpt lat="28.5345950" lon="-16.2838300">
        <ele>830.9</ele>
        <time>2020-11-11T08:55:32Z</time>
      </trkpt>
      <trkpt lat="28.5345950" lon="-16.2838300">
        <ele>830.9</ele>
        <time>2020-11-11T08:55:33Z</time>
      </trkpt>
      <trkpt lat="28.5345780" lon="-16.2838930">
        <ele>830.9</ele>
        <time>2020-11-11T08:55:34Z</time>
      </trkpt>
      <trkpt lat="28.5345780" lon="-16.2838930">
        <ele>830.9</ele>
        <time>2020-11-11T08:55:35Z</time>
      </trkpt>
      <trkpt lat="28.5345580" lon="-16.2839500">
        <ele>830.9</ele>
        <time>2020-11-11T08:55:36Z</time>
      </trkpt>
      <trkpt lat="28.5345580" lon="-16.2839500">
        <ele>830.9</ele>
        <time>2020-11-11T08:55:37Z</time>
      </trkpt>
      <trkpt lat="28.5345830" lon="-16.2840120">
        <ele>830.9</ele>
        <time>2020-11-11T08:55:38Z</time>
      </trkpt>
      <trkpt lat="28.5345830" lon="-16.2840120">
        <ele>830.9</ele>
        <time>2020-11-11T08:55:39Z</time>
      </trkpt>
      <trkpt lat="28.5346170" lon="-16.2840850">
        <ele>830.9</ele>
        <time>2020-11-11T08:55:40Z</time>
      </trkpt>
      <trkpt lat="28.5346350" lon="-16.2841200">
        <ele>831.9</ele>
        <time>2020-11-11T08:55:41Z</time>
      </trkpt>
      <trkpt lat="28.5346350" lon="-16.2841200">
        <ele>831.9</ele>
        <time>2020-11-11T08:55:42Z</time>
      </trkpt>
      <trkpt lat="28.5346520" lon="-16.2841870">
        <ele>831.9</ele>
        <time>2020-11-11T08:55:43Z</time>
      </trkpt>
      <trkpt lat="28.5346520" lon="-16.2841870">
        <ele>831.9</ele>
        <time>2020-11-11T08:55:44Z</time>
      </trkpt>
      <trkpt lat="28.5346720" lon="-16.2842570">
        <ele>831.9</ele>
        <time>2020-11-11T08:55:45Z</time>
      </trkpt>
      <trkpt lat="28.5346720" lon="-16.2842570">
        <ele>831.9</ele>
        <time>2020-11-11T08:55:46Z</time>
      </trkpt>
      <trkpt lat="28.5347100" lon="-16.2843330">
        <ele>831.9</ele>
        <time>2020-11-11T08:55:47Z</time>
      </trkpt>
      <trkpt lat="28.5347230" lon="-16.2843700">
        <ele>831.9</ele>
        <time>2020-11-11T08:55:48Z</time>
      </trkpt>
      <trkpt lat="28.5347230" lon="-16.2843700">
        <ele>831.9</ele>
        <time>2020-11-11T08:55:49Z</time>
      </trkpt>
      <trkpt lat="28.5347380" lon="-16.2844380">
        <ele>831.9</ele>
        <time>2020-11-11T08:55:50Z</time>
      </trkpt>
      <trkpt lat="28.5347380" lon="-16.2844380">
        <ele>831.9</ele>
        <time>2020-11-11T08:55:51Z</time>
      </trkpt>
      <trkpt lat="28.5347630" lon="-16.2845080">
        <ele>831.9</ele>
        <time>2020-11-11T08:55:52Z</time>
      </trkpt>
      <trkpt lat="28.5347630" lon="-16.2845080">
        <ele>831.9</ele>
        <time>2020-11-11T08:55:53Z</time>
      </trkpt>
      <trkpt lat="28.5347830" lon="-16.2845670">
        <ele>831.9</ele>
        <time>2020-11-11T08:55:54Z</time>
      </trkpt>
      <trkpt lat="28.5347830" lon="-16.2845670">
        <ele>831.9</ele>
        <time>2020-11-11T08:55:55Z</time>
      </trkpt>
      <trkpt lat="28.5348050" lon="-16.2846250">
        <ele>831.9</ele>
        <time>2020-11-11T08:55:56Z</time>
      </trkpt>
      <trkpt lat="28.5348050" lon="-16.2846250">
        <ele>831.9</ele>
        <time>2020-11-11T08:55:57Z</time>
      </trkpt>
      <trkpt lat="28.5348250" lon="-16.2846770">
        <ele>831.9</ele>
        <time>2020-11-11T08:55:58Z</time>
      </trkpt>
      <trkpt lat="28.5348250" lon="-16.2846770">
        <ele>831.9</ele>
        <time>2020-11-11T08:55:59Z</time>
      </trkpt>
      <trkpt lat="28.5348570" lon="-16.2847320">
        <ele>831.9</ele>
        <time>2020-11-11T08:56:00Z</time>
      </trkpt>
      <trkpt lat="28.5348570" lon="-16.2847320">
        <ele>831.9</ele>
        <time>2020-11-11T08:56:01Z</time>
      </trkpt>
      <trkpt lat="28.5348800" lon="-16.2847930">
        <ele>831.9</ele>
        <time>2020-11-11T08:56:02Z</time>
      </trkpt>
      <trkpt lat="28.5348800" lon="-16.2847930">
        <ele>831.9</ele>
        <time>2020-11-11T08:56:03Z</time>
      </trkpt>
      <trkpt lat="28.5349200" lon="-16.2848500">
        <ele>831.9</ele>
        <time>2020-11-11T08:56:04Z</time>
      </trkpt>
      <trkpt lat="28.5349200" lon="-16.2848500">
        <ele>831.9</ele>
        <time>2020-11-11T08:56:05Z</time>
      </trkpt>
      <trkpt lat="28.5349950" lon="-16.2849320">
        <ele>831.9</ele>
        <time>2020-11-11T08:56:06Z</time>
      </trkpt>
      <trkpt lat="28.5349950" lon="-16.2849320">
        <ele>831.9</ele>
        <time>2020-11-11T08:56:07Z</time>
      </trkpt>
      <trkpt lat="28.5350280" lon="-16.2850130">
        <ele>831.9</ele>
        <time>2020-11-11T08:56:08Z</time>
      </trkpt>
      <trkpt lat="28.5350280" lon="-16.2850130">
        <ele>831.9</ele>
        <time>2020-11-11T08:56:09Z</time>
      </trkpt>
      <trkpt lat="28.5350680" lon="-16.2851020">
        <ele>831.9</ele>
        <time>2020-11-11T08:56:10Z</time>
      </trkpt>
      <trkpt lat="28.5350680" lon="-16.2851020">
        <ele>831.9</ele>
        <time>2020-11-11T08:56:11Z</time>
      </trkpt>
      <trkpt lat="28.5351050" lon="-16.2851800">
        <ele>831.9</ele>
        <time>2020-11-11T08:56:12Z</time>
      </trkpt>
      <trkpt lat="28.5351200" lon="-16.2852180">
        <ele>831.9</ele>
        <time>2020-11-11T08:56:13Z</time>
      </trkpt>
      <trkpt lat="28.5351200" lon="-16.2852180">
        <ele>831.9</ele>
        <time>2020-11-11T08:56:14Z</time>
      </trkpt>
      <trkpt lat="28.5351530" lon="-16.2852970">
        <ele>831.9</ele>
        <time>2020-11-11T08:56:15Z</time>
      </trkpt>
      <trkpt lat="28.5351530" lon="-16.2852970">
        <ele>831.9</ele>
        <time>2020-11-11T08:56:16Z</time>
      </trkpt>
      <trkpt lat="28.5352100" lon="-16.2853700">
        <ele>831.9</ele>
        <time>2020-11-11T08:56:17Z</time>
      </trkpt>
      <trkpt lat="28.5352100" lon="-16.2853700">
        <ele>831.9</ele>
        <time>2020-11-11T08:56:18Z</time>
      </trkpt>
      <trkpt lat="28.5352570" lon="-16.2854450">
        <ele>831.9</ele>
        <time>2020-11-11T08:56:19Z</time>
      </trkpt>
      <trkpt lat="28.5352800" lon="-16.2854820">
        <ele>831.9</ele>
        <time>2020-11-11T08:56:20Z</time>
      </trkpt>
      <trkpt lat="28.5352800" lon="-16.2854820">
        <ele>831.9</ele>
        <time>2020-11-11T08:56:21Z</time>
      </trkpt>
      <trkpt lat="28.5353350" lon="-16.2855630">
        <ele>831.9</ele>
        <time>2020-11-11T08:56:22Z</time>
      </trkpt>
      <trkpt lat="28.5353350" lon="-16.2855630">
        <ele>831.9</ele>
        <time>2020-11-11T08:56:23Z</time>
      </trkpt>
      <trkpt lat="28.5353880" lon="-16.2856550">
        <ele>831.9</ele>
        <time>2020-11-11T08:56:24Z</time>
      </trkpt>
      <trkpt lat="28.5353880" lon="-16.2856550">
        <ele>831.9</ele>
        <time>2020-11-11T08:56:25Z</time>
      </trkpt>
      <trkpt lat="28.5354420" lon="-16.2857430">
        <ele>831.9</ele>
        <time>2020-11-11T08:56:26Z</time>
      </trkpt>
      <trkpt lat="28.5354670" lon="-16.2857930">
        <ele>830.9</ele>
        <time>2020-11-11T08:56:27Z</time>
      </trkpt>
      <trkpt lat="28.5354670" lon="-16.2857930">
        <ele>830.9</ele>
        <time>2020-11-11T08:56:28Z</time>
      </trkpt>
      <trkpt lat="28.5355100" lon="-16.2859050">
        <ele>830.9</ele>
        <time>2020-11-11T08:56:29Z</time>
      </trkpt>
      <trkpt lat="28.5355100" lon="-16.2859050">
        <ele>830.9</ele>
        <time>2020-11-11T08:56:30Z</time>
      </trkpt>
      <trkpt lat="28.5355520" lon="-16.2859970">
        <ele>830.9</ele>
        <time>2020-11-11T08:56:31Z</time>
      </trkpt>
      <trkpt lat="28.5355520" lon="-16.2859970">
        <ele>830.9</ele>
        <time>2020-11-11T08:56:32Z</time>
      </trkpt>
      <trkpt lat="28.5356000" lon="-16.2860770">
        <ele>828.9</ele>
        <time>2020-11-11T08:56:33Z</time>
      </trkpt>
      <trkpt lat="28.5356000" lon="-16.2860770">
        <ele>828.9</ele>
        <time>2020-11-11T08:56:34Z</time>
      </trkpt>
      <trkpt lat="28.5356250" lon="-16.2861450">
        <ele>828.9</ele>
        <time>2020-11-11T08:56:35Z</time>
      </trkpt>
      <trkpt lat="28.5356380" lon="-16.2861720">
        <ele>828.9</ele>
        <time>2020-11-11T08:56:36Z</time>
      </trkpt>
      <trkpt lat="28.5356430" lon="-16.2862080">
        <ele>828.9</ele>
        <time>2020-11-11T08:56:37Z</time>
      </trkpt>
      <trkpt lat="28.5356430" lon="-16.2862080">
        <ele>828.9</ele>
        <time>2020-11-11T08:56:38Z</time>
      </trkpt>
      <trkpt lat="28.5356250" lon="-16.2862720">
        <ele>828.9</ele>
        <time>2020-11-11T08:56:39Z</time>
      </trkpt>
      <trkpt lat="28.5356250" lon="-16.2862720">
        <ele>828.9</ele>
        <time>2020-11-11T08:56:40Z</time>
      </trkpt>
      <trkpt lat="28.5355730" lon="-16.2862970">
        <ele>828.9</ele>
        <time>2020-11-11T08:56:41Z</time>
      </trkpt>
      <trkpt lat="28.5355730" lon="-16.2862970">
        <ele>826.9</ele>
        <time>2020-11-11T08:56:42Z</time>
      </trkpt>
      <trkpt lat="28.5355100" lon="-16.2863050">
        <ele>826.9</ele>
        <time>2020-11-11T08:56:43Z</time>
      </trkpt>
      <trkpt lat="28.5354800" lon="-16.2863100">
        <ele>826.9</ele>
        <time>2020-11-11T08:56:44Z</time>
      </trkpt>
      <trkpt lat="28.5354800" lon="-16.2863100">
        <ele>826.9</ele>
        <time>2020-11-11T08:56:45Z</time>
      </trkpt>
      <trkpt lat="28.5354220" lon="-16.2863170">
        <ele>826.9</ele>
        <time>2020-11-11T08:56:46Z</time>
      </trkpt>
      <trkpt lat="28.5354220" lon="-16.2863170">
        <ele>826.9</ele>
        <time>2020-11-11T08:56:47Z</time>
      </trkpt>
      <trkpt lat="28.5353370" lon="-16.2863170">
        <ele>826.9</ele>
        <time>2020-11-11T08:56:48Z</time>
      </trkpt>
      <trkpt lat="28.5352900" lon="-16.2863120">
        <ele>826.9</ele>
        <time>2020-11-11T08:56:49Z</time>
      </trkpt>
      <trkpt lat="28.5352470" lon="-16.2863020">
        <ele>825.9</ele>
        <time>2020-11-11T08:56:50Z</time>
      </trkpt>
      <trkpt lat="28.5352470" lon="-16.2863020">
        <ele>825.9</ele>
        <time>2020-11-11T08:56:51Z</time>
      </trkpt>
      <trkpt lat="28.5351570" lon="-16.2862700">
        <ele>825.9</ele>
        <time>2020-11-11T08:56:52Z</time>
      </trkpt>
      <trkpt lat="28.5351570" lon="-16.2862700">
        <ele>825.9</ele>
        <time>2020-11-11T08:56:53Z</time>
      </trkpt>
      <trkpt lat="28.5350650" lon="-16.2862350">
        <ele>824.9</ele>
        <time>2020-11-11T08:56:54Z</time>
      </trkpt>
      <trkpt lat="28.5350650" lon="-16.2862350">
        <ele>824.9</ele>
        <time>2020-11-11T08:56:55Z</time>
      </trkpt>
      <trkpt lat="28.5349830" lon="-16.2861900">
        <ele>823.9</ele>
        <time>2020-11-11T08:56:56Z</time>
      </trkpt>
      <trkpt lat="28.5349830" lon="-16.2861900">
        <ele>823.9</ele>
        <time>2020-11-11T08:56:57Z</time>
      </trkpt>
      <trkpt lat="28.5349080" lon="-16.2861350">
        <ele>822.9</ele>
        <time>2020-11-11T08:56:58Z</time>
      </trkpt>
      <trkpt lat="28.5348750" lon="-16.2861020">
        <ele>822.9</ele>
        <time>2020-11-11T08:56:59Z</time>
      </trkpt>
      <trkpt lat="28.5348420" lon="-16.2860700">
        <ele>822.9</ele>
        <time>2020-11-11T08:57:00Z</time>
      </trkpt>
      <trkpt lat="28.5348100" lon="-16.2860350">
        <ele>822.9</ele>
        <time>2020-11-11T08:57:01Z</time>
      </trkpt>
      <trkpt lat="28.5348100" lon="-16.2860350">
        <ele>821.9</ele>
        <time>2020-11-11T08:57:02Z</time>
      </trkpt>
      <trkpt lat="28.5347330" lon="-16.2859900">
        <ele>821.9</ele>
        <time>2020-11-11T08:57:03Z</time>
      </trkpt>
      <trkpt lat="28.5347330" lon="-16.2859900">
        <ele>821.9</ele>
        <time>2020-11-11T08:57:04Z</time>
      </trkpt>
      <trkpt lat="28.5346580" lon="-16.2859730">
        <ele>821.9</ele>
        <time>2020-11-11T08:57:05Z</time>
      </trkpt>
      <trkpt lat="28.5346580" lon="-16.2859730">
        <ele>821.9</ele>
        <time>2020-11-11T08:57:06Z</time>
      </trkpt>
      <trkpt lat="28.5345930" lon="-16.2859800">
        <ele>821.9</ele>
        <time>2020-11-11T08:57:07Z</time>
      </trkpt>
      <trkpt lat="28.5345550" lon="-16.2859900">
        <ele>820.9</ele>
        <time>2020-11-11T08:57:08Z</time>
      </trkpt>
      <trkpt lat="28.5345550" lon="-16.2859900">
        <ele>820.9</ele>
        <time>2020-11-11T08:57:09Z</time>
      </trkpt>
      <trkpt lat="28.5344920" lon="-16.2860250">
        <ele>820.9</ele>
        <time>2020-11-11T08:57:10Z</time>
      </trkpt>
      <trkpt lat="28.5344920" lon="-16.2860250">
        <ele>820.9</ele>
        <time>2020-11-11T08:57:11Z</time>
      </trkpt>
      <trkpt lat="28.5344480" lon="-16.2860450">
        <ele>819.9</ele>
        <time>2020-11-11T08:57:12Z</time>
      </trkpt>
      <trkpt lat="28.5344480" lon="-16.2860450">
        <ele>819.9</ele>
        <time>2020-11-11T08:57:13Z</time>
      </trkpt>
      <trkpt lat="28.5344230" lon="-16.2860530">
        <ele>819.9</ele>
        <time>2020-11-11T08:57:14Z</time>
      </trkpt>
      <trkpt lat="28.5344080" lon="-16.2860630">
        <ele>819.9</ele>
        <time>2020-11-11T08:57:15Z</time>
      </trkpt>
      <trkpt lat="28.5344080" lon="-16.2860630">
        <ele>819.9</ele>
        <time>2020-11-11T08:57:16Z</time>
      </trkpt>
      <trkpt lat="28.5343650" lon="-16.2860830">
        <ele>818.9</ele>
        <time>2020-11-11T08:57:17Z</time>
      </trkpt>
      <trkpt lat="28.5343650" lon="-16.2860830">
        <ele>818.9</ele>
        <time>2020-11-11T08:57:18Z</time>
      </trkpt>
      <trkpt lat="28.5343480" lon="-16.2861230">
        <ele>818.9</ele>
        <time>2020-11-11T08:57:19Z</time>
      </trkpt>
      <trkpt lat="28.5343470" lon="-16.2861580">
        <ele>818.9</ele>
        <time>2020-11-11T08:57:20Z</time>
      </trkpt>
      <trkpt lat="28.5343470" lon="-16.2861580">
        <ele>818.9</ele>
        <time>2020-11-11T08:57:21Z</time>
      </trkpt>
      <trkpt lat="28.5343330" lon="-16.2862350">
        <ele>818.9</ele>
        <time>2020-11-11T08:57:22Z</time>
      </trkpt>
      <trkpt lat="28.5342950" lon="-16.2863220">
        <ele>818.9</ele>
        <time>2020-11-11T08:57:23Z</time>
      </trkpt>
      <trkpt lat="28.5342630" lon="-16.2863870">
        <ele>818.9</ele>
        <time>2020-11-11T08:57:24Z</time>
      </trkpt>
      <trkpt lat="28.5342630" lon="-16.2863870">
        <ele>818.9</ele>
        <time>2020-11-11T08:57:25Z</time>
      </trkpt>
      <trkpt lat="28.5342380" lon="-16.2864670">
        <ele>818.9</ele>
        <time>2020-11-11T08:57:26Z</time>
      </trkpt>
      <trkpt lat="28.5342380" lon="-16.2864670">
        <ele>818.9</ele>
        <time>2020-11-11T08:57:27Z</time>
      </trkpt>
      <trkpt lat="28.5341970" lon="-16.2865250">
        <ele>818.9</ele>
        <time>2020-11-11T08:57:28Z</time>
      </trkpt>
      <trkpt lat="28.5341600" lon="-16.2865570">
        <ele>818.9</ele>
        <time>2020-11-11T08:57:29Z</time>
      </trkpt>
      <trkpt lat="28.5341600" lon="-16.2865570">
        <ele>818.9</ele>
        <time>2020-11-11T08:57:30Z</time>
      </trkpt>
      <trkpt lat="28.5340620" lon="-16.2866230">
        <ele>818.9</ele>
        <time>2020-11-11T08:57:31Z</time>
      </trkpt>
      <trkpt lat="28.5340620" lon="-16.2866230">
        <ele>818.9</ele>
        <time>2020-11-11T08:57:32Z</time>
      </trkpt>
      <trkpt lat="28.5339920" lon="-16.2866850">
        <ele>818.9</ele>
        <time>2020-11-11T08:57:33Z</time>
      </trkpt>
      <trkpt lat="28.5339920" lon="-16.2866850">
        <ele>818.9</ele>
        <time>2020-11-11T08:57:34Z</time>
      </trkpt>
      <trkpt lat="28.5339280" lon="-16.2867500">
        <ele>818.9</ele>
        <time>2020-11-11T08:57:35Z</time>
      </trkpt>
      <trkpt lat="28.5339280" lon="-16.2867500">
        <ele>818.9</ele>
        <time>2020-11-11T08:57:36Z</time>
      </trkpt>
      <trkpt lat="28.5338820" lon="-16.2868030">
        <ele>818.9</ele>
        <time>2020-11-11T08:57:37Z</time>
      </trkpt>
      <trkpt lat="28.5338500" lon="-16.2868330">
        <ele>818.9</ele>
        <time>2020-11-11T08:57:38Z</time>
      </trkpt>
      <trkpt lat="28.5338500" lon="-16.2868330">
        <ele>818.9</ele>
        <time>2020-11-11T08:57:39Z</time>
      </trkpt>
      <trkpt lat="28.5337780" lon="-16.2868800">
        <ele>818.9</ele>
        <time>2020-11-11T08:57:40Z</time>
      </trkpt>
      <trkpt lat="28.5337780" lon="-16.2868800">
        <ele>818.9</ele>
        <time>2020-11-11T08:57:41Z</time>
      </trkpt>
      <trkpt lat="28.5337620" lon="-16.2869150">
        <ele>818.9</ele>
        <time>2020-11-11T08:57:42Z</time>
      </trkpt>
      <trkpt lat="28.5337520" lon="-16.2869130">
        <ele>818.9</ele>
        <time>2020-11-11T08:57:43Z</time>
      </trkpt>
      <trkpt lat="28.5337520" lon="-16.2869130">
        <ele>818.9</ele>
        <time>2020-11-11T08:57:44Z</time>
      </trkpt>
      <trkpt lat="28.5337550" lon="-16.2869250">
        <ele>818.9</ele>
        <time>2020-11-11T08:57:45Z</time>
      </trkpt>
      <trkpt lat="28.5337550" lon="-16.2869250">
        <ele>818.9</ele>
        <time>2020-11-11T08:57:56Z</time>
      </trkpt>
      <trkpt lat="28.5336650" lon="-16.2870800">
        <ele>818.9</ele>
        <time>2020-11-11T08:57:57Z</time>
      </trkpt>
      <trkpt lat="28.5336650" lon="-16.2870800">
        <ele>818.9</ele>
        <time>2020-11-11T08:57:58Z</time>
      </trkpt>
      <trkpt lat="28.5336420" lon="-16.2871020">
        <ele>818.9</ele>
        <time>2020-11-11T08:57:59Z</time>
      </trkpt>
      <trkpt lat="28.5336420" lon="-16.2871020">
        <ele>818.9</ele>
        <time>2020-11-11T08:58:00Z</time>
      </trkpt>
      <trkpt lat="28.5336180" lon="-16.2871170">
        <ele>818.9</ele>
        <time>2020-11-11T08:58:01Z</time>
      </trkpt>
      <trkpt lat="28.5336180" lon="-16.2871170">
        <ele>818.9</ele>
        <time>2020-11-11T08:58:02Z</time>
      </trkpt>
      <trkpt lat="28.5335700" lon="-16.2871450">
        <ele>818.9</ele>
        <time>2020-11-11T08:58:03Z</time>
      </trkpt>
      <trkpt lat="28.5335520" lon="-16.2871580">
        <ele>818.9</ele>
        <time>2020-11-11T08:58:04Z</time>
      </trkpt>
      <trkpt lat="28.5335520" lon="-16.2871580">
        <ele>818.9</ele>
        <time>2020-11-11T08:58:05Z</time>
      </trkpt>
      <trkpt lat="28.5335380" lon="-16.2872070">
        <ele>818.9</ele>
        <time>2020-11-11T08:58:06Z</time>
      </trkpt>
      <trkpt lat="28.5335380" lon="-16.2872070">
        <ele>818.9</ele>
        <time>2020-11-11T08:58:07Z</time>
      </trkpt>
      <trkpt lat="28.5335480" lon="-16.2872600">
        <ele>818.9</ele>
        <time>2020-11-11T08:58:08Z</time>
      </trkpt>
      <trkpt lat="28.5335480" lon="-16.2872600">
        <ele>818.9</ele>
        <time>2020-11-11T08:58:09Z</time>
      </trkpt>
      <trkpt lat="28.5335670" lon="-16.2873280">
        <ele>818.9</ele>
        <time>2020-11-11T08:58:10Z</time>
      </trkpt>
      <trkpt lat="28.5335920" lon="-16.2873670">
        <ele>818.9</ele>
        <time>2020-11-11T08:58:11Z</time>
      </trkpt>
      <trkpt lat="28.5335920" lon="-16.2873670">
        <ele>818.9</ele>
        <time>2020-11-11T08:58:12Z</time>
      </trkpt>
      <trkpt lat="28.5336170" lon="-16.2874330">
        <ele>819.9</ele>
        <time>2020-11-11T08:58:13Z</time>
      </trkpt>
      <trkpt lat="28.5336170" lon="-16.2874330">
        <ele>819.9</ele>
        <time>2020-11-11T08:58:14Z</time>
      </trkpt>
      <trkpt lat="28.5336320" lon="-16.2874970">
        <ele>819.9</ele>
        <time>2020-11-11T08:58:15Z</time>
      </trkpt>
      <trkpt lat="28.5336350" lon="-16.2875350">
        <ele>819.9</ele>
        <time>2020-11-11T08:58:16Z</time>
      </trkpt>
      <trkpt lat="28.5336350" lon="-16.2875350">
        <ele>819.9</ele>
        <time>2020-11-11T08:58:17Z</time>
      </trkpt>
      <trkpt lat="28.5336730" lon="-16.2875980">
        <ele>819.9</ele>
        <time>2020-11-11T08:58:18Z</time>
      </trkpt>
      <trkpt lat="28.5336730" lon="-16.2875980">
        <ele>819.9</ele>
        <time>2020-11-11T08:58:19Z</time>
      </trkpt>
      <trkpt lat="28.5337080" lon="-16.2876670">
        <ele>819.9</ele>
        <time>2020-11-11T08:58:20Z</time>
      </trkpt>
      <trkpt lat="28.5337230" lon="-16.2876980">
        <ele>819.9</ele>
        <time>2020-11-11T08:58:21Z</time>
      </trkpt>
      <trkpt lat="28.5337230" lon="-16.2876980">
        <ele>820.9</ele>
        <time>2020-11-11T08:58:22Z</time>
      </trkpt>
      <trkpt lat="28.5337630" lon="-16.2877600">
        <ele>820.9</ele>
        <time>2020-11-11T08:58:23Z</time>
      </trkpt>
      <trkpt lat="28.5337630" lon="-16.2877600">
        <ele>820.9</ele>
        <time>2020-11-11T08:58:24Z</time>
      </trkpt>
      <trkpt lat="28.5337820" lon="-16.2878280">
        <ele>820.9</ele>
        <time>2020-11-11T08:58:25Z</time>
      </trkpt>
      <trkpt lat="28.5337820" lon="-16.2878280">
        <ele>820.9</ele>
        <time>2020-11-11T08:58:26Z</time>
      </trkpt>
      <trkpt lat="28.5337820" lon="-16.2879100">
        <ele>820.9</ele>
        <time>2020-11-11T08:58:27Z</time>
      </trkpt>
      <trkpt lat="28.5337820" lon="-16.2879100">
        <ele>820.9</ele>
        <time>2020-11-11T08:58:28Z</time>
      </trkpt>
      <trkpt lat="28.5337620" lon="-16.2879830">
        <ele>820.9</ele>
        <time>2020-11-11T08:58:29Z</time>
      </trkpt>
      <trkpt lat="28.5337620" lon="-16.2879830">
        <ele>820.9</ele>
        <time>2020-11-11T08:58:30Z</time>
      </trkpt>
      <trkpt lat="28.5337350" lon="-16.2880450">
        <ele>820.9</ele>
        <time>2020-11-11T08:58:31Z</time>
      </trkpt>
      <trkpt lat="28.5337350" lon="-16.2880450">
        <ele>820.9</ele>
        <time>2020-11-11T08:58:32Z</time>
      </trkpt>
      <trkpt lat="28.5336780" lon="-16.2881030">
        <ele>820.9</ele>
        <time>2020-11-11T08:58:33Z</time>
      </trkpt>
      <trkpt lat="28.5336780" lon="-16.2881030">
        <ele>820.9</ele>
        <time>2020-11-11T08:58:34Z</time>
      </trkpt>
      <trkpt lat="28.5336150" lon="-16.2881350">
        <ele>820.9</ele>
        <time>2020-11-11T08:58:35Z</time>
      </trkpt>
      <trkpt lat="28.5335850" lon="-16.2881420">
        <ele>820.9</ele>
        <time>2020-11-11T08:58:36Z</time>
      </trkpt>
      <trkpt lat="28.5335850" lon="-16.2881420">
        <ele>820.9</ele>
        <time>2020-11-11T08:58:37Z</time>
      </trkpt>
      <trkpt lat="28.5334920" lon="-16.2881570">
        <ele>820.9</ele>
        <time>2020-11-11T08:58:38Z</time>
      </trkpt>
      <trkpt lat="28.5334420" lon="-16.2881650">
        <ele>819.9</ele>
        <time>2020-11-11T08:58:39Z</time>
      </trkpt>
      <trkpt lat="28.5334420" lon="-16.2881650">
        <ele>819.9</ele>
        <time>2020-11-11T08:58:40Z</time>
      </trkpt>
      <trkpt lat="28.5333630" lon="-16.2881880">
        <ele>819.9</ele>
        <time>2020-11-11T08:58:41Z</time>
      </trkpt>
      <trkpt lat="28.5333630" lon="-16.2881880">
        <ele>819.9</ele>
        <time>2020-11-11T08:58:42Z</time>
      </trkpt>
      <trkpt lat="28.5333120" lon="-16.2882020">
        <ele>817.9</ele>
        <time>2020-11-11T08:58:43Z</time>
      </trkpt>
      <trkpt lat="28.5332950" lon="-16.2882070">
        <ele>817.9</ele>
        <time>2020-11-11T08:58:44Z</time>
      </trkpt>
      <trkpt lat="28.5332950" lon="-16.2882070">
        <ele>817.9</ele>
        <time>2020-11-11T08:58:45Z</time>
      </trkpt>
      <trkpt lat="28.5332550" lon="-16.2882300">
        <ele>817.9</ele>
        <time>2020-11-11T08:58:46Z</time>
      </trkpt>
      <trkpt lat="28.5332550" lon="-16.2882300">
        <ele>817.9</ele>
        <time>2020-11-11T08:58:47Z</time>
      </trkpt>
      <trkpt lat="28.5332230" lon="-16.2882630">
        <ele>817.9</ele>
        <time>2020-11-11T08:58:48Z</time>
      </trkpt>
      <trkpt lat="28.5332130" lon="-16.2882930">
        <ele>817.9</ele>
        <time>2020-11-11T08:58:49Z</time>
      </trkpt>
      <trkpt lat="28.5332130" lon="-16.2882930">
        <ele>817.9</ele>
        <time>2020-11-11T08:58:50Z</time>
      </trkpt>
      <trkpt lat="28.5331900" lon="-16.2883620">
        <ele>817.9</ele>
        <time>2020-11-11T08:58:51Z</time>
      </trkpt>
      <trkpt lat="28.5331900" lon="-16.2883620">
        <ele>817.9</ele>
        <time>2020-11-11T08:58:52Z</time>
      </trkpt>
      <trkpt lat="28.5331850" lon="-16.2884330">
        <ele>817.9</ele>
        <time>2020-11-11T08:58:53Z</time>
      </trkpt>
      <trkpt lat="28.5331850" lon="-16.2884330">
        <ele>817.9</ele>
        <time>2020-11-11T08:58:54Z</time>
      </trkpt>
      <trkpt lat="28.5331730" lon="-16.2885250">
        <ele>817.9</ele>
        <time>2020-11-11T08:58:55Z</time>
      </trkpt>
      <trkpt lat="28.5331730" lon="-16.2885250">
        <ele>817.9</ele>
        <time>2020-11-11T08:58:56Z</time>
      </trkpt>
      <trkpt lat="28.5331970" lon="-16.2886200">
        <ele>816.9</ele>
        <time>2020-11-11T08:58:57Z</time>
      </trkpt>
      <trkpt lat="28.5331970" lon="-16.2886200">
        <ele>816.9</ele>
        <time>2020-11-11T08:58:58Z</time>
      </trkpt>
      <trkpt lat="28.5331920" lon="-16.2887100">
        <ele>816.9</ele>
        <time>2020-11-11T08:58:59Z</time>
      </trkpt>
      <trkpt lat="28.5331920" lon="-16.2887100">
        <ele>816.9</ele>
        <time>2020-11-11T08:59:00Z</time>
      </trkpt>
      <trkpt lat="28.5331730" lon="-16.2888050">
        <ele>816.9</ele>
        <time>2020-11-11T08:59:01Z</time>
      </trkpt>
      <trkpt lat="28.5331730" lon="-16.2888050">
        <ele>816.9</ele>
        <time>2020-11-11T08:59:02Z</time>
      </trkpt>
      <trkpt lat="28.5331450" lon="-16.2888870">
        <ele>816.9</ele>
        <time>2020-11-11T08:59:03Z</time>
      </trkpt>
      <trkpt lat="28.5331300" lon="-16.2889230">
        <ele>816.9</ele>
        <time>2020-11-11T08:59:04Z</time>
      </trkpt>
      <trkpt lat="28.5331300" lon="-16.2889230">
        <ele>816.9</ele>
        <time>2020-11-11T08:59:05Z</time>
      </trkpt>
      <trkpt lat="28.5331170" lon="-16.2889820">
        <ele>816.9</ele>
        <time>2020-11-11T08:59:06Z</time>
      </trkpt>
      <trkpt lat="28.5331170" lon="-16.2889820">
        <ele>816.9</ele>
        <time>2020-11-11T08:59:07Z</time>
      </trkpt>
      <trkpt lat="28.5330780" lon="-16.2890630">
        <ele>816.9</ele>
        <time>2020-11-11T08:59:08Z</time>
      </trkpt>
      <trkpt lat="28.5330780" lon="-16.2890630">
        <ele>816.9</ele>
        <time>2020-11-11T08:59:09Z</time>
      </trkpt>
      <trkpt lat="28.5330380" lon="-16.2891620">
        <ele>816.9</ele>
        <time>2020-11-11T08:59:10Z</time>
      </trkpt>
      <trkpt lat="28.5330120" lon="-16.2892120">
        <ele>816.9</ele>
        <time>2020-11-11T08:59:11Z</time>
      </trkpt>
      <trkpt lat="28.5330070" lon="-16.2892670">
        <ele>816.9</ele>
        <time>2020-11-11T08:59:12Z</time>
      </trkpt>
      <trkpt lat="28.5330070" lon="-16.2892670">
        <ele>816.9</ele>
        <time>2020-11-11T08:59:13Z</time>
      </trkpt>
      <trkpt lat="28.5329700" lon="-16.2893550">
        <ele>816.9</ele>
        <time>2020-11-11T08:59:14Z</time>
      </trkpt>
      <trkpt lat="28.5329780" lon="-16.2894080">
        <ele>816.9</ele>
        <time>2020-11-11T08:59:15Z</time>
      </trkpt>
      <trkpt lat="28.5329780" lon="-16.2894080">
        <ele>816.9</ele>
        <time>2020-11-11T08:59:16Z</time>
      </trkpt>
      <trkpt lat="28.5330020" lon="-16.2895100">
        <ele>816.9</ele>
        <time>2020-11-11T08:59:17Z</time>
      </trkpt>
      <trkpt lat="28.5330020" lon="-16.2895100">
        <ele>815.9</ele>
        <time>2020-11-11T08:59:18Z</time>
      </trkpt>
      <trkpt lat="28.5330020" lon="-16.2895700">
        <ele>815.9</ele>
        <time>2020-11-11T08:59:19Z</time>
      </trkpt>
      <trkpt lat="28.5330020" lon="-16.2895700">
        <ele>815.9</ele>
        <time>2020-11-11T08:59:20Z</time>
      </trkpt>
      <trkpt lat="28.5330430" lon="-16.2896320">
        <ele>815.9</ele>
        <time>2020-11-11T08:59:21Z</time>
      </trkpt>
      <trkpt lat="28.5330820" lon="-16.2896300">
        <ele>815.9</ele>
        <time>2020-11-11T08:59:22Z</time>
      </trkpt>
      <trkpt lat="28.5330820" lon="-16.2896300">
        <ele>815.9</ele>
        <time>2020-11-11T08:59:23Z</time>
      </trkpt>
      <trkpt lat="28.5331880" lon="-16.2896220">
        <ele>815.9</ele>
        <time>2020-11-11T08:59:24Z</time>
      </trkpt>
      <trkpt lat="28.5332320" lon="-16.2896130">
        <ele>815.9</ele>
        <time>2020-11-11T08:59:25Z</time>
      </trkpt>
      <trkpt lat="28.5332320" lon="-16.2896130">
        <ele>815.9</ele>
        <time>2020-11-11T08:59:26Z</time>
      </trkpt>
      <trkpt lat="28.5333030" lon="-16.2896070">
        <ele>815.9</ele>
        <time>2020-11-11T08:59:27Z</time>
      </trkpt>
      <trkpt lat="28.5333400" lon="-16.2896120">
        <ele>815.9</ele>
        <time>2020-11-11T08:59:28Z</time>
      </trkpt>
      <trkpt lat="28.5333400" lon="-16.2896120">
        <ele>815.9</ele>
        <time>2020-11-11T08:59:29Z</time>
      </trkpt>
      <trkpt lat="28.5334020" lon="-16.2895980">
        <ele>815.9</ele>
        <time>2020-11-11T08:59:30Z</time>
      </trkpt>
      <trkpt lat="28.5334270" lon="-16.2895980">
        <ele>815.9</ele>
        <time>2020-11-11T08:59:31Z</time>
      </trkpt>
      <trkpt lat="28.5334270" lon="-16.2895980">
        <ele>815.9</ele>
        <time>2020-11-11T08:59:32Z</time>
      </trkpt>
      <trkpt lat="28.5334980" lon="-16.2896170">
        <ele>815.9</ele>
        <time>2020-11-11T08:59:33Z</time>
      </trkpt>
      <trkpt lat="28.5334980" lon="-16.2896170">
        <ele>815.9</ele>
        <time>2020-11-11T08:59:34Z</time>
      </trkpt>
      <trkpt lat="28.5335780" lon="-16.2896330">
        <ele>815.9</ele>
        <time>2020-11-11T08:59:35Z</time>
      </trkpt>
      <trkpt lat="28.5336330" lon="-16.2896550">
        <ele>815.9</ele>
        <time>2020-11-11T08:59:36Z</time>
      </trkpt>
      <trkpt lat="28.5336330" lon="-16.2896550">
        <ele>815.9</ele>
        <time>2020-11-11T08:59:37Z</time>
      </trkpt>
      <trkpt lat="28.5337380" lon="-16.2896880">
        <ele>815.9</ele>
        <time>2020-11-11T08:59:38Z</time>
      </trkpt>
      <trkpt lat="28.5337380" lon="-16.2896880">
        <ele>815.9</ele>
        <time>2020-11-11T08:59:39Z</time>
      </trkpt>
      <trkpt lat="28.5338280" lon="-16.2897270">
        <ele>815.9</ele>
        <time>2020-11-11T08:59:40Z</time>
      </trkpt>
      <trkpt lat="28.5338280" lon="-16.2897270">
        <ele>815.9</ele>
        <time>2020-11-11T08:59:41Z</time>
      </trkpt>
      <trkpt lat="28.5339250" lon="-16.2897950">
        <ele>815.9</ele>
        <time>2020-11-11T08:59:42Z</time>
      </trkpt>
      <trkpt lat="28.5339620" lon="-16.2898370">
        <ele>815.9</ele>
        <time>2020-11-11T08:59:43Z</time>
      </trkpt>
      <trkpt lat="28.5339620" lon="-16.2898370">
        <ele>815.9</ele>
        <time>2020-11-11T08:59:44Z</time>
      </trkpt>
      <trkpt lat="28.5340020" lon="-16.2899350">
        <ele>815.9</ele>
        <time>2020-11-11T08:59:45Z</time>
      </trkpt>
      <trkpt lat="28.5340030" lon="-16.2899800">
        <ele>814.9</ele>
        <time>2020-11-11T08:59:46Z</time>
      </trkpt>
      <trkpt lat="28.5339930" lon="-16.2900250">
        <ele>814.9</ele>
        <time>2020-11-11T08:59:47Z</time>
      </trkpt>
      <trkpt lat="28.5339930" lon="-16.2900250">
        <ele>814.9</ele>
        <time>2020-11-11T08:59:48Z</time>
      </trkpt>
      <trkpt lat="28.5339570" lon="-16.2901080">
        <ele>814.9</ele>
        <time>2020-11-11T08:59:49Z</time>
      </trkpt>
      <trkpt lat="28.5339570" lon="-16.2901080">
        <ele>814.9</ele>
        <time>2020-11-11T08:59:50Z</time>
      </trkpt>
      <trkpt lat="28.5339250" lon="-16.2901770">
        <ele>814.9</ele>
        <time>2020-11-11T08:59:51Z</time>
      </trkpt>
      <trkpt lat="28.5339070" lon="-16.2902220">
        <ele>813.9</ele>
        <time>2020-11-11T08:59:52Z</time>
      </trkpt>
      <trkpt lat="28.5339070" lon="-16.2902220">
        <ele>813.9</ele>
        <time>2020-11-11T08:59:53Z</time>
      </trkpt>
      <trkpt lat="28.5338570" lon="-16.2902980">
        <ele>813.9</ele>
        <time>2020-11-11T08:59:54Z</time>
      </trkpt>
      <trkpt lat="28.5338380" lon="-16.2903330">
        <ele>813.9</ele>
        <time>2020-11-11T08:59:55Z</time>
      </trkpt>
      <trkpt lat="28.5338380" lon="-16.2903330">
        <ele>813.9</ele>
        <time>2020-11-11T08:59:56Z</time>
      </trkpt>
      <trkpt lat="28.5338200" lon="-16.2904180">
        <ele>813.9</ele>
        <time>2020-11-11T08:59:57Z</time>
      </trkpt>
      <trkpt lat="28.5338200" lon="-16.2904180">
        <ele>813.9</ele>
        <time>2020-11-11T08:59:58Z</time>
      </trkpt>
      <trkpt lat="28.5338420" lon="-16.2905120">
        <ele>813.9</ele>
        <time>2020-11-11T08:59:59Z</time>
      </trkpt>
      <trkpt lat="28.5338420" lon="-16.2905120">
        <ele>813.9</ele>
        <time>2020-11-11T09:00:00Z</time>
      </trkpt>
      <trkpt lat="28.5338820" lon="-16.2905920">
        <ele>813.9</ele>
        <time>2020-11-11T09:00:01Z</time>
      </trkpt>
      <trkpt lat="28.5338820" lon="-16.2905920">
        <ele>813.9</ele>
        <time>2020-11-11T09:00:02Z</time>
      </trkpt>
      <trkpt lat="28.5338930" lon="-16.2906900">
        <ele>813.9</ele>
        <time>2020-11-11T09:00:03Z</time>
      </trkpt>
      <trkpt lat="28.5338930" lon="-16.2906900">
        <ele>813.9</ele>
        <time>2020-11-11T09:00:04Z</time>
      </trkpt>
      <trkpt lat="28.5338780" lon="-16.2907720">
        <ele>813.9</ele>
        <time>2020-11-11T09:00:05Z</time>
      </trkpt>
      <trkpt lat="28.5338780" lon="-16.2907720">
        <ele>813.9</ele>
        <time>2020-11-11T09:00:06Z</time>
      </trkpt>
      <trkpt lat="28.5338430" lon="-16.2908500">
        <ele>813.9</ele>
        <time>2020-11-11T09:00:07Z</time>
      </trkpt>
      <trkpt lat="28.5338430" lon="-16.2908500">
        <ele>812.9</ele>
        <time>2020-11-11T09:00:08Z</time>
      </trkpt>
      <trkpt lat="28.5337920" lon="-16.2909270">
        <ele>812.9</ele>
        <time>2020-11-11T09:00:09Z</time>
      </trkpt>
      <trkpt lat="28.5337920" lon="-16.2909270">
        <ele>812.9</ele>
        <time>2020-11-11T09:00:10Z</time>
      </trkpt>
      <trkpt lat="28.5337520" lon="-16.2909820">
        <ele>812.9</ele>
        <time>2020-11-11T09:00:11Z</time>
      </trkpt>
      <trkpt lat="28.5337280" lon="-16.2910120">
        <ele>812.9</ele>
        <time>2020-11-11T09:00:12Z</time>
      </trkpt>
      <trkpt lat="28.5337280" lon="-16.2910120">
        <ele>812.9</ele>
        <time>2020-11-11T09:00:13Z</time>
      </trkpt>
      <trkpt lat="28.5336730" lon="-16.2911000">
        <ele>812.9</ele>
        <time>2020-11-11T09:00:14Z</time>
      </trkpt>
      <trkpt lat="28.5336730" lon="-16.2911000">
        <ele>812.9</ele>
        <time>2020-11-11T09:00:15Z</time>
      </trkpt>
      <trkpt lat="28.5336780" lon="-16.2911850">
        <ele>811.9</ele>
        <time>2020-11-11T09:00:16Z</time>
      </trkpt>
      <trkpt lat="28.5336780" lon="-16.2911850">
        <ele>811.9</ele>
        <time>2020-11-11T09:00:17Z</time>
      </trkpt>
      <trkpt lat="28.5336930" lon="-16.2912570">
        <ele>811.9</ele>
        <time>2020-11-11T09:00:18Z</time>
      </trkpt>
      <trkpt lat="28.5337050" lon="-16.2912920">
        <ele>811.9</ele>
        <time>2020-11-11T09:00:19Z</time>
      </trkpt>
      <trkpt lat="28.5337050" lon="-16.2912920">
        <ele>811.9</ele>
        <time>2020-11-11T09:00:20Z</time>
      </trkpt>
      <trkpt lat="28.5337480" lon="-16.2913670">
        <ele>811.9</ele>
        <time>2020-11-11T09:00:21Z</time>
      </trkpt>
      <trkpt lat="28.5337480" lon="-16.2913670">
        <ele>811.9</ele>
        <time>2020-11-11T09:00:22Z</time>
      </trkpt>
      <trkpt lat="28.5337870" lon="-16.2914230">
        <ele>811.9</ele>
        <time>2020-11-11T09:00:23Z</time>
      </trkpt>
      <trkpt lat="28.5337870" lon="-16.2914230">
        <ele>811.9</ele>
        <time>2020-11-11T09:00:24Z</time>
      </trkpt>
      <trkpt lat="28.5338150" lon="-16.2914830">
        <ele>811.9</ele>
        <time>2020-11-11T09:00:25Z</time>
      </trkpt>
      <trkpt lat="28.5338150" lon="-16.2914830">
        <ele>811.9</ele>
        <time>2020-11-11T09:00:26Z</time>
      </trkpt>
      <trkpt lat="28.5338620" lon="-16.2915420">
        <ele>811.9</ele>
        <time>2020-11-11T09:00:27Z</time>
      </trkpt>
      <trkpt lat="28.5338850" lon="-16.2915770">
        <ele>811.9</ele>
        <time>2020-11-11T09:00:28Z</time>
      </trkpt>
      <trkpt lat="28.5338850" lon="-16.2915770">
        <ele>811.9</ele>
        <time>2020-11-11T09:00:29Z</time>
      </trkpt>
      <trkpt lat="28.5339500" lon="-16.2916370">
        <ele>811.9</ele>
        <time>2020-11-11T09:00:30Z</time>
      </trkpt>
      <trkpt lat="28.5339500" lon="-16.2916370">
        <ele>811.9</ele>
        <time>2020-11-11T09:00:31Z</time>
      </trkpt>
      <trkpt lat="28.5339850" lon="-16.2916980">
        <ele>811.9</ele>
        <time>2020-11-11T09:00:32Z</time>
      </trkpt>
      <trkpt lat="28.5339850" lon="-16.2916980">
        <ele>811.9</ele>
        <time>2020-11-11T09:00:33Z</time>
      </trkpt>
      <trkpt lat="28.5340470" lon="-16.2917130">
        <ele>811.9</ele>
        <time>2020-11-11T09:00:34Z</time>
      </trkpt>
      <trkpt lat="28.5340470" lon="-16.2917130">
        <ele>811.9</ele>
        <time>2020-11-11T09:00:35Z</time>
      </trkpt>
      <trkpt lat="28.5341280" lon="-16.2917100">
        <ele>811.9</ele>
        <time>2020-11-11T09:00:36Z</time>
      </trkpt>
      <trkpt lat="28.5341780" lon="-16.2917020">
        <ele>811.9</ele>
        <time>2020-11-11T09:00:37Z</time>
      </trkpt>
      <trkpt lat="28.5341780" lon="-16.2917020">
        <ele>811.9</ele>
        <time>2020-11-11T09:00:38Z</time>
      </trkpt>
      <trkpt lat="28.5342770" lon="-16.2916920">
        <ele>812.9</ele>
        <time>2020-11-11T09:00:39Z</time>
      </trkpt>
      <trkpt lat="28.5343320" lon="-16.2917050">
        <ele>812.9</ele>
        <time>2020-11-11T09:00:40Z</time>
      </trkpt>
      <trkpt lat="28.5343320" lon="-16.2917050">
        <ele>812.9</ele>
        <time>2020-11-11T09:00:41Z</time>
      </trkpt>
      <trkpt lat="28.5344100" lon="-16.2917470">
        <ele>812.9</ele>
        <time>2020-11-11T09:00:42Z</time>
      </trkpt>
      <trkpt lat="28.5344100" lon="-16.2917470">
        <ele>812.9</ele>
        <time>2020-11-11T09:00:43Z</time>
      </trkpt>
      <trkpt lat="28.5344780" lon="-16.2918030">
        <ele>812.9</ele>
        <time>2020-11-11T09:00:44Z</time>
      </trkpt>
      <trkpt lat="28.5344780" lon="-16.2918030">
        <ele>812.9</ele>
        <time>2020-11-11T09:00:45Z</time>
      </trkpt>
      <trkpt lat="28.5345320" lon="-16.2918770">
        <ele>812.9</ele>
        <time>2020-11-11T09:00:46Z</time>
      </trkpt>
      <trkpt lat="28.5345320" lon="-16.2918770">
        <ele>812.9</ele>
        <time>2020-11-11T09:00:47Z</time>
      </trkpt>
      <trkpt lat="28.5345670" lon="-16.2919600">
        <ele>812.9</ele>
        <time>2020-11-11T09:00:48Z</time>
      </trkpt>
      <trkpt lat="28.5345670" lon="-16.2919600">
        <ele>812.9</ele>
        <time>2020-11-11T09:00:49Z</time>
      </trkpt>
      <trkpt lat="28.5346130" lon="-16.2920430">
        <ele>812.9</ele>
        <time>2020-11-11T09:00:50Z</time>
      </trkpt>
      <trkpt lat="28.5346250" lon="-16.2920750">
        <ele>812.9</ele>
        <time>2020-11-11T09:00:51Z</time>
      </trkpt>
      <trkpt lat="28.5346250" lon="-16.2920750">
        <ele>812.9</ele>
        <time>2020-11-11T09:00:52Z</time>
      </trkpt>
      <trkpt lat="28.5346480" lon="-16.2921180">
        <ele>812.9</ele>
        <time>2020-11-11T09:00:53Z</time>
      </trkpt>
      <trkpt lat="28.5346480" lon="-16.2921180">
        <ele>812.9</ele>
        <time>2020-11-11T09:00:54Z</time>
      </trkpt>
      <trkpt lat="28.5346980" lon="-16.2921650">
        <ele>812.9</ele>
        <time>2020-11-11T09:00:55Z</time>
      </trkpt>
      <trkpt lat="28.5346980" lon="-16.2921650">
        <ele>812.9</ele>
        <time>2020-11-11T09:00:56Z</time>
      </trkpt>
      <trkpt lat="28.5347600" lon="-16.2922250">
        <ele>812.9</ele>
        <time>2020-11-11T09:00:57Z</time>
      </trkpt>
      <trkpt lat="28.5347700" lon="-16.2922430">
        <ele>812.9</ele>
        <time>2020-11-11T09:00:58Z</time>
      </trkpt>
      <trkpt lat="28.5347700" lon="-16.2922430">
        <ele>812.9</ele>
        <time>2020-11-11T09:00:59Z</time>
      </trkpt>
      <trkpt lat="28.5348020" lon="-16.2922780">
        <ele>813.9</ele>
        <time>2020-11-11T09:01:00Z</time>
      </trkpt>
      <trkpt lat="28.5348270" lon="-16.2922870">
        <ele>813.9</ele>
        <time>2020-11-11T09:01:01Z</time>
      </trkpt>
      <trkpt lat="28.5348530" lon="-16.2922920">
        <ele>813.9</ele>
        <time>2020-11-11T09:01:02Z</time>
      </trkpt>
      <trkpt lat="28.5348530" lon="-16.2922920">
        <ele>813.9</ele>
        <time>2020-11-11T09:01:03Z</time>
      </trkpt>
      <trkpt lat="28.5349200" lon="-16.2922930">
        <ele>813.9</ele>
        <time>2020-11-11T09:01:04Z</time>
      </trkpt>
      <trkpt lat="28.5349200" lon="-16.2922930">
        <ele>813.9</ele>
        <time>2020-11-11T09:01:05Z</time>
      </trkpt>
      <trkpt lat="28.5349870" lon="-16.2923150">
        <ele>813.9</ele>
        <time>2020-11-11T09:01:06Z</time>
      </trkpt>
      <trkpt lat="28.5350230" lon="-16.2923420">
        <ele>813.9</ele>
        <time>2020-11-11T09:01:07Z</time>
      </trkpt>
      <trkpt lat="28.5350230" lon="-16.2923420">
        <ele>813.9</ele>
        <time>2020-11-11T09:01:08Z</time>
      </trkpt>
      <trkpt lat="28.5351000" lon="-16.2923730">
        <ele>813.9</ele>
        <time>2020-11-11T09:01:09Z</time>
      </trkpt>
      <trkpt lat="28.5351000" lon="-16.2923730">
        <ele>813.9</ele>
        <time>2020-11-11T09:01:10Z</time>
      </trkpt>
      <trkpt lat="28.5352070" lon="-16.2923800">
        <ele>813.9</ele>
        <time>2020-11-11T09:01:11Z</time>
      </trkpt>
      <trkpt lat="28.5352580" lon="-16.2923950">
        <ele>813.9</ele>
        <time>2020-11-11T09:01:12Z</time>
      </trkpt>
      <trkpt lat="28.5353070" lon="-16.2924080">
        <ele>813.9</ele>
        <time>2020-11-11T09:01:13Z</time>
      </trkpt>
      <trkpt lat="28.5353070" lon="-16.2924080">
        <ele>813.9</ele>
        <time>2020-11-11T09:01:14Z</time>
      </trkpt>
      <trkpt lat="28.5353980" lon="-16.2924320">
        <ele>813.9</ele>
        <time>2020-11-11T09:01:15Z</time>
      </trkpt>
      <trkpt lat="28.5354480" lon="-16.2924470">
        <ele>813.9</ele>
        <time>2020-11-11T09:01:16Z</time>
      </trkpt>
      <trkpt lat="28.5354480" lon="-16.2924470">
        <ele>815.9</ele>
        <time>2020-11-11T09:01:17Z</time>
      </trkpt>
      <trkpt lat="28.5355230" lon="-16.2924630">
        <ele>815.9</ele>
        <time>2020-11-11T09:01:18Z</time>
      </trkpt>
      <trkpt lat="28.5355570" lon="-16.2924730">
        <ele>815.9</ele>
        <time>2020-11-11T09:01:19Z</time>
      </trkpt>
      <trkpt lat="28.5355570" lon="-16.2924730">
        <ele>815.9</ele>
        <time>2020-11-11T09:01:20Z</time>
      </trkpt>
      <trkpt lat="28.5356170" lon="-16.2924920">
        <ele>815.9</ele>
        <time>2020-11-11T09:01:21Z</time>
      </trkpt>
      <trkpt lat="28.5356170" lon="-16.2924920">
        <ele>815.9</ele>
        <time>2020-11-11T09:01:22Z</time>
      </trkpt>
      <trkpt lat="28.5356730" lon="-16.2925020">
        <ele>815.9</ele>
        <time>2020-11-11T09:01:23Z</time>
      </trkpt>
      <trkpt lat="28.5356730" lon="-16.2925020">
        <ele>815.9</ele>
        <time>2020-11-11T09:01:24Z</time>
      </trkpt>
      <trkpt lat="28.5357200" lon="-16.2925130">
        <ele>815.9</ele>
        <time>2020-11-11T09:01:25Z</time>
      </trkpt>
      <trkpt lat="28.5357200" lon="-16.2925130">
        <ele>816.9</ele>
        <time>2020-11-11T09:01:26Z</time>
      </trkpt>
      <trkpt lat="28.5357670" lon="-16.2925350">
        <ele>816.9</ele>
        <time>2020-11-11T09:01:27Z</time>
      </trkpt>
      <trkpt lat="28.5357670" lon="-16.2925350">
        <ele>816.9</ele>
        <time>2020-11-11T09:01:28Z</time>
      </trkpt>
      <trkpt lat="28.5358280" lon="-16.2925480">
        <ele>816.9</ele>
        <time>2020-11-11T09:01:29Z</time>
      </trkpt>
      <trkpt lat="28.5358730" lon="-16.2925450">
        <ele>816.9</ele>
        <time>2020-11-11T09:01:30Z</time>
      </trkpt>
      <trkpt lat="28.5358730" lon="-16.2925450">
        <ele>816.9</ele>
        <time>2020-11-11T09:01:31Z</time>
      </trkpt>
      <trkpt lat="28.5359550" lon="-16.2925520">
        <ele>817.9</ele>
        <time>2020-11-11T09:01:32Z</time>
      </trkpt>
      <trkpt lat="28.5359550" lon="-16.2925520">
        <ele>817.9</ele>
        <time>2020-11-11T09:01:33Z</time>
      </trkpt>
      <trkpt lat="28.5360270" lon="-16.2925530">
        <ele>817.9</ele>
        <time>2020-11-11T09:01:34Z</time>
      </trkpt>
      <trkpt lat="28.5360680" lon="-16.2925630">
        <ele>818.9</ele>
        <time>2020-11-11T09:01:35Z</time>
      </trkpt>
      <trkpt lat="28.5360680" lon="-16.2925630">
        <ele>818.9</ele>
        <time>2020-11-11T09:01:36Z</time>
      </trkpt>
      <trkpt lat="28.5361350" lon="-16.2925930">
        <ele>818.9</ele>
        <time>2020-11-11T09:01:37Z</time>
      </trkpt>
      <trkpt lat="28.5361350" lon="-16.2925930">
        <ele>818.9</ele>
        <time>2020-11-11T09:01:38Z</time>
      </trkpt>
      <trkpt lat="28.5361670" lon="-16.2926520">
        <ele>818.9</ele>
        <time>2020-11-11T09:01:39Z</time>
      </trkpt>
      <trkpt lat="28.5361670" lon="-16.2926520">
        <ele>818.9</ele>
        <time>2020-11-11T09:01:40Z</time>
      </trkpt>
      <trkpt lat="28.5361580" lon="-16.2927120">
        <ele>818.9</ele>
        <time>2020-11-11T09:01:41Z</time>
      </trkpt>
      <trkpt lat="28.5361580" lon="-16.2927120">
        <ele>818.9</ele>
        <time>2020-11-11T09:01:42Z</time>
      </trkpt>
      <trkpt lat="28.5361320" lon="-16.2927730">
        <ele>818.9</ele>
        <time>2020-11-11T09:01:43Z</time>
      </trkpt>
      <trkpt lat="28.5361320" lon="-16.2927730">
        <ele>819.9</ele>
        <time>2020-11-11T09:01:44Z</time>
      </trkpt>
      <trkpt lat="28.5361100" lon="-16.2928330">
        <ele>819.9</ele>
        <time>2020-11-11T09:01:45Z</time>
      </trkpt>
      <trkpt lat="28.5361100" lon="-16.2928330">
        <ele>819.9</ele>
        <time>2020-11-11T09:01:46Z</time>
      </trkpt>
      <trkpt lat="28.5360900" lon="-16.2928980">
        <ele>819.9</ele>
        <time>2020-11-11T09:01:47Z</time>
      </trkpt>
      <trkpt lat="28.5360750" lon="-16.2929250">
        <ele>819.9</ele>
        <time>2020-11-11T09:01:48Z</time>
      </trkpt>
      <trkpt lat="28.5360750" lon="-16.2929250">
        <ele>819.9</ele>
        <time>2020-11-11T09:01:49Z</time>
      </trkpt>
      <trkpt lat="28.5360500" lon="-16.2929820">
        <ele>819.9</ele>
        <time>2020-11-11T09:01:50Z</time>
      </trkpt>
      <trkpt lat="28.5360500" lon="-16.2929820">
        <ele>819.9</ele>
        <time>2020-11-11T09:01:51Z</time>
      </trkpt>
      <trkpt lat="28.5360350" lon="-16.2930330">
        <ele>820.9</ele>
        <time>2020-11-11T09:01:52Z</time>
      </trkpt>
      <trkpt lat="28.5360350" lon="-16.2930330">
        <ele>820.9</ele>
        <time>2020-11-11T09:01:53Z</time>
      </trkpt>
      <trkpt lat="28.5360280" lon="-16.2930880">
        <ele>820.9</ele>
        <time>2020-11-11T09:01:54Z</time>
      </trkpt>
      <trkpt lat="28.5360280" lon="-16.2930880">
        <ele>820.9</ele>
        <time>2020-11-11T09:01:55Z</time>
      </trkpt>
      <trkpt lat="28.5360350" lon="-16.2931580">
        <ele>821.9</ele>
        <time>2020-11-11T09:01:56Z</time>
      </trkpt>
      <trkpt lat="28.5360350" lon="-16.2931580">
        <ele>821.9</ele>
        <time>2020-11-11T09:01:57Z</time>
      </trkpt>
      <trkpt lat="28.5360250" lon="-16.2932180">
        <ele>821.9</ele>
        <time>2020-11-11T09:01:58Z</time>
      </trkpt>
      <trkpt lat="28.5360300" lon="-16.2932500">
        <ele>821.9</ele>
        <time>2020-11-11T09:01:59Z</time>
      </trkpt>
      <trkpt lat="28.5360300" lon="-16.2932500">
        <ele>821.9</ele>
        <time>2020-11-11T09:02:00Z</time>
      </trkpt>
      <trkpt lat="28.5360400" lon="-16.2933000">
        <ele>821.9</ele>
        <time>2020-11-11T09:02:01Z</time>
      </trkpt>
      <trkpt lat="28.5360620" lon="-16.2933300">
        <ele>821.9</ele>
        <time>2020-11-11T09:02:02Z</time>
      </trkpt>
      <trkpt lat="28.5360620" lon="-16.2933300">
        <ele>821.9</ele>
        <time>2020-11-11T09:02:03Z</time>
      </trkpt>
      <trkpt lat="28.5360970" lon="-16.2934050">
        <ele>821.9</ele>
        <time>2020-11-11T09:02:04Z</time>
      </trkpt>
      <trkpt lat="28.5360970" lon="-16.2934050">
        <ele>821.9</ele>
        <time>2020-11-11T09:02:05Z</time>
      </trkpt>
      <trkpt lat="28.5361350" lon="-16.2934650">
        <ele>821.9</ele>
        <time>2020-11-11T09:02:06Z</time>
      </trkpt>
      <trkpt lat="28.5361470" lon="-16.2934950">
        <ele>821.9</ele>
        <time>2020-11-11T09:02:07Z</time>
      </trkpt>
      <trkpt lat="28.5361630" lon="-16.2935270">
        <ele>821.9</ele>
        <time>2020-11-11T09:02:08Z</time>
      </trkpt>
      <trkpt lat="28.5361630" lon="-16.2935270">
        <ele>821.9</ele>
        <time>2020-11-11T09:02:09Z</time>
      </trkpt>
      <trkpt lat="28.5362220" lon="-16.2935970">
        <ele>821.9</ele>
        <time>2020-11-11T09:02:10Z</time>
      </trkpt>
      <trkpt lat="28.5362220" lon="-16.2935970">
        <ele>821.9</ele>
        <time>2020-11-11T09:02:11Z</time>
      </trkpt>
      <trkpt lat="28.5362550" lon="-16.2936480">
        <ele>822.9</ele>
        <time>2020-11-11T09:02:12Z</time>
      </trkpt>
      <trkpt lat="28.5362630" lon="-16.2936800">
        <ele>822.9</ele>
        <time>2020-11-11T09:02:13Z</time>
      </trkpt>
      <trkpt lat="28.5362630" lon="-16.2936800">
        <ele>822.9</ele>
        <time>2020-11-11T09:02:14Z</time>
      </trkpt>
      <trkpt lat="28.5362980" lon="-16.2937370">
        <ele>822.9</ele>
        <time>2020-11-11T09:02:15Z</time>
      </trkpt>
      <trkpt lat="28.5362980" lon="-16.2937370">
        <ele>822.9</ele>
        <time>2020-11-11T09:02:16Z</time>
      </trkpt>
      <trkpt lat="28.5363330" lon="-16.2938280">
        <ele>822.9</ele>
        <time>2020-11-11T09:02:17Z</time>
      </trkpt>
      <trkpt lat="28.5363330" lon="-16.2938280">
        <ele>822.9</ele>
        <time>2020-11-11T09:02:18Z</time>
      </trkpt>
      <trkpt lat="28.5363270" lon="-16.2939170">
        <ele>822.9</ele>
        <time>2020-11-11T09:02:19Z</time>
      </trkpt>
      <trkpt lat="28.5363180" lon="-16.2939520">
        <ele>822.9</ele>
        <time>2020-11-11T09:02:20Z</time>
      </trkpt>
      <trkpt lat="28.5363080" lon="-16.2939820">
        <ele>822.9</ele>
        <time>2020-11-11T09:02:21Z</time>
      </trkpt>
      <trkpt lat="28.5363080" lon="-16.2939820">
        <ele>823.9</ele>
        <time>2020-11-11T09:02:22Z</time>
      </trkpt>
      <trkpt lat="28.5362830" lon="-16.2940420">
        <ele>823.9</ele>
        <time>2020-11-11T09:02:23Z</time>
      </trkpt>
      <trkpt lat="28.5362650" lon="-16.2940700">
        <ele>823.9</ele>
        <time>2020-11-11T09:02:24Z</time>
      </trkpt>
      <trkpt lat="28.5362650" lon="-16.2940700">
        <ele>823.9</ele>
        <time>2020-11-11T09:02:25Z</time>
      </trkpt>
      <trkpt lat="28.5362320" lon="-16.2941120">
        <ele>823.9</ele>
        <time>2020-11-11T09:02:26Z</time>
      </trkpt>
      <trkpt lat="28.5362170" lon="-16.2941280">
        <ele>823.9</ele>
        <time>2020-11-11T09:02:27Z</time>
      </trkpt>
      <trkpt lat="28.5362170" lon="-16.2941280">
        <ele>824.9</ele>
        <time>2020-11-11T09:02:28Z</time>
      </trkpt>
      <trkpt lat="28.5361800" lon="-16.2941500">
        <ele>824.9</ele>
        <time>2020-11-11T09:02:29Z</time>
      </trkpt>
      <trkpt lat="28.5361620" lon="-16.2941450">
        <ele>824.9</ele>
        <time>2020-11-11T09:02:30Z</time>
      </trkpt>
      <trkpt lat="28.5361300" lon="-16.2941470">
        <ele>824.9</ele>
        <time>2020-11-11T09:02:31Z</time>
      </trkpt>
      <trkpt lat="28.5361300" lon="-16.2941470">
        <ele>824.9</ele>
        <time>2020-11-11T09:02:32Z</time>
      </trkpt>
      <trkpt lat="28.5360820" lon="-16.2941430">
        <ele>824.9</ele>
        <time>2020-11-11T09:02:33Z</time>
      </trkpt>
      <trkpt lat="28.5360820" lon="-16.2941430">
        <ele>824.9</ele>
        <time>2020-11-11T09:02:34Z</time>
      </trkpt>
      <trkpt lat="28.5360300" lon="-16.2941420">
        <ele>824.9</ele>
        <time>2020-11-11T09:02:35Z</time>
      </trkpt>
      <trkpt lat="28.5360300" lon="-16.2941420">
        <ele>824.9</ele>
        <time>2020-11-11T09:02:36Z</time>
      </trkpt>
      <trkpt lat="28.5359780" lon="-16.2941550">
        <ele>824.9</ele>
        <time>2020-11-11T09:02:37Z</time>
      </trkpt>
      <trkpt lat="28.5359780" lon="-16.2941550">
        <ele>824.9</ele>
        <time>2020-11-11T09:02:38Z</time>
      </trkpt>
      <trkpt lat="28.5359430" lon="-16.2941950">
        <ele>824.9</ele>
        <time>2020-11-11T09:02:39Z</time>
      </trkpt>
      <trkpt lat="28.5359280" lon="-16.2942230">
        <ele>824.9</ele>
        <time>2020-11-11T09:02:40Z</time>
      </trkpt>
      <trkpt lat="28.5359280" lon="-16.2942230">
        <ele>824.9</ele>
        <time>2020-11-11T09:02:41Z</time>
      </trkpt>
      <trkpt lat="28.5358630" lon="-16.2943300">
        <ele>824.9</ele>
        <time>2020-11-11T09:02:42Z</time>
      </trkpt>
      <trkpt lat="28.5358630" lon="-16.2943670">
        <ele>824.9</ele>
        <time>2020-11-11T09:02:43Z</time>
      </trkpt>
      <trkpt lat="28.5358630" lon="-16.2943670">
        <ele>824.9</ele>
        <time>2020-11-11T09:02:44Z</time>
      </trkpt>
      <trkpt lat="28.5358650" lon="-16.2944380">
        <ele>824.9</ele>
        <time>2020-11-11T09:02:45Z</time>
      </trkpt>
      <trkpt lat="28.5358650" lon="-16.2944380">
        <ele>824.9</ele>
        <time>2020-11-11T09:02:46Z</time>
      </trkpt>
      <trkpt lat="28.5358350" lon="-16.2945500">
        <ele>824.9</ele>
        <time>2020-11-11T09:02:47Z</time>
      </trkpt>
      <trkpt lat="28.5358350" lon="-16.2945500">
        <ele>824.9</ele>
        <time>2020-11-11T09:02:48Z</time>
      </trkpt>
      <trkpt lat="28.5358180" lon="-16.2946450">
        <ele>824.9</ele>
        <time>2020-11-11T09:02:49Z</time>
      </trkpt>
      <trkpt lat="28.5358180" lon="-16.2946450">
        <ele>824.9</ele>
        <time>2020-11-11T09:02:50Z</time>
      </trkpt>
      <trkpt lat="28.5358100" lon="-16.2947630">
        <ele>824.9</ele>
        <time>2020-11-11T09:02:51Z</time>
      </trkpt>
      <trkpt lat="28.5358130" lon="-16.2948100">
        <ele>824.9</ele>
        <time>2020-11-11T09:02:52Z</time>
      </trkpt>
      <trkpt lat="28.5358130" lon="-16.2948100">
        <ele>824.9</ele>
        <time>2020-11-11T09:02:53Z</time>
      </trkpt>
      <trkpt lat="28.5358330" lon="-16.2949030">
        <ele>824.9</ele>
        <time>2020-11-11T09:02:54Z</time>
      </trkpt>
      <trkpt lat="28.5358350" lon="-16.2949420">
        <ele>824.9</ele>
        <time>2020-11-11T09:02:55Z</time>
      </trkpt>
      <trkpt lat="28.5358350" lon="-16.2949420">
        <ele>824.9</ele>
        <time>2020-11-11T09:02:56Z</time>
      </trkpt>
      <trkpt lat="28.5358420" lon="-16.2950180">
        <ele>824.9</ele>
        <time>2020-11-11T09:02:57Z</time>
      </trkpt>
      <trkpt lat="28.5358420" lon="-16.2950180">
        <ele>824.9</ele>
        <time>2020-11-11T09:02:58Z</time>
      </trkpt>
      <trkpt lat="28.5358420" lon="-16.2950870">
        <ele>824.9</ele>
        <time>2020-11-11T09:02:59Z</time>
      </trkpt>
      <trkpt lat="28.5358420" lon="-16.2950870">
        <ele>825.9</ele>
        <time>2020-11-11T09:03:00Z</time>
      </trkpt>
      <trkpt lat="28.5358700" lon="-16.2951520">
        <ele>825.9</ele>
        <time>2020-11-11T09:03:01Z</time>
      </trkpt>
      <trkpt lat="28.5358700" lon="-16.2951520">
        <ele>825.9</ele>
        <time>2020-11-11T09:03:02Z</time>
      </trkpt>
      <trkpt lat="28.5359150" lon="-16.2952300">
        <ele>825.9</ele>
        <time>2020-11-11T09:03:03Z</time>
      </trkpt>
      <trkpt lat="28.5359150" lon="-16.2952300">
        <ele>825.9</ele>
        <time>2020-11-11T09:03:04Z</time>
      </trkpt>
      <trkpt lat="28.5359970" lon="-16.2953250">
        <ele>825.9</ele>
        <time>2020-11-11T09:03:05Z</time>
      </trkpt>
      <trkpt lat="28.5359970" lon="-16.2953250">
        <ele>825.9</ele>
        <time>2020-11-11T09:03:06Z</time>
      </trkpt>
      <trkpt lat="28.5360620" lon="-16.2954030">
        <ele>825.9</ele>
        <time>2020-11-11T09:03:07Z</time>
      </trkpt>
      <trkpt lat="28.5360620" lon="-16.2954030">
        <ele>825.9</ele>
        <time>2020-11-11T09:03:08Z</time>
      </trkpt>
      <trkpt lat="28.5360980" lon="-16.2954570">
        <ele>825.9</ele>
        <time>2020-11-11T09:03:09Z</time>
      </trkpt>
      <trkpt lat="28.5360980" lon="-16.2954570">
        <ele>825.9</ele>
        <time>2020-11-11T09:03:10Z</time>
      </trkpt>
      <trkpt lat="28.5361680" lon="-16.2955380">
        <ele>825.9</ele>
        <time>2020-11-11T09:03:11Z</time>
      </trkpt>
      <trkpt lat="28.5361680" lon="-16.2955380">
        <ele>825.9</ele>
        <time>2020-11-11T09:03:12Z</time>
      </trkpt>
      <trkpt lat="28.5362470" lon="-16.2956220">
        <ele>825.9</ele>
        <time>2020-11-11T09:03:13Z</time>
      </trkpt>
      <trkpt lat="28.5362470" lon="-16.2956220">
        <ele>825.9</ele>
        <time>2020-11-11T09:03:14Z</time>
      </trkpt>
      <trkpt lat="28.5363100" lon="-16.2956820">
        <ele>825.9</ele>
        <time>2020-11-11T09:03:15Z</time>
      </trkpt>
      <trkpt lat="28.5363100" lon="-16.2956820">
        <ele>825.9</ele>
        <time>2020-11-11T09:03:16Z</time>
      </trkpt>
      <trkpt lat="28.5363800" lon="-16.2957730">
        <ele>825.9</ele>
        <time>2020-11-11T09:03:17Z</time>
      </trkpt>
      <trkpt lat="28.5363800" lon="-16.2957730">
        <ele>825.9</ele>
        <time>2020-11-11T09:03:18Z</time>
      </trkpt>
      <trkpt lat="28.5364280" lon="-16.2958730">
        <ele>825.9</ele>
        <time>2020-11-11T09:03:19Z</time>
      </trkpt>
      <trkpt lat="28.5364450" lon="-16.2959180">
        <ele>825.9</ele>
        <time>2020-11-11T09:03:20Z</time>
      </trkpt>
      <trkpt lat="28.5364450" lon="-16.2959180">
        <ele>825.9</ele>
        <time>2020-11-11T09:03:21Z</time>
      </trkpt>
      <trkpt lat="28.5365150" lon="-16.2960280">
        <ele>825.9</ele>
        <time>2020-11-11T09:03:22Z</time>
      </trkpt>
      <trkpt lat="28.5365150" lon="-16.2960280">
        <ele>825.9</ele>
        <time>2020-11-11T09:03:23Z</time>
      </trkpt>
      <trkpt lat="28.5365870" lon="-16.2961370">
        <ele>825.9</ele>
        <time>2020-11-11T09:03:24Z</time>
      </trkpt>
      <trkpt lat="28.5365870" lon="-16.2961370">
        <ele>825.9</ele>
        <time>2020-11-11T09:03:25Z</time>
      </trkpt>
      <trkpt lat="28.5366130" lon="-16.2962400">
        <ele>825.9</ele>
        <time>2020-11-11T09:03:26Z</time>
      </trkpt>
      <trkpt lat="28.5366130" lon="-16.2962400">
        <ele>825.9</ele>
        <time>2020-11-11T09:03:27Z</time>
      </trkpt>
      <trkpt lat="28.5365980" lon="-16.2963250">
        <ele>826.9</ele>
        <time>2020-11-11T09:03:28Z</time>
      </trkpt>
      <trkpt lat="28.5365980" lon="-16.2963250">
        <ele>826.9</ele>
        <time>2020-11-11T09:03:29Z</time>
      </trkpt>
      <trkpt lat="28.5365500" lon="-16.2963830">
        <ele>826.9</ele>
        <time>2020-11-11T09:03:30Z</time>
      </trkpt>
      <trkpt lat="28.5365250" lon="-16.2964020">
        <ele>826.9</ele>
        <time>2020-11-11T09:03:31Z</time>
      </trkpt>
      <trkpt lat="28.5365250" lon="-16.2964020">
        <ele>826.9</ele>
        <time>2020-11-11T09:03:32Z</time>
      </trkpt>
      <trkpt lat="28.5364770" lon="-16.2964230">
        <ele>827.9</ele>
        <time>2020-11-11T09:03:33Z</time>
      </trkpt>
      <trkpt lat="28.5364770" lon="-16.2964230">
        <ele>827.9</ele>
        <time>2020-11-11T09:03:34Z</time>
      </trkpt>
      <trkpt lat="28.5364250" lon="-16.2964370">
        <ele>827.9</ele>
        <time>2020-11-11T09:03:35Z</time>
      </trkpt>
      <trkpt lat="28.5364250" lon="-16.2964370">
        <ele>827.9</ele>
        <time>2020-11-11T09:03:36Z</time>
      </trkpt>
      <trkpt lat="28.5363730" lon="-16.2964570">
        <ele>827.9</ele>
        <time>2020-11-11T09:03:37Z</time>
      </trkpt>
      <trkpt lat="28.5363570" lon="-16.2964680">
        <ele>827.9</ele>
        <time>2020-11-11T09:03:38Z</time>
      </trkpt>
      <trkpt lat="28.5363570" lon="-16.2964680">
        <ele>828.9</ele>
        <time>2020-11-11T09:03:39Z</time>
      </trkpt>
      <trkpt lat="28.5363180" lon="-16.2964980">
        <ele>828.9</ele>
        <time>2020-11-11T09:03:40Z</time>
      </trkpt>
      <trkpt lat="28.5363180" lon="-16.2964980">
        <ele>828.9</ele>
        <time>2020-11-11T09:03:41Z</time>
      </trkpt>
      <trkpt lat="28.5362880" lon="-16.2965450">
        <ele>828.9</ele>
        <time>2020-11-11T09:03:42Z</time>
      </trkpt>
      <trkpt lat="28.5362880" lon="-16.2965450">
        <ele>828.9</ele>
        <time>2020-11-11T09:03:43Z</time>
      </trkpt>
      <trkpt lat="28.5362520" lon="-16.2966100">
        <ele>828.9</ele>
        <time>2020-11-11T09:03:44Z</time>
      </trkpt>
      <trkpt lat="28.5362520" lon="-16.2966100">
        <ele>828.9</ele>
        <time>2020-11-11T09:03:45Z</time>
      </trkpt>
      <trkpt lat="28.5362180" lon="-16.2966630">
        <ele>828.9</ele>
        <time>2020-11-11T09:03:46Z</time>
      </trkpt>
      <trkpt lat="28.5362180" lon="-16.2966630">
        <ele>829.9</ele>
        <time>2020-11-11T09:03:47Z</time>
      </trkpt>
      <trkpt lat="28.5361620" lon="-16.2967330">
        <ele>829.9</ele>
        <time>2020-11-11T09:03:48Z</time>
      </trkpt>
      <trkpt lat="28.5361370" lon="-16.2967650">
        <ele>829.9</ele>
        <time>2020-11-11T09:03:49Z</time>
      </trkpt>
      <trkpt lat="28.5361370" lon="-16.2967650">
        <ele>829.9</ele>
        <time>2020-11-11T09:03:50Z</time>
      </trkpt>
      <trkpt lat="28.5360850" lon="-16.2968220">
        <ele>829.9</ele>
        <time>2020-11-11T09:03:51Z</time>
      </trkpt>
      <trkpt lat="28.5360850" lon="-16.2968220">
        <ele>829.9</ele>
        <time>2020-11-11T09:03:52Z</time>
      </trkpt>
      <trkpt lat="28.5360130" lon="-16.2968880">
        <ele>829.9</ele>
        <time>2020-11-11T09:03:53Z</time>
      </trkpt>
      <trkpt lat="28.5359770" lon="-16.2969270">
        <ele>829.9</ele>
        <time>2020-11-11T09:03:54Z</time>
      </trkpt>
      <trkpt lat="28.5359770" lon="-16.2969270">
        <ele>829.9</ele>
        <time>2020-11-11T09:03:55Z</time>
      </trkpt>
      <trkpt lat="28.5359270" lon="-16.2970100">
        <ele>829.9</ele>
        <time>2020-11-11T09:03:56Z</time>
      </trkpt>
      <trkpt lat="28.5358980" lon="-16.2970680">
        <ele>829.9</ele>
        <time>2020-11-11T09:03:57Z</time>
      </trkpt>
      <trkpt lat="28.5358980" lon="-16.2970680">
        <ele>829.9</ele>
        <time>2020-11-11T09:03:58Z</time>
      </trkpt>
      <trkpt lat="28.5358900" lon="-16.2971520">
        <ele>829.9</ele>
        <time>2020-11-11T09:03:59Z</time>
      </trkpt>
      <trkpt lat="28.5358900" lon="-16.2971520">
        <ele>829.9</ele>
        <time>2020-11-11T09:04:00Z</time>
      </trkpt>
      <trkpt lat="28.5358720" lon="-16.2972370">
        <ele>830.9</ele>
        <time>2020-11-11T09:04:01Z</time>
      </trkpt>
      <trkpt lat="28.5358720" lon="-16.2972370">
        <ele>830.9</ele>
        <time>2020-11-11T09:04:02Z</time>
      </trkpt>
      <trkpt lat="28.5358850" lon="-16.2973200">
        <ele>830.9</ele>
        <time>2020-11-11T09:04:03Z</time>
      </trkpt>
      <trkpt lat="28.5358850" lon="-16.2973200">
        <ele>830.9</ele>
        <time>2020-11-11T09:04:04Z</time>
      </trkpt>
      <trkpt lat="28.5358830" lon="-16.2974150">
        <ele>830.9</ele>
        <time>2020-11-11T09:04:05Z</time>
      </trkpt>
      <trkpt lat="28.5358830" lon="-16.2974150">
        <ele>830.9</ele>
        <time>2020-11-11T09:04:06Z</time>
      </trkpt>
      <trkpt lat="28.5358730" lon="-16.2975000">
        <ele>830.9</ele>
        <time>2020-11-11T09:04:07Z</time>
      </trkpt>
      <trkpt lat="28.5358730" lon="-16.2975000">
        <ele>830.9</ele>
        <time>2020-11-11T09:04:08Z</time>
      </trkpt>
      <trkpt lat="28.5358730" lon="-16.2975930">
        <ele>830.9</ele>
        <time>2020-11-11T09:04:09Z</time>
      </trkpt>
      <trkpt lat="28.5358730" lon="-16.2975930">
        <ele>830.9</ele>
        <time>2020-11-11T09:04:10Z</time>
      </trkpt>
      <trkpt lat="28.5358380" lon="-16.2976780">
        <ele>830.9</ele>
        <time>2020-11-11T09:04:11Z</time>
      </trkpt>
      <trkpt lat="28.5358380" lon="-16.2976780">
        <ele>830.9</ele>
        <time>2020-11-11T09:04:12Z</time>
      </trkpt>
      <trkpt lat="28.5357970" lon="-16.2977500">
        <ele>831.9</ele>
        <time>2020-11-11T09:04:13Z</time>
      </trkpt>
      <trkpt lat="28.5357970" lon="-16.2977500">
        <ele>831.9</ele>
        <time>2020-11-11T09:04:14Z</time>
      </trkpt>
      <trkpt lat="28.5357380" lon="-16.2978170">
        <ele>831.9</ele>
        <time>2020-11-11T09:04:15Z</time>
      </trkpt>
      <trkpt lat="28.5357380" lon="-16.2978170">
        <ele>831.9</ele>
        <time>2020-11-11T09:04:16Z</time>
      </trkpt>
      <trkpt lat="28.5357380" lon="-16.2978880">
        <ele>831.9</ele>
        <time>2020-11-11T09:04:17Z</time>
      </trkpt>
      <trkpt lat="28.5357380" lon="-16.2978880">
        <ele>831.9</ele>
        <time>2020-11-11T09:04:18Z</time>
      </trkpt>
      <trkpt lat="28.5357120" lon="-16.2979800">
        <ele>831.9</ele>
        <time>2020-11-11T09:04:19Z</time>
      </trkpt>
      <trkpt lat="28.5357120" lon="-16.2979800">
        <ele>831.9</ele>
        <time>2020-11-11T09:04:20Z</time>
      </trkpt>
      <trkpt lat="28.5357000" lon="-16.2980770">
        <ele>831.9</ele>
        <time>2020-11-11T09:04:21Z</time>
      </trkpt>
      <trkpt lat="28.5357000" lon="-16.2980770">
        <ele>831.9</ele>
        <time>2020-11-11T09:04:22Z</time>
      </trkpt>
      <trkpt lat="28.5356580" lon="-16.2981570">
        <ele>832.9</ele>
        <time>2020-11-11T09:04:23Z</time>
      </trkpt>
      <trkpt lat="28.5356280" lon="-16.2981980">
        <ele>832.9</ele>
        <time>2020-11-11T09:04:24Z</time>
      </trkpt>
      <trkpt lat="28.5356280" lon="-16.2981980">
        <ele>832.9</ele>
        <time>2020-11-11T09:04:25Z</time>
      </trkpt>
      <trkpt lat="28.5355970" lon="-16.2982520">
        <ele>832.9</ele>
        <time>2020-11-11T09:04:26Z</time>
      </trkpt>
      <trkpt lat="28.5355970" lon="-16.2982520">
        <ele>832.9</ele>
        <time>2020-11-11T09:04:27Z</time>
      </trkpt>
      <trkpt lat="28.5355580" lon="-16.2983150">
        <ele>832.9</ele>
        <time>2020-11-11T09:04:28Z</time>
      </trkpt>
      <trkpt lat="28.5355580" lon="-16.2983150">
        <ele>832.9</ele>
        <time>2020-11-11T09:04:29Z</time>
      </trkpt>
      <trkpt lat="28.5355250" lon="-16.2983700">
        <ele>833.9</ele>
        <time>2020-11-11T09:04:30Z</time>
      </trkpt>
      <trkpt lat="28.5355120" lon="-16.2983970">
        <ele>833.9</ele>
        <time>2020-11-11T09:04:31Z</time>
      </trkpt>
      <trkpt lat="28.5355120" lon="-16.2983970">
        <ele>833.9</ele>
        <time>2020-11-11T09:04:32Z</time>
      </trkpt>
      <trkpt lat="28.5355170" lon="-16.2984470">
        <ele>833.9</ele>
        <time>2020-11-11T09:04:33Z</time>
      </trkpt>
      <trkpt lat="28.5355170" lon="-16.2984470">
        <ele>833.9</ele>
        <time>2020-11-11T09:04:34Z</time>
      </trkpt>
      <trkpt lat="28.5355430" lon="-16.2985230">
        <ele>833.9</ele>
        <time>2020-11-11T09:04:35Z</time>
      </trkpt>
      <trkpt lat="28.5355430" lon="-16.2985230">
        <ele>833.9</ele>
        <time>2020-11-11T09:04:36Z</time>
      </trkpt>
      <trkpt lat="28.5355270" lon="-16.2986120">
        <ele>833.9</ele>
        <time>2020-11-11T09:04:37Z</time>
      </trkpt>
      <trkpt lat="28.5355270" lon="-16.2986120">
        <ele>834.9</ele>
        <time>2020-11-11T09:04:38Z</time>
      </trkpt>
      <trkpt lat="28.5355270" lon="-16.2987220">
        <ele>834.9</ele>
        <time>2020-11-11T09:04:39Z</time>
      </trkpt>
      <trkpt lat="28.5355270" lon="-16.2987220">
        <ele>834.9</ele>
        <time>2020-11-11T09:04:40Z</time>
      </trkpt>
      <trkpt lat="28.5355350" lon="-16.2988170">
        <ele>834.9</ele>
        <time>2020-11-11T09:04:41Z</time>
      </trkpt>
      <trkpt lat="28.5355480" lon="-16.2988480">
        <ele>834.9</ele>
        <time>2020-11-11T09:04:42Z</time>
      </trkpt>
      <trkpt lat="28.5355480" lon="-16.2988480">
        <ele>834.9</ele>
        <time>2020-11-11T09:04:43Z</time>
      </trkpt>
      <trkpt lat="28.5355830" lon="-16.2989070">
        <ele>834.9</ele>
        <time>2020-11-11T09:04:44Z</time>
      </trkpt>
      <trkpt lat="28.5355930" lon="-16.2989280">
        <ele>834.9</ele>
        <time>2020-11-11T09:04:45Z</time>
      </trkpt>
      <trkpt lat="28.5355930" lon="-16.2989280">
        <ele>834.9</ele>
        <time>2020-11-11T09:04:46Z</time>
      </trkpt>
      <trkpt lat="28.5356130" lon="-16.2989670">
        <ele>834.9</ele>
        <time>2020-11-11T09:04:47Z</time>
      </trkpt>
      <trkpt lat="28.5356280" lon="-16.2989800">
        <ele>834.9</ele>
        <time>2020-11-11T09:04:48Z</time>
      </trkpt>
      <trkpt lat="28.5356280" lon="-16.2989800">
        <ele>834.9</ele>
        <time>2020-11-11T09:04:49Z</time>
      </trkpt>
      <trkpt lat="28.5356770" lon="-16.2990180">
        <ele>834.9</ele>
        <time>2020-11-11T09:04:50Z</time>
      </trkpt>
      <trkpt lat="28.5357120" lon="-16.2990250">
        <ele>834.9</ele>
        <time>2020-11-11T09:04:51Z</time>
      </trkpt>
      <trkpt lat="28.5357120" lon="-16.2990250">
        <ele>834.9</ele>
        <time>2020-11-11T09:04:52Z</time>
      </trkpt>
      <trkpt lat="28.5357870" lon="-16.2990480">
        <ele>834.9</ele>
        <time>2020-11-11T09:04:53Z</time>
      </trkpt>
      <trkpt lat="28.5357870" lon="-16.2990480">
        <ele>834.9</ele>
        <time>2020-11-11T09:04:54Z</time>
      </trkpt>
      <trkpt lat="28.5358620" lon="-16.2990550">
        <ele>834.9</ele>
        <time>2020-11-11T09:04:55Z</time>
      </trkpt>
      <trkpt lat="28.5358620" lon="-16.2990550">
        <ele>834.9</ele>
        <time>2020-11-11T09:04:56Z</time>
      </trkpt>
      <trkpt lat="28.5359480" lon="-16.2990820">
        <ele>834.9</ele>
        <time>2020-11-11T09:04:57Z</time>
      </trkpt>
      <trkpt lat="28.5359480" lon="-16.2990820">
        <ele>834.9</ele>
        <time>2020-11-11T09:04:58Z</time>
      </trkpt>
      <trkpt lat="28.5360430" lon="-16.2991230">
        <ele>834.9</ele>
        <time>2020-11-11T09:04:59Z</time>
      </trkpt>
      <trkpt lat="28.5360870" lon="-16.2991430">
        <ele>834.9</ele>
        <time>2020-11-11T09:05:00Z</time>
      </trkpt>
      <trkpt lat="28.5361250" lon="-16.2991630">
        <ele>834.9</ele>
        <time>2020-11-11T09:05:01Z</time>
      </trkpt>
      <trkpt lat="28.5361250" lon="-16.2991630">
        <ele>834.9</ele>
        <time>2020-11-11T09:05:02Z</time>
      </trkpt>
      <trkpt lat="28.5361830" lon="-16.2991930">
        <ele>834.9</ele>
        <time>2020-11-11T09:05:03Z</time>
      </trkpt>
      <trkpt lat="28.5362050" lon="-16.2992120">
        <ele>834.9</ele>
        <time>2020-11-11T09:05:04Z</time>
      </trkpt>
      <trkpt lat="28.5362050" lon="-16.2992120">
        <ele>834.9</ele>
        <time>2020-11-11T09:05:05Z</time>
      </trkpt>
      <trkpt lat="28.5362320" lon="-16.2992270">
        <ele>834.9</ele>
        <time>2020-11-11T09:05:06Z</time>
      </trkpt>
      <trkpt lat="28.5362320" lon="-16.2992270">
        <ele>833.9</ele>
        <time>2020-11-11T09:05:07Z</time>
      </trkpt>
      <trkpt lat="28.5362430" lon="-16.2992280">
        <ele>833.9</ele>
        <time>2020-11-11T09:05:08Z</time>
      </trkpt>
      <trkpt lat="28.5362450" lon="-16.2992300">
        <ele>833.9</ele>
        <time>2020-11-11T09:05:09Z</time>
      </trkpt>
      <trkpt lat="28.5362450" lon="-16.2992300">
        <ele>833.9</ele>
        <time>2020-11-11T09:05:27Z</time>
      </trkpt>
      <trkpt lat="28.5362450" lon="-16.2992300">
        <ele>833.9</ele>
        <time>2020-11-11T09:05:28Z</time>
      </trkpt>
      <trkpt lat="28.5363030" lon="-16.2992780">
        <ele>833.9</ele>
        <time>2020-11-11T09:05:29Z</time>
      </trkpt>
      <trkpt lat="28.5363030" lon="-16.2992780">
        <ele>833.9</ele>
        <time>2020-11-11T09:05:30Z</time>
      </trkpt>
      <trkpt lat="28.5362970" lon="-16.2993450">
        <ele>833.9</ele>
        <time>2020-11-11T09:05:31Z</time>
      </trkpt>
      <trkpt lat="28.5362880" lon="-16.2993720">
        <ele>833.9</ele>
        <time>2020-11-11T09:05:32Z</time>
      </trkpt>
      <trkpt lat="28.5362880" lon="-16.2993720">
        <ele>833.9</ele>
        <time>2020-11-11T09:05:33Z</time>
      </trkpt>
      <trkpt lat="28.5362580" lon="-16.2994370">
        <ele>833.9</ele>
        <time>2020-11-11T09:05:34Z</time>
      </trkpt>
      <trkpt lat="28.5362580" lon="-16.2994370">
        <ele>833.9</ele>
        <time>2020-11-11T09:05:35Z</time>
      </trkpt>
      <trkpt lat="28.5362100" lon="-16.2994900">
        <ele>833.9</ele>
        <time>2020-11-11T09:05:36Z</time>
      </trkpt>
      <trkpt lat="28.5362100" lon="-16.2994900">
        <ele>833.9</ele>
        <time>2020-11-11T09:05:37Z</time>
      </trkpt>
      <trkpt lat="28.5361580" lon="-16.2995600">
        <ele>833.9</ele>
        <time>2020-11-11T09:05:38Z</time>
      </trkpt>
      <trkpt lat="28.5361580" lon="-16.2995600">
        <ele>833.9</ele>
        <time>2020-11-11T09:05:39Z</time>
      </trkpt>
      <trkpt lat="28.5361020" lon="-16.2996280">
        <ele>832.9</ele>
        <time>2020-11-11T09:05:40Z</time>
      </trkpt>
      <trkpt lat="28.5361020" lon="-16.2996280">
        <ele>832.9</ele>
        <time>2020-11-11T09:05:41Z</time>
      </trkpt>
      <trkpt lat="28.5360320" lon="-16.2996950">
        <ele>832.9</ele>
        <time>2020-11-11T09:05:42Z</time>
      </trkpt>
      <trkpt lat="28.5360320" lon="-16.2996950">
        <ele>832.9</ele>
        <time>2020-11-11T09:05:43Z</time>
      </trkpt>
      <trkpt lat="28.5359620" lon="-16.2997830">
        <ele>832.9</ele>
        <time>2020-11-11T09:05:44Z</time>
      </trkpt>
      <trkpt lat="28.5359620" lon="-16.2997830">
        <ele>832.9</ele>
        <time>2020-11-11T09:05:45Z</time>
      </trkpt>
      <trkpt lat="28.5358880" lon="-16.2998650">
        <ele>832.9</ele>
        <time>2020-11-11T09:05:46Z</time>
      </trkpt>
      <trkpt lat="28.5358880" lon="-16.2998650">
        <ele>831.9</ele>
        <time>2020-11-11T09:05:47Z</time>
      </trkpt>
      <trkpt lat="28.5358380" lon="-16.2999500">
        <ele>831.9</ele>
        <time>2020-11-11T09:05:48Z</time>
      </trkpt>
      <trkpt lat="28.5358380" lon="-16.2999500">
        <ele>831.9</ele>
        <time>2020-11-11T09:05:49Z</time>
      </trkpt>
      <trkpt lat="28.5358300" lon="-16.3000300">
        <ele>831.9</ele>
        <time>2020-11-11T09:05:50Z</time>
      </trkpt>
      <trkpt lat="28.5358300" lon="-16.3000300">
        <ele>830.9</ele>
        <time>2020-11-11T09:05:51Z</time>
      </trkpt>
      <trkpt lat="28.5358730" lon="-16.3001230">
        <ele>830.9</ele>
        <time>2020-11-11T09:05:52Z</time>
      </trkpt>
      <trkpt lat="28.5358970" lon="-16.3001570">
        <ele>830.9</ele>
        <time>2020-11-11T09:05:53Z</time>
      </trkpt>
      <trkpt lat="28.5358970" lon="-16.3001570">
        <ele>830.9</ele>
        <time>2020-11-11T09:05:54Z</time>
      </trkpt>
      <trkpt lat="28.5360150" lon="-16.3002130">
        <ele>829.9</ele>
        <time>2020-11-11T09:05:55Z</time>
      </trkpt>
      <trkpt lat="28.5360820" lon="-16.3002500">
        <ele>829.9</ele>
        <time>2020-11-11T09:05:56Z</time>
      </trkpt>
      <trkpt lat="28.5360820" lon="-16.3002500">
        <ele>828.9</ele>
        <time>2020-11-11T09:05:57Z</time>
      </trkpt>
      <trkpt lat="28.5361870" lon="-16.3003350">
        <ele>828.9</ele>
        <time>2020-11-11T09:05:58Z</time>
      </trkpt>
      <trkpt lat="28.5361870" lon="-16.3003350">
        <ele>828.9</ele>
        <time>2020-11-11T09:05:59Z</time>
      </trkpt>
      <trkpt lat="28.5362420" lon="-16.3004550">
        <ele>828.9</ele>
        <time>2020-11-11T09:06:00Z</time>
      </trkpt>
      <trkpt lat="28.5362680" lon="-16.3005400">
        <ele>827.9</ele>
        <time>2020-11-11T09:06:01Z</time>
      </trkpt>
      <trkpt lat="28.5362680" lon="-16.3005400">
        <ele>827.9</ele>
        <time>2020-11-11T09:06:02Z</time>
      </trkpt>
      <trkpt lat="28.5362300" lon="-16.3006670">
        <ele>827.9</ele>
        <time>2020-11-11T09:06:03Z</time>
      </trkpt>
      <trkpt lat="28.5362300" lon="-16.3006670">
        <ele>827.9</ele>
        <time>2020-11-11T09:06:04Z</time>
      </trkpt>
      <trkpt lat="28.5362250" lon="-16.3007830">
        <ele>826.9</ele>
        <time>2020-11-11T09:06:05Z</time>
      </trkpt>
      <trkpt lat="28.5362250" lon="-16.3007830">
        <ele>826.9</ele>
        <time>2020-11-11T09:06:06Z</time>
      </trkpt>
      <trkpt lat="28.5362480" lon="-16.3008920">
        <ele>826.9</ele>
        <time>2020-11-11T09:06:07Z</time>
      </trkpt>
      <trkpt lat="28.5362480" lon="-16.3008920">
        <ele>826.9</ele>
        <time>2020-11-11T09:06:08Z</time>
      </trkpt>
      <trkpt lat="28.5363250" lon="-16.3010080">
        <ele>826.9</ele>
        <time>2020-11-11T09:06:09Z</time>
      </trkpt>
      <trkpt lat="28.5363250" lon="-16.3010080">
        <ele>826.9</ele>
        <time>2020-11-11T09:06:10Z</time>
      </trkpt>
      <trkpt lat="28.5363880" lon="-16.3011070">
        <ele>826.9</ele>
        <time>2020-11-11T09:06:11Z</time>
      </trkpt>
      <trkpt lat="28.5364180" lon="-16.3011450">
        <ele>826.9</ele>
        <time>2020-11-11T09:06:12Z</time>
      </trkpt>
      <trkpt lat="28.5364180" lon="-16.3011450">
        <ele>826.9</ele>
        <time>2020-11-11T09:06:13Z</time>
      </trkpt>
      <trkpt lat="28.5365000" lon="-16.3012400">
        <ele>826.9</ele>
        <time>2020-11-11T09:06:14Z</time>
      </trkpt>
      <trkpt lat="28.5365000" lon="-16.3012400">
        <ele>826.9</ele>
        <time>2020-11-11T09:06:15Z</time>
      </trkpt>
      <trkpt lat="28.5365780" lon="-16.3013500">
        <ele>826.9</ele>
        <time>2020-11-11T09:06:16Z</time>
      </trkpt>
      <trkpt lat="28.5366030" lon="-16.3014070">
        <ele>826.9</ele>
        <time>2020-11-11T09:06:17Z</time>
      </trkpt>
      <trkpt lat="28.5366030" lon="-16.3014070">
        <ele>826.9</ele>
        <time>2020-11-11T09:06:18Z</time>
      </trkpt>
      <trkpt lat="28.5366470" lon="-16.3015080">
        <ele>826.9</ele>
        <time>2020-11-11T09:06:19Z</time>
      </trkpt>
      <trkpt lat="28.5366530" lon="-16.3015620">
        <ele>826.9</ele>
        <time>2020-11-11T09:06:20Z</time>
      </trkpt>
      <trkpt lat="28.5366530" lon="-16.3015620">
        <ele>826.9</ele>
        <time>2020-11-11T09:06:21Z</time>
      </trkpt>
      <trkpt lat="28.5366720" lon="-16.3016650">
        <ele>826.9</ele>
        <time>2020-11-11T09:06:22Z</time>
      </trkpt>
      <trkpt lat="28.5366830" lon="-16.3017400">
        <ele>826.9</ele>
        <time>2020-11-11T09:06:23Z</time>
      </trkpt>
      <trkpt lat="28.5366830" lon="-16.3017400">
        <ele>826.9</ele>
        <time>2020-11-11T09:06:24Z</time>
      </trkpt>
      <trkpt lat="28.5366330" lon="-16.3018380">
        <ele>826.9</ele>
        <time>2020-11-11T09:06:25Z</time>
      </trkpt>
      <trkpt lat="28.5365970" lon="-16.3018580">
        <ele>825.9</ele>
        <time>2020-11-11T09:06:26Z</time>
      </trkpt>
      <trkpt lat="28.5365970" lon="-16.3018580">
        <ele>825.9</ele>
        <time>2020-11-11T09:06:27Z</time>
      </trkpt>
      <trkpt lat="28.5365250" lon="-16.3018550">
        <ele>825.9</ele>
        <time>2020-11-11T09:06:28Z</time>
      </trkpt>
      <trkpt lat="28.5365250" lon="-16.3018550">
        <ele>825.9</ele>
        <time>2020-11-11T09:06:29Z</time>
      </trkpt>
      <trkpt lat="28.5364930" lon="-16.3018530">
        <ele>825.9</ele>
        <time>2020-11-11T09:06:30Z</time>
      </trkpt>
      <trkpt lat="28.5364930" lon="-16.3018530">
        <ele>825.9</ele>
        <time>2020-11-11T09:06:31Z</time>
      </trkpt>
      <trkpt lat="28.5365220" lon="-16.3018730">
        <ele>825.9</ele>
        <time>2020-11-11T09:06:32Z</time>
      </trkpt>
      <trkpt lat="28.5365220" lon="-16.3018730">
        <ele>825.9</ele>
        <time>2020-11-11T09:06:33Z</time>
      </trkpt>
      <trkpt lat="28.5365350" lon="-16.3018780">
        <ele>825.9</ele>
        <time>2020-11-11T09:06:34Z</time>
      </trkpt>
      <trkpt lat="28.5365270" lon="-16.3018920">
        <ele>825.9</ele>
        <time>2020-11-11T09:06:35Z</time>
      </trkpt>
      <trkpt lat="28.5365270" lon="-16.3018920">
        <ele>826.9</ele>
        <time>2020-11-11T09:06:36Z</time>
      </trkpt>
      <trkpt lat="28.5365270" lon="-16.3019080">
        <ele>826.9</ele>
        <time>2020-11-11T09:06:37Z</time>
      </trkpt>
      <trkpt lat="28.5365300" lon="-16.3019400">
        <ele>826.9</ele>
        <time>2020-11-11T09:06:38Z</time>
      </trkpt>
      <trkpt lat="28.5365380" lon="-16.3019720">
        <ele>826.9</ele>
        <time>2020-11-11T09:06:39Z</time>
      </trkpt>
      <trkpt lat="28.5365450" lon="-16.3020050">
        <ele>826.9</ele>
        <time>2020-11-11T09:06:40Z</time>
      </trkpt>
      <trkpt lat="28.5365450" lon="-16.3020050">
        <ele>826.9</ele>
        <time>2020-11-11T09:06:41Z</time>
      </trkpt>
      <trkpt lat="28.5365600" lon="-16.3020470">
        <ele>825.9</ele>
        <time>2020-11-11T09:06:42Z</time>
      </trkpt>
      <trkpt lat="28.5365600" lon="-16.3020470">
        <ele>825.9</ele>
        <time>2020-11-11T09:06:43Z</time>
      </trkpt>
      <trkpt lat="28.5365650" lon="-16.3020620">
        <ele>825.9</ele>
        <time>2020-11-11T09:06:44Z</time>
      </trkpt>
      <trkpt lat="28.5365650" lon="-16.3020620">
        <ele>825.9</ele>
        <time>2020-11-11T09:06:45Z</time>
      </trkpt>
      <trkpt lat="28.5365620" lon="-16.3020770">
        <ele>825.9</ele>
        <time>2020-11-11T09:06:46Z</time>
      </trkpt>
      <trkpt lat="28.5365620" lon="-16.3020770">
        <ele>825.9</ele>
        <time>2020-11-11T09:06:47Z</time>
      </trkpt>
      <trkpt lat="28.5365620" lon="-16.3020770">
        <ele>824.9</ele>
        <time>2020-11-11T09:07:00Z</time>
      </trkpt>
      <trkpt lat="28.5365620" lon="-16.3020770">
        <ele>824.9</ele>
        <time>2020-11-11T09:07:01Z</time>
      </trkpt>
      <trkpt lat="28.5365880" lon="-16.3021050">
        <ele>824.9</ele>
        <time>2020-11-11T09:07:02Z</time>
      </trkpt>
      <trkpt lat="28.5365880" lon="-16.3021050">
        <ele>824.9</ele>
        <time>2020-11-11T09:07:03Z</time>
      </trkpt>
      <trkpt lat="28.5366000" lon="-16.3021050">
        <ele>824.9</ele>
        <time>2020-11-11T09:07:04Z</time>
      </trkpt>
      <trkpt lat="28.5366000" lon="-16.3021050">
        <ele>824.9</ele>
        <time>2020-11-11T09:07:05Z</time>
      </trkpt>
      <trkpt lat="28.5366030" lon="-16.3021080">
        <ele>824.9</ele>
        <time>2020-11-11T09:08:13Z</time>
      </trkpt>
      <trkpt lat="28.5366080" lon="-16.3020680">
        <ele>824.9</ele>
        <time>2020-11-11T09:08:14Z</time>
      </trkpt>
      <trkpt lat="28.5366020" lon="-16.3020520">
        <ele>824.9</ele>
        <time>2020-11-11T09:08:15Z</time>
      </trkpt>
      <trkpt lat="28.5366020" lon="-16.3020520">
        <ele>824.9</ele>
        <time>2020-11-11T09:08:16Z</time>
      </trkpt>
      <trkpt lat="28.5365750" lon="-16.3020130">
        <ele>824.9</ele>
        <time>2020-11-11T09:08:17Z</time>
      </trkpt>
      <trkpt lat="28.5365750" lon="-16.3020130">
        <ele>825.9</ele>
        <time>2020-11-11T09:08:18Z</time>
      </trkpt>
      <trkpt lat="28.5365600" lon="-16.3019780">
        <ele>825.9</ele>
        <time>2020-11-11T09:08:19Z</time>
      </trkpt>
      <trkpt lat="28.5365600" lon="-16.3019780">
        <ele>825.9</ele>
        <time>2020-11-11T09:08:20Z</time>
      </trkpt>
      <trkpt lat="28.5365420" lon="-16.3019520">
        <ele>825.9</ele>
        <time>2020-11-11T09:08:21Z</time>
      </trkpt>
      <trkpt lat="28.5365420" lon="-16.3019520">
        <ele>826.9</ele>
        <time>2020-11-11T09:08:22Z</time>
      </trkpt>
      <trkpt lat="28.5365400" lon="-16.3019200">
        <ele>826.9</ele>
        <time>2020-11-11T09:08:23Z</time>
      </trkpt>
      <trkpt lat="28.5365400" lon="-16.3019200">
        <ele>826.9</ele>
        <time>2020-11-11T09:08:24Z</time>
      </trkpt>
      <trkpt lat="28.5365300" lon="-16.3018780">
        <ele>826.9</ele>
        <time>2020-11-11T09:08:25Z</time>
      </trkpt>
      <trkpt lat="28.5365350" lon="-16.3018600">
        <ele>827.9</ele>
        <time>2020-11-11T09:08:26Z</time>
      </trkpt>
      <trkpt lat="28.5365350" lon="-16.3018600">
        <ele>827.9</ele>
        <time>2020-11-11T09:08:27Z</time>
      </trkpt>
      <trkpt lat="28.5365250" lon="-16.3018200">
        <ele>827.9</ele>
        <time>2020-11-11T09:08:28Z</time>
      </trkpt>
      <trkpt lat="28.5365220" lon="-16.3017980">
        <ele>827.9</ele>
        <time>2020-11-11T09:08:29Z</time>
      </trkpt>
      <trkpt lat="28.5365180" lon="-16.3017820">
        <ele>828.9</ele>
        <time>2020-11-11T09:08:30Z</time>
      </trkpt>
      <trkpt lat="28.5365070" lon="-16.3017550">
        <ele>828.9</ele>
        <time>2020-11-11T09:08:31Z</time>
      </trkpt>
      <trkpt lat="28.5365070" lon="-16.3017550">
        <ele>829.9</ele>
        <time>2020-11-11T09:08:32Z</time>
      </trkpt>
      <trkpt lat="28.5364950" lon="-16.3017070">
        <ele>829.9</ele>
        <time>2020-11-11T09:08:33Z</time>
      </trkpt>
      <trkpt lat="28.5364950" lon="-16.3017070">
        <ele>829.9</ele>
        <time>2020-11-11T09:08:34Z</time>
      </trkpt>
      <trkpt lat="28.5364900" lon="-16.3016730">
        <ele>829.9</ele>
        <time>2020-11-11T09:08:35Z</time>
      </trkpt>
      <trkpt lat="28.5364900" lon="-16.3016730">
        <ele>830.9</ele>
        <time>2020-11-11T09:08:36Z</time>
      </trkpt>
      <trkpt lat="28.5364820" lon="-16.3016430">
        <ele>830.9</ele>
        <time>2020-11-11T09:08:37Z</time>
      </trkpt>
      <trkpt lat="28.5364820" lon="-16.3016430">
        <ele>830.9</ele>
        <time>2020-11-11T09:08:38Z</time>
      </trkpt>
      <trkpt lat="28.5364550" lon="-16.3016150">
        <ele>830.9</ele>
        <time>2020-11-11T09:08:39Z</time>
      </trkpt>
      <trkpt lat="28.5364550" lon="-16.3016150">
        <ele>831.9</ele>
        <time>2020-11-11T09:08:40Z</time>
      </trkpt>
      <trkpt lat="28.5364330" lon="-16.3015930">
        <ele>831.9</ele>
        <time>2020-11-11T09:08:41Z</time>
      </trkpt>
      <trkpt lat="28.5364170" lon="-16.3015850">
        <ele>831.9</ele>
        <time>2020-11-11T09:08:42Z</time>
      </trkpt>
      <trkpt lat="28.5364050" lon="-16.3015730">
        <ele>832.9</ele>
        <time>2020-11-11T09:08:43Z</time>
      </trkpt>
      <trkpt lat="28.5364050" lon="-16.3015730">
        <ele>832.9</ele>
        <time>2020-11-11T09:08:44Z</time>
      </trkpt>
      <trkpt lat="28.5363700" lon="-16.3015680">
        <ele>832.9</ele>
        <time>2020-11-11T09:08:45Z</time>
      </trkpt>
      <trkpt lat="28.5363550" lon="-16.3015700">
        <ele>832.9</ele>
        <time>2020-11-11T09:08:46Z</time>
      </trkpt>
      <trkpt lat="28.5363430" lon="-16.3015500">
        <ele>833.9</ele>
        <time>2020-11-11T09:08:47Z</time>
      </trkpt>
      <trkpt lat="28.5363430" lon="-16.3015500">
        <ele>833.9</ele>
        <time>2020-11-11T09:08:48Z</time>
      </trkpt>
      <trkpt lat="28.5363100" lon="-16.3015420">
        <ele>833.9</ele>
        <time>2020-11-11T09:08:49Z</time>
      </trkpt>
      <trkpt lat="28.5363100" lon="-16.3015420">
        <ele>833.9</ele>
        <time>2020-11-11T09:08:50Z</time>
      </trkpt>
      <trkpt lat="28.5362800" lon="-16.3015370">
        <ele>835.9</ele>
        <time>2020-11-11T09:08:51Z</time>
      </trkpt>
      <trkpt lat="28.5362800" lon="-16.3015370">
        <ele>835.9</ele>
        <time>2020-11-11T09:08:52Z</time>
      </trkpt>
      <trkpt lat="28.5362480" lon="-16.3015420">
        <ele>835.9</ele>
        <time>2020-11-11T09:08:53Z</time>
      </trkpt>
      <trkpt lat="28.5362480" lon="-16.3015420">
        <ele>835.9</ele>
        <time>2020-11-11T09:08:54Z</time>
      </trkpt>
      <trkpt lat="28.5362280" lon="-16.3015550">
        <ele>835.9</ele>
        <time>2020-11-11T09:08:55Z</time>
      </trkpt>
      <trkpt lat="28.5362180" lon="-16.3015600">
        <ele>835.9</ele>
        <time>2020-11-11T09:08:56Z</time>
      </trkpt>
      <trkpt lat="28.5362180" lon="-16.3015600">
        <ele>836.9</ele>
        <time>2020-11-11T09:08:57Z</time>
      </trkpt>
      <trkpt lat="28.5362030" lon="-16.3015720">
        <ele>836.9</ele>
        <time>2020-11-11T09:08:58Z</time>
      </trkpt>
      <trkpt lat="28.5362020" lon="-16.3015830">
        <ele>836.9</ele>
        <time>2020-11-11T09:08:59Z</time>
      </trkpt>
      <trkpt lat="28.5362020" lon="-16.3015830">
        <ele>836.9</ele>
        <time>2020-11-11T09:09:00Z</time>
      </trkpt>
      <trkpt lat="28.5361920" lon="-16.3015980">
        <ele>837.9</ele>
        <time>2020-11-11T09:09:01Z</time>
      </trkpt>
      <trkpt lat="28.5361780" lon="-16.3016030">
        <ele>837.9</ele>
        <time>2020-11-11T09:09:02Z</time>
      </trkpt>
      <trkpt lat="28.5361780" lon="-16.3016030">
        <ele>837.9</ele>
        <time>2020-11-11T09:09:03Z</time>
      </trkpt>
      <trkpt lat="28.5361580" lon="-16.3016200">
        <ele>837.9</ele>
        <time>2020-11-11T09:09:04Z</time>
      </trkpt>
      <trkpt lat="28.5361580" lon="-16.3016200">
        <ele>838.9</ele>
        <time>2020-11-11T09:09:05Z</time>
      </trkpt>
      <trkpt lat="28.5361280" lon="-16.3016180">
        <ele>838.9</ele>
        <time>2020-11-11T09:09:06Z</time>
      </trkpt>
      <trkpt lat="28.5361130" lon="-16.3016200">
        <ele>838.9</ele>
        <time>2020-11-11T09:09:07Z</time>
      </trkpt>
      <trkpt lat="28.5361130" lon="-16.3016200">
        <ele>838.9</ele>
        <time>2020-11-11T09:09:08Z</time>
      </trkpt>
      <trkpt lat="28.5360780" lon="-16.3016200">
        <ele>839.9</ele>
        <time>2020-11-11T09:09:09Z</time>
      </trkpt>
      <trkpt lat="28.5360780" lon="-16.3016200">
        <ele>839.9</ele>
        <time>2020-11-11T09:09:10Z</time>
      </trkpt>
      <trkpt lat="28.5360500" lon="-16.3016150">
        <ele>839.9</ele>
        <time>2020-11-11T09:09:11Z</time>
      </trkpt>
      <trkpt lat="28.5360500" lon="-16.3016150">
        <ele>839.9</ele>
        <time>2020-11-11T09:09:12Z</time>
      </trkpt>
      <trkpt lat="28.5360250" lon="-16.3015980">
        <ele>840.9</ele>
        <time>2020-11-11T09:09:13Z</time>
      </trkpt>
      <trkpt lat="28.5360250" lon="-16.3015980">
        <ele>840.9</ele>
        <time>2020-11-11T09:09:14Z</time>
      </trkpt>
      <trkpt lat="28.5360020" lon="-16.3015820">
        <ele>840.9</ele>
        <time>2020-11-11T09:09:15Z</time>
      </trkpt>
      <trkpt lat="28.5360020" lon="-16.3015820">
        <ele>840.9</ele>
        <time>2020-11-11T09:09:16Z</time>
      </trkpt>
      <trkpt lat="28.5359880" lon="-16.3015670">
        <ele>840.9</ele>
        <time>2020-11-11T09:09:17Z</time>
      </trkpt>
      <trkpt lat="28.5359900" lon="-16.3015580">
        <ele>840.9</ele>
        <time>2020-11-11T09:09:18Z</time>
      </trkpt>
      <trkpt lat="28.5359800" lon="-16.3015450">
        <ele>840.9</ele>
        <time>2020-11-11T09:09:19Z</time>
      </trkpt>
      <trkpt lat="28.5359800" lon="-16.3015450">
        <ele>840.9</ele>
        <time>2020-11-11T09:09:20Z</time>
      </trkpt>
      <trkpt lat="28.5359720" lon="-16.3015150">
        <ele>840.9</ele>
        <time>2020-11-11T09:09:21Z</time>
      </trkpt>
      <trkpt lat="28.5359570" lon="-16.3015070">
        <ele>841.9</ele>
        <time>2020-11-11T09:09:22Z</time>
      </trkpt>
      <trkpt lat="28.5359480" lon="-16.3014970">
        <ele>841.9</ele>
        <time>2020-11-11T09:09:23Z</time>
      </trkpt>
      <trkpt lat="28.5359480" lon="-16.3014970">
        <ele>841.9</ele>
        <time>2020-11-11T09:09:24Z</time>
      </trkpt>
      <trkpt lat="28.5359230" lon="-16.3014770">
        <ele>841.9</ele>
        <time>2020-11-11T09:09:25Z</time>
      </trkpt>
      <trkpt lat="28.5359120" lon="-16.3014670">
        <ele>842.9</ele>
        <time>2020-11-11T09:09:26Z</time>
      </trkpt>
      <trkpt lat="28.5359120" lon="-16.3014670">
        <ele>842.9</ele>
        <time>2020-11-11T09:09:27Z</time>
      </trkpt>
      <trkpt lat="28.5359220" lon="-16.3014550">
        <ele>842.9</ele>
        <time>2020-11-11T09:09:28Z</time>
      </trkpt>
      <trkpt lat="28.5359220" lon="-16.3014550">
        <ele>842.9</ele>
        <time>2020-11-11T09:09:29Z</time>
      </trkpt>
      <trkpt lat="28.5359420" lon="-16.3014870">
        <ele>842.9</ele>
        <time>2020-11-11T09:09:30Z</time>
      </trkpt>
      <trkpt lat="28.5359420" lon="-16.3014870">
        <ele>842.9</ele>
        <time>2020-11-11T09:09:31Z</time>
      </trkpt>
      <trkpt lat="28.5359550" lon="-16.3015270">
        <ele>842.9</ele>
        <time>2020-11-11T09:09:32Z</time>
      </trkpt>
      <trkpt lat="28.5359550" lon="-16.3015270">
        <ele>842.9</ele>
        <time>2020-11-11T09:09:33Z</time>
      </trkpt>
      <trkpt lat="28.5359720" lon="-16.3015850">
        <ele>842.9</ele>
        <time>2020-11-11T09:09:34Z</time>
      </trkpt>
      <trkpt lat="28.5359720" lon="-16.3015850">
        <ele>842.9</ele>
        <time>2020-11-11T09:09:35Z</time>
      </trkpt>
      <trkpt lat="28.5359980" lon="-16.3016350">
        <ele>841.9</ele>
        <time>2020-11-11T09:09:36Z</time>
      </trkpt>
      <trkpt lat="28.5360200" lon="-16.3016400">
        <ele>841.9</ele>
        <time>2020-11-11T09:09:37Z</time>
      </trkpt>
      <trkpt lat="28.5360200" lon="-16.3016400">
        <ele>840.9</ele>
        <time>2020-11-11T09:09:38Z</time>
      </trkpt>
      <trkpt lat="28.5360770" lon="-16.3015900">
        <ele>840.9</ele>
        <time>2020-11-11T09:09:39Z</time>
      </trkpt>
      <trkpt lat="28.5360770" lon="-16.3015900">
        <ele>839.9</ele>
        <time>2020-11-11T09:09:40Z</time>
      </trkpt>
      <trkpt lat="28.5361350" lon="-16.3015330">
        <ele>839.9</ele>
        <time>2020-11-11T09:09:41Z</time>
      </trkpt>
      <trkpt lat="28.5361350" lon="-16.3015330">
        <ele>838.9</ele>
        <time>2020-11-11T09:09:42Z</time>
      </trkpt>
      <trkpt lat="28.5361780" lon="-16.3015020">
        <ele>838.9</ele>
        <time>2020-11-11T09:09:43Z</time>
      </trkpt>
      <trkpt lat="28.5361780" lon="-16.3015020">
        <ele>837.9</ele>
        <time>2020-11-11T09:09:44Z</time>
      </trkpt>
      <trkpt lat="28.5362520" lon="-16.3015030">
        <ele>837.9</ele>
        <time>2020-11-11T09:09:45Z</time>
      </trkpt>
      <trkpt lat="28.5362980" lon="-16.3015180">
        <ele>835.9</ele>
        <time>2020-11-11T09:09:46Z</time>
      </trkpt>
      <trkpt lat="28.5362980" lon="-16.3015180">
        <ele>835.9</ele>
        <time>2020-11-11T09:09:47Z</time>
      </trkpt>
      <trkpt lat="28.5363720" lon="-16.3015830">
        <ele>834.9</ele>
        <time>2020-11-11T09:09:48Z</time>
      </trkpt>
      <trkpt lat="28.5363720" lon="-16.3015830">
        <ele>834.9</ele>
        <time>2020-11-11T09:09:49Z</time>
      </trkpt>
      <trkpt lat="28.5364550" lon="-16.3016480">
        <ele>832.9</ele>
        <time>2020-11-11T09:09:50Z</time>
      </trkpt>
      <trkpt lat="28.5364550" lon="-16.3016480">
        <ele>832.9</ele>
        <time>2020-11-11T09:09:51Z</time>
      </trkpt>
      <trkpt lat="28.5364900" lon="-16.3017480">
        <ele>831.9</ele>
        <time>2020-11-11T09:09:52Z</time>
      </trkpt>
      <trkpt lat="28.5364900" lon="-16.3017480">
        <ele>831.9</ele>
        <time>2020-11-11T09:09:53Z</time>
      </trkpt>
      <trkpt lat="28.5365070" lon="-16.3018580">
        <ele>829.9</ele>
        <time>2020-11-11T09:09:54Z</time>
      </trkpt>
      <trkpt lat="28.5365080" lon="-16.3019030">
        <ele>829.9</ele>
        <time>2020-11-11T09:09:55Z</time>
      </trkpt>
      <trkpt lat="28.5365080" lon="-16.3019030">
        <ele>828.9</ele>
        <time>2020-11-11T09:09:56Z</time>
      </trkpt>
      <trkpt lat="28.5365300" lon="-16.3020000">
        <ele>828.9</ele>
        <time>2020-11-11T09:09:57Z</time>
      </trkpt>
      <trkpt lat="28.5365380" lon="-16.3020330">
        <ele>826.9</ele>
        <time>2020-11-11T09:09:58Z</time>
      </trkpt>
      <trkpt lat="28.5365330" lon="-16.3020620">
        <ele>826.9</ele>
        <time>2020-11-11T09:09:59Z</time>
      </trkpt>
      <trkpt lat="28.5365330" lon="-16.3020620">
        <ele>825.9</ele>
        <time>2020-11-11T09:10:00Z</time>
      </trkpt>
      <trkpt lat="28.5365200" lon="-16.3020900">
        <ele>825.9</ele>
        <time>2020-11-11T09:10:01Z</time>
      </trkpt>
      <trkpt lat="28.5365200" lon="-16.3020900">
        <ele>825.9</ele>
        <time>2020-11-11T09:10:02Z</time>
      </trkpt>
      <trkpt lat="28.5365150" lon="-16.3020980">
        <ele>824.9</ele>
        <time>2020-11-11T09:10:03Z</time>
      </trkpt>
      <trkpt lat="28.5365100" lon="-16.3021080">
        <ele>824.9</ele>
        <time>2020-11-11T09:10:04Z</time>
      </trkpt>
      <trkpt lat="28.5365100" lon="-16.3021080">
        <ele>824.9</ele>
        <time>2020-11-11T09:10:05Z</time>
      </trkpt>
      <trkpt lat="28.5365100" lon="-16.3021350">
        <ele>824.9</ele>
        <time>2020-11-11T09:10:06Z</time>
      </trkpt>
      <trkpt lat="28.5365100" lon="-16.3021350">
        <ele>823.9</ele>
        <time>2020-11-11T09:10:07Z</time>
      </trkpt>
      <trkpt lat="28.5365130" lon="-16.3021700">
        <ele>823.9</ele>
        <time>2020-11-11T09:10:08Z</time>
      </trkpt>
      <trkpt lat="28.5365080" lon="-16.3021870">
        <ele>823.9</ele>
        <time>2020-11-11T09:10:09Z</time>
      </trkpt>
      <trkpt lat="28.5365080" lon="-16.3021870">
        <ele>823.9</ele>
        <time>2020-11-11T09:10:10Z</time>
      </trkpt>
      <trkpt lat="28.5365000" lon="-16.3022100">
        <ele>823.9</ele>
        <time>2020-11-11T09:10:11Z</time>
      </trkpt>
      <trkpt lat="28.5365000" lon="-16.3022100">
        <ele>823.9</ele>
        <time>2020-11-11T09:10:12Z</time>
      </trkpt>
      <trkpt lat="28.5364950" lon="-16.3022330">
        <ele>822.9</ele>
        <time>2020-11-11T09:10:13Z</time>
      </trkpt>
      <trkpt lat="28.5364950" lon="-16.3022330">
        <ele>822.9</ele>
        <time>2020-11-11T09:10:14Z</time>
      </trkpt>
      <trkpt lat="28.5364900" lon="-16.3022530">
        <ele>822.9</ele>
        <time>2020-11-11T09:10:15Z</time>
      </trkpt>
      <trkpt lat="28.5364900" lon="-16.3022530">
        <ele>822.9</ele>
        <time>2020-11-11T09:10:16Z</time>
      </trkpt>
      <trkpt lat="28.5364900" lon="-16.3022650">
        <ele>822.9</ele>
        <time>2020-11-11T09:10:17Z</time>
      </trkpt>
      <trkpt lat="28.5364880" lon="-16.3022680">
        <ele>822.9</ele>
        <time>2020-11-11T09:10:18Z</time>
      </trkpt>
      <trkpt lat="28.5364880" lon="-16.3022680">
        <ele>822.9</ele>
        <time>2020-11-11T09:10:25Z</time>
      </trkpt>
      <trkpt lat="28.5364880" lon="-16.3022680">
        <ele>822.9</ele>
        <time>2020-11-11T09:10:26Z</time>
      </trkpt>
      <trkpt lat="28.5364420" lon="-16.3023820">
        <ele>822.9</ele>
        <time>2020-11-11T09:10:27Z</time>
      </trkpt>
      <trkpt lat="28.5364420" lon="-16.3023820">
        <ele>822.9</ele>
        <time>2020-11-11T09:10:28Z</time>
      </trkpt>
      <trkpt lat="28.5364400" lon="-16.3024350">
        <ele>821.9</ele>
        <time>2020-11-11T09:10:29Z</time>
      </trkpt>
      <trkpt lat="28.5364400" lon="-16.3024350">
        <ele>821.9</ele>
        <time>2020-11-11T09:10:30Z</time>
      </trkpt>
      <trkpt lat="28.5364230" lon="-16.3024800">
        <ele>821.9</ele>
        <time>2020-11-11T09:10:31Z</time>
      </trkpt>
      <trkpt lat="28.5364230" lon="-16.3024800">
        <ele>821.9</ele>
        <time>2020-11-11T09:10:32Z</time>
      </trkpt>
      <trkpt lat="28.5364020" lon="-16.3025520">
        <ele>820.9</ele>
        <time>2020-11-11T09:10:33Z</time>
      </trkpt>
      <trkpt lat="28.5363850" lon="-16.3025930">
        <ele>820.9</ele>
        <time>2020-11-11T09:10:34Z</time>
      </trkpt>
      <trkpt lat="28.5363850" lon="-16.3025930">
        <ele>820.9</ele>
        <time>2020-11-11T09:10:35Z</time>
      </trkpt>
      <trkpt lat="28.5363930" lon="-16.3026570">
        <ele>820.9</ele>
        <time>2020-11-11T09:10:36Z</time>
      </trkpt>
      <trkpt lat="28.5363930" lon="-16.3026570">
        <ele>820.9</ele>
        <time>2020-11-11T09:10:37Z</time>
      </trkpt>
      <trkpt lat="28.5363950" lon="-16.3027230">
        <ele>820.9</ele>
        <time>2020-11-11T09:10:38Z</time>
      </trkpt>
      <trkpt lat="28.5363950" lon="-16.3027230">
        <ele>819.9</ele>
        <time>2020-11-11T09:10:39Z</time>
      </trkpt>
      <trkpt lat="28.5363920" lon="-16.3027900">
        <ele>819.9</ele>
        <time>2020-11-11T09:10:40Z</time>
      </trkpt>
      <trkpt lat="28.5363780" lon="-16.3028370">
        <ele>819.9</ele>
        <time>2020-11-11T09:10:41Z</time>
      </trkpt>
      <trkpt lat="28.5363780" lon="-16.3028370">
        <ele>817.9</ele>
        <time>2020-11-11T09:10:42Z</time>
      </trkpt>
      <trkpt lat="28.5363700" lon="-16.3029080">
        <ele>817.9</ele>
        <time>2020-11-11T09:10:43Z</time>
      </trkpt>
      <trkpt lat="28.5363700" lon="-16.3029080">
        <ele>817.9</ele>
        <time>2020-11-11T09:10:44Z</time>
      </trkpt>
      <trkpt lat="28.5363630" lon="-16.3029720">
        <ele>817.9</ele>
        <time>2020-11-11T09:10:45Z</time>
      </trkpt>
      <trkpt lat="28.5363630" lon="-16.3029720">
        <ele>817.9</ele>
        <time>2020-11-11T09:10:46Z</time>
      </trkpt>
      <trkpt lat="28.5363630" lon="-16.3030250">
        <ele>817.9</ele>
        <time>2020-11-11T09:10:47Z</time>
      </trkpt>
      <trkpt lat="28.5363620" lon="-16.3030600">
        <ele>816.9</ele>
        <time>2020-11-11T09:10:48Z</time>
      </trkpt>
      <trkpt lat="28.5363620" lon="-16.3030600">
        <ele>816.9</ele>
        <time>2020-11-11T09:10:49Z</time>
      </trkpt>
      <trkpt lat="28.5363650" lon="-16.3031100">
        <ele>815.9</ele>
        <time>2020-11-11T09:10:50Z</time>
      </trkpt>
      <trkpt lat="28.5363650" lon="-16.3031100">
        <ele>815.9</ele>
        <time>2020-11-11T09:10:51Z</time>
      </trkpt>
      <trkpt lat="28.5363780" lon="-16.3031650">
        <ele>815.9</ele>
        <time>2020-11-11T09:10:52Z</time>
      </trkpt>
      <trkpt lat="28.5363780" lon="-16.3031650">
        <ele>815.9</ele>
        <time>2020-11-11T09:10:53Z</time>
      </trkpt>
      <trkpt lat="28.5363920" lon="-16.3032280">
        <ele>815.9</ele>
        <time>2020-11-11T09:10:54Z</time>
      </trkpt>
      <trkpt lat="28.5363920" lon="-16.3032280">
        <ele>815.9</ele>
        <time>2020-11-11T09:10:55Z</time>
      </trkpt>
      <trkpt lat="28.5364050" lon="-16.3032870">
        <ele>815.9</ele>
        <time>2020-11-11T09:10:56Z</time>
      </trkpt>
      <trkpt lat="28.5364050" lon="-16.3032870">
        <ele>815.9</ele>
        <time>2020-11-11T09:10:57Z</time>
      </trkpt>
      <trkpt lat="28.5364420" lon="-16.3033450">
        <ele>814.9</ele>
        <time>2020-11-11T09:10:58Z</time>
      </trkpt>
      <trkpt lat="28.5364770" lon="-16.3033980">
        <ele>814.9</ele>
        <time>2020-11-11T09:10:59Z</time>
      </trkpt>
      <trkpt lat="28.5364770" lon="-16.3033980">
        <ele>814.9</ele>
        <time>2020-11-11T09:11:00Z</time>
      </trkpt>
      <trkpt lat="28.5365220" lon="-16.3035050">
        <ele>814.9</ele>
        <time>2020-11-11T09:11:01Z</time>
      </trkpt>
      <trkpt lat="28.5365220" lon="-16.3035050">
        <ele>813.9</ele>
        <time>2020-11-11T09:11:02Z</time>
      </trkpt>
      <trkpt lat="28.5365300" lon="-16.3035750">
        <ele>813.9</ele>
        <time>2020-11-11T09:11:03Z</time>
      </trkpt>
      <trkpt lat="28.5365300" lon="-16.3035750">
        <ele>813.9</ele>
        <time>2020-11-11T09:11:04Z</time>
      </trkpt>
      <trkpt lat="28.5364930" lon="-16.3036820">
        <ele>813.9</ele>
        <time>2020-11-11T09:11:05Z</time>
      </trkpt>
      <trkpt lat="28.5364930" lon="-16.3036820">
        <ele>812.9</ele>
        <time>2020-11-11T09:11:06Z</time>
      </trkpt>
      <trkpt lat="28.5364970" lon="-16.3037620">
        <ele>812.9</ele>
        <time>2020-11-11T09:11:07Z</time>
      </trkpt>
      <trkpt lat="28.5364930" lon="-16.3037920">
        <ele>812.9</ele>
        <time>2020-11-11T09:11:08Z</time>
      </trkpt>
      <trkpt lat="28.5364930" lon="-16.3037920">
        <ele>812.9</ele>
        <time>2020-11-11T09:11:09Z</time>
      </trkpt>
      <trkpt lat="28.5364920" lon="-16.3038370">
        <ele>811.9</ele>
        <time>2020-11-11T09:11:10Z</time>
      </trkpt>
      <trkpt lat="28.5364920" lon="-16.3038370">
        <ele>811.9</ele>
        <time>2020-11-11T09:11:11Z</time>
      </trkpt>
      <trkpt lat="28.5364770" lon="-16.3039250">
        <ele>810.9</ele>
        <time>2020-11-11T09:11:12Z</time>
      </trkpt>
      <trkpt lat="28.5364770" lon="-16.3039530">
        <ele>810.9</ele>
        <time>2020-11-11T09:11:13Z</time>
      </trkpt>
      <trkpt lat="28.5364770" lon="-16.3039530">
        <ele>810.9</ele>
        <time>2020-11-11T09:11:14Z</time>
      </trkpt>
      <trkpt lat="28.5364550" lon="-16.3040230">
        <ele>810.9</ele>
        <time>2020-11-11T09:11:15Z</time>
      </trkpt>
      <trkpt lat="28.5364550" lon="-16.3040230">
        <ele>810.9</ele>
        <time>2020-11-11T09:11:16Z</time>
      </trkpt>
      <trkpt lat="28.5364430" lon="-16.3040800">
        <ele>810.9</ele>
        <time>2020-11-11T09:11:17Z</time>
      </trkpt>
      <trkpt lat="28.5364430" lon="-16.3040800">
        <ele>809.9</ele>
        <time>2020-11-11T09:11:18Z</time>
      </trkpt>
      <trkpt lat="28.5364430" lon="-16.3041630">
        <ele>808.9</ele>
        <time>2020-11-11T09:11:19Z</time>
      </trkpt>
      <trkpt lat="28.5364430" lon="-16.3041630">
        <ele>808.9</ele>
        <time>2020-11-11T09:11:20Z</time>
      </trkpt>
      <trkpt lat="28.5364350" lon="-16.3042320">
        <ele>807.9</ele>
        <time>2020-11-11T09:11:21Z</time>
      </trkpt>
      <trkpt lat="28.5364350" lon="-16.3042320">
        <ele>807.9</ele>
        <time>2020-11-11T09:11:22Z</time>
      </trkpt>
      <trkpt lat="28.5364170" lon="-16.3043030">
        <ele>807.9</ele>
        <time>2020-11-11T09:11:23Z</time>
      </trkpt>
      <trkpt lat="28.5364170" lon="-16.3043030">
        <ele>807.9</ele>
        <time>2020-11-11T09:11:24Z</time>
      </trkpt>
      <trkpt lat="28.5364300" lon="-16.3043700">
        <ele>806.9</ele>
        <time>2020-11-11T09:11:25Z</time>
      </trkpt>
      <trkpt lat="28.5364330" lon="-16.3043950">
        <ele>806.9</ele>
        <time>2020-11-11T09:11:26Z</time>
      </trkpt>
      <trkpt lat="28.5364350" lon="-16.3044320">
        <ele>806.9</ele>
        <time>2020-11-11T09:11:27Z</time>
      </trkpt>
      <trkpt lat="28.5364350" lon="-16.3044320">
        <ele>806.9</ele>
        <time>2020-11-11T09:11:28Z</time>
      </trkpt>
      <trkpt lat="28.5364350" lon="-16.3045070">
        <ele>805.9</ele>
        <time>2020-11-11T09:11:29Z</time>
      </trkpt>
      <trkpt lat="28.5364350" lon="-16.3045070">
        <ele>805.9</ele>
        <time>2020-11-11T09:11:30Z</time>
      </trkpt>
      <trkpt lat="28.5364500" lon="-16.3046120">
        <ele>804.9</ele>
        <time>2020-11-11T09:11:31Z</time>
      </trkpt>
      <trkpt lat="28.5364500" lon="-16.3046120">
        <ele>804.9</ele>
        <time>2020-11-11T09:11:32Z</time>
      </trkpt>
      <trkpt lat="28.5364320" lon="-16.3047370">
        <ele>803.9</ele>
        <time>2020-11-11T09:11:33Z</time>
      </trkpt>
      <trkpt lat="28.5364320" lon="-16.3047370">
        <ele>803.9</ele>
        <time>2020-11-11T09:11:34Z</time>
      </trkpt>
      <trkpt lat="28.5364180" lon="-16.3047980">
        <ele>803.9</ele>
        <time>2020-11-11T09:11:35Z</time>
      </trkpt>
      <trkpt lat="28.5364180" lon="-16.3047980">
        <ele>803.9</ele>
        <time>2020-11-11T09:11:36Z</time>
      </trkpt>
      <trkpt lat="28.5363920" lon="-16.3048880">
        <ele>803.9</ele>
        <time>2020-11-11T09:11:37Z</time>
      </trkpt>
      <trkpt lat="28.5363920" lon="-16.3048880">
        <ele>802.9</ele>
        <time>2020-11-11T09:11:38Z</time>
      </trkpt>
      <trkpt lat="28.5363870" lon="-16.3049500">
        <ele>802.9</ele>
        <time>2020-11-11T09:11:39Z</time>
      </trkpt>
      <trkpt lat="28.5363870" lon="-16.3049500">
        <ele>802.9</ele>
        <time>2020-11-11T09:11:40Z</time>
      </trkpt>
      <trkpt lat="28.5363670" lon="-16.3050320">
        <ele>802.9</ele>
        <time>2020-11-11T09:11:41Z</time>
      </trkpt>
      <trkpt lat="28.5363630" lon="-16.3050530">
        <ele>801.9</ele>
        <time>2020-11-11T09:11:42Z</time>
      </trkpt>
      <trkpt lat="28.5363520" lon="-16.3050880">
        <ele>801.9</ele>
        <time>2020-11-11T09:11:43Z</time>
      </trkpt>
      <trkpt lat="28.5363400" lon="-16.3051230">
        <ele>801.9</ele>
        <time>2020-11-11T09:11:44Z</time>
      </trkpt>
      <trkpt lat="28.5363350" lon="-16.3051400">
        <ele>801.9</ele>
        <time>2020-11-11T09:11:45Z</time>
      </trkpt>
      <trkpt lat="28.5363350" lon="-16.3051400">
        <ele>800.9</ele>
        <time>2020-11-11T09:11:46Z</time>
      </trkpt>
      <trkpt lat="28.5363250" lon="-16.3051880">
        <ele>800.9</ele>
        <time>2020-11-11T09:11:47Z</time>
      </trkpt>
      <trkpt lat="28.5363250" lon="-16.3051880">
        <ele>800.9</ele>
        <time>2020-11-11T09:11:48Z</time>
      </trkpt>
      <trkpt lat="28.5363050" lon="-16.3052450">
        <ele>800.9</ele>
        <time>2020-11-11T09:11:49Z</time>
      </trkpt>
      <trkpt lat="28.5363050" lon="-16.3052450">
        <ele>799.9</ele>
        <time>2020-11-11T09:11:50Z</time>
      </trkpt>
      <trkpt lat="28.5362620" lon="-16.3053180">
        <ele>799.9</ele>
        <time>2020-11-11T09:11:51Z</time>
      </trkpt>
      <trkpt lat="28.5362620" lon="-16.3053180">
        <ele>799.9</ele>
        <time>2020-11-11T09:11:52Z</time>
      </trkpt>
      <trkpt lat="28.5362450" lon="-16.3053520">
        <ele>799.9</ele>
        <time>2020-11-11T09:11:53Z</time>
      </trkpt>
      <trkpt lat="28.5362450" lon="-16.3053520">
        <ele>799.9</ele>
        <time>2020-11-11T09:11:54Z</time>
      </trkpt>
      <trkpt lat="28.5362350" lon="-16.3053850">
        <ele>799.9</ele>
        <time>2020-11-11T09:11:55Z</time>
      </trkpt>
      <trkpt lat="28.5362350" lon="-16.3053850">
        <ele>798.9</ele>
        <time>2020-11-11T09:11:56Z</time>
      </trkpt>
      <trkpt lat="28.5362370" lon="-16.3053870">
        <ele>798.9</ele>
        <time>2020-11-11T09:11:57Z</time>
      </trkpt>
      <trkpt lat="28.5362370" lon="-16.3053870">
        <ele>798.9</ele>
        <time>2020-11-11T09:12:10Z</time>
      </trkpt>
      <trkpt lat="28.5362080" lon="-16.3055170">
        <ele>798.9</ele>
        <time>2020-11-11T09:12:11Z</time>
      </trkpt>
      <trkpt lat="28.5361980" lon="-16.3055300">
        <ele>798.9</ele>
        <time>2020-11-11T09:12:12Z</time>
      </trkpt>
      <trkpt lat="28.5361980" lon="-16.3055300">
        <ele>798.9</ele>
        <time>2020-11-11T09:12:13Z</time>
      </trkpt>
      <trkpt lat="28.5361600" lon="-16.3055670">
        <ele>798.9</ele>
        <time>2020-11-11T09:12:14Z</time>
      </trkpt>
      <trkpt lat="28.5361600" lon="-16.3055670">
        <ele>798.9</ele>
        <time>2020-11-11T09:12:15Z</time>
      </trkpt>
      <trkpt lat="28.5361270" lon="-16.3055970">
        <ele>798.9</ele>
        <time>2020-11-11T09:12:16Z</time>
      </trkpt>
      <trkpt lat="28.5361150" lon="-16.3056120">
        <ele>798.9</ele>
        <time>2020-11-11T09:12:17Z</time>
      </trkpt>
      <trkpt lat="28.5361150" lon="-16.3056120">
        <ele>797.9</ele>
        <time>2020-11-11T09:12:18Z</time>
      </trkpt>
      <trkpt lat="28.5360880" lon="-16.3056520">
        <ele>797.9</ele>
        <time>2020-11-11T09:12:19Z</time>
      </trkpt>
      <trkpt lat="28.5360880" lon="-16.3056520">
        <ele>797.9</ele>
        <time>2020-11-11T09:12:20Z</time>
      </trkpt>
      <trkpt lat="28.5360780" lon="-16.3057000">
        <ele>797.9</ele>
        <time>2020-11-11T09:12:21Z</time>
      </trkpt>
      <trkpt lat="28.5360780" lon="-16.3057000">
        <ele>797.9</ele>
        <time>2020-11-11T09:12:22Z</time>
      </trkpt>
      <trkpt lat="28.5360620" lon="-16.3057550">
        <ele>797.9</ele>
        <time>2020-11-11T09:12:23Z</time>
      </trkpt>
      <trkpt lat="28.5360620" lon="-16.3057550">
        <ele>797.9</ele>
        <time>2020-11-11T09:12:24Z</time>
      </trkpt>
      <trkpt lat="28.5360320" lon="-16.3058030">
        <ele>797.9</ele>
        <time>2020-11-11T09:12:25Z</time>
      </trkpt>
      <trkpt lat="28.5360320" lon="-16.3058030">
        <ele>797.9</ele>
        <time>2020-11-11T09:12:26Z</time>
      </trkpt>
      <trkpt lat="28.5359950" lon="-16.3059030">
        <ele>797.9</ele>
        <time>2020-11-11T09:12:27Z</time>
      </trkpt>
      <trkpt lat="28.5359950" lon="-16.3059030">
        <ele>797.9</ele>
        <time>2020-11-11T09:12:28Z</time>
      </trkpt>
      <trkpt lat="28.5359830" lon="-16.3059780">
        <ele>797.9</ele>
        <time>2020-11-11T09:12:29Z</time>
      </trkpt>
      <trkpt lat="28.5359830" lon="-16.3059780">
        <ele>797.9</ele>
        <time>2020-11-11T09:12:30Z</time>
      </trkpt>
      <trkpt lat="28.5359630" lon="-16.3060720">
        <ele>797.9</ele>
        <time>2020-11-11T09:12:31Z</time>
      </trkpt>
      <trkpt lat="28.5359630" lon="-16.3060720">
        <ele>797.9</ele>
        <time>2020-11-11T09:12:32Z</time>
      </trkpt>
      <trkpt lat="28.5359430" lon="-16.3061530">
        <ele>797.9</ele>
        <time>2020-11-11T09:12:33Z</time>
      </trkpt>
      <trkpt lat="28.5359430" lon="-16.3061530">
        <ele>797.9</ele>
        <time>2020-11-11T09:12:34Z</time>
      </trkpt>
      <trkpt lat="28.5359470" lon="-16.3062280">
        <ele>797.9</ele>
        <time>2020-11-11T09:12:35Z</time>
      </trkpt>
      <trkpt lat="28.5359470" lon="-16.3062280">
        <ele>797.9</ele>
        <time>2020-11-11T09:12:36Z</time>
      </trkpt>
      <trkpt lat="28.5359670" lon="-16.3063020">
        <ele>797.9</ele>
        <time>2020-11-11T09:12:37Z</time>
      </trkpt>
      <trkpt lat="28.5359670" lon="-16.3063020">
        <ele>797.9</ele>
        <time>2020-11-11T09:12:38Z</time>
      </trkpt>
      <trkpt lat="28.5359880" lon="-16.3063680">
        <ele>797.9</ele>
        <time>2020-11-11T09:12:39Z</time>
      </trkpt>
      <trkpt lat="28.5359880" lon="-16.3063680">
        <ele>797.9</ele>
        <time>2020-11-11T09:12:40Z</time>
      </trkpt>
      <trkpt lat="28.5360350" lon="-16.3064470">
        <ele>797.9</ele>
        <time>2020-11-11T09:12:41Z</time>
      </trkpt>
      <trkpt lat="28.5360350" lon="-16.3064470">
        <ele>797.9</ele>
        <time>2020-11-11T09:12:42Z</time>
      </trkpt>
      <trkpt lat="28.5360300" lon="-16.3065480">
        <ele>797.9</ele>
        <time>2020-11-11T09:12:43Z</time>
      </trkpt>
      <trkpt lat="28.5360330" lon="-16.3066220">
        <ele>797.9</ele>
        <time>2020-11-11T09:12:44Z</time>
      </trkpt>
      <trkpt lat="28.5360330" lon="-16.3066220">
        <ele>797.9</ele>
        <time>2020-11-11T09:12:45Z</time>
      </trkpt>
      <trkpt lat="28.5360080" lon="-16.3067420">
        <ele>797.9</ele>
        <time>2020-11-11T09:12:46Z</time>
      </trkpt>
      <trkpt lat="28.5360080" lon="-16.3067420">
        <ele>797.9</ele>
        <time>2020-11-11T09:12:47Z</time>
      </trkpt>
      <trkpt lat="28.5359830" lon="-16.3068080">
        <ele>797.9</ele>
        <time>2020-11-11T09:12:48Z</time>
      </trkpt>
      <trkpt lat="28.5359820" lon="-16.3068370">
        <ele>797.9</ele>
        <time>2020-11-11T09:12:49Z</time>
      </trkpt>
      <trkpt lat="28.5359820" lon="-16.3068370">
        <ele>797.9</ele>
        <time>2020-11-11T09:12:50Z</time>
      </trkpt>
      <trkpt lat="28.5359620" lon="-16.3069030">
        <ele>797.9</ele>
        <time>2020-11-11T09:12:51Z</time>
      </trkpt>
      <trkpt lat="28.5359620" lon="-16.3069030">
        <ele>797.9</ele>
        <time>2020-11-11T09:12:52Z</time>
      </trkpt>
      <trkpt lat="28.5359080" lon="-16.3070170">
        <ele>797.9</ele>
        <time>2020-11-11T09:12:53Z</time>
      </trkpt>
      <trkpt lat="28.5359080" lon="-16.3070170">
        <ele>797.9</ele>
        <time>2020-11-11T09:12:54Z</time>
      </trkpt>
      <trkpt lat="28.5358970" lon="-16.3071080">
        <ele>797.9</ele>
        <time>2020-11-11T09:12:55Z</time>
      </trkpt>
      <trkpt lat="28.5358970" lon="-16.3071080">
        <ele>796.9</ele>
        <time>2020-11-11T09:12:56Z</time>
      </trkpt>
      <trkpt lat="28.5359150" lon="-16.3072050">
        <ele>796.9</ele>
        <time>2020-11-11T09:12:57Z</time>
      </trkpt>
      <trkpt lat="28.5359150" lon="-16.3072050">
        <ele>796.9</ele>
        <time>2020-11-11T09:12:58Z</time>
      </trkpt>
      <trkpt lat="28.5359030" lon="-16.3073130">
        <ele>796.9</ele>
        <time>2020-11-11T09:12:59Z</time>
      </trkpt>
      <trkpt lat="28.5358820" lon="-16.3073650">
        <ele>796.9</ele>
        <time>2020-11-11T09:13:00Z</time>
      </trkpt>
      <trkpt lat="28.5358820" lon="-16.3073650">
        <ele>796.9</ele>
        <time>2020-11-11T09:13:01Z</time>
      </trkpt>
      <trkpt lat="28.5358280" lon="-16.3074470">
        <ele>796.9</ele>
        <time>2020-11-11T09:13:02Z</time>
      </trkpt>
      <trkpt lat="28.5358280" lon="-16.3074470">
        <ele>796.9</ele>
        <time>2020-11-11T09:13:03Z</time>
      </trkpt>
      <trkpt lat="28.5357750" lon="-16.3075120">
        <ele>796.9</ele>
        <time>2020-11-11T09:13:04Z</time>
      </trkpt>
      <trkpt lat="28.5357530" lon="-16.3075380">
        <ele>796.9</ele>
        <time>2020-11-11T09:13:05Z</time>
      </trkpt>
      <trkpt lat="28.5357530" lon="-16.3075380">
        <ele>796.9</ele>
        <time>2020-11-11T09:13:06Z</time>
      </trkpt>
      <trkpt lat="28.5357270" lon="-16.3075850">
        <ele>796.9</ele>
        <time>2020-11-11T09:13:07Z</time>
      </trkpt>
      <trkpt lat="28.5357270" lon="-16.3075850">
        <ele>796.9</ele>
        <time>2020-11-11T09:13:08Z</time>
      </trkpt>
      <trkpt lat="28.5357030" lon="-16.3076380">
        <ele>796.9</ele>
        <time>2020-11-11T09:13:09Z</time>
      </trkpt>
      <trkpt lat="28.5357030" lon="-16.3076380">
        <ele>796.9</ele>
        <time>2020-11-11T09:13:10Z</time>
      </trkpt>
      <trkpt lat="28.5356670" lon="-16.3077020">
        <ele>796.9</ele>
        <time>2020-11-11T09:13:11Z</time>
      </trkpt>
      <trkpt lat="28.5356520" lon="-16.3077480">
        <ele>796.9</ele>
        <time>2020-11-11T09:13:12Z</time>
      </trkpt>
      <trkpt lat="28.5356520" lon="-16.3077480">
        <ele>796.9</ele>
        <time>2020-11-11T09:13:13Z</time>
      </trkpt>
      <trkpt lat="28.5356320" lon="-16.3078130">
        <ele>796.9</ele>
        <time>2020-11-11T09:13:14Z</time>
      </trkpt>
      <trkpt lat="28.5356320" lon="-16.3078130">
        <ele>796.9</ele>
        <time>2020-11-11T09:13:15Z</time>
      </trkpt>
      <trkpt lat="28.5355650" lon="-16.3079250">
        <ele>796.9</ele>
        <time>2020-11-11T09:13:16Z</time>
      </trkpt>
      <trkpt lat="28.5355650" lon="-16.3079250">
        <ele>796.9</ele>
        <time>2020-11-11T09:13:17Z</time>
      </trkpt>
      <trkpt lat="28.5355070" lon="-16.3079730">
        <ele>796.9</ele>
        <time>2020-11-11T09:13:18Z</time>
      </trkpt>
      <trkpt lat="28.5355070" lon="-16.3079730">
        <ele>796.9</ele>
        <time>2020-11-11T09:13:19Z</time>
      </trkpt>
      <trkpt lat="28.5354570" lon="-16.3080050">
        <ele>796.9</ele>
        <time>2020-11-11T09:13:20Z</time>
      </trkpt>
      <trkpt lat="28.5354250" lon="-16.3080150">
        <ele>796.9</ele>
        <time>2020-11-11T09:13:21Z</time>
      </trkpt>
      <trkpt lat="28.5354250" lon="-16.3080150">
        <ele>797.9</ele>
        <time>2020-11-11T09:13:22Z</time>
      </trkpt>
      <trkpt lat="28.5353950" lon="-16.3080020">
        <ele>797.9</ele>
        <time>2020-11-11T09:13:23Z</time>
      </trkpt>
      <trkpt lat="28.5353950" lon="-16.3080020">
        <ele>797.9</ele>
        <time>2020-11-11T09:13:24Z</time>
      </trkpt>
      <trkpt lat="28.5353650" lon="-16.3080100">
        <ele>797.9</ele>
        <time>2020-11-11T09:13:25Z</time>
      </trkpt>
      <trkpt lat="28.5353650" lon="-16.3080100">
        <ele>797.9</ele>
        <time>2020-11-11T09:13:26Z</time>
      </trkpt>
      <trkpt lat="28.5353800" lon="-16.3079650">
        <ele>797.9</ele>
        <time>2020-11-11T09:13:27Z</time>
      </trkpt>
      <trkpt lat="28.5353800" lon="-16.3079650">
        <ele>797.9</ele>
        <time>2020-11-11T09:13:28Z</time>
      </trkpt>
      <trkpt lat="28.5354030" lon="-16.3079350">
        <ele>797.9</ele>
        <time>2020-11-11T09:13:29Z</time>
      </trkpt>
      <trkpt lat="28.5354030" lon="-16.3079350">
        <ele>797.9</ele>
        <time>2020-11-11T09:13:30Z</time>
      </trkpt>
      <trkpt lat="28.5354130" lon="-16.3078950">
        <ele>797.9</ele>
        <time>2020-11-11T09:13:31Z</time>
      </trkpt>
      <trkpt lat="28.5354130" lon="-16.3078950">
        <ele>797.9</ele>
        <time>2020-11-11T09:13:32Z</time>
      </trkpt>
      <trkpt lat="28.5354080" lon="-16.3078500">
        <ele>797.9</ele>
        <time>2020-11-11T09:13:33Z</time>
      </trkpt>
      <trkpt lat="28.5354030" lon="-16.3078270">
        <ele>797.9</ele>
        <time>2020-11-11T09:13:34Z</time>
      </trkpt>
      <trkpt lat="28.5354030" lon="-16.3078270">
        <ele>797.9</ele>
        <time>2020-11-11T09:13:35Z</time>
      </trkpt>
      <trkpt lat="28.5353780" lon="-16.3077780">
        <ele>797.9</ele>
        <time>2020-11-11T09:13:36Z</time>
      </trkpt>
      <trkpt lat="28.5353780" lon="-16.3077780">
        <ele>797.9</ele>
        <time>2020-11-11T09:13:37Z</time>
      </trkpt>
      <trkpt lat="28.5353500" lon="-16.3077270">
        <ele>797.9</ele>
        <time>2020-11-11T09:13:38Z</time>
      </trkpt>
      <trkpt lat="28.5353250" lon="-16.3077030">
        <ele>797.9</ele>
        <time>2020-11-11T09:13:39Z</time>
      </trkpt>
      <trkpt lat="28.5353250" lon="-16.3077030">
        <ele>798.9</ele>
        <time>2020-11-11T09:13:40Z</time>
      </trkpt>
      <trkpt lat="28.5352720" lon="-16.3076370">
        <ele>798.9</ele>
        <time>2020-11-11T09:13:41Z</time>
      </trkpt>
      <trkpt lat="28.5352720" lon="-16.3076370">
        <ele>798.9</ele>
        <time>2020-11-11T09:13:42Z</time>
      </trkpt>
      <trkpt lat="28.5352180" lon="-16.3075570">
        <ele>798.9</ele>
        <time>2020-11-11T09:13:43Z</time>
      </trkpt>
      <trkpt lat="28.5352180" lon="-16.3075570">
        <ele>798.9</ele>
        <time>2020-11-11T09:13:44Z</time>
      </trkpt>
      <trkpt lat="28.5351630" lon="-16.3074730">
        <ele>798.9</ele>
        <time>2020-11-11T09:13:45Z</time>
      </trkpt>
      <trkpt lat="28.5351630" lon="-16.3074730">
        <ele>798.9</ele>
        <time>2020-11-11T09:13:46Z</time>
      </trkpt>
      <trkpt lat="28.5351330" lon="-16.3073700">
        <ele>798.9</ele>
        <time>2020-11-11T09:13:47Z</time>
      </trkpt>
      <trkpt lat="28.5351250" lon="-16.3073150">
        <ele>798.9</ele>
        <time>2020-11-11T09:13:48Z</time>
      </trkpt>
      <trkpt lat="28.5351250" lon="-16.3073150">
        <ele>798.9</ele>
        <time>2020-11-11T09:13:49Z</time>
      </trkpt>
      <trkpt lat="28.5351250" lon="-16.3072070">
        <ele>798.9</ele>
        <time>2020-11-11T09:13:50Z</time>
      </trkpt>
      <trkpt lat="28.5351250" lon="-16.3072070">
        <ele>798.9</ele>
        <time>2020-11-11T09:13:51Z</time>
      </trkpt>
      <trkpt lat="28.5351500" lon="-16.3071050">
        <ele>798.9</ele>
        <time>2020-11-11T09:13:52Z</time>
      </trkpt>
      <trkpt lat="28.5351500" lon="-16.3071050">
        <ele>798.9</ele>
        <time>2020-11-11T09:13:53Z</time>
      </trkpt>
      <trkpt lat="28.5351720" lon="-16.3070050">
        <ele>798.9</ele>
        <time>2020-11-11T09:13:54Z</time>
      </trkpt>
      <trkpt lat="28.5351780" lon="-16.3069500">
        <ele>797.9</ele>
        <time>2020-11-11T09:13:55Z</time>
      </trkpt>
      <trkpt lat="28.5351780" lon="-16.3069500">
        <ele>797.9</ele>
        <time>2020-11-11T09:13:56Z</time>
      </trkpt>
      <trkpt lat="28.5351600" lon="-16.3068580">
        <ele>797.9</ele>
        <time>2020-11-11T09:13:57Z</time>
      </trkpt>
      <trkpt lat="28.5351600" lon="-16.3068580">
        <ele>797.9</ele>
        <time>2020-11-11T09:13:58Z</time>
      </trkpt>
      <trkpt lat="28.5351050" lon="-16.3067730">
        <ele>797.9</ele>
        <time>2020-11-11T09:13:59Z</time>
      </trkpt>
      <trkpt lat="28.5351050" lon="-16.3067730">
        <ele>797.9</ele>
        <time>2020-11-11T09:14:00Z</time>
      </trkpt>
      <trkpt lat="28.5350330" lon="-16.3066880">
        <ele>797.9</ele>
        <time>2020-11-11T09:14:01Z</time>
      </trkpt>
      <trkpt lat="28.5350330" lon="-16.3066880">
        <ele>797.9</ele>
        <time>2020-11-11T09:14:02Z</time>
      </trkpt>
      <trkpt lat="28.5349770" lon="-16.3066050">
        <ele>797.9</ele>
        <time>2020-11-11T09:14:03Z</time>
      </trkpt>
      <trkpt lat="28.5349770" lon="-16.3066050">
        <ele>797.9</ele>
        <time>2020-11-11T09:14:04Z</time>
      </trkpt>
      <trkpt lat="28.5349520" lon="-16.3065150">
        <ele>797.9</ele>
        <time>2020-11-11T09:14:05Z</time>
      </trkpt>
      <trkpt lat="28.5349520" lon="-16.3065150">
        <ele>797.9</ele>
        <time>2020-11-11T09:14:06Z</time>
      </trkpt>
      <trkpt lat="28.5349350" lon="-16.3064250">
        <ele>797.9</ele>
        <time>2020-11-11T09:14:07Z</time>
      </trkpt>
      <trkpt lat="28.5349350" lon="-16.3064250">
        <ele>797.9</ele>
        <time>2020-11-11T09:14:08Z</time>
      </trkpt>
      <trkpt lat="28.5349130" lon="-16.3063220">
        <ele>797.9</ele>
        <time>2020-11-11T09:14:09Z</time>
      </trkpt>
      <trkpt lat="28.5349130" lon="-16.3063220">
        <ele>797.9</ele>
        <time>2020-11-11T09:14:10Z</time>
      </trkpt>
      <trkpt lat="28.5348750" lon="-16.3062180">
        <ele>797.9</ele>
        <time>2020-11-11T09:14:11Z</time>
      </trkpt>
      <trkpt lat="28.5348750" lon="-16.3062180">
        <ele>797.9</ele>
        <time>2020-11-11T09:14:12Z</time>
      </trkpt>
      <trkpt lat="28.5348030" lon="-16.3061120">
        <ele>798.9</ele>
        <time>2020-11-11T09:14:13Z</time>
      </trkpt>
      <trkpt lat="28.5348030" lon="-16.3061120">
        <ele>798.9</ele>
        <time>2020-11-11T09:14:14Z</time>
      </trkpt>
      <trkpt lat="28.5347250" lon="-16.3060100">
        <ele>798.9</ele>
        <time>2020-11-11T09:14:15Z</time>
      </trkpt>
      <trkpt lat="28.5347250" lon="-16.3060100">
        <ele>798.9</ele>
        <time>2020-11-11T09:14:16Z</time>
      </trkpt>
      <trkpt lat="28.5346420" lon="-16.3058980">
        <ele>798.9</ele>
        <time>2020-11-11T09:14:17Z</time>
      </trkpt>
      <trkpt lat="28.5346420" lon="-16.3058980">
        <ele>798.9</ele>
        <time>2020-11-11T09:14:18Z</time>
      </trkpt>
      <trkpt lat="28.5345500" lon="-16.3058100">
        <ele>798.9</ele>
        <time>2020-11-11T09:14:19Z</time>
      </trkpt>
      <trkpt lat="28.5345500" lon="-16.3058100">
        <ele>798.9</ele>
        <time>2020-11-11T09:14:20Z</time>
      </trkpt>
      <trkpt lat="28.5344580" lon="-16.3057520">
        <ele>798.9</ele>
        <time>2020-11-11T09:14:21Z</time>
      </trkpt>
      <trkpt lat="28.5344580" lon="-16.3057520">
        <ele>798.9</ele>
        <time>2020-11-11T09:14:22Z</time>
      </trkpt>
      <trkpt lat="28.5343650" lon="-16.3057000">
        <ele>798.9</ele>
        <time>2020-11-11T09:14:23Z</time>
      </trkpt>
      <trkpt lat="28.5343050" lon="-16.3056850">
        <ele>798.9</ele>
        <time>2020-11-11T09:14:24Z</time>
      </trkpt>
      <trkpt lat="28.5342550" lon="-16.3056630">
        <ele>798.9</ele>
        <time>2020-11-11T09:14:25Z</time>
      </trkpt>
      <trkpt lat="28.5342550" lon="-16.3056630">
        <ele>798.9</ele>
        <time>2020-11-11T09:14:26Z</time>
      </trkpt>
      <trkpt lat="28.5341730" lon="-16.3055850">
        <ele>798.9</ele>
        <time>2020-11-11T09:14:27Z</time>
      </trkpt>
      <trkpt lat="28.5341730" lon="-16.3055850">
        <ele>798.9</ele>
        <time>2020-11-11T09:14:28Z</time>
      </trkpt>
      <trkpt lat="28.5340950" lon="-16.3055020">
        <ele>798.9</ele>
        <time>2020-11-11T09:14:29Z</time>
      </trkpt>
      <trkpt lat="28.5340950" lon="-16.3055020">
        <ele>798.9</ele>
        <time>2020-11-11T09:14:30Z</time>
      </trkpt>
      <trkpt lat="28.5340120" lon="-16.3054550">
        <ele>798.9</ele>
        <time>2020-11-11T09:14:31Z</time>
      </trkpt>
      <trkpt lat="28.5340120" lon="-16.3054550">
        <ele>798.9</ele>
        <time>2020-11-11T09:14:32Z</time>
      </trkpt>
      <trkpt lat="28.5339280" lon="-16.3054120">
        <ele>798.9</ele>
        <time>2020-11-11T09:14:33Z</time>
      </trkpt>
      <trkpt lat="28.5339280" lon="-16.3054120">
        <ele>798.9</ele>
        <time>2020-11-11T09:14:34Z</time>
      </trkpt>
      <trkpt lat="28.5338880" lon="-16.3053330">
        <ele>798.9</ele>
        <time>2020-11-11T09:14:35Z</time>
      </trkpt>
      <trkpt lat="28.5338900" lon="-16.3052870">
        <ele>798.9</ele>
        <time>2020-11-11T09:14:36Z</time>
      </trkpt>
      <trkpt lat="28.5338900" lon="-16.3052870">
        <ele>798.9</ele>
        <time>2020-11-11T09:14:37Z</time>
      </trkpt>
      <trkpt lat="28.5339120" lon="-16.3052020">
        <ele>798.9</ele>
        <time>2020-11-11T09:14:38Z</time>
      </trkpt>
      <trkpt lat="28.5339120" lon="-16.3052020">
        <ele>798.9</ele>
        <time>2020-11-11T09:14:39Z</time>
      </trkpt>
      <trkpt lat="28.5339350" lon="-16.3051050">
        <ele>798.9</ele>
        <time>2020-11-11T09:14:40Z</time>
      </trkpt>
      <trkpt lat="28.5339520" lon="-16.3050520">
        <ele>797.9</ele>
        <time>2020-11-11T09:14:41Z</time>
      </trkpt>
      <trkpt lat="28.5339520" lon="-16.3050520">
        <ele>797.9</ele>
        <time>2020-11-11T09:14:42Z</time>
      </trkpt>
      <trkpt lat="28.5339630" lon="-16.3049280">
        <ele>797.9</ele>
        <time>2020-11-11T09:14:43Z</time>
      </trkpt>
      <trkpt lat="28.5339720" lon="-16.3048620">
        <ele>797.9</ele>
        <time>2020-11-11T09:14:44Z</time>
      </trkpt>
      <trkpt lat="28.5339720" lon="-16.3048620">
        <ele>796.9</ele>
        <time>2020-11-11T09:14:45Z</time>
      </trkpt>
      <trkpt lat="28.5339470" lon="-16.3047200">
        <ele>796.9</ele>
        <time>2020-11-11T09:14:46Z</time>
      </trkpt>
      <trkpt lat="28.5339280" lon="-16.3046530">
        <ele>796.9</ele>
        <time>2020-11-11T09:14:47Z</time>
      </trkpt>
      <trkpt lat="28.5339280" lon="-16.3046530">
        <ele>796.9</ele>
        <time>2020-11-11T09:14:48Z</time>
      </trkpt>
      <trkpt lat="28.5338870" lon="-16.3045130">
        <ele>795.9</ele>
        <time>2020-11-11T09:14:49Z</time>
      </trkpt>
      <trkpt lat="28.5338870" lon="-16.3045130">
        <ele>795.9</ele>
        <time>2020-11-11T09:14:50Z</time>
      </trkpt>
      <trkpt lat="28.5337620" lon="-16.3043750">
        <ele>794.9</ele>
        <time>2020-11-11T09:14:51Z</time>
      </trkpt>
      <trkpt lat="28.5336870" lon="-16.3043100">
        <ele>794.9</ele>
        <time>2020-11-11T09:14:52Z</time>
      </trkpt>
      <trkpt lat="28.5336870" lon="-16.3043100">
        <ele>794.9</ele>
        <time>2020-11-11T09:14:53Z</time>
      </trkpt>
      <trkpt lat="28.5335250" lon="-16.3041780">
        <ele>794.9</ele>
        <time>2020-11-11T09:14:54Z</time>
      </trkpt>
      <trkpt lat="28.5335250" lon="-16.3041780">
        <ele>793.9</ele>
        <time>2020-11-11T09:14:55Z</time>
      </trkpt>
      <trkpt lat="28.5333950" lon="-16.3040720">
        <ele>793.9</ele>
        <time>2020-11-11T09:14:56Z</time>
      </trkpt>
      <trkpt lat="28.5333330" lon="-16.3040300">
        <ele>792.9</ele>
        <time>2020-11-11T09:14:57Z</time>
      </trkpt>
      <trkpt lat="28.5333330" lon="-16.3040300">
        <ele>792.9</ele>
        <time>2020-11-11T09:14:58Z</time>
      </trkpt>
      <trkpt lat="28.5332400" lon="-16.3039450">
        <ele>790.9</ele>
        <time>2020-11-11T09:14:59Z</time>
      </trkpt>
      <trkpt lat="28.5332400" lon="-16.3039450">
        <ele>790.9</ele>
        <time>2020-11-11T09:15:00Z</time>
      </trkpt>
      <trkpt lat="28.5331950" lon="-16.3038450">
        <ele>790.9</ele>
        <time>2020-11-11T09:15:01Z</time>
      </trkpt>
      <trkpt lat="28.5331950" lon="-16.3038450">
        <ele>790.9</ele>
        <time>2020-11-11T09:15:02Z</time>
      </trkpt>
      <trkpt lat="28.5332280" lon="-16.3037450">
        <ele>789.9</ele>
        <time>2020-11-11T09:15:03Z</time>
      </trkpt>
      <trkpt lat="28.5332280" lon="-16.3037450">
        <ele>789.9</ele>
        <time>2020-11-11T09:15:04Z</time>
      </trkpt>
      <trkpt lat="28.5332970" lon="-16.3036380">
        <ele>789.9</ele>
        <time>2020-11-11T09:15:05Z</time>
      </trkpt>
      <trkpt lat="28.5332970" lon="-16.3036380">
        <ele>789.9</ele>
        <time>2020-11-11T09:15:06Z</time>
      </trkpt>
      <trkpt lat="28.5333800" lon="-16.3035450">
        <ele>788.9</ele>
        <time>2020-11-11T09:15:07Z</time>
      </trkpt>
      <trkpt lat="28.5333800" lon="-16.3035450">
        <ele>788.9</ele>
        <time>2020-11-11T09:15:08Z</time>
      </trkpt>
      <trkpt lat="28.5334570" lon="-16.3034920">
        <ele>787.9</ele>
        <time>2020-11-11T09:15:09Z</time>
      </trkpt>
      <trkpt lat="28.5334870" lon="-16.3034720">
        <ele>787.9</ele>
        <time>2020-11-11T09:15:10Z</time>
      </trkpt>
      <trkpt lat="28.5334870" lon="-16.3034720">
        <ele>786.9</ele>
        <time>2020-11-11T09:15:11Z</time>
      </trkpt>
      <trkpt lat="28.5334820" lon="-16.3034230">
        <ele>786.9</ele>
        <time>2020-11-11T09:15:12Z</time>
      </trkpt>
      <trkpt lat="28.5334430" lon="-16.3033970">
        <ele>786.9</ele>
        <time>2020-11-11T09:15:13Z</time>
      </trkpt>
      <trkpt lat="28.5334430" lon="-16.3033970">
        <ele>784.9</ele>
        <time>2020-11-11T09:15:14Z</time>
      </trkpt>
      <trkpt lat="28.5333070" lon="-16.3032970">
        <ele>784.9</ele>
        <time>2020-11-11T09:15:15Z</time>
      </trkpt>
      <trkpt lat="28.5333070" lon="-16.3032970">
        <ele>783.9</ele>
        <time>2020-11-11T09:15:16Z</time>
      </trkpt>
      <trkpt lat="28.5331980" lon="-16.3032070">
        <ele>783.9</ele>
        <time>2020-11-11T09:15:17Z</time>
      </trkpt>
      <trkpt lat="28.5331980" lon="-16.3032070">
        <ele>783.9</ele>
        <time>2020-11-11T09:15:18Z</time>
      </trkpt>
      <trkpt lat="28.5330870" lon="-16.3030930">
        <ele>783.9</ele>
        <time>2020-11-11T09:15:19Z</time>
      </trkpt>
      <trkpt lat="28.5330870" lon="-16.3030930">
        <ele>782.9</ele>
        <time>2020-11-11T09:15:20Z</time>
      </trkpt>
      <trkpt lat="28.5329920" lon="-16.3029800">
        <ele>782.9</ele>
        <time>2020-11-11T09:15:21Z</time>
      </trkpt>
      <trkpt lat="28.5329920" lon="-16.3029800">
        <ele>782.9</ele>
        <time>2020-11-11T09:15:22Z</time>
      </trkpt>
      <trkpt lat="28.5329430" lon="-16.3028450">
        <ele>782.9</ele>
        <time>2020-11-11T09:15:23Z</time>
      </trkpt>
      <trkpt lat="28.5329430" lon="-16.3028450">
        <ele>780.9</ele>
        <time>2020-11-11T09:15:24Z</time>
      </trkpt>
      <trkpt lat="28.5328980" lon="-16.3027200">
        <ele>780.9</ele>
        <time>2020-11-11T09:15:25Z</time>
      </trkpt>
      <trkpt lat="28.5328680" lon="-16.3026700">
        <ele>780.9</ele>
        <time>2020-11-11T09:15:26Z</time>
      </trkpt>
      <trkpt lat="28.5328680" lon="-16.3026700">
        <ele>780.9</ele>
        <time>2020-11-11T09:15:27Z</time>
      </trkpt>
      <trkpt lat="28.5327900" lon="-16.3026070">
        <ele>779.9</ele>
        <time>2020-11-11T09:15:28Z</time>
      </trkpt>
      <trkpt lat="28.5327430" lon="-16.3025880">
        <ele>779.9</ele>
        <time>2020-11-11T09:15:29Z</time>
      </trkpt>
      <trkpt lat="28.5327430" lon="-16.3025880">
        <ele>778.9</ele>
        <time>2020-11-11T09:15:30Z</time>
      </trkpt>
      <trkpt lat="28.5326300" lon="-16.3025970">
        <ele>778.9</ele>
        <time>2020-11-11T09:15:31Z</time>
      </trkpt>
      <trkpt lat="28.5326300" lon="-16.3025970">
        <ele>777.9</ele>
        <time>2020-11-11T09:15:32Z</time>
      </trkpt>
      <trkpt lat="28.5325100" lon="-16.3026470">
        <ele>777.9</ele>
        <time>2020-11-11T09:15:33Z</time>
      </trkpt>
      <trkpt lat="28.5325100" lon="-16.3026470">
        <ele>776.9</ele>
        <time>2020-11-11T09:15:34Z</time>
      </trkpt>
      <trkpt lat="28.5324130" lon="-16.3027130">
        <ele>776.9</ele>
        <time>2020-11-11T09:15:35Z</time>
      </trkpt>
      <trkpt lat="28.5324130" lon="-16.3027130">
        <ele>775.9</ele>
        <time>2020-11-11T09:15:36Z</time>
      </trkpt>
      <trkpt lat="28.5322780" lon="-16.3027620">
        <ele>775.9</ele>
        <time>2020-11-11T09:15:37Z</time>
      </trkpt>
      <trkpt lat="28.5322780" lon="-16.3027620">
        <ele>774.9</ele>
        <time>2020-11-11T09:15:38Z</time>
      </trkpt>
      <trkpt lat="28.5321200" lon="-16.3028180">
        <ele>774.9</ele>
        <time>2020-11-11T09:15:39Z</time>
      </trkpt>
      <trkpt lat="28.5321200" lon="-16.3028180">
        <ele>773.9</ele>
        <time>2020-11-11T09:15:40Z</time>
      </trkpt>
      <trkpt lat="28.5319870" lon="-16.3028420">
        <ele>773.9</ele>
        <time>2020-11-11T09:15:41Z</time>
      </trkpt>
      <trkpt lat="28.5319300" lon="-16.3028250">
        <ele>771.9</ele>
        <time>2020-11-11T09:15:42Z</time>
      </trkpt>
      <trkpt lat="28.5319300" lon="-16.3028250">
        <ele>771.9</ele>
        <time>2020-11-11T09:15:43Z</time>
      </trkpt>
      <trkpt lat="28.5318300" lon="-16.3027350">
        <ele>770.9</ele>
        <time>2020-11-11T09:15:44Z</time>
      </trkpt>
      <trkpt lat="28.5318300" lon="-16.3027350">
        <ele>770.9</ele>
        <time>2020-11-11T09:15:45Z</time>
      </trkpt>
      <trkpt lat="28.5317970" lon="-16.3025730">
        <ele>770.9</ele>
        <time>2020-11-11T09:15:46Z</time>
      </trkpt>
      <trkpt lat="28.5317900" lon="-16.3024800">
        <ele>770.9</ele>
        <time>2020-11-11T09:15:47Z</time>
      </trkpt>
      <trkpt lat="28.5317900" lon="-16.3024800">
        <ele>769.9</ele>
        <time>2020-11-11T09:15:48Z</time>
      </trkpt>
      <trkpt lat="28.5317650" lon="-16.3022980">
        <ele>769.9</ele>
        <time>2020-11-11T09:15:49Z</time>
      </trkpt>
      <trkpt lat="28.5317650" lon="-16.3022980">
        <ele>767.9</ele>
        <time>2020-11-11T09:15:50Z</time>
      </trkpt>
      <trkpt lat="28.5316820" lon="-16.3021800">
        <ele>766.9</ele>
        <time>2020-11-11T09:15:51Z</time>
      </trkpt>
      <trkpt lat="28.5316820" lon="-16.3021800">
        <ele>766.9</ele>
        <time>2020-11-11T09:15:52Z</time>
      </trkpt>
      <trkpt lat="28.5317050" lon="-16.3020220">
        <ele>765.9</ele>
        <time>2020-11-11T09:15:53Z</time>
      </trkpt>
      <trkpt lat="28.5317050" lon="-16.3020220">
        <ele>765.9</ele>
        <time>2020-11-11T09:15:54Z</time>
      </trkpt>
      <trkpt lat="28.5317400" lon="-16.3018570">
        <ele>765.9</ele>
        <time>2020-11-11T09:15:55Z</time>
      </trkpt>
      <trkpt lat="28.5317400" lon="-16.3018570">
        <ele>765.9</ele>
        <time>2020-11-11T09:15:56Z</time>
      </trkpt>
      <trkpt lat="28.5317680" lon="-16.3017030">
        <ele>764.9</ele>
        <time>2020-11-11T09:15:57Z</time>
      </trkpt>
      <trkpt lat="28.5317820" lon="-16.3016350">
        <ele>764.9</ele>
        <time>2020-11-11T09:15:58Z</time>
      </trkpt>
      <trkpt lat="28.5317820" lon="-16.3016350">
        <ele>763.9</ele>
        <time>2020-11-11T09:15:59Z</time>
      </trkpt>
      <trkpt lat="28.5318370" lon="-16.3015230">
        <ele>763.9</ele>
        <time>2020-11-11T09:16:00Z</time>
      </trkpt>
      <trkpt lat="28.5318800" lon="-16.3014620">
        <ele>763.9</ele>
        <time>2020-11-11T09:16:01Z</time>
      </trkpt>
      <trkpt lat="28.5318800" lon="-16.3014620">
        <ele>763.9</ele>
        <time>2020-11-11T09:16:02Z</time>
      </trkpt>
      <trkpt lat="28.5319830" lon="-16.3013620">
        <ele>761.9</ele>
        <time>2020-11-11T09:16:03Z</time>
      </trkpt>
      <trkpt lat="28.5319830" lon="-16.3013620">
        <ele>761.9</ele>
        <time>2020-11-11T09:16:04Z</time>
      </trkpt>
      <trkpt lat="28.5320600" lon="-16.3012700">
        <ele>760.9</ele>
        <time>2020-11-11T09:16:05Z</time>
      </trkpt>
      <trkpt lat="28.5320600" lon="-16.3012700">
        <ele>760.9</ele>
        <time>2020-11-11T09:16:06Z</time>
      </trkpt>
      <trkpt lat="28.5321320" lon="-16.3012070">
        <ele>760.9</ele>
        <time>2020-11-11T09:16:07Z</time>
      </trkpt>
      <trkpt lat="28.5321320" lon="-16.3012070">
        <ele>760.9</ele>
        <time>2020-11-11T09:16:08Z</time>
      </trkpt>
      <trkpt lat="28.5321720" lon="-16.3011280">
        <ele>759.9</ele>
        <time>2020-11-11T09:16:09Z</time>
      </trkpt>
      <trkpt lat="28.5321720" lon="-16.3011280">
        <ele>759.9</ele>
        <time>2020-11-11T09:16:10Z</time>
      </trkpt>
      <trkpt lat="28.5321920" lon="-16.3010380">
        <ele>757.9</ele>
        <time>2020-11-11T09:16:11Z</time>
      </trkpt>
      <trkpt lat="28.5321920" lon="-16.3010380">
        <ele>757.9</ele>
        <time>2020-11-11T09:16:12Z</time>
      </trkpt>
      <trkpt lat="28.5322230" lon="-16.3009580">
        <ele>756.9</ele>
        <time>2020-11-11T09:16:13Z</time>
      </trkpt>
      <trkpt lat="28.5322300" lon="-16.3009270">
        <ele>756.9</ele>
        <time>2020-11-11T09:16:14Z</time>
      </trkpt>
      <trkpt lat="28.5322150" lon="-16.3009050">
        <ele>756.9</ele>
        <time>2020-11-11T09:16:15Z</time>
      </trkpt>
      <trkpt lat="28.5322150" lon="-16.3009050">
        <ele>756.9</ele>
        <time>2020-11-11T09:16:16Z</time>
      </trkpt>
      <trkpt lat="28.5321850" lon="-16.3008930">
        <ele>755.9</ele>
        <time>2020-11-11T09:16:17Z</time>
      </trkpt>
      <trkpt lat="28.5321850" lon="-16.3008930">
        <ele>755.9</ele>
        <time>2020-11-11T09:16:18Z</time>
      </trkpt>
      <trkpt lat="28.5321130" lon="-16.3008480">
        <ele>755.9</ele>
        <time>2020-11-11T09:16:19Z</time>
      </trkpt>
      <trkpt lat="28.5321130" lon="-16.3008480">
        <ele>755.9</ele>
        <time>2020-11-11T09:16:20Z</time>
      </trkpt>
      <trkpt lat="28.5320630" lon="-16.3008430">
        <ele>754.9</ele>
        <time>2020-11-11T09:16:21Z</time>
      </trkpt>
      <trkpt lat="28.5320390" lon="-16.3008010">
        <ele>754.9</ele>
        <time>2020-11-11T09:16:22Z</time>
      </trkpt>
      <trkpt lat="28.5320150" lon="-16.3007600">
        <ele>754.9</ele>
        <time>2020-11-11T09:16:23Z</time>
      </trkpt>
      <trkpt lat="28.5320070" lon="-16.3007600">
        <ele>754.9</ele>
        <time>2020-11-11T09:16:24Z</time>
      </trkpt>
      <trkpt lat="28.5320070" lon="-16.3007600">
        <ele>754.9</ele>
        <time>2020-11-11T09:16:25Z</time>
      </trkpt>
      <trkpt lat="28.5320230" lon="-16.3007570">
        <ele>754.9</ele>
        <time>2020-11-11T09:16:26Z</time>
      </trkpt>
      <trkpt lat="28.5320230" lon="-16.3007570">
        <ele>754.9</ele>
        <time>2020-11-11T09:16:27Z</time>
      </trkpt>
      <trkpt lat="28.5320420" lon="-16.3007780">
        <ele>754.9</ele>
        <time>2020-11-11T09:16:28Z</time>
      </trkpt>
      <trkpt lat="28.5320420" lon="-16.3007780">
        <ele>754.9</ele>
        <time>2020-11-11T09:16:29Z</time>
      </trkpt>
      <trkpt lat="28.5320670" lon="-16.3007820">
        <ele>753.9</ele>
        <time>2020-11-11T09:16:30Z</time>
      </trkpt>
      <trkpt lat="28.5320670" lon="-16.3007820">
        <ele>753.9</ele>
        <time>2020-11-11T09:16:31Z</time>
      </trkpt>
      <trkpt lat="28.5320930" lon="-16.3007750">
        <ele>753.9</ele>
        <time>2020-11-11T09:16:32Z</time>
      </trkpt>
      <trkpt lat="28.5321150" lon="-16.3007720">
        <ele>753.9</ele>
        <time>2020-11-11T09:16:33Z</time>
      </trkpt>
      <trkpt lat="28.5321150" lon="-16.3007720">
        <ele>753.9</ele>
        <time>2020-11-11T09:16:34Z</time>
      </trkpt>
      <trkpt lat="28.5321520" lon="-16.3007780">
        <ele>753.9</ele>
        <time>2020-11-11T09:16:35Z</time>
      </trkpt>
      <trkpt lat="28.5321520" lon="-16.3007780">
        <ele>753.9</ele>
        <time>2020-11-11T09:16:36Z</time>
      </trkpt>
      <trkpt lat="28.5321580" lon="-16.3007800">
        <ele>753.9</ele>
        <time>2020-11-11T09:16:37Z</time>
      </trkpt>
      <trkpt lat="28.5321580" lon="-16.3007800">
        <ele>753.9</ele>
        <time>2020-11-11T09:16:38Z</time>
      </trkpt>
      <trkpt lat="28.5321300" lon="-16.3008100">
        <ele>753.9</ele>
        <time>2020-11-11T09:16:48Z</time>
      </trkpt>
      <trkpt lat="28.5321250" lon="-16.3008180">
        <ele>753.9</ele>
        <time>2020-11-11T09:16:49Z</time>
      </trkpt>
      <trkpt lat="28.5321250" lon="-16.3008180">
        <ele>753.9</ele>
        <time>2020-11-11T09:16:50Z</time>
      </trkpt>
      <trkpt lat="28.5321080" lon="-16.3008180">
        <ele>753.9</ele>
        <time>2020-11-11T09:16:51Z</time>
      </trkpt>
      <trkpt lat="28.5321070" lon="-16.3008130">
        <ele>753.9</ele>
        <time>2020-11-11T09:16:52Z</time>
      </trkpt>
      <trkpt lat="28.5321070" lon="-16.3008130">
        <ele>753.9</ele>
        <time>2020-11-11T09:16:53Z</time>
      </trkpt>
      <trkpt lat="28.5321080" lon="-16.3007950">
        <ele>753.9</ele>
        <time>2020-11-11T09:16:54Z</time>
      </trkpt>
      <trkpt lat="28.5321070" lon="-16.3007880">
        <ele>753.9</ele>
        <time>2020-11-11T09:16:55Z</time>
      </trkpt>
      <trkpt lat="28.5321070" lon="-16.3007880">
        <ele>753.9</ele>
        <time>2020-11-11T09:16:56Z</time>
      </trkpt>
      <trkpt lat="28.5321100" lon="-16.3007870">
        <ele>753.9</ele>
        <time>2020-11-11T09:16:57Z</time>
      </trkpt>
      <trkpt lat="28.5320950" lon="-16.3007820">
        <ele>753.9</ele>
        <time>2020-11-11T09:17:00Z</time>
      </trkpt>
      <trkpt lat="28.5320450" lon="-16.3007630">
        <ele>753.9</ele>
        <time>2020-11-11T09:17:01Z</time>
      </trkpt>
      <trkpt lat="28.5320170" lon="-16.3007520">
        <ele>753.9</ele>
        <time>2020-11-11T09:17:02Z</time>
      </trkpt>
      <trkpt lat="28.5320170" lon="-16.3007520">
        <ele>753.9</ele>
        <time>2020-11-11T09:17:03Z</time>
      </trkpt>
      <trkpt lat="28.5319520" lon="-16.3007170">
        <ele>753.9</ele>
        <time>2020-11-11T09:17:04Z</time>
      </trkpt>
      <trkpt lat="28.5319520" lon="-16.3007170">
        <ele>753.9</ele>
        <time>2020-11-11T09:17:05Z</time>
      </trkpt>
      <trkpt lat="28.5318830" lon="-16.3007100">
        <ele>753.9</ele>
        <time>2020-11-11T09:17:06Z</time>
      </trkpt>
      <trkpt lat="28.5318830" lon="-16.3007100">
        <ele>753.9</ele>
        <time>2020-11-11T09:17:07Z</time>
      </trkpt>
      <trkpt lat="28.5318100" lon="-16.3007000">
        <ele>753.9</ele>
        <time>2020-11-11T09:17:08Z</time>
      </trkpt>
      <trkpt lat="28.5318100" lon="-16.3007000">
        <ele>752.9</ele>
        <time>2020-11-11T09:17:09Z</time>
      </trkpt>
      <trkpt lat="28.5317320" lon="-16.3006880">
        <ele>752.9</ele>
        <time>2020-11-11T09:17:10Z</time>
      </trkpt>
      <trkpt lat="28.5317320" lon="-16.3006880">
        <ele>752.9</ele>
        <time>2020-11-11T09:17:11Z</time>
      </trkpt>
      <trkpt lat="28.5316580" lon="-16.3006750">
        <ele>752.9</ele>
        <time>2020-11-11T09:17:12Z</time>
      </trkpt>
      <trkpt lat="28.5316580" lon="-16.3006750">
        <ele>752.9</ele>
        <time>2020-11-11T09:17:13Z</time>
      </trkpt>
      <trkpt lat="28.5315800" lon="-16.3006430">
        <ele>752.9</ele>
        <time>2020-11-11T09:17:14Z</time>
      </trkpt>
      <trkpt lat="28.5315800" lon="-16.3006430">
        <ele>752.9</ele>
        <time>2020-11-11T09:17:15Z</time>
      </trkpt>
      <trkpt lat="28.5315050" lon="-16.3005930">
        <ele>752.9</ele>
        <time>2020-11-11T09:17:16Z</time>
      </trkpt>
      <trkpt lat="28.5314670" lon="-16.3005630">
        <ele>752.9</ele>
        <time>2020-11-11T09:17:17Z</time>
      </trkpt>
      <trkpt lat="28.5314670" lon="-16.3005630">
        <ele>752.9</ele>
        <time>2020-11-11T09:17:18Z</time>
      </trkpt>
      <trkpt lat="28.5313770" lon="-16.3005150">
        <ele>752.9</ele>
        <time>2020-11-11T09:17:19Z</time>
      </trkpt>
      <trkpt lat="28.5313300" lon="-16.3004930">
        <ele>752.9</ele>
        <time>2020-11-11T09:17:20Z</time>
      </trkpt>
      <trkpt lat="28.5313300" lon="-16.3004930">
        <ele>752.9</ele>
        <time>2020-11-11T09:17:21Z</time>
      </trkpt>
      <trkpt lat="28.5312450" lon="-16.3004670">
        <ele>752.9</ele>
        <time>2020-11-11T09:17:22Z</time>
      </trkpt>
      <trkpt lat="28.5312450" lon="-16.3004670">
        <ele>752.9</ele>
        <time>2020-11-11T09:17:23Z</time>
      </trkpt>
      <trkpt lat="28.5312020" lon="-16.3004030">
        <ele>752.9</ele>
        <time>2020-11-11T09:17:24Z</time>
      </trkpt>
      <trkpt lat="28.5312020" lon="-16.3004030">
        <ele>752.9</ele>
        <time>2020-11-11T09:17:25Z</time>
      </trkpt>
      <trkpt lat="28.5311630" lon="-16.3003230">
        <ele>752.9</ele>
        <time>2020-11-11T09:17:26Z</time>
      </trkpt>
      <trkpt lat="28.5311630" lon="-16.3003230">
        <ele>752.9</ele>
        <time>2020-11-11T09:17:27Z</time>
      </trkpt>
      <trkpt lat="28.5311220" lon="-16.3002550">
        <ele>751.9</ele>
        <time>2020-11-11T09:17:28Z</time>
      </trkpt>
      <trkpt lat="28.5310780" lon="-16.3001980">
        <ele>751.9</ele>
        <time>2020-11-11T09:17:29Z</time>
      </trkpt>
      <trkpt lat="28.5310780" lon="-16.3001980">
        <ele>751.9</ele>
        <time>2020-11-11T09:17:30Z</time>
      </trkpt>
      <trkpt lat="28.5309800" lon="-16.3001000">
        <ele>751.9</ele>
        <time>2020-11-11T09:17:31Z</time>
      </trkpt>
      <trkpt lat="28.5308930" lon="-16.3000450">
        <ele>749.9</ele>
        <time>2020-11-11T09:17:32Z</time>
      </trkpt>
      <trkpt lat="28.5308930" lon="-16.3000450">
        <ele>749.9</ele>
        <time>2020-11-11T09:17:33Z</time>
      </trkpt>
      <trkpt lat="28.5307950" lon="-16.3000170">
        <ele>749.9</ele>
        <time>2020-11-11T09:17:34Z</time>
      </trkpt>
      <trkpt lat="28.5307420" lon="-16.3000070">
        <ele>749.9</ele>
        <time>2020-11-11T09:17:35Z</time>
      </trkpt>
      <trkpt lat="28.5307420" lon="-16.3000070">
        <ele>748.9</ele>
        <time>2020-11-11T09:17:36Z</time>
      </trkpt>
      <trkpt lat="28.5306100" lon="-16.2999920">
        <ele>748.9</ele>
        <time>2020-11-11T09:17:37Z</time>
      </trkpt>
      <trkpt lat="28.5306100" lon="-16.2999920">
        <ele>748.9</ele>
        <time>2020-11-11T09:17:38Z</time>
      </trkpt>
      <trkpt lat="28.5304730" lon="-16.2999380">
        <ele>748.9</ele>
        <time>2020-11-11T09:17:39Z</time>
      </trkpt>
      <trkpt lat="28.5304730" lon="-16.2999380">
        <ele>747.9</ele>
        <time>2020-11-11T09:17:40Z</time>
      </trkpt>
      <trkpt lat="28.5303580" lon="-16.2998950">
        <ele>747.9</ele>
        <time>2020-11-11T09:17:41Z</time>
      </trkpt>
      <trkpt lat="28.5303000" lon="-16.2998730">
        <ele>746.9</ele>
        <time>2020-11-11T09:17:42Z</time>
      </trkpt>
      <trkpt lat="28.5303000" lon="-16.2998730">
        <ele>746.9</ele>
        <time>2020-11-11T09:17:43Z</time>
      </trkpt>
      <trkpt lat="28.5302030" lon="-16.2998100">
        <ele>745.9</ele>
        <time>2020-11-11T09:17:44Z</time>
      </trkpt>
      <trkpt lat="28.5301720" lon="-16.2997720">
        <ele>745.9</ele>
        <time>2020-11-11T09:17:45Z</time>
      </trkpt>
      <trkpt lat="28.5301720" lon="-16.2997720">
        <ele>744.9</ele>
        <time>2020-11-11T09:17:46Z</time>
      </trkpt>
      <trkpt lat="28.5301500" lon="-16.2996700">
        <ele>744.9</ele>
        <time>2020-11-11T09:17:47Z</time>
      </trkpt>
      <trkpt lat="28.5301500" lon="-16.2996700">
        <ele>743.9</ele>
        <time>2020-11-11T09:17:48Z</time>
      </trkpt>
      <trkpt lat="28.5301580" lon="-16.2995980">
        <ele>743.9</ele>
        <time>2020-11-11T09:17:49Z</time>
      </trkpt>
      <trkpt lat="28.5301580" lon="-16.2995980">
        <ele>742.9</ele>
        <time>2020-11-11T09:17:50Z</time>
      </trkpt>
      <trkpt lat="28.5301470" lon="-16.2995330">
        <ele>742.9</ele>
        <time>2020-11-11T09:17:51Z</time>
      </trkpt>
      <trkpt lat="28.5301470" lon="-16.2995330">
        <ele>741.9</ele>
        <time>2020-11-11T09:17:52Z</time>
      </trkpt>
      <trkpt lat="28.5300850" lon="-16.2995180">
        <ele>741.9</ele>
        <time>2020-11-11T09:17:53Z</time>
      </trkpt>
      <trkpt lat="28.5300580" lon="-16.2995250">
        <ele>740.9</ele>
        <time>2020-11-11T09:17:54Z</time>
      </trkpt>
      <trkpt lat="28.5300580" lon="-16.2995250">
        <ele>740.9</ele>
        <time>2020-11-11T09:17:55Z</time>
      </trkpt>
      <trkpt lat="28.5299970" lon="-16.2995720">
        <ele>739.9</ele>
        <time>2020-11-11T09:17:56Z</time>
      </trkpt>
      <trkpt lat="28.5299970" lon="-16.2995720">
        <ele>739.9</ele>
        <time>2020-11-11T09:17:57Z</time>
      </trkpt>
      <trkpt lat="28.5299620" lon="-16.2996270">
        <ele>738.9</ele>
        <time>2020-11-11T09:17:58Z</time>
      </trkpt>
      <trkpt lat="28.5299620" lon="-16.2996270">
        <ele>738.9</ele>
        <time>2020-11-11T09:17:59Z</time>
      </trkpt>
      <trkpt lat="28.5299970" lon="-16.2996820">
        <ele>737.9</ele>
        <time>2020-11-11T09:18:00Z</time>
      </trkpt>
      <trkpt lat="28.5299970" lon="-16.2996820">
        <ele>737.9</ele>
        <time>2020-11-11T09:18:01Z</time>
      </trkpt>
      <trkpt lat="28.5300730" lon="-16.2997300">
        <ele>736.9</ele>
        <time>2020-11-11T09:18:02Z</time>
      </trkpt>
      <trkpt lat="28.5300730" lon="-16.2997300">
        <ele>736.9</ele>
        <time>2020-11-11T09:18:03Z</time>
      </trkpt>
      <trkpt lat="28.5301480" lon="-16.2997880">
        <ele>735.9</ele>
        <time>2020-11-11T09:18:04Z</time>
      </trkpt>
      <trkpt lat="28.5302030" lon="-16.2998320">
        <ele>734.9</ele>
        <time>2020-11-11T09:18:05Z</time>
      </trkpt>
      <trkpt lat="28.5302600" lon="-16.2998850">
        <ele>734.9</ele>
        <time>2020-11-11T09:18:06Z</time>
      </trkpt>
      <trkpt lat="28.5302600" lon="-16.2998850">
        <ele>733.9</ele>
        <time>2020-11-11T09:18:07Z</time>
      </trkpt>
      <trkpt lat="28.5303430" lon="-16.3000070">
        <ele>733.9</ele>
        <time>2020-11-11T09:18:08Z</time>
      </trkpt>
      <trkpt lat="28.5303430" lon="-16.3000070">
        <ele>731.9</ele>
        <time>2020-11-11T09:18:09Z</time>
      </trkpt>
      <trkpt lat="28.5304520" lon="-16.3000850">
        <ele>731.9</ele>
        <time>2020-11-11T09:18:10Z</time>
      </trkpt>
      <trkpt lat="28.5304520" lon="-16.3000850">
        <ele>730.9</ele>
        <time>2020-11-11T09:18:11Z</time>
      </trkpt>
      <trkpt lat="28.5305250" lon="-16.3002820">
        <ele>730.9</ele>
        <time>2020-11-11T09:18:12Z</time>
      </trkpt>
      <trkpt lat="28.5305250" lon="-16.3002820">
        <ele>729.9</ele>
        <time>2020-11-11T09:18:13Z</time>
      </trkpt>
      <trkpt lat="28.5306170" lon="-16.3004170">
        <ele>729.9</ele>
        <time>2020-11-11T09:18:14Z</time>
      </trkpt>
      <trkpt lat="28.5306170" lon="-16.3004170">
        <ele>727.9</ele>
        <time>2020-11-11T09:18:15Z</time>
      </trkpt>
      <trkpt lat="28.5307170" lon="-16.3005870">
        <ele>727.9</ele>
        <time>2020-11-11T09:18:16Z</time>
      </trkpt>
      <trkpt lat="28.5307580" lon="-16.3006620">
        <ele>726.9</ele>
        <time>2020-11-11T09:18:17Z</time>
      </trkpt>
      <trkpt lat="28.5307580" lon="-16.3006620">
        <ele>726.9</ele>
        <time>2020-11-11T09:18:18Z</time>
      </trkpt>
      <trkpt lat="28.5308630" lon="-16.3008180">
        <ele>725.9</ele>
        <time>2020-11-11T09:18:19Z</time>
      </trkpt>
      <trkpt lat="28.5309250" lon="-16.3008780">
        <ele>725.9</ele>
        <time>2020-11-11T09:18:20Z</time>
      </trkpt>
      <trkpt lat="28.5309250" lon="-16.3008780">
        <ele>724.9</ele>
        <time>2020-11-11T09:18:21Z</time>
      </trkpt>
      <trkpt lat="28.5310670" lon="-16.3009470">
        <ele>724.9</ele>
        <time>2020-11-11T09:18:22Z</time>
      </trkpt>
      <trkpt lat="28.5311130" lon="-16.3010020">
        <ele>723.9</ele>
        <time>2020-11-11T09:18:23Z</time>
      </trkpt>
      <trkpt lat="28.5311450" lon="-16.3010580">
        <ele>723.9</ele>
        <time>2020-11-11T09:18:24Z</time>
      </trkpt>
      <trkpt lat="28.5311450" lon="-16.3010580">
        <ele>722.9</ele>
        <time>2020-11-11T09:18:25Z</time>
      </trkpt>
      <trkpt lat="28.5311300" lon="-16.3012470">
        <ele>722.9</ele>
        <time>2020-11-11T09:18:26Z</time>
      </trkpt>
      <trkpt lat="28.5311220" lon="-16.3012970">
        <ele>721.9</ele>
        <time>2020-11-11T09:18:27Z</time>
      </trkpt>
      <trkpt lat="28.5311220" lon="-16.3012970">
        <ele>721.9</ele>
        <time>2020-11-11T09:18:28Z</time>
      </trkpt>
      <trkpt lat="28.5310150" lon="-16.3013750">
        <ele>720.9</ele>
        <time>2020-11-11T09:18:29Z</time>
      </trkpt>
      <trkpt lat="28.5310150" lon="-16.3013750">
        <ele>720.9</ele>
        <time>2020-11-11T09:18:30Z</time>
      </trkpt>
      <trkpt lat="28.5309250" lon="-16.3014830">
        <ele>719.9</ele>
        <time>2020-11-11T09:18:31Z</time>
      </trkpt>
      <trkpt lat="28.5308650" lon="-16.3015470">
        <ele>719.9</ele>
        <time>2020-11-11T09:18:32Z</time>
      </trkpt>
      <trkpt lat="28.5308650" lon="-16.3015470">
        <ele>718.9</ele>
        <time>2020-11-11T09:18:33Z</time>
      </trkpt>
      <trkpt lat="28.5307300" lon="-16.3016900">
        <ele>718.9</ele>
        <time>2020-11-11T09:18:34Z</time>
      </trkpt>
      <trkpt lat="28.5307300" lon="-16.3016900">
        <ele>717.9</ele>
        <time>2020-11-11T09:18:35Z</time>
      </trkpt>
      <trkpt lat="28.5306100" lon="-16.3018250">
        <ele>717.9</ele>
        <time>2020-11-11T09:18:36Z</time>
      </trkpt>
      <trkpt lat="28.5305670" lon="-16.3018980">
        <ele>716.9</ele>
        <time>2020-11-11T09:18:37Z</time>
      </trkpt>
      <trkpt lat="28.5305470" lon="-16.3019670">
        <ele>716.9</ele>
        <time>2020-11-11T09:18:38Z</time>
      </trkpt>
      <trkpt lat="28.5305470" lon="-16.3019670">
        <ele>714.9</ele>
        <time>2020-11-11T09:18:39Z</time>
      </trkpt>
      <trkpt lat="28.5306300" lon="-16.3021130">
        <ele>714.9</ele>
        <time>2020-11-11T09:18:40Z</time>
      </trkpt>
      <trkpt lat="28.5306300" lon="-16.3021130">
        <ele>713.9</ele>
        <time>2020-11-11T09:18:41Z</time>
      </trkpt>
      <trkpt lat="28.5307780" lon="-16.3022270">
        <ele>713.9</ele>
        <time>2020-11-11T09:18:42Z</time>
      </trkpt>
      <trkpt lat="28.5307780" lon="-16.3022270">
        <ele>711.9</ele>
        <time>2020-11-11T09:18:43Z</time>
      </trkpt>
      <trkpt lat="28.5308930" lon="-16.3023320">
        <ele>709.9</ele>
        <time>2020-11-11T09:18:44Z</time>
      </trkpt>
      <trkpt lat="28.5308930" lon="-16.3023320">
        <ele>709.9</ele>
        <time>2020-11-11T09:18:45Z</time>
      </trkpt>
      <trkpt lat="28.5309230" lon="-16.3024970">
        <ele>708.9</ele>
        <time>2020-11-11T09:18:46Z</time>
      </trkpt>
      <trkpt lat="28.5309230" lon="-16.3024970">
        <ele>708.9</ele>
        <time>2020-11-11T09:18:47Z</time>
      </trkpt>
      <trkpt lat="28.5309000" lon="-16.3027220">
        <ele>706.9</ele>
        <time>2020-11-11T09:18:48Z</time>
      </trkpt>
      <trkpt lat="28.5309270" lon="-16.3027980">
        <ele>706.9</ele>
        <time>2020-11-11T09:18:49Z</time>
      </trkpt>
      <trkpt lat="28.5309270" lon="-16.3027980">
        <ele>704.9</ele>
        <time>2020-11-11T09:18:50Z</time>
      </trkpt>
      <trkpt lat="28.5309800" lon="-16.3030130">
        <ele>704.9</ele>
        <time>2020-11-11T09:18:51Z</time>
      </trkpt>
      <trkpt lat="28.5310050" lon="-16.3031270">
        <ele>703.9</ele>
        <time>2020-11-11T09:18:52Z</time>
      </trkpt>
      <trkpt lat="28.5310400" lon="-16.3032170">
        <ele>703.9</ele>
        <time>2020-11-11T09:18:53Z</time>
      </trkpt>
      <trkpt lat="28.5310400" lon="-16.3032170">
        <ele>701.9</ele>
        <time>2020-11-11T09:18:54Z</time>
      </trkpt>
      <trkpt lat="28.5310930" lon="-16.3034050">
        <ele>701.9</ele>
        <time>2020-11-11T09:18:55Z</time>
      </trkpt>
      <trkpt lat="28.5311200" lon="-16.3034830">
        <ele>699.9</ele>
        <time>2020-11-11T09:18:56Z</time>
      </trkpt>
      <trkpt lat="28.5311200" lon="-16.3034830">
        <ele>699.9</ele>
        <time>2020-11-11T09:18:57Z</time>
      </trkpt>
      <trkpt lat="28.5312070" lon="-16.3036150">
        <ele>698.9</ele>
        <time>2020-11-11T09:18:58Z</time>
      </trkpt>
      <trkpt lat="28.5312520" lon="-16.3036650">
        <ele>698.9</ele>
        <time>2020-11-11T09:18:59Z</time>
      </trkpt>
      <trkpt lat="28.5312520" lon="-16.3036650">
        <ele>696.9</ele>
        <time>2020-11-11T09:19:00Z</time>
      </trkpt>
      <trkpt lat="28.5313450" lon="-16.3037380">
        <ele>696.9</ele>
        <time>2020-11-11T09:19:01Z</time>
      </trkpt>
      <trkpt lat="28.5313580" lon="-16.3037720">
        <ele>695.9</ele>
        <time>2020-11-11T09:19:02Z</time>
      </trkpt>
      <trkpt lat="28.5313580" lon="-16.3037720">
        <ele>695.9</ele>
        <time>2020-11-11T09:19:03Z</time>
      </trkpt>
      <trkpt lat="28.5313300" lon="-16.3039080">
        <ele>694.9</ele>
        <time>2020-11-11T09:19:04Z</time>
      </trkpt>
      <trkpt lat="28.5313170" lon="-16.3039500">
        <ele>694.9</ele>
        <time>2020-11-11T09:19:05Z</time>
      </trkpt>
      <trkpt lat="28.5313170" lon="-16.3039500">
        <ele>693.9</ele>
        <time>2020-11-11T09:19:06Z</time>
      </trkpt>
      <trkpt lat="28.5312820" lon="-16.3040770">
        <ele>693.9</ele>
        <time>2020-11-11T09:19:07Z</time>
      </trkpt>
      <trkpt lat="28.5312450" lon="-16.3041830">
        <ele>692.9</ele>
        <time>2020-11-11T09:19:08Z</time>
      </trkpt>
      <trkpt lat="28.5312250" lon="-16.3042550">
        <ele>692.9</ele>
        <time>2020-11-11T09:19:09Z</time>
      </trkpt>
      <trkpt lat="28.5312250" lon="-16.3042550">
        <ele>691.9</ele>
        <time>2020-11-11T09:19:10Z</time>
      </trkpt>
      <trkpt lat="28.5311270" lon="-16.3044550">
        <ele>691.9</ele>
        <time>2020-11-11T09:19:11Z</time>
      </trkpt>
      <trkpt lat="28.5311270" lon="-16.3044550">
        <ele>689.9</ele>
        <time>2020-11-11T09:19:12Z</time>
      </trkpt>
      <trkpt lat="28.5310330" lon="-16.3045780">
        <ele>689.9</ele>
        <time>2020-11-11T09:19:13Z</time>
      </trkpt>
      <trkpt lat="28.5310070" lon="-16.3046020">
        <ele>688.9</ele>
        <time>2020-11-11T09:19:14Z</time>
      </trkpt>
      <trkpt lat="28.5310070" lon="-16.3046020">
        <ele>688.9</ele>
        <time>2020-11-11T09:19:15Z</time>
      </trkpt>
      <trkpt lat="28.5309350" lon="-16.3046620">
        <ele>687.9</ele>
        <time>2020-11-11T09:19:16Z</time>
      </trkpt>
      <trkpt lat="28.5309350" lon="-16.3046620">
        <ele>687.9</ele>
        <time>2020-11-11T09:19:17Z</time>
      </trkpt>
      <trkpt lat="28.5308950" lon="-16.3047980">
        <ele>685.9</ele>
        <time>2020-11-11T09:19:18Z</time>
      </trkpt>
      <trkpt lat="28.5308950" lon="-16.3047980">
        <ele>685.9</ele>
        <time>2020-11-11T09:19:19Z</time>
      </trkpt>
      <trkpt lat="28.5309420" lon="-16.3049880">
        <ele>685.9</ele>
        <time>2020-11-11T09:19:20Z</time>
      </trkpt>
      <trkpt lat="28.5309420" lon="-16.3049880">
        <ele>685.9</ele>
        <time>2020-11-11T09:19:21Z</time>
      </trkpt>
      <trkpt lat="28.5310630" lon="-16.3051250">
        <ele>684.9</ele>
        <time>2020-11-11T09:19:22Z</time>
      </trkpt>
      <trkpt lat="28.5310630" lon="-16.3051250">
        <ele>682.9</ele>
        <time>2020-11-11T09:19:23Z</time>
      </trkpt>
      <trkpt lat="28.5312620" lon="-16.3052350">
        <ele>682.9</ele>
        <time>2020-11-11T09:19:24Z</time>
      </trkpt>
      <trkpt lat="28.5312620" lon="-16.3052350">
        <ele>681.9</ele>
        <time>2020-11-11T09:19:25Z</time>
      </trkpt>
      <trkpt lat="28.5312620" lon="-16.3052350">
        <ele>681.9</ele>
        <time>2020-11-11T09:19:26Z</time>
      </trkpt>
      <trkpt lat="28.5314100" lon="-16.3052170">
        <ele>679.9</ele>
        <time>2020-11-11T09:19:27Z</time>
      </trkpt>
      <trkpt lat="28.5314100" lon="-16.3052170">
        <ele>679.9</ele>
        <time>2020-11-11T09:19:28Z</time>
      </trkpt>
      <trkpt lat="28.5315200" lon="-16.3052120">
        <ele>677.9</ele>
        <time>2020-11-11T09:19:29Z</time>
      </trkpt>
      <trkpt lat="28.5315200" lon="-16.3052120">
        <ele>677.9</ele>
        <time>2020-11-11T09:19:30Z</time>
      </trkpt>
      <trkpt lat="28.5316380" lon="-16.3052100">
        <ele>675.9</ele>
        <time>2020-11-11T09:19:31Z</time>
      </trkpt>
      <trkpt lat="28.5316850" lon="-16.3052500">
        <ele>675.9</ele>
        <time>2020-11-11T09:19:32Z</time>
      </trkpt>
      <trkpt lat="28.5316850" lon="-16.3052500">
        <ele>673.9</ele>
        <time>2020-11-11T09:19:33Z</time>
      </trkpt>
      <trkpt lat="28.5318070" lon="-16.3053650">
        <ele>673.9</ele>
        <time>2020-11-11T09:19:34Z</time>
      </trkpt>
      <trkpt lat="28.5318070" lon="-16.3053650">
        <ele>672.9</ele>
        <time>2020-11-11T09:19:35Z</time>
      </trkpt>
      <trkpt lat="28.5319630" lon="-16.3054830">
        <ele>672.9</ele>
        <time>2020-11-11T09:19:36Z</time>
      </trkpt>
      <trkpt lat="28.5320420" lon="-16.3055250">
        <ele>670.9</ele>
        <time>2020-11-11T09:19:37Z</time>
      </trkpt>
      <trkpt lat="28.5321050" lon="-16.3055600">
        <ele>670.9</ele>
        <time>2020-11-11T09:19:38Z</time>
      </trkpt>
      <trkpt lat="28.5321050" lon="-16.3055600">
        <ele>667.9</ele>
        <time>2020-11-11T09:19:39Z</time>
      </trkpt>
      <trkpt lat="28.5321920" lon="-16.3056730">
        <ele>667.9</ele>
        <time>2020-11-11T09:19:40Z</time>
      </trkpt>
      <trkpt lat="28.5321950" lon="-16.3057430">
        <ele>666.9</ele>
        <time>2020-11-11T09:19:41Z</time>
      </trkpt>
      <trkpt lat="28.5321950" lon="-16.3057430">
        <ele>666.9</ele>
        <time>2020-11-11T09:19:42Z</time>
      </trkpt>
      <trkpt lat="28.5321020" lon="-16.3059570">
        <ele>664.9</ele>
        <time>2020-11-11T09:19:43Z</time>
      </trkpt>
      <trkpt lat="28.5321020" lon="-16.3059570">
        <ele>664.9</ele>
        <time>2020-11-11T09:19:44Z</time>
      </trkpt>
      <trkpt lat="28.5319820" lon="-16.3060230">
        <ele>663.9</ele>
        <time>2020-11-11T09:19:45Z</time>
      </trkpt>
      <trkpt lat="28.5319100" lon="-16.3060450">
        <ele>663.9</ele>
        <time>2020-11-11T09:19:46Z</time>
      </trkpt>
      <trkpt lat="28.5319100" lon="-16.3060450">
        <ele>662.9</ele>
        <time>2020-11-11T09:19:47Z</time>
      </trkpt>
      <trkpt lat="28.5317420" lon="-16.3059650">
        <ele>662.9</ele>
        <time>2020-11-11T09:19:48Z</time>
      </trkpt>
      <trkpt lat="28.5317420" lon="-16.3059650">
        <ele>662.9</ele>
        <time>2020-11-11T09:19:49Z</time>
      </trkpt>
      <trkpt lat="28.5316100" lon="-16.3060150">
        <ele>662.9</ele>
        <time>2020-11-11T09:19:50Z</time>
      </trkpt>
      <trkpt lat="28.5316100" lon="-16.3060150">
        <ele>660.9</ele>
        <time>2020-11-11T09:19:51Z</time>
      </trkpt>
      <trkpt lat="28.5315050" lon="-16.3060750">
        <ele>660.9</ele>
        <time>2020-11-11T09:19:52Z</time>
      </trkpt>
      <trkpt lat="28.5315050" lon="-16.3060750">
        <ele>660.9</ele>
        <time>2020-11-11T09:19:53Z</time>
      </trkpt>
      <trkpt lat="28.5314580" lon="-16.3060300">
        <ele>660.9</ele>
        <time>2020-11-11T09:19:54Z</time>
      </trkpt>
      <trkpt lat="28.5314580" lon="-16.3060300">
        <ele>658.9</ele>
        <time>2020-11-11T09:19:55Z</time>
      </trkpt>
      <trkpt lat="28.5314820" lon="-16.3059650">
        <ele>658.9</ele>
        <time>2020-11-11T09:19:56Z</time>
      </trkpt>
      <trkpt lat="28.5314820" lon="-16.3059650">
        <ele>658.9</ele>
        <time>2020-11-11T09:19:57Z</time>
      </trkpt>
      <trkpt lat="28.5315570" lon="-16.3058970">
        <ele>658.9</ele>
        <time>2020-11-11T09:19:58Z</time>
      </trkpt>
      <trkpt lat="28.5315770" lon="-16.3058550">
        <ele>657.9</ele>
        <time>2020-11-11T09:19:59Z</time>
      </trkpt>
      <trkpt lat="28.5315970" lon="-16.3058080">
        <ele>657.9</ele>
        <time>2020-11-11T09:20:00Z</time>
      </trkpt>
      <trkpt lat="28.5315970" lon="-16.3058080">
        <ele>656.9</ele>
        <time>2020-11-11T09:20:01Z</time>
      </trkpt>
      <trkpt lat="28.5315370" lon="-16.3057330">
        <ele>655.9</ele>
        <time>2020-11-11T09:20:02Z</time>
      </trkpt>
      <trkpt lat="28.5315370" lon="-16.3057330">
        <ele>655.9</ele>
        <time>2020-11-11T09:20:03Z</time>
      </trkpt>
      <trkpt lat="28.5314400" lon="-16.3057030">
        <ele>655.9</ele>
        <time>2020-11-11T09:20:04Z</time>
      </trkpt>
      <trkpt lat="28.5314400" lon="-16.3057030">
        <ele>654.9</ele>
        <time>2020-11-11T09:20:05Z</time>
      </trkpt>
      <trkpt lat="28.5313180" lon="-16.3057080">
        <ele>654.9</ele>
        <time>2020-11-11T09:20:06Z</time>
      </trkpt>
      <trkpt lat="28.5312580" lon="-16.3057380">
        <ele>652.9</ele>
        <time>2020-11-11T09:20:07Z</time>
      </trkpt>
      <trkpt lat="28.5311880" lon="-16.3058000">
        <ele>652.9</ele>
        <time>2020-11-11T09:20:08Z</time>
      </trkpt>
      <trkpt lat="28.5311320" lon="-16.3058580">
        <ele>651.9</ele>
        <time>2020-11-11T09:20:09Z</time>
      </trkpt>
      <trkpt lat="28.5311320" lon="-16.3058580">
        <ele>651.9</ele>
        <time>2020-11-11T09:20:10Z</time>
      </trkpt>
      <trkpt lat="28.5310550" lon="-16.3059980">
        <ele>650.9</ele>
        <time>2020-11-11T09:20:11Z</time>
      </trkpt>
      <trkpt lat="28.5310550" lon="-16.3059980">
        <ele>650.9</ele>
        <time>2020-11-11T09:20:12Z</time>
      </trkpt>
      <trkpt lat="28.5309520" lon="-16.3061020">
        <ele>648.9</ele>
        <time>2020-11-11T09:20:13Z</time>
      </trkpt>
      <trkpt lat="28.5308800" lon="-16.3061220">
        <ele>648.9</ele>
        <time>2020-11-11T09:20:14Z</time>
      </trkpt>
      <trkpt lat="28.5308800" lon="-16.3061220">
        <ele>647.9</ele>
        <time>2020-11-11T09:20:15Z</time>
      </trkpt>
      <trkpt lat="28.5307220" lon="-16.3060900">
        <ele>647.9</ele>
        <time>2020-11-11T09:20:16Z</time>
      </trkpt>
      <trkpt lat="28.5307220" lon="-16.3060900">
        <ele>645.9</ele>
        <time>2020-11-11T09:20:17Z</time>
      </trkpt>
      <trkpt lat="28.5305430" lon="-16.3060320">
        <ele>645.9</ele>
        <time>2020-11-11T09:20:18Z</time>
      </trkpt>
      <trkpt lat="28.5304550" lon="-16.3059950">
        <ele>643.9</ele>
        <time>2020-11-11T09:20:19Z</time>
      </trkpt>
      <trkpt lat="28.5303750" lon="-16.3059650">
        <ele>643.9</ele>
        <time>2020-11-11T09:20:20Z</time>
      </trkpt>
      <trkpt lat="28.5303750" lon="-16.3059650">
        <ele>641.9</ele>
        <time>2020-11-11T09:20:21Z</time>
      </trkpt>
      <trkpt lat="28.5302400" lon="-16.3059230">
        <ele>641.9</ele>
        <time>2020-11-11T09:20:22Z</time>
      </trkpt>
      <trkpt lat="28.5302400" lon="-16.3059230">
        <ele>639.9</ele>
        <time>2020-11-11T09:20:23Z</time>
      </trkpt>
      <trkpt lat="28.5301520" lon="-16.3059350">
        <ele>639.9</ele>
        <time>2020-11-11T09:20:24Z</time>
      </trkpt>
      <trkpt lat="28.5301520" lon="-16.3059350">
        <ele>638.9</ele>
        <time>2020-11-11T09:20:25Z</time>
      </trkpt>
      <trkpt lat="28.5301130" lon="-16.3059850">
        <ele>638.9</ele>
        <time>2020-11-11T09:20:26Z</time>
      </trkpt>
      <trkpt lat="28.5301130" lon="-16.3059850">
        <ele>637.9</ele>
        <time>2020-11-11T09:20:27Z</time>
      </trkpt>
      <trkpt lat="28.5301470" lon="-16.3060620">
        <ele>637.9</ele>
        <time>2020-11-11T09:20:28Z</time>
      </trkpt>
      <trkpt lat="28.5301470" lon="-16.3060620">
        <ele>636.9</ele>
        <time>2020-11-11T09:20:29Z</time>
      </trkpt>
      <trkpt lat="28.5302380" lon="-16.3061650">
        <ele>636.9</ele>
        <time>2020-11-11T09:20:30Z</time>
      </trkpt>
      <trkpt lat="28.5302380" lon="-16.3061650">
        <ele>635.9</ele>
        <time>2020-11-11T09:20:31Z</time>
      </trkpt>
      <trkpt lat="28.5303720" lon="-16.3062680">
        <ele>635.9</ele>
        <time>2020-11-11T09:20:32Z</time>
      </trkpt>
      <trkpt lat="28.5303720" lon="-16.3062680">
        <ele>633.9</ele>
        <time>2020-11-11T09:20:33Z</time>
      </trkpt>
      <trkpt lat="28.5305030" lon="-16.3063680">
        <ele>633.9</ele>
        <time>2020-11-11T09:20:34Z</time>
      </trkpt>
      <trkpt lat="28.5305030" lon="-16.3063680">
        <ele>632.9</ele>
        <time>2020-11-11T09:20:35Z</time>
      </trkpt>
      <trkpt lat="28.5306030" lon="-16.3064480">
        <ele>632.9</ele>
        <time>2020-11-11T09:20:36Z</time>
      </trkpt>
      <trkpt lat="28.5306030" lon="-16.3064480">
        <ele>630.9</ele>
        <time>2020-11-11T09:20:37Z</time>
      </trkpt>
      <trkpt lat="28.5306580" lon="-16.3065850">
        <ele>630.9</ele>
        <time>2020-11-11T09:20:38Z</time>
      </trkpt>
      <trkpt lat="28.5306580" lon="-16.3065850">
        <ele>629.9</ele>
        <time>2020-11-11T09:20:39Z</time>
      </trkpt>
      <trkpt lat="28.5306630" lon="-16.3067480">
        <ele>627.9</ele>
        <time>2020-11-11T09:20:40Z</time>
      </trkpt>
      <trkpt lat="28.5306630" lon="-16.3067480">
        <ele>627.9</ele>
        <time>2020-11-11T09:20:41Z</time>
      </trkpt>
      <trkpt lat="28.5306200" lon="-16.3069370">
        <ele>626.9</ele>
        <time>2020-11-11T09:20:42Z</time>
      </trkpt>
      <trkpt lat="28.5305900" lon="-16.3070270">
        <ele>626.9</ele>
        <time>2020-11-11T09:20:43Z</time>
      </trkpt>
      <trkpt lat="28.5305900" lon="-16.3070270">
        <ele>624.9</ele>
        <time>2020-11-11T09:20:44Z</time>
      </trkpt>
      <trkpt lat="28.5304900" lon="-16.3071930">
        <ele>624.9</ele>
        <time>2020-11-11T09:20:45Z</time>
      </trkpt>
      <trkpt lat="28.5304900" lon="-16.3071930">
        <ele>623.9</ele>
        <time>2020-11-11T09:20:46Z</time>
      </trkpt>
      <trkpt lat="28.5303580" lon="-16.3073450">
        <ele>623.9</ele>
        <time>2020-11-11T09:20:47Z</time>
      </trkpt>
      <trkpt lat="28.5303580" lon="-16.3073450">
        <ele>621.9</ele>
        <time>2020-11-11T09:20:48Z</time>
      </trkpt>
      <trkpt lat="28.5302370" lon="-16.3074880">
        <ele>621.9</ele>
        <time>2020-11-11T09:20:49Z</time>
      </trkpt>
      <trkpt lat="28.5302370" lon="-16.3074880">
        <ele>619.9</ele>
        <time>2020-11-11T09:20:50Z</time>
      </trkpt>
      <trkpt lat="28.5301570" lon="-16.3076650">
        <ele>619.9</ele>
        <time>2020-11-11T09:20:51Z</time>
      </trkpt>
      <trkpt lat="28.5301570" lon="-16.3076650">
        <ele>617.9</ele>
        <time>2020-11-11T09:20:52Z</time>
      </trkpt>
      <trkpt lat="28.5301020" lon="-16.3078530">
        <ele>617.9</ele>
        <time>2020-11-11T09:20:53Z</time>
      </trkpt>
      <trkpt lat="28.5301020" lon="-16.3078530">
        <ele>614.9</ele>
        <time>2020-11-11T09:20:54Z</time>
      </trkpt>
      <trkpt lat="28.5300930" lon="-16.3080220">
        <ele>614.9</ele>
        <time>2020-11-11T09:20:55Z</time>
      </trkpt>
      <trkpt lat="28.5300930" lon="-16.3080220">
        <ele>612.9</ele>
        <time>2020-11-11T09:20:56Z</time>
      </trkpt>
      <trkpt lat="28.5301420" lon="-16.3082020">
        <ele>612.9</ele>
        <time>2020-11-11T09:20:57Z</time>
      </trkpt>
      <trkpt lat="28.5301420" lon="-16.3082020">
        <ele>610.9</ele>
        <time>2020-11-11T09:20:58Z</time>
      </trkpt>
      <trkpt lat="28.5301980" lon="-16.3083220">
        <ele>610.9</ele>
        <time>2020-11-11T09:20:59Z</time>
      </trkpt>
      <trkpt lat="28.5302120" lon="-16.3083780">
        <ele>608.9</ele>
        <time>2020-11-11T09:21:00Z</time>
      </trkpt>
      <trkpt lat="28.5302120" lon="-16.3084450">
        <ele>608.9</ele>
        <time>2020-11-11T09:21:01Z</time>
      </trkpt>
      <trkpt lat="28.5302120" lon="-16.3084450">
        <ele>606.9</ele>
        <time>2020-11-11T09:21:02Z</time>
      </trkpt>
      <trkpt lat="28.5301630" lon="-16.3085880">
        <ele>606.9</ele>
        <time>2020-11-11T09:21:03Z</time>
      </trkpt>
      <trkpt lat="28.5301630" lon="-16.3085880">
        <ele>605.9</ele>
        <time>2020-11-11T09:21:04Z</time>
      </trkpt>
      <trkpt lat="28.5300600" lon="-16.3087400">
        <ele>605.9</ele>
        <time>2020-11-11T09:21:05Z</time>
      </trkpt>
      <trkpt lat="28.5300600" lon="-16.3087400">
        <ele>603.9</ele>
        <time>2020-11-11T09:21:06Z</time>
      </trkpt>
      <trkpt lat="28.5299420" lon="-16.3088980">
        <ele>603.9</ele>
        <time>2020-11-11T09:21:07Z</time>
      </trkpt>
      <trkpt lat="28.5298720" lon="-16.3089750">
        <ele>601.9</ele>
        <time>2020-11-11T09:21:08Z</time>
      </trkpt>
      <trkpt lat="28.5298720" lon="-16.3089750">
        <ele>601.9</ele>
        <time>2020-11-11T09:21:09Z</time>
      </trkpt>
      <trkpt lat="28.5297130" lon="-16.3090720">
        <ele>600.9</ele>
        <time>2020-11-11T09:21:10Z</time>
      </trkpt>
      <trkpt lat="28.5297130" lon="-16.3090720">
        <ele>600.9</ele>
        <time>2020-11-11T09:21:11Z</time>
      </trkpt>
      <trkpt lat="28.5295370" lon="-16.3091420">
        <ele>598.9</ele>
        <time>2020-11-11T09:21:12Z</time>
      </trkpt>
      <trkpt lat="28.5294520" lon="-16.3091720">
        <ele>598.9</ele>
        <time>2020-11-11T09:21:13Z</time>
      </trkpt>
      <trkpt lat="28.5294520" lon="-16.3091720">
        <ele>598.9</ele>
        <time>2020-11-11T09:21:14Z</time>
      </trkpt>
      <trkpt lat="28.5292650" lon="-16.3092500">
        <ele>598.9</ele>
        <time>2020-11-11T09:21:15Z</time>
      </trkpt>
      <trkpt lat="28.5292650" lon="-16.3092500">
        <ele>596.9</ele>
        <time>2020-11-11T09:21:16Z</time>
      </trkpt>
      <trkpt lat="28.5290720" lon="-16.3093580">
        <ele>596.9</ele>
        <time>2020-11-11T09:21:17Z</time>
      </trkpt>
      <trkpt lat="28.5290720" lon="-16.3093580">
        <ele>594.9</ele>
        <time>2020-11-11T09:21:18Z</time>
      </trkpt>
      <trkpt lat="28.5289000" lon="-16.3095100">
        <ele>592.9</ele>
        <time>2020-11-11T09:21:19Z</time>
      </trkpt>
      <trkpt lat="28.5288120" lon="-16.3095880">
        <ele>592.9</ele>
        <time>2020-11-11T09:21:20Z</time>
      </trkpt>
      <trkpt lat="28.5288120" lon="-16.3095880">
        <ele>590.9</ele>
        <time>2020-11-11T09:21:21Z</time>
      </trkpt>
      <trkpt lat="28.5286220" lon="-16.3097400">
        <ele>590.9</ele>
        <time>2020-11-11T09:21:22Z</time>
      </trkpt>
      <trkpt lat="28.5286220" lon="-16.3097400">
        <ele>587.9</ele>
        <time>2020-11-11T09:21:23Z</time>
      </trkpt>
      <trkpt lat="28.5284230" lon="-16.3098850">
        <ele>587.9</ele>
        <time>2020-11-11T09:21:24Z</time>
      </trkpt>
      <trkpt lat="28.5284230" lon="-16.3098850">
        <ele>585.9</ele>
        <time>2020-11-11T09:21:25Z</time>
      </trkpt>
      <trkpt lat="28.5282400" lon="-16.3100130">
        <ele>585.9</ele>
        <time>2020-11-11T09:21:26Z</time>
      </trkpt>
      <trkpt lat="28.5282400" lon="-16.3100130">
        <ele>582.9</ele>
        <time>2020-11-11T09:21:27Z</time>
      </trkpt>
      <trkpt lat="28.5280550" lon="-16.3101280">
        <ele>582.9</ele>
        <time>2020-11-11T09:21:28Z</time>
      </trkpt>
      <trkpt lat="28.5279620" lon="-16.3101780">
        <ele>580.9</ele>
        <time>2020-11-11T09:21:29Z</time>
      </trkpt>
      <trkpt lat="28.5279620" lon="-16.3101780">
        <ele>580.9</ele>
        <time>2020-11-11T09:21:30Z</time>
      </trkpt>
      <trkpt lat="28.5277720" lon="-16.3102520">
        <ele>577.9</ele>
        <time>2020-11-11T09:21:31Z</time>
      </trkpt>
      <trkpt lat="28.5277720" lon="-16.3102520">
        <ele>577.9</ele>
        <time>2020-11-11T09:21:32Z</time>
      </trkpt>
      <trkpt lat="28.5275830" lon="-16.3103070">
        <ele>575.9</ele>
        <time>2020-11-11T09:21:33Z</time>
      </trkpt>
      <trkpt lat="28.5275830" lon="-16.3103070">
        <ele>575.9</ele>
        <time>2020-11-11T09:21:34Z</time>
      </trkpt>
      <trkpt lat="28.5274000" lon="-16.3103570">
        <ele>572.9</ele>
        <time>2020-11-11T09:21:35Z</time>
      </trkpt>
      <trkpt lat="28.5274000" lon="-16.3103570">
        <ele>572.9</ele>
        <time>2020-11-11T09:21:36Z</time>
      </trkpt>
      <trkpt lat="28.5272280" lon="-16.3104400">
        <ele>569.9</ele>
        <time>2020-11-11T09:21:37Z</time>
      </trkpt>
      <trkpt lat="28.5272280" lon="-16.3104400">
        <ele>569.9</ele>
        <time>2020-11-11T09:21:38Z</time>
      </trkpt>
      <trkpt lat="28.5270880" lon="-16.3105500">
        <ele>567.9</ele>
        <time>2020-11-11T09:21:39Z</time>
      </trkpt>
      <trkpt lat="28.5270350" lon="-16.3106120">
        <ele>567.9</ele>
        <time>2020-11-11T09:21:40Z</time>
      </trkpt>
      <trkpt lat="28.5270350" lon="-16.3106120">
        <ele>565.9</ele>
        <time>2020-11-11T09:21:41Z</time>
      </trkpt>
      <trkpt lat="28.5269680" lon="-16.3107800">
        <ele>565.9</ele>
        <time>2020-11-11T09:21:42Z</time>
      </trkpt>
      <trkpt lat="28.5269680" lon="-16.3107800">
        <ele>563.9</ele>
        <time>2020-11-11T09:21:43Z</time>
      </trkpt>
      <trkpt lat="28.5268830" lon="-16.3109920">
        <ele>563.9</ele>
        <time>2020-11-11T09:21:44Z</time>
      </trkpt>
      <trkpt lat="28.5268830" lon="-16.3109920">
        <ele>561.9</ele>
        <time>2020-11-11T09:21:45Z</time>
      </trkpt>
      <trkpt lat="28.5267720" lon="-16.3111970">
        <ele>561.9</ele>
        <time>2020-11-11T09:21:46Z</time>
      </trkpt>
      <trkpt lat="28.5267070" lon="-16.3112970">
        <ele>559.9</ele>
        <time>2020-11-11T09:21:47Z</time>
      </trkpt>
      <trkpt lat="28.5267070" lon="-16.3112970">
        <ele>559.9</ele>
        <time>2020-11-11T09:21:48Z</time>
      </trkpt>
      <trkpt lat="28.5265550" lon="-16.3114630">
        <ele>557.9</ele>
        <time>2020-11-11T09:21:49Z</time>
      </trkpt>
      <trkpt lat="28.5265550" lon="-16.3114630">
        <ele>557.9</ele>
        <time>2020-11-11T09:21:50Z</time>
      </trkpt>
      <trkpt lat="28.5263880" lon="-16.3115250">
        <ele>556.9</ele>
        <time>2020-11-11T09:21:51Z</time>
      </trkpt>
      <trkpt lat="28.5263880" lon="-16.3115250">
        <ele>556.9</ele>
        <time>2020-11-11T09:21:52Z</time>
      </trkpt>
      <trkpt lat="28.5262170" lon="-16.3115420">
        <ele>556.9</ele>
        <time>2020-11-11T09:21:53Z</time>
      </trkpt>
      <trkpt lat="28.5262170" lon="-16.3115420">
        <ele>556.9</ele>
        <time>2020-11-11T09:21:54Z</time>
      </trkpt>
      <trkpt lat="28.5260550" lon="-16.3115720">
        <ele>556.9</ele>
        <time>2020-11-11T09:21:55Z</time>
      </trkpt>
      <trkpt lat="28.5259800" lon="-16.3116050">
        <ele>555.9</ele>
        <time>2020-11-11T09:21:56Z</time>
      </trkpt>
      <trkpt lat="28.5259800" lon="-16.3116050">
        <ele>555.9</ele>
        <time>2020-11-11T09:21:57Z</time>
      </trkpt>
      <trkpt lat="28.5258470" lon="-16.3117030">
        <ele>555.9</ele>
        <time>2020-11-11T09:21:58Z</time>
      </trkpt>
      <trkpt lat="28.5258470" lon="-16.3117030">
        <ele>555.9</ele>
        <time>2020-11-11T09:21:59Z</time>
      </trkpt>
      <trkpt lat="28.5257400" lon="-16.3118150">
        <ele>555.9</ele>
        <time>2020-11-11T09:22:00Z</time>
      </trkpt>
      <trkpt lat="28.5256930" lon="-16.3118730">
        <ele>555.9</ele>
        <time>2020-11-11T09:22:01Z</time>
      </trkpt>
      <trkpt lat="28.5256930" lon="-16.3118730">
        <ele>555.9</ele>
        <time>2020-11-11T09:22:02Z</time>
      </trkpt>
      <trkpt lat="28.5255970" lon="-16.3119900">
        <ele>555.9</ele>
        <time>2020-11-11T09:22:03Z</time>
      </trkpt>
      <trkpt lat="28.5255970" lon="-16.3119900">
        <ele>555.9</ele>
        <time>2020-11-11T09:22:04Z</time>
      </trkpt>
      <trkpt lat="28.5255050" lon="-16.3120980">
        <ele>555.9</ele>
        <time>2020-11-11T09:22:05Z</time>
      </trkpt>
      <trkpt lat="28.5255050" lon="-16.3120980">
        <ele>555.9</ele>
        <time>2020-11-11T09:22:06Z</time>
      </trkpt>
      <trkpt lat="28.5254130" lon="-16.3122050">
        <ele>555.9</ele>
        <time>2020-11-11T09:22:07Z</time>
      </trkpt>
      <trkpt lat="28.5253650" lon="-16.3122520">
        <ele>555.9</ele>
        <time>2020-11-11T09:22:08Z</time>
      </trkpt>
      <trkpt lat="28.5253650" lon="-16.3122520">
        <ele>555.9</ele>
        <time>2020-11-11T09:22:09Z</time>
      </trkpt>
      <trkpt lat="28.5252670" lon="-16.3123400">
        <ele>555.9</ele>
        <time>2020-11-11T09:22:10Z</time>
      </trkpt>
      <trkpt lat="28.5252150" lon="-16.3123820">
        <ele>555.9</ele>
        <time>2020-11-11T09:22:11Z</time>
      </trkpt>
      <trkpt lat="28.5252150" lon="-16.3123820">
        <ele>555.9</ele>
        <time>2020-11-11T09:22:12Z</time>
      </trkpt>
      <trkpt lat="28.5251080" lon="-16.3124580">
        <ele>555.9</ele>
        <time>2020-11-11T09:22:13Z</time>
      </trkpt>
      <trkpt lat="28.5250500" lon="-16.3124870">
        <ele>555.9</ele>
        <time>2020-11-11T09:22:14Z</time>
      </trkpt>
      <trkpt lat="28.5250500" lon="-16.3124870">
        <ele>555.9</ele>
        <time>2020-11-11T09:22:15Z</time>
      </trkpt>
      <trkpt lat="28.5249270" lon="-16.3125400">
        <ele>555.9</ele>
        <time>2020-11-11T09:22:16Z</time>
      </trkpt>
      <trkpt lat="28.5248620" lon="-16.3125680">
        <ele>555.9</ele>
        <time>2020-11-11T09:22:17Z</time>
      </trkpt>
      <trkpt lat="28.5248620" lon="-16.3125680">
        <ele>555.9</ele>
        <time>2020-11-11T09:22:18Z</time>
      </trkpt>
      <trkpt lat="28.5247220" lon="-16.3126380">
        <ele>553.9</ele>
        <time>2020-11-11T09:22:19Z</time>
      </trkpt>
      <trkpt lat="28.5246470" lon="-16.3126830">
        <ele>553.9</ele>
        <time>2020-11-11T09:22:20Z</time>
      </trkpt>
      <trkpt lat="28.5246470" lon="-16.3126830">
        <ele>552.9</ele>
        <time>2020-11-11T09:22:21Z</time>
      </trkpt>
      <trkpt lat="28.5245020" lon="-16.3127820">
        <ele>552.9</ele>
        <time>2020-11-11T09:22:22Z</time>
      </trkpt>
      <trkpt lat="28.5244380" lon="-16.3128520">
        <ele>551.9</ele>
        <time>2020-11-11T09:22:23Z</time>
      </trkpt>
      <trkpt lat="28.5243400" lon="-16.3130220">
        <ele>551.9</ele>
        <time>2020-11-11T09:22:24Z</time>
      </trkpt>
      <trkpt lat="28.5243400" lon="-16.3130220">
        <ele>550.9</ele>
        <time>2020-11-11T09:22:25Z</time>
      </trkpt>
      <trkpt lat="28.5243400" lon="-16.3130220">
        <ele>550.9</ele>
        <time>2020-11-11T09:22:26Z</time>
      </trkpt>
      <trkpt lat="28.5242500" lon="-16.3131880">
        <ele>549.9</ele>
        <time>2020-11-11T09:22:27Z</time>
      </trkpt>
      <trkpt lat="28.5241970" lon="-16.3132630">
        <ele>549.9</ele>
        <time>2020-11-11T09:22:28Z</time>
      </trkpt>
      <trkpt lat="28.5241970" lon="-16.3132630">
        <ele>549.9</ele>
        <time>2020-11-11T09:22:29Z</time>
      </trkpt>
      <trkpt lat="28.5240750" lon="-16.3134070">
        <ele>549.9</ele>
        <time>2020-11-11T09:22:30Z</time>
      </trkpt>
      <trkpt lat="28.5240120" lon="-16.3134780">
        <ele>547.9</ele>
        <time>2020-11-11T09:22:31Z</time>
      </trkpt>
      <trkpt lat="28.5240120" lon="-16.3134780">
        <ele>547.9</ele>
        <time>2020-11-11T09:22:32Z</time>
      </trkpt>
      <trkpt lat="28.5238870" lon="-16.3136320">
        <ele>545.9</ele>
        <time>2020-11-11T09:22:33Z</time>
      </trkpt>
      <trkpt lat="28.5238870" lon="-16.3136320">
        <ele>545.9</ele>
        <time>2020-11-11T09:22:34Z</time>
      </trkpt>
      <trkpt lat="28.5237780" lon="-16.3137830">
        <ele>544.9</ele>
        <time>2020-11-11T09:22:35Z</time>
      </trkpt>
      <trkpt lat="28.5237170" lon="-16.3138520">
        <ele>542.9</ele>
        <time>2020-11-11T09:22:36Z</time>
      </trkpt>
      <trkpt lat="28.5237170" lon="-16.3138520">
        <ele>542.9</ele>
        <time>2020-11-11T09:22:37Z</time>
      </trkpt>
      <trkpt lat="28.5235730" lon="-16.3139770">
        <ele>540.9</ele>
        <time>2020-11-11T09:22:38Z</time>
      </trkpt>
      <trkpt lat="28.5235730" lon="-16.3139770">
        <ele>540.9</ele>
        <time>2020-11-11T09:22:39Z</time>
      </trkpt>
      <trkpt lat="28.5234080" lon="-16.3141200">
        <ele>538.9</ele>
        <time>2020-11-11T09:22:40Z</time>
      </trkpt>
      <trkpt lat="28.5234080" lon="-16.3141200">
        <ele>538.9</ele>
        <time>2020-11-11T09:22:41Z</time>
      </trkpt>
      <trkpt lat="28.5232480" lon="-16.3142770">
        <ele>536.9</ele>
        <time>2020-11-11T09:22:42Z</time>
      </trkpt>
      <trkpt lat="28.5232480" lon="-16.3142770">
        <ele>536.9</ele>
        <time>2020-11-11T09:22:43Z</time>
      </trkpt>
      <trkpt lat="28.5230820" lon="-16.3144300">
        <ele>534.9</ele>
        <time>2020-11-11T09:22:44Z</time>
      </trkpt>
      <trkpt lat="28.5230070" lon="-16.3145070">
        <ele>534.9</ele>
        <time>2020-11-11T09:22:45Z</time>
      </trkpt>
      <trkpt lat="28.5230070" lon="-16.3145070">
        <ele>531.9</ele>
        <time>2020-11-11T09:22:46Z</time>
      </trkpt>
      <trkpt lat="28.5228600" lon="-16.3146680">
        <ele>531.9</ele>
        <time>2020-11-11T09:22:47Z</time>
      </trkpt>
      <trkpt lat="28.5228600" lon="-16.3146680">
        <ele>529.9</ele>
        <time>2020-11-11T09:22:48Z</time>
      </trkpt>
      <trkpt lat="28.5227380" lon="-16.3148480">
        <ele>529.9</ele>
        <time>2020-11-11T09:22:49Z</time>
      </trkpt>
      <trkpt lat="28.5227380" lon="-16.3148480">
        <ele>527.9</ele>
        <time>2020-11-11T09:22:50Z</time>
      </trkpt>
      <trkpt lat="28.5226230" lon="-16.3150530">
        <ele>527.9</ele>
        <time>2020-11-11T09:22:51Z</time>
      </trkpt>
      <trkpt lat="28.5225720" lon="-16.3151630">
        <ele>525.9</ele>
        <time>2020-11-11T09:22:52Z</time>
      </trkpt>
      <trkpt lat="28.5225720" lon="-16.3151630">
        <ele>525.9</ele>
        <time>2020-11-11T09:22:53Z</time>
      </trkpt>
      <trkpt lat="28.5224930" lon="-16.3153970">
        <ele>523.9</ele>
        <time>2020-11-11T09:22:54Z</time>
      </trkpt>
      <trkpt lat="28.5224930" lon="-16.3153970">
        <ele>523.9</ele>
        <time>2020-11-11T09:22:55Z</time>
      </trkpt>
      <trkpt lat="28.5224180" lon="-16.3156200">
        <ele>521.9</ele>
        <time>2020-11-11T09:22:56Z</time>
      </trkpt>
      <trkpt lat="28.5223770" lon="-16.3157270">
        <ele>521.9</ele>
        <time>2020-11-11T09:22:57Z</time>
      </trkpt>
      <trkpt lat="28.5223770" lon="-16.3157270">
        <ele>520.9</ele>
        <time>2020-11-11T09:22:58Z</time>
      </trkpt>
      <trkpt lat="28.5222770" lon="-16.3159170">
        <ele>520.9</ele>
        <time>2020-11-11T09:22:59Z</time>
      </trkpt>
      <trkpt lat="28.5222770" lon="-16.3159170">
        <ele>519.9</ele>
        <time>2020-11-11T09:23:00Z</time>
      </trkpt>
      <trkpt lat="28.5221850" lon="-16.3160750">
        <ele>519.9</ele>
        <time>2020-11-11T09:23:01Z</time>
      </trkpt>
      <trkpt lat="28.5221850" lon="-16.3160750">
        <ele>517.9</ele>
        <time>2020-11-11T09:23:02Z</time>
      </trkpt>
      <trkpt lat="28.5221120" lon="-16.3162000">
        <ele>517.9</ele>
        <time>2020-11-11T09:23:03Z</time>
      </trkpt>
      <trkpt lat="28.5221120" lon="-16.3162000">
        <ele>515.9</ele>
        <time>2020-11-11T09:23:04Z</time>
      </trkpt>
      <trkpt lat="28.5220500" lon="-16.3163270">
        <ele>515.9</ele>
        <time>2020-11-11T09:23:05Z</time>
      </trkpt>
      <trkpt lat="28.5220500" lon="-16.3163270">
        <ele>514.9</ele>
        <time>2020-11-11T09:23:06Z</time>
      </trkpt>
      <trkpt lat="28.5219780" lon="-16.3164430">
        <ele>514.9</ele>
        <time>2020-11-11T09:23:07Z</time>
      </trkpt>
      <trkpt lat="28.5219450" lon="-16.3165000">
        <ele>513.9</ele>
        <time>2020-11-11T09:23:08Z</time>
      </trkpt>
      <trkpt lat="28.5219450" lon="-16.3165000">
        <ele>513.9</ele>
        <time>2020-11-11T09:23:09Z</time>
      </trkpt>
      <trkpt lat="28.5218730" lon="-16.3166070">
        <ele>512.9</ele>
        <time>2020-11-11T09:23:10Z</time>
      </trkpt>
      <trkpt lat="28.5218730" lon="-16.3166070">
        <ele>512.9</ele>
        <time>2020-11-11T09:23:11Z</time>
      </trkpt>
      <trkpt lat="28.5218130" lon="-16.3167100">
        <ele>511.9</ele>
        <time>2020-11-11T09:23:12Z</time>
      </trkpt>
      <trkpt lat="28.5218130" lon="-16.3167100">
        <ele>511.9</ele>
        <time>2020-11-11T09:23:13Z</time>
      </trkpt>
      <trkpt lat="28.5217580" lon="-16.3167920">
        <ele>510.9</ele>
        <time>2020-11-11T09:23:14Z</time>
      </trkpt>
      <trkpt lat="28.5217350" lon="-16.3168230">
        <ele>509.9</ele>
        <time>2020-11-11T09:23:15Z</time>
      </trkpt>
      <trkpt lat="28.5217350" lon="-16.3168230">
        <ele>509.9</ele>
        <time>2020-11-11T09:23:16Z</time>
      </trkpt>
      <trkpt lat="28.5216820" lon="-16.3168430">
        <ele>508.9</ele>
        <time>2020-11-11T09:23:17Z</time>
      </trkpt>
      <trkpt lat="28.5216820" lon="-16.3168430">
        <ele>508.9</ele>
        <time>2020-11-11T09:23:18Z</time>
      </trkpt>
      <trkpt lat="28.5216100" lon="-16.3167880">
        <ele>507.9</ele>
        <time>2020-11-11T09:23:19Z</time>
      </trkpt>
      <trkpt lat="28.5215800" lon="-16.3167500">
        <ele>507.9</ele>
        <time>2020-11-11T09:23:20Z</time>
      </trkpt>
      <trkpt lat="28.5215800" lon="-16.3167500">
        <ele>507.9</ele>
        <time>2020-11-11T09:23:21Z</time>
      </trkpt>
      <trkpt lat="28.5215300" lon="-16.3166700">
        <ele>507.9</ele>
        <time>2020-11-11T09:23:22Z</time>
      </trkpt>
      <trkpt lat="28.5215300" lon="-16.3166700">
        <ele>507.9</ele>
        <time>2020-11-11T09:23:23Z</time>
      </trkpt>
      <trkpt lat="28.5214830" lon="-16.3165980">
        <ele>507.9</ele>
        <time>2020-11-11T09:23:24Z</time>
      </trkpt>
      <trkpt lat="28.5214830" lon="-16.3165980">
        <ele>507.9</ele>
        <time>2020-11-11T09:23:25Z</time>
      </trkpt>
      <trkpt lat="28.5214270" lon="-16.3165250">
        <ele>507.9</ele>
        <time>2020-11-11T09:23:26Z</time>
      </trkpt>
      <trkpt lat="28.5214270" lon="-16.3165250">
        <ele>507.9</ele>
        <time>2020-11-11T09:23:27Z</time>
      </trkpt>
      <trkpt lat="28.5213600" lon="-16.3164650">
        <ele>507.9</ele>
        <time>2020-11-11T09:23:28Z</time>
      </trkpt>
      <trkpt lat="28.5213600" lon="-16.3164650">
        <ele>508.9</ele>
        <time>2020-11-11T09:23:29Z</time>
      </trkpt>
      <trkpt lat="28.5213020" lon="-16.3164100">
        <ele>508.9</ele>
        <time>2020-11-11T09:23:30Z</time>
      </trkpt>
      <trkpt lat="28.5212720" lon="-16.3163830">
        <ele>508.9</ele>
        <time>2020-11-11T09:23:31Z</time>
      </trkpt>
      <trkpt lat="28.5212720" lon="-16.3163830">
        <ele>508.9</ele>
        <time>2020-11-11T09:23:32Z</time>
      </trkpt>
      <trkpt lat="28.5212030" lon="-16.3163320">
        <ele>509.9</ele>
        <time>2020-11-11T09:23:33Z</time>
      </trkpt>
      <trkpt lat="28.5211550" lon="-16.3163180">
        <ele>509.9</ele>
        <time>2020-11-11T09:23:34Z</time>
      </trkpt>
      <trkpt lat="28.5211550" lon="-16.3163180">
        <ele>509.9</ele>
        <time>2020-11-11T09:23:35Z</time>
      </trkpt>
      <trkpt lat="28.5210900" lon="-16.3162920">
        <ele>509.9</ele>
        <time>2020-11-11T09:23:36Z</time>
      </trkpt>
      <trkpt lat="28.5210570" lon="-16.3162780">
        <ele>510.9</ele>
        <time>2020-11-11T09:23:37Z</time>
      </trkpt>
      <trkpt lat="28.5210570" lon="-16.3162780">
        <ele>510.9</ele>
        <time>2020-11-11T09:23:38Z</time>
      </trkpt>
      <trkpt lat="28.5209970" lon="-16.3162600">
        <ele>510.9</ele>
        <time>2020-11-11T09:23:39Z</time>
      </trkpt>
      <trkpt lat="28.5209720" lon="-16.3162520">
        <ele>510.9</ele>
        <time>2020-11-11T09:23:40Z</time>
      </trkpt>
      <trkpt lat="28.5209720" lon="-16.3162520">
        <ele>511.9</ele>
        <time>2020-11-11T09:23:41Z</time>
      </trkpt>
      <trkpt lat="28.5209130" lon="-16.3162330">
        <ele>511.9</ele>
        <time>2020-11-11T09:23:42Z</time>
      </trkpt>
      <trkpt lat="28.5208870" lon="-16.3162220">
        <ele>511.9</ele>
        <time>2020-11-11T09:23:43Z</time>
      </trkpt>
      <trkpt lat="28.5208580" lon="-16.3162120">
        <ele>511.9</ele>
        <time>2020-11-11T09:23:44Z</time>
      </trkpt>
      <trkpt lat="28.5208580" lon="-16.3162120">
        <ele>513.9</ele>
        <time>2020-11-11T09:23:45Z</time>
      </trkpt>
      <trkpt lat="28.5208000" lon="-16.3161930">
        <ele>513.9</ele>
        <time>2020-11-11T09:23:46Z</time>
      </trkpt>
      <trkpt lat="28.5208000" lon="-16.3161930">
        <ele>514.9</ele>
        <time>2020-11-11T09:23:47Z</time>
      </trkpt>
      <trkpt lat="28.5207230" lon="-16.3161720">
        <ele>514.9</ele>
        <time>2020-11-11T09:23:48Z</time>
      </trkpt>
      <trkpt lat="28.5207230" lon="-16.3161720">
        <ele>514.9</ele>
        <time>2020-11-11T09:23:49Z</time>
      </trkpt>
      <trkpt lat="28.5206600" lon="-16.3161500">
        <ele>514.9</ele>
        <time>2020-11-11T09:23:50Z</time>
      </trkpt>
      <trkpt lat="28.5206600" lon="-16.3161500">
        <ele>514.9</ele>
        <time>2020-11-11T09:23:51Z</time>
      </trkpt>
      <trkpt lat="28.5206030" lon="-16.3161080">
        <ele>514.9</ele>
        <time>2020-11-11T09:23:52Z</time>
      </trkpt>
      <trkpt lat="28.5205770" lon="-16.3160900">
        <ele>515.9</ele>
        <time>2020-11-11T09:23:53Z</time>
      </trkpt>
      <trkpt lat="28.5205770" lon="-16.3160900">
        <ele>515.9</ele>
        <time>2020-11-11T09:23:54Z</time>
      </trkpt>
      <trkpt lat="28.5205180" lon="-16.3160600">
        <ele>515.9</ele>
        <time>2020-11-11T09:23:55Z</time>
      </trkpt>
      <trkpt lat="28.5204900" lon="-16.3160470">
        <ele>515.9</ele>
        <time>2020-11-11T09:23:56Z</time>
      </trkpt>
      <trkpt lat="28.5204900" lon="-16.3160470">
        <ele>515.9</ele>
        <time>2020-11-11T09:23:57Z</time>
      </trkpt>
      <trkpt lat="28.5204320" lon="-16.3160080">
        <ele>515.9</ele>
        <time>2020-11-11T09:23:58Z</time>
      </trkpt>
      <trkpt lat="28.5204320" lon="-16.3160080">
        <ele>515.9</ele>
        <time>2020-11-11T09:23:59Z</time>
      </trkpt>
      <trkpt lat="28.5203720" lon="-16.3159730">
        <ele>515.9</ele>
        <time>2020-11-11T09:24:00Z</time>
      </trkpt>
      <trkpt lat="28.5203720" lon="-16.3159730">
        <ele>516.9</ele>
        <time>2020-11-11T09:24:01Z</time>
      </trkpt>
      <trkpt lat="28.5203150" lon="-16.3159400">
        <ele>516.9</ele>
        <time>2020-11-11T09:24:02Z</time>
      </trkpt>
      <trkpt lat="28.5203150" lon="-16.3159400">
        <ele>516.9</ele>
        <time>2020-11-11T09:24:03Z</time>
      </trkpt>
      <trkpt lat="28.5202680" lon="-16.3159050">
        <ele>516.9</ele>
        <time>2020-11-11T09:24:04Z</time>
      </trkpt>
      <trkpt lat="28.5202350" lon="-16.3158850">
        <ele>516.9</ele>
        <time>2020-11-11T09:24:05Z</time>
      </trkpt>
      <trkpt lat="28.5202350" lon="-16.3158850">
        <ele>516.9</ele>
        <time>2020-11-11T09:24:06Z</time>
      </trkpt>
      <trkpt lat="28.5201820" lon="-16.3158550">
        <ele>517.9</ele>
        <time>2020-11-11T09:24:07Z</time>
      </trkpt>
      <trkpt lat="28.5201820" lon="-16.3158550">
        <ele>517.9</ele>
        <time>2020-11-11T09:24:08Z</time>
      </trkpt>
      <trkpt lat="28.5201570" lon="-16.3158220">
        <ele>517.9</ele>
        <time>2020-11-11T09:24:09Z</time>
      </trkpt>
      <trkpt lat="28.5201280" lon="-16.3158070">
        <ele>517.9</ele>
        <time>2020-11-11T09:24:10Z</time>
      </trkpt>
      <trkpt lat="28.5201070" lon="-16.3157930">
        <ele>517.9</ele>
        <time>2020-11-11T09:24:11Z</time>
      </trkpt>
      <trkpt lat="28.5201070" lon="-16.3157930">
        <ele>517.9</ele>
        <time>2020-11-11T09:24:12Z</time>
      </trkpt>
      <trkpt lat="28.5200620" lon="-16.3157730">
        <ele>517.9</ele>
        <time>2020-11-11T09:24:13Z</time>
      </trkpt>
      <trkpt lat="28.5200620" lon="-16.3157730">
        <ele>517.9</ele>
        <time>2020-11-11T09:24:14Z</time>
      </trkpt>
      <trkpt lat="28.5200150" lon="-16.3157580">
        <ele>518.9</ele>
        <time>2020-11-11T09:24:15Z</time>
      </trkpt>
      <trkpt lat="28.5200150" lon="-16.3157580">
        <ele>518.9</ele>
        <time>2020-11-11T09:24:16Z</time>
      </trkpt>
      <trkpt lat="28.5199720" lon="-16.3157550">
        <ele>518.9</ele>
        <time>2020-11-11T09:24:17Z</time>
      </trkpt>
      <trkpt lat="28.5199720" lon="-16.3157550">
        <ele>518.9</ele>
        <time>2020-11-11T09:24:18Z</time>
      </trkpt>
      <trkpt lat="28.5199200" lon="-16.3157370">
        <ele>518.9</ele>
        <time>2020-11-11T09:24:19Z</time>
      </trkpt>
      <trkpt lat="28.5198980" lon="-16.3157200">
        <ele>518.9</ele>
        <time>2020-11-11T09:24:20Z</time>
      </trkpt>
      <trkpt lat="28.5198980" lon="-16.3157200">
        <ele>518.9</ele>
        <time>2020-11-11T09:24:21Z</time>
      </trkpt>
      <trkpt lat="28.5198530" lon="-16.3156850">
        <ele>518.9</ele>
        <time>2020-11-11T09:24:22Z</time>
      </trkpt>
      <trkpt lat="28.5198530" lon="-16.3156850">
        <ele>518.9</ele>
        <time>2020-11-11T09:24:23Z</time>
      </trkpt>
      <trkpt lat="28.5198050" lon="-16.3156600">
        <ele>518.9</ele>
        <time>2020-11-11T09:24:24Z</time>
      </trkpt>
      <trkpt lat="28.5198050" lon="-16.3156600">
        <ele>518.9</ele>
        <time>2020-11-11T09:24:25Z</time>
      </trkpt>
      <trkpt lat="28.5197620" lon="-16.3156370">
        <ele>518.9</ele>
        <time>2020-11-11T09:24:26Z</time>
      </trkpt>
      <trkpt lat="28.5197620" lon="-16.3156370">
        <ele>519.9</ele>
        <time>2020-11-11T09:24:27Z</time>
      </trkpt>
      <trkpt lat="28.5197180" lon="-16.3156070">
        <ele>519.9</ele>
        <time>2020-11-11T09:24:28Z</time>
      </trkpt>
      <trkpt lat="28.5197180" lon="-16.3156070">
        <ele>519.9</ele>
        <time>2020-11-11T09:24:29Z</time>
      </trkpt>
      <trkpt lat="28.5196670" lon="-16.3155750">
        <ele>519.9</ele>
        <time>2020-11-11T09:24:30Z</time>
      </trkpt>
      <trkpt lat="28.5196670" lon="-16.3155750">
        <ele>519.9</ele>
        <time>2020-11-11T09:24:31Z</time>
      </trkpt>
      <trkpt lat="28.5196150" lon="-16.3155420">
        <ele>519.9</ele>
        <time>2020-11-11T09:24:32Z</time>
      </trkpt>
      <trkpt lat="28.5196150" lon="-16.3155420">
        <ele>519.9</ele>
        <time>2020-11-11T09:24:33Z</time>
      </trkpt>
      <trkpt lat="28.5195550" lon="-16.3155120">
        <ele>519.9</ele>
        <time>2020-11-11T09:24:34Z</time>
      </trkpt>
      <trkpt lat="28.5195230" lon="-16.3154970">
        <ele>519.9</ele>
        <time>2020-11-11T09:24:35Z</time>
      </trkpt>
      <trkpt lat="28.5194820" lon="-16.3154830">
        <ele>519.9</ele>
        <time>2020-11-11T09:24:36Z</time>
      </trkpt>
      <trkpt lat="28.5194820" lon="-16.3154830">
        <ele>519.9</ele>
        <time>2020-11-11T09:24:37Z</time>
      </trkpt>
      <trkpt lat="28.5194100" lon="-16.3154500">
        <ele>519.9</ele>
        <time>2020-11-11T09:24:38Z</time>
      </trkpt>
      <trkpt lat="28.5194100" lon="-16.3154500">
        <ele>519.9</ele>
        <time>2020-11-11T09:24:39Z</time>
      </trkpt>
      <trkpt lat="28.5193370" lon="-16.3154150">
        <ele>519.9</ele>
        <time>2020-11-11T09:24:40Z</time>
      </trkpt>
      <trkpt lat="28.5193370" lon="-16.3154150">
        <ele>519.9</ele>
        <time>2020-11-11T09:24:41Z</time>
      </trkpt>
      <trkpt lat="28.5192680" lon="-16.3153670">
        <ele>519.9</ele>
        <time>2020-11-11T09:24:42Z</time>
      </trkpt>
      <trkpt lat="28.5192680" lon="-16.3153670">
        <ele>519.9</ele>
        <time>2020-11-11T09:24:43Z</time>
      </trkpt>
      <trkpt lat="28.5191870" lon="-16.3152930">
        <ele>519.9</ele>
        <time>2020-11-11T09:24:44Z</time>
      </trkpt>
      <trkpt lat="28.5191870" lon="-16.3152930">
        <ele>519.9</ele>
        <time>2020-11-11T09:24:45Z</time>
      </trkpt>
      <trkpt lat="28.5191230" lon="-16.3151980">
        <ele>518.9</ele>
        <time>2020-11-11T09:24:46Z</time>
      </trkpt>
      <trkpt lat="28.5190970" lon="-16.3151450">
        <ele>518.9</ele>
        <time>2020-11-11T09:24:47Z</time>
      </trkpt>
      <trkpt lat="28.5190970" lon="-16.3151450">
        <ele>517.9</ele>
        <time>2020-11-11T09:24:48Z</time>
      </trkpt>
      <trkpt lat="28.5190500" lon="-16.3150270">
        <ele>517.9</ele>
        <time>2020-11-11T09:24:49Z</time>
      </trkpt>
      <trkpt lat="28.5190500" lon="-16.3150270">
        <ele>516.9</ele>
        <time>2020-11-11T09:24:50Z</time>
      </trkpt>
      <trkpt lat="28.5189570" lon="-16.3149530">
        <ele>516.9</ele>
        <time>2020-11-11T09:24:51Z</time>
      </trkpt>
      <trkpt lat="28.5189570" lon="-16.3149530">
        <ele>516.9</ele>
        <time>2020-11-11T09:24:52Z</time>
      </trkpt>
      <trkpt lat="28.5188520" lon="-16.3149200">
        <ele>516.9</ele>
        <time>2020-11-11T09:24:53Z</time>
      </trkpt>
      <trkpt lat="28.5188030" lon="-16.3149050">
        <ele>516.9</ele>
        <time>2020-11-11T09:24:54Z</time>
      </trkpt>
      <trkpt lat="28.5188030" lon="-16.3149050">
        <ele>516.9</ele>
        <time>2020-11-11T09:24:55Z</time>
      </trkpt>
      <trkpt lat="28.5187170" lon="-16.3148750">
        <ele>516.9</ele>
        <time>2020-11-11T09:24:56Z</time>
      </trkpt>
      <trkpt lat="28.5186750" lon="-16.3148650">
        <ele>516.9</ele>
        <time>2020-11-11T09:24:57Z</time>
      </trkpt>
      <trkpt lat="28.5186750" lon="-16.3148650">
        <ele>516.9</ele>
        <time>2020-11-11T09:24:58Z</time>
      </trkpt>
      <trkpt lat="28.5186000" lon="-16.3148430">
        <ele>516.9</ele>
        <time>2020-11-11T09:24:59Z</time>
      </trkpt>
      <trkpt lat="28.5185630" lon="-16.3148300">
        <ele>516.9</ele>
        <time>2020-11-11T09:25:00Z</time>
      </trkpt>
      <trkpt lat="28.5185630" lon="-16.3148300">
        <ele>516.9</ele>
        <time>2020-11-11T09:25:01Z</time>
      </trkpt>
      <trkpt lat="28.5185030" lon="-16.3147950">
        <ele>517.9</ele>
        <time>2020-11-11T09:25:02Z</time>
      </trkpt>
      <trkpt lat="28.5185030" lon="-16.3147950">
        <ele>517.9</ele>
        <time>2020-11-11T09:25:03Z</time>
      </trkpt>
      <trkpt lat="28.5184430" lon="-16.3147570">
        <ele>517.9</ele>
        <time>2020-11-11T09:25:04Z</time>
      </trkpt>
      <trkpt lat="28.5184170" lon="-16.3147380">
        <ele>517.9</ele>
        <time>2020-11-11T09:25:05Z</time>
      </trkpt>
      <trkpt lat="28.5184170" lon="-16.3147380">
        <ele>518.9</ele>
        <time>2020-11-11T09:25:06Z</time>
      </trkpt>
      <trkpt lat="28.5183670" lon="-16.3146820">
        <ele>518.9</ele>
        <time>2020-11-11T09:25:07Z</time>
      </trkpt>
      <trkpt lat="28.5183420" lon="-16.3146550">
        <ele>518.9</ele>
        <time>2020-11-11T09:25:08Z</time>
      </trkpt>
      <trkpt lat="28.5183420" lon="-16.3146550">
        <ele>518.9</ele>
        <time>2020-11-11T09:25:09Z</time>
      </trkpt>
      <trkpt lat="28.5182970" lon="-16.3145980">
        <ele>518.9</ele>
        <time>2020-11-11T09:25:10Z</time>
      </trkpt>
      <trkpt lat="28.5182970" lon="-16.3145980">
        <ele>519.9</ele>
        <time>2020-11-11T09:25:11Z</time>
      </trkpt>
      <trkpt lat="28.5182530" lon="-16.3145400">
        <ele>519.9</ele>
        <time>2020-11-11T09:25:12Z</time>
      </trkpt>
      <trkpt lat="28.5182530" lon="-16.3145400">
        <ele>519.9</ele>
        <time>2020-11-11T09:25:13Z</time>
      </trkpt>
      <trkpt lat="28.5182120" lon="-16.3144850">
        <ele>519.9</ele>
        <time>2020-11-11T09:25:14Z</time>
      </trkpt>
      <trkpt lat="28.5181900" lon="-16.3144580">
        <ele>520.9</ele>
        <time>2020-11-11T09:25:15Z</time>
      </trkpt>
      <trkpt lat="28.5181900" lon="-16.3144580">
        <ele>520.9</ele>
        <time>2020-11-11T09:25:16Z</time>
      </trkpt>
      <trkpt lat="28.5181470" lon="-16.3144050">
        <ele>520.9</ele>
        <time>2020-11-11T09:25:17Z</time>
      </trkpt>
      <trkpt lat="28.5181470" lon="-16.3144050">
        <ele>520.9</ele>
        <time>2020-11-11T09:25:18Z</time>
      </trkpt>
      <trkpt lat="28.5181030" lon="-16.3143520">
        <ele>520.9</ele>
        <time>2020-11-11T09:25:19Z</time>
      </trkpt>
      <trkpt lat="28.5181030" lon="-16.3143520">
        <ele>520.9</ele>
        <time>2020-11-11T09:25:20Z</time>
      </trkpt>
      <trkpt lat="28.5180650" lon="-16.3142950">
        <ele>521.9</ele>
        <time>2020-11-11T09:25:21Z</time>
      </trkpt>
      <trkpt lat="28.5180650" lon="-16.3142950">
        <ele>521.9</ele>
        <time>2020-11-11T09:25:22Z</time>
      </trkpt>
      <trkpt lat="28.5180230" lon="-16.3142420">
        <ele>521.9</ele>
        <time>2020-11-11T09:25:23Z</time>
      </trkpt>
      <trkpt lat="28.5180230" lon="-16.3142420">
        <ele>521.9</ele>
        <time>2020-11-11T09:25:24Z</time>
      </trkpt>
      <trkpt lat="28.5179820" lon="-16.3141900">
        <ele>522.9</ele>
        <time>2020-11-11T09:25:25Z</time>
      </trkpt>
      <trkpt lat="28.5179820" lon="-16.3141900">
        <ele>522.9</ele>
        <time>2020-11-11T09:25:26Z</time>
      </trkpt>
      <trkpt lat="28.5179370" lon="-16.3141380">
        <ele>522.9</ele>
        <time>2020-11-11T09:25:27Z</time>
      </trkpt>
      <trkpt lat="28.5179370" lon="-16.3141380">
        <ele>522.9</ele>
        <time>2020-11-11T09:25:28Z</time>
      </trkpt>
      <trkpt lat="28.5178950" lon="-16.3140900">
        <ele>523.9</ele>
        <time>2020-11-11T09:25:29Z</time>
      </trkpt>
      <trkpt lat="28.5178950" lon="-16.3140900">
        <ele>523.9</ele>
        <time>2020-11-11T09:25:30Z</time>
      </trkpt>
      <trkpt lat="28.5178530" lon="-16.3140380">
        <ele>523.9</ele>
        <time>2020-11-11T09:25:31Z</time>
      </trkpt>
      <trkpt lat="28.5178330" lon="-16.3140120">
        <ele>523.9</ele>
        <time>2020-11-11T09:25:32Z</time>
      </trkpt>
      <trkpt lat="28.5178330" lon="-16.3140120">
        <ele>524.9</ele>
        <time>2020-11-11T09:25:33Z</time>
      </trkpt>
      <trkpt lat="28.5177900" lon="-16.3139650">
        <ele>524.9</ele>
        <time>2020-11-11T09:25:34Z</time>
      </trkpt>
      <trkpt lat="28.5177680" lon="-16.3139430">
        <ele>524.9</ele>
        <time>2020-11-11T09:25:35Z</time>
      </trkpt>
      <trkpt lat="28.5177680" lon="-16.3139430">
        <ele>524.9</ele>
        <time>2020-11-11T09:25:36Z</time>
      </trkpt>
      <trkpt lat="28.5177100" lon="-16.3139050">
        <ele>524.9</ele>
        <time>2020-11-11T09:25:37Z</time>
      </trkpt>
      <trkpt lat="28.5177100" lon="-16.3139050">
        <ele>524.9</ele>
        <time>2020-11-11T09:25:38Z</time>
      </trkpt>
      <trkpt lat="28.5176530" lon="-16.3138680">
        <ele>525.9</ele>
        <time>2020-11-11T09:25:39Z</time>
      </trkpt>
      <trkpt lat="28.5176530" lon="-16.3138680">
        <ele>525.9</ele>
        <time>2020-11-11T09:25:40Z</time>
      </trkpt>
      <trkpt lat="28.5175970" lon="-16.3138330">
        <ele>525.9</ele>
        <time>2020-11-11T09:25:41Z</time>
      </trkpt>
      <trkpt lat="28.5175970" lon="-16.3138330">
        <ele>525.9</ele>
        <time>2020-11-11T09:25:42Z</time>
      </trkpt>
      <trkpt lat="28.5175370" lon="-16.3138070">
        <ele>525.9</ele>
        <time>2020-11-11T09:25:43Z</time>
      </trkpt>
      <trkpt lat="28.5175370" lon="-16.3138070">
        <ele>525.9</ele>
        <time>2020-11-11T09:25:44Z</time>
      </trkpt>
      <trkpt lat="28.5174720" lon="-16.3137830">
        <ele>525.9</ele>
        <time>2020-11-11T09:25:45Z</time>
      </trkpt>
      <trkpt lat="28.5174720" lon="-16.3137830">
        <ele>525.9</ele>
        <time>2020-11-11T09:25:46Z</time>
      </trkpt>
      <trkpt lat="28.5174030" lon="-16.3137670">
        <ele>525.9</ele>
        <time>2020-11-11T09:25:47Z</time>
      </trkpt>
      <trkpt lat="28.5174030" lon="-16.3137670">
        <ele>526.9</ele>
        <time>2020-11-11T09:25:48Z</time>
      </trkpt>
      <trkpt lat="28.5173320" lon="-16.3137530">
        <ele>526.9</ele>
        <time>2020-11-11T09:25:49Z</time>
      </trkpt>
      <trkpt lat="28.5172970" lon="-16.3137500">
        <ele>526.9</ele>
        <time>2020-11-11T09:25:50Z</time>
      </trkpt>
      <trkpt lat="28.5172630" lon="-16.3137400">
        <ele>526.9</ele>
        <time>2020-11-11T09:25:51Z</time>
      </trkpt>
      <trkpt lat="28.5172630" lon="-16.3137400">
        <ele>526.9</ele>
        <time>2020-11-11T09:25:52Z</time>
      </trkpt>
      <trkpt lat="28.5171920" lon="-16.3137170">
        <ele>526.9</ele>
        <time>2020-11-11T09:25:53Z</time>
      </trkpt>
      <trkpt lat="28.5171920" lon="-16.3137170">
        <ele>526.9</ele>
        <time>2020-11-11T09:25:54Z</time>
      </trkpt>
      <trkpt lat="28.5171230" lon="-16.3137070">
        <ele>527.9</ele>
        <time>2020-11-11T09:25:55Z</time>
      </trkpt>
      <trkpt lat="28.5170880" lon="-16.3137000">
        <ele>527.9</ele>
        <time>2020-11-11T09:25:56Z</time>
      </trkpt>
      <trkpt lat="28.5170880" lon="-16.3137000">
        <ele>527.9</ele>
        <time>2020-11-11T09:25:57Z</time>
      </trkpt>
      <trkpt lat="28.5170150" lon="-16.3136850">
        <ele>527.9</ele>
        <time>2020-11-11T09:25:58Z</time>
      </trkpt>
      <trkpt lat="28.5170150" lon="-16.3136850">
        <ele>527.9</ele>
        <time>2020-11-11T09:25:59Z</time>
      </trkpt>
      <trkpt lat="28.5169470" lon="-16.3136720">
        <ele>527.9</ele>
        <time>2020-11-11T09:26:00Z</time>
      </trkpt>
      <trkpt lat="28.5169120" lon="-16.3136630">
        <ele>527.9</ele>
        <time>2020-11-11T09:26:01Z</time>
      </trkpt>
      <trkpt lat="28.5169120" lon="-16.3136630">
        <ele>527.9</ele>
        <time>2020-11-11T09:26:02Z</time>
      </trkpt>
      <trkpt lat="28.5168400" lon="-16.3136470">
        <ele>527.9</ele>
        <time>2020-11-11T09:26:03Z</time>
      </trkpt>
      <trkpt lat="28.5168400" lon="-16.3136470">
        <ele>527.9</ele>
        <time>2020-11-11T09:26:04Z</time>
      </trkpt>
      <trkpt lat="28.5167670" lon="-16.3136350">
        <ele>527.9</ele>
        <time>2020-11-11T09:26:05Z</time>
      </trkpt>
      <trkpt lat="28.5167670" lon="-16.3136350">
        <ele>527.9</ele>
        <time>2020-11-11T09:26:06Z</time>
      </trkpt>
      <trkpt lat="28.5166900" lon="-16.3136170">
        <ele>527.9</ele>
        <time>2020-11-11T09:26:07Z</time>
      </trkpt>
      <trkpt lat="28.5166500" lon="-16.3136050">
        <ele>527.9</ele>
        <time>2020-11-11T09:26:08Z</time>
      </trkpt>
      <trkpt lat="28.5166500" lon="-16.3136050">
        <ele>527.9</ele>
        <time>2020-11-11T09:26:09Z</time>
      </trkpt>
      <trkpt lat="28.5165730" lon="-16.3135780">
        <ele>527.9</ele>
        <time>2020-11-11T09:26:10Z</time>
      </trkpt>
      <trkpt lat="28.5165730" lon="-16.3135780">
        <ele>527.9</ele>
        <time>2020-11-11T09:26:11Z</time>
      </trkpt>
      <trkpt lat="28.5165000" lon="-16.3135530">
        <ele>527.9</ele>
        <time>2020-11-11T09:26:12Z</time>
      </trkpt>
      <trkpt lat="28.5164600" lon="-16.3135280">
        <ele>527.9</ele>
        <time>2020-11-11T09:26:13Z</time>
      </trkpt>
      <trkpt lat="28.5164250" lon="-16.3134980">
        <ele>527.9</ele>
        <time>2020-11-11T09:26:14Z</time>
      </trkpt>
      <trkpt lat="28.5164250" lon="-16.3134980">
        <ele>527.9</ele>
        <time>2020-11-11T09:26:15Z</time>
      </trkpt>
      <trkpt lat="28.5163650" lon="-16.3134280">
        <ele>527.9</ele>
        <time>2020-11-11T09:26:16Z</time>
      </trkpt>
      <trkpt lat="28.5163370" lon="-16.3133900">
        <ele>527.9</ele>
        <time>2020-11-11T09:26:17Z</time>
      </trkpt>
      <trkpt lat="28.5163370" lon="-16.3133900">
        <ele>527.9</ele>
        <time>2020-11-11T09:26:18Z</time>
      </trkpt>
      <trkpt lat="28.5162900" lon="-16.3133030">
        <ele>527.9</ele>
        <time>2020-11-11T09:26:19Z</time>
      </trkpt>
      <trkpt lat="28.5162720" lon="-16.3132580">
        <ele>527.9</ele>
        <time>2020-11-11T09:26:20Z</time>
      </trkpt>
      <trkpt lat="28.5162720" lon="-16.3132580">
        <ele>527.9</ele>
        <time>2020-11-11T09:26:21Z</time>
      </trkpt>
      <trkpt lat="28.5162350" lon="-16.3131580">
        <ele>527.9</ele>
        <time>2020-11-11T09:26:22Z</time>
      </trkpt>
      <trkpt lat="28.5162170" lon="-16.3131100">
        <ele>527.9</ele>
        <time>2020-11-11T09:26:23Z</time>
      </trkpt>
      <trkpt lat="28.5162170" lon="-16.3131100">
        <ele>527.9</ele>
        <time>2020-11-11T09:26:24Z</time>
      </trkpt>
      <trkpt lat="28.5161800" lon="-16.3130120">
        <ele>527.9</ele>
        <time>2020-11-11T09:26:25Z</time>
      </trkpt>
      <trkpt lat="28.5161620" lon="-16.3129630">
        <ele>527.9</ele>
        <time>2020-11-11T09:26:26Z</time>
      </trkpt>
      <trkpt lat="28.5161620" lon="-16.3129630">
        <ele>527.9</ele>
        <time>2020-11-11T09:26:27Z</time>
      </trkpt>
      <trkpt lat="28.5161230" lon="-16.3128630">
        <ele>528.9</ele>
        <time>2020-11-11T09:26:28Z</time>
      </trkpt>
      <trkpt lat="28.5161230" lon="-16.3128630">
        <ele>528.9</ele>
        <time>2020-11-11T09:26:29Z</time>
      </trkpt>
      <trkpt lat="28.5160870" lon="-16.3127630">
        <ele>528.9</ele>
        <time>2020-11-11T09:26:30Z</time>
      </trkpt>
      <trkpt lat="28.5160870" lon="-16.3127630">
        <ele>528.9</ele>
        <time>2020-11-11T09:26:31Z</time>
      </trkpt>
      <trkpt lat="28.5160350" lon="-16.3126720">
        <ele>528.9</ele>
        <time>2020-11-11T09:26:32Z</time>
      </trkpt>
      <trkpt lat="28.5160350" lon="-16.3126720">
        <ele>528.9</ele>
        <time>2020-11-11T09:26:33Z</time>
      </trkpt>
      <trkpt lat="28.5159680" lon="-16.3125970">
        <ele>528.9</ele>
        <time>2020-11-11T09:26:34Z</time>
      </trkpt>
      <trkpt lat="28.5159300" lon="-16.3125620">
        <ele>528.9</ele>
        <time>2020-11-11T09:26:35Z</time>
      </trkpt>
      <trkpt lat="28.5158920" lon="-16.3125300">
        <ele>528.9</ele>
        <time>2020-11-11T09:26:36Z</time>
      </trkpt>
      <trkpt lat="28.5158920" lon="-16.3125300">
        <ele>528.9</ele>
        <time>2020-11-11T09:26:37Z</time>
      </trkpt>
      <trkpt lat="28.5158120" lon="-16.3124680">
        <ele>528.9</ele>
        <time>2020-11-11T09:26:38Z</time>
      </trkpt>
      <trkpt lat="28.5158120" lon="-16.3124680">
        <ele>529.9</ele>
        <time>2020-11-11T09:26:39Z</time>
      </trkpt>
      <trkpt lat="28.5157330" lon="-16.3124100">
        <ele>529.9</ele>
        <time>2020-11-11T09:26:40Z</time>
      </trkpt>
      <trkpt lat="28.5157330" lon="-16.3124100">
        <ele>529.9</ele>
        <time>2020-11-11T09:26:41Z</time>
      </trkpt>
      <trkpt lat="28.5156550" lon="-16.3123450">
        <ele>529.9</ele>
        <time>2020-11-11T09:26:42Z</time>
      </trkpt>
      <trkpt lat="28.5156180" lon="-16.3123150">
        <ele>529.9</ele>
        <time>2020-11-11T09:26:43Z</time>
      </trkpt>
      <trkpt lat="28.5156180" lon="-16.3123150">
        <ele>529.9</ele>
        <time>2020-11-11T09:26:44Z</time>
      </trkpt>
      <trkpt lat="28.5155400" lon="-16.3122520">
        <ele>529.9</ele>
        <time>2020-11-11T09:26:45Z</time>
      </trkpt>
      <trkpt lat="28.5155400" lon="-16.3122520">
        <ele>529.9</ele>
        <time>2020-11-11T09:26:46Z</time>
      </trkpt>
      <trkpt lat="28.5154650" lon="-16.3121820">
        <ele>529.9</ele>
        <time>2020-11-11T09:26:47Z</time>
      </trkpt>
      <trkpt lat="28.5154300" lon="-16.3121450">
        <ele>529.9</ele>
        <time>2020-11-11T09:26:48Z</time>
      </trkpt>
      <trkpt lat="28.5154300" lon="-16.3121450">
        <ele>530.9</ele>
        <time>2020-11-11T09:26:49Z</time>
      </trkpt>
      <trkpt lat="28.5153620" lon="-16.3120720">
        <ele>530.9</ele>
        <time>2020-11-11T09:26:50Z</time>
      </trkpt>
      <trkpt lat="28.5153270" lon="-16.3120320">
        <ele>530.9</ele>
        <time>2020-11-11T09:26:51Z</time>
      </trkpt>
      <trkpt lat="28.5153270" lon="-16.3120320">
        <ele>530.9</ele>
        <time>2020-11-11T09:26:52Z</time>
      </trkpt>
      <trkpt lat="28.5152580" lon="-16.3119530">
        <ele>530.9</ele>
        <time>2020-11-11T09:26:53Z</time>
      </trkpt>
      <trkpt lat="28.5152580" lon="-16.3119530">
        <ele>530.9</ele>
        <time>2020-11-11T09:26:54Z</time>
      </trkpt>
      <trkpt lat="28.5151900" lon="-16.3118770">
        <ele>530.9</ele>
        <time>2020-11-11T09:26:55Z</time>
      </trkpt>
      <trkpt lat="28.5151900" lon="-16.3118770">
        <ele>530.9</ele>
        <time>2020-11-11T09:26:56Z</time>
      </trkpt>
      <trkpt lat="28.5151270" lon="-16.3117970">
        <ele>530.9</ele>
        <time>2020-11-11T09:26:57Z</time>
      </trkpt>
      <trkpt lat="28.5151270" lon="-16.3117970">
        <ele>530.9</ele>
        <time>2020-11-11T09:26:58Z</time>
      </trkpt>
      <trkpt lat="28.5150620" lon="-16.3117170">
        <ele>530.9</ele>
        <time>2020-11-11T09:26:59Z</time>
      </trkpt>
      <trkpt lat="28.5150350" lon="-16.3116780">
        <ele>530.9</ele>
        <time>2020-11-11T09:27:00Z</time>
      </trkpt>
      <trkpt lat="28.5150050" lon="-16.3116370">
        <ele>530.9</ele>
        <time>2020-11-11T09:27:01Z</time>
      </trkpt>
      <trkpt lat="28.5149780" lon="-16.3115950">
        <ele>530.9</ele>
        <time>2020-11-11T09:27:02Z</time>
      </trkpt>
      <trkpt lat="28.5149780" lon="-16.3115950">
        <ele>530.9</ele>
        <time>2020-11-11T09:27:03Z</time>
      </trkpt>
      <trkpt lat="28.5149270" lon="-16.3115080">
        <ele>530.9</ele>
        <time>2020-11-11T09:27:04Z</time>
      </trkpt>
      <trkpt lat="28.5149020" lon="-16.3114580">
        <ele>530.9</ele>
        <time>2020-11-11T09:27:05Z</time>
      </trkpt>
      <trkpt lat="28.5149020" lon="-16.3114580">
        <ele>530.9</ele>
        <time>2020-11-11T09:27:06Z</time>
      </trkpt>
      <trkpt lat="28.5148700" lon="-16.3113570">
        <ele>531.9</ele>
        <time>2020-11-11T09:27:07Z</time>
      </trkpt>
      <trkpt lat="28.5148600" lon="-16.3113100">
        <ele>531.9</ele>
        <time>2020-11-11T09:27:08Z</time>
      </trkpt>
      <trkpt lat="28.5148600" lon="-16.3113100">
        <ele>531.9</ele>
        <time>2020-11-11T09:27:09Z</time>
      </trkpt>
      <trkpt lat="28.5148480" lon="-16.3112220">
        <ele>531.9</ele>
        <time>2020-11-11T09:27:10Z</time>
      </trkpt>
      <trkpt lat="28.5148480" lon="-16.3111770">
        <ele>531.9</ele>
        <time>2020-11-11T09:27:11Z</time>
      </trkpt>
      <trkpt lat="28.5148430" lon="-16.3111370">
        <ele>531.9</ele>
        <time>2020-11-11T09:27:12Z</time>
      </trkpt>
      <trkpt lat="28.5148380" lon="-16.3110930">
        <ele>531.9</ele>
        <time>2020-11-11T09:27:13Z</time>
      </trkpt>
      <trkpt lat="28.5148300" lon="-16.3110520">
        <ele>531.9</ele>
        <time>2020-11-11T09:27:14Z</time>
      </trkpt>
      <trkpt lat="28.5148300" lon="-16.3110520">
        <ele>532.9</ele>
        <time>2020-11-11T09:27:15Z</time>
      </trkpt>
      <trkpt lat="28.5148130" lon="-16.3109720">
        <ele>532.9</ele>
        <time>2020-11-11T09:27:16Z</time>
      </trkpt>
      <trkpt lat="28.5148130" lon="-16.3109720">
        <ele>532.9</ele>
        <time>2020-11-11T09:27:17Z</time>
      </trkpt>
      <trkpt lat="28.5148030" lon="-16.3108980">
        <ele>532.9</ele>
        <time>2020-11-11T09:27:18Z</time>
      </trkpt>
      <trkpt lat="28.5148030" lon="-16.3108980">
        <ele>532.9</ele>
        <time>2020-11-11T09:27:19Z</time>
      </trkpt>
      <trkpt lat="28.5148030" lon="-16.3108180">
        <ele>532.9</ele>
        <time>2020-11-11T09:27:20Z</time>
      </trkpt>
      <trkpt lat="28.5148030" lon="-16.3107780">
        <ele>532.9</ele>
        <time>2020-11-11T09:27:21Z</time>
      </trkpt>
      <trkpt lat="28.5148030" lon="-16.3107780">
        <ele>532.9</ele>
        <time>2020-11-11T09:27:22Z</time>
      </trkpt>
      <trkpt lat="28.5148130" lon="-16.3106930">
        <ele>532.9</ele>
        <time>2020-11-11T09:27:23Z</time>
      </trkpt>
      <trkpt lat="28.5148130" lon="-16.3106930">
        <ele>532.9</ele>
        <time>2020-11-11T09:27:24Z</time>
      </trkpt>
      <trkpt lat="28.5148400" lon="-16.3106170">
        <ele>532.9</ele>
        <time>2020-11-11T09:27:25Z</time>
      </trkpt>
      <trkpt lat="28.5148580" lon="-16.3105820">
        <ele>532.9</ele>
        <time>2020-11-11T09:27:26Z</time>
      </trkpt>
      <trkpt lat="28.5148580" lon="-16.3105820">
        <ele>534.9</ele>
        <time>2020-11-11T09:27:27Z</time>
      </trkpt>
      <trkpt lat="28.5149030" lon="-16.3105170">
        <ele>534.9</ele>
        <time>2020-11-11T09:27:28Z</time>
      </trkpt>
      <trkpt lat="28.5149330" lon="-16.3104870">
        <ele>534.9</ele>
        <time>2020-11-11T09:27:29Z</time>
      </trkpt>
      <trkpt lat="28.5149330" lon="-16.3104870">
        <ele>534.9</ele>
        <time>2020-11-11T09:27:30Z</time>
      </trkpt>
      <trkpt lat="28.5149970" lon="-16.3104370">
        <ele>534.9</ele>
        <time>2020-11-11T09:27:31Z</time>
      </trkpt>
      <trkpt lat="28.5150250" lon="-16.3104120">
        <ele>534.9</ele>
        <time>2020-11-11T09:27:32Z</time>
      </trkpt>
      <trkpt lat="28.5150250" lon="-16.3104120">
        <ele>534.9</ele>
        <time>2020-11-11T09:27:33Z</time>
      </trkpt>
      <trkpt lat="28.5150800" lon="-16.3103530">
        <ele>534.9</ele>
        <time>2020-11-11T09:27:34Z</time>
      </trkpt>
      <trkpt lat="28.5151030" lon="-16.3103220">
        <ele>534.9</ele>
        <time>2020-11-11T09:27:35Z</time>
      </trkpt>
      <trkpt lat="28.5151270" lon="-16.3102870">
        <ele>534.9</ele>
        <time>2020-11-11T09:27:36Z</time>
      </trkpt>
      <trkpt lat="28.5151270" lon="-16.3102870">
        <ele>534.9</ele>
        <time>2020-11-11T09:27:37Z</time>
      </trkpt>
      <trkpt lat="28.5151630" lon="-16.3102170">
        <ele>534.9</ele>
        <time>2020-11-11T09:27:38Z</time>
      </trkpt>
      <trkpt lat="28.5151630" lon="-16.3102170">
        <ele>535.9</ele>
        <time>2020-11-11T09:27:39Z</time>
      </trkpt>
      <trkpt lat="28.5151930" lon="-16.3101420">
        <ele>535.9</ele>
        <time>2020-11-11T09:27:40Z</time>
      </trkpt>
      <trkpt lat="28.5152050" lon="-16.3101020">
        <ele>535.9</ele>
        <time>2020-11-11T09:27:41Z</time>
      </trkpt>
      <trkpt lat="28.5152050" lon="-16.3101020">
        <ele>535.9</ele>
        <time>2020-11-11T09:27:42Z</time>
      </trkpt>
      <trkpt lat="28.5152180" lon="-16.3100170">
        <ele>535.9</ele>
        <time>2020-11-11T09:27:43Z</time>
      </trkpt>
      <trkpt lat="28.5152180" lon="-16.3099750">
        <ele>535.9</ele>
        <time>2020-11-11T09:27:44Z</time>
      </trkpt>
      <trkpt lat="28.5152180" lon="-16.3099750">
        <ele>535.9</ele>
        <time>2020-11-11T09:27:45Z</time>
      </trkpt>
      <trkpt lat="28.5152150" lon="-16.3098920">
        <ele>535.9</ele>
        <time>2020-11-11T09:27:46Z</time>
      </trkpt>
      <trkpt lat="28.5152150" lon="-16.3098920">
        <ele>535.9</ele>
        <time>2020-11-11T09:27:47Z</time>
      </trkpt>
      <trkpt lat="28.5152130" lon="-16.3098080">
        <ele>536.9</ele>
        <time>2020-11-11T09:27:48Z</time>
      </trkpt>
      <trkpt lat="28.5152130" lon="-16.3098080">
        <ele>536.9</ele>
        <time>2020-11-11T09:27:49Z</time>
      </trkpt>
      <trkpt lat="28.5152070" lon="-16.3097250">
        <ele>536.9</ele>
        <time>2020-11-11T09:27:50Z</time>
      </trkpt>
      <trkpt lat="28.5152070" lon="-16.3097250">
        <ele>536.9</ele>
        <time>2020-11-11T09:27:51Z</time>
      </trkpt>
      <trkpt lat="28.5151970" lon="-16.3096420">
        <ele>536.9</ele>
        <time>2020-11-11T09:27:52Z</time>
      </trkpt>
      <trkpt lat="28.5151970" lon="-16.3096420">
        <ele>536.9</ele>
        <time>2020-11-11T09:27:53Z</time>
      </trkpt>
      <trkpt lat="28.5151980" lon="-16.3095600">
        <ele>536.9</ele>
        <time>2020-11-11T09:27:54Z</time>
      </trkpt>
      <trkpt lat="28.5151950" lon="-16.3095220">
        <ele>536.9</ele>
        <time>2020-11-11T09:27:55Z</time>
      </trkpt>
      <trkpt lat="28.5151950" lon="-16.3095220">
        <ele>537.9</ele>
        <time>2020-11-11T09:27:56Z</time>
      </trkpt>
      <trkpt lat="28.5151970" lon="-16.3094430">
        <ele>537.9</ele>
        <time>2020-11-11T09:27:57Z</time>
      </trkpt>
      <trkpt lat="28.5151970" lon="-16.3094430">
        <ele>537.9</ele>
        <time>2020-11-11T09:27:58Z</time>
      </trkpt>
      <trkpt lat="28.5151920" lon="-16.3093670">
        <ele>537.9</ele>
        <time>2020-11-11T09:27:59Z</time>
      </trkpt>
      <trkpt lat="28.5151920" lon="-16.3093670">
        <ele>537.9</ele>
        <time>2020-11-11T09:28:00Z</time>
      </trkpt>
      <trkpt lat="28.5151820" lon="-16.3092970">
        <ele>537.9</ele>
        <time>2020-11-11T09:28:01Z</time>
      </trkpt>
      <trkpt lat="28.5151820" lon="-16.3092970">
        <ele>537.9</ele>
        <time>2020-11-11T09:28:02Z</time>
      </trkpt>
      <trkpt lat="28.5151800" lon="-16.3092280">
        <ele>537.9</ele>
        <time>2020-11-11T09:28:03Z</time>
      </trkpt>
      <trkpt lat="28.5151800" lon="-16.3091950">
        <ele>538.9</ele>
        <time>2020-11-11T09:28:04Z</time>
      </trkpt>
      <trkpt lat="28.5151800" lon="-16.3091950">
        <ele>538.9</ele>
        <time>2020-11-11T09:28:05Z</time>
      </trkpt>
      <trkpt lat="28.5151630" lon="-16.3091270">
        <ele>538.9</ele>
        <time>2020-11-11T09:28:06Z</time>
      </trkpt>
      <trkpt lat="28.5151630" lon="-16.3091270">
        <ele>538.9</ele>
        <time>2020-11-11T09:28:07Z</time>
      </trkpt>
      <trkpt lat="28.5151600" lon="-16.3090470">
        <ele>538.9</ele>
        <time>2020-11-11T09:28:08Z</time>
      </trkpt>
      <trkpt lat="28.5151600" lon="-16.3090470">
        <ele>538.9</ele>
        <time>2020-11-11T09:28:09Z</time>
      </trkpt>
      <trkpt lat="28.5151650" lon="-16.3089700">
        <ele>539.9</ele>
        <time>2020-11-11T09:28:10Z</time>
      </trkpt>
      <trkpt lat="28.5151630" lon="-16.3089320">
        <ele>539.9</ele>
        <time>2020-11-11T09:28:11Z</time>
      </trkpt>
      <trkpt lat="28.5151630" lon="-16.3089320">
        <ele>539.9</ele>
        <time>2020-11-11T09:28:12Z</time>
      </trkpt>
      <trkpt lat="28.5151570" lon="-16.3088550">
        <ele>539.9</ele>
        <time>2020-11-11T09:28:13Z</time>
      </trkpt>
      <trkpt lat="28.5151570" lon="-16.3088550">
        <ele>539.9</ele>
        <time>2020-11-11T09:28:14Z</time>
      </trkpt>
      <trkpt lat="28.5151520" lon="-16.3087800">
        <ele>539.9</ele>
        <time>2020-11-11T09:28:15Z</time>
      </trkpt>
      <trkpt lat="28.5151520" lon="-16.3087800">
        <ele>539.9</ele>
        <time>2020-11-11T09:28:16Z</time>
      </trkpt>
      <trkpt lat="28.5151500" lon="-16.3086980">
        <ele>539.9</ele>
        <time>2020-11-11T09:28:17Z</time>
      </trkpt>
      <trkpt lat="28.5151500" lon="-16.3086980">
        <ele>539.9</ele>
        <time>2020-11-11T09:28:18Z</time>
      </trkpt>
      <trkpt lat="28.5151480" lon="-16.3086150">
        <ele>539.9</ele>
        <time>2020-11-11T09:28:19Z</time>
      </trkpt>
      <trkpt lat="28.5151500" lon="-16.3085700">
        <ele>540.9</ele>
        <time>2020-11-11T09:28:20Z</time>
      </trkpt>
      <trkpt lat="28.5151500" lon="-16.3085700">
        <ele>540.9</ele>
        <time>2020-11-11T09:28:21Z</time>
      </trkpt>
      <trkpt lat="28.5151480" lon="-16.3084830">
        <ele>540.9</ele>
        <time>2020-11-11T09:28:22Z</time>
      </trkpt>
      <trkpt lat="28.5151480" lon="-16.3084830">
        <ele>540.9</ele>
        <time>2020-11-11T09:28:23Z</time>
      </trkpt>
      <trkpt lat="28.5151420" lon="-16.3084000">
        <ele>540.9</ele>
        <time>2020-11-11T09:28:24Z</time>
      </trkpt>
      <trkpt lat="28.5151420" lon="-16.3084000">
        <ele>540.9</ele>
        <time>2020-11-11T09:28:25Z</time>
      </trkpt>
      <trkpt lat="28.5151280" lon="-16.3083200">
        <ele>540.9</ele>
        <time>2020-11-11T09:28:26Z</time>
      </trkpt>
      <trkpt lat="28.5151280" lon="-16.3083200">
        <ele>540.9</ele>
        <time>2020-11-11T09:28:27Z</time>
      </trkpt>
      <trkpt lat="28.5151070" lon="-16.3082470">
        <ele>540.9</ele>
        <time>2020-11-11T09:28:28Z</time>
      </trkpt>
      <trkpt lat="28.5150900" lon="-16.3082180">
        <ele>540.9</ele>
        <time>2020-11-11T09:28:29Z</time>
      </trkpt>
      <trkpt lat="28.5150900" lon="-16.3082180">
        <ele>540.9</ele>
        <time>2020-11-11T09:28:30Z</time>
      </trkpt>
      <trkpt lat="28.5150430" lon="-16.3081750">
        <ele>540.9</ele>
        <time>2020-11-11T09:28:31Z</time>
      </trkpt>
      <trkpt lat="28.5150230" lon="-16.3081600">
        <ele>540.9</ele>
        <time>2020-11-11T09:28:32Z</time>
      </trkpt>
      <trkpt lat="28.5150230" lon="-16.3081600">
        <ele>541.9</ele>
        <time>2020-11-11T09:28:33Z</time>
      </trkpt>
      <trkpt lat="28.5149850" lon="-16.3081350">
        <ele>541.9</ele>
        <time>2020-11-11T09:28:34Z</time>
      </trkpt>
      <trkpt lat="28.5149850" lon="-16.3081350">
        <ele>541.9</ele>
        <time>2020-11-11T09:28:35Z</time>
      </trkpt>
      <trkpt lat="28.5149380" lon="-16.3081230">
        <ele>541.9</ele>
        <time>2020-11-11T09:28:36Z</time>
      </trkpt>
      <trkpt lat="28.5149100" lon="-16.3081200">
        <ele>541.9</ele>
        <time>2020-11-11T09:28:37Z</time>
      </trkpt>
      <trkpt lat="28.5149100" lon="-16.3081200">
        <ele>541.9</ele>
        <time>2020-11-11T09:28:38Z</time>
      </trkpt>
      <trkpt lat="28.5148570" lon="-16.3081130">
        <ele>541.9</ele>
        <time>2020-11-11T09:28:39Z</time>
      </trkpt>
      <trkpt lat="28.5148280" lon="-16.3081120">
        <ele>541.9</ele>
        <time>2020-11-11T09:28:40Z</time>
      </trkpt>
      <trkpt lat="28.5148280" lon="-16.3081120">
        <ele>543.9</ele>
        <time>2020-11-11T09:28:41Z</time>
      </trkpt>
      <trkpt lat="28.5147770" lon="-16.3081100">
        <ele>543.9</ele>
        <time>2020-11-11T09:28:42Z</time>
      </trkpt>
      <trkpt lat="28.5147500" lon="-16.3081080">
        <ele>543.9</ele>
        <time>2020-11-11T09:28:43Z</time>
      </trkpt>
      <trkpt lat="28.5147500" lon="-16.3081080">
        <ele>543.9</ele>
        <time>2020-11-11T09:28:44Z</time>
      </trkpt>
      <trkpt lat="28.5147100" lon="-16.3081030">
        <ele>544.9</ele>
        <time>2020-11-11T09:28:45Z</time>
      </trkpt>
      <trkpt lat="28.5147100" lon="-16.3081030">
        <ele>544.9</ele>
        <time>2020-11-11T09:28:46Z</time>
      </trkpt>
      <trkpt lat="28.5146630" lon="-16.3081020">
        <ele>544.9</ele>
        <time>2020-11-11T09:28:47Z</time>
      </trkpt>
      <trkpt lat="28.5146430" lon="-16.3081050">
        <ele>544.9</ele>
        <time>2020-11-11T09:28:48Z</time>
      </trkpt>
      <trkpt lat="28.5146430" lon="-16.3081050">
        <ele>544.9</ele>
        <time>2020-11-11T09:28:49Z</time>
      </trkpt>
      <trkpt lat="28.5146050" lon="-16.3081200">
        <ele>545.9</ele>
        <time>2020-11-11T09:28:50Z</time>
      </trkpt>
      <trkpt lat="28.5146050" lon="-16.3081200">
        <ele>545.9</ele>
        <time>2020-11-11T09:28:51Z</time>
      </trkpt>
      <trkpt lat="28.5145730" lon="-16.3081430">
        <ele>545.9</ele>
        <time>2020-11-11T09:28:52Z</time>
      </trkpt>
      <trkpt lat="28.5145730" lon="-16.3081430">
        <ele>545.9</ele>
        <time>2020-11-11T09:28:53Z</time>
      </trkpt>
      <trkpt lat="28.5145500" lon="-16.3081770">
        <ele>545.9</ele>
        <time>2020-11-11T09:28:54Z</time>
      </trkpt>
      <trkpt lat="28.5145500" lon="-16.3081770">
        <ele>545.9</ele>
        <time>2020-11-11T09:28:55Z</time>
      </trkpt>
      <trkpt lat="28.5145220" lon="-16.3082070">
        <ele>546.9</ele>
        <time>2020-11-11T09:28:56Z</time>
      </trkpt>
      <trkpt lat="28.5145220" lon="-16.3082070">
        <ele>546.9</ele>
        <time>2020-11-11T09:28:57Z</time>
      </trkpt>
      <trkpt lat="28.5145000" lon="-16.3082450">
        <ele>546.9</ele>
        <time>2020-11-11T09:28:58Z</time>
      </trkpt>
      <trkpt lat="28.5144900" lon="-16.3082630">
        <ele>546.9</ele>
        <time>2020-11-11T09:28:59Z</time>
      </trkpt>
      <trkpt lat="28.5144900" lon="-16.3082630">
        <ele>546.9</ele>
        <time>2020-11-11T09:29:00Z</time>
      </trkpt>
      <trkpt lat="28.5144670" lon="-16.3083000">
        <ele>546.9</ele>
        <time>2020-11-11T09:29:01Z</time>
      </trkpt>
      <trkpt lat="28.5144670" lon="-16.3083000">
        <ele>546.9</ele>
        <time>2020-11-11T09:29:02Z</time>
      </trkpt>
      <trkpt lat="28.5144420" lon="-16.3083400">
        <ele>548.9</ele>
        <time>2020-11-11T09:29:03Z</time>
      </trkpt>
      <trkpt lat="28.5144420" lon="-16.3083400">
        <ele>548.9</ele>
        <time>2020-11-11T09:29:04Z</time>
      </trkpt>
      <trkpt lat="28.5144200" lon="-16.3083780">
        <ele>548.9</ele>
        <time>2020-11-11T09:29:05Z</time>
      </trkpt>
      <trkpt lat="28.5144200" lon="-16.3083780">
        <ele>548.9</ele>
        <time>2020-11-11T09:29:06Z</time>
      </trkpt>
      <trkpt lat="28.5143950" lon="-16.3084180">
        <ele>548.9</ele>
        <time>2020-11-11T09:29:07Z</time>
      </trkpt>
      <trkpt lat="28.5143850" lon="-16.3084380">
        <ele>548.9</ele>
        <time>2020-11-11T09:29:08Z</time>
      </trkpt>
      <trkpt lat="28.5143850" lon="-16.3084380">
        <ele>548.9</ele>
        <time>2020-11-11T09:29:09Z</time>
      </trkpt>
      <trkpt lat="28.5143650" lon="-16.3084880">
        <ele>548.9</ele>
        <time>2020-11-11T09:29:10Z</time>
      </trkpt>
      <trkpt lat="28.5143650" lon="-16.3084880">
        <ele>549.9</ele>
        <time>2020-11-11T09:29:11Z</time>
      </trkpt>
      <trkpt lat="28.5143480" lon="-16.3085350">
        <ele>549.9</ele>
        <time>2020-11-11T09:29:12Z</time>
      </trkpt>
      <trkpt lat="28.5143480" lon="-16.3085350">
        <ele>549.9</ele>
        <time>2020-11-11T09:29:13Z</time>
      </trkpt>
      <trkpt lat="28.5143250" lon="-16.3085750">
        <ele>549.9</ele>
        <time>2020-11-11T09:29:14Z</time>
      </trkpt>
      <trkpt lat="28.5143250" lon="-16.3085750">
        <ele>549.9</ele>
        <time>2020-11-11T09:29:15Z</time>
      </trkpt>
      <trkpt lat="28.5142980" lon="-16.3086130">
        <ele>549.9</ele>
        <time>2020-11-11T09:29:16Z</time>
      </trkpt>
      <trkpt lat="28.5142980" lon="-16.3086130">
        <ele>550.9</ele>
        <time>2020-11-11T09:29:17Z</time>
      </trkpt>
      <trkpt lat="28.5142700" lon="-16.3086500">
        <ele>550.9</ele>
        <time>2020-11-11T09:29:18Z</time>
      </trkpt>
      <trkpt lat="28.5142700" lon="-16.3086500">
        <ele>550.9</ele>
        <time>2020-11-11T09:29:19Z</time>
      </trkpt>
      <trkpt lat="28.5142330" lon="-16.3086770">
        <ele>550.9</ele>
        <time>2020-11-11T09:29:20Z</time>
      </trkpt>
      <trkpt lat="28.5142130" lon="-16.3086870">
        <ele>551.9</ele>
        <time>2020-11-11T09:29:21Z</time>
      </trkpt>
      <trkpt lat="28.5142130" lon="-16.3086870">
        <ele>551.9</ele>
        <time>2020-11-11T09:29:22Z</time>
      </trkpt>
      <trkpt lat="28.5141680" lon="-16.3087050">
        <ele>551.9</ele>
        <time>2020-11-11T09:29:23Z</time>
      </trkpt>
      <trkpt lat="28.5141450" lon="-16.3087100">
        <ele>551.9</ele>
        <time>2020-11-11T09:29:24Z</time>
      </trkpt>
      <trkpt lat="28.5141450" lon="-16.3087100">
        <ele>552.9</ele>
        <time>2020-11-11T09:29:25Z</time>
      </trkpt>
      <trkpt lat="28.5141050" lon="-16.3087120">
        <ele>552.9</ele>
        <time>2020-11-11T09:29:26Z</time>
      </trkpt>
      <trkpt lat="28.5141050" lon="-16.3087120">
        <ele>552.9</ele>
        <time>2020-11-11T09:29:27Z</time>
      </trkpt>
      <trkpt lat="28.5140580" lon="-16.3087030">
        <ele>552.9</ele>
        <time>2020-11-11T09:29:28Z</time>
      </trkpt>
      <trkpt lat="28.5140380" lon="-16.3086980">
        <ele>552.9</ele>
        <time>2020-11-11T09:29:29Z</time>
      </trkpt>
      <trkpt lat="28.5140380" lon="-16.3086980">
        <ele>552.9</ele>
        <time>2020-11-11T09:29:30Z</time>
      </trkpt>
      <trkpt lat="28.5140130" lon="-16.3086850">
        <ele>553.9</ele>
        <time>2020-11-11T09:29:31Z</time>
      </trkpt>
      <trkpt lat="28.5140130" lon="-16.3086850">
        <ele>553.9</ele>
        <time>2020-11-11T09:29:32Z</time>
      </trkpt>
      <trkpt lat="28.5140170" lon="-16.3086630">
        <ele>553.9</ele>
        <time>2020-11-11T09:29:33Z</time>
      </trkpt>
      <trkpt lat="28.5140170" lon="-16.3086630">
        <ele>553.9</ele>
        <time>2020-11-11T09:29:34Z</time>
      </trkpt>
      <trkpt lat="28.5139930" lon="-16.3086280">
        <ele>553.9</ele>
        <time>2020-11-11T09:29:35Z</time>
      </trkpt>
      <trkpt lat="28.5139930" lon="-16.3086280">
        <ele>553.9</ele>
        <time>2020-11-11T09:29:36Z</time>
      </trkpt>
      <trkpt lat="28.5139730" lon="-16.3085830">
        <ele>554.9</ele>
        <time>2020-11-11T09:29:37Z</time>
      </trkpt>
      <trkpt lat="28.5139730" lon="-16.3085580">
        <ele>554.9</ele>
        <time>2020-11-11T09:29:38Z</time>
      </trkpt>
      <trkpt lat="28.5139730" lon="-16.3085580">
        <ele>554.9</ele>
        <time>2020-11-11T09:29:39Z</time>
      </trkpt>
      <trkpt lat="28.5139830" lon="-16.3085070">
        <ele>554.9</ele>
        <time>2020-11-11T09:29:40Z</time>
      </trkpt>
      <trkpt lat="28.5139830" lon="-16.3085070">
        <ele>554.9</ele>
        <time>2020-11-11T09:29:41Z</time>
      </trkpt>
      <trkpt lat="28.5139850" lon="-16.3084530">
        <ele>555.9</ele>
        <time>2020-11-11T09:29:42Z</time>
      </trkpt>
      <trkpt lat="28.5139870" lon="-16.3084280">
        <ele>555.9</ele>
        <time>2020-11-11T09:29:43Z</time>
      </trkpt>
      <trkpt lat="28.5139880" lon="-16.3084050">
        <ele>555.9</ele>
        <time>2020-11-11T09:29:44Z</time>
      </trkpt>
      <trkpt lat="28.5139880" lon="-16.3084050">
        <ele>555.9</ele>
        <time>2020-11-11T09:29:45Z</time>
      </trkpt>
      <trkpt lat="28.5139980" lon="-16.3083580">
        <ele>556.9</ele>
        <time>2020-11-11T09:29:46Z</time>
      </trkpt>
      <trkpt lat="28.5139980" lon="-16.3083580">
        <ele>556.9</ele>
        <time>2020-11-11T09:29:47Z</time>
      </trkpt>
      <trkpt lat="28.5140030" lon="-16.3083080">
        <ele>556.9</ele>
        <time>2020-11-11T09:29:48Z</time>
      </trkpt>
      <trkpt lat="28.5140050" lon="-16.3082830">
        <ele>556.9</ele>
        <time>2020-11-11T09:29:49Z</time>
      </trkpt>
      <trkpt lat="28.5140050" lon="-16.3082830">
        <ele>557.9</ele>
        <time>2020-11-11T09:29:50Z</time>
      </trkpt>
      <trkpt lat="28.5140080" lon="-16.3082350">
        <ele>557.9</ele>
        <time>2020-11-11T09:29:51Z</time>
      </trkpt>
      <trkpt lat="28.5140070" lon="-16.3082130">
        <ele>557.9</ele>
        <time>2020-11-11T09:29:52Z</time>
      </trkpt>
      <trkpt lat="28.5140070" lon="-16.3082130">
        <ele>557.9</ele>
        <time>2020-11-11T09:29:53Z</time>
      </trkpt>
      <trkpt lat="28.5139980" lon="-16.3081620">
        <ele>557.9</ele>
        <time>2020-11-11T09:29:54Z</time>
      </trkpt>
      <trkpt lat="28.5139980" lon="-16.3081620">
        <ele>557.9</ele>
        <time>2020-11-11T09:29:55Z</time>
      </trkpt>
      <trkpt lat="28.5139770" lon="-16.3081000">
        <ele>557.9</ele>
        <time>2020-11-11T09:29:56Z</time>
      </trkpt>
      <trkpt lat="28.5139770" lon="-16.3081000">
        <ele>557.9</ele>
        <time>2020-11-11T09:29:57Z</time>
      </trkpt>
      <trkpt lat="28.5139650" lon="-16.3080380">
        <ele>557.9</ele>
        <time>2020-11-11T09:29:58Z</time>
      </trkpt>
      <trkpt lat="28.5139650" lon="-16.3080380">
        <ele>557.9</ele>
        <time>2020-11-11T09:29:59Z</time>
      </trkpt>
      <trkpt lat="28.5139680" lon="-16.3079770">
        <ele>557.9</ele>
        <time>2020-11-11T09:30:00Z</time>
      </trkpt>
      <trkpt lat="28.5139720" lon="-16.3079450">
        <ele>557.9</ele>
        <time>2020-11-11T09:30:01Z</time>
      </trkpt>
      <trkpt lat="28.5139730" lon="-16.3079150">
        <ele>559.9</ele>
        <time>2020-11-11T09:30:02Z</time>
      </trkpt>
      <trkpt lat="28.5139730" lon="-16.3079150">
        <ele>559.9</ele>
        <time>2020-11-11T09:30:03Z</time>
      </trkpt>
      <trkpt lat="28.5139770" lon="-16.3078520">
        <ele>559.9</ele>
        <time>2020-11-11T09:30:04Z</time>
      </trkpt>
      <trkpt lat="28.5139770" lon="-16.3078520">
        <ele>559.9</ele>
        <time>2020-11-11T09:30:05Z</time>
      </trkpt>
      <trkpt lat="28.5139680" lon="-16.3077900">
        <ele>559.9</ele>
        <time>2020-11-11T09:30:06Z</time>
      </trkpt>
      <trkpt lat="28.5139670" lon="-16.3077580">
        <ele>559.9</ele>
        <time>2020-11-11T09:30:07Z</time>
      </trkpt>
      <trkpt lat="28.5139650" lon="-16.3077280">
        <ele>559.9</ele>
        <time>2020-11-11T09:30:08Z</time>
      </trkpt>
      <trkpt lat="28.5139650" lon="-16.3077280">
        <ele>559.9</ele>
        <time>2020-11-11T09:30:09Z</time>
      </trkpt>
      <trkpt lat="28.5139670" lon="-16.3076720">
        <ele>559.9</ele>
        <time>2020-11-11T09:30:10Z</time>
      </trkpt>
      <trkpt lat="28.5139650" lon="-16.3076450">
        <ele>561.9</ele>
        <time>2020-11-11T09:30:11Z</time>
      </trkpt>
      <trkpt lat="28.5139670" lon="-16.3076150">
        <ele>561.9</ele>
        <time>2020-11-11T09:30:12Z</time>
      </trkpt>
      <trkpt lat="28.5139670" lon="-16.3076150">
        <ele>561.9</ele>
        <time>2020-11-11T09:30:13Z</time>
      </trkpt>
      <trkpt lat="28.5139670" lon="-16.3075580">
        <ele>561.9</ele>
        <time>2020-11-11T09:30:14Z</time>
      </trkpt>
      <trkpt lat="28.5139670" lon="-16.3075300">
        <ele>562.9</ele>
        <time>2020-11-11T09:30:15Z</time>
      </trkpt>
      <trkpt lat="28.5139650" lon="-16.3075020">
        <ele>562.9</ele>
        <time>2020-11-11T09:30:16Z</time>
      </trkpt>
      <trkpt lat="28.5139650" lon="-16.3075020">
        <ele>562.9</ele>
        <time>2020-11-11T09:30:17Z</time>
      </trkpt>
      <trkpt lat="28.5139600" lon="-16.3074520">
        <ele>562.9</ele>
        <time>2020-11-11T09:30:18Z</time>
      </trkpt>
      <trkpt lat="28.5139580" lon="-16.3074270">
        <ele>562.9</ele>
        <time>2020-11-11T09:30:19Z</time>
      </trkpt>
      <trkpt lat="28.5139580" lon="-16.3074270">
        <ele>563.9</ele>
        <time>2020-11-11T09:30:20Z</time>
      </trkpt>
      <trkpt lat="28.5139570" lon="-16.3073800">
        <ele>563.9</ele>
        <time>2020-11-11T09:30:21Z</time>
      </trkpt>
      <trkpt lat="28.5139570" lon="-16.3073800">
        <ele>563.9</ele>
        <time>2020-11-11T09:30:22Z</time>
      </trkpt>
      <trkpt lat="28.5139500" lon="-16.3073330">
        <ele>563.9</ele>
        <time>2020-11-11T09:30:23Z</time>
      </trkpt>
      <trkpt lat="28.5139500" lon="-16.3073330">
        <ele>563.9</ele>
        <time>2020-11-11T09:30:24Z</time>
      </trkpt>
      <trkpt lat="28.5139420" lon="-16.3072870">
        <ele>564.9</ele>
        <time>2020-11-11T09:30:25Z</time>
      </trkpt>
      <trkpt lat="28.5139400" lon="-16.3072650">
        <ele>564.9</ele>
        <time>2020-11-11T09:30:26Z</time>
      </trkpt>
      <trkpt lat="28.5139400" lon="-16.3072650">
        <ele>564.9</ele>
        <time>2020-11-11T09:30:27Z</time>
      </trkpt>
      <trkpt lat="28.5139320" lon="-16.3072180">
        <ele>564.9</ele>
        <time>2020-11-11T09:30:28Z</time>
      </trkpt>
      <trkpt lat="28.5139220" lon="-16.3071970">
        <ele>564.9</ele>
        <time>2020-11-11T09:30:29Z</time>
      </trkpt>
      <trkpt lat="28.5139100" lon="-16.3071750">
        <ele>564.9</ele>
        <time>2020-11-11T09:30:30Z</time>
      </trkpt>
      <trkpt lat="28.5139100" lon="-16.3071750">
        <ele>564.9</ele>
        <time>2020-11-11T09:30:31Z</time>
      </trkpt>
      <trkpt lat="28.5138850" lon="-16.3071330">
        <ele>564.9</ele>
        <time>2020-11-11T09:30:32Z</time>
      </trkpt>
      <trkpt lat="28.5138770" lon="-16.3071120">
        <ele>564.9</ele>
        <time>2020-11-11T09:30:33Z</time>
      </trkpt>
      <trkpt lat="28.5138770" lon="-16.3071120">
        <ele>564.9</ele>
        <time>2020-11-11T09:30:34Z</time>
      </trkpt>
      <trkpt lat="28.5138670" lon="-16.3070650">
        <ele>565.9</ele>
        <time>2020-11-11T09:30:35Z</time>
      </trkpt>
      <trkpt lat="28.5138670" lon="-16.3070650">
        <ele>565.9</ele>
        <time>2020-11-11T09:30:36Z</time>
      </trkpt>
      <trkpt lat="28.5138520" lon="-16.3070270">
        <ele>565.9</ele>
        <time>2020-11-11T09:30:37Z</time>
      </trkpt>
      <trkpt lat="28.5138500" lon="-16.3070000">
        <ele>565.9</ele>
        <time>2020-11-11T09:30:38Z</time>
      </trkpt>
      <trkpt lat="28.5138500" lon="-16.3070000">
        <ele>565.9</ele>
        <time>2020-11-11T09:30:39Z</time>
      </trkpt>
      <trkpt lat="28.5138330" lon="-16.3069500">
        <ele>565.9</ele>
        <time>2020-11-11T09:30:40Z</time>
      </trkpt>
      <trkpt lat="28.5138420" lon="-16.3069180">
        <ele>566.9</ele>
        <time>2020-11-11T09:30:41Z</time>
      </trkpt>
      <trkpt lat="28.5138420" lon="-16.3069180">
        <ele>566.9</ele>
        <time>2020-11-11T09:30:42Z</time>
      </trkpt>
      <trkpt lat="28.5138330" lon="-16.3068670">
        <ele>566.9</ele>
        <time>2020-11-11T09:30:43Z</time>
      </trkpt>
      <trkpt lat="28.5138330" lon="-16.3068670">
        <ele>566.9</ele>
        <time>2020-11-11T09:30:44Z</time>
      </trkpt>
      <trkpt lat="28.5138200" lon="-16.3068130">
        <ele>566.9</ele>
        <time>2020-11-11T09:30:45Z</time>
      </trkpt>
      <trkpt lat="28.5138020" lon="-16.3067930">
        <ele>566.9</ele>
        <time>2020-11-11T09:30:46Z</time>
      </trkpt>
      <trkpt lat="28.5138020" lon="-16.3067930">
        <ele>567.9</ele>
        <time>2020-11-11T09:30:47Z</time>
      </trkpt>
      <trkpt lat="28.5137730" lon="-16.3067530">
        <ele>567.9</ele>
        <time>2020-11-11T09:30:48Z</time>
      </trkpt>
      <trkpt lat="28.5137730" lon="-16.3067530">
        <ele>567.9</ele>
        <time>2020-11-11T09:30:49Z</time>
      </trkpt>
      <trkpt lat="28.5137420" lon="-16.3067170">
        <ele>567.9</ele>
        <time>2020-11-11T09:30:50Z</time>
      </trkpt>
      <trkpt lat="28.5137420" lon="-16.3067170">
        <ele>568.9</ele>
        <time>2020-11-11T09:30:51Z</time>
      </trkpt>
      <trkpt lat="28.5137050" lon="-16.3066680">
        <ele>568.9</ele>
        <time>2020-11-11T09:30:52Z</time>
      </trkpt>
      <trkpt lat="28.5137050" lon="-16.3066680">
        <ele>568.9</ele>
        <time>2020-11-11T09:30:53Z</time>
      </trkpt>
      <trkpt lat="28.5136600" lon="-16.3066150">
        <ele>568.9</ele>
        <time>2020-11-11T09:30:54Z</time>
      </trkpt>
      <trkpt lat="28.5136600" lon="-16.3066150">
        <ele>569.9</ele>
        <time>2020-11-11T09:30:55Z</time>
      </trkpt>
      <trkpt lat="28.5136070" lon="-16.3065630">
        <ele>569.9</ele>
        <time>2020-11-11T09:30:56Z</time>
      </trkpt>
      <trkpt lat="28.5136070" lon="-16.3065630">
        <ele>569.9</ele>
        <time>2020-11-11T09:30:57Z</time>
      </trkpt>
      <trkpt lat="28.5135470" lon="-16.3065050">
        <ele>570.9</ele>
        <time>2020-11-11T09:30:58Z</time>
      </trkpt>
      <trkpt lat="28.5135470" lon="-16.3065050">
        <ele>570.9</ele>
        <time>2020-11-11T09:30:59Z</time>
      </trkpt>
      <trkpt lat="28.5134900" lon="-16.3064570">
        <ele>570.9</ele>
        <time>2020-11-11T09:31:00Z</time>
      </trkpt>
      <trkpt lat="28.5134900" lon="-16.3064570">
        <ele>570.9</ele>
        <time>2020-11-11T09:31:01Z</time>
      </trkpt>
      <trkpt lat="28.5134300" lon="-16.3064130">
        <ele>571.9</ele>
        <time>2020-11-11T09:31:02Z</time>
      </trkpt>
      <trkpt lat="28.5134300" lon="-16.3064130">
        <ele>571.9</ele>
        <time>2020-11-11T09:31:03Z</time>
      </trkpt>
      <trkpt lat="28.5133730" lon="-16.3063750">
        <ele>571.9</ele>
        <time>2020-11-11T09:31:04Z</time>
      </trkpt>
      <trkpt lat="28.5133730" lon="-16.3063750">
        <ele>571.9</ele>
        <time>2020-11-11T09:31:05Z</time>
      </trkpt>
      <trkpt lat="28.5133200" lon="-16.3063450">
        <ele>572.9</ele>
        <time>2020-11-11T09:31:06Z</time>
      </trkpt>
      <trkpt lat="28.5133200" lon="-16.3063450">
        <ele>572.9</ele>
        <time>2020-11-11T09:31:07Z</time>
      </trkpt>
      <trkpt lat="28.5132550" lon="-16.3063230">
        <ele>572.9</ele>
        <time>2020-11-11T09:31:08Z</time>
      </trkpt>
      <trkpt lat="28.5132550" lon="-16.3063230">
        <ele>572.9</ele>
        <time>2020-11-11T09:31:09Z</time>
      </trkpt>
      <trkpt lat="28.5131780" lon="-16.3062780">
        <ele>572.9</ele>
        <time>2020-11-11T09:31:10Z</time>
      </trkpt>
      <trkpt lat="28.5131780" lon="-16.3062780">
        <ele>572.9</ele>
        <time>2020-11-11T09:31:11Z</time>
      </trkpt>
      <trkpt lat="28.5131020" lon="-16.3062250">
        <ele>572.9</ele>
        <time>2020-11-11T09:31:12Z</time>
      </trkpt>
      <trkpt lat="28.5130600" lon="-16.3061970">
        <ele>572.9</ele>
        <time>2020-11-11T09:31:13Z</time>
      </trkpt>
      <trkpt lat="28.5130600" lon="-16.3061970">
        <ele>572.9</ele>
        <time>2020-11-11T09:31:14Z</time>
      </trkpt>
      <trkpt lat="28.5129720" lon="-16.3061480">
        <ele>572.9</ele>
        <time>2020-11-11T09:31:15Z</time>
      </trkpt>
      <trkpt lat="28.5129720" lon="-16.3061480">
        <ele>572.9</ele>
        <time>2020-11-11T09:31:16Z</time>
      </trkpt>
      <trkpt lat="28.5128750" lon="-16.3061130">
        <ele>572.9</ele>
        <time>2020-11-11T09:31:17Z</time>
      </trkpt>
      <trkpt lat="28.5128750" lon="-16.3061130">
        <ele>572.9</ele>
        <time>2020-11-11T09:31:18Z</time>
      </trkpt>
      <trkpt lat="28.5127620" lon="-16.3060950">
        <ele>572.9</ele>
        <time>2020-11-11T09:31:19Z</time>
      </trkpt>
      <trkpt lat="28.5127020" lon="-16.3060880">
        <ele>571.9</ele>
        <time>2020-11-11T09:31:20Z</time>
      </trkpt>
      <trkpt lat="28.5127020" lon="-16.3060880">
        <ele>571.9</ele>
        <time>2020-11-11T09:31:21Z</time>
      </trkpt>
      <trkpt lat="28.5125730" lon="-16.3060850">
        <ele>571.9</ele>
        <time>2020-11-11T09:31:22Z</time>
      </trkpt>
      <trkpt lat="28.5125080" lon="-16.3060900">
        <ele>571.9</ele>
        <time>2020-11-11T09:31:23Z</time>
      </trkpt>
      <trkpt lat="28.5125080" lon="-16.3060900">
        <ele>571.9</ele>
        <time>2020-11-11T09:31:24Z</time>
      </trkpt>
      <trkpt lat="28.5123770" lon="-16.3061120">
        <ele>571.9</ele>
        <time>2020-11-11T09:31:25Z</time>
      </trkpt>
      <trkpt lat="28.5123080" lon="-16.3061280">
        <ele>571.9</ele>
        <time>2020-11-11T09:31:26Z</time>
      </trkpt>
      <trkpt lat="28.5123080" lon="-16.3061280">
        <ele>571.9</ele>
        <time>2020-11-11T09:31:27Z</time>
      </trkpt>
      <trkpt lat="28.5121720" lon="-16.3061750">
        <ele>569.9</ele>
        <time>2020-11-11T09:31:28Z</time>
      </trkpt>
      <trkpt lat="28.5121080" lon="-16.3062080">
        <ele>569.9</ele>
        <time>2020-11-11T09:31:29Z</time>
      </trkpt>
      <trkpt lat="28.5121080" lon="-16.3062080">
        <ele>569.9</ele>
        <time>2020-11-11T09:31:30Z</time>
      </trkpt>
      <trkpt lat="28.5119800" lon="-16.3062880">
        <ele>569.9</ele>
        <time>2020-11-11T09:31:31Z</time>
      </trkpt>
      <trkpt lat="28.5119150" lon="-16.3063280">
        <ele>568.9</ele>
        <time>2020-11-11T09:31:32Z</time>
      </trkpt>
      <trkpt lat="28.5119150" lon="-16.3063280">
        <ele>568.9</ele>
        <time>2020-11-11T09:31:33Z</time>
      </trkpt>
      <trkpt lat="28.5117830" lon="-16.3064130">
        <ele>568.9</ele>
        <time>2020-11-11T09:31:34Z</time>
      </trkpt>
      <trkpt lat="28.5117830" lon="-16.3064130">
        <ele>567.9</ele>
        <time>2020-11-11T09:31:35Z</time>
      </trkpt>
      <trkpt lat="28.5116570" lon="-16.3065180">
        <ele>567.9</ele>
        <time>2020-11-11T09:31:36Z</time>
      </trkpt>
      <trkpt lat="28.5116570" lon="-16.3065180">
        <ele>567.9</ele>
        <time>2020-11-11T09:31:37Z</time>
      </trkpt>
      <trkpt lat="28.5115220" lon="-16.3066270">
        <ele>567.9</ele>
        <time>2020-11-11T09:31:38Z</time>
      </trkpt>
      <trkpt lat="28.5115220" lon="-16.3066270">
        <ele>566.9</ele>
        <time>2020-11-11T09:31:39Z</time>
      </trkpt>
      <trkpt lat="28.5113880" lon="-16.3067450">
        <ele>566.9</ele>
        <time>2020-11-11T09:31:40Z</time>
      </trkpt>
      <trkpt lat="28.5113880" lon="-16.3067450">
        <ele>565.9</ele>
        <time>2020-11-11T09:31:41Z</time>
      </trkpt>
      <trkpt lat="28.5112670" lon="-16.3068650">
        <ele>565.9</ele>
        <time>2020-11-11T09:31:42Z</time>
      </trkpt>
      <trkpt lat="28.5112670" lon="-16.3068650">
        <ele>564.9</ele>
        <time>2020-11-11T09:31:43Z</time>
      </trkpt>
      <trkpt lat="28.5111470" lon="-16.3069900">
        <ele>564.9</ele>
        <time>2020-11-11T09:31:44Z</time>
      </trkpt>
      <trkpt lat="28.5111470" lon="-16.3069900">
        <ele>564.9</ele>
        <time>2020-11-11T09:31:45Z</time>
      </trkpt>
      <trkpt lat="28.5110200" lon="-16.3071300">
        <ele>564.9</ele>
        <time>2020-11-11T09:31:46Z</time>
      </trkpt>
      <trkpt lat="28.5110200" lon="-16.3071300">
        <ele>563.9</ele>
        <time>2020-11-11T09:31:47Z</time>
      </trkpt>
      <trkpt lat="28.5108800" lon="-16.3072870">
        <ele>563.9</ele>
        <time>2020-11-11T09:31:48Z</time>
      </trkpt>
      <trkpt lat="28.5108070" lon="-16.3073630">
        <ele>562.9</ele>
        <time>2020-11-11T09:31:49Z</time>
      </trkpt>
      <trkpt lat="28.5108070" lon="-16.3073630">
        <ele>562.9</ele>
        <time>2020-11-11T09:31:50Z</time>
      </trkpt>
      <trkpt lat="28.5106580" lon="-16.3075180">
        <ele>561.9</ele>
        <time>2020-11-11T09:31:51Z</time>
      </trkpt>
      <trkpt lat="28.5106580" lon="-16.3075180">
        <ele>561.9</ele>
        <time>2020-11-11T09:31:52Z</time>
      </trkpt>
      <trkpt lat="28.5104920" lon="-16.3076770">
        <ele>559.9</ele>
        <time>2020-11-11T09:31:53Z</time>
      </trkpt>
      <trkpt lat="28.5104920" lon="-16.3076770">
        <ele>559.9</ele>
        <time>2020-11-11T09:31:54Z</time>
      </trkpt>
      <trkpt lat="28.5103230" lon="-16.3078620">
        <ele>558.9</ele>
        <time>2020-11-11T09:31:55Z</time>
      </trkpt>
      <trkpt lat="28.5102400" lon="-16.3079530">
        <ele>558.9</ele>
        <time>2020-11-11T09:31:56Z</time>
      </trkpt>
      <trkpt lat="28.5102400" lon="-16.3079530">
        <ele>556.9</ele>
        <time>2020-11-11T09:31:57Z</time>
      </trkpt>
      <trkpt lat="28.5100680" lon="-16.3081430">
        <ele>556.9</ele>
        <time>2020-11-11T09:31:58Z</time>
      </trkpt>
      <trkpt lat="28.5099800" lon="-16.3082370">
        <ele>554.9</ele>
        <time>2020-11-11T09:31:59Z</time>
      </trkpt>
      <trkpt lat="28.5099800" lon="-16.3082370">
        <ele>554.9</ele>
        <time>2020-11-11T09:32:00Z</time>
      </trkpt>
      <trkpt lat="28.5098080" lon="-16.3084220">
        <ele>553.9</ele>
        <time>2020-11-11T09:32:01Z</time>
      </trkpt>
      <trkpt lat="28.5097270" lon="-16.3085130">
        <ele>553.9</ele>
        <time>2020-11-11T09:32:02Z</time>
      </trkpt>
      <trkpt lat="28.5097270" lon="-16.3085130">
        <ele>552.9</ele>
        <time>2020-11-11T09:32:03Z</time>
      </trkpt>
      <trkpt lat="28.5095630" lon="-16.3086930">
        <ele>552.9</ele>
        <time>2020-11-11T09:32:04Z</time>
      </trkpt>
      <trkpt lat="28.5094850" lon="-16.3087830">
        <ele>551.9</ele>
        <time>2020-11-11T09:32:05Z</time>
      </trkpt>
      <trkpt lat="28.5094850" lon="-16.3087830">
        <ele>551.9</ele>
        <time>2020-11-11T09:32:06Z</time>
      </trkpt>
      <trkpt lat="28.5093280" lon="-16.3089550">
        <ele>550.9</ele>
        <time>2020-11-11T09:32:07Z</time>
      </trkpt>
      <trkpt lat="28.5092480" lon="-16.3090350">
        <ele>550.9</ele>
        <time>2020-11-11T09:32:08Z</time>
      </trkpt>
      <trkpt lat="28.5092480" lon="-16.3090350">
        <ele>550.9</ele>
        <time>2020-11-11T09:32:09Z</time>
      </trkpt>
      <trkpt lat="28.5090970" lon="-16.3091970">
        <ele>550.9</ele>
        <time>2020-11-11T09:32:10Z</time>
      </trkpt>
      <trkpt lat="28.5090180" lon="-16.3092720">
        <ele>549.9</ele>
        <time>2020-11-11T09:32:11Z</time>
      </trkpt>
      <trkpt lat="28.5089450" lon="-16.3093470">
        <ele>549.9</ele>
        <time>2020-11-11T09:32:12Z</time>
      </trkpt>
      <trkpt lat="28.5089450" lon="-16.3093470">
        <ele>549.9</ele>
        <time>2020-11-11T09:32:13Z</time>
      </trkpt>
      <trkpt lat="28.5087980" lon="-16.3094950">
        <ele>548.9</ele>
        <time>2020-11-11T09:32:14Z</time>
      </trkpt>
      <trkpt lat="28.5087250" lon="-16.3095670">
        <ele>548.9</ele>
        <time>2020-11-11T09:32:15Z</time>
      </trkpt>
      <trkpt lat="28.5087250" lon="-16.3095670">
        <ele>548.9</ele>
        <time>2020-11-11T09:32:16Z</time>
      </trkpt>
      <trkpt lat="28.5085830" lon="-16.3097100">
        <ele>548.9</ele>
        <time>2020-11-11T09:32:17Z</time>
      </trkpt>
      <trkpt lat="28.5085830" lon="-16.3097100">
        <ele>547.9</ele>
        <time>2020-11-11T09:32:18Z</time>
      </trkpt>
      <trkpt lat="28.5084400" lon="-16.3098480">
        <ele>547.9</ele>
        <time>2020-11-11T09:32:19Z</time>
      </trkpt>
      <trkpt lat="28.5083680" lon="-16.3099170">
        <ele>547.9</ele>
        <time>2020-11-11T09:32:20Z</time>
      </trkpt>
      <trkpt lat="28.5083680" lon="-16.3099170">
        <ele>547.9</ele>
        <time>2020-11-11T09:32:21Z</time>
      </trkpt>
      <trkpt lat="28.5082230" lon="-16.3100450">
        <ele>546.9</ele>
        <time>2020-11-11T09:32:22Z</time>
      </trkpt>
      <trkpt lat="28.5082230" lon="-16.3100450">
        <ele>546.9</ele>
        <time>2020-11-11T09:32:23Z</time>
      </trkpt>
      <trkpt lat="28.5080730" lon="-16.3101630">
        <ele>545.9</ele>
        <time>2020-11-11T09:32:24Z</time>
      </trkpt>
      <trkpt lat="28.5080730" lon="-16.3101630">
        <ele>545.9</ele>
        <time>2020-11-11T09:32:25Z</time>
      </trkpt>
      <trkpt lat="28.5079250" lon="-16.3102820">
        <ele>545.9</ele>
        <time>2020-11-11T09:32:26Z</time>
      </trkpt>
      <trkpt lat="28.5079250" lon="-16.3102820">
        <ele>545.9</ele>
        <time>2020-11-11T09:32:27Z</time>
      </trkpt>
      <trkpt lat="28.5077780" lon="-16.3103950">
        <ele>544.9</ele>
        <time>2020-11-11T09:32:28Z</time>
      </trkpt>
      <trkpt lat="28.5077780" lon="-16.3103950">
        <ele>544.9</ele>
        <time>2020-11-11T09:32:29Z</time>
      </trkpt>
      <trkpt lat="28.5076370" lon="-16.3105100">
        <ele>544.9</ele>
        <time>2020-11-11T09:32:30Z</time>
      </trkpt>
      <trkpt lat="28.5076370" lon="-16.3105100">
        <ele>544.9</ele>
        <time>2020-11-11T09:32:31Z</time>
      </trkpt>
      <trkpt lat="28.5074900" lon="-16.3106180">
        <ele>544.9</ele>
        <time>2020-11-11T09:32:32Z</time>
      </trkpt>
      <trkpt lat="28.5074900" lon="-16.3106180">
        <ele>544.9</ele>
        <time>2020-11-11T09:32:33Z</time>
      </trkpt>
      <trkpt lat="28.5073430" lon="-16.3107280">
        <ele>542.9</ele>
        <time>2020-11-11T09:32:34Z</time>
      </trkpt>
      <trkpt lat="28.5072720" lon="-16.3107830">
        <ele>542.9</ele>
        <time>2020-11-11T09:32:35Z</time>
      </trkpt>
      <trkpt lat="28.5072720" lon="-16.3107830">
        <ele>542.9</ele>
        <time>2020-11-11T09:32:36Z</time>
      </trkpt>
      <trkpt lat="28.5071330" lon="-16.3108950">
        <ele>542.9</ele>
        <time>2020-11-11T09:32:37Z</time>
      </trkpt>
      <trkpt lat="28.5070630" lon="-16.3109520">
        <ele>541.9</ele>
        <time>2020-11-11T09:32:38Z</time>
      </trkpt>
      <trkpt lat="28.5070630" lon="-16.3109520">
        <ele>541.9</ele>
        <time>2020-11-11T09:32:39Z</time>
      </trkpt>
      <trkpt lat="28.5069220" lon="-16.3110570">
        <ele>541.9</ele>
        <time>2020-11-11T09:32:40Z</time>
      </trkpt>
      <trkpt lat="28.5069220" lon="-16.3110570">
        <ele>540.9</ele>
        <time>2020-11-11T09:32:41Z</time>
      </trkpt>
      <trkpt lat="28.5067820" lon="-16.3111550">
        <ele>540.9</ele>
        <time>2020-11-11T09:32:42Z</time>
      </trkpt>
      <trkpt lat="28.5067820" lon="-16.3111550">
        <ele>540.9</ele>
        <time>2020-11-11T09:32:43Z</time>
      </trkpt>
      <trkpt lat="28.5066430" lon="-16.3112500">
        <ele>540.9</ele>
        <time>2020-11-11T09:32:44Z</time>
      </trkpt>
      <trkpt lat="28.5065770" lon="-16.3112970">
        <ele>540.9</ele>
        <time>2020-11-11T09:32:45Z</time>
      </trkpt>
      <trkpt lat="28.5065770" lon="-16.3112970">
        <ele>540.9</ele>
        <time>2020-11-11T09:32:46Z</time>
      </trkpt>
      <trkpt lat="28.5064300" lon="-16.3113770">
        <ele>539.9</ele>
        <time>2020-11-11T09:32:47Z</time>
      </trkpt>
      <trkpt lat="28.5064300" lon="-16.3113770">
        <ele>539.9</ele>
        <time>2020-11-11T09:32:48Z</time>
      </trkpt>
      <trkpt lat="28.5062850" lon="-16.3114520">
        <ele>539.9</ele>
        <time>2020-11-11T09:32:49Z</time>
      </trkpt>
      <trkpt lat="28.5062120" lon="-16.3114870">
        <ele>538.9</ele>
        <time>2020-11-11T09:32:50Z</time>
      </trkpt>
      <trkpt lat="28.5062120" lon="-16.3114870">
        <ele>538.9</ele>
        <time>2020-11-11T09:32:51Z</time>
      </trkpt>
      <trkpt lat="28.5060720" lon="-16.3115650">
        <ele>538.9</ele>
        <time>2020-11-11T09:32:52Z</time>
      </trkpt>
      <trkpt lat="28.5060720" lon="-16.3115650">
        <ele>538.9</ele>
        <time>2020-11-11T09:32:53Z</time>
      </trkpt>
      <trkpt lat="28.5059370" lon="-16.3116550">
        <ele>538.9</ele>
        <time>2020-11-11T09:32:54Z</time>
      </trkpt>
      <trkpt lat="28.5059370" lon="-16.3116550">
        <ele>538.9</ele>
        <time>2020-11-11T09:32:55Z</time>
      </trkpt>
      <trkpt lat="28.5057880" lon="-16.3117070">
        <ele>537.9</ele>
        <time>2020-11-11T09:32:56Z</time>
      </trkpt>
      <trkpt lat="28.5057880" lon="-16.3117070">
        <ele>537.9</ele>
        <time>2020-11-11T09:32:57Z</time>
      </trkpt>
      <trkpt lat="28.5056350" lon="-16.3117000">
        <ele>537.9</ele>
        <time>2020-11-11T09:32:58Z</time>
      </trkpt>
      <trkpt lat="28.5056350" lon="-16.3117000">
        <ele>537.9</ele>
        <time>2020-11-11T09:32:59Z</time>
      </trkpt>
      <trkpt lat="28.5054800" lon="-16.3117020">
        <ele>536.9</ele>
        <time>2020-11-11T09:33:00Z</time>
      </trkpt>
      <trkpt lat="28.5054080" lon="-16.3117250">
        <ele>536.9</ele>
        <time>2020-11-11T09:33:01Z</time>
      </trkpt>
      <trkpt lat="28.5053350" lon="-16.3117500">
        <ele>536.9</ele>
        <time>2020-11-11T09:33:02Z</time>
      </trkpt>
      <trkpt lat="28.5053350" lon="-16.3117500">
        <ele>536.9</ele>
        <time>2020-11-11T09:33:03Z</time>
      </trkpt>
      <trkpt lat="28.5051930" lon="-16.3117930">
        <ele>536.9</ele>
        <time>2020-11-11T09:33:04Z</time>
      </trkpt>
      <trkpt lat="28.5051220" lon="-16.3118130">
        <ele>536.9</ele>
        <time>2020-11-11T09:33:05Z</time>
      </trkpt>
      <trkpt lat="28.5050520" lon="-16.3118330">
        <ele>535.9</ele>
        <time>2020-11-11T09:33:06Z</time>
      </trkpt>
      <trkpt lat="28.5050520" lon="-16.3118330">
        <ele>535.9</ele>
        <time>2020-11-11T09:33:07Z</time>
      </trkpt>
      <trkpt lat="28.5049120" lon="-16.3118770">
        <ele>535.9</ele>
        <time>2020-11-11T09:33:08Z</time>
      </trkpt>
      <trkpt lat="28.5048420" lon="-16.3118970">
        <ele>535.9</ele>
        <time>2020-11-11T09:33:09Z</time>
      </trkpt>
      <trkpt lat="28.5048420" lon="-16.3118970">
        <ele>535.9</ele>
        <time>2020-11-11T09:33:10Z</time>
      </trkpt>
      <trkpt lat="28.5046980" lon="-16.3119420">
        <ele>535.9</ele>
        <time>2020-11-11T09:33:11Z</time>
      </trkpt>
      <trkpt lat="28.5046980" lon="-16.3119420">
        <ele>535.9</ele>
        <time>2020-11-11T09:33:12Z</time>
      </trkpt>
      <trkpt lat="28.5045570" lon="-16.3119870">
        <ele>535.9</ele>
        <time>2020-11-11T09:33:13Z</time>
      </trkpt>
      <trkpt lat="28.5044870" lon="-16.3120100">
        <ele>535.9</ele>
        <time>2020-11-11T09:33:14Z</time>
      </trkpt>
      <trkpt lat="28.5044870" lon="-16.3120100">
        <ele>535.9</ele>
        <time>2020-11-11T09:33:15Z</time>
      </trkpt>
      <trkpt lat="28.5043420" lon="-16.3120570">
        <ele>535.9</ele>
        <time>2020-11-11T09:33:16Z</time>
      </trkpt>
      <trkpt lat="28.5043420" lon="-16.3120570">
        <ele>535.9</ele>
        <time>2020-11-11T09:33:17Z</time>
      </trkpt>
      <trkpt lat="28.5041980" lon="-16.3121020">
        <ele>535.9</ele>
        <time>2020-11-11T09:33:18Z</time>
      </trkpt>
      <trkpt lat="28.5041280" lon="-16.3121230">
        <ele>535.9</ele>
        <time>2020-11-11T09:33:19Z</time>
      </trkpt>
      <trkpt lat="28.5041280" lon="-16.3121230">
        <ele>535.9</ele>
        <time>2020-11-11T09:33:20Z</time>
      </trkpt>
      <trkpt lat="28.5039850" lon="-16.3121680">
        <ele>535.9</ele>
        <time>2020-11-11T09:33:21Z</time>
      </trkpt>
      <trkpt lat="28.5039150" lon="-16.3121880">
        <ele>535.9</ele>
        <time>2020-11-11T09:33:22Z</time>
      </trkpt>
      <trkpt lat="28.5039150" lon="-16.3121880">
        <ele>535.9</ele>
        <time>2020-11-11T09:33:23Z</time>
      </trkpt>
      <trkpt lat="28.5037720" lon="-16.3122350">
        <ele>535.9</ele>
        <time>2020-11-11T09:33:24Z</time>
      </trkpt>
      <trkpt lat="28.5037720" lon="-16.3122350">
        <ele>535.9</ele>
        <time>2020-11-11T09:33:25Z</time>
      </trkpt>
      <trkpt lat="28.5036320" lon="-16.3122770">
        <ele>534.9</ele>
        <time>2020-11-11T09:33:26Z</time>
      </trkpt>
      <trkpt lat="28.5036320" lon="-16.3122770">
        <ele>534.9</ele>
        <time>2020-11-11T09:33:27Z</time>
      </trkpt>
      <trkpt lat="28.5034950" lon="-16.3123180">
        <ele>534.9</ele>
        <time>2020-11-11T09:33:28Z</time>
      </trkpt>
      <trkpt lat="28.5034270" lon="-16.3123380">
        <ele>534.9</ele>
        <time>2020-11-11T09:33:29Z</time>
      </trkpt>
      <trkpt lat="28.5034270" lon="-16.3123380">
        <ele>534.9</ele>
        <time>2020-11-11T09:33:30Z</time>
      </trkpt>
      <trkpt lat="28.5032850" lon="-16.3123820">
        <ele>534.9</ele>
        <time>2020-11-11T09:33:31Z</time>
      </trkpt>
      <trkpt lat="28.5032180" lon="-16.3124020">
        <ele>534.9</ele>
        <time>2020-11-11T09:33:32Z</time>
      </trkpt>
      <trkpt lat="28.5032180" lon="-16.3124020">
        <ele>534.9</ele>
        <time>2020-11-11T09:33:33Z</time>
      </trkpt>
      <trkpt lat="28.5030820" lon="-16.3124430">
        <ele>534.9</ele>
        <time>2020-11-11T09:33:34Z</time>
      </trkpt>
      <trkpt lat="28.5030820" lon="-16.3124430">
        <ele>534.9</ele>
        <time>2020-11-11T09:33:35Z</time>
      </trkpt>
      <trkpt lat="28.5029430" lon="-16.3124850">
        <ele>533.9</ele>
        <time>2020-11-11T09:33:36Z</time>
      </trkpt>
      <trkpt lat="28.5029430" lon="-16.3124850">
        <ele>533.9</ele>
        <time>2020-11-11T09:33:37Z</time>
      </trkpt>
      <trkpt lat="28.5028020" lon="-16.3125280">
        <ele>533.9</ele>
        <time>2020-11-11T09:33:38Z</time>
      </trkpt>
      <trkpt lat="28.5028020" lon="-16.3125280">
        <ele>533.9</ele>
        <time>2020-11-11T09:33:39Z</time>
      </trkpt>
      <trkpt lat="28.5026620" lon="-16.3125720">
        <ele>533.9</ele>
        <time>2020-11-11T09:33:40Z</time>
      </trkpt>
      <trkpt lat="28.5025920" lon="-16.3125970">
        <ele>533.9</ele>
        <time>2020-11-11T09:33:41Z</time>
      </trkpt>
      <trkpt lat="28.5025920" lon="-16.3125970">
        <ele>533.9</ele>
        <time>2020-11-11T09:33:42Z</time>
      </trkpt>
      <trkpt lat="28.5024500" lon="-16.3126420">
        <ele>533.9</ele>
        <time>2020-11-11T09:33:43Z</time>
      </trkpt>
      <trkpt lat="28.5024500" lon="-16.3126420">
        <ele>533.9</ele>
        <time>2020-11-11T09:33:44Z</time>
      </trkpt>
      <trkpt lat="28.5023100" lon="-16.3126850">
        <ele>533.9</ele>
        <time>2020-11-11T09:33:45Z</time>
      </trkpt>
      <trkpt lat="28.5022420" lon="-16.3127070">
        <ele>533.9</ele>
        <time>2020-11-11T09:33:46Z</time>
      </trkpt>
      <trkpt lat="28.5022420" lon="-16.3127070">
        <ele>533.9</ele>
        <time>2020-11-11T09:33:47Z</time>
      </trkpt>
      <trkpt lat="28.5021050" lon="-16.3127550">
        <ele>533.9</ele>
        <time>2020-11-11T09:33:48Z</time>
      </trkpt>
      <trkpt lat="28.5021050" lon="-16.3127550">
        <ele>533.9</ele>
        <time>2020-11-11T09:33:49Z</time>
      </trkpt>
      <trkpt lat="28.5019650" lon="-16.3127970">
        <ele>533.9</ele>
        <time>2020-11-11T09:33:50Z</time>
      </trkpt>
      <trkpt lat="28.5018900" lon="-16.3128180">
        <ele>533.9</ele>
        <time>2020-11-11T09:33:51Z</time>
      </trkpt>
      <trkpt lat="28.5018900" lon="-16.3128180">
        <ele>533.9</ele>
        <time>2020-11-11T09:33:52Z</time>
      </trkpt>
      <trkpt lat="28.5017530" lon="-16.3128550">
        <ele>532.9</ele>
        <time>2020-11-11T09:33:53Z</time>
      </trkpt>
      <trkpt lat="28.5016880" lon="-16.3128750">
        <ele>532.9</ele>
        <time>2020-11-11T09:33:54Z</time>
      </trkpt>
      <trkpt lat="28.5016880" lon="-16.3128750">
        <ele>532.9</ele>
        <time>2020-11-11T09:33:55Z</time>
      </trkpt>
      <trkpt lat="28.5015620" lon="-16.3129150">
        <ele>532.9</ele>
        <time>2020-11-11T09:33:56Z</time>
      </trkpt>
      <trkpt lat="28.5015620" lon="-16.3129150">
        <ele>532.9</ele>
        <time>2020-11-11T09:33:57Z</time>
      </trkpt>
      <trkpt lat="28.5014300" lon="-16.3129530">
        <ele>532.9</ele>
        <time>2020-11-11T09:33:58Z</time>
      </trkpt>
      <trkpt lat="28.5014300" lon="-16.3129530">
        <ele>532.9</ele>
        <time>2020-11-11T09:33:59Z</time>
      </trkpt>
      <trkpt lat="28.5013050" lon="-16.3129920">
        <ele>532.9</ele>
        <time>2020-11-11T09:34:00Z</time>
      </trkpt>
      <trkpt lat="28.5013050" lon="-16.3129920">
        <ele>532.9</ele>
        <time>2020-11-11T09:34:01Z</time>
      </trkpt>
      <trkpt lat="28.5011830" lon="-16.3130300">
        <ele>532.9</ele>
        <time>2020-11-11T09:34:02Z</time>
      </trkpt>
      <trkpt lat="28.5011830" lon="-16.3130300">
        <ele>532.9</ele>
        <time>2020-11-11T09:34:03Z</time>
      </trkpt>
      <trkpt lat="28.5010630" lon="-16.3130620">
        <ele>532.9</ele>
        <time>2020-11-11T09:34:04Z</time>
      </trkpt>
      <trkpt lat="28.5010050" lon="-16.3130800">
        <ele>532.9</ele>
        <time>2020-11-11T09:34:05Z</time>
      </trkpt>
      <trkpt lat="28.5010050" lon="-16.3130800">
        <ele>530.9</ele>
        <time>2020-11-11T09:34:06Z</time>
      </trkpt>
      <trkpt lat="28.5008920" lon="-16.3131180">
        <ele>530.9</ele>
        <time>2020-11-11T09:34:07Z</time>
      </trkpt>
      <trkpt lat="28.5008380" lon="-16.3131370">
        <ele>530.9</ele>
        <time>2020-11-11T09:34:08Z</time>
      </trkpt>
      <trkpt lat="28.5008380" lon="-16.3131370">
        <ele>530.9</ele>
        <time>2020-11-11T09:34:09Z</time>
      </trkpt>
      <trkpt lat="28.5007280" lon="-16.3131720">
        <ele>530.9</ele>
        <time>2020-11-11T09:34:10Z</time>
      </trkpt>
      <trkpt lat="28.5007280" lon="-16.3131720">
        <ele>530.9</ele>
        <time>2020-11-11T09:34:11Z</time>
      </trkpt>
      <trkpt lat="28.5006250" lon="-16.3132020">
        <ele>530.9</ele>
        <time>2020-11-11T09:34:12Z</time>
      </trkpt>
      <trkpt lat="28.5006250" lon="-16.3132020">
        <ele>531.9</ele>
        <time>2020-11-11T09:34:13Z</time>
      </trkpt>
      <trkpt lat="28.5005230" lon="-16.3132370">
        <ele>531.9</ele>
        <time>2020-11-11T09:34:14Z</time>
      </trkpt>
      <trkpt lat="28.5005230" lon="-16.3132370">
        <ele>531.9</ele>
        <time>2020-11-11T09:34:15Z</time>
      </trkpt>
      <trkpt lat="28.5004270" lon="-16.3132700">
        <ele>531.9</ele>
        <time>2020-11-11T09:34:16Z</time>
      </trkpt>
      <trkpt lat="28.5004270" lon="-16.3132700">
        <ele>531.9</ele>
        <time>2020-11-11T09:34:17Z</time>
      </trkpt>
      <trkpt lat="28.5003380" lon="-16.3132980">
        <ele>531.9</ele>
        <time>2020-11-11T09:34:18Z</time>
      </trkpt>
      <trkpt lat="28.5002970" lon="-16.3133100">
        <ele>531.9</ele>
        <time>2020-11-11T09:34:19Z</time>
      </trkpt>
      <trkpt lat="28.5002970" lon="-16.3133100">
        <ele>531.9</ele>
        <time>2020-11-11T09:34:20Z</time>
      </trkpt>
      <trkpt lat="28.5002180" lon="-16.3133280">
        <ele>531.9</ele>
        <time>2020-11-11T09:34:21Z</time>
      </trkpt>
      <trkpt lat="28.5001770" lon="-16.3133400">
        <ele>531.9</ele>
        <time>2020-11-11T09:34:22Z</time>
      </trkpt>
      <trkpt lat="28.5001770" lon="-16.3133400">
        <ele>531.9</ele>
        <time>2020-11-11T09:34:23Z</time>
      </trkpt>
      <trkpt lat="28.5000930" lon="-16.3133720">
        <ele>531.9</ele>
        <time>2020-11-11T09:34:24Z</time>
      </trkpt>
      <trkpt lat="28.5000930" lon="-16.3133720">
        <ele>531.9</ele>
        <time>2020-11-11T09:34:25Z</time>
      </trkpt>
      <trkpt lat="28.5000120" lon="-16.3134300">
        <ele>531.9</ele>
        <time>2020-11-11T09:34:26Z</time>
      </trkpt>
      <trkpt lat="28.5000120" lon="-16.3134300">
        <ele>531.9</ele>
        <time>2020-11-11T09:34:27Z</time>
      </trkpt>
      <trkpt lat="28.4999380" lon="-16.3135250">
        <ele>531.9</ele>
        <time>2020-11-11T09:34:28Z</time>
      </trkpt>
      <trkpt lat="28.4999380" lon="-16.3135250">
        <ele>531.9</ele>
        <time>2020-11-11T09:34:29Z</time>
      </trkpt>
      <trkpt lat="28.4998750" lon="-16.3136420">
        <ele>531.9</ele>
        <time>2020-11-11T09:34:30Z</time>
      </trkpt>
      <trkpt lat="28.4998750" lon="-16.3136420">
        <ele>531.9</ele>
        <time>2020-11-11T09:34:31Z</time>
      </trkpt>
      <trkpt lat="28.4998070" lon="-16.3137630">
        <ele>531.9</ele>
        <time>2020-11-11T09:34:32Z</time>
      </trkpt>
      <trkpt lat="28.4998070" lon="-16.3137630">
        <ele>531.9</ele>
        <time>2020-11-11T09:34:33Z</time>
      </trkpt>
      <trkpt lat="28.4997380" lon="-16.3138920">
        <ele>531.9</ele>
        <time>2020-11-11T09:34:34Z</time>
      </trkpt>
      <trkpt lat="28.4997380" lon="-16.3138920">
        <ele>531.9</ele>
        <time>2020-11-11T09:34:35Z</time>
      </trkpt>
      <trkpt lat="28.4996670" lon="-16.3140270">
        <ele>531.9</ele>
        <time>2020-11-11T09:34:36Z</time>
      </trkpt>
      <trkpt lat="28.4996330" lon="-16.3140980">
        <ele>531.9</ele>
        <time>2020-11-11T09:34:37Z</time>
      </trkpt>
      <trkpt lat="28.4996330" lon="-16.3140980">
        <ele>531.9</ele>
        <time>2020-11-11T09:34:38Z</time>
      </trkpt>
      <trkpt lat="28.4995680" lon="-16.3142450">
        <ele>531.9</ele>
        <time>2020-11-11T09:34:39Z</time>
      </trkpt>
      <trkpt lat="28.4995680" lon="-16.3142450">
        <ele>531.9</ele>
        <time>2020-11-11T09:34:40Z</time>
      </trkpt>
      <trkpt lat="28.4994980" lon="-16.3143880">
        <ele>531.9</ele>
        <time>2020-11-11T09:34:41Z</time>
      </trkpt>
      <trkpt lat="28.4994650" lon="-16.3144600">
        <ele>531.9</ele>
        <time>2020-11-11T09:34:42Z</time>
      </trkpt>
      <trkpt lat="28.4994650" lon="-16.3144600">
        <ele>531.9</ele>
        <time>2020-11-11T09:34:43Z</time>
      </trkpt>
      <trkpt lat="28.4993970" lon="-16.3146030">
        <ele>530.9</ele>
        <time>2020-11-11T09:34:44Z</time>
      </trkpt>
      <trkpt lat="28.4993970" lon="-16.3146030">
        <ele>530.9</ele>
        <time>2020-11-11T09:34:45Z</time>
      </trkpt>
      <trkpt lat="28.4993270" lon="-16.3147470">
        <ele>530.9</ele>
        <time>2020-11-11T09:34:46Z</time>
      </trkpt>
      <trkpt lat="28.4992930" lon="-16.3148180">
        <ele>530.9</ele>
        <time>2020-11-11T09:34:47Z</time>
      </trkpt>
      <trkpt lat="28.4992620" lon="-16.3148870">
        <ele>530.9</ele>
        <time>2020-11-11T09:34:48Z</time>
      </trkpt>
      <trkpt lat="28.4992620" lon="-16.3148870">
        <ele>530.9</ele>
        <time>2020-11-11T09:34:49Z</time>
      </trkpt>
      <trkpt lat="28.4991920" lon="-16.3150000">
        <ele>530.9</ele>
        <time>2020-11-11T09:34:50Z</time>
      </trkpt>
      <trkpt lat="28.4991920" lon="-16.3150000">
        <ele>530.9</ele>
        <time>2020-11-11T09:34:51Z</time>
      </trkpt>
      <trkpt lat="28.4991070" lon="-16.3149800">
        <ele>530.9</ele>
        <time>2020-11-11T09:34:52Z</time>
      </trkpt>
      <trkpt lat="28.4991070" lon="-16.3149800">
        <ele>530.9</ele>
        <time>2020-11-11T09:34:53Z</time>
      </trkpt>
      <trkpt lat="28.4990420" lon="-16.3149620">
        <ele>530.9</ele>
        <time>2020-11-11T09:34:54Z</time>
      </trkpt>
      <trkpt lat="28.4990420" lon="-16.3149620">
        <ele>529.9</ele>
        <time>2020-11-11T09:34:55Z</time>
      </trkpt>
      <trkpt lat="28.4989580" lon="-16.3149770">
        <ele>529.9</ele>
        <time>2020-11-11T09:34:56Z</time>
      </trkpt>
      <trkpt lat="28.4989580" lon="-16.3149770">
        <ele>529.9</ele>
        <time>2020-11-11T09:34:57Z</time>
      </trkpt>
      <trkpt lat="28.4988700" lon="-16.3150100">
        <ele>529.9</ele>
        <time>2020-11-11T09:34:58Z</time>
      </trkpt>
      <trkpt lat="28.4988180" lon="-16.3150250">
        <ele>529.9</ele>
        <time>2020-11-11T09:34:59Z</time>
      </trkpt>
      <trkpt lat="28.4988180" lon="-16.3150250">
        <ele>529.9</ele>
        <time>2020-11-11T09:35:00Z</time>
      </trkpt>
      <trkpt lat="28.4987130" lon="-16.3150530">
        <ele>529.9</ele>
        <time>2020-11-11T09:35:01Z</time>
      </trkpt>
      <trkpt lat="28.4987130" lon="-16.3150530">
        <ele>529.9</ele>
        <time>2020-11-11T09:35:02Z</time>
      </trkpt>
      <trkpt lat="28.4986150" lon="-16.3150900">
        <ele>529.9</ele>
        <time>2020-11-11T09:35:03Z</time>
      </trkpt>
      <trkpt lat="28.4986150" lon="-16.3150900">
        <ele>529.9</ele>
        <time>2020-11-11T09:35:04Z</time>
      </trkpt>
      <trkpt lat="28.4985200" lon="-16.3151200">
        <ele>529.9</ele>
        <time>2020-11-11T09:35:05Z</time>
      </trkpt>
      <trkpt lat="28.4984750" lon="-16.3151370">
        <ele>529.9</ele>
        <time>2020-11-11T09:35:06Z</time>
      </trkpt>
      <trkpt lat="28.4984750" lon="-16.3151370">
        <ele>529.9</ele>
        <time>2020-11-11T09:35:07Z</time>
      </trkpt>
      <trkpt lat="28.4983720" lon="-16.3151620">
        <ele>529.9</ele>
        <time>2020-11-11T09:35:08Z</time>
      </trkpt>
      <trkpt lat="28.4983250" lon="-16.3151770">
        <ele>529.9</ele>
        <time>2020-11-11T09:35:09Z</time>
      </trkpt>
      <trkpt lat="28.4983250" lon="-16.3151770">
        <ele>529.9</ele>
        <time>2020-11-11T09:35:10Z</time>
      </trkpt>
      <trkpt lat="28.4982300" lon="-16.3152080">
        <ele>529.9</ele>
        <time>2020-11-11T09:35:11Z</time>
      </trkpt>
      <trkpt lat="28.4982300" lon="-16.3152080">
        <ele>529.9</ele>
        <time>2020-11-11T09:35:12Z</time>
      </trkpt>
      <trkpt lat="28.4981350" lon="-16.3152330">
        <ele>529.9</ele>
        <time>2020-11-11T09:35:13Z</time>
      </trkpt>
      <trkpt lat="28.4981350" lon="-16.3152330">
        <ele>529.9</ele>
        <time>2020-11-11T09:35:14Z</time>
      </trkpt>
      <trkpt lat="28.4980400" lon="-16.3152620">
        <ele>529.9</ele>
        <time>2020-11-11T09:35:15Z</time>
      </trkpt>
      <trkpt lat="28.4980400" lon="-16.3152620">
        <ele>529.9</ele>
        <time>2020-11-11T09:35:16Z</time>
      </trkpt>
      <trkpt lat="28.4979470" lon="-16.3152920">
        <ele>529.9</ele>
        <time>2020-11-11T09:35:17Z</time>
      </trkpt>
      <trkpt lat="28.4979000" lon="-16.3153030">
        <ele>529.9</ele>
        <time>2020-11-11T09:35:18Z</time>
      </trkpt>
      <trkpt lat="28.4979000" lon="-16.3153030">
        <ele>529.9</ele>
        <time>2020-11-11T09:35:19Z</time>
      </trkpt>
      <trkpt lat="28.4978000" lon="-16.3153220">
        <ele>529.9</ele>
        <time>2020-11-11T09:35:20Z</time>
      </trkpt>
      <trkpt lat="28.4978000" lon="-16.3153220">
        <ele>529.9</ele>
        <time>2020-11-11T09:35:21Z</time>
      </trkpt>
      <trkpt lat="28.4976980" lon="-16.3153530">
        <ele>529.9</ele>
        <time>2020-11-11T09:35:22Z</time>
      </trkpt>
      <trkpt lat="28.4976400" lon="-16.3153800">
        <ele>529.9</ele>
        <time>2020-11-11T09:35:23Z</time>
      </trkpt>
      <trkpt lat="28.4975350" lon="-16.3154220">
        <ele>529.9</ele>
        <time>2020-11-11T09:35:24Z</time>
      </trkpt>
      <trkpt lat="28.4975350" lon="-16.3154220">
        <ele>529.9</ele>
        <time>2020-11-11T09:35:25Z</time>
      </trkpt>
      <trkpt lat="28.4974880" lon="-16.3154400">
        <ele>529.9</ele>
        <time>2020-11-11T09:35:26Z</time>
      </trkpt>
      <trkpt lat="28.4974880" lon="-16.3154400">
        <ele>529.9</ele>
        <time>2020-11-11T09:35:27Z</time>
      </trkpt>
      <trkpt lat="28.4973950" lon="-16.3154880">
        <ele>529.9</ele>
        <time>2020-11-11T09:35:28Z</time>
      </trkpt>
      <trkpt lat="28.4973950" lon="-16.3154880">
        <ele>529.9</ele>
        <time>2020-11-11T09:35:29Z</time>
      </trkpt>
      <trkpt lat="28.4972970" lon="-16.3155320">
        <ele>529.9</ele>
        <time>2020-11-11T09:35:30Z</time>
      </trkpt>
      <trkpt lat="28.4972970" lon="-16.3155320">
        <ele>529.9</ele>
        <time>2020-11-11T09:35:31Z</time>
      </trkpt>
      <trkpt lat="28.4971970" lon="-16.3155700">
        <ele>529.9</ele>
        <time>2020-11-11T09:35:32Z</time>
      </trkpt>
      <trkpt lat="28.4971970" lon="-16.3155700">
        <ele>529.9</ele>
        <time>2020-11-11T09:35:33Z</time>
      </trkpt>
      <trkpt lat="28.4970970" lon="-16.3156030">
        <ele>529.9</ele>
        <time>2020-11-11T09:35:34Z</time>
      </trkpt>
      <trkpt lat="28.4970970" lon="-16.3156030">
        <ele>529.9</ele>
        <time>2020-11-11T09:35:35Z</time>
      </trkpt>
      <trkpt lat="28.4970020" lon="-16.3156280">
        <ele>529.9</ele>
        <time>2020-11-11T09:35:36Z</time>
      </trkpt>
      <trkpt lat="28.4970020" lon="-16.3156280">
        <ele>529.9</ele>
        <time>2020-11-11T09:35:37Z</time>
      </trkpt>
      <trkpt lat="28.4969050" lon="-16.3156530">
        <ele>529.9</ele>
        <time>2020-11-11T09:35:38Z</time>
      </trkpt>
      <trkpt lat="28.4968570" lon="-16.3156670">
        <ele>529.9</ele>
        <time>2020-11-11T09:35:39Z</time>
      </trkpt>
      <trkpt lat="28.4968570" lon="-16.3156670">
        <ele>529.9</ele>
        <time>2020-11-11T09:35:40Z</time>
      </trkpt>
      <trkpt lat="28.4967670" lon="-16.3156950">
        <ele>529.9</ele>
        <time>2020-11-11T09:35:41Z</time>
      </trkpt>
      <trkpt lat="28.4967670" lon="-16.3156950">
        <ele>529.9</ele>
        <time>2020-11-11T09:35:42Z</time>
      </trkpt>
      <trkpt lat="28.4966750" lon="-16.3157270">
        <ele>529.9</ele>
        <time>2020-11-11T09:35:43Z</time>
      </trkpt>
      <trkpt lat="28.4966750" lon="-16.3157270">
        <ele>529.9</ele>
        <time>2020-11-11T09:35:44Z</time>
      </trkpt>
      <trkpt lat="28.4966070" lon="-16.3157670">
        <ele>529.9</ele>
        <time>2020-11-11T09:35:45Z</time>
      </trkpt>
      <trkpt lat="28.4966070" lon="-16.3157670">
        <ele>529.9</ele>
        <time>2020-11-11T09:35:46Z</time>
      </trkpt>
      <trkpt lat="28.4965670" lon="-16.3158150">
        <ele>529.9</ele>
        <time>2020-11-11T09:35:47Z</time>
      </trkpt>
      <trkpt lat="28.4965670" lon="-16.3158150">
        <ele>529.9</ele>
        <time>2020-11-11T09:35:48Z</time>
      </trkpt>
      <trkpt lat="28.4965120" lon="-16.3158600">
        <ele>529.9</ele>
        <time>2020-11-11T09:35:49Z</time>
      </trkpt>
      <trkpt lat="28.4964780" lon="-16.3158730">
        <ele>529.9</ele>
        <time>2020-11-11T09:35:50Z</time>
      </trkpt>
      <trkpt lat="28.4964780" lon="-16.3158730">
        <ele>529.9</ele>
        <time>2020-11-11T09:35:51Z</time>
      </trkpt>
      <trkpt lat="28.4964050" lon="-16.3158900">
        <ele>529.9</ele>
        <time>2020-11-11T09:35:52Z</time>
      </trkpt>
      <trkpt lat="28.4963600" lon="-16.3159000">
        <ele>529.9</ele>
        <time>2020-11-11T09:35:53Z</time>
      </trkpt>
      <trkpt lat="28.4963600" lon="-16.3159000">
        <ele>529.9</ele>
        <time>2020-11-11T09:35:54Z</time>
      </trkpt>
      <trkpt lat="28.4962570" lon="-16.3159400">
        <ele>529.9</ele>
        <time>2020-11-11T09:35:55Z</time>
      </trkpt>
      <trkpt lat="28.4962130" lon="-16.3159570">
        <ele>529.9</ele>
        <time>2020-11-11T09:35:56Z</time>
      </trkpt>
      <trkpt lat="28.4961720" lon="-16.3159700">
        <ele>529.9</ele>
        <time>2020-11-11T09:35:57Z</time>
      </trkpt>
      <trkpt lat="28.4961720" lon="-16.3159700">
        <ele>529.9</ele>
        <time>2020-11-11T09:35:58Z</time>
      </trkpt>
      <trkpt lat="28.4960720" lon="-16.3160020">
        <ele>529.9</ele>
        <time>2020-11-11T09:35:59Z</time>
      </trkpt>
      <trkpt lat="28.4960720" lon="-16.3160020">
        <ele>529.9</ele>
        <time>2020-11-11T09:36:00Z</time>
      </trkpt>
      <trkpt lat="28.4959700" lon="-16.3160330">
        <ele>529.9</ele>
        <time>2020-11-11T09:36:01Z</time>
      </trkpt>
      <trkpt lat="28.4959220" lon="-16.3160500">
        <ele>529.9</ele>
        <time>2020-11-11T09:36:02Z</time>
      </trkpt>
      <trkpt lat="28.4959220" lon="-16.3160500">
        <ele>529.9</ele>
        <time>2020-11-11T09:36:03Z</time>
      </trkpt>
      <trkpt lat="28.4958230" lon="-16.3160820">
        <ele>529.9</ele>
        <time>2020-11-11T09:36:04Z</time>
      </trkpt>
      <trkpt lat="28.4958230" lon="-16.3160820">
        <ele>529.9</ele>
        <time>2020-11-11T09:36:05Z</time>
      </trkpt>
      <trkpt lat="28.4957250" lon="-16.3161150">
        <ele>529.9</ele>
        <time>2020-11-11T09:36:06Z</time>
      </trkpt>
      <trkpt lat="28.4957250" lon="-16.3161150">
        <ele>529.9</ele>
        <time>2020-11-11T09:36:07Z</time>
      </trkpt>
      <trkpt lat="28.4956270" lon="-16.3161480">
        <ele>529.9</ele>
        <time>2020-11-11T09:36:08Z</time>
      </trkpt>
      <trkpt lat="28.4956270" lon="-16.3161480">
        <ele>529.9</ele>
        <time>2020-11-11T09:36:09Z</time>
      </trkpt>
      <trkpt lat="28.4955270" lon="-16.3161870">
        <ele>529.9</ele>
        <time>2020-11-11T09:36:10Z</time>
      </trkpt>
      <trkpt lat="28.4955270" lon="-16.3161870">
        <ele>529.9</ele>
        <time>2020-11-11T09:36:11Z</time>
      </trkpt>
      <trkpt lat="28.4954300" lon="-16.3162270">
        <ele>529.9</ele>
        <time>2020-11-11T09:36:12Z</time>
      </trkpt>
      <trkpt lat="28.4954300" lon="-16.3162270">
        <ele>529.9</ele>
        <time>2020-11-11T09:36:13Z</time>
      </trkpt>
      <trkpt lat="28.4953270" lon="-16.3162630">
        <ele>529.9</ele>
        <time>2020-11-11T09:36:14Z</time>
      </trkpt>
      <trkpt lat="28.4953270" lon="-16.3162630">
        <ele>529.9</ele>
        <time>2020-11-11T09:36:15Z</time>
      </trkpt>
      <trkpt lat="28.4952320" lon="-16.3163000">
        <ele>529.9</ele>
        <time>2020-11-11T09:36:16Z</time>
      </trkpt>
      <trkpt lat="28.4952320" lon="-16.3163000">
        <ele>529.9</ele>
        <time>2020-11-11T09:36:17Z</time>
      </trkpt>
      <trkpt lat="28.4951280" lon="-16.3163370">
        <ele>529.9</ele>
        <time>2020-11-11T09:36:18Z</time>
      </trkpt>
      <trkpt lat="28.4951280" lon="-16.3163370">
        <ele>529.9</ele>
        <time>2020-11-11T09:36:19Z</time>
      </trkpt>
      <trkpt lat="28.4950170" lon="-16.3163720">
        <ele>529.9</ele>
        <time>2020-11-11T09:36:20Z</time>
      </trkpt>
      <trkpt lat="28.4950170" lon="-16.3163720">
        <ele>529.9</ele>
        <time>2020-11-11T09:36:21Z</time>
      </trkpt>
      <trkpt lat="28.4949070" lon="-16.3164050">
        <ele>529.9</ele>
        <time>2020-11-11T09:36:22Z</time>
      </trkpt>
      <trkpt lat="28.4949070" lon="-16.3164050">
        <ele>529.9</ele>
        <time>2020-11-11T09:36:23Z</time>
      </trkpt>
      <trkpt lat="28.4947920" lon="-16.3164370">
        <ele>529.9</ele>
        <time>2020-11-11T09:36:24Z</time>
      </trkpt>
      <trkpt lat="28.4947920" lon="-16.3164370">
        <ele>529.9</ele>
        <time>2020-11-11T09:36:25Z</time>
      </trkpt>
      <trkpt lat="28.4946630" lon="-16.3164820">
        <ele>529.9</ele>
        <time>2020-11-11T09:36:26Z</time>
      </trkpt>
      <trkpt lat="28.4946630" lon="-16.3164820">
        <ele>529.9</ele>
        <time>2020-11-11T09:36:27Z</time>
      </trkpt>
      <trkpt lat="28.4945580" lon="-16.3165250">
        <ele>529.9</ele>
        <time>2020-11-11T09:36:28Z</time>
      </trkpt>
      <trkpt lat="28.4945580" lon="-16.3165250">
        <ele>529.9</ele>
        <time>2020-11-11T09:36:29Z</time>
      </trkpt>
      <trkpt lat="28.4944550" lon="-16.3165580">
        <ele>529.9</ele>
        <time>2020-11-11T09:36:30Z</time>
      </trkpt>
      <trkpt lat="28.4944550" lon="-16.3165580">
        <ele>529.9</ele>
        <time>2020-11-11T09:36:31Z</time>
      </trkpt>
      <trkpt lat="28.4943620" lon="-16.3165920">
        <ele>529.9</ele>
        <time>2020-11-11T09:36:32Z</time>
      </trkpt>
      <trkpt lat="28.4943620" lon="-16.3165920">
        <ele>529.9</ele>
        <time>2020-11-11T09:36:33Z</time>
      </trkpt>
      <trkpt lat="28.4942700" lon="-16.3166170">
        <ele>529.9</ele>
        <time>2020-11-11T09:36:34Z</time>
      </trkpt>
      <trkpt lat="28.4942700" lon="-16.3166170">
        <ele>529.9</ele>
        <time>2020-11-11T09:36:35Z</time>
      </trkpt>
      <trkpt lat="28.4941730" lon="-16.3166420">
        <ele>529.9</ele>
        <time>2020-11-11T09:36:36Z</time>
      </trkpt>
      <trkpt lat="28.4941730" lon="-16.3166420">
        <ele>529.9</ele>
        <time>2020-11-11T09:36:37Z</time>
      </trkpt>
      <trkpt lat="28.4940800" lon="-16.3166800">
        <ele>529.9</ele>
        <time>2020-11-11T09:36:38Z</time>
      </trkpt>
      <trkpt lat="28.4940800" lon="-16.3166800">
        <ele>529.9</ele>
        <time>2020-11-11T09:36:39Z</time>
      </trkpt>
      <trkpt lat="28.4939950" lon="-16.3167070">
        <ele>529.9</ele>
        <time>2020-11-11T09:36:40Z</time>
      </trkpt>
      <trkpt lat="28.4939950" lon="-16.3167070">
        <ele>529.9</ele>
        <time>2020-11-11T09:36:41Z</time>
      </trkpt>
      <trkpt lat="28.4939000" lon="-16.3167300">
        <ele>529.9</ele>
        <time>2020-11-11T09:36:42Z</time>
      </trkpt>
      <trkpt lat="28.4939000" lon="-16.3167300">
        <ele>529.9</ele>
        <time>2020-11-11T09:36:43Z</time>
      </trkpt>
      <trkpt lat="28.4938120" lon="-16.3167580">
        <ele>529.9</ele>
        <time>2020-11-11T09:36:44Z</time>
      </trkpt>
      <trkpt lat="28.4937650" lon="-16.3167680">
        <ele>529.9</ele>
        <time>2020-11-11T09:36:45Z</time>
      </trkpt>
      <trkpt lat="28.4937650" lon="-16.3167680">
        <ele>529.9</ele>
        <time>2020-11-11T09:36:46Z</time>
      </trkpt>
      <trkpt lat="28.4936700" lon="-16.3167950">
        <ele>529.9</ele>
        <time>2020-11-11T09:36:47Z</time>
      </trkpt>
      <trkpt lat="28.4936280" lon="-16.3168080">
        <ele>529.9</ele>
        <time>2020-11-11T09:36:48Z</time>
      </trkpt>
      <trkpt lat="28.4936280" lon="-16.3168080">
        <ele>529.9</ele>
        <time>2020-11-11T09:36:49Z</time>
      </trkpt>
      <trkpt lat="28.4935450" lon="-16.3168420">
        <ele>529.9</ele>
        <time>2020-11-11T09:36:50Z</time>
      </trkpt>
      <trkpt lat="28.4934980" lon="-16.3168580">
        <ele>529.9</ele>
        <time>2020-11-11T09:36:51Z</time>
      </trkpt>
      <trkpt lat="28.4934980" lon="-16.3168580">
        <ele>529.9</ele>
        <time>2020-11-11T09:36:52Z</time>
      </trkpt>
      <trkpt lat="28.4934020" lon="-16.3168880">
        <ele>529.9</ele>
        <time>2020-11-11T09:36:53Z</time>
      </trkpt>
      <trkpt lat="28.4934020" lon="-16.3168880">
        <ele>529.9</ele>
        <time>2020-11-11T09:36:54Z</time>
      </trkpt>
      <trkpt lat="28.4933150" lon="-16.3169220">
        <ele>529.9</ele>
        <time>2020-11-11T09:36:55Z</time>
      </trkpt>
      <trkpt lat="28.4932720" lon="-16.3169400">
        <ele>529.9</ele>
        <time>2020-11-11T09:36:56Z</time>
      </trkpt>
      <trkpt lat="28.4932720" lon="-16.3169400">
        <ele>529.9</ele>
        <time>2020-11-11T09:36:57Z</time>
      </trkpt>
      <trkpt lat="28.4932120" lon="-16.3169550">
        <ele>529.9</ele>
        <time>2020-11-11T09:36:58Z</time>
      </trkpt>
      <trkpt lat="28.4932120" lon="-16.3169550">
        <ele>529.9</ele>
        <time>2020-11-11T09:36:59Z</time>
      </trkpt>
      <trkpt lat="28.4931650" lon="-16.3169620">
        <ele>529.9</ele>
        <time>2020-11-11T09:37:00Z</time>
      </trkpt>
      <trkpt lat="28.4931650" lon="-16.3169620">
        <ele>529.9</ele>
        <time>2020-11-11T09:37:01Z</time>
      </trkpt>
      <trkpt lat="28.4930870" lon="-16.3169620">
        <ele>529.9</ele>
        <time>2020-11-11T09:37:02Z</time>
      </trkpt>
      <trkpt lat="28.4930870" lon="-16.3169620">
        <ele>529.9</ele>
        <time>2020-11-11T09:37:03Z</time>
      </trkpt>
      <trkpt lat="28.4930020" lon="-16.3169680">
        <ele>529.9</ele>
        <time>2020-11-11T09:37:04Z</time>
      </trkpt>
      <trkpt lat="28.4930020" lon="-16.3169680">
        <ele>529.9</ele>
        <time>2020-11-11T09:37:05Z</time>
      </trkpt>
      <trkpt lat="28.4929180" lon="-16.3169850">
        <ele>529.9</ele>
        <time>2020-11-11T09:37:06Z</time>
      </trkpt>
      <trkpt lat="28.4929180" lon="-16.3169850">
        <ele>529.9</ele>
        <time>2020-11-11T09:37:07Z</time>
      </trkpt>
      <trkpt lat="28.4928350" lon="-16.3170180">
        <ele>528.9</ele>
        <time>2020-11-11T09:37:08Z</time>
      </trkpt>
      <trkpt lat="28.4928350" lon="-16.3170180">
        <ele>528.9</ele>
        <time>2020-11-11T09:37:09Z</time>
      </trkpt>
      <trkpt lat="28.4927520" lon="-16.3170520">
        <ele>528.9</ele>
        <time>2020-11-11T09:37:10Z</time>
      </trkpt>
      <trkpt lat="28.4927520" lon="-16.3170520">
        <ele>528.9</ele>
        <time>2020-11-11T09:37:11Z</time>
      </trkpt>
      <trkpt lat="28.4926670" lon="-16.3170850">
        <ele>528.9</ele>
        <time>2020-11-11T09:37:12Z</time>
      </trkpt>
      <trkpt lat="28.4926270" lon="-16.3171050">
        <ele>528.9</ele>
        <time>2020-11-11T09:37:13Z</time>
      </trkpt>
      <trkpt lat="28.4925870" lon="-16.3171230">
        <ele>528.9</ele>
        <time>2020-11-11T09:37:14Z</time>
      </trkpt>
      <trkpt lat="28.4925870" lon="-16.3171230">
        <ele>528.9</ele>
        <time>2020-11-11T09:37:15Z</time>
      </trkpt>
      <trkpt lat="28.4925080" lon="-16.3171630">
        <ele>529.9</ele>
        <time>2020-11-11T09:37:16Z</time>
      </trkpt>
      <trkpt lat="28.4924670" lon="-16.3171850">
        <ele>529.9</ele>
        <time>2020-11-11T09:37:17Z</time>
      </trkpt>
      <trkpt lat="28.4924670" lon="-16.3171850">
        <ele>529.9</ele>
        <time>2020-11-11T09:37:18Z</time>
      </trkpt>
      <trkpt lat="28.4924170" lon="-16.3172630">
        <ele>529.9</ele>
        <time>2020-11-11T09:37:19Z</time>
      </trkpt>
      <trkpt lat="28.4923870" lon="-16.3173080">
        <ele>529.9</ele>
        <time>2020-11-11T09:37:20Z</time>
      </trkpt>
      <trkpt lat="28.4923870" lon="-16.3173080">
        <ele>529.9</ele>
        <time>2020-11-11T09:37:21Z</time>
      </trkpt>
      <trkpt lat="28.4923420" lon="-16.3173980">
        <ele>529.9</ele>
        <time>2020-11-11T09:37:22Z</time>
      </trkpt>
      <trkpt lat="28.4923420" lon="-16.3173980">
        <ele>529.9</ele>
        <time>2020-11-11T09:37:23Z</time>
      </trkpt>
      <trkpt lat="28.4922780" lon="-16.3175100">
        <ele>529.9</ele>
        <time>2020-11-11T09:37:24Z</time>
      </trkpt>
      <trkpt lat="28.4922780" lon="-16.3175100">
        <ele>529.9</ele>
        <time>2020-11-11T09:37:25Z</time>
      </trkpt>
      <trkpt lat="28.4922250" lon="-16.3176070">
        <ele>529.9</ele>
        <time>2020-11-11T09:37:26Z</time>
      </trkpt>
      <trkpt lat="28.4922250" lon="-16.3176070">
        <ele>529.9</ele>
        <time>2020-11-11T09:37:27Z</time>
      </trkpt>
      <trkpt lat="28.4921920" lon="-16.3177130">
        <ele>529.9</ele>
        <time>2020-11-11T09:37:28Z</time>
      </trkpt>
      <trkpt lat="28.4921920" lon="-16.3177130">
        <ele>529.9</ele>
        <time>2020-11-11T09:37:29Z</time>
      </trkpt>
      <trkpt lat="28.4921430" lon="-16.3178400">
        <ele>529.9</ele>
        <time>2020-11-11T09:37:30Z</time>
      </trkpt>
      <trkpt lat="28.4921430" lon="-16.3178400">
        <ele>529.9</ele>
        <time>2020-11-11T09:37:31Z</time>
      </trkpt>
      <trkpt lat="28.4920850" lon="-16.3179500">
        <ele>529.9</ele>
        <time>2020-11-11T09:37:32Z</time>
      </trkpt>
      <trkpt lat="28.4920850" lon="-16.3179500">
        <ele>529.9</ele>
        <time>2020-11-11T09:37:33Z</time>
      </trkpt>
      <trkpt lat="28.4920250" lon="-16.3180480">
        <ele>529.9</ele>
        <time>2020-11-11T09:37:34Z</time>
      </trkpt>
      <trkpt lat="28.4920250" lon="-16.3180480">
        <ele>529.9</ele>
        <time>2020-11-11T09:37:35Z</time>
      </trkpt>
      <trkpt lat="28.4919600" lon="-16.3181650">
        <ele>529.9</ele>
        <time>2020-11-11T09:37:36Z</time>
      </trkpt>
      <trkpt lat="28.4919600" lon="-16.3181650">
        <ele>529.9</ele>
        <time>2020-11-11T09:37:37Z</time>
      </trkpt>
      <trkpt lat="28.4919080" lon="-16.3182600">
        <ele>529.9</ele>
        <time>2020-11-11T09:37:38Z</time>
      </trkpt>
      <trkpt lat="28.4919080" lon="-16.3182600">
        <ele>529.9</ele>
        <time>2020-11-11T09:37:39Z</time>
      </trkpt>
      <trkpt lat="28.4918630" lon="-16.3183580">
        <ele>529.9</ele>
        <time>2020-11-11T09:37:40Z</time>
      </trkpt>
      <trkpt lat="28.4918630" lon="-16.3183580">
        <ele>529.9</ele>
        <time>2020-11-11T09:37:41Z</time>
      </trkpt>
      <trkpt lat="28.4918020" lon="-16.3184550">
        <ele>529.9</ele>
        <time>2020-11-11T09:37:42Z</time>
      </trkpt>
      <trkpt lat="28.4917750" lon="-16.3184970">
        <ele>529.9</ele>
        <time>2020-11-11T09:37:43Z</time>
      </trkpt>
      <trkpt lat="28.4917750" lon="-16.3184970">
        <ele>529.9</ele>
        <time>2020-11-11T09:37:44Z</time>
      </trkpt>
      <trkpt lat="28.4917430" lon="-16.3185570">
        <ele>529.9</ele>
        <time>2020-11-11T09:37:45Z</time>
      </trkpt>
      <trkpt lat="28.4917430" lon="-16.3185570">
        <ele>529.9</ele>
        <time>2020-11-11T09:37:46Z</time>
      </trkpt>
      <trkpt lat="28.4917350" lon="-16.3185800">
        <ele>529.9</ele>
        <time>2020-11-11T09:37:47Z</time>
      </trkpt>
      <trkpt lat="28.4917350" lon="-16.3185800">
        <ele>529.9</ele>
        <time>2020-11-11T09:37:48Z</time>
      </trkpt>
      <trkpt lat="28.4917250" lon="-16.3185970">
        <ele>529.9</ele>
        <time>2020-11-11T09:37:49Z</time>
      </trkpt>
      <trkpt lat="28.4917150" lon="-16.3186080">
        <ele>529.9</ele>
        <time>2020-11-11T09:37:50Z</time>
      </trkpt>
      <trkpt lat="28.4917150" lon="-16.3186080">
        <ele>529.9</ele>
        <time>2020-11-11T09:37:51Z</time>
      </trkpt>
      <trkpt lat="28.4916870" lon="-16.3186520">
        <ele>529.9</ele>
        <time>2020-11-11T09:37:52Z</time>
      </trkpt>
      <trkpt lat="28.4916680" lon="-16.3186800">
        <ele>529.9</ele>
        <time>2020-11-11T09:37:53Z</time>
      </trkpt>
      <trkpt lat="28.4916680" lon="-16.3186800">
        <ele>529.9</ele>
        <time>2020-11-11T09:37:54Z</time>
      </trkpt>
      <trkpt lat="28.4916320" lon="-16.3187420">
        <ele>529.9</ele>
        <time>2020-11-11T09:37:55Z</time>
      </trkpt>
      <trkpt lat="28.4916320" lon="-16.3187420">
        <ele>529.9</ele>
        <time>2020-11-11T09:37:56Z</time>
      </trkpt>
      <trkpt lat="28.4915920" lon="-16.3188100">
        <ele>529.9</ele>
        <time>2020-11-11T09:37:57Z</time>
      </trkpt>
      <trkpt lat="28.4915920" lon="-16.3188100">
        <ele>529.9</ele>
        <time>2020-11-11T09:37:58Z</time>
      </trkpt>
      <trkpt lat="28.4915530" lon="-16.3188780">
        <ele>529.9</ele>
        <time>2020-11-11T09:37:59Z</time>
      </trkpt>
      <trkpt lat="28.4915530" lon="-16.3188780">
        <ele>529.9</ele>
        <time>2020-11-11T09:38:00Z</time>
      </trkpt>
      <trkpt lat="28.4915280" lon="-16.3189570">
        <ele>529.9</ele>
        <time>2020-11-11T09:38:01Z</time>
      </trkpt>
      <trkpt lat="28.4915120" lon="-16.3189980">
        <ele>529.9</ele>
        <time>2020-11-11T09:38:02Z</time>
      </trkpt>
      <trkpt lat="28.4915120" lon="-16.3189980">
        <ele>529.9</ele>
        <time>2020-11-11T09:38:03Z</time>
      </trkpt>
      <trkpt lat="28.4914750" lon="-16.3190870">
        <ele>529.9</ele>
        <time>2020-11-11T09:38:04Z</time>
      </trkpt>
      <trkpt lat="28.4914470" lon="-16.3191270">
        <ele>529.9</ele>
        <time>2020-11-11T09:38:05Z</time>
      </trkpt>
      <trkpt lat="28.4914470" lon="-16.3191270">
        <ele>529.9</ele>
        <time>2020-11-11T09:38:06Z</time>
      </trkpt>
      <trkpt lat="28.4914030" lon="-16.3192020">
        <ele>529.9</ele>
        <time>2020-11-11T09:38:07Z</time>
      </trkpt>
      <trkpt lat="28.4914030" lon="-16.3192020">
        <ele>529.9</ele>
        <time>2020-11-11T09:38:08Z</time>
      </trkpt>
      <trkpt lat="28.4913520" lon="-16.3192900">
        <ele>529.9</ele>
        <time>2020-11-11T09:38:09Z</time>
      </trkpt>
      <trkpt lat="28.4913520" lon="-16.3192900">
        <ele>529.9</ele>
        <time>2020-11-11T09:38:10Z</time>
      </trkpt>
      <trkpt lat="28.4913070" lon="-16.3193730">
        <ele>529.9</ele>
        <time>2020-11-11T09:38:11Z</time>
      </trkpt>
      <trkpt lat="28.4912680" lon="-16.3193980">
        <ele>529.9</ele>
        <time>2020-11-11T09:38:12Z</time>
      </trkpt>
      <trkpt lat="28.4912680" lon="-16.3193980">
        <ele>529.9</ele>
        <time>2020-11-11T09:38:13Z</time>
      </trkpt>
      <trkpt lat="28.4912050" lon="-16.3194520">
        <ele>529.9</ele>
        <time>2020-11-11T09:38:14Z</time>
      </trkpt>
      <trkpt lat="28.4912050" lon="-16.3194520">
        <ele>529.9</ele>
        <time>2020-11-11T09:38:15Z</time>
      </trkpt>
      <trkpt lat="28.4911480" lon="-16.3195100">
        <ele>529.9</ele>
        <time>2020-11-11T09:38:16Z</time>
      </trkpt>
      <trkpt lat="28.4911480" lon="-16.3195100">
        <ele>529.9</ele>
        <time>2020-11-11T09:38:17Z</time>
      </trkpt>
      <trkpt lat="28.4910870" lon="-16.3195620">
        <ele>529.9</ele>
        <time>2020-11-11T09:38:18Z</time>
      </trkpt>
      <trkpt lat="28.4910870" lon="-16.3195620">
        <ele>529.9</ele>
        <time>2020-11-11T09:38:19Z</time>
      </trkpt>
      <trkpt lat="28.4910200" lon="-16.3195980">
        <ele>529.9</ele>
        <time>2020-11-11T09:38:20Z</time>
      </trkpt>
      <trkpt lat="28.4910200" lon="-16.3195980">
        <ele>529.9</ele>
        <time>2020-11-11T09:38:21Z</time>
      </trkpt>
      <trkpt lat="28.4909550" lon="-16.3196270">
        <ele>529.9</ele>
        <time>2020-11-11T09:38:22Z</time>
      </trkpt>
      <trkpt lat="28.4909550" lon="-16.3196270">
        <ele>529.9</ele>
        <time>2020-11-11T09:38:23Z</time>
      </trkpt>
      <trkpt lat="28.4908770" lon="-16.3197030">
        <ele>529.9</ele>
        <time>2020-11-11T09:38:24Z</time>
      </trkpt>
      <trkpt lat="28.4908770" lon="-16.3197030">
        <ele>530.9</ele>
        <time>2020-11-11T09:38:25Z</time>
      </trkpt>
      <trkpt lat="28.4908470" lon="-16.3197220">
        <ele>530.9</ele>
        <time>2020-11-11T09:38:26Z</time>
      </trkpt>
      <trkpt lat="28.4908470" lon="-16.3197220">
        <ele>530.9</ele>
        <time>2020-11-11T09:38:27Z</time>
      </trkpt>
      <trkpt lat="28.4907950" lon="-16.3197770">
        <ele>530.9</ele>
        <time>2020-11-11T09:38:28Z</time>
      </trkpt>
      <trkpt lat="28.4907950" lon="-16.3197770">
        <ele>530.9</ele>
        <time>2020-11-11T09:38:29Z</time>
      </trkpt>
      <trkpt lat="28.4907430" lon="-16.3198220">
        <ele>530.9</ele>
        <time>2020-11-11T09:38:30Z</time>
      </trkpt>
      <trkpt lat="28.4907120" lon="-16.3198370">
        <ele>531.9</ele>
        <time>2020-11-11T09:38:31Z</time>
      </trkpt>
      <trkpt lat="28.4907120" lon="-16.3198370">
        <ele>531.9</ele>
        <time>2020-11-11T09:38:32Z</time>
      </trkpt>
      <trkpt lat="28.4906570" lon="-16.3198550">
        <ele>531.9</ele>
        <time>2020-11-11T09:38:33Z</time>
      </trkpt>
      <trkpt lat="28.4906300" lon="-16.3198670">
        <ele>531.9</ele>
        <time>2020-11-11T09:38:34Z</time>
      </trkpt>
      <trkpt lat="28.4906050" lon="-16.3198750">
        <ele>531.9</ele>
        <time>2020-11-11T09:38:35Z</time>
      </trkpt>
      <trkpt lat="28.4906050" lon="-16.3198750">
        <ele>531.9</ele>
        <time>2020-11-11T09:38:36Z</time>
      </trkpt>
      <trkpt lat="28.4905630" lon="-16.3199100">
        <ele>532.9</ele>
        <time>2020-11-11T09:38:37Z</time>
      </trkpt>
      <trkpt lat="28.4905420" lon="-16.3199280">
        <ele>532.9</ele>
        <time>2020-11-11T09:38:38Z</time>
      </trkpt>
      <trkpt lat="28.4905420" lon="-16.3199280">
        <ele>532.9</ele>
        <time>2020-11-11T09:38:39Z</time>
      </trkpt>
      <trkpt lat="28.4904820" lon="-16.3199550">
        <ele>532.9</ele>
        <time>2020-11-11T09:38:40Z</time>
      </trkpt>
      <trkpt lat="28.4904550" lon="-16.3199520">
        <ele>532.9</ele>
        <time>2020-11-11T09:38:41Z</time>
      </trkpt>
      <trkpt lat="28.4904550" lon="-16.3199520">
        <ele>532.9</ele>
        <time>2020-11-11T09:38:42Z</time>
      </trkpt>
      <trkpt lat="28.4904130" lon="-16.3199120">
        <ele>532.9</ele>
        <time>2020-11-11T09:38:43Z</time>
      </trkpt>
      <trkpt lat="28.4903980" lon="-16.3198850">
        <ele>532.9</ele>
        <time>2020-11-11T09:38:44Z</time>
      </trkpt>
      <trkpt lat="28.4903980" lon="-16.3198850">
        <ele>532.9</ele>
        <time>2020-11-11T09:38:45Z</time>
      </trkpt>
      <trkpt lat="28.4903670" lon="-16.3198350">
        <ele>532.9</ele>
        <time>2020-11-11T09:38:46Z</time>
      </trkpt>
      <trkpt lat="28.4903500" lon="-16.3198220">
        <ele>532.9</ele>
        <time>2020-11-11T09:38:47Z</time>
      </trkpt>
      <trkpt lat="28.4903500" lon="-16.3198220">
        <ele>532.9</ele>
        <time>2020-11-11T09:38:48Z</time>
      </trkpt>
      <trkpt lat="28.4903170" lon="-16.3198320">
        <ele>532.9</ele>
        <time>2020-11-11T09:38:49Z</time>
      </trkpt>
      <trkpt lat="28.4903020" lon="-16.3198500">
        <ele>532.9</ele>
        <time>2020-11-11T09:38:50Z</time>
      </trkpt>
      <trkpt lat="28.4903020" lon="-16.3198500">
        <ele>532.9</ele>
        <time>2020-11-11T09:38:51Z</time>
      </trkpt>
      <trkpt lat="28.4902520" lon="-16.3198830">
        <ele>532.9</ele>
        <time>2020-11-11T09:38:52Z</time>
      </trkpt>
      <trkpt lat="28.4902520" lon="-16.3198830">
        <ele>532.9</ele>
        <time>2020-11-11T09:38:53Z</time>
      </trkpt>
      <trkpt lat="28.4902020" lon="-16.3199030">
        <ele>532.9</ele>
        <time>2020-11-11T09:38:54Z</time>
      </trkpt>
      <trkpt lat="28.4902020" lon="-16.3199030">
        <ele>532.9</ele>
        <time>2020-11-11T09:38:55Z</time>
      </trkpt>
      <trkpt lat="28.4901600" lon="-16.3199270">
        <ele>532.9</ele>
        <time>2020-11-11T09:38:56Z</time>
      </trkpt>
      <trkpt lat="28.4901600" lon="-16.3199270">
        <ele>532.9</ele>
        <time>2020-11-11T09:38:57Z</time>
      </trkpt>
      <trkpt lat="28.4901130" lon="-16.3199420">
        <ele>532.9</ele>
        <time>2020-11-11T09:38:58Z</time>
      </trkpt>
      <trkpt lat="28.4900920" lon="-16.3199570">
        <ele>532.9</ele>
        <time>2020-11-11T09:38:59Z</time>
      </trkpt>
      <trkpt lat="28.4900700" lon="-16.3199780">
        <ele>532.9</ele>
        <time>2020-11-11T09:39:00Z</time>
      </trkpt>
      <trkpt lat="28.4900450" lon="-16.3199980">
        <ele>532.9</ele>
        <time>2020-11-11T09:39:01Z</time>
      </trkpt>
      <trkpt lat="28.4900170" lon="-16.3200030">
        <ele>532.9</ele>
        <time>2020-11-11T09:39:02Z</time>
      </trkpt>
      <trkpt lat="28.4900170" lon="-16.3200030">
        <ele>532.9</ele>
        <time>2020-11-11T09:39:03Z</time>
      </trkpt>
      <trkpt lat="28.4899720" lon="-16.3199830">
        <ele>532.9</ele>
        <time>2020-11-11T09:39:04Z</time>
      </trkpt>
      <trkpt lat="28.4899720" lon="-16.3199830">
        <ele>532.9</ele>
        <time>2020-11-11T09:39:05Z</time>
      </trkpt>
      <trkpt lat="28.4899380" lon="-16.3199370">
        <ele>532.9</ele>
        <time>2020-11-11T09:39:06Z</time>
      </trkpt>
      <trkpt lat="28.4899380" lon="-16.3199370">
        <ele>532.9</ele>
        <time>2020-11-11T09:39:07Z</time>
      </trkpt>
      <trkpt lat="28.4899080" lon="-16.3198870">
        <ele>532.9</ele>
        <time>2020-11-11T09:39:08Z</time>
      </trkpt>
      <trkpt lat="28.4898900" lon="-16.3198630">
        <ele>532.9</ele>
        <time>2020-11-11T09:39:09Z</time>
      </trkpt>
      <trkpt lat="28.4898900" lon="-16.3198630">
        <ele>532.9</ele>
        <time>2020-11-11T09:39:10Z</time>
      </trkpt>
      <trkpt lat="28.4898620" lon="-16.3198150">
        <ele>532.9</ele>
        <time>2020-11-11T09:39:11Z</time>
      </trkpt>
      <trkpt lat="28.4898620" lon="-16.3198150">
        <ele>532.9</ele>
        <time>2020-11-11T09:39:12Z</time>
      </trkpt>
      <trkpt lat="28.4898350" lon="-16.3197620">
        <ele>532.9</ele>
        <time>2020-11-11T09:39:13Z</time>
      </trkpt>
      <trkpt lat="28.4898200" lon="-16.3197320">
        <ele>532.9</ele>
        <time>2020-11-11T09:39:14Z</time>
      </trkpt>
      <trkpt lat="28.4898200" lon="-16.3197320">
        <ele>532.9</ele>
        <time>2020-11-11T09:39:15Z</time>
      </trkpt>
      <trkpt lat="28.4897980" lon="-16.3196720">
        <ele>532.9</ele>
        <time>2020-11-11T09:39:16Z</time>
      </trkpt>
      <trkpt lat="28.4897880" lon="-16.3196430">
        <ele>532.9</ele>
        <time>2020-11-11T09:39:17Z</time>
      </trkpt>
      <trkpt lat="28.4897730" lon="-16.3196180">
        <ele>532.9</ele>
        <time>2020-11-11T09:39:18Z</time>
      </trkpt>
      <trkpt lat="28.4897730" lon="-16.3196180">
        <ele>532.9</ele>
        <time>2020-11-11T09:39:19Z</time>
      </trkpt>
      <trkpt lat="28.4897420" lon="-16.3195620">
        <ele>532.9</ele>
        <time>2020-11-11T09:39:20Z</time>
      </trkpt>
      <trkpt lat="28.4897420" lon="-16.3195620">
        <ele>532.9</ele>
        <time>2020-11-11T09:39:21Z</time>
      </trkpt>
      <trkpt lat="28.4897120" lon="-16.3195050">
        <ele>532.9</ele>
        <time>2020-11-11T09:39:22Z</time>
      </trkpt>
      <trkpt lat="28.4896920" lon="-16.3194780">
        <ele>532.9</ele>
        <time>2020-11-11T09:39:23Z</time>
      </trkpt>
      <trkpt lat="28.4896920" lon="-16.3194780">
        <ele>532.9</ele>
        <time>2020-11-11T09:39:24Z</time>
      </trkpt>
      <trkpt lat="28.4896580" lon="-16.3194300">
        <ele>532.9</ele>
        <time>2020-11-11T09:39:25Z</time>
      </trkpt>
      <trkpt lat="28.4896450" lon="-16.3194000">
        <ele>532.9</ele>
        <time>2020-11-11T09:39:26Z</time>
      </trkpt>
      <trkpt lat="28.4896450" lon="-16.3194000">
        <ele>532.9</ele>
        <time>2020-11-11T09:39:27Z</time>
      </trkpt>
      <trkpt lat="28.4896080" lon="-16.3193450">
        <ele>532.9</ele>
        <time>2020-11-11T09:39:28Z</time>
      </trkpt>
      <trkpt lat="28.4896080" lon="-16.3193450">
        <ele>532.9</ele>
        <time>2020-11-11T09:39:29Z</time>
      </trkpt>
      <trkpt lat="28.4895730" lon="-16.3192980">
        <ele>532.9</ele>
        <time>2020-11-11T09:39:30Z</time>
      </trkpt>
      <trkpt lat="28.4895730" lon="-16.3192980">
        <ele>532.9</ele>
        <time>2020-11-11T09:39:31Z</time>
      </trkpt>
      <trkpt lat="28.4895270" lon="-16.3192500">
        <ele>532.9</ele>
        <time>2020-11-11T09:39:32Z</time>
      </trkpt>
      <trkpt lat="28.4895080" lon="-16.3192250">
        <ele>532.9</ele>
        <time>2020-11-11T09:39:33Z</time>
      </trkpt>
      <trkpt lat="28.4895080" lon="-16.3192250">
        <ele>532.9</ele>
        <time>2020-11-11T09:39:34Z</time>
      </trkpt>
      <trkpt lat="28.4894650" lon="-16.3191700">
        <ele>532.9</ele>
        <time>2020-11-11T09:39:35Z</time>
      </trkpt>
      <trkpt lat="28.4894650" lon="-16.3191700">
        <ele>532.9</ele>
        <time>2020-11-11T09:39:36Z</time>
      </trkpt>
      <trkpt lat="28.4894450" lon="-16.3191000">
        <ele>532.9</ele>
        <time>2020-11-11T09:39:37Z</time>
      </trkpt>
      <trkpt lat="28.4894450" lon="-16.3191000">
        <ele>532.9</ele>
        <time>2020-11-11T09:39:38Z</time>
      </trkpt>
      <trkpt lat="28.4894170" lon="-16.3190200">
        <ele>532.9</ele>
        <time>2020-11-11T09:39:39Z</time>
      </trkpt>
      <trkpt lat="28.4894170" lon="-16.3190200">
        <ele>532.9</ele>
        <time>2020-11-11T09:39:40Z</time>
      </trkpt>
      <trkpt lat="28.4893700" lon="-16.3189420">
        <ele>532.9</ele>
        <time>2020-11-11T09:39:41Z</time>
      </trkpt>
      <trkpt lat="28.4893700" lon="-16.3189420">
        <ele>532.9</ele>
        <time>2020-11-11T09:39:42Z</time>
      </trkpt>
      <trkpt lat="28.4893250" lon="-16.3188720">
        <ele>532.9</ele>
        <time>2020-11-11T09:39:43Z</time>
      </trkpt>
      <trkpt lat="28.4893250" lon="-16.3188720">
        <ele>532.9</ele>
        <time>2020-11-11T09:39:44Z</time>
      </trkpt>
      <trkpt lat="28.4892850" lon="-16.3188050">
        <ele>532.9</ele>
        <time>2020-11-11T09:39:45Z</time>
      </trkpt>
      <trkpt lat="28.4892850" lon="-16.3188050">
        <ele>532.9</ele>
        <time>2020-11-11T09:39:46Z</time>
      </trkpt>
      <trkpt lat="28.4892520" lon="-16.3187620">
        <ele>532.9</ele>
        <time>2020-11-11T09:39:47Z</time>
      </trkpt>
      <trkpt lat="28.4892400" lon="-16.3187380">
        <ele>532.9</ele>
        <time>2020-11-11T09:39:48Z</time>
      </trkpt>
      <trkpt lat="28.4892400" lon="-16.3187380">
        <ele>532.9</ele>
        <time>2020-11-11T09:39:49Z</time>
      </trkpt>
      <trkpt lat="28.4892220" lon="-16.3186830">
        <ele>531.9</ele>
        <time>2020-11-11T09:39:50Z</time>
      </trkpt>
      <trkpt lat="28.4892220" lon="-16.3186830">
        <ele>531.9</ele>
        <time>2020-11-11T09:39:51Z</time>
      </trkpt>
      <trkpt lat="28.4891920" lon="-16.3186230">
        <ele>531.9</ele>
        <time>2020-11-11T09:39:52Z</time>
      </trkpt>
      <trkpt lat="28.4891770" lon="-16.3185920">
        <ele>531.9</ele>
        <time>2020-11-11T09:39:53Z</time>
      </trkpt>
      <trkpt lat="28.4891580" lon="-16.3185630">
        <ele>531.9</ele>
        <time>2020-11-11T09:39:54Z</time>
      </trkpt>
      <trkpt lat="28.4891580" lon="-16.3185630">
        <ele>531.9</ele>
        <time>2020-11-11T09:39:55Z</time>
      </trkpt>
      <trkpt lat="28.4891220" lon="-16.3184950">
        <ele>531.9</ele>
        <time>2020-11-11T09:39:56Z</time>
      </trkpt>
      <trkpt lat="28.4891220" lon="-16.3184950">
        <ele>531.9</ele>
        <time>2020-11-11T09:39:57Z</time>
      </trkpt>
      <trkpt lat="28.4890680" lon="-16.3184150">
        <ele>531.9</ele>
        <time>2020-11-11T09:39:58Z</time>
      </trkpt>
      <trkpt lat="28.4890680" lon="-16.3184150">
        <ele>530.9</ele>
        <time>2020-11-11T09:39:59Z</time>
      </trkpt>
      <trkpt lat="28.4890200" lon="-16.3183280">
        <ele>530.9</ele>
        <time>2020-11-11T09:40:00Z</time>
      </trkpt>
      <trkpt lat="28.4889950" lon="-16.3182850">
        <ele>530.9</ele>
        <time>2020-11-11T09:40:01Z</time>
      </trkpt>
      <trkpt lat="28.4889730" lon="-16.3182450">
        <ele>530.9</ele>
        <time>2020-11-11T09:40:02Z</time>
      </trkpt>
      <trkpt lat="28.4889730" lon="-16.3182450">
        <ele>530.9</ele>
        <time>2020-11-11T09:40:03Z</time>
      </trkpt>
      <trkpt lat="28.4889370" lon="-16.3181700">
        <ele>530.9</ele>
        <time>2020-11-11T09:40:04Z</time>
      </trkpt>
      <trkpt lat="28.4889120" lon="-16.3181270">
        <ele>529.9</ele>
        <time>2020-11-11T09:40:05Z</time>
      </trkpt>
      <trkpt lat="28.4889120" lon="-16.3181270">
        <ele>529.9</ele>
        <time>2020-11-11T09:40:06Z</time>
      </trkpt>
      <trkpt lat="28.4888750" lon="-16.3180450">
        <ele>529.9</ele>
        <time>2020-11-11T09:40:07Z</time>
      </trkpt>
      <trkpt lat="28.4888530" lon="-16.3180030">
        <ele>529.9</ele>
        <time>2020-11-11T09:40:08Z</time>
      </trkpt>
      <trkpt lat="28.4888530" lon="-16.3180030">
        <ele>529.9</ele>
        <time>2020-11-11T09:40:09Z</time>
      </trkpt>
      <trkpt lat="28.4887980" lon="-16.3179220">
        <ele>529.9</ele>
        <time>2020-11-11T09:40:10Z</time>
      </trkpt>
      <trkpt lat="28.4887980" lon="-16.3179220">
        <ele>529.9</ele>
        <time>2020-11-11T09:40:11Z</time>
      </trkpt>
      <trkpt lat="28.4887430" lon="-16.3178420">
        <ele>529.9</ele>
        <time>2020-11-11T09:40:12Z</time>
      </trkpt>
      <trkpt lat="28.4887230" lon="-16.3178000">
        <ele>529.9</ele>
        <time>2020-11-11T09:40:13Z</time>
      </trkpt>
      <trkpt lat="28.4887050" lon="-16.3177580">
        <ele>529.9</ele>
        <time>2020-11-11T09:40:14Z</time>
      </trkpt>
      <trkpt lat="28.4887050" lon="-16.3177580">
        <ele>528.9</ele>
        <time>2020-11-11T09:40:15Z</time>
      </trkpt>
      <trkpt lat="28.4886720" lon="-16.3176820">
        <ele>528.9</ele>
        <time>2020-11-11T09:40:16Z</time>
      </trkpt>
      <trkpt lat="28.4886470" lon="-16.3176530">
        <ele>528.9</ele>
        <time>2020-11-11T09:40:17Z</time>
      </trkpt>
      <trkpt lat="28.4886470" lon="-16.3176530">
        <ele>528.9</ele>
        <time>2020-11-11T09:40:18Z</time>
      </trkpt>
      <trkpt lat="28.4886030" lon="-16.3175930">
        <ele>528.9</ele>
        <time>2020-11-11T09:40:19Z</time>
      </trkpt>
      <trkpt lat="28.4885830" lon="-16.3175580">
        <ele>528.9</ele>
        <time>2020-11-11T09:40:20Z</time>
      </trkpt>
      <trkpt lat="28.4885830" lon="-16.3175580">
        <ele>528.9</ele>
        <time>2020-11-11T09:40:21Z</time>
      </trkpt>
      <trkpt lat="28.4885530" lon="-16.3174880">
        <ele>528.9</ele>
        <time>2020-11-11T09:40:22Z</time>
      </trkpt>
      <trkpt lat="28.4885530" lon="-16.3174880">
        <ele>528.9</ele>
        <time>2020-11-11T09:40:23Z</time>
      </trkpt>
      <trkpt lat="28.4885130" lon="-16.3174120">
        <ele>528.9</ele>
        <time>2020-11-11T09:40:24Z</time>
      </trkpt>
      <trkpt lat="28.4884880" lon="-16.3173770">
        <ele>528.9</ele>
        <time>2020-11-11T09:40:25Z</time>
      </trkpt>
      <trkpt lat="28.4884630" lon="-16.3173430">
        <ele>528.9</ele>
        <time>2020-11-11T09:40:26Z</time>
      </trkpt>
      <trkpt lat="28.4884630" lon="-16.3173430">
        <ele>528.9</ele>
        <time>2020-11-11T09:40:27Z</time>
      </trkpt>
      <trkpt lat="28.4884130" lon="-16.3172750">
        <ele>528.9</ele>
        <time>2020-11-11T09:40:28Z</time>
      </trkpt>
      <trkpt lat="28.4883850" lon="-16.3172400">
        <ele>528.9</ele>
        <time>2020-11-11T09:40:29Z</time>
      </trkpt>
      <trkpt lat="28.4883850" lon="-16.3172400">
        <ele>528.9</ele>
        <time>2020-11-11T09:40:30Z</time>
      </trkpt>
      <trkpt lat="28.4883220" lon="-16.3171770">
        <ele>528.9</ele>
        <time>2020-11-11T09:40:31Z</time>
      </trkpt>
      <trkpt lat="28.4883220" lon="-16.3171770">
        <ele>528.9</ele>
        <time>2020-11-11T09:40:32Z</time>
      </trkpt>
      <trkpt lat="28.4882770" lon="-16.3171130">
        <ele>528.9</ele>
        <time>2020-11-11T09:40:33Z</time>
      </trkpt>
      <trkpt lat="28.4882770" lon="-16.3171130">
        <ele>528.9</ele>
        <time>2020-11-11T09:40:34Z</time>
      </trkpt>
      <trkpt lat="28.4882280" lon="-16.3170570">
        <ele>528.9</ele>
        <time>2020-11-11T09:40:35Z</time>
      </trkpt>
      <trkpt lat="28.4882280" lon="-16.3170570">
        <ele>528.9</ele>
        <time>2020-11-11T09:40:36Z</time>
      </trkpt>
      <trkpt lat="28.4881770" lon="-16.3169900">
        <ele>528.9</ele>
        <time>2020-11-11T09:40:37Z</time>
      </trkpt>
      <trkpt lat="28.4881520" lon="-16.3169520">
        <ele>528.9</ele>
        <time>2020-11-11T09:40:38Z</time>
      </trkpt>
      <trkpt lat="28.4881520" lon="-16.3169520">
        <ele>528.9</ele>
        <time>2020-11-11T09:40:39Z</time>
      </trkpt>
      <trkpt lat="28.4881020" lon="-16.3168730">
        <ele>528.9</ele>
        <time>2020-11-11T09:40:40Z</time>
      </trkpt>
      <trkpt lat="28.4880730" lon="-16.3168330">
        <ele>527.9</ele>
        <time>2020-11-11T09:40:41Z</time>
      </trkpt>
      <trkpt lat="28.4880730" lon="-16.3168330">
        <ele>527.9</ele>
        <time>2020-11-11T09:40:42Z</time>
      </trkpt>
      <trkpt lat="28.4880380" lon="-16.3167570">
        <ele>527.9</ele>
        <time>2020-11-11T09:40:43Z</time>
      </trkpt>
      <trkpt lat="28.4880150" lon="-16.3167220">
        <ele>527.9</ele>
        <time>2020-11-11T09:40:44Z</time>
      </trkpt>
      <trkpt lat="28.4880150" lon="-16.3167220">
        <ele>527.9</ele>
        <time>2020-11-11T09:40:45Z</time>
      </trkpt>
      <trkpt lat="28.4879670" lon="-16.3166700">
        <ele>527.9</ele>
        <time>2020-11-11T09:40:46Z</time>
      </trkpt>
      <trkpt lat="28.4879400" lon="-16.3166370">
        <ele>527.9</ele>
        <time>2020-11-11T09:40:47Z</time>
      </trkpt>
      <trkpt lat="28.4879400" lon="-16.3166370">
        <ele>527.9</ele>
        <time>2020-11-11T09:40:48Z</time>
      </trkpt>
      <trkpt lat="28.4878900" lon="-16.3165770">
        <ele>527.9</ele>
        <time>2020-11-11T09:40:49Z</time>
      </trkpt>
      <trkpt lat="28.4878680" lon="-16.3165370">
        <ele>527.9</ele>
        <time>2020-11-11T09:40:50Z</time>
      </trkpt>
      <trkpt lat="28.4878680" lon="-16.3165370">
        <ele>527.9</ele>
        <time>2020-11-11T09:40:51Z</time>
      </trkpt>
      <trkpt lat="28.4878300" lon="-16.3164630">
        <ele>527.9</ele>
        <time>2020-11-11T09:40:52Z</time>
      </trkpt>
      <trkpt lat="28.4878300" lon="-16.3164630">
        <ele>527.9</ele>
        <time>2020-11-11T09:40:53Z</time>
      </trkpt>
      <trkpt lat="28.4877880" lon="-16.3163770">
        <ele>527.9</ele>
        <time>2020-11-11T09:40:54Z</time>
      </trkpt>
      <trkpt lat="28.4877880" lon="-16.3163770">
        <ele>527.9</ele>
        <time>2020-11-11T09:40:55Z</time>
      </trkpt>
      <trkpt lat="28.4877500" lon="-16.3163120">
        <ele>527.9</ele>
        <time>2020-11-11T09:40:56Z</time>
      </trkpt>
      <trkpt lat="28.4877320" lon="-16.3162820">
        <ele>527.9</ele>
        <time>2020-11-11T09:40:57Z</time>
      </trkpt>
      <trkpt lat="28.4877320" lon="-16.3162820">
        <ele>527.9</ele>
        <time>2020-11-11T09:40:58Z</time>
      </trkpt>
      <trkpt lat="28.4877050" lon="-16.3162070">
        <ele>527.9</ele>
        <time>2020-11-11T09:40:59Z</time>
      </trkpt>
      <trkpt lat="28.4876930" lon="-16.3161700">
        <ele>527.9</ele>
        <time>2020-11-11T09:41:00Z</time>
      </trkpt>
      <trkpt lat="28.4876930" lon="-16.3161700">
        <ele>527.9</ele>
        <time>2020-11-11T09:41:01Z</time>
      </trkpt>
      <trkpt lat="28.4876550" lon="-16.3161030">
        <ele>527.9</ele>
        <time>2020-11-11T09:41:02Z</time>
      </trkpt>
      <trkpt lat="28.4876250" lon="-16.3160820">
        <ele>527.9</ele>
        <time>2020-11-11T09:41:03Z</time>
      </trkpt>
      <trkpt lat="28.4876250" lon="-16.3160820">
        <ele>527.9</ele>
        <time>2020-11-11T09:41:04Z</time>
      </trkpt>
      <trkpt lat="28.4875630" lon="-16.3160170">
        <ele>527.9</ele>
        <time>2020-11-11T09:41:05Z</time>
      </trkpt>
      <trkpt lat="28.4875450" lon="-16.3159850">
        <ele>527.9</ele>
        <time>2020-11-11T09:41:06Z</time>
      </trkpt>
      <trkpt lat="28.4875450" lon="-16.3159850">
        <ele>527.9</ele>
        <time>2020-11-11T09:41:07Z</time>
      </trkpt>
      <trkpt lat="28.4874920" lon="-16.3159480">
        <ele>527.9</ele>
        <time>2020-11-11T09:41:08Z</time>
      </trkpt>
      <trkpt lat="28.4874600" lon="-16.3159420">
        <ele>527.9</ele>
        <time>2020-11-11T09:41:09Z</time>
      </trkpt>
      <trkpt lat="28.4874600" lon="-16.3159420">
        <ele>527.9</ele>
        <time>2020-11-11T09:41:10Z</time>
      </trkpt>
      <trkpt lat="28.4873900" lon="-16.3159450">
        <ele>527.9</ele>
        <time>2020-11-11T09:41:11Z</time>
      </trkpt>
      <trkpt lat="28.4873900" lon="-16.3159450">
        <ele>527.9</ele>
        <time>2020-11-11T09:41:12Z</time>
      </trkpt>
      <trkpt lat="28.4873520" lon="-16.3160150">
        <ele>527.9</ele>
        <time>2020-11-11T09:41:13Z</time>
      </trkpt>
      <trkpt lat="28.4873050" lon="-16.3160200">
        <ele>527.9</ele>
        <time>2020-11-11T09:41:14Z</time>
      </trkpt>
      <trkpt lat="28.4873050" lon="-16.3160200">
        <ele>527.9</ele>
        <time>2020-11-11T09:41:15Z</time>
      </trkpt>
      <trkpt lat="28.4872200" lon="-16.3160400">
        <ele>527.9</ele>
        <time>2020-11-11T09:41:16Z</time>
      </trkpt>
      <trkpt lat="28.4872200" lon="-16.3160400">
        <ele>527.9</ele>
        <time>2020-11-11T09:41:17Z</time>
      </trkpt>
      <trkpt lat="28.4871230" lon="-16.3160820">
        <ele>526.9</ele>
        <time>2020-11-11T09:41:18Z</time>
      </trkpt>
      <trkpt lat="28.4870700" lon="-16.3160980">
        <ele>526.9</ele>
        <time>2020-11-11T09:41:19Z</time>
      </trkpt>
      <trkpt lat="28.4870700" lon="-16.3160980">
        <ele>526.9</ele>
        <time>2020-11-11T09:41:20Z</time>
      </trkpt>
      <trkpt lat="28.4869530" lon="-16.3161300">
        <ele>526.9</ele>
        <time>2020-11-11T09:41:21Z</time>
      </trkpt>
      <trkpt lat="28.4869030" lon="-16.3161520">
        <ele>526.9</ele>
        <time>2020-11-11T09:41:22Z</time>
      </trkpt>
      <trkpt lat="28.4869030" lon="-16.3161520">
        <ele>526.9</ele>
        <time>2020-11-11T09:41:23Z</time>
      </trkpt>
      <trkpt lat="28.4868100" lon="-16.3162000">
        <ele>526.9</ele>
        <time>2020-11-11T09:41:24Z</time>
      </trkpt>
      <trkpt lat="28.4868100" lon="-16.3162000">
        <ele>526.9</ele>
        <time>2020-11-11T09:41:25Z</time>
      </trkpt>
      <trkpt lat="28.4866830" lon="-16.3162320">
        <ele>525.9</ele>
        <time>2020-11-11T09:41:26Z</time>
      </trkpt>
      <trkpt lat="28.4866830" lon="-16.3162320">
        <ele>525.9</ele>
        <time>2020-11-11T09:41:27Z</time>
      </trkpt>
      <trkpt lat="28.4865650" lon="-16.3162700">
        <ele>525.9</ele>
        <time>2020-11-11T09:41:28Z</time>
      </trkpt>
      <trkpt lat="28.4865650" lon="-16.3162700">
        <ele>525.9</ele>
        <time>2020-11-11T09:41:29Z</time>
      </trkpt>
      <trkpt lat="28.4864450" lon="-16.3163150">
        <ele>525.9</ele>
        <time>2020-11-11T09:41:30Z</time>
      </trkpt>
      <trkpt lat="28.4864450" lon="-16.3163150">
        <ele>525.9</ele>
        <time>2020-11-11T09:41:31Z</time>
      </trkpt>
      <trkpt lat="28.4863280" lon="-16.3163530">
        <ele>524.9</ele>
        <time>2020-11-11T09:41:32Z</time>
      </trkpt>
      <trkpt lat="28.4863280" lon="-16.3163530">
        <ele>524.9</ele>
        <time>2020-11-11T09:41:33Z</time>
      </trkpt>
      <trkpt lat="28.4862150" lon="-16.3163950">
        <ele>524.9</ele>
        <time>2020-11-11T09:41:34Z</time>
      </trkpt>
      <trkpt lat="28.4861670" lon="-16.3164150">
        <ele>524.9</ele>
        <time>2020-11-11T09:41:35Z</time>
      </trkpt>
      <trkpt lat="28.4861670" lon="-16.3164150">
        <ele>524.9</ele>
        <time>2020-11-11T09:41:36Z</time>
      </trkpt>
      <trkpt lat="28.4860620" lon="-16.3164600">
        <ele>524.9</ele>
        <time>2020-11-11T09:41:37Z</time>
      </trkpt>
      <trkpt lat="28.4860120" lon="-16.3164830">
        <ele>524.9</ele>
        <time>2020-11-11T09:41:38Z</time>
      </trkpt>
      <trkpt lat="28.4860120" lon="-16.3164830">
        <ele>524.9</ele>
        <time>2020-11-11T09:41:39Z</time>
      </trkpt>
      <trkpt lat="28.4859000" lon="-16.3164950">
        <ele>523.9</ele>
        <time>2020-11-11T09:41:40Z</time>
      </trkpt>
      <trkpt lat="28.4859000" lon="-16.3164950">
        <ele>523.9</ele>
        <time>2020-11-11T09:41:41Z</time>
      </trkpt>
      <trkpt lat="28.4858100" lon="-16.3165050">
        <ele>523.9</ele>
        <time>2020-11-11T09:41:42Z</time>
      </trkpt>
      <trkpt lat="28.4857600" lon="-16.3165050">
        <ele>523.9</ele>
        <time>2020-11-11T09:41:43Z</time>
      </trkpt>
      <trkpt lat="28.4857600" lon="-16.3165050">
        <ele>523.9</ele>
        <time>2020-11-11T09:41:44Z</time>
      </trkpt>
      <trkpt lat="28.4857050" lon="-16.3165100">
        <ele>523.9</ele>
        <time>2020-11-11T09:41:45Z</time>
      </trkpt>
      <trkpt lat="28.4856970" lon="-16.3165170">
        <ele>523.9</ele>
        <time>2020-11-11T09:41:46Z</time>
      </trkpt>
      <trkpt lat="28.4856970" lon="-16.3165170">
        <ele>523.9</ele>
        <time>2020-11-11T09:41:47Z</time>
      </trkpt>
      <trkpt lat="28.4856880" lon="-16.3165330">
        <ele>523.9</ele>
        <time>2020-11-11T09:41:48Z</time>
      </trkpt>
      <trkpt lat="28.4856880" lon="-16.3165330">
        <ele>523.9</ele>
        <time>2020-11-11T09:41:49Z</time>
      </trkpt>
      <trkpt lat="28.4856720" lon="-16.3165250">
        <ele>523.9</ele>
        <time>2020-11-11T09:41:50Z</time>
      </trkpt>
      <trkpt lat="28.4856720" lon="-16.3165250">
        <ele>523.9</ele>
        <time>2020-11-11T09:41:51Z</time>
      </trkpt>
      <trkpt lat="28.4856720" lon="-16.3165250">
        <ele>523.9</ele>
        <time>2020-11-11T09:41:52Z</time>
      </trkpt>
      <trkpt lat="28.4855800" lon="-16.3165050">
        <ele>523.9</ele>
        <time>2020-11-11T09:42:06Z</time>
      </trkpt>
      <trkpt lat="28.4855570" lon="-16.3165130">
        <ele>523.9</ele>
        <time>2020-11-11T09:42:07Z</time>
      </trkpt>
      <trkpt lat="28.4855570" lon="-16.3165130">
        <ele>523.9</ele>
        <time>2020-11-11T09:42:08Z</time>
      </trkpt>
      <trkpt lat="28.4854870" lon="-16.3165330">
        <ele>523.9</ele>
        <time>2020-11-11T09:42:09Z</time>
      </trkpt>
      <trkpt lat="28.4854470" lon="-16.3165470">
        <ele>523.9</ele>
        <time>2020-11-11T09:42:10Z</time>
      </trkpt>
      <trkpt lat="28.4854470" lon="-16.3165470">
        <ele>523.9</ele>
        <time>2020-11-11T09:42:11Z</time>
      </trkpt>
      <trkpt lat="28.4853600" lon="-16.3165900">
        <ele>523.9</ele>
        <time>2020-11-11T09:42:12Z</time>
      </trkpt>
      <trkpt lat="28.4853600" lon="-16.3165900">
        <ele>523.9</ele>
        <time>2020-11-11T09:42:13Z</time>
      </trkpt>
      <trkpt lat="28.4852750" lon="-16.3166380">
        <ele>523.9</ele>
        <time>2020-11-11T09:42:14Z</time>
      </trkpt>
      <trkpt lat="28.4852750" lon="-16.3166380">
        <ele>523.9</ele>
        <time>2020-11-11T09:42:15Z</time>
      </trkpt>
      <trkpt lat="28.4851620" lon="-16.3166870">
        <ele>523.9</ele>
        <time>2020-11-11T09:42:16Z</time>
      </trkpt>
      <trkpt lat="28.4851050" lon="-16.3167100">
        <ele>523.9</ele>
        <time>2020-11-11T09:42:17Z</time>
      </trkpt>
      <trkpt lat="28.4851050" lon="-16.3167100">
        <ele>523.9</ele>
        <time>2020-11-11T09:42:18Z</time>
      </trkpt>
      <trkpt lat="28.4849830" lon="-16.3167630">
        <ele>523.9</ele>
        <time>2020-11-11T09:42:19Z</time>
      </trkpt>
      <trkpt lat="28.4849830" lon="-16.3167630">
        <ele>523.9</ele>
        <time>2020-11-11T09:42:20Z</time>
      </trkpt>
      <trkpt lat="28.4848630" lon="-16.3168130">
        <ele>523.9</ele>
        <time>2020-11-11T09:42:21Z</time>
      </trkpt>
      <trkpt lat="28.4848630" lon="-16.3168130">
        <ele>523.9</ele>
        <time>2020-11-11T09:42:22Z</time>
      </trkpt>
      <trkpt lat="28.4847250" lon="-16.3168530">
        <ele>523.9</ele>
        <time>2020-11-11T09:42:23Z</time>
      </trkpt>
      <trkpt lat="28.4846620" lon="-16.3168800">
        <ele>523.9</ele>
        <time>2020-11-11T09:42:24Z</time>
      </trkpt>
      <trkpt lat="28.4846620" lon="-16.3168800">
        <ele>523.9</ele>
        <time>2020-11-11T09:42:25Z</time>
      </trkpt>
      <trkpt lat="28.4845400" lon="-16.3169380">
        <ele>523.9</ele>
        <time>2020-11-11T09:42:26Z</time>
      </trkpt>
      <trkpt lat="28.4845400" lon="-16.3169380">
        <ele>523.9</ele>
        <time>2020-11-11T09:42:27Z</time>
      </trkpt>
      <trkpt lat="28.4844220" lon="-16.3170030">
        <ele>523.9</ele>
        <time>2020-11-11T09:42:28Z</time>
      </trkpt>
      <trkpt lat="28.4844220" lon="-16.3170030">
        <ele>523.9</ele>
        <time>2020-11-11T09:42:29Z</time>
      </trkpt>
      <trkpt lat="28.4843050" lon="-16.3170580">
        <ele>523.9</ele>
        <time>2020-11-11T09:42:30Z</time>
      </trkpt>
      <trkpt lat="28.4842450" lon="-16.3170850">
        <ele>523.9</ele>
        <time>2020-11-11T09:42:31Z</time>
      </trkpt>
      <trkpt lat="28.4842450" lon="-16.3170850">
        <ele>523.9</ele>
        <time>2020-11-11T09:42:32Z</time>
      </trkpt>
      <trkpt lat="28.4841270" lon="-16.3171320">
        <ele>523.9</ele>
        <time>2020-11-11T09:42:33Z</time>
      </trkpt>
      <trkpt lat="28.4841270" lon="-16.3171320">
        <ele>523.9</ele>
        <time>2020-11-11T09:42:34Z</time>
      </trkpt>
      <trkpt lat="28.4840050" lon="-16.3171730">
        <ele>523.9</ele>
        <time>2020-11-11T09:42:35Z</time>
      </trkpt>
      <trkpt lat="28.4839450" lon="-16.3171970">
        <ele>523.9</ele>
        <time>2020-11-11T09:42:36Z</time>
      </trkpt>
      <trkpt lat="28.4839450" lon="-16.3171970">
        <ele>523.9</ele>
        <time>2020-11-11T09:42:37Z</time>
      </trkpt>
      <trkpt lat="28.4838320" lon="-16.3172420">
        <ele>523.9</ele>
        <time>2020-11-11T09:42:38Z</time>
      </trkpt>
      <trkpt lat="28.4837800" lon="-16.3172680">
        <ele>523.9</ele>
        <time>2020-11-11T09:42:39Z</time>
      </trkpt>
      <trkpt lat="28.4837800" lon="-16.3172680">
        <ele>523.9</ele>
        <time>2020-11-11T09:42:40Z</time>
      </trkpt>
      <trkpt lat="28.4836370" lon="-16.3172650">
        <ele>523.9</ele>
        <time>2020-11-11T09:42:41Z</time>
      </trkpt>
      <trkpt lat="28.4835750" lon="-16.3172830">
        <ele>523.9</ele>
        <time>2020-11-11T09:42:42Z</time>
      </trkpt>
      <trkpt lat="28.4835750" lon="-16.3172830">
        <ele>523.9</ele>
        <time>2020-11-11T09:42:43Z</time>
      </trkpt>
      <trkpt lat="28.4834630" lon="-16.3173600">
        <ele>523.9</ele>
        <time>2020-11-11T09:42:44Z</time>
      </trkpt>
      <trkpt lat="28.4834630" lon="-16.3173600">
        <ele>523.9</ele>
        <time>2020-11-11T09:42:45Z</time>
      </trkpt>
      <trkpt lat="28.4833630" lon="-16.3174350">
        <ele>523.9</ele>
        <time>2020-11-11T09:42:46Z</time>
      </trkpt>
      <trkpt lat="28.4833630" lon="-16.3174350">
        <ele>523.9</ele>
        <time>2020-11-11T09:42:47Z</time>
      </trkpt>
      <trkpt lat="28.4832580" lon="-16.3174930">
        <ele>523.9</ele>
        <time>2020-11-11T09:42:48Z</time>
      </trkpt>
      <trkpt lat="28.4832050" lon="-16.3175200">
        <ele>523.9</ele>
        <time>2020-11-11T09:42:49Z</time>
      </trkpt>
      <trkpt lat="28.4832050" lon="-16.3175200">
        <ele>523.9</ele>
        <time>2020-11-11T09:42:50Z</time>
      </trkpt>
      <trkpt lat="28.4830970" lon="-16.3175720">
        <ele>523.9</ele>
        <time>2020-11-11T09:42:51Z</time>
      </trkpt>
      <trkpt lat="28.4830970" lon="-16.3175720">
        <ele>523.9</ele>
        <time>2020-11-11T09:42:52Z</time>
      </trkpt>
      <trkpt lat="28.4829850" lon="-16.3176230">
        <ele>523.9</ele>
        <time>2020-11-11T09:42:53Z</time>
      </trkpt>
      <trkpt lat="28.4829280" lon="-16.3176450">
        <ele>523.9</ele>
        <time>2020-11-11T09:42:54Z</time>
      </trkpt>
      <trkpt lat="28.4828700" lon="-16.3176650">
        <ele>523.9</ele>
        <time>2020-11-11T09:42:55Z</time>
      </trkpt>
      <trkpt lat="28.4828700" lon="-16.3176650">
        <ele>523.9</ele>
        <time>2020-11-11T09:42:56Z</time>
      </trkpt>
      <trkpt lat="28.4827570" lon="-16.3177030">
        <ele>523.9</ele>
        <time>2020-11-11T09:42:57Z</time>
      </trkpt>
      <trkpt lat="28.4827570" lon="-16.3177030">
        <ele>523.9</ele>
        <time>2020-11-11T09:42:58Z</time>
      </trkpt>
      <trkpt lat="28.4826320" lon="-16.3177300">
        <ele>523.9</ele>
        <time>2020-11-11T09:42:59Z</time>
      </trkpt>
      <trkpt lat="28.4825680" lon="-16.3177500">
        <ele>523.9</ele>
        <time>2020-11-11T09:43:00Z</time>
      </trkpt>
      <trkpt lat="28.4825680" lon="-16.3177500">
        <ele>523.9</ele>
        <time>2020-11-11T09:43:01Z</time>
      </trkpt>
      <trkpt lat="28.4824550" lon="-16.3177970">
        <ele>524.9</ele>
        <time>2020-11-11T09:43:02Z</time>
      </trkpt>
      <trkpt lat="28.4824550" lon="-16.3177970">
        <ele>524.9</ele>
        <time>2020-11-11T09:43:03Z</time>
      </trkpt>
      <trkpt lat="28.4823420" lon="-16.3178480">
        <ele>524.9</ele>
        <time>2020-11-11T09:43:04Z</time>
      </trkpt>
      <trkpt lat="28.4823420" lon="-16.3178480">
        <ele>524.9</ele>
        <time>2020-11-11T09:43:05Z</time>
      </trkpt>
      <trkpt lat="28.4822270" lon="-16.3178900">
        <ele>524.9</ele>
        <time>2020-11-11T09:43:06Z</time>
      </trkpt>
      <trkpt lat="28.4821720" lon="-16.3179100">
        <ele>524.9</ele>
        <time>2020-11-11T09:43:07Z</time>
      </trkpt>
      <trkpt lat="28.4821720" lon="-16.3179100">
        <ele>524.9</ele>
        <time>2020-11-11T09:43:08Z</time>
      </trkpt>
      <trkpt lat="28.4820550" lon="-16.3179520">
        <ele>524.9</ele>
        <time>2020-11-11T09:43:09Z</time>
      </trkpt>
      <trkpt lat="28.4820550" lon="-16.3179520">
        <ele>524.9</ele>
        <time>2020-11-11T09:43:10Z</time>
      </trkpt>
      <trkpt lat="28.4819420" lon="-16.3180130">
        <ele>524.9</ele>
        <time>2020-11-11T09:43:11Z</time>
      </trkpt>
      <trkpt lat="28.4818880" lon="-16.3180470">
        <ele>524.9</ele>
        <time>2020-11-11T09:43:12Z</time>
      </trkpt>
      <trkpt lat="28.4818880" lon="-16.3180470">
        <ele>524.9</ele>
        <time>2020-11-11T09:43:13Z</time>
      </trkpt>
      <trkpt lat="28.4817750" lon="-16.3181000">
        <ele>524.9</ele>
        <time>2020-11-11T09:43:14Z</time>
      </trkpt>
      <trkpt lat="28.4817250" lon="-16.3181220">
        <ele>524.9</ele>
        <time>2020-11-11T09:43:15Z</time>
      </trkpt>
      <trkpt lat="28.4816720" lon="-16.3181500">
        <ele>524.9</ele>
        <time>2020-11-11T09:43:16Z</time>
      </trkpt>
      <trkpt lat="28.4816720" lon="-16.3181500">
        <ele>524.9</ele>
        <time>2020-11-11T09:43:17Z</time>
      </trkpt>
      <trkpt lat="28.4815180" lon="-16.3181570">
        <ele>525.9</ele>
        <time>2020-11-11T09:43:18Z</time>
      </trkpt>
      <trkpt lat="28.4815180" lon="-16.3181570">
        <ele>525.9</ele>
        <time>2020-11-11T09:43:19Z</time>
      </trkpt>
      <trkpt lat="28.4814370" lon="-16.3182020">
        <ele>525.9</ele>
        <time>2020-11-11T09:43:20Z</time>
      </trkpt>
      <trkpt lat="28.4814370" lon="-16.3182020">
        <ele>526.9</ele>
        <time>2020-11-11T09:43:21Z</time>
      </trkpt>
      <trkpt lat="28.4813770" lon="-16.3182600">
        <ele>526.9</ele>
        <time>2020-11-11T09:43:22Z</time>
      </trkpt>
      <trkpt lat="28.4813530" lon="-16.3182970">
        <ele>526.9</ele>
        <time>2020-11-11T09:43:23Z</time>
      </trkpt>
      <trkpt lat="28.4813530" lon="-16.3182970">
        <ele>526.9</ele>
        <time>2020-11-11T09:43:24Z</time>
      </trkpt>
      <trkpt lat="28.4813300" lon="-16.3183520">
        <ele>527.9</ele>
        <time>2020-11-11T09:43:25Z</time>
      </trkpt>
      <trkpt lat="28.4813300" lon="-16.3183520">
        <ele>527.9</ele>
        <time>2020-11-11T09:43:26Z</time>
      </trkpt>
      <trkpt lat="28.4813230" lon="-16.3183930">
        <ele>527.9</ele>
        <time>2020-11-11T09:43:27Z</time>
      </trkpt>
      <trkpt lat="28.4813230" lon="-16.3183930">
        <ele>527.9</ele>
        <time>2020-11-11T09:43:28Z</time>
      </trkpt>
      <trkpt lat="28.4813130" lon="-16.3184430">
        <ele>528.9</ele>
        <time>2020-11-11T09:43:29Z</time>
      </trkpt>
      <trkpt lat="28.4813070" lon="-16.3184780">
        <ele>528.9</ele>
        <time>2020-11-11T09:43:30Z</time>
      </trkpt>
      <trkpt lat="28.4813070" lon="-16.3184780">
        <ele>528.9</ele>
        <time>2020-11-11T09:43:31Z</time>
      </trkpt>
      <trkpt lat="28.4813020" lon="-16.3185620">
        <ele>528.9</ele>
        <time>2020-11-11T09:43:32Z</time>
      </trkpt>
      <trkpt lat="28.4812980" lon="-16.3186050">
        <ele>529.9</ele>
        <time>2020-11-11T09:43:33Z</time>
      </trkpt>
      <trkpt lat="28.4812980" lon="-16.3186050">
        <ele>529.9</ele>
        <time>2020-11-11T09:43:34Z</time>
      </trkpt>
      <trkpt lat="28.4812800" lon="-16.3186950">
        <ele>529.9</ele>
        <time>2020-11-11T09:43:35Z</time>
      </trkpt>
      <trkpt lat="28.4812800" lon="-16.3186950">
        <ele>529.9</ele>
        <time>2020-11-11T09:43:36Z</time>
      </trkpt>
      <trkpt lat="28.4812400" lon="-16.3187800">
        <ele>529.9</ele>
        <time>2020-11-11T09:43:37Z</time>
      </trkpt>
      <trkpt lat="28.4812400" lon="-16.3187800">
        <ele>529.9</ele>
        <time>2020-11-11T09:43:38Z</time>
      </trkpt>
      <trkpt lat="28.4811730" lon="-16.3188350">
        <ele>529.9</ele>
        <time>2020-11-11T09:43:39Z</time>
      </trkpt>
      <trkpt lat="28.4811730" lon="-16.3188350">
        <ele>529.9</ele>
        <time>2020-11-11T09:43:40Z</time>
      </trkpt>
      <trkpt lat="28.4810870" lon="-16.3188680">
        <ele>529.9</ele>
        <time>2020-11-11T09:43:41Z</time>
      </trkpt>
      <trkpt lat="28.4810870" lon="-16.3188680">
        <ele>529.9</ele>
        <time>2020-11-11T09:43:42Z</time>
      </trkpt>
      <trkpt lat="28.4809930" lon="-16.3188830">
        <ele>529.9</ele>
        <time>2020-11-11T09:43:43Z</time>
      </trkpt>
      <trkpt lat="28.4809430" lon="-16.3188820">
        <ele>529.9</ele>
        <time>2020-11-11T09:43:44Z</time>
      </trkpt>
      <trkpt lat="28.4809430" lon="-16.3188820">
        <ele>529.9</ele>
        <time>2020-11-11T09:43:45Z</time>
      </trkpt>
      <trkpt lat="28.4808420" lon="-16.3188550">
        <ele>529.9</ele>
        <time>2020-11-11T09:43:46Z</time>
      </trkpt>
      <trkpt lat="28.4808420" lon="-16.3188550">
        <ele>529.9</ele>
        <time>2020-11-11T09:43:47Z</time>
      </trkpt>
      <trkpt lat="28.4807370" lon="-16.3188130">
        <ele>529.9</ele>
        <time>2020-11-11T09:43:48Z</time>
      </trkpt>
      <trkpt lat="28.4807370" lon="-16.3188130">
        <ele>529.9</ele>
        <time>2020-11-11T09:43:49Z</time>
      </trkpt>
      <trkpt lat="28.4806180" lon="-16.3187980">
        <ele>529.9</ele>
        <time>2020-11-11T09:43:50Z</time>
      </trkpt>
      <trkpt lat="28.4806180" lon="-16.3187980">
        <ele>529.9</ele>
        <time>2020-11-11T09:43:51Z</time>
      </trkpt>
      <trkpt lat="28.4804930" lon="-16.3188330">
        <ele>529.9</ele>
        <time>2020-11-11T09:43:52Z</time>
      </trkpt>
      <trkpt lat="28.4804930" lon="-16.3188330">
        <ele>529.9</ele>
        <time>2020-11-11T09:43:53Z</time>
      </trkpt>
      <trkpt lat="28.4803750" lon="-16.3189100">
        <ele>529.9</ele>
        <time>2020-11-11T09:43:54Z</time>
      </trkpt>
      <trkpt lat="28.4803180" lon="-16.3189530">
        <ele>528.9</ele>
        <time>2020-11-11T09:43:55Z</time>
      </trkpt>
      <trkpt lat="28.4803180" lon="-16.3189530">
        <ele>528.9</ele>
        <time>2020-11-11T09:43:56Z</time>
      </trkpt>
      <trkpt lat="28.4802080" lon="-16.3190380">
        <ele>528.9</ele>
        <time>2020-11-11T09:43:57Z</time>
      </trkpt>
      <trkpt lat="28.4802080" lon="-16.3190380">
        <ele>528.9</ele>
        <time>2020-11-11T09:43:58Z</time>
      </trkpt>
      <trkpt lat="28.4800980" lon="-16.3191180">
        <ele>527.9</ele>
        <time>2020-11-11T09:43:59Z</time>
      </trkpt>
      <trkpt lat="28.4800430" lon="-16.3191550">
        <ele>527.9</ele>
        <time>2020-11-11T09:44:00Z</time>
      </trkpt>
      <trkpt lat="28.4800430" lon="-16.3191550">
        <ele>527.9</ele>
        <time>2020-11-11T09:44:01Z</time>
      </trkpt>
      <trkpt lat="28.4799370" lon="-16.3192300">
        <ele>527.9</ele>
        <time>2020-11-11T09:44:02Z</time>
      </trkpt>
      <trkpt lat="28.4799370" lon="-16.3192300">
        <ele>527.9</ele>
        <time>2020-11-11T09:44:03Z</time>
      </trkpt>
      <trkpt lat="28.4798320" lon="-16.3193100">
        <ele>527.9</ele>
        <time>2020-11-11T09:44:04Z</time>
      </trkpt>
      <trkpt lat="28.4798320" lon="-16.3193100">
        <ele>527.9</ele>
        <time>2020-11-11T09:44:05Z</time>
      </trkpt>
      <trkpt lat="28.4797280" lon="-16.3193830">
        <ele>527.9</ele>
        <time>2020-11-11T09:44:06Z</time>
      </trkpt>
      <trkpt lat="28.4797280" lon="-16.3193830">
        <ele>527.9</ele>
        <time>2020-11-11T09:44:07Z</time>
      </trkpt>
      <trkpt lat="28.4796300" lon="-16.3194550">
        <ele>528.9</ele>
        <time>2020-11-11T09:44:08Z</time>
      </trkpt>
      <trkpt lat="28.4795820" lon="-16.3194900">
        <ele>528.9</ele>
        <time>2020-11-11T09:44:09Z</time>
      </trkpt>
      <trkpt lat="28.4795370" lon="-16.3195230">
        <ele>528.9</ele>
        <time>2020-11-11T09:44:10Z</time>
      </trkpt>
      <trkpt lat="28.4795370" lon="-16.3195230">
        <ele>528.9</ele>
        <time>2020-11-11T09:44:11Z</time>
      </trkpt>
      <trkpt lat="28.4794450" lon="-16.3195870">
        <ele>528.9</ele>
        <time>2020-11-11T09:44:12Z</time>
      </trkpt>
      <trkpt lat="28.4794450" lon="-16.3195870">
        <ele>528.9</ele>
        <time>2020-11-11T09:44:13Z</time>
      </trkpt>
      <trkpt lat="28.4793680" lon="-16.3196470">
        <ele>529.9</ele>
        <time>2020-11-11T09:44:14Z</time>
      </trkpt>
      <trkpt lat="28.4793680" lon="-16.3196470">
        <ele>529.9</ele>
        <time>2020-11-11T09:44:15Z</time>
      </trkpt>
      <trkpt lat="28.4792950" lon="-16.3197020">
        <ele>529.9</ele>
        <time>2020-11-11T09:44:16Z</time>
      </trkpt>
      <trkpt lat="28.4792950" lon="-16.3197020">
        <ele>529.9</ele>
        <time>2020-11-11T09:44:17Z</time>
      </trkpt>
      <trkpt lat="28.4792300" lon="-16.3197520">
        <ele>530.9</ele>
        <time>2020-11-11T09:44:18Z</time>
      </trkpt>
      <trkpt lat="28.4792020" lon="-16.3197730">
        <ele>530.9</ele>
        <time>2020-11-11T09:44:19Z</time>
      </trkpt>
      <trkpt lat="28.4792020" lon="-16.3197730">
        <ele>530.9</ele>
        <time>2020-11-11T09:44:20Z</time>
      </trkpt>
      <trkpt lat="28.4791450" lon="-16.3198180">
        <ele>530.9</ele>
        <time>2020-11-11T09:44:21Z</time>
      </trkpt>
      <trkpt lat="28.4791450" lon="-16.3198180">
        <ele>530.9</ele>
        <time>2020-11-11T09:44:22Z</time>
      </trkpt>
      <trkpt lat="28.4790880" lon="-16.3198580">
        <ele>530.9</ele>
        <time>2020-11-11T09:44:23Z</time>
      </trkpt>
      <trkpt lat="28.4790880" lon="-16.3198580">
        <ele>530.9</ele>
        <time>2020-11-11T09:44:24Z</time>
      </trkpt>
      <trkpt lat="28.4790350" lon="-16.3199020">
        <ele>530.9</ele>
        <time>2020-11-11T09:44:25Z</time>
      </trkpt>
      <trkpt lat="28.4790350" lon="-16.3199020">
        <ele>532.9</ele>
        <time>2020-11-11T09:44:26Z</time>
      </trkpt>
      <trkpt lat="28.4789770" lon="-16.3199400">
        <ele>532.9</ele>
        <time>2020-11-11T09:44:27Z</time>
      </trkpt>
      <trkpt lat="28.4789770" lon="-16.3199400">
        <ele>532.9</ele>
        <time>2020-11-11T09:44:28Z</time>
      </trkpt>
      <trkpt lat="28.4789080" lon="-16.3199780">
        <ele>532.9</ele>
        <time>2020-11-11T09:44:29Z</time>
      </trkpt>
      <trkpt lat="28.4788780" lon="-16.3199950">
        <ele>532.9</ele>
        <time>2020-11-11T09:44:30Z</time>
      </trkpt>
      <trkpt lat="28.4788780" lon="-16.3199950">
        <ele>532.9</ele>
        <time>2020-11-11T09:44:31Z</time>
      </trkpt>
      <trkpt lat="28.4788230" lon="-16.3200350">
        <ele>532.9</ele>
        <time>2020-11-11T09:44:32Z</time>
      </trkpt>
      <trkpt lat="28.4788230" lon="-16.3200350">
        <ele>532.9</ele>
        <time>2020-11-11T09:44:33Z</time>
      </trkpt>
      <trkpt lat="28.4787720" lon="-16.3200720">
        <ele>533.9</ele>
        <time>2020-11-11T09:44:34Z</time>
      </trkpt>
      <trkpt lat="28.4787720" lon="-16.3200720">
        <ele>533.9</ele>
        <time>2020-11-11T09:44:35Z</time>
      </trkpt>
      <trkpt lat="28.4787200" lon="-16.3201080">
        <ele>533.9</ele>
        <time>2020-11-11T09:44:36Z</time>
      </trkpt>
      <trkpt lat="28.4787200" lon="-16.3201080">
        <ele>534.9</ele>
        <time>2020-11-11T09:44:37Z</time>
      </trkpt>
      <trkpt lat="28.4786670" lon="-16.3201430">
        <ele>534.9</ele>
        <time>2020-11-11T09:44:38Z</time>
      </trkpt>
      <trkpt lat="28.4786670" lon="-16.3201430">
        <ele>534.9</ele>
        <time>2020-11-11T09:44:39Z</time>
      </trkpt>
      <trkpt lat="28.4786170" lon="-16.3201800">
        <ele>534.9</ele>
        <time>2020-11-11T09:44:40Z</time>
      </trkpt>
      <trkpt lat="28.4786170" lon="-16.3201800">
        <ele>535.9</ele>
        <time>2020-11-11T09:44:41Z</time>
      </trkpt>
      <trkpt lat="28.4785670" lon="-16.3202150">
        <ele>535.9</ele>
        <time>2020-11-11T09:44:42Z</time>
      </trkpt>
      <trkpt lat="28.4785400" lon="-16.3202330">
        <ele>535.9</ele>
        <time>2020-11-11T09:44:43Z</time>
      </trkpt>
      <trkpt lat="28.4785400" lon="-16.3202330">
        <ele>535.9</ele>
        <time>2020-11-11T09:44:44Z</time>
      </trkpt>
      <trkpt lat="28.4784920" lon="-16.3202670">
        <ele>536.9</ele>
        <time>2020-11-11T09:44:45Z</time>
      </trkpt>
      <trkpt lat="28.4784920" lon="-16.3202670">
        <ele>536.9</ele>
        <time>2020-11-11T09:44:46Z</time>
      </trkpt>
      <trkpt lat="28.4784450" lon="-16.3203050">
        <ele>536.9</ele>
        <time>2020-11-11T09:44:47Z</time>
      </trkpt>
      <trkpt lat="28.4784450" lon="-16.3203050">
        <ele>536.9</ele>
        <time>2020-11-11T09:44:48Z</time>
      </trkpt>
      <trkpt lat="28.4783970" lon="-16.3203420">
        <ele>537.9</ele>
        <time>2020-11-11T09:44:49Z</time>
      </trkpt>
      <trkpt lat="28.4783970" lon="-16.3203420">
        <ele>537.9</ele>
        <time>2020-11-11T09:44:50Z</time>
      </trkpt>
      <trkpt lat="28.4783500" lon="-16.3203750">
        <ele>537.9</ele>
        <time>2020-11-11T09:44:51Z</time>
      </trkpt>
      <trkpt lat="28.4783500" lon="-16.3203750">
        <ele>537.9</ele>
        <time>2020-11-11T09:44:52Z</time>
      </trkpt>
      <trkpt lat="28.4783030" lon="-16.3204070">
        <ele>537.9</ele>
        <time>2020-11-11T09:44:53Z</time>
      </trkpt>
      <trkpt lat="28.4783030" lon="-16.3204070">
        <ele>537.9</ele>
        <time>2020-11-11T09:44:54Z</time>
      </trkpt>
      <trkpt lat="28.4782550" lon="-16.3204380">
        <ele>538.9</ele>
        <time>2020-11-11T09:44:55Z</time>
      </trkpt>
      <trkpt lat="28.4782550" lon="-16.3204380">
        <ele>538.9</ele>
        <time>2020-11-11T09:44:56Z</time>
      </trkpt>
      <trkpt lat="28.4782100" lon="-16.3204770">
        <ele>538.9</ele>
        <time>2020-11-11T09:44:57Z</time>
      </trkpt>
      <trkpt lat="28.4781880" lon="-16.3204930">
        <ele>538.9</ele>
        <time>2020-11-11T09:44:58Z</time>
      </trkpt>
      <trkpt lat="28.4781880" lon="-16.3204930">
        <ele>538.9</ele>
        <time>2020-11-11T09:44:59Z</time>
      </trkpt>
      <trkpt lat="28.4781470" lon="-16.3205230">
        <ele>538.9</ele>
        <time>2020-11-11T09:45:00Z</time>
      </trkpt>
      <trkpt lat="28.4781230" lon="-16.3205400">
        <ele>539.9</ele>
        <time>2020-11-11T09:45:01Z</time>
      </trkpt>
      <trkpt lat="28.4781230" lon="-16.3205400">
        <ele>539.9</ele>
        <time>2020-11-11T09:45:02Z</time>
      </trkpt>
      <trkpt lat="28.4780800" lon="-16.3205670">
        <ele>539.9</ele>
        <time>2020-11-11T09:45:03Z</time>
      </trkpt>
      <trkpt lat="28.4780800" lon="-16.3205670">
        <ele>539.9</ele>
        <time>2020-11-11T09:45:04Z</time>
      </trkpt>
      <trkpt lat="28.4780400" lon="-16.3205950">
        <ele>539.9</ele>
        <time>2020-11-11T09:45:05Z</time>
      </trkpt>
      <trkpt lat="28.4780400" lon="-16.3205950">
        <ele>539.9</ele>
        <time>2020-11-11T09:45:06Z</time>
      </trkpt>
      <trkpt lat="28.4779950" lon="-16.3206200">
        <ele>540.9</ele>
        <time>2020-11-11T09:45:07Z</time>
      </trkpt>
      <trkpt lat="28.4779950" lon="-16.3206200">
        <ele>540.9</ele>
        <time>2020-11-11T09:45:08Z</time>
      </trkpt>
      <trkpt lat="28.4779530" lon="-16.3206520">
        <ele>540.9</ele>
        <time>2020-11-11T09:45:09Z</time>
      </trkpt>
      <trkpt lat="28.4779530" lon="-16.3206520">
        <ele>540.9</ele>
        <time>2020-11-11T09:45:10Z</time>
      </trkpt>
      <trkpt lat="28.4779120" lon="-16.3206830">
        <ele>541.9</ele>
        <time>2020-11-11T09:45:11Z</time>
      </trkpt>
      <trkpt lat="28.4779120" lon="-16.3206830">
        <ele>541.9</ele>
        <time>2020-11-11T09:45:12Z</time>
      </trkpt>
      <trkpt lat="28.4778730" lon="-16.3207150">
        <ele>541.9</ele>
        <time>2020-11-11T09:45:13Z</time>
      </trkpt>
      <trkpt lat="28.4778730" lon="-16.3207150">
        <ele>541.9</ele>
        <time>2020-11-11T09:45:14Z</time>
      </trkpt>
      <trkpt lat="28.4778320" lon="-16.3207420">
        <ele>542.9</ele>
        <time>2020-11-11T09:45:15Z</time>
      </trkpt>
      <trkpt lat="28.4778120" lon="-16.3207550">
        <ele>542.9</ele>
        <time>2020-11-11T09:45:16Z</time>
      </trkpt>
      <trkpt lat="28.4778120" lon="-16.3207550">
        <ele>542.9</ele>
        <time>2020-11-11T09:45:17Z</time>
      </trkpt>
      <trkpt lat="28.4777770" lon="-16.3207820">
        <ele>543.9</ele>
        <time>2020-11-11T09:45:18Z</time>
      </trkpt>
      <trkpt lat="28.4777570" lon="-16.3207950">
        <ele>543.9</ele>
        <time>2020-11-11T09:45:19Z</time>
      </trkpt>
      <trkpt lat="28.4777570" lon="-16.3207950">
        <ele>543.9</ele>
        <time>2020-11-11T09:45:20Z</time>
      </trkpt>
      <trkpt lat="28.4777150" lon="-16.3208280">
        <ele>543.9</ele>
        <time>2020-11-11T09:45:21Z</time>
      </trkpt>
      <trkpt lat="28.4777150" lon="-16.3208280">
        <ele>543.9</ele>
        <time>2020-11-11T09:45:22Z</time>
      </trkpt>
      <trkpt lat="28.4776720" lon="-16.3208620">
        <ele>543.9</ele>
        <time>2020-11-11T09:45:23Z</time>
      </trkpt>
      <trkpt lat="28.4776720" lon="-16.3208620">
        <ele>543.9</ele>
        <time>2020-11-11T09:45:24Z</time>
      </trkpt>
      <trkpt lat="28.4776280" lon="-16.3208950">
        <ele>543.9</ele>
        <time>2020-11-11T09:45:25Z</time>
      </trkpt>
      <trkpt lat="28.4776280" lon="-16.3208950">
        <ele>543.9</ele>
        <time>2020-11-11T09:45:26Z</time>
      </trkpt>
      <trkpt lat="28.4775850" lon="-16.3209300">
        <ele>543.9</ele>
        <time>2020-11-11T09:45:27Z</time>
      </trkpt>
      <trkpt lat="28.4775850" lon="-16.3209300">
        <ele>544.9</ele>
        <time>2020-11-11T09:45:28Z</time>
      </trkpt>
      <trkpt lat="28.4775380" lon="-16.3209580">
        <ele>544.9</ele>
        <time>2020-11-11T09:45:29Z</time>
      </trkpt>
      <trkpt lat="28.4775170" lon="-16.3209730">
        <ele>544.9</ele>
        <time>2020-11-11T09:45:30Z</time>
      </trkpt>
      <trkpt lat="28.4774970" lon="-16.3209870">
        <ele>544.9</ele>
        <time>2020-11-11T09:45:31Z</time>
      </trkpt>
      <trkpt lat="28.4774970" lon="-16.3209870">
        <ele>544.9</ele>
        <time>2020-11-11T09:45:32Z</time>
      </trkpt>
      <trkpt lat="28.4774580" lon="-16.3210130">
        <ele>544.9</ele>
        <time>2020-11-11T09:45:33Z</time>
      </trkpt>
      <trkpt lat="28.4774580" lon="-16.3210130">
        <ele>545.9</ele>
        <time>2020-11-11T09:45:34Z</time>
      </trkpt>
      <trkpt lat="28.4774170" lon="-16.3210480">
        <ele>545.9</ele>
        <time>2020-11-11T09:45:35Z</time>
      </trkpt>
      <trkpt lat="28.4774170" lon="-16.3210480">
        <ele>545.9</ele>
        <time>2020-11-11T09:45:36Z</time>
      </trkpt>
      <trkpt lat="28.4773670" lon="-16.3210770">
        <ele>545.9</ele>
        <time>2020-11-11T09:45:37Z</time>
      </trkpt>
      <trkpt lat="28.4773670" lon="-16.3210770">
        <ele>545.9</ele>
        <time>2020-11-11T09:45:38Z</time>
      </trkpt>
      <trkpt lat="28.4773220" lon="-16.3211120">
        <ele>545.9</ele>
        <time>2020-11-11T09:45:39Z</time>
      </trkpt>
      <trkpt lat="28.4773220" lon="-16.3211120">
        <ele>545.9</ele>
        <time>2020-11-11T09:45:40Z</time>
      </trkpt>
      <trkpt lat="28.4772780" lon="-16.3211380">
        <ele>545.9</ele>
        <time>2020-11-11T09:45:41Z</time>
      </trkpt>
      <trkpt lat="28.4772580" lon="-16.3211520">
        <ele>546.9</ele>
        <time>2020-11-11T09:45:42Z</time>
      </trkpt>
      <trkpt lat="28.4772400" lon="-16.3211670">
        <ele>546.9</ele>
        <time>2020-11-11T09:45:43Z</time>
      </trkpt>
      <trkpt lat="28.4772400" lon="-16.3211670">
        <ele>546.9</ele>
        <time>2020-11-11T09:45:44Z</time>
      </trkpt>
      <trkpt lat="28.4772020" lon="-16.3211950">
        <ele>546.9</ele>
        <time>2020-11-11T09:45:45Z</time>
      </trkpt>
      <trkpt lat="28.4772020" lon="-16.3211950">
        <ele>547.9</ele>
        <time>2020-11-11T09:45:46Z</time>
      </trkpt>
      <trkpt lat="28.4771570" lon="-16.3212270">
        <ele>547.9</ele>
        <time>2020-11-11T09:45:47Z</time>
      </trkpt>
      <trkpt lat="28.4771570" lon="-16.3212270">
        <ele>547.9</ele>
        <time>2020-11-11T09:45:48Z</time>
      </trkpt>
      <trkpt lat="28.4771100" lon="-16.3212620">
        <ele>547.9</ele>
        <time>2020-11-11T09:45:49Z</time>
      </trkpt>
      <trkpt lat="28.4770870" lon="-16.3212770">
        <ele>547.9</ele>
        <time>2020-11-11T09:45:50Z</time>
      </trkpt>
      <trkpt lat="28.4770870" lon="-16.3212770">
        <ele>547.9</ele>
        <time>2020-11-11T09:45:51Z</time>
      </trkpt>
      <trkpt lat="28.4770430" lon="-16.3213130">
        <ele>548.9</ele>
        <time>2020-11-11T09:45:52Z</time>
      </trkpt>
      <trkpt lat="28.4770220" lon="-16.3213280">
        <ele>548.9</ele>
        <time>2020-11-11T09:45:53Z</time>
      </trkpt>
      <trkpt lat="28.4770220" lon="-16.3213280">
        <ele>548.9</ele>
        <time>2020-11-11T09:45:54Z</time>
      </trkpt>
      <trkpt lat="28.4769750" lon="-16.3213550">
        <ele>548.9</ele>
        <time>2020-11-11T09:45:55Z</time>
      </trkpt>
      <trkpt lat="28.4769750" lon="-16.3213550">
        <ele>548.9</ele>
        <time>2020-11-11T09:45:56Z</time>
      </trkpt>
      <trkpt lat="28.4769320" lon="-16.3213880">
        <ele>548.9</ele>
        <time>2020-11-11T09:45:57Z</time>
      </trkpt>
      <trkpt lat="28.4769070" lon="-16.3214070">
        <ele>548.9</ele>
        <time>2020-11-11T09:45:58Z</time>
      </trkpt>
      <trkpt lat="28.4768850" lon="-16.3214230">
        <ele>549.9</ele>
        <time>2020-11-11T09:45:59Z</time>
      </trkpt>
      <trkpt lat="28.4768850" lon="-16.3214230">
        <ele>549.9</ele>
        <time>2020-11-11T09:46:00Z</time>
      </trkpt>
      <trkpt lat="28.4768400" lon="-16.3214520">
        <ele>549.9</ele>
        <time>2020-11-11T09:46:01Z</time>
      </trkpt>
      <trkpt lat="28.4768400" lon="-16.3214520">
        <ele>549.9</ele>
        <time>2020-11-11T09:46:02Z</time>
      </trkpt>
      <trkpt lat="28.4767970" lon="-16.3214820">
        <ele>549.9</ele>
        <time>2020-11-11T09:46:03Z</time>
      </trkpt>
      <trkpt lat="28.4767770" lon="-16.3214980">
        <ele>549.9</ele>
        <time>2020-11-11T09:46:04Z</time>
      </trkpt>
      <trkpt lat="28.4767770" lon="-16.3214980">
        <ele>549.9</ele>
        <time>2020-11-11T09:46:05Z</time>
      </trkpt>
      <trkpt lat="28.4767350" lon="-16.3215270">
        <ele>549.9</ele>
        <time>2020-11-11T09:46:06Z</time>
      </trkpt>
      <trkpt lat="28.4767350" lon="-16.3215270">
        <ele>549.9</ele>
        <time>2020-11-11T09:46:07Z</time>
      </trkpt>
      <trkpt lat="28.4766920" lon="-16.3215550">
        <ele>549.9</ele>
        <time>2020-11-11T09:46:08Z</time>
      </trkpt>
      <trkpt lat="28.4766720" lon="-16.3215720">
        <ele>549.9</ele>
        <time>2020-11-11T09:46:09Z</time>
      </trkpt>
      <trkpt lat="28.4766720" lon="-16.3215720">
        <ele>549.9</ele>
        <time>2020-11-11T09:46:10Z</time>
      </trkpt>
      <trkpt lat="28.4766300" lon="-16.3216000">
        <ele>549.9</ele>
        <time>2020-11-11T09:46:11Z</time>
      </trkpt>
      <trkpt lat="28.4766300" lon="-16.3216000">
        <ele>550.9</ele>
        <time>2020-11-11T09:46:12Z</time>
      </trkpt>
      <trkpt lat="28.4765850" lon="-16.3216280">
        <ele>550.9</ele>
        <time>2020-11-11T09:46:13Z</time>
      </trkpt>
      <trkpt lat="28.4765850" lon="-16.3216280">
        <ele>550.9</ele>
        <time>2020-11-11T09:46:14Z</time>
      </trkpt>
      <trkpt lat="28.4765420" lon="-16.3216620">
        <ele>550.9</ele>
        <time>2020-11-11T09:46:15Z</time>
      </trkpt>
      <trkpt lat="28.4765420" lon="-16.3216620">
        <ele>551.9</ele>
        <time>2020-11-11T09:46:16Z</time>
      </trkpt>
      <trkpt lat="28.4764980" lon="-16.3216950">
        <ele>551.9</ele>
        <time>2020-11-11T09:46:17Z</time>
      </trkpt>
      <trkpt lat="28.4764750" lon="-16.3217120">
        <ele>551.9</ele>
        <time>2020-11-11T09:46:18Z</time>
      </trkpt>
      <trkpt lat="28.4764530" lon="-16.3217280">
        <ele>551.9</ele>
        <time>2020-11-11T09:46:19Z</time>
      </trkpt>
      <trkpt lat="28.4764530" lon="-16.3217280">
        <ele>551.9</ele>
        <time>2020-11-11T09:46:20Z</time>
      </trkpt>
      <trkpt lat="28.4764080" lon="-16.3217650">
        <ele>552.9</ele>
        <time>2020-11-11T09:46:21Z</time>
      </trkpt>
      <trkpt lat="28.4763830" lon="-16.3217830">
        <ele>552.9</ele>
        <time>2020-11-11T09:46:22Z</time>
      </trkpt>
      <trkpt lat="28.4763830" lon="-16.3217830">
        <ele>552.9</ele>
        <time>2020-11-11T09:46:23Z</time>
      </trkpt>
      <trkpt lat="28.4763370" lon="-16.3218180">
        <ele>552.9</ele>
        <time>2020-11-11T09:46:24Z</time>
      </trkpt>
      <trkpt lat="28.4763370" lon="-16.3218180">
        <ele>552.9</ele>
        <time>2020-11-11T09:46:25Z</time>
      </trkpt>
      <trkpt lat="28.4762880" lon="-16.3218520">
        <ele>553.9</ele>
        <time>2020-11-11T09:46:26Z</time>
      </trkpt>
      <trkpt lat="28.4762880" lon="-16.3218520">
        <ele>553.9</ele>
        <time>2020-11-11T09:46:27Z</time>
      </trkpt>
      <trkpt lat="28.4762400" lon="-16.3218900">
        <ele>554.9</ele>
        <time>2020-11-11T09:46:28Z</time>
      </trkpt>
      <trkpt lat="28.4762400" lon="-16.3218900">
        <ele>554.9</ele>
        <time>2020-11-11T09:46:29Z</time>
      </trkpt>
      <trkpt lat="28.4762000" lon="-16.3219320">
        <ele>554.9</ele>
        <time>2020-11-11T09:46:30Z</time>
      </trkpt>
      <trkpt lat="28.4761850" lon="-16.3219500">
        <ele>554.9</ele>
        <time>2020-11-11T09:46:31Z</time>
      </trkpt>
      <trkpt lat="28.4761850" lon="-16.3219500">
        <ele>554.9</ele>
        <time>2020-11-11T09:46:32Z</time>
      </trkpt>
      <trkpt lat="28.4761470" lon="-16.3219880">
        <ele>554.9</ele>
        <time>2020-11-11T09:46:33Z</time>
      </trkpt>
      <trkpt lat="28.4761470" lon="-16.3219880">
        <ele>554.9</ele>
        <time>2020-11-11T09:46:34Z</time>
      </trkpt>
      <trkpt lat="28.4761120" lon="-16.3220270">
        <ele>555.9</ele>
        <time>2020-11-11T09:46:35Z</time>
      </trkpt>
      <trkpt lat="28.4761120" lon="-16.3220270">
        <ele>555.9</ele>
        <time>2020-11-11T09:46:36Z</time>
      </trkpt>
      <trkpt lat="28.4760750" lon="-16.3220700">
        <ele>555.9</ele>
        <time>2020-11-11T09:46:37Z</time>
      </trkpt>
      <trkpt lat="28.4760570" lon="-16.3220880">
        <ele>555.9</ele>
        <time>2020-11-11T09:46:38Z</time>
      </trkpt>
      <trkpt lat="28.4760570" lon="-16.3220880">
        <ele>556.9</ele>
        <time>2020-11-11T09:46:39Z</time>
      </trkpt>
      <trkpt lat="28.4760200" lon="-16.3221270">
        <ele>556.9</ele>
        <time>2020-11-11T09:46:40Z</time>
      </trkpt>
      <trkpt lat="28.4760020" lon="-16.3221470">
        <ele>556.9</ele>
        <time>2020-11-11T09:46:41Z</time>
      </trkpt>
      <trkpt lat="28.4760020" lon="-16.3221470">
        <ele>556.9</ele>
        <time>2020-11-11T09:46:42Z</time>
      </trkpt>
      <trkpt lat="28.4759680" lon="-16.3221900">
        <ele>556.9</ele>
        <time>2020-11-11T09:46:43Z</time>
      </trkpt>
      <trkpt lat="28.4759680" lon="-16.3221900">
        <ele>556.9</ele>
        <time>2020-11-11T09:46:44Z</time>
      </trkpt>
      <trkpt lat="28.4759300" lon="-16.3222350">
        <ele>556.9</ele>
        <time>2020-11-11T09:46:45Z</time>
      </trkpt>
      <trkpt lat="28.4759100" lon="-16.3222570">
        <ele>556.9</ele>
        <time>2020-11-11T09:46:46Z</time>
      </trkpt>
      <trkpt lat="28.4759100" lon="-16.3222570">
        <ele>557.9</ele>
        <time>2020-11-11T09:46:47Z</time>
      </trkpt>
      <trkpt lat="28.4758750" lon="-16.3222980">
        <ele>557.9</ele>
        <time>2020-11-11T09:46:48Z</time>
      </trkpt>
      <trkpt lat="28.4758550" lon="-16.3223200">
        <ele>557.9</ele>
        <time>2020-11-11T09:46:49Z</time>
      </trkpt>
      <trkpt lat="28.4758550" lon="-16.3223200">
        <ele>557.9</ele>
        <time>2020-11-11T09:46:50Z</time>
      </trkpt>
      <trkpt lat="28.4758230" lon="-16.3223700">
        <ele>557.9</ele>
        <time>2020-11-11T09:46:51Z</time>
      </trkpt>
      <trkpt lat="28.4758230" lon="-16.3223700">
        <ele>557.9</ele>
        <time>2020-11-11T09:46:52Z</time>
      </trkpt>
      <trkpt lat="28.4757900" lon="-16.3224220">
        <ele>557.9</ele>
        <time>2020-11-11T09:46:53Z</time>
      </trkpt>
      <trkpt lat="28.4757900" lon="-16.3224220">
        <ele>557.9</ele>
        <time>2020-11-11T09:46:54Z</time>
      </trkpt>
      <trkpt lat="28.4757570" lon="-16.3224680">
        <ele>557.9</ele>
        <time>2020-11-11T09:46:55Z</time>
      </trkpt>
      <trkpt lat="28.4757400" lon="-16.3224900">
        <ele>558.9</ele>
        <time>2020-11-11T09:46:56Z</time>
      </trkpt>
      <trkpt lat="28.4757400" lon="-16.3224900">
        <ele>558.9</ele>
        <time>2020-11-11T09:46:57Z</time>
      </trkpt>
      <trkpt lat="28.4757150" lon="-16.3225350">
        <ele>558.9</ele>
        <time>2020-11-11T09:46:58Z</time>
      </trkpt>
      <trkpt lat="28.4757150" lon="-16.3225350">
        <ele>558.9</ele>
        <time>2020-11-11T09:46:59Z</time>
      </trkpt>
      <trkpt lat="28.4757020" lon="-16.3225830">
        <ele>559.9</ele>
        <time>2020-11-11T09:47:00Z</time>
      </trkpt>
      <trkpt lat="28.4756880" lon="-16.3226030">
        <ele>559.9</ele>
        <time>2020-11-11T09:47:01Z</time>
      </trkpt>
      <trkpt lat="28.4756880" lon="-16.3226030">
        <ele>559.9</ele>
        <time>2020-11-11T09:47:02Z</time>
      </trkpt>
      <trkpt lat="28.4756600" lon="-16.3226430">
        <ele>559.9</ele>
        <time>2020-11-11T09:47:03Z</time>
      </trkpt>
      <trkpt lat="28.4756600" lon="-16.3226430">
        <ele>560.9</ele>
        <time>2020-11-11T09:47:04Z</time>
      </trkpt>
      <trkpt lat="28.4756330" lon="-16.3226850">
        <ele>560.9</ele>
        <time>2020-11-11T09:47:05Z</time>
      </trkpt>
      <trkpt lat="28.4756220" lon="-16.3227070">
        <ele>560.9</ele>
        <time>2020-11-11T09:47:06Z</time>
      </trkpt>
      <trkpt lat="28.4756080" lon="-16.3227270">
        <ele>560.9</ele>
        <time>2020-11-11T09:47:07Z</time>
      </trkpt>
      <trkpt lat="28.4756080" lon="-16.3227270">
        <ele>561.9</ele>
        <time>2020-11-11T09:47:08Z</time>
      </trkpt>
      <trkpt lat="28.4755880" lon="-16.3227680">
        <ele>561.9</ele>
        <time>2020-11-11T09:47:09Z</time>
      </trkpt>
      <trkpt lat="28.4755770" lon="-16.3227930">
        <ele>561.9</ele>
        <time>2020-11-11T09:47:10Z</time>
      </trkpt>
      <trkpt lat="28.4755770" lon="-16.3227930">
        <ele>561.9</ele>
        <time>2020-11-11T09:47:11Z</time>
      </trkpt>
      <trkpt lat="28.4755520" lon="-16.3228370">
        <ele>561.9</ele>
        <time>2020-11-11T09:47:12Z</time>
      </trkpt>
      <trkpt lat="28.4755420" lon="-16.3228580">
        <ele>561.9</ele>
        <time>2020-11-11T09:47:13Z</time>
      </trkpt>
      <trkpt lat="28.4755420" lon="-16.3228580">
        <ele>561.9</ele>
        <time>2020-11-11T09:47:14Z</time>
      </trkpt>
      <trkpt lat="28.4755230" lon="-16.3229000">
        <ele>561.9</ele>
        <time>2020-11-11T09:47:15Z</time>
      </trkpt>
      <trkpt lat="28.4755170" lon="-16.3229230">
        <ele>561.9</ele>
        <time>2020-11-11T09:47:16Z</time>
      </trkpt>
      <trkpt lat="28.4755170" lon="-16.3229230">
        <ele>561.9</ele>
        <time>2020-11-11T09:47:17Z</time>
      </trkpt>
      <trkpt lat="28.4755020" lon="-16.3229670">
        <ele>561.9</ele>
        <time>2020-11-11T09:47:18Z</time>
      </trkpt>
      <trkpt lat="28.4754930" lon="-16.3229880">
        <ele>561.9</ele>
        <time>2020-11-11T09:47:19Z</time>
      </trkpt>
      <trkpt lat="28.4754930" lon="-16.3229880">
        <ele>561.9</ele>
        <time>2020-11-11T09:47:20Z</time>
      </trkpt>
      <trkpt lat="28.4754770" lon="-16.3230330">
        <ele>562.9</ele>
        <time>2020-11-11T09:47:21Z</time>
      </trkpt>
      <trkpt lat="28.4754770" lon="-16.3230330">
        <ele>562.9</ele>
        <time>2020-11-11T09:47:22Z</time>
      </trkpt>
      <trkpt lat="28.4754620" lon="-16.3230800">
        <ele>562.9</ele>
        <time>2020-11-11T09:47:23Z</time>
      </trkpt>
      <trkpt lat="28.4754620" lon="-16.3230800">
        <ele>562.9</ele>
        <time>2020-11-11T09:47:24Z</time>
      </trkpt>
      <trkpt lat="28.4754430" lon="-16.3231250">
        <ele>562.9</ele>
        <time>2020-11-11T09:47:25Z</time>
      </trkpt>
      <trkpt lat="28.4754430" lon="-16.3231250">
        <ele>562.9</ele>
        <time>2020-11-11T09:47:26Z</time>
      </trkpt>
      <trkpt lat="28.4754280" lon="-16.3231730">
        <ele>563.9</ele>
        <time>2020-11-11T09:47:27Z</time>
      </trkpt>
      <trkpt lat="28.4754280" lon="-16.3231730">
        <ele>563.9</ele>
        <time>2020-11-11T09:47:28Z</time>
      </trkpt>
      <trkpt lat="28.4754120" lon="-16.3232220">
        <ele>563.9</ele>
        <time>2020-11-11T09:47:29Z</time>
      </trkpt>
      <trkpt lat="28.4754120" lon="-16.3232220">
        <ele>563.9</ele>
        <time>2020-11-11T09:47:30Z</time>
      </trkpt>
      <trkpt lat="28.4754070" lon="-16.3232680">
        <ele>563.9</ele>
        <time>2020-11-11T09:47:31Z</time>
      </trkpt>
      <trkpt lat="28.4754070" lon="-16.3232680">
        <ele>563.9</ele>
        <time>2020-11-11T09:47:32Z</time>
      </trkpt>
      <trkpt lat="28.4753970" lon="-16.3233180">
        <ele>564.9</ele>
        <time>2020-11-11T09:47:33Z</time>
      </trkpt>
      <trkpt lat="28.4753920" lon="-16.3233450">
        <ele>564.9</ele>
        <time>2020-11-11T09:47:34Z</time>
      </trkpt>
      <trkpt lat="28.4753920" lon="-16.3233450">
        <ele>564.9</ele>
        <time>2020-11-11T09:47:35Z</time>
      </trkpt>
      <trkpt lat="28.4753830" lon="-16.3233970">
        <ele>564.9</ele>
        <time>2020-11-11T09:47:36Z</time>
      </trkpt>
      <trkpt lat="28.4753830" lon="-16.3233970">
        <ele>564.9</ele>
        <time>2020-11-11T09:47:37Z</time>
      </trkpt>
      <trkpt lat="28.4753720" lon="-16.3234500">
        <ele>564.9</ele>
        <time>2020-11-11T09:47:38Z</time>
      </trkpt>
      <trkpt lat="28.4753720" lon="-16.3234500">
        <ele>564.9</ele>
        <time>2020-11-11T09:47:39Z</time>
      </trkpt>
      <trkpt lat="28.4753600" lon="-16.3235100">
        <ele>564.9</ele>
        <time>2020-11-11T09:47:40Z</time>
      </trkpt>
      <trkpt lat="28.4753600" lon="-16.3235100">
        <ele>564.9</ele>
        <time>2020-11-11T09:47:41Z</time>
      </trkpt>
      <trkpt lat="28.4753450" lon="-16.3235670">
        <ele>564.9</ele>
        <time>2020-11-11T09:47:42Z</time>
      </trkpt>
      <trkpt lat="28.4753420" lon="-16.3235950">
        <ele>564.9</ele>
        <time>2020-11-11T09:47:43Z</time>
      </trkpt>
      <trkpt lat="28.4753420" lon="-16.3235950">
        <ele>564.9</ele>
        <time>2020-11-11T09:47:44Z</time>
      </trkpt>
      <trkpt lat="28.4753320" lon="-16.3236480">
        <ele>565.9</ele>
        <time>2020-11-11T09:47:45Z</time>
      </trkpt>
      <trkpt lat="28.4753280" lon="-16.3236720">
        <ele>565.9</ele>
        <time>2020-11-11T09:47:46Z</time>
      </trkpt>
      <trkpt lat="28.4753280" lon="-16.3236720">
        <ele>565.9</ele>
        <time>2020-11-11T09:47:47Z</time>
      </trkpt>
      <trkpt lat="28.4753200" lon="-16.3237200">
        <ele>565.9</ele>
        <time>2020-11-11T09:47:48Z</time>
      </trkpt>
      <trkpt lat="28.4753150" lon="-16.3237470">
        <ele>565.9</ele>
        <time>2020-11-11T09:47:49Z</time>
      </trkpt>
      <trkpt lat="28.4753150" lon="-16.3237470">
        <ele>566.9</ele>
        <time>2020-11-11T09:47:50Z</time>
      </trkpt>
      <trkpt lat="28.4753080" lon="-16.3237970">
        <ele>566.9</ele>
        <time>2020-11-11T09:47:51Z</time>
      </trkpt>
      <trkpt lat="28.4753080" lon="-16.3237970">
        <ele>566.9</ele>
        <time>2020-11-11T09:47:52Z</time>
      </trkpt>
      <trkpt lat="28.4753050" lon="-16.3238480">
        <ele>566.9</ele>
        <time>2020-11-11T09:47:53Z</time>
      </trkpt>
      <trkpt lat="28.4753050" lon="-16.3238480">
        <ele>566.9</ele>
        <time>2020-11-11T09:47:54Z</time>
      </trkpt>
      <trkpt lat="28.4752970" lon="-16.3239020">
        <ele>566.9</ele>
        <time>2020-11-11T09:47:55Z</time>
      </trkpt>
      <trkpt lat="28.4752970" lon="-16.3239020">
        <ele>567.9</ele>
        <time>2020-11-11T09:47:56Z</time>
      </trkpt>
      <trkpt lat="28.4752920" lon="-16.3239570">
        <ele>567.9</ele>
        <time>2020-11-11T09:47:57Z</time>
      </trkpt>
      <trkpt lat="28.4752870" lon="-16.3239850">
        <ele>567.9</ele>
        <time>2020-11-11T09:47:58Z</time>
      </trkpt>
      <trkpt lat="28.4752870" lon="-16.3239850">
        <ele>567.9</ele>
        <time>2020-11-11T09:47:59Z</time>
      </trkpt>
      <trkpt lat="28.4752780" lon="-16.3240380">
        <ele>567.9</ele>
        <time>2020-11-11T09:48:00Z</time>
      </trkpt>
      <trkpt lat="28.4752730" lon="-16.3240680">
        <ele>567.9</ele>
        <time>2020-11-11T09:48:01Z</time>
      </trkpt>
      <trkpt lat="28.4752730" lon="-16.3240680">
        <ele>568.9</ele>
        <time>2020-11-11T09:48:02Z</time>
      </trkpt>
      <trkpt lat="28.4752700" lon="-16.3241220">
        <ele>568.9</ele>
        <time>2020-11-11T09:48:03Z</time>
      </trkpt>
      <trkpt lat="28.4752700" lon="-16.3241480">
        <ele>568.9</ele>
        <time>2020-11-11T09:48:04Z</time>
      </trkpt>
      <trkpt lat="28.4752700" lon="-16.3241480">
        <ele>568.9</ele>
        <time>2020-11-11T09:48:05Z</time>
      </trkpt>
      <trkpt lat="28.4752700" lon="-16.3241980">
        <ele>568.9</ele>
        <time>2020-11-11T09:48:06Z</time>
      </trkpt>
      <trkpt lat="28.4752720" lon="-16.3242230">
        <ele>568.9</ele>
        <time>2020-11-11T09:48:07Z</time>
      </trkpt>
      <trkpt lat="28.4752720" lon="-16.3242230">
        <ele>569.9</ele>
        <time>2020-11-11T09:48:08Z</time>
      </trkpt>
      <trkpt lat="28.4752720" lon="-16.3242730">
        <ele>569.9</ele>
        <time>2020-11-11T09:48:09Z</time>
      </trkpt>
      <trkpt lat="28.4752720" lon="-16.3242730">
        <ele>569.9</ele>
        <time>2020-11-11T09:48:10Z</time>
      </trkpt>
      <trkpt lat="28.4752720" lon="-16.3243280">
        <ele>569.9</ele>
        <time>2020-11-11T09:48:11Z</time>
      </trkpt>
      <trkpt lat="28.4752720" lon="-16.3243280">
        <ele>569.9</ele>
        <time>2020-11-11T09:48:12Z</time>
      </trkpt>
      <trkpt lat="28.4752730" lon="-16.3243820">
        <ele>569.9</ele>
        <time>2020-11-11T09:48:13Z</time>
      </trkpt>
      <trkpt lat="28.4752730" lon="-16.3243820">
        <ele>569.9</ele>
        <time>2020-11-11T09:48:14Z</time>
      </trkpt>
      <trkpt lat="28.4752820" lon="-16.3244370">
        <ele>569.9</ele>
        <time>2020-11-11T09:48:15Z</time>
      </trkpt>
      <trkpt lat="28.4752820" lon="-16.3244370">
        <ele>569.9</ele>
        <time>2020-11-11T09:48:16Z</time>
      </trkpt>
      <trkpt lat="28.4752880" lon="-16.3244900">
        <ele>569.9</ele>
        <time>2020-11-11T09:48:17Z</time>
      </trkpt>
      <trkpt lat="28.4752880" lon="-16.3244900">
        <ele>569.9</ele>
        <time>2020-11-11T09:48:18Z</time>
      </trkpt>
      <trkpt lat="28.4752950" lon="-16.3245430">
        <ele>569.9</ele>
        <time>2020-11-11T09:48:19Z</time>
      </trkpt>
      <trkpt lat="28.4752950" lon="-16.3245430">
        <ele>569.9</ele>
        <time>2020-11-11T09:48:20Z</time>
      </trkpt>
      <trkpt lat="28.4753050" lon="-16.3245930">
        <ele>569.9</ele>
        <time>2020-11-11T09:48:21Z</time>
      </trkpt>
      <trkpt lat="28.4753050" lon="-16.3245930">
        <ele>570.9</ele>
        <time>2020-11-11T09:48:22Z</time>
      </trkpt>
      <trkpt lat="28.4753120" lon="-16.3246470">
        <ele>570.9</ele>
        <time>2020-11-11T09:48:23Z</time>
      </trkpt>
      <trkpt lat="28.4753120" lon="-16.3246470">
        <ele>570.9</ele>
        <time>2020-11-11T09:48:24Z</time>
      </trkpt>
      <trkpt lat="28.4753220" lon="-16.3247000">
        <ele>571.9</ele>
        <time>2020-11-11T09:48:25Z</time>
      </trkpt>
      <trkpt lat="28.4753220" lon="-16.3247000">
        <ele>571.9</ele>
        <time>2020-11-11T09:48:26Z</time>
      </trkpt>
      <trkpt lat="28.4753330" lon="-16.3247520">
        <ele>571.9</ele>
        <time>2020-11-11T09:48:27Z</time>
      </trkpt>
      <trkpt lat="28.4753330" lon="-16.3247520">
        <ele>571.9</ele>
        <time>2020-11-11T09:48:28Z</time>
      </trkpt>
      <trkpt lat="28.4753470" lon="-16.3248050">
        <ele>572.9</ele>
        <time>2020-11-11T09:48:29Z</time>
      </trkpt>
      <trkpt lat="28.4753470" lon="-16.3248050">
        <ele>572.9</ele>
        <time>2020-11-11T09:48:30Z</time>
      </trkpt>
      <trkpt lat="28.4753600" lon="-16.3248580">
        <ele>572.9</ele>
        <time>2020-11-11T09:48:31Z</time>
      </trkpt>
      <trkpt lat="28.4753600" lon="-16.3248580">
        <ele>572.9</ele>
        <time>2020-11-11T09:48:32Z</time>
      </trkpt>
      <trkpt lat="28.4753750" lon="-16.3249170">
        <ele>573.9</ele>
        <time>2020-11-11T09:48:33Z</time>
      </trkpt>
      <trkpt lat="28.4753750" lon="-16.3249170">
        <ele>573.9</ele>
        <time>2020-11-11T09:48:34Z</time>
      </trkpt>
      <trkpt lat="28.4753880" lon="-16.3249720">
        <ele>573.9</ele>
        <time>2020-11-11T09:48:35Z</time>
      </trkpt>
      <trkpt lat="28.4753880" lon="-16.3249720">
        <ele>573.9</ele>
        <time>2020-11-11T09:48:36Z</time>
      </trkpt>
      <trkpt lat="28.4754030" lon="-16.3250250">
        <ele>574.9</ele>
        <time>2020-11-11T09:48:37Z</time>
      </trkpt>
      <trkpt lat="28.4754030" lon="-16.3250250">
        <ele>574.9</ele>
        <time>2020-11-11T09:48:38Z</time>
      </trkpt>
      <trkpt lat="28.4754170" lon="-16.3250750">
        <ele>574.9</ele>
        <time>2020-11-11T09:48:39Z</time>
      </trkpt>
      <trkpt lat="28.4754170" lon="-16.3250750">
        <ele>574.9</ele>
        <time>2020-11-11T09:48:40Z</time>
      </trkpt>
      <trkpt lat="28.4754300" lon="-16.3251230">
        <ele>575.9</ele>
        <time>2020-11-11T09:48:41Z</time>
      </trkpt>
      <trkpt lat="28.4754300" lon="-16.3251230">
        <ele>575.9</ele>
        <time>2020-11-11T09:48:42Z</time>
      </trkpt>
      <trkpt lat="28.4754470" lon="-16.3251770">
        <ele>575.9</ele>
        <time>2020-11-11T09:48:43Z</time>
      </trkpt>
      <trkpt lat="28.4754470" lon="-16.3251770">
        <ele>575.9</ele>
        <time>2020-11-11T09:48:44Z</time>
      </trkpt>
      <trkpt lat="28.4754630" lon="-16.3252300">
        <ele>575.9</ele>
        <time>2020-11-11T09:48:45Z</time>
      </trkpt>
      <trkpt lat="28.4754630" lon="-16.3252300">
        <ele>575.9</ele>
        <time>2020-11-11T09:48:46Z</time>
      </trkpt>
      <trkpt lat="28.4754830" lon="-16.3252800">
        <ele>575.9</ele>
        <time>2020-11-11T09:48:47Z</time>
      </trkpt>
      <trkpt lat="28.4754830" lon="-16.3252800">
        <ele>575.9</ele>
        <time>2020-11-11T09:48:48Z</time>
      </trkpt>
      <trkpt lat="28.4755030" lon="-16.3253300">
        <ele>576.9</ele>
        <time>2020-11-11T09:48:49Z</time>
      </trkpt>
      <trkpt lat="28.4755030" lon="-16.3253300">
        <ele>576.9</ele>
        <time>2020-11-11T09:48:50Z</time>
      </trkpt>
      <trkpt lat="28.4755200" lon="-16.3253820">
        <ele>576.9</ele>
        <time>2020-11-11T09:48:51Z</time>
      </trkpt>
      <trkpt lat="28.4755200" lon="-16.3253820">
        <ele>576.9</ele>
        <time>2020-11-11T09:48:52Z</time>
      </trkpt>
      <trkpt lat="28.4755380" lon="-16.3254320">
        <ele>577.9</ele>
        <time>2020-11-11T09:48:53Z</time>
      </trkpt>
      <trkpt lat="28.4755470" lon="-16.3254570">
        <ele>577.9</ele>
        <time>2020-11-11T09:48:54Z</time>
      </trkpt>
      <trkpt lat="28.4755570" lon="-16.3254820">
        <ele>578.9</ele>
        <time>2020-11-11T09:48:55Z</time>
      </trkpt>
      <trkpt lat="28.4755570" lon="-16.3254820">
        <ele>578.9</ele>
        <time>2020-11-11T09:48:56Z</time>
      </trkpt>
      <trkpt lat="28.4755720" lon="-16.3255350">
        <ele>578.9</ele>
        <time>2020-11-11T09:48:57Z</time>
      </trkpt>
      <trkpt lat="28.4755720" lon="-16.3255350">
        <ele>578.9</ele>
        <time>2020-11-11T09:48:58Z</time>
      </trkpt>
      <trkpt lat="28.4755850" lon="-16.3255880">
        <ele>578.9</ele>
        <time>2020-11-11T09:48:59Z</time>
      </trkpt>
      <trkpt lat="28.4755850" lon="-16.3255880">
        <ele>578.9</ele>
        <time>2020-11-11T09:49:00Z</time>
      </trkpt>
      <trkpt lat="28.4755970" lon="-16.3256380">
        <ele>578.9</ele>
        <time>2020-11-11T09:49:01Z</time>
      </trkpt>
      <trkpt lat="28.4756030" lon="-16.3256630">
        <ele>579.9</ele>
        <time>2020-11-11T09:49:02Z</time>
      </trkpt>
      <trkpt lat="28.4756030" lon="-16.3256630">
        <ele>579.9</ele>
        <time>2020-11-11T09:49:03Z</time>
      </trkpt>
      <trkpt lat="28.4756200" lon="-16.3257220">
        <ele>579.9</ele>
        <time>2020-11-11T09:49:04Z</time>
      </trkpt>
      <trkpt lat="28.4756250" lon="-16.3257500">
        <ele>579.9</ele>
        <time>2020-11-11T09:49:05Z</time>
      </trkpt>
      <trkpt lat="28.4756250" lon="-16.3257500">
        <ele>580.9</ele>
        <time>2020-11-11T09:49:06Z</time>
      </trkpt>
      <trkpt lat="28.4756370" lon="-16.3258080">
        <ele>580.9</ele>
        <time>2020-11-11T09:49:07Z</time>
      </trkpt>
      <trkpt lat="28.4756370" lon="-16.3258080">
        <ele>580.9</ele>
        <time>2020-11-11T09:49:08Z</time>
      </trkpt>
      <trkpt lat="28.4756550" lon="-16.3258670">
        <ele>580.9</ele>
        <time>2020-11-11T09:49:09Z</time>
      </trkpt>
      <trkpt lat="28.4756550" lon="-16.3258670">
        <ele>580.9</ele>
        <time>2020-11-11T09:49:10Z</time>
      </trkpt>
      <trkpt lat="28.4756730" lon="-16.3259270">
        <ele>580.9</ele>
        <time>2020-11-11T09:49:11Z</time>
      </trkpt>
      <trkpt lat="28.4756730" lon="-16.3259270">
        <ele>580.9</ele>
        <time>2020-11-11T09:49:12Z</time>
      </trkpt>
      <trkpt lat="28.4756920" lon="-16.3259830">
        <ele>580.9</ele>
        <time>2020-11-11T09:49:13Z</time>
      </trkpt>
      <trkpt lat="28.4756920" lon="-16.3259830">
        <ele>580.9</ele>
        <time>2020-11-11T09:49:14Z</time>
      </trkpt>
      <trkpt lat="28.4757130" lon="-16.3260400">
        <ele>581.9</ele>
        <time>2020-11-11T09:49:15Z</time>
      </trkpt>
      <trkpt lat="28.4757130" lon="-16.3260400">
        <ele>581.9</ele>
        <time>2020-11-11T09:49:16Z</time>
      </trkpt>
      <trkpt lat="28.4757300" lon="-16.3260980">
        <ele>581.9</ele>
        <time>2020-11-11T09:49:17Z</time>
      </trkpt>
      <trkpt lat="28.4757370" lon="-16.3261280">
        <ele>581.9</ele>
        <time>2020-11-11T09:49:18Z</time>
      </trkpt>
      <trkpt lat="28.4757370" lon="-16.3261280">
        <ele>581.9</ele>
        <time>2020-11-11T09:49:19Z</time>
      </trkpt>
      <trkpt lat="28.4757530" lon="-16.3261850">
        <ele>581.9</ele>
        <time>2020-11-11T09:49:20Z</time>
      </trkpt>
      <trkpt lat="28.4757630" lon="-16.3262130">
        <ele>582.9</ele>
        <time>2020-11-11T09:49:21Z</time>
      </trkpt>
      <trkpt lat="28.4757630" lon="-16.3262130">
        <ele>582.9</ele>
        <time>2020-11-11T09:49:22Z</time>
      </trkpt>
      <trkpt lat="28.4757850" lon="-16.3262730">
        <ele>582.9</ele>
        <time>2020-11-11T09:49:23Z</time>
      </trkpt>
      <trkpt lat="28.4757850" lon="-16.3262730">
        <ele>582.9</ele>
        <time>2020-11-11T09:49:24Z</time>
      </trkpt>
      <trkpt lat="28.4758070" lon="-16.3263280">
        <ele>582.9</ele>
        <time>2020-11-11T09:49:25Z</time>
      </trkpt>
      <trkpt lat="28.4758070" lon="-16.3263280">
        <ele>582.9</ele>
        <time>2020-11-11T09:49:26Z</time>
      </trkpt>
      <trkpt lat="28.4758200" lon="-16.3263870">
        <ele>583.9</ele>
        <time>2020-11-11T09:49:27Z</time>
      </trkpt>
      <trkpt lat="28.4758200" lon="-16.3263870">
        <ele>583.9</ele>
        <time>2020-11-11T09:49:28Z</time>
      </trkpt>
      <trkpt lat="28.4758350" lon="-16.3264470">
        <ele>583.9</ele>
        <time>2020-11-11T09:49:29Z</time>
      </trkpt>
      <trkpt lat="28.4758350" lon="-16.3264470">
        <ele>583.9</ele>
        <time>2020-11-11T09:49:30Z</time>
      </trkpt>
      <trkpt lat="28.4758520" lon="-16.3265050">
        <ele>584.9</ele>
        <time>2020-11-11T09:49:31Z</time>
      </trkpt>
      <trkpt lat="28.4758520" lon="-16.3265050">
        <ele>584.9</ele>
        <time>2020-11-11T09:49:32Z</time>
      </trkpt>
      <trkpt lat="28.4758670" lon="-16.3265600">
        <ele>584.9</ele>
        <time>2020-11-11T09:49:33Z</time>
      </trkpt>
      <trkpt lat="28.4758670" lon="-16.3265600">
        <ele>584.9</ele>
        <time>2020-11-11T09:49:34Z</time>
      </trkpt>
      <trkpt lat="28.4758920" lon="-16.3266120">
        <ele>584.9</ele>
        <time>2020-11-11T09:49:35Z</time>
      </trkpt>
      <trkpt lat="28.4758920" lon="-16.3266120">
        <ele>584.9</ele>
        <time>2020-11-11T09:49:36Z</time>
      </trkpt>
      <trkpt lat="28.4759120" lon="-16.3266650">
        <ele>585.9</ele>
        <time>2020-11-11T09:49:37Z</time>
      </trkpt>
      <trkpt lat="28.4759120" lon="-16.3266650">
        <ele>585.9</ele>
        <time>2020-11-11T09:49:38Z</time>
      </trkpt>
      <trkpt lat="28.4759330" lon="-16.3267220">
        <ele>585.9</ele>
        <time>2020-11-11T09:49:39Z</time>
      </trkpt>
      <trkpt lat="28.4759430" lon="-16.3267530">
        <ele>585.9</ele>
        <time>2020-11-11T09:49:40Z</time>
      </trkpt>
      <trkpt lat="28.4759430" lon="-16.3267530">
        <ele>585.9</ele>
        <time>2020-11-11T09:49:41Z</time>
      </trkpt>
      <trkpt lat="28.4759620" lon="-16.3268120">
        <ele>586.9</ele>
        <time>2020-11-11T09:49:42Z</time>
      </trkpt>
      <trkpt lat="28.4759730" lon="-16.3268400">
        <ele>586.9</ele>
        <time>2020-11-11T09:49:43Z</time>
      </trkpt>
      <trkpt lat="28.4759730" lon="-16.3268400">
        <ele>586.9</ele>
        <time>2020-11-11T09:49:44Z</time>
      </trkpt>
      <trkpt lat="28.4759950" lon="-16.3268970">
        <ele>586.9</ele>
        <time>2020-11-11T09:49:45Z</time>
      </trkpt>
      <trkpt lat="28.4759950" lon="-16.3268970">
        <ele>586.9</ele>
        <time>2020-11-11T09:49:46Z</time>
      </trkpt>
      <trkpt lat="28.4760130" lon="-16.3269550">
        <ele>586.9</ele>
        <time>2020-11-11T09:49:47Z</time>
      </trkpt>
      <trkpt lat="28.4760130" lon="-16.3269550">
        <ele>587.9</ele>
        <time>2020-11-11T09:49:48Z</time>
      </trkpt>
      <trkpt lat="28.4760350" lon="-16.3270120">
        <ele>587.9</ele>
        <time>2020-11-11T09:49:49Z</time>
      </trkpt>
      <trkpt lat="28.4760350" lon="-16.3270120">
        <ele>587.9</ele>
        <time>2020-11-11T09:49:50Z</time>
      </trkpt>
      <trkpt lat="28.4760570" lon="-16.3270720">
        <ele>587.9</ele>
        <time>2020-11-11T09:49:51Z</time>
      </trkpt>
      <trkpt lat="28.4760570" lon="-16.3270720">
        <ele>587.9</ele>
        <time>2020-11-11T09:49:52Z</time>
      </trkpt>
      <trkpt lat="28.4760750" lon="-16.3271300">
        <ele>587.9</ele>
        <time>2020-11-11T09:49:53Z</time>
      </trkpt>
      <trkpt lat="28.4760750" lon="-16.3271300">
        <ele>587.9</ele>
        <time>2020-11-11T09:49:54Z</time>
      </trkpt>
      <trkpt lat="28.4760930" lon="-16.3271880">
        <ele>587.9</ele>
        <time>2020-11-11T09:49:55Z</time>
      </trkpt>
      <trkpt lat="28.4760930" lon="-16.3271880">
        <ele>587.9</ele>
        <time>2020-11-11T09:49:56Z</time>
      </trkpt>
      <trkpt lat="28.4761080" lon="-16.3272480">
        <ele>587.9</ele>
        <time>2020-11-11T09:49:57Z</time>
      </trkpt>
      <trkpt lat="28.4761080" lon="-16.3272480">
        <ele>587.9</ele>
        <time>2020-11-11T09:49:58Z</time>
      </trkpt>
      <trkpt lat="28.4761270" lon="-16.3273070">
        <ele>587.9</ele>
        <time>2020-11-11T09:49:59Z</time>
      </trkpt>
      <trkpt lat="28.4761270" lon="-16.3273070">
        <ele>588.9</ele>
        <time>2020-11-11T09:50:00Z</time>
      </trkpt>
      <trkpt lat="28.4761470" lon="-16.3273630">
        <ele>588.9</ele>
        <time>2020-11-11T09:50:01Z</time>
      </trkpt>
      <trkpt lat="28.4761470" lon="-16.3273630">
        <ele>588.9</ele>
        <time>2020-11-11T09:50:02Z</time>
      </trkpt>
      <trkpt lat="28.4761670" lon="-16.3274220">
        <ele>588.9</ele>
        <time>2020-11-11T09:50:03Z</time>
      </trkpt>
      <trkpt lat="28.4761770" lon="-16.3274530">
        <ele>588.9</ele>
        <time>2020-11-11T09:50:04Z</time>
      </trkpt>
      <trkpt lat="28.4761770" lon="-16.3274530">
        <ele>588.9</ele>
        <time>2020-11-11T09:50:05Z</time>
      </trkpt>
      <trkpt lat="28.4761970" lon="-16.3275170">
        <ele>589.9</ele>
        <time>2020-11-11T09:50:06Z</time>
      </trkpt>
      <trkpt lat="28.4761970" lon="-16.3275170">
        <ele>589.9</ele>
        <time>2020-11-11T09:50:07Z</time>
      </trkpt>
      <trkpt lat="28.4762180" lon="-16.3275720">
        <ele>589.9</ele>
        <time>2020-11-11T09:50:08Z</time>
      </trkpt>
      <trkpt lat="28.4762270" lon="-16.3276000">
        <ele>589.9</ele>
        <time>2020-11-11T09:50:09Z</time>
      </trkpt>
      <trkpt lat="28.4762270" lon="-16.3276000">
        <ele>589.9</ele>
        <time>2020-11-11T09:50:10Z</time>
      </trkpt>
      <trkpt lat="28.4762420" lon="-16.3276620">
        <ele>589.9</ele>
        <time>2020-11-11T09:50:11Z</time>
      </trkpt>
      <trkpt lat="28.4762420" lon="-16.3276620">
        <ele>590.9</ele>
        <time>2020-11-11T09:50:12Z</time>
      </trkpt>
      <trkpt lat="28.4762650" lon="-16.3277230">
        <ele>590.9</ele>
        <time>2020-11-11T09:50:13Z</time>
      </trkpt>
      <trkpt lat="28.4762650" lon="-16.3277230">
        <ele>590.9</ele>
        <time>2020-11-11T09:50:14Z</time>
      </trkpt>
      <trkpt lat="28.4762870" lon="-16.3277820">
        <ele>590.9</ele>
        <time>2020-11-11T09:50:15Z</time>
      </trkpt>
      <trkpt lat="28.4762870" lon="-16.3277820">
        <ele>590.9</ele>
        <time>2020-11-11T09:50:16Z</time>
      </trkpt>
      <trkpt lat="28.4763030" lon="-16.3278380">
        <ele>591.9</ele>
        <time>2020-11-11T09:50:17Z</time>
      </trkpt>
      <trkpt lat="28.4763030" lon="-16.3278380">
        <ele>591.9</ele>
        <time>2020-11-11T09:50:18Z</time>
      </trkpt>
      <trkpt lat="28.4763220" lon="-16.3278950">
        <ele>591.9</ele>
        <time>2020-11-11T09:50:19Z</time>
      </trkpt>
      <trkpt lat="28.4763220" lon="-16.3278950">
        <ele>591.9</ele>
        <time>2020-11-11T09:50:20Z</time>
      </trkpt>
      <trkpt lat="28.4763420" lon="-16.3279500">
        <ele>591.9</ele>
        <time>2020-11-11T09:50:21Z</time>
      </trkpt>
      <trkpt lat="28.4763420" lon="-16.3279500">
        <ele>591.9</ele>
        <time>2020-11-11T09:50:22Z</time>
      </trkpt>
      <trkpt lat="28.4763580" lon="-16.3280070">
        <ele>592.9</ele>
        <time>2020-11-11T09:50:23Z</time>
      </trkpt>
      <trkpt lat="28.4763580" lon="-16.3280070">
        <ele>592.9</ele>
        <time>2020-11-11T09:50:24Z</time>
      </trkpt>
      <trkpt lat="28.4763780" lon="-16.3280650">
        <ele>592.9</ele>
        <time>2020-11-11T09:50:25Z</time>
      </trkpt>
      <trkpt lat="28.4763780" lon="-16.3280650">
        <ele>592.9</ele>
        <time>2020-11-11T09:50:26Z</time>
      </trkpt>
      <trkpt lat="28.4763950" lon="-16.3281200">
        <ele>592.9</ele>
        <time>2020-11-11T09:50:27Z</time>
      </trkpt>
      <trkpt lat="28.4763950" lon="-16.3281200">
        <ele>592.9</ele>
        <time>2020-11-11T09:50:28Z</time>
      </trkpt>
      <trkpt lat="28.4764150" lon="-16.3281780">
        <ele>593.9</ele>
        <time>2020-11-11T09:50:29Z</time>
      </trkpt>
      <trkpt lat="28.4764230" lon="-16.3282070">
        <ele>593.9</ele>
        <time>2020-11-11T09:50:30Z</time>
      </trkpt>
      <trkpt lat="28.4764230" lon="-16.3282070">
        <ele>593.9</ele>
        <time>2020-11-11T09:50:31Z</time>
      </trkpt>
      <trkpt lat="28.4764400" lon="-16.3282630">
        <ele>593.9</ele>
        <time>2020-11-11T09:50:32Z</time>
      </trkpt>
      <trkpt lat="28.4764400" lon="-16.3282630">
        <ele>593.9</ele>
        <time>2020-11-11T09:50:33Z</time>
      </trkpt>
      <trkpt lat="28.4764520" lon="-16.3283200">
        <ele>593.9</ele>
        <time>2020-11-11T09:50:34Z</time>
      </trkpt>
      <trkpt lat="28.4764520" lon="-16.3283200">
        <ele>593.9</ele>
        <time>2020-11-11T09:50:35Z</time>
      </trkpt>
      <trkpt lat="28.4764670" lon="-16.3283770">
        <ele>593.9</ele>
        <time>2020-11-11T09:50:36Z</time>
      </trkpt>
      <trkpt lat="28.4764670" lon="-16.3283770">
        <ele>594.9</ele>
        <time>2020-11-11T09:50:37Z</time>
      </trkpt>
      <trkpt lat="28.4764880" lon="-16.3284400">
        <ele>594.9</ele>
        <time>2020-11-11T09:50:38Z</time>
      </trkpt>
      <trkpt lat="28.4764880" lon="-16.3284400">
        <ele>594.9</ele>
        <time>2020-11-11T09:50:39Z</time>
      </trkpt>
      <trkpt lat="28.4765170" lon="-16.3285130">
        <ele>594.9</ele>
        <time>2020-11-11T09:50:40Z</time>
      </trkpt>
      <trkpt lat="28.4765170" lon="-16.3285130">
        <ele>594.9</ele>
        <time>2020-11-11T09:50:41Z</time>
      </trkpt>
      <trkpt lat="28.4765380" lon="-16.3285830">
        <ele>594.9</ele>
        <time>2020-11-11T09:50:42Z</time>
      </trkpt>
      <trkpt lat="28.4765500" lon="-16.3286180">
        <ele>595.9</ele>
        <time>2020-11-11T09:50:43Z</time>
      </trkpt>
      <trkpt lat="28.4765500" lon="-16.3286180">
        <ele>595.9</ele>
        <time>2020-11-11T09:50:44Z</time>
      </trkpt>
      <trkpt lat="28.4765850" lon="-16.3286830">
        <ele>595.9</ele>
        <time>2020-11-11T09:50:45Z</time>
      </trkpt>
      <trkpt lat="28.4765850" lon="-16.3286830">
        <ele>595.9</ele>
        <time>2020-11-11T09:50:46Z</time>
      </trkpt>
      <trkpt lat="28.4766100" lon="-16.3287470">
        <ele>595.9</ele>
        <time>2020-11-11T09:50:47Z</time>
      </trkpt>
      <trkpt lat="28.4766100" lon="-16.3287470">
        <ele>595.9</ele>
        <time>2020-11-11T09:50:48Z</time>
      </trkpt>
      <trkpt lat="28.4766400" lon="-16.3288080">
        <ele>595.9</ele>
        <time>2020-11-11T09:50:49Z</time>
      </trkpt>
      <trkpt lat="28.4766400" lon="-16.3288080">
        <ele>595.9</ele>
        <time>2020-11-11T09:50:50Z</time>
      </trkpt>
      <trkpt lat="28.4766680" lon="-16.3288720">
        <ele>595.9</ele>
        <time>2020-11-11T09:50:51Z</time>
      </trkpt>
      <trkpt lat="28.4766850" lon="-16.3289000">
        <ele>595.9</ele>
        <time>2020-11-11T09:50:52Z</time>
      </trkpt>
      <trkpt lat="28.4766850" lon="-16.3289000">
        <ele>595.9</ele>
        <time>2020-11-11T09:50:53Z</time>
      </trkpt>
      <trkpt lat="28.4767100" lon="-16.3289550">
        <ele>595.9</ele>
        <time>2020-11-11T09:50:54Z</time>
      </trkpt>
      <trkpt lat="28.4767100" lon="-16.3289550">
        <ele>595.9</ele>
        <time>2020-11-11T09:50:55Z</time>
      </trkpt>
      <trkpt lat="28.4767350" lon="-16.3290020">
        <ele>596.9</ele>
        <time>2020-11-11T09:50:56Z</time>
      </trkpt>
      <trkpt lat="28.4767350" lon="-16.3290020">
        <ele>596.9</ele>
        <time>2020-11-11T09:50:57Z</time>
      </trkpt>
      <trkpt lat="28.4767600" lon="-16.3290370">
        <ele>596.9</ele>
        <time>2020-11-11T09:50:58Z</time>
      </trkpt>
      <trkpt lat="28.4767700" lon="-16.3290520">
        <ele>596.9</ele>
        <time>2020-11-11T09:50:59Z</time>
      </trkpt>
      <trkpt lat="28.4767700" lon="-16.3290520">
        <ele>596.9</ele>
        <time>2020-11-11T09:51:00Z</time>
      </trkpt>
      <trkpt lat="28.4767870" lon="-16.3290750">
        <ele>596.9</ele>
        <time>2020-11-11T09:51:01Z</time>
      </trkpt>
      <trkpt lat="28.4767870" lon="-16.3290750">
        <ele>596.9</ele>
        <time>2020-11-11T09:51:02Z</time>
      </trkpt>
      <trkpt lat="28.4767980" lon="-16.3291000">
        <ele>596.9</ele>
        <time>2020-11-11T09:51:03Z</time>
      </trkpt>
      <trkpt lat="28.4767980" lon="-16.3291000">
        <ele>596.9</ele>
        <time>2020-11-11T09:51:04Z</time>
      </trkpt>
      <trkpt lat="28.4768000" lon="-16.3291000">
        <ele>596.9</ele>
        <time>2020-11-11T09:51:05Z</time>
      </trkpt>
      <trkpt lat="28.4768000" lon="-16.3291000">
        <ele>596.9</ele>
        <time>2020-11-11T09:51:30Z</time>
      </trkpt>
      <trkpt lat="28.4768050" lon="-16.3291420">
        <ele>596.9</ele>
        <time>2020-11-11T09:51:31Z</time>
      </trkpt>
      <trkpt lat="28.4768050" lon="-16.3291420">
        <ele>596.9</ele>
        <time>2020-11-11T09:51:32Z</time>
      </trkpt>
      <trkpt lat="28.4768330" lon="-16.3292070">
        <ele>596.9</ele>
        <time>2020-11-11T09:51:33Z</time>
      </trkpt>
      <trkpt lat="28.4768520" lon="-16.3292350">
        <ele>596.9</ele>
        <time>2020-11-11T09:51:34Z</time>
      </trkpt>
      <trkpt lat="28.4768520" lon="-16.3292350">
        <ele>596.9</ele>
        <time>2020-11-11T09:51:35Z</time>
      </trkpt>
      <trkpt lat="28.4768850" lon="-16.3292950">
        <ele>596.9</ele>
        <time>2020-11-11T09:51:36Z</time>
      </trkpt>
      <trkpt lat="28.4768850" lon="-16.3292950">
        <ele>596.9</ele>
        <time>2020-11-11T09:51:37Z</time>
      </trkpt>
      <trkpt lat="28.4769150" lon="-16.3293730">
        <ele>596.9</ele>
        <time>2020-11-11T09:51:38Z</time>
      </trkpt>
      <trkpt lat="28.4769150" lon="-16.3293730">
        <ele>596.9</ele>
        <time>2020-11-11T09:51:39Z</time>
      </trkpt>
      <trkpt lat="28.4769500" lon="-16.3294480">
        <ele>596.9</ele>
        <time>2020-11-11T09:51:40Z</time>
      </trkpt>
      <trkpt lat="28.4769500" lon="-16.3294480">
        <ele>596.9</ele>
        <time>2020-11-11T09:51:41Z</time>
      </trkpt>
      <trkpt lat="28.4769820" lon="-16.3295270">
        <ele>596.9</ele>
        <time>2020-11-11T09:51:42Z</time>
      </trkpt>
      <trkpt lat="28.4769820" lon="-16.3295270">
        <ele>596.9</ele>
        <time>2020-11-11T09:51:43Z</time>
      </trkpt>
      <trkpt lat="28.4770180" lon="-16.3296070">
        <ele>596.9</ele>
        <time>2020-11-11T09:51:44Z</time>
      </trkpt>
      <trkpt lat="28.4770370" lon="-16.3296480">
        <ele>596.9</ele>
        <time>2020-11-11T09:51:45Z</time>
      </trkpt>
      <trkpt lat="28.4770370" lon="-16.3296480">
        <ele>596.9</ele>
        <time>2020-11-11T09:51:46Z</time>
      </trkpt>
      <trkpt lat="28.4770730" lon="-16.3297330">
        <ele>596.9</ele>
        <time>2020-11-11T09:51:47Z</time>
      </trkpt>
      <trkpt lat="28.4770730" lon="-16.3297330">
        <ele>596.9</ele>
        <time>2020-11-11T09:51:48Z</time>
      </trkpt>
      <trkpt lat="28.4771270" lon="-16.3298070">
        <ele>596.9</ele>
        <time>2020-11-11T09:51:49Z</time>
      </trkpt>
      <trkpt lat="28.4771270" lon="-16.3298070">
        <ele>596.9</ele>
        <time>2020-11-11T09:51:50Z</time>
      </trkpt>
      <trkpt lat="28.4771850" lon="-16.3298680">
        <ele>596.9</ele>
        <time>2020-11-11T09:51:51Z</time>
      </trkpt>
      <trkpt lat="28.4771850" lon="-16.3298680">
        <ele>596.9</ele>
        <time>2020-11-11T09:51:52Z</time>
      </trkpt>
      <trkpt lat="28.4772530" lon="-16.3299320">
        <ele>596.9</ele>
        <time>2020-11-11T09:51:53Z</time>
      </trkpt>
      <trkpt lat="28.4772530" lon="-16.3299320">
        <ele>596.9</ele>
        <time>2020-11-11T09:51:54Z</time>
      </trkpt>
      <trkpt lat="28.4773200" lon="-16.3300130">
        <ele>596.9</ele>
        <time>2020-11-11T09:51:55Z</time>
      </trkpt>
      <trkpt lat="28.4773200" lon="-16.3300130">
        <ele>596.9</ele>
        <time>2020-11-11T09:51:56Z</time>
      </trkpt>
      <trkpt lat="28.4773900" lon="-16.3300980">
        <ele>596.9</ele>
        <time>2020-11-11T09:51:57Z</time>
      </trkpt>
      <trkpt lat="28.4774270" lon="-16.3301450">
        <ele>596.9</ele>
        <time>2020-11-11T09:51:58Z</time>
      </trkpt>
      <trkpt lat="28.4774270" lon="-16.3301450">
        <ele>596.9</ele>
        <time>2020-11-11T09:51:59Z</time>
      </trkpt>
      <trkpt lat="28.4774930" lon="-16.3302430">
        <ele>596.9</ele>
        <time>2020-11-11T09:52:00Z</time>
      </trkpt>
      <trkpt lat="28.4774930" lon="-16.3302430">
        <ele>596.9</ele>
        <time>2020-11-11T09:52:01Z</time>
      </trkpt>
      <trkpt lat="28.4775450" lon="-16.3303400">
        <ele>596.9</ele>
        <time>2020-11-11T09:52:02Z</time>
      </trkpt>
      <trkpt lat="28.4775670" lon="-16.3303900">
        <ele>596.9</ele>
        <time>2020-11-11T09:52:03Z</time>
      </trkpt>
      <trkpt lat="28.4775670" lon="-16.3303900">
        <ele>596.9</ele>
        <time>2020-11-11T09:52:04Z</time>
      </trkpt>
      <trkpt lat="28.4776020" lon="-16.3304900">
        <ele>596.9</ele>
        <time>2020-11-11T09:52:05Z</time>
      </trkpt>
      <trkpt lat="28.4776020" lon="-16.3304900">
        <ele>596.9</ele>
        <time>2020-11-11T09:52:06Z</time>
      </trkpt>
      <trkpt lat="28.4776350" lon="-16.3305900">
        <ele>596.9</ele>
        <time>2020-11-11T09:52:07Z</time>
      </trkpt>
      <trkpt lat="28.4776350" lon="-16.3305900">
        <ele>596.9</ele>
        <time>2020-11-11T09:52:08Z</time>
      </trkpt>
      <trkpt lat="28.4776630" lon="-16.3306880">
        <ele>596.9</ele>
        <time>2020-11-11T09:52:09Z</time>
      </trkpt>
      <trkpt lat="28.4776630" lon="-16.3306880">
        <ele>596.9</ele>
        <time>2020-11-11T09:52:10Z</time>
      </trkpt>
      <trkpt lat="28.4776930" lon="-16.3307850">
        <ele>596.9</ele>
        <time>2020-11-11T09:52:11Z</time>
      </trkpt>
      <trkpt lat="28.4777080" lon="-16.3308330">
        <ele>596.9</ele>
        <time>2020-11-11T09:52:12Z</time>
      </trkpt>
      <trkpt lat="28.4777080" lon="-16.3308330">
        <ele>596.9</ele>
        <time>2020-11-11T09:52:13Z</time>
      </trkpt>
      <trkpt lat="28.4777380" lon="-16.3309320">
        <ele>596.9</ele>
        <time>2020-11-11T09:52:14Z</time>
      </trkpt>
      <trkpt lat="28.4777380" lon="-16.3309320">
        <ele>596.9</ele>
        <time>2020-11-11T09:52:15Z</time>
      </trkpt>
      <trkpt lat="28.4777720" lon="-16.3310320">
        <ele>596.9</ele>
        <time>2020-11-11T09:52:16Z</time>
      </trkpt>
      <trkpt lat="28.4777870" lon="-16.3310820">
        <ele>596.9</ele>
        <time>2020-11-11T09:52:17Z</time>
      </trkpt>
      <trkpt lat="28.4777870" lon="-16.3310820">
        <ele>596.9</ele>
        <time>2020-11-11T09:52:18Z</time>
      </trkpt>
      <trkpt lat="28.4778150" lon="-16.3311880">
        <ele>596.9</ele>
        <time>2020-11-11T09:52:19Z</time>
      </trkpt>
      <trkpt lat="28.4778150" lon="-16.3311880">
        <ele>596.9</ele>
        <time>2020-11-11T09:52:20Z</time>
      </trkpt>
      <trkpt lat="28.4778480" lon="-16.3312920">
        <ele>596.9</ele>
        <time>2020-11-11T09:52:21Z</time>
      </trkpt>
      <trkpt lat="28.4778650" lon="-16.3313430">
        <ele>596.9</ele>
        <time>2020-11-11T09:52:22Z</time>
      </trkpt>
      <trkpt lat="28.4778650" lon="-16.3313430">
        <ele>596.9</ele>
        <time>2020-11-11T09:52:23Z</time>
      </trkpt>
      <trkpt lat="28.4778970" lon="-16.3314420">
        <ele>596.9</ele>
        <time>2020-11-11T09:52:24Z</time>
      </trkpt>
      <trkpt lat="28.4779120" lon="-16.3314920">
        <ele>596.9</ele>
        <time>2020-11-11T09:52:25Z</time>
      </trkpt>
      <trkpt lat="28.4779120" lon="-16.3314920">
        <ele>596.9</ele>
        <time>2020-11-11T09:52:26Z</time>
      </trkpt>
      <trkpt lat="28.4779450" lon="-16.3315900">
        <ele>596.9</ele>
        <time>2020-11-11T09:52:27Z</time>
      </trkpt>
      <trkpt lat="28.4779450" lon="-16.3315900">
        <ele>596.9</ele>
        <time>2020-11-11T09:52:28Z</time>
      </trkpt>
      <trkpt lat="28.4779780" lon="-16.3316880">
        <ele>596.9</ele>
        <time>2020-11-11T09:52:29Z</time>
      </trkpt>
      <trkpt lat="28.4779780" lon="-16.3316880">
        <ele>596.9</ele>
        <time>2020-11-11T09:52:30Z</time>
      </trkpt>
      <trkpt lat="28.4780130" lon="-16.3317880">
        <ele>596.9</ele>
        <time>2020-11-11T09:52:31Z</time>
      </trkpt>
      <trkpt lat="28.4780130" lon="-16.3317880">
        <ele>596.9</ele>
        <time>2020-11-11T09:52:32Z</time>
      </trkpt>
      <trkpt lat="28.4780470" lon="-16.3318920">
        <ele>596.9</ele>
        <time>2020-11-11T09:52:33Z</time>
      </trkpt>
      <trkpt lat="28.4780470" lon="-16.3318920">
        <ele>596.9</ele>
        <time>2020-11-11T09:52:34Z</time>
      </trkpt>
      <trkpt lat="28.4780800" lon="-16.3319930">
        <ele>596.9</ele>
        <time>2020-11-11T09:52:35Z</time>
      </trkpt>
      <trkpt lat="28.4780800" lon="-16.3319930">
        <ele>596.9</ele>
        <time>2020-11-11T09:52:36Z</time>
      </trkpt>
      <trkpt lat="28.4781130" lon="-16.3320920">
        <ele>596.9</ele>
        <time>2020-11-11T09:52:37Z</time>
      </trkpt>
      <trkpt lat="28.4781130" lon="-16.3320920">
        <ele>596.9</ele>
        <time>2020-11-11T09:52:38Z</time>
      </trkpt>
      <trkpt lat="28.4781450" lon="-16.3321920">
        <ele>596.9</ele>
        <time>2020-11-11T09:52:39Z</time>
      </trkpt>
      <trkpt lat="28.4781450" lon="-16.3321920">
        <ele>596.9</ele>
        <time>2020-11-11T09:52:40Z</time>
      </trkpt>
      <trkpt lat="28.4781780" lon="-16.3322900">
        <ele>596.9</ele>
        <time>2020-11-11T09:52:41Z</time>
      </trkpt>
      <trkpt lat="28.4781780" lon="-16.3322900">
        <ele>596.9</ele>
        <time>2020-11-11T09:52:42Z</time>
      </trkpt>
      <trkpt lat="28.4782130" lon="-16.3323850">
        <ele>597.9</ele>
        <time>2020-11-11T09:52:43Z</time>
      </trkpt>
      <trkpt lat="28.4782130" lon="-16.3323850">
        <ele>597.9</ele>
        <time>2020-11-11T09:52:44Z</time>
      </trkpt>
      <trkpt lat="28.4782420" lon="-16.3324800">
        <ele>597.9</ele>
        <time>2020-11-11T09:52:45Z</time>
      </trkpt>
      <trkpt lat="28.4782550" lon="-16.3325280">
        <ele>597.9</ele>
        <time>2020-11-11T09:52:46Z</time>
      </trkpt>
      <trkpt lat="28.4782550" lon="-16.3325280">
        <ele>597.9</ele>
        <time>2020-11-11T09:52:47Z</time>
      </trkpt>
      <trkpt lat="28.4782780" lon="-16.3326280">
        <ele>597.9</ele>
        <time>2020-11-11T09:52:48Z</time>
      </trkpt>
      <trkpt lat="28.4782930" lon="-16.3326780">
        <ele>597.9</ele>
        <time>2020-11-11T09:52:49Z</time>
      </trkpt>
      <trkpt lat="28.4782930" lon="-16.3326780">
        <ele>597.9</ele>
        <time>2020-11-11T09:52:50Z</time>
      </trkpt>
      <trkpt lat="28.4783280" lon="-16.3327700">
        <ele>597.9</ele>
        <time>2020-11-11T09:52:51Z</time>
      </trkpt>
      <trkpt lat="28.4783280" lon="-16.3327700">
        <ele>597.9</ele>
        <time>2020-11-11T09:52:52Z</time>
      </trkpt>
      <trkpt lat="28.4783530" lon="-16.3328720">
        <ele>597.9</ele>
        <time>2020-11-11T09:52:53Z</time>
      </trkpt>
      <trkpt lat="28.4783530" lon="-16.3328720">
        <ele>598.9</ele>
        <time>2020-11-11T09:52:54Z</time>
      </trkpt>
      <trkpt lat="28.4783830" lon="-16.3329680">
        <ele>598.9</ele>
        <time>2020-11-11T09:52:55Z</time>
      </trkpt>
      <trkpt lat="28.4783830" lon="-16.3329680">
        <ele>598.9</ele>
        <time>2020-11-11T09:52:56Z</time>
      </trkpt>
      <trkpt lat="28.4784170" lon="-16.3330630">
        <ele>598.9</ele>
        <time>2020-11-11T09:52:57Z</time>
      </trkpt>
      <trkpt lat="28.4784170" lon="-16.3330630">
        <ele>598.9</ele>
        <time>2020-11-11T09:52:58Z</time>
      </trkpt>
      <trkpt lat="28.4784530" lon="-16.3331600">
        <ele>598.9</ele>
        <time>2020-11-11T09:52:59Z</time>
      </trkpt>
      <trkpt lat="28.4784700" lon="-16.3332070">
        <ele>598.9</ele>
        <time>2020-11-11T09:53:00Z</time>
      </trkpt>
      <trkpt lat="28.4784700" lon="-16.3332070">
        <ele>598.9</ele>
        <time>2020-11-11T09:53:01Z</time>
      </trkpt>
      <trkpt lat="28.4785050" lon="-16.3333000">
        <ele>598.9</ele>
        <time>2020-11-11T09:53:02Z</time>
      </trkpt>
      <trkpt lat="28.4785050" lon="-16.3333000">
        <ele>598.9</ele>
        <time>2020-11-11T09:53:03Z</time>
      </trkpt>
      <trkpt lat="28.4785370" lon="-16.3333930">
        <ele>598.9</ele>
        <time>2020-11-11T09:53:04Z</time>
      </trkpt>
      <trkpt lat="28.4785370" lon="-16.3333930">
        <ele>598.9</ele>
        <time>2020-11-11T09:53:05Z</time>
      </trkpt>
      <trkpt lat="28.4785680" lon="-16.3334870">
        <ele>598.9</ele>
        <time>2020-11-11T09:53:06Z</time>
      </trkpt>
      <trkpt lat="28.4785850" lon="-16.3335330">
        <ele>598.9</ele>
        <time>2020-11-11T09:53:07Z</time>
      </trkpt>
      <trkpt lat="28.4785850" lon="-16.3335330">
        <ele>598.9</ele>
        <time>2020-11-11T09:53:08Z</time>
      </trkpt>
      <trkpt lat="28.4786170" lon="-16.3336250">
        <ele>598.9</ele>
        <time>2020-11-11T09:53:09Z</time>
      </trkpt>
      <trkpt lat="28.4786170" lon="-16.3336250">
        <ele>598.9</ele>
        <time>2020-11-11T09:53:10Z</time>
      </trkpt>
      <trkpt lat="28.4786470" lon="-16.3337150">
        <ele>598.9</ele>
        <time>2020-11-11T09:53:11Z</time>
      </trkpt>
      <trkpt lat="28.4786470" lon="-16.3337150">
        <ele>598.9</ele>
        <time>2020-11-11T09:53:12Z</time>
      </trkpt>
      <trkpt lat="28.4786730" lon="-16.3338030">
        <ele>598.9</ele>
        <time>2020-11-11T09:53:13Z</time>
      </trkpt>
      <trkpt lat="28.4786730" lon="-16.3338030">
        <ele>598.9</ele>
        <time>2020-11-11T09:53:14Z</time>
      </trkpt>
      <trkpt lat="28.4787100" lon="-16.3338880">
        <ele>598.9</ele>
        <time>2020-11-11T09:53:15Z</time>
      </trkpt>
      <trkpt lat="28.4787100" lon="-16.3338880">
        <ele>599.9</ele>
        <time>2020-11-11T09:53:16Z</time>
      </trkpt>
      <trkpt lat="28.4787430" lon="-16.3339750">
        <ele>599.9</ele>
        <time>2020-11-11T09:53:17Z</time>
      </trkpt>
      <trkpt lat="28.4787430" lon="-16.3339750">
        <ele>599.9</ele>
        <time>2020-11-11T09:53:18Z</time>
      </trkpt>
      <trkpt lat="28.4787730" lon="-16.3340650">
        <ele>599.9</ele>
        <time>2020-11-11T09:53:19Z</time>
      </trkpt>
      <trkpt lat="28.4787730" lon="-16.3340650">
        <ele>599.9</ele>
        <time>2020-11-11T09:53:20Z</time>
      </trkpt>
      <trkpt lat="28.4788070" lon="-16.3341530">
        <ele>599.9</ele>
        <time>2020-11-11T09:53:21Z</time>
      </trkpt>
      <trkpt lat="28.4788070" lon="-16.3341530">
        <ele>599.9</ele>
        <time>2020-11-11T09:53:22Z</time>
      </trkpt>
      <trkpt lat="28.4788370" lon="-16.3342450">
        <ele>599.9</ele>
        <time>2020-11-11T09:53:23Z</time>
      </trkpt>
      <trkpt lat="28.4788370" lon="-16.3342450">
        <ele>599.9</ele>
        <time>2020-11-11T09:53:24Z</time>
      </trkpt>
      <trkpt lat="28.4788720" lon="-16.3343380">
        <ele>600.9</ele>
        <time>2020-11-11T09:53:25Z</time>
      </trkpt>
      <trkpt lat="28.4788720" lon="-16.3343380">
        <ele>600.9</ele>
        <time>2020-11-11T09:53:26Z</time>
      </trkpt>
      <trkpt lat="28.4789020" lon="-16.3344330">
        <ele>600.9</ele>
        <time>2020-11-11T09:53:27Z</time>
      </trkpt>
      <trkpt lat="28.4789020" lon="-16.3344330">
        <ele>600.9</ele>
        <time>2020-11-11T09:53:28Z</time>
      </trkpt>
      <trkpt lat="28.4789370" lon="-16.3345270">
        <ele>600.9</ele>
        <time>2020-11-11T09:53:29Z</time>
      </trkpt>
      <trkpt lat="28.4789370" lon="-16.3345270">
        <ele>600.9</ele>
        <time>2020-11-11T09:53:30Z</time>
      </trkpt>
      <trkpt lat="28.4789730" lon="-16.3346180">
        <ele>600.9</ele>
        <time>2020-11-11T09:53:31Z</time>
      </trkpt>
      <trkpt lat="28.4789900" lon="-16.3346650">
        <ele>600.9</ele>
        <time>2020-11-11T09:53:32Z</time>
      </trkpt>
      <trkpt lat="28.4789900" lon="-16.3346650">
        <ele>600.9</ele>
        <time>2020-11-11T09:53:33Z</time>
      </trkpt>
      <trkpt lat="28.4790250" lon="-16.3347620">
        <ele>600.9</ele>
        <time>2020-11-11T09:53:34Z</time>
      </trkpt>
      <trkpt lat="28.4790250" lon="-16.3347620">
        <ele>600.9</ele>
        <time>2020-11-11T09:53:35Z</time>
      </trkpt>
      <trkpt lat="28.4790600" lon="-16.3348580">
        <ele>600.9</ele>
        <time>2020-11-11T09:53:36Z</time>
      </trkpt>
      <trkpt lat="28.4790600" lon="-16.3348580">
        <ele>600.9</ele>
        <time>2020-11-11T09:53:37Z</time>
      </trkpt>
      <trkpt lat="28.4790920" lon="-16.3349620">
        <ele>600.9</ele>
        <time>2020-11-11T09:53:38Z</time>
      </trkpt>
      <trkpt lat="28.4790920" lon="-16.3349620">
        <ele>600.9</ele>
        <time>2020-11-11T09:53:39Z</time>
      </trkpt>
      <trkpt lat="28.4791230" lon="-16.3350580">
        <ele>600.9</ele>
        <time>2020-11-11T09:53:40Z</time>
      </trkpt>
      <trkpt lat="28.4791420" lon="-16.3351070">
        <ele>600.9</ele>
        <time>2020-11-11T09:53:41Z</time>
      </trkpt>
      <trkpt lat="28.4791420" lon="-16.3351070">
        <ele>600.9</ele>
        <time>2020-11-11T09:53:42Z</time>
      </trkpt>
      <trkpt lat="28.4791750" lon="-16.3352030">
        <ele>600.9</ele>
        <time>2020-11-11T09:53:43Z</time>
      </trkpt>
      <trkpt lat="28.4791900" lon="-16.3352520">
        <ele>600.9</ele>
        <time>2020-11-11T09:53:44Z</time>
      </trkpt>
      <trkpt lat="28.4791900" lon="-16.3352520">
        <ele>600.9</ele>
        <time>2020-11-11T09:53:45Z</time>
      </trkpt>
      <trkpt lat="28.4792200" lon="-16.3353480">
        <ele>600.9</ele>
        <time>2020-11-11T09:53:46Z</time>
      </trkpt>
      <trkpt lat="28.4792370" lon="-16.3353970">
        <ele>600.9</ele>
        <time>2020-11-11T09:53:47Z</time>
      </trkpt>
      <trkpt lat="28.4792370" lon="-16.3353970">
        <ele>600.9</ele>
        <time>2020-11-11T09:53:48Z</time>
      </trkpt>
      <trkpt lat="28.4792720" lon="-16.3354970">
        <ele>600.9</ele>
        <time>2020-11-11T09:53:49Z</time>
      </trkpt>
      <trkpt lat="28.4792720" lon="-16.3354970">
        <ele>600.9</ele>
        <time>2020-11-11T09:53:50Z</time>
      </trkpt>
      <trkpt lat="28.4793030" lon="-16.3355950">
        <ele>600.9</ele>
        <time>2020-11-11T09:53:51Z</time>
      </trkpt>
      <trkpt lat="28.4793030" lon="-16.3355950">
        <ele>600.9</ele>
        <time>2020-11-11T09:53:52Z</time>
      </trkpt>
      <trkpt lat="28.4793330" lon="-16.3356920">
        <ele>600.9</ele>
        <time>2020-11-11T09:53:53Z</time>
      </trkpt>
      <trkpt lat="28.4793330" lon="-16.3356920">
        <ele>600.9</ele>
        <time>2020-11-11T09:53:54Z</time>
      </trkpt>
      <trkpt lat="28.4793670" lon="-16.3357920">
        <ele>600.9</ele>
        <time>2020-11-11T09:53:55Z</time>
      </trkpt>
      <trkpt lat="28.4793670" lon="-16.3357920">
        <ele>600.9</ele>
        <time>2020-11-11T09:53:56Z</time>
      </trkpt>
      <trkpt lat="28.4794030" lon="-16.3358920">
        <ele>600.9</ele>
        <time>2020-11-11T09:53:57Z</time>
      </trkpt>
      <trkpt lat="28.4794030" lon="-16.3358920">
        <ele>600.9</ele>
        <time>2020-11-11T09:53:58Z</time>
      </trkpt>
      <trkpt lat="28.4794380" lon="-16.3359950">
        <ele>600.9</ele>
        <time>2020-11-11T09:53:59Z</time>
      </trkpt>
      <trkpt lat="28.4794380" lon="-16.3359950">
        <ele>600.9</ele>
        <time>2020-11-11T09:54:00Z</time>
      </trkpt>
      <trkpt lat="28.4794700" lon="-16.3361000">
        <ele>600.9</ele>
        <time>2020-11-11T09:54:01Z</time>
      </trkpt>
      <trkpt lat="28.4794700" lon="-16.3361000">
        <ele>600.9</ele>
        <time>2020-11-11T09:54:02Z</time>
      </trkpt>
      <trkpt lat="28.4795050" lon="-16.3362080">
        <ele>600.9</ele>
        <time>2020-11-11T09:54:03Z</time>
      </trkpt>
      <trkpt lat="28.4795230" lon="-16.3362620">
        <ele>600.9</ele>
        <time>2020-11-11T09:54:04Z</time>
      </trkpt>
      <trkpt lat="28.4795230" lon="-16.3362620">
        <ele>600.9</ele>
        <time>2020-11-11T09:54:05Z</time>
      </trkpt>
      <trkpt lat="28.4795580" lon="-16.3363680">
        <ele>600.9</ele>
        <time>2020-11-11T09:54:06Z</time>
      </trkpt>
      <trkpt lat="28.4795580" lon="-16.3363680">
        <ele>600.9</ele>
        <time>2020-11-11T09:54:07Z</time>
      </trkpt>
      <trkpt lat="28.4795920" lon="-16.3364730">
        <ele>600.9</ele>
        <time>2020-11-11T09:54:08Z</time>
      </trkpt>
      <trkpt lat="28.4795920" lon="-16.3364730">
        <ele>600.9</ele>
        <time>2020-11-11T09:54:09Z</time>
      </trkpt>
      <trkpt lat="28.4796280" lon="-16.3365800">
        <ele>600.9</ele>
        <time>2020-11-11T09:54:10Z</time>
      </trkpt>
      <trkpt lat="28.4796280" lon="-16.3365800">
        <ele>600.9</ele>
        <time>2020-11-11T09:54:11Z</time>
      </trkpt>
      <trkpt lat="28.4796630" lon="-16.3366900">
        <ele>600.9</ele>
        <time>2020-11-11T09:54:12Z</time>
      </trkpt>
      <trkpt lat="28.4796820" lon="-16.3367450">
        <ele>600.9</ele>
        <time>2020-11-11T09:54:13Z</time>
      </trkpt>
      <trkpt lat="28.4796820" lon="-16.3367450">
        <ele>600.9</ele>
        <time>2020-11-11T09:54:14Z</time>
      </trkpt>
      <trkpt lat="28.4797220" lon="-16.3368550">
        <ele>600.9</ele>
        <time>2020-11-11T09:54:15Z</time>
      </trkpt>
      <trkpt lat="28.4797380" lon="-16.3369120">
        <ele>600.9</ele>
        <time>2020-11-11T09:54:16Z</time>
      </trkpt>
      <trkpt lat="28.4797380" lon="-16.3369120">
        <ele>600.9</ele>
        <time>2020-11-11T09:54:17Z</time>
      </trkpt>
      <trkpt lat="28.4797750" lon="-16.3370230">
        <ele>600.9</ele>
        <time>2020-11-11T09:54:18Z</time>
      </trkpt>
      <trkpt lat="28.4797750" lon="-16.3370230">
        <ele>600.9</ele>
        <time>2020-11-11T09:54:19Z</time>
      </trkpt>
      <trkpt lat="28.4798150" lon="-16.3371330">
        <ele>600.9</ele>
        <time>2020-11-11T09:54:20Z</time>
      </trkpt>
      <trkpt lat="28.4798150" lon="-16.3371330">
        <ele>600.9</ele>
        <time>2020-11-11T09:54:21Z</time>
      </trkpt>
      <trkpt lat="28.4798520" lon="-16.3372470">
        <ele>600.9</ele>
        <time>2020-11-11T09:54:22Z</time>
      </trkpt>
      <trkpt lat="28.4798520" lon="-16.3372470">
        <ele>600.9</ele>
        <time>2020-11-11T09:54:23Z</time>
      </trkpt>
      <trkpt lat="28.4798900" lon="-16.3373580">
        <ele>600.9</ele>
        <time>2020-11-11T09:54:24Z</time>
      </trkpt>
      <trkpt lat="28.4799080" lon="-16.3374130">
        <ele>600.9</ele>
        <time>2020-11-11T09:54:25Z</time>
      </trkpt>
      <trkpt lat="28.4799080" lon="-16.3374130">
        <ele>600.9</ele>
        <time>2020-11-11T09:54:26Z</time>
      </trkpt>
      <trkpt lat="28.4799470" lon="-16.3375230">
        <ele>600.9</ele>
        <time>2020-11-11T09:54:27Z</time>
      </trkpt>
      <trkpt lat="28.4799650" lon="-16.3375780">
        <ele>600.9</ele>
        <time>2020-11-11T09:54:28Z</time>
      </trkpt>
      <trkpt lat="28.4799650" lon="-16.3375780">
        <ele>600.9</ele>
        <time>2020-11-11T09:54:29Z</time>
      </trkpt>
      <trkpt lat="28.4800030" lon="-16.3376850">
        <ele>600.9</ele>
        <time>2020-11-11T09:54:30Z</time>
      </trkpt>
      <trkpt lat="28.4800030" lon="-16.3376850">
        <ele>600.9</ele>
        <time>2020-11-11T09:54:31Z</time>
      </trkpt>
      <trkpt lat="28.4800370" lon="-16.3377920">
        <ele>600.9</ele>
        <time>2020-11-11T09:54:32Z</time>
      </trkpt>
      <trkpt lat="28.4800370" lon="-16.3377920">
        <ele>600.9</ele>
        <time>2020-11-11T09:54:33Z</time>
      </trkpt>
      <trkpt lat="28.4800720" lon="-16.3378980">
        <ele>600.9</ele>
        <time>2020-11-11T09:54:34Z</time>
      </trkpt>
      <trkpt lat="28.4800720" lon="-16.3378980">
        <ele>600.9</ele>
        <time>2020-11-11T09:54:35Z</time>
      </trkpt>
      <trkpt lat="28.4801080" lon="-16.3380030">
        <ele>600.9</ele>
        <time>2020-11-11T09:54:36Z</time>
      </trkpt>
      <trkpt lat="28.4801080" lon="-16.3380030">
        <ele>600.9</ele>
        <time>2020-11-11T09:54:37Z</time>
      </trkpt>
      <trkpt lat="28.4801450" lon="-16.3381100">
        <ele>600.9</ele>
        <time>2020-11-11T09:54:38Z</time>
      </trkpt>
      <trkpt lat="28.4801450" lon="-16.3381100">
        <ele>600.9</ele>
        <time>2020-11-11T09:54:39Z</time>
      </trkpt>
      <trkpt lat="28.4801820" lon="-16.3382200">
        <ele>600.9</ele>
        <time>2020-11-11T09:54:40Z</time>
      </trkpt>
      <trkpt lat="28.4801820" lon="-16.3382200">
        <ele>600.9</ele>
        <time>2020-11-11T09:54:41Z</time>
      </trkpt>
      <trkpt lat="28.4802220" lon="-16.3383320">
        <ele>600.9</ele>
        <time>2020-11-11T09:54:42Z</time>
      </trkpt>
      <trkpt lat="28.4802400" lon="-16.3383870">
        <ele>600.9</ele>
        <time>2020-11-11T09:54:43Z</time>
      </trkpt>
      <trkpt lat="28.4802400" lon="-16.3383870">
        <ele>600.9</ele>
        <time>2020-11-11T09:54:44Z</time>
      </trkpt>
      <trkpt lat="28.4802780" lon="-16.3385000">
        <ele>600.9</ele>
        <time>2020-11-11T09:54:45Z</time>
      </trkpt>
      <trkpt lat="28.4802780" lon="-16.3385000">
        <ele>600.9</ele>
        <time>2020-11-11T09:54:46Z</time>
      </trkpt>
      <trkpt lat="28.4803170" lon="-16.3386130">
        <ele>600.9</ele>
        <time>2020-11-11T09:54:47Z</time>
      </trkpt>
      <trkpt lat="28.4803170" lon="-16.3386130">
        <ele>600.9</ele>
        <time>2020-11-11T09:54:48Z</time>
      </trkpt>
      <trkpt lat="28.4803550" lon="-16.3387270">
        <ele>600.9</ele>
        <time>2020-11-11T09:54:49Z</time>
      </trkpt>
      <trkpt lat="28.4803550" lon="-16.3387270">
        <ele>600.9</ele>
        <time>2020-11-11T09:54:50Z</time>
      </trkpt>
      <trkpt lat="28.4803920" lon="-16.3388430">
        <ele>600.9</ele>
        <time>2020-11-11T09:54:51Z</time>
      </trkpt>
      <trkpt lat="28.4803920" lon="-16.3388430">
        <ele>600.9</ele>
        <time>2020-11-11T09:54:52Z</time>
      </trkpt>
      <trkpt lat="28.4804320" lon="-16.3389620">
        <ele>600.9</ele>
        <time>2020-11-11T09:54:53Z</time>
      </trkpt>
      <trkpt lat="28.4804320" lon="-16.3389620">
        <ele>600.9</ele>
        <time>2020-11-11T09:54:54Z</time>
      </trkpt>
      <trkpt lat="28.4804700" lon="-16.3390800">
        <ele>600.9</ele>
        <time>2020-11-11T09:54:55Z</time>
      </trkpt>
      <trkpt lat="28.4804700" lon="-16.3390800">
        <ele>600.9</ele>
        <time>2020-11-11T09:54:56Z</time>
      </trkpt>
      <trkpt lat="28.4805100" lon="-16.3391970">
        <ele>600.9</ele>
        <time>2020-11-11T09:54:57Z</time>
      </trkpt>
      <trkpt lat="28.4805300" lon="-16.3392570">
        <ele>600.9</ele>
        <time>2020-11-11T09:54:58Z</time>
      </trkpt>
      <trkpt lat="28.4805300" lon="-16.3392570">
        <ele>600.9</ele>
        <time>2020-11-11T09:54:59Z</time>
      </trkpt>
      <trkpt lat="28.4805700" lon="-16.3393750">
        <ele>600.9</ele>
        <time>2020-11-11T09:55:00Z</time>
      </trkpt>
      <trkpt lat="28.4805900" lon="-16.3394350">
        <ele>600.9</ele>
        <time>2020-11-11T09:55:01Z</time>
      </trkpt>
      <trkpt lat="28.4805900" lon="-16.3394350">
        <ele>600.9</ele>
        <time>2020-11-11T09:55:02Z</time>
      </trkpt>
      <trkpt lat="28.4806320" lon="-16.3395570">
        <ele>600.9</ele>
        <time>2020-11-11T09:55:03Z</time>
      </trkpt>
      <trkpt lat="28.4806530" lon="-16.3396180">
        <ele>600.9</ele>
        <time>2020-11-11T09:55:04Z</time>
      </trkpt>
      <trkpt lat="28.4806530" lon="-16.3396180">
        <ele>600.9</ele>
        <time>2020-11-11T09:55:05Z</time>
      </trkpt>
      <trkpt lat="28.4806920" lon="-16.3397420">
        <ele>600.9</ele>
        <time>2020-11-11T09:55:06Z</time>
      </trkpt>
      <trkpt lat="28.4806920" lon="-16.3397420">
        <ele>600.9</ele>
        <time>2020-11-11T09:55:07Z</time>
      </trkpt>
      <trkpt lat="28.4807330" lon="-16.3398630">
        <ele>600.9</ele>
        <time>2020-11-11T09:55:08Z</time>
      </trkpt>
      <trkpt lat="28.4807330" lon="-16.3398630">
        <ele>600.9</ele>
        <time>2020-11-11T09:55:09Z</time>
      </trkpt>
      <trkpt lat="28.4807770" lon="-16.3399880">
        <ele>600.9</ele>
        <time>2020-11-11T09:55:10Z</time>
      </trkpt>
      <trkpt lat="28.4807770" lon="-16.3399880">
        <ele>600.9</ele>
        <time>2020-11-11T09:55:11Z</time>
      </trkpt>
      <trkpt lat="28.4808200" lon="-16.3401120">
        <ele>600.9</ele>
        <time>2020-11-11T09:55:12Z</time>
      </trkpt>
      <trkpt lat="28.4808200" lon="-16.3401120">
        <ele>600.9</ele>
        <time>2020-11-11T09:55:13Z</time>
      </trkpt>
      <trkpt lat="28.4808620" lon="-16.3402370">
        <ele>600.9</ele>
        <time>2020-11-11T09:55:14Z</time>
      </trkpt>
      <trkpt lat="28.4808830" lon="-16.3402980">
        <ele>600.9</ele>
        <time>2020-11-11T09:55:15Z</time>
      </trkpt>
      <trkpt lat="28.4808830" lon="-16.3402980">
        <ele>600.9</ele>
        <time>2020-11-11T09:55:16Z</time>
      </trkpt>
      <trkpt lat="28.4809250" lon="-16.3404200">
        <ele>600.9</ele>
        <time>2020-11-11T09:55:17Z</time>
      </trkpt>
      <trkpt lat="28.4809250" lon="-16.3404200">
        <ele>600.9</ele>
        <time>2020-11-11T09:55:18Z</time>
      </trkpt>
      <trkpt lat="28.4809670" lon="-16.3405420">
        <ele>600.9</ele>
        <time>2020-11-11T09:55:19Z</time>
      </trkpt>
      <trkpt lat="28.4809870" lon="-16.3406020">
        <ele>600.9</ele>
        <time>2020-11-11T09:55:20Z</time>
      </trkpt>
      <trkpt lat="28.4809870" lon="-16.3406020">
        <ele>600.9</ele>
        <time>2020-11-11T09:55:21Z</time>
      </trkpt>
      <trkpt lat="28.4810250" lon="-16.3407200">
        <ele>600.9</ele>
        <time>2020-11-11T09:55:22Z</time>
      </trkpt>
      <trkpt lat="28.4810250" lon="-16.3407200">
        <ele>600.9</ele>
        <time>2020-11-11T09:55:23Z</time>
      </trkpt>
      <trkpt lat="28.4810650" lon="-16.3408350">
        <ele>600.9</ele>
        <time>2020-11-11T09:55:24Z</time>
      </trkpt>
      <trkpt lat="28.4810650" lon="-16.3408350">
        <ele>600.9</ele>
        <time>2020-11-11T09:55:25Z</time>
      </trkpt>
      <trkpt lat="28.4811050" lon="-16.3409480">
        <ele>600.9</ele>
        <time>2020-11-11T09:55:26Z</time>
      </trkpt>
      <trkpt lat="28.4811050" lon="-16.3409480">
        <ele>600.9</ele>
        <time>2020-11-11T09:55:27Z</time>
      </trkpt>
      <trkpt lat="28.4811420" lon="-16.3410670">
        <ele>600.9</ele>
        <time>2020-11-11T09:55:28Z</time>
      </trkpt>
      <trkpt lat="28.4811620" lon="-16.3411300">
        <ele>600.9</ele>
        <time>2020-11-11T09:55:29Z</time>
      </trkpt>
      <trkpt lat="28.4811620" lon="-16.3411300">
        <ele>600.9</ele>
        <time>2020-11-11T09:55:30Z</time>
      </trkpt>
      <trkpt lat="28.4812030" lon="-16.3412570">
        <ele>600.9</ele>
        <time>2020-11-11T09:55:31Z</time>
      </trkpt>
      <trkpt lat="28.4812030" lon="-16.3412570">
        <ele>600.9</ele>
        <time>2020-11-11T09:55:32Z</time>
      </trkpt>
      <trkpt lat="28.4812470" lon="-16.3413820">
        <ele>600.9</ele>
        <time>2020-11-11T09:55:33Z</time>
      </trkpt>
      <trkpt lat="28.4812470" lon="-16.3413820">
        <ele>600.9</ele>
        <time>2020-11-11T09:55:34Z</time>
      </trkpt>
      <trkpt lat="28.4812900" lon="-16.3415080">
        <ele>600.9</ele>
        <time>2020-11-11T09:55:35Z</time>
      </trkpt>
      <trkpt lat="28.4813120" lon="-16.3415720">
        <ele>600.9</ele>
        <time>2020-11-11T09:55:36Z</time>
      </trkpt>
      <trkpt lat="28.4813120" lon="-16.3415720">
        <ele>600.9</ele>
        <time>2020-11-11T09:55:37Z</time>
      </trkpt>
      <trkpt lat="28.4813530" lon="-16.3416970">
        <ele>600.9</ele>
        <time>2020-11-11T09:55:38Z</time>
      </trkpt>
      <trkpt lat="28.4813530" lon="-16.3416970">
        <ele>600.9</ele>
        <time>2020-11-11T09:55:39Z</time>
      </trkpt>
      <trkpt lat="28.4813930" lon="-16.3418180">
        <ele>600.9</ele>
        <time>2020-11-11T09:55:40Z</time>
      </trkpt>
      <trkpt lat="28.4813930" lon="-16.3418180">
        <ele>600.9</ele>
        <time>2020-11-11T09:55:41Z</time>
      </trkpt>
      <trkpt lat="28.4814300" lon="-16.3419400">
        <ele>600.9</ele>
        <time>2020-11-11T09:55:42Z</time>
      </trkpt>
      <trkpt lat="28.4814500" lon="-16.3420000">
        <ele>600.9</ele>
        <time>2020-11-11T09:55:43Z</time>
      </trkpt>
      <trkpt lat="28.4814500" lon="-16.3420000">
        <ele>600.9</ele>
        <time>2020-11-11T09:55:44Z</time>
      </trkpt>
      <trkpt lat="28.4814920" lon="-16.3421150">
        <ele>600.9</ele>
        <time>2020-11-11T09:55:45Z</time>
      </trkpt>
      <trkpt lat="28.4814920" lon="-16.3421150">
        <ele>601.9</ele>
        <time>2020-11-11T09:55:46Z</time>
      </trkpt>
      <trkpt lat="28.4815320" lon="-16.3422270">
        <ele>601.9</ele>
        <time>2020-11-11T09:55:47Z</time>
      </trkpt>
      <trkpt lat="28.4815320" lon="-16.3422270">
        <ele>601.9</ele>
        <time>2020-11-11T09:55:48Z</time>
      </trkpt>
      <trkpt lat="28.4815670" lon="-16.3423350">
        <ele>601.9</ele>
        <time>2020-11-11T09:55:49Z</time>
      </trkpt>
      <trkpt lat="28.4815670" lon="-16.3423350">
        <ele>601.9</ele>
        <time>2020-11-11T09:55:50Z</time>
      </trkpt>
      <trkpt lat="28.4816030" lon="-16.3424420">
        <ele>601.9</ele>
        <time>2020-11-11T09:55:51Z</time>
      </trkpt>
      <trkpt lat="28.4816200" lon="-16.3424930">
        <ele>601.9</ele>
        <time>2020-11-11T09:55:52Z</time>
      </trkpt>
      <trkpt lat="28.4816200" lon="-16.3424930">
        <ele>601.9</ele>
        <time>2020-11-11T09:55:53Z</time>
      </trkpt>
      <trkpt lat="28.4816530" lon="-16.3425980">
        <ele>602.9</ele>
        <time>2020-11-11T09:55:54Z</time>
      </trkpt>
      <trkpt lat="28.4816680" lon="-16.3426500">
        <ele>602.9</ele>
        <time>2020-11-11T09:55:55Z</time>
      </trkpt>
      <trkpt lat="28.4816680" lon="-16.3426500">
        <ele>602.9</ele>
        <time>2020-11-11T09:55:56Z</time>
      </trkpt>
      <trkpt lat="28.4816980" lon="-16.3427530">
        <ele>602.9</ele>
        <time>2020-11-11T09:55:57Z</time>
      </trkpt>
      <trkpt lat="28.4817130" lon="-16.3428050">
        <ele>602.9</ele>
        <time>2020-11-11T09:55:58Z</time>
      </trkpt>
      <trkpt lat="28.4817130" lon="-16.3428050">
        <ele>602.9</ele>
        <time>2020-11-11T09:55:59Z</time>
      </trkpt>
      <trkpt lat="28.4817500" lon="-16.3429030">
        <ele>602.9</ele>
        <time>2020-11-11T09:56:00Z</time>
      </trkpt>
      <trkpt lat="28.4817500" lon="-16.3429030">
        <ele>603.9</ele>
        <time>2020-11-11T09:56:01Z</time>
      </trkpt>
      <trkpt lat="28.4817820" lon="-16.3430030">
        <ele>603.9</ele>
        <time>2020-11-11T09:56:02Z</time>
      </trkpt>
      <trkpt lat="28.4817820" lon="-16.3430030">
        <ele>603.9</ele>
        <time>2020-11-11T09:56:03Z</time>
      </trkpt>
      <trkpt lat="28.4818130" lon="-16.3430970">
        <ele>603.9</ele>
        <time>2020-11-11T09:56:04Z</time>
      </trkpt>
      <trkpt lat="28.4818130" lon="-16.3430970">
        <ele>603.9</ele>
        <time>2020-11-11T09:56:05Z</time>
      </trkpt>
      <trkpt lat="28.4818500" lon="-16.3431880">
        <ele>603.9</ele>
        <time>2020-11-11T09:56:06Z</time>
      </trkpt>
      <trkpt lat="28.4818700" lon="-16.3432350">
        <ele>604.9</ele>
        <time>2020-11-11T09:56:07Z</time>
      </trkpt>
      <trkpt lat="28.4818700" lon="-16.3432350">
        <ele>604.9</ele>
        <time>2020-11-11T09:56:08Z</time>
      </trkpt>
      <trkpt lat="28.4819030" lon="-16.3433300">
        <ele>604.9</ele>
        <time>2020-11-11T09:56:09Z</time>
      </trkpt>
      <trkpt lat="28.4819170" lon="-16.3433780">
        <ele>604.9</ele>
        <time>2020-11-11T09:56:10Z</time>
      </trkpt>
      <trkpt lat="28.4819170" lon="-16.3433780">
        <ele>604.9</ele>
        <time>2020-11-11T09:56:11Z</time>
      </trkpt>
      <trkpt lat="28.4819470" lon="-16.3434700">
        <ele>604.9</ele>
        <time>2020-11-11T09:56:12Z</time>
      </trkpt>
      <trkpt lat="28.4819470" lon="-16.3434700">
        <ele>604.9</ele>
        <time>2020-11-11T09:56:13Z</time>
      </trkpt>
      <trkpt lat="28.4819750" lon="-16.3435620">
        <ele>604.9</ele>
        <time>2020-11-11T09:56:14Z</time>
      </trkpt>
      <trkpt lat="28.4819750" lon="-16.3435620">
        <ele>605.9</ele>
        <time>2020-11-11T09:56:15Z</time>
      </trkpt>
      <trkpt lat="28.4820000" lon="-16.3436530">
        <ele>605.9</ele>
        <time>2020-11-11T09:56:16Z</time>
      </trkpt>
      <trkpt lat="28.4820080" lon="-16.3437000">
        <ele>605.9</ele>
        <time>2020-11-11T09:56:17Z</time>
      </trkpt>
      <trkpt lat="28.4820080" lon="-16.3437000">
        <ele>605.9</ele>
        <time>2020-11-11T09:56:18Z</time>
      </trkpt>
      <trkpt lat="28.4820170" lon="-16.3437950">
        <ele>605.9</ele>
        <time>2020-11-11T09:56:19Z</time>
      </trkpt>
      <trkpt lat="28.4820170" lon="-16.3437950">
        <ele>605.9</ele>
        <time>2020-11-11T09:56:20Z</time>
      </trkpt>
      <trkpt lat="28.4820100" lon="-16.3438850">
        <ele>605.9</ele>
        <time>2020-11-11T09:56:21Z</time>
      </trkpt>
      <trkpt lat="28.4820100" lon="-16.3438850">
        <ele>605.9</ele>
        <time>2020-11-11T09:56:22Z</time>
      </trkpt>
      <trkpt lat="28.4819980" lon="-16.3439700">
        <ele>605.9</ele>
        <time>2020-11-11T09:56:23Z</time>
      </trkpt>
      <trkpt lat="28.4819920" lon="-16.3440120">
        <ele>605.9</ele>
        <time>2020-11-11T09:56:24Z</time>
      </trkpt>
      <trkpt lat="28.4819920" lon="-16.3440120">
        <ele>605.9</ele>
        <time>2020-11-11T09:56:25Z</time>
      </trkpt>
      <trkpt lat="28.4819720" lon="-16.3440920">
        <ele>605.9</ele>
        <time>2020-11-11T09:56:26Z</time>
      </trkpt>
      <trkpt lat="28.4819720" lon="-16.3440920">
        <ele>605.9</ele>
        <time>2020-11-11T09:56:27Z</time>
      </trkpt>
      <trkpt lat="28.4819500" lon="-16.3441770">
        <ele>606.9</ele>
        <time>2020-11-11T09:56:28Z</time>
      </trkpt>
      <trkpt lat="28.4819500" lon="-16.3441770">
        <ele>606.9</ele>
        <time>2020-11-11T09:56:29Z</time>
      </trkpt>
      <trkpt lat="28.4819320" lon="-16.3442570">
        <ele>606.9</ele>
        <time>2020-11-11T09:56:30Z</time>
      </trkpt>
      <trkpt lat="28.4819320" lon="-16.3442570">
        <ele>606.9</ele>
        <time>2020-11-11T09:56:31Z</time>
      </trkpt>
      <trkpt lat="28.4819150" lon="-16.3443380">
        <ele>606.9</ele>
        <time>2020-11-11T09:56:32Z</time>
      </trkpt>
      <trkpt lat="28.4819150" lon="-16.3443380">
        <ele>607.9</ele>
        <time>2020-11-11T09:56:33Z</time>
      </trkpt>
      <trkpt lat="28.4818920" lon="-16.3444130">
        <ele>607.9</ele>
        <time>2020-11-11T09:56:34Z</time>
      </trkpt>
      <trkpt lat="28.4818780" lon="-16.3444520">
        <ele>607.9</ele>
        <time>2020-11-11T09:56:35Z</time>
      </trkpt>
      <trkpt lat="28.4818780" lon="-16.3444520">
        <ele>607.9</ele>
        <time>2020-11-11T09:56:36Z</time>
      </trkpt>
      <trkpt lat="28.4818630" lon="-16.3445270">
        <ele>608.9</ele>
        <time>2020-11-11T09:56:37Z</time>
      </trkpt>
      <trkpt lat="28.4818630" lon="-16.3445270">
        <ele>608.9</ele>
        <time>2020-11-11T09:56:38Z</time>
      </trkpt>
      <trkpt lat="28.4818520" lon="-16.3445980">
        <ele>608.9</ele>
        <time>2020-11-11T09:56:39Z</time>
      </trkpt>
      <trkpt lat="28.4818430" lon="-16.3446330">
        <ele>608.9</ele>
        <time>2020-11-11T09:56:40Z</time>
      </trkpt>
      <trkpt lat="28.4818430" lon="-16.3446330">
        <ele>609.9</ele>
        <time>2020-11-11T09:56:41Z</time>
      </trkpt>
      <trkpt lat="28.4818300" lon="-16.3447030">
        <ele>609.9</ele>
        <time>2020-11-11T09:56:42Z</time>
      </trkpt>
      <trkpt lat="28.4818230" lon="-16.3447380">
        <ele>609.9</ele>
        <time>2020-11-11T09:56:43Z</time>
      </trkpt>
      <trkpt lat="28.4818230" lon="-16.3447380">
        <ele>609.9</ele>
        <time>2020-11-11T09:56:44Z</time>
      </trkpt>
      <trkpt lat="28.4818050" lon="-16.3448080">
        <ele>609.9</ele>
        <time>2020-11-11T09:56:45Z</time>
      </trkpt>
      <trkpt lat="28.4818050" lon="-16.3448080">
        <ele>609.9</ele>
        <time>2020-11-11T09:56:46Z</time>
      </trkpt>
      <trkpt lat="28.4817920" lon="-16.3448750">
        <ele>610.9</ele>
        <time>2020-11-11T09:56:47Z</time>
      </trkpt>
      <trkpt lat="28.4817920" lon="-16.3448750">
        <ele>610.9</ele>
        <time>2020-11-11T09:56:48Z</time>
      </trkpt>
      <trkpt lat="28.4817780" lon="-16.3449430">
        <ele>610.9</ele>
        <time>2020-11-11T09:56:49Z</time>
      </trkpt>
      <trkpt lat="28.4817780" lon="-16.3449430">
        <ele>610.9</ele>
        <time>2020-11-11T09:56:50Z</time>
      </trkpt>
      <trkpt lat="28.4817630" lon="-16.3450120">
        <ele>611.9</ele>
        <time>2020-11-11T09:56:51Z</time>
      </trkpt>
      <trkpt lat="28.4817630" lon="-16.3450120">
        <ele>611.9</ele>
        <time>2020-11-11T09:56:52Z</time>
      </trkpt>
      <trkpt lat="28.4817500" lon="-16.3450820">
        <ele>611.9</ele>
        <time>2020-11-11T09:56:53Z</time>
      </trkpt>
      <trkpt lat="28.4817500" lon="-16.3450820">
        <ele>611.9</ele>
        <time>2020-11-11T09:56:54Z</time>
      </trkpt>
      <trkpt lat="28.4817420" lon="-16.3451500">
        <ele>611.9</ele>
        <time>2020-11-11T09:56:55Z</time>
      </trkpt>
      <trkpt lat="28.4817420" lon="-16.3451500">
        <ele>611.9</ele>
        <time>2020-11-11T09:56:56Z</time>
      </trkpt>
      <trkpt lat="28.4817280" lon="-16.3452200">
        <ele>612.9</ele>
        <time>2020-11-11T09:56:57Z</time>
      </trkpt>
      <trkpt lat="28.4817230" lon="-16.3452550">
        <ele>612.9</ele>
        <time>2020-11-11T09:56:58Z</time>
      </trkpt>
      <trkpt lat="28.4817230" lon="-16.3452550">
        <ele>612.9</ele>
        <time>2020-11-11T09:56:59Z</time>
      </trkpt>
      <trkpt lat="28.4817170" lon="-16.3453220">
        <ele>612.9</ele>
        <time>2020-11-11T09:57:00Z</time>
      </trkpt>
      <trkpt lat="28.4817150" lon="-16.3453550">
        <ele>612.9</ele>
        <time>2020-11-11T09:57:01Z</time>
      </trkpt>
      <trkpt lat="28.4817150" lon="-16.3453550">
        <ele>612.9</ele>
        <time>2020-11-11T09:57:02Z</time>
      </trkpt>
      <trkpt lat="28.4817030" lon="-16.3454230">
        <ele>613.9</ele>
        <time>2020-11-11T09:57:03Z</time>
      </trkpt>
      <trkpt lat="28.4816970" lon="-16.3454600">
        <ele>613.9</ele>
        <time>2020-11-11T09:57:04Z</time>
      </trkpt>
      <trkpt lat="28.4816970" lon="-16.3454600">
        <ele>613.9</ele>
        <time>2020-11-11T09:57:05Z</time>
      </trkpt>
      <trkpt lat="28.4816780" lon="-16.3455270">
        <ele>613.9</ele>
        <time>2020-11-11T09:57:06Z</time>
      </trkpt>
      <trkpt lat="28.4816730" lon="-16.3455580">
        <ele>614.9</ele>
        <time>2020-11-11T09:57:07Z</time>
      </trkpt>
      <trkpt lat="28.4816730" lon="-16.3455580">
        <ele>614.9</ele>
        <time>2020-11-11T09:57:08Z</time>
      </trkpt>
      <trkpt lat="28.4816650" lon="-16.3456150">
        <ele>614.9</ele>
        <time>2020-11-11T09:57:09Z</time>
      </trkpt>
      <trkpt lat="28.4816650" lon="-16.3456150">
        <ele>614.9</ele>
        <time>2020-11-11T09:57:10Z</time>
      </trkpt>
      <trkpt lat="28.4816570" lon="-16.3456770">
        <ele>614.9</ele>
        <time>2020-11-11T09:57:11Z</time>
      </trkpt>
      <trkpt lat="28.4816570" lon="-16.3456770">
        <ele>614.9</ele>
        <time>2020-11-11T09:57:12Z</time>
      </trkpt>
      <trkpt lat="28.4816450" lon="-16.3457380">
        <ele>614.9</ele>
        <time>2020-11-11T09:57:13Z</time>
      </trkpt>
      <trkpt lat="28.4816450" lon="-16.3457380">
        <ele>614.9</ele>
        <time>2020-11-11T09:57:14Z</time>
      </trkpt>
      <trkpt lat="28.4816380" lon="-16.3458000">
        <ele>614.9</ele>
        <time>2020-11-11T09:57:15Z</time>
      </trkpt>
      <trkpt lat="28.4816380" lon="-16.3458000">
        <ele>614.9</ele>
        <time>2020-11-11T09:57:16Z</time>
      </trkpt>
      <trkpt lat="28.4816370" lon="-16.3458650">
        <ele>615.9</ele>
        <time>2020-11-11T09:57:17Z</time>
      </trkpt>
      <trkpt lat="28.4816370" lon="-16.3458650">
        <ele>615.9</ele>
        <time>2020-11-11T09:57:18Z</time>
      </trkpt>
      <trkpt lat="28.4816300" lon="-16.3459300">
        <ele>615.9</ele>
        <time>2020-11-11T09:57:19Z</time>
      </trkpt>
      <trkpt lat="28.4816300" lon="-16.3459300">
        <ele>615.9</ele>
        <time>2020-11-11T09:57:20Z</time>
      </trkpt>
      <trkpt lat="28.4816270" lon="-16.3459980">
        <ele>615.9</ele>
        <time>2020-11-11T09:57:21Z</time>
      </trkpt>
      <trkpt lat="28.4816270" lon="-16.3459980">
        <ele>615.9</ele>
        <time>2020-11-11T09:57:22Z</time>
      </trkpt>
      <trkpt lat="28.4816220" lon="-16.3460680">
        <ele>615.9</ele>
        <time>2020-11-11T09:57:23Z</time>
      </trkpt>
      <trkpt lat="28.4816220" lon="-16.3460680">
        <ele>615.9</ele>
        <time>2020-11-11T09:57:24Z</time>
      </trkpt>
      <trkpt lat="28.4816120" lon="-16.3461380">
        <ele>616.9</ele>
        <time>2020-11-11T09:57:25Z</time>
      </trkpt>
      <trkpt lat="28.4816120" lon="-16.3461380">
        <ele>616.9</ele>
        <time>2020-11-11T09:57:26Z</time>
      </trkpt>
      <trkpt lat="28.4816050" lon="-16.3462120">
        <ele>616.9</ele>
        <time>2020-11-11T09:57:27Z</time>
      </trkpt>
      <trkpt lat="28.4816030" lon="-16.3462500">
        <ele>616.9</ele>
        <time>2020-11-11T09:57:28Z</time>
      </trkpt>
      <trkpt lat="28.4816030" lon="-16.3462500">
        <ele>616.9</ele>
        <time>2020-11-11T09:57:29Z</time>
      </trkpt>
      <trkpt lat="28.4815950" lon="-16.3463200">
        <ele>616.9</ele>
        <time>2020-11-11T09:57:30Z</time>
      </trkpt>
      <trkpt lat="28.4815900" lon="-16.3463570">
        <ele>616.9</ele>
        <time>2020-11-11T09:57:31Z</time>
      </trkpt>
      <trkpt lat="28.4815900" lon="-16.3463570">
        <ele>616.9</ele>
        <time>2020-11-11T09:57:32Z</time>
      </trkpt>
      <trkpt lat="28.4815880" lon="-16.3464320">
        <ele>617.9</ele>
        <time>2020-11-11T09:57:33Z</time>
      </trkpt>
      <trkpt lat="28.4815880" lon="-16.3464700">
        <ele>617.9</ele>
        <time>2020-11-11T09:57:34Z</time>
      </trkpt>
      <trkpt lat="28.4815880" lon="-16.3464700">
        <ele>617.9</ele>
        <time>2020-11-11T09:57:35Z</time>
      </trkpt>
      <trkpt lat="28.4815830" lon="-16.3465420">
        <ele>617.9</ele>
        <time>2020-11-11T09:57:36Z</time>
      </trkpt>
      <trkpt lat="28.4815830" lon="-16.3465420">
        <ele>618.9</ele>
        <time>2020-11-11T09:57:37Z</time>
      </trkpt>
      <trkpt lat="28.4815780" lon="-16.3466180">
        <ele>618.9</ele>
        <time>2020-11-11T09:57:38Z</time>
      </trkpt>
      <trkpt lat="28.4815770" lon="-16.3466550">
        <ele>618.9</ele>
        <time>2020-11-11T09:57:39Z</time>
      </trkpt>
      <trkpt lat="28.4815770" lon="-16.3466550">
        <ele>618.9</ele>
        <time>2020-11-11T09:57:40Z</time>
      </trkpt>
      <trkpt lat="28.4815720" lon="-16.3467280">
        <ele>618.9</ele>
        <time>2020-11-11T09:57:41Z</time>
      </trkpt>
      <trkpt lat="28.4815720" lon="-16.3467280">
        <ele>618.9</ele>
        <time>2020-11-11T09:57:42Z</time>
      </trkpt>
      <trkpt lat="28.4815670" lon="-16.3468030">
        <ele>618.9</ele>
        <time>2020-11-11T09:57:43Z</time>
      </trkpt>
      <trkpt lat="28.4815670" lon="-16.3468030">
        <ele>618.9</ele>
        <time>2020-11-11T09:57:44Z</time>
      </trkpt>
      <trkpt lat="28.4815620" lon="-16.3468770">
        <ele>618.9</ele>
        <time>2020-11-11T09:57:45Z</time>
      </trkpt>
      <trkpt lat="28.4815620" lon="-16.3468770">
        <ele>618.9</ele>
        <time>2020-11-11T09:57:46Z</time>
      </trkpt>
      <trkpt lat="28.4815550" lon="-16.3469530">
        <ele>619.9</ele>
        <time>2020-11-11T09:57:47Z</time>
      </trkpt>
      <trkpt lat="28.4815520" lon="-16.3469900">
        <ele>619.9</ele>
        <time>2020-11-11T09:57:48Z</time>
      </trkpt>
      <trkpt lat="28.4815530" lon="-16.3470270">
        <ele>619.9</ele>
        <time>2020-11-11T09:57:49Z</time>
      </trkpt>
      <trkpt lat="28.4815530" lon="-16.3470270">
        <ele>619.9</ele>
        <time>2020-11-11T09:57:50Z</time>
      </trkpt>
      <trkpt lat="28.4815530" lon="-16.3471020">
        <ele>619.9</ele>
        <time>2020-11-11T09:57:51Z</time>
      </trkpt>
      <trkpt lat="28.4815530" lon="-16.3471020">
        <ele>619.9</ele>
        <time>2020-11-11T09:57:52Z</time>
      </trkpt>
      <trkpt lat="28.4815470" lon="-16.3471780">
        <ele>619.9</ele>
        <time>2020-11-11T09:57:53Z</time>
      </trkpt>
      <trkpt lat="28.4815470" lon="-16.3471780">
        <ele>619.9</ele>
        <time>2020-11-11T09:57:54Z</time>
      </trkpt>
      <trkpt lat="28.4815400" lon="-16.3472520">
        <ele>619.9</ele>
        <time>2020-11-11T09:57:55Z</time>
      </trkpt>
      <trkpt lat="28.4815400" lon="-16.3472520">
        <ele>619.9</ele>
        <time>2020-11-11T09:57:56Z</time>
      </trkpt>
      <trkpt lat="28.4815330" lon="-16.3473270">
        <ele>619.9</ele>
        <time>2020-11-11T09:57:57Z</time>
      </trkpt>
      <trkpt lat="28.4815320" lon="-16.3473650">
        <ele>619.9</ele>
        <time>2020-11-11T09:57:58Z</time>
      </trkpt>
      <trkpt lat="28.4815320" lon="-16.3473650">
        <ele>619.9</ele>
        <time>2020-11-11T09:57:59Z</time>
      </trkpt>
      <trkpt lat="28.4815250" lon="-16.3474380">
        <ele>620.9</ele>
        <time>2020-11-11T09:58:00Z</time>
      </trkpt>
      <trkpt lat="28.4815220" lon="-16.3474770">
        <ele>620.9</ele>
        <time>2020-11-11T09:58:01Z</time>
      </trkpt>
      <trkpt lat="28.4815180" lon="-16.3475150">
        <ele>620.9</ele>
        <time>2020-11-11T09:58:02Z</time>
      </trkpt>
      <trkpt lat="28.4815180" lon="-16.3475150">
        <ele>620.9</ele>
        <time>2020-11-11T09:58:03Z</time>
      </trkpt>
      <trkpt lat="28.4815150" lon="-16.3476000">
        <ele>620.9</ele>
        <time>2020-11-11T09:58:04Z</time>
      </trkpt>
      <trkpt lat="28.4815150" lon="-16.3476000">
        <ele>620.9</ele>
        <time>2020-11-11T09:58:05Z</time>
      </trkpt>
      <trkpt lat="28.4815070" lon="-16.3476780">
        <ele>621.9</ele>
        <time>2020-11-11T09:58:06Z</time>
      </trkpt>
      <trkpt lat="28.4815070" lon="-16.3476780">
        <ele>621.9</ele>
        <time>2020-11-11T09:58:07Z</time>
      </trkpt>
      <trkpt lat="28.4814980" lon="-16.3477600">
        <ele>621.9</ele>
        <time>2020-11-11T09:58:08Z</time>
      </trkpt>
      <trkpt lat="28.4814980" lon="-16.3477600">
        <ele>621.9</ele>
        <time>2020-11-11T09:58:09Z</time>
      </trkpt>
      <trkpt lat="28.4814880" lon="-16.3478450">
        <ele>621.9</ele>
        <time>2020-11-11T09:58:10Z</time>
      </trkpt>
      <trkpt lat="28.4814880" lon="-16.3478450">
        <ele>621.9</ele>
        <time>2020-11-11T09:58:11Z</time>
      </trkpt>
      <trkpt lat="28.4814780" lon="-16.3479370">
        <ele>621.9</ele>
        <time>2020-11-11T09:58:12Z</time>
      </trkpt>
      <trkpt lat="28.4814720" lon="-16.3479830">
        <ele>621.9</ele>
        <time>2020-11-11T09:58:13Z</time>
      </trkpt>
      <trkpt lat="28.4814720" lon="-16.3479830">
        <ele>622.9</ele>
        <time>2020-11-11T09:58:14Z</time>
      </trkpt>
      <trkpt lat="28.4814580" lon="-16.3480770">
        <ele>622.9</ele>
        <time>2020-11-11T09:58:15Z</time>
      </trkpt>
      <trkpt lat="28.4814580" lon="-16.3480770">
        <ele>622.9</ele>
        <time>2020-11-11T09:58:16Z</time>
      </trkpt>
      <trkpt lat="28.4814430" lon="-16.3481700">
        <ele>622.9</ele>
        <time>2020-11-11T09:58:17Z</time>
      </trkpt>
      <trkpt lat="28.4814350" lon="-16.3482170">
        <ele>622.9</ele>
        <time>2020-11-11T09:58:18Z</time>
      </trkpt>
      <trkpt lat="28.4814350" lon="-16.3482170">
        <ele>622.9</ele>
        <time>2020-11-11T09:58:19Z</time>
      </trkpt>
      <trkpt lat="28.4814200" lon="-16.3483100">
        <ele>622.9</ele>
        <time>2020-11-11T09:58:20Z</time>
      </trkpt>
      <trkpt lat="28.4814200" lon="-16.3483100">
        <ele>622.9</ele>
        <time>2020-11-11T09:58:21Z</time>
      </trkpt>
      <trkpt lat="28.4814030" lon="-16.3483980">
        <ele>622.9</ele>
        <time>2020-11-11T09:58:22Z</time>
      </trkpt>
      <trkpt lat="28.4813950" lon="-16.3484420">
        <ele>622.9</ele>
        <time>2020-11-11T09:58:23Z</time>
      </trkpt>
      <trkpt lat="28.4813950" lon="-16.3484420">
        <ele>623.9</ele>
        <time>2020-11-11T09:58:24Z</time>
      </trkpt>
      <trkpt lat="28.4813750" lon="-16.3485280">
        <ele>623.9</ele>
        <time>2020-11-11T09:58:25Z</time>
      </trkpt>
      <trkpt lat="28.4813750" lon="-16.3485280">
        <ele>623.9</ele>
        <time>2020-11-11T09:58:26Z</time>
      </trkpt>
      <trkpt lat="28.4813620" lon="-16.3486170">
        <ele>623.9</ele>
        <time>2020-11-11T09:58:27Z</time>
      </trkpt>
      <trkpt lat="28.4813620" lon="-16.3486170">
        <ele>623.9</ele>
        <time>2020-11-11T09:58:28Z</time>
      </trkpt>
      <trkpt lat="28.4813470" lon="-16.3487080">
        <ele>623.9</ele>
        <time>2020-11-11T09:58:29Z</time>
      </trkpt>
      <trkpt lat="28.4813470" lon="-16.3487080">
        <ele>623.9</ele>
        <time>2020-11-11T09:58:30Z</time>
      </trkpt>
      <trkpt lat="28.4813280" lon="-16.3487970">
        <ele>623.9</ele>
        <time>2020-11-11T09:58:31Z</time>
      </trkpt>
      <trkpt lat="28.4813280" lon="-16.3487970">
        <ele>623.9</ele>
        <time>2020-11-11T09:58:32Z</time>
      </trkpt>
      <trkpt lat="28.4813080" lon="-16.3488850">
        <ele>624.9</ele>
        <time>2020-11-11T09:58:33Z</time>
      </trkpt>
      <trkpt lat="28.4813080" lon="-16.3488850">
        <ele>624.9</ele>
        <time>2020-11-11T09:58:34Z</time>
      </trkpt>
      <trkpt lat="28.4812880" lon="-16.3489730">
        <ele>624.9</ele>
        <time>2020-11-11T09:58:35Z</time>
      </trkpt>
      <trkpt lat="28.4812770" lon="-16.3490170">
        <ele>624.9</ele>
        <time>2020-11-11T09:58:36Z</time>
      </trkpt>
      <trkpt lat="28.4812670" lon="-16.3490620">
        <ele>624.9</ele>
        <time>2020-11-11T09:58:37Z</time>
      </trkpt>
      <trkpt lat="28.4812670" lon="-16.3490620">
        <ele>624.9</ele>
        <time>2020-11-11T09:58:38Z</time>
      </trkpt>
      <trkpt lat="28.4812400" lon="-16.3491520">
        <ele>624.9</ele>
        <time>2020-11-11T09:58:39Z</time>
      </trkpt>
      <trkpt lat="28.4812230" lon="-16.3491950">
        <ele>624.9</ele>
        <time>2020-11-11T09:58:40Z</time>
      </trkpt>
      <trkpt lat="28.4812230" lon="-16.3491950">
        <ele>625.9</ele>
        <time>2020-11-11T09:58:41Z</time>
      </trkpt>
      <trkpt lat="28.4811930" lon="-16.3492850">
        <ele>625.9</ele>
        <time>2020-11-11T09:58:42Z</time>
      </trkpt>
      <trkpt lat="28.4811780" lon="-16.3493280">
        <ele>625.9</ele>
        <time>2020-11-11T09:58:43Z</time>
      </trkpt>
      <trkpt lat="28.4811780" lon="-16.3493280">
        <ele>625.9</ele>
        <time>2020-11-11T09:58:44Z</time>
      </trkpt>
      <trkpt lat="28.4811570" lon="-16.3494230">
        <ele>625.9</ele>
        <time>2020-11-11T09:58:45Z</time>
      </trkpt>
      <trkpt lat="28.4811570" lon="-16.3494230">
        <ele>625.9</ele>
        <time>2020-11-11T09:58:46Z</time>
      </trkpt>
      <trkpt lat="28.4811280" lon="-16.3495200">
        <ele>625.9</ele>
        <time>2020-11-11T09:58:47Z</time>
      </trkpt>
      <trkpt lat="28.4811280" lon="-16.3495200">
        <ele>625.9</ele>
        <time>2020-11-11T09:58:48Z</time>
      </trkpt>
      <trkpt lat="28.4811030" lon="-16.3496180">
        <ele>625.9</ele>
        <time>2020-11-11T09:58:49Z</time>
      </trkpt>
      <trkpt lat="28.4811030" lon="-16.3496180">
        <ele>625.9</ele>
        <time>2020-11-11T09:58:50Z</time>
      </trkpt>
      <trkpt lat="28.4810750" lon="-16.3497180">
        <ele>626.9</ele>
        <time>2020-11-11T09:58:51Z</time>
      </trkpt>
      <trkpt lat="28.4810620" lon="-16.3497720">
        <ele>626.9</ele>
        <time>2020-11-11T09:58:52Z</time>
      </trkpt>
      <trkpt lat="28.4810480" lon="-16.3498230">
        <ele>626.9</ele>
        <time>2020-11-11T09:58:53Z</time>
      </trkpt>
      <trkpt lat="28.4810330" lon="-16.3498750">
        <ele>626.9</ele>
        <time>2020-11-11T09:58:54Z</time>
      </trkpt>
      <trkpt lat="28.4810330" lon="-16.3498750">
        <ele>626.9</ele>
        <time>2020-11-11T09:58:55Z</time>
      </trkpt>
      <trkpt lat="28.4810030" lon="-16.3499820">
        <ele>626.9</ele>
        <time>2020-11-11T09:58:56Z</time>
      </trkpt>
      <trkpt lat="28.4810030" lon="-16.3499820">
        <ele>626.9</ele>
        <time>2020-11-11T09:58:57Z</time>
      </trkpt>
      <trkpt lat="28.4809680" lon="-16.3500900">
        <ele>626.9</ele>
        <time>2020-11-11T09:58:58Z</time>
      </trkpt>
      <trkpt lat="28.4809530" lon="-16.3501470">
        <ele>626.9</ele>
        <time>2020-11-11T09:58:59Z</time>
      </trkpt>
      <trkpt lat="28.4809530" lon="-16.3501470">
        <ele>626.9</ele>
        <time>2020-11-11T09:59:00Z</time>
      </trkpt>
      <trkpt lat="28.4809200" lon="-16.3502600">
        <ele>626.9</ele>
        <time>2020-11-11T09:59:01Z</time>
      </trkpt>
      <trkpt lat="28.4809200" lon="-16.3502600">
        <ele>626.9</ele>
        <time>2020-11-11T09:59:02Z</time>
      </trkpt>
      <trkpt lat="28.4808880" lon="-16.3503720">
        <ele>626.9</ele>
        <time>2020-11-11T09:59:03Z</time>
      </trkpt>
      <trkpt lat="28.4808720" lon="-16.3504280">
        <ele>626.9</ele>
        <time>2020-11-11T09:59:04Z</time>
      </trkpt>
      <trkpt lat="28.4808720" lon="-16.3504280">
        <ele>626.9</ele>
        <time>2020-11-11T09:59:05Z</time>
      </trkpt>
      <trkpt lat="28.4808370" lon="-16.3505380">
        <ele>626.9</ele>
        <time>2020-11-11T09:59:06Z</time>
      </trkpt>
      <trkpt lat="28.4808370" lon="-16.3505380">
        <ele>626.9</ele>
        <time>2020-11-11T09:59:07Z</time>
      </trkpt>
      <trkpt lat="28.4808030" lon="-16.3506430">
        <ele>626.9</ele>
        <time>2020-11-11T09:59:08Z</time>
      </trkpt>
      <trkpt lat="28.4808030" lon="-16.3506430">
        <ele>626.9</ele>
        <time>2020-11-11T09:59:09Z</time>
      </trkpt>
      <trkpt lat="28.4807700" lon="-16.3507520">
        <ele>626.9</ele>
        <time>2020-11-11T09:59:10Z</time>
      </trkpt>
      <trkpt lat="28.4807700" lon="-16.3507520">
        <ele>626.9</ele>
        <time>2020-11-11T09:59:11Z</time>
      </trkpt>
      <trkpt lat="28.4807330" lon="-16.3508630">
        <ele>626.9</ele>
        <time>2020-11-11T09:59:12Z</time>
      </trkpt>
      <trkpt lat="28.4807330" lon="-16.3508630">
        <ele>626.9</ele>
        <time>2020-11-11T09:59:13Z</time>
      </trkpt>
      <trkpt lat="28.4806930" lon="-16.3509800">
        <ele>626.9</ele>
        <time>2020-11-11T09:59:14Z</time>
      </trkpt>
      <trkpt lat="28.4806930" lon="-16.3509800">
        <ele>626.9</ele>
        <time>2020-11-11T09:59:15Z</time>
      </trkpt>
      <trkpt lat="28.4806520" lon="-16.3511020">
        <ele>626.9</ele>
        <time>2020-11-11T09:59:16Z</time>
      </trkpt>
      <trkpt lat="28.4806520" lon="-16.3511020">
        <ele>626.9</ele>
        <time>2020-11-11T09:59:17Z</time>
      </trkpt>
      <trkpt lat="28.4806070" lon="-16.3512230">
        <ele>626.9</ele>
        <time>2020-11-11T09:59:18Z</time>
      </trkpt>
      <trkpt lat="28.4805830" lon="-16.3512830">
        <ele>626.9</ele>
        <time>2020-11-11T09:59:19Z</time>
      </trkpt>
      <trkpt lat="28.4805830" lon="-16.3512830">
        <ele>626.9</ele>
        <time>2020-11-11T09:59:20Z</time>
      </trkpt>
      <trkpt lat="28.4805330" lon="-16.3514020">
        <ele>626.9</ele>
        <time>2020-11-11T09:59:21Z</time>
      </trkpt>
      <trkpt lat="28.4805330" lon="-16.3514020">
        <ele>626.9</ele>
        <time>2020-11-11T09:59:22Z</time>
      </trkpt>
      <trkpt lat="28.4804820" lon="-16.3515200">
        <ele>626.9</ele>
        <time>2020-11-11T09:59:23Z</time>
      </trkpt>
      <trkpt lat="28.4804820" lon="-16.3515200">
        <ele>626.9</ele>
        <time>2020-11-11T09:59:24Z</time>
      </trkpt>
      <trkpt lat="28.4804250" lon="-16.3516370">
        <ele>626.9</ele>
        <time>2020-11-11T09:59:25Z</time>
      </trkpt>
      <trkpt lat="28.4804250" lon="-16.3516370">
        <ele>626.9</ele>
        <time>2020-11-11T09:59:26Z</time>
      </trkpt>
      <trkpt lat="28.4803680" lon="-16.3517580">
        <ele>626.9</ele>
        <time>2020-11-11T09:59:27Z</time>
      </trkpt>
      <trkpt lat="28.4803380" lon="-16.3518150">
        <ele>626.9</ele>
        <time>2020-11-11T09:59:28Z</time>
      </trkpt>
      <trkpt lat="28.4803380" lon="-16.3518150">
        <ele>626.9</ele>
        <time>2020-11-11T09:59:29Z</time>
      </trkpt>
      <trkpt lat="28.4802770" lon="-16.3519300">
        <ele>626.9</ele>
        <time>2020-11-11T09:59:30Z</time>
      </trkpt>
      <trkpt lat="28.4802480" lon="-16.3519930">
        <ele>626.9</ele>
        <time>2020-11-11T09:59:31Z</time>
      </trkpt>
      <trkpt lat="28.4802480" lon="-16.3519930">
        <ele>626.9</ele>
        <time>2020-11-11T09:59:32Z</time>
      </trkpt>
      <trkpt lat="28.4801970" lon="-16.3521250">
        <ele>626.9</ele>
        <time>2020-11-11T09:59:33Z</time>
      </trkpt>
      <trkpt lat="28.4801970" lon="-16.3521250">
        <ele>626.9</ele>
        <time>2020-11-11T09:59:34Z</time>
      </trkpt>
      <trkpt lat="28.4801400" lon="-16.3522630">
        <ele>626.9</ele>
        <time>2020-11-11T09:59:35Z</time>
      </trkpt>
      <trkpt lat="28.4801120" lon="-16.3523330">
        <ele>626.9</ele>
        <time>2020-11-11T09:59:36Z</time>
      </trkpt>
      <trkpt lat="28.4800800" lon="-16.3524020">
        <ele>626.9</ele>
        <time>2020-11-11T09:59:37Z</time>
      </trkpt>
      <trkpt lat="28.4800800" lon="-16.3524020">
        <ele>626.9</ele>
        <time>2020-11-11T09:59:38Z</time>
      </trkpt>
      <trkpt lat="28.4800220" lon="-16.3525430">
        <ele>626.9</ele>
        <time>2020-11-11T09:59:39Z</time>
      </trkpt>
      <trkpt lat="28.4799930" lon="-16.3526150">
        <ele>626.9</ele>
        <time>2020-11-11T09:59:40Z</time>
      </trkpt>
      <trkpt lat="28.4799930" lon="-16.3526150">
        <ele>626.9</ele>
        <time>2020-11-11T09:59:41Z</time>
      </trkpt>
      <trkpt lat="28.4799350" lon="-16.3527600">
        <ele>626.9</ele>
        <time>2020-11-11T09:59:42Z</time>
      </trkpt>
      <trkpt lat="28.4799350" lon="-16.3527600">
        <ele>626.9</ele>
        <time>2020-11-11T09:59:43Z</time>
      </trkpt>
      <trkpt lat="28.4798780" lon="-16.3529020">
        <ele>626.9</ele>
        <time>2020-11-11T09:59:44Z</time>
      </trkpt>
      <trkpt lat="28.4798780" lon="-16.3529020">
        <ele>626.9</ele>
        <time>2020-11-11T09:59:45Z</time>
      </trkpt>
      <trkpt lat="28.4798220" lon="-16.3530400">
        <ele>626.9</ele>
        <time>2020-11-11T09:59:46Z</time>
      </trkpt>
      <trkpt lat="28.4798220" lon="-16.3530400">
        <ele>626.9</ele>
        <time>2020-11-11T09:59:47Z</time>
      </trkpt>
      <trkpt lat="28.4797650" lon="-16.3531730">
        <ele>626.9</ele>
        <time>2020-11-11T09:59:48Z</time>
      </trkpt>
      <trkpt lat="28.4797650" lon="-16.3531730">
        <ele>626.9</ele>
        <time>2020-11-11T09:59:49Z</time>
      </trkpt>
      <trkpt lat="28.4797080" lon="-16.3533030">
        <ele>626.9</ele>
        <time>2020-11-11T09:59:50Z</time>
      </trkpt>
      <trkpt lat="28.4796820" lon="-16.3533680">
        <ele>626.9</ele>
        <time>2020-11-11T09:59:51Z</time>
      </trkpt>
      <trkpt lat="28.4796820" lon="-16.3533680">
        <ele>626.9</ele>
        <time>2020-11-11T09:59:52Z</time>
      </trkpt>
      <trkpt lat="28.4796250" lon="-16.3534980">
        <ele>626.9</ele>
        <time>2020-11-11T09:59:53Z</time>
      </trkpt>
      <trkpt lat="28.4796250" lon="-16.3534980">
        <ele>626.9</ele>
        <time>2020-11-11T09:59:54Z</time>
      </trkpt>
      <trkpt lat="28.4795700" lon="-16.3536320">
        <ele>626.9</ele>
        <time>2020-11-11T09:59:55Z</time>
      </trkpt>
      <trkpt lat="28.4795700" lon="-16.3536320">
        <ele>626.9</ele>
        <time>2020-11-11T09:59:56Z</time>
      </trkpt>
      <trkpt lat="28.4795180" lon="-16.3537670">
        <ele>626.9</ele>
        <time>2020-11-11T09:59:57Z</time>
      </trkpt>
      <trkpt lat="28.4794930" lon="-16.3538350">
        <ele>626.9</ele>
        <time>2020-11-11T09:59:58Z</time>
      </trkpt>
      <trkpt lat="28.4794930" lon="-16.3538350">
        <ele>626.9</ele>
        <time>2020-11-11T09:59:59Z</time>
      </trkpt>
      <trkpt lat="28.4794350" lon="-16.3539650">
        <ele>626.9</ele>
        <time>2020-11-11T10:00:00Z</time>
      </trkpt>
      <trkpt lat="28.4794350" lon="-16.3539650">
        <ele>626.9</ele>
        <time>2020-11-11T10:00:01Z</time>
      </trkpt>
      <trkpt lat="28.4793830" lon="-16.3540980">
        <ele>626.9</ele>
        <time>2020-11-11T10:00:02Z</time>
      </trkpt>
      <trkpt lat="28.4793600" lon="-16.3541630">
        <ele>626.9</ele>
        <time>2020-11-11T10:00:03Z</time>
      </trkpt>
      <trkpt lat="28.4793350" lon="-16.3542300">
        <ele>626.9</ele>
        <time>2020-11-11T10:00:04Z</time>
      </trkpt>
      <trkpt lat="28.4793350" lon="-16.3542300">
        <ele>626.9</ele>
        <time>2020-11-11T10:00:05Z</time>
      </trkpt>
      <trkpt lat="28.4792870" lon="-16.3543600">
        <ele>626.9</ele>
        <time>2020-11-11T10:00:06Z</time>
      </trkpt>
      <trkpt lat="28.4792620" lon="-16.3544270">
        <ele>626.9</ele>
        <time>2020-11-11T10:00:07Z</time>
      </trkpt>
      <trkpt lat="28.4792620" lon="-16.3544270">
        <ele>626.9</ele>
        <time>2020-11-11T10:00:08Z</time>
      </trkpt>
      <trkpt lat="28.4792120" lon="-16.3545570">
        <ele>626.9</ele>
        <time>2020-11-11T10:00:09Z</time>
      </trkpt>
      <trkpt lat="28.4791870" lon="-16.3546220">
        <ele>626.9</ele>
        <time>2020-11-11T10:00:10Z</time>
      </trkpt>
      <trkpt lat="28.4791870" lon="-16.3546220">
        <ele>626.9</ele>
        <time>2020-11-11T10:00:11Z</time>
      </trkpt>
      <trkpt lat="28.4791370" lon="-16.3547500">
        <ele>626.9</ele>
        <time>2020-11-11T10:00:12Z</time>
      </trkpt>
      <trkpt lat="28.4791370" lon="-16.3547500">
        <ele>626.9</ele>
        <time>2020-11-11T10:00:13Z</time>
      </trkpt>
      <trkpt lat="28.4790950" lon="-16.3548800">
        <ele>626.9</ele>
        <time>2020-11-11T10:00:14Z</time>
      </trkpt>
      <trkpt lat="28.4790950" lon="-16.3548800">
        <ele>626.9</ele>
        <time>2020-11-11T10:00:15Z</time>
      </trkpt>
      <trkpt lat="28.4790520" lon="-16.3550100">
        <ele>626.9</ele>
        <time>2020-11-11T10:00:16Z</time>
      </trkpt>
      <trkpt lat="28.4790330" lon="-16.3550770">
        <ele>626.9</ele>
        <time>2020-11-11T10:00:17Z</time>
      </trkpt>
      <trkpt lat="28.4790330" lon="-16.3550770">
        <ele>626.9</ele>
        <time>2020-11-11T10:00:18Z</time>
      </trkpt>
      <trkpt lat="28.4789920" lon="-16.3552050">
        <ele>626.9</ele>
        <time>2020-11-11T10:00:19Z</time>
      </trkpt>
      <trkpt lat="28.4789920" lon="-16.3552050">
        <ele>626.9</ele>
        <time>2020-11-11T10:00:20Z</time>
      </trkpt>
      <trkpt lat="28.4789480" lon="-16.3553320">
        <ele>626.9</ele>
        <time>2020-11-11T10:00:21Z</time>
      </trkpt>
      <trkpt lat="28.4789480" lon="-16.3553320">
        <ele>626.9</ele>
        <time>2020-11-11T10:00:22Z</time>
      </trkpt>
      <trkpt lat="28.4789070" lon="-16.3554480">
        <ele>626.9</ele>
        <time>2020-11-11T10:00:23Z</time>
      </trkpt>
      <trkpt lat="28.4789070" lon="-16.3554480">
        <ele>626.9</ele>
        <time>2020-11-11T10:00:24Z</time>
      </trkpt>
      <trkpt lat="28.4788670" lon="-16.3555650">
        <ele>626.9</ele>
        <time>2020-11-11T10:00:25Z</time>
      </trkpt>
      <trkpt lat="28.4788670" lon="-16.3555650">
        <ele>626.9</ele>
        <time>2020-11-11T10:00:26Z</time>
      </trkpt>
      <trkpt lat="28.4788230" lon="-16.3556770">
        <ele>626.9</ele>
        <time>2020-11-11T10:00:27Z</time>
      </trkpt>
      <trkpt lat="28.4788000" lon="-16.3557320">
        <ele>626.9</ele>
        <time>2020-11-11T10:00:28Z</time>
      </trkpt>
      <trkpt lat="28.4788000" lon="-16.3557320">
        <ele>626.9</ele>
        <time>2020-11-11T10:00:29Z</time>
      </trkpt>
      <trkpt lat="28.4787580" lon="-16.3558400">
        <ele>626.9</ele>
        <time>2020-11-11T10:00:30Z</time>
      </trkpt>
      <trkpt lat="28.4787580" lon="-16.3558400">
        <ele>627.9</ele>
        <time>2020-11-11T10:00:31Z</time>
      </trkpt>
      <trkpt lat="28.4787200" lon="-16.3559480">
        <ele>627.9</ele>
        <time>2020-11-11T10:00:32Z</time>
      </trkpt>
      <trkpt lat="28.4787030" lon="-16.3560020">
        <ele>627.9</ele>
        <time>2020-11-11T10:00:33Z</time>
      </trkpt>
      <trkpt lat="28.4787030" lon="-16.3560020">
        <ele>627.9</ele>
        <time>2020-11-11T10:00:34Z</time>
      </trkpt>
      <trkpt lat="28.4786720" lon="-16.3561080">
        <ele>627.9</ele>
        <time>2020-11-11T10:00:35Z</time>
      </trkpt>
      <trkpt lat="28.4786720" lon="-16.3561080">
        <ele>627.9</ele>
        <time>2020-11-11T10:00:36Z</time>
      </trkpt>
      <trkpt lat="28.4786400" lon="-16.3562130">
        <ele>627.9</ele>
        <time>2020-11-11T10:00:37Z</time>
      </trkpt>
      <trkpt lat="28.4786400" lon="-16.3562130">
        <ele>627.9</ele>
        <time>2020-11-11T10:00:38Z</time>
      </trkpt>
      <trkpt lat="28.4786030" lon="-16.3563150">
        <ele>627.9</ele>
        <time>2020-11-11T10:00:39Z</time>
      </trkpt>
      <trkpt lat="28.4786030" lon="-16.3563150">
        <ele>627.9</ele>
        <time>2020-11-11T10:00:40Z</time>
      </trkpt>
      <trkpt lat="28.4785700" lon="-16.3564100">
        <ele>627.9</ele>
        <time>2020-11-11T10:00:41Z</time>
      </trkpt>
      <trkpt lat="28.4785700" lon="-16.3564100">
        <ele>628.9</ele>
        <time>2020-11-11T10:00:42Z</time>
      </trkpt>
      <trkpt lat="28.4785370" lon="-16.3565050">
        <ele>628.9</ele>
        <time>2020-11-11T10:00:43Z</time>
      </trkpt>
      <trkpt lat="28.4785370" lon="-16.3565050">
        <ele>628.9</ele>
        <time>2020-11-11T10:00:44Z</time>
      </trkpt>
      <trkpt lat="28.4785120" lon="-16.3566000">
        <ele>628.9</ele>
        <time>2020-11-11T10:00:45Z</time>
      </trkpt>
      <trkpt lat="28.4784970" lon="-16.3566470">
        <ele>628.9</ele>
        <time>2020-11-11T10:00:46Z</time>
      </trkpt>
      <trkpt lat="28.4784970" lon="-16.3566470">
        <ele>628.9</ele>
        <time>2020-11-11T10:00:47Z</time>
      </trkpt>
      <trkpt lat="28.4784530" lon="-16.3567280">
        <ele>629.9</ele>
        <time>2020-11-11T10:00:48Z</time>
      </trkpt>
      <trkpt lat="28.4784370" lon="-16.3567730">
        <ele>629.9</ele>
        <time>2020-11-11T10:00:49Z</time>
      </trkpt>
      <trkpt lat="28.4784370" lon="-16.3567730">
        <ele>629.9</ele>
        <time>2020-11-11T10:00:50Z</time>
      </trkpt>
      <trkpt lat="28.4784120" lon="-16.3568670">
        <ele>629.9</ele>
        <time>2020-11-11T10:00:51Z</time>
      </trkpt>
      <trkpt lat="28.4784120" lon="-16.3568670">
        <ele>629.9</ele>
        <time>2020-11-11T10:00:52Z</time>
      </trkpt>
      <trkpt lat="28.4783830" lon="-16.3569500">
        <ele>629.9</ele>
        <time>2020-11-11T10:00:53Z</time>
      </trkpt>
      <trkpt lat="28.4783700" lon="-16.3569930">
        <ele>630.9</ele>
        <time>2020-11-11T10:00:54Z</time>
      </trkpt>
      <trkpt lat="28.4783500" lon="-16.3570370">
        <ele>630.9</ele>
        <time>2020-11-11T10:00:55Z</time>
      </trkpt>
      <trkpt lat="28.4783500" lon="-16.3570370">
        <ele>630.9</ele>
        <time>2020-11-11T10:00:56Z</time>
      </trkpt>
      <trkpt lat="28.4783220" lon="-16.3571300">
        <ele>631.9</ele>
        <time>2020-11-11T10:00:57Z</time>
      </trkpt>
      <trkpt lat="28.4783220" lon="-16.3571300">
        <ele>631.9</ele>
        <time>2020-11-11T10:00:58Z</time>
      </trkpt>
      <trkpt lat="28.4782880" lon="-16.3572130">
        <ele>631.9</ele>
        <time>2020-11-11T10:00:59Z</time>
      </trkpt>
      <trkpt lat="28.4782880" lon="-16.3572130">
        <ele>631.9</ele>
        <time>2020-11-11T10:01:00Z</time>
      </trkpt>
      <trkpt lat="28.4782620" lon="-16.3572920">
        <ele>632.9</ele>
        <time>2020-11-11T10:01:01Z</time>
      </trkpt>
      <trkpt lat="28.4782520" lon="-16.3573250">
        <ele>632.9</ele>
        <time>2020-11-11T10:01:02Z</time>
      </trkpt>
      <trkpt lat="28.4782520" lon="-16.3573250">
        <ele>632.9</ele>
        <time>2020-11-11T10:01:03Z</time>
      </trkpt>
      <trkpt lat="28.4782330" lon="-16.3573930">
        <ele>632.9</ele>
        <time>2020-11-11T10:01:04Z</time>
      </trkpt>
      <trkpt lat="28.4782330" lon="-16.3573930">
        <ele>632.9</ele>
        <time>2020-11-11T10:01:05Z</time>
      </trkpt>
      <trkpt lat="28.4782120" lon="-16.3574550">
        <ele>632.9</ele>
        <time>2020-11-11T10:01:06Z</time>
      </trkpt>
      <trkpt lat="28.4782030" lon="-16.3574880">
        <ele>632.9</ele>
        <time>2020-11-11T10:01:07Z</time>
      </trkpt>
      <trkpt lat="28.4782030" lon="-16.3574880">
        <ele>632.9</ele>
        <time>2020-11-11T10:01:08Z</time>
      </trkpt>
      <trkpt lat="28.4781870" lon="-16.3575520">
        <ele>632.9</ele>
        <time>2020-11-11T10:01:09Z</time>
      </trkpt>
      <trkpt lat="28.4781870" lon="-16.3575520">
        <ele>632.9</ele>
        <time>2020-11-11T10:01:10Z</time>
      </trkpt>
      <trkpt lat="28.4781630" lon="-16.3576120">
        <ele>633.9</ele>
        <time>2020-11-11T10:01:11Z</time>
      </trkpt>
      <trkpt lat="28.4781500" lon="-16.3576400">
        <ele>633.9</ele>
        <time>2020-11-11T10:01:12Z</time>
      </trkpt>
      <trkpt lat="28.4781500" lon="-16.3576400">
        <ele>633.9</ele>
        <time>2020-11-11T10:01:13Z</time>
      </trkpt>
      <trkpt lat="28.4781250" lon="-16.3576970">
        <ele>633.9</ele>
        <time>2020-11-11T10:01:14Z</time>
      </trkpt>
      <trkpt lat="28.4781150" lon="-16.3577280">
        <ele>633.9</ele>
        <time>2020-11-11T10:01:15Z</time>
      </trkpt>
      <trkpt lat="28.4781070" lon="-16.3577620">
        <ele>633.9</ele>
        <time>2020-11-11T10:01:16Z</time>
      </trkpt>
      <trkpt lat="28.4781070" lon="-16.3577620">
        <ele>634.9</ele>
        <time>2020-11-11T10:01:17Z</time>
      </trkpt>
      <trkpt lat="28.4780880" lon="-16.3578270">
        <ele>634.9</ele>
        <time>2020-11-11T10:01:18Z</time>
      </trkpt>
      <trkpt lat="28.4780880" lon="-16.3578270">
        <ele>634.9</ele>
        <time>2020-11-11T10:01:19Z</time>
      </trkpt>
      <trkpt lat="28.4780650" lon="-16.3579020">
        <ele>634.9</ele>
        <time>2020-11-11T10:01:20Z</time>
      </trkpt>
      <trkpt lat="28.4780570" lon="-16.3579370">
        <ele>634.9</ele>
        <time>2020-11-11T10:01:21Z</time>
      </trkpt>
      <trkpt lat="28.4780570" lon="-16.3579370">
        <ele>634.9</ele>
        <time>2020-11-11T10:01:22Z</time>
      </trkpt>
      <trkpt lat="28.4780380" lon="-16.3579900">
        <ele>635.9</ele>
        <time>2020-11-11T10:01:23Z</time>
      </trkpt>
      <trkpt lat="28.4780380" lon="-16.3579900">
        <ele>635.9</ele>
        <time>2020-11-11T10:01:24Z</time>
      </trkpt>
      <trkpt lat="28.4780180" lon="-16.3580480">
        <ele>635.9</ele>
        <time>2020-11-11T10:01:25Z</time>
      </trkpt>
      <trkpt lat="28.4780180" lon="-16.3580480">
        <ele>635.9</ele>
        <time>2020-11-11T10:01:26Z</time>
      </trkpt>
      <trkpt lat="28.4779970" lon="-16.3581100">
        <ele>635.9</ele>
        <time>2020-11-11T10:01:27Z</time>
      </trkpt>
      <trkpt lat="28.4779850" lon="-16.3581380">
        <ele>635.9</ele>
        <time>2020-11-11T10:01:28Z</time>
      </trkpt>
      <trkpt lat="28.4779850" lon="-16.3581380">
        <ele>636.9</ele>
        <time>2020-11-11T10:01:29Z</time>
      </trkpt>
      <trkpt lat="28.4779600" lon="-16.3582020">
        <ele>636.9</ele>
        <time>2020-11-11T10:01:30Z</time>
      </trkpt>
      <trkpt lat="28.4779520" lon="-16.3582300">
        <ele>636.9</ele>
        <time>2020-11-11T10:01:31Z</time>
      </trkpt>
      <trkpt lat="28.4779520" lon="-16.3582300">
        <ele>636.9</ele>
        <time>2020-11-11T10:01:32Z</time>
      </trkpt>
      <trkpt lat="28.4779370" lon="-16.3582920">
        <ele>637.9</ele>
        <time>2020-11-11T10:01:33Z</time>
      </trkpt>
      <trkpt lat="28.4779370" lon="-16.3582920">
        <ele>637.9</ele>
        <time>2020-11-11T10:01:34Z</time>
      </trkpt>
      <trkpt lat="28.4779180" lon="-16.3583480">
        <ele>637.9</ele>
        <time>2020-11-11T10:01:35Z</time>
      </trkpt>
      <trkpt lat="28.4779180" lon="-16.3583480">
        <ele>637.9</ele>
        <time>2020-11-11T10:01:36Z</time>
      </trkpt>
      <trkpt lat="28.4779020" lon="-16.3584050">
        <ele>637.9</ele>
        <time>2020-11-11T10:01:37Z</time>
      </trkpt>
      <trkpt lat="28.4779020" lon="-16.3584050">
        <ele>637.9</ele>
        <time>2020-11-11T10:01:38Z</time>
      </trkpt>
      <trkpt lat="28.4778800" lon="-16.3584600">
        <ele>637.9</ele>
        <time>2020-11-11T10:01:39Z</time>
      </trkpt>
      <trkpt lat="28.4778800" lon="-16.3584600">
        <ele>637.9</ele>
        <time>2020-11-11T10:01:40Z</time>
      </trkpt>
      <trkpt lat="28.4778580" lon="-16.3585100">
        <ele>637.9</ele>
        <time>2020-11-11T10:01:41Z</time>
      </trkpt>
      <trkpt lat="28.4778470" lon="-16.3585350">
        <ele>637.9</ele>
        <time>2020-11-11T10:01:42Z</time>
      </trkpt>
      <trkpt lat="28.4778470" lon="-16.3585350">
        <ele>637.9</ele>
        <time>2020-11-11T10:01:43Z</time>
      </trkpt>
      <trkpt lat="28.4778270" lon="-16.3585820">
        <ele>637.9</ele>
        <time>2020-11-11T10:01:44Z</time>
      </trkpt>
      <trkpt lat="28.4778270" lon="-16.3585820">
        <ele>637.9</ele>
        <time>2020-11-11T10:01:45Z</time>
      </trkpt>
      <trkpt lat="28.4778000" lon="-16.3586270">
        <ele>637.9</ele>
        <time>2020-11-11T10:01:46Z</time>
      </trkpt>
      <trkpt lat="28.4778000" lon="-16.3586270">
        <ele>637.9</ele>
        <time>2020-11-11T10:01:47Z</time>
      </trkpt>
      <trkpt lat="28.4777780" lon="-16.3586720">
        <ele>639.9</ele>
        <time>2020-11-11T10:01:48Z</time>
      </trkpt>
      <trkpt lat="28.4777780" lon="-16.3586720">
        <ele>639.9</ele>
        <time>2020-11-11T10:01:49Z</time>
      </trkpt>
      <trkpt lat="28.4777500" lon="-16.3587100">
        <ele>639.9</ele>
        <time>2020-11-11T10:01:50Z</time>
      </trkpt>
      <trkpt lat="28.4777500" lon="-16.3587100">
        <ele>639.9</ele>
        <time>2020-11-11T10:01:51Z</time>
      </trkpt>
      <trkpt lat="28.4777180" lon="-16.3587470">
        <ele>639.9</ele>
        <time>2020-11-11T10:01:52Z</time>
      </trkpt>
      <trkpt lat="28.4777050" lon="-16.3587670">
        <ele>639.9</ele>
        <time>2020-11-11T10:01:53Z</time>
      </trkpt>
      <trkpt lat="28.4777050" lon="-16.3587670">
        <ele>639.9</ele>
        <time>2020-11-11T10:01:54Z</time>
      </trkpt>
      <trkpt lat="28.4776830" lon="-16.3588120">
        <ele>639.9</ele>
        <time>2020-11-11T10:01:55Z</time>
      </trkpt>
      <trkpt lat="28.4776830" lon="-16.3588120">
        <ele>639.9</ele>
        <time>2020-11-11T10:01:56Z</time>
      </trkpt>
      <trkpt lat="28.4776480" lon="-16.3588500">
        <ele>639.9</ele>
        <time>2020-11-11T10:01:57Z</time>
      </trkpt>
      <trkpt lat="28.4776480" lon="-16.3588500">
        <ele>639.9</ele>
        <time>2020-11-11T10:01:58Z</time>
      </trkpt>
      <trkpt lat="28.4776200" lon="-16.3588970">
        <ele>639.9</ele>
        <time>2020-11-11T10:01:59Z</time>
      </trkpt>
      <trkpt lat="28.4776080" lon="-16.3589200">
        <ele>640.9</ele>
        <time>2020-11-11T10:02:00Z</time>
      </trkpt>
      <trkpt lat="28.4776080" lon="-16.3589200">
        <ele>640.9</ele>
        <time>2020-11-11T10:02:01Z</time>
      </trkpt>
      <trkpt lat="28.4775780" lon="-16.3589670">
        <ele>640.9</ele>
        <time>2020-11-11T10:02:02Z</time>
      </trkpt>
      <trkpt lat="28.4775680" lon="-16.3589930">
        <ele>640.9</ele>
        <time>2020-11-11T10:02:03Z</time>
      </trkpt>
      <trkpt lat="28.4775530" lon="-16.3590180">
        <ele>640.9</ele>
        <time>2020-11-11T10:02:04Z</time>
      </trkpt>
      <trkpt lat="28.4775530" lon="-16.3590180">
        <ele>640.9</ele>
        <time>2020-11-11T10:02:05Z</time>
      </trkpt>
      <trkpt lat="28.4775200" lon="-16.3590700">
        <ele>640.9</ele>
        <time>2020-11-11T10:02:06Z</time>
      </trkpt>
      <trkpt lat="28.4775200" lon="-16.3590700">
        <ele>640.9</ele>
        <time>2020-11-11T10:02:07Z</time>
      </trkpt>
      <trkpt lat="28.4774920" lon="-16.3591200">
        <ele>641.9</ele>
        <time>2020-11-11T10:02:08Z</time>
      </trkpt>
      <trkpt lat="28.4774920" lon="-16.3591200">
        <ele>641.9</ele>
        <time>2020-11-11T10:02:09Z</time>
      </trkpt>
      <trkpt lat="28.4774650" lon="-16.3591700">
        <ele>641.9</ele>
        <time>2020-11-11T10:02:10Z</time>
      </trkpt>
      <trkpt lat="28.4774500" lon="-16.3591950">
        <ele>641.9</ele>
        <time>2020-11-11T10:02:11Z</time>
      </trkpt>
      <trkpt lat="28.4774500" lon="-16.3591950">
        <ele>641.9</ele>
        <time>2020-11-11T10:02:12Z</time>
      </trkpt>
      <trkpt lat="28.4774170" lon="-16.3592400">
        <ele>642.9</ele>
        <time>2020-11-11T10:02:13Z</time>
      </trkpt>
      <trkpt lat="28.4774170" lon="-16.3592400">
        <ele>642.9</ele>
        <time>2020-11-11T10:02:14Z</time>
      </trkpt>
      <trkpt lat="28.4773830" lon="-16.3592850">
        <ele>642.9</ele>
        <time>2020-11-11T10:02:15Z</time>
      </trkpt>
      <trkpt lat="28.4773720" lon="-16.3593080">
        <ele>642.9</ele>
        <time>2020-11-11T10:02:16Z</time>
      </trkpt>
      <trkpt lat="28.4773720" lon="-16.3593080">
        <ele>642.9</ele>
        <time>2020-11-11T10:02:17Z</time>
      </trkpt>
      <trkpt lat="28.4773380" lon="-16.3593470">
        <ele>642.9</ele>
        <time>2020-11-11T10:02:18Z</time>
      </trkpt>
      <trkpt lat="28.4773380" lon="-16.3593470">
        <ele>642.9</ele>
        <time>2020-11-11T10:02:19Z</time>
      </trkpt>
      <trkpt lat="28.4773030" lon="-16.3593820">
        <ele>642.9</ele>
        <time>2020-11-11T10:02:20Z</time>
      </trkpt>
      <trkpt lat="28.4772900" lon="-16.3594020">
        <ele>642.9</ele>
        <time>2020-11-11T10:02:21Z</time>
      </trkpt>
      <trkpt lat="28.4772900" lon="-16.3594020">
        <ele>642.9</ele>
        <time>2020-11-11T10:02:22Z</time>
      </trkpt>
      <trkpt lat="28.4772520" lon="-16.3594320">
        <ele>642.9</ele>
        <time>2020-11-11T10:02:23Z</time>
      </trkpt>
      <trkpt lat="28.4772270" lon="-16.3594450">
        <ele>642.9</ele>
        <time>2020-11-11T10:02:24Z</time>
      </trkpt>
      <trkpt lat="28.4772020" lon="-16.3594580">
        <ele>643.9</ele>
        <time>2020-11-11T10:02:25Z</time>
      </trkpt>
      <trkpt lat="28.4772020" lon="-16.3594580">
        <ele>643.9</ele>
        <time>2020-11-11T10:02:26Z</time>
      </trkpt>
      <trkpt lat="28.4771650" lon="-16.3594920">
        <ele>643.9</ele>
        <time>2020-11-11T10:02:27Z</time>
      </trkpt>
      <trkpt lat="28.4771650" lon="-16.3594920">
        <ele>643.9</ele>
        <time>2020-11-11T10:02:28Z</time>
      </trkpt>
      <trkpt lat="28.4771370" lon="-16.3595270">
        <ele>644.9</ele>
        <time>2020-11-11T10:02:29Z</time>
      </trkpt>
      <trkpt lat="28.4771370" lon="-16.3595270">
        <ele>644.9</ele>
        <time>2020-11-11T10:02:30Z</time>
      </trkpt>
      <trkpt lat="28.4770950" lon="-16.3595580">
        <ele>644.9</ele>
        <time>2020-11-11T10:02:31Z</time>
      </trkpt>
      <trkpt lat="28.4770950" lon="-16.3595580">
        <ele>644.9</ele>
        <time>2020-11-11T10:02:32Z</time>
      </trkpt>
      <trkpt lat="28.4770600" lon="-16.3595920">
        <ele>644.9</ele>
        <time>2020-11-11T10:02:33Z</time>
      </trkpt>
      <trkpt lat="28.4770420" lon="-16.3596120">
        <ele>644.9</ele>
        <time>2020-11-11T10:02:34Z</time>
      </trkpt>
      <trkpt lat="28.4770420" lon="-16.3596120">
        <ele>644.9</ele>
        <time>2020-11-11T10:02:35Z</time>
      </trkpt>
      <trkpt lat="28.4769920" lon="-16.3596380">
        <ele>644.9</ele>
        <time>2020-11-11T10:02:36Z</time>
      </trkpt>
      <trkpt lat="28.4769700" lon="-16.3596530">
        <ele>645.9</ele>
        <time>2020-11-11T10:02:37Z</time>
      </trkpt>
      <trkpt lat="28.4769700" lon="-16.3596530">
        <ele>645.9</ele>
        <time>2020-11-11T10:02:38Z</time>
      </trkpt>
      <trkpt lat="28.4769220" lon="-16.3596870">
        <ele>645.9</ele>
        <time>2020-11-11T10:02:39Z</time>
      </trkpt>
      <trkpt lat="28.4768930" lon="-16.3597120">
        <ele>645.9</ele>
        <time>2020-11-11T10:02:40Z</time>
      </trkpt>
      <trkpt lat="28.4768930" lon="-16.3597120">
        <ele>646.9</ele>
        <time>2020-11-11T10:02:41Z</time>
      </trkpt>
      <trkpt lat="28.4768500" lon="-16.3597550">
        <ele>646.9</ele>
        <time>2020-11-11T10:02:42Z</time>
      </trkpt>
      <trkpt lat="28.4768380" lon="-16.3597800">
        <ele>646.9</ele>
        <time>2020-11-11T10:02:43Z</time>
      </trkpt>
      <trkpt lat="28.4768380" lon="-16.3597800">
        <ele>646.9</ele>
        <time>2020-11-11T10:02:44Z</time>
      </trkpt>
      <trkpt lat="28.4768020" lon="-16.3598150">
        <ele>646.9</ele>
        <time>2020-11-11T10:02:45Z</time>
      </trkpt>
      <trkpt lat="28.4768020" lon="-16.3598150">
        <ele>646.9</ele>
        <time>2020-11-11T10:02:46Z</time>
      </trkpt>
      <trkpt lat="28.4767630" lon="-16.3598400">
        <ele>647.9</ele>
        <time>2020-11-11T10:02:47Z</time>
      </trkpt>
      <trkpt lat="28.4767420" lon="-16.3598550">
        <ele>647.9</ele>
        <time>2020-11-11T10:02:48Z</time>
      </trkpt>
      <trkpt lat="28.4767200" lon="-16.3598720">
        <ele>647.9</ele>
        <time>2020-11-11T10:02:49Z</time>
      </trkpt>
      <trkpt lat="28.4767200" lon="-16.3598720">
        <ele>647.9</ele>
        <time>2020-11-11T10:02:50Z</time>
      </trkpt>
      <trkpt lat="28.4766770" lon="-16.3599030">
        <ele>647.9</ele>
        <time>2020-11-11T10:02:51Z</time>
      </trkpt>
      <trkpt lat="28.4766480" lon="-16.3599220">
        <ele>647.9</ele>
        <time>2020-11-11T10:02:52Z</time>
      </trkpt>
      <trkpt lat="28.4766480" lon="-16.3599220">
        <ele>647.9</ele>
        <time>2020-11-11T10:02:53Z</time>
      </trkpt>
      <trkpt lat="28.4766050" lon="-16.3599700">
        <ele>648.9</ele>
        <time>2020-11-11T10:02:54Z</time>
      </trkpt>
      <trkpt lat="28.4766050" lon="-16.3599700">
        <ele>648.9</ele>
        <time>2020-11-11T10:02:55Z</time>
      </trkpt>
      <trkpt lat="28.4765670" lon="-16.3600070">
        <ele>648.9</ele>
        <time>2020-11-11T10:02:56Z</time>
      </trkpt>
      <trkpt lat="28.4765670" lon="-16.3600070">
        <ele>648.9</ele>
        <time>2020-11-11T10:02:57Z</time>
      </trkpt>
      <trkpt lat="28.4765270" lon="-16.3600420">
        <ele>649.9</ele>
        <time>2020-11-11T10:02:58Z</time>
      </trkpt>
      <trkpt lat="28.4765270" lon="-16.3600420">
        <ele>649.9</ele>
        <time>2020-11-11T10:02:59Z</time>
      </trkpt>
      <trkpt lat="28.4764830" lon="-16.3600780">
        <ele>649.9</ele>
        <time>2020-11-11T10:03:00Z</time>
      </trkpt>
      <trkpt lat="28.4764620" lon="-16.3600980">
        <ele>649.9</ele>
        <time>2020-11-11T10:03:01Z</time>
      </trkpt>
      <trkpt lat="28.4764620" lon="-16.3600980">
        <ele>649.9</ele>
        <time>2020-11-11T10:03:02Z</time>
      </trkpt>
      <trkpt lat="28.4764200" lon="-16.3601430">
        <ele>649.9</ele>
        <time>2020-11-11T10:03:03Z</time>
      </trkpt>
      <trkpt lat="28.4764200" lon="-16.3601430">
        <ele>649.9</ele>
        <time>2020-11-11T10:03:04Z</time>
      </trkpt>
      <trkpt lat="28.4763730" lon="-16.3601870">
        <ele>649.9</ele>
        <time>2020-11-11T10:03:05Z</time>
      </trkpt>
      <trkpt lat="28.4763730" lon="-16.3601870">
        <ele>650.9</ele>
        <time>2020-11-11T10:03:06Z</time>
      </trkpt>
      <trkpt lat="28.4763220" lon="-16.3602250">
        <ele>650.9</ele>
        <time>2020-11-11T10:03:07Z</time>
      </trkpt>
      <trkpt lat="28.4763020" lon="-16.3602480">
        <ele>650.9</ele>
        <time>2020-11-11T10:03:08Z</time>
      </trkpt>
      <trkpt lat="28.4763020" lon="-16.3602480">
        <ele>650.9</ele>
        <time>2020-11-11T10:03:09Z</time>
      </trkpt>
      <trkpt lat="28.4762570" lon="-16.3603000">
        <ele>650.9</ele>
        <time>2020-11-11T10:03:10Z</time>
      </trkpt>
      <trkpt lat="28.4762570" lon="-16.3603000">
        <ele>650.9</ele>
        <time>2020-11-11T10:03:11Z</time>
      </trkpt>
      <trkpt lat="28.4762100" lon="-16.3603430">
        <ele>650.9</ele>
        <time>2020-11-11T10:03:12Z</time>
      </trkpt>
      <trkpt lat="28.4761870" lon="-16.3603620">
        <ele>650.9</ele>
        <time>2020-11-11T10:03:13Z</time>
      </trkpt>
      <trkpt lat="28.4761870" lon="-16.3603620">
        <ele>650.9</ele>
        <time>2020-11-11T10:03:14Z</time>
      </trkpt>
      <trkpt lat="28.4761450" lon="-16.3604070">
        <ele>650.9</ele>
        <time>2020-11-11T10:03:15Z</time>
      </trkpt>
      <trkpt lat="28.4761450" lon="-16.3604070">
        <ele>651.9</ele>
        <time>2020-11-11T10:03:16Z</time>
      </trkpt>
      <trkpt lat="28.4761080" lon="-16.3604580">
        <ele>651.9</ele>
        <time>2020-11-11T10:03:17Z</time>
      </trkpt>
      <trkpt lat="28.4761080" lon="-16.3604580">
        <ele>651.9</ele>
        <time>2020-11-11T10:03:18Z</time>
      </trkpt>
      <trkpt lat="28.4760720" lon="-16.3605150">
        <ele>651.9</ele>
        <time>2020-11-11T10:03:19Z</time>
      </trkpt>
      <trkpt lat="28.4760720" lon="-16.3605150">
        <ele>651.9</ele>
        <time>2020-11-11T10:03:20Z</time>
      </trkpt>
      <trkpt lat="28.4760330" lon="-16.3605670">
        <ele>651.9</ele>
        <time>2020-11-11T10:03:21Z</time>
      </trkpt>
      <trkpt lat="28.4760330" lon="-16.3605670">
        <ele>651.9</ele>
        <time>2020-11-11T10:03:22Z</time>
      </trkpt>
      <trkpt lat="28.4759930" lon="-16.3606320">
        <ele>651.9</ele>
        <time>2020-11-11T10:03:23Z</time>
      </trkpt>
      <trkpt lat="28.4759730" lon="-16.3606720">
        <ele>651.9</ele>
        <time>2020-11-11T10:03:24Z</time>
      </trkpt>
      <trkpt lat="28.4759730" lon="-16.3606720">
        <ele>651.9</ele>
        <time>2020-11-11T10:03:25Z</time>
      </trkpt>
      <trkpt lat="28.4759350" lon="-16.3607230">
        <ele>651.9</ele>
        <time>2020-11-11T10:03:26Z</time>
      </trkpt>
      <trkpt lat="28.4759350" lon="-16.3607230">
        <ele>651.9</ele>
        <time>2020-11-11T10:03:27Z</time>
      </trkpt>
      <trkpt lat="28.4758980" lon="-16.3607800">
        <ele>651.9</ele>
        <time>2020-11-11T10:03:28Z</time>
      </trkpt>
      <trkpt lat="28.4758980" lon="-16.3607800">
        <ele>651.9</ele>
        <time>2020-11-11T10:03:29Z</time>
      </trkpt>
      <trkpt lat="28.4758570" lon="-16.3608400">
        <ele>651.9</ele>
        <time>2020-11-11T10:03:30Z</time>
      </trkpt>
      <trkpt lat="28.4758350" lon="-16.3608700">
        <ele>652.9</ele>
        <time>2020-11-11T10:03:31Z</time>
      </trkpt>
      <trkpt lat="28.4758350" lon="-16.3608700">
        <ele>652.9</ele>
        <time>2020-11-11T10:03:32Z</time>
      </trkpt>
      <trkpt lat="28.4757930" lon="-16.3609370">
        <ele>652.9</ele>
        <time>2020-11-11T10:03:33Z</time>
      </trkpt>
      <trkpt lat="28.4757720" lon="-16.3609720">
        <ele>652.9</ele>
        <time>2020-11-11T10:03:34Z</time>
      </trkpt>
      <trkpt lat="28.4757720" lon="-16.3609720">
        <ele>652.9</ele>
        <time>2020-11-11T10:03:35Z</time>
      </trkpt>
      <trkpt lat="28.4757320" lon="-16.3610430">
        <ele>652.9</ele>
        <time>2020-11-11T10:03:36Z</time>
      </trkpt>
      <trkpt lat="28.4757150" lon="-16.3610820">
        <ele>653.9</ele>
        <time>2020-11-11T10:03:37Z</time>
      </trkpt>
      <trkpt lat="28.4757150" lon="-16.3610820">
        <ele>653.9</ele>
        <time>2020-11-11T10:03:38Z</time>
      </trkpt>
      <trkpt lat="28.4756850" lon="-16.3611520">
        <ele>653.9</ele>
        <time>2020-11-11T10:03:39Z</time>
      </trkpt>
      <trkpt lat="28.4756700" lon="-16.3611900">
        <ele>653.9</ele>
        <time>2020-11-11T10:03:40Z</time>
      </trkpt>
      <trkpt lat="28.4756700" lon="-16.3611900">
        <ele>653.9</ele>
        <time>2020-11-11T10:03:41Z</time>
      </trkpt>
      <trkpt lat="28.4756430" lon="-16.3612730">
        <ele>653.9</ele>
        <time>2020-11-11T10:03:42Z</time>
      </trkpt>
      <trkpt lat="28.4756430" lon="-16.3612730">
        <ele>654.9</ele>
        <time>2020-11-11T10:03:43Z</time>
      </trkpt>
      <trkpt lat="28.4756330" lon="-16.3613580">
        <ele>654.9</ele>
        <time>2020-11-11T10:03:44Z</time>
      </trkpt>
      <trkpt lat="28.4756330" lon="-16.3613580">
        <ele>654.9</ele>
        <time>2020-11-11T10:03:45Z</time>
      </trkpt>
      <trkpt lat="28.4756230" lon="-16.3614450">
        <ele>654.9</ele>
        <time>2020-11-11T10:03:46Z</time>
      </trkpt>
      <trkpt lat="28.4756170" lon="-16.3614870">
        <ele>654.9</ele>
        <time>2020-11-11T10:03:47Z</time>
      </trkpt>
      <trkpt lat="28.4756170" lon="-16.3614870">
        <ele>654.9</ele>
        <time>2020-11-11T10:03:48Z</time>
      </trkpt>
      <trkpt lat="28.4756000" lon="-16.3615670">
        <ele>654.9</ele>
        <time>2020-11-11T10:03:49Z</time>
      </trkpt>
      <trkpt lat="28.4756000" lon="-16.3615670">
        <ele>654.9</ele>
        <time>2020-11-11T10:03:50Z</time>
      </trkpt>
      <trkpt lat="28.4755730" lon="-16.3616470">
        <ele>655.9</ele>
        <time>2020-11-11T10:03:51Z</time>
      </trkpt>
      <trkpt lat="28.4755730" lon="-16.3616470">
        <ele>655.9</ele>
        <time>2020-11-11T10:03:52Z</time>
      </trkpt>
      <trkpt lat="28.4755450" lon="-16.3617150">
        <ele>655.9</ele>
        <time>2020-11-11T10:03:53Z</time>
      </trkpt>
      <trkpt lat="28.4755450" lon="-16.3617150">
        <ele>655.9</ele>
        <time>2020-11-11T10:03:54Z</time>
      </trkpt>
      <trkpt lat="28.4755230" lon="-16.3617700">
        <ele>656.9</ele>
        <time>2020-11-11T10:03:55Z</time>
      </trkpt>
      <trkpt lat="28.4755230" lon="-16.3617700">
        <ele>656.9</ele>
        <time>2020-11-11T10:03:56Z</time>
      </trkpt>
      <trkpt lat="28.4754950" lon="-16.3618200">
        <ele>656.9</ele>
        <time>2020-11-11T10:03:57Z</time>
      </trkpt>
      <trkpt lat="28.4754950" lon="-16.3618200">
        <ele>656.9</ele>
        <time>2020-11-11T10:03:58Z</time>
      </trkpt>
      <trkpt lat="28.4754700" lon="-16.3618630">
        <ele>657.9</ele>
        <time>2020-11-11T10:03:59Z</time>
      </trkpt>
      <trkpt lat="28.4754620" lon="-16.3618900">
        <ele>657.9</ele>
        <time>2020-11-11T10:04:00Z</time>
      </trkpt>
      <trkpt lat="28.4754620" lon="-16.3618900">
        <ele>657.9</ele>
        <time>2020-11-11T10:04:01Z</time>
      </trkpt>
      <trkpt lat="28.4754330" lon="-16.3619400">
        <ele>657.9</ele>
        <time>2020-11-11T10:04:02Z</time>
      </trkpt>
      <trkpt lat="28.4754200" lon="-16.3619600">
        <ele>658.9</ele>
        <time>2020-11-11T10:04:03Z</time>
      </trkpt>
      <trkpt lat="28.4754200" lon="-16.3619600">
        <ele>658.9</ele>
        <time>2020-11-11T10:04:04Z</time>
      </trkpt>
      <trkpt lat="28.4753850" lon="-16.3619920">
        <ele>658.9</ele>
        <time>2020-11-11T10:04:05Z</time>
      </trkpt>
      <trkpt lat="28.4753850" lon="-16.3619920">
        <ele>659.9</ele>
        <time>2020-11-11T10:04:06Z</time>
      </trkpt>
      <trkpt lat="28.4753830" lon="-16.3620380">
        <ele>659.9</ele>
        <time>2020-11-11T10:04:07Z</time>
      </trkpt>
      <trkpt lat="28.4753830" lon="-16.3620380">
        <ele>659.9</ele>
        <time>2020-11-11T10:04:08Z</time>
      </trkpt>
      <trkpt lat="28.4753600" lon="-16.3620770">
        <ele>659.9</ele>
        <time>2020-11-11T10:04:09Z</time>
      </trkpt>
      <trkpt lat="28.4753600" lon="-16.3620770">
        <ele>660.9</ele>
        <time>2020-11-11T10:04:10Z</time>
      </trkpt>
      <trkpt lat="28.4753400" lon="-16.3621170">
        <ele>660.9</ele>
        <time>2020-11-11T10:04:11Z</time>
      </trkpt>
      <trkpt lat="28.4753400" lon="-16.3621170">
        <ele>660.9</ele>
        <time>2020-11-11T10:04:12Z</time>
      </trkpt>
      <trkpt lat="28.4753180" lon="-16.3621570">
        <ele>660.9</ele>
        <time>2020-11-11T10:04:13Z</time>
      </trkpt>
      <trkpt lat="28.4753180" lon="-16.3621570">
        <ele>660.9</ele>
        <time>2020-11-11T10:04:14Z</time>
      </trkpt>
      <trkpt lat="28.4752930" lon="-16.3621980">
        <ele>660.9</ele>
        <time>2020-11-11T10:04:15Z</time>
      </trkpt>
      <trkpt lat="28.4752850" lon="-16.3622230">
        <ele>661.9</ele>
        <time>2020-11-11T10:04:16Z</time>
      </trkpt>
      <trkpt lat="28.4752780" lon="-16.3622480">
        <ele>661.9</ele>
        <time>2020-11-11T10:04:17Z</time>
      </trkpt>
      <trkpt lat="28.4752780" lon="-16.3622480">
        <ele>661.9</ele>
        <time>2020-11-11T10:04:18Z</time>
      </trkpt>
      <trkpt lat="28.4752570" lon="-16.3622930">
        <ele>661.9</ele>
        <time>2020-11-11T10:04:19Z</time>
      </trkpt>
      <trkpt lat="28.4752570" lon="-16.3622930">
        <ele>661.9</ele>
        <time>2020-11-11T10:04:20Z</time>
      </trkpt>
      <trkpt lat="28.4752300" lon="-16.3623380">
        <ele>661.9</ele>
        <time>2020-11-11T10:04:21Z</time>
      </trkpt>
      <trkpt lat="28.4752300" lon="-16.3623380">
        <ele>662.9</ele>
        <time>2020-11-11T10:04:22Z</time>
      </trkpt>
      <trkpt lat="28.4752020" lon="-16.3623870">
        <ele>662.9</ele>
        <time>2020-11-11T10:04:23Z</time>
      </trkpt>
      <trkpt lat="28.4752020" lon="-16.3623870">
        <ele>662.9</ele>
        <time>2020-11-11T10:04:24Z</time>
      </trkpt>
      <trkpt lat="28.4751680" lon="-16.3624330">
        <ele>662.9</ele>
        <time>2020-11-11T10:04:25Z</time>
      </trkpt>
      <trkpt lat="28.4751680" lon="-16.3624330">
        <ele>662.9</ele>
        <time>2020-11-11T10:04:26Z</time>
      </trkpt>
      <trkpt lat="28.4751430" lon="-16.3624870">
        <ele>662.9</ele>
        <time>2020-11-11T10:04:27Z</time>
      </trkpt>
      <trkpt lat="28.4751330" lon="-16.3625120">
        <ele>663.9</ele>
        <time>2020-11-11T10:04:28Z</time>
      </trkpt>
      <trkpt lat="28.4751330" lon="-16.3625120">
        <ele>663.9</ele>
        <time>2020-11-11T10:04:29Z</time>
      </trkpt>
      <trkpt lat="28.4751030" lon="-16.3625580">
        <ele>663.9</ele>
        <time>2020-11-11T10:04:30Z</time>
      </trkpt>
      <trkpt lat="28.4750920" lon="-16.3625830">
        <ele>663.9</ele>
        <time>2020-11-11T10:04:31Z</time>
      </trkpt>
      <trkpt lat="28.4750920" lon="-16.3625830">
        <ele>663.9</ele>
        <time>2020-11-11T10:04:32Z</time>
      </trkpt>
      <trkpt lat="28.4750700" lon="-16.3626380">
        <ele>663.9</ele>
        <time>2020-11-11T10:04:33Z</time>
      </trkpt>
      <trkpt lat="28.4750700" lon="-16.3626380">
        <ele>664.9</ele>
        <time>2020-11-11T10:04:34Z</time>
      </trkpt>
      <trkpt lat="28.4750480" lon="-16.3626920">
        <ele>664.9</ele>
        <time>2020-11-11T10:04:35Z</time>
      </trkpt>
      <trkpt lat="28.4750480" lon="-16.3626920">
        <ele>664.9</ele>
        <time>2020-11-11T10:04:36Z</time>
      </trkpt>
      <trkpt lat="28.4750270" lon="-16.3627450">
        <ele>664.9</ele>
        <time>2020-11-11T10:04:37Z</time>
      </trkpt>
      <trkpt lat="28.4750270" lon="-16.3627450">
        <ele>664.9</ele>
        <time>2020-11-11T10:04:38Z</time>
      </trkpt>
      <trkpt lat="28.4750100" lon="-16.3628050">
        <ele>664.9</ele>
        <time>2020-11-11T10:04:39Z</time>
      </trkpt>
      <trkpt lat="28.4750000" lon="-16.3628320">
        <ele>664.9</ele>
        <time>2020-11-11T10:04:40Z</time>
      </trkpt>
      <trkpt lat="28.4750000" lon="-16.3628320">
        <ele>665.9</ele>
        <time>2020-11-11T10:04:41Z</time>
      </trkpt>
      <trkpt lat="28.4749820" lon="-16.3628870">
        <ele>665.9</ele>
        <time>2020-11-11T10:04:42Z</time>
      </trkpt>
      <trkpt lat="28.4749730" lon="-16.3629130">
        <ele>665.9</ele>
        <time>2020-11-11T10:04:43Z</time>
      </trkpt>
      <trkpt lat="28.4749700" lon="-16.3629400">
        <ele>665.9</ele>
        <time>2020-11-11T10:04:44Z</time>
      </trkpt>
      <trkpt lat="28.4749700" lon="-16.3629400">
        <ele>665.9</ele>
        <time>2020-11-11T10:04:45Z</time>
      </trkpt>
      <trkpt lat="28.4749470" lon="-16.3629930">
        <ele>665.9</ele>
        <time>2020-11-11T10:04:46Z</time>
      </trkpt>
      <trkpt lat="28.4749350" lon="-16.3630180">
        <ele>665.9</ele>
        <time>2020-11-11T10:04:47Z</time>
      </trkpt>
      <trkpt lat="28.4749350" lon="-16.3630180">
        <ele>665.9</ele>
        <time>2020-11-11T10:04:48Z</time>
      </trkpt>
      <trkpt lat="28.4749150" lon="-16.3630750">
        <ele>665.9</ele>
        <time>2020-11-11T10:04:49Z</time>
      </trkpt>
      <trkpt lat="28.4749150" lon="-16.3630750">
        <ele>665.9</ele>
        <time>2020-11-11T10:04:50Z</time>
      </trkpt>
      <trkpt lat="28.4748930" lon="-16.3631320">
        <ele>665.9</ele>
        <time>2020-11-11T10:04:51Z</time>
      </trkpt>
      <trkpt lat="28.4748930" lon="-16.3631320">
        <ele>666.9</ele>
        <time>2020-11-11T10:04:52Z</time>
      </trkpt>
      <trkpt lat="28.4748720" lon="-16.3631850">
        <ele>666.9</ele>
        <time>2020-11-11T10:04:53Z</time>
      </trkpt>
      <trkpt lat="28.4748720" lon="-16.3631850">
        <ele>666.9</ele>
        <time>2020-11-11T10:04:54Z</time>
      </trkpt>
      <trkpt lat="28.4748500" lon="-16.3632430">
        <ele>666.9</ele>
        <time>2020-11-11T10:04:55Z</time>
      </trkpt>
      <trkpt lat="28.4748500" lon="-16.3632430">
        <ele>666.9</ele>
        <time>2020-11-11T10:04:56Z</time>
      </trkpt>
      <trkpt lat="28.4748370" lon="-16.3633130">
        <ele>666.9</ele>
        <time>2020-11-11T10:04:57Z</time>
      </trkpt>
      <trkpt lat="28.4748370" lon="-16.3633130">
        <ele>667.9</ele>
        <time>2020-11-11T10:04:58Z</time>
      </trkpt>
      <trkpt lat="28.4748250" lon="-16.3633680">
        <ele>667.9</ele>
        <time>2020-11-11T10:04:59Z</time>
      </trkpt>
      <trkpt lat="28.4748180" lon="-16.3633980">
        <ele>667.9</ele>
        <time>2020-11-11T10:05:00Z</time>
      </trkpt>
      <trkpt lat="28.4748180" lon="-16.3633980">
        <ele>667.9</ele>
        <time>2020-11-11T10:05:01Z</time>
      </trkpt>
      <trkpt lat="28.4747950" lon="-16.3634550">
        <ele>667.9</ele>
        <time>2020-11-11T10:05:02Z</time>
      </trkpt>
      <trkpt lat="28.4747950" lon="-16.3634550">
        <ele>667.9</ele>
        <time>2020-11-11T10:05:03Z</time>
      </trkpt>
      <trkpt lat="28.4747820" lon="-16.3635120">
        <ele>668.9</ele>
        <time>2020-11-11T10:05:04Z</time>
      </trkpt>
      <trkpt lat="28.4747820" lon="-16.3635120">
        <ele>668.9</ele>
        <time>2020-11-11T10:05:05Z</time>
      </trkpt>
      <trkpt lat="28.4747620" lon="-16.3635630">
        <ele>668.9</ele>
        <time>2020-11-11T10:05:06Z</time>
      </trkpt>
      <trkpt lat="28.4747500" lon="-16.3635880">
        <ele>668.9</ele>
        <time>2020-11-11T10:05:07Z</time>
      </trkpt>
      <trkpt lat="28.4747500" lon="-16.3635880">
        <ele>668.9</ele>
        <time>2020-11-11T10:05:08Z</time>
      </trkpt>
      <trkpt lat="28.4747270" lon="-16.3636400">
        <ele>668.9</ele>
        <time>2020-11-11T10:05:09Z</time>
      </trkpt>
      <trkpt lat="28.4747130" lon="-16.3636630">
        <ele>669.9</ele>
        <time>2020-11-11T10:05:10Z</time>
      </trkpt>
      <trkpt lat="28.4747130" lon="-16.3636630">
        <ele>669.9</ele>
        <time>2020-11-11T10:05:11Z</time>
      </trkpt>
      <trkpt lat="28.4746920" lon="-16.3637170">
        <ele>669.9</ele>
        <time>2020-11-11T10:05:12Z</time>
      </trkpt>
      <trkpt lat="28.4746830" lon="-16.3637450">
        <ele>669.9</ele>
        <time>2020-11-11T10:05:13Z</time>
      </trkpt>
      <trkpt lat="28.4746830" lon="-16.3637450">
        <ele>670.9</ele>
        <time>2020-11-11T10:05:14Z</time>
      </trkpt>
      <trkpt lat="28.4746650" lon="-16.3637980">
        <ele>670.9</ele>
        <time>2020-11-11T10:05:15Z</time>
      </trkpt>
      <trkpt lat="28.4746580" lon="-16.3638280">
        <ele>670.9</ele>
        <time>2020-11-11T10:05:16Z</time>
      </trkpt>
      <trkpt lat="28.4746580" lon="-16.3638280">
        <ele>670.9</ele>
        <time>2020-11-11T10:05:17Z</time>
      </trkpt>
      <trkpt lat="28.4746420" lon="-16.3638830">
        <ele>670.9</ele>
        <time>2020-11-11T10:05:18Z</time>
      </trkpt>
      <trkpt lat="28.4746420" lon="-16.3638830">
        <ele>670.9</ele>
        <time>2020-11-11T10:05:19Z</time>
      </trkpt>
      <trkpt lat="28.4746180" lon="-16.3639370">
        <ele>670.9</ele>
        <time>2020-11-11T10:05:20Z</time>
      </trkpt>
      <trkpt lat="28.4746180" lon="-16.3639370">
        <ele>670.9</ele>
        <time>2020-11-11T10:05:21Z</time>
      </trkpt>
      <trkpt lat="28.4745950" lon="-16.3639970">
        <ele>670.9</ele>
        <time>2020-11-11T10:05:22Z</time>
      </trkpt>
      <trkpt lat="28.4745850" lon="-16.3640280">
        <ele>670.9</ele>
        <time>2020-11-11T10:05:23Z</time>
      </trkpt>
      <trkpt lat="28.4745830" lon="-16.3640570">
        <ele>670.9</ele>
        <time>2020-11-11T10:05:24Z</time>
      </trkpt>
      <trkpt lat="28.4745830" lon="-16.3640570">
        <ele>670.9</ele>
        <time>2020-11-11T10:05:25Z</time>
      </trkpt>
      <trkpt lat="28.4745870" lon="-16.3641150">
        <ele>670.9</ele>
        <time>2020-11-11T10:05:26Z</time>
      </trkpt>
      <trkpt lat="28.4745870" lon="-16.3641150">
        <ele>671.9</ele>
        <time>2020-11-11T10:05:27Z</time>
      </trkpt>
      <trkpt lat="28.4745830" lon="-16.3641630">
        <ele>671.9</ele>
        <time>2020-11-11T10:05:28Z</time>
      </trkpt>
      <trkpt lat="28.4745830" lon="-16.3641630">
        <ele>671.9</ele>
        <time>2020-11-11T10:05:29Z</time>
      </trkpt>
      <trkpt lat="28.4745620" lon="-16.3642280">
        <ele>671.9</ele>
        <time>2020-11-11T10:05:30Z</time>
      </trkpt>
      <trkpt lat="28.4745620" lon="-16.3642280">
        <ele>672.9</ele>
        <time>2020-11-11T10:05:31Z</time>
      </trkpt>
      <trkpt lat="28.4745170" lon="-16.3642920">
        <ele>672.9</ele>
        <time>2020-11-11T10:05:32Z</time>
      </trkpt>
      <trkpt lat="28.4744900" lon="-16.3643130">
        <ele>672.9</ele>
        <time>2020-11-11T10:05:33Z</time>
      </trkpt>
      <trkpt lat="28.4744670" lon="-16.3643380">
        <ele>672.9</ele>
        <time>2020-11-11T10:05:34Z</time>
      </trkpt>
      <trkpt lat="28.4744670" lon="-16.3643380">
        <ele>672.9</ele>
        <time>2020-11-11T10:05:35Z</time>
      </trkpt>
      <trkpt lat="28.4744270" lon="-16.3643880">
        <ele>672.9</ele>
        <time>2020-11-11T10:05:36Z</time>
      </trkpt>
      <trkpt lat="28.4744100" lon="-16.3644170">
        <ele>673.9</ele>
        <time>2020-11-11T10:05:37Z</time>
      </trkpt>
      <trkpt lat="28.4744100" lon="-16.3644170">
        <ele>673.9</ele>
        <time>2020-11-11T10:05:38Z</time>
      </trkpt>
      <trkpt lat="28.4743720" lon="-16.3644680">
        <ele>673.9</ele>
        <time>2020-11-11T10:05:39Z</time>
      </trkpt>
      <trkpt lat="28.4743720" lon="-16.3644680">
        <ele>673.9</ele>
        <time>2020-11-11T10:05:40Z</time>
      </trkpt>
      <trkpt lat="28.4743370" lon="-16.3645230">
        <ele>673.9</ele>
        <time>2020-11-11T10:05:41Z</time>
      </trkpt>
      <trkpt lat="28.4743370" lon="-16.3645230">
        <ele>673.9</ele>
        <time>2020-11-11T10:05:42Z</time>
      </trkpt>
      <trkpt lat="28.4743020" lon="-16.3645770">
        <ele>674.9</ele>
        <time>2020-11-11T10:05:43Z</time>
      </trkpt>
      <trkpt lat="28.4743020" lon="-16.3645770">
        <ele>674.9</ele>
        <time>2020-11-11T10:05:44Z</time>
      </trkpt>
      <trkpt lat="28.4742680" lon="-16.3646320">
        <ele>674.9</ele>
        <time>2020-11-11T10:05:45Z</time>
      </trkpt>
      <trkpt lat="28.4742500" lon="-16.3646600">
        <ele>674.9</ele>
        <time>2020-11-11T10:05:46Z</time>
      </trkpt>
      <trkpt lat="28.4742500" lon="-16.3646600">
        <ele>675.9</ele>
        <time>2020-11-11T10:05:47Z</time>
      </trkpt>
      <trkpt lat="28.4742220" lon="-16.3647170">
        <ele>675.9</ele>
        <time>2020-11-11T10:05:48Z</time>
      </trkpt>
      <trkpt lat="28.4742070" lon="-16.3647430">
        <ele>675.9</ele>
        <time>2020-11-11T10:05:49Z</time>
      </trkpt>
      <trkpt lat="28.4742070" lon="-16.3647430">
        <ele>675.9</ele>
        <time>2020-11-11T10:05:50Z</time>
      </trkpt>
      <trkpt lat="28.4741730" lon="-16.3647920">
        <ele>676.9</ele>
        <time>2020-11-11T10:05:51Z</time>
      </trkpt>
      <trkpt lat="28.4741730" lon="-16.3647920">
        <ele>676.9</ele>
        <time>2020-11-11T10:05:52Z</time>
      </trkpt>
      <trkpt lat="28.4741480" lon="-16.3648430">
        <ele>676.9</ele>
        <time>2020-11-11T10:05:53Z</time>
      </trkpt>
      <trkpt lat="28.4741480" lon="-16.3648430">
        <ele>676.9</ele>
        <time>2020-11-11T10:05:54Z</time>
      </trkpt>
      <trkpt lat="28.4741220" lon="-16.3648950">
        <ele>676.9</ele>
        <time>2020-11-11T10:05:55Z</time>
      </trkpt>
      <trkpt lat="28.4741220" lon="-16.3648950">
        <ele>676.9</ele>
        <time>2020-11-11T10:05:56Z</time>
      </trkpt>
      <trkpt lat="28.4740870" lon="-16.3649380">
        <ele>676.9</ele>
        <time>2020-11-11T10:05:57Z</time>
      </trkpt>
      <trkpt lat="28.4740870" lon="-16.3649380">
        <ele>676.9</ele>
        <time>2020-11-11T10:05:58Z</time>
      </trkpt>
      <trkpt lat="28.4740350" lon="-16.3649800">
        <ele>676.9</ele>
        <time>2020-11-11T10:05:59Z</time>
      </trkpt>
      <trkpt lat="28.4740350" lon="-16.3649800">
        <ele>677.9</ele>
        <time>2020-11-11T10:06:00Z</time>
      </trkpt>
      <trkpt lat="28.4739820" lon="-16.3650180">
        <ele>677.9</ele>
        <time>2020-11-11T10:06:01Z</time>
      </trkpt>
      <trkpt lat="28.4739620" lon="-16.3650430">
        <ele>677.9</ele>
        <time>2020-11-11T10:06:02Z</time>
      </trkpt>
      <trkpt lat="28.4739620" lon="-16.3650430">
        <ele>677.9</ele>
        <time>2020-11-11T10:06:03Z</time>
      </trkpt>
      <trkpt lat="28.4739330" lon="-16.3651030">
        <ele>677.9</ele>
        <time>2020-11-11T10:06:04Z</time>
      </trkpt>
      <trkpt lat="28.4739330" lon="-16.3651030">
        <ele>677.9</ele>
        <time>2020-11-11T10:06:05Z</time>
      </trkpt>
      <trkpt lat="28.4739130" lon="-16.3651680">
        <ele>678.9</ele>
        <time>2020-11-11T10:06:06Z</time>
      </trkpt>
      <trkpt lat="28.4739000" lon="-16.3651930">
        <ele>678.9</ele>
        <time>2020-11-11T10:06:07Z</time>
      </trkpt>
      <trkpt lat="28.4739000" lon="-16.3651930">
        <ele>678.9</ele>
        <time>2020-11-11T10:06:08Z</time>
      </trkpt>
      <trkpt lat="28.4738730" lon="-16.3652450">
        <ele>678.9</ele>
        <time>2020-11-11T10:06:09Z</time>
      </trkpt>
      <trkpt lat="28.4738730" lon="-16.3652450">
        <ele>679.9</ele>
        <time>2020-11-11T10:06:10Z</time>
      </trkpt>
      <trkpt lat="28.4738420" lon="-16.3652970">
        <ele>679.9</ele>
        <time>2020-11-11T10:06:11Z</time>
      </trkpt>
      <trkpt lat="28.4738420" lon="-16.3652970">
        <ele>679.9</ele>
        <time>2020-11-11T10:06:12Z</time>
      </trkpt>
      <trkpt lat="28.4738100" lon="-16.3653470">
        <ele>679.9</ele>
        <time>2020-11-11T10:06:13Z</time>
      </trkpt>
      <trkpt lat="28.4738100" lon="-16.3653470">
        <ele>680.9</ele>
        <time>2020-11-11T10:06:14Z</time>
      </trkpt>
      <trkpt lat="28.4737770" lon="-16.3653920">
        <ele>680.9</ele>
        <time>2020-11-11T10:06:15Z</time>
      </trkpt>
      <trkpt lat="28.4737630" lon="-16.3654170">
        <ele>680.9</ele>
        <time>2020-11-11T10:06:16Z</time>
      </trkpt>
      <trkpt lat="28.4737630" lon="-16.3654170">
        <ele>680.9</ele>
        <time>2020-11-11T10:06:17Z</time>
      </trkpt>
      <trkpt lat="28.4737400" lon="-16.3654630">
        <ele>681.9</ele>
        <time>2020-11-11T10:06:18Z</time>
      </trkpt>
      <trkpt lat="28.4737220" lon="-16.3654830">
        <ele>681.9</ele>
        <time>2020-11-11T10:06:19Z</time>
      </trkpt>
      <trkpt lat="28.4737220" lon="-16.3654830">
        <ele>681.9</ele>
        <time>2020-11-11T10:06:20Z</time>
      </trkpt>
      <trkpt lat="28.4737000" lon="-16.3655320">
        <ele>681.9</ele>
        <time>2020-11-11T10:06:21Z</time>
      </trkpt>
      <trkpt lat="28.4736900" lon="-16.3655570">
        <ele>681.9</ele>
        <time>2020-11-11T10:06:22Z</time>
      </trkpt>
      <trkpt lat="28.4736900" lon="-16.3655570">
        <ele>681.9</ele>
        <time>2020-11-11T10:06:23Z</time>
      </trkpt>
      <trkpt lat="28.4736670" lon="-16.3656050">
        <ele>682.9</ele>
        <time>2020-11-11T10:06:24Z</time>
      </trkpt>
      <trkpt lat="28.4736670" lon="-16.3656050">
        <ele>682.9</ele>
        <time>2020-11-11T10:06:25Z</time>
      </trkpt>
      <trkpt lat="28.4736380" lon="-16.3656550">
        <ele>682.9</ele>
        <time>2020-11-11T10:06:26Z</time>
      </trkpt>
      <trkpt lat="28.4736250" lon="-16.3656800">
        <ele>682.9</ele>
        <time>2020-11-11T10:06:27Z</time>
      </trkpt>
      <trkpt lat="28.4736250" lon="-16.3656800">
        <ele>682.9</ele>
        <time>2020-11-11T10:06:28Z</time>
      </trkpt>
      <trkpt lat="28.4736120" lon="-16.3657370">
        <ele>682.9</ele>
        <time>2020-11-11T10:06:29Z</time>
      </trkpt>
      <trkpt lat="28.4736120" lon="-16.3657370">
        <ele>683.9</ele>
        <time>2020-11-11T10:06:30Z</time>
      </trkpt>
      <trkpt lat="28.4735900" lon="-16.3657900">
        <ele>683.9</ele>
        <time>2020-11-11T10:06:31Z</time>
      </trkpt>
      <trkpt lat="28.4735900" lon="-16.3657900">
        <ele>683.9</ele>
        <time>2020-11-11T10:06:32Z</time>
      </trkpt>
      <trkpt lat="28.4735570" lon="-16.3658400">
        <ele>683.9</ele>
        <time>2020-11-11T10:06:33Z</time>
      </trkpt>
      <trkpt lat="28.4735330" lon="-16.3658620">
        <ele>683.9</ele>
        <time>2020-11-11T10:06:34Z</time>
      </trkpt>
      <trkpt lat="28.4735330" lon="-16.3658620">
        <ele>683.9</ele>
        <time>2020-11-11T10:06:35Z</time>
      </trkpt>
      <trkpt lat="28.4734920" lon="-16.3659020">
        <ele>684.9</ele>
        <time>2020-11-11T10:06:36Z</time>
      </trkpt>
      <trkpt lat="28.4734730" lon="-16.3659230">
        <ele>684.9</ele>
        <time>2020-11-11T10:06:37Z</time>
      </trkpt>
      <trkpt lat="28.4734730" lon="-16.3659230">
        <ele>684.9</ele>
        <time>2020-11-11T10:06:38Z</time>
      </trkpt>
      <trkpt lat="28.4734350" lon="-16.3659630">
        <ele>684.9</ele>
        <time>2020-11-11T10:06:39Z</time>
      </trkpt>
      <trkpt lat="28.4734350" lon="-16.3659630">
        <ele>684.9</ele>
        <time>2020-11-11T10:06:40Z</time>
      </trkpt>
      <trkpt lat="28.4733980" lon="-16.3660000">
        <ele>684.9</ele>
        <time>2020-11-11T10:06:41Z</time>
      </trkpt>
      <trkpt lat="28.4733980" lon="-16.3660000">
        <ele>684.9</ele>
        <time>2020-11-11T10:06:42Z</time>
      </trkpt>
      <trkpt lat="28.4733570" lon="-16.3660380">
        <ele>685.9</ele>
        <time>2020-11-11T10:06:43Z</time>
      </trkpt>
      <trkpt lat="28.4733570" lon="-16.3660380">
        <ele>685.9</ele>
        <time>2020-11-11T10:06:44Z</time>
      </trkpt>
      <trkpt lat="28.4733130" lon="-16.3660770">
        <ele>685.9</ele>
        <time>2020-11-11T10:06:45Z</time>
      </trkpt>
      <trkpt lat="28.4733130" lon="-16.3660770">
        <ele>685.9</ele>
        <time>2020-11-11T10:06:46Z</time>
      </trkpt>
      <trkpt lat="28.4732750" lon="-16.3661100">
        <ele>686.9</ele>
        <time>2020-11-11T10:06:47Z</time>
      </trkpt>
      <trkpt lat="28.4732550" lon="-16.3661280">
        <ele>686.9</ele>
        <time>2020-11-11T10:06:48Z</time>
      </trkpt>
      <trkpt lat="28.4732370" lon="-16.3661480">
        <ele>686.9</ele>
        <time>2020-11-11T10:06:49Z</time>
      </trkpt>
      <trkpt lat="28.4732370" lon="-16.3661480">
        <ele>686.9</ele>
        <time>2020-11-11T10:06:50Z</time>
      </trkpt>
      <trkpt lat="28.4732020" lon="-16.3661900">
        <ele>687.9</ele>
        <time>2020-11-11T10:06:51Z</time>
      </trkpt>
      <trkpt lat="28.4731830" lon="-16.3662120">
        <ele>687.9</ele>
        <time>2020-11-11T10:06:52Z</time>
      </trkpt>
      <trkpt lat="28.4731830" lon="-16.3662120">
        <ele>687.9</ele>
        <time>2020-11-11T10:06:53Z</time>
      </trkpt>
      <trkpt lat="28.4731580" lon="-16.3662550">
        <ele>687.9</ele>
        <time>2020-11-11T10:06:54Z</time>
      </trkpt>
      <trkpt lat="28.4731580" lon="-16.3662550">
        <ele>687.9</ele>
        <time>2020-11-11T10:06:55Z</time>
      </trkpt>
      <trkpt lat="28.4731380" lon="-16.3663050">
        <ele>687.9</ele>
        <time>2020-11-11T10:06:56Z</time>
      </trkpt>
      <trkpt lat="28.4731380" lon="-16.3663050">
        <ele>688.9</ele>
        <time>2020-11-11T10:06:57Z</time>
      </trkpt>
      <trkpt lat="28.4731280" lon="-16.3663570">
        <ele>688.9</ele>
        <time>2020-11-11T10:06:58Z</time>
      </trkpt>
      <trkpt lat="28.4731280" lon="-16.3663570">
        <ele>688.9</ele>
        <time>2020-11-11T10:06:59Z</time>
      </trkpt>
      <trkpt lat="28.4731170" lon="-16.3664180">
        <ele>688.9</ele>
        <time>2020-11-11T10:07:00Z</time>
      </trkpt>
      <trkpt lat="28.4731170" lon="-16.3664180">
        <ele>689.9</ele>
        <time>2020-11-11T10:07:01Z</time>
      </trkpt>
      <trkpt lat="28.4731100" lon="-16.3664730">
        <ele>689.9</ele>
        <time>2020-11-11T10:07:02Z</time>
      </trkpt>
      <trkpt lat="28.4730980" lon="-16.3664930">
        <ele>689.9</ele>
        <time>2020-11-11T10:07:03Z</time>
      </trkpt>
      <trkpt lat="28.4730980" lon="-16.3664930">
        <ele>689.9</ele>
        <time>2020-11-11T10:07:04Z</time>
      </trkpt>
      <trkpt lat="28.4730880" lon="-16.3665370">
        <ele>689.9</ele>
        <time>2020-11-11T10:07:05Z</time>
      </trkpt>
      <trkpt lat="28.4730830" lon="-16.3665580">
        <ele>689.9</ele>
        <time>2020-11-11T10:07:06Z</time>
      </trkpt>
      <trkpt lat="28.4730780" lon="-16.3665820">
        <ele>690.9</ele>
        <time>2020-11-11T10:07:07Z</time>
      </trkpt>
      <trkpt lat="28.4730780" lon="-16.3665820">
        <ele>690.9</ele>
        <time>2020-11-11T10:07:08Z</time>
      </trkpt>
      <trkpt lat="28.4730700" lon="-16.3666250">
        <ele>690.9</ele>
        <time>2020-11-11T10:07:09Z</time>
      </trkpt>
      <trkpt lat="28.4730700" lon="-16.3666250">
        <ele>690.9</ele>
        <time>2020-11-11T10:07:10Z</time>
      </trkpt>
      <trkpt lat="28.4730650" lon="-16.3666700">
        <ele>690.9</ele>
        <time>2020-11-11T10:07:11Z</time>
      </trkpt>
      <trkpt lat="28.4730620" lon="-16.3666920">
        <ele>690.9</ele>
        <time>2020-11-11T10:07:12Z</time>
      </trkpt>
      <trkpt lat="28.4730620" lon="-16.3666920">
        <ele>690.9</ele>
        <time>2020-11-11T10:07:13Z</time>
      </trkpt>
      <trkpt lat="28.4730570" lon="-16.3667370">
        <ele>690.9</ele>
        <time>2020-11-11T10:07:14Z</time>
      </trkpt>
      <trkpt lat="28.4730530" lon="-16.3667580">
        <ele>690.9</ele>
        <time>2020-11-11T10:07:15Z</time>
      </trkpt>
      <trkpt lat="28.4730530" lon="-16.3667580">
        <ele>691.9</ele>
        <time>2020-11-11T10:07:16Z</time>
      </trkpt>
      <trkpt lat="28.4730470" lon="-16.3668050">
        <ele>691.9</ele>
        <time>2020-11-11T10:07:17Z</time>
      </trkpt>
      <trkpt lat="28.4730470" lon="-16.3668050">
        <ele>691.9</ele>
        <time>2020-11-11T10:07:18Z</time>
      </trkpt>
      <trkpt lat="28.4730430" lon="-16.3668430">
        <ele>691.9</ele>
        <time>2020-11-11T10:07:19Z</time>
      </trkpt>
      <trkpt lat="28.4730430" lon="-16.3668430">
        <ele>692.9</ele>
        <time>2020-11-11T10:07:20Z</time>
      </trkpt>
      <trkpt lat="28.4730400" lon="-16.3668830">
        <ele>692.9</ele>
        <time>2020-11-11T10:07:21Z</time>
      </trkpt>
      <trkpt lat="28.4730400" lon="-16.3668830">
        <ele>691.9</ele>
        <time>2020-11-11T10:07:22Z</time>
      </trkpt>
      <trkpt lat="28.4730330" lon="-16.3669250">
        <ele>691.9</ele>
        <time>2020-11-11T10:07:23Z</time>
      </trkpt>
      <trkpt lat="28.4730330" lon="-16.3669250">
        <ele>692.9</ele>
        <time>2020-11-11T10:07:24Z</time>
      </trkpt>
      <trkpt lat="28.4730300" lon="-16.3669680">
        <ele>692.9</ele>
        <time>2020-11-11T10:07:25Z</time>
      </trkpt>
      <trkpt lat="28.4730300" lon="-16.3669680">
        <ele>692.9</ele>
        <time>2020-11-11T10:07:26Z</time>
      </trkpt>
      <trkpt lat="28.4730270" lon="-16.3670120">
        <ele>692.9</ele>
        <time>2020-11-11T10:07:27Z</time>
      </trkpt>
      <trkpt lat="28.4730230" lon="-16.3670330">
        <ele>692.9</ele>
        <time>2020-11-11T10:07:28Z</time>
      </trkpt>
      <trkpt lat="28.4730230" lon="-16.3670330">
        <ele>693.9</ele>
        <time>2020-11-11T10:07:29Z</time>
      </trkpt>
      <trkpt lat="28.4730130" lon="-16.3670730">
        <ele>693.9</ele>
        <time>2020-11-11T10:07:30Z</time>
      </trkpt>
      <trkpt lat="28.4730080" lon="-16.3670950">
        <ele>693.9</ele>
        <time>2020-11-11T10:07:31Z</time>
      </trkpt>
      <trkpt lat="28.4730080" lon="-16.3670950">
        <ele>693.9</ele>
        <time>2020-11-11T10:07:32Z</time>
      </trkpt>
      <trkpt lat="28.4730050" lon="-16.3671350">
        <ele>695.9</ele>
        <time>2020-11-11T10:07:33Z</time>
      </trkpt>
      <trkpt lat="28.4730050" lon="-16.3671350">
        <ele>695.9</ele>
        <time>2020-11-11T10:07:34Z</time>
      </trkpt>
      <trkpt lat="28.4730120" lon="-16.3671770">
        <ele>695.9</ele>
        <time>2020-11-11T10:07:35Z</time>
      </trkpt>
      <trkpt lat="28.4730120" lon="-16.3671770">
        <ele>695.9</ele>
        <time>2020-11-11T10:07:36Z</time>
      </trkpt>
      <trkpt lat="28.4730080" lon="-16.3672150">
        <ele>696.9</ele>
        <time>2020-11-11T10:07:37Z</time>
      </trkpt>
      <trkpt lat="28.4730030" lon="-16.3672350">
        <ele>696.9</ele>
        <time>2020-11-11T10:07:38Z</time>
      </trkpt>
      <trkpt lat="28.4730030" lon="-16.3672350">
        <ele>696.9</ele>
        <time>2020-11-11T10:07:39Z</time>
      </trkpt>
      <trkpt lat="28.4729900" lon="-16.3672670">
        <ele>696.9</ele>
        <time>2020-11-11T10:07:40Z</time>
      </trkpt>
      <trkpt lat="28.4729900" lon="-16.3672670">
        <ele>696.9</ele>
        <time>2020-11-11T10:07:41Z</time>
      </trkpt>
      <trkpt lat="28.4729570" lon="-16.3672750">
        <ele>696.9</ele>
        <time>2020-11-11T10:07:42Z</time>
      </trkpt>
      <trkpt lat="28.4729570" lon="-16.3672750">
        <ele>696.9</ele>
        <time>2020-11-11T10:07:43Z</time>
      </trkpt>
      <trkpt lat="28.4729220" lon="-16.3672470">
        <ele>696.9</ele>
        <time>2020-11-11T10:07:44Z</time>
      </trkpt>
      <trkpt lat="28.4729220" lon="-16.3672470">
        <ele>696.9</ele>
        <time>2020-11-11T10:07:45Z</time>
      </trkpt>
      <trkpt lat="28.4729130" lon="-16.3671770">
        <ele>696.9</ele>
        <time>2020-11-11T10:07:46Z</time>
      </trkpt>
      <trkpt lat="28.4729130" lon="-16.3671770">
        <ele>696.9</ele>
        <time>2020-11-11T10:07:47Z</time>
      </trkpt>
      <trkpt lat="28.4729170" lon="-16.3670870">
        <ele>696.9</ele>
        <time>2020-11-11T10:07:48Z</time>
      </trkpt>
      <trkpt lat="28.4729170" lon="-16.3670330">
        <ele>696.9</ele>
        <time>2020-11-11T10:07:49Z</time>
      </trkpt>
      <trkpt lat="28.4729170" lon="-16.3670330">
        <ele>696.9</ele>
        <time>2020-11-11T10:07:50Z</time>
      </trkpt>
      <trkpt lat="28.4729170" lon="-16.3669070">
        <ele>696.9</ele>
        <time>2020-11-11T10:07:51Z</time>
      </trkpt>
      <trkpt lat="28.4729170" lon="-16.3669070">
        <ele>696.9</ele>
        <time>2020-11-11T10:07:52Z</time>
      </trkpt>
      <trkpt lat="28.4729200" lon="-16.3667750">
        <ele>695.9</ele>
        <time>2020-11-11T10:07:53Z</time>
      </trkpt>
      <trkpt lat="28.4729220" lon="-16.3667070">
        <ele>694.9</ele>
        <time>2020-11-11T10:07:54Z</time>
      </trkpt>
      <trkpt lat="28.4729250" lon="-16.3666380">
        <ele>694.9</ele>
        <time>2020-11-11T10:07:55Z</time>
      </trkpt>
      <trkpt lat="28.4729250" lon="-16.3666380">
        <ele>693.9</ele>
        <time>2020-11-11T10:07:56Z</time>
      </trkpt>
      <trkpt lat="28.4729330" lon="-16.3665100">
        <ele>693.9</ele>
        <time>2020-11-11T10:07:57Z</time>
      </trkpt>
      <trkpt lat="28.4729370" lon="-16.3664530">
        <ele>692.9</ele>
        <time>2020-11-11T10:07:58Z</time>
      </trkpt>
      <trkpt lat="28.4729370" lon="-16.3664530">
        <ele>692.9</ele>
        <time>2020-11-11T10:07:59Z</time>
      </trkpt>
      <trkpt lat="28.4729530" lon="-16.3663500">
        <ele>691.9</ele>
        <time>2020-11-11T10:08:00Z</time>
      </trkpt>
      <trkpt lat="28.4729530" lon="-16.3663500">
        <ele>691.9</ele>
        <time>2020-11-11T10:08:01Z</time>
      </trkpt>
      <trkpt lat="28.4729770" lon="-16.3662670">
        <ele>691.9</ele>
        <time>2020-11-11T10:08:02Z</time>
      </trkpt>
      <trkpt lat="28.4729780" lon="-16.3662320">
        <ele>691.9</ele>
        <time>2020-11-11T10:08:03Z</time>
      </trkpt>
      <trkpt lat="28.4729780" lon="-16.3662320">
        <ele>690.9</ele>
        <time>2020-11-11T10:08:04Z</time>
      </trkpt>
      <trkpt lat="28.4729620" lon="-16.3661930">
        <ele>690.9</ele>
        <time>2020-11-11T10:08:05Z</time>
      </trkpt>
      <trkpt lat="28.4729620" lon="-16.3661930">
        <ele>690.9</ele>
        <time>2020-11-11T10:08:06Z</time>
      </trkpt>
      <trkpt lat="28.4729220" lon="-16.3661820">
        <ele>690.9</ele>
        <time>2020-11-11T10:08:07Z</time>
      </trkpt>
      <trkpt lat="28.4729000" lon="-16.3661780">
        <ele>690.9</ele>
        <time>2020-11-11T10:08:08Z</time>
      </trkpt>
      <trkpt lat="28.4729000" lon="-16.3661780">
        <ele>690.9</ele>
        <time>2020-11-11T10:08:09Z</time>
      </trkpt>
      <trkpt lat="28.4728470" lon="-16.3661780">
        <ele>690.9</ele>
        <time>2020-11-11T10:08:10Z</time>
      </trkpt>
      <trkpt lat="28.4728470" lon="-16.3661780">
        <ele>690.9</ele>
        <time>2020-11-11T10:08:11Z</time>
      </trkpt>
      <trkpt lat="28.4727870" lon="-16.3661870">
        <ele>690.9</ele>
        <time>2020-11-11T10:08:12Z</time>
      </trkpt>
      <trkpt lat="28.4727600" lon="-16.3661930">
        <ele>690.9</ele>
        <time>2020-11-11T10:08:13Z</time>
      </trkpt>
      <trkpt lat="28.4727600" lon="-16.3661930">
        <ele>691.9</ele>
        <time>2020-11-11T10:08:14Z</time>
      </trkpt>
      <trkpt lat="28.4727080" lon="-16.3662020">
        <ele>691.9</ele>
        <time>2020-11-11T10:08:15Z</time>
      </trkpt>
      <trkpt lat="28.4727080" lon="-16.3662020">
        <ele>691.9</ele>
        <time>2020-11-11T10:08:16Z</time>
      </trkpt>
      <trkpt lat="28.4726570" lon="-16.3662120">
        <ele>691.9</ele>
        <time>2020-11-11T10:08:17Z</time>
      </trkpt>
      <trkpt lat="28.4726570" lon="-16.3662120">
        <ele>692.9</ele>
        <time>2020-11-11T10:08:18Z</time>
      </trkpt>
      <trkpt lat="28.4726120" lon="-16.3662230">
        <ele>692.9</ele>
        <time>2020-11-11T10:08:19Z</time>
      </trkpt>
      <trkpt lat="28.4726120" lon="-16.3662230">
        <ele>692.9</ele>
        <time>2020-11-11T10:08:20Z</time>
      </trkpt>
      <trkpt lat="28.4725800" lon="-16.3662350">
        <ele>692.9</ele>
        <time>2020-11-11T10:08:21Z</time>
      </trkpt>
      <trkpt lat="28.4725800" lon="-16.3662350">
        <ele>692.9</ele>
        <time>2020-11-11T10:08:22Z</time>
      </trkpt>
      <trkpt lat="28.4725370" lon="-16.3662450">
        <ele>692.9</ele>
        <time>2020-11-11T10:08:23Z</time>
      </trkpt>
      <trkpt lat="28.4725370" lon="-16.3662450">
        <ele>693.9</ele>
        <time>2020-11-11T10:08:24Z</time>
      </trkpt>
      <trkpt lat="28.4724980" lon="-16.3662550">
        <ele>693.9</ele>
        <time>2020-11-11T10:08:25Z</time>
      </trkpt>
      <trkpt lat="28.4724980" lon="-16.3662550">
        <ele>694.9</ele>
        <time>2020-11-11T10:08:26Z</time>
      </trkpt>
      <trkpt lat="28.4724550" lon="-16.3662650">
        <ele>694.9</ele>
        <time>2020-11-11T10:08:27Z</time>
      </trkpt>
      <trkpt lat="28.4724550" lon="-16.3662650">
        <ele>694.9</ele>
        <time>2020-11-11T10:08:28Z</time>
      </trkpt>
      <trkpt lat="28.4724080" lon="-16.3662680">
        <ele>694.9</ele>
        <time>2020-11-11T10:08:29Z</time>
      </trkpt>
      <trkpt lat="28.4724080" lon="-16.3662680">
        <ele>695.9</ele>
        <time>2020-11-11T10:08:30Z</time>
      </trkpt>
      <trkpt lat="28.4723670" lon="-16.3662780">
        <ele>695.9</ele>
        <time>2020-11-11T10:08:31Z</time>
      </trkpt>
      <trkpt lat="28.4723670" lon="-16.3662780">
        <ele>695.9</ele>
        <time>2020-11-11T10:08:32Z</time>
      </trkpt>
      <trkpt lat="28.4723280" lon="-16.3662950">
        <ele>696.9</ele>
        <time>2020-11-11T10:08:33Z</time>
      </trkpt>
      <trkpt lat="28.4723280" lon="-16.3662950">
        <ele>696.9</ele>
        <time>2020-11-11T10:08:34Z</time>
      </trkpt>
      <trkpt lat="28.4722870" lon="-16.3663080">
        <ele>696.9</ele>
        <time>2020-11-11T10:08:35Z</time>
      </trkpt>
      <trkpt lat="28.4722870" lon="-16.3663080">
        <ele>696.9</ele>
        <time>2020-11-11T10:08:36Z</time>
      </trkpt>
      <trkpt lat="28.4722500" lon="-16.3663230">
        <ele>697.9</ele>
        <time>2020-11-11T10:08:37Z</time>
      </trkpt>
      <trkpt lat="28.4722500" lon="-16.3663230">
        <ele>697.9</ele>
        <time>2020-11-11T10:08:38Z</time>
      </trkpt>
      <trkpt lat="28.4722180" lon="-16.3663380">
        <ele>697.9</ele>
        <time>2020-11-11T10:08:39Z</time>
      </trkpt>
      <trkpt lat="28.4722180" lon="-16.3663380">
        <ele>697.9</ele>
        <time>2020-11-11T10:08:40Z</time>
      </trkpt>
      <trkpt lat="28.4721880" lon="-16.3663600">
        <ele>698.9</ele>
        <time>2020-11-11T10:08:41Z</time>
      </trkpt>
      <trkpt lat="28.4721880" lon="-16.3663600">
        <ele>698.9</ele>
        <time>2020-11-11T10:08:42Z</time>
      </trkpt>
      <trkpt lat="28.4721580" lon="-16.3663850">
        <ele>698.9</ele>
        <time>2020-11-11T10:08:43Z</time>
      </trkpt>
      <trkpt lat="28.4721380" lon="-16.3663980">
        <ele>698.9</ele>
        <time>2020-11-11T10:08:44Z</time>
      </trkpt>
      <trkpt lat="28.4721380" lon="-16.3663980">
        <ele>699.9</ele>
        <time>2020-11-11T10:08:45Z</time>
      </trkpt>
      <trkpt lat="28.4721180" lon="-16.3664320">
        <ele>699.9</ele>
        <time>2020-11-11T10:08:46Z</time>
      </trkpt>
      <trkpt lat="28.4721180" lon="-16.3664320">
        <ele>700.9</ele>
        <time>2020-11-11T10:08:47Z</time>
      </trkpt>
      <trkpt lat="28.4720980" lon="-16.3664580">
        <ele>700.9</ele>
        <time>2020-11-11T10:08:48Z</time>
      </trkpt>
      <trkpt lat="28.4720870" lon="-16.3664720">
        <ele>701.9</ele>
        <time>2020-11-11T10:08:49Z</time>
      </trkpt>
      <trkpt lat="28.4720870" lon="-16.3664720">
        <ele>701.9</ele>
        <time>2020-11-11T10:08:50Z</time>
      </trkpt>
      <trkpt lat="28.4720600" lon="-16.3664980">
        <ele>702.9</ele>
        <time>2020-11-11T10:08:51Z</time>
      </trkpt>
      <trkpt lat="28.4720600" lon="-16.3664980">
        <ele>702.9</ele>
        <time>2020-11-11T10:08:52Z</time>
      </trkpt>
      <trkpt lat="28.4720380" lon="-16.3665170">
        <ele>703.9</ele>
        <time>2020-11-11T10:08:53Z</time>
      </trkpt>
      <trkpt lat="28.4720230" lon="-16.3665230">
        <ele>703.9</ele>
        <time>2020-11-11T10:08:54Z</time>
      </trkpt>
      <trkpt lat="28.4720100" lon="-16.3665320">
        <ele>703.9</ele>
        <time>2020-11-11T10:08:55Z</time>
      </trkpt>
      <trkpt lat="28.4720100" lon="-16.3665320">
        <ele>703.9</ele>
        <time>2020-11-11T10:08:56Z</time>
      </trkpt>
      <trkpt lat="28.4719830" lon="-16.3665580">
        <ele>704.9</ele>
        <time>2020-11-11T10:08:57Z</time>
      </trkpt>
      <trkpt lat="28.4719730" lon="-16.3665770">
        <ele>704.9</ele>
        <time>2020-11-11T10:08:58Z</time>
      </trkpt>
      <trkpt lat="28.4719730" lon="-16.3665770">
        <ele>705.9</ele>
        <time>2020-11-11T10:08:59Z</time>
      </trkpt>
      <trkpt lat="28.4719500" lon="-16.3666100">
        <ele>705.9</ele>
        <time>2020-11-11T10:09:00Z</time>
      </trkpt>
      <trkpt lat="28.4719500" lon="-16.3666100">
        <ele>705.9</ele>
        <time>2020-11-11T10:09:01Z</time>
      </trkpt>
      <trkpt lat="28.4719280" lon="-16.3666350">
        <ele>705.9</ele>
        <time>2020-11-11T10:09:02Z</time>
      </trkpt>
      <trkpt lat="28.4719180" lon="-16.3666480">
        <ele>706.9</ele>
        <time>2020-11-11T10:09:03Z</time>
      </trkpt>
      <trkpt lat="28.4719180" lon="-16.3666480">
        <ele>706.9</ele>
        <time>2020-11-11T10:09:04Z</time>
      </trkpt>
      <trkpt lat="28.4719030" lon="-16.3666720">
        <ele>706.9</ele>
        <time>2020-11-11T10:09:05Z</time>
      </trkpt>
      <trkpt lat="28.4719030" lon="-16.3666720">
        <ele>706.9</ele>
        <time>2020-11-11T10:09:06Z</time>
      </trkpt>
      <trkpt lat="28.4718850" lon="-16.3666950">
        <ele>707.9</ele>
        <time>2020-11-11T10:09:07Z</time>
      </trkpt>
      <trkpt lat="28.4718850" lon="-16.3666950">
        <ele>707.9</ele>
        <time>2020-11-11T10:09:08Z</time>
      </trkpt>
      <trkpt lat="28.4718700" lon="-16.3667170">
        <ele>707.9</ele>
        <time>2020-11-11T10:09:09Z</time>
      </trkpt>
      <trkpt lat="28.4718700" lon="-16.3667170">
        <ele>708.9</ele>
        <time>2020-11-11T10:09:10Z</time>
      </trkpt>
      <trkpt lat="28.4718550" lon="-16.3667400">
        <ele>708.9</ele>
        <time>2020-11-11T10:09:11Z</time>
      </trkpt>
      <trkpt lat="28.4718550" lon="-16.3667400">
        <ele>708.9</ele>
        <time>2020-11-11T10:09:12Z</time>
      </trkpt>
      <trkpt lat="28.4718350" lon="-16.3667600">
        <ele>708.9</ele>
        <time>2020-11-11T10:09:13Z</time>
      </trkpt>
      <trkpt lat="28.4718270" lon="-16.3667730">
        <ele>708.9</ele>
        <time>2020-11-11T10:09:14Z</time>
      </trkpt>
      <trkpt lat="28.4718180" lon="-16.3667870">
        <ele>709.9</ele>
        <time>2020-11-11T10:09:15Z</time>
      </trkpt>
      <trkpt lat="28.4718180" lon="-16.3667870">
        <ele>709.9</ele>
        <time>2020-11-11T10:09:16Z</time>
      </trkpt>
      <trkpt lat="28.4718030" lon="-16.3668180">
        <ele>709.9</ele>
        <time>2020-11-11T10:09:17Z</time>
      </trkpt>
      <trkpt lat="28.4717920" lon="-16.3668320">
        <ele>709.9</ele>
        <time>2020-11-11T10:09:18Z</time>
      </trkpt>
      <trkpt lat="28.4717920" lon="-16.3668320">
        <ele>710.9</ele>
        <time>2020-11-11T10:09:19Z</time>
      </trkpt>
      <trkpt lat="28.4717720" lon="-16.3668570">
        <ele>710.9</ele>
        <time>2020-11-11T10:09:20Z</time>
      </trkpt>
      <trkpt lat="28.4717630" lon="-16.3668700">
        <ele>711.9</ele>
        <time>2020-11-11T10:09:21Z</time>
      </trkpt>
      <trkpt lat="28.4717630" lon="-16.3668700">
        <ele>711.9</ele>
        <time>2020-11-11T10:09:22Z</time>
      </trkpt>
      <trkpt lat="28.4717470" lon="-16.3668950">
        <ele>711.9</ele>
        <time>2020-11-11T10:09:23Z</time>
      </trkpt>
      <trkpt lat="28.4717470" lon="-16.3668950">
        <ele>711.9</ele>
        <time>2020-11-11T10:09:24Z</time>
      </trkpt>
      <trkpt lat="28.4717400" lon="-16.3669270">
        <ele>711.9</ele>
        <time>2020-11-11T10:09:25Z</time>
      </trkpt>
      <trkpt lat="28.4717400" lon="-16.3669270">
        <ele>712.9</ele>
        <time>2020-11-11T10:09:26Z</time>
      </trkpt>
      <trkpt lat="28.4717180" lon="-16.3669500">
        <ele>712.9</ele>
        <time>2020-11-11T10:09:27Z</time>
      </trkpt>
      <trkpt lat="28.4717180" lon="-16.3669500">
        <ele>712.9</ele>
        <time>2020-11-11T10:09:28Z</time>
      </trkpt>
      <trkpt lat="28.4716920" lon="-16.3669750">
        <ele>712.9</ele>
        <time>2020-11-11T10:09:29Z</time>
      </trkpt>
      <trkpt lat="28.4716830" lon="-16.3669880">
        <ele>713.9</ele>
        <time>2020-11-11T10:09:30Z</time>
      </trkpt>
      <trkpt lat="28.4716730" lon="-16.3670020">
        <ele>713.9</ele>
        <time>2020-11-11T10:09:31Z</time>
      </trkpt>
      <trkpt lat="28.4716730" lon="-16.3670020">
        <ele>713.9</ele>
        <time>2020-11-11T10:09:32Z</time>
      </trkpt>
      <trkpt lat="28.4716500" lon="-16.3670330">
        <ele>713.9</ele>
        <time>2020-11-11T10:09:33Z</time>
      </trkpt>
      <trkpt lat="28.4716370" lon="-16.3670430">
        <ele>714.9</ele>
        <time>2020-11-11T10:09:34Z</time>
      </trkpt>
      <trkpt lat="28.4716220" lon="-16.3670500">
        <ele>714.9</ele>
        <time>2020-11-11T10:09:35Z</time>
      </trkpt>
      <trkpt lat="28.4716220" lon="-16.3670500">
        <ele>714.9</ele>
        <time>2020-11-11T10:09:36Z</time>
      </trkpt>
      <trkpt lat="28.4715930" lon="-16.3670680">
        <ele>714.9</ele>
        <time>2020-11-11T10:09:37Z</time>
      </trkpt>
      <trkpt lat="28.4715930" lon="-16.3670680">
        <ele>715.9</ele>
        <time>2020-11-11T10:09:38Z</time>
      </trkpt>
      <trkpt lat="28.4715650" lon="-16.3670930">
        <ele>715.9</ele>
        <time>2020-11-11T10:09:39Z</time>
      </trkpt>
      <trkpt lat="28.4715650" lon="-16.3670930">
        <ele>715.9</ele>
        <time>2020-11-11T10:09:40Z</time>
      </trkpt>
      <trkpt lat="28.4715350" lon="-16.3671220">
        <ele>715.9</ele>
        <time>2020-11-11T10:09:41Z</time>
      </trkpt>
      <trkpt lat="28.4715350" lon="-16.3671220">
        <ele>715.9</ele>
        <time>2020-11-11T10:09:42Z</time>
      </trkpt>
      <trkpt lat="28.4714980" lon="-16.3671520">
        <ele>715.9</ele>
        <time>2020-11-11T10:09:43Z</time>
      </trkpt>
      <trkpt lat="28.4714980" lon="-16.3671520">
        <ele>715.9</ele>
        <time>2020-11-11T10:09:44Z</time>
      </trkpt>
      <trkpt lat="28.4714630" lon="-16.3671820">
        <ele>715.9</ele>
        <time>2020-11-11T10:09:45Z</time>
      </trkpt>
      <trkpt lat="28.4714630" lon="-16.3671820">
        <ele>715.9</ele>
        <time>2020-11-11T10:09:46Z</time>
      </trkpt>
      <trkpt lat="28.4714330" lon="-16.3672120">
        <ele>715.9</ele>
        <time>2020-11-11T10:09:47Z</time>
      </trkpt>
      <trkpt lat="28.4714180" lon="-16.3672280">
        <ele>715.9</ele>
        <time>2020-11-11T10:09:48Z</time>
      </trkpt>
      <trkpt lat="28.4714020" lon="-16.3672430">
        <ele>715.9</ele>
        <time>2020-11-11T10:09:49Z</time>
      </trkpt>
      <trkpt lat="28.4714020" lon="-16.3672430">
        <ele>715.9</ele>
        <time>2020-11-11T10:09:50Z</time>
      </trkpt>
      <trkpt lat="28.4713680" lon="-16.3672730">
        <ele>715.9</ele>
        <time>2020-11-11T10:09:51Z</time>
      </trkpt>
      <trkpt lat="28.4713680" lon="-16.3672730">
        <ele>715.9</ele>
        <time>2020-11-11T10:09:52Z</time>
      </trkpt>
      <trkpt lat="28.4713280" lon="-16.3672980">
        <ele>715.9</ele>
        <time>2020-11-11T10:09:53Z</time>
      </trkpt>
      <trkpt lat="28.4713280" lon="-16.3672980">
        <ele>715.9</ele>
        <time>2020-11-11T10:09:54Z</time>
      </trkpt>
      <trkpt lat="28.4712800" lon="-16.3673430">
        <ele>715.9</ele>
        <time>2020-11-11T10:09:55Z</time>
      </trkpt>
      <trkpt lat="28.4712800" lon="-16.3673430">
        <ele>715.9</ele>
        <time>2020-11-11T10:09:56Z</time>
      </trkpt>
      <trkpt lat="28.4712420" lon="-16.3673780">
        <ele>716.9</ele>
        <time>2020-11-11T10:09:57Z</time>
      </trkpt>
      <trkpt lat="28.4712420" lon="-16.3673780">
        <ele>716.9</ele>
        <time>2020-11-11T10:09:58Z</time>
      </trkpt>
      <trkpt lat="28.4712130" lon="-16.3674130">
        <ele>716.9</ele>
        <time>2020-11-11T10:09:59Z</time>
      </trkpt>
      <trkpt lat="28.4712130" lon="-16.3674130">
        <ele>716.9</ele>
        <time>2020-11-11T10:10:00Z</time>
      </trkpt>
      <trkpt lat="28.4711770" lon="-16.3674370">
        <ele>717.9</ele>
        <time>2020-11-11T10:10:01Z</time>
      </trkpt>
      <trkpt lat="28.4711580" lon="-16.3674480">
        <ele>717.9</ele>
        <time>2020-11-11T10:10:02Z</time>
      </trkpt>
      <trkpt lat="28.4711400" lon="-16.3674630">
        <ele>717.9</ele>
        <time>2020-11-11T10:10:03Z</time>
      </trkpt>
      <trkpt lat="28.4711220" lon="-16.3674800">
        <ele>717.9</ele>
        <time>2020-11-11T10:10:04Z</time>
      </trkpt>
      <trkpt lat="28.4711220" lon="-16.3674800">
        <ele>717.9</ele>
        <time>2020-11-11T10:10:05Z</time>
      </trkpt>
      <trkpt lat="28.4710980" lon="-16.3675150">
        <ele>717.9</ele>
        <time>2020-11-11T10:10:06Z</time>
      </trkpt>
      <trkpt lat="28.4710980" lon="-16.3675150">
        <ele>718.9</ele>
        <time>2020-11-11T10:10:07Z</time>
      </trkpt>
      <trkpt lat="28.4710680" lon="-16.3675420">
        <ele>718.9</ele>
        <time>2020-11-11T10:10:08Z</time>
      </trkpt>
      <trkpt lat="28.4710520" lon="-16.3675580">
        <ele>718.9</ele>
        <time>2020-11-11T10:10:09Z</time>
      </trkpt>
      <trkpt lat="28.4710520" lon="-16.3675580">
        <ele>718.9</ele>
        <time>2020-11-11T10:10:10Z</time>
      </trkpt>
      <trkpt lat="28.4710180" lon="-16.3675870">
        <ele>718.9</ele>
        <time>2020-11-11T10:10:11Z</time>
      </trkpt>
      <trkpt lat="28.4710180" lon="-16.3675870">
        <ele>718.9</ele>
        <time>2020-11-11T10:10:12Z</time>
      </trkpt>
      <trkpt lat="28.4709830" lon="-16.3676130">
        <ele>719.9</ele>
        <time>2020-11-11T10:10:13Z</time>
      </trkpt>
      <trkpt lat="28.4709830" lon="-16.3676130">
        <ele>719.9</ele>
        <time>2020-11-11T10:10:14Z</time>
      </trkpt>
      <trkpt lat="28.4709500" lon="-16.3676350">
        <ele>719.9</ele>
        <time>2020-11-11T10:10:15Z</time>
      </trkpt>
      <trkpt lat="28.4709500" lon="-16.3676350">
        <ele>719.9</ele>
        <time>2020-11-11T10:10:16Z</time>
      </trkpt>
      <trkpt lat="28.4709220" lon="-16.3676650">
        <ele>719.9</ele>
        <time>2020-11-11T10:10:17Z</time>
      </trkpt>
      <trkpt lat="28.4709030" lon="-16.3676800">
        <ele>719.9</ele>
        <time>2020-11-11T10:10:18Z</time>
      </trkpt>
      <trkpt lat="28.4709030" lon="-16.3676800">
        <ele>720.9</ele>
        <time>2020-11-11T10:10:19Z</time>
      </trkpt>
      <trkpt lat="28.4708600" lon="-16.3677100">
        <ele>720.9</ele>
        <time>2020-11-11T10:10:20Z</time>
      </trkpt>
      <trkpt lat="28.4708600" lon="-16.3677100">
        <ele>720.9</ele>
        <time>2020-11-11T10:10:21Z</time>
      </trkpt>
      <trkpt lat="28.4708220" lon="-16.3677430">
        <ele>720.9</ele>
        <time>2020-11-11T10:10:22Z</time>
      </trkpt>
      <trkpt lat="28.4708070" lon="-16.3677620">
        <ele>720.9</ele>
        <time>2020-11-11T10:10:23Z</time>
      </trkpt>
      <trkpt lat="28.4708070" lon="-16.3677620">
        <ele>721.9</ele>
        <time>2020-11-11T10:10:24Z</time>
      </trkpt>
      <trkpt lat="28.4707820" lon="-16.3677970">
        <ele>721.9</ele>
        <time>2020-11-11T10:10:25Z</time>
      </trkpt>
      <trkpt lat="28.4707820" lon="-16.3677970">
        <ele>721.9</ele>
        <time>2020-11-11T10:10:26Z</time>
      </trkpt>
      <trkpt lat="28.4707530" lon="-16.3678380">
        <ele>721.9</ele>
        <time>2020-11-11T10:10:27Z</time>
      </trkpt>
      <trkpt lat="28.4707530" lon="-16.3678380">
        <ele>721.9</ele>
        <time>2020-11-11T10:10:28Z</time>
      </trkpt>
      <trkpt lat="28.4707200" lon="-16.3678720">
        <ele>721.9</ele>
        <time>2020-11-11T10:10:29Z</time>
      </trkpt>
      <trkpt lat="28.4707200" lon="-16.3678720">
        <ele>721.9</ele>
        <time>2020-11-11T10:10:30Z</time>
      </trkpt>
      <trkpt lat="28.4706800" lon="-16.3679050">
        <ele>721.9</ele>
        <time>2020-11-11T10:10:31Z</time>
      </trkpt>
      <trkpt lat="28.4706800" lon="-16.3679050">
        <ele>722.9</ele>
        <time>2020-11-11T10:10:32Z</time>
      </trkpt>
      <trkpt lat="28.4706400" lon="-16.3679380">
        <ele>722.9</ele>
        <time>2020-11-11T10:10:33Z</time>
      </trkpt>
      <trkpt lat="28.4706400" lon="-16.3679380">
        <ele>722.9</ele>
        <time>2020-11-11T10:10:34Z</time>
      </trkpt>
      <trkpt lat="28.4706030" lon="-16.3679730">
        <ele>722.9</ele>
        <time>2020-11-11T10:10:35Z</time>
      </trkpt>
      <trkpt lat="28.4705850" lon="-16.3679900">
        <ele>722.9</ele>
        <time>2020-11-11T10:10:36Z</time>
      </trkpt>
      <trkpt lat="28.4705850" lon="-16.3679900">
        <ele>722.9</ele>
        <time>2020-11-11T10:10:37Z</time>
      </trkpt>
      <trkpt lat="28.4705430" lon="-16.3680170">
        <ele>723.9</ele>
        <time>2020-11-11T10:10:38Z</time>
      </trkpt>
      <trkpt lat="28.4705430" lon="-16.3680170">
        <ele>723.9</ele>
        <time>2020-11-11T10:10:39Z</time>
      </trkpt>
      <trkpt lat="28.4705020" lon="-16.3680420">
        <ele>723.9</ele>
        <time>2020-11-11T10:10:40Z</time>
      </trkpt>
      <trkpt lat="28.4705020" lon="-16.3680420">
        <ele>723.9</ele>
        <time>2020-11-11T10:10:41Z</time>
      </trkpt>
      <trkpt lat="28.4704600" lon="-16.3680650">
        <ele>723.9</ele>
        <time>2020-11-11T10:10:42Z</time>
      </trkpt>
      <trkpt lat="28.4704370" lon="-16.3680750">
        <ele>723.9</ele>
        <time>2020-11-11T10:10:43Z</time>
      </trkpt>
      <trkpt lat="28.4704370" lon="-16.3680750">
        <ele>723.9</ele>
        <time>2020-11-11T10:10:44Z</time>
      </trkpt>
      <trkpt lat="28.4703930" lon="-16.3680980">
        <ele>723.9</ele>
        <time>2020-11-11T10:10:45Z</time>
      </trkpt>
      <trkpt lat="28.4703930" lon="-16.3680980">
        <ele>723.9</ele>
        <time>2020-11-11T10:10:46Z</time>
      </trkpt>
      <trkpt lat="28.4703470" lon="-16.3681120">
        <ele>723.9</ele>
        <time>2020-11-11T10:10:47Z</time>
      </trkpt>
      <trkpt lat="28.4703230" lon="-16.3681170">
        <ele>723.9</ele>
        <time>2020-11-11T10:10:48Z</time>
      </trkpt>
      <trkpt lat="28.4703230" lon="-16.3681170">
        <ele>724.9</ele>
        <time>2020-11-11T10:10:49Z</time>
      </trkpt>
      <trkpt lat="28.4702770" lon="-16.3681270">
        <ele>724.9</ele>
        <time>2020-11-11T10:10:50Z</time>
      </trkpt>
      <trkpt lat="28.4702770" lon="-16.3681270">
        <ele>724.9</ele>
        <time>2020-11-11T10:10:51Z</time>
      </trkpt>
      <trkpt lat="28.4702320" lon="-16.3681370">
        <ele>724.9</ele>
        <time>2020-11-11T10:10:52Z</time>
      </trkpt>
      <trkpt lat="28.4702320" lon="-16.3681370">
        <ele>724.9</ele>
        <time>2020-11-11T10:10:53Z</time>
      </trkpt>
      <trkpt lat="28.4701820" lon="-16.3681480">
        <ele>724.9</ele>
        <time>2020-11-11T10:10:54Z</time>
      </trkpt>
      <trkpt lat="28.4701820" lon="-16.3681480">
        <ele>725.9</ele>
        <time>2020-11-11T10:10:55Z</time>
      </trkpt>
      <trkpt lat="28.4701300" lon="-16.3681580">
        <ele>725.9</ele>
        <time>2020-11-11T10:10:56Z</time>
      </trkpt>
      <trkpt lat="28.4701300" lon="-16.3681580">
        <ele>725.9</ele>
        <time>2020-11-11T10:10:57Z</time>
      </trkpt>
      <trkpt lat="28.4700850" lon="-16.3681680">
        <ele>725.9</ele>
        <time>2020-11-11T10:10:58Z</time>
      </trkpt>
      <trkpt lat="28.4700850" lon="-16.3681680">
        <ele>725.9</ele>
        <time>2020-11-11T10:10:59Z</time>
      </trkpt>
      <trkpt lat="28.4700420" lon="-16.3681820">
        <ele>725.9</ele>
        <time>2020-11-11T10:11:00Z</time>
      </trkpt>
      <trkpt lat="28.4700420" lon="-16.3681820">
        <ele>725.9</ele>
        <time>2020-11-11T10:11:01Z</time>
      </trkpt>
      <trkpt lat="28.4700020" lon="-16.3681920">
        <ele>726.9</ele>
        <time>2020-11-11T10:11:02Z</time>
      </trkpt>
      <trkpt lat="28.4700020" lon="-16.3681920">
        <ele>726.9</ele>
        <time>2020-11-11T10:11:03Z</time>
      </trkpt>
      <trkpt lat="28.4699580" lon="-16.3682050">
        <ele>726.9</ele>
        <time>2020-11-11T10:11:04Z</time>
      </trkpt>
      <trkpt lat="28.4699320" lon="-16.3682120">
        <ele>726.9</ele>
        <time>2020-11-11T10:11:05Z</time>
      </trkpt>
      <trkpt lat="28.4699320" lon="-16.3682120">
        <ele>726.9</ele>
        <time>2020-11-11T10:11:06Z</time>
      </trkpt>
      <trkpt lat="28.4698770" lon="-16.3682250">
        <ele>726.9</ele>
        <time>2020-11-11T10:11:07Z</time>
      </trkpt>
      <trkpt lat="28.4698550" lon="-16.3682300">
        <ele>727.9</ele>
        <time>2020-11-11T10:11:08Z</time>
      </trkpt>
      <trkpt lat="28.4698550" lon="-16.3682300">
        <ele>727.9</ele>
        <time>2020-11-11T10:11:09Z</time>
      </trkpt>
      <trkpt lat="28.4698030" lon="-16.3682420">
        <ele>727.9</ele>
        <time>2020-11-11T10:11:10Z</time>
      </trkpt>
      <trkpt lat="28.4697800" lon="-16.3682470">
        <ele>727.9</ele>
        <time>2020-11-11T10:11:11Z</time>
      </trkpt>
      <trkpt lat="28.4697800" lon="-16.3682470">
        <ele>727.9</ele>
        <time>2020-11-11T10:11:12Z</time>
      </trkpt>
      <trkpt lat="28.4697270" lon="-16.3682600">
        <ele>728.9</ele>
        <time>2020-11-11T10:11:13Z</time>
      </trkpt>
      <trkpt lat="28.4697270" lon="-16.3682600">
        <ele>728.9</ele>
        <time>2020-11-11T10:11:14Z</time>
      </trkpt>
      <trkpt lat="28.4696850" lon="-16.3682770">
        <ele>728.9</ele>
        <time>2020-11-11T10:11:15Z</time>
      </trkpt>
      <trkpt lat="28.4696850" lon="-16.3682770">
        <ele>728.9</ele>
        <time>2020-11-11T10:11:16Z</time>
      </trkpt>
      <trkpt lat="28.4696420" lon="-16.3682920">
        <ele>728.9</ele>
        <time>2020-11-11T10:11:17Z</time>
      </trkpt>
      <trkpt lat="28.4696420" lon="-16.3682920">
        <ele>728.9</ele>
        <time>2020-11-11T10:11:18Z</time>
      </trkpt>
      <trkpt lat="28.4696070" lon="-16.3683180">
        <ele>728.9</ele>
        <time>2020-11-11T10:11:19Z</time>
      </trkpt>
      <trkpt lat="28.4696070" lon="-16.3683180">
        <ele>728.9</ele>
        <time>2020-11-11T10:11:20Z</time>
      </trkpt>
      <trkpt lat="28.4695720" lon="-16.3683550">
        <ele>729.9</ele>
        <time>2020-11-11T10:11:21Z</time>
      </trkpt>
      <trkpt lat="28.4695720" lon="-16.3683550">
        <ele>729.9</ele>
        <time>2020-11-11T10:11:22Z</time>
      </trkpt>
      <trkpt lat="28.4695400" lon="-16.3683930">
        <ele>729.9</ele>
        <time>2020-11-11T10:11:23Z</time>
      </trkpt>
      <trkpt lat="28.4695400" lon="-16.3683930">
        <ele>729.9</ele>
        <time>2020-11-11T10:11:24Z</time>
      </trkpt>
      <trkpt lat="28.4695000" lon="-16.3684280">
        <ele>730.9</ele>
        <time>2020-11-11T10:11:25Z</time>
      </trkpt>
      <trkpt lat="28.4695000" lon="-16.3684280">
        <ele>730.9</ele>
        <time>2020-11-11T10:11:26Z</time>
      </trkpt>
      <trkpt lat="28.4694720" lon="-16.3684680">
        <ele>731.9</ele>
        <time>2020-11-11T10:11:27Z</time>
      </trkpt>
      <trkpt lat="28.4694720" lon="-16.3684680">
        <ele>731.9</ele>
        <time>2020-11-11T10:11:28Z</time>
      </trkpt>
      <trkpt lat="28.4694400" lon="-16.3685050">
        <ele>731.9</ele>
        <time>2020-11-11T10:11:29Z</time>
      </trkpt>
      <trkpt lat="28.4694400" lon="-16.3685050">
        <ele>731.9</ele>
        <time>2020-11-11T10:11:30Z</time>
      </trkpt>
      <trkpt lat="28.4694120" lon="-16.3685400">
        <ele>731.9</ele>
        <time>2020-11-11T10:11:31Z</time>
      </trkpt>
      <trkpt lat="28.4694120" lon="-16.3685400">
        <ele>731.9</ele>
        <time>2020-11-11T10:11:32Z</time>
      </trkpt>
      <trkpt lat="28.4693680" lon="-16.3685630">
        <ele>731.9</ele>
        <time>2020-11-11T10:11:33Z</time>
      </trkpt>
      <trkpt lat="28.4693680" lon="-16.3685630">
        <ele>731.9</ele>
        <time>2020-11-11T10:11:34Z</time>
      </trkpt>
      <trkpt lat="28.4693300" lon="-16.3685920">
        <ele>732.9</ele>
        <time>2020-11-11T10:11:35Z</time>
      </trkpt>
      <trkpt lat="28.4693170" lon="-16.3686120">
        <ele>732.9</ele>
        <time>2020-11-11T10:11:36Z</time>
      </trkpt>
      <trkpt lat="28.4693170" lon="-16.3686120">
        <ele>732.9</ele>
        <time>2020-11-11T10:11:37Z</time>
      </trkpt>
      <trkpt lat="28.4692850" lon="-16.3686550">
        <ele>732.9</ele>
        <time>2020-11-11T10:11:38Z</time>
      </trkpt>
      <trkpt lat="28.4692850" lon="-16.3686550">
        <ele>732.9</ele>
        <time>2020-11-11T10:11:39Z</time>
      </trkpt>
      <trkpt lat="28.4692580" lon="-16.3686900">
        <ele>732.9</ele>
        <time>2020-11-11T10:11:40Z</time>
      </trkpt>
      <trkpt lat="28.4692580" lon="-16.3686900">
        <ele>732.9</ele>
        <time>2020-11-11T10:11:41Z</time>
      </trkpt>
      <trkpt lat="28.4692300" lon="-16.3687300">
        <ele>733.9</ele>
        <time>2020-11-11T10:11:42Z</time>
      </trkpt>
      <trkpt lat="28.4692300" lon="-16.3687300">
        <ele>733.9</ele>
        <time>2020-11-11T10:11:43Z</time>
      </trkpt>
      <trkpt lat="28.4692030" lon="-16.3687720">
        <ele>733.9</ele>
        <time>2020-11-11T10:11:44Z</time>
      </trkpt>
      <trkpt lat="28.4692030" lon="-16.3687720">
        <ele>733.9</ele>
        <time>2020-11-11T10:11:45Z</time>
      </trkpt>
      <trkpt lat="28.4691820" lon="-16.3688080">
        <ele>734.9</ele>
        <time>2020-11-11T10:11:46Z</time>
      </trkpt>
      <trkpt lat="28.4691680" lon="-16.3688250">
        <ele>734.9</ele>
        <time>2020-11-11T10:11:47Z</time>
      </trkpt>
      <trkpt lat="28.4691680" lon="-16.3688250">
        <ele>734.9</ele>
        <time>2020-11-11T10:11:48Z</time>
      </trkpt>
      <trkpt lat="28.4691370" lon="-16.3688520">
        <ele>734.9</ele>
        <time>2020-11-11T10:11:49Z</time>
      </trkpt>
      <trkpt lat="28.4691370" lon="-16.3688520">
        <ele>734.9</ele>
        <time>2020-11-11T10:11:50Z</time>
      </trkpt>
      <trkpt lat="28.4691120" lon="-16.3688830">
        <ele>734.9</ele>
        <time>2020-11-11T10:11:51Z</time>
      </trkpt>
      <trkpt lat="28.4691120" lon="-16.3688830">
        <ele>735.9</ele>
        <time>2020-11-11T10:11:52Z</time>
      </trkpt>
      <trkpt lat="28.4690800" lon="-16.3689120">
        <ele>735.9</ele>
        <time>2020-11-11T10:11:53Z</time>
      </trkpt>
      <trkpt lat="28.4690670" lon="-16.3689280">
        <ele>735.9</ele>
        <time>2020-11-11T10:11:54Z</time>
      </trkpt>
      <trkpt lat="28.4690670" lon="-16.3689280">
        <ele>735.9</ele>
        <time>2020-11-11T10:11:55Z</time>
      </trkpt>
      <trkpt lat="28.4690380" lon="-16.3689620">
        <ele>735.9</ele>
        <time>2020-11-11T10:11:56Z</time>
      </trkpt>
      <trkpt lat="28.4690380" lon="-16.3689620">
        <ele>735.9</ele>
        <time>2020-11-11T10:11:57Z</time>
      </trkpt>
      <trkpt lat="28.4690030" lon="-16.3689880">
        <ele>737.9</ele>
        <time>2020-11-11T10:11:58Z</time>
      </trkpt>
      <trkpt lat="28.4689870" lon="-16.3690030">
        <ele>737.9</ele>
        <time>2020-11-11T10:11:59Z</time>
      </trkpt>
      <trkpt lat="28.4689870" lon="-16.3690030">
        <ele>737.9</ele>
        <time>2020-11-11T10:12:00Z</time>
      </trkpt>
      <trkpt lat="28.4689520" lon="-16.3690280">
        <ele>737.9</ele>
        <time>2020-11-11T10:12:01Z</time>
      </trkpt>
      <trkpt lat="28.4689520" lon="-16.3690280">
        <ele>737.9</ele>
        <time>2020-11-11T10:12:02Z</time>
      </trkpt>
      <trkpt lat="28.4689080" lon="-16.3690480">
        <ele>737.9</ele>
        <time>2020-11-11T10:12:03Z</time>
      </trkpt>
      <trkpt lat="28.4689080" lon="-16.3690480">
        <ele>738.9</ele>
        <time>2020-11-11T10:12:04Z</time>
      </trkpt>
      <trkpt lat="28.4688770" lon="-16.3690730">
        <ele>738.9</ele>
        <time>2020-11-11T10:12:05Z</time>
      </trkpt>
      <trkpt lat="28.4688670" lon="-16.3690900">
        <ele>738.9</ele>
        <time>2020-11-11T10:12:06Z</time>
      </trkpt>
      <trkpt lat="28.4688620" lon="-16.3691100">
        <ele>738.9</ele>
        <time>2020-11-11T10:12:07Z</time>
      </trkpt>
      <trkpt lat="28.4688620" lon="-16.3691100">
        <ele>738.9</ele>
        <time>2020-11-11T10:12:08Z</time>
      </trkpt>
      <trkpt lat="28.4688350" lon="-16.3691450">
        <ele>739.9</ele>
        <time>2020-11-11T10:12:09Z</time>
      </trkpt>
      <trkpt lat="28.4688350" lon="-16.3691450">
        <ele>739.9</ele>
        <time>2020-11-11T10:12:10Z</time>
      </trkpt>
      <trkpt lat="28.4688050" lon="-16.3691730">
        <ele>739.9</ele>
        <time>2020-11-11T10:12:11Z</time>
      </trkpt>
      <trkpt lat="28.4688050" lon="-16.3691730">
        <ele>739.9</ele>
        <time>2020-11-11T10:12:12Z</time>
      </trkpt>
      <trkpt lat="28.4687780" lon="-16.3692070">
        <ele>740.9</ele>
        <time>2020-11-11T10:12:13Z</time>
      </trkpt>
      <trkpt lat="28.4687780" lon="-16.3692070">
        <ele>740.9</ele>
        <time>2020-11-11T10:12:14Z</time>
      </trkpt>
      <trkpt lat="28.4687550" lon="-16.3692420">
        <ele>740.9</ele>
        <time>2020-11-11T10:12:15Z</time>
      </trkpt>
      <trkpt lat="28.4687550" lon="-16.3692420">
        <ele>741.9</ele>
        <time>2020-11-11T10:12:16Z</time>
      </trkpt>
      <trkpt lat="28.4687300" lon="-16.3692680">
        <ele>741.9</ele>
        <time>2020-11-11T10:12:17Z</time>
      </trkpt>
      <trkpt lat="28.4687300" lon="-16.3692680">
        <ele>741.9</ele>
        <time>2020-11-11T10:12:18Z</time>
      </trkpt>
      <trkpt lat="28.4687050" lon="-16.3692930">
        <ele>741.9</ele>
        <time>2020-11-11T10:12:19Z</time>
      </trkpt>
      <trkpt lat="28.4687050" lon="-16.3692930">
        <ele>741.9</ele>
        <time>2020-11-11T10:12:20Z</time>
      </trkpt>
      <trkpt lat="28.4686820" lon="-16.3693180">
        <ele>741.9</ele>
        <time>2020-11-11T10:12:21Z</time>
      </trkpt>
      <trkpt lat="28.4686820" lon="-16.3693180">
        <ele>741.9</ele>
        <time>2020-11-11T10:12:22Z</time>
      </trkpt>
      <trkpt lat="28.4686550" lon="-16.3693450">
        <ele>741.9</ele>
        <time>2020-11-11T10:12:23Z</time>
      </trkpt>
      <trkpt lat="28.4686550" lon="-16.3693450">
        <ele>741.9</ele>
        <time>2020-11-11T10:12:24Z</time>
      </trkpt>
      <trkpt lat="28.4686230" lon="-16.3693730">
        <ele>741.9</ele>
        <time>2020-11-11T10:12:25Z</time>
      </trkpt>
      <trkpt lat="28.4686230" lon="-16.3693730">
        <ele>742.9</ele>
        <time>2020-11-11T10:12:26Z</time>
      </trkpt>
      <trkpt lat="28.4685930" lon="-16.3694000">
        <ele>742.9</ele>
        <time>2020-11-11T10:12:27Z</time>
      </trkpt>
      <trkpt lat="28.4685830" lon="-16.3694120">
        <ele>743.9</ele>
        <time>2020-11-11T10:12:28Z</time>
      </trkpt>
      <trkpt lat="28.4685830" lon="-16.3694120">
        <ele>743.9</ele>
        <time>2020-11-11T10:12:29Z</time>
      </trkpt>
      <trkpt lat="28.4685720" lon="-16.3694420">
        <ele>743.9</ele>
        <time>2020-11-11T10:12:30Z</time>
      </trkpt>
      <trkpt lat="28.4685670" lon="-16.3694620">
        <ele>743.9</ele>
        <time>2020-11-11T10:12:31Z</time>
      </trkpt>
      <trkpt lat="28.4685670" lon="-16.3694620">
        <ele>744.9</ele>
        <time>2020-11-11T10:12:32Z</time>
      </trkpt>
      <trkpt lat="28.4685400" lon="-16.3694850">
        <ele>744.9</ele>
        <time>2020-11-11T10:12:33Z</time>
      </trkpt>
      <trkpt lat="28.4685400" lon="-16.3694850">
        <ele>744.9</ele>
        <time>2020-11-11T10:12:34Z</time>
      </trkpt>
      <trkpt lat="28.4685170" lon="-16.3694980">
        <ele>744.9</ele>
        <time>2020-11-11T10:12:35Z</time>
      </trkpt>
      <trkpt lat="28.4685170" lon="-16.3694980">
        <ele>745.9</ele>
        <time>2020-11-11T10:12:36Z</time>
      </trkpt>
      <trkpt lat="28.4684920" lon="-16.3695120">
        <ele>745.9</ele>
        <time>2020-11-11T10:12:37Z</time>
      </trkpt>
      <trkpt lat="28.4684920" lon="-16.3695120">
        <ele>745.9</ele>
        <time>2020-11-11T10:12:38Z</time>
      </trkpt>
      <trkpt lat="28.4684680" lon="-16.3695330">
        <ele>745.9</ele>
        <time>2020-11-11T10:12:39Z</time>
      </trkpt>
      <trkpt lat="28.4684680" lon="-16.3695330">
        <ele>746.9</ele>
        <time>2020-11-11T10:12:40Z</time>
      </trkpt>
      <trkpt lat="28.4684500" lon="-16.3695650">
        <ele>746.9</ele>
        <time>2020-11-11T10:12:41Z</time>
      </trkpt>
      <trkpt lat="28.4684420" lon="-16.3695780">
        <ele>746.9</ele>
        <time>2020-11-11T10:12:42Z</time>
      </trkpt>
      <trkpt lat="28.4684420" lon="-16.3695780">
        <ele>746.9</ele>
        <time>2020-11-11T10:12:43Z</time>
      </trkpt>
      <trkpt lat="28.4684220" lon="-16.3696050">
        <ele>746.9</ele>
        <time>2020-11-11T10:12:44Z</time>
      </trkpt>
      <trkpt lat="28.4684220" lon="-16.3696050">
        <ele>746.9</ele>
        <time>2020-11-11T10:12:45Z</time>
      </trkpt>
      <trkpt lat="28.4683950" lon="-16.3696300">
        <ele>746.9</ele>
        <time>2020-11-11T10:12:46Z</time>
      </trkpt>
      <trkpt lat="28.4683950" lon="-16.3696300">
        <ele>746.9</ele>
        <time>2020-11-11T10:12:47Z</time>
      </trkpt>
      <trkpt lat="28.4683720" lon="-16.3696550">
        <ele>747.9</ele>
        <time>2020-11-11T10:12:48Z</time>
      </trkpt>
      <trkpt lat="28.4683630" lon="-16.3696670">
        <ele>747.9</ele>
        <time>2020-11-11T10:12:49Z</time>
      </trkpt>
      <trkpt lat="28.4683630" lon="-16.3696670">
        <ele>747.9</ele>
        <time>2020-11-11T10:12:50Z</time>
      </trkpt>
      <trkpt lat="28.4683400" lon="-16.3696900">
        <ele>747.9</ele>
        <time>2020-11-11T10:12:51Z</time>
      </trkpt>
      <trkpt lat="28.4683400" lon="-16.3696900">
        <ele>748.9</ele>
        <time>2020-11-11T10:12:52Z</time>
      </trkpt>
      <trkpt lat="28.4683170" lon="-16.3697150">
        <ele>748.9</ele>
        <time>2020-11-11T10:12:53Z</time>
      </trkpt>
      <trkpt lat="28.4683170" lon="-16.3697150">
        <ele>748.9</ele>
        <time>2020-11-11T10:12:54Z</time>
      </trkpt>
      <trkpt lat="28.4682930" lon="-16.3697380">
        <ele>749.9</ele>
        <time>2020-11-11T10:12:55Z</time>
      </trkpt>
      <trkpt lat="28.4682930" lon="-16.3697380">
        <ele>749.9</ele>
        <time>2020-11-11T10:12:56Z</time>
      </trkpt>
      <trkpt lat="28.4682650" lon="-16.3697600">
        <ele>749.9</ele>
        <time>2020-11-11T10:12:57Z</time>
      </trkpt>
      <trkpt lat="28.4682570" lon="-16.3697730">
        <ele>749.9</ele>
        <time>2020-11-11T10:12:58Z</time>
      </trkpt>
      <trkpt lat="28.4682570" lon="-16.3697730">
        <ele>750.9</ele>
        <time>2020-11-11T10:12:59Z</time>
      </trkpt>
      <trkpt lat="28.4682350" lon="-16.3697970">
        <ele>750.9</ele>
        <time>2020-11-11T10:13:00Z</time>
      </trkpt>
      <trkpt lat="28.4682350" lon="-16.3697970">
        <ele>750.9</ele>
        <time>2020-11-11T10:13:01Z</time>
      </trkpt>
      <trkpt lat="28.4682050" lon="-16.3698170">
        <ele>750.9</ele>
        <time>2020-11-11T10:13:02Z</time>
      </trkpt>
      <trkpt lat="28.4681880" lon="-16.3698250">
        <ele>750.9</ele>
        <time>2020-11-11T10:13:03Z</time>
      </trkpt>
      <trkpt lat="28.4681880" lon="-16.3698250">
        <ele>750.9</ele>
        <time>2020-11-11T10:13:04Z</time>
      </trkpt>
      <trkpt lat="28.4681650" lon="-16.3698420">
        <ele>752.9</ele>
        <time>2020-11-11T10:13:05Z</time>
      </trkpt>
      <trkpt lat="28.4681650" lon="-16.3698420">
        <ele>752.9</ele>
        <time>2020-11-11T10:13:06Z</time>
      </trkpt>
      <trkpt lat="28.4681420" lon="-16.3698720">
        <ele>752.9</ele>
        <time>2020-11-11T10:13:07Z</time>
      </trkpt>
      <trkpt lat="28.4681280" lon="-16.3698870">
        <ele>752.9</ele>
        <time>2020-11-11T10:13:08Z</time>
      </trkpt>
      <trkpt lat="28.4681280" lon="-16.3698870">
        <ele>752.9</ele>
        <time>2020-11-11T10:13:09Z</time>
      </trkpt>
      <trkpt lat="28.4681070" lon="-16.3699150">
        <ele>752.9</ele>
        <time>2020-11-11T10:13:10Z</time>
      </trkpt>
      <trkpt lat="28.4680950" lon="-16.3699230">
        <ele>752.9</ele>
        <time>2020-11-11T10:13:11Z</time>
      </trkpt>
      <trkpt lat="28.4680950" lon="-16.3699230">
        <ele>752.9</ele>
        <time>2020-11-11T10:13:12Z</time>
      </trkpt>
      <trkpt lat="28.4680730" lon="-16.3699430">
        <ele>752.9</ele>
        <time>2020-11-11T10:13:13Z</time>
      </trkpt>
      <trkpt lat="28.4680730" lon="-16.3699430">
        <ele>753.9</ele>
        <time>2020-11-11T10:13:14Z</time>
      </trkpt>
      <trkpt lat="28.4680470" lon="-16.3699600">
        <ele>753.9</ele>
        <time>2020-11-11T10:13:15Z</time>
      </trkpt>
      <trkpt lat="28.4680330" lon="-16.3699730">
        <ele>753.9</ele>
        <time>2020-11-11T10:13:16Z</time>
      </trkpt>
      <trkpt lat="28.4680330" lon="-16.3699730">
        <ele>753.9</ele>
        <time>2020-11-11T10:13:17Z</time>
      </trkpt>
      <trkpt lat="28.4680070" lon="-16.3699950">
        <ele>753.9</ele>
        <time>2020-11-11T10:13:18Z</time>
      </trkpt>
      <trkpt lat="28.4680070" lon="-16.3699950">
        <ele>753.9</ele>
        <time>2020-11-11T10:13:19Z</time>
      </trkpt>
      <trkpt lat="28.4679820" lon="-16.3700150">
        <ele>753.9</ele>
        <time>2020-11-11T10:13:20Z</time>
      </trkpt>
      <trkpt lat="28.4679820" lon="-16.3700150">
        <ele>753.9</ele>
        <time>2020-11-11T10:13:21Z</time>
      </trkpt>
      <trkpt lat="28.4679570" lon="-16.3700350">
        <ele>753.9</ele>
        <time>2020-11-11T10:13:22Z</time>
      </trkpt>
      <trkpt lat="28.4679570" lon="-16.3700350">
        <ele>753.9</ele>
        <time>2020-11-11T10:13:23Z</time>
      </trkpt>
      <trkpt lat="28.4679300" lon="-16.3700600">
        <ele>754.9</ele>
        <time>2020-11-11T10:13:24Z</time>
      </trkpt>
      <trkpt lat="28.4679180" lon="-16.3700720">
        <ele>754.9</ele>
        <time>2020-11-11T10:13:25Z</time>
      </trkpt>
      <trkpt lat="28.4679180" lon="-16.3700720">
        <ele>754.9</ele>
        <time>2020-11-11T10:13:26Z</time>
      </trkpt>
      <trkpt lat="28.4678950" lon="-16.3700920">
        <ele>754.9</ele>
        <time>2020-11-11T10:13:27Z</time>
      </trkpt>
      <trkpt lat="28.4678950" lon="-16.3700920">
        <ele>754.9</ele>
        <time>2020-11-11T10:13:28Z</time>
      </trkpt>
      <trkpt lat="28.4678700" lon="-16.3701050">
        <ele>755.9</ele>
        <time>2020-11-11T10:13:29Z</time>
      </trkpt>
      <trkpt lat="28.4678580" lon="-16.3701150">
        <ele>755.9</ele>
        <time>2020-11-11T10:13:30Z</time>
      </trkpt>
      <trkpt lat="28.4678580" lon="-16.3701150">
        <ele>755.9</ele>
        <time>2020-11-11T10:13:31Z</time>
      </trkpt>
      <trkpt lat="28.4678380" lon="-16.3701530">
        <ele>756.9</ele>
        <time>2020-11-11T10:13:32Z</time>
      </trkpt>
      <trkpt lat="28.4678380" lon="-16.3701530">
        <ele>756.9</ele>
        <time>2020-11-11T10:13:33Z</time>
      </trkpt>
      <trkpt lat="28.4678330" lon="-16.3701870">
        <ele>756.9</ele>
        <time>2020-11-11T10:13:34Z</time>
      </trkpt>
      <trkpt lat="28.4678280" lon="-16.3701970">
        <ele>756.9</ele>
        <time>2020-11-11T10:13:35Z</time>
      </trkpt>
      <trkpt lat="28.4678280" lon="-16.3701970">
        <ele>757.9</ele>
        <time>2020-11-11T10:13:36Z</time>
      </trkpt>
      <trkpt lat="28.4678050" lon="-16.3702220">
        <ele>757.9</ele>
        <time>2020-11-11T10:13:37Z</time>
      </trkpt>
      <trkpt lat="28.4678050" lon="-16.3702220">
        <ele>757.9</ele>
        <time>2020-11-11T10:13:38Z</time>
      </trkpt>
      <trkpt lat="28.4677830" lon="-16.3702370">
        <ele>757.9</ele>
        <time>2020-11-11T10:13:39Z</time>
      </trkpt>
      <trkpt lat="28.4677680" lon="-16.3702470">
        <ele>758.9</ele>
        <time>2020-11-11T10:13:40Z</time>
      </trkpt>
      <trkpt lat="28.4677680" lon="-16.3702470">
        <ele>758.9</ele>
        <time>2020-11-11T10:13:41Z</time>
      </trkpt>
      <trkpt lat="28.4677430" lon="-16.3702700">
        <ele>758.9</ele>
        <time>2020-11-11T10:13:42Z</time>
      </trkpt>
      <trkpt lat="28.4677330" lon="-16.3702830">
        <ele>758.9</ele>
        <time>2020-11-11T10:13:43Z</time>
      </trkpt>
      <trkpt lat="28.4677330" lon="-16.3702830">
        <ele>759.9</ele>
        <time>2020-11-11T10:13:44Z</time>
      </trkpt>
      <trkpt lat="28.4677070" lon="-16.3702980">
        <ele>759.9</ele>
        <time>2020-11-11T10:13:45Z</time>
      </trkpt>
      <trkpt lat="28.4676980" lon="-16.3703070">
        <ele>759.9</ele>
        <time>2020-11-11T10:13:46Z</time>
      </trkpt>
      <trkpt lat="28.4676980" lon="-16.3703070">
        <ele>759.9</ele>
        <time>2020-11-11T10:13:47Z</time>
      </trkpt>
      <trkpt lat="28.4676730" lon="-16.3703270">
        <ele>760.9</ele>
        <time>2020-11-11T10:13:48Z</time>
      </trkpt>
      <trkpt lat="28.4676730" lon="-16.3703270">
        <ele>760.9</ele>
        <time>2020-11-11T10:13:49Z</time>
      </trkpt>
      <trkpt lat="28.4676530" lon="-16.3703550">
        <ele>760.9</ele>
        <time>2020-11-11T10:13:50Z</time>
      </trkpt>
      <trkpt lat="28.4676470" lon="-16.3703730">
        <ele>760.9</ele>
        <time>2020-11-11T10:13:51Z</time>
      </trkpt>
      <trkpt lat="28.4676470" lon="-16.3703730">
        <ele>761.9</ele>
        <time>2020-11-11T10:13:52Z</time>
      </trkpt>
      <trkpt lat="28.4676270" lon="-16.3704050">
        <ele>761.9</ele>
        <time>2020-11-11T10:13:53Z</time>
      </trkpt>
      <trkpt lat="28.4676270" lon="-16.3704050">
        <ele>761.9</ele>
        <time>2020-11-11T10:13:54Z</time>
      </trkpt>
      <trkpt lat="28.4676050" lon="-16.3704250">
        <ele>761.9</ele>
        <time>2020-11-11T10:13:55Z</time>
      </trkpt>
      <trkpt lat="28.4676050" lon="-16.3704250">
        <ele>762.9</ele>
        <time>2020-11-11T10:13:56Z</time>
      </trkpt>
      <trkpt lat="28.4675870" lon="-16.3704450">
        <ele>762.9</ele>
        <time>2020-11-11T10:13:57Z</time>
      </trkpt>
      <trkpt lat="28.4675870" lon="-16.3704450">
        <ele>762.9</ele>
        <time>2020-11-11T10:13:58Z</time>
      </trkpt>
      <trkpt lat="28.4675620" lon="-16.3704680">
        <ele>762.9</ele>
        <time>2020-11-11T10:13:59Z</time>
      </trkpt>
      <trkpt lat="28.4675620" lon="-16.3704680">
        <ele>763.9</ele>
        <time>2020-11-11T10:14:00Z</time>
      </trkpt>
      <trkpt lat="28.4675380" lon="-16.3704930">
        <ele>763.9</ele>
        <time>2020-11-11T10:14:01Z</time>
      </trkpt>
      <trkpt lat="28.4675300" lon="-16.3705050">
        <ele>763.9</ele>
        <time>2020-11-11T10:14:02Z</time>
      </trkpt>
      <trkpt lat="28.4675150" lon="-16.3705180">
        <ele>763.9</ele>
        <time>2020-11-11T10:14:03Z</time>
      </trkpt>
      <trkpt lat="28.4675080" lon="-16.3705380">
        <ele>764.9</ele>
        <time>2020-11-11T10:14:04Z</time>
      </trkpt>
      <trkpt lat="28.4675080" lon="-16.3705380">
        <ele>764.9</ele>
        <time>2020-11-11T10:14:05Z</time>
      </trkpt>
      <trkpt lat="28.4674920" lon="-16.3705670">
        <ele>764.9</ele>
        <time>2020-11-11T10:14:06Z</time>
      </trkpt>
      <trkpt lat="28.4674830" lon="-16.3705780">
        <ele>764.9</ele>
        <time>2020-11-11T10:14:07Z</time>
      </trkpt>
      <trkpt lat="28.4674830" lon="-16.3705780">
        <ele>764.9</ele>
        <time>2020-11-11T10:14:08Z</time>
      </trkpt>
      <trkpt lat="28.4674650" lon="-16.3706030">
        <ele>764.9</ele>
        <time>2020-11-11T10:14:09Z</time>
      </trkpt>
      <trkpt lat="28.4674600" lon="-16.3706170">
        <ele>764.9</ele>
        <time>2020-11-11T10:14:10Z</time>
      </trkpt>
      <trkpt lat="28.4674600" lon="-16.3706170">
        <ele>765.9</ele>
        <time>2020-11-11T10:14:11Z</time>
      </trkpt>
      <trkpt lat="28.4674470" lon="-16.3706480">
        <ele>765.9</ele>
        <time>2020-11-11T10:14:12Z</time>
      </trkpt>
      <trkpt lat="28.4674380" lon="-16.3706620">
        <ele>765.9</ele>
        <time>2020-11-11T10:14:13Z</time>
      </trkpt>
      <trkpt lat="28.4674300" lon="-16.3706750">
        <ele>765.9</ele>
        <time>2020-11-11T10:14:14Z</time>
      </trkpt>
      <trkpt lat="28.4674300" lon="-16.3706750">
        <ele>767.9</ele>
        <time>2020-11-11T10:14:15Z</time>
      </trkpt>
      <trkpt lat="28.4674150" lon="-16.3707050">
        <ele>767.9</ele>
        <time>2020-11-11T10:14:16Z</time>
      </trkpt>
      <trkpt lat="28.4674150" lon="-16.3707050">
        <ele>767.9</ele>
        <time>2020-11-11T10:14:17Z</time>
      </trkpt>
      <trkpt lat="28.4673970" lon="-16.3707300">
        <ele>767.9</ele>
        <time>2020-11-11T10:14:18Z</time>
      </trkpt>
      <trkpt lat="28.4673970" lon="-16.3707300">
        <ele>767.9</ele>
        <time>2020-11-11T10:14:19Z</time>
      </trkpt>
      <trkpt lat="28.4673830" lon="-16.3707580">
        <ele>767.9</ele>
        <time>2020-11-11T10:14:20Z</time>
      </trkpt>
      <trkpt lat="28.4673780" lon="-16.3707720">
        <ele>767.9</ele>
        <time>2020-11-11T10:14:21Z</time>
      </trkpt>
      <trkpt lat="28.4673780" lon="-16.3707720">
        <ele>767.9</ele>
        <time>2020-11-11T10:14:22Z</time>
      </trkpt>
      <trkpt lat="28.4673580" lon="-16.3707970">
        <ele>768.9</ele>
        <time>2020-11-11T10:14:23Z</time>
      </trkpt>
      <trkpt lat="28.4673580" lon="-16.3707970">
        <ele>768.9</ele>
        <time>2020-11-11T10:14:24Z</time>
      </trkpt>
      <trkpt lat="28.4673420" lon="-16.3708200">
        <ele>768.9</ele>
        <time>2020-11-11T10:14:25Z</time>
      </trkpt>
      <trkpt lat="28.4673420" lon="-16.3708200">
        <ele>768.9</ele>
        <time>2020-11-11T10:14:26Z</time>
      </trkpt>
      <trkpt lat="28.4673270" lon="-16.3708470">
        <ele>769.9</ele>
        <time>2020-11-11T10:14:27Z</time>
      </trkpt>
      <trkpt lat="28.4673270" lon="-16.3708470">
        <ele>769.9</ele>
        <time>2020-11-11T10:14:28Z</time>
      </trkpt>
      <trkpt lat="28.4673050" lon="-16.3708680">
        <ele>769.9</ele>
        <time>2020-11-11T10:14:29Z</time>
      </trkpt>
      <trkpt lat="28.4673050" lon="-16.3708680">
        <ele>769.9</ele>
        <time>2020-11-11T10:14:30Z</time>
      </trkpt>
      <trkpt lat="28.4672750" lon="-16.3708830">
        <ele>770.9</ele>
        <time>2020-11-11T10:14:31Z</time>
      </trkpt>
      <trkpt lat="28.4672750" lon="-16.3708830">
        <ele>770.9</ele>
        <time>2020-11-11T10:14:32Z</time>
      </trkpt>
      <trkpt lat="28.4672600" lon="-16.3709150">
        <ele>770.9</ele>
        <time>2020-11-11T10:14:33Z</time>
      </trkpt>
      <trkpt lat="28.4672470" lon="-16.3709280">
        <ele>770.9</ele>
        <time>2020-11-11T10:14:34Z</time>
      </trkpt>
      <trkpt lat="28.4672470" lon="-16.3709280">
        <ele>771.9</ele>
        <time>2020-11-11T10:14:35Z</time>
      </trkpt>
      <trkpt lat="28.4672170" lon="-16.3709520">
        <ele>771.9</ele>
        <time>2020-11-11T10:14:36Z</time>
      </trkpt>
      <trkpt lat="28.4672050" lon="-16.3709630">
        <ele>771.9</ele>
        <time>2020-11-11T10:14:37Z</time>
      </trkpt>
      <trkpt lat="28.4672050" lon="-16.3709630">
        <ele>771.9</ele>
        <time>2020-11-11T10:14:38Z</time>
      </trkpt>
      <trkpt lat="28.4671970" lon="-16.3709900">
        <ele>772.9</ele>
        <time>2020-11-11T10:14:39Z</time>
      </trkpt>
      <trkpt lat="28.4671900" lon="-16.3710050">
        <ele>772.9</ele>
        <time>2020-11-11T10:14:40Z</time>
      </trkpt>
      <trkpt lat="28.4671900" lon="-16.3710050">
        <ele>772.9</ele>
        <time>2020-11-11T10:14:41Z</time>
      </trkpt>
      <trkpt lat="28.4671780" lon="-16.3710370">
        <ele>772.9</ele>
        <time>2020-11-11T10:14:42Z</time>
      </trkpt>
      <trkpt lat="28.4671750" lon="-16.3710530">
        <ele>774.9</ele>
        <time>2020-11-11T10:14:43Z</time>
      </trkpt>
      <trkpt lat="28.4671750" lon="-16.3710530">
        <ele>774.9</ele>
        <time>2020-11-11T10:14:44Z</time>
      </trkpt>
      <trkpt lat="28.4671730" lon="-16.3710850">
        <ele>774.9</ele>
        <time>2020-11-11T10:14:45Z</time>
      </trkpt>
      <trkpt lat="28.4671670" lon="-16.3711000">
        <ele>774.9</ele>
        <time>2020-11-11T10:14:46Z</time>
      </trkpt>
      <trkpt lat="28.4671670" lon="-16.3711000">
        <ele>774.9</ele>
        <time>2020-11-11T10:14:47Z</time>
      </trkpt>
      <trkpt lat="28.4671470" lon="-16.3711250">
        <ele>774.9</ele>
        <time>2020-11-11T10:14:48Z</time>
      </trkpt>
      <trkpt lat="28.4671470" lon="-16.3711250">
        <ele>774.9</ele>
        <time>2020-11-11T10:14:49Z</time>
      </trkpt>
      <trkpt lat="28.4671270" lon="-16.3711550">
        <ele>775.9</ele>
        <time>2020-11-11T10:14:50Z</time>
      </trkpt>
      <trkpt lat="28.4671270" lon="-16.3711550">
        <ele>775.9</ele>
        <time>2020-11-11T10:14:51Z</time>
      </trkpt>
      <trkpt lat="28.4671120" lon="-16.3711870">
        <ele>775.9</ele>
        <time>2020-11-11T10:14:52Z</time>
      </trkpt>
      <trkpt lat="28.4671120" lon="-16.3711870">
        <ele>775.9</ele>
        <time>2020-11-11T10:14:53Z</time>
      </trkpt>
      <trkpt lat="28.4670980" lon="-16.3712120">
        <ele>776.9</ele>
        <time>2020-11-11T10:14:54Z</time>
      </trkpt>
      <trkpt lat="28.4670920" lon="-16.3712280">
        <ele>776.9</ele>
        <time>2020-11-11T10:14:55Z</time>
      </trkpt>
      <trkpt lat="28.4670920" lon="-16.3712280">
        <ele>776.9</ele>
        <time>2020-11-11T10:14:56Z</time>
      </trkpt>
      <trkpt lat="28.4670780" lon="-16.3712600">
        <ele>776.9</ele>
        <time>2020-11-11T10:14:57Z</time>
      </trkpt>
      <trkpt lat="28.4670750" lon="-16.3712770">
        <ele>777.9</ele>
        <time>2020-11-11T10:14:58Z</time>
      </trkpt>
      <trkpt lat="28.4670750" lon="-16.3712770">
        <ele>777.9</ele>
        <time>2020-11-11T10:14:59Z</time>
      </trkpt>
      <trkpt lat="28.4670630" lon="-16.3713080">
        <ele>777.9</ele>
        <time>2020-11-11T10:15:00Z</time>
      </trkpt>
      <trkpt lat="28.4670630" lon="-16.3713080">
        <ele>777.9</ele>
        <time>2020-11-11T10:15:01Z</time>
      </trkpt>
      <trkpt lat="28.4670530" lon="-16.3713430">
        <ele>778.9</ele>
        <time>2020-11-11T10:15:02Z</time>
      </trkpt>
      <trkpt lat="28.4670470" lon="-16.3713570">
        <ele>778.9</ele>
        <time>2020-11-11T10:15:03Z</time>
      </trkpt>
      <trkpt lat="28.4670470" lon="-16.3713570">
        <ele>778.9</ele>
        <time>2020-11-11T10:15:04Z</time>
      </trkpt>
      <trkpt lat="28.4670430" lon="-16.3713800">
        <ele>778.9</ele>
        <time>2020-11-11T10:15:05Z</time>
      </trkpt>
      <trkpt lat="28.4670430" lon="-16.3713800">
        <ele>778.9</ele>
        <time>2020-11-11T10:15:06Z</time>
      </trkpt>
      <trkpt lat="28.4670400" lon="-16.3713880">
        <ele>778.9</ele>
        <time>2020-11-11T10:15:07Z</time>
      </trkpt>
      <trkpt lat="28.4670400" lon="-16.3713880">
        <ele>778.9</ele>
        <time>2020-11-11T10:15:08Z</time>
      </trkpt>
      <trkpt lat="28.4670400" lon="-16.3713880">
        <ele>779.9</ele>
        <time>2020-11-11T10:16:38Z</time>
      </trkpt>
      <trkpt lat="28.4670400" lon="-16.3713880">
        <ele>779.9</ele>
        <time>2020-11-11T10:16:39Z</time>
      </trkpt>
      <trkpt lat="28.4669870" lon="-16.3714270">
        <ele>779.9</ele>
        <time>2020-11-11T10:16:40Z</time>
      </trkpt>
      <trkpt lat="28.4669870" lon="-16.3714270">
        <ele>779.9</ele>
        <time>2020-11-11T10:16:41Z</time>
      </trkpt>
      <trkpt lat="28.4669580" lon="-16.3714630">
        <ele>779.9</ele>
        <time>2020-11-11T10:16:42Z</time>
      </trkpt>
      <trkpt lat="28.4669580" lon="-16.3714630">
        <ele>779.9</ele>
        <time>2020-11-11T10:16:43Z</time>
      </trkpt>
      <trkpt lat="28.4669300" lon="-16.3715030">
        <ele>780.9</ele>
        <time>2020-11-11T10:16:44Z</time>
      </trkpt>
      <trkpt lat="28.4669300" lon="-16.3715030">
        <ele>780.9</ele>
        <time>2020-11-11T10:16:45Z</time>
      </trkpt>
      <trkpt lat="28.4668930" lon="-16.3715450">
        <ele>780.9</ele>
        <time>2020-11-11T10:16:46Z</time>
      </trkpt>
      <trkpt lat="28.4668750" lon="-16.3715670">
        <ele>780.9</ele>
        <time>2020-11-11T10:16:47Z</time>
      </trkpt>
      <trkpt lat="28.4668750" lon="-16.3715670">
        <ele>780.9</ele>
        <time>2020-11-11T10:16:48Z</time>
      </trkpt>
      <trkpt lat="28.4668380" lon="-16.3716100">
        <ele>780.9</ele>
        <time>2020-11-11T10:16:49Z</time>
      </trkpt>
      <trkpt lat="28.4668380" lon="-16.3716100">
        <ele>780.9</ele>
        <time>2020-11-11T10:16:50Z</time>
      </trkpt>
      <trkpt lat="28.4668020" lon="-16.3716530">
        <ele>780.9</ele>
        <time>2020-11-11T10:16:51Z</time>
      </trkpt>
      <trkpt lat="28.4668020" lon="-16.3716530">
        <ele>780.9</ele>
        <time>2020-11-11T10:16:52Z</time>
      </trkpt>
      <trkpt lat="28.4667700" lon="-16.3716930">
        <ele>780.9</ele>
        <time>2020-11-11T10:16:53Z</time>
      </trkpt>
      <trkpt lat="28.4667700" lon="-16.3716930">
        <ele>781.9</ele>
        <time>2020-11-11T10:16:54Z</time>
      </trkpt>
      <trkpt lat="28.4667430" lon="-16.3717420">
        <ele>781.9</ele>
        <time>2020-11-11T10:16:55Z</time>
      </trkpt>
      <trkpt lat="28.4667430" lon="-16.3717420">
        <ele>781.9</ele>
        <time>2020-11-11T10:16:56Z</time>
      </trkpt>
      <trkpt lat="28.4667130" lon="-16.3717800">
        <ele>781.9</ele>
        <time>2020-11-11T10:16:57Z</time>
      </trkpt>
      <trkpt lat="28.4667130" lon="-16.3717800">
        <ele>781.9</ele>
        <time>2020-11-11T10:16:58Z</time>
      </trkpt>
      <trkpt lat="28.4666780" lon="-16.3718150">
        <ele>781.9</ele>
        <time>2020-11-11T10:16:59Z</time>
      </trkpt>
      <trkpt lat="28.4666780" lon="-16.3718150">
        <ele>781.9</ele>
        <time>2020-11-11T10:17:00Z</time>
      </trkpt>
      <trkpt lat="28.4666370" lon="-16.3718470">
        <ele>782.9</ele>
        <time>2020-11-11T10:17:01Z</time>
      </trkpt>
      <trkpt lat="28.4666370" lon="-16.3718470">
        <ele>782.9</ele>
        <time>2020-11-11T10:17:02Z</time>
      </trkpt>
      <trkpt lat="28.4666030" lon="-16.3718850">
        <ele>782.9</ele>
        <time>2020-11-11T10:17:03Z</time>
      </trkpt>
      <trkpt lat="28.4665880" lon="-16.3719020">
        <ele>782.9</ele>
        <time>2020-11-11T10:17:04Z</time>
      </trkpt>
      <trkpt lat="28.4665880" lon="-16.3719020">
        <ele>783.9</ele>
        <time>2020-11-11T10:17:05Z</time>
      </trkpt>
      <trkpt lat="28.4665480" lon="-16.3719370">
        <ele>783.9</ele>
        <time>2020-11-11T10:17:06Z</time>
      </trkpt>
      <trkpt lat="28.4665480" lon="-16.3719370">
        <ele>783.9</ele>
        <time>2020-11-11T10:17:07Z</time>
      </trkpt>
      <trkpt lat="28.4665130" lon="-16.3719720">
        <ele>783.9</ele>
        <time>2020-11-11T10:17:08Z</time>
      </trkpt>
      <trkpt lat="28.4665130" lon="-16.3719720">
        <ele>783.9</ele>
        <time>2020-11-11T10:17:09Z</time>
      </trkpt>
      <trkpt lat="28.4664730" lon="-16.3720170">
        <ele>783.9</ele>
        <time>2020-11-11T10:17:10Z</time>
      </trkpt>
      <trkpt lat="28.4664730" lon="-16.3720170">
        <ele>784.9</ele>
        <time>2020-11-11T10:17:11Z</time>
      </trkpt>
      <trkpt lat="28.4664270" lon="-16.3720470">
        <ele>784.9</ele>
        <time>2020-11-11T10:17:12Z</time>
      </trkpt>
      <trkpt lat="28.4664270" lon="-16.3720470">
        <ele>784.9</ele>
        <time>2020-11-11T10:17:13Z</time>
      </trkpt>
      <trkpt lat="28.4663880" lon="-16.3720800">
        <ele>784.9</ele>
        <time>2020-11-11T10:17:14Z</time>
      </trkpt>
      <trkpt lat="28.4663730" lon="-16.3721000">
        <ele>784.9</ele>
        <time>2020-11-11T10:17:15Z</time>
      </trkpt>
      <trkpt lat="28.4663730" lon="-16.3721000">
        <ele>784.9</ele>
        <time>2020-11-11T10:17:16Z</time>
      </trkpt>
      <trkpt lat="28.4663350" lon="-16.3721400">
        <ele>785.9</ele>
        <time>2020-11-11T10:17:17Z</time>
      </trkpt>
      <trkpt lat="28.4663350" lon="-16.3721400">
        <ele>785.9</ele>
        <time>2020-11-11T10:17:18Z</time>
      </trkpt>
      <trkpt lat="28.4662980" lon="-16.3721770">
        <ele>785.9</ele>
        <time>2020-11-11T10:17:19Z</time>
      </trkpt>
      <trkpt lat="28.4662830" lon="-16.3721970">
        <ele>785.9</ele>
        <time>2020-11-11T10:17:20Z</time>
      </trkpt>
      <trkpt lat="28.4662830" lon="-16.3721970">
        <ele>786.9</ele>
        <time>2020-11-11T10:17:21Z</time>
      </trkpt>
      <trkpt lat="28.4662470" lon="-16.3722320">
        <ele>786.9</ele>
        <time>2020-11-11T10:17:22Z</time>
      </trkpt>
      <trkpt lat="28.4662470" lon="-16.3722320">
        <ele>786.9</ele>
        <time>2020-11-11T10:17:23Z</time>
      </trkpt>
      <trkpt lat="28.4662180" lon="-16.3722730">
        <ele>786.9</ele>
        <time>2020-11-11T10:17:24Z</time>
      </trkpt>
      <trkpt lat="28.4662180" lon="-16.3722730">
        <ele>786.9</ele>
        <time>2020-11-11T10:17:25Z</time>
      </trkpt>
      <trkpt lat="28.4661920" lon="-16.3723150">
        <ele>786.9</ele>
        <time>2020-11-11T10:17:26Z</time>
      </trkpt>
      <trkpt lat="28.4661800" lon="-16.3723330">
        <ele>787.9</ele>
        <time>2020-11-11T10:17:27Z</time>
      </trkpt>
      <trkpt lat="28.4661800" lon="-16.3723330">
        <ele>787.9</ele>
        <time>2020-11-11T10:17:28Z</time>
      </trkpt>
      <trkpt lat="28.4661550" lon="-16.3723670">
        <ele>787.9</ele>
        <time>2020-11-11T10:17:29Z</time>
      </trkpt>
      <trkpt lat="28.4661450" lon="-16.3723820">
        <ele>787.9</ele>
        <time>2020-11-11T10:17:30Z</time>
      </trkpt>
      <trkpt lat="28.4661450" lon="-16.3723820">
        <ele>787.9</ele>
        <time>2020-11-11T10:17:31Z</time>
      </trkpt>
      <trkpt lat="28.4661170" lon="-16.3724000">
        <ele>788.9</ele>
        <time>2020-11-11T10:17:32Z</time>
      </trkpt>
      <trkpt lat="28.4661000" lon="-16.3724130">
        <ele>788.9</ele>
        <time>2020-11-11T10:17:33Z</time>
      </trkpt>
      <trkpt lat="28.4661000" lon="-16.3724130">
        <ele>788.9</ele>
        <time>2020-11-11T10:17:34Z</time>
      </trkpt>
      <trkpt lat="28.4660700" lon="-16.3724430">
        <ele>788.9</ele>
        <time>2020-11-11T10:17:35Z</time>
      </trkpt>
      <trkpt lat="28.4660570" lon="-16.3724570">
        <ele>789.9</ele>
        <time>2020-11-11T10:17:36Z</time>
      </trkpt>
      <trkpt lat="28.4660570" lon="-16.3724570">
        <ele>789.9</ele>
        <time>2020-11-11T10:17:37Z</time>
      </trkpt>
      <trkpt lat="28.4660320" lon="-16.3724880">
        <ele>789.9</ele>
        <time>2020-11-11T10:17:38Z</time>
      </trkpt>
      <trkpt lat="28.4660320" lon="-16.3724880">
        <ele>789.9</ele>
        <time>2020-11-11T10:17:39Z</time>
      </trkpt>
      <trkpt lat="28.4660080" lon="-16.3725120">
        <ele>789.9</ele>
        <time>2020-11-11T10:17:40Z</time>
      </trkpt>
      <trkpt lat="28.4660080" lon="-16.3725120">
        <ele>789.9</ele>
        <time>2020-11-11T10:17:41Z</time>
      </trkpt>
      <trkpt lat="28.4659750" lon="-16.3725480">
        <ele>789.9</ele>
        <time>2020-11-11T10:17:42Z</time>
      </trkpt>
      <trkpt lat="28.4659750" lon="-16.3725480">
        <ele>789.9</ele>
        <time>2020-11-11T10:17:43Z</time>
      </trkpt>
      <trkpt lat="28.4659380" lon="-16.3725820">
        <ele>790.9</ele>
        <time>2020-11-11T10:17:44Z</time>
      </trkpt>
      <trkpt lat="28.4659380" lon="-16.3725820">
        <ele>790.9</ele>
        <time>2020-11-11T10:17:45Z</time>
      </trkpt>
      <trkpt lat="28.4659150" lon="-16.3726150">
        <ele>790.9</ele>
        <time>2020-11-11T10:17:46Z</time>
      </trkpt>
      <trkpt lat="28.4659020" lon="-16.3726270">
        <ele>790.9</ele>
        <time>2020-11-11T10:17:47Z</time>
      </trkpt>
      <trkpt lat="28.4659020" lon="-16.3726270">
        <ele>791.9</ele>
        <time>2020-11-11T10:17:48Z</time>
      </trkpt>
      <trkpt lat="28.4658670" lon="-16.3726500">
        <ele>791.9</ele>
        <time>2020-11-11T10:17:49Z</time>
      </trkpt>
      <trkpt lat="28.4658670" lon="-16.3726500">
        <ele>791.9</ele>
        <time>2020-11-11T10:17:50Z</time>
      </trkpt>
      <trkpt lat="28.4658350" lon="-16.3726750">
        <ele>791.9</ele>
        <time>2020-11-11T10:17:51Z</time>
      </trkpt>
      <trkpt lat="28.4658350" lon="-16.3726750">
        <ele>792.9</ele>
        <time>2020-11-11T10:17:52Z</time>
      </trkpt>
      <trkpt lat="28.4658030" lon="-16.3727020">
        <ele>792.9</ele>
        <time>2020-11-11T10:17:53Z</time>
      </trkpt>
      <trkpt lat="28.4657920" lon="-16.3727130">
        <ele>792.9</ele>
        <time>2020-11-11T10:17:54Z</time>
      </trkpt>
      <trkpt lat="28.4657920" lon="-16.3727130">
        <ele>792.9</ele>
        <time>2020-11-11T10:17:55Z</time>
      </trkpt>
      <trkpt lat="28.4657730" lon="-16.3727400">
        <ele>793.9</ele>
        <time>2020-11-11T10:17:56Z</time>
      </trkpt>
      <trkpt lat="28.4657730" lon="-16.3727400">
        <ele>793.9</ele>
        <time>2020-11-11T10:17:57Z</time>
      </trkpt>
      <trkpt lat="28.4657480" lon="-16.3727670">
        <ele>793.9</ele>
        <time>2020-11-11T10:17:58Z</time>
      </trkpt>
      <trkpt lat="28.4657480" lon="-16.3727670">
        <ele>793.9</ele>
        <time>2020-11-11T10:17:59Z</time>
      </trkpt>
      <trkpt lat="28.4657220" lon="-16.3728000">
        <ele>794.9</ele>
        <time>2020-11-11T10:18:00Z</time>
      </trkpt>
      <trkpt lat="28.4657220" lon="-16.3728000">
        <ele>794.9</ele>
        <time>2020-11-11T10:18:01Z</time>
      </trkpt>
      <trkpt lat="28.4656930" lon="-16.3728300">
        <ele>794.9</ele>
        <time>2020-11-11T10:18:02Z</time>
      </trkpt>
      <trkpt lat="28.4656930" lon="-16.3728300">
        <ele>794.9</ele>
        <time>2020-11-11T10:18:03Z</time>
      </trkpt>
      <trkpt lat="28.4656570" lon="-16.3728570">
        <ele>794.9</ele>
        <time>2020-11-11T10:18:04Z</time>
      </trkpt>
      <trkpt lat="28.4656380" lon="-16.3728720">
        <ele>794.9</ele>
        <time>2020-11-11T10:18:05Z</time>
      </trkpt>
      <trkpt lat="28.4656230" lon="-16.3728870">
        <ele>795.9</ele>
        <time>2020-11-11T10:18:06Z</time>
      </trkpt>
      <trkpt lat="28.4656230" lon="-16.3728870">
        <ele>795.9</ele>
        <time>2020-11-11T10:18:07Z</time>
      </trkpt>
      <trkpt lat="28.4655950" lon="-16.3729130">
        <ele>795.9</ele>
        <time>2020-11-11T10:18:08Z</time>
      </trkpt>
      <trkpt lat="28.4655950" lon="-16.3729130">
        <ele>795.9</ele>
        <time>2020-11-11T10:18:09Z</time>
      </trkpt>
      <trkpt lat="28.4655630" lon="-16.3729380">
        <ele>796.9</ele>
        <time>2020-11-11T10:18:10Z</time>
      </trkpt>
      <trkpt lat="28.4655630" lon="-16.3729380">
        <ele>796.9</ele>
        <time>2020-11-11T10:18:11Z</time>
      </trkpt>
      <trkpt lat="28.4655320" lon="-16.3729680">
        <ele>796.9</ele>
        <time>2020-11-11T10:18:12Z</time>
      </trkpt>
      <trkpt lat="28.4655320" lon="-16.3729680">
        <ele>796.9</ele>
        <time>2020-11-11T10:18:13Z</time>
      </trkpt>
      <trkpt lat="28.4655020" lon="-16.3730020">
        <ele>797.9</ele>
        <time>2020-11-11T10:18:14Z</time>
      </trkpt>
      <trkpt lat="28.4655020" lon="-16.3730020">
        <ele>797.9</ele>
        <time>2020-11-11T10:18:15Z</time>
      </trkpt>
      <trkpt lat="28.4654680" lon="-16.3730250">
        <ele>797.9</ele>
        <time>2020-11-11T10:18:16Z</time>
      </trkpt>
      <trkpt lat="28.4654680" lon="-16.3730250">
        <ele>797.9</ele>
        <time>2020-11-11T10:18:17Z</time>
      </trkpt>
      <trkpt lat="28.4654370" lon="-16.3730550">
        <ele>798.9</ele>
        <time>2020-11-11T10:18:18Z</time>
      </trkpt>
      <trkpt lat="28.4654200" lon="-16.3730670">
        <ele>798.9</ele>
        <time>2020-11-11T10:18:19Z</time>
      </trkpt>
      <trkpt lat="28.4654200" lon="-16.3730670">
        <ele>798.9</ele>
        <time>2020-11-11T10:18:20Z</time>
      </trkpt>
      <trkpt lat="28.4653800" lon="-16.3730780">
        <ele>798.9</ele>
        <time>2020-11-11T10:18:21Z</time>
      </trkpt>
      <trkpt lat="28.4653800" lon="-16.3730780">
        <ele>798.9</ele>
        <time>2020-11-11T10:18:22Z</time>
      </trkpt>
      <trkpt lat="28.4653380" lon="-16.3730850">
        <ele>798.9</ele>
        <time>2020-11-11T10:18:23Z</time>
      </trkpt>
      <trkpt lat="28.4653380" lon="-16.3730850">
        <ele>799.9</ele>
        <time>2020-11-11T10:18:24Z</time>
      </trkpt>
      <trkpt lat="28.4652980" lon="-16.3730950">
        <ele>799.9</ele>
        <time>2020-11-11T10:18:25Z</time>
      </trkpt>
      <trkpt lat="28.4652780" lon="-16.3730980">
        <ele>799.9</ele>
        <time>2020-11-11T10:18:26Z</time>
      </trkpt>
      <trkpt lat="28.4652600" lon="-16.3731020">
        <ele>799.9</ele>
        <time>2020-11-11T10:18:27Z</time>
      </trkpt>
      <trkpt lat="28.4652600" lon="-16.3731020">
        <ele>800.9</ele>
        <time>2020-11-11T10:18:28Z</time>
      </trkpt>
      <trkpt lat="28.4652200" lon="-16.3731180">
        <ele>800.9</ele>
        <time>2020-11-11T10:18:29Z</time>
      </trkpt>
      <trkpt lat="28.4652200" lon="-16.3731180">
        <ele>800.9</ele>
        <time>2020-11-11T10:18:30Z</time>
      </trkpt>
      <trkpt lat="28.4651820" lon="-16.3731350">
        <ele>800.9</ele>
        <time>2020-11-11T10:18:31Z</time>
      </trkpt>
      <trkpt lat="28.4651650" lon="-16.3731370">
        <ele>801.9</ele>
        <time>2020-11-11T10:18:32Z</time>
      </trkpt>
      <trkpt lat="28.4651650" lon="-16.3731370">
        <ele>801.9</ele>
        <time>2020-11-11T10:18:33Z</time>
      </trkpt>
      <trkpt lat="28.4651270" lon="-16.3731380">
        <ele>801.9</ele>
        <time>2020-11-11T10:18:34Z</time>
      </trkpt>
      <trkpt lat="28.4651270" lon="-16.3731380">
        <ele>801.9</ele>
        <time>2020-11-11T10:18:35Z</time>
      </trkpt>
      <trkpt lat="28.4650880" lon="-16.3731400">
        <ele>801.9</ele>
        <time>2020-11-11T10:18:36Z</time>
      </trkpt>
      <trkpt lat="28.4650880" lon="-16.3731400">
        <ele>801.9</ele>
        <time>2020-11-11T10:18:37Z</time>
      </trkpt>
      <trkpt lat="28.4650450" lon="-16.3731420">
        <ele>802.9</ele>
        <time>2020-11-11T10:18:38Z</time>
      </trkpt>
      <trkpt lat="28.4650300" lon="-16.3731480">
        <ele>802.9</ele>
        <time>2020-11-11T10:18:39Z</time>
      </trkpt>
      <trkpt lat="28.4650300" lon="-16.3731480">
        <ele>803.9</ele>
        <time>2020-11-11T10:18:40Z</time>
      </trkpt>
      <trkpt lat="28.4649980" lon="-16.3731620">
        <ele>803.9</ele>
        <time>2020-11-11T10:18:41Z</time>
      </trkpt>
      <trkpt lat="28.4649830" lon="-16.3731670">
        <ele>803.9</ele>
        <time>2020-11-11T10:18:42Z</time>
      </trkpt>
      <trkpt lat="28.4649830" lon="-16.3731670">
        <ele>803.9</ele>
        <time>2020-11-11T10:18:43Z</time>
      </trkpt>
      <trkpt lat="28.4649320" lon="-16.3731670">
        <ele>803.9</ele>
        <time>2020-11-11T10:18:44Z</time>
      </trkpt>
      <trkpt lat="28.4649320" lon="-16.3731670">
        <ele>803.9</ele>
        <time>2020-11-11T10:18:45Z</time>
      </trkpt>
      <trkpt lat="28.4648900" lon="-16.3731750">
        <ele>804.9</ele>
        <time>2020-11-11T10:18:46Z</time>
      </trkpt>
      <trkpt lat="28.4648900" lon="-16.3731750">
        <ele>804.9</ele>
        <time>2020-11-11T10:18:47Z</time>
      </trkpt>
      <trkpt lat="28.4648530" lon="-16.3731900">
        <ele>804.9</ele>
        <time>2020-11-11T10:18:48Z</time>
      </trkpt>
      <trkpt lat="28.4648530" lon="-16.3731900">
        <ele>804.9</ele>
        <time>2020-11-11T10:18:49Z</time>
      </trkpt>
      <trkpt lat="28.4648100" lon="-16.3732020">
        <ele>804.9</ele>
        <time>2020-11-11T10:18:50Z</time>
      </trkpt>
      <trkpt lat="28.4648100" lon="-16.3732020">
        <ele>804.9</ele>
        <time>2020-11-11T10:18:51Z</time>
      </trkpt>
      <trkpt lat="28.4647720" lon="-16.3732130">
        <ele>804.9</ele>
        <time>2020-11-11T10:18:52Z</time>
      </trkpt>
      <trkpt lat="28.4647530" lon="-16.3732220">
        <ele>805.9</ele>
        <time>2020-11-11T10:18:53Z</time>
      </trkpt>
      <trkpt lat="28.4647320" lon="-16.3732250">
        <ele>805.9</ele>
        <time>2020-11-11T10:18:54Z</time>
      </trkpt>
      <trkpt lat="28.4647320" lon="-16.3732250">
        <ele>803.9</ele>
        <time>2020-11-11T10:18:55Z</time>
      </trkpt>
      <trkpt lat="28.4646850" lon="-16.3732380">
        <ele>803.9</ele>
        <time>2020-11-11T10:18:56Z</time>
      </trkpt>
      <trkpt lat="28.4646850" lon="-16.3732380">
        <ele>805.9</ele>
        <time>2020-11-11T10:18:57Z</time>
      </trkpt>
      <trkpt lat="28.4646570" lon="-16.3732630">
        <ele>805.9</ele>
        <time>2020-11-11T10:18:58Z</time>
      </trkpt>
      <trkpt lat="28.4646570" lon="-16.3732630">
        <ele>805.9</ele>
        <time>2020-11-11T10:18:59Z</time>
      </trkpt>
      <trkpt lat="28.4646130" lon="-16.3732870">
        <ele>806.9</ele>
        <time>2020-11-11T10:19:00Z</time>
      </trkpt>
      <trkpt lat="28.4646130" lon="-16.3732870">
        <ele>806.9</ele>
        <time>2020-11-11T10:19:01Z</time>
      </trkpt>
      <trkpt lat="28.4645700" lon="-16.3733050">
        <ele>807.9</ele>
        <time>2020-11-11T10:19:02Z</time>
      </trkpt>
      <trkpt lat="28.4645700" lon="-16.3733050">
        <ele>807.9</ele>
        <time>2020-11-11T10:19:03Z</time>
      </trkpt>
      <trkpt lat="28.4645300" lon="-16.3733300">
        <ele>807.9</ele>
        <time>2020-11-11T10:19:04Z</time>
      </trkpt>
      <trkpt lat="28.4645080" lon="-16.3733430">
        <ele>807.9</ele>
        <time>2020-11-11T10:19:05Z</time>
      </trkpt>
      <trkpt lat="28.4645080" lon="-16.3733430">
        <ele>808.9</ele>
        <time>2020-11-11T10:19:06Z</time>
      </trkpt>
      <trkpt lat="28.4644670" lon="-16.3733630">
        <ele>808.9</ele>
        <time>2020-11-11T10:19:07Z</time>
      </trkpt>
      <trkpt lat="28.4644430" lon="-16.3733750">
        <ele>808.9</ele>
        <time>2020-11-11T10:19:08Z</time>
      </trkpt>
      <trkpt lat="28.4644430" lon="-16.3733750">
        <ele>808.9</ele>
        <time>2020-11-11T10:19:09Z</time>
      </trkpt>
      <trkpt lat="28.4644030" lon="-16.3733950">
        <ele>809.9</ele>
        <time>2020-11-11T10:19:10Z</time>
      </trkpt>
      <trkpt lat="28.4643830" lon="-16.3734070">
        <ele>809.9</ele>
        <time>2020-11-11T10:19:11Z</time>
      </trkpt>
      <trkpt lat="28.4643830" lon="-16.3734070">
        <ele>809.9</ele>
        <time>2020-11-11T10:19:12Z</time>
      </trkpt>
      <trkpt lat="28.4643470" lon="-16.3734350">
        <ele>809.9</ele>
        <time>2020-11-11T10:19:13Z</time>
      </trkpt>
      <trkpt lat="28.4643270" lon="-16.3734450">
        <ele>809.9</ele>
        <time>2020-11-11T10:19:14Z</time>
      </trkpt>
      <trkpt lat="28.4643270" lon="-16.3734450">
        <ele>809.9</ele>
        <time>2020-11-11T10:19:15Z</time>
      </trkpt>
      <trkpt lat="28.4642970" lon="-16.3734650">
        <ele>810.9</ele>
        <time>2020-11-11T10:19:16Z</time>
      </trkpt>
      <trkpt lat="28.4642970" lon="-16.3734650">
        <ele>810.9</ele>
        <time>2020-11-11T10:19:17Z</time>
      </trkpt>
      <trkpt lat="28.4642600" lon="-16.3734970">
        <ele>810.9</ele>
        <time>2020-11-11T10:19:18Z</time>
      </trkpt>
      <trkpt lat="28.4642600" lon="-16.3734970">
        <ele>810.9</ele>
        <time>2020-11-11T10:19:19Z</time>
      </trkpt>
      <trkpt lat="28.4642300" lon="-16.3735270">
        <ele>811.9</ele>
        <time>2020-11-11T10:19:20Z</time>
      </trkpt>
      <trkpt lat="28.4642300" lon="-16.3735270">
        <ele>811.9</ele>
        <time>2020-11-11T10:19:21Z</time>
      </trkpt>
      <trkpt lat="28.4642020" lon="-16.3735550">
        <ele>811.9</ele>
        <time>2020-11-11T10:19:22Z</time>
      </trkpt>
      <trkpt lat="28.4642020" lon="-16.3735550">
        <ele>811.9</ele>
        <time>2020-11-11T10:19:23Z</time>
      </trkpt>
      <trkpt lat="28.4641700" lon="-16.3735750">
        <ele>812.9</ele>
        <time>2020-11-11T10:19:24Z</time>
      </trkpt>
      <trkpt lat="28.4641550" lon="-16.3735880">
        <ele>812.9</ele>
        <time>2020-11-11T10:19:25Z</time>
      </trkpt>
      <trkpt lat="28.4641550" lon="-16.3735880">
        <ele>812.9</ele>
        <time>2020-11-11T10:19:26Z</time>
      </trkpt>
      <trkpt lat="28.4641250" lon="-16.3736070">
        <ele>813.9</ele>
        <time>2020-11-11T10:19:27Z</time>
      </trkpt>
      <trkpt lat="28.4641080" lon="-16.3736180">
        <ele>813.9</ele>
        <time>2020-11-11T10:19:28Z</time>
      </trkpt>
      <trkpt lat="28.4641080" lon="-16.3736180">
        <ele>813.9</ele>
        <time>2020-11-11T10:19:29Z</time>
      </trkpt>
      <trkpt lat="28.4640830" lon="-16.3736450">
        <ele>813.9</ele>
        <time>2020-11-11T10:19:30Z</time>
      </trkpt>
      <trkpt lat="28.4640830" lon="-16.3736450">
        <ele>813.9</ele>
        <time>2020-11-11T10:19:31Z</time>
      </trkpt>
      <trkpt lat="28.4640520" lon="-16.3736680">
        <ele>813.9</ele>
        <time>2020-11-11T10:19:32Z</time>
      </trkpt>
      <trkpt lat="28.4640520" lon="-16.3736680">
        <ele>813.9</ele>
        <time>2020-11-11T10:19:33Z</time>
      </trkpt>
      <trkpt lat="28.4640170" lon="-16.3737000">
        <ele>813.9</ele>
        <time>2020-11-11T10:19:34Z</time>
      </trkpt>
      <trkpt lat="28.4640030" lon="-16.3737200">
        <ele>814.9</ele>
        <time>2020-11-11T10:19:35Z</time>
      </trkpt>
      <trkpt lat="28.4640030" lon="-16.3737200">
        <ele>814.9</ele>
        <time>2020-11-11T10:19:36Z</time>
      </trkpt>
      <trkpt lat="28.4639770" lon="-16.3737470">
        <ele>814.9</ele>
        <time>2020-11-11T10:19:37Z</time>
      </trkpt>
      <trkpt lat="28.4639630" lon="-16.3737580">
        <ele>814.9</ele>
        <time>2020-11-11T10:19:38Z</time>
      </trkpt>
      <trkpt lat="28.4639500" lon="-16.3737730">
        <ele>815.9</ele>
        <time>2020-11-11T10:19:39Z</time>
      </trkpt>
      <trkpt lat="28.4639500" lon="-16.3737730">
        <ele>815.9</ele>
        <time>2020-11-11T10:19:40Z</time>
      </trkpt>
      <trkpt lat="28.4639220" lon="-16.3738030">
        <ele>815.9</ele>
        <time>2020-11-11T10:19:41Z</time>
      </trkpt>
      <trkpt lat="28.4639220" lon="-16.3738030">
        <ele>815.9</ele>
        <time>2020-11-11T10:19:42Z</time>
      </trkpt>
      <trkpt lat="28.4639020" lon="-16.3738330">
        <ele>815.9</ele>
        <time>2020-11-11T10:19:43Z</time>
      </trkpt>
      <trkpt lat="28.4639020" lon="-16.3738330">
        <ele>816.9</ele>
        <time>2020-11-11T10:19:44Z</time>
      </trkpt>
      <trkpt lat="28.4638720" lon="-16.3738630">
        <ele>816.9</ele>
        <time>2020-11-11T10:19:45Z</time>
      </trkpt>
      <trkpt lat="28.4638720" lon="-16.3738630">
        <ele>816.9</ele>
        <time>2020-11-11T10:19:46Z</time>
      </trkpt>
      <trkpt lat="28.4638450" lon="-16.3738920">
        <ele>816.9</ele>
        <time>2020-11-11T10:19:47Z</time>
      </trkpt>
      <trkpt lat="28.4638450" lon="-16.3738920">
        <ele>816.9</ele>
        <time>2020-11-11T10:19:48Z</time>
      </trkpt>
      <trkpt lat="28.4638230" lon="-16.3739230">
        <ele>816.9</ele>
        <time>2020-11-11T10:19:49Z</time>
      </trkpt>
      <trkpt lat="28.4638150" lon="-16.3739420">
        <ele>817.9</ele>
        <time>2020-11-11T10:19:50Z</time>
      </trkpt>
      <trkpt lat="28.4638150" lon="-16.3739420">
        <ele>817.9</ele>
        <time>2020-11-11T10:19:51Z</time>
      </trkpt>
      <trkpt lat="28.4638000" lon="-16.3739800">
        <ele>817.9</ele>
        <time>2020-11-11T10:19:52Z</time>
      </trkpt>
      <trkpt lat="28.4638000" lon="-16.3739800">
        <ele>817.9</ele>
        <time>2020-11-11T10:19:53Z</time>
      </trkpt>
      <trkpt lat="28.4637850" lon="-16.3740130">
        <ele>818.9</ele>
        <time>2020-11-11T10:19:54Z</time>
      </trkpt>
      <trkpt lat="28.4637850" lon="-16.3740130">
        <ele>818.9</ele>
        <time>2020-11-11T10:19:55Z</time>
      </trkpt>
      <trkpt lat="28.4637670" lon="-16.3740430">
        <ele>818.9</ele>
        <time>2020-11-11T10:19:56Z</time>
      </trkpt>
      <trkpt lat="28.4637570" lon="-16.3740580">
        <ele>818.9</ele>
        <time>2020-11-11T10:19:57Z</time>
      </trkpt>
      <trkpt lat="28.4637570" lon="-16.3740580">
        <ele>818.9</ele>
        <time>2020-11-11T10:19:58Z</time>
      </trkpt>
      <trkpt lat="28.4637320" lon="-16.3740850">
        <ele>818.9</ele>
        <time>2020-11-11T10:19:59Z</time>
      </trkpt>
      <trkpt lat="28.4637320" lon="-16.3740850">
        <ele>819.9</ele>
        <time>2020-11-11T10:20:00Z</time>
      </trkpt>
      <trkpt lat="28.4637170" lon="-16.3741170">
        <ele>819.9</ele>
        <time>2020-11-11T10:20:01Z</time>
      </trkpt>
      <trkpt lat="28.4637100" lon="-16.3741320">
        <ele>819.9</ele>
        <time>2020-11-11T10:20:02Z</time>
      </trkpt>
      <trkpt lat="28.4637100" lon="-16.3741320">
        <ele>820.9</ele>
        <time>2020-11-11T10:20:03Z</time>
      </trkpt>
      <trkpt lat="28.4636930" lon="-16.3741570">
        <ele>820.9</ele>
        <time>2020-11-11T10:20:04Z</time>
      </trkpt>
      <trkpt lat="28.4636930" lon="-16.3741570">
        <ele>820.9</ele>
        <time>2020-11-11T10:20:05Z</time>
      </trkpt>
      <trkpt lat="28.4636750" lon="-16.3741820">
        <ele>820.9</ele>
        <time>2020-11-11T10:20:06Z</time>
      </trkpt>
      <trkpt lat="28.4636750" lon="-16.3741820">
        <ele>821.9</ele>
        <time>2020-11-11T10:20:07Z</time>
      </trkpt>
      <trkpt lat="28.4636580" lon="-16.3742130">
        <ele>821.9</ele>
        <time>2020-11-11T10:20:08Z</time>
      </trkpt>
      <trkpt lat="28.4636500" lon="-16.3742280">
        <ele>821.9</ele>
        <time>2020-11-11T10:20:09Z</time>
      </trkpt>
      <trkpt lat="28.4636500" lon="-16.3742280">
        <ele>821.9</ele>
        <time>2020-11-11T10:20:10Z</time>
      </trkpt>
      <trkpt lat="28.4636370" lon="-16.3742630">
        <ele>822.9</ele>
        <time>2020-11-11T10:20:11Z</time>
      </trkpt>
      <trkpt lat="28.4636280" lon="-16.3742800">
        <ele>822.9</ele>
        <time>2020-11-11T10:20:12Z</time>
      </trkpt>
      <trkpt lat="28.4636280" lon="-16.3742800">
        <ele>822.9</ele>
        <time>2020-11-11T10:20:13Z</time>
      </trkpt>
      <trkpt lat="28.4636120" lon="-16.3743080">
        <ele>822.9</ele>
        <time>2020-11-11T10:20:14Z</time>
      </trkpt>
      <trkpt lat="28.4636030" lon="-16.3743220">
        <ele>823.9</ele>
        <time>2020-11-11T10:20:15Z</time>
      </trkpt>
      <trkpt lat="28.4636030" lon="-16.3743220">
        <ele>823.9</ele>
        <time>2020-11-11T10:20:16Z</time>
      </trkpt>
      <trkpt lat="28.4635930" lon="-16.3743600">
        <ele>823.9</ele>
        <time>2020-11-11T10:20:17Z</time>
      </trkpt>
      <trkpt lat="28.4635880" lon="-16.3743750">
        <ele>823.9</ele>
        <time>2020-11-11T10:20:18Z</time>
      </trkpt>
      <trkpt lat="28.4635880" lon="-16.3743750">
        <ele>824.9</ele>
        <time>2020-11-11T10:20:19Z</time>
      </trkpt>
      <trkpt lat="28.4635750" lon="-16.3744050">
        <ele>824.9</ele>
        <time>2020-11-11T10:20:20Z</time>
      </trkpt>
      <trkpt lat="28.4635750" lon="-16.3744050">
        <ele>824.9</ele>
        <time>2020-11-11T10:20:21Z</time>
      </trkpt>
      <trkpt lat="28.4635600" lon="-16.3744320">
        <ele>824.9</ele>
        <time>2020-11-11T10:20:22Z</time>
      </trkpt>
      <trkpt lat="28.4635600" lon="-16.3744320">
        <ele>826.9</ele>
        <time>2020-11-11T10:20:23Z</time>
      </trkpt>
      <trkpt lat="28.4635450" lon="-16.3744570">
        <ele>826.9</ele>
        <time>2020-11-11T10:20:24Z</time>
      </trkpt>
      <trkpt lat="28.4635450" lon="-16.3744570">
        <ele>826.9</ele>
        <time>2020-11-11T10:20:25Z</time>
      </trkpt>
      <trkpt lat="28.4635300" lon="-16.3744850">
        <ele>826.9</ele>
        <time>2020-11-11T10:20:26Z</time>
      </trkpt>
      <trkpt lat="28.4635230" lon="-16.3744970">
        <ele>826.9</ele>
        <time>2020-11-11T10:20:27Z</time>
      </trkpt>
      <trkpt lat="28.4635230" lon="-16.3744970">
        <ele>826.9</ele>
        <time>2020-11-11T10:20:28Z</time>
      </trkpt>
      <trkpt lat="28.4635080" lon="-16.3745250">
        <ele>828.9</ele>
        <time>2020-11-11T10:20:29Z</time>
      </trkpt>
      <trkpt lat="28.4635080" lon="-16.3745250">
        <ele>828.9</ele>
        <time>2020-11-11T10:20:30Z</time>
      </trkpt>
      <trkpt lat="28.4634870" lon="-16.3745530">
        <ele>828.9</ele>
        <time>2020-11-11T10:20:31Z</time>
      </trkpt>
      <trkpt lat="28.4634870" lon="-16.3745530">
        <ele>828.9</ele>
        <time>2020-11-11T10:20:32Z</time>
      </trkpt>
      <trkpt lat="28.4634620" lon="-16.3745670">
        <ele>828.9</ele>
        <time>2020-11-11T10:20:33Z</time>
      </trkpt>
      <trkpt lat="28.4634480" lon="-16.3745750">
        <ele>828.9</ele>
        <time>2020-11-11T10:20:34Z</time>
      </trkpt>
      <trkpt lat="28.4634480" lon="-16.3745750">
        <ele>829.9</ele>
        <time>2020-11-11T10:20:35Z</time>
      </trkpt>
      <trkpt lat="28.4634420" lon="-16.3746080">
        <ele>829.9</ele>
        <time>2020-11-11T10:20:36Z</time>
      </trkpt>
      <trkpt lat="28.4634420" lon="-16.3746080">
        <ele>829.9</ele>
        <time>2020-11-11T10:20:37Z</time>
      </trkpt>
      <trkpt lat="28.4634450" lon="-16.3746450">
        <ele>829.9</ele>
        <time>2020-11-11T10:20:38Z</time>
      </trkpt>
      <trkpt lat="28.4634450" lon="-16.3746450">
        <ele>830.9</ele>
        <time>2020-11-11T10:20:39Z</time>
      </trkpt>
      <trkpt lat="28.4634300" lon="-16.3746720">
        <ele>830.9</ele>
        <time>2020-11-11T10:20:40Z</time>
      </trkpt>
      <trkpt lat="28.4634300" lon="-16.3746720">
        <ele>831.9</ele>
        <time>2020-11-11T10:20:41Z</time>
      </trkpt>
      <trkpt lat="28.4634080" lon="-16.3746930">
        <ele>831.9</ele>
        <time>2020-11-11T10:20:42Z</time>
      </trkpt>
      <trkpt lat="28.4634080" lon="-16.3746930">
        <ele>831.9</ele>
        <time>2020-11-11T10:20:43Z</time>
      </trkpt>
      <trkpt lat="28.4633970" lon="-16.3747150">
        <ele>831.9</ele>
        <time>2020-11-11T10:20:44Z</time>
      </trkpt>
      <trkpt lat="28.4633970" lon="-16.3747150">
        <ele>832.9</ele>
        <time>2020-11-11T10:20:45Z</time>
      </trkpt>
      <trkpt lat="28.4633750" lon="-16.3747350">
        <ele>832.9</ele>
        <time>2020-11-11T10:20:46Z</time>
      </trkpt>
      <trkpt lat="28.4633620" lon="-16.3747480">
        <ele>832.9</ele>
        <time>2020-11-11T10:20:47Z</time>
      </trkpt>
      <trkpt lat="28.4633620" lon="-16.3747480">
        <ele>832.9</ele>
        <time>2020-11-11T10:20:48Z</time>
      </trkpt>
      <trkpt lat="28.4633470" lon="-16.3747670">
        <ele>833.9</ele>
        <time>2020-11-11T10:20:49Z</time>
      </trkpt>
      <trkpt lat="28.4633350" lon="-16.3747780">
        <ele>833.9</ele>
        <time>2020-11-11T10:20:50Z</time>
      </trkpt>
      <trkpt lat="28.4633350" lon="-16.3747780">
        <ele>833.9</ele>
        <time>2020-11-11T10:20:51Z</time>
      </trkpt>
      <trkpt lat="28.4633200" lon="-16.3748020">
        <ele>833.9</ele>
        <time>2020-11-11T10:20:52Z</time>
      </trkpt>
      <trkpt lat="28.4633200" lon="-16.3748020">
        <ele>834.9</ele>
        <time>2020-11-11T10:20:53Z</time>
      </trkpt>
      <trkpt lat="28.4633080" lon="-16.3748250">
        <ele>834.9</ele>
        <time>2020-11-11T10:20:54Z</time>
      </trkpt>
      <trkpt lat="28.4633080" lon="-16.3748250">
        <ele>834.9</ele>
        <time>2020-11-11T10:20:55Z</time>
      </trkpt>
      <trkpt lat="28.4633020" lon="-16.3748600">
        <ele>834.9</ele>
        <time>2020-11-11T10:20:56Z</time>
      </trkpt>
      <trkpt lat="28.4633020" lon="-16.3748600">
        <ele>834.9</ele>
        <time>2020-11-11T10:20:57Z</time>
      </trkpt>
      <trkpt lat="28.4632870" lon="-16.3748870">
        <ele>835.9</ele>
        <time>2020-11-11T10:20:58Z</time>
      </trkpt>
      <trkpt lat="28.4632770" lon="-16.3748970">
        <ele>835.9</ele>
        <time>2020-11-11T10:20:59Z</time>
      </trkpt>
      <trkpt lat="28.4632770" lon="-16.3748970">
        <ele>835.9</ele>
        <time>2020-11-11T10:21:00Z</time>
      </trkpt>
      <trkpt lat="28.4632650" lon="-16.3749270">
        <ele>835.9</ele>
        <time>2020-11-11T10:21:01Z</time>
      </trkpt>
      <trkpt lat="28.4632580" lon="-16.3749400">
        <ele>836.9</ele>
        <time>2020-11-11T10:21:02Z</time>
      </trkpt>
      <trkpt lat="28.4632580" lon="-16.3749400">
        <ele>836.9</ele>
        <time>2020-11-11T10:21:03Z</time>
      </trkpt>
      <trkpt lat="28.4632420" lon="-16.3749620">
        <ele>836.9</ele>
        <time>2020-11-11T10:21:04Z</time>
      </trkpt>
      <trkpt lat="28.4632280" lon="-16.3749680">
        <ele>836.9</ele>
        <time>2020-11-11T10:21:05Z</time>
      </trkpt>
      <trkpt lat="28.4632170" lon="-16.3749770">
        <ele>837.9</ele>
        <time>2020-11-11T10:21:06Z</time>
      </trkpt>
      <trkpt lat="28.4632170" lon="-16.3749770">
        <ele>837.9</ele>
        <time>2020-11-11T10:21:07Z</time>
      </trkpt>
      <trkpt lat="28.4632030" lon="-16.3750020">
        <ele>837.9</ele>
        <time>2020-11-11T10:21:08Z</time>
      </trkpt>
      <trkpt lat="28.4632030" lon="-16.3750020">
        <ele>837.9</ele>
        <time>2020-11-11T10:21:09Z</time>
      </trkpt>
      <trkpt lat="28.4631930" lon="-16.3750270">
        <ele>837.9</ele>
        <time>2020-11-11T10:21:10Z</time>
      </trkpt>
      <trkpt lat="28.4631930" lon="-16.3750270">
        <ele>838.9</ele>
        <time>2020-11-11T10:21:11Z</time>
      </trkpt>
      <trkpt lat="28.4631870" lon="-16.3750520">
        <ele>838.9</ele>
        <time>2020-11-11T10:21:12Z</time>
      </trkpt>
      <trkpt lat="28.4631870" lon="-16.3750520">
        <ele>838.9</ele>
        <time>2020-11-11T10:21:13Z</time>
      </trkpt>
      <trkpt lat="28.4631700" lon="-16.3750770">
        <ele>838.9</ele>
        <time>2020-11-11T10:21:14Z</time>
      </trkpt>
      <trkpt lat="28.4631580" lon="-16.3750880">
        <ele>839.9</ele>
        <time>2020-11-11T10:21:15Z</time>
      </trkpt>
      <trkpt lat="28.4631580" lon="-16.3750880">
        <ele>839.9</ele>
        <time>2020-11-11T10:21:16Z</time>
      </trkpt>
      <trkpt lat="28.4631350" lon="-16.3751080">
        <ele>839.9</ele>
        <time>2020-11-11T10:21:17Z</time>
      </trkpt>
      <trkpt lat="28.4631350" lon="-16.3751080">
        <ele>840.9</ele>
        <time>2020-11-11T10:21:18Z</time>
      </trkpt>
      <trkpt lat="28.4631050" lon="-16.3751320">
        <ele>840.9</ele>
        <time>2020-11-11T10:21:19Z</time>
      </trkpt>
      <trkpt lat="28.4631050" lon="-16.3751320">
        <ele>840.9</ele>
        <time>2020-11-11T10:21:20Z</time>
      </trkpt>
      <trkpt lat="28.4630820" lon="-16.3751550">
        <ele>840.9</ele>
        <time>2020-11-11T10:21:21Z</time>
      </trkpt>
      <trkpt lat="28.4630670" lon="-16.3751600">
        <ele>841.9</ele>
        <time>2020-11-11T10:21:22Z</time>
      </trkpt>
      <trkpt lat="28.4630670" lon="-16.3751600">
        <ele>841.9</ele>
        <time>2020-11-11T10:21:23Z</time>
      </trkpt>
      <trkpt lat="28.4630420" lon="-16.3751550">
        <ele>841.9</ele>
        <time>2020-11-11T10:21:24Z</time>
      </trkpt>
      <trkpt lat="28.4630280" lon="-16.3751580">
        <ele>841.9</ele>
        <time>2020-11-11T10:21:25Z</time>
      </trkpt>
      <trkpt lat="28.4630280" lon="-16.3751580">
        <ele>842.9</ele>
        <time>2020-11-11T10:21:26Z</time>
      </trkpt>
      <trkpt lat="28.4630070" lon="-16.3751680">
        <ele>842.9</ele>
        <time>2020-11-11T10:21:27Z</time>
      </trkpt>
      <trkpt lat="28.4630070" lon="-16.3751820">
        <ele>842.9</ele>
        <time>2020-11-11T10:21:28Z</time>
      </trkpt>
      <trkpt lat="28.4630070" lon="-16.3751820">
        <ele>842.9</ele>
        <time>2020-11-11T10:21:29Z</time>
      </trkpt>
      <trkpt lat="28.4629980" lon="-16.3752150">
        <ele>843.9</ele>
        <time>2020-11-11T10:21:30Z</time>
      </trkpt>
      <trkpt lat="28.4629980" lon="-16.3752150">
        <ele>843.9</ele>
        <time>2020-11-11T10:21:31Z</time>
      </trkpt>
      <trkpt lat="28.4629820" lon="-16.3752370">
        <ele>843.9</ele>
        <time>2020-11-11T10:21:32Z</time>
      </trkpt>
      <trkpt lat="28.4629700" lon="-16.3752370">
        <ele>843.9</ele>
        <time>2020-11-11T10:21:33Z</time>
      </trkpt>
      <trkpt lat="28.4629700" lon="-16.3752370">
        <ele>844.9</ele>
        <time>2020-11-11T10:21:34Z</time>
      </trkpt>
      <trkpt lat="28.4629530" lon="-16.3752520">
        <ele>844.9</ele>
        <time>2020-11-11T10:21:35Z</time>
      </trkpt>
      <trkpt lat="28.4629530" lon="-16.3752520">
        <ele>844.9</ele>
        <time>2020-11-11T10:21:36Z</time>
      </trkpt>
      <trkpt lat="28.4629370" lon="-16.3752730">
        <ele>844.9</ele>
        <time>2020-11-11T10:21:37Z</time>
      </trkpt>
      <trkpt lat="28.4629300" lon="-16.3752870">
        <ele>845.9</ele>
        <time>2020-11-11T10:21:38Z</time>
      </trkpt>
      <trkpt lat="28.4629300" lon="-16.3752870">
        <ele>845.9</ele>
        <time>2020-11-11T10:21:39Z</time>
      </trkpt>
      <trkpt lat="28.4629130" lon="-16.3753100">
        <ele>845.9</ele>
        <time>2020-11-11T10:21:40Z</time>
      </trkpt>
      <trkpt lat="28.4629130" lon="-16.3753100">
        <ele>845.9</ele>
        <time>2020-11-11T10:21:41Z</time>
      </trkpt>
      <trkpt lat="28.4628930" lon="-16.3753280">
        <ele>846.9</ele>
        <time>2020-11-11T10:21:42Z</time>
      </trkpt>
      <trkpt lat="28.4628930" lon="-16.3753280">
        <ele>846.9</ele>
        <time>2020-11-11T10:21:43Z</time>
      </trkpt>
      <trkpt lat="28.4628720" lon="-16.3753400">
        <ele>846.9</ele>
        <time>2020-11-11T10:21:44Z</time>
      </trkpt>
      <trkpt lat="28.4628600" lon="-16.3753500">
        <ele>846.9</ele>
        <time>2020-11-11T10:21:45Z</time>
      </trkpt>
      <trkpt lat="28.4628500" lon="-16.3753580">
        <ele>847.9</ele>
        <time>2020-11-11T10:21:46Z</time>
      </trkpt>
      <trkpt lat="28.4628500" lon="-16.3753580">
        <ele>847.9</ele>
        <time>2020-11-11T10:21:47Z</time>
      </trkpt>
      <trkpt lat="28.4628230" lon="-16.3753680">
        <ele>847.9</ele>
        <time>2020-11-11T10:21:48Z</time>
      </trkpt>
      <trkpt lat="28.4628000" lon="-16.3753820">
        <ele>847.9</ele>
        <time>2020-11-11T10:21:49Z</time>
      </trkpt>
      <trkpt lat="28.4628000" lon="-16.3753820">
        <ele>848.9</ele>
        <time>2020-11-11T10:21:50Z</time>
      </trkpt>
      <trkpt lat="28.4627670" lon="-16.3754020">
        <ele>848.9</ele>
        <time>2020-11-11T10:21:51Z</time>
      </trkpt>
      <trkpt lat="28.4627670" lon="-16.3754020">
        <ele>849.9</ele>
        <time>2020-11-11T10:21:52Z</time>
      </trkpt>
      <trkpt lat="28.4627430" lon="-16.3754320">
        <ele>849.9</ele>
        <time>2020-11-11T10:21:53Z</time>
      </trkpt>
      <trkpt lat="28.4627270" lon="-16.3754430">
        <ele>849.9</ele>
        <time>2020-11-11T10:21:54Z</time>
      </trkpt>
      <trkpt lat="28.4627270" lon="-16.3754430">
        <ele>849.9</ele>
        <time>2020-11-11T10:21:55Z</time>
      </trkpt>
      <trkpt lat="28.4626920" lon="-16.3754570">
        <ele>849.9</ele>
        <time>2020-11-11T10:21:56Z</time>
      </trkpt>
      <trkpt lat="28.4626920" lon="-16.3754570">
        <ele>849.9</ele>
        <time>2020-11-11T10:21:57Z</time>
      </trkpt>
      <trkpt lat="28.4626530" lon="-16.3754580">
        <ele>849.9</ele>
        <time>2020-11-11T10:21:58Z</time>
      </trkpt>
      <trkpt lat="28.4626300" lon="-16.3754650">
        <ele>849.9</ele>
        <time>2020-11-11T10:21:59Z</time>
      </trkpt>
      <trkpt lat="28.4626070" lon="-16.3754730">
        <ele>849.9</ele>
        <time>2020-11-11T10:22:00Z</time>
      </trkpt>
      <trkpt lat="28.4626070" lon="-16.3754730">
        <ele>849.9</ele>
        <time>2020-11-11T10:22:01Z</time>
      </trkpt>
      <trkpt lat="28.4625580" lon="-16.3755000">
        <ele>849.9</ele>
        <time>2020-11-11T10:22:02Z</time>
      </trkpt>
      <trkpt lat="28.4625580" lon="-16.3755000">
        <ele>849.9</ele>
        <time>2020-11-11T10:22:03Z</time>
      </trkpt>
      <trkpt lat="28.4625020" lon="-16.3755380">
        <ele>849.9</ele>
        <time>2020-11-11T10:22:04Z</time>
      </trkpt>
      <trkpt lat="28.4625020" lon="-16.3755380">
        <ele>849.9</ele>
        <time>2020-11-11T10:22:05Z</time>
      </trkpt>
      <trkpt lat="28.4624480" lon="-16.3755830">
        <ele>849.9</ele>
        <time>2020-11-11T10:22:06Z</time>
      </trkpt>
      <trkpt lat="28.4624480" lon="-16.3755830">
        <ele>849.9</ele>
        <time>2020-11-11T10:22:07Z</time>
      </trkpt>
      <trkpt lat="28.4623950" lon="-16.3756280">
        <ele>849.9</ele>
        <time>2020-11-11T10:22:08Z</time>
      </trkpt>
      <trkpt lat="28.4623950" lon="-16.3756280">
        <ele>849.9</ele>
        <time>2020-11-11T10:22:09Z</time>
      </trkpt>
      <trkpt lat="28.4623520" lon="-16.3756930">
        <ele>849.9</ele>
        <time>2020-11-11T10:22:10Z</time>
      </trkpt>
      <trkpt lat="28.4623520" lon="-16.3756930">
        <ele>849.9</ele>
        <time>2020-11-11T10:22:11Z</time>
      </trkpt>
      <trkpt lat="28.4622920" lon="-16.3757600">
        <ele>849.9</ele>
        <time>2020-11-11T10:22:12Z</time>
      </trkpt>
      <trkpt lat="28.4622920" lon="-16.3757600">
        <ele>849.9</ele>
        <time>2020-11-11T10:22:13Z</time>
      </trkpt>
      <trkpt lat="28.4622050" lon="-16.3757920">
        <ele>849.9</ele>
        <time>2020-11-11T10:22:14Z</time>
      </trkpt>
      <trkpt lat="28.4622050" lon="-16.3757920">
        <ele>849.9</ele>
        <time>2020-11-11T10:22:15Z</time>
      </trkpt>
      <trkpt lat="28.4621320" lon="-16.3757350">
        <ele>849.9</ele>
        <time>2020-11-11T10:22:16Z</time>
      </trkpt>
      <trkpt lat="28.4621320" lon="-16.3757350">
        <ele>849.9</ele>
        <time>2020-11-11T10:22:17Z</time>
      </trkpt>
      <trkpt lat="28.4621100" lon="-16.3756150">
        <ele>849.9</ele>
        <time>2020-11-11T10:22:18Z</time>
      </trkpt>
      <trkpt lat="28.4621230" lon="-16.3755580">
        <ele>849.9</ele>
        <time>2020-11-11T10:22:19Z</time>
      </trkpt>
      <trkpt lat="28.4621230" lon="-16.3755580">
        <ele>849.9</ele>
        <time>2020-11-11T10:22:20Z</time>
      </trkpt>
      <trkpt lat="28.4621330" lon="-16.3754420">
        <ele>849.9</ele>
        <time>2020-11-11T10:22:21Z</time>
      </trkpt>
      <trkpt lat="28.4621330" lon="-16.3754420">
        <ele>849.9</ele>
        <time>2020-11-11T10:22:22Z</time>
      </trkpt>
      <trkpt lat="28.4621450" lon="-16.3753380">
        <ele>849.9</ele>
        <time>2020-11-11T10:22:23Z</time>
      </trkpt>
      <trkpt lat="28.4621450" lon="-16.3753380">
        <ele>849.9</ele>
        <time>2020-11-11T10:22:24Z</time>
      </trkpt>
      <trkpt lat="28.4621550" lon="-16.3752480">
        <ele>849.9</ele>
        <time>2020-11-11T10:22:25Z</time>
      </trkpt>
      <trkpt lat="28.4621580" lon="-16.3752030">
        <ele>849.9</ele>
        <time>2020-11-11T10:22:26Z</time>
      </trkpt>
      <trkpt lat="28.4621580" lon="-16.3752030">
        <ele>849.9</ele>
        <time>2020-11-11T10:22:27Z</time>
      </trkpt>
      <trkpt lat="28.4621770" lon="-16.3751020">
        <ele>849.9</ele>
        <time>2020-11-11T10:22:28Z</time>
      </trkpt>
      <trkpt lat="28.4621770" lon="-16.3751020">
        <ele>849.9</ele>
        <time>2020-11-11T10:22:29Z</time>
      </trkpt>
      <trkpt lat="28.4621970" lon="-16.3750000">
        <ele>849.9</ele>
        <time>2020-11-11T10:22:30Z</time>
      </trkpt>
      <trkpt lat="28.4621970" lon="-16.3750000">
        <ele>849.9</ele>
        <time>2020-11-11T10:22:31Z</time>
      </trkpt>
      <trkpt lat="28.4622200" lon="-16.3748970">
        <ele>849.9</ele>
        <time>2020-11-11T10:22:32Z</time>
      </trkpt>
      <trkpt lat="28.4622200" lon="-16.3748970">
        <ele>849.9</ele>
        <time>2020-11-11T10:22:33Z</time>
      </trkpt>
      <trkpt lat="28.4622380" lon="-16.3747930">
        <ele>849.9</ele>
        <time>2020-11-11T10:22:34Z</time>
      </trkpt>
      <trkpt lat="28.4622480" lon="-16.3747420">
        <ele>849.9</ele>
        <time>2020-11-11T10:22:35Z</time>
      </trkpt>
      <trkpt lat="28.4622480" lon="-16.3747420">
        <ele>849.9</ele>
        <time>2020-11-11T10:22:36Z</time>
      </trkpt>
      <trkpt lat="28.4622630" lon="-16.3746380">
        <ele>849.9</ele>
        <time>2020-11-11T10:22:37Z</time>
      </trkpt>
      <trkpt lat="28.4622630" lon="-16.3746380">
        <ele>849.9</ele>
        <time>2020-11-11T10:22:38Z</time>
      </trkpt>
      <trkpt lat="28.4622620" lon="-16.3745370">
        <ele>849.9</ele>
        <time>2020-11-11T10:22:39Z</time>
      </trkpt>
      <trkpt lat="28.4622620" lon="-16.3745370">
        <ele>849.9</ele>
        <time>2020-11-11T10:22:40Z</time>
      </trkpt>
      <trkpt lat="28.4622500" lon="-16.3744350">
        <ele>850.9</ele>
        <time>2020-11-11T10:22:41Z</time>
      </trkpt>
      <trkpt lat="28.4622400" lon="-16.3743870">
        <ele>850.9</ele>
        <time>2020-11-11T10:22:42Z</time>
      </trkpt>
      <trkpt lat="28.4622400" lon="-16.3743870">
        <ele>850.9</ele>
        <time>2020-11-11T10:22:43Z</time>
      </trkpt>
      <trkpt lat="28.4622220" lon="-16.3743020">
        <ele>850.9</ele>
        <time>2020-11-11T10:22:44Z</time>
      </trkpt>
      <trkpt lat="28.4622220" lon="-16.3743020">
        <ele>851.9</ele>
        <time>2020-11-11T10:22:45Z</time>
      </trkpt>
      <trkpt lat="28.4621920" lon="-16.3742200">
        <ele>851.9</ele>
        <time>2020-11-11T10:22:46Z</time>
      </trkpt>
      <trkpt lat="28.4621700" lon="-16.3741870">
        <ele>851.9</ele>
        <time>2020-11-11T10:22:47Z</time>
      </trkpt>
      <trkpt lat="28.4621700" lon="-16.3741870">
        <ele>851.9</ele>
        <time>2020-11-11T10:22:48Z</time>
      </trkpt>
      <trkpt lat="28.4621270" lon="-16.3741220">
        <ele>852.9</ele>
        <time>2020-11-11T10:22:49Z</time>
      </trkpt>
      <trkpt lat="28.4621030" lon="-16.3740930">
        <ele>852.9</ele>
        <time>2020-11-11T10:22:50Z</time>
      </trkpt>
      <trkpt lat="28.4621030" lon="-16.3740930">
        <ele>852.9</ele>
        <time>2020-11-11T10:22:51Z</time>
      </trkpt>
      <trkpt lat="28.4620470" lon="-16.3740370">
        <ele>852.9</ele>
        <time>2020-11-11T10:22:52Z</time>
      </trkpt>
      <trkpt lat="28.4620220" lon="-16.3740130">
        <ele>853.9</ele>
        <time>2020-11-11T10:22:53Z</time>
      </trkpt>
      <trkpt lat="28.4620220" lon="-16.3740130">
        <ele>853.9</ele>
        <time>2020-11-11T10:22:54Z</time>
      </trkpt>
      <trkpt lat="28.4619680" lon="-16.3739620">
        <ele>853.9</ele>
        <time>2020-11-11T10:22:55Z</time>
      </trkpt>
      <trkpt lat="28.4619450" lon="-16.3739380">
        <ele>853.9</ele>
        <time>2020-11-11T10:22:56Z</time>
      </trkpt>
      <trkpt lat="28.4619450" lon="-16.3739380">
        <ele>854.9</ele>
        <time>2020-11-11T10:22:57Z</time>
      </trkpt>
      <trkpt lat="28.4618970" lon="-16.3738830">
        <ele>854.9</ele>
        <time>2020-11-11T10:22:58Z</time>
      </trkpt>
      <trkpt lat="28.4618970" lon="-16.3738830">
        <ele>853.9</ele>
        <time>2020-11-11T10:22:59Z</time>
      </trkpt>
      <trkpt lat="28.4618430" lon="-16.3738300">
        <ele>853.9</ele>
        <time>2020-11-11T10:23:00Z</time>
      </trkpt>
      <trkpt lat="28.4618430" lon="-16.3738300">
        <ele>854.9</ele>
        <time>2020-11-11T10:23:01Z</time>
      </trkpt>
      <trkpt lat="28.4617930" lon="-16.3737820">
        <ele>854.9</ele>
        <time>2020-11-11T10:23:02Z</time>
      </trkpt>
      <trkpt lat="28.4617930" lon="-16.3737820">
        <ele>855.9</ele>
        <time>2020-11-11T10:23:03Z</time>
      </trkpt>
      <trkpt lat="28.4617430" lon="-16.3737330">
        <ele>855.9</ele>
        <time>2020-11-11T10:23:04Z</time>
      </trkpt>
      <trkpt lat="28.4617170" lon="-16.3737080">
        <ele>856.9</ele>
        <time>2020-11-11T10:23:05Z</time>
      </trkpt>
      <trkpt lat="28.4616900" lon="-16.3736870">
        <ele>856.9</ele>
        <time>2020-11-11T10:23:06Z</time>
      </trkpt>
      <trkpt lat="28.4616900" lon="-16.3736870">
        <ele>856.9</ele>
        <time>2020-11-11T10:23:07Z</time>
      </trkpt>
      <trkpt lat="28.4616330" lon="-16.3736420">
        <ele>856.9</ele>
        <time>2020-11-11T10:23:08Z</time>
      </trkpt>
      <trkpt lat="28.4616330" lon="-16.3736420">
        <ele>856.9</ele>
        <time>2020-11-11T10:23:09Z</time>
      </trkpt>
      <trkpt lat="28.4615720" lon="-16.3735870">
        <ele>857.9</ele>
        <time>2020-11-11T10:23:10Z</time>
      </trkpt>
      <trkpt lat="28.4615720" lon="-16.3735870">
        <ele>857.9</ele>
        <time>2020-11-11T10:23:11Z</time>
      </trkpt>
      <trkpt lat="28.4615080" lon="-16.3735280">
        <ele>857.9</ele>
        <time>2020-11-11T10:23:12Z</time>
      </trkpt>
      <trkpt lat="28.4615080" lon="-16.3735280">
        <ele>857.9</ele>
        <time>2020-11-11T10:23:13Z</time>
      </trkpt>
      <trkpt lat="28.4614450" lon="-16.3734700">
        <ele>857.9</ele>
        <time>2020-11-11T10:23:14Z</time>
      </trkpt>
      <trkpt lat="28.4614450" lon="-16.3734700">
        <ele>857.9</ele>
        <time>2020-11-11T10:23:15Z</time>
      </trkpt>
      <trkpt lat="28.4613780" lon="-16.3734100">
        <ele>857.9</ele>
        <time>2020-11-11T10:23:16Z</time>
      </trkpt>
      <trkpt lat="28.4613780" lon="-16.3734100">
        <ele>857.9</ele>
        <time>2020-11-11T10:23:17Z</time>
      </trkpt>
      <trkpt lat="28.4613130" lon="-16.3733430">
        <ele>857.9</ele>
        <time>2020-11-11T10:23:18Z</time>
      </trkpt>
      <trkpt lat="28.4613130" lon="-16.3733430">
        <ele>857.9</ele>
        <time>2020-11-11T10:23:19Z</time>
      </trkpt>
      <trkpt lat="28.4612470" lon="-16.3732750">
        <ele>857.9</ele>
        <time>2020-11-11T10:23:20Z</time>
      </trkpt>
      <trkpt lat="28.4612470" lon="-16.3732750">
        <ele>857.9</ele>
        <time>2020-11-11T10:23:21Z</time>
      </trkpt>
      <trkpt lat="28.4611800" lon="-16.3731970">
        <ele>857.9</ele>
        <time>2020-11-11T10:23:22Z</time>
      </trkpt>
      <trkpt lat="28.4611470" lon="-16.3731550">
        <ele>857.9</ele>
        <time>2020-11-11T10:23:23Z</time>
      </trkpt>
      <trkpt lat="28.4611470" lon="-16.3731550">
        <ele>857.9</ele>
        <time>2020-11-11T10:23:24Z</time>
      </trkpt>
      <trkpt lat="28.4610780" lon="-16.3730670">
        <ele>857.9</ele>
        <time>2020-11-11T10:23:25Z</time>
      </trkpt>
      <trkpt lat="28.4610780" lon="-16.3730670">
        <ele>857.9</ele>
        <time>2020-11-11T10:23:26Z</time>
      </trkpt>
      <trkpt lat="28.4610180" lon="-16.3729700">
        <ele>857.9</ele>
        <time>2020-11-11T10:23:27Z</time>
      </trkpt>
      <trkpt lat="28.4610180" lon="-16.3729700">
        <ele>857.9</ele>
        <time>2020-11-11T10:23:28Z</time>
      </trkpt>
      <trkpt lat="28.4609650" lon="-16.3728580">
        <ele>857.9</ele>
        <time>2020-11-11T10:23:29Z</time>
      </trkpt>
      <trkpt lat="28.4609650" lon="-16.3728580">
        <ele>857.9</ele>
        <time>2020-11-11T10:23:30Z</time>
      </trkpt>
      <trkpt lat="28.4609180" lon="-16.3727480">
        <ele>857.9</ele>
        <time>2020-11-11T10:23:31Z</time>
      </trkpt>
      <trkpt lat="28.4608950" lon="-16.3726920">
        <ele>857.9</ele>
        <time>2020-11-11T10:23:32Z</time>
      </trkpt>
      <trkpt lat="28.4608950" lon="-16.3726920">
        <ele>857.9</ele>
        <time>2020-11-11T10:23:33Z</time>
      </trkpt>
      <trkpt lat="28.4608480" lon="-16.3725900">
        <ele>857.9</ele>
        <time>2020-11-11T10:23:34Z</time>
      </trkpt>
      <trkpt lat="28.4608480" lon="-16.3725900">
        <ele>857.9</ele>
        <time>2020-11-11T10:23:35Z</time>
      </trkpt>
      <trkpt lat="28.4608030" lon="-16.3724880">
        <ele>857.9</ele>
        <time>2020-11-11T10:23:36Z</time>
      </trkpt>
      <trkpt lat="28.4608030" lon="-16.3724880">
        <ele>857.9</ele>
        <time>2020-11-11T10:23:37Z</time>
      </trkpt>
      <trkpt lat="28.4607570" lon="-16.3723900">
        <ele>857.9</ele>
        <time>2020-11-11T10:23:38Z</time>
      </trkpt>
      <trkpt lat="28.4607570" lon="-16.3723900">
        <ele>857.9</ele>
        <time>2020-11-11T10:23:39Z</time>
      </trkpt>
      <trkpt lat="28.4607030" lon="-16.3722920">
        <ele>857.9</ele>
        <time>2020-11-11T10:23:40Z</time>
      </trkpt>
      <trkpt lat="28.4607030" lon="-16.3722920">
        <ele>857.9</ele>
        <time>2020-11-11T10:23:41Z</time>
      </trkpt>
      <trkpt lat="28.4606570" lon="-16.3721930">
        <ele>857.9</ele>
        <time>2020-11-11T10:23:42Z</time>
      </trkpt>
      <trkpt lat="28.4606320" lon="-16.3721470">
        <ele>857.9</ele>
        <time>2020-11-11T10:23:43Z</time>
      </trkpt>
      <trkpt lat="28.4606320" lon="-16.3721470">
        <ele>857.9</ele>
        <time>2020-11-11T10:23:44Z</time>
      </trkpt>
      <trkpt lat="28.4605820" lon="-16.3720530">
        <ele>857.9</ele>
        <time>2020-11-11T10:23:45Z</time>
      </trkpt>
      <trkpt lat="28.4605820" lon="-16.3720530">
        <ele>858.9</ele>
        <time>2020-11-11T10:23:46Z</time>
      </trkpt>
      <trkpt lat="28.4605300" lon="-16.3719570">
        <ele>858.9</ele>
        <time>2020-11-11T10:23:47Z</time>
      </trkpt>
      <trkpt lat="28.4605000" lon="-16.3719050">
        <ele>858.9</ele>
        <time>2020-11-11T10:23:48Z</time>
      </trkpt>
      <trkpt lat="28.4605000" lon="-16.3719050">
        <ele>858.9</ele>
        <time>2020-11-11T10:23:49Z</time>
      </trkpt>
      <trkpt lat="28.4604470" lon="-16.3718020">
        <ele>858.9</ele>
        <time>2020-11-11T10:23:50Z</time>
      </trkpt>
      <trkpt lat="28.4604470" lon="-16.3718020">
        <ele>858.9</ele>
        <time>2020-11-11T10:23:51Z</time>
      </trkpt>
      <trkpt lat="28.4603920" lon="-16.3716950">
        <ele>858.9</ele>
        <time>2020-11-11T10:23:52Z</time>
      </trkpt>
      <trkpt lat="28.4603920" lon="-16.3716950">
        <ele>858.9</ele>
        <time>2020-11-11T10:23:53Z</time>
      </trkpt>
      <trkpt lat="28.4603300" lon="-16.3715900">
        <ele>858.9</ele>
        <time>2020-11-11T10:23:54Z</time>
      </trkpt>
      <trkpt lat="28.4603300" lon="-16.3715900">
        <ele>858.9</ele>
        <time>2020-11-11T10:23:55Z</time>
      </trkpt>
      <trkpt lat="28.4602550" lon="-16.3714770">
        <ele>858.9</ele>
        <time>2020-11-11T10:23:56Z</time>
      </trkpt>
      <trkpt lat="28.4602550" lon="-16.3714770">
        <ele>857.9</ele>
        <time>2020-11-11T10:23:57Z</time>
      </trkpt>
      <trkpt lat="28.4601670" lon="-16.3713630">
        <ele>857.9</ele>
        <time>2020-11-11T10:23:58Z</time>
      </trkpt>
      <trkpt lat="28.4601200" lon="-16.3713100">
        <ele>857.9</ele>
        <time>2020-11-11T10:23:59Z</time>
      </trkpt>
      <trkpt lat="28.4600750" lon="-16.3712520">
        <ele>857.9</ele>
        <time>2020-11-11T10:24:00Z</time>
      </trkpt>
      <trkpt lat="28.4600750" lon="-16.3712520">
        <ele>857.9</ele>
        <time>2020-11-11T10:24:01Z</time>
      </trkpt>
      <trkpt lat="28.4599820" lon="-16.3711250">
        <ele>857.9</ele>
        <time>2020-11-11T10:24:02Z</time>
      </trkpt>
      <trkpt lat="28.4599350" lon="-16.3710550">
        <ele>856.9</ele>
        <time>2020-11-11T10:24:03Z</time>
      </trkpt>
      <trkpt lat="28.4599350" lon="-16.3710550">
        <ele>856.9</ele>
        <time>2020-11-11T10:24:04Z</time>
      </trkpt>
      <trkpt lat="28.4598270" lon="-16.3709000">
        <ele>855.9</ele>
        <time>2020-11-11T10:24:05Z</time>
      </trkpt>
      <trkpt lat="28.4598270" lon="-16.3709000">
        <ele>855.9</ele>
        <time>2020-11-11T10:24:06Z</time>
      </trkpt>
      <trkpt lat="28.4596950" lon="-16.3707200">
        <ele>853.9</ele>
        <time>2020-11-11T10:24:07Z</time>
      </trkpt>
      <trkpt lat="28.4596230" lon="-16.3706250">
        <ele>853.9</ele>
        <time>2020-11-11T10:24:08Z</time>
      </trkpt>
      <trkpt lat="28.4596230" lon="-16.3706250">
        <ele>852.9</ele>
        <time>2020-11-11T10:24:09Z</time>
      </trkpt>
      <trkpt lat="28.4595020" lon="-16.3704130">
        <ele>852.9</ele>
        <time>2020-11-11T10:24:10Z</time>
      </trkpt>
      <trkpt lat="28.4595020" lon="-16.3704130">
        <ele>850.9</ele>
        <time>2020-11-11T10:24:11Z</time>
      </trkpt>
      <trkpt lat="28.4594230" lon="-16.3701920">
        <ele>850.9</ele>
        <time>2020-11-11T10:24:12Z</time>
      </trkpt>
      <trkpt lat="28.4593930" lon="-16.3700930">
        <ele>850.9</ele>
        <time>2020-11-11T10:24:13Z</time>
      </trkpt>
      <trkpt lat="28.4593930" lon="-16.3700930">
        <ele>850.9</ele>
        <time>2020-11-11T10:24:14Z</time>
      </trkpt>
      <trkpt lat="28.4593280" lon="-16.3699370">
        <ele>850.9</ele>
        <time>2020-11-11T10:24:15Z</time>
      </trkpt>
      <trkpt lat="28.4593280" lon="-16.3699370">
        <ele>850.9</ele>
        <time>2020-11-11T10:24:16Z</time>
      </trkpt>
      <trkpt lat="28.4592680" lon="-16.3698420">
        <ele>851.9</ele>
        <time>2020-11-11T10:24:17Z</time>
      </trkpt>
      <trkpt lat="28.4592430" lon="-16.3697930">
        <ele>851.9</ele>
        <time>2020-11-11T10:24:18Z</time>
      </trkpt>
      <trkpt lat="28.4592220" lon="-16.3697520">
        <ele>853.9</ele>
        <time>2020-11-11T10:24:19Z</time>
      </trkpt>
      <trkpt lat="28.4592050" lon="-16.3697180">
        <ele>853.9</ele>
        <time>2020-11-11T10:24:20Z</time>
      </trkpt>
      <trkpt lat="28.4592050" lon="-16.3697180">
        <ele>854.9</ele>
        <time>2020-11-11T10:24:21Z</time>
      </trkpt>
      <trkpt lat="28.4591680" lon="-16.3696580">
        <ele>854.9</ele>
        <time>2020-11-11T10:24:22Z</time>
      </trkpt>
      <trkpt lat="28.4591530" lon="-16.3696230">
        <ele>854.9</ele>
        <time>2020-11-11T10:24:23Z</time>
      </trkpt>
      <trkpt lat="28.4591530" lon="-16.3696230">
        <ele>855.9</ele>
        <time>2020-11-11T10:24:24Z</time>
      </trkpt>
      <trkpt lat="28.4591320" lon="-16.3695630">
        <ele>855.9</ele>
        <time>2020-11-11T10:24:25Z</time>
      </trkpt>
      <trkpt lat="28.4591200" lon="-16.3695350">
        <ele>856.9</ele>
        <time>2020-11-11T10:24:26Z</time>
      </trkpt>
      <trkpt lat="28.4591200" lon="-16.3695350">
        <ele>856.9</ele>
        <time>2020-11-11T10:24:27Z</time>
      </trkpt>
      <trkpt lat="28.4590950" lon="-16.3694780">
        <ele>856.9</ele>
        <time>2020-11-11T10:24:28Z</time>
      </trkpt>
      <trkpt lat="28.4590800" lon="-16.3694430">
        <ele>856.9</ele>
        <time>2020-11-11T10:24:29Z</time>
      </trkpt>
      <trkpt lat="28.4590800" lon="-16.3694430">
        <ele>857.9</ele>
        <time>2020-11-11T10:24:30Z</time>
      </trkpt>
      <trkpt lat="28.4590520" lon="-16.3693770">
        <ele>857.9</ele>
        <time>2020-11-11T10:24:31Z</time>
      </trkpt>
      <trkpt lat="28.4590520" lon="-16.3693770">
        <ele>857.9</ele>
        <time>2020-11-11T10:24:32Z</time>
      </trkpt>
      <trkpt lat="28.4590220" lon="-16.3693080">
        <ele>857.9</ele>
        <time>2020-11-11T10:24:33Z</time>
      </trkpt>
      <trkpt lat="28.4590030" lon="-16.3692750">
        <ele>857.9</ele>
        <time>2020-11-11T10:24:34Z</time>
      </trkpt>
      <trkpt lat="28.4590030" lon="-16.3692750">
        <ele>857.9</ele>
        <time>2020-11-11T10:24:35Z</time>
      </trkpt>
      <trkpt lat="28.4589650" lon="-16.3692080">
        <ele>857.9</ele>
        <time>2020-11-11T10:24:36Z</time>
      </trkpt>
      <trkpt lat="28.4589650" lon="-16.3692080">
        <ele>858.9</ele>
        <time>2020-11-11T10:24:37Z</time>
      </trkpt>
      <trkpt lat="28.4589170" lon="-16.3691430">
        <ele>858.9</ele>
        <time>2020-11-11T10:24:38Z</time>
      </trkpt>
      <trkpt lat="28.4589170" lon="-16.3691430">
        <ele>858.9</ele>
        <time>2020-11-11T10:24:39Z</time>
      </trkpt>
      <trkpt lat="28.4588680" lon="-16.3690730">
        <ele>858.9</ele>
        <time>2020-11-11T10:24:40Z</time>
      </trkpt>
      <trkpt lat="28.4588680" lon="-16.3690730">
        <ele>858.9</ele>
        <time>2020-11-11T10:24:41Z</time>
      </trkpt>
      <trkpt lat="28.4588200" lon="-16.3690030">
        <ele>859.9</ele>
        <time>2020-11-11T10:24:42Z</time>
      </trkpt>
      <trkpt lat="28.4587980" lon="-16.3689670">
        <ele>859.9</ele>
        <time>2020-11-11T10:24:43Z</time>
      </trkpt>
      <trkpt lat="28.4587980" lon="-16.3689670">
        <ele>859.9</ele>
        <time>2020-11-11T10:24:44Z</time>
      </trkpt>
      <trkpt lat="28.4587530" lon="-16.3688950">
        <ele>859.9</ele>
        <time>2020-11-11T10:24:45Z</time>
      </trkpt>
      <trkpt lat="28.4587530" lon="-16.3688950">
        <ele>859.9</ele>
        <time>2020-11-11T10:24:46Z</time>
      </trkpt>
      <trkpt lat="28.4587000" lon="-16.3688330">
        <ele>859.9</ele>
        <time>2020-11-11T10:24:47Z</time>
      </trkpt>
      <trkpt lat="28.4587000" lon="-16.3688330">
        <ele>859.9</ele>
        <time>2020-11-11T10:24:48Z</time>
      </trkpt>
      <trkpt lat="28.4586450" lon="-16.3687770">
        <ele>859.9</ele>
        <time>2020-11-11T10:24:49Z</time>
      </trkpt>
      <trkpt lat="28.4586220" lon="-16.3687570">
        <ele>859.9</ele>
        <time>2020-11-11T10:24:50Z</time>
      </trkpt>
      <trkpt lat="28.4586000" lon="-16.3687370">
        <ele>859.9</ele>
        <time>2020-11-11T10:24:51Z</time>
      </trkpt>
      <trkpt lat="28.4586000" lon="-16.3687370">
        <ele>860.9</ele>
        <time>2020-11-11T10:24:52Z</time>
      </trkpt>
      <trkpt lat="28.4585630" lon="-16.3687030">
        <ele>860.9</ele>
        <time>2020-11-11T10:24:53Z</time>
      </trkpt>
      <trkpt lat="28.4585630" lon="-16.3687030">
        <ele>860.9</ele>
        <time>2020-11-11T10:24:54Z</time>
      </trkpt>
      <trkpt lat="28.4585220" lon="-16.3686730">
        <ele>860.9</ele>
        <time>2020-11-11T10:24:55Z</time>
      </trkpt>
      <trkpt lat="28.4585020" lon="-16.3686570">
        <ele>861.9</ele>
        <time>2020-11-11T10:24:56Z</time>
      </trkpt>
      <trkpt lat="28.4585020" lon="-16.3686570">
        <ele>861.9</ele>
        <time>2020-11-11T10:24:57Z</time>
      </trkpt>
      <trkpt lat="28.4584630" lon="-16.3686220">
        <ele>861.9</ele>
        <time>2020-11-11T10:24:58Z</time>
      </trkpt>
      <trkpt lat="28.4584630" lon="-16.3686220">
        <ele>861.9</ele>
        <time>2020-11-11T10:24:59Z</time>
      </trkpt>
      <trkpt lat="28.4584250" lon="-16.3685970">
        <ele>861.9</ele>
        <time>2020-11-11T10:25:00Z</time>
      </trkpt>
      <trkpt lat="28.4584050" lon="-16.3685830">
        <ele>861.9</ele>
        <time>2020-11-11T10:25:01Z</time>
      </trkpt>
      <trkpt lat="28.4584050" lon="-16.3685830">
        <ele>861.9</ele>
        <time>2020-11-11T10:25:02Z</time>
      </trkpt>
      <trkpt lat="28.4583670" lon="-16.3685570">
        <ele>863.9</ele>
        <time>2020-11-11T10:25:03Z</time>
      </trkpt>
      <trkpt lat="28.4583670" lon="-16.3685570">
        <ele>863.9</ele>
        <time>2020-11-11T10:25:04Z</time>
      </trkpt>
      <trkpt lat="28.4583300" lon="-16.3685280">
        <ele>863.9</ele>
        <time>2020-11-11T10:25:05Z</time>
      </trkpt>
      <trkpt lat="28.4583300" lon="-16.3685280">
        <ele>863.9</ele>
        <time>2020-11-11T10:25:06Z</time>
      </trkpt>
      <trkpt lat="28.4582980" lon="-16.3684950">
        <ele>863.9</ele>
        <time>2020-11-11T10:25:07Z</time>
      </trkpt>
      <trkpt lat="28.4582980" lon="-16.3684950">
        <ele>863.9</ele>
        <time>2020-11-11T10:25:08Z</time>
      </trkpt>
      <trkpt lat="28.4582650" lon="-16.3684620">
        <ele>863.9</ele>
        <time>2020-11-11T10:25:09Z</time>
      </trkpt>
      <trkpt lat="28.4582650" lon="-16.3684620">
        <ele>863.9</ele>
        <time>2020-11-11T10:25:10Z</time>
      </trkpt>
      <trkpt lat="28.4582330" lon="-16.3684400">
        <ele>865.9</ele>
        <time>2020-11-11T10:25:11Z</time>
      </trkpt>
      <trkpt lat="28.4582150" lon="-16.3684300">
        <ele>865.9</ele>
        <time>2020-11-11T10:25:12Z</time>
      </trkpt>
      <trkpt lat="28.4582150" lon="-16.3684300">
        <ele>865.9</ele>
        <time>2020-11-11T10:25:13Z</time>
      </trkpt>
      <trkpt lat="28.4581820" lon="-16.3684150">
        <ele>865.9</ele>
        <time>2020-11-11T10:25:14Z</time>
      </trkpt>
      <trkpt lat="28.4581820" lon="-16.3684150">
        <ele>866.9</ele>
        <time>2020-11-11T10:25:15Z</time>
      </trkpt>
      <trkpt lat="28.4581570" lon="-16.3683870">
        <ele>866.9</ele>
        <time>2020-11-11T10:25:16Z</time>
      </trkpt>
      <trkpt lat="28.4581570" lon="-16.3683870">
        <ele>866.9</ele>
        <time>2020-11-11T10:25:17Z</time>
      </trkpt>
      <trkpt lat="28.4581230" lon="-16.3683620">
        <ele>866.9</ele>
        <time>2020-11-11T10:25:18Z</time>
      </trkpt>
      <trkpt lat="28.4581230" lon="-16.3683620">
        <ele>867.9</ele>
        <time>2020-11-11T10:25:19Z</time>
      </trkpt>
      <trkpt lat="28.4580770" lon="-16.3683300">
        <ele>867.9</ele>
        <time>2020-11-11T10:25:20Z</time>
      </trkpt>
      <trkpt lat="28.4580770" lon="-16.3683300">
        <ele>867.9</ele>
        <time>2020-11-11T10:25:21Z</time>
      </trkpt>
      <trkpt lat="28.4580320" lon="-16.3682950">
        <ele>867.9</ele>
        <time>2020-11-11T10:25:22Z</time>
      </trkpt>
      <trkpt lat="28.4580320" lon="-16.3682950">
        <ele>868.9</ele>
        <time>2020-11-11T10:25:23Z</time>
      </trkpt>
      <trkpt lat="28.4579970" lon="-16.3682630">
        <ele>868.9</ele>
        <time>2020-11-11T10:25:24Z</time>
      </trkpt>
      <trkpt lat="28.4579970" lon="-16.3682630">
        <ele>868.9</ele>
        <time>2020-11-11T10:25:25Z</time>
      </trkpt>
      <trkpt lat="28.4579570" lon="-16.3682380">
        <ele>868.9</ele>
        <time>2020-11-11T10:25:26Z</time>
      </trkpt>
      <trkpt lat="28.4579370" lon="-16.3682280">
        <ele>869.9</ele>
        <time>2020-11-11T10:25:27Z</time>
      </trkpt>
      <trkpt lat="28.4579170" lon="-16.3682170">
        <ele>869.9</ele>
        <time>2020-11-11T10:25:28Z</time>
      </trkpt>
      <trkpt lat="28.4579170" lon="-16.3682170">
        <ele>869.9</ele>
        <time>2020-11-11T10:25:29Z</time>
      </trkpt>
      <trkpt lat="28.4578820" lon="-16.3681930">
        <ele>869.9</ele>
        <time>2020-11-11T10:25:30Z</time>
      </trkpt>
      <trkpt lat="28.4578820" lon="-16.3681930">
        <ele>869.9</ele>
        <time>2020-11-11T10:25:31Z</time>
      </trkpt>
      <trkpt lat="28.4578380" lon="-16.3681730">
        <ele>869.9</ele>
        <time>2020-11-11T10:25:32Z</time>
      </trkpt>
      <trkpt lat="28.4578380" lon="-16.3681730">
        <ele>869.9</ele>
        <time>2020-11-11T10:25:33Z</time>
      </trkpt>
      <trkpt lat="28.4577930" lon="-16.3681500">
        <ele>870.9</ele>
        <time>2020-11-11T10:25:34Z</time>
      </trkpt>
      <trkpt lat="28.4577930" lon="-16.3681500">
        <ele>870.9</ele>
        <time>2020-11-11T10:25:35Z</time>
      </trkpt>
      <trkpt lat="28.4577620" lon="-16.3681220">
        <ele>870.9</ele>
        <time>2020-11-11T10:25:36Z</time>
      </trkpt>
      <trkpt lat="28.4577620" lon="-16.3681220">
        <ele>870.9</ele>
        <time>2020-11-11T10:25:37Z</time>
      </trkpt>
      <trkpt lat="28.4577230" lon="-16.3680970">
        <ele>871.9</ele>
        <time>2020-11-11T10:25:38Z</time>
      </trkpt>
      <trkpt lat="28.4577230" lon="-16.3680970">
        <ele>871.9</ele>
        <time>2020-11-11T10:25:39Z</time>
      </trkpt>
      <trkpt lat="28.4576820" lon="-16.3680750">
        <ele>871.9</ele>
        <time>2020-11-11T10:25:40Z</time>
      </trkpt>
      <trkpt lat="28.4576620" lon="-16.3680630">
        <ele>872.9</ele>
        <time>2020-11-11T10:25:41Z</time>
      </trkpt>
      <trkpt lat="28.4576620" lon="-16.3680630">
        <ele>872.9</ele>
        <time>2020-11-11T10:25:42Z</time>
      </trkpt>
      <trkpt lat="28.4576270" lon="-16.3680450">
        <ele>872.9</ele>
        <time>2020-11-11T10:25:43Z</time>
      </trkpt>
      <trkpt lat="28.4576070" lon="-16.3680330">
        <ele>872.9</ele>
        <time>2020-11-11T10:25:44Z</time>
      </trkpt>
      <trkpt lat="28.4576070" lon="-16.3680330">
        <ele>872.9</ele>
        <time>2020-11-11T10:25:45Z</time>
      </trkpt>
      <trkpt lat="28.4575630" lon="-16.3680030">
        <ele>872.9</ele>
        <time>2020-11-11T10:25:46Z</time>
      </trkpt>
      <trkpt lat="28.4575480" lon="-16.3679850">
        <ele>873.9</ele>
        <time>2020-11-11T10:25:47Z</time>
      </trkpt>
      <trkpt lat="28.4575480" lon="-16.3679850">
        <ele>873.9</ele>
        <time>2020-11-11T10:25:48Z</time>
      </trkpt>
      <trkpt lat="28.4575050" lon="-16.3679670">
        <ele>873.9</ele>
        <time>2020-11-11T10:25:49Z</time>
      </trkpt>
      <trkpt lat="28.4575050" lon="-16.3679670">
        <ele>873.9</ele>
        <time>2020-11-11T10:25:50Z</time>
      </trkpt>
      <trkpt lat="28.4574630" lon="-16.3679470">
        <ele>874.9</ele>
        <time>2020-11-11T10:25:51Z</time>
      </trkpt>
      <trkpt lat="28.4574630" lon="-16.3679470">
        <ele>874.9</ele>
        <time>2020-11-11T10:25:52Z</time>
      </trkpt>
      <trkpt lat="28.4574230" lon="-16.3679130">
        <ele>874.9</ele>
        <time>2020-11-11T10:25:53Z</time>
      </trkpt>
      <trkpt lat="28.4574230" lon="-16.3679130">
        <ele>874.9</ele>
        <time>2020-11-11T10:25:54Z</time>
      </trkpt>
      <trkpt lat="28.4573770" lon="-16.3678780">
        <ele>874.9</ele>
        <time>2020-11-11T10:25:55Z</time>
      </trkpt>
      <trkpt lat="28.4573500" lon="-16.3678620">
        <ele>874.9</ele>
        <time>2020-11-11T10:25:56Z</time>
      </trkpt>
      <trkpt lat="28.4573500" lon="-16.3678620">
        <ele>874.9</ele>
        <time>2020-11-11T10:25:57Z</time>
      </trkpt>
      <trkpt lat="28.4572930" lon="-16.3678250">
        <ele>874.9</ele>
        <time>2020-11-11T10:25:58Z</time>
      </trkpt>
      <trkpt lat="28.4572930" lon="-16.3678250">
        <ele>874.9</ele>
        <time>2020-11-11T10:25:59Z</time>
      </trkpt>
      <trkpt lat="28.4572350" lon="-16.3677850">
        <ele>874.9</ele>
        <time>2020-11-11T10:26:00Z</time>
      </trkpt>
      <trkpt lat="28.4572350" lon="-16.3677850">
        <ele>874.9</ele>
        <time>2020-11-11T10:26:01Z</time>
      </trkpt>
      <trkpt lat="28.4571800" lon="-16.3677480">
        <ele>874.9</ele>
        <time>2020-11-11T10:26:02Z</time>
      </trkpt>
      <trkpt lat="28.4571800" lon="-16.3677480">
        <ele>874.9</ele>
        <time>2020-11-11T10:26:03Z</time>
      </trkpt>
      <trkpt lat="28.4571300" lon="-16.3677020">
        <ele>874.9</ele>
        <time>2020-11-11T10:26:04Z</time>
      </trkpt>
      <trkpt lat="28.4571300" lon="-16.3677020">
        <ele>874.9</ele>
        <time>2020-11-11T10:26:05Z</time>
      </trkpt>
      <trkpt lat="28.4570650" lon="-16.3676500">
        <ele>874.9</ele>
        <time>2020-11-11T10:26:06Z</time>
      </trkpt>
      <trkpt lat="28.4570280" lon="-16.3676250">
        <ele>874.9</ele>
        <time>2020-11-11T10:26:07Z</time>
      </trkpt>
      <trkpt lat="28.4570280" lon="-16.3676250">
        <ele>874.9</ele>
        <time>2020-11-11T10:26:08Z</time>
      </trkpt>
      <trkpt lat="28.4569500" lon="-16.3675750">
        <ele>874.9</ele>
        <time>2020-11-11T10:26:09Z</time>
      </trkpt>
      <trkpt lat="28.4569100" lon="-16.3675520">
        <ele>874.9</ele>
        <time>2020-11-11T10:26:10Z</time>
      </trkpt>
      <trkpt lat="28.4569100" lon="-16.3675520">
        <ele>874.9</ele>
        <time>2020-11-11T10:26:11Z</time>
      </trkpt>
      <trkpt lat="28.4568350" lon="-16.3675000">
        <ele>874.9</ele>
        <time>2020-11-11T10:26:12Z</time>
      </trkpt>
      <trkpt lat="28.4568350" lon="-16.3675000">
        <ele>874.9</ele>
        <time>2020-11-11T10:26:13Z</time>
      </trkpt>
      <trkpt lat="28.4567630" lon="-16.3674470">
        <ele>874.9</ele>
        <time>2020-11-11T10:26:14Z</time>
      </trkpt>
      <trkpt lat="28.4567630" lon="-16.3674470">
        <ele>874.9</ele>
        <time>2020-11-11T10:26:15Z</time>
      </trkpt>
      <trkpt lat="28.4566780" lon="-16.3673930">
        <ele>874.9</ele>
        <time>2020-11-11T10:26:16Z</time>
      </trkpt>
      <trkpt lat="28.4566310" lon="-16.3673690">
        <ele>874.9</ele>
        <time>2020-11-11T10:26:17Z</time>
      </trkpt>
      <trkpt lat="28.4565830" lon="-16.3673450">
        <ele>874.9</ele>
        <time>2020-11-11T10:26:18Z</time>
      </trkpt>
      <trkpt lat="28.4565830" lon="-16.3673450">
        <ele>874.9</ele>
        <time>2020-11-11T10:26:19Z</time>
      </trkpt>
      <trkpt lat="28.4564830" lon="-16.3673050">
        <ele>874.9</ele>
        <time>2020-11-11T10:26:20Z</time>
      </trkpt>
      <trkpt lat="28.4564320" lon="-16.3672870">
        <ele>874.9</ele>
        <time>2020-11-11T10:26:21Z</time>
      </trkpt>
      <trkpt lat="28.4564320" lon="-16.3672870">
        <ele>874.9</ele>
        <time>2020-11-11T10:26:22Z</time>
      </trkpt>
      <trkpt lat="28.4563400" lon="-16.3672570">
        <ele>874.9</ele>
        <time>2020-11-11T10:26:23Z</time>
      </trkpt>
      <trkpt lat="28.4563400" lon="-16.3672570">
        <ele>874.9</ele>
        <time>2020-11-11T10:26:24Z</time>
      </trkpt>
      <trkpt lat="28.4562520" lon="-16.3672150">
        <ele>874.9</ele>
        <time>2020-11-11T10:26:25Z</time>
      </trkpt>
      <trkpt lat="28.4562080" lon="-16.3671950">
        <ele>874.9</ele>
        <time>2020-11-11T10:26:26Z</time>
      </trkpt>
      <trkpt lat="28.4562080" lon="-16.3671950">
        <ele>874.9</ele>
        <time>2020-11-11T10:26:27Z</time>
      </trkpt>
      <trkpt lat="28.4561200" lon="-16.3671570">
        <ele>874.9</ele>
        <time>2020-11-11T10:26:28Z</time>
      </trkpt>
      <trkpt lat="28.4561200" lon="-16.3671570">
        <ele>874.9</ele>
        <time>2020-11-11T10:26:29Z</time>
      </trkpt>
      <trkpt lat="28.4560330" lon="-16.3671220">
        <ele>874.9</ele>
        <time>2020-11-11T10:26:30Z</time>
      </trkpt>
      <trkpt lat="28.4560330" lon="-16.3671220">
        <ele>874.9</ele>
        <time>2020-11-11T10:26:31Z</time>
      </trkpt>
      <trkpt lat="28.4559470" lon="-16.3670850">
        <ele>874.9</ele>
        <time>2020-11-11T10:26:32Z</time>
      </trkpt>
      <trkpt lat="28.4559040" lon="-16.3670660">
        <ele>874.9</ele>
        <time>2020-11-11T10:26:33Z</time>
      </trkpt>
      <trkpt lat="28.4558600" lon="-16.3670470">
        <ele>874.9</ele>
        <time>2020-11-11T10:26:34Z</time>
      </trkpt>
      <trkpt lat="28.4558600" lon="-16.3670470">
        <ele>874.9</ele>
        <time>2020-11-11T10:26:35Z</time>
      </trkpt>
      <trkpt lat="28.4557850" lon="-16.3670130">
        <ele>874.9</ele>
        <time>2020-11-11T10:26:36Z</time>
      </trkpt>
      <trkpt lat="28.4557500" lon="-16.3669950">
        <ele>874.9</ele>
        <time>2020-11-11T10:26:37Z</time>
      </trkpt>
      <trkpt lat="28.4557500" lon="-16.3669950">
        <ele>876.9</ele>
        <time>2020-11-11T10:26:38Z</time>
      </trkpt>
      <trkpt lat="28.4556800" lon="-16.3669550">
        <ele>876.9</ele>
        <time>2020-11-11T10:26:39Z</time>
      </trkpt>
      <trkpt lat="28.4556800" lon="-16.3669550">
        <ele>876.9</ele>
        <time>2020-11-11T10:26:40Z</time>
      </trkpt>
      <trkpt lat="28.4556070" lon="-16.3669220">
        <ele>876.9</ele>
        <time>2020-11-11T10:26:41Z</time>
      </trkpt>
      <trkpt lat="28.4555700" lon="-16.3669080">
        <ele>876.9</ele>
        <time>2020-11-11T10:26:42Z</time>
      </trkpt>
      <trkpt lat="28.4555700" lon="-16.3669080">
        <ele>876.9</ele>
        <time>2020-11-11T10:26:43Z</time>
      </trkpt>
      <trkpt lat="28.4554880" lon="-16.3668870">
        <ele>876.9</ele>
        <time>2020-11-11T10:26:44Z</time>
      </trkpt>
      <trkpt lat="28.4554880" lon="-16.3668870">
        <ele>876.9</ele>
        <time>2020-11-11T10:26:45Z</time>
      </trkpt>
      <trkpt lat="28.4554020" lon="-16.3668750">
        <ele>876.9</ele>
        <time>2020-11-11T10:26:46Z</time>
      </trkpt>
      <trkpt lat="28.4553580" lon="-16.3668700">
        <ele>876.9</ele>
        <time>2020-11-11T10:26:47Z</time>
      </trkpt>
      <trkpt lat="28.4553580" lon="-16.3668700">
        <ele>876.9</ele>
        <time>2020-11-11T10:26:48Z</time>
      </trkpt>
      <trkpt lat="28.4552680" lon="-16.3668650">
        <ele>876.9</ele>
        <time>2020-11-11T10:26:49Z</time>
      </trkpt>
      <trkpt lat="28.4552220" lon="-16.3668650">
        <ele>876.9</ele>
        <time>2020-11-11T10:26:50Z</time>
      </trkpt>
      <trkpt lat="28.4552220" lon="-16.3668650">
        <ele>876.9</ele>
        <time>2020-11-11T10:26:51Z</time>
      </trkpt>
      <trkpt lat="28.4551250" lon="-16.3668720">
        <ele>876.9</ele>
        <time>2020-11-11T10:26:52Z</time>
      </trkpt>
      <trkpt lat="28.4550830" lon="-16.3668770">
        <ele>876.9</ele>
        <time>2020-11-11T10:26:53Z</time>
      </trkpt>
      <trkpt lat="28.4550830" lon="-16.3668770">
        <ele>876.9</ele>
        <time>2020-11-11T10:26:54Z</time>
      </trkpt>
      <trkpt lat="28.4550270" lon="-16.3668950">
        <ele>876.9</ele>
        <time>2020-11-11T10:26:55Z</time>
      </trkpt>
      <trkpt lat="28.4550120" lon="-16.3668900">
        <ele>876.9</ele>
        <time>2020-11-11T10:26:56Z</time>
      </trkpt>
      <trkpt lat="28.4550120" lon="-16.3668900">
        <ele>876.9</ele>
        <time>2020-11-11T10:26:57Z</time>
      </trkpt>
      <trkpt lat="28.4550280" lon="-16.3668650">
        <ele>876.9</ele>
        <time>2020-11-11T10:26:58Z</time>
      </trkpt>
      <trkpt lat="28.4550280" lon="-16.3668650">
        <ele>876.9</ele>
        <time>2020-11-11T10:26:59Z</time>
      </trkpt>
      <trkpt lat="28.4550700" lon="-16.3668580">
        <ele>876.9</ele>
        <time>2020-11-11T10:27:00Z</time>
      </trkpt>
      <trkpt lat="28.4550700" lon="-16.3668580">
        <ele>876.9</ele>
        <time>2020-11-11T10:27:01Z</time>
      </trkpt>
      <trkpt lat="28.4551180" lon="-16.3668520">
        <ele>876.9</ele>
        <time>2020-11-11T10:27:02Z</time>
      </trkpt>
      <trkpt lat="28.4551180" lon="-16.3668520">
        <ele>876.9</ele>
        <time>2020-11-11T10:27:03Z</time>
      </trkpt>
      <trkpt lat="28.4551800" lon="-16.3668380">
        <ele>876.9</ele>
        <time>2020-11-11T10:27:04Z</time>
      </trkpt>
      <trkpt lat="28.4551800" lon="-16.3668380">
        <ele>876.9</ele>
        <time>2020-11-11T10:27:05Z</time>
      </trkpt>
      <trkpt lat="28.4552520" lon="-16.3668400">
        <ele>876.9</ele>
        <time>2020-11-11T10:27:06Z</time>
      </trkpt>
      <trkpt lat="28.4552520" lon="-16.3668400">
        <ele>876.9</ele>
        <time>2020-11-11T10:27:07Z</time>
      </trkpt>
      <trkpt lat="28.4553300" lon="-16.3668570">
        <ele>876.9</ele>
        <time>2020-11-11T10:27:08Z</time>
      </trkpt>
      <trkpt lat="28.4553670" lon="-16.3668580">
        <ele>876.9</ele>
        <time>2020-11-11T10:27:09Z</time>
      </trkpt>
      <trkpt lat="28.4553670" lon="-16.3668580">
        <ele>876.9</ele>
        <time>2020-11-11T10:27:10Z</time>
      </trkpt>
      <trkpt lat="28.4554450" lon="-16.3668730">
        <ele>876.9</ele>
        <time>2020-11-11T10:27:11Z</time>
      </trkpt>
      <trkpt lat="28.4554450" lon="-16.3668730">
        <ele>876.9</ele>
        <time>2020-11-11T10:27:12Z</time>
      </trkpt>
      <trkpt lat="28.4555270" lon="-16.3668880">
        <ele>876.9</ele>
        <time>2020-11-11T10:27:13Z</time>
      </trkpt>
      <trkpt lat="28.4555270" lon="-16.3668880">
        <ele>876.9</ele>
        <time>2020-11-11T10:27:14Z</time>
      </trkpt>
      <trkpt lat="28.4556070" lon="-16.3668870">
        <ele>876.9</ele>
        <time>2020-11-11T10:27:15Z</time>
      </trkpt>
      <trkpt lat="28.4556430" lon="-16.3668770">
        <ele>876.9</ele>
        <time>2020-11-11T10:27:16Z</time>
      </trkpt>
      <trkpt lat="28.4556430" lon="-16.3668770">
        <ele>876.9</ele>
        <time>2020-11-11T10:27:17Z</time>
      </trkpt>
      <trkpt lat="28.4557180" lon="-16.3668300">
        <ele>876.9</ele>
        <time>2020-11-11T10:27:18Z</time>
      </trkpt>
      <trkpt lat="28.4557180" lon="-16.3668300">
        <ele>876.9</ele>
        <time>2020-11-11T10:27:19Z</time>
      </trkpt>
      <trkpt lat="28.4557770" lon="-16.3667580">
        <ele>876.9</ele>
        <time>2020-11-11T10:27:20Z</time>
      </trkpt>
      <trkpt lat="28.4557770" lon="-16.3667580">
        <ele>876.9</ele>
        <time>2020-11-11T10:27:21Z</time>
      </trkpt>
      <trkpt lat="28.4558130" lon="-16.3667070">
        <ele>876.9</ele>
        <time>2020-11-11T10:27:22Z</time>
      </trkpt>
      <trkpt lat="28.4558370" lon="-16.3667070">
        <ele>876.9</ele>
        <time>2020-11-11T10:27:23Z</time>
      </trkpt>
      <trkpt lat="28.4558370" lon="-16.3667070">
        <ele>876.9</ele>
        <time>2020-11-11T10:27:24Z</time>
      </trkpt>
      <trkpt lat="28.4558430" lon="-16.3667370">
        <ele>876.9</ele>
        <time>2020-11-11T10:27:25Z</time>
      </trkpt>
      <trkpt lat="28.4558280" lon="-16.3667480">
        <ele>876.9</ele>
        <time>2020-11-11T10:27:26Z</time>
      </trkpt>
      <trkpt lat="28.4558280" lon="-16.3667480">
        <ele>876.9</ele>
        <time>2020-11-11T10:27:27Z</time>
      </trkpt>
      <trkpt lat="28.4557950" lon="-16.3667880">
        <ele>876.9</ele>
        <time>2020-11-11T10:27:28Z</time>
      </trkpt>
      <trkpt lat="28.4557950" lon="-16.3667880">
        <ele>876.9</ele>
        <time>2020-11-11T10:27:29Z</time>
      </trkpt>
      <trkpt lat="28.4557570" lon="-16.3668300">
        <ele>876.9</ele>
        <time>2020-11-11T10:27:30Z</time>
      </trkpt>
      <trkpt lat="28.4557570" lon="-16.3668300">
        <ele>876.9</ele>
        <time>2020-11-11T10:27:31Z</time>
      </trkpt>
      <trkpt lat="28.4557120" lon="-16.3668620">
        <ele>876.9</ele>
        <time>2020-11-11T10:27:32Z</time>
      </trkpt>
      <trkpt lat="28.4556830" lon="-16.3668670">
        <ele>876.9</ele>
        <time>2020-11-11T10:27:33Z</time>
      </trkpt>
      <trkpt lat="28.4556830" lon="-16.3668670">
        <ele>876.9</ele>
        <time>2020-11-11T10:27:34Z</time>
      </trkpt>
      <trkpt lat="28.4556130" lon="-16.3668680">
        <ele>876.9</ele>
        <time>2020-11-11T10:27:35Z</time>
      </trkpt>
      <trkpt lat="28.4556130" lon="-16.3668680">
        <ele>876.9</ele>
        <time>2020-11-11T10:27:36Z</time>
      </trkpt>
      <trkpt lat="28.4555320" lon="-16.3668720">
        <ele>876.9</ele>
        <time>2020-11-11T10:27:37Z</time>
      </trkpt>
      <trkpt lat="28.4554900" lon="-16.3668730">
        <ele>876.9</ele>
        <time>2020-11-11T10:27:38Z</time>
      </trkpt>
      <trkpt lat="28.4554900" lon="-16.3668730">
        <ele>876.9</ele>
        <time>2020-11-11T10:27:39Z</time>
      </trkpt>
      <trkpt lat="28.4553980" lon="-16.3668700">
        <ele>876.9</ele>
        <time>2020-11-11T10:27:40Z</time>
      </trkpt>
      <trkpt lat="28.4553570" lon="-16.3668680">
        <ele>876.9</ele>
        <time>2020-11-11T10:27:41Z</time>
      </trkpt>
      <trkpt lat="28.4553570" lon="-16.3668680">
        <ele>876.9</ele>
        <time>2020-11-11T10:27:42Z</time>
      </trkpt>
      <trkpt lat="28.4552670" lon="-16.3668720">
        <ele>876.9</ele>
        <time>2020-11-11T10:27:43Z</time>
      </trkpt>
      <trkpt lat="28.4552670" lon="-16.3668720">
        <ele>876.9</ele>
        <time>2020-11-11T10:27:44Z</time>
      </trkpt>
      <trkpt lat="28.4551730" lon="-16.3668750">
        <ele>876.9</ele>
        <time>2020-11-11T10:27:45Z</time>
      </trkpt>
      <trkpt lat="28.4551250" lon="-16.3668770">
        <ele>876.9</ele>
        <time>2020-11-11T10:27:46Z</time>
      </trkpt>
      <trkpt lat="28.4551250" lon="-16.3668770">
        <ele>876.9</ele>
        <time>2020-11-11T10:27:47Z</time>
      </trkpt>
      <trkpt lat="28.4550320" lon="-16.3668900">
        <ele>876.9</ele>
        <time>2020-11-11T10:27:48Z</time>
      </trkpt>
      <trkpt lat="28.4550320" lon="-16.3668900">
        <ele>876.9</ele>
        <time>2020-11-11T10:27:49Z</time>
      </trkpt>
      <trkpt lat="28.4549430" lon="-16.3669000">
        <ele>876.9</ele>
        <time>2020-11-11T10:27:50Z</time>
      </trkpt>
      <trkpt lat="28.4549430" lon="-16.3669000">
        <ele>876.9</ele>
        <time>2020-11-11T10:27:51Z</time>
      </trkpt>
      <trkpt lat="28.4548770" lon="-16.3668750">
        <ele>876.9</ele>
        <time>2020-11-11T10:27:52Z</time>
      </trkpt>
      <trkpt lat="28.4548420" lon="-16.3668250">
        <ele>875.9</ele>
        <time>2020-11-11T10:27:53Z</time>
      </trkpt>
      <trkpt lat="28.4548420" lon="-16.3668250">
        <ele>875.9</ele>
        <time>2020-11-11T10:27:54Z</time>
      </trkpt>
      <trkpt lat="28.4547700" lon="-16.3666870">
        <ele>874.9</ele>
        <time>2020-11-11T10:27:55Z</time>
      </trkpt>
      <trkpt lat="28.4547320" lon="-16.3666050">
        <ele>874.9</ele>
        <time>2020-11-11T10:27:56Z</time>
      </trkpt>
      <trkpt lat="28.4546930" lon="-16.3665170">
        <ele>872.9</ele>
        <time>2020-11-11T10:27:57Z</time>
      </trkpt>
      <trkpt lat="28.4546930" lon="-16.3665170">
        <ele>872.9</ele>
        <time>2020-11-11T10:27:58Z</time>
      </trkpt>
      <trkpt lat="28.4546130" lon="-16.3663180">
        <ele>870.9</ele>
        <time>2020-11-11T10:27:59Z</time>
      </trkpt>
      <trkpt lat="28.4546130" lon="-16.3663180">
        <ele>870.9</ele>
        <time>2020-11-11T10:28:00Z</time>
      </trkpt>
      <trkpt lat="28.4545220" lon="-16.3660800">
        <ele>867.9</ele>
        <time>2020-11-11T10:28:01Z</time>
      </trkpt>
      <trkpt lat="28.4544500" lon="-16.3659670">
        <ele>867.9</ele>
        <time>2020-11-11T10:28:02Z</time>
      </trkpt>
      <trkpt lat="28.4544500" lon="-16.3659670">
        <ele>865.9</ele>
        <time>2020-11-11T10:28:03Z</time>
      </trkpt>
      <trkpt lat="28.4542770" lon="-16.3657820">
        <ele>865.9</ele>
        <time>2020-11-11T10:28:04Z</time>
      </trkpt>
      <trkpt lat="28.4542770" lon="-16.3657820">
        <ele>863.9</ele>
        <time>2020-11-11T10:28:05Z</time>
      </trkpt>
      <trkpt lat="28.4540930" lon="-16.3656220">
        <ele>863.9</ele>
        <time>2020-11-11T10:28:06Z</time>
      </trkpt>
      <trkpt lat="28.4540930" lon="-16.3656220">
        <ele>861.9</ele>
        <time>2020-11-11T10:28:07Z</time>
      </trkpt>
      <trkpt lat="28.4539230" lon="-16.3655070">
        <ele>861.9</ele>
        <time>2020-11-11T10:28:08Z</time>
      </trkpt>
      <trkpt lat="28.4539230" lon="-16.3655070">
        <ele>860.9</ele>
        <time>2020-11-11T10:28:09Z</time>
      </trkpt>
      <trkpt lat="28.4537650" lon="-16.3654230">
        <ele>858.9</ele>
        <time>2020-11-11T10:28:10Z</time>
      </trkpt>
      <trkpt lat="28.4536980" lon="-16.3653900">
        <ele>858.9</ele>
        <time>2020-11-11T10:28:11Z</time>
      </trkpt>
      <trkpt lat="28.4536330" lon="-16.3653620">
        <ele>857.9</ele>
        <time>2020-11-11T10:28:12Z</time>
      </trkpt>
      <trkpt lat="28.4536330" lon="-16.3653620">
        <ele>857.9</ele>
        <time>2020-11-11T10:28:13Z</time>
      </trkpt>
      <trkpt lat="28.4535200" lon="-16.3653180">
        <ele>856.9</ele>
        <time>2020-11-11T10:28:14Z</time>
      </trkpt>
      <trkpt lat="28.4535200" lon="-16.3653180">
        <ele>856.9</ele>
        <time>2020-11-11T10:28:15Z</time>
      </trkpt>
      <trkpt lat="28.4534570" lon="-16.3653180">
        <ele>855.9</ele>
        <time>2020-11-11T10:28:16Z</time>
      </trkpt>
      <trkpt lat="28.4534270" lon="-16.3653420">
        <ele>855.9</ele>
        <time>2020-11-11T10:28:17Z</time>
      </trkpt>
      <trkpt lat="28.4534270" lon="-16.3653420">
        <ele>855.9</ele>
        <time>2020-11-11T10:28:18Z</time>
      </trkpt>
      <trkpt lat="28.4533720" lon="-16.3654120">
        <ele>855.9</ele>
        <time>2020-11-11T10:28:19Z</time>
      </trkpt>
      <trkpt lat="28.4533720" lon="-16.3654120">
        <ele>855.9</ele>
        <time>2020-11-11T10:28:20Z</time>
      </trkpt>
      <trkpt lat="28.4533130" lon="-16.3654850">
        <ele>855.9</ele>
        <time>2020-11-11T10:28:21Z</time>
      </trkpt>
      <trkpt lat="28.4533130" lon="-16.3654850">
        <ele>855.9</ele>
        <time>2020-11-11T10:28:22Z</time>
      </trkpt>
      <trkpt lat="28.4532580" lon="-16.3655530">
        <ele>855.9</ele>
        <time>2020-11-11T10:28:23Z</time>
      </trkpt>
      <trkpt lat="28.4532580" lon="-16.3655530">
        <ele>855.9</ele>
        <time>2020-11-11T10:28:24Z</time>
      </trkpt>
      <trkpt lat="28.4532100" lon="-16.3656150">
        <ele>855.9</ele>
        <time>2020-11-11T10:28:25Z</time>
      </trkpt>
      <trkpt lat="28.4532100" lon="-16.3656150">
        <ele>855.9</ele>
        <time>2020-11-11T10:28:26Z</time>
      </trkpt>
      <trkpt lat="28.4531670" lon="-16.3656770">
        <ele>855.9</ele>
        <time>2020-11-11T10:28:27Z</time>
      </trkpt>
      <trkpt lat="28.4531670" lon="-16.3656770">
        <ele>855.9</ele>
        <time>2020-11-11T10:28:28Z</time>
      </trkpt>
      <trkpt lat="28.4531170" lon="-16.3657380">
        <ele>855.9</ele>
        <time>2020-11-11T10:28:29Z</time>
      </trkpt>
      <trkpt lat="28.4530870" lon="-16.3657630">
        <ele>856.9</ele>
        <time>2020-11-11T10:28:30Z</time>
      </trkpt>
      <trkpt lat="28.4530870" lon="-16.3657630">
        <ele>856.9</ele>
        <time>2020-11-11T10:28:31Z</time>
      </trkpt>
      <trkpt lat="28.4530320" lon="-16.3658070">
        <ele>856.9</ele>
        <time>2020-11-11T10:28:32Z</time>
      </trkpt>
      <trkpt lat="28.4530100" lon="-16.3658330">
        <ele>856.9</ele>
        <time>2020-11-11T10:28:33Z</time>
      </trkpt>
      <trkpt lat="28.4530100" lon="-16.3658330">
        <ele>857.9</ele>
        <time>2020-11-11T10:28:34Z</time>
      </trkpt>
      <trkpt lat="28.4529680" lon="-16.3658770">
        <ele>857.9</ele>
        <time>2020-11-11T10:28:35Z</time>
      </trkpt>
      <trkpt lat="28.4529450" lon="-16.3659070">
        <ele>857.9</ele>
        <time>2020-11-11T10:28:36Z</time>
      </trkpt>
      <trkpt lat="28.4529450" lon="-16.3659070">
        <ele>857.9</ele>
        <time>2020-11-11T10:28:37Z</time>
      </trkpt>
      <trkpt lat="28.4528900" lon="-16.3659570">
        <ele>858.9</ele>
        <time>2020-11-11T10:28:38Z</time>
      </trkpt>
      <trkpt lat="28.4528620" lon="-16.3659770">
        <ele>858.9</ele>
        <time>2020-11-11T10:28:39Z</time>
      </trkpt>
      <trkpt lat="28.4528330" lon="-16.3659970">
        <ele>858.9</ele>
        <time>2020-11-11T10:28:40Z</time>
      </trkpt>
      <trkpt lat="28.4528330" lon="-16.3659970">
        <ele>858.9</ele>
        <time>2020-11-11T10:28:41Z</time>
      </trkpt>
      <trkpt lat="28.4527920" lon="-16.3660430">
        <ele>859.9</ele>
        <time>2020-11-11T10:28:42Z</time>
      </trkpt>
      <trkpt lat="28.4527920" lon="-16.3660430">
        <ele>859.9</ele>
        <time>2020-11-11T10:28:43Z</time>
      </trkpt>
      <trkpt lat="28.4527530" lon="-16.3660970">
        <ele>859.9</ele>
        <time>2020-11-11T10:28:44Z</time>
      </trkpt>
      <trkpt lat="28.4527530" lon="-16.3660970">
        <ele>859.9</ele>
        <time>2020-11-11T10:28:45Z</time>
      </trkpt>
      <trkpt lat="28.4527030" lon="-16.3661380">
        <ele>859.9</ele>
        <time>2020-11-11T10:28:46Z</time>
      </trkpt>
      <trkpt lat="28.4527030" lon="-16.3661380">
        <ele>859.9</ele>
        <time>2020-11-11T10:28:47Z</time>
      </trkpt>
      <trkpt lat="28.4526630" lon="-16.3661880">
        <ele>859.9</ele>
        <time>2020-11-11T10:28:48Z</time>
      </trkpt>
      <trkpt lat="28.4526630" lon="-16.3661880">
        <ele>860.9</ele>
        <time>2020-11-11T10:28:49Z</time>
      </trkpt>
      <trkpt lat="28.4526250" lon="-16.3662520">
        <ele>860.9</ele>
        <time>2020-11-11T10:28:50Z</time>
      </trkpt>
      <trkpt lat="28.4526250" lon="-16.3662520">
        <ele>860.9</ele>
        <time>2020-11-11T10:28:51Z</time>
      </trkpt>
      <trkpt lat="28.4525630" lon="-16.3662930">
        <ele>860.9</ele>
        <time>2020-11-11T10:28:52Z</time>
      </trkpt>
      <trkpt lat="28.4525630" lon="-16.3662930">
        <ele>860.9</ele>
        <time>2020-11-11T10:28:53Z</time>
      </trkpt>
      <trkpt lat="28.4524980" lon="-16.3663230">
        <ele>860.9</ele>
        <time>2020-11-11T10:28:54Z</time>
      </trkpt>
      <trkpt lat="28.4524980" lon="-16.3663230">
        <ele>861.9</ele>
        <time>2020-11-11T10:28:55Z</time>
      </trkpt>
      <trkpt lat="28.4524480" lon="-16.3663550">
        <ele>861.9</ele>
        <time>2020-11-11T10:28:56Z</time>
      </trkpt>
      <trkpt lat="28.4524480" lon="-16.3663550">
        <ele>861.9</ele>
        <time>2020-11-11T10:28:57Z</time>
      </trkpt>
      <trkpt lat="28.4524000" lon="-16.3663950">
        <ele>861.9</ele>
        <time>2020-11-11T10:28:58Z</time>
      </trkpt>
      <trkpt lat="28.4523720" lon="-16.3664150">
        <ele>861.9</ele>
        <time>2020-11-11T10:28:59Z</time>
      </trkpt>
      <trkpt lat="28.4523720" lon="-16.3664150">
        <ele>861.9</ele>
        <time>2020-11-11T10:29:00Z</time>
      </trkpt>
      <trkpt lat="28.4523200" lon="-16.3664530">
        <ele>861.9</ele>
        <time>2020-11-11T10:29:01Z</time>
      </trkpt>
      <trkpt lat="28.4522980" lon="-16.3664680">
        <ele>861.9</ele>
        <time>2020-11-11T10:29:02Z</time>
      </trkpt>
      <trkpt lat="28.4522980" lon="-16.3664680">
        <ele>862.9</ele>
        <time>2020-11-11T10:29:03Z</time>
      </trkpt>
      <trkpt lat="28.4522520" lon="-16.3664950">
        <ele>862.9</ele>
        <time>2020-11-11T10:29:04Z</time>
      </trkpt>
      <trkpt lat="28.4522520" lon="-16.3664950">
        <ele>862.9</ele>
        <time>2020-11-11T10:29:05Z</time>
      </trkpt>
      <trkpt lat="28.4522070" lon="-16.3665230">
        <ele>862.9</ele>
        <time>2020-11-11T10:29:06Z</time>
      </trkpt>
      <trkpt lat="28.4521730" lon="-16.3665280">
        <ele>863.9</ele>
        <time>2020-11-11T10:29:07Z</time>
      </trkpt>
      <trkpt lat="28.4521430" lon="-16.3665380">
        <ele>863.9</ele>
        <time>2020-11-11T10:29:08Z</time>
      </trkpt>
      <trkpt lat="28.4521430" lon="-16.3665380">
        <ele>863.9</ele>
        <time>2020-11-11T10:29:09Z</time>
      </trkpt>
      <trkpt lat="28.4520850" lon="-16.3665620">
        <ele>863.9</ele>
        <time>2020-11-11T10:29:10Z</time>
      </trkpt>
      <trkpt lat="28.4520550" lon="-16.3665680">
        <ele>865.9</ele>
        <time>2020-11-11T10:29:11Z</time>
      </trkpt>
      <trkpt lat="28.4520550" lon="-16.3665680">
        <ele>865.9</ele>
        <time>2020-11-11T10:29:12Z</time>
      </trkpt>
      <trkpt lat="28.4520130" lon="-16.3665930">
        <ele>865.9</ele>
        <time>2020-11-11T10:29:13Z</time>
      </trkpt>
      <trkpt lat="28.4519880" lon="-16.3666050">
        <ele>865.9</ele>
        <time>2020-11-11T10:29:14Z</time>
      </trkpt>
      <trkpt lat="28.4519880" lon="-16.3666050">
        <ele>866.9</ele>
        <time>2020-11-11T10:29:15Z</time>
      </trkpt>
      <trkpt lat="28.4519500" lon="-16.3666280">
        <ele>866.9</ele>
        <time>2020-11-11T10:29:16Z</time>
      </trkpt>
      <trkpt lat="28.4519480" lon="-16.3666420">
        <ele>866.9</ele>
        <time>2020-11-11T10:29:17Z</time>
      </trkpt>
      <trkpt lat="28.4519330" lon="-16.3666470">
        <ele>866.9</ele>
        <time>2020-11-11T10:29:18Z</time>
      </trkpt>
      <trkpt lat="28.4519330" lon="-16.3666470">
        <ele>866.9</ele>
        <time>2020-11-11T10:29:19Z</time>
      </trkpt>
      <trkpt lat="28.4519030" lon="-16.3666570">
        <ele>866.9</ele>
        <time>2020-11-11T10:29:20Z</time>
      </trkpt>
      <trkpt lat="28.4518980" lon="-16.3666580">
        <ele>866.9</ele>
        <time>2020-11-11T10:29:21Z</time>
      </trkpt>
      <trkpt lat="28.4518980" lon="-16.3666580">
        <ele>866.9</ele>
        <time>2020-11-11T10:29:31Z</time>
      </trkpt>
      <trkpt lat="28.4519730" lon="-16.3665600">
        <ele>866.9</ele>
        <time>2020-11-11T10:29:32Z</time>
      </trkpt>
      <trkpt lat="28.4519730" lon="-16.3665600">
        <ele>866.9</ele>
        <time>2020-11-11T10:29:33Z</time>
      </trkpt>
      <trkpt lat="28.4519720" lon="-16.3665520">
        <ele>866.9</ele>
        <time>2020-11-11T10:29:34Z</time>
      </trkpt>
      <trkpt lat="28.4519720" lon="-16.3665520">
        <ele>866.9</ele>
        <time>2020-11-11T10:30:54Z</time>
      </trkpt>
      <trkpt lat="28.4519350" lon="-16.3666580">
        <ele>866.9</ele>
        <time>2020-11-11T10:30:55Z</time>
      </trkpt>
      <trkpt lat="28.4519350" lon="-16.3666580">
        <ele>866.9</ele>
        <time>2020-11-11T10:30:56Z</time>
      </trkpt>
      <trkpt lat="28.4519450" lon="-16.3666630">
        <ele>866.9</ele>
        <time>2020-11-11T10:30:57Z</time>
      </trkpt>
      <trkpt lat="28.4519450" lon="-16.3666650">
        <ele>866.9</ele>
        <time>2020-11-11T10:30:58Z</time>
      </trkpt>
      <trkpt lat="28.4519450" lon="-16.3666650">
        <ele>866.9</ele>
        <time>2020-11-11T10:30:59Z</time>
      </trkpt>
      <trkpt lat="28.4519370" lon="-16.3666650">
        <ele>865.9</ele>
        <time>2020-11-11T10:31:03Z</time>
      </trkpt>
      <trkpt lat="28.4519370" lon="-16.3666650">
        <ele>865.9</ele>
        <time>2020-11-11T10:31:04Z</time>
      </trkpt>
      <trkpt lat="28.4518320" lon="-16.3667070">
        <ele>865.9</ele>
        <time>2020-11-11T10:31:05Z</time>
      </trkpt>
      <trkpt lat="28.4518320" lon="-16.3667070">
        <ele>865.9</ele>
        <time>2020-11-11T10:31:06Z</time>
      </trkpt>
      <trkpt lat="28.4517920" lon="-16.3667370">
        <ele>865.9</ele>
        <time>2020-11-11T10:31:07Z</time>
      </trkpt>
      <trkpt lat="28.4517920" lon="-16.3667370">
        <ele>865.9</ele>
        <time>2020-11-11T10:31:08Z</time>
      </trkpt>
      <trkpt lat="28.4517400" lon="-16.3667680">
        <ele>865.9</ele>
        <time>2020-11-11T10:31:09Z</time>
      </trkpt>
      <trkpt lat="28.4517100" lon="-16.3667670">
        <ele>865.9</ele>
        <time>2020-11-11T10:31:10Z</time>
      </trkpt>
      <trkpt lat="28.4517100" lon="-16.3667670">
        <ele>866.9</ele>
        <time>2020-11-11T10:31:11Z</time>
      </trkpt>
      <trkpt lat="28.4516530" lon="-16.3667680">
        <ele>866.9</ele>
        <time>2020-11-11T10:31:12Z</time>
      </trkpt>
      <trkpt lat="28.4516220" lon="-16.3667630">
        <ele>866.9</ele>
        <time>2020-11-11T10:31:13Z</time>
      </trkpt>
      <trkpt lat="28.4516220" lon="-16.3667630">
        <ele>866.9</ele>
        <time>2020-11-11T10:31:14Z</time>
      </trkpt>
      <trkpt lat="28.4515700" lon="-16.3667680">
        <ele>866.9</ele>
        <time>2020-11-11T10:31:15Z</time>
      </trkpt>
      <trkpt lat="28.4515700" lon="-16.3667680">
        <ele>866.9</ele>
        <time>2020-11-11T10:31:16Z</time>
      </trkpt>
      <trkpt lat="28.4515370" lon="-16.3667880">
        <ele>867.9</ele>
        <time>2020-11-11T10:31:17Z</time>
      </trkpt>
      <trkpt lat="28.4515370" lon="-16.3667880">
        <ele>867.9</ele>
        <time>2020-11-11T10:31:18Z</time>
      </trkpt>
      <trkpt lat="28.4514980" lon="-16.3667950">
        <ele>867.9</ele>
        <time>2020-11-11T10:31:19Z</time>
      </trkpt>
      <trkpt lat="28.4514980" lon="-16.3667950">
        <ele>867.9</ele>
        <time>2020-11-11T10:31:20Z</time>
      </trkpt>
      <trkpt lat="28.4514400" lon="-16.3667870">
        <ele>867.9</ele>
        <time>2020-11-11T10:31:21Z</time>
      </trkpt>
      <trkpt lat="28.4514400" lon="-16.3667870">
        <ele>867.9</ele>
        <time>2020-11-11T10:31:22Z</time>
      </trkpt>
      <trkpt lat="28.4513950" lon="-16.3667900">
        <ele>867.9</ele>
        <time>2020-11-11T10:31:23Z</time>
      </trkpt>
      <trkpt lat="28.4513950" lon="-16.3667900">
        <ele>868.9</ele>
        <time>2020-11-11T10:31:24Z</time>
      </trkpt>
      <trkpt lat="28.4513500" lon="-16.3667970">
        <ele>868.9</ele>
        <time>2020-11-11T10:31:25Z</time>
      </trkpt>
      <trkpt lat="28.4513500" lon="-16.3667970">
        <ele>868.9</ele>
        <time>2020-11-11T10:31:26Z</time>
      </trkpt>
      <trkpt lat="28.4513170" lon="-16.3668280">
        <ele>868.9</ele>
        <time>2020-11-11T10:31:27Z</time>
      </trkpt>
      <trkpt lat="28.4513170" lon="-16.3668280">
        <ele>868.9</ele>
        <time>2020-11-11T10:31:28Z</time>
      </trkpt>
      <trkpt lat="28.4513150" lon="-16.3668720">
        <ele>868.9</ele>
        <time>2020-11-11T10:31:29Z</time>
      </trkpt>
      <trkpt lat="28.4513150" lon="-16.3668720">
        <ele>869.9</ele>
        <time>2020-11-11T10:31:30Z</time>
      </trkpt>
      <trkpt lat="28.4513170" lon="-16.3669130">
        <ele>869.9</ele>
        <time>2020-11-11T10:31:31Z</time>
      </trkpt>
      <trkpt lat="28.4513170" lon="-16.3669130">
        <ele>869.9</ele>
        <time>2020-11-11T10:31:32Z</time>
      </trkpt>
      <trkpt lat="28.4513270" lon="-16.3669570">
        <ele>869.9</ele>
        <time>2020-11-11T10:31:33Z</time>
      </trkpt>
      <trkpt lat="28.4513280" lon="-16.3669820">
        <ele>870.9</ele>
        <time>2020-11-11T10:31:34Z</time>
      </trkpt>
      <trkpt lat="28.4513280" lon="-16.3669820">
        <ele>870.9</ele>
        <time>2020-11-11T10:31:35Z</time>
      </trkpt>
      <trkpt lat="28.4513320" lon="-16.3670230">
        <ele>870.9</ele>
        <time>2020-11-11T10:31:36Z</time>
      </trkpt>
      <trkpt lat="28.4513320" lon="-16.3670230">
        <ele>870.9</ele>
        <time>2020-11-11T10:31:37Z</time>
      </trkpt>
      <trkpt lat="28.4513370" lon="-16.3670650">
        <ele>871.9</ele>
        <time>2020-11-11T10:31:38Z</time>
      </trkpt>
      <trkpt lat="28.4513370" lon="-16.3670650">
        <ele>871.9</ele>
        <time>2020-11-11T10:31:39Z</time>
      </trkpt>
      <trkpt lat="28.4513430" lon="-16.3671130">
        <ele>871.9</ele>
        <time>2020-11-11T10:31:40Z</time>
      </trkpt>
      <trkpt lat="28.4513470" lon="-16.3671370">
        <ele>872.9</ele>
        <time>2020-11-11T10:31:41Z</time>
      </trkpt>
      <trkpt lat="28.4513470" lon="-16.3671370">
        <ele>872.9</ele>
        <time>2020-11-11T10:31:42Z</time>
      </trkpt>
      <trkpt lat="28.4513430" lon="-16.3671720">
        <ele>872.9</ele>
        <time>2020-11-11T10:31:43Z</time>
      </trkpt>
      <trkpt lat="28.4513430" lon="-16.3671720">
        <ele>872.9</ele>
        <time>2020-11-11T10:31:44Z</time>
      </trkpt>
      <trkpt lat="28.4513300" lon="-16.3672050">
        <ele>872.9</ele>
        <time>2020-11-11T10:31:45Z</time>
      </trkpt>
      <trkpt lat="28.4513300" lon="-16.3672050">
        <ele>872.9</ele>
        <time>2020-11-11T10:31:46Z</time>
      </trkpt>
      <trkpt lat="28.4513130" lon="-16.3672380">
        <ele>872.9</ele>
        <time>2020-11-11T10:31:47Z</time>
      </trkpt>
      <trkpt lat="28.4513130" lon="-16.3672380">
        <ele>872.9</ele>
        <time>2020-11-11T10:31:48Z</time>
      </trkpt>
      <trkpt lat="28.4512980" lon="-16.3672680">
        <ele>872.9</ele>
        <time>2020-11-11T10:31:49Z</time>
      </trkpt>
      <trkpt lat="28.4512980" lon="-16.3672680">
        <ele>873.9</ele>
        <time>2020-11-11T10:31:50Z</time>
      </trkpt>
      <trkpt lat="28.4512820" lon="-16.3673000">
        <ele>873.9</ele>
        <time>2020-11-11T10:31:51Z</time>
      </trkpt>
      <trkpt lat="28.4512820" lon="-16.3673000">
        <ele>874.9</ele>
        <time>2020-11-11T10:31:52Z</time>
      </trkpt>
      <trkpt lat="28.4512630" lon="-16.3673320">
        <ele>874.9</ele>
        <time>2020-11-11T10:31:53Z</time>
      </trkpt>
      <trkpt lat="28.4512630" lon="-16.3673320">
        <ele>875.9</ele>
        <time>2020-11-11T10:31:54Z</time>
      </trkpt>
      <trkpt lat="28.4512480" lon="-16.3673630">
        <ele>875.9</ele>
        <time>2020-11-11T10:31:55Z</time>
      </trkpt>
      <trkpt lat="28.4512480" lon="-16.3673630">
        <ele>876.9</ele>
        <time>2020-11-11T10:31:56Z</time>
      </trkpt>
      <trkpt lat="28.4512330" lon="-16.3673870">
        <ele>876.9</ele>
        <time>2020-11-11T10:31:57Z</time>
      </trkpt>
      <trkpt lat="28.4512330" lon="-16.3673870">
        <ele>877.9</ele>
        <time>2020-11-11T10:31:58Z</time>
      </trkpt>
      <trkpt lat="28.4512170" lon="-16.3674120">
        <ele>877.9</ele>
        <time>2020-11-11T10:31:59Z</time>
      </trkpt>
      <trkpt lat="28.4512170" lon="-16.3674120">
        <ele>877.9</ele>
        <time>2020-11-11T10:32:00Z</time>
      </trkpt>
      <trkpt lat="28.4511900" lon="-16.3674330">
        <ele>877.9</ele>
        <time>2020-11-11T10:32:01Z</time>
      </trkpt>
      <trkpt lat="28.4511900" lon="-16.3674330">
        <ele>877.9</ele>
        <time>2020-11-11T10:32:02Z</time>
      </trkpt>
      <trkpt lat="28.4511620" lon="-16.3674450">
        <ele>877.9</ele>
        <time>2020-11-11T10:32:03Z</time>
      </trkpt>
      <trkpt lat="28.4511430" lon="-16.3674500">
        <ele>879.9</ele>
        <time>2020-11-11T10:32:04Z</time>
      </trkpt>
      <trkpt lat="28.4511430" lon="-16.3674500">
        <ele>879.9</ele>
        <time>2020-11-11T10:32:05Z</time>
      </trkpt>
      <trkpt lat="28.4511120" lon="-16.3674670">
        <ele>879.9</ele>
        <time>2020-11-11T10:32:06Z</time>
      </trkpt>
      <trkpt lat="28.4510950" lon="-16.3674720">
        <ele>879.9</ele>
        <time>2020-11-11T10:32:07Z</time>
      </trkpt>
      <trkpt lat="28.4510800" lon="-16.3674780">
        <ele>879.9</ele>
        <time>2020-11-11T10:32:08Z</time>
      </trkpt>
      <trkpt lat="28.4510800" lon="-16.3674780">
        <ele>879.9</ele>
        <time>2020-11-11T10:32:09Z</time>
      </trkpt>
      <trkpt lat="28.4510470" lon="-16.3674900">
        <ele>879.9</ele>
        <time>2020-11-11T10:32:10Z</time>
      </trkpt>
      <trkpt lat="28.4510470" lon="-16.3674900">
        <ele>879.9</ele>
        <time>2020-11-11T10:32:11Z</time>
      </trkpt>
      <trkpt lat="28.4510120" lon="-16.3675030">
        <ele>879.9</ele>
        <time>2020-11-11T10:32:12Z</time>
      </trkpt>
      <trkpt lat="28.4509930" lon="-16.3675130">
        <ele>879.9</ele>
        <time>2020-11-11T10:32:13Z</time>
      </trkpt>
      <trkpt lat="28.4509930" lon="-16.3675130">
        <ele>879.9</ele>
        <time>2020-11-11T10:32:14Z</time>
      </trkpt>
      <trkpt lat="28.4509630" lon="-16.3675370">
        <ele>880.9</ele>
        <time>2020-11-11T10:32:15Z</time>
      </trkpt>
      <trkpt lat="28.4509630" lon="-16.3675370">
        <ele>880.9</ele>
        <time>2020-11-11T10:32:16Z</time>
      </trkpt>
      <trkpt lat="28.4509330" lon="-16.3675600">
        <ele>880.9</ele>
        <time>2020-11-11T10:32:17Z</time>
      </trkpt>
      <trkpt lat="28.4509330" lon="-16.3675600">
        <ele>880.9</ele>
        <time>2020-11-11T10:32:18Z</time>
      </trkpt>
      <trkpt lat="28.4508980" lon="-16.3675770">
        <ele>880.9</ele>
        <time>2020-11-11T10:32:19Z</time>
      </trkpt>
      <trkpt lat="28.4508980" lon="-16.3675770">
        <ele>881.9</ele>
        <time>2020-11-11T10:32:20Z</time>
      </trkpt>
      <trkpt lat="28.4508600" lon="-16.3675900">
        <ele>881.9</ele>
        <time>2020-11-11T10:32:21Z</time>
      </trkpt>
      <trkpt lat="28.4508600" lon="-16.3675900">
        <ele>881.9</ele>
        <time>2020-11-11T10:32:22Z</time>
      </trkpt>
      <trkpt lat="28.4508180" lon="-16.3676070">
        <ele>881.9</ele>
        <time>2020-11-11T10:32:23Z</time>
      </trkpt>
      <trkpt lat="28.4508180" lon="-16.3676070">
        <ele>881.9</ele>
        <time>2020-11-11T10:32:24Z</time>
      </trkpt>
      <trkpt lat="28.4507700" lon="-16.3676170">
        <ele>881.9</ele>
        <time>2020-11-11T10:32:25Z</time>
      </trkpt>
      <trkpt lat="28.4507700" lon="-16.3676170">
        <ele>882.9</ele>
        <time>2020-11-11T10:32:26Z</time>
      </trkpt>
      <trkpt lat="28.4507280" lon="-16.3676280">
        <ele>882.9</ele>
        <time>2020-11-11T10:32:27Z</time>
      </trkpt>
      <trkpt lat="28.4507070" lon="-16.3676320">
        <ele>882.9</ele>
        <time>2020-11-11T10:32:28Z</time>
      </trkpt>
      <trkpt lat="28.4507070" lon="-16.3676320">
        <ele>882.9</ele>
        <time>2020-11-11T10:32:29Z</time>
      </trkpt>
      <trkpt lat="28.4506700" lon="-16.3676420">
        <ele>882.9</ele>
        <time>2020-11-11T10:32:30Z</time>
      </trkpt>
      <trkpt lat="28.4506700" lon="-16.3676420">
        <ele>882.9</ele>
        <time>2020-11-11T10:32:31Z</time>
      </trkpt>
      <trkpt lat="28.4506300" lon="-16.3676550">
        <ele>882.9</ele>
        <time>2020-11-11T10:32:32Z</time>
      </trkpt>
      <trkpt lat="28.4506300" lon="-16.3676550">
        <ele>882.9</ele>
        <time>2020-11-11T10:32:33Z</time>
      </trkpt>
      <trkpt lat="28.4505870" lon="-16.3676670">
        <ele>882.9</ele>
        <time>2020-11-11T10:32:34Z</time>
      </trkpt>
      <trkpt lat="28.4505870" lon="-16.3676670">
        <ele>882.9</ele>
        <time>2020-11-11T10:32:35Z</time>
      </trkpt>
      <trkpt lat="28.4505370" lon="-16.3676720">
        <ele>883.9</ele>
        <time>2020-11-11T10:32:36Z</time>
      </trkpt>
      <trkpt lat="28.4505130" lon="-16.3676730">
        <ele>883.9</ele>
        <time>2020-11-11T10:32:37Z</time>
      </trkpt>
      <trkpt lat="28.4505130" lon="-16.3676730">
        <ele>883.9</ele>
        <time>2020-11-11T10:32:38Z</time>
      </trkpt>
      <trkpt lat="28.4504750" lon="-16.3676920">
        <ele>883.9</ele>
        <time>2020-11-11T10:32:39Z</time>
      </trkpt>
      <trkpt lat="28.4504550" lon="-16.3677000">
        <ele>883.9</ele>
        <time>2020-11-11T10:32:40Z</time>
      </trkpt>
      <trkpt lat="28.4504550" lon="-16.3677000">
        <ele>883.9</ele>
        <time>2020-11-11T10:32:41Z</time>
      </trkpt>
      <trkpt lat="28.4504120" lon="-16.3677180">
        <ele>883.9</ele>
        <time>2020-11-11T10:32:42Z</time>
      </trkpt>
      <trkpt lat="28.4504120" lon="-16.3677180">
        <ele>883.9</ele>
        <time>2020-11-11T10:32:43Z</time>
      </trkpt>
      <trkpt lat="28.4503680" lon="-16.3677320">
        <ele>883.9</ele>
        <time>2020-11-11T10:32:44Z</time>
      </trkpt>
      <trkpt lat="28.4503680" lon="-16.3677320">
        <ele>883.9</ele>
        <time>2020-11-11T10:32:45Z</time>
      </trkpt>
      <trkpt lat="28.4503370" lon="-16.3677480">
        <ele>883.9</ele>
        <time>2020-11-11T10:32:46Z</time>
      </trkpt>
      <trkpt lat="28.4503170" lon="-16.3677550">
        <ele>883.9</ele>
        <time>2020-11-11T10:32:47Z</time>
      </trkpt>
      <trkpt lat="28.4503170" lon="-16.3677550">
        <ele>883.9</ele>
        <time>2020-11-11T10:32:48Z</time>
      </trkpt>
      <trkpt lat="28.4502750" lon="-16.3677670">
        <ele>883.9</ele>
        <time>2020-11-11T10:32:49Z</time>
      </trkpt>
      <trkpt lat="28.4502750" lon="-16.3677670">
        <ele>883.9</ele>
        <time>2020-11-11T10:32:50Z</time>
      </trkpt>
      <trkpt lat="28.4502350" lon="-16.3677780">
        <ele>883.9</ele>
        <time>2020-11-11T10:32:51Z</time>
      </trkpt>
      <trkpt lat="28.4502350" lon="-16.3677780">
        <ele>884.9</ele>
        <time>2020-11-11T10:32:52Z</time>
      </trkpt>
      <trkpt lat="28.4501950" lon="-16.3677920">
        <ele>884.9</ele>
        <time>2020-11-11T10:32:53Z</time>
      </trkpt>
      <trkpt lat="28.4501720" lon="-16.3677950">
        <ele>884.9</ele>
        <time>2020-11-11T10:32:54Z</time>
      </trkpt>
      <trkpt lat="28.4501720" lon="-16.3677950">
        <ele>884.9</ele>
        <time>2020-11-11T10:32:55Z</time>
      </trkpt>
      <trkpt lat="28.4501300" lon="-16.3678070">
        <ele>884.9</ele>
        <time>2020-11-11T10:32:56Z</time>
      </trkpt>
      <trkpt lat="28.4501300" lon="-16.3678070">
        <ele>884.9</ele>
        <time>2020-11-11T10:32:57Z</time>
      </trkpt>
      <trkpt lat="28.4500850" lon="-16.3678200">
        <ele>884.9</ele>
        <time>2020-11-11T10:32:58Z</time>
      </trkpt>
      <trkpt lat="28.4500850" lon="-16.3678200">
        <ele>885.9</ele>
        <time>2020-11-11T10:32:59Z</time>
      </trkpt>
      <trkpt lat="28.4500450" lon="-16.3678280">
        <ele>885.9</ele>
        <time>2020-11-11T10:33:00Z</time>
      </trkpt>
      <trkpt lat="28.4500450" lon="-16.3678280">
        <ele>885.9</ele>
        <time>2020-11-11T10:33:01Z</time>
      </trkpt>
      <trkpt lat="28.4500020" lon="-16.3678320">
        <ele>885.9</ele>
        <time>2020-11-11T10:33:02Z</time>
      </trkpt>
      <trkpt lat="28.4500020" lon="-16.3678320">
        <ele>885.9</ele>
        <time>2020-11-11T10:33:03Z</time>
      </trkpt>
      <trkpt lat="28.4499600" lon="-16.3678400">
        <ele>885.9</ele>
        <time>2020-11-11T10:33:04Z</time>
      </trkpt>
      <trkpt lat="28.4499400" lon="-16.3678450">
        <ele>885.9</ele>
        <time>2020-11-11T10:33:05Z</time>
      </trkpt>
      <trkpt lat="28.4499400" lon="-16.3678450">
        <ele>885.9</ele>
        <time>2020-11-11T10:33:06Z</time>
      </trkpt>
      <trkpt lat="28.4498870" lon="-16.3678530">
        <ele>885.9</ele>
        <time>2020-11-11T10:33:07Z</time>
      </trkpt>
      <trkpt lat="28.4498630" lon="-16.3678570">
        <ele>885.9</ele>
        <time>2020-11-11T10:33:08Z</time>
      </trkpt>
      <trkpt lat="28.4498630" lon="-16.3678570">
        <ele>886.9</ele>
        <time>2020-11-11T10:33:09Z</time>
      </trkpt>
      <trkpt lat="28.4498220" lon="-16.3678650">
        <ele>886.9</ele>
        <time>2020-11-11T10:33:10Z</time>
      </trkpt>
      <trkpt lat="28.4498220" lon="-16.3678650">
        <ele>886.9</ele>
        <time>2020-11-11T10:33:11Z</time>
      </trkpt>
      <trkpt lat="28.4497820" lon="-16.3678770">
        <ele>886.9</ele>
        <time>2020-11-11T10:33:12Z</time>
      </trkpt>
      <trkpt lat="28.4497580" lon="-16.3678820">
        <ele>887.9</ele>
        <time>2020-11-11T10:33:13Z</time>
      </trkpt>
      <trkpt lat="28.4497580" lon="-16.3678820">
        <ele>887.9</ele>
        <time>2020-11-11T10:33:14Z</time>
      </trkpt>
      <trkpt lat="28.4497120" lon="-16.3678880">
        <ele>887.9</ele>
        <time>2020-11-11T10:33:15Z</time>
      </trkpt>
      <trkpt lat="28.4497120" lon="-16.3678880">
        <ele>887.9</ele>
        <time>2020-11-11T10:33:16Z</time>
      </trkpt>
      <trkpt lat="28.4496700" lon="-16.3678950">
        <ele>887.9</ele>
        <time>2020-11-11T10:33:17Z</time>
      </trkpt>
      <trkpt lat="28.4496700" lon="-16.3678950">
        <ele>887.9</ele>
        <time>2020-11-11T10:33:18Z</time>
      </trkpt>
      <trkpt lat="28.4496280" lon="-16.3679030">
        <ele>887.9</ele>
        <time>2020-11-11T10:33:19Z</time>
      </trkpt>
      <trkpt lat="28.4496280" lon="-16.3679030">
        <ele>887.9</ele>
        <time>2020-11-11T10:33:20Z</time>
      </trkpt>
      <trkpt lat="28.4495830" lon="-16.3679080">
        <ele>888.9</ele>
        <time>2020-11-11T10:33:21Z</time>
      </trkpt>
      <trkpt lat="28.4495830" lon="-16.3679080">
        <ele>888.9</ele>
        <time>2020-11-11T10:33:22Z</time>
      </trkpt>
      <trkpt lat="28.4495400" lon="-16.3679200">
        <ele>888.9</ele>
        <time>2020-11-11T10:33:23Z</time>
      </trkpt>
      <trkpt lat="28.4495400" lon="-16.3679200">
        <ele>888.9</ele>
        <time>2020-11-11T10:33:24Z</time>
      </trkpt>
      <trkpt lat="28.4494970" lon="-16.3679320">
        <ele>888.9</ele>
        <time>2020-11-11T10:33:25Z</time>
      </trkpt>
      <trkpt lat="28.4494700" lon="-16.3679330">
        <ele>888.9</ele>
        <time>2020-11-11T10:33:26Z</time>
      </trkpt>
      <trkpt lat="28.4494450" lon="-16.3679330">
        <ele>888.9</ele>
        <time>2020-11-11T10:33:27Z</time>
      </trkpt>
      <trkpt lat="28.4494450" lon="-16.3679330">
        <ele>888.9</ele>
        <time>2020-11-11T10:33:28Z</time>
      </trkpt>
      <trkpt lat="28.4493920" lon="-16.3679280">
        <ele>888.9</ele>
        <time>2020-11-11T10:33:29Z</time>
      </trkpt>
      <trkpt lat="28.4493920" lon="-16.3679280">
        <ele>888.9</ele>
        <time>2020-11-11T10:33:30Z</time>
      </trkpt>
      <trkpt lat="28.4493480" lon="-16.3679300">
        <ele>888.9</ele>
        <time>2020-11-11T10:33:31Z</time>
      </trkpt>
      <trkpt lat="28.4493480" lon="-16.3679300">
        <ele>888.9</ele>
        <time>2020-11-11T10:33:32Z</time>
      </trkpt>
      <trkpt lat="28.4493130" lon="-16.3679420">
        <ele>888.9</ele>
        <time>2020-11-11T10:33:33Z</time>
      </trkpt>
      <trkpt lat="28.4493130" lon="-16.3679420">
        <ele>888.9</ele>
        <time>2020-11-11T10:33:34Z</time>
      </trkpt>
      <trkpt lat="28.4492750" lon="-16.3679520">
        <ele>888.9</ele>
        <time>2020-11-11T10:33:35Z</time>
      </trkpt>
      <trkpt lat="28.4492750" lon="-16.3679520">
        <ele>888.9</ele>
        <time>2020-11-11T10:33:36Z</time>
      </trkpt>
      <trkpt lat="28.4492320" lon="-16.3679520">
        <ele>888.9</ele>
        <time>2020-11-11T10:33:37Z</time>
      </trkpt>
      <trkpt lat="28.4492320" lon="-16.3679520">
        <ele>889.9</ele>
        <time>2020-11-11T10:33:38Z</time>
      </trkpt>
      <trkpt lat="28.4491920" lon="-16.3679630">
        <ele>889.9</ele>
        <time>2020-11-11T10:33:39Z</time>
      </trkpt>
      <trkpt lat="28.4491920" lon="-16.3679630">
        <ele>889.9</ele>
        <time>2020-11-11T10:33:40Z</time>
      </trkpt>
      <trkpt lat="28.4491520" lon="-16.3679700">
        <ele>889.9</ele>
        <time>2020-11-11T10:33:41Z</time>
      </trkpt>
      <trkpt lat="28.4491520" lon="-16.3679700">
        <ele>889.9</ele>
        <time>2020-11-11T10:33:42Z</time>
      </trkpt>
      <trkpt lat="28.4491020" lon="-16.3679600">
        <ele>889.9</ele>
        <time>2020-11-11T10:33:43Z</time>
      </trkpt>
      <trkpt lat="28.4491020" lon="-16.3679600">
        <ele>890.9</ele>
        <time>2020-11-11T10:33:44Z</time>
      </trkpt>
      <trkpt lat="28.4490530" lon="-16.3679620">
        <ele>890.9</ele>
        <time>2020-11-11T10:33:45Z</time>
      </trkpt>
      <trkpt lat="28.4490320" lon="-16.3679620">
        <ele>890.9</ele>
        <time>2020-11-11T10:33:46Z</time>
      </trkpt>
      <trkpt lat="28.4490100" lon="-16.3679620">
        <ele>890.9</ele>
        <time>2020-11-11T10:33:47Z</time>
      </trkpt>
      <trkpt lat="28.4490100" lon="-16.3679620">
        <ele>890.9</ele>
        <time>2020-11-11T10:33:48Z</time>
      </trkpt>
      <trkpt lat="28.4489650" lon="-16.3679670">
        <ele>890.9</ele>
        <time>2020-11-11T10:33:49Z</time>
      </trkpt>
      <trkpt lat="28.4489650" lon="-16.3679670">
        <ele>891.9</ele>
        <time>2020-11-11T10:33:50Z</time>
      </trkpt>
      <trkpt lat="28.4489250" lon="-16.3679730">
        <ele>891.9</ele>
        <time>2020-11-11T10:33:51Z</time>
      </trkpt>
      <trkpt lat="28.4489250" lon="-16.3679730">
        <ele>891.9</ele>
        <time>2020-11-11T10:33:52Z</time>
      </trkpt>
      <trkpt lat="28.4488830" lon="-16.3679730">
        <ele>891.9</ele>
        <time>2020-11-11T10:33:53Z</time>
      </trkpt>
      <trkpt lat="28.4488830" lon="-16.3679730">
        <ele>891.9</ele>
        <time>2020-11-11T10:33:54Z</time>
      </trkpt>
      <trkpt lat="28.4488430" lon="-16.3679750">
        <ele>891.9</ele>
        <time>2020-11-11T10:33:55Z</time>
      </trkpt>
      <trkpt lat="28.4488430" lon="-16.3679750">
        <ele>891.9</ele>
        <time>2020-11-11T10:33:56Z</time>
      </trkpt>
      <trkpt lat="28.4488000" lon="-16.3679750">
        <ele>891.9</ele>
        <time>2020-11-11T10:33:57Z</time>
      </trkpt>
      <trkpt lat="28.4487800" lon="-16.3679730">
        <ele>892.9</ele>
        <time>2020-11-11T10:33:58Z</time>
      </trkpt>
      <trkpt lat="28.4487800" lon="-16.3679730">
        <ele>892.9</ele>
        <time>2020-11-11T10:33:59Z</time>
      </trkpt>
      <trkpt lat="28.4487350" lon="-16.3679630">
        <ele>892.9</ele>
        <time>2020-11-11T10:34:00Z</time>
      </trkpt>
      <trkpt lat="28.4487130" lon="-16.3679620">
        <ele>892.9</ele>
        <time>2020-11-11T10:34:01Z</time>
      </trkpt>
      <trkpt lat="28.4487130" lon="-16.3679620">
        <ele>892.9</ele>
        <time>2020-11-11T10:34:02Z</time>
      </trkpt>
      <trkpt lat="28.4486830" lon="-16.3679650">
        <ele>892.9</ele>
        <time>2020-11-11T10:34:03Z</time>
      </trkpt>
      <trkpt lat="28.4486680" lon="-16.3679680">
        <ele>892.9</ele>
        <time>2020-11-11T10:34:04Z</time>
      </trkpt>
      <trkpt lat="28.4486680" lon="-16.3679680">
        <ele>892.9</ele>
        <time>2020-11-11T10:34:05Z</time>
      </trkpt>
      <trkpt lat="28.4486380" lon="-16.3679800">
        <ele>892.9</ele>
        <time>2020-11-11T10:34:06Z</time>
      </trkpt>
      <trkpt lat="28.4486150" lon="-16.3679800">
        <ele>892.9</ele>
        <time>2020-11-11T10:34:07Z</time>
      </trkpt>
      <trkpt lat="28.4485920" lon="-16.3679770">
        <ele>894.9</ele>
        <time>2020-11-11T10:34:08Z</time>
      </trkpt>
      <trkpt lat="28.4485920" lon="-16.3679770">
        <ele>894.9</ele>
        <time>2020-11-11T10:34:09Z</time>
      </trkpt>
      <trkpt lat="28.4485280" lon="-16.3679730">
        <ele>894.9</ele>
        <time>2020-11-11T10:34:10Z</time>
      </trkpt>
      <trkpt lat="28.4485030" lon="-16.3679700">
        <ele>894.9</ele>
        <time>2020-11-11T10:34:11Z</time>
      </trkpt>
      <trkpt lat="28.4484800" lon="-16.3679720">
        <ele>894.9</ele>
        <time>2020-11-11T10:34:12Z</time>
      </trkpt>
      <trkpt lat="28.4484800" lon="-16.3679720">
        <ele>894.9</ele>
        <time>2020-11-11T10:34:13Z</time>
      </trkpt>
      <trkpt lat="28.4484330" lon="-16.3679770">
        <ele>895.9</ele>
        <time>2020-11-11T10:34:14Z</time>
      </trkpt>
      <trkpt lat="28.4484330" lon="-16.3679770">
        <ele>895.9</ele>
        <time>2020-11-11T10:34:15Z</time>
      </trkpt>
      <trkpt lat="28.4483920" lon="-16.3679720">
        <ele>895.9</ele>
        <time>2020-11-11T10:34:16Z</time>
      </trkpt>
      <trkpt lat="28.4483920" lon="-16.3679720">
        <ele>895.9</ele>
        <time>2020-11-11T10:34:17Z</time>
      </trkpt>
      <trkpt lat="28.4483530" lon="-16.3679680">
        <ele>896.9</ele>
        <time>2020-11-11T10:34:18Z</time>
      </trkpt>
      <trkpt lat="28.4483320" lon="-16.3679670">
        <ele>896.9</ele>
        <time>2020-11-11T10:34:19Z</time>
      </trkpt>
      <trkpt lat="28.4483320" lon="-16.3679670">
        <ele>896.9</ele>
        <time>2020-11-11T10:34:20Z</time>
      </trkpt>
      <trkpt lat="28.4482900" lon="-16.3679480">
        <ele>896.9</ele>
        <time>2020-11-11T10:34:21Z</time>
      </trkpt>
      <trkpt lat="28.4482680" lon="-16.3679370">
        <ele>897.9</ele>
        <time>2020-11-11T10:34:22Z</time>
      </trkpt>
      <trkpt lat="28.4482680" lon="-16.3679370">
        <ele>897.9</ele>
        <time>2020-11-11T10:34:23Z</time>
      </trkpt>
      <trkpt lat="28.4482300" lon="-16.3679220">
        <ele>897.9</ele>
        <time>2020-11-11T10:34:24Z</time>
      </trkpt>
      <trkpt lat="28.4482100" lon="-16.3679170">
        <ele>897.9</ele>
        <time>2020-11-11T10:34:25Z</time>
      </trkpt>
      <trkpt lat="28.4482100" lon="-16.3679170">
        <ele>898.9</ele>
        <time>2020-11-11T10:34:26Z</time>
      </trkpt>
      <trkpt lat="28.4481670" lon="-16.3679130">
        <ele>898.9</ele>
        <time>2020-11-11T10:34:27Z</time>
      </trkpt>
      <trkpt lat="28.4481450" lon="-16.3679100">
        <ele>898.9</ele>
        <time>2020-11-11T10:34:28Z</time>
      </trkpt>
      <trkpt lat="28.4481450" lon="-16.3679100">
        <ele>898.9</ele>
        <time>2020-11-11T10:34:29Z</time>
      </trkpt>
      <trkpt lat="28.4481130" lon="-16.3679070">
        <ele>899.9</ele>
        <time>2020-11-11T10:34:30Z</time>
      </trkpt>
      <trkpt lat="28.4480930" lon="-16.3679030">
        <ele>899.9</ele>
        <time>2020-11-11T10:34:31Z</time>
      </trkpt>
      <trkpt lat="28.4480930" lon="-16.3679030">
        <ele>899.9</ele>
        <time>2020-11-11T10:34:32Z</time>
      </trkpt>
      <trkpt lat="28.4480570" lon="-16.3678950">
        <ele>900.9</ele>
        <time>2020-11-11T10:34:33Z</time>
      </trkpt>
      <trkpt lat="28.4480570" lon="-16.3678950">
        <ele>900.9</ele>
        <time>2020-11-11T10:34:34Z</time>
      </trkpt>
      <trkpt lat="28.4480230" lon="-16.3678930">
        <ele>900.9</ele>
        <time>2020-11-11T10:34:35Z</time>
      </trkpt>
      <trkpt lat="28.4480080" lon="-16.3678900">
        <ele>900.9</ele>
        <time>2020-11-11T10:34:36Z</time>
      </trkpt>
      <trkpt lat="28.4480080" lon="-16.3678900">
        <ele>901.9</ele>
        <time>2020-11-11T10:34:37Z</time>
      </trkpt>
      <trkpt lat="28.4479800" lon="-16.3678850">
        <ele>901.9</ele>
        <time>2020-11-11T10:34:38Z</time>
      </trkpt>
      <trkpt lat="28.4479800" lon="-16.3678850">
        <ele>901.9</ele>
        <time>2020-11-11T10:34:39Z</time>
      </trkpt>
      <trkpt lat="28.4479430" lon="-16.3678850">
        <ele>901.9</ele>
        <time>2020-11-11T10:34:40Z</time>
      </trkpt>
      <trkpt lat="28.4479270" lon="-16.3678820">
        <ele>901.9</ele>
        <time>2020-11-11T10:34:41Z</time>
      </trkpt>
      <trkpt lat="28.4479270" lon="-16.3678820">
        <ele>901.9</ele>
        <time>2020-11-11T10:34:42Z</time>
      </trkpt>
      <trkpt lat="28.4479020" lon="-16.3678870">
        <ele>902.9</ele>
        <time>2020-11-11T10:34:43Z</time>
      </trkpt>
      <trkpt lat="28.4479020" lon="-16.3678870">
        <ele>902.9</ele>
        <time>2020-11-11T10:34:44Z</time>
      </trkpt>
      <trkpt lat="28.4478700" lon="-16.3678780">
        <ele>902.9</ele>
        <time>2020-11-11T10:34:45Z</time>
      </trkpt>
      <trkpt lat="28.4478700" lon="-16.3678780">
        <ele>902.9</ele>
        <time>2020-11-11T10:34:46Z</time>
      </trkpt>
      <trkpt lat="28.4478370" lon="-16.3678650">
        <ele>903.9</ele>
        <time>2020-11-11T10:34:47Z</time>
      </trkpt>
      <trkpt lat="28.4478180" lon="-16.3678550">
        <ele>903.9</ele>
        <time>2020-11-11T10:34:48Z</time>
      </trkpt>
      <trkpt lat="28.4478180" lon="-16.3678550">
        <ele>903.9</ele>
        <time>2020-11-11T10:34:49Z</time>
      </trkpt>
      <trkpt lat="28.4477850" lon="-16.3678370">
        <ele>903.9</ele>
        <time>2020-11-11T10:34:50Z</time>
      </trkpt>
      <trkpt lat="28.4477670" lon="-16.3678380">
        <ele>903.9</ele>
        <time>2020-11-11T10:34:51Z</time>
      </trkpt>
      <trkpt lat="28.4477500" lon="-16.3678380">
        <ele>903.9</ele>
        <time>2020-11-11T10:34:52Z</time>
      </trkpt>
      <trkpt lat="28.4477500" lon="-16.3678380">
        <ele>903.9</ele>
        <time>2020-11-11T10:34:53Z</time>
      </trkpt>
      <trkpt lat="28.4477150" lon="-16.3678350">
        <ele>903.9</ele>
        <time>2020-11-11T10:34:54Z</time>
      </trkpt>
      <trkpt lat="28.4477150" lon="-16.3678350">
        <ele>903.9</ele>
        <time>2020-11-11T10:34:55Z</time>
      </trkpt>
      <trkpt lat="28.4476830" lon="-16.3678300">
        <ele>904.9</ele>
        <time>2020-11-11T10:34:56Z</time>
      </trkpt>
      <trkpt lat="28.4476830" lon="-16.3678300">
        <ele>904.9</ele>
        <time>2020-11-11T10:34:57Z</time>
      </trkpt>
      <trkpt lat="28.4476520" lon="-16.3678330">
        <ele>904.9</ele>
        <time>2020-11-11T10:34:58Z</time>
      </trkpt>
      <trkpt lat="28.4476520" lon="-16.3678330">
        <ele>904.9</ele>
        <time>2020-11-11T10:34:59Z</time>
      </trkpt>
      <trkpt lat="28.4476200" lon="-16.3678380">
        <ele>905.9</ele>
        <time>2020-11-11T10:35:00Z</time>
      </trkpt>
      <trkpt lat="28.4476130" lon="-16.3678430">
        <ele>905.9</ele>
        <time>2020-11-11T10:35:01Z</time>
      </trkpt>
      <trkpt lat="28.4476130" lon="-16.3678430">
        <ele>905.9</ele>
        <time>2020-11-11T10:35:02Z</time>
      </trkpt>
      <trkpt lat="28.4475850" lon="-16.3678420">
        <ele>905.9</ele>
        <time>2020-11-11T10:35:03Z</time>
      </trkpt>
      <trkpt lat="28.4475700" lon="-16.3678400">
        <ele>905.9</ele>
        <time>2020-11-11T10:35:04Z</time>
      </trkpt>
      <trkpt lat="28.4475530" lon="-16.3678420">
        <ele>905.9</ele>
        <time>2020-11-11T10:35:05Z</time>
      </trkpt>
      <trkpt lat="28.4475530" lon="-16.3678420">
        <ele>905.9</ele>
        <time>2020-11-11T10:35:06Z</time>
      </trkpt>
      <trkpt lat="28.4475170" lon="-16.3678350">
        <ele>905.9</ele>
        <time>2020-11-11T10:35:07Z</time>
      </trkpt>
      <trkpt lat="28.4475170" lon="-16.3678350">
        <ele>905.9</ele>
        <time>2020-11-11T10:35:08Z</time>
      </trkpt>
      <trkpt lat="28.4474820" lon="-16.3678230">
        <ele>906.9</ele>
        <time>2020-11-11T10:35:09Z</time>
      </trkpt>
      <trkpt lat="28.4474820" lon="-16.3678230">
        <ele>906.9</ele>
        <time>2020-11-11T10:35:10Z</time>
      </trkpt>
      <trkpt lat="28.4474470" lon="-16.3678120">
        <ele>906.9</ele>
        <time>2020-11-11T10:35:11Z</time>
      </trkpt>
      <trkpt lat="28.4474470" lon="-16.3678120">
        <ele>906.9</ele>
        <time>2020-11-11T10:35:12Z</time>
      </trkpt>
      <trkpt lat="28.4474000" lon="-16.3678000">
        <ele>906.9</ele>
        <time>2020-11-11T10:35:13Z</time>
      </trkpt>
      <trkpt lat="28.4474000" lon="-16.3678000">
        <ele>906.9</ele>
        <time>2020-11-11T10:35:14Z</time>
      </trkpt>
      <trkpt lat="28.4473600" lon="-16.3678030">
        <ele>907.9</ele>
        <time>2020-11-11T10:35:15Z</time>
      </trkpt>
      <trkpt lat="28.4473600" lon="-16.3678030">
        <ele>907.9</ele>
        <time>2020-11-11T10:35:16Z</time>
      </trkpt>
      <trkpt lat="28.4473300" lon="-16.3677970">
        <ele>907.9</ele>
        <time>2020-11-11T10:35:17Z</time>
      </trkpt>
      <trkpt lat="28.4473300" lon="-16.3677970">
        <ele>907.9</ele>
        <time>2020-11-11T10:35:18Z</time>
      </trkpt>
      <trkpt lat="28.4472970" lon="-16.3677920">
        <ele>907.9</ele>
        <time>2020-11-11T10:35:19Z</time>
      </trkpt>
      <trkpt lat="28.4472970" lon="-16.3677920">
        <ele>907.9</ele>
        <time>2020-11-11T10:35:20Z</time>
      </trkpt>
      <trkpt lat="28.4472550" lon="-16.3677850">
        <ele>908.9</ele>
        <time>2020-11-11T10:35:21Z</time>
      </trkpt>
      <trkpt lat="28.4472550" lon="-16.3677850">
        <ele>908.9</ele>
        <time>2020-11-11T10:35:22Z</time>
      </trkpt>
      <trkpt lat="28.4472170" lon="-16.3677680">
        <ele>908.9</ele>
        <time>2020-11-11T10:35:23Z</time>
      </trkpt>
      <trkpt lat="28.4472170" lon="-16.3677680">
        <ele>908.9</ele>
        <time>2020-11-11T10:35:24Z</time>
      </trkpt>
      <trkpt lat="28.4471770" lon="-16.3677530">
        <ele>908.9</ele>
        <time>2020-11-11T10:35:25Z</time>
      </trkpt>
      <trkpt lat="28.4471770" lon="-16.3677530">
        <ele>909.9</ele>
        <time>2020-11-11T10:35:26Z</time>
      </trkpt>
      <trkpt lat="28.4471370" lon="-16.3677450">
        <ele>909.9</ele>
        <time>2020-11-11T10:35:27Z</time>
      </trkpt>
      <trkpt lat="28.4471180" lon="-16.3677380">
        <ele>909.9</ele>
        <time>2020-11-11T10:35:28Z</time>
      </trkpt>
      <trkpt lat="28.4471180" lon="-16.3677380">
        <ele>909.9</ele>
        <time>2020-11-11T10:35:29Z</time>
      </trkpt>
      <trkpt lat="28.4470780" lon="-16.3677300">
        <ele>910.9</ele>
        <time>2020-11-11T10:35:30Z</time>
      </trkpt>
      <trkpt lat="28.4470580" lon="-16.3677300">
        <ele>910.9</ele>
        <time>2020-11-11T10:35:31Z</time>
      </trkpt>
      <trkpt lat="28.4470580" lon="-16.3677300">
        <ele>910.9</ele>
        <time>2020-11-11T10:35:32Z</time>
      </trkpt>
      <trkpt lat="28.4470220" lon="-16.3677420">
        <ele>910.9</ele>
        <time>2020-11-11T10:35:33Z</time>
      </trkpt>
      <trkpt lat="28.4470220" lon="-16.3677420">
        <ele>910.9</ele>
        <time>2020-11-11T10:35:34Z</time>
      </trkpt>
      <trkpt lat="28.4469780" lon="-16.3677450">
        <ele>910.9</ele>
        <time>2020-11-11T10:35:35Z</time>
      </trkpt>
      <trkpt lat="28.4469780" lon="-16.3677450">
        <ele>911.9</ele>
        <time>2020-11-11T10:35:36Z</time>
      </trkpt>
      <trkpt lat="28.4469370" lon="-16.3677450">
        <ele>911.9</ele>
        <time>2020-11-11T10:35:37Z</time>
      </trkpt>
      <trkpt lat="28.4469370" lon="-16.3677450">
        <ele>911.9</ele>
        <time>2020-11-11T10:35:38Z</time>
      </trkpt>
      <trkpt lat="28.4468950" lon="-16.3677450">
        <ele>911.9</ele>
        <time>2020-11-11T10:35:39Z</time>
      </trkpt>
      <trkpt lat="28.4468770" lon="-16.3677480">
        <ele>911.9</ele>
        <time>2020-11-11T10:35:40Z</time>
      </trkpt>
      <trkpt lat="28.4468770" lon="-16.3677480">
        <ele>911.9</ele>
        <time>2020-11-11T10:35:41Z</time>
      </trkpt>
      <trkpt lat="28.4468300" lon="-16.3677630">
        <ele>911.9</ele>
        <time>2020-11-11T10:35:42Z</time>
      </trkpt>
      <trkpt lat="28.4468300" lon="-16.3677630">
        <ele>911.9</ele>
        <time>2020-11-11T10:35:43Z</time>
      </trkpt>
      <trkpt lat="28.4467880" lon="-16.3677870">
        <ele>911.9</ele>
        <time>2020-11-11T10:35:44Z</time>
      </trkpt>
      <trkpt lat="28.4467700" lon="-16.3677950">
        <ele>911.9</ele>
        <time>2020-11-11T10:35:45Z</time>
      </trkpt>
      <trkpt lat="28.4467700" lon="-16.3677950">
        <ele>911.9</ele>
        <time>2020-11-11T10:35:46Z</time>
      </trkpt>
      <trkpt lat="28.4467270" lon="-16.3678050">
        <ele>911.9</ele>
        <time>2020-11-11T10:35:47Z</time>
      </trkpt>
      <trkpt lat="28.4467270" lon="-16.3678050">
        <ele>911.9</ele>
        <time>2020-11-11T10:35:48Z</time>
      </trkpt>
      <trkpt lat="28.4466750" lon="-16.3678220">
        <ele>911.9</ele>
        <time>2020-11-11T10:35:49Z</time>
      </trkpt>
      <trkpt lat="28.4466750" lon="-16.3678220">
        <ele>912.9</ele>
        <time>2020-11-11T10:35:50Z</time>
      </trkpt>
      <trkpt lat="28.4466280" lon="-16.3678320">
        <ele>912.9</ele>
        <time>2020-11-11T10:35:51Z</time>
      </trkpt>
      <trkpt lat="28.4466050" lon="-16.3678420">
        <ele>912.9</ele>
        <time>2020-11-11T10:35:52Z</time>
      </trkpt>
      <trkpt lat="28.4466050" lon="-16.3678420">
        <ele>912.9</ele>
        <time>2020-11-11T10:35:53Z</time>
      </trkpt>
      <trkpt lat="28.4465480" lon="-16.3678870">
        <ele>912.9</ele>
        <time>2020-11-11T10:35:54Z</time>
      </trkpt>
      <trkpt lat="28.4465130" lon="-16.3679180">
        <ele>912.9</ele>
        <time>2020-11-11T10:35:55Z</time>
      </trkpt>
      <trkpt lat="28.4465130" lon="-16.3679180">
        <ele>912.9</ele>
        <time>2020-11-11T10:35:56Z</time>
      </trkpt>
      <trkpt lat="28.4464370" lon="-16.3680000">
        <ele>912.9</ele>
        <time>2020-11-11T10:35:57Z</time>
      </trkpt>
      <trkpt lat="28.4464370" lon="-16.3680000">
        <ele>912.9</ele>
        <time>2020-11-11T10:35:58Z</time>
      </trkpt>
      <trkpt lat="28.4463450" lon="-16.3680920">
        <ele>912.9</ele>
        <time>2020-11-11T10:35:59Z</time>
      </trkpt>
      <trkpt lat="28.4462900" lon="-16.3681330">
        <ele>911.9</ele>
        <time>2020-11-11T10:36:00Z</time>
      </trkpt>
      <trkpt lat="28.4462900" lon="-16.3681330">
        <ele>911.9</ele>
        <time>2020-11-11T10:36:01Z</time>
      </trkpt>
      <trkpt lat="28.4461750" lon="-16.3682120">
        <ele>910.9</ele>
        <time>2020-11-11T10:36:02Z</time>
      </trkpt>
      <trkpt lat="28.4461750" lon="-16.3682120">
        <ele>910.9</ele>
        <time>2020-11-11T10:36:03Z</time>
      </trkpt>
      <trkpt lat="28.4460450" lon="-16.3682700">
        <ele>910.9</ele>
        <time>2020-11-11T10:36:04Z</time>
      </trkpt>
      <trkpt lat="28.4460450" lon="-16.3682700">
        <ele>910.9</ele>
        <time>2020-11-11T10:36:05Z</time>
      </trkpt>
      <trkpt lat="28.4459170" lon="-16.3683200">
        <ele>910.9</ele>
        <time>2020-11-11T10:36:06Z</time>
      </trkpt>
      <trkpt lat="28.4459170" lon="-16.3683200">
        <ele>909.9</ele>
        <time>2020-11-11T10:36:07Z</time>
      </trkpt>
      <trkpt lat="28.4457970" lon="-16.3683520">
        <ele>909.9</ele>
        <time>2020-11-11T10:36:08Z</time>
      </trkpt>
      <trkpt lat="28.4457970" lon="-16.3683520">
        <ele>909.9</ele>
        <time>2020-11-11T10:36:09Z</time>
      </trkpt>
      <trkpt lat="28.4456930" lon="-16.3683720">
        <ele>909.9</ele>
        <time>2020-11-11T10:36:10Z</time>
      </trkpt>
      <trkpt lat="28.4456930" lon="-16.3683720">
        <ele>909.9</ele>
        <time>2020-11-11T10:36:11Z</time>
      </trkpt>
      <trkpt lat="28.4456050" lon="-16.3683880">
        <ele>909.9</ele>
        <time>2020-11-11T10:36:12Z</time>
      </trkpt>
      <trkpt lat="28.4456050" lon="-16.3683880">
        <ele>909.9</ele>
        <time>2020-11-11T10:36:13Z</time>
      </trkpt>
      <trkpt lat="28.4455150" lon="-16.3683930">
        <ele>909.9</ele>
        <time>2020-11-11T10:36:14Z</time>
      </trkpt>
      <trkpt lat="28.4455150" lon="-16.3683930">
        <ele>910.9</ele>
        <time>2020-11-11T10:36:15Z</time>
      </trkpt>
      <trkpt lat="28.4454350" lon="-16.3683780">
        <ele>910.9</ele>
        <time>2020-11-11T10:36:16Z</time>
      </trkpt>
      <trkpt lat="28.4453970" lon="-16.3683720">
        <ele>910.9</ele>
        <time>2020-11-11T10:36:17Z</time>
      </trkpt>
      <trkpt lat="28.4453970" lon="-16.3683720">
        <ele>910.9</ele>
        <time>2020-11-11T10:36:18Z</time>
      </trkpt>
      <trkpt lat="28.4453230" lon="-16.3683580">
        <ele>911.9</ele>
        <time>2020-11-11T10:36:19Z</time>
      </trkpt>
      <trkpt lat="28.4453230" lon="-16.3683580">
        <ele>911.9</ele>
        <time>2020-11-11T10:36:20Z</time>
      </trkpt>
      <trkpt lat="28.4452520" lon="-16.3683420">
        <ele>911.9</ele>
        <time>2020-11-11T10:36:21Z</time>
      </trkpt>
      <trkpt lat="28.4452520" lon="-16.3683420">
        <ele>911.9</ele>
        <time>2020-11-11T10:36:22Z</time>
      </trkpt>
      <trkpt lat="28.4451780" lon="-16.3683250">
        <ele>912.9</ele>
        <time>2020-11-11T10:36:23Z</time>
      </trkpt>
      <trkpt lat="28.4451780" lon="-16.3683250">
        <ele>912.9</ele>
        <time>2020-11-11T10:36:24Z</time>
      </trkpt>
      <trkpt lat="28.4451050" lon="-16.3683070">
        <ele>912.9</ele>
        <time>2020-11-11T10:36:25Z</time>
      </trkpt>
      <trkpt lat="28.4451050" lon="-16.3683070">
        <ele>912.9</ele>
        <time>2020-11-11T10:36:26Z</time>
      </trkpt>
      <trkpt lat="28.4450330" lon="-16.3682870">
        <ele>912.9</ele>
        <time>2020-11-11T10:36:27Z</time>
      </trkpt>
      <trkpt lat="28.4450330" lon="-16.3682870">
        <ele>912.9</ele>
        <time>2020-11-11T10:36:28Z</time>
      </trkpt>
      <trkpt lat="28.4449620" lon="-16.3682730">
        <ele>912.9</ele>
        <time>2020-11-11T10:36:29Z</time>
      </trkpt>
      <trkpt lat="28.4449620" lon="-16.3682730">
        <ele>912.9</ele>
        <time>2020-11-11T10:36:30Z</time>
      </trkpt>
      <trkpt lat="28.4448850" lon="-16.3682700">
        <ele>913.9</ele>
        <time>2020-11-11T10:36:31Z</time>
      </trkpt>
      <trkpt lat="28.4448850" lon="-16.3682700">
        <ele>913.9</ele>
        <time>2020-11-11T10:36:32Z</time>
      </trkpt>
      <trkpt lat="28.4448130" lon="-16.3682720">
        <ele>913.9</ele>
        <time>2020-11-11T10:36:33Z</time>
      </trkpt>
      <trkpt lat="28.4448130" lon="-16.3682720">
        <ele>913.9</ele>
        <time>2020-11-11T10:36:34Z</time>
      </trkpt>
      <trkpt lat="28.4447450" lon="-16.3682850">
        <ele>915.9</ele>
        <time>2020-11-11T10:36:35Z</time>
      </trkpt>
      <trkpt lat="28.4447450" lon="-16.3682850">
        <ele>915.9</ele>
        <time>2020-11-11T10:36:36Z</time>
      </trkpt>
      <trkpt lat="28.4446800" lon="-16.3683120">
        <ele>915.9</ele>
        <time>2020-11-11T10:36:37Z</time>
      </trkpt>
      <trkpt lat="28.4446800" lon="-16.3683120">
        <ele>915.9</ele>
        <time>2020-11-11T10:36:38Z</time>
      </trkpt>
      <trkpt lat="28.4446170" lon="-16.3683500">
        <ele>915.9</ele>
        <time>2020-11-11T10:36:39Z</time>
      </trkpt>
      <trkpt lat="28.4445820" lon="-16.3683680">
        <ele>915.9</ele>
        <time>2020-11-11T10:36:40Z</time>
      </trkpt>
      <trkpt lat="28.4445820" lon="-16.3683680">
        <ele>915.9</ele>
        <time>2020-11-11T10:36:41Z</time>
      </trkpt>
      <trkpt lat="28.4445120" lon="-16.3684030">
        <ele>915.9</ele>
        <time>2020-11-11T10:36:42Z</time>
      </trkpt>
      <trkpt lat="28.4445120" lon="-16.3684030">
        <ele>916.9</ele>
        <time>2020-11-11T10:36:43Z</time>
      </trkpt>
      <trkpt lat="28.4444470" lon="-16.3684470">
        <ele>916.9</ele>
        <time>2020-11-11T10:36:44Z</time>
      </trkpt>
      <trkpt lat="28.4444470" lon="-16.3684470">
        <ele>916.9</ele>
        <time>2020-11-11T10:36:45Z</time>
      </trkpt>
      <trkpt lat="28.4443920" lon="-16.3684980">
        <ele>916.9</ele>
        <time>2020-11-11T10:36:46Z</time>
      </trkpt>
      <trkpt lat="28.4443920" lon="-16.3684980">
        <ele>916.9</ele>
        <time>2020-11-11T10:36:47Z</time>
      </trkpt>
      <trkpt lat="28.4443280" lon="-16.3685450">
        <ele>916.9</ele>
        <time>2020-11-11T10:36:48Z</time>
      </trkpt>
      <trkpt lat="28.4442980" lon="-16.3685670">
        <ele>916.9</ele>
        <time>2020-11-11T10:36:49Z</time>
      </trkpt>
      <trkpt lat="28.4442980" lon="-16.3685670">
        <ele>916.9</ele>
        <time>2020-11-11T10:36:50Z</time>
      </trkpt>
      <trkpt lat="28.4442320" lon="-16.3686030">
        <ele>916.9</ele>
        <time>2020-11-11T10:36:51Z</time>
      </trkpt>
      <trkpt lat="28.4441970" lon="-16.3686230">
        <ele>916.9</ele>
        <time>2020-11-11T10:36:52Z</time>
      </trkpt>
      <trkpt lat="28.4441970" lon="-16.3686230">
        <ele>916.9</ele>
        <time>2020-11-11T10:36:53Z</time>
      </trkpt>
      <trkpt lat="28.4441250" lon="-16.3686650">
        <ele>916.9</ele>
        <time>2020-11-11T10:36:54Z</time>
      </trkpt>
      <trkpt lat="28.4440900" lon="-16.3686820">
        <ele>916.9</ele>
        <time>2020-11-11T10:36:55Z</time>
      </trkpt>
      <trkpt lat="28.4440900" lon="-16.3686820">
        <ele>916.9</ele>
        <time>2020-11-11T10:36:56Z</time>
      </trkpt>
      <trkpt lat="28.4440230" lon="-16.3687250">
        <ele>916.9</ele>
        <time>2020-11-11T10:36:57Z</time>
      </trkpt>
      <trkpt lat="28.4439930" lon="-16.3687470">
        <ele>916.9</ele>
        <time>2020-11-11T10:36:58Z</time>
      </trkpt>
      <trkpt lat="28.4439930" lon="-16.3687470">
        <ele>916.9</ele>
        <time>2020-11-11T10:36:59Z</time>
      </trkpt>
      <trkpt lat="28.4439420" lon="-16.3687870">
        <ele>917.9</ele>
        <time>2020-11-11T10:37:00Z</time>
      </trkpt>
      <trkpt lat="28.4439420" lon="-16.3687870">
        <ele>917.9</ele>
        <time>2020-11-11T10:37:01Z</time>
      </trkpt>
      <trkpt lat="28.4439050" lon="-16.3688380">
        <ele>917.9</ele>
        <time>2020-11-11T10:37:02Z</time>
      </trkpt>
      <trkpt lat="28.4439050" lon="-16.3688380">
        <ele>917.9</ele>
        <time>2020-11-11T10:37:03Z</time>
      </trkpt>
      <trkpt lat="28.4438570" lon="-16.3688800">
        <ele>918.9</ele>
        <time>2020-11-11T10:37:04Z</time>
      </trkpt>
      <trkpt lat="28.4438570" lon="-16.3688800">
        <ele>918.9</ele>
        <time>2020-11-11T10:37:05Z</time>
      </trkpt>
      <trkpt lat="28.4438050" lon="-16.3689180">
        <ele>918.9</ele>
        <time>2020-11-11T10:37:06Z</time>
      </trkpt>
      <trkpt lat="28.4437770" lon="-16.3689320">
        <ele>918.9</ele>
        <time>2020-11-11T10:37:07Z</time>
      </trkpt>
      <trkpt lat="28.4437770" lon="-16.3689320">
        <ele>918.9</ele>
        <time>2020-11-11T10:37:08Z</time>
      </trkpt>
      <trkpt lat="28.4437280" lon="-16.3689620">
        <ele>918.9</ele>
        <time>2020-11-11T10:37:09Z</time>
      </trkpt>
      <trkpt lat="28.4437030" lon="-16.3689780">
        <ele>919.9</ele>
        <time>2020-11-11T10:37:10Z</time>
      </trkpt>
      <trkpt lat="28.4437030" lon="-16.3689780">
        <ele>919.9</ele>
        <time>2020-11-11T10:37:11Z</time>
      </trkpt>
      <trkpt lat="28.4436620" lon="-16.3690130">
        <ele>919.9</ele>
        <time>2020-11-11T10:37:12Z</time>
      </trkpt>
      <trkpt lat="28.4436380" lon="-16.3690270">
        <ele>919.9</ele>
        <time>2020-11-11T10:37:13Z</time>
      </trkpt>
      <trkpt lat="28.4436380" lon="-16.3690270">
        <ele>920.9</ele>
        <time>2020-11-11T10:37:14Z</time>
      </trkpt>
      <trkpt lat="28.4435920" lon="-16.3690500">
        <ele>920.9</ele>
        <time>2020-11-11T10:37:15Z</time>
      </trkpt>
      <trkpt lat="28.4435750" lon="-16.3690680">
        <ele>920.9</ele>
        <time>2020-11-11T10:37:16Z</time>
      </trkpt>
      <trkpt lat="28.4435750" lon="-16.3690680">
        <ele>920.9</ele>
        <time>2020-11-11T10:37:17Z</time>
      </trkpt>
      <trkpt lat="28.4435350" lon="-16.3690980">
        <ele>921.9</ele>
        <time>2020-11-11T10:37:18Z</time>
      </trkpt>
      <trkpt lat="28.4435350" lon="-16.3690980">
        <ele>921.9</ele>
        <time>2020-11-11T10:37:19Z</time>
      </trkpt>
      <trkpt lat="28.4434920" lon="-16.3691270">
        <ele>921.9</ele>
        <time>2020-11-11T10:37:20Z</time>
      </trkpt>
      <trkpt lat="28.4434920" lon="-16.3691270">
        <ele>921.9</ele>
        <time>2020-11-11T10:37:21Z</time>
      </trkpt>
      <trkpt lat="28.4434480" lon="-16.3691520">
        <ele>921.9</ele>
        <time>2020-11-11T10:37:22Z</time>
      </trkpt>
      <trkpt lat="28.4434270" lon="-16.3691670">
        <ele>922.9</ele>
        <time>2020-11-11T10:37:23Z</time>
      </trkpt>
      <trkpt lat="28.4434080" lon="-16.3691850">
        <ele>922.9</ele>
        <time>2020-11-11T10:37:24Z</time>
      </trkpt>
      <trkpt lat="28.4434080" lon="-16.3691850">
        <ele>922.9</ele>
        <time>2020-11-11T10:37:25Z</time>
      </trkpt>
      <trkpt lat="28.4433700" lon="-16.3692200">
        <ele>922.9</ele>
        <time>2020-11-11T10:37:26Z</time>
      </trkpt>
      <trkpt lat="28.4433700" lon="-16.3692200">
        <ele>922.9</ele>
        <time>2020-11-11T10:37:27Z</time>
      </trkpt>
      <trkpt lat="28.4433320" lon="-16.3692530">
        <ele>922.9</ele>
        <time>2020-11-11T10:37:28Z</time>
      </trkpt>
      <trkpt lat="28.4433120" lon="-16.3692720">
        <ele>922.9</ele>
        <time>2020-11-11T10:37:29Z</time>
      </trkpt>
      <trkpt lat="28.4433120" lon="-16.3692720">
        <ele>922.9</ele>
        <time>2020-11-11T10:37:30Z</time>
      </trkpt>
      <trkpt lat="28.4432730" lon="-16.3693070">
        <ele>924.9</ele>
        <time>2020-11-11T10:37:31Z</time>
      </trkpt>
      <trkpt lat="28.4432730" lon="-16.3693070">
        <ele>924.9</ele>
        <time>2020-11-11T10:37:32Z</time>
      </trkpt>
      <trkpt lat="28.4432350" lon="-16.3693450">
        <ele>924.9</ele>
        <time>2020-11-11T10:37:33Z</time>
      </trkpt>
      <trkpt lat="28.4432150" lon="-16.3693650">
        <ele>924.9</ele>
        <time>2020-11-11T10:37:34Z</time>
      </trkpt>
      <trkpt lat="28.4432150" lon="-16.3693650">
        <ele>924.9</ele>
        <time>2020-11-11T10:37:35Z</time>
      </trkpt>
      <trkpt lat="28.4431750" lon="-16.3694070">
        <ele>924.9</ele>
        <time>2020-11-11T10:37:36Z</time>
      </trkpt>
      <trkpt lat="28.4431530" lon="-16.3694320">
        <ele>924.9</ele>
        <time>2020-11-11T10:37:37Z</time>
      </trkpt>
      <trkpt lat="28.4431530" lon="-16.3694320">
        <ele>924.9</ele>
        <time>2020-11-11T10:37:38Z</time>
      </trkpt>
      <trkpt lat="28.4431150" lon="-16.3694780">
        <ele>924.9</ele>
        <time>2020-11-11T10:37:39Z</time>
      </trkpt>
      <trkpt lat="28.4430980" lon="-16.3695000">
        <ele>924.9</ele>
        <time>2020-11-11T10:37:40Z</time>
      </trkpt>
      <trkpt lat="28.4430980" lon="-16.3695000">
        <ele>924.9</ele>
        <time>2020-11-11T10:37:41Z</time>
      </trkpt>
      <trkpt lat="28.4430570" lon="-16.3695420">
        <ele>924.9</ele>
        <time>2020-11-11T10:37:42Z</time>
      </trkpt>
      <trkpt lat="28.4430320" lon="-16.3695570">
        <ele>924.9</ele>
        <time>2020-11-11T10:37:43Z</time>
      </trkpt>
      <trkpt lat="28.4430320" lon="-16.3695570">
        <ele>924.9</ele>
        <time>2020-11-11T10:37:44Z</time>
      </trkpt>
      <trkpt lat="28.4429830" lon="-16.3695770">
        <ele>925.9</ele>
        <time>2020-11-11T10:37:45Z</time>
      </trkpt>
      <trkpt lat="28.4429580" lon="-16.3695850">
        <ele>925.9</ele>
        <time>2020-11-11T10:37:46Z</time>
      </trkpt>
      <trkpt lat="28.4429580" lon="-16.3695850">
        <ele>925.9</ele>
        <time>2020-11-11T10:37:47Z</time>
      </trkpt>
      <trkpt lat="28.4429100" lon="-16.3695920">
        <ele>925.9</ele>
        <time>2020-11-11T10:37:48Z</time>
      </trkpt>
      <trkpt lat="28.4428880" lon="-16.3695820">
        <ele>925.9</ele>
        <time>2020-11-11T10:37:49Z</time>
      </trkpt>
      <trkpt lat="28.4428880" lon="-16.3695820">
        <ele>925.9</ele>
        <time>2020-11-11T10:37:50Z</time>
      </trkpt>
      <trkpt lat="28.4428450" lon="-16.3695480">
        <ele>925.9</ele>
        <time>2020-11-11T10:37:51Z</time>
      </trkpt>
      <trkpt lat="28.4428280" lon="-16.3695280">
        <ele>925.9</ele>
        <time>2020-11-11T10:37:52Z</time>
      </trkpt>
      <trkpt lat="28.4428280" lon="-16.3695280">
        <ele>925.9</ele>
        <time>2020-11-11T10:37:53Z</time>
      </trkpt>
      <trkpt lat="28.4427980" lon="-16.3694800">
        <ele>925.9</ele>
        <time>2020-11-11T10:37:54Z</time>
      </trkpt>
      <trkpt lat="28.4427880" lon="-16.3694580">
        <ele>925.9</ele>
        <time>2020-11-11T10:37:55Z</time>
      </trkpt>
      <trkpt lat="28.4427880" lon="-16.3694580">
        <ele>925.9</ele>
        <time>2020-11-11T10:37:56Z</time>
      </trkpt>
      <trkpt lat="28.4427770" lon="-16.3694400">
        <ele>925.9</ele>
        <time>2020-11-11T10:37:57Z</time>
      </trkpt>
      <trkpt lat="28.4427720" lon="-16.3694350">
        <ele>925.9</ele>
        <time>2020-11-11T10:37:58Z</time>
      </trkpt>
      <trkpt lat="28.4427680" lon="-16.3694320">
        <ele>925.9</ele>
        <time>2020-11-11T10:37:59Z</time>
      </trkpt>
      <trkpt lat="28.4427680" lon="-16.3694320">
        <ele>925.9</ele>
        <time>2020-11-11T10:38:00Z</time>
      </trkpt>
      <trkpt lat="28.4428150" lon="-16.3694030">
        <ele>925.9</ele>
        <time>2020-11-11T10:38:46Z</time>
      </trkpt>
      <trkpt lat="28.4428150" lon="-16.3694030">
        <ele>925.9</ele>
        <time>2020-11-11T10:38:47Z</time>
      </trkpt>
      <trkpt lat="28.4428220" lon="-16.3694080">
        <ele>925.9</ele>
        <time>2020-11-11T10:38:48Z</time>
      </trkpt>
      <trkpt lat="28.4428220" lon="-16.3694080">
        <ele>925.9</ele>
        <time>2020-11-11T10:46:12Z</time>
      </trkpt>
      <trkpt lat="28.4427230" lon="-16.3694520">
        <ele>925.9</ele>
        <time>2020-11-11T10:46:13Z</time>
      </trkpt>
      <trkpt lat="28.4427230" lon="-16.3694520">
        <ele>925.9</ele>
        <time>2020-11-11T10:46:14Z</time>
      </trkpt>
      <trkpt lat="28.4427230" lon="-16.3694520">
        <ele>925.9</ele>
        <time>2020-11-11T10:46:15Z</time>
      </trkpt>
      <trkpt lat="28.4427250" lon="-16.3694270">
        <ele>926.9</ele>
        <time>2020-11-11T10:46:16Z</time>
      </trkpt>
      <trkpt lat="28.4427130" lon="-16.3694080">
        <ele>926.9</ele>
        <time>2020-11-11T10:46:17Z</time>
      </trkpt>
      <trkpt lat="28.4427130" lon="-16.3694080">
        <ele>926.9</ele>
        <time>2020-11-11T10:46:18Z</time>
      </trkpt>
      <trkpt lat="28.4427020" lon="-16.3693980">
        <ele>926.9</ele>
        <time>2020-11-11T10:46:19Z</time>
      </trkpt>
      <trkpt lat="28.4427020" lon="-16.3693980">
        <ele>926.9</ele>
        <time>2020-11-11T10:46:20Z</time>
      </trkpt>
      <trkpt lat="28.4426900" lon="-16.3693880">
        <ele>926.9</ele>
        <time>2020-11-11T10:46:21Z</time>
      </trkpt>
      <trkpt lat="28.4426820" lon="-16.3693880">
        <ele>926.9</ele>
        <time>2020-11-11T10:46:22Z</time>
      </trkpt>
      <trkpt lat="28.4426750" lon="-16.3693900">
        <ele>926.9</ele>
        <time>2020-11-11T10:46:23Z</time>
      </trkpt>
      <trkpt lat="28.4426750" lon="-16.3693900">
        <ele>926.9</ele>
        <time>2020-11-11T10:46:24Z</time>
      </trkpt>
      <trkpt lat="28.4426680" lon="-16.3693930">
        <ele>926.9</ele>
        <time>2020-11-11T10:46:25Z</time>
      </trkpt>
      <trkpt lat="28.4426680" lon="-16.3693930">
        <ele>926.9</ele>
        <time>2020-11-11T10:46:26Z</time>
      </trkpt>
      <trkpt lat="28.4426680" lon="-16.3693920">
        <ele>926.9</ele>
        <time>2020-11-11T10:46:27Z</time>
      </trkpt>
      <trkpt lat="28.4426680" lon="-16.3693920">
        <ele>926.9</ele>
        <time>2020-11-11T10:46:28Z</time>
      </trkpt>
      <trkpt lat="28.4426680" lon="-16.3693920">
        <ele>926.9</ele>
        <time>2020-11-11T10:46:29Z</time>
      </trkpt>
      <trkpt lat="28.4426680" lon="-16.3693920">
        <ele>926.9</ele>
        <time>2020-11-11T11:03:36Z</time>
      </trkpt>
      <trkpt lat="28.4426870" lon="-16.3694230">
        <ele>926.9</ele>
        <time>2020-11-11T11:03:37Z</time>
      </trkpt>
      <trkpt lat="28.4426930" lon="-16.3694230">
        <ele>926.9</ele>
        <time>2020-11-11T11:03:38Z</time>
      </trkpt>
      <trkpt lat="28.4426930" lon="-16.3694230">
        <ele>926.9</ele>
        <time>2020-11-11T11:03:39Z</time>
      </trkpt>
      <trkpt lat="28.4426950" lon="-16.3694220">
        <ele>926.9</ele>
        <time>2020-11-11T11:03:40Z</time>
      </trkpt>
      <trkpt lat="28.4426950" lon="-16.3694220">
        <ele>926.9</ele>
        <time>2020-11-11T11:03:41Z</time>
      </trkpt>
      <trkpt lat="28.4426950" lon="-16.3694220">
        <ele>926.9</ele>
        <time>2020-11-11T11:03:54Z</time>
      </trkpt>
      <trkpt lat="28.4427280" lon="-16.3694230">
        <ele>926.9</ele>
        <time>2020-11-11T11:03:55Z</time>
      </trkpt>
      <trkpt lat="28.4427300" lon="-16.3694230">
        <ele>926.9</ele>
        <time>2020-11-11T11:03:56Z</time>
      </trkpt>
      <trkpt lat="28.4427300" lon="-16.3694230">
        <ele>926.9</ele>
        <time>2020-11-11T11:03:57Z</time>
      </trkpt>
      <trkpt lat="28.4427300" lon="-16.3694230">
        <ele>926.9</ele>
        <time>2020-11-11T11:03:58Z</time>
      </trkpt>
      <trkpt lat="28.4427300" lon="-16.3694230">
        <ele>926.9</ele>
        <time>2020-11-11T11:03:59Z</time>
      </trkpt>
      <trkpt lat="28.4427530" lon="-16.3694320">
        <ele>926.9</ele>
        <time>2020-11-11T11:04:12Z</time>
      </trkpt>
      <trkpt lat="28.4427530" lon="-16.3694320">
        <ele>926.9</ele>
        <time>2020-11-11T11:04:13Z</time>
      </trkpt>
      <trkpt lat="28.4427780" lon="-16.3694430">
        <ele>926.9</ele>
        <time>2020-11-11T11:04:14Z</time>
      </trkpt>
      <trkpt lat="28.4427930" lon="-16.3694520">
        <ele>926.9</ele>
        <time>2020-11-11T11:04:15Z</time>
      </trkpt>
      <trkpt lat="28.4427930" lon="-16.3694520">
        <ele>926.9</ele>
        <time>2020-11-11T11:04:16Z</time>
      </trkpt>
      <trkpt lat="28.4428230" lon="-16.3694800">
        <ele>926.9</ele>
        <time>2020-11-11T11:04:17Z</time>
      </trkpt>
      <trkpt lat="28.4428400" lon="-16.3694950">
        <ele>926.9</ele>
        <time>2020-11-11T11:04:18Z</time>
      </trkpt>
      <trkpt lat="28.4428530" lon="-16.3695080">
        <ele>926.9</ele>
        <time>2020-11-11T11:04:19Z</time>
      </trkpt>
      <trkpt lat="28.4428530" lon="-16.3695080">
        <ele>926.9</ele>
        <time>2020-11-11T11:04:20Z</time>
      </trkpt>
      <trkpt lat="28.4428800" lon="-16.3695320">
        <ele>926.9</ele>
        <time>2020-11-11T11:04:21Z</time>
      </trkpt>
      <trkpt lat="28.4428800" lon="-16.3695320">
        <ele>926.9</ele>
        <time>2020-11-11T11:04:22Z</time>
      </trkpt>
      <trkpt lat="28.4429070" lon="-16.3695570">
        <ele>926.9</ele>
        <time>2020-11-11T11:04:23Z</time>
      </trkpt>
      <trkpt lat="28.4429220" lon="-16.3695630">
        <ele>926.9</ele>
        <time>2020-11-11T11:04:24Z</time>
      </trkpt>
      <trkpt lat="28.4429220" lon="-16.3695630">
        <ele>926.9</ele>
        <time>2020-11-11T11:04:25Z</time>
      </trkpt>
      <trkpt lat="28.4429620" lon="-16.3695670">
        <ele>926.9</ele>
        <time>2020-11-11T11:04:26Z</time>
      </trkpt>
      <trkpt lat="28.4429620" lon="-16.3695670">
        <ele>926.9</ele>
        <time>2020-11-11T11:04:27Z</time>
      </trkpt>
      <trkpt lat="28.4429930" lon="-16.3695550">
        <ele>926.9</ele>
        <time>2020-11-11T11:04:28Z</time>
      </trkpt>
      <trkpt lat="28.4429930" lon="-16.3695550">
        <ele>926.9</ele>
        <time>2020-11-11T11:04:29Z</time>
      </trkpt>
      <trkpt lat="28.4429930" lon="-16.3695550">
        <ele>926.9</ele>
        <time>2020-11-11T11:04:30Z</time>
      </trkpt>
      <trkpt lat="28.4430220" lon="-16.3695300">
        <ele>926.9</ele>
        <time>2020-11-11T11:04:31Z</time>
      </trkpt>
      <trkpt lat="28.4430470" lon="-16.3694880">
        <ele>926.9</ele>
        <time>2020-11-11T11:04:32Z</time>
      </trkpt>
      <trkpt lat="28.4430630" lon="-16.3694670">
        <ele>926.9</ele>
        <time>2020-11-11T11:04:33Z</time>
      </trkpt>
      <trkpt lat="28.4430820" lon="-16.3694430">
        <ele>926.9</ele>
        <time>2020-11-11T11:04:34Z</time>
      </trkpt>
      <trkpt lat="28.4430820" lon="-16.3694430">
        <ele>926.9</ele>
        <time>2020-11-11T11:04:35Z</time>
      </trkpt>
      <trkpt lat="28.4431130" lon="-16.3693770">
        <ele>926.9</ele>
        <time>2020-11-11T11:04:36Z</time>
      </trkpt>
      <trkpt lat="28.4431330" lon="-16.3693430">
        <ele>926.9</ele>
        <time>2020-11-11T11:04:37Z</time>
      </trkpt>
      <trkpt lat="28.4431330" lon="-16.3693430">
        <ele>926.9</ele>
        <time>2020-11-11T11:04:38Z</time>
      </trkpt>
      <trkpt lat="28.4431930" lon="-16.3692800">
        <ele>926.9</ele>
        <time>2020-11-11T11:04:39Z</time>
      </trkpt>
      <trkpt lat="28.4431930" lon="-16.3692800">
        <ele>926.9</ele>
        <time>2020-11-11T11:04:40Z</time>
      </trkpt>
      <trkpt lat="28.4432620" lon="-16.3692130">
        <ele>925.9</ele>
        <time>2020-11-11T11:04:41Z</time>
      </trkpt>
      <trkpt lat="28.4433030" lon="-16.3691850">
        <ele>925.9</ele>
        <time>2020-11-11T11:04:42Z</time>
      </trkpt>
      <trkpt lat="28.4433030" lon="-16.3691850">
        <ele>925.9</ele>
        <time>2020-11-11T11:04:43Z</time>
      </trkpt>
      <trkpt lat="28.4433970" lon="-16.3691300">
        <ele>925.9</ele>
        <time>2020-11-11T11:04:44Z</time>
      </trkpt>
      <trkpt lat="28.4433970" lon="-16.3691300">
        <ele>924.9</ele>
        <time>2020-11-11T11:04:45Z</time>
      </trkpt>
      <trkpt lat="28.4435030" lon="-16.3690680">
        <ele>924.9</ele>
        <time>2020-11-11T11:04:46Z</time>
      </trkpt>
      <trkpt lat="28.4435600" lon="-16.3690350">
        <ele>924.9</ele>
        <time>2020-11-11T11:04:47Z</time>
      </trkpt>
      <trkpt lat="28.4435600" lon="-16.3690350">
        <ele>924.9</ele>
        <time>2020-11-11T11:04:48Z</time>
      </trkpt>
      <trkpt lat="28.4436750" lon="-16.3689570">
        <ele>923.9</ele>
        <time>2020-11-11T11:04:49Z</time>
      </trkpt>
      <trkpt lat="28.4436750" lon="-16.3689570">
        <ele>922.9</ele>
        <time>2020-11-11T11:04:50Z</time>
      </trkpt>
      <trkpt lat="28.4438020" lon="-16.3688750">
        <ele>922.9</ele>
        <time>2020-11-11T11:04:51Z</time>
      </trkpt>
      <trkpt lat="28.4438020" lon="-16.3688750">
        <ele>922.9</ele>
        <time>2020-11-11T11:04:52Z</time>
      </trkpt>
      <trkpt lat="28.4439230" lon="-16.3688020">
        <ele>922.9</ele>
        <time>2020-11-11T11:04:53Z</time>
      </trkpt>
      <trkpt lat="28.4439230" lon="-16.3688020">
        <ele>920.9</ele>
        <time>2020-11-11T11:04:54Z</time>
      </trkpt>
      <trkpt lat="28.4440330" lon="-16.3687350">
        <ele>920.9</ele>
        <time>2020-11-11T11:04:55Z</time>
      </trkpt>
      <trkpt lat="28.4440880" lon="-16.3686950">
        <ele>920.9</ele>
        <time>2020-11-11T11:04:56Z</time>
      </trkpt>
      <trkpt lat="28.4440880" lon="-16.3686950">
        <ele>920.9</ele>
        <time>2020-11-11T11:04:57Z</time>
      </trkpt>
      <trkpt lat="28.4442030" lon="-16.3686070">
        <ele>919.9</ele>
        <time>2020-11-11T11:04:58Z</time>
      </trkpt>
      <trkpt lat="28.4442650" lon="-16.3685600">
        <ele>919.9</ele>
        <time>2020-11-11T11:04:59Z</time>
      </trkpt>
      <trkpt lat="28.4442650" lon="-16.3685600">
        <ele>919.9</ele>
        <time>2020-11-11T11:05:00Z</time>
      </trkpt>
      <trkpt lat="28.4443870" lon="-16.3684700">
        <ele>919.9</ele>
        <time>2020-11-11T11:05:01Z</time>
      </trkpt>
      <trkpt lat="28.4443870" lon="-16.3684700">
        <ele>918.9</ele>
        <time>2020-11-11T11:05:02Z</time>
      </trkpt>
      <trkpt lat="28.4445120" lon="-16.3683750">
        <ele>918.9</ele>
        <time>2020-11-11T11:05:03Z</time>
      </trkpt>
      <trkpt lat="28.4445730" lon="-16.3683320">
        <ele>918.9</ele>
        <time>2020-11-11T11:05:04Z</time>
      </trkpt>
      <trkpt lat="28.4445730" lon="-16.3683320">
        <ele>918.9</ele>
        <time>2020-11-11T11:05:05Z</time>
      </trkpt>
      <trkpt lat="28.4447100" lon="-16.3682670">
        <ele>918.9</ele>
        <time>2020-11-11T11:05:06Z</time>
      </trkpt>
      <trkpt lat="28.4447820" lon="-16.3682500">
        <ele>918.9</ele>
        <time>2020-11-11T11:05:07Z</time>
      </trkpt>
      <trkpt lat="28.4447820" lon="-16.3682500">
        <ele>917.9</ele>
        <time>2020-11-11T11:05:08Z</time>
      </trkpt>
      <trkpt lat="28.4449250" lon="-16.3682400">
        <ele>917.9</ele>
        <time>2020-11-11T11:05:09Z</time>
      </trkpt>
      <trkpt lat="28.4449900" lon="-16.3682450">
        <ele>917.9</ele>
        <time>2020-11-11T11:05:10Z</time>
      </trkpt>
      <trkpt lat="28.4450520" lon="-16.3682570">
        <ele>917.9</ele>
        <time>2020-11-11T11:05:11Z</time>
      </trkpt>
      <trkpt lat="28.4450520" lon="-16.3682570">
        <ele>916.9</ele>
        <time>2020-11-11T11:05:12Z</time>
      </trkpt>
      <trkpt lat="28.4450520" lon="-16.3682570">
        <ele>916.9</ele>
        <time>2020-11-11T11:05:13Z</time>
      </trkpt>
      <trkpt lat="28.4451780" lon="-16.3682830">
        <ele>916.9</ele>
        <time>2020-11-11T11:05:14Z</time>
      </trkpt>
      <trkpt lat="28.4453220" lon="-16.3683150">
        <ele>916.9</ele>
        <time>2020-11-11T11:05:15Z</time>
      </trkpt>
      <trkpt lat="28.4453950" lon="-16.3683280">
        <ele>915.9</ele>
        <time>2020-11-11T11:05:16Z</time>
      </trkpt>
      <trkpt lat="28.4453950" lon="-16.3683280">
        <ele>915.9</ele>
        <time>2020-11-11T11:05:17Z</time>
      </trkpt>
      <trkpt lat="28.4455400" lon="-16.3683520">
        <ele>914.9</ele>
        <time>2020-11-11T11:05:18Z</time>
      </trkpt>
      <trkpt lat="28.4455400" lon="-16.3683520">
        <ele>914.9</ele>
        <time>2020-11-11T11:05:19Z</time>
      </trkpt>
      <trkpt lat="28.4456770" lon="-16.3683670">
        <ele>913.9</ele>
        <time>2020-11-11T11:05:20Z</time>
      </trkpt>
      <trkpt lat="28.4457400" lon="-16.3683500">
        <ele>913.9</ele>
        <time>2020-11-11T11:05:21Z</time>
      </trkpt>
      <trkpt lat="28.4457400" lon="-16.3683500">
        <ele>913.9</ele>
        <time>2020-11-11T11:05:22Z</time>
      </trkpt>
      <trkpt lat="28.4458600" lon="-16.3682720">
        <ele>913.9</ele>
        <time>2020-11-11T11:05:23Z</time>
      </trkpt>
      <trkpt lat="28.4458600" lon="-16.3682720">
        <ele>912.9</ele>
        <time>2020-11-11T11:05:24Z</time>
      </trkpt>
      <trkpt lat="28.4459570" lon="-16.3681420">
        <ele>912.9</ele>
        <time>2020-11-11T11:05:25Z</time>
      </trkpt>
      <trkpt lat="28.4459570" lon="-16.3681420">
        <ele>911.9</ele>
        <time>2020-11-11T11:05:26Z</time>
      </trkpt>
      <trkpt lat="28.4460030" lon="-16.3679600">
        <ele>911.9</ele>
        <time>2020-11-11T11:05:27Z</time>
      </trkpt>
      <trkpt lat="28.4460080" lon="-16.3678680">
        <ele>911.9</ele>
        <time>2020-11-11T11:05:28Z</time>
      </trkpt>
      <trkpt lat="28.4460030" lon="-16.3677830">
        <ele>909.9</ele>
        <time>2020-11-11T11:05:29Z</time>
      </trkpt>
      <trkpt lat="28.4460030" lon="-16.3677830">
        <ele>909.9</ele>
        <time>2020-11-11T11:05:30Z</time>
      </trkpt>
      <trkpt lat="28.4459870" lon="-16.3676530">
        <ele>908.9</ele>
        <time>2020-11-11T11:05:31Z</time>
      </trkpt>
      <trkpt lat="28.4459870" lon="-16.3676530">
        <ele>908.9</ele>
        <time>2020-11-11T11:05:32Z</time>
      </trkpt>
      <trkpt lat="28.4459920" lon="-16.3675630">
        <ele>908.9</ele>
        <time>2020-11-11T11:05:33Z</time>
      </trkpt>
      <trkpt lat="28.4459920" lon="-16.3675630">
        <ele>908.9</ele>
        <time>2020-11-11T11:05:34Z</time>
      </trkpt>
      <trkpt lat="28.4460330" lon="-16.3675570">
        <ele>908.9</ele>
        <time>2020-11-11T11:05:35Z</time>
      </trkpt>
      <trkpt lat="28.4460380" lon="-16.3675980">
        <ele>908.9</ele>
        <time>2020-11-11T11:05:36Z</time>
      </trkpt>
      <trkpt lat="28.4460440" lon="-16.3676390">
        <ele>908.9</ele>
        <time>2020-11-11T11:05:37Z</time>
      </trkpt>
      <trkpt lat="28.4460490" lon="-16.3676810">
        <ele>908.9</ele>
        <time>2020-11-11T11:05:38Z</time>
      </trkpt>
      <trkpt lat="28.4460540" lon="-16.3677220">
        <ele>908.9</ele>
        <time>2020-11-11T11:05:39Z</time>
      </trkpt>
      <trkpt lat="28.4460590" lon="-16.3677630">
        <ele>908.9</ele>
        <time>2020-11-11T11:05:40Z</time>
      </trkpt>
      <trkpt lat="28.4460650" lon="-16.3678040">
        <ele>908.9</ele>
        <time>2020-11-11T11:05:41Z</time>
      </trkpt>
      <trkpt lat="28.4460700" lon="-16.3678460">
        <ele>908.9</ele>
        <time>2020-11-11T11:05:42Z</time>
      </trkpt>
      <trkpt lat="28.4460750" lon="-16.3678870">
        <ele>908.9</ele>
        <time>2020-11-11T11:05:43Z</time>
      </trkpt>
      <trkpt lat="28.4460750" lon="-16.3678870">
        <ele>908.9</ele>
        <time>2020-11-11T11:05:44Z</time>
      </trkpt>
      <trkpt lat="28.4460900" lon="-16.3679830">
        <ele>908.9</ele>
        <time>2020-11-11T11:05:45Z</time>
      </trkpt>
      <trkpt lat="28.4460900" lon="-16.3679830">
        <ele>908.9</ele>
        <time>2020-11-11T11:05:46Z</time>
      </trkpt>
      <trkpt lat="28.4461180" lon="-16.3680680">
        <ele>908.9</ele>
        <time>2020-11-11T11:05:47Z</time>
      </trkpt>
      <trkpt lat="28.4461480" lon="-16.3681000">
        <ele>908.9</ele>
        <time>2020-11-11T11:05:48Z</time>
      </trkpt>
      <trkpt lat="28.4461480" lon="-16.3681000">
        <ele>908.9</ele>
        <time>2020-11-11T11:05:49Z</time>
      </trkpt>
      <trkpt lat="28.4462230" lon="-16.3681250">
        <ele>908.9</ele>
        <time>2020-11-11T11:05:50Z</time>
      </trkpt>
      <trkpt lat="28.4462230" lon="-16.3681250">
        <ele>909.9</ele>
        <time>2020-11-11T11:05:51Z</time>
      </trkpt>
      <trkpt lat="28.4462930" lon="-16.3681120">
        <ele>909.9</ele>
        <time>2020-11-11T11:05:52Z</time>
      </trkpt>
      <trkpt lat="28.4463270" lon="-16.3680950">
        <ele>910.9</ele>
        <time>2020-11-11T11:05:53Z</time>
      </trkpt>
      <trkpt lat="28.4463270" lon="-16.3680950">
        <ele>910.9</ele>
        <time>2020-11-11T11:05:54Z</time>
      </trkpt>
      <trkpt lat="28.4463850" lon="-16.3680450">
        <ele>910.9</ele>
        <time>2020-11-11T11:05:55Z</time>
      </trkpt>
      <trkpt lat="28.4463850" lon="-16.3680450">
        <ele>910.9</ele>
        <time>2020-11-11T11:05:56Z</time>
      </trkpt>
      <trkpt lat="28.4464300" lon="-16.3679850">
        <ele>911.9</ele>
        <time>2020-11-11T11:05:57Z</time>
      </trkpt>
      <trkpt lat="28.4464550" lon="-16.3679570">
        <ele>911.9</ele>
        <time>2020-11-11T11:05:58Z</time>
      </trkpt>
      <trkpt lat="28.4464850" lon="-16.3679320">
        <ele>911.9</ele>
        <time>2020-11-11T11:05:59Z</time>
      </trkpt>
      <trkpt lat="28.4464850" lon="-16.3679320">
        <ele>911.9</ele>
        <time>2020-11-11T11:06:00Z</time>
      </trkpt>
      <trkpt lat="28.4465470" lon="-16.3678950">
        <ele>913.9</ele>
        <time>2020-11-11T11:06:01Z</time>
      </trkpt>
      <trkpt lat="28.4465470" lon="-16.3678950">
        <ele>913.9</ele>
        <time>2020-11-11T11:06:02Z</time>
      </trkpt>
      <trkpt lat="28.4465470" lon="-16.3678950">
        <ele>913.9</ele>
        <time>2020-11-11T11:06:03Z</time>
      </trkpt>
      <trkpt lat="28.4466100" lon="-16.3678700">
        <ele>913.9</ele>
        <time>2020-11-11T11:06:04Z</time>
      </trkpt>
      <trkpt lat="28.4466700" lon="-16.3678330">
        <ele>913.9</ele>
        <time>2020-11-11T11:06:05Z</time>
      </trkpt>
      <trkpt lat="28.4466700" lon="-16.3678330">
        <ele>913.9</ele>
        <time>2020-11-11T11:06:06Z</time>
      </trkpt>
      <trkpt lat="28.4467020" lon="-16.3677570">
        <ele>913.9</ele>
        <time>2020-11-11T11:06:07Z</time>
      </trkpt>
      <trkpt lat="28.4467020" lon="-16.3677570">
        <ele>913.9</ele>
        <time>2020-11-11T11:06:08Z</time>
      </trkpt>
      <trkpt lat="28.4467250" lon="-16.3676620">
        <ele>913.9</ele>
        <time>2020-11-11T11:06:09Z</time>
      </trkpt>
      <trkpt lat="28.4467250" lon="-16.3676620">
        <ele>913.9</ele>
        <time>2020-11-11T11:06:10Z</time>
      </trkpt>
      <trkpt lat="28.4467520" lon="-16.3675750">
        <ele>913.9</ele>
        <time>2020-11-11T11:06:11Z</time>
      </trkpt>
      <trkpt lat="28.4467520" lon="-16.3675750">
        <ele>913.9</ele>
        <time>2020-11-11T11:06:12Z</time>
      </trkpt>
      <trkpt lat="28.4467830" lon="-16.3674650">
        <ele>913.9</ele>
        <time>2020-11-11T11:06:13Z</time>
      </trkpt>
      <trkpt lat="28.4467830" lon="-16.3674650">
        <ele>913.9</ele>
        <time>2020-11-11T11:06:14Z</time>
      </trkpt>
      <trkpt lat="28.4468180" lon="-16.3673420">
        <ele>913.9</ele>
        <time>2020-11-11T11:06:15Z</time>
      </trkpt>
      <trkpt lat="28.4468180" lon="-16.3673420">
        <ele>913.9</ele>
        <time>2020-11-11T11:06:16Z</time>
      </trkpt>
      <trkpt lat="28.4468580" lon="-16.3672050">
        <ele>913.9</ele>
        <time>2020-11-11T11:06:17Z</time>
      </trkpt>
      <trkpt lat="28.4468750" lon="-16.3671330">
        <ele>913.9</ele>
        <time>2020-11-11T11:06:18Z</time>
      </trkpt>
      <trkpt lat="28.4468920" lon="-16.3670580">
        <ele>913.9</ele>
        <time>2020-11-11T11:06:19Z</time>
      </trkpt>
      <trkpt lat="28.4468920" lon="-16.3670580">
        <ele>913.9</ele>
        <time>2020-11-11T11:06:20Z</time>
      </trkpt>
      <trkpt lat="28.4469030" lon="-16.3669030">
        <ele>912.9</ele>
        <time>2020-11-11T11:06:21Z</time>
      </trkpt>
      <trkpt lat="28.4469030" lon="-16.3669030">
        <ele>912.9</ele>
        <time>2020-11-11T11:06:22Z</time>
      </trkpt>
      <trkpt lat="28.4468850" lon="-16.3667520">
        <ele>912.9</ele>
        <time>2020-11-11T11:06:23Z</time>
      </trkpt>
      <trkpt lat="28.4468850" lon="-16.3667520">
        <ele>912.9</ele>
        <time>2020-11-11T11:06:24Z</time>
      </trkpt>
      <trkpt lat="28.4468850" lon="-16.3667520">
        <ele>912.9</ele>
        <time>2020-11-11T11:06:25Z</time>
      </trkpt>
      <trkpt lat="28.4468430" lon="-16.3665970">
        <ele>911.9</ele>
        <time>2020-11-11T11:06:26Z</time>
      </trkpt>
      <trkpt lat="28.4467830" lon="-16.3664520">
        <ele>911.9</ele>
        <time>2020-11-11T11:06:27Z</time>
      </trkpt>
      <trkpt lat="28.4467450" lon="-16.3663800">
        <ele>910.9</ele>
        <time>2020-11-11T11:06:28Z</time>
      </trkpt>
      <trkpt lat="28.4467450" lon="-16.3663800">
        <ele>910.9</ele>
        <time>2020-11-11T11:06:29Z</time>
      </trkpt>
      <trkpt lat="28.4466830" lon="-16.3662650">
        <ele>909.9</ele>
        <time>2020-11-11T11:06:30Z</time>
      </trkpt>
      <trkpt lat="28.4466600" lon="-16.3662250">
        <ele>909.9</ele>
        <time>2020-11-11T11:06:31Z</time>
      </trkpt>
      <trkpt lat="28.4466600" lon="-16.3662250">
        <ele>908.9</ele>
        <time>2020-11-11T11:06:32Z</time>
      </trkpt>
      <trkpt lat="28.4466230" lon="-16.3661720">
        <ele>908.9</ele>
        <time>2020-11-11T11:06:33Z</time>
      </trkpt>
      <trkpt lat="28.4466220" lon="-16.3661500">
        <ele>908.9</ele>
        <time>2020-11-11T11:06:34Z</time>
      </trkpt>
      <trkpt lat="28.4466220" lon="-16.3661500">
        <ele>907.9</ele>
        <time>2020-11-11T11:06:35Z</time>
      </trkpt>
      <trkpt lat="28.4466580" lon="-16.3661330">
        <ele>907.9</ele>
        <time>2020-11-11T11:06:36Z</time>
      </trkpt>
      <trkpt lat="28.4466580" lon="-16.3661330">
        <ele>906.9</ele>
        <time>2020-11-11T11:06:37Z</time>
      </trkpt>
      <trkpt lat="28.4466830" lon="-16.3661720">
        <ele>906.9</ele>
        <time>2020-11-11T11:06:38Z</time>
      </trkpt>
      <trkpt lat="28.4466880" lon="-16.3662000">
        <ele>906.9</ele>
        <time>2020-11-11T11:06:39Z</time>
      </trkpt>
      <trkpt lat="28.4466880" lon="-16.3662000">
        <ele>906.9</ele>
        <time>2020-11-11T11:06:40Z</time>
      </trkpt>
      <trkpt lat="28.4467100" lon="-16.3662580">
        <ele>906.9</ele>
        <time>2020-11-11T11:06:41Z</time>
      </trkpt>
      <trkpt lat="28.4467100" lon="-16.3662580">
        <ele>906.9</ele>
        <time>2020-11-11T11:06:42Z</time>
      </trkpt>
      <trkpt lat="28.4467470" lon="-16.3663200">
        <ele>906.9</ele>
        <time>2020-11-11T11:06:43Z</time>
      </trkpt>
      <trkpt lat="28.4467470" lon="-16.3663200">
        <ele>906.9</ele>
        <time>2020-11-11T11:06:44Z</time>
      </trkpt>
      <trkpt lat="28.4467880" lon="-16.3663900">
        <ele>906.9</ele>
        <time>2020-11-11T11:06:45Z</time>
      </trkpt>
      <trkpt lat="28.4467880" lon="-16.3663900">
        <ele>906.9</ele>
        <time>2020-11-11T11:06:46Z</time>
      </trkpt>
      <trkpt lat="28.4468270" lon="-16.3664620">
        <ele>906.9</ele>
        <time>2020-11-11T11:06:47Z</time>
      </trkpt>
      <trkpt lat="28.4468270" lon="-16.3664620">
        <ele>907.9</ele>
        <time>2020-11-11T11:06:48Z</time>
      </trkpt>
      <trkpt lat="28.4468600" lon="-16.3665320">
        <ele>907.9</ele>
        <time>2020-11-11T11:06:49Z</time>
      </trkpt>
      <trkpt lat="28.4468600" lon="-16.3665320">
        <ele>907.9</ele>
        <time>2020-11-11T11:06:50Z</time>
      </trkpt>
      <trkpt lat="28.4468930" lon="-16.3666120">
        <ele>907.9</ele>
        <time>2020-11-11T11:06:51Z</time>
      </trkpt>
      <trkpt lat="28.4468930" lon="-16.3666120">
        <ele>908.9</ele>
        <time>2020-11-11T11:06:52Z</time>
      </trkpt>
      <trkpt lat="28.4469200" lon="-16.3666950">
        <ele>908.9</ele>
        <time>2020-11-11T11:06:53Z</time>
      </trkpt>
      <trkpt lat="28.4469200" lon="-16.3666950">
        <ele>908.9</ele>
        <time>2020-11-11T11:06:54Z</time>
      </trkpt>
      <trkpt lat="28.4469380" lon="-16.3667800">
        <ele>908.9</ele>
        <time>2020-11-11T11:06:55Z</time>
      </trkpt>
      <trkpt lat="28.4469380" lon="-16.3667800">
        <ele>908.9</ele>
        <time>2020-11-11T11:06:56Z</time>
      </trkpt>
      <trkpt lat="28.4469380" lon="-16.3667800">
        <ele>909.9</ele>
        <time>2020-11-11T11:06:57Z</time>
      </trkpt>
      <trkpt lat="28.4469420" lon="-16.3668620">
        <ele>909.9</ele>
        <time>2020-11-11T11:06:58Z</time>
      </trkpt>
      <trkpt lat="28.4469380" lon="-16.3669470">
        <ele>909.9</ele>
        <time>2020-11-11T11:06:59Z</time>
      </trkpt>
      <trkpt lat="28.4469350" lon="-16.3669850">
        <ele>909.9</ele>
        <time>2020-11-11T11:07:00Z</time>
      </trkpt>
      <trkpt lat="28.4469350" lon="-16.3669850">
        <ele>910.9</ele>
        <time>2020-11-11T11:07:01Z</time>
      </trkpt>
      <trkpt lat="28.4469270" lon="-16.3670620">
        <ele>910.9</ele>
        <time>2020-11-11T11:07:02Z</time>
      </trkpt>
      <trkpt lat="28.4469270" lon="-16.3670620">
        <ele>910.9</ele>
        <time>2020-11-11T11:07:03Z</time>
      </trkpt>
      <trkpt lat="28.4469150" lon="-16.3671430">
        <ele>910.9</ele>
        <time>2020-11-11T11:07:04Z</time>
      </trkpt>
      <trkpt lat="28.4469050" lon="-16.3671830">
        <ele>910.9</ele>
        <time>2020-11-11T11:07:05Z</time>
      </trkpt>
      <trkpt lat="28.4469050" lon="-16.3671830">
        <ele>910.9</ele>
        <time>2020-11-11T11:07:06Z</time>
      </trkpt>
      <trkpt lat="28.4468780" lon="-16.3672600">
        <ele>911.9</ele>
        <time>2020-11-11T11:07:07Z</time>
      </trkpt>
      <trkpt lat="28.4468700" lon="-16.3673030">
        <ele>911.9</ele>
        <time>2020-11-11T11:07:08Z</time>
      </trkpt>
      <trkpt lat="28.4468700" lon="-16.3673030">
        <ele>912.9</ele>
        <time>2020-11-11T11:07:09Z</time>
      </trkpt>
      <trkpt lat="28.4468520" lon="-16.3673750">
        <ele>912.9</ele>
        <time>2020-11-11T11:07:10Z</time>
      </trkpt>
      <trkpt lat="28.4468380" lon="-16.3674120">
        <ele>912.9</ele>
        <time>2020-11-11T11:07:11Z</time>
      </trkpt>
      <trkpt lat="28.4468380" lon="-16.3674120">
        <ele>912.9</ele>
        <time>2020-11-11T11:07:12Z</time>
      </trkpt>
      <trkpt lat="28.4468100" lon="-16.3674880">
        <ele>912.9</ele>
        <time>2020-11-11T11:07:13Z</time>
      </trkpt>
      <trkpt lat="28.4468100" lon="-16.3674880">
        <ele>912.9</ele>
        <time>2020-11-11T11:07:14Z</time>
      </trkpt>
      <trkpt lat="28.4467870" lon="-16.3675650">
        <ele>913.9</ele>
        <time>2020-11-11T11:07:15Z</time>
      </trkpt>
      <trkpt lat="28.4467870" lon="-16.3675650">
        <ele>913.9</ele>
        <time>2020-11-11T11:07:16Z</time>
      </trkpt>
      <trkpt lat="28.4467650" lon="-16.3676320">
        <ele>913.9</ele>
        <time>2020-11-11T11:07:17Z</time>
      </trkpt>
      <trkpt lat="28.4467650" lon="-16.3676320">
        <ele>913.9</ele>
        <time>2020-11-11T11:07:18Z</time>
      </trkpt>
      <trkpt lat="28.4467680" lon="-16.3676850">
        <ele>913.9</ele>
        <time>2020-11-11T11:07:19Z</time>
      </trkpt>
      <trkpt lat="28.4467680" lon="-16.3676850">
        <ele>914.9</ele>
        <time>2020-11-11T11:07:20Z</time>
      </trkpt>
      <trkpt lat="28.4468200" lon="-16.3677120">
        <ele>914.9</ele>
        <time>2020-11-11T11:07:21Z</time>
      </trkpt>
      <trkpt lat="28.4468200" lon="-16.3677120">
        <ele>914.9</ele>
        <time>2020-11-11T11:07:22Z</time>
      </trkpt>
      <trkpt lat="28.4469020" lon="-16.3677130">
        <ele>914.9</ele>
        <time>2020-11-11T11:07:23Z</time>
      </trkpt>
      <trkpt lat="28.4469450" lon="-16.3677130">
        <ele>914.9</ele>
        <time>2020-11-11T11:07:24Z</time>
      </trkpt>
      <trkpt lat="28.4469900" lon="-16.3677130">
        <ele>914.9</ele>
        <time>2020-11-11T11:07:25Z</time>
      </trkpt>
      <trkpt lat="28.4469900" lon="-16.3677130">
        <ele>914.9</ele>
        <time>2020-11-11T11:07:26Z</time>
      </trkpt>
      <trkpt lat="28.4470830" lon="-16.3677080">
        <ele>914.9</ele>
        <time>2020-11-11T11:07:27Z</time>
      </trkpt>
      <trkpt lat="28.4470830" lon="-16.3677080">
        <ele>913.9</ele>
        <time>2020-11-11T11:07:28Z</time>
      </trkpt>
      <trkpt lat="28.4471800" lon="-16.3677150">
        <ele>913.9</ele>
        <time>2020-11-11T11:07:29Z</time>
      </trkpt>
      <trkpt lat="28.4471800" lon="-16.3677150">
        <ele>912.9</ele>
        <time>2020-11-11T11:07:30Z</time>
      </trkpt>
      <trkpt lat="28.4472880" lon="-16.3677330">
        <ele>912.9</ele>
        <time>2020-11-11T11:07:31Z</time>
      </trkpt>
      <trkpt lat="28.4472880" lon="-16.3677330">
        <ele>912.9</ele>
        <time>2020-11-11T11:07:32Z</time>
      </trkpt>
      <trkpt lat="28.4474080" lon="-16.3677530">
        <ele>912.9</ele>
        <time>2020-11-11T11:07:33Z</time>
      </trkpt>
      <trkpt lat="28.4474670" lon="-16.3677650">
        <ele>911.9</ele>
        <time>2020-11-11T11:07:34Z</time>
      </trkpt>
      <trkpt lat="28.4474670" lon="-16.3677650">
        <ele>911.9</ele>
        <time>2020-11-11T11:07:35Z</time>
      </trkpt>
      <trkpt lat="28.4475870" lon="-16.3677930">
        <ele>910.9</ele>
        <time>2020-11-11T11:07:36Z</time>
      </trkpt>
      <trkpt lat="28.4475870" lon="-16.3677930">
        <ele>910.9</ele>
        <time>2020-11-11T11:07:37Z</time>
      </trkpt>
      <trkpt lat="28.4477080" lon="-16.3678200">
        <ele>909.9</ele>
        <time>2020-11-11T11:07:38Z</time>
      </trkpt>
      <trkpt lat="28.4477080" lon="-16.3678200">
        <ele>909.9</ele>
        <time>2020-11-11T11:07:39Z</time>
      </trkpt>
      <trkpt lat="28.4478330" lon="-16.3678350">
        <ele>908.9</ele>
        <time>2020-11-11T11:07:40Z</time>
      </trkpt>
      <trkpt lat="28.4479000" lon="-16.3678400">
        <ele>908.9</ele>
        <time>2020-11-11T11:07:41Z</time>
      </trkpt>
      <trkpt lat="28.4479000" lon="-16.3678400">
        <ele>906.9</ele>
        <time>2020-11-11T11:07:42Z</time>
      </trkpt>
      <trkpt lat="28.4480350" lon="-16.3678570">
        <ele>906.9</ele>
        <time>2020-11-11T11:07:43Z</time>
      </trkpt>
      <trkpt lat="28.4480350" lon="-16.3678570">
        <ele>905.9</ele>
        <time>2020-11-11T11:07:44Z</time>
      </trkpt>
      <trkpt lat="28.4481850" lon="-16.3678850">
        <ele>905.9</ele>
        <time>2020-11-11T11:07:45Z</time>
      </trkpt>
      <trkpt lat="28.4482670" lon="-16.3679030">
        <ele>903.9</ele>
        <time>2020-11-11T11:07:46Z</time>
      </trkpt>
      <trkpt lat="28.4482670" lon="-16.3679030">
        <ele>903.9</ele>
        <time>2020-11-11T11:07:47Z</time>
      </trkpt>
      <trkpt lat="28.4482670" lon="-16.3679030">
        <ele>902.9</ele>
        <time>2020-11-11T11:07:48Z</time>
      </trkpt>
      <trkpt lat="28.4485280" lon="-16.3679400">
        <ele>902.9</ele>
        <time>2020-11-11T11:07:49Z</time>
      </trkpt>
      <trkpt lat="28.4485280" lon="-16.3679400">
        <ele>900.9</ele>
        <time>2020-11-11T11:07:50Z</time>
      </trkpt>
      <trkpt lat="28.4487000" lon="-16.3679480">
        <ele>900.9</ele>
        <time>2020-11-11T11:07:51Z</time>
      </trkpt>
      <trkpt lat="28.4487000" lon="-16.3679480">
        <ele>899.9</ele>
        <time>2020-11-11T11:07:52Z</time>
      </trkpt>
      <trkpt lat="28.4488650" lon="-16.3679420">
        <ele>897.9</ele>
        <time>2020-11-11T11:07:53Z</time>
      </trkpt>
      <trkpt lat="28.4489470" lon="-16.3679380">
        <ele>897.9</ele>
        <time>2020-11-11T11:07:54Z</time>
      </trkpt>
      <trkpt lat="28.4489470" lon="-16.3679380">
        <ele>895.9</ele>
        <time>2020-11-11T11:07:55Z</time>
      </trkpt>
      <trkpt lat="28.4490970" lon="-16.3679200">
        <ele>895.9</ele>
        <time>2020-11-11T11:07:56Z</time>
      </trkpt>
      <trkpt lat="28.4490970" lon="-16.3679200">
        <ele>894.9</ele>
        <time>2020-11-11T11:07:57Z</time>
      </trkpt>
      <trkpt lat="28.4492330" lon="-16.3679250">
        <ele>894.9</ele>
        <time>2020-11-11T11:07:58Z</time>
      </trkpt>
      <trkpt lat="28.4492330" lon="-16.3679250">
        <ele>893.9</ele>
        <time>2020-11-11T11:07:59Z</time>
      </trkpt>
      <trkpt lat="28.4493470" lon="-16.3679350">
        <ele>893.9</ele>
        <time>2020-11-11T11:08:00Z</time>
      </trkpt>
      <trkpt lat="28.4493980" lon="-16.3679370">
        <ele>892.9</ele>
        <time>2020-11-11T11:08:01Z</time>
      </trkpt>
      <trkpt lat="28.4493980" lon="-16.3679370">
        <ele>892.9</ele>
        <time>2020-11-11T11:08:02Z</time>
      </trkpt>
      <trkpt lat="28.4495100" lon="-16.3679270">
        <ele>891.9</ele>
        <time>2020-11-11T11:08:03Z</time>
      </trkpt>
      <trkpt lat="28.4495100" lon="-16.3679270">
        <ele>891.9</ele>
        <time>2020-11-11T11:08:04Z</time>
      </trkpt>
      <trkpt lat="28.4495720" lon="-16.3679180">
        <ele>890.9</ele>
        <time>2020-11-11T11:08:05Z</time>
      </trkpt>
      <trkpt lat="28.4496920" lon="-16.3678900">
        <ele>890.9</ele>
        <time>2020-11-11T11:08:06Z</time>
      </trkpt>
      <trkpt lat="28.4497530" lon="-16.3678770">
        <ele>889.9</ele>
        <time>2020-11-11T11:08:07Z</time>
      </trkpt>
      <trkpt lat="28.4497530" lon="-16.3678770">
        <ele>889.9</ele>
        <time>2020-11-11T11:08:08Z</time>
      </trkpt>
      <trkpt lat="28.4498880" lon="-16.3678500">
        <ele>889.9</ele>
        <time>2020-11-11T11:08:09Z</time>
      </trkpt>
      <trkpt lat="28.4499600" lon="-16.3678350">
        <ele>889.9</ele>
        <time>2020-11-11T11:08:10Z</time>
      </trkpt>
      <trkpt lat="28.4500350" lon="-16.3678170">
        <ele>888.9</ele>
        <time>2020-11-11T11:08:11Z</time>
      </trkpt>
      <trkpt lat="28.4500350" lon="-16.3678170">
        <ele>888.9</ele>
        <time>2020-11-11T11:08:12Z</time>
      </trkpt>
      <trkpt lat="28.4501900" lon="-16.3677730">
        <ele>887.9</ele>
        <time>2020-11-11T11:08:13Z</time>
      </trkpt>
      <trkpt lat="28.4502700" lon="-16.3677530">
        <ele>887.9</ele>
        <time>2020-11-11T11:08:14Z</time>
      </trkpt>
      <trkpt lat="28.4502700" lon="-16.3677530">
        <ele>886.9</ele>
        <time>2020-11-11T11:08:15Z</time>
      </trkpt>
      <trkpt lat="28.4504280" lon="-16.3677000">
        <ele>886.9</ele>
        <time>2020-11-11T11:08:16Z</time>
      </trkpt>
      <trkpt lat="28.4505080" lon="-16.3676750">
        <ele>885.9</ele>
        <time>2020-11-11T11:08:17Z</time>
      </trkpt>
      <trkpt lat="28.4505080" lon="-16.3676750">
        <ele>885.9</ele>
        <time>2020-11-11T11:08:18Z</time>
      </trkpt>
      <trkpt lat="28.4506700" lon="-16.3676250">
        <ele>884.9</ele>
        <time>2020-11-11T11:08:19Z</time>
      </trkpt>
      <trkpt lat="28.4506700" lon="-16.3676250">
        <ele>884.9</ele>
        <time>2020-11-11T11:08:20Z</time>
      </trkpt>
      <trkpt lat="28.4508330" lon="-16.3675720">
        <ele>883.9</ele>
        <time>2020-11-11T11:08:21Z</time>
      </trkpt>
      <trkpt lat="28.4508330" lon="-16.3675720">
        <ele>883.9</ele>
        <time>2020-11-11T11:08:22Z</time>
      </trkpt>
      <trkpt lat="28.4509730" lon="-16.3675180">
        <ele>882.9</ele>
        <time>2020-11-11T11:08:23Z</time>
      </trkpt>
      <trkpt lat="28.4509730" lon="-16.3675180">
        <ele>882.9</ele>
        <time>2020-11-11T11:08:24Z</time>
      </trkpt>
      <trkpt lat="28.4510350" lon="-16.3674880">
        <ele>881.9</ele>
        <time>2020-11-11T11:08:25Z</time>
      </trkpt>
      <trkpt lat="28.4511220" lon="-16.3674330">
        <ele>881.9</ele>
        <time>2020-11-11T11:08:26Z</time>
      </trkpt>
      <trkpt lat="28.4511220" lon="-16.3674330">
        <ele>880.9</ele>
        <time>2020-11-11T11:08:27Z</time>
      </trkpt>
      <trkpt lat="28.4511680" lon="-16.3674150">
        <ele>880.9</ele>
        <time>2020-11-11T11:08:28Z</time>
      </trkpt>
      <trkpt lat="28.4511680" lon="-16.3674150">
        <ele>880.9</ele>
        <time>2020-11-11T11:08:29Z</time>
      </trkpt>
      <trkpt lat="28.4512150" lon="-16.3674400">
        <ele>878.9</ele>
        <time>2020-11-11T11:08:30Z</time>
      </trkpt>
      <trkpt lat="28.4512320" lon="-16.3674820">
        <ele>878.9</ele>
        <time>2020-11-11T11:08:31Z</time>
      </trkpt>
      <trkpt lat="28.4512320" lon="-16.3674820">
        <ele>878.9</ele>
        <time>2020-11-11T11:08:32Z</time>
      </trkpt>
      <trkpt lat="28.4512220" lon="-16.3675330">
        <ele>878.9</ele>
        <time>2020-11-11T11:08:33Z</time>
      </trkpt>
      <trkpt lat="28.4512220" lon="-16.3675330">
        <ele>878.9</ele>
        <time>2020-11-11T11:08:34Z</time>
      </trkpt>
      <trkpt lat="28.4512130" lon="-16.3675680">
        <ele>878.9</ele>
        <time>2020-11-11T11:08:35Z</time>
      </trkpt>
      <trkpt lat="28.4512130" lon="-16.3675680">
        <ele>878.9</ele>
        <time>2020-11-11T11:08:36Z</time>
      </trkpt>
      <trkpt lat="28.4512120" lon="-16.3676070">
        <ele>878.9</ele>
        <time>2020-11-11T11:08:37Z</time>
      </trkpt>
      <trkpt lat="28.4512120" lon="-16.3676070">
        <ele>878.9</ele>
        <time>2020-11-11T11:08:38Z</time>
      </trkpt>
      <trkpt lat="28.4512020" lon="-16.3676520">
        <ele>878.9</ele>
        <time>2020-11-11T11:08:39Z</time>
      </trkpt>
      <trkpt lat="28.4512020" lon="-16.3676520">
        <ele>879.9</ele>
        <time>2020-11-11T11:08:40Z</time>
      </trkpt>
      <trkpt lat="28.4511880" lon="-16.3676930">
        <ele>879.9</ele>
        <time>2020-11-11T11:08:41Z</time>
      </trkpt>
      <trkpt lat="28.4511880" lon="-16.3676930">
        <ele>880.9</ele>
        <time>2020-11-11T11:08:42Z</time>
      </trkpt>
      <trkpt lat="28.4511780" lon="-16.3677280">
        <ele>880.9</ele>
        <time>2020-11-11T11:08:43Z</time>
      </trkpt>
      <trkpt lat="28.4511780" lon="-16.3677280">
        <ele>881.9</ele>
        <time>2020-11-11T11:08:44Z</time>
      </trkpt>
      <trkpt lat="28.4511680" lon="-16.3677650">
        <ele>881.9</ele>
        <time>2020-11-11T11:08:45Z</time>
      </trkpt>
      <trkpt lat="28.4511680" lon="-16.3677650">
        <ele>882.9</ele>
        <time>2020-11-11T11:08:46Z</time>
      </trkpt>
      <trkpt lat="28.4511670" lon="-16.3677970">
        <ele>882.9</ele>
        <time>2020-11-11T11:08:47Z</time>
      </trkpt>
      <trkpt lat="28.4511670" lon="-16.3677970">
        <ele>882.9</ele>
        <time>2020-11-11T11:08:48Z</time>
      </trkpt>
      <trkpt lat="28.4511570" lon="-16.3678270">
        <ele>882.9</ele>
        <time>2020-11-11T11:08:49Z</time>
      </trkpt>
      <trkpt lat="28.4511530" lon="-16.3678480">
        <ele>883.9</ele>
        <time>2020-11-11T11:08:50Z</time>
      </trkpt>
      <trkpt lat="28.4511530" lon="-16.3678480">
        <ele>883.9</ele>
        <time>2020-11-11T11:08:51Z</time>
      </trkpt>
      <trkpt lat="28.4511470" lon="-16.3678880">
        <ele>884.9</ele>
        <time>2020-11-11T11:08:52Z</time>
      </trkpt>
      <trkpt lat="28.4511430" lon="-16.3679030">
        <ele>884.9</ele>
        <time>2020-11-11T11:08:53Z</time>
      </trkpt>
      <trkpt lat="28.4511430" lon="-16.3679030">
        <ele>885.9</ele>
        <time>2020-11-11T11:08:54Z</time>
      </trkpt>
      <trkpt lat="28.4511270" lon="-16.3679420">
        <ele>885.9</ele>
        <time>2020-11-11T11:08:55Z</time>
      </trkpt>
      <trkpt lat="28.4511270" lon="-16.3679420">
        <ele>886.9</ele>
        <time>2020-11-11T11:08:56Z</time>
      </trkpt>
      <trkpt lat="28.4511130" lon="-16.3679720">
        <ele>886.9</ele>
        <time>2020-11-11T11:08:57Z</time>
      </trkpt>
      <trkpt lat="28.4511050" lon="-16.3679920">
        <ele>887.9</ele>
        <time>2020-11-11T11:08:58Z</time>
      </trkpt>
      <trkpt lat="28.4511050" lon="-16.3679920">
        <ele>887.9</ele>
        <time>2020-11-11T11:08:59Z</time>
      </trkpt>
      <trkpt lat="28.4510930" lon="-16.3680280">
        <ele>888.9</ele>
        <time>2020-11-11T11:09:00Z</time>
      </trkpt>
      <trkpt lat="28.4510930" lon="-16.3680280">
        <ele>888.9</ele>
        <time>2020-11-11T11:09:01Z</time>
      </trkpt>
      <trkpt lat="28.4510850" lon="-16.3680430">
        <ele>889.9</ele>
        <time>2020-11-11T11:09:02Z</time>
      </trkpt>
      <trkpt lat="28.4510670" lon="-16.3680780">
        <ele>889.9</ele>
        <time>2020-11-11T11:09:03Z</time>
      </trkpt>
      <trkpt lat="28.4510600" lon="-16.3680950">
        <ele>889.9</ele>
        <time>2020-11-11T11:09:04Z</time>
      </trkpt>
      <trkpt lat="28.4510600" lon="-16.3680950">
        <ele>889.9</ele>
        <time>2020-11-11T11:09:05Z</time>
      </trkpt>
      <trkpt lat="28.4510380" lon="-16.3681320">
        <ele>890.9</ele>
        <time>2020-11-11T11:09:06Z</time>
      </trkpt>
      <trkpt lat="28.4510300" lon="-16.3681480">
        <ele>891.9</ele>
        <time>2020-11-11T11:09:07Z</time>
      </trkpt>
      <trkpt lat="28.4510300" lon="-16.3681480">
        <ele>891.9</ele>
        <time>2020-11-11T11:09:08Z</time>
      </trkpt>
      <trkpt lat="28.4510080" lon="-16.3681830">
        <ele>892.9</ele>
        <time>2020-11-11T11:09:09Z</time>
      </trkpt>
      <trkpt lat="28.4510080" lon="-16.3681830">
        <ele>892.9</ele>
        <time>2020-11-11T11:09:10Z</time>
      </trkpt>
      <trkpt lat="28.4509920" lon="-16.3682180">
        <ele>892.9</ele>
        <time>2020-11-11T11:09:11Z</time>
      </trkpt>
      <trkpt lat="28.4509920" lon="-16.3682180">
        <ele>892.9</ele>
        <time>2020-11-11T11:09:12Z</time>
      </trkpt>
      <trkpt lat="28.4509830" lon="-16.3682530">
        <ele>892.9</ele>
        <time>2020-11-11T11:09:13Z</time>
      </trkpt>
      <trkpt lat="28.4509830" lon="-16.3682530">
        <ele>892.9</ele>
        <time>2020-11-11T11:09:14Z</time>
      </trkpt>
      <trkpt lat="28.4509700" lon="-16.3682900">
        <ele>894.9</ele>
        <time>2020-11-11T11:09:15Z</time>
      </trkpt>
      <trkpt lat="28.4509700" lon="-16.3682900">
        <ele>894.9</ele>
        <time>2020-11-11T11:09:16Z</time>
      </trkpt>
      <trkpt lat="28.4509570" lon="-16.3683250">
        <ele>895.9</ele>
        <time>2020-11-11T11:09:17Z</time>
      </trkpt>
      <trkpt lat="28.4509450" lon="-16.3683400">
        <ele>895.9</ele>
        <time>2020-11-11T11:09:18Z</time>
      </trkpt>
      <trkpt lat="28.4509450" lon="-16.3683400">
        <ele>895.9</ele>
        <time>2020-11-11T11:09:19Z</time>
      </trkpt>
      <trkpt lat="28.4509300" lon="-16.3683750">
        <ele>895.9</ele>
        <time>2020-11-11T11:09:20Z</time>
      </trkpt>
      <trkpt lat="28.4509250" lon="-16.3683900">
        <ele>896.9</ele>
        <time>2020-11-11T11:09:21Z</time>
      </trkpt>
      <trkpt lat="28.4509250" lon="-16.3683900">
        <ele>896.9</ele>
        <time>2020-11-11T11:09:22Z</time>
      </trkpt>
      <trkpt lat="28.4509100" lon="-16.3684230">
        <ele>897.9</ele>
        <time>2020-11-11T11:09:23Z</time>
      </trkpt>
      <trkpt lat="28.4509100" lon="-16.3684230">
        <ele>897.9</ele>
        <time>2020-11-11T11:09:24Z</time>
      </trkpt>
      <trkpt lat="28.4508980" lon="-16.3684580">
        <ele>898.9</ele>
        <time>2020-11-11T11:09:25Z</time>
      </trkpt>
      <trkpt lat="28.4508980" lon="-16.3684580">
        <ele>898.9</ele>
        <time>2020-11-11T11:09:26Z</time>
      </trkpt>
      <trkpt lat="28.4508970" lon="-16.3685030">
        <ele>899.9</ele>
        <time>2020-11-11T11:09:27Z</time>
      </trkpt>
      <trkpt lat="28.4508970" lon="-16.3685030">
        <ele>899.9</ele>
        <time>2020-11-11T11:09:28Z</time>
      </trkpt>
      <trkpt lat="28.4508870" lon="-16.3685320">
        <ele>899.9</ele>
        <time>2020-11-11T11:09:29Z</time>
      </trkpt>
      <trkpt lat="28.4508820" lon="-16.3685430">
        <ele>899.9</ele>
        <time>2020-11-11T11:09:30Z</time>
      </trkpt>
      <trkpt lat="28.4508820" lon="-16.3685430">
        <ele>900.9</ele>
        <time>2020-11-11T11:09:31Z</time>
      </trkpt>
      <trkpt lat="28.4508680" lon="-16.3685800">
        <ele>900.9</ele>
        <time>2020-11-11T11:09:32Z</time>
      </trkpt>
      <trkpt lat="28.4508680" lon="-16.3685800">
        <ele>900.9</ele>
        <time>2020-11-11T11:09:33Z</time>
      </trkpt>
      <trkpt lat="28.4508570" lon="-16.3686150">
        <ele>900.9</ele>
        <time>2020-11-11T11:09:34Z</time>
      </trkpt>
      <trkpt lat="28.4508570" lon="-16.3686150">
        <ele>901.9</ele>
        <time>2020-11-11T11:09:35Z</time>
      </trkpt>
      <trkpt lat="28.4508480" lon="-16.3686480">
        <ele>901.9</ele>
        <time>2020-11-11T11:09:36Z</time>
      </trkpt>
      <trkpt lat="28.4508430" lon="-16.3686630">
        <ele>901.9</ele>
        <time>2020-11-11T11:09:37Z</time>
      </trkpt>
      <trkpt lat="28.4508430" lon="-16.3686630">
        <ele>901.9</ele>
        <time>2020-11-11T11:09:38Z</time>
      </trkpt>
      <trkpt lat="28.4508320" lon="-16.3686900">
        <ele>902.9</ele>
        <time>2020-11-11T11:09:39Z</time>
      </trkpt>
      <trkpt lat="28.4508320" lon="-16.3686900">
        <ele>902.9</ele>
        <time>2020-11-11T11:09:40Z</time>
      </trkpt>
      <trkpt lat="28.4508300" lon="-16.3687180">
        <ele>902.9</ele>
        <time>2020-11-11T11:09:41Z</time>
      </trkpt>
      <trkpt lat="28.4508300" lon="-16.3687180">
        <ele>902.9</ele>
        <time>2020-11-11T11:09:42Z</time>
      </trkpt>
      <trkpt lat="28.4508280" lon="-16.3687480">
        <ele>902.9</ele>
        <time>2020-11-11T11:09:43Z</time>
      </trkpt>
      <trkpt lat="28.4508280" lon="-16.3687480">
        <ele>903.9</ele>
        <time>2020-11-11T11:09:44Z</time>
      </trkpt>
      <trkpt lat="28.4508220" lon="-16.3687780">
        <ele>903.9</ele>
        <time>2020-11-11T11:09:45Z</time>
      </trkpt>
      <trkpt lat="28.4508220" lon="-16.3687780">
        <ele>903.9</ele>
        <time>2020-11-11T11:09:46Z</time>
      </trkpt>
      <trkpt lat="28.4508170" lon="-16.3688120">
        <ele>903.9</ele>
        <time>2020-11-11T11:09:47Z</time>
      </trkpt>
      <trkpt lat="28.4508170" lon="-16.3688120">
        <ele>904.9</ele>
        <time>2020-11-11T11:09:48Z</time>
      </trkpt>
      <trkpt lat="28.4508150" lon="-16.3688420">
        <ele>904.9</ele>
        <time>2020-11-11T11:09:49Z</time>
      </trkpt>
      <trkpt lat="28.4508150" lon="-16.3688420">
        <ele>904.9</ele>
        <time>2020-11-11T11:09:50Z</time>
      </trkpt>
      <trkpt lat="28.4508120" lon="-16.3688700">
        <ele>904.9</ele>
        <time>2020-11-11T11:09:51Z</time>
      </trkpt>
      <trkpt lat="28.4508080" lon="-16.3688850">
        <ele>905.9</ele>
        <time>2020-11-11T11:09:52Z</time>
      </trkpt>
      <trkpt lat="28.4508080" lon="-16.3688850">
        <ele>905.9</ele>
        <time>2020-11-11T11:09:53Z</time>
      </trkpt>
      <trkpt lat="28.4508020" lon="-16.3689150">
        <ele>905.9</ele>
        <time>2020-11-11T11:09:54Z</time>
      </trkpt>
      <trkpt lat="28.4507980" lon="-16.3689300">
        <ele>905.9</ele>
        <time>2020-11-11T11:09:55Z</time>
      </trkpt>
      <trkpt lat="28.4507980" lon="-16.3689300">
        <ele>906.9</ele>
        <time>2020-11-11T11:09:56Z</time>
      </trkpt>
      <trkpt lat="28.4507980" lon="-16.3689620">
        <ele>906.9</ele>
        <time>2020-11-11T11:09:57Z</time>
      </trkpt>
      <trkpt lat="28.4507970" lon="-16.3689800">
        <ele>906.9</ele>
        <time>2020-11-11T11:09:58Z</time>
      </trkpt>
      <trkpt lat="28.4507970" lon="-16.3689970">
        <ele>906.9</ele>
        <time>2020-11-11T11:09:59Z</time>
      </trkpt>
      <trkpt lat="28.4507970" lon="-16.3689970">
        <ele>907.9</ele>
        <time>2020-11-11T11:10:00Z</time>
      </trkpt>
      <trkpt lat="28.4507970" lon="-16.3690220">
        <ele>907.9</ele>
        <time>2020-11-11T11:10:01Z</time>
      </trkpt>
      <trkpt lat="28.4507970" lon="-16.3690220">
        <ele>907.9</ele>
        <time>2020-11-11T11:10:02Z</time>
      </trkpt>
      <trkpt lat="28.4507950" lon="-16.3690500">
        <ele>907.9</ele>
        <time>2020-11-11T11:10:03Z</time>
      </trkpt>
      <trkpt lat="28.4507920" lon="-16.3690650">
        <ele>908.9</ele>
        <time>2020-11-11T11:10:04Z</time>
      </trkpt>
      <trkpt lat="28.4507920" lon="-16.3690650">
        <ele>908.9</ele>
        <time>2020-11-11T11:10:05Z</time>
      </trkpt>
      <trkpt lat="28.4507830" lon="-16.3690930">
        <ele>908.9</ele>
        <time>2020-11-11T11:10:06Z</time>
      </trkpt>
      <trkpt lat="28.4507800" lon="-16.3691070">
        <ele>908.9</ele>
        <time>2020-11-11T11:10:07Z</time>
      </trkpt>
      <trkpt lat="28.4507780" lon="-16.3691180">
        <ele>909.9</ele>
        <time>2020-11-11T11:10:08Z</time>
      </trkpt>
      <trkpt lat="28.4507780" lon="-16.3691180">
        <ele>909.9</ele>
        <time>2020-11-11T11:10:09Z</time>
      </trkpt>
      <trkpt lat="28.4507730" lon="-16.3691500">
        <ele>909.9</ele>
        <time>2020-11-11T11:10:10Z</time>
      </trkpt>
      <trkpt lat="28.4507730" lon="-16.3691500">
        <ele>909.9</ele>
        <time>2020-11-11T11:10:11Z</time>
      </trkpt>
      <trkpt lat="28.4507670" lon="-16.3691780">
        <ele>910.9</ele>
        <time>2020-11-11T11:10:12Z</time>
      </trkpt>
      <trkpt lat="28.4507630" lon="-16.3691900">
        <ele>910.9</ele>
        <time>2020-11-11T11:10:13Z</time>
      </trkpt>
      <trkpt lat="28.4507630" lon="-16.3691900">
        <ele>911.9</ele>
        <time>2020-11-11T11:10:14Z</time>
      </trkpt>
      <trkpt lat="28.4507600" lon="-16.3692220">
        <ele>911.9</ele>
        <time>2020-11-11T11:10:15Z</time>
      </trkpt>
      <trkpt lat="28.4507600" lon="-16.3692220">
        <ele>912.9</ele>
        <time>2020-11-11T11:10:16Z</time>
      </trkpt>
      <trkpt lat="28.4507550" lon="-16.3692500">
        <ele>912.9</ele>
        <time>2020-11-11T11:10:17Z</time>
      </trkpt>
      <trkpt lat="28.4507530" lon="-16.3692630">
        <ele>912.9</ele>
        <time>2020-11-11T11:10:18Z</time>
      </trkpt>
      <trkpt lat="28.4507530" lon="-16.3692630">
        <ele>912.9</ele>
        <time>2020-11-11T11:10:19Z</time>
      </trkpt>
      <trkpt lat="28.4507570" lon="-16.3692930">
        <ele>912.9</ele>
        <time>2020-11-11T11:10:20Z</time>
      </trkpt>
      <trkpt lat="28.4507570" lon="-16.3692930">
        <ele>913.9</ele>
        <time>2020-11-11T11:10:21Z</time>
      </trkpt>
      <trkpt lat="28.4507530" lon="-16.3693270">
        <ele>913.9</ele>
        <time>2020-11-11T11:10:22Z</time>
      </trkpt>
      <trkpt lat="28.4507470" lon="-16.3693380">
        <ele>913.9</ele>
        <time>2020-11-11T11:10:23Z</time>
      </trkpt>
      <trkpt lat="28.4507470" lon="-16.3693380">
        <ele>914.9</ele>
        <time>2020-11-11T11:10:24Z</time>
      </trkpt>
      <trkpt lat="28.4507380" lon="-16.3693630">
        <ele>914.9</ele>
        <time>2020-11-11T11:10:25Z</time>
      </trkpt>
      <trkpt lat="28.4507380" lon="-16.3693630">
        <ele>914.9</ele>
        <time>2020-11-11T11:10:26Z</time>
      </trkpt>
      <trkpt lat="28.4507370" lon="-16.3693900">
        <ele>914.9</ele>
        <time>2020-11-11T11:10:27Z</time>
      </trkpt>
      <trkpt lat="28.4507370" lon="-16.3693900">
        <ele>915.9</ele>
        <time>2020-11-11T11:10:28Z</time>
      </trkpt>
      <trkpt lat="28.4507250" lon="-16.3694280">
        <ele>915.9</ele>
        <time>2020-11-11T11:10:29Z</time>
      </trkpt>
      <trkpt lat="28.4507250" lon="-16.3694280">
        <ele>915.9</ele>
        <time>2020-11-11T11:10:30Z</time>
      </trkpt>
      <trkpt lat="28.4507170" lon="-16.3694580">
        <ele>915.9</ele>
        <time>2020-11-11T11:10:31Z</time>
      </trkpt>
      <trkpt lat="28.4507170" lon="-16.3694580">
        <ele>915.9</ele>
        <time>2020-11-11T11:10:32Z</time>
      </trkpt>
      <trkpt lat="28.4507150" lon="-16.3694920">
        <ele>916.9</ele>
        <time>2020-11-11T11:10:33Z</time>
      </trkpt>
      <trkpt lat="28.4507130" lon="-16.3695070">
        <ele>916.9</ele>
        <time>2020-11-11T11:10:34Z</time>
      </trkpt>
      <trkpt lat="28.4507130" lon="-16.3695070">
        <ele>916.9</ele>
        <time>2020-11-11T11:10:35Z</time>
      </trkpt>
      <trkpt lat="28.4507050" lon="-16.3695300">
        <ele>916.9</ele>
        <time>2020-11-11T11:10:36Z</time>
      </trkpt>
      <trkpt lat="28.4507050" lon="-16.3695300">
        <ele>917.9</ele>
        <time>2020-11-11T11:10:37Z</time>
      </trkpt>
      <trkpt lat="28.4506920" lon="-16.3695600">
        <ele>917.9</ele>
        <time>2020-11-11T11:10:38Z</time>
      </trkpt>
      <trkpt lat="28.4506920" lon="-16.3695600">
        <ele>917.9</ele>
        <time>2020-11-11T11:10:39Z</time>
      </trkpt>
      <trkpt lat="28.4506820" lon="-16.3695920">
        <ele>917.9</ele>
        <time>2020-11-11T11:10:40Z</time>
      </trkpt>
      <trkpt lat="28.4506820" lon="-16.3695920">
        <ele>918.9</ele>
        <time>2020-11-11T11:10:41Z</time>
      </trkpt>
      <trkpt lat="28.4506720" lon="-16.3696230">
        <ele>918.9</ele>
        <time>2020-11-11T11:10:42Z</time>
      </trkpt>
      <trkpt lat="28.4506650" lon="-16.3696420">
        <ele>918.9</ele>
        <time>2020-11-11T11:10:43Z</time>
      </trkpt>
      <trkpt lat="28.4506650" lon="-16.3696420">
        <ele>918.9</ele>
        <time>2020-11-11T11:10:44Z</time>
      </trkpt>
      <trkpt lat="28.4506530" lon="-16.3696720">
        <ele>919.9</ele>
        <time>2020-11-11T11:10:45Z</time>
      </trkpt>
      <trkpt lat="28.4506430" lon="-16.3696870">
        <ele>919.9</ele>
        <time>2020-11-11T11:10:46Z</time>
      </trkpt>
      <trkpt lat="28.4506430" lon="-16.3696870">
        <ele>919.9</ele>
        <time>2020-11-11T11:10:47Z</time>
      </trkpt>
      <trkpt lat="28.4506280" lon="-16.3697180">
        <ele>919.9</ele>
        <time>2020-11-11T11:10:48Z</time>
      </trkpt>
      <trkpt lat="28.4506200" lon="-16.3697370">
        <ele>921.9</ele>
        <time>2020-11-11T11:10:49Z</time>
      </trkpt>
      <trkpt lat="28.4506200" lon="-16.3697370">
        <ele>921.9</ele>
        <time>2020-11-11T11:10:50Z</time>
      </trkpt>
      <trkpt lat="28.4506070" lon="-16.3697700">
        <ele>921.9</ele>
        <time>2020-11-11T11:10:51Z</time>
      </trkpt>
      <trkpt lat="28.4505980" lon="-16.3697900">
        <ele>921.9</ele>
        <time>2020-11-11T11:10:52Z</time>
      </trkpt>
      <trkpt lat="28.4505980" lon="-16.3697900">
        <ele>921.9</ele>
        <time>2020-11-11T11:10:53Z</time>
      </trkpt>
      <trkpt lat="28.4505800" lon="-16.3698230">
        <ele>921.9</ele>
        <time>2020-11-11T11:10:54Z</time>
      </trkpt>
      <trkpt lat="28.4505720" lon="-16.3698380">
        <ele>921.9</ele>
        <time>2020-11-11T11:10:55Z</time>
      </trkpt>
      <trkpt lat="28.4505670" lon="-16.3698530">
        <ele>921.9</ele>
        <time>2020-11-11T11:10:56Z</time>
      </trkpt>
      <trkpt lat="28.4505670" lon="-16.3698530">
        <ele>922.9</ele>
        <time>2020-11-11T11:10:57Z</time>
      </trkpt>
      <trkpt lat="28.4505570" lon="-16.3698850">
        <ele>922.9</ele>
        <time>2020-11-11T11:10:58Z</time>
      </trkpt>
      <trkpt lat="28.4505530" lon="-16.3699000">
        <ele>922.9</ele>
        <time>2020-11-11T11:10:59Z</time>
      </trkpt>
      <trkpt lat="28.4505530" lon="-16.3699000">
        <ele>922.9</ele>
        <time>2020-11-11T11:11:00Z</time>
      </trkpt>
      <trkpt lat="28.4505320" lon="-16.3699300">
        <ele>922.9</ele>
        <time>2020-11-11T11:11:01Z</time>
      </trkpt>
      <trkpt lat="28.4505320" lon="-16.3699300">
        <ele>923.9</ele>
        <time>2020-11-11T11:11:02Z</time>
      </trkpt>
      <trkpt lat="28.4505170" lon="-16.3699650">
        <ele>923.9</ele>
        <time>2020-11-11T11:11:03Z</time>
      </trkpt>
      <trkpt lat="28.4505170" lon="-16.3699650">
        <ele>923.9</ele>
        <time>2020-11-11T11:11:04Z</time>
      </trkpt>
      <trkpt lat="28.4505150" lon="-16.3700030">
        <ele>923.9</ele>
        <time>2020-11-11T11:11:05Z</time>
      </trkpt>
      <trkpt lat="28.4505120" lon="-16.3700230">
        <ele>924.9</ele>
        <time>2020-11-11T11:11:06Z</time>
      </trkpt>
      <trkpt lat="28.4505120" lon="-16.3700230">
        <ele>924.9</ele>
        <time>2020-11-11T11:11:07Z</time>
      </trkpt>
      <trkpt lat="28.4505050" lon="-16.3700570">
        <ele>924.9</ele>
        <time>2020-11-11T11:11:08Z</time>
      </trkpt>
      <trkpt lat="28.4505050" lon="-16.3700570">
        <ele>924.9</ele>
        <time>2020-11-11T11:11:09Z</time>
      </trkpt>
      <trkpt lat="28.4504920" lon="-16.3700820">
        <ele>924.9</ele>
        <time>2020-11-11T11:11:10Z</time>
      </trkpt>
      <trkpt lat="28.4504920" lon="-16.3700820">
        <ele>924.9</ele>
        <time>2020-11-11T11:11:11Z</time>
      </trkpt>
      <trkpt lat="28.4504920" lon="-16.3700820">
        <ele>925.9</ele>
        <time>2020-11-11T11:11:12Z</time>
      </trkpt>
      <trkpt lat="28.4504680" lon="-16.3701330">
        <ele>925.9</ele>
        <time>2020-11-11T11:11:13Z</time>
      </trkpt>
      <trkpt lat="28.4504680" lon="-16.3701330">
        <ele>925.9</ele>
        <time>2020-11-11T11:11:14Z</time>
      </trkpt>
      <trkpt lat="28.4504530" lon="-16.3701630">
        <ele>925.9</ele>
        <time>2020-11-11T11:11:15Z</time>
      </trkpt>
      <trkpt lat="28.4504530" lon="-16.3701630">
        <ele>925.9</ele>
        <time>2020-11-11T11:11:16Z</time>
      </trkpt>
      <trkpt lat="28.4504380" lon="-16.3702020">
        <ele>925.9</ele>
        <time>2020-11-11T11:11:17Z</time>
      </trkpt>
      <trkpt lat="28.4504380" lon="-16.3702020">
        <ele>925.9</ele>
        <time>2020-11-11T11:11:18Z</time>
      </trkpt>
      <trkpt lat="28.4504180" lon="-16.3702350">
        <ele>925.9</ele>
        <time>2020-11-11T11:11:19Z</time>
      </trkpt>
      <trkpt lat="28.4504070" lon="-16.3702500">
        <ele>925.9</ele>
        <time>2020-11-11T11:11:20Z</time>
      </trkpt>
      <trkpt lat="28.4504070" lon="-16.3702500">
        <ele>925.9</ele>
        <time>2020-11-11T11:11:21Z</time>
      </trkpt>
      <trkpt lat="28.4503800" lon="-16.3702800">
        <ele>926.9</ele>
        <time>2020-11-11T11:11:22Z</time>
      </trkpt>
      <trkpt lat="28.4503670" lon="-16.3702950">
        <ele>926.9</ele>
        <time>2020-11-11T11:11:23Z</time>
      </trkpt>
      <trkpt lat="28.4503670" lon="-16.3702950">
        <ele>926.9</ele>
        <time>2020-11-11T11:11:24Z</time>
      </trkpt>
      <trkpt lat="28.4503350" lon="-16.3703180">
        <ele>926.9</ele>
        <time>2020-11-11T11:11:25Z</time>
      </trkpt>
      <trkpt lat="28.4503350" lon="-16.3703180">
        <ele>927.9</ele>
        <time>2020-11-11T11:11:26Z</time>
      </trkpt>
      <trkpt lat="28.4503170" lon="-16.3703520">
        <ele>927.9</ele>
        <time>2020-11-11T11:11:27Z</time>
      </trkpt>
      <trkpt lat="28.4503080" lon="-16.3703680">
        <ele>927.9</ele>
        <time>2020-11-11T11:11:28Z</time>
      </trkpt>
      <trkpt lat="28.4503080" lon="-16.3703680">
        <ele>927.9</ele>
        <time>2020-11-11T11:11:29Z</time>
      </trkpt>
      <trkpt lat="28.4503030" lon="-16.3704080">
        <ele>927.9</ele>
        <time>2020-11-11T11:11:30Z</time>
      </trkpt>
      <trkpt lat="28.4502980" lon="-16.3704320">
        <ele>927.9</ele>
        <time>2020-11-11T11:11:31Z</time>
      </trkpt>
      <trkpt lat="28.4502980" lon="-16.3704320">
        <ele>928.9</ele>
        <time>2020-11-11T11:11:32Z</time>
      </trkpt>
      <trkpt lat="28.4502880" lon="-16.3704680">
        <ele>928.9</ele>
        <time>2020-11-11T11:11:33Z</time>
      </trkpt>
      <trkpt lat="28.4502880" lon="-16.3704680">
        <ele>928.9</ele>
        <time>2020-11-11T11:11:34Z</time>
      </trkpt>
      <trkpt lat="28.4502730" lon="-16.3705120">
        <ele>928.9</ele>
        <time>2020-11-11T11:11:35Z</time>
      </trkpt>
      <trkpt lat="28.4502730" lon="-16.3705120">
        <ele>928.9</ele>
        <time>2020-11-11T11:11:36Z</time>
      </trkpt>
      <trkpt lat="28.4502730" lon="-16.3705120">
        <ele>929.9</ele>
        <time>2020-11-11T11:11:37Z</time>
      </trkpt>
      <trkpt lat="28.4502480" lon="-16.3705750">
        <ele>929.9</ele>
        <time>2020-11-11T11:11:38Z</time>
      </trkpt>
      <trkpt lat="28.4502480" lon="-16.3705750">
        <ele>929.9</ele>
        <time>2020-11-11T11:11:39Z</time>
      </trkpt>
      <trkpt lat="28.4502330" lon="-16.3706150">
        <ele>929.9</ele>
        <time>2020-11-11T11:11:40Z</time>
      </trkpt>
      <trkpt lat="28.4502250" lon="-16.3706370">
        <ele>930.9</ele>
        <time>2020-11-11T11:11:41Z</time>
      </trkpt>
      <trkpt lat="28.4502130" lon="-16.3706570">
        <ele>930.9</ele>
        <time>2020-11-11T11:11:42Z</time>
      </trkpt>
      <trkpt lat="28.4502130" lon="-16.3706570">
        <ele>930.9</ele>
        <time>2020-11-11T11:11:43Z</time>
      </trkpt>
      <trkpt lat="28.4501900" lon="-16.3706950">
        <ele>930.9</ele>
        <time>2020-11-11T11:11:44Z</time>
      </trkpt>
      <trkpt lat="28.4501900" lon="-16.3706950">
        <ele>930.9</ele>
        <time>2020-11-11T11:11:45Z</time>
      </trkpt>
      <trkpt lat="28.4501650" lon="-16.3707320">
        <ele>930.9</ele>
        <time>2020-11-11T11:11:46Z</time>
      </trkpt>
      <trkpt lat="28.4501550" lon="-16.3707520">
        <ele>931.9</ele>
        <time>2020-11-11T11:11:47Z</time>
      </trkpt>
      <trkpt lat="28.4501550" lon="-16.3707520">
        <ele>931.9</ele>
        <time>2020-11-11T11:11:48Z</time>
      </trkpt>
      <trkpt lat="28.4501350" lon="-16.3707930">
        <ele>931.9</ele>
        <time>2020-11-11T11:11:49Z</time>
      </trkpt>
      <trkpt lat="28.4501350" lon="-16.3707930">
        <ele>931.9</ele>
        <time>2020-11-11T11:11:50Z</time>
      </trkpt>
      <trkpt lat="28.4501180" lon="-16.3708350">
        <ele>931.9</ele>
        <time>2020-11-11T11:11:51Z</time>
      </trkpt>
      <trkpt lat="28.4501080" lon="-16.3708550">
        <ele>931.9</ele>
        <time>2020-11-11T11:11:52Z</time>
      </trkpt>
      <trkpt lat="28.4501080" lon="-16.3708550">
        <ele>931.9</ele>
        <time>2020-11-11T11:11:53Z</time>
      </trkpt>
      <trkpt lat="28.4500880" lon="-16.3708930">
        <ele>931.9</ele>
        <time>2020-11-11T11:11:54Z</time>
      </trkpt>
      <trkpt lat="28.4500780" lon="-16.3709130">
        <ele>932.9</ele>
        <time>2020-11-11T11:11:55Z</time>
      </trkpt>
      <trkpt lat="28.4500780" lon="-16.3709130">
        <ele>932.9</ele>
        <time>2020-11-11T11:11:56Z</time>
      </trkpt>
      <trkpt lat="28.4500570" lon="-16.3709520">
        <ele>932.9</ele>
        <time>2020-11-11T11:11:57Z</time>
      </trkpt>
      <trkpt lat="28.4500430" lon="-16.3709680">
        <ele>932.9</ele>
        <time>2020-11-11T11:11:58Z</time>
      </trkpt>
      <trkpt lat="28.4500430" lon="-16.3709680">
        <ele>932.9</ele>
        <time>2020-11-11T11:11:59Z</time>
      </trkpt>
      <trkpt lat="28.4500200" lon="-16.3710050">
        <ele>932.9</ele>
        <time>2020-11-11T11:12:00Z</time>
      </trkpt>
      <trkpt lat="28.4500200" lon="-16.3710050">
        <ele>933.9</ele>
        <time>2020-11-11T11:12:01Z</time>
      </trkpt>
      <trkpt lat="28.4500030" lon="-16.3710520">
        <ele>933.9</ele>
        <time>2020-11-11T11:12:02Z</time>
      </trkpt>
      <trkpt lat="28.4499950" lon="-16.3710730">
        <ele>933.9</ele>
        <time>2020-11-11T11:12:03Z</time>
      </trkpt>
      <trkpt lat="28.4499950" lon="-16.3710730">
        <ele>933.9</ele>
        <time>2020-11-11T11:12:04Z</time>
      </trkpt>
      <trkpt lat="28.4499800" lon="-16.3711180">
        <ele>934.9</ele>
        <time>2020-11-11T11:12:05Z</time>
      </trkpt>
      <trkpt lat="28.4499800" lon="-16.3711180">
        <ele>934.9</ele>
        <time>2020-11-11T11:12:06Z</time>
      </trkpt>
      <trkpt lat="28.4499570" lon="-16.3711600">
        <ele>934.9</ele>
        <time>2020-11-11T11:12:07Z</time>
      </trkpt>
      <trkpt lat="28.4499570" lon="-16.3711600">
        <ele>934.9</ele>
        <time>2020-11-11T11:12:08Z</time>
      </trkpt>
      <trkpt lat="28.4499330" lon="-16.3711950">
        <ele>934.9</ele>
        <time>2020-11-11T11:12:09Z</time>
      </trkpt>
      <trkpt lat="28.4499230" lon="-16.3712150">
        <ele>934.9</ele>
        <time>2020-11-11T11:12:10Z</time>
      </trkpt>
      <trkpt lat="28.4499230" lon="-16.3712150">
        <ele>934.9</ele>
        <time>2020-11-11T11:12:11Z</time>
      </trkpt>
      <trkpt lat="28.4499000" lon="-16.3712530">
        <ele>935.9</ele>
        <time>2020-11-11T11:12:12Z</time>
      </trkpt>
      <trkpt lat="28.4498870" lon="-16.3712720">
        <ele>935.9</ele>
        <time>2020-11-11T11:12:13Z</time>
      </trkpt>
      <trkpt lat="28.4498750" lon="-16.3712920">
        <ele>935.9</ele>
        <time>2020-11-11T11:12:14Z</time>
      </trkpt>
      <trkpt lat="28.4498750" lon="-16.3712920">
        <ele>935.9</ele>
        <time>2020-11-11T11:12:15Z</time>
      </trkpt>
      <trkpt lat="28.4498580" lon="-16.3713300">
        <ele>936.9</ele>
        <time>2020-11-11T11:12:16Z</time>
      </trkpt>
      <trkpt lat="28.4498580" lon="-16.3713300">
        <ele>936.9</ele>
        <time>2020-11-11T11:12:17Z</time>
      </trkpt>
      <trkpt lat="28.4498350" lon="-16.3713630">
        <ele>936.9</ele>
        <time>2020-11-11T11:12:18Z</time>
      </trkpt>
      <trkpt lat="28.4498220" lon="-16.3713780">
        <ele>936.9</ele>
        <time>2020-11-11T11:12:19Z</time>
      </trkpt>
      <trkpt lat="28.4498220" lon="-16.3713780">
        <ele>936.9</ele>
        <time>2020-11-11T11:12:20Z</time>
      </trkpt>
      <trkpt lat="28.4497920" lon="-16.3714080">
        <ele>937.9</ele>
        <time>2020-11-11T11:12:21Z</time>
      </trkpt>
      <trkpt lat="28.4497920" lon="-16.3714080">
        <ele>937.9</ele>
        <time>2020-11-11T11:12:22Z</time>
      </trkpt>
      <trkpt lat="28.4497650" lon="-16.3714420">
        <ele>937.9</ele>
        <time>2020-11-11T11:12:23Z</time>
      </trkpt>
      <trkpt lat="28.4497650" lon="-16.3714420">
        <ele>937.9</ele>
        <time>2020-11-11T11:12:24Z</time>
      </trkpt>
      <trkpt lat="28.4497330" lon="-16.3714720">
        <ele>938.9</ele>
        <time>2020-11-11T11:12:25Z</time>
      </trkpt>
      <trkpt lat="28.4497200" lon="-16.3714880">
        <ele>938.9</ele>
        <time>2020-11-11T11:12:26Z</time>
      </trkpt>
      <trkpt lat="28.4497200" lon="-16.3714880">
        <ele>938.9</ele>
        <time>2020-11-11T11:12:27Z</time>
      </trkpt>
      <trkpt lat="28.4496920" lon="-16.3715150">
        <ele>938.9</ele>
        <time>2020-11-11T11:12:28Z</time>
      </trkpt>
      <trkpt lat="28.4496920" lon="-16.3715150">
        <ele>939.9</ele>
        <time>2020-11-11T11:12:29Z</time>
      </trkpt>
      <trkpt lat="28.4496630" lon="-16.3715380">
        <ele>939.9</ele>
        <time>2020-11-11T11:12:30Z</time>
      </trkpt>
      <trkpt lat="28.4496480" lon="-16.3715520">
        <ele>939.9</ele>
        <time>2020-11-11T11:12:31Z</time>
      </trkpt>
      <trkpt lat="28.4496480" lon="-16.3715520">
        <ele>939.9</ele>
        <time>2020-11-11T11:12:32Z</time>
      </trkpt>
      <trkpt lat="28.4496300" lon="-16.3715850">
        <ele>940.9</ele>
        <time>2020-11-11T11:12:33Z</time>
      </trkpt>
      <trkpt lat="28.4496300" lon="-16.3715850">
        <ele>940.9</ele>
        <time>2020-11-11T11:12:34Z</time>
      </trkpt>
      <trkpt lat="28.4496100" lon="-16.3716250">
        <ele>940.9</ele>
        <time>2020-11-11T11:12:35Z</time>
      </trkpt>
      <trkpt lat="28.4496020" lon="-16.3716430">
        <ele>940.9</ele>
        <time>2020-11-11T11:12:36Z</time>
      </trkpt>
      <trkpt lat="28.4495920" lon="-16.3716630">
        <ele>941.9</ele>
        <time>2020-11-11T11:12:37Z</time>
      </trkpt>
      <trkpt lat="28.4495920" lon="-16.3716630">
        <ele>941.9</ele>
        <time>2020-11-11T11:12:38Z</time>
      </trkpt>
      <trkpt lat="28.4495670" lon="-16.3716970">
        <ele>941.9</ele>
        <time>2020-11-11T11:12:39Z</time>
      </trkpt>
      <trkpt lat="28.4495670" lon="-16.3716970">
        <ele>941.9</ele>
        <time>2020-11-11T11:12:40Z</time>
      </trkpt>
      <trkpt lat="28.4495430" lon="-16.3717320">
        <ele>941.9</ele>
        <time>2020-11-11T11:12:41Z</time>
      </trkpt>
      <trkpt lat="28.4495430" lon="-16.3717320">
        <ele>941.9</ele>
        <time>2020-11-11T11:12:42Z</time>
      </trkpt>
      <trkpt lat="28.4495220" lon="-16.3717650">
        <ele>942.9</ele>
        <time>2020-11-11T11:12:43Z</time>
      </trkpt>
      <trkpt lat="28.4495120" lon="-16.3717820">
        <ele>942.9</ele>
        <time>2020-11-11T11:12:44Z</time>
      </trkpt>
      <trkpt lat="28.4495120" lon="-16.3717820">
        <ele>942.9</ele>
        <time>2020-11-11T11:12:45Z</time>
      </trkpt>
      <trkpt lat="28.4494930" lon="-16.3718130">
        <ele>942.9</ele>
        <time>2020-11-11T11:12:46Z</time>
      </trkpt>
      <trkpt lat="28.4494930" lon="-16.3718130">
        <ele>943.9</ele>
        <time>2020-11-11T11:12:47Z</time>
      </trkpt>
      <trkpt lat="28.4494770" lon="-16.3718470">
        <ele>943.9</ele>
        <time>2020-11-11T11:12:48Z</time>
      </trkpt>
      <trkpt lat="28.4494700" lon="-16.3718620">
        <ele>943.9</ele>
        <time>2020-11-11T11:12:49Z</time>
      </trkpt>
      <trkpt lat="28.4494700" lon="-16.3718620">
        <ele>943.9</ele>
        <time>2020-11-11T11:12:50Z</time>
      </trkpt>
      <trkpt lat="28.4494570" lon="-16.3718920">
        <ele>943.9</ele>
        <time>2020-11-11T11:12:51Z</time>
      </trkpt>
      <trkpt lat="28.4494570" lon="-16.3718920">
        <ele>944.9</ele>
        <time>2020-11-11T11:12:52Z</time>
      </trkpt>
      <trkpt lat="28.4494400" lon="-16.3719250">
        <ele>944.9</ele>
        <time>2020-11-11T11:12:53Z</time>
      </trkpt>
      <trkpt lat="28.4494400" lon="-16.3719250">
        <ele>944.9</ele>
        <time>2020-11-11T11:12:54Z</time>
      </trkpt>
      <trkpt lat="28.4494250" lon="-16.3719570">
        <ele>944.9</ele>
        <time>2020-11-11T11:12:55Z</time>
      </trkpt>
      <trkpt lat="28.4494250" lon="-16.3719570">
        <ele>946.9</ele>
        <time>2020-11-11T11:12:56Z</time>
      </trkpt>
      <trkpt lat="28.4494050" lon="-16.3719850">
        <ele>946.9</ele>
        <time>2020-11-11T11:12:57Z</time>
      </trkpt>
      <trkpt lat="28.4493970" lon="-16.3720000">
        <ele>946.9</ele>
        <time>2020-11-11T11:12:58Z</time>
      </trkpt>
      <trkpt lat="28.4493900" lon="-16.3720180">
        <ele>946.9</ele>
        <time>2020-11-11T11:12:59Z</time>
      </trkpt>
      <trkpt lat="28.4493900" lon="-16.3720180">
        <ele>946.9</ele>
        <time>2020-11-11T11:13:00Z</time>
      </trkpt>
      <trkpt lat="28.4493720" lon="-16.3720520">
        <ele>946.9</ele>
        <time>2020-11-11T11:13:01Z</time>
      </trkpt>
      <trkpt lat="28.4493720" lon="-16.3720520">
        <ele>946.9</ele>
        <time>2020-11-11T11:13:02Z</time>
      </trkpt>
      <trkpt lat="28.4493670" lon="-16.3720950">
        <ele>946.9</ele>
        <time>2020-11-11T11:13:03Z</time>
      </trkpt>
      <trkpt lat="28.4493580" lon="-16.3721130">
        <ele>946.9</ele>
        <time>2020-11-11T11:13:04Z</time>
      </trkpt>
      <trkpt lat="28.4493580" lon="-16.3721130">
        <ele>947.9</ele>
        <time>2020-11-11T11:13:05Z</time>
      </trkpt>
      <trkpt lat="28.4493450" lon="-16.3721420">
        <ele>947.9</ele>
        <time>2020-11-11T11:13:06Z</time>
      </trkpt>
      <trkpt lat="28.4493450" lon="-16.3721420">
        <ele>947.9</ele>
        <time>2020-11-11T11:13:07Z</time>
      </trkpt>
      <trkpt lat="28.4493300" lon="-16.3721720">
        <ele>947.9</ele>
        <time>2020-11-11T11:13:08Z</time>
      </trkpt>
      <trkpt lat="28.4493230" lon="-16.3721870">
        <ele>948.9</ele>
        <time>2020-11-11T11:13:09Z</time>
      </trkpt>
      <trkpt lat="28.4493230" lon="-16.3721870">
        <ele>948.9</ele>
        <time>2020-11-11T11:13:10Z</time>
      </trkpt>
      <trkpt lat="28.4493080" lon="-16.3722200">
        <ele>949.9</ele>
        <time>2020-11-11T11:13:11Z</time>
      </trkpt>
      <trkpt lat="28.4493080" lon="-16.3722200">
        <ele>949.9</ele>
        <time>2020-11-11T11:13:12Z</time>
      </trkpt>
      <trkpt lat="28.4492930" lon="-16.3722550">
        <ele>949.9</ele>
        <time>2020-11-11T11:13:13Z</time>
      </trkpt>
      <trkpt lat="28.4492870" lon="-16.3722720">
        <ele>949.9</ele>
        <time>2020-11-11T11:13:14Z</time>
      </trkpt>
      <trkpt lat="28.4492870" lon="-16.3722720">
        <ele>950.9</ele>
        <time>2020-11-11T11:13:15Z</time>
      </trkpt>
      <trkpt lat="28.4492870" lon="-16.3722720">
        <ele>950.9</ele>
        <time>2020-11-11T11:13:16Z</time>
      </trkpt>
      <trkpt lat="28.4492620" lon="-16.3723150">
        <ele>951.9</ele>
        <time>2020-11-11T11:13:17Z</time>
      </trkpt>
      <trkpt lat="28.4492620" lon="-16.3723150">
        <ele>951.9</ele>
        <time>2020-11-11T11:13:18Z</time>
      </trkpt>
      <trkpt lat="28.4492520" lon="-16.3723480">
        <ele>951.9</ele>
        <time>2020-11-11T11:13:19Z</time>
      </trkpt>
      <trkpt lat="28.4492520" lon="-16.3723480">
        <ele>951.9</ele>
        <time>2020-11-11T11:13:20Z</time>
      </trkpt>
      <trkpt lat="28.4492400" lon="-16.3723800">
        <ele>952.9</ele>
        <time>2020-11-11T11:13:21Z</time>
      </trkpt>
      <trkpt lat="28.4492400" lon="-16.3723800">
        <ele>952.9</ele>
        <time>2020-11-11T11:13:22Z</time>
      </trkpt>
      <trkpt lat="28.4492220" lon="-16.3724120">
        <ele>952.9</ele>
        <time>2020-11-11T11:13:23Z</time>
      </trkpt>
      <trkpt lat="28.4492220" lon="-16.3724120">
        <ele>953.9</ele>
        <time>2020-11-11T11:13:24Z</time>
      </trkpt>
      <trkpt lat="28.4492150" lon="-16.3724430">
        <ele>953.9</ele>
        <time>2020-11-11T11:13:25Z</time>
      </trkpt>
      <trkpt lat="28.4492150" lon="-16.3724430">
        <ele>953.9</ele>
        <time>2020-11-11T11:13:26Z</time>
      </trkpt>
      <trkpt lat="28.4492000" lon="-16.3724720">
        <ele>953.9</ele>
        <time>2020-11-11T11:13:27Z</time>
      </trkpt>
      <trkpt lat="28.4491930" lon="-16.3724850">
        <ele>953.9</ele>
        <time>2020-11-11T11:13:28Z</time>
      </trkpt>
      <trkpt lat="28.4491930" lon="-16.3724850">
        <ele>953.9</ele>
        <time>2020-11-11T11:13:29Z</time>
      </trkpt>
      <trkpt lat="28.4491880" lon="-16.3725130">
        <ele>954.9</ele>
        <time>2020-11-11T11:13:30Z</time>
      </trkpt>
      <trkpt lat="28.4491880" lon="-16.3725130">
        <ele>954.9</ele>
        <time>2020-11-11T11:13:31Z</time>
      </trkpt>
      <trkpt lat="28.4491820" lon="-16.3725450">
        <ele>954.9</ele>
        <time>2020-11-11T11:13:32Z</time>
      </trkpt>
      <trkpt lat="28.4491820" lon="-16.3725450">
        <ele>954.9</ele>
        <time>2020-11-11T11:13:33Z</time>
      </trkpt>
      <trkpt lat="28.4491730" lon="-16.3725720">
        <ele>955.9</ele>
        <time>2020-11-11T11:13:34Z</time>
      </trkpt>
      <trkpt lat="28.4491730" lon="-16.3725720">
        <ele>955.9</ele>
        <time>2020-11-11T11:13:35Z</time>
      </trkpt>
      <trkpt lat="28.4491650" lon="-16.3726100">
        <ele>955.9</ele>
        <time>2020-11-11T11:13:36Z</time>
      </trkpt>
      <trkpt lat="28.4491620" lon="-16.3726250">
        <ele>955.9</ele>
        <time>2020-11-11T11:13:37Z</time>
      </trkpt>
      <trkpt lat="28.4491620" lon="-16.3726250">
        <ele>955.9</ele>
        <time>2020-11-11T11:13:38Z</time>
      </trkpt>
      <trkpt lat="28.4491550" lon="-16.3726630">
        <ele>955.9</ele>
        <time>2020-11-11T11:13:39Z</time>
      </trkpt>
      <trkpt lat="28.4491550" lon="-16.3726630">
        <ele>956.9</ele>
        <time>2020-11-11T11:13:40Z</time>
      </trkpt>
      <trkpt lat="28.4491420" lon="-16.3726920">
        <ele>956.9</ele>
        <time>2020-11-11T11:13:41Z</time>
      </trkpt>
      <trkpt lat="28.4491420" lon="-16.3726920">
        <ele>956.9</ele>
        <time>2020-11-11T11:13:42Z</time>
      </trkpt>
      <trkpt lat="28.4491300" lon="-16.3727250">
        <ele>956.9</ele>
        <time>2020-11-11T11:13:43Z</time>
      </trkpt>
      <trkpt lat="28.4491300" lon="-16.3727250">
        <ele>957.9</ele>
        <time>2020-11-11T11:13:44Z</time>
      </trkpt>
      <trkpt lat="28.4491250" lon="-16.3727620">
        <ele>957.9</ele>
        <time>2020-11-11T11:13:45Z</time>
      </trkpt>
      <trkpt lat="28.4491230" lon="-16.3727780">
        <ele>957.9</ele>
        <time>2020-11-11T11:13:46Z</time>
      </trkpt>
      <trkpt lat="28.4491180" lon="-16.3727950">
        <ele>957.9</ele>
        <time>2020-11-11T11:13:47Z</time>
      </trkpt>
      <trkpt lat="28.4491180" lon="-16.3727950">
        <ele>957.9</ele>
        <time>2020-11-11T11:13:48Z</time>
      </trkpt>
      <trkpt lat="28.4491070" lon="-16.3728270">
        <ele>957.9</ele>
        <time>2020-11-11T11:13:49Z</time>
      </trkpt>
      <trkpt lat="28.4491070" lon="-16.3728270">
        <ele>958.9</ele>
        <time>2020-11-11T11:13:50Z</time>
      </trkpt>
      <trkpt lat="28.4490920" lon="-16.3728550">
        <ele>958.9</ele>
        <time>2020-11-11T11:13:51Z</time>
      </trkpt>
      <trkpt lat="28.4490820" lon="-16.3728700">
        <ele>958.9</ele>
        <time>2020-11-11T11:13:52Z</time>
      </trkpt>
      <trkpt lat="28.4490820" lon="-16.3728700">
        <ele>958.9</ele>
        <time>2020-11-11T11:13:53Z</time>
      </trkpt>
      <trkpt lat="28.4490700" lon="-16.3729070">
        <ele>959.9</ele>
        <time>2020-11-11T11:13:54Z</time>
      </trkpt>
      <trkpt lat="28.4490650" lon="-16.3729230">
        <ele>959.9</ele>
        <time>2020-11-11T11:13:55Z</time>
      </trkpt>
      <trkpt lat="28.4490650" lon="-16.3729230">
        <ele>959.9</ele>
        <time>2020-11-11T11:13:56Z</time>
      </trkpt>
      <trkpt lat="28.4490550" lon="-16.3729520">
        <ele>959.9</ele>
        <time>2020-11-11T11:13:57Z</time>
      </trkpt>
      <trkpt lat="28.4490500" lon="-16.3729680">
        <ele>961.9</ele>
        <time>2020-11-11T11:13:58Z</time>
      </trkpt>
      <trkpt lat="28.4490500" lon="-16.3729680">
        <ele>961.9</ele>
        <time>2020-11-11T11:13:59Z</time>
      </trkpt>
      <trkpt lat="28.4490450" lon="-16.3730000">
        <ele>961.9</ele>
        <time>2020-11-11T11:14:00Z</time>
      </trkpt>
      <trkpt lat="28.4490430" lon="-16.3730200">
        <ele>961.9</ele>
        <time>2020-11-11T11:14:01Z</time>
      </trkpt>
      <trkpt lat="28.4490400" lon="-16.3730380">
        <ele>961.9</ele>
        <time>2020-11-11T11:14:02Z</time>
      </trkpt>
      <trkpt lat="28.4490400" lon="-16.3730380">
        <ele>961.9</ele>
        <time>2020-11-11T11:14:03Z</time>
      </trkpt>
      <trkpt lat="28.4490270" lon="-16.3730700">
        <ele>961.9</ele>
        <time>2020-11-11T11:14:04Z</time>
      </trkpt>
      <trkpt lat="28.4490270" lon="-16.3730700">
        <ele>962.9</ele>
        <time>2020-11-11T11:14:05Z</time>
      </trkpt>
      <trkpt lat="28.4490150" lon="-16.3731030">
        <ele>962.9</ele>
        <time>2020-11-11T11:14:06Z</time>
      </trkpt>
      <trkpt lat="28.4490120" lon="-16.3731200">
        <ele>962.9</ele>
        <time>2020-11-11T11:14:07Z</time>
      </trkpt>
      <trkpt lat="28.4490070" lon="-16.3731370">
        <ele>962.9</ele>
        <time>2020-11-11T11:14:08Z</time>
      </trkpt>
      <trkpt lat="28.4490070" lon="-16.3731370">
        <ele>963.9</ele>
        <time>2020-11-11T11:14:09Z</time>
      </trkpt>
      <trkpt lat="28.4489950" lon="-16.3731700">
        <ele>963.9</ele>
        <time>2020-11-11T11:14:10Z</time>
      </trkpt>
      <trkpt lat="28.4489870" lon="-16.3731880">
        <ele>963.9</ele>
        <time>2020-11-11T11:14:11Z</time>
      </trkpt>
      <trkpt lat="28.4489870" lon="-16.3731880">
        <ele>963.9</ele>
        <time>2020-11-11T11:14:12Z</time>
      </trkpt>
      <trkpt lat="28.4489650" lon="-16.3732200">
        <ele>963.9</ele>
        <time>2020-11-11T11:14:13Z</time>
      </trkpt>
      <trkpt lat="28.4489650" lon="-16.3732200">
        <ele>964.9</ele>
        <time>2020-11-11T11:14:14Z</time>
      </trkpt>
      <trkpt lat="28.4489500" lon="-16.3732580">
        <ele>964.9</ele>
        <time>2020-11-11T11:14:15Z</time>
      </trkpt>
      <trkpt lat="28.4489500" lon="-16.3732580">
        <ele>964.9</ele>
        <time>2020-11-11T11:14:16Z</time>
      </trkpt>
      <trkpt lat="28.4489400" lon="-16.3732970">
        <ele>964.9</ele>
        <time>2020-11-11T11:14:17Z</time>
      </trkpt>
      <trkpt lat="28.4489350" lon="-16.3733150">
        <ele>965.9</ele>
        <time>2020-11-11T11:14:18Z</time>
      </trkpt>
      <trkpt lat="28.4489350" lon="-16.3733150">
        <ele>965.9</ele>
        <time>2020-11-11T11:14:19Z</time>
      </trkpt>
      <trkpt lat="28.4489250" lon="-16.3733530">
        <ele>965.9</ele>
        <time>2020-11-11T11:14:20Z</time>
      </trkpt>
      <trkpt lat="28.4489250" lon="-16.3733530">
        <ele>965.9</ele>
        <time>2020-11-11T11:14:21Z</time>
      </trkpt>
      <trkpt lat="28.4489080" lon="-16.3733820">
        <ele>965.9</ele>
        <time>2020-11-11T11:14:22Z</time>
      </trkpt>
      <trkpt lat="28.4488980" lon="-16.3733930">
        <ele>965.9</ele>
        <time>2020-11-11T11:14:23Z</time>
      </trkpt>
      <trkpt lat="28.4488980" lon="-16.3733930">
        <ele>967.9</ele>
        <time>2020-11-11T11:14:24Z</time>
      </trkpt>
      <trkpt lat="28.4488780" lon="-16.3734200">
        <ele>967.9</ele>
        <time>2020-11-11T11:14:25Z</time>
      </trkpt>
      <trkpt lat="28.4488780" lon="-16.3734200">
        <ele>967.9</ele>
        <time>2020-11-11T11:14:26Z</time>
      </trkpt>
      <trkpt lat="28.4488780" lon="-16.3734200">
        <ele>967.9</ele>
        <time>2020-11-11T11:14:27Z</time>
      </trkpt>
      <trkpt lat="28.4488650" lon="-16.3734500">
        <ele>967.9</ele>
        <time>2020-11-11T11:14:28Z</time>
      </trkpt>
      <trkpt lat="28.4488470" lon="-16.3734780">
        <ele>967.9</ele>
        <time>2020-11-11T11:14:29Z</time>
      </trkpt>
      <trkpt lat="28.4488380" lon="-16.3734930">
        <ele>967.9</ele>
        <time>2020-11-11T11:14:30Z</time>
      </trkpt>
      <trkpt lat="28.4488320" lon="-16.3735050">
        <ele>967.9</ele>
        <time>2020-11-11T11:14:31Z</time>
      </trkpt>
      <trkpt lat="28.4488320" lon="-16.3735050">
        <ele>968.9</ele>
        <time>2020-11-11T11:14:32Z</time>
      </trkpt>
      <trkpt lat="28.4488280" lon="-16.3735380">
        <ele>968.9</ele>
        <time>2020-11-11T11:14:33Z</time>
      </trkpt>
      <trkpt lat="28.4488250" lon="-16.3735570">
        <ele>968.9</ele>
        <time>2020-11-11T11:14:34Z</time>
      </trkpt>
      <trkpt lat="28.4488250" lon="-16.3735570">
        <ele>968.9</ele>
        <time>2020-11-11T11:14:35Z</time>
      </trkpt>
      <trkpt lat="28.4488100" lon="-16.3735930">
        <ele>969.9</ele>
        <time>2020-11-11T11:14:36Z</time>
      </trkpt>
      <trkpt lat="28.4488100" lon="-16.3735930">
        <ele>969.9</ele>
        <time>2020-11-11T11:14:37Z</time>
      </trkpt>
      <trkpt lat="28.4487830" lon="-16.3736220">
        <ele>969.9</ele>
        <time>2020-11-11T11:14:38Z</time>
      </trkpt>
      <trkpt lat="28.4487830" lon="-16.3736220">
        <ele>970.9</ele>
        <time>2020-11-11T11:14:39Z</time>
      </trkpt>
      <trkpt lat="28.4487680" lon="-16.3736600">
        <ele>970.9</ele>
        <time>2020-11-11T11:14:40Z</time>
      </trkpt>
      <trkpt lat="28.4487680" lon="-16.3736600">
        <ele>970.9</ele>
        <time>2020-11-11T11:14:41Z</time>
      </trkpt>
      <trkpt lat="28.4487670" lon="-16.3737030">
        <ele>970.9</ele>
        <time>2020-11-11T11:14:42Z</time>
      </trkpt>
      <trkpt lat="28.4487630" lon="-16.3737230">
        <ele>972.9</ele>
        <time>2020-11-11T11:14:43Z</time>
      </trkpt>
      <trkpt lat="28.4487630" lon="-16.3737230">
        <ele>972.9</ele>
        <time>2020-11-11T11:14:44Z</time>
      </trkpt>
      <trkpt lat="28.4487480" lon="-16.3737550">
        <ele>972.9</ele>
        <time>2020-11-11T11:14:45Z</time>
      </trkpt>
      <trkpt lat="28.4487480" lon="-16.3737550">
        <ele>972.9</ele>
        <time>2020-11-11T11:14:46Z</time>
      </trkpt>
      <trkpt lat="28.4487300" lon="-16.3737870">
        <ele>973.9</ele>
        <time>2020-11-11T11:14:47Z</time>
      </trkpt>
      <trkpt lat="28.4487300" lon="-16.3737870">
        <ele>973.9</ele>
        <time>2020-11-11T11:14:48Z</time>
      </trkpt>
      <trkpt lat="28.4487200" lon="-16.3738220">
        <ele>973.9</ele>
        <time>2020-11-11T11:14:49Z</time>
      </trkpt>
      <trkpt lat="28.4487200" lon="-16.3738220">
        <ele>973.9</ele>
        <time>2020-11-11T11:14:50Z</time>
      </trkpt>
      <trkpt lat="28.4487150" lon="-16.3738600">
        <ele>974.9</ele>
        <time>2020-11-11T11:14:51Z</time>
      </trkpt>
      <trkpt lat="28.4487150" lon="-16.3738600">
        <ele>974.9</ele>
        <time>2020-11-11T11:14:52Z</time>
      </trkpt>
      <trkpt lat="28.4487080" lon="-16.3738770">
        <ele>974.9</ele>
        <time>2020-11-11T11:14:53Z</time>
      </trkpt>
      <trkpt lat="28.4486900" lon="-16.3739030">
        <ele>974.9</ele>
        <time>2020-11-11T11:14:54Z</time>
      </trkpt>
      <trkpt lat="28.4486780" lon="-16.3739180">
        <ele>975.9</ele>
        <time>2020-11-11T11:14:55Z</time>
      </trkpt>
      <trkpt lat="28.4486680" lon="-16.3739330">
        <ele>975.9</ele>
        <time>2020-11-11T11:14:56Z</time>
      </trkpt>
      <trkpt lat="28.4486680" lon="-16.3739330">
        <ele>975.9</ele>
        <time>2020-11-11T11:14:57Z</time>
      </trkpt>
      <trkpt lat="28.4486570" lon="-16.3739670">
        <ele>975.9</ele>
        <time>2020-11-11T11:14:58Z</time>
      </trkpt>
      <trkpt lat="28.4486530" lon="-16.3739830">
        <ele>975.9</ele>
        <time>2020-11-11T11:14:59Z</time>
      </trkpt>
      <trkpt lat="28.4486530" lon="-16.3739830">
        <ele>975.9</ele>
        <time>2020-11-11T11:15:00Z</time>
      </trkpt>
      <trkpt lat="28.4486400" lon="-16.3740180">
        <ele>975.9</ele>
        <time>2020-11-11T11:15:01Z</time>
      </trkpt>
      <trkpt lat="28.4486400" lon="-16.3740180">
        <ele>975.9</ele>
        <time>2020-11-11T11:15:02Z</time>
      </trkpt>
      <trkpt lat="28.4486180" lon="-16.3740470">
        <ele>976.9</ele>
        <time>2020-11-11T11:15:03Z</time>
      </trkpt>
      <trkpt lat="28.4486180" lon="-16.3740470">
        <ele>976.9</ele>
        <time>2020-11-11T11:15:04Z</time>
      </trkpt>
      <trkpt lat="28.4486030" lon="-16.3740780">
        <ele>976.9</ele>
        <time>2020-11-11T11:15:05Z</time>
      </trkpt>
      <trkpt lat="28.4485970" lon="-16.3740930">
        <ele>976.9</ele>
        <time>2020-11-11T11:15:06Z</time>
      </trkpt>
      <trkpt lat="28.4485970" lon="-16.3740930">
        <ele>977.9</ele>
        <time>2020-11-11T11:15:07Z</time>
      </trkpt>
      <trkpt lat="28.4485870" lon="-16.3741230">
        <ele>977.9</ele>
        <time>2020-11-11T11:15:08Z</time>
      </trkpt>
      <trkpt lat="28.4485870" lon="-16.3741230">
        <ele>977.9</ele>
        <time>2020-11-11T11:15:09Z</time>
      </trkpt>
      <trkpt lat="28.4485780" lon="-16.3741570">
        <ele>977.9</ele>
        <time>2020-11-11T11:15:10Z</time>
      </trkpt>
      <trkpt lat="28.4485780" lon="-16.3741570">
        <ele>978.9</ele>
        <time>2020-11-11T11:15:11Z</time>
      </trkpt>
      <trkpt lat="28.4485670" lon="-16.3741950">
        <ele>978.9</ele>
        <time>2020-11-11T11:15:12Z</time>
      </trkpt>
      <trkpt lat="28.4485600" lon="-16.3742120">
        <ele>978.9</ele>
        <time>2020-11-11T11:15:13Z</time>
      </trkpt>
      <trkpt lat="28.4485600" lon="-16.3742120">
        <ele>979.9</ele>
        <time>2020-11-11T11:15:14Z</time>
      </trkpt>
      <trkpt lat="28.4485450" lon="-16.3742470">
        <ele>979.9</ele>
        <time>2020-11-11T11:15:15Z</time>
      </trkpt>
      <trkpt lat="28.4485450" lon="-16.3742470">
        <ele>979.9</ele>
        <time>2020-11-11T11:15:16Z</time>
      </trkpt>
      <trkpt lat="28.4485450" lon="-16.3742470">
        <ele>979.9</ele>
        <time>2020-11-11T11:15:17Z</time>
      </trkpt>
      <trkpt lat="28.4485320" lon="-16.3742820">
        <ele>980.9</ele>
        <time>2020-11-11T11:15:18Z</time>
      </trkpt>
      <trkpt lat="28.4485170" lon="-16.3743080">
        <ele>980.9</ele>
        <time>2020-11-11T11:15:19Z</time>
      </trkpt>
      <trkpt lat="28.4485170" lon="-16.3743080">
        <ele>980.9</ele>
        <time>2020-11-11T11:15:20Z</time>
      </trkpt>
      <trkpt lat="28.4484950" lon="-16.3743380">
        <ele>980.9</ele>
        <time>2020-11-11T11:15:21Z</time>
      </trkpt>
      <trkpt lat="28.4484850" lon="-16.3743580">
        <ele>981.9</ele>
        <time>2020-11-11T11:15:22Z</time>
      </trkpt>
      <trkpt lat="28.4484850" lon="-16.3743580">
        <ele>981.9</ele>
        <time>2020-11-11T11:15:23Z</time>
      </trkpt>
      <trkpt lat="28.4484770" lon="-16.3744020">
        <ele>981.9</ele>
        <time>2020-11-11T11:15:24Z</time>
      </trkpt>
      <trkpt lat="28.4484720" lon="-16.3744220">
        <ele>981.9</ele>
        <time>2020-11-11T11:15:25Z</time>
      </trkpt>
      <trkpt lat="28.4484720" lon="-16.3744220">
        <ele>981.9</ele>
        <time>2020-11-11T11:15:26Z</time>
      </trkpt>
      <trkpt lat="28.4484550" lon="-16.3744620">
        <ele>981.9</ele>
        <time>2020-11-11T11:15:27Z</time>
      </trkpt>
      <trkpt lat="28.4484470" lon="-16.3744800">
        <ele>982.9</ele>
        <time>2020-11-11T11:15:28Z</time>
      </trkpt>
      <trkpt lat="28.4484470" lon="-16.3744800">
        <ele>982.9</ele>
        <time>2020-11-11T11:15:29Z</time>
      </trkpt>
      <trkpt lat="28.4484320" lon="-16.3745170">
        <ele>982.9</ele>
        <time>2020-11-11T11:15:30Z</time>
      </trkpt>
      <trkpt lat="28.4484250" lon="-16.3745370">
        <ele>982.9</ele>
        <time>2020-11-11T11:15:31Z</time>
      </trkpt>
      <trkpt lat="28.4484250" lon="-16.3745370">
        <ele>983.9</ele>
        <time>2020-11-11T11:15:32Z</time>
      </trkpt>
      <trkpt lat="28.4484070" lon="-16.3745730">
        <ele>983.9</ele>
        <time>2020-11-11T11:15:33Z</time>
      </trkpt>
      <trkpt lat="28.4484070" lon="-16.3745730">
        <ele>983.9</ele>
        <time>2020-11-11T11:15:34Z</time>
      </trkpt>
      <trkpt lat="28.4483950" lon="-16.3746130">
        <ele>983.9</ele>
        <time>2020-11-11T11:15:35Z</time>
      </trkpt>
      <trkpt lat="28.4483950" lon="-16.3746130">
        <ele>984.9</ele>
        <time>2020-11-11T11:15:36Z</time>
      </trkpt>
      <trkpt lat="28.4483870" lon="-16.3746500">
        <ele>984.9</ele>
        <time>2020-11-11T11:15:37Z</time>
      </trkpt>
      <trkpt lat="28.4483870" lon="-16.3746500">
        <ele>984.9</ele>
        <time>2020-11-11T11:15:38Z</time>
      </trkpt>
      <trkpt lat="28.4483800" lon="-16.3747020">
        <ele>984.9</ele>
        <time>2020-11-11T11:15:39Z</time>
      </trkpt>
      <trkpt lat="28.4483770" lon="-16.3747230">
        <ele>984.9</ele>
        <time>2020-11-11T11:15:40Z</time>
      </trkpt>
      <trkpt lat="28.4483770" lon="-16.3747230">
        <ele>984.9</ele>
        <time>2020-11-11T11:15:41Z</time>
      </trkpt>
      <trkpt lat="28.4483670" lon="-16.3747670">
        <ele>985.9</ele>
        <time>2020-11-11T11:15:42Z</time>
      </trkpt>
      <trkpt lat="28.4483580" lon="-16.3747880">
        <ele>985.9</ele>
        <time>2020-11-11T11:15:43Z</time>
      </trkpt>
      <trkpt lat="28.4483500" lon="-16.3748080">
        <ele>985.9</ele>
        <time>2020-11-11T11:15:44Z</time>
      </trkpt>
      <trkpt lat="28.4483500" lon="-16.3748080">
        <ele>985.9</ele>
        <time>2020-11-11T11:15:45Z</time>
      </trkpt>
      <trkpt lat="28.4483430" lon="-16.3748480">
        <ele>986.9</ele>
        <time>2020-11-11T11:15:46Z</time>
      </trkpt>
      <trkpt lat="28.4483430" lon="-16.3748480">
        <ele>986.9</ele>
        <time>2020-11-11T11:15:47Z</time>
      </trkpt>
      <trkpt lat="28.4483320" lon="-16.3748920">
        <ele>986.9</ele>
        <time>2020-11-11T11:15:48Z</time>
      </trkpt>
      <trkpt lat="28.4483270" lon="-16.3749100">
        <ele>986.9</ele>
        <time>2020-11-11T11:15:49Z</time>
      </trkpt>
      <trkpt lat="28.4483270" lon="-16.3749100">
        <ele>987.9</ele>
        <time>2020-11-11T11:15:50Z</time>
      </trkpt>
      <trkpt lat="28.4483220" lon="-16.3749570">
        <ele>987.9</ele>
        <time>2020-11-11T11:15:51Z</time>
      </trkpt>
      <trkpt lat="28.4483220" lon="-16.3749570">
        <ele>987.9</ele>
        <time>2020-11-11T11:15:52Z</time>
      </trkpt>
      <trkpt lat="28.4483220" lon="-16.3749570">
        <ele>988.9</ele>
        <time>2020-11-11T11:15:53Z</time>
      </trkpt>
      <trkpt lat="28.4483130" lon="-16.3750020">
        <ele>988.9</ele>
        <time>2020-11-11T11:15:54Z</time>
      </trkpt>
      <trkpt lat="28.4483050" lon="-16.3750450">
        <ele>988.9</ele>
        <time>2020-11-11T11:15:55Z</time>
      </trkpt>
      <trkpt lat="28.4483050" lon="-16.3750450">
        <ele>988.9</ele>
        <time>2020-11-11T11:15:56Z</time>
      </trkpt>
      <trkpt lat="28.4482980" lon="-16.3750920">
        <ele>988.9</ele>
        <time>2020-11-11T11:15:57Z</time>
      </trkpt>
      <trkpt lat="28.4482970" lon="-16.3751150">
        <ele>988.9</ele>
        <time>2020-11-11T11:15:58Z</time>
      </trkpt>
      <trkpt lat="28.4482970" lon="-16.3751150">
        <ele>989.9</ele>
        <time>2020-11-11T11:15:59Z</time>
      </trkpt>
      <trkpt lat="28.4482930" lon="-16.3751620">
        <ele>989.9</ele>
        <time>2020-11-11T11:16:00Z</time>
      </trkpt>
      <trkpt lat="28.4482930" lon="-16.3751870">
        <ele>989.9</ele>
        <time>2020-11-11T11:16:01Z</time>
      </trkpt>
      <trkpt lat="28.4482930" lon="-16.3751870">
        <ele>989.9</ele>
        <time>2020-11-11T11:16:02Z</time>
      </trkpt>
      <trkpt lat="28.4482920" lon="-16.3752370">
        <ele>989.9</ele>
        <time>2020-11-11T11:16:03Z</time>
      </trkpt>
      <trkpt lat="28.4482920" lon="-16.3752370">
        <ele>989.9</ele>
        <time>2020-11-11T11:16:04Z</time>
      </trkpt>
      <trkpt lat="28.4482850" lon="-16.3752880">
        <ele>989.9</ele>
        <time>2020-11-11T11:16:05Z</time>
      </trkpt>
      <trkpt lat="28.4482850" lon="-16.3752880">
        <ele>990.9</ele>
        <time>2020-11-11T11:16:06Z</time>
      </trkpt>
      <trkpt lat="28.4482820" lon="-16.3753380">
        <ele>990.9</ele>
        <time>2020-11-11T11:16:07Z</time>
      </trkpt>
      <trkpt lat="28.4482820" lon="-16.3753380">
        <ele>990.9</ele>
        <time>2020-11-11T11:16:08Z</time>
      </trkpt>
      <trkpt lat="28.4482800" lon="-16.3753880">
        <ele>990.9</ele>
        <time>2020-11-11T11:16:09Z</time>
      </trkpt>
      <trkpt lat="28.4482770" lon="-16.3754130">
        <ele>990.9</ele>
        <time>2020-11-11T11:16:10Z</time>
      </trkpt>
      <trkpt lat="28.4482770" lon="-16.3754130">
        <ele>990.9</ele>
        <time>2020-11-11T11:16:11Z</time>
      </trkpt>
      <trkpt lat="28.4482750" lon="-16.3754630">
        <ele>990.9</ele>
        <time>2020-11-11T11:16:12Z</time>
      </trkpt>
      <trkpt lat="28.4482750" lon="-16.3754630">
        <ele>990.9</ele>
        <time>2020-11-11T11:16:13Z</time>
      </trkpt>
      <trkpt lat="28.4482730" lon="-16.3755150">
        <ele>990.9</ele>
        <time>2020-11-11T11:16:14Z</time>
      </trkpt>
      <trkpt lat="28.4482730" lon="-16.3755150">
        <ele>990.9</ele>
        <time>2020-11-11T11:16:15Z</time>
      </trkpt>
      <trkpt lat="28.4482750" lon="-16.3755650">
        <ele>990.9</ele>
        <time>2020-11-11T11:16:16Z</time>
      </trkpt>
      <trkpt lat="28.4482750" lon="-16.3755650">
        <ele>990.9</ele>
        <time>2020-11-11T11:16:17Z</time>
      </trkpt>
      <trkpt lat="28.4482780" lon="-16.3756170">
        <ele>991.9</ele>
        <time>2020-11-11T11:16:18Z</time>
      </trkpt>
      <trkpt lat="28.4482800" lon="-16.3756430">
        <ele>991.9</ele>
        <time>2020-11-11T11:16:19Z</time>
      </trkpt>
      <trkpt lat="28.4482800" lon="-16.3756430">
        <ele>991.9</ele>
        <time>2020-11-11T11:16:20Z</time>
      </trkpt>
      <trkpt lat="28.4482800" lon="-16.3756980">
        <ele>991.9</ele>
        <time>2020-11-11T11:16:21Z</time>
      </trkpt>
      <trkpt lat="28.4482800" lon="-16.3756980">
        <ele>992.9</ele>
        <time>2020-11-11T11:16:22Z</time>
      </trkpt>
      <trkpt lat="28.4482830" lon="-16.3757480">
        <ele>992.9</ele>
        <time>2020-11-11T11:16:23Z</time>
      </trkpt>
      <trkpt lat="28.4482830" lon="-16.3757480">
        <ele>992.9</ele>
        <time>2020-11-11T11:16:24Z</time>
      </trkpt>
      <trkpt lat="28.4482830" lon="-16.3758000">
        <ele>992.9</ele>
        <time>2020-11-11T11:16:25Z</time>
      </trkpt>
      <trkpt lat="28.4482830" lon="-16.3758000">
        <ele>993.9</ele>
        <time>2020-11-11T11:16:26Z</time>
      </trkpt>
      <trkpt lat="28.4482900" lon="-16.3758620">
        <ele>993.9</ele>
        <time>2020-11-11T11:16:27Z</time>
      </trkpt>
      <trkpt lat="28.4482900" lon="-16.3758930">
        <ele>993.9</ele>
        <time>2020-11-11T11:16:28Z</time>
      </trkpt>
      <trkpt lat="28.4482900" lon="-16.3758930">
        <ele>993.9</ele>
        <time>2020-11-11T11:16:29Z</time>
      </trkpt>
      <trkpt lat="28.4482920" lon="-16.3759500">
        <ele>993.9</ele>
        <time>2020-11-11T11:16:30Z</time>
      </trkpt>
      <trkpt lat="28.4482900" lon="-16.3759770">
        <ele>994.9</ele>
        <time>2020-11-11T11:16:31Z</time>
      </trkpt>
      <trkpt lat="28.4482900" lon="-16.3759770">
        <ele>994.9</ele>
        <time>2020-11-11T11:16:32Z</time>
      </trkpt>
      <trkpt lat="28.4482880" lon="-16.3760280">
        <ele>994.9</ele>
        <time>2020-11-11T11:16:33Z</time>
      </trkpt>
      <trkpt lat="28.4482880" lon="-16.3760280">
        <ele>994.9</ele>
        <time>2020-11-11T11:16:34Z</time>
      </trkpt>
      <trkpt lat="28.4482900" lon="-16.3760830">
        <ele>995.9</ele>
        <time>2020-11-11T11:16:35Z</time>
      </trkpt>
      <trkpt lat="28.4482900" lon="-16.3760830">
        <ele>995.9</ele>
        <time>2020-11-11T11:16:36Z</time>
      </trkpt>
      <trkpt lat="28.4482880" lon="-16.3761330">
        <ele>995.9</ele>
        <time>2020-11-11T11:16:37Z</time>
      </trkpt>
      <trkpt lat="28.4482880" lon="-16.3761330">
        <ele>995.9</ele>
        <time>2020-11-11T11:16:38Z</time>
      </trkpt>
      <trkpt lat="28.4482900" lon="-16.3761850">
        <ele>996.9</ele>
        <time>2020-11-11T11:16:39Z</time>
      </trkpt>
      <trkpt lat="28.4482900" lon="-16.3761850">
        <ele>996.9</ele>
        <time>2020-11-11T11:16:40Z</time>
      </trkpt>
      <trkpt lat="28.4482920" lon="-16.3762420">
        <ele>996.9</ele>
        <time>2020-11-11T11:16:41Z</time>
      </trkpt>
      <trkpt lat="28.4482920" lon="-16.3762420">
        <ele>996.9</ele>
        <time>2020-11-11T11:16:42Z</time>
      </trkpt>
      <trkpt lat="28.4482880" lon="-16.3762970">
        <ele>997.9</ele>
        <time>2020-11-11T11:16:43Z</time>
      </trkpt>
      <trkpt lat="28.4482880" lon="-16.3762970">
        <ele>997.9</ele>
        <time>2020-11-11T11:16:44Z</time>
      </trkpt>
      <trkpt lat="28.4482770" lon="-16.3763500">
        <ele>997.9</ele>
        <time>2020-11-11T11:16:45Z</time>
      </trkpt>
      <trkpt lat="28.4482770" lon="-16.3763500">
        <ele>997.9</ele>
        <time>2020-11-11T11:16:46Z</time>
      </trkpt>
      <trkpt lat="28.4482730" lon="-16.3764000">
        <ele>998.9</ele>
        <time>2020-11-11T11:16:47Z</time>
      </trkpt>
      <trkpt lat="28.4482730" lon="-16.3764250">
        <ele>998.9</ele>
        <time>2020-11-11T11:16:48Z</time>
      </trkpt>
      <trkpt lat="28.4482730" lon="-16.3764250">
        <ele>998.9</ele>
        <time>2020-11-11T11:16:49Z</time>
      </trkpt>
      <trkpt lat="28.4482820" lon="-16.3764780">
        <ele>998.9</ele>
        <time>2020-11-11T11:16:50Z</time>
      </trkpt>
      <trkpt lat="28.4482870" lon="-16.3765030">
        <ele>998.9</ele>
        <time>2020-11-11T11:16:51Z</time>
      </trkpt>
      <trkpt lat="28.4482870" lon="-16.3765030">
        <ele>998.9</ele>
        <time>2020-11-11T11:16:52Z</time>
      </trkpt>
      <trkpt lat="28.4482930" lon="-16.3765580">
        <ele>998.9</ele>
        <time>2020-11-11T11:16:53Z</time>
      </trkpt>
      <trkpt lat="28.4482930" lon="-16.3765580">
        <ele>998.9</ele>
        <time>2020-11-11T11:16:54Z</time>
      </trkpt>
      <trkpt lat="28.4482950" lon="-16.3766050">
        <ele>999.9</ele>
        <time>2020-11-11T11:16:55Z</time>
      </trkpt>
      <trkpt lat="28.4482950" lon="-16.3766050">
        <ele>999.9</ele>
        <time>2020-11-11T11:16:56Z</time>
      </trkpt>
      <trkpt lat="28.4482900" lon="-16.3766530">
        <ele>999.9</ele>
        <time>2020-11-11T11:16:57Z</time>
      </trkpt>
      <trkpt lat="28.4482830" lon="-16.3766780">
        <ele>999.9</ele>
        <time>2020-11-11T11:16:58Z</time>
      </trkpt>
      <trkpt lat="28.4482830" lon="-16.3766780">
        <ele>1000.9</ele>
        <time>2020-11-11T11:16:59Z</time>
      </trkpt>
      <trkpt lat="28.4482680" lon="-16.3767320">
        <ele>1000.9</ele>
        <time>2020-11-11T11:17:00Z</time>
      </trkpt>
      <trkpt lat="28.4482580" lon="-16.3767550">
        <ele>1000.9</ele>
        <time>2020-11-11T11:17:01Z</time>
      </trkpt>
      <trkpt lat="28.4482580" lon="-16.3767550">
        <ele>1000.9</ele>
        <time>2020-11-11T11:17:02Z</time>
      </trkpt>
      <trkpt lat="28.4482580" lon="-16.3767550">
        <ele>1000.9</ele>
        <time>2020-11-11T11:17:03Z</time>
      </trkpt>
      <trkpt lat="28.4482500" lon="-16.3768030">
        <ele>1001.9</ele>
        <time>2020-11-11T11:17:04Z</time>
      </trkpt>
      <trkpt lat="28.4482480" lon="-16.3768550">
        <ele>1001.9</ele>
        <time>2020-11-11T11:17:05Z</time>
      </trkpt>
      <trkpt lat="28.4482480" lon="-16.3768550">
        <ele>1001.9</ele>
        <time>2020-11-11T11:17:06Z</time>
      </trkpt>
      <trkpt lat="28.4482570" lon="-16.3769070">
        <ele>1001.9</ele>
        <time>2020-11-11T11:17:07Z</time>
      </trkpt>
      <trkpt lat="28.4482570" lon="-16.3769070">
        <ele>1003.9</ele>
        <time>2020-11-11T11:17:08Z</time>
      </trkpt>
      <trkpt lat="28.4482670" lon="-16.3769550">
        <ele>1003.9</ele>
        <time>2020-11-11T11:17:09Z</time>
      </trkpt>
      <trkpt lat="28.4482670" lon="-16.3769550">
        <ele>1003.9</ele>
        <time>2020-11-11T11:17:10Z</time>
      </trkpt>
      <trkpt lat="28.4482800" lon="-16.3770000">
        <ele>1003.9</ele>
        <time>2020-11-11T11:17:11Z</time>
      </trkpt>
      <trkpt lat="28.4482800" lon="-16.3770000">
        <ele>1004.9</ele>
        <time>2020-11-11T11:17:12Z</time>
      </trkpt>
      <trkpt lat="28.4482880" lon="-16.3770450">
        <ele>1004.9</ele>
        <time>2020-11-11T11:17:13Z</time>
      </trkpt>
      <trkpt lat="28.4482970" lon="-16.3770700">
        <ele>1004.9</ele>
        <time>2020-11-11T11:17:14Z</time>
      </trkpt>
      <trkpt lat="28.4482970" lon="-16.3770700">
        <ele>1004.9</ele>
        <time>2020-11-11T11:17:15Z</time>
      </trkpt>
      <trkpt lat="28.4483050" lon="-16.3771100">
        <ele>1004.9</ele>
        <time>2020-11-11T11:17:16Z</time>
      </trkpt>
      <trkpt lat="28.4483050" lon="-16.3771100">
        <ele>1004.9</ele>
        <time>2020-11-11T11:17:17Z</time>
      </trkpt>
      <trkpt lat="28.4483170" lon="-16.3771550">
        <ele>1004.9</ele>
        <time>2020-11-11T11:17:18Z</time>
      </trkpt>
      <trkpt lat="28.4483230" lon="-16.3771780">
        <ele>1004.9</ele>
        <time>2020-11-11T11:17:19Z</time>
      </trkpt>
      <trkpt lat="28.4483320" lon="-16.3772030">
        <ele>1006.9</ele>
        <time>2020-11-11T11:17:20Z</time>
      </trkpt>
      <trkpt lat="28.4483320" lon="-16.3772030">
        <ele>1006.9</ele>
        <time>2020-11-11T11:17:21Z</time>
      </trkpt>
      <trkpt lat="28.4483470" lon="-16.3772470">
        <ele>1006.9</ele>
        <time>2020-11-11T11:17:22Z</time>
      </trkpt>
      <trkpt lat="28.4483530" lon="-16.3772670">
        <ele>1006.9</ele>
        <time>2020-11-11T11:17:23Z</time>
      </trkpt>
      <trkpt lat="28.4483530" lon="-16.3772670">
        <ele>1006.9</ele>
        <time>2020-11-11T11:17:24Z</time>
      </trkpt>
      <trkpt lat="28.4483680" lon="-16.3773080">
        <ele>1006.9</ele>
        <time>2020-11-11T11:17:25Z</time>
      </trkpt>
      <trkpt lat="28.4483680" lon="-16.3773080">
        <ele>1006.9</ele>
        <time>2020-11-11T11:17:26Z</time>
      </trkpt>
      <trkpt lat="28.4483680" lon="-16.3773080">
        <ele>1006.9</ele>
        <time>2020-11-11T11:17:27Z</time>
      </trkpt>
      <trkpt lat="28.4483830" lon="-16.3773430">
        <ele>1007.9</ele>
        <time>2020-11-11T11:17:28Z</time>
      </trkpt>
      <trkpt lat="28.4483970" lon="-16.3773780">
        <ele>1007.9</ele>
        <time>2020-11-11T11:17:29Z</time>
      </trkpt>
      <trkpt lat="28.4483970" lon="-16.3773780">
        <ele>1007.9</ele>
        <time>2020-11-11T11:17:30Z</time>
      </trkpt>
      <trkpt lat="28.4484080" lon="-16.3774200">
        <ele>1007.9</ele>
        <time>2020-11-11T11:17:31Z</time>
      </trkpt>
      <trkpt lat="28.4484130" lon="-16.3774380">
        <ele>1007.9</ele>
        <time>2020-11-11T11:17:32Z</time>
      </trkpt>
      <trkpt lat="28.4484130" lon="-16.3774380">
        <ele>1008.9</ele>
        <time>2020-11-11T11:17:33Z</time>
      </trkpt>
      <trkpt lat="28.4484270" lon="-16.3774670">
        <ele>1008.9</ele>
        <time>2020-11-11T11:17:34Z</time>
      </trkpt>
      <trkpt lat="28.4484270" lon="-16.3774670">
        <ele>1008.9</ele>
        <time>2020-11-11T11:17:35Z</time>
      </trkpt>
      <trkpt lat="28.4484430" lon="-16.3775050">
        <ele>1008.9</ele>
        <time>2020-11-11T11:17:36Z</time>
      </trkpt>
      <trkpt lat="28.4484430" lon="-16.3775050">
        <ele>1009.9</ele>
        <time>2020-11-11T11:17:37Z</time>
      </trkpt>
      <trkpt lat="28.4484620" lon="-16.3775470">
        <ele>1009.9</ele>
        <time>2020-11-11T11:17:38Z</time>
      </trkpt>
      <trkpt lat="28.4484620" lon="-16.3775470">
        <ele>1009.9</ele>
        <time>2020-11-11T11:17:39Z</time>
      </trkpt>
      <trkpt lat="28.4484700" lon="-16.3775820">
        <ele>1010.9</ele>
        <time>2020-11-11T11:17:40Z</time>
      </trkpt>
      <trkpt lat="28.4484730" lon="-16.3776020">
        <ele>1010.9</ele>
        <time>2020-11-11T11:17:41Z</time>
      </trkpt>
      <trkpt lat="28.4484730" lon="-16.3776020">
        <ele>1011.9</ele>
        <time>2020-11-11T11:17:42Z</time>
      </trkpt>
      <trkpt lat="28.4484850" lon="-16.3776400">
        <ele>1011.9</ele>
        <time>2020-11-11T11:17:43Z</time>
      </trkpt>
      <trkpt lat="28.4484850" lon="-16.3776400">
        <ele>1011.9</ele>
        <time>2020-11-11T11:17:44Z</time>
      </trkpt>
      <trkpt lat="28.4485030" lon="-16.3776750">
        <ele>1011.9</ele>
        <time>2020-11-11T11:17:45Z</time>
      </trkpt>
      <trkpt lat="28.4485120" lon="-16.3776920">
        <ele>1012.9</ele>
        <time>2020-11-11T11:17:46Z</time>
      </trkpt>
      <trkpt lat="28.4485120" lon="-16.3776920">
        <ele>1012.9</ele>
        <time>2020-11-11T11:17:47Z</time>
      </trkpt>
      <trkpt lat="28.4485130" lon="-16.3777230">
        <ele>1012.9</ele>
        <time>2020-11-11T11:17:48Z</time>
      </trkpt>
      <trkpt lat="28.4485150" lon="-16.3777400">
        <ele>1012.9</ele>
        <time>2020-11-11T11:17:49Z</time>
      </trkpt>
      <trkpt lat="28.4485150" lon="-16.3777400">
        <ele>1013.9</ele>
        <time>2020-11-11T11:17:50Z</time>
      </trkpt>
      <trkpt lat="28.4485230" lon="-16.3777780">
        <ele>1013.9</ele>
        <time>2020-11-11T11:17:51Z</time>
      </trkpt>
      <trkpt lat="28.4485230" lon="-16.3777780">
        <ele>1013.9</ele>
        <time>2020-11-11T11:17:52Z</time>
      </trkpt>
      <trkpt lat="28.4485330" lon="-16.3778180">
        <ele>1013.9</ele>
        <time>2020-11-11T11:17:53Z</time>
      </trkpt>
      <trkpt lat="28.4485330" lon="-16.3778180">
        <ele>1014.9</ele>
        <time>2020-11-11T11:17:54Z</time>
      </trkpt>
      <trkpt lat="28.4485350" lon="-16.3778580">
        <ele>1014.9</ele>
        <time>2020-11-11T11:17:55Z</time>
      </trkpt>
      <trkpt lat="28.4485350" lon="-16.3778580">
        <ele>1014.9</ele>
        <time>2020-11-11T11:17:56Z</time>
      </trkpt>
      <trkpt lat="28.4485230" lon="-16.3778970">
        <ele>1014.9</ele>
        <time>2020-11-11T11:17:57Z</time>
      </trkpt>
      <trkpt lat="28.4485230" lon="-16.3778970">
        <ele>1015.9</ele>
        <time>2020-11-11T11:17:58Z</time>
      </trkpt>
      <trkpt lat="28.4485230" lon="-16.3779400">
        <ele>1015.9</ele>
        <time>2020-11-11T11:17:59Z</time>
      </trkpt>
      <trkpt lat="28.4485230" lon="-16.3779400">
        <ele>1016.9</ele>
        <time>2020-11-11T11:18:00Z</time>
      </trkpt>
      <trkpt lat="28.4485300" lon="-16.3779680">
        <ele>1016.9</ele>
        <time>2020-11-11T11:18:01Z</time>
      </trkpt>
      <trkpt lat="28.4485280" lon="-16.3779800">
        <ele>1016.9</ele>
        <time>2020-11-11T11:18:02Z</time>
      </trkpt>
      <trkpt lat="28.4485280" lon="-16.3779800">
        <ele>1016.9</ele>
        <time>2020-11-11T11:18:03Z</time>
      </trkpt>
      <trkpt lat="28.4485220" lon="-16.3780020">
        <ele>1017.9</ele>
        <time>2020-11-11T11:18:04Z</time>
      </trkpt>
      <trkpt lat="28.4485220" lon="-16.3780020">
        <ele>1017.9</ele>
        <time>2020-11-11T11:18:05Z</time>
      </trkpt>
      <trkpt lat="28.4485230" lon="-16.3780280">
        <ele>1017.9</ele>
        <time>2020-11-11T11:18:06Z</time>
      </trkpt>
      <trkpt lat="28.4485230" lon="-16.3780280">
        <ele>1017.9</ele>
        <time>2020-11-11T11:18:07Z</time>
      </trkpt>
      <trkpt lat="28.4485220" lon="-16.3780580">
        <ele>1018.9</ele>
        <time>2020-11-11T11:18:08Z</time>
      </trkpt>
      <trkpt lat="28.4485220" lon="-16.3780580">
        <ele>1018.9</ele>
        <time>2020-11-11T11:18:09Z</time>
      </trkpt>
      <trkpt lat="28.4485130" lon="-16.3780850">
        <ele>1018.9</ele>
        <time>2020-11-11T11:18:10Z</time>
      </trkpt>
      <trkpt lat="28.4485050" lon="-16.3780970">
        <ele>1018.9</ele>
        <time>2020-11-11T11:18:11Z</time>
      </trkpt>
      <trkpt lat="28.4485050" lon="-16.3780970">
        <ele>1019.9</ele>
        <time>2020-11-11T11:18:12Z</time>
      </trkpt>
      <trkpt lat="28.4484970" lon="-16.3781220">
        <ele>1019.9</ele>
        <time>2020-11-11T11:18:13Z</time>
      </trkpt>
      <trkpt lat="28.4484970" lon="-16.3781220">
        <ele>1019.9</ele>
        <time>2020-11-11T11:18:14Z</time>
      </trkpt>
      <trkpt lat="28.4484980" lon="-16.3781520">
        <ele>1019.9</ele>
        <time>2020-11-11T11:18:15Z</time>
      </trkpt>
      <trkpt lat="28.4484980" lon="-16.3781670">
        <ele>1020.9</ele>
        <time>2020-11-11T11:18:16Z</time>
      </trkpt>
      <trkpt lat="28.4484980" lon="-16.3781670">
        <ele>1021.9</ele>
        <time>2020-11-11T11:18:17Z</time>
      </trkpt>
      <trkpt lat="28.4484920" lon="-16.3781970">
        <ele>1021.9</ele>
        <time>2020-11-11T11:18:18Z</time>
      </trkpt>
      <trkpt lat="28.4484870" lon="-16.3782150">
        <ele>1021.9</ele>
        <time>2020-11-11T11:18:19Z</time>
      </trkpt>
      <trkpt lat="28.4484870" lon="-16.3782150">
        <ele>1021.9</ele>
        <time>2020-11-11T11:18:20Z</time>
      </trkpt>
      <trkpt lat="28.4484830" lon="-16.3782470">
        <ele>1022.9</ele>
        <time>2020-11-11T11:18:21Z</time>
      </trkpt>
      <trkpt lat="28.4484830" lon="-16.3782470">
        <ele>1022.9</ele>
        <time>2020-11-11T11:18:22Z</time>
      </trkpt>
      <trkpt lat="28.4484780" lon="-16.3782780">
        <ele>1023.9</ele>
        <time>2020-11-11T11:18:23Z</time>
      </trkpt>
      <trkpt lat="28.4484750" lon="-16.3782980">
        <ele>1023.9</ele>
        <time>2020-11-11T11:18:24Z</time>
      </trkpt>
      <trkpt lat="28.4484750" lon="-16.3782980">
        <ele>1023.9</ele>
        <time>2020-11-11T11:18:25Z</time>
      </trkpt>
      <trkpt lat="28.4484570" lon="-16.3783300">
        <ele>1023.9</ele>
        <time>2020-11-11T11:18:26Z</time>
      </trkpt>
      <trkpt lat="28.4484570" lon="-16.3783300">
        <ele>1024.9</ele>
        <time>2020-11-11T11:18:27Z</time>
      </trkpt>
      <trkpt lat="28.4484270" lon="-16.3783720">
        <ele>1024.9</ele>
        <time>2020-11-11T11:18:28Z</time>
      </trkpt>
      <trkpt lat="28.4484270" lon="-16.3783720">
        <ele>1024.9</ele>
        <time>2020-11-11T11:18:29Z</time>
      </trkpt>
      <trkpt lat="28.4484050" lon="-16.3784280">
        <ele>1024.9</ele>
        <time>2020-11-11T11:18:30Z</time>
      </trkpt>
      <trkpt lat="28.4483950" lon="-16.3784450">
        <ele>1024.9</ele>
        <time>2020-11-11T11:18:31Z</time>
      </trkpt>
      <trkpt lat="28.4483950" lon="-16.3784450">
        <ele>1025.9</ele>
        <time>2020-11-11T11:18:32Z</time>
      </trkpt>
      <trkpt lat="28.4483780" lon="-16.3784850">
        <ele>1025.9</ele>
        <time>2020-11-11T11:18:33Z</time>
      </trkpt>
      <trkpt lat="28.4483750" lon="-16.3785030">
        <ele>1025.9</ele>
        <time>2020-11-11T11:18:34Z</time>
      </trkpt>
      <trkpt lat="28.4483750" lon="-16.3785030">
        <ele>1025.9</ele>
        <time>2020-11-11T11:18:35Z</time>
      </trkpt>
      <trkpt lat="28.4483550" lon="-16.3785350">
        <ele>1025.9</ele>
        <time>2020-11-11T11:18:36Z</time>
      </trkpt>
      <trkpt lat="28.4483550" lon="-16.3785350">
        <ele>1025.9</ele>
        <time>2020-11-11T11:18:37Z</time>
      </trkpt>
      <trkpt lat="28.4483370" lon="-16.3785770">
        <ele>1025.9</ele>
        <time>2020-11-11T11:18:38Z</time>
      </trkpt>
      <trkpt lat="28.4483370" lon="-16.3785770">
        <ele>1025.9</ele>
        <time>2020-11-11T11:18:39Z</time>
      </trkpt>
      <trkpt lat="28.4483080" lon="-16.3786180">
        <ele>1025.9</ele>
        <time>2020-11-11T11:18:40Z</time>
      </trkpt>
      <trkpt lat="28.4483080" lon="-16.3786180">
        <ele>1025.9</ele>
        <time>2020-11-11T11:18:41Z</time>
      </trkpt>
      <trkpt lat="28.4482830" lon="-16.3786650">
        <ele>1026.9</ele>
        <time>2020-11-11T11:18:42Z</time>
      </trkpt>
      <trkpt lat="28.4482830" lon="-16.3786650">
        <ele>1026.9</ele>
        <time>2020-11-11T11:18:43Z</time>
      </trkpt>
      <trkpt lat="28.4482580" lon="-16.3786980">
        <ele>1026.9</ele>
        <time>2020-11-11T11:18:44Z</time>
      </trkpt>
      <trkpt lat="28.4482580" lon="-16.3786980">
        <ele>1026.9</ele>
        <time>2020-11-11T11:18:45Z</time>
      </trkpt>
      <trkpt lat="28.4482320" lon="-16.3787250">
        <ele>1026.9</ele>
        <time>2020-11-11T11:18:46Z</time>
      </trkpt>
      <trkpt lat="28.4482320" lon="-16.3787250">
        <ele>1026.9</ele>
        <time>2020-11-11T11:18:47Z</time>
      </trkpt>
      <trkpt lat="28.4482120" lon="-16.3787600">
        <ele>1027.9</ele>
        <time>2020-11-11T11:18:48Z</time>
      </trkpt>
      <trkpt lat="28.4482050" lon="-16.3787780">
        <ele>1027.9</ele>
        <time>2020-11-11T11:18:49Z</time>
      </trkpt>
      <trkpt lat="28.4482050" lon="-16.3787780">
        <ele>1027.9</ele>
        <time>2020-11-11T11:18:50Z</time>
      </trkpt>
      <trkpt lat="28.4481850" lon="-16.3788130">
        <ele>1027.9</ele>
        <time>2020-11-11T11:18:51Z</time>
      </trkpt>
      <trkpt lat="28.4481850" lon="-16.3788130">
        <ele>1028.9</ele>
        <time>2020-11-11T11:18:52Z</time>
      </trkpt>
      <trkpt lat="28.4481530" lon="-16.3788380">
        <ele>1028.9</ele>
        <time>2020-11-11T11:18:53Z</time>
      </trkpt>
      <trkpt lat="28.4481530" lon="-16.3788380">
        <ele>1028.9</ele>
        <time>2020-11-11T11:18:54Z</time>
      </trkpt>
      <trkpt lat="28.4481280" lon="-16.3788620">
        <ele>1029.9</ele>
        <time>2020-11-11T11:18:55Z</time>
      </trkpt>
      <trkpt lat="28.4481280" lon="-16.3788620">
        <ele>1029.9</ele>
        <time>2020-11-11T11:18:56Z</time>
      </trkpt>
      <trkpt lat="28.4481000" lon="-16.3788880">
        <ele>1029.9</ele>
        <time>2020-11-11T11:18:57Z</time>
      </trkpt>
      <trkpt lat="28.4480880" lon="-16.3789050">
        <ele>1029.9</ele>
        <time>2020-11-11T11:18:58Z</time>
      </trkpt>
      <trkpt lat="28.4480880" lon="-16.3789050">
        <ele>1030.9</ele>
        <time>2020-11-11T11:18:59Z</time>
      </trkpt>
      <trkpt lat="28.4480600" lon="-16.3789420">
        <ele>1030.9</ele>
        <time>2020-11-11T11:19:00Z</time>
      </trkpt>
      <trkpt lat="28.4480300" lon="-16.3789680">
        <ele>1030.9</ele>
        <time>2020-11-11T11:19:01Z</time>
      </trkpt>
      <trkpt lat="28.4480300" lon="-16.3789680">
        <ele>1030.9</ele>
        <time>2020-11-11T11:19:02Z</time>
      </trkpt>
      <trkpt lat="28.4479950" lon="-16.3790020">
        <ele>1031.9</ele>
        <time>2020-11-11T11:19:03Z</time>
      </trkpt>
      <trkpt lat="28.4479950" lon="-16.3790020">
        <ele>1031.9</ele>
        <time>2020-11-11T11:19:04Z</time>
      </trkpt>
      <trkpt lat="28.4479630" lon="-16.3790220">
        <ele>1032.9</ele>
        <time>2020-11-11T11:19:05Z</time>
      </trkpt>
      <trkpt lat="28.4479470" lon="-16.3790330">
        <ele>1032.9</ele>
        <time>2020-11-11T11:19:06Z</time>
      </trkpt>
      <trkpt lat="28.4479470" lon="-16.3790330">
        <ele>1032.9</ele>
        <time>2020-11-11T11:19:07Z</time>
      </trkpt>
      <trkpt lat="28.4479200" lon="-16.3790630">
        <ele>1032.9</ele>
        <time>2020-11-11T11:19:08Z</time>
      </trkpt>
      <trkpt lat="28.4479200" lon="-16.3790630">
        <ele>1033.9</ele>
        <time>2020-11-11T11:19:09Z</time>
      </trkpt>
      <trkpt lat="28.4478950" lon="-16.3790880">
        <ele>1033.9</ele>
        <time>2020-11-11T11:19:10Z</time>
      </trkpt>
      <trkpt lat="28.4478950" lon="-16.3790880">
        <ele>1034.9</ele>
        <time>2020-11-11T11:19:11Z</time>
      </trkpt>
      <trkpt lat="28.4478650" lon="-16.3791250">
        <ele>1034.9</ele>
        <time>2020-11-11T11:19:12Z</time>
      </trkpt>
      <trkpt lat="28.4478520" lon="-16.3791380">
        <ele>1034.9</ele>
        <time>2020-11-11T11:19:13Z</time>
      </trkpt>
      <trkpt lat="28.4478520" lon="-16.3791380">
        <ele>1034.9</ele>
        <time>2020-11-11T11:19:14Z</time>
      </trkpt>
      <trkpt lat="28.4478170" lon="-16.3791850">
        <ele>1034.9</ele>
        <time>2020-11-11T11:19:15Z</time>
      </trkpt>
      <trkpt lat="28.4478170" lon="-16.3791850">
        <ele>1034.9</ele>
        <time>2020-11-11T11:19:16Z</time>
      </trkpt>
      <trkpt lat="28.4477880" lon="-16.3792330">
        <ele>1034.9</ele>
        <time>2020-11-11T11:19:17Z</time>
      </trkpt>
      <trkpt lat="28.4477880" lon="-16.3792330">
        <ele>1034.9</ele>
        <time>2020-11-11T11:19:18Z</time>
      </trkpt>
      <trkpt lat="28.4477500" lon="-16.3792770">
        <ele>1035.9</ele>
        <time>2020-11-11T11:19:19Z</time>
      </trkpt>
      <trkpt lat="28.4477500" lon="-16.3792770">
        <ele>1035.9</ele>
        <time>2020-11-11T11:19:20Z</time>
      </trkpt>
      <trkpt lat="28.4477130" lon="-16.3793230">
        <ele>1035.9</ele>
        <time>2020-11-11T11:19:21Z</time>
      </trkpt>
      <trkpt lat="28.4476970" lon="-16.3793520">
        <ele>1035.9</ele>
        <time>2020-11-11T11:19:22Z</time>
      </trkpt>
      <trkpt lat="28.4476970" lon="-16.3793520">
        <ele>1035.9</ele>
        <time>2020-11-11T11:19:23Z</time>
      </trkpt>
      <trkpt lat="28.4476670" lon="-16.3793950">
        <ele>1035.9</ele>
        <time>2020-11-11T11:19:24Z</time>
      </trkpt>
      <trkpt lat="28.4476670" lon="-16.3793950">
        <ele>1035.9</ele>
        <time>2020-11-11T11:19:25Z</time>
      </trkpt>
      <trkpt lat="28.4476450" lon="-16.3794320">
        <ele>1035.9</ele>
        <time>2020-11-11T11:19:26Z</time>
      </trkpt>
      <trkpt lat="28.4476450" lon="-16.3794320">
        <ele>1036.9</ele>
        <time>2020-11-11T11:19:27Z</time>
      </trkpt>
      <trkpt lat="28.4476330" lon="-16.3794580">
        <ele>1036.9</ele>
        <time>2020-11-11T11:19:28Z</time>
      </trkpt>
      <trkpt lat="28.4476330" lon="-16.3794580">
        <ele>1036.9</ele>
        <time>2020-11-11T11:19:29Z</time>
      </trkpt>
      <trkpt lat="28.4476250" lon="-16.3795130">
        <ele>1037.9</ele>
        <time>2020-11-11T11:19:30Z</time>
      </trkpt>
      <trkpt lat="28.4476180" lon="-16.3795420">
        <ele>1037.9</ele>
        <time>2020-11-11T11:19:31Z</time>
      </trkpt>
      <trkpt lat="28.4476180" lon="-16.3795420">
        <ele>1037.9</ele>
        <time>2020-11-11T11:19:32Z</time>
      </trkpt>
      <trkpt lat="28.4475820" lon="-16.3796230">
        <ele>1037.9</ele>
        <time>2020-11-11T11:19:33Z</time>
      </trkpt>
      <trkpt lat="28.4475820" lon="-16.3796230">
        <ele>1037.9</ele>
        <time>2020-11-11T11:19:34Z</time>
      </trkpt>
      <trkpt lat="28.4475580" lon="-16.3796770">
        <ele>1037.9</ele>
        <time>2020-11-11T11:19:35Z</time>
      </trkpt>
      <trkpt lat="28.4475580" lon="-16.3796770">
        <ele>1037.9</ele>
        <time>2020-11-11T11:19:36Z</time>
      </trkpt>
      <trkpt lat="28.4475370" lon="-16.3797450">
        <ele>1037.9</ele>
        <time>2020-11-11T11:19:37Z</time>
      </trkpt>
      <trkpt lat="28.4475370" lon="-16.3797450">
        <ele>1037.9</ele>
        <time>2020-11-11T11:19:38Z</time>
      </trkpt>
      <trkpt lat="28.4475180" lon="-16.3798080">
        <ele>1037.9</ele>
        <time>2020-11-11T11:19:39Z</time>
      </trkpt>
      <trkpt lat="28.4475080" lon="-16.3798350">
        <ele>1038.9</ele>
        <time>2020-11-11T11:19:40Z</time>
      </trkpt>
      <trkpt lat="28.4475080" lon="-16.3798350">
        <ele>1038.9</ele>
        <time>2020-11-11T11:19:41Z</time>
      </trkpt>
      <trkpt lat="28.4474820" lon="-16.3798850">
        <ele>1038.9</ele>
        <time>2020-11-11T11:19:42Z</time>
      </trkpt>
      <trkpt lat="28.4474700" lon="-16.3799070">
        <ele>1038.9</ele>
        <time>2020-11-11T11:19:43Z</time>
      </trkpt>
      <trkpt lat="28.4474570" lon="-16.3799320">
        <ele>1038.9</ele>
        <time>2020-11-11T11:19:44Z</time>
      </trkpt>
      <trkpt lat="28.4474570" lon="-16.3799320">
        <ele>1038.9</ele>
        <time>2020-11-11T11:19:45Z</time>
      </trkpt>
      <trkpt lat="28.4474370" lon="-16.3799880">
        <ele>1038.9</ele>
        <time>2020-11-11T11:19:46Z</time>
      </trkpt>
      <trkpt lat="28.4474250" lon="-16.3800200">
        <ele>1038.9</ele>
        <time>2020-11-11T11:19:47Z</time>
      </trkpt>
      <trkpt lat="28.4474250" lon="-16.3800200">
        <ele>1038.9</ele>
        <time>2020-11-11T11:19:48Z</time>
      </trkpt>
      <trkpt lat="28.4474050" lon="-16.3800730">
        <ele>1038.9</ele>
        <time>2020-11-11T11:19:49Z</time>
      </trkpt>
      <trkpt lat="28.4474020" lon="-16.3801030">
        <ele>1038.9</ele>
        <time>2020-11-11T11:19:50Z</time>
      </trkpt>
      <trkpt lat="28.4474020" lon="-16.3801030">
        <ele>1038.9</ele>
        <time>2020-11-11T11:19:51Z</time>
      </trkpt>
      <trkpt lat="28.4473800" lon="-16.3801670">
        <ele>1038.9</ele>
        <time>2020-11-11T11:19:52Z</time>
      </trkpt>
      <trkpt lat="28.4473670" lon="-16.3801970">
        <ele>1038.9</ele>
        <time>2020-11-11T11:19:53Z</time>
      </trkpt>
      <trkpt lat="28.4473670" lon="-16.3801970">
        <ele>1038.9</ele>
        <time>2020-11-11T11:19:54Z</time>
      </trkpt>
      <trkpt lat="28.4473370" lon="-16.3802600">
        <ele>1038.9</ele>
        <time>2020-11-11T11:19:55Z</time>
      </trkpt>
      <trkpt lat="28.4473370" lon="-16.3802600">
        <ele>1038.9</ele>
        <time>2020-11-11T11:19:56Z</time>
      </trkpt>
      <trkpt lat="28.4473370" lon="-16.3802600">
        <ele>1038.9</ele>
        <time>2020-11-11T11:19:57Z</time>
      </trkpt>
      <trkpt lat="28.4473100" lon="-16.3803250">
        <ele>1038.9</ele>
        <time>2020-11-11T11:19:58Z</time>
      </trkpt>
      <trkpt lat="28.4472830" lon="-16.3803830">
        <ele>1038.9</ele>
        <time>2020-11-11T11:19:59Z</time>
      </trkpt>
      <trkpt lat="28.4472830" lon="-16.3803830">
        <ele>1039.9</ele>
        <time>2020-11-11T11:20:00Z</time>
      </trkpt>
      <trkpt lat="28.4472630" lon="-16.3804470">
        <ele>1039.9</ele>
        <time>2020-11-11T11:20:01Z</time>
      </trkpt>
      <trkpt lat="28.4472630" lon="-16.3804470">
        <ele>1039.9</ele>
        <time>2020-11-11T11:20:02Z</time>
      </trkpt>
      <trkpt lat="28.4472220" lon="-16.3805200">
        <ele>1039.9</ele>
        <time>2020-11-11T11:20:03Z</time>
      </trkpt>
      <trkpt lat="28.4472220" lon="-16.3805200">
        <ele>1039.9</ele>
        <time>2020-11-11T11:20:04Z</time>
      </trkpt>
      <trkpt lat="28.4471920" lon="-16.3805880">
        <ele>1040.9</ele>
        <time>2020-11-11T11:20:05Z</time>
      </trkpt>
      <trkpt lat="28.4471920" lon="-16.3805880">
        <ele>1040.9</ele>
        <time>2020-11-11T11:20:06Z</time>
      </trkpt>
      <trkpt lat="28.4471650" lon="-16.3806430">
        <ele>1040.9</ele>
        <time>2020-11-11T11:20:07Z</time>
      </trkpt>
      <trkpt lat="28.4471650" lon="-16.3806430">
        <ele>1040.9</ele>
        <time>2020-11-11T11:20:08Z</time>
      </trkpt>
      <trkpt lat="28.4471430" lon="-16.3806870">
        <ele>1040.9</ele>
        <time>2020-11-11T11:20:09Z</time>
      </trkpt>
      <trkpt lat="28.4471430" lon="-16.3806870">
        <ele>1040.9</ele>
        <time>2020-11-11T11:20:10Z</time>
      </trkpt>
      <trkpt lat="28.4471170" lon="-16.3807330">
        <ele>1040.9</ele>
        <time>2020-11-11T11:20:11Z</time>
      </trkpt>
      <trkpt lat="28.4471170" lon="-16.3807330">
        <ele>1040.9</ele>
        <time>2020-11-11T11:20:12Z</time>
      </trkpt>
      <trkpt lat="28.4470780" lon="-16.3807780">
        <ele>1041.9</ele>
        <time>2020-11-11T11:20:13Z</time>
      </trkpt>
      <trkpt lat="28.4470780" lon="-16.3807780">
        <ele>1041.9</ele>
        <time>2020-11-11T11:20:14Z</time>
      </trkpt>
      <trkpt lat="28.4470420" lon="-16.3808150">
        <ele>1041.9</ele>
        <time>2020-11-11T11:20:15Z</time>
      </trkpt>
      <trkpt lat="28.4470420" lon="-16.3808150">
        <ele>1041.9</ele>
        <time>2020-11-11T11:20:16Z</time>
      </trkpt>
      <trkpt lat="28.4470020" lon="-16.3808720">
        <ele>1043.9</ele>
        <time>2020-11-11T11:20:17Z</time>
      </trkpt>
      <trkpt lat="28.4470020" lon="-16.3808720">
        <ele>1043.9</ele>
        <time>2020-11-11T11:20:18Z</time>
      </trkpt>
      <trkpt lat="28.4469600" lon="-16.3809250">
        <ele>1043.9</ele>
        <time>2020-11-11T11:20:19Z</time>
      </trkpt>
      <trkpt lat="28.4469600" lon="-16.3809250">
        <ele>1043.9</ele>
        <time>2020-11-11T11:20:20Z</time>
      </trkpt>
      <trkpt lat="28.4469120" lon="-16.3809780">
        <ele>1043.9</ele>
        <time>2020-11-11T11:20:21Z</time>
      </trkpt>
      <trkpt lat="28.4469000" lon="-16.3810050">
        <ele>1043.9</ele>
        <time>2020-11-11T11:20:22Z</time>
      </trkpt>
      <trkpt lat="28.4469000" lon="-16.3810050">
        <ele>1043.9</ele>
        <time>2020-11-11T11:20:23Z</time>
      </trkpt>
      <trkpt lat="28.4468780" lon="-16.3810520">
        <ele>1043.9</ele>
        <time>2020-11-11T11:20:24Z</time>
      </trkpt>
      <trkpt lat="28.4468700" lon="-16.3810750">
        <ele>1045.9</ele>
        <time>2020-11-11T11:20:25Z</time>
      </trkpt>
      <trkpt lat="28.4468700" lon="-16.3810750">
        <ele>1045.9</ele>
        <time>2020-11-11T11:20:26Z</time>
      </trkpt>
      <trkpt lat="28.4468570" lon="-16.3811170">
        <ele>1045.9</ele>
        <time>2020-11-11T11:20:27Z</time>
      </trkpt>
      <trkpt lat="28.4468530" lon="-16.3811350">
        <ele>1045.9</ele>
        <time>2020-11-11T11:20:28Z</time>
      </trkpt>
      <trkpt lat="28.4468530" lon="-16.3811350">
        <ele>1045.9</ele>
        <time>2020-11-11T11:20:29Z</time>
      </trkpt>
      <trkpt lat="28.4468400" lon="-16.3811950">
        <ele>1045.9</ele>
        <time>2020-11-11T11:20:30Z</time>
      </trkpt>
      <trkpt lat="28.4468400" lon="-16.3811950">
        <ele>1045.9</ele>
        <time>2020-11-11T11:20:31Z</time>
      </trkpt>
      <trkpt lat="28.4468280" lon="-16.3812420">
        <ele>1045.9</ele>
        <time>2020-11-11T11:20:32Z</time>
      </trkpt>
      <trkpt lat="28.4468280" lon="-16.3812420">
        <ele>1045.9</ele>
        <time>2020-11-11T11:20:33Z</time>
      </trkpt>
      <trkpt lat="28.4468070" lon="-16.3813130">
        <ele>1045.9</ele>
        <time>2020-11-11T11:20:34Z</time>
      </trkpt>
      <trkpt lat="28.4467880" lon="-16.3813570">
        <ele>1046.9</ele>
        <time>2020-11-11T11:20:35Z</time>
      </trkpt>
      <trkpt lat="28.4467880" lon="-16.3813570">
        <ele>1046.9</ele>
        <time>2020-11-11T11:20:36Z</time>
      </trkpt>
      <trkpt lat="28.4467600" lon="-16.3814280">
        <ele>1046.9</ele>
        <time>2020-11-11T11:20:37Z</time>
      </trkpt>
      <trkpt lat="28.4467600" lon="-16.3814280">
        <ele>1046.9</ele>
        <time>2020-11-11T11:20:38Z</time>
      </trkpt>
      <trkpt lat="28.4467380" lon="-16.3814970">
        <ele>1047.9</ele>
        <time>2020-11-11T11:20:39Z</time>
      </trkpt>
      <trkpt lat="28.4467380" lon="-16.3814970">
        <ele>1047.9</ele>
        <time>2020-11-11T11:20:40Z</time>
      </trkpt>
      <trkpt lat="28.4467230" lon="-16.3815570">
        <ele>1047.9</ele>
        <time>2020-11-11T11:20:41Z</time>
      </trkpt>
      <trkpt lat="28.4467230" lon="-16.3815570">
        <ele>1048.9</ele>
        <time>2020-11-11T11:20:42Z</time>
      </trkpt>
      <trkpt lat="28.4467030" lon="-16.3816200">
        <ele>1048.9</ele>
        <time>2020-11-11T11:20:43Z</time>
      </trkpt>
      <trkpt lat="28.4466950" lon="-16.3816520">
        <ele>1048.9</ele>
        <time>2020-11-11T11:20:44Z</time>
      </trkpt>
      <trkpt lat="28.4466950" lon="-16.3816520">
        <ele>1048.9</ele>
        <time>2020-11-11T11:20:45Z</time>
      </trkpt>
      <trkpt lat="28.4466650" lon="-16.3817180">
        <ele>1048.9</ele>
        <time>2020-11-11T11:20:46Z</time>
      </trkpt>
      <trkpt lat="28.4466650" lon="-16.3817180">
        <ele>1048.9</ele>
        <time>2020-11-11T11:20:47Z</time>
      </trkpt>
      <trkpt lat="28.4466430" lon="-16.3817580">
        <ele>1049.9</ele>
        <time>2020-11-11T11:20:48Z</time>
      </trkpt>
      <trkpt lat="28.4466430" lon="-16.3817580">
        <ele>1049.9</ele>
        <time>2020-11-11T11:20:49Z</time>
      </trkpt>
      <trkpt lat="28.4465980" lon="-16.3818180">
        <ele>1049.9</ele>
        <time>2020-11-11T11:20:50Z</time>
      </trkpt>
      <trkpt lat="28.4465980" lon="-16.3818180">
        <ele>1049.9</ele>
        <time>2020-11-11T11:20:51Z</time>
      </trkpt>
      <trkpt lat="28.4465700" lon="-16.3818750">
        <ele>1050.9</ele>
        <time>2020-11-11T11:20:52Z</time>
      </trkpt>
      <trkpt lat="28.4465700" lon="-16.3818750">
        <ele>1050.9</ele>
        <time>2020-11-11T11:20:53Z</time>
      </trkpt>
      <trkpt lat="28.4465450" lon="-16.3819220">
        <ele>1050.9</ele>
        <time>2020-11-11T11:20:54Z</time>
      </trkpt>
      <trkpt lat="28.4465370" lon="-16.3819370">
        <ele>1050.9</ele>
        <time>2020-11-11T11:20:55Z</time>
      </trkpt>
      <trkpt lat="28.4465370" lon="-16.3819370">
        <ele>1050.9</ele>
        <time>2020-11-11T11:20:56Z</time>
      </trkpt>
      <trkpt lat="28.4465150" lon="-16.3819720">
        <ele>1050.9</ele>
        <time>2020-11-11T11:20:57Z</time>
      </trkpt>
      <trkpt lat="28.4465150" lon="-16.3819720">
        <ele>1050.9</ele>
        <time>2020-11-11T11:20:58Z</time>
      </trkpt>
      <trkpt lat="28.4464920" lon="-16.3820070">
        <ele>1050.9</ele>
        <time>2020-11-11T11:20:59Z</time>
      </trkpt>
      <trkpt lat="28.4464780" lon="-16.3820270">
        <ele>1050.9</ele>
        <time>2020-11-11T11:21:00Z</time>
      </trkpt>
      <trkpt lat="28.4464780" lon="-16.3820270">
        <ele>1050.9</ele>
        <time>2020-11-11T11:21:01Z</time>
      </trkpt>
      <trkpt lat="28.4464420" lon="-16.3820630">
        <ele>1051.9</ele>
        <time>2020-11-11T11:21:02Z</time>
      </trkpt>
      <trkpt lat="28.4464420" lon="-16.3820630">
        <ele>1051.9</ele>
        <time>2020-11-11T11:21:03Z</time>
      </trkpt>
      <trkpt lat="28.4464150" lon="-16.3821000">
        <ele>1051.9</ele>
        <time>2020-11-11T11:21:04Z</time>
      </trkpt>
      <trkpt lat="28.4464150" lon="-16.3821000">
        <ele>1051.9</ele>
        <time>2020-11-11T11:21:05Z</time>
      </trkpt>
      <trkpt lat="28.4463770" lon="-16.3821770">
        <ele>1051.9</ele>
        <time>2020-11-11T11:21:06Z</time>
      </trkpt>
      <trkpt lat="28.4463650" lon="-16.3821980">
        <ele>1051.9</ele>
        <time>2020-11-11T11:21:07Z</time>
      </trkpt>
      <trkpt lat="28.4463550" lon="-16.3822120">
        <ele>1051.9</ele>
        <time>2020-11-11T11:21:08Z</time>
      </trkpt>
      <trkpt lat="28.4463550" lon="-16.3822120">
        <ele>1051.9</ele>
        <time>2020-11-11T11:21:09Z</time>
      </trkpt>
      <trkpt lat="28.4463320" lon="-16.3822450">
        <ele>1052.9</ele>
        <time>2020-11-11T11:21:10Z</time>
      </trkpt>
      <trkpt lat="28.4463320" lon="-16.3822450">
        <ele>1052.9</ele>
        <time>2020-11-11T11:21:11Z</time>
      </trkpt>
      <trkpt lat="28.4463150" lon="-16.3822850">
        <ele>1052.9</ele>
        <time>2020-11-11T11:21:12Z</time>
      </trkpt>
      <trkpt lat="28.4463150" lon="-16.3822850">
        <ele>1052.9</ele>
        <time>2020-11-11T11:21:13Z</time>
      </trkpt>
      <trkpt lat="28.4462920" lon="-16.3823220">
        <ele>1053.9</ele>
        <time>2020-11-11T11:21:14Z</time>
      </trkpt>
      <trkpt lat="28.4462920" lon="-16.3823220">
        <ele>1053.9</ele>
        <time>2020-11-11T11:21:15Z</time>
      </trkpt>
      <trkpt lat="28.4462700" lon="-16.3823530">
        <ele>1053.9</ele>
        <time>2020-11-11T11:21:16Z</time>
      </trkpt>
      <trkpt lat="28.4462700" lon="-16.3823530">
        <ele>1053.9</ele>
        <time>2020-11-11T11:21:17Z</time>
      </trkpt>
      <trkpt lat="28.4462370" lon="-16.3823850">
        <ele>1053.9</ele>
        <time>2020-11-11T11:21:18Z</time>
      </trkpt>
      <trkpt lat="28.4462280" lon="-16.3823900">
        <ele>1054.9</ele>
        <time>2020-11-11T11:21:19Z</time>
      </trkpt>
      <trkpt lat="28.4462280" lon="-16.3823900">
        <ele>1054.9</ele>
        <time>2020-11-11T11:21:20Z</time>
      </trkpt>
      <trkpt lat="28.4462150" lon="-16.3824220">
        <ele>1054.9</ele>
        <time>2020-11-11T11:21:21Z</time>
      </trkpt>
      <trkpt lat="28.4462080" lon="-16.3824380">
        <ele>1054.9</ele>
        <time>2020-11-11T11:21:22Z</time>
      </trkpt>
      <trkpt lat="28.4462080" lon="-16.3824380">
        <ele>1055.9</ele>
        <time>2020-11-11T11:21:23Z</time>
      </trkpt>
      <trkpt lat="28.4461800" lon="-16.3825180">
        <ele>1055.9</ele>
        <time>2020-11-11T11:21:24Z</time>
      </trkpt>
      <trkpt lat="28.4461680" lon="-16.3825570">
        <ele>1055.9</ele>
        <time>2020-11-11T11:21:25Z</time>
      </trkpt>
      <trkpt lat="28.4461680" lon="-16.3825570">
        <ele>1055.9</ele>
        <time>2020-11-11T11:21:26Z</time>
      </trkpt>
      <trkpt lat="28.4461520" lon="-16.3826100">
        <ele>1055.9</ele>
        <time>2020-11-11T11:21:27Z</time>
      </trkpt>
      <trkpt lat="28.4461520" lon="-16.3826100">
        <ele>1056.9</ele>
        <time>2020-11-11T11:21:28Z</time>
      </trkpt>
      <trkpt lat="28.4461530" lon="-16.3826350">
        <ele>1056.9</ele>
        <time>2020-11-11T11:21:29Z</time>
      </trkpt>
      <trkpt lat="28.4461500" lon="-16.3826430">
        <ele>1056.9</ele>
        <time>2020-11-11T11:21:30Z</time>
      </trkpt>
      <trkpt lat="28.4461500" lon="-16.3826430">
        <ele>1056.9</ele>
        <time>2020-11-11T11:21:31Z</time>
      </trkpt>
      <trkpt lat="28.4461600" lon="-16.3826780">
        <ele>1057.9</ele>
        <time>2020-11-11T11:21:32Z</time>
      </trkpt>
      <trkpt lat="28.4461600" lon="-16.3826780">
        <ele>1057.9</ele>
        <time>2020-11-11T11:21:33Z</time>
      </trkpt>
      <trkpt lat="28.4461780" lon="-16.3827270">
        <ele>1057.9</ele>
        <time>2020-11-11T11:21:34Z</time>
      </trkpt>
      <trkpt lat="28.4461780" lon="-16.3827270">
        <ele>1057.9</ele>
        <time>2020-11-11T11:21:35Z</time>
      </trkpt>
      <trkpt lat="28.4462020" lon="-16.3828150">
        <ele>1058.9</ele>
        <time>2020-11-11T11:21:36Z</time>
      </trkpt>
      <trkpt lat="28.4462020" lon="-16.3828150">
        <ele>1058.9</ele>
        <time>2020-11-11T11:21:37Z</time>
      </trkpt>
      <trkpt lat="28.4461970" lon="-16.3828950">
        <ele>1059.9</ele>
        <time>2020-11-11T11:21:38Z</time>
      </trkpt>
      <trkpt lat="28.4461970" lon="-16.3828950">
        <ele>1059.9</ele>
        <time>2020-11-11T11:21:39Z</time>
      </trkpt>
      <trkpt lat="28.4462070" lon="-16.3829600">
        <ele>1059.9</ele>
        <time>2020-11-11T11:21:40Z</time>
      </trkpt>
      <trkpt lat="28.4462070" lon="-16.3829600">
        <ele>1059.9</ele>
        <time>2020-11-11T11:21:41Z</time>
      </trkpt>
      <trkpt lat="28.4462270" lon="-16.3830120">
        <ele>1060.9</ele>
        <time>2020-11-11T11:21:42Z</time>
      </trkpt>
      <trkpt lat="28.4462350" lon="-16.3830370">
        <ele>1060.9</ele>
        <time>2020-11-11T11:21:43Z</time>
      </trkpt>
      <trkpt lat="28.4462350" lon="-16.3830370">
        <ele>1060.9</ele>
        <time>2020-11-11T11:21:44Z</time>
      </trkpt>
      <trkpt lat="28.4462550" lon="-16.3830730">
        <ele>1060.9</ele>
        <time>2020-11-11T11:21:45Z</time>
      </trkpt>
      <trkpt lat="28.4462650" lon="-16.3830930">
        <ele>1061.9</ele>
        <time>2020-11-11T11:21:46Z</time>
      </trkpt>
      <trkpt lat="28.4462650" lon="-16.3830930">
        <ele>1061.9</ele>
        <time>2020-11-11T11:21:47Z</time>
      </trkpt>
      <trkpt lat="28.4462820" lon="-16.3831180">
        <ele>1061.9</ele>
        <time>2020-11-11T11:21:48Z</time>
      </trkpt>
      <trkpt lat="28.4462920" lon="-16.3831330">
        <ele>1061.9</ele>
        <time>2020-11-11T11:21:49Z</time>
      </trkpt>
      <trkpt lat="28.4463000" lon="-16.3831450">
        <ele>1062.9</ele>
        <time>2020-11-11T11:21:50Z</time>
      </trkpt>
      <trkpt lat="28.4463000" lon="-16.3831450">
        <ele>1062.9</ele>
        <time>2020-11-11T11:21:51Z</time>
      </trkpt>
      <trkpt lat="28.4463180" lon="-16.3831650">
        <ele>1062.9</ele>
        <time>2020-11-11T11:21:52Z</time>
      </trkpt>
      <trkpt lat="28.4463180" lon="-16.3831650">
        <ele>1062.9</ele>
        <time>2020-11-11T11:21:53Z</time>
      </trkpt>
      <trkpt lat="28.4463400" lon="-16.3831900">
        <ele>1063.9</ele>
        <time>2020-11-11T11:21:54Z</time>
      </trkpt>
      <trkpt lat="28.4463400" lon="-16.3831900">
        <ele>1063.9</ele>
        <time>2020-11-11T11:21:55Z</time>
      </trkpt>
      <trkpt lat="28.4463600" lon="-16.3832180">
        <ele>1063.9</ele>
        <time>2020-11-11T11:21:56Z</time>
      </trkpt>
      <trkpt lat="28.4463600" lon="-16.3832180">
        <ele>1064.9</ele>
        <time>2020-11-11T11:21:57Z</time>
      </trkpt>
      <trkpt lat="28.4463820" lon="-16.3832550">
        <ele>1064.9</ele>
        <time>2020-11-11T11:21:58Z</time>
      </trkpt>
      <trkpt lat="28.4463950" lon="-16.3832730">
        <ele>1064.9</ele>
        <time>2020-11-11T11:21:59Z</time>
      </trkpt>
      <trkpt lat="28.4463950" lon="-16.3832730">
        <ele>1064.9</ele>
        <time>2020-11-11T11:22:00Z</time>
      </trkpt>
      <trkpt lat="28.4464130" lon="-16.3833080">
        <ele>1064.9</ele>
        <time>2020-11-11T11:22:01Z</time>
      </trkpt>
      <trkpt lat="28.4464130" lon="-16.3833080">
        <ele>1064.9</ele>
        <time>2020-11-11T11:22:02Z</time>
      </trkpt>
      <trkpt lat="28.4464370" lon="-16.3833380">
        <ele>1065.9</ele>
        <time>2020-11-11T11:22:03Z</time>
      </trkpt>
      <trkpt lat="28.4464530" lon="-16.3833550">
        <ele>1065.9</ele>
        <time>2020-11-11T11:22:04Z</time>
      </trkpt>
      <trkpt lat="28.4464530" lon="-16.3833550">
        <ele>1065.9</ele>
        <time>2020-11-11T11:22:05Z</time>
      </trkpt>
      <trkpt lat="28.4464750" lon="-16.3833880">
        <ele>1065.9</ele>
        <time>2020-11-11T11:22:06Z</time>
      </trkpt>
      <trkpt lat="28.4464780" lon="-16.3834180">
        <ele>1066.9</ele>
        <time>2020-11-11T11:22:07Z</time>
      </trkpt>
      <trkpt lat="28.4464780" lon="-16.3834180">
        <ele>1066.9</ele>
        <time>2020-11-11T11:22:08Z</time>
      </trkpt>
      <trkpt lat="28.4464980" lon="-16.3834700">
        <ele>1066.9</ele>
        <time>2020-11-11T11:22:09Z</time>
      </trkpt>
      <trkpt lat="28.4464980" lon="-16.3834700">
        <ele>1066.9</ele>
        <time>2020-11-11T11:22:10Z</time>
      </trkpt>
      <trkpt lat="28.4465130" lon="-16.3835050">
        <ele>1066.9</ele>
        <time>2020-11-11T11:22:11Z</time>
      </trkpt>
      <trkpt lat="28.4465130" lon="-16.3835050">
        <ele>1066.9</ele>
        <time>2020-11-11T11:22:12Z</time>
      </trkpt>
      <trkpt lat="28.4465300" lon="-16.3835550">
        <ele>1066.9</ele>
        <time>2020-11-11T11:22:13Z</time>
      </trkpt>
      <trkpt lat="28.4465300" lon="-16.3835550">
        <ele>1066.9</ele>
        <time>2020-11-11T11:22:14Z</time>
      </trkpt>
      <trkpt lat="28.4465480" lon="-16.3835970">
        <ele>1066.9</ele>
        <time>2020-11-11T11:22:15Z</time>
      </trkpt>
      <trkpt lat="28.4465500" lon="-16.3836220">
        <ele>1066.9</ele>
        <time>2020-11-11T11:22:16Z</time>
      </trkpt>
      <trkpt lat="28.4465500" lon="-16.3836220">
        <ele>1067.9</ele>
        <time>2020-11-11T11:22:17Z</time>
      </trkpt>
      <trkpt lat="28.4465580" lon="-16.3836770">
        <ele>1067.9</ele>
        <time>2020-11-11T11:22:18Z</time>
      </trkpt>
      <trkpt lat="28.4465580" lon="-16.3836770">
        <ele>1067.9</ele>
        <time>2020-11-11T11:22:19Z</time>
      </trkpt>
      <trkpt lat="28.4465620" lon="-16.3837370">
        <ele>1067.9</ele>
        <time>2020-11-11T11:22:20Z</time>
      </trkpt>
      <trkpt lat="28.4465620" lon="-16.3837370">
        <ele>1068.9</ele>
        <time>2020-11-11T11:22:21Z</time>
      </trkpt>
      <trkpt lat="28.4465650" lon="-16.3837950">
        <ele>1068.9</ele>
        <time>2020-11-11T11:22:22Z</time>
      </trkpt>
      <trkpt lat="28.4465650" lon="-16.3837950">
        <ele>1068.9</ele>
        <time>2020-11-11T11:22:23Z</time>
      </trkpt>
      <trkpt lat="28.4465520" lon="-16.3838600">
        <ele>1068.9</ele>
        <time>2020-11-11T11:22:24Z</time>
      </trkpt>
      <trkpt lat="28.4465350" lon="-16.3838880">
        <ele>1068.9</ele>
        <time>2020-11-11T11:22:25Z</time>
      </trkpt>
      <trkpt lat="28.4465350" lon="-16.3838880">
        <ele>1068.9</ele>
        <time>2020-11-11T11:22:26Z</time>
      </trkpt>
      <trkpt lat="28.4464980" lon="-16.3839480">
        <ele>1068.9</ele>
        <time>2020-11-11T11:22:27Z</time>
      </trkpt>
      <trkpt lat="28.4464980" lon="-16.3839480">
        <ele>1068.9</ele>
        <time>2020-11-11T11:22:28Z</time>
      </trkpt>
      <trkpt lat="28.4464700" lon="-16.3840070">
        <ele>1068.9</ele>
        <time>2020-11-11T11:22:29Z</time>
      </trkpt>
      <trkpt lat="28.4464700" lon="-16.3840070">
        <ele>1068.9</ele>
        <time>2020-11-11T11:22:30Z</time>
      </trkpt>
      <trkpt lat="28.4464330" lon="-16.3840670">
        <ele>1068.9</ele>
        <time>2020-11-11T11:22:31Z</time>
      </trkpt>
      <trkpt lat="28.4464330" lon="-16.3840670">
        <ele>1068.9</ele>
        <time>2020-11-11T11:22:32Z</time>
      </trkpt>
      <trkpt lat="28.4463980" lon="-16.3841220">
        <ele>1068.9</ele>
        <time>2020-11-11T11:22:33Z</time>
      </trkpt>
      <trkpt lat="28.4463800" lon="-16.3841520">
        <ele>1068.9</ele>
        <time>2020-11-11T11:22:34Z</time>
      </trkpt>
      <trkpt lat="28.4463630" lon="-16.3841800">
        <ele>1068.9</ele>
        <time>2020-11-11T11:22:35Z</time>
      </trkpt>
      <trkpt lat="28.4463630" lon="-16.3841800">
        <ele>1068.9</ele>
        <time>2020-11-11T11:22:36Z</time>
      </trkpt>
      <trkpt lat="28.4463280" lon="-16.3842350">
        <ele>1068.9</ele>
        <time>2020-11-11T11:22:37Z</time>
      </trkpt>
      <trkpt lat="28.4463280" lon="-16.3842350">
        <ele>1068.9</ele>
        <time>2020-11-11T11:22:38Z</time>
      </trkpt>
      <trkpt lat="28.4462830" lon="-16.3842870">
        <ele>1068.9</ele>
        <time>2020-11-11T11:22:39Z</time>
      </trkpt>
      <trkpt lat="28.4462830" lon="-16.3842870">
        <ele>1068.9</ele>
        <time>2020-11-11T11:22:40Z</time>
      </trkpt>
      <trkpt lat="28.4462370" lon="-16.3843430">
        <ele>1068.9</ele>
        <time>2020-11-11T11:22:41Z</time>
      </trkpt>
      <trkpt lat="28.4462370" lon="-16.3843430">
        <ele>1068.9</ele>
        <time>2020-11-11T11:22:42Z</time>
      </trkpt>
      <trkpt lat="28.4461930" lon="-16.3844050">
        <ele>1068.9</ele>
        <time>2020-11-11T11:22:43Z</time>
      </trkpt>
      <trkpt lat="28.4461930" lon="-16.3844050">
        <ele>1068.9</ele>
        <time>2020-11-11T11:22:44Z</time>
      </trkpt>
      <trkpt lat="28.4461470" lon="-16.3844550">
        <ele>1068.9</ele>
        <time>2020-11-11T11:22:45Z</time>
      </trkpt>
      <trkpt lat="28.4461470" lon="-16.3844550">
        <ele>1068.9</ele>
        <time>2020-11-11T11:22:46Z</time>
      </trkpt>
      <trkpt lat="28.4461020" lon="-16.3845120">
        <ele>1068.9</ele>
        <time>2020-11-11T11:22:47Z</time>
      </trkpt>
      <trkpt lat="28.4460750" lon="-16.3845430">
        <ele>1068.9</ele>
        <time>2020-11-11T11:22:48Z</time>
      </trkpt>
      <trkpt lat="28.4460750" lon="-16.3845430">
        <ele>1068.9</ele>
        <time>2020-11-11T11:22:49Z</time>
      </trkpt>
      <trkpt lat="28.4460180" lon="-16.3846020">
        <ele>1068.9</ele>
        <time>2020-11-11T11:22:50Z</time>
      </trkpt>
      <trkpt lat="28.4460180" lon="-16.3846020">
        <ele>1068.9</ele>
        <time>2020-11-11T11:22:51Z</time>
      </trkpt>
      <trkpt lat="28.4459570" lon="-16.3846580">
        <ele>1068.9</ele>
        <time>2020-11-11T11:22:52Z</time>
      </trkpt>
      <trkpt lat="28.4459270" lon="-16.3846850">
        <ele>1068.9</ele>
        <time>2020-11-11T11:22:53Z</time>
      </trkpt>
      <trkpt lat="28.4459270" lon="-16.3846850">
        <ele>1068.9</ele>
        <time>2020-11-11T11:22:54Z</time>
      </trkpt>
      <trkpt lat="28.4458600" lon="-16.3847330">
        <ele>1068.9</ele>
        <time>2020-11-11T11:22:55Z</time>
      </trkpt>
      <trkpt lat="28.4458600" lon="-16.3847330">
        <ele>1068.9</ele>
        <time>2020-11-11T11:22:56Z</time>
      </trkpt>
      <trkpt lat="28.4457930" lon="-16.3847800">
        <ele>1068.9</ele>
        <time>2020-11-11T11:22:57Z</time>
      </trkpt>
      <trkpt lat="28.4457930" lon="-16.3847800">
        <ele>1068.9</ele>
        <time>2020-11-11T11:22:58Z</time>
      </trkpt>
      <trkpt lat="28.4457230" lon="-16.3848230">
        <ele>1068.9</ele>
        <time>2020-11-11T11:22:59Z</time>
      </trkpt>
      <trkpt lat="28.4457230" lon="-16.3848230">
        <ele>1068.9</ele>
        <time>2020-11-11T11:23:00Z</time>
      </trkpt>
      <trkpt lat="28.4456680" lon="-16.3848800">
        <ele>1068.9</ele>
        <time>2020-11-11T11:23:01Z</time>
      </trkpt>
      <trkpt lat="28.4456680" lon="-16.3848800">
        <ele>1068.9</ele>
        <time>2020-11-11T11:23:02Z</time>
      </trkpt>
      <trkpt lat="28.4456150" lon="-16.3849370">
        <ele>1068.9</ele>
        <time>2020-11-11T11:23:03Z</time>
      </trkpt>
      <trkpt lat="28.4456150" lon="-16.3849370">
        <ele>1068.9</ele>
        <time>2020-11-11T11:23:04Z</time>
      </trkpt>
      <trkpt lat="28.4455650" lon="-16.3849750">
        <ele>1068.9</ele>
        <time>2020-11-11T11:23:05Z</time>
      </trkpt>
      <trkpt lat="28.4455420" lon="-16.3849970">
        <ele>1068.9</ele>
        <time>2020-11-11T11:23:06Z</time>
      </trkpt>
      <trkpt lat="28.4455200" lon="-16.3850200">
        <ele>1069.9</ele>
        <time>2020-11-11T11:23:07Z</time>
      </trkpt>
      <trkpt lat="28.4455200" lon="-16.3850200">
        <ele>1069.9</ele>
        <time>2020-11-11T11:23:08Z</time>
      </trkpt>
      <trkpt lat="28.4454750" lon="-16.3850620">
        <ele>1069.9</ele>
        <time>2020-11-11T11:23:09Z</time>
      </trkpt>
      <trkpt lat="28.4454750" lon="-16.3850620">
        <ele>1070.9</ele>
        <time>2020-11-11T11:23:10Z</time>
      </trkpt>
      <trkpt lat="28.4454130" lon="-16.3850900">
        <ele>1070.9</ele>
        <time>2020-11-11T11:23:11Z</time>
      </trkpt>
      <trkpt lat="28.4454130" lon="-16.3850900">
        <ele>1070.9</ele>
        <time>2020-11-11T11:23:12Z</time>
      </trkpt>
      <trkpt lat="28.4453580" lon="-16.3851300">
        <ele>1070.9</ele>
        <time>2020-11-11T11:23:13Z</time>
      </trkpt>
      <trkpt lat="28.4453580" lon="-16.3851300">
        <ele>1070.9</ele>
        <time>2020-11-11T11:23:14Z</time>
      </trkpt>
      <trkpt lat="28.4453030" lon="-16.3851680">
        <ele>1070.9</ele>
        <time>2020-11-11T11:23:15Z</time>
      </trkpt>
      <trkpt lat="28.4453030" lon="-16.3851680">
        <ele>1071.9</ele>
        <time>2020-11-11T11:23:16Z</time>
      </trkpt>
      <trkpt lat="28.4452400" lon="-16.3852070">
        <ele>1071.9</ele>
        <time>2020-11-11T11:23:17Z</time>
      </trkpt>
      <trkpt lat="28.4452400" lon="-16.3852070">
        <ele>1071.9</ele>
        <time>2020-11-11T11:23:18Z</time>
      </trkpt>
      <trkpt lat="28.4451820" lon="-16.3852330">
        <ele>1071.9</ele>
        <time>2020-11-11T11:23:19Z</time>
      </trkpt>
      <trkpt lat="28.4451820" lon="-16.3852330">
        <ele>1071.9</ele>
        <time>2020-11-11T11:23:20Z</time>
      </trkpt>
      <trkpt lat="28.4451150" lon="-16.3852550">
        <ele>1071.9</ele>
        <time>2020-11-11T11:23:21Z</time>
      </trkpt>
      <trkpt lat="28.4451150" lon="-16.3852550">
        <ele>1072.9</ele>
        <time>2020-11-11T11:23:22Z</time>
      </trkpt>
      <trkpt lat="28.4450450" lon="-16.3852770">
        <ele>1072.9</ele>
        <time>2020-11-11T11:23:23Z</time>
      </trkpt>
      <trkpt lat="28.4450450" lon="-16.3852770">
        <ele>1072.9</ele>
        <time>2020-11-11T11:23:24Z</time>
      </trkpt>
      <trkpt lat="28.4449780" lon="-16.3852920">
        <ele>1072.9</ele>
        <time>2020-11-11T11:23:25Z</time>
      </trkpt>
      <trkpt lat="28.4449780" lon="-16.3852920">
        <ele>1072.9</ele>
        <time>2020-11-11T11:23:26Z</time>
      </trkpt>
      <trkpt lat="28.4449150" lon="-16.3853080">
        <ele>1072.9</ele>
        <time>2020-11-11T11:23:27Z</time>
      </trkpt>
      <trkpt lat="28.4448850" lon="-16.3853170">
        <ele>1072.9</ele>
        <time>2020-11-11T11:23:28Z</time>
      </trkpt>
      <trkpt lat="28.4448530" lon="-16.3853250">
        <ele>1072.9</ele>
        <time>2020-11-11T11:23:29Z</time>
      </trkpt>
      <trkpt lat="28.4448530" lon="-16.3853250">
        <ele>1072.9</ele>
        <time>2020-11-11T11:23:30Z</time>
      </trkpt>
      <trkpt lat="28.4447880" lon="-16.3853630">
        <ele>1072.9</ele>
        <time>2020-11-11T11:23:31Z</time>
      </trkpt>
      <trkpt lat="28.4447880" lon="-16.3853630">
        <ele>1072.9</ele>
        <time>2020-11-11T11:23:32Z</time>
      </trkpt>
      <trkpt lat="28.4447150" lon="-16.3853900">
        <ele>1072.9</ele>
        <time>2020-11-11T11:23:33Z</time>
      </trkpt>
      <trkpt lat="28.4446770" lon="-16.3854020">
        <ele>1073.9</ele>
        <time>2020-11-11T11:23:34Z</time>
      </trkpt>
      <trkpt lat="28.4446770" lon="-16.3854020">
        <ele>1073.9</ele>
        <time>2020-11-11T11:23:35Z</time>
      </trkpt>
      <trkpt lat="28.4446020" lon="-16.3854280">
        <ele>1073.9</ele>
        <time>2020-11-11T11:23:36Z</time>
      </trkpt>
      <trkpt lat="28.4445700" lon="-16.3854520">
        <ele>1073.9</ele>
        <time>2020-11-11T11:23:37Z</time>
      </trkpt>
      <trkpt lat="28.4445700" lon="-16.3854520">
        <ele>1073.9</ele>
        <time>2020-11-11T11:23:38Z</time>
      </trkpt>
      <trkpt lat="28.4444930" lon="-16.3854920">
        <ele>1073.9</ele>
        <time>2020-11-11T11:23:39Z</time>
      </trkpt>
      <trkpt lat="28.4444630" lon="-16.3855220">
        <ele>1073.9</ele>
        <time>2020-11-11T11:23:40Z</time>
      </trkpt>
      <trkpt lat="28.4444630" lon="-16.3855220">
        <ele>1073.9</ele>
        <time>2020-11-11T11:23:41Z</time>
      </trkpt>
      <trkpt lat="28.4443780" lon="-16.3855620">
        <ele>1073.9</ele>
        <time>2020-11-11T11:23:42Z</time>
      </trkpt>
      <trkpt lat="28.4443470" lon="-16.3855920">
        <ele>1073.9</ele>
        <time>2020-11-11T11:23:43Z</time>
      </trkpt>
      <trkpt lat="28.4443470" lon="-16.3855920">
        <ele>1073.9</ele>
        <time>2020-11-11T11:23:44Z</time>
      </trkpt>
      <trkpt lat="28.4442800" lon="-16.3856600">
        <ele>1073.9</ele>
        <time>2020-11-11T11:23:45Z</time>
      </trkpt>
      <trkpt lat="28.4442800" lon="-16.3856600">
        <ele>1073.9</ele>
        <time>2020-11-11T11:23:46Z</time>
      </trkpt>
      <trkpt lat="28.4442200" lon="-16.3857170">
        <ele>1074.9</ele>
        <time>2020-11-11T11:23:47Z</time>
      </trkpt>
      <trkpt lat="28.4442200" lon="-16.3857170">
        <ele>1074.9</ele>
        <time>2020-11-11T11:23:48Z</time>
      </trkpt>
      <trkpt lat="28.4441680" lon="-16.3857830">
        <ele>1074.9</ele>
        <time>2020-11-11T11:23:49Z</time>
      </trkpt>
      <trkpt lat="28.4441680" lon="-16.3857830">
        <ele>1074.9</ele>
        <time>2020-11-11T11:23:50Z</time>
      </trkpt>
      <trkpt lat="28.4441200" lon="-16.3858500">
        <ele>1074.9</ele>
        <time>2020-11-11T11:23:51Z</time>
      </trkpt>
      <trkpt lat="28.4441200" lon="-16.3858500">
        <ele>1074.9</ele>
        <time>2020-11-11T11:23:52Z</time>
      </trkpt>
      <trkpt lat="28.4440730" lon="-16.3859070">
        <ele>1074.9</ele>
        <time>2020-11-11T11:23:53Z</time>
      </trkpt>
      <trkpt lat="28.4440530" lon="-16.3859400">
        <ele>1074.9</ele>
        <time>2020-11-11T11:23:54Z</time>
      </trkpt>
      <trkpt lat="28.4440530" lon="-16.3859400">
        <ele>1074.9</ele>
        <time>2020-11-11T11:23:55Z</time>
      </trkpt>
      <trkpt lat="28.4440230" lon="-16.3859900">
        <ele>1074.9</ele>
        <time>2020-11-11T11:23:56Z</time>
      </trkpt>
      <trkpt lat="28.4440230" lon="-16.3859900">
        <ele>1075.9</ele>
        <time>2020-11-11T11:23:57Z</time>
      </trkpt>
      <trkpt lat="28.4439880" lon="-16.3860350">
        <ele>1075.9</ele>
        <time>2020-11-11T11:23:58Z</time>
      </trkpt>
      <trkpt lat="28.4439880" lon="-16.3860350">
        <ele>1075.9</ele>
        <time>2020-11-11T11:23:59Z</time>
      </trkpt>
      <trkpt lat="28.4439880" lon="-16.3860350">
        <ele>1075.9</ele>
        <time>2020-11-11T11:24:00Z</time>
      </trkpt>
      <trkpt lat="28.4439550" lon="-16.3860850">
        <ele>1076.9</ele>
        <time>2020-11-11T11:24:01Z</time>
      </trkpt>
      <trkpt lat="28.4439280" lon="-16.3861330">
        <ele>1076.9</ele>
        <time>2020-11-11T11:24:02Z</time>
      </trkpt>
      <trkpt lat="28.4439280" lon="-16.3861330">
        <ele>1076.9</ele>
        <time>2020-11-11T11:24:03Z</time>
      </trkpt>
      <trkpt lat="28.4439020" lon="-16.3861850">
        <ele>1076.9</ele>
        <time>2020-11-11T11:24:04Z</time>
      </trkpt>
      <trkpt lat="28.4439020" lon="-16.3861850">
        <ele>1077.9</ele>
        <time>2020-11-11T11:24:05Z</time>
      </trkpt>
      <trkpt lat="28.4438770" lon="-16.3862320">
        <ele>1077.9</ele>
        <time>2020-11-11T11:24:06Z</time>
      </trkpt>
      <trkpt lat="28.4438600" lon="-16.3862500">
        <ele>1077.9</ele>
        <time>2020-11-11T11:24:07Z</time>
      </trkpt>
      <trkpt lat="28.4438600" lon="-16.3862500">
        <ele>1077.9</ele>
        <time>2020-11-11T11:24:08Z</time>
      </trkpt>
      <trkpt lat="28.4438320" lon="-16.3862850">
        <ele>1077.9</ele>
        <time>2020-11-11T11:24:09Z</time>
      </trkpt>
      <trkpt lat="28.4438200" lon="-16.3863000">
        <ele>1077.9</ele>
        <time>2020-11-11T11:24:10Z</time>
      </trkpt>
      <trkpt lat="28.4438200" lon="-16.3863000">
        <ele>1077.9</ele>
        <time>2020-11-11T11:24:11Z</time>
      </trkpt>
      <trkpt lat="28.4437880" lon="-16.3863370">
        <ele>1077.9</ele>
        <time>2020-11-11T11:24:12Z</time>
      </trkpt>
      <trkpt lat="28.4437880" lon="-16.3863370">
        <ele>1078.9</ele>
        <time>2020-11-11T11:24:13Z</time>
      </trkpt>
      <trkpt lat="28.4437650" lon="-16.3863720">
        <ele>1078.9</ele>
        <time>2020-11-11T11:24:14Z</time>
      </trkpt>
      <trkpt lat="28.4437650" lon="-16.3863720">
        <ele>1078.9</ele>
        <time>2020-11-11T11:24:15Z</time>
      </trkpt>
      <trkpt lat="28.4437450" lon="-16.3864030">
        <ele>1079.9</ele>
        <time>2020-11-11T11:24:16Z</time>
      </trkpt>
      <trkpt lat="28.4437350" lon="-16.3864220">
        <ele>1079.9</ele>
        <time>2020-11-11T11:24:17Z</time>
      </trkpt>
      <trkpt lat="28.4437350" lon="-16.3864220">
        <ele>1079.9</ele>
        <time>2020-11-11T11:24:18Z</time>
      </trkpt>
      <trkpt lat="28.4437080" lon="-16.3864580">
        <ele>1079.9</ele>
        <time>2020-11-11T11:24:19Z</time>
      </trkpt>
      <trkpt lat="28.4437080" lon="-16.3864580">
        <ele>1079.9</ele>
        <time>2020-11-11T11:24:20Z</time>
      </trkpt>
      <trkpt lat="28.4436830" lon="-16.3864930">
        <ele>1080.9</ele>
        <time>2020-11-11T11:24:21Z</time>
      </trkpt>
      <trkpt lat="28.4436830" lon="-16.3864930">
        <ele>1080.9</ele>
        <time>2020-11-11T11:24:22Z</time>
      </trkpt>
      <trkpt lat="28.4436600" lon="-16.3865250">
        <ele>1080.9</ele>
        <time>2020-11-11T11:24:23Z</time>
      </trkpt>
      <trkpt lat="28.4436600" lon="-16.3865250">
        <ele>1081.9</ele>
        <time>2020-11-11T11:24:24Z</time>
      </trkpt>
      <trkpt lat="28.4436400" lon="-16.3865580">
        <ele>1081.9</ele>
        <time>2020-11-11T11:24:25Z</time>
      </trkpt>
      <trkpt lat="28.4436400" lon="-16.3865580">
        <ele>1081.9</ele>
        <time>2020-11-11T11:24:26Z</time>
      </trkpt>
      <trkpt lat="28.4436180" lon="-16.3865900">
        <ele>1081.9</ele>
        <time>2020-11-11T11:24:27Z</time>
      </trkpt>
      <trkpt lat="28.4436070" lon="-16.3866070">
        <ele>1081.9</ele>
        <time>2020-11-11T11:24:28Z</time>
      </trkpt>
      <trkpt lat="28.4436070" lon="-16.3866070">
        <ele>1083.9</ele>
        <time>2020-11-11T11:24:29Z</time>
      </trkpt>
      <trkpt lat="28.4436070" lon="-16.3866070">
        <ele>1083.9</ele>
        <time>2020-11-11T11:24:30Z</time>
      </trkpt>
      <trkpt lat="28.4435730" lon="-16.3866320">
        <ele>1083.9</ele>
        <time>2020-11-11T11:24:31Z</time>
      </trkpt>
      <trkpt lat="28.4435380" lon="-16.3866620">
        <ele>1083.9</ele>
        <time>2020-11-11T11:24:32Z</time>
      </trkpt>
      <trkpt lat="28.4435380" lon="-16.3866620">
        <ele>1083.9</ele>
        <time>2020-11-11T11:24:33Z</time>
      </trkpt>
      <trkpt lat="28.4435000" lon="-16.3866870">
        <ele>1083.9</ele>
        <time>2020-11-11T11:24:34Z</time>
      </trkpt>
      <trkpt lat="28.4435000" lon="-16.3866870">
        <ele>1084.9</ele>
        <time>2020-11-11T11:24:35Z</time>
      </trkpt>
      <trkpt lat="28.4434650" lon="-16.3867080">
        <ele>1084.9</ele>
        <time>2020-11-11T11:24:36Z</time>
      </trkpt>
      <trkpt lat="28.4434650" lon="-16.3867080">
        <ele>1084.9</ele>
        <time>2020-11-11T11:24:37Z</time>
      </trkpt>
      <trkpt lat="28.4434320" lon="-16.3867330">
        <ele>1084.9</ele>
        <time>2020-11-11T11:24:38Z</time>
      </trkpt>
      <trkpt lat="28.4434320" lon="-16.3867330">
        <ele>1085.9</ele>
        <time>2020-11-11T11:24:39Z</time>
      </trkpt>
      <trkpt lat="28.4434020" lon="-16.3867530">
        <ele>1085.9</ele>
        <time>2020-11-11T11:24:40Z</time>
      </trkpt>
      <trkpt lat="28.4434020" lon="-16.3867530">
        <ele>1085.9</ele>
        <time>2020-11-11T11:24:41Z</time>
      </trkpt>
      <trkpt lat="28.4433770" lon="-16.3867780">
        <ele>1085.9</ele>
        <time>2020-11-11T11:24:42Z</time>
      </trkpt>
      <trkpt lat="28.4433570" lon="-16.3867950">
        <ele>1086.9</ele>
        <time>2020-11-11T11:24:43Z</time>
      </trkpt>
      <trkpt lat="28.4433570" lon="-16.3867950">
        <ele>1086.9</ele>
        <time>2020-11-11T11:24:44Z</time>
      </trkpt>
      <trkpt lat="28.4433170" lon="-16.3868230">
        <ele>1086.9</ele>
        <time>2020-11-11T11:24:45Z</time>
      </trkpt>
      <trkpt lat="28.4433030" lon="-16.3868370">
        <ele>1086.9</ele>
        <time>2020-11-11T11:24:46Z</time>
      </trkpt>
      <trkpt lat="28.4432850" lon="-16.3868520">
        <ele>1087.9</ele>
        <time>2020-11-11T11:24:47Z</time>
      </trkpt>
      <trkpt lat="28.4432850" lon="-16.3868520">
        <ele>1087.9</ele>
        <time>2020-11-11T11:24:48Z</time>
      </trkpt>
      <trkpt lat="28.4432520" lon="-16.3868770">
        <ele>1087.9</ele>
        <time>2020-11-11T11:24:49Z</time>
      </trkpt>
      <trkpt lat="28.4432350" lon="-16.3868880">
        <ele>1087.9</ele>
        <time>2020-11-11T11:24:50Z</time>
      </trkpt>
      <trkpt lat="28.4432350" lon="-16.3868880">
        <ele>1088.9</ele>
        <time>2020-11-11T11:24:51Z</time>
      </trkpt>
      <trkpt lat="28.4431950" lon="-16.3869100">
        <ele>1088.9</ele>
        <time>2020-11-11T11:24:52Z</time>
      </trkpt>
      <trkpt lat="28.4431780" lon="-16.3869230">
        <ele>1088.9</ele>
        <time>2020-11-11T11:24:53Z</time>
      </trkpt>
      <trkpt lat="28.4431630" lon="-16.3869400">
        <ele>1088.9</ele>
        <time>2020-11-11T11:24:54Z</time>
      </trkpt>
      <trkpt lat="28.4431630" lon="-16.3869400">
        <ele>1089.9</ele>
        <time>2020-11-11T11:24:55Z</time>
      </trkpt>
      <trkpt lat="28.4431330" lon="-16.3869720">
        <ele>1089.9</ele>
        <time>2020-11-11T11:24:56Z</time>
      </trkpt>
      <trkpt lat="28.4431330" lon="-16.3869720">
        <ele>1089.9</ele>
        <time>2020-11-11T11:24:57Z</time>
      </trkpt>
      <trkpt lat="28.4431020" lon="-16.3870020">
        <ele>1090.9</ele>
        <time>2020-11-11T11:24:58Z</time>
      </trkpt>
      <trkpt lat="28.4431020" lon="-16.3870020">
        <ele>1090.9</ele>
        <time>2020-11-11T11:24:59Z</time>
      </trkpt>
      <trkpt lat="28.4430700" lon="-16.3870270">
        <ele>1090.9</ele>
        <time>2020-11-11T11:25:00Z</time>
      </trkpt>
      <trkpt lat="28.4430700" lon="-16.3870270">
        <ele>1090.9</ele>
        <time>2020-11-11T11:25:01Z</time>
      </trkpt>
      <trkpt lat="28.4430350" lon="-16.3870570">
        <ele>1090.9</ele>
        <time>2020-11-11T11:25:02Z</time>
      </trkpt>
      <trkpt lat="28.4430350" lon="-16.3870570">
        <ele>1090.9</ele>
        <time>2020-11-11T11:25:03Z</time>
      </trkpt>
      <trkpt lat="28.4429970" lon="-16.3870850">
        <ele>1090.9</ele>
        <time>2020-11-11T11:25:04Z</time>
      </trkpt>
      <trkpt lat="28.4429970" lon="-16.3870850">
        <ele>1090.9</ele>
        <time>2020-11-11T11:25:05Z</time>
      </trkpt>
      <trkpt lat="28.4429680" lon="-16.3871180">
        <ele>1091.9</ele>
        <time>2020-11-11T11:25:06Z</time>
      </trkpt>
      <trkpt lat="28.4429570" lon="-16.3871380">
        <ele>1091.9</ele>
        <time>2020-11-11T11:25:07Z</time>
      </trkpt>
      <trkpt lat="28.4429570" lon="-16.3871380">
        <ele>1091.9</ele>
        <time>2020-11-11T11:25:08Z</time>
      </trkpt>
      <trkpt lat="28.4429270" lon="-16.3871780">
        <ele>1091.9</ele>
        <time>2020-11-11T11:25:09Z</time>
      </trkpt>
      <trkpt lat="28.4429130" lon="-16.3871930">
        <ele>1092.9</ele>
        <time>2020-11-11T11:25:10Z</time>
      </trkpt>
      <trkpt lat="28.4429130" lon="-16.3871930">
        <ele>1092.9</ele>
        <time>2020-11-11T11:25:11Z</time>
      </trkpt>
      <trkpt lat="28.4428800" lon="-16.3872300">
        <ele>1092.9</ele>
        <time>2020-11-11T11:25:12Z</time>
      </trkpt>
      <trkpt lat="28.4428570" lon="-16.3872520">
        <ele>1092.9</ele>
        <time>2020-11-11T11:25:13Z</time>
      </trkpt>
      <trkpt lat="28.4428570" lon="-16.3872520">
        <ele>1093.9</ele>
        <time>2020-11-11T11:25:14Z</time>
      </trkpt>
      <trkpt lat="28.4428250" lon="-16.3872920">
        <ele>1093.9</ele>
        <time>2020-11-11T11:25:15Z</time>
      </trkpt>
      <trkpt lat="28.4428150" lon="-16.3873120">
        <ele>1093.9</ele>
        <time>2020-11-11T11:25:16Z</time>
      </trkpt>
      <trkpt lat="28.4428150" lon="-16.3873120">
        <ele>1093.9</ele>
        <time>2020-11-11T11:25:17Z</time>
      </trkpt>
      <trkpt lat="28.4427870" lon="-16.3873500">
        <ele>1093.9</ele>
        <time>2020-11-11T11:25:18Z</time>
      </trkpt>
      <trkpt lat="28.4427870" lon="-16.3873500">
        <ele>1094.9</ele>
        <time>2020-11-11T11:25:19Z</time>
      </trkpt>
      <trkpt lat="28.4427580" lon="-16.3873900">
        <ele>1094.9</ele>
        <time>2020-11-11T11:25:20Z</time>
      </trkpt>
      <trkpt lat="28.4427580" lon="-16.3873900">
        <ele>1094.9</ele>
        <time>2020-11-11T11:25:21Z</time>
      </trkpt>
      <trkpt lat="28.4427300" lon="-16.3874250">
        <ele>1094.9</ele>
        <time>2020-11-11T11:25:22Z</time>
      </trkpt>
      <trkpt lat="28.4427130" lon="-16.3874430">
        <ele>1095.9</ele>
        <time>2020-11-11T11:25:23Z</time>
      </trkpt>
      <trkpt lat="28.4427130" lon="-16.3874430">
        <ele>1095.9</ele>
        <time>2020-11-11T11:25:24Z</time>
      </trkpt>
      <trkpt lat="28.4426820" lon="-16.3874700">
        <ele>1095.9</ele>
        <time>2020-11-11T11:25:25Z</time>
      </trkpt>
      <trkpt lat="28.4426820" lon="-16.3874700">
        <ele>1095.9</ele>
        <time>2020-11-11T11:25:26Z</time>
      </trkpt>
      <trkpt lat="28.4426430" lon="-16.3875020">
        <ele>1096.9</ele>
        <time>2020-11-11T11:25:27Z</time>
      </trkpt>
      <trkpt lat="28.4426430" lon="-16.3875020">
        <ele>1096.9</ele>
        <time>2020-11-11T11:25:28Z</time>
      </trkpt>
      <trkpt lat="28.4426180" lon="-16.3875420">
        <ele>1096.9</ele>
        <time>2020-11-11T11:25:29Z</time>
      </trkpt>
      <trkpt lat="28.4426020" lon="-16.3875620">
        <ele>1096.9</ele>
        <time>2020-11-11T11:25:30Z</time>
      </trkpt>
      <trkpt lat="28.4426020" lon="-16.3875620">
        <ele>1097.9</ele>
        <time>2020-11-11T11:25:31Z</time>
      </trkpt>
      <trkpt lat="28.4425700" lon="-16.3875970">
        <ele>1097.9</ele>
        <time>2020-11-11T11:25:32Z</time>
      </trkpt>
      <trkpt lat="28.4425700" lon="-16.3875970">
        <ele>1097.9</ele>
        <time>2020-11-11T11:25:33Z</time>
      </trkpt>
      <trkpt lat="28.4425400" lon="-16.3876250">
        <ele>1097.9</ele>
        <time>2020-11-11T11:25:34Z</time>
      </trkpt>
      <trkpt lat="28.4425400" lon="-16.3876250">
        <ele>1098.9</ele>
        <time>2020-11-11T11:25:35Z</time>
      </trkpt>
      <trkpt lat="28.4425100" lon="-16.3876620">
        <ele>1098.9</ele>
        <time>2020-11-11T11:25:36Z</time>
      </trkpt>
      <trkpt lat="28.4425100" lon="-16.3876620">
        <ele>1098.9</ele>
        <time>2020-11-11T11:25:37Z</time>
      </trkpt>
      <trkpt lat="28.4424800" lon="-16.3877030">
        <ele>1099.9</ele>
        <time>2020-11-11T11:25:38Z</time>
      </trkpt>
      <trkpt lat="28.4424800" lon="-16.3877030">
        <ele>1099.9</ele>
        <time>2020-11-11T11:25:39Z</time>
      </trkpt>
      <trkpt lat="28.4424470" lon="-16.3877330">
        <ele>1099.9</ele>
        <time>2020-11-11T11:25:40Z</time>
      </trkpt>
      <trkpt lat="28.4424470" lon="-16.3877330">
        <ele>1099.9</ele>
        <time>2020-11-11T11:25:41Z</time>
      </trkpt>
      <trkpt lat="28.4424100" lon="-16.3877620">
        <ele>1100.9</ele>
        <time>2020-11-11T11:25:42Z</time>
      </trkpt>
      <trkpt lat="28.4423920" lon="-16.3877770">
        <ele>1100.9</ele>
        <time>2020-11-11T11:25:43Z</time>
      </trkpt>
      <trkpt lat="28.4423920" lon="-16.3877770">
        <ele>1100.9</ele>
        <time>2020-11-11T11:25:44Z</time>
      </trkpt>
      <trkpt lat="28.4423530" lon="-16.3878070">
        <ele>1100.9</ele>
        <time>2020-11-11T11:25:45Z</time>
      </trkpt>
      <trkpt lat="28.4423530" lon="-16.3878070">
        <ele>1100.9</ele>
        <time>2020-11-11T11:25:46Z</time>
      </trkpt>
      <trkpt lat="28.4423180" lon="-16.3878350">
        <ele>1100.9</ele>
        <time>2020-11-11T11:25:47Z</time>
      </trkpt>
      <trkpt lat="28.4423030" lon="-16.3878480">
        <ele>1100.9</ele>
        <time>2020-11-11T11:25:48Z</time>
      </trkpt>
      <trkpt lat="28.4423030" lon="-16.3878480">
        <ele>1100.9</ele>
        <time>2020-11-11T11:25:49Z</time>
      </trkpt>
      <trkpt lat="28.4422680" lon="-16.3878770">
        <ele>1100.9</ele>
        <time>2020-11-11T11:25:50Z</time>
      </trkpt>
      <trkpt lat="28.4422550" lon="-16.3878920">
        <ele>1100.9</ele>
        <time>2020-11-11T11:25:51Z</time>
      </trkpt>
      <trkpt lat="28.4422550" lon="-16.3878920">
        <ele>1100.9</ele>
        <time>2020-11-11T11:25:52Z</time>
      </trkpt>
      <trkpt lat="28.4422250" lon="-16.3879200">
        <ele>1100.9</ele>
        <time>2020-11-11T11:25:53Z</time>
      </trkpt>
      <trkpt lat="28.4422250" lon="-16.3879200">
        <ele>1102.9</ele>
        <time>2020-11-11T11:25:54Z</time>
      </trkpt>
      <trkpt lat="28.4421920" lon="-16.3879500">
        <ele>1102.9</ele>
        <time>2020-11-11T11:25:55Z</time>
      </trkpt>
      <trkpt lat="28.4421920" lon="-16.3879500">
        <ele>1102.9</ele>
        <time>2020-11-11T11:25:56Z</time>
      </trkpt>
      <trkpt lat="28.4421670" lon="-16.3879770">
        <ele>1102.9</ele>
        <time>2020-11-11T11:25:57Z</time>
      </trkpt>
      <trkpt lat="28.4421550" lon="-16.3879900">
        <ele>1103.9</ele>
        <time>2020-11-11T11:25:58Z</time>
      </trkpt>
      <trkpt lat="28.4421550" lon="-16.3879900">
        <ele>1103.9</ele>
        <time>2020-11-11T11:25:59Z</time>
      </trkpt>
      <trkpt lat="28.4421350" lon="-16.3880200">
        <ele>1103.9</ele>
        <time>2020-11-11T11:26:00Z</time>
      </trkpt>
      <trkpt lat="28.4421220" lon="-16.3880370">
        <ele>1103.9</ele>
        <time>2020-11-11T11:26:01Z</time>
      </trkpt>
      <trkpt lat="28.4421220" lon="-16.3880370">
        <ele>1103.9</ele>
        <time>2020-11-11T11:26:02Z</time>
      </trkpt>
      <trkpt lat="28.4420980" lon="-16.3880730">
        <ele>1103.9</ele>
        <time>2020-11-11T11:26:03Z</time>
      </trkpt>
      <trkpt lat="28.4420880" lon="-16.3880970">
        <ele>1103.9</ele>
        <time>2020-11-11T11:26:04Z</time>
      </trkpt>
      <trkpt lat="28.4420880" lon="-16.3880970">
        <ele>1103.9</ele>
        <time>2020-11-11T11:26:05Z</time>
      </trkpt>
      <trkpt lat="28.4420680" lon="-16.3881370">
        <ele>1103.9</ele>
        <time>2020-11-11T11:26:06Z</time>
      </trkpt>
      <trkpt lat="28.4420680" lon="-16.3881370">
        <ele>1103.9</ele>
        <time>2020-11-11T11:26:07Z</time>
      </trkpt>
      <trkpt lat="28.4420680" lon="-16.3881370">
        <ele>1104.9</ele>
        <time>2020-11-11T11:26:08Z</time>
      </trkpt>
      <trkpt lat="28.4420430" lon="-16.3881730">
        <ele>1104.9</ele>
        <time>2020-11-11T11:26:09Z</time>
      </trkpt>
      <trkpt lat="28.4420230" lon="-16.3882180">
        <ele>1104.9</ele>
        <time>2020-11-11T11:26:10Z</time>
      </trkpt>
      <trkpt lat="28.4420230" lon="-16.3882180">
        <ele>1104.9</ele>
        <time>2020-11-11T11:26:11Z</time>
      </trkpt>
      <trkpt lat="28.4420070" lon="-16.3882630">
        <ele>1105.9</ele>
        <time>2020-11-11T11:26:12Z</time>
      </trkpt>
      <trkpt lat="28.4419970" lon="-16.3882800">
        <ele>1105.9</ele>
        <time>2020-11-11T11:26:13Z</time>
      </trkpt>
      <trkpt lat="28.4419970" lon="-16.3882800">
        <ele>1105.9</ele>
        <time>2020-11-11T11:26:14Z</time>
      </trkpt>
      <trkpt lat="28.4419820" lon="-16.3883200">
        <ele>1105.9</ele>
        <time>2020-11-11T11:26:15Z</time>
      </trkpt>
      <trkpt lat="28.4419820" lon="-16.3883200">
        <ele>1105.9</ele>
        <time>2020-11-11T11:26:16Z</time>
      </trkpt>
      <trkpt lat="28.4419680" lon="-16.3883600">
        <ele>1106.9</ele>
        <time>2020-11-11T11:26:17Z</time>
      </trkpt>
      <trkpt lat="28.4419680" lon="-16.3883600">
        <ele>1106.9</ele>
        <time>2020-11-11T11:26:18Z</time>
      </trkpt>
      <trkpt lat="28.4419570" lon="-16.3883970">
        <ele>1107.9</ele>
        <time>2020-11-11T11:26:19Z</time>
      </trkpt>
      <trkpt lat="28.4419570" lon="-16.3883970">
        <ele>1107.9</ele>
        <time>2020-11-11T11:26:20Z</time>
      </trkpt>
      <trkpt lat="28.4419430" lon="-16.3884280">
        <ele>1107.9</ele>
        <time>2020-11-11T11:26:21Z</time>
      </trkpt>
      <trkpt lat="28.4419430" lon="-16.3884280">
        <ele>1107.9</ele>
        <time>2020-11-11T11:26:22Z</time>
      </trkpt>
      <trkpt lat="28.4419200" lon="-16.3884650">
        <ele>1108.9</ele>
        <time>2020-11-11T11:26:23Z</time>
      </trkpt>
      <trkpt lat="28.4419030" lon="-16.3884870">
        <ele>1108.9</ele>
        <time>2020-11-11T11:26:24Z</time>
      </trkpt>
      <trkpt lat="28.4418880" lon="-16.3885070">
        <ele>1108.9</ele>
        <time>2020-11-11T11:26:25Z</time>
      </trkpt>
      <trkpt lat="28.4418880" lon="-16.3885070">
        <ele>1108.9</ele>
        <time>2020-11-11T11:26:26Z</time>
      </trkpt>
      <trkpt lat="28.4418620" lon="-16.3885400">
        <ele>1109.9</ele>
        <time>2020-11-11T11:26:27Z</time>
      </trkpt>
      <trkpt lat="28.4418620" lon="-16.3885400">
        <ele>1109.9</ele>
        <time>2020-11-11T11:26:28Z</time>
      </trkpt>
      <trkpt lat="28.4418300" lon="-16.3885720">
        <ele>1109.9</ele>
        <time>2020-11-11T11:26:29Z</time>
      </trkpt>
      <trkpt lat="28.4418300" lon="-16.3885720">
        <ele>1109.9</ele>
        <time>2020-11-11T11:26:30Z</time>
      </trkpt>
      <trkpt lat="28.4418080" lon="-16.3886070">
        <ele>1109.9</ele>
        <time>2020-11-11T11:26:31Z</time>
      </trkpt>
      <trkpt lat="28.4418080" lon="-16.3886070">
        <ele>1109.9</ele>
        <time>2020-11-11T11:26:32Z</time>
      </trkpt>
      <trkpt lat="28.4417820" lon="-16.3886430">
        <ele>1109.9</ele>
        <time>2020-11-11T11:26:33Z</time>
      </trkpt>
      <trkpt lat="28.4417820" lon="-16.3886430">
        <ele>1109.9</ele>
        <time>2020-11-11T11:26:34Z</time>
      </trkpt>
      <trkpt lat="28.4417520" lon="-16.3886750">
        <ele>1109.9</ele>
        <time>2020-11-11T11:26:35Z</time>
      </trkpt>
      <trkpt lat="28.4417520" lon="-16.3886750">
        <ele>1109.9</ele>
        <time>2020-11-11T11:26:36Z</time>
      </trkpt>
      <trkpt lat="28.4417280" lon="-16.3887000">
        <ele>1109.9</ele>
        <time>2020-11-11T11:26:37Z</time>
      </trkpt>
      <trkpt lat="28.4417120" lon="-16.3887170">
        <ele>1110.9</ele>
        <time>2020-11-11T11:26:38Z</time>
      </trkpt>
      <trkpt lat="28.4417120" lon="-16.3887170">
        <ele>1110.9</ele>
        <time>2020-11-11T11:26:39Z</time>
      </trkpt>
      <trkpt lat="28.4416730" lon="-16.3887400">
        <ele>1110.9</ele>
        <time>2020-11-11T11:26:40Z</time>
      </trkpt>
      <trkpt lat="28.4416550" lon="-16.3887520">
        <ele>1110.9</ele>
        <time>2020-11-11T11:26:41Z</time>
      </trkpt>
      <trkpt lat="28.4416550" lon="-16.3887520">
        <ele>1111.9</ele>
        <time>2020-11-11T11:26:42Z</time>
      </trkpt>
      <trkpt lat="28.4416270" lon="-16.3887780">
        <ele>1111.9</ele>
        <time>2020-11-11T11:26:43Z</time>
      </trkpt>
      <trkpt lat="28.4416270" lon="-16.3887780">
        <ele>1111.9</ele>
        <time>2020-11-11T11:26:44Z</time>
      </trkpt>
      <trkpt lat="28.4415880" lon="-16.3888050">
        <ele>1111.9</ele>
        <time>2020-11-11T11:26:45Z</time>
      </trkpt>
      <trkpt lat="28.4415720" lon="-16.3888200">
        <ele>1112.9</ele>
        <time>2020-11-11T11:26:46Z</time>
      </trkpt>
      <trkpt lat="28.4415550" lon="-16.3888330">
        <ele>1112.9</ele>
        <time>2020-11-11T11:26:47Z</time>
      </trkpt>
      <trkpt lat="28.4415550" lon="-16.3888330">
        <ele>1112.9</ele>
        <time>2020-11-11T11:26:48Z</time>
      </trkpt>
      <trkpt lat="28.4415150" lon="-16.3888550">
        <ele>1112.9</ele>
        <time>2020-11-11T11:26:49Z</time>
      </trkpt>
      <trkpt lat="28.4414930" lon="-16.3888670">
        <ele>1112.9</ele>
        <time>2020-11-11T11:26:50Z</time>
      </trkpt>
      <trkpt lat="28.4414930" lon="-16.3888670">
        <ele>1113.9</ele>
        <time>2020-11-11T11:26:51Z</time>
      </trkpt>
      <trkpt lat="28.4414480" lon="-16.3888930">
        <ele>1113.9</ele>
        <time>2020-11-11T11:26:52Z</time>
      </trkpt>
      <trkpt lat="28.4414480" lon="-16.3888930">
        <ele>1113.9</ele>
        <time>2020-11-11T11:26:53Z</time>
      </trkpt>
      <trkpt lat="28.4413950" lon="-16.3889250">
        <ele>1113.9</ele>
        <time>2020-11-11T11:26:54Z</time>
      </trkpt>
      <trkpt lat="28.4413950" lon="-16.3889250">
        <ele>1113.9</ele>
        <time>2020-11-11T11:26:55Z</time>
      </trkpt>
      <trkpt lat="28.4413950" lon="-16.3889250">
        <ele>1113.9</ele>
        <time>2020-11-11T11:26:56Z</time>
      </trkpt>
      <trkpt lat="28.4413070" lon="-16.3889770">
        <ele>1113.9</ele>
        <time>2020-11-11T11:26:57Z</time>
      </trkpt>
      <trkpt lat="28.4413070" lon="-16.3889770">
        <ele>1113.9</ele>
        <time>2020-11-11T11:26:58Z</time>
      </trkpt>
      <trkpt lat="28.4412530" lon="-16.3890130">
        <ele>1113.9</ele>
        <time>2020-11-11T11:26:59Z</time>
      </trkpt>
      <trkpt lat="28.4412530" lon="-16.3890130">
        <ele>1113.9</ele>
        <time>2020-11-11T11:27:00Z</time>
      </trkpt>
      <trkpt lat="28.4412030" lon="-16.3890530">
        <ele>1113.9</ele>
        <time>2020-11-11T11:27:01Z</time>
      </trkpt>
      <trkpt lat="28.4412030" lon="-16.3890530">
        <ele>1113.9</ele>
        <time>2020-11-11T11:27:02Z</time>
      </trkpt>
      <trkpt lat="28.4411570" lon="-16.3890970">
        <ele>1113.9</ele>
        <time>2020-11-11T11:27:03Z</time>
      </trkpt>
      <trkpt lat="28.4411570" lon="-16.3890970">
        <ele>1113.9</ele>
        <time>2020-11-11T11:27:04Z</time>
      </trkpt>
      <trkpt lat="28.4411100" lon="-16.3891400">
        <ele>1114.9</ele>
        <time>2020-11-11T11:27:05Z</time>
      </trkpt>
      <trkpt lat="28.4411100" lon="-16.3891400">
        <ele>1114.9</ele>
        <time>2020-11-11T11:27:06Z</time>
      </trkpt>
      <trkpt lat="28.4410600" lon="-16.3891730">
        <ele>1114.9</ele>
        <time>2020-11-11T11:27:07Z</time>
      </trkpt>
      <trkpt lat="28.4410400" lon="-16.3891880">
        <ele>1114.9</ele>
        <time>2020-11-11T11:27:08Z</time>
      </trkpt>
      <trkpt lat="28.4410400" lon="-16.3891880">
        <ele>1114.9</ele>
        <time>2020-11-11T11:27:09Z</time>
      </trkpt>
      <trkpt lat="28.4410120" lon="-16.3892080">
        <ele>1114.9</ele>
        <time>2020-11-11T11:27:10Z</time>
      </trkpt>
      <trkpt lat="28.4410120" lon="-16.3892080">
        <ele>1114.9</ele>
        <time>2020-11-11T11:27:11Z</time>
      </trkpt>
      <trkpt lat="28.4410050" lon="-16.3892230">
        <ele>1114.9</ele>
        <time>2020-11-11T11:27:12Z</time>
      </trkpt>
      <trkpt lat="28.4410080" lon="-16.3892380">
        <ele>1114.9</ele>
        <time>2020-11-11T11:27:13Z</time>
      </trkpt>
      <trkpt lat="28.4410080" lon="-16.3892380">
        <ele>1114.9</ele>
        <time>2020-11-11T11:27:14Z</time>
      </trkpt>
      <trkpt lat="28.4410200" lon="-16.3892570">
        <ele>1114.9</ele>
        <time>2020-11-11T11:27:15Z</time>
      </trkpt>
      <trkpt lat="28.4410200" lon="-16.3892570">
        <ele>1114.9</ele>
        <time>2020-11-11T11:27:16Z</time>
      </trkpt>
      <trkpt lat="28.4410300" lon="-16.3892970">
        <ele>1114.9</ele>
        <time>2020-11-11T11:27:17Z</time>
      </trkpt>
      <trkpt lat="28.4410300" lon="-16.3892970">
        <ele>1114.9</ele>
        <time>2020-11-11T11:27:18Z</time>
      </trkpt>
      <trkpt lat="28.4410170" lon="-16.3893500">
        <ele>1114.9</ele>
        <time>2020-11-11T11:27:19Z</time>
      </trkpt>
      <trkpt lat="28.4410170" lon="-16.3893500">
        <ele>1114.9</ele>
        <time>2020-11-11T11:27:20Z</time>
      </trkpt>
      <trkpt lat="28.4410020" lon="-16.3893880">
        <ele>1114.9</ele>
        <time>2020-11-11T11:27:21Z</time>
      </trkpt>
      <trkpt lat="28.4410020" lon="-16.3893880">
        <ele>1114.9</ele>
        <time>2020-11-11T11:27:22Z</time>
      </trkpt>
      <trkpt lat="28.4409800" lon="-16.3894180">
        <ele>1114.9</ele>
        <time>2020-11-11T11:27:23Z</time>
      </trkpt>
      <trkpt lat="28.4409720" lon="-16.3894380">
        <ele>1114.9</ele>
        <time>2020-11-11T11:27:24Z</time>
      </trkpt>
      <trkpt lat="28.4409620" lon="-16.3894580">
        <ele>1114.9</ele>
        <time>2020-11-11T11:27:25Z</time>
      </trkpt>
      <trkpt lat="28.4409620" lon="-16.3894580">
        <ele>1114.9</ele>
        <time>2020-11-11T11:27:26Z</time>
      </trkpt>
      <trkpt lat="28.4409420" lon="-16.3895020">
        <ele>1114.9</ele>
        <time>2020-11-11T11:27:27Z</time>
      </trkpt>
      <trkpt lat="28.4409420" lon="-16.3895020">
        <ele>1114.9</ele>
        <time>2020-11-11T11:27:28Z</time>
      </trkpt>
      <trkpt lat="28.4409130" lon="-16.3895450">
        <ele>1114.9</ele>
        <time>2020-11-11T11:27:29Z</time>
      </trkpt>
      <trkpt lat="28.4409130" lon="-16.3895450">
        <ele>1114.9</ele>
        <time>2020-11-11T11:27:30Z</time>
      </trkpt>
      <trkpt lat="28.4408820" lon="-16.3895870">
        <ele>1114.9</ele>
        <time>2020-11-11T11:27:31Z</time>
      </trkpt>
      <trkpt lat="28.4408820" lon="-16.3895870">
        <ele>1114.9</ele>
        <time>2020-11-11T11:27:32Z</time>
      </trkpt>
      <trkpt lat="28.4408520" lon="-16.3896330">
        <ele>1114.9</ele>
        <time>2020-11-11T11:27:33Z</time>
      </trkpt>
      <trkpt lat="28.4408520" lon="-16.3896330">
        <ele>1114.9</ele>
        <time>2020-11-11T11:27:34Z</time>
      </trkpt>
      <trkpt lat="28.4408300" lon="-16.3897020">
        <ele>1114.9</ele>
        <time>2020-11-11T11:27:35Z</time>
      </trkpt>
      <trkpt lat="28.4408300" lon="-16.3897020">
        <ele>1114.9</ele>
        <time>2020-11-11T11:27:36Z</time>
      </trkpt>
      <trkpt lat="28.4408150" lon="-16.3897720">
        <ele>1114.9</ele>
        <time>2020-11-11T11:27:37Z</time>
      </trkpt>
      <trkpt lat="28.4408150" lon="-16.3897720">
        <ele>1114.9</ele>
        <time>2020-11-11T11:27:38Z</time>
      </trkpt>
      <trkpt lat="28.4407920" lon="-16.3898420">
        <ele>1114.9</ele>
        <time>2020-11-11T11:27:39Z</time>
      </trkpt>
      <trkpt lat="28.4407920" lon="-16.3898420">
        <ele>1114.9</ele>
        <time>2020-11-11T11:27:40Z</time>
      </trkpt>
      <trkpt lat="28.4407720" lon="-16.3899130">
        <ele>1114.9</ele>
        <time>2020-11-11T11:27:41Z</time>
      </trkpt>
      <trkpt lat="28.4407630" lon="-16.3899450">
        <ele>1114.9</ele>
        <time>2020-11-11T11:27:42Z</time>
      </trkpt>
      <trkpt lat="28.4407630" lon="-16.3899450">
        <ele>1114.9</ele>
        <time>2020-11-11T11:27:43Z</time>
      </trkpt>
      <trkpt lat="28.4407430" lon="-16.3900100">
        <ele>1114.9</ele>
        <time>2020-11-11T11:27:44Z</time>
      </trkpt>
      <trkpt lat="28.4407280" lon="-16.3900470">
        <ele>1114.9</ele>
        <time>2020-11-11T11:27:45Z</time>
      </trkpt>
      <trkpt lat="28.4407280" lon="-16.3900470">
        <ele>1114.9</ele>
        <time>2020-11-11T11:27:46Z</time>
      </trkpt>
      <trkpt lat="28.4407130" lon="-16.3901200">
        <ele>1114.9</ele>
        <time>2020-11-11T11:27:47Z</time>
      </trkpt>
      <trkpt lat="28.4407130" lon="-16.3901200">
        <ele>1114.9</ele>
        <time>2020-11-11T11:27:48Z</time>
      </trkpt>
      <trkpt lat="28.4406970" lon="-16.3901900">
        <ele>1114.9</ele>
        <time>2020-11-11T11:27:49Z</time>
      </trkpt>
      <trkpt lat="28.4406970" lon="-16.3901900">
        <ele>1114.9</ele>
        <time>2020-11-11T11:27:50Z</time>
      </trkpt>
      <trkpt lat="28.4406770" lon="-16.3902620">
        <ele>1114.9</ele>
        <time>2020-11-11T11:27:51Z</time>
      </trkpt>
      <trkpt lat="28.4406770" lon="-16.3902620">
        <ele>1114.9</ele>
        <time>2020-11-11T11:27:52Z</time>
      </trkpt>
      <trkpt lat="28.4406470" lon="-16.3903270">
        <ele>1114.9</ele>
        <time>2020-11-11T11:27:53Z</time>
      </trkpt>
      <trkpt lat="28.4406300" lon="-16.3903600">
        <ele>1114.9</ele>
        <time>2020-11-11T11:27:54Z</time>
      </trkpt>
      <trkpt lat="28.4406300" lon="-16.3903600">
        <ele>1114.9</ele>
        <time>2020-11-11T11:27:55Z</time>
      </trkpt>
      <trkpt lat="28.4406000" lon="-16.3904270">
        <ele>1114.9</ele>
        <time>2020-11-11T11:27:56Z</time>
      </trkpt>
      <trkpt lat="28.4406000" lon="-16.3904270">
        <ele>1114.9</ele>
        <time>2020-11-11T11:27:57Z</time>
      </trkpt>
      <trkpt lat="28.4406000" lon="-16.3904270">
        <ele>1114.9</ele>
        <time>2020-11-11T11:27:58Z</time>
      </trkpt>
      <trkpt lat="28.4405650" lon="-16.3904850">
        <ele>1114.9</ele>
        <time>2020-11-11T11:27:59Z</time>
      </trkpt>
      <trkpt lat="28.4405280" lon="-16.3905330">
        <ele>1114.9</ele>
        <time>2020-11-11T11:28:00Z</time>
      </trkpt>
      <trkpt lat="28.4405120" lon="-16.3905550">
        <ele>1114.9</ele>
        <time>2020-11-11T11:28:01Z</time>
      </trkpt>
      <trkpt lat="28.4405120" lon="-16.3905550">
        <ele>1114.9</ele>
        <time>2020-11-11T11:28:02Z</time>
      </trkpt>
      <trkpt lat="28.4404800" lon="-16.3906120">
        <ele>1114.9</ele>
        <time>2020-11-11T11:28:03Z</time>
      </trkpt>
      <trkpt lat="28.4404800" lon="-16.3906120">
        <ele>1114.9</ele>
        <time>2020-11-11T11:28:04Z</time>
      </trkpt>
      <trkpt lat="28.4404550" lon="-16.3906730">
        <ele>1114.9</ele>
        <time>2020-11-11T11:28:05Z</time>
      </trkpt>
      <trkpt lat="28.4404550" lon="-16.3906730">
        <ele>1114.9</ele>
        <time>2020-11-11T11:28:06Z</time>
      </trkpt>
      <trkpt lat="28.4404500" lon="-16.3907450">
        <ele>1114.9</ele>
        <time>2020-11-11T11:28:07Z</time>
      </trkpt>
      <trkpt lat="28.4404500" lon="-16.3907450">
        <ele>1114.9</ele>
        <time>2020-11-11T11:28:08Z</time>
      </trkpt>
      <trkpt lat="28.4404430" lon="-16.3908270">
        <ele>1114.9</ele>
        <time>2020-11-11T11:28:09Z</time>
      </trkpt>
      <trkpt lat="28.4404380" lon="-16.3908700">
        <ele>1114.9</ele>
        <time>2020-11-11T11:28:10Z</time>
      </trkpt>
      <trkpt lat="28.4404380" lon="-16.3908700">
        <ele>1114.9</ele>
        <time>2020-11-11T11:28:11Z</time>
      </trkpt>
      <trkpt lat="28.4404320" lon="-16.3909580">
        <ele>1114.9</ele>
        <time>2020-11-11T11:28:12Z</time>
      </trkpt>
      <trkpt lat="28.4404280" lon="-16.3910030">
        <ele>1114.9</ele>
        <time>2020-11-11T11:28:13Z</time>
      </trkpt>
      <trkpt lat="28.4404280" lon="-16.3910030">
        <ele>1114.9</ele>
        <time>2020-11-11T11:28:14Z</time>
      </trkpt>
      <trkpt lat="28.4404230" lon="-16.3910970">
        <ele>1114.9</ele>
        <time>2020-11-11T11:28:15Z</time>
      </trkpt>
      <trkpt lat="28.4404230" lon="-16.3911430">
        <ele>1114.9</ele>
        <time>2020-11-11T11:28:16Z</time>
      </trkpt>
      <trkpt lat="28.4404230" lon="-16.3911430">
        <ele>1114.9</ele>
        <time>2020-11-11T11:28:17Z</time>
      </trkpt>
      <trkpt lat="28.4404220" lon="-16.3912380">
        <ele>1114.9</ele>
        <time>2020-11-11T11:28:18Z</time>
      </trkpt>
      <trkpt lat="28.4404170" lon="-16.3912850">
        <ele>1113.9</ele>
        <time>2020-11-11T11:28:19Z</time>
      </trkpt>
      <trkpt lat="28.4404170" lon="-16.3912850">
        <ele>1113.9</ele>
        <time>2020-11-11T11:28:20Z</time>
      </trkpt>
      <trkpt lat="28.4404080" lon="-16.3913730">
        <ele>1113.9</ele>
        <time>2020-11-11T11:28:21Z</time>
      </trkpt>
      <trkpt lat="28.4404050" lon="-16.3914180">
        <ele>1113.9</ele>
        <time>2020-11-11T11:28:22Z</time>
      </trkpt>
      <trkpt lat="28.4404050" lon="-16.3914180">
        <ele>1113.9</ele>
        <time>2020-11-11T11:28:23Z</time>
      </trkpt>
      <trkpt lat="28.4404050" lon="-16.3915120">
        <ele>1113.9</ele>
        <time>2020-11-11T11:28:24Z</time>
      </trkpt>
      <trkpt lat="28.4404030" lon="-16.3915580">
        <ele>1111.9</ele>
        <time>2020-11-11T11:28:25Z</time>
      </trkpt>
      <trkpt lat="28.4404030" lon="-16.3915580">
        <ele>1111.9</ele>
        <time>2020-11-11T11:28:26Z</time>
      </trkpt>
      <trkpt lat="28.4404070" lon="-16.3916480">
        <ele>1112.9</ele>
        <time>2020-11-11T11:28:27Z</time>
      </trkpt>
      <trkpt lat="28.4404070" lon="-16.3916480">
        <ele>1112.9</ele>
        <time>2020-11-11T11:28:28Z</time>
      </trkpt>
      <trkpt lat="28.4404150" lon="-16.3917370">
        <ele>1112.9</ele>
        <time>2020-11-11T11:28:29Z</time>
      </trkpt>
      <trkpt lat="28.4404200" lon="-16.3917800">
        <ele>1112.9</ele>
        <time>2020-11-11T11:28:30Z</time>
      </trkpt>
      <trkpt lat="28.4404200" lon="-16.3917800">
        <ele>1112.9</ele>
        <time>2020-11-11T11:28:31Z</time>
      </trkpt>
      <trkpt lat="28.4404300" lon="-16.3918630">
        <ele>1112.9</ele>
        <time>2020-11-11T11:28:32Z</time>
      </trkpt>
      <trkpt lat="28.4404350" lon="-16.3919030">
        <ele>1112.9</ele>
        <time>2020-11-11T11:28:33Z</time>
      </trkpt>
      <trkpt lat="28.4404350" lon="-16.3919030">
        <ele>1112.9</ele>
        <time>2020-11-11T11:28:34Z</time>
      </trkpt>
      <trkpt lat="28.4404470" lon="-16.3919870">
        <ele>1112.9</ele>
        <time>2020-11-11T11:28:35Z</time>
      </trkpt>
      <trkpt lat="28.4404470" lon="-16.3919870">
        <ele>1112.9</ele>
        <time>2020-11-11T11:28:36Z</time>
      </trkpt>
      <trkpt lat="28.4404600" lon="-16.3920700">
        <ele>1112.9</ele>
        <time>2020-11-11T11:28:37Z</time>
      </trkpt>
      <trkpt lat="28.4404600" lon="-16.3920700">
        <ele>1112.9</ele>
        <time>2020-11-11T11:28:38Z</time>
      </trkpt>
      <trkpt lat="28.4404780" lon="-16.3921520">
        <ele>1112.9</ele>
        <time>2020-11-11T11:28:39Z</time>
      </trkpt>
      <trkpt lat="28.4404780" lon="-16.3921520">
        <ele>1112.9</ele>
        <time>2020-11-11T11:28:40Z</time>
      </trkpt>
      <trkpt lat="28.4404950" lon="-16.3922300">
        <ele>1112.9</ele>
        <time>2020-11-11T11:28:41Z</time>
      </trkpt>
      <trkpt lat="28.4404950" lon="-16.3922300">
        <ele>1112.9</ele>
        <time>2020-11-11T11:28:42Z</time>
      </trkpt>
      <trkpt lat="28.4404980" lon="-16.3922820">
        <ele>1112.9</ele>
        <time>2020-11-11T11:28:43Z</time>
      </trkpt>
      <trkpt lat="28.4404980" lon="-16.3922820">
        <ele>1112.9</ele>
        <time>2020-11-11T11:28:44Z</time>
      </trkpt>
      <trkpt lat="28.4405000" lon="-16.3922950">
        <ele>1112.9</ele>
        <time>2020-11-11T11:28:45Z</time>
      </trkpt>
      <trkpt lat="28.4404980" lon="-16.3923000">
        <ele>1112.9</ele>
        <time>2020-11-11T11:28:46Z</time>
      </trkpt>
      <trkpt lat="28.4404980" lon="-16.3923000">
        <ele>1112.9</ele>
        <time>2020-11-11T11:28:47Z</time>
      </trkpt>
      <trkpt lat="28.4404970" lon="-16.3923770">
        <ele>1112.9</ele>
        <time>2020-11-11T11:28:55Z</time>
      </trkpt>
      <trkpt lat="28.4404970" lon="-16.3923770">
        <ele>1112.9</ele>
        <time>2020-11-11T11:28:56Z</time>
      </trkpt>
      <trkpt lat="28.4405050" lon="-16.3924300">
        <ele>1112.9</ele>
        <time>2020-11-11T11:28:57Z</time>
      </trkpt>
      <trkpt lat="28.4405050" lon="-16.3924300">
        <ele>1112.9</ele>
        <time>2020-11-11T11:28:58Z</time>
      </trkpt>
      <trkpt lat="28.4405120" lon="-16.3924970">
        <ele>1111.9</ele>
        <time>2020-11-11T11:28:59Z</time>
      </trkpt>
      <trkpt lat="28.4405120" lon="-16.3925320">
        <ele>1111.9</ele>
        <time>2020-11-11T11:29:00Z</time>
      </trkpt>
      <trkpt lat="28.4405120" lon="-16.3925320">
        <ele>1111.9</ele>
        <time>2020-11-11T11:29:01Z</time>
      </trkpt>
      <trkpt lat="28.4405200" lon="-16.3926100">
        <ele>1111.9</ele>
        <time>2020-11-11T11:29:02Z</time>
      </trkpt>
      <trkpt lat="28.4405200" lon="-16.3926100">
        <ele>1111.9</ele>
        <time>2020-11-11T11:29:03Z</time>
      </trkpt>
      <trkpt lat="28.4405330" lon="-16.3926770">
        <ele>1111.9</ele>
        <time>2020-11-11T11:29:04Z</time>
      </trkpt>
      <trkpt lat="28.4405330" lon="-16.3926770">
        <ele>1111.9</ele>
        <time>2020-11-11T11:29:05Z</time>
      </trkpt>
      <trkpt lat="28.4405470" lon="-16.3927520">
        <ele>1111.9</ele>
        <time>2020-11-11T11:29:06Z</time>
      </trkpt>
      <trkpt lat="28.4405580" lon="-16.3927900">
        <ele>1110.9</ele>
        <time>2020-11-11T11:29:07Z</time>
      </trkpt>
      <trkpt lat="28.4405580" lon="-16.3927900">
        <ele>1110.9</ele>
        <time>2020-11-11T11:29:08Z</time>
      </trkpt>
      <trkpt lat="28.4405730" lon="-16.3928620">
        <ele>1110.9</ele>
        <time>2020-11-11T11:29:09Z</time>
      </trkpt>
      <trkpt lat="28.4405880" lon="-16.3929020">
        <ele>1110.9</ele>
        <time>2020-11-11T11:29:10Z</time>
      </trkpt>
      <trkpt lat="28.4405970" lon="-16.3929400">
        <ele>1110.9</ele>
        <time>2020-11-11T11:29:11Z</time>
      </trkpt>
      <trkpt lat="28.4405970" lon="-16.3929400">
        <ele>1110.9</ele>
        <time>2020-11-11T11:29:12Z</time>
      </trkpt>
      <trkpt lat="28.4406130" lon="-16.3930100">
        <ele>1110.9</ele>
        <time>2020-11-11T11:29:13Z</time>
      </trkpt>
      <trkpt lat="28.4406180" lon="-16.3930430">
        <ele>1110.9</ele>
        <time>2020-11-11T11:29:14Z</time>
      </trkpt>
      <trkpt lat="28.4406180" lon="-16.3930430">
        <ele>1110.9</ele>
        <time>2020-11-11T11:29:15Z</time>
      </trkpt>
      <trkpt lat="28.4406370" lon="-16.3931080">
        <ele>1110.9</ele>
        <time>2020-11-11T11:29:16Z</time>
      </trkpt>
      <trkpt lat="28.4406370" lon="-16.3931080">
        <ele>1110.9</ele>
        <time>2020-11-11T11:29:17Z</time>
      </trkpt>
      <trkpt lat="28.4406570" lon="-16.3931920">
        <ele>1110.9</ele>
        <time>2020-11-11T11:29:18Z</time>
      </trkpt>
      <trkpt lat="28.4406570" lon="-16.3931920">
        <ele>1110.9</ele>
        <time>2020-11-11T11:29:19Z</time>
      </trkpt>
      <trkpt lat="28.4406750" lon="-16.3932780">
        <ele>1110.9</ele>
        <time>2020-11-11T11:29:20Z</time>
      </trkpt>
      <trkpt lat="28.4406800" lon="-16.3933150">
        <ele>1110.9</ele>
        <time>2020-11-11T11:29:21Z</time>
      </trkpt>
      <trkpt lat="28.4406800" lon="-16.3933150">
        <ele>1110.9</ele>
        <time>2020-11-11T11:29:22Z</time>
      </trkpt>
      <trkpt lat="28.4406920" lon="-16.3933700">
        <ele>1110.9</ele>
        <time>2020-11-11T11:29:23Z</time>
      </trkpt>
      <trkpt lat="28.4406920" lon="-16.3933700">
        <ele>1110.9</ele>
        <time>2020-11-11T11:29:24Z</time>
      </trkpt>
      <trkpt lat="28.4407200" lon="-16.3934300">
        <ele>1110.9</ele>
        <time>2020-11-11T11:29:25Z</time>
      </trkpt>
      <trkpt lat="28.4407200" lon="-16.3934300">
        <ele>1110.9</ele>
        <time>2020-11-11T11:29:26Z</time>
      </trkpt>
      <trkpt lat="28.4407370" lon="-16.3935300">
        <ele>1110.9</ele>
        <time>2020-11-11T11:29:27Z</time>
      </trkpt>
      <trkpt lat="28.4407370" lon="-16.3935300">
        <ele>1110.9</ele>
        <time>2020-11-11T11:29:28Z</time>
      </trkpt>
      <trkpt lat="28.4407720" lon="-16.3936030">
        <ele>1110.9</ele>
        <time>2020-11-11T11:29:29Z</time>
      </trkpt>
      <trkpt lat="28.4407720" lon="-16.3936030">
        <ele>1109.9</ele>
        <time>2020-11-11T11:29:30Z</time>
      </trkpt>
      <trkpt lat="28.4408180" lon="-16.3936680">
        <ele>1109.9</ele>
        <time>2020-11-11T11:29:31Z</time>
      </trkpt>
      <trkpt lat="28.4408520" lon="-16.3936970">
        <ele>1109.9</ele>
        <time>2020-11-11T11:29:32Z</time>
      </trkpt>
      <trkpt lat="28.4408850" lon="-16.3937130">
        <ele>1108.9</ele>
        <time>2020-11-11T11:29:33Z</time>
      </trkpt>
      <trkpt lat="28.4408850" lon="-16.3937130">
        <ele>1108.9</ele>
        <time>2020-11-11T11:29:34Z</time>
      </trkpt>
      <trkpt lat="28.4409430" lon="-16.3937330">
        <ele>1108.9</ele>
        <time>2020-11-11T11:29:35Z</time>
      </trkpt>
      <trkpt lat="28.4409430" lon="-16.3937330">
        <ele>1108.9</ele>
        <time>2020-11-11T11:29:36Z</time>
      </trkpt>
      <trkpt lat="28.4409930" lon="-16.3937450">
        <ele>1108.9</ele>
        <time>2020-11-11T11:29:37Z</time>
      </trkpt>
      <trkpt lat="28.4409930" lon="-16.3937450">
        <ele>1108.9</ele>
        <time>2020-11-11T11:29:38Z</time>
      </trkpt>
      <trkpt lat="28.4410370" lon="-16.3937480">
        <ele>1108.9</ele>
        <time>2020-11-11T11:29:39Z</time>
      </trkpt>
      <trkpt lat="28.4410370" lon="-16.3937480">
        <ele>1108.9</ele>
        <time>2020-11-11T11:29:40Z</time>
      </trkpt>
      <trkpt lat="28.4410880" lon="-16.3937670">
        <ele>1107.9</ele>
        <time>2020-11-11T11:29:41Z</time>
      </trkpt>
      <trkpt lat="28.4410880" lon="-16.3937670">
        <ele>1107.9</ele>
        <time>2020-11-11T11:29:42Z</time>
      </trkpt>
      <trkpt lat="28.4411570" lon="-16.3937520">
        <ele>1107.9</ele>
        <time>2020-11-11T11:29:43Z</time>
      </trkpt>
      <trkpt lat="28.4411570" lon="-16.3937520">
        <ele>1107.9</ele>
        <time>2020-11-11T11:29:44Z</time>
      </trkpt>
      <trkpt lat="28.4412370" lon="-16.3937220">
        <ele>1107.9</ele>
        <time>2020-11-11T11:29:45Z</time>
      </trkpt>
      <trkpt lat="28.4412370" lon="-16.3937220">
        <ele>1107.9</ele>
        <time>2020-11-11T11:29:46Z</time>
      </trkpt>
      <trkpt lat="28.4413120" lon="-16.3936820">
        <ele>1107.9</ele>
        <time>2020-11-11T11:29:47Z</time>
      </trkpt>
      <trkpt lat="28.4413520" lon="-16.3936550">
        <ele>1107.9</ele>
        <time>2020-11-11T11:29:48Z</time>
      </trkpt>
      <trkpt lat="28.4413520" lon="-16.3936550">
        <ele>1107.9</ele>
        <time>2020-11-11T11:29:49Z</time>
      </trkpt>
      <trkpt lat="28.4414170" lon="-16.3936180">
        <ele>1107.9</ele>
        <time>2020-11-11T11:29:50Z</time>
      </trkpt>
      <trkpt lat="28.4414170" lon="-16.3936180">
        <ele>1107.9</ele>
        <time>2020-11-11T11:29:51Z</time>
      </trkpt>
      <trkpt lat="28.4414850" lon="-16.3935780">
        <ele>1107.9</ele>
        <time>2020-11-11T11:29:52Z</time>
      </trkpt>
      <trkpt lat="28.4415130" lon="-16.3935670">
        <ele>1107.9</ele>
        <time>2020-11-11T11:29:53Z</time>
      </trkpt>
      <trkpt lat="28.4415130" lon="-16.3935670">
        <ele>1107.9</ele>
        <time>2020-11-11T11:29:54Z</time>
      </trkpt>
      <trkpt lat="28.4415700" lon="-16.3935680">
        <ele>1107.9</ele>
        <time>2020-11-11T11:29:55Z</time>
      </trkpt>
      <trkpt lat="28.4415700" lon="-16.3935680">
        <ele>1107.9</ele>
        <time>2020-11-11T11:29:56Z</time>
      </trkpt>
      <trkpt lat="28.4416370" lon="-16.3935630">
        <ele>1107.9</ele>
        <time>2020-11-11T11:29:57Z</time>
      </trkpt>
      <trkpt lat="28.4416370" lon="-16.3935630">
        <ele>1107.9</ele>
        <time>2020-11-11T11:29:58Z</time>
      </trkpt>
      <trkpt lat="28.4417130" lon="-16.3935700">
        <ele>1107.9</ele>
        <time>2020-11-11T11:29:59Z</time>
      </trkpt>
      <trkpt lat="28.4417130" lon="-16.3935700">
        <ele>1107.9</ele>
        <time>2020-11-11T11:30:00Z</time>
      </trkpt>
      <trkpt lat="28.4418050" lon="-16.3936070">
        <ele>1107.9</ele>
        <time>2020-11-11T11:30:01Z</time>
      </trkpt>
      <trkpt lat="28.4418050" lon="-16.3936070">
        <ele>1107.9</ele>
        <time>2020-11-11T11:30:02Z</time>
      </trkpt>
      <trkpt lat="28.4418900" lon="-16.3936450">
        <ele>1107.9</ele>
        <time>2020-11-11T11:30:03Z</time>
      </trkpt>
      <trkpt lat="28.4419370" lon="-16.3936630">
        <ele>1107.9</ele>
        <time>2020-11-11T11:30:04Z</time>
      </trkpt>
      <trkpt lat="28.4419370" lon="-16.3936630">
        <ele>1107.9</ele>
        <time>2020-11-11T11:30:05Z</time>
      </trkpt>
      <trkpt lat="28.4420130" lon="-16.3936980">
        <ele>1107.9</ele>
        <time>2020-11-11T11:30:06Z</time>
      </trkpt>
      <trkpt lat="28.4420130" lon="-16.3936980">
        <ele>1107.9</ele>
        <time>2020-11-11T11:30:07Z</time>
      </trkpt>
      <trkpt lat="28.4420730" lon="-16.3937450">
        <ele>1107.9</ele>
        <time>2020-11-11T11:30:08Z</time>
      </trkpt>
      <trkpt lat="28.4420730" lon="-16.3937450">
        <ele>1107.9</ele>
        <time>2020-11-11T11:30:09Z</time>
      </trkpt>
      <trkpt lat="28.4421400" lon="-16.3937400">
        <ele>1107.9</ele>
        <time>2020-11-11T11:30:10Z</time>
      </trkpt>
      <trkpt lat="28.4421400" lon="-16.3937400">
        <ele>1107.9</ele>
        <time>2020-11-11T11:30:11Z</time>
      </trkpt>
      <trkpt lat="28.4421920" lon="-16.3937350">
        <ele>1107.9</ele>
        <time>2020-11-11T11:30:12Z</time>
      </trkpt>
      <trkpt lat="28.4421920" lon="-16.3937350">
        <ele>1107.9</ele>
        <time>2020-11-11T11:30:13Z</time>
      </trkpt>
      <trkpt lat="28.4422550" lon="-16.3937850">
        <ele>1107.9</ele>
        <time>2020-11-11T11:30:14Z</time>
      </trkpt>
      <trkpt lat="28.4422800" lon="-16.3938030">
        <ele>1107.9</ele>
        <time>2020-11-11T11:30:15Z</time>
      </trkpt>
      <trkpt lat="28.4422800" lon="-16.3938030">
        <ele>1107.9</ele>
        <time>2020-11-11T11:30:16Z</time>
      </trkpt>
      <trkpt lat="28.4423050" lon="-16.3938300">
        <ele>1107.9</ele>
        <time>2020-11-11T11:30:17Z</time>
      </trkpt>
      <trkpt lat="28.4423050" lon="-16.3938450">
        <ele>1107.9</ele>
        <time>2020-11-11T11:30:18Z</time>
      </trkpt>
      <trkpt lat="28.4423050" lon="-16.3938450">
        <ele>1107.9</ele>
        <time>2020-11-11T11:30:19Z</time>
      </trkpt>
      <trkpt lat="28.4422870" lon="-16.3938550">
        <ele>1107.9</ele>
        <time>2020-11-11T11:30:20Z</time>
      </trkpt>
      <trkpt lat="28.4422870" lon="-16.3938550">
        <ele>1107.9</ele>
        <time>2020-11-11T11:30:21Z</time>
      </trkpt>
      <trkpt lat="28.4422600" lon="-16.3938530">
        <ele>1106.9</ele>
        <time>2020-11-11T11:30:22Z</time>
      </trkpt>
      <trkpt lat="28.4422600" lon="-16.3938530">
        <ele>1106.9</ele>
        <time>2020-11-11T11:30:23Z</time>
      </trkpt>
      <trkpt lat="28.4422300" lon="-16.3938350">
        <ele>1106.9</ele>
        <time>2020-11-11T11:30:24Z</time>
      </trkpt>
      <trkpt lat="28.4422070" lon="-16.3938330">
        <ele>1106.9</ele>
        <time>2020-11-11T11:30:25Z</time>
      </trkpt>
      <trkpt lat="28.4422070" lon="-16.3938330">
        <ele>1105.9</ele>
        <time>2020-11-11T11:30:26Z</time>
      </trkpt>
      <trkpt lat="28.4421530" lon="-16.3938300">
        <ele>1105.9</ele>
        <time>2020-11-11T11:30:27Z</time>
      </trkpt>
      <trkpt lat="28.4421530" lon="-16.3938300">
        <ele>1105.9</ele>
        <time>2020-11-11T11:30:28Z</time>
      </trkpt>
      <trkpt lat="28.4420870" lon="-16.3938370">
        <ele>1105.9</ele>
        <time>2020-11-11T11:30:29Z</time>
      </trkpt>
      <trkpt lat="28.4420870" lon="-16.3938370">
        <ele>1104.9</ele>
        <time>2020-11-11T11:30:30Z</time>
      </trkpt>
      <trkpt lat="28.4420180" lon="-16.3938170">
        <ele>1104.9</ele>
        <time>2020-11-11T11:30:31Z</time>
      </trkpt>
      <trkpt lat="28.4420180" lon="-16.3938170">
        <ele>1104.9</ele>
        <time>2020-11-11T11:30:32Z</time>
      </trkpt>
      <trkpt lat="28.4419330" lon="-16.3938150">
        <ele>1104.9</ele>
        <time>2020-11-11T11:30:33Z</time>
      </trkpt>
      <trkpt lat="28.4419330" lon="-16.3938150">
        <ele>1102.9</ele>
        <time>2020-11-11T11:30:34Z</time>
      </trkpt>
      <trkpt lat="28.4418620" lon="-16.3938050">
        <ele>1102.9</ele>
        <time>2020-11-11T11:30:35Z</time>
      </trkpt>
      <trkpt lat="28.4418270" lon="-16.3937970">
        <ele>1102.9</ele>
        <time>2020-11-11T11:30:36Z</time>
      </trkpt>
      <trkpt lat="28.4418270" lon="-16.3937970">
        <ele>1102.9</ele>
        <time>2020-11-11T11:30:37Z</time>
      </trkpt>
      <trkpt lat="28.4417480" lon="-16.3938270">
        <ele>1101.9</ele>
        <time>2020-11-11T11:30:38Z</time>
      </trkpt>
      <trkpt lat="28.4417480" lon="-16.3938270">
        <ele>1101.9</ele>
        <time>2020-11-11T11:30:39Z</time>
      </trkpt>
      <trkpt lat="28.4416550" lon="-16.3938980">
        <ele>1100.9</ele>
        <time>2020-11-11T11:30:40Z</time>
      </trkpt>
      <trkpt lat="28.4415970" lon="-16.3939500">
        <ele>1100.9</ele>
        <time>2020-11-11T11:30:41Z</time>
      </trkpt>
      <trkpt lat="28.4415970" lon="-16.3939500">
        <ele>1100.9</ele>
        <time>2020-11-11T11:30:42Z</time>
      </trkpt>
      <trkpt lat="28.4414820" lon="-16.3940370">
        <ele>1100.9</ele>
        <time>2020-11-11T11:30:43Z</time>
      </trkpt>
      <trkpt lat="28.4414820" lon="-16.3940370">
        <ele>1099.9</ele>
        <time>2020-11-11T11:30:44Z</time>
      </trkpt>
      <trkpt lat="28.4413750" lon="-16.3941080">
        <ele>1098.9</ele>
        <time>2020-11-11T11:30:45Z</time>
      </trkpt>
      <trkpt lat="28.4413750" lon="-16.3941080">
        <ele>1098.9</ele>
        <time>2020-11-11T11:30:46Z</time>
      </trkpt>
      <trkpt lat="28.4412880" lon="-16.3941680">
        <ele>1097.9</ele>
        <time>2020-11-11T11:30:47Z</time>
      </trkpt>
      <trkpt lat="28.4412880" lon="-16.3941680">
        <ele>1097.9</ele>
        <time>2020-11-11T11:30:48Z</time>
      </trkpt>
      <trkpt lat="28.4412080" lon="-16.3942250">
        <ele>1097.9</ele>
        <time>2020-11-11T11:30:49Z</time>
      </trkpt>
      <trkpt lat="28.4412080" lon="-16.3942250">
        <ele>1097.9</ele>
        <time>2020-11-11T11:30:50Z</time>
      </trkpt>
      <trkpt lat="28.4411350" lon="-16.3942770">
        <ele>1096.9</ele>
        <time>2020-11-11T11:30:51Z</time>
      </trkpt>
      <trkpt lat="28.4410980" lon="-16.3942980">
        <ele>1096.9</ele>
        <time>2020-11-11T11:30:52Z</time>
      </trkpt>
      <trkpt lat="28.4410980" lon="-16.3942980">
        <ele>1095.9</ele>
        <time>2020-11-11T11:30:53Z</time>
      </trkpt>
      <trkpt lat="28.4410130" lon="-16.3943850">
        <ele>1095.9</ele>
        <time>2020-11-11T11:30:54Z</time>
      </trkpt>
      <trkpt lat="28.4410130" lon="-16.3943850">
        <ele>1095.9</ele>
        <time>2020-11-11T11:30:55Z</time>
      </trkpt>
      <trkpt lat="28.4409350" lon="-16.3944550">
        <ele>1095.9</ele>
        <time>2020-11-11T11:30:56Z</time>
      </trkpt>
      <trkpt lat="28.4409350" lon="-16.3944550">
        <ele>1094.9</ele>
        <time>2020-11-11T11:30:57Z</time>
      </trkpt>
      <trkpt lat="28.4408450" lon="-16.3945070">
        <ele>1094.9</ele>
        <time>2020-11-11T11:30:58Z</time>
      </trkpt>
      <trkpt lat="28.4407950" lon="-16.3945450">
        <ele>1094.9</ele>
        <time>2020-11-11T11:30:59Z</time>
      </trkpt>
      <trkpt lat="28.4407950" lon="-16.3945450">
        <ele>1094.9</ele>
        <time>2020-11-11T11:31:00Z</time>
      </trkpt>
      <trkpt lat="28.4407420" lon="-16.3945930">
        <ele>1093.9</ele>
        <time>2020-11-11T11:31:01Z</time>
      </trkpt>
      <trkpt lat="28.4407420" lon="-16.3945930">
        <ele>1093.9</ele>
        <time>2020-11-11T11:31:02Z</time>
      </trkpt>
      <trkpt lat="28.4407180" lon="-16.3946570">
        <ele>1092.9</ele>
        <time>2020-11-11T11:31:03Z</time>
      </trkpt>
      <trkpt lat="28.4407180" lon="-16.3946570">
        <ele>1092.9</ele>
        <time>2020-11-11T11:31:04Z</time>
      </trkpt>
      <trkpt lat="28.4407250" lon="-16.3947100">
        <ele>1092.9</ele>
        <time>2020-11-11T11:31:05Z</time>
      </trkpt>
      <trkpt lat="28.4407250" lon="-16.3947100">
        <ele>1092.9</ele>
        <time>2020-11-11T11:31:06Z</time>
      </trkpt>
      <trkpt lat="28.4407580" lon="-16.3947730">
        <ele>1091.9</ele>
        <time>2020-11-11T11:31:07Z</time>
      </trkpt>
      <trkpt lat="28.4407580" lon="-16.3947730">
        <ele>1091.9</ele>
        <time>2020-11-11T11:31:08Z</time>
      </trkpt>
      <trkpt lat="28.4408070" lon="-16.3948320">
        <ele>1091.9</ele>
        <time>2020-11-11T11:31:09Z</time>
      </trkpt>
      <trkpt lat="28.4408330" lon="-16.3948530">
        <ele>1091.9</ele>
        <time>2020-11-11T11:31:10Z</time>
      </trkpt>
      <trkpt lat="28.4408330" lon="-16.3948530">
        <ele>1089.9</ele>
        <time>2020-11-11T11:31:11Z</time>
      </trkpt>
      <trkpt lat="28.4408780" lon="-16.3948820">
        <ele>1089.9</ele>
        <time>2020-11-11T11:31:12Z</time>
      </trkpt>
      <trkpt lat="28.4409030" lon="-16.3948970">
        <ele>1088.9</ele>
        <time>2020-11-11T11:31:13Z</time>
      </trkpt>
      <trkpt lat="28.4409030" lon="-16.3948970">
        <ele>1088.9</ele>
        <time>2020-11-11T11:31:14Z</time>
      </trkpt>
      <trkpt lat="28.4409480" lon="-16.3949300">
        <ele>1087.9</ele>
        <time>2020-11-11T11:31:15Z</time>
      </trkpt>
      <trkpt lat="28.4409480" lon="-16.3949300">
        <ele>1087.9</ele>
        <time>2020-11-11T11:31:16Z</time>
      </trkpt>
      <trkpt lat="28.4410100" lon="-16.3949750">
        <ele>1087.9</ele>
        <time>2020-11-11T11:31:17Z</time>
      </trkpt>
      <trkpt lat="28.4410100" lon="-16.3949750">
        <ele>1087.9</ele>
        <time>2020-11-11T11:31:18Z</time>
      </trkpt>
      <trkpt lat="28.4410550" lon="-16.3950150">
        <ele>1087.9</ele>
        <time>2020-11-11T11:31:19Z</time>
      </trkpt>
      <trkpt lat="28.4410550" lon="-16.3950150">
        <ele>1087.9</ele>
        <time>2020-11-11T11:31:20Z</time>
      </trkpt>
      <trkpt lat="28.4411020" lon="-16.3950570">
        <ele>1086.9</ele>
        <time>2020-11-11T11:31:21Z</time>
      </trkpt>
      <trkpt lat="28.4411020" lon="-16.3950570">
        <ele>1086.9</ele>
        <time>2020-11-11T11:31:22Z</time>
      </trkpt>
      <trkpt lat="28.4411470" lon="-16.3950970">
        <ele>1086.9</ele>
        <time>2020-11-11T11:31:23Z</time>
      </trkpt>
      <trkpt lat="28.4411700" lon="-16.3951200">
        <ele>1086.9</ele>
        <time>2020-11-11T11:31:24Z</time>
      </trkpt>
      <trkpt lat="28.4411700" lon="-16.3951200">
        <ele>1085.9</ele>
        <time>2020-11-11T11:31:25Z</time>
      </trkpt>
      <trkpt lat="28.4412150" lon="-16.3951770">
        <ele>1085.9</ele>
        <time>2020-11-11T11:31:26Z</time>
      </trkpt>
      <trkpt lat="28.4412150" lon="-16.3951770">
        <ele>1085.9</ele>
        <time>2020-11-11T11:31:27Z</time>
      </trkpt>
      <trkpt lat="28.4412750" lon="-16.3952480">
        <ele>1085.9</ele>
        <time>2020-11-11T11:31:28Z</time>
      </trkpt>
      <trkpt lat="28.4412750" lon="-16.3952480">
        <ele>1085.9</ele>
        <time>2020-11-11T11:31:29Z</time>
      </trkpt>
      <trkpt lat="28.4413400" lon="-16.3952680">
        <ele>1085.9</ele>
        <time>2020-11-11T11:31:30Z</time>
      </trkpt>
      <trkpt lat="28.4413780" lon="-16.3952650">
        <ele>1085.9</ele>
        <time>2020-11-11T11:31:31Z</time>
      </trkpt>
      <trkpt lat="28.4413780" lon="-16.3952650">
        <ele>1085.9</ele>
        <time>2020-11-11T11:31:32Z</time>
      </trkpt>
      <trkpt lat="28.4414480" lon="-16.3952680">
        <ele>1085.9</ele>
        <time>2020-11-11T11:31:33Z</time>
      </trkpt>
      <trkpt lat="28.4414480" lon="-16.3952680">
        <ele>1085.9</ele>
        <time>2020-11-11T11:31:34Z</time>
      </trkpt>
      <trkpt lat="28.4415080" lon="-16.3952630">
        <ele>1085.9</ele>
        <time>2020-11-11T11:31:35Z</time>
      </trkpt>
      <trkpt lat="28.4415080" lon="-16.3952630">
        <ele>1085.9</ele>
        <time>2020-11-11T11:31:36Z</time>
      </trkpt>
      <trkpt lat="28.4415670" lon="-16.3952670">
        <ele>1085.9</ele>
        <time>2020-11-11T11:31:37Z</time>
      </trkpt>
      <trkpt lat="28.4415670" lon="-16.3952670">
        <ele>1085.9</ele>
        <time>2020-11-11T11:31:38Z</time>
      </trkpt>
      <trkpt lat="28.4416270" lon="-16.3952670">
        <ele>1085.9</ele>
        <time>2020-11-11T11:31:39Z</time>
      </trkpt>
      <trkpt lat="28.4416270" lon="-16.3952670">
        <ele>1085.9</ele>
        <time>2020-11-11T11:31:40Z</time>
      </trkpt>
      <trkpt lat="28.4416950" lon="-16.3952270">
        <ele>1085.9</ele>
        <time>2020-11-11T11:31:41Z</time>
      </trkpt>
      <trkpt lat="28.4416950" lon="-16.3952270">
        <ele>1085.9</ele>
        <time>2020-11-11T11:31:42Z</time>
      </trkpt>
      <trkpt lat="28.4417800" lon="-16.3951520">
        <ele>1085.9</ele>
        <time>2020-11-11T11:31:43Z</time>
      </trkpt>
      <trkpt lat="28.4417800" lon="-16.3951520">
        <ele>1085.9</ele>
        <time>2020-11-11T11:31:44Z</time>
      </trkpt>
      <trkpt lat="28.4418530" lon="-16.3950750">
        <ele>1085.9</ele>
        <time>2020-11-11T11:31:45Z</time>
      </trkpt>
      <trkpt lat="28.4418530" lon="-16.3950750">
        <ele>1085.9</ele>
        <time>2020-11-11T11:31:46Z</time>
      </trkpt>
      <trkpt lat="28.4419230" lon="-16.3950500">
        <ele>1084.9</ele>
        <time>2020-11-11T11:31:47Z</time>
      </trkpt>
      <trkpt lat="28.4419230" lon="-16.3950500">
        <ele>1084.9</ele>
        <time>2020-11-11T11:31:48Z</time>
      </trkpt>
      <trkpt lat="28.4419980" lon="-16.3950630">
        <ele>1083.9</ele>
        <time>2020-11-11T11:31:49Z</time>
      </trkpt>
      <trkpt lat="28.4419980" lon="-16.3950630">
        <ele>1083.9</ele>
        <time>2020-11-11T11:31:50Z</time>
      </trkpt>
      <trkpt lat="28.4420480" lon="-16.3950950">
        <ele>1083.9</ele>
        <time>2020-11-11T11:31:51Z</time>
      </trkpt>
      <trkpt lat="28.4420480" lon="-16.3950950">
        <ele>1083.9</ele>
        <time>2020-11-11T11:31:52Z</time>
      </trkpt>
      <trkpt lat="28.4420830" lon="-16.3951350">
        <ele>1082.9</ele>
        <time>2020-11-11T11:31:53Z</time>
      </trkpt>
      <trkpt lat="28.4420830" lon="-16.3951350">
        <ele>1082.9</ele>
        <time>2020-11-11T11:31:54Z</time>
      </trkpt>
      <trkpt lat="28.4421050" lon="-16.3951700">
        <ele>1082.9</ele>
        <time>2020-11-11T11:31:55Z</time>
      </trkpt>
      <trkpt lat="28.4421220" lon="-16.3951920">
        <ele>1082.9</ele>
        <time>2020-11-11T11:31:56Z</time>
      </trkpt>
      <trkpt lat="28.4421220" lon="-16.3951920">
        <ele>1080.9</ele>
        <time>2020-11-11T11:31:57Z</time>
      </trkpt>
      <trkpt lat="28.4421700" lon="-16.3952200">
        <ele>1079.9</ele>
        <time>2020-11-11T11:31:58Z</time>
      </trkpt>
      <trkpt lat="28.4421700" lon="-16.3952200">
        <ele>1079.9</ele>
        <time>2020-11-11T11:31:59Z</time>
      </trkpt>
      <trkpt lat="28.4422530" lon="-16.3952570">
        <ele>1079.9</ele>
        <time>2020-11-11T11:32:00Z</time>
      </trkpt>
      <trkpt lat="28.4423000" lon="-16.3952680">
        <ele>1079.9</ele>
        <time>2020-11-11T11:32:01Z</time>
      </trkpt>
      <trkpt lat="28.4423000" lon="-16.3952680">
        <ele>1078.9</ele>
        <time>2020-11-11T11:32:02Z</time>
      </trkpt>
      <trkpt lat="28.4423770" lon="-16.3952750">
        <ele>1078.9</ele>
        <time>2020-11-11T11:32:03Z</time>
      </trkpt>
      <trkpt lat="28.4423770" lon="-16.3952750">
        <ele>1078.9</ele>
        <time>2020-11-11T11:32:04Z</time>
      </trkpt>
      <trkpt lat="28.4424330" lon="-16.3952870">
        <ele>1078.9</ele>
        <time>2020-11-11T11:32:05Z</time>
      </trkpt>
      <trkpt lat="28.4424330" lon="-16.3952870">
        <ele>1077.9</ele>
        <time>2020-11-11T11:32:06Z</time>
      </trkpt>
      <trkpt lat="28.4425000" lon="-16.3953020">
        <ele>1077.9</ele>
        <time>2020-11-11T11:32:07Z</time>
      </trkpt>
      <trkpt lat="28.4425000" lon="-16.3953020">
        <ele>1077.9</ele>
        <time>2020-11-11T11:32:08Z</time>
      </trkpt>
      <trkpt lat="28.4425380" lon="-16.3953230">
        <ele>1077.9</ele>
        <time>2020-11-11T11:32:09Z</time>
      </trkpt>
      <trkpt lat="28.4425380" lon="-16.3953230">
        <ele>1076.9</ele>
        <time>2020-11-11T11:32:10Z</time>
      </trkpt>
      <trkpt lat="28.4425630" lon="-16.3953820">
        <ele>1076.9</ele>
        <time>2020-11-11T11:32:11Z</time>
      </trkpt>
      <trkpt lat="28.4425630" lon="-16.3953820">
        <ele>1076.9</ele>
        <time>2020-11-11T11:32:12Z</time>
      </trkpt>
      <trkpt lat="28.4425830" lon="-16.3954430">
        <ele>1076.9</ele>
        <time>2020-11-11T11:32:13Z</time>
      </trkpt>
      <trkpt lat="28.4425830" lon="-16.3954430">
        <ele>1076.9</ele>
        <time>2020-11-11T11:32:14Z</time>
      </trkpt>
      <trkpt lat="28.4425900" lon="-16.3955020">
        <ele>1076.9</ele>
        <time>2020-11-11T11:32:15Z</time>
      </trkpt>
      <trkpt lat="28.4425900" lon="-16.3955020">
        <ele>1075.9</ele>
        <time>2020-11-11T11:32:16Z</time>
      </trkpt>
      <trkpt lat="28.4426030" lon="-16.3955650">
        <ele>1075.9</ele>
        <time>2020-11-11T11:32:17Z</time>
      </trkpt>
      <trkpt lat="28.4426030" lon="-16.3955650">
        <ele>1075.9</ele>
        <time>2020-11-11T11:32:18Z</time>
      </trkpt>
      <trkpt lat="28.4426180" lon="-16.3956200">
        <ele>1075.9</ele>
        <time>2020-11-11T11:32:19Z</time>
      </trkpt>
      <trkpt lat="28.4426180" lon="-16.3956200">
        <ele>1074.9</ele>
        <time>2020-11-11T11:32:20Z</time>
      </trkpt>
      <trkpt lat="28.4426400" lon="-16.3956870">
        <ele>1074.9</ele>
        <time>2020-11-11T11:32:21Z</time>
      </trkpt>
      <trkpt lat="28.4426400" lon="-16.3956870">
        <ele>1074.9</ele>
        <time>2020-11-11T11:32:22Z</time>
      </trkpt>
      <trkpt lat="28.4426430" lon="-16.3957550">
        <ele>1074.9</ele>
        <time>2020-11-11T11:32:23Z</time>
      </trkpt>
      <trkpt lat="28.4426430" lon="-16.3957550">
        <ele>1073.9</ele>
        <time>2020-11-11T11:32:24Z</time>
      </trkpt>
      <trkpt lat="28.4426420" lon="-16.3958330">
        <ele>1073.9</ele>
        <time>2020-11-11T11:32:25Z</time>
      </trkpt>
      <trkpt lat="28.4426420" lon="-16.3958330">
        <ele>1073.9</ele>
        <time>2020-11-11T11:32:26Z</time>
      </trkpt>
      <trkpt lat="28.4426280" lon="-16.3958930">
        <ele>1072.9</ele>
        <time>2020-11-11T11:32:27Z</time>
      </trkpt>
      <trkpt lat="28.4426130" lon="-16.3959330">
        <ele>1072.9</ele>
        <time>2020-11-11T11:32:28Z</time>
      </trkpt>
      <trkpt lat="28.4426130" lon="-16.3959330">
        <ele>1072.9</ele>
        <time>2020-11-11T11:32:29Z</time>
      </trkpt>
      <trkpt lat="28.4425970" lon="-16.3960230">
        <ele>1072.9</ele>
        <time>2020-11-11T11:32:30Z</time>
      </trkpt>
      <trkpt lat="28.4425950" lon="-16.3960700">
        <ele>1071.9</ele>
        <time>2020-11-11T11:32:31Z</time>
      </trkpt>
      <trkpt lat="28.4425950" lon="-16.3960700">
        <ele>1071.9</ele>
        <time>2020-11-11T11:32:32Z</time>
      </trkpt>
      <trkpt lat="28.4425880" lon="-16.3961720">
        <ele>1071.9</ele>
        <time>2020-11-11T11:32:33Z</time>
      </trkpt>
      <trkpt lat="28.4425880" lon="-16.3961720">
        <ele>1071.9</ele>
        <time>2020-11-11T11:32:34Z</time>
      </trkpt>
      <trkpt lat="28.4425970" lon="-16.3963350">
        <ele>1069.9</ele>
        <time>2020-11-11T11:32:35Z</time>
      </trkpt>
      <trkpt lat="28.4425970" lon="-16.3963350">
        <ele>1069.9</ele>
        <time>2020-11-11T11:32:36Z</time>
      </trkpt>
      <trkpt lat="28.4425900" lon="-16.3964850">
        <ele>1069.9</ele>
        <time>2020-11-11T11:32:37Z</time>
      </trkpt>
      <trkpt lat="28.4426180" lon="-16.3966320">
        <ele>1069.9</ele>
        <time>2020-11-11T11:32:38Z</time>
      </trkpt>
      <trkpt lat="28.4426180" lon="-16.3966320">
        <ele>1069.9</ele>
        <time>2020-11-11T11:32:39Z</time>
      </trkpt>
      <trkpt lat="28.4426250" lon="-16.3967320">
        <ele>1069.9</ele>
        <time>2020-11-11T11:32:40Z</time>
      </trkpt>
      <trkpt lat="28.4426250" lon="-16.3967770">
        <ele>1069.9</ele>
        <time>2020-11-11T11:32:41Z</time>
      </trkpt>
      <trkpt lat="28.4426250" lon="-16.3967770">
        <ele>1069.9</ele>
        <time>2020-11-11T11:32:42Z</time>
      </trkpt>
      <trkpt lat="28.4426280" lon="-16.3968580">
        <ele>1069.9</ele>
        <time>2020-11-11T11:32:43Z</time>
      </trkpt>
      <trkpt lat="28.4426280" lon="-16.3968580">
        <ele>1069.9</ele>
        <time>2020-11-11T11:32:44Z</time>
      </trkpt>
      <trkpt lat="28.4426350" lon="-16.3969370">
        <ele>1069.9</ele>
        <time>2020-11-11T11:32:45Z</time>
      </trkpt>
      <trkpt lat="28.4426350" lon="-16.3969370">
        <ele>1069.9</ele>
        <time>2020-11-11T11:32:46Z</time>
      </trkpt>
      <trkpt lat="28.4426180" lon="-16.3970450">
        <ele>1069.9</ele>
        <time>2020-11-11T11:32:47Z</time>
      </trkpt>
      <trkpt lat="28.4426180" lon="-16.3970450">
        <ele>1069.9</ele>
        <time>2020-11-11T11:32:48Z</time>
      </trkpt>
      <trkpt lat="28.4426070" lon="-16.3971420">
        <ele>1069.9</ele>
        <time>2020-11-11T11:32:49Z</time>
      </trkpt>
      <trkpt lat="28.4426070" lon="-16.3971420">
        <ele>1068.9</ele>
        <time>2020-11-11T11:32:50Z</time>
      </trkpt>
      <trkpt lat="28.4425520" lon="-16.3972550">
        <ele>1068.9</ele>
        <time>2020-11-11T11:32:51Z</time>
      </trkpt>
      <trkpt lat="28.4425520" lon="-16.3972550">
        <ele>1068.9</ele>
        <time>2020-11-11T11:32:52Z</time>
      </trkpt>
      <trkpt lat="28.4424980" lon="-16.3973600">
        <ele>1068.9</ele>
        <time>2020-11-11T11:32:53Z</time>
      </trkpt>
      <trkpt lat="28.4424700" lon="-16.3973950">
        <ele>1068.9</ele>
        <time>2020-11-11T11:32:54Z</time>
      </trkpt>
      <trkpt lat="28.4424700" lon="-16.3973950">
        <ele>1068.9</ele>
        <time>2020-11-11T11:32:55Z</time>
      </trkpt>
      <trkpt lat="28.4424030" lon="-16.3974450">
        <ele>1068.9</ele>
        <time>2020-11-11T11:32:56Z</time>
      </trkpt>
      <trkpt lat="28.4424030" lon="-16.3974450">
        <ele>1068.9</ele>
        <time>2020-11-11T11:32:57Z</time>
      </trkpt>
      <trkpt lat="28.4423470" lon="-16.3975080">
        <ele>1067.9</ele>
        <time>2020-11-11T11:32:58Z</time>
      </trkpt>
      <trkpt lat="28.4423470" lon="-16.3975080">
        <ele>1067.9</ele>
        <time>2020-11-11T11:32:59Z</time>
      </trkpt>
      <trkpt lat="28.4422920" lon="-16.3975680">
        <ele>1067.9</ele>
        <time>2020-11-11T11:33:00Z</time>
      </trkpt>
      <trkpt lat="28.4422670" lon="-16.3976020">
        <ele>1067.9</ele>
        <time>2020-11-11T11:33:01Z</time>
      </trkpt>
      <trkpt lat="28.4422670" lon="-16.3976020">
        <ele>1066.9</ele>
        <time>2020-11-11T11:33:02Z</time>
      </trkpt>
      <trkpt lat="28.4422050" lon="-16.3976780">
        <ele>1066.9</ele>
        <time>2020-11-11T11:33:03Z</time>
      </trkpt>
      <trkpt lat="28.4422050" lon="-16.3976780">
        <ele>1066.9</ele>
        <time>2020-11-11T11:33:04Z</time>
      </trkpt>
      <trkpt lat="28.4421450" lon="-16.3977580">
        <ele>1066.9</ele>
        <time>2020-11-11T11:33:05Z</time>
      </trkpt>
      <trkpt lat="28.4421450" lon="-16.3977580">
        <ele>1066.9</ele>
        <time>2020-11-11T11:33:06Z</time>
      </trkpt>
      <trkpt lat="28.4420850" lon="-16.3978370">
        <ele>1065.9</ele>
        <time>2020-11-11T11:33:07Z</time>
      </trkpt>
      <trkpt lat="28.4420850" lon="-16.3978370">
        <ele>1065.9</ele>
        <time>2020-11-11T11:33:08Z</time>
      </trkpt>
      <trkpt lat="28.4419980" lon="-16.3979550">
        <ele>1065.9</ele>
        <time>2020-11-11T11:33:09Z</time>
      </trkpt>
      <trkpt lat="28.4419980" lon="-16.3979550">
        <ele>1065.9</ele>
        <time>2020-11-11T11:33:10Z</time>
      </trkpt>
      <trkpt lat="28.4419280" lon="-16.3980180">
        <ele>1064.9</ele>
        <time>2020-11-11T11:33:11Z</time>
      </trkpt>
      <trkpt lat="28.4419280" lon="-16.3980180">
        <ele>1064.9</ele>
        <time>2020-11-11T11:33:12Z</time>
      </trkpt>
      <trkpt lat="28.4418530" lon="-16.3980800">
        <ele>1064.9</ele>
        <time>2020-11-11T11:33:13Z</time>
      </trkpt>
      <trkpt lat="28.4418530" lon="-16.3980800">
        <ele>1064.9</ele>
        <time>2020-11-11T11:33:14Z</time>
      </trkpt>
      <trkpt lat="28.4417930" lon="-16.3981150">
        <ele>1064.9</ele>
        <time>2020-11-11T11:33:15Z</time>
      </trkpt>
      <trkpt lat="28.4417700" lon="-16.3981370">
        <ele>1064.9</ele>
        <time>2020-11-11T11:33:16Z</time>
      </trkpt>
      <trkpt lat="28.4417700" lon="-16.3981370">
        <ele>1064.9</ele>
        <time>2020-11-11T11:33:17Z</time>
      </trkpt>
      <trkpt lat="28.4417220" lon="-16.3981870">
        <ele>1064.9</ele>
        <time>2020-11-11T11:33:18Z</time>
      </trkpt>
      <trkpt lat="28.4417220" lon="-16.3981870">
        <ele>1063.9</ele>
        <time>2020-11-11T11:33:19Z</time>
      </trkpt>
      <trkpt lat="28.4416830" lon="-16.3982400">
        <ele>1063.9</ele>
        <time>2020-11-11T11:33:20Z</time>
      </trkpt>
      <trkpt lat="28.4416830" lon="-16.3982400">
        <ele>1062.9</ele>
        <time>2020-11-11T11:33:21Z</time>
      </trkpt>
      <trkpt lat="28.4416400" lon="-16.3982920">
        <ele>1062.9</ele>
        <time>2020-11-11T11:33:22Z</time>
      </trkpt>
      <trkpt lat="28.4416180" lon="-16.3983170">
        <ele>1062.9</ele>
        <time>2020-11-11T11:33:23Z</time>
      </trkpt>
      <trkpt lat="28.4416180" lon="-16.3983170">
        <ele>1062.9</ele>
        <time>2020-11-11T11:33:24Z</time>
      </trkpt>
      <trkpt lat="28.4415620" lon="-16.3983780">
        <ele>1062.9</ele>
        <time>2020-11-11T11:33:25Z</time>
      </trkpt>
      <trkpt lat="28.4415620" lon="-16.3983780">
        <ele>1062.9</ele>
        <time>2020-11-11T11:33:26Z</time>
      </trkpt>
      <trkpt lat="28.4414970" lon="-16.3984430">
        <ele>1061.9</ele>
        <time>2020-11-11T11:33:27Z</time>
      </trkpt>
      <trkpt lat="28.4414970" lon="-16.3984430">
        <ele>1061.9</ele>
        <time>2020-11-11T11:33:28Z</time>
      </trkpt>
      <trkpt lat="28.4414280" lon="-16.3984930">
        <ele>1061.9</ele>
        <time>2020-11-11T11:33:29Z</time>
      </trkpt>
      <trkpt lat="28.4414280" lon="-16.3984930">
        <ele>1061.9</ele>
        <time>2020-11-11T11:33:30Z</time>
      </trkpt>
      <trkpt lat="28.4413630" lon="-16.3985470">
        <ele>1061.9</ele>
        <time>2020-11-11T11:33:31Z</time>
      </trkpt>
      <trkpt lat="28.4413370" lon="-16.3985720">
        <ele>1061.9</ele>
        <time>2020-11-11T11:33:32Z</time>
      </trkpt>
      <trkpt lat="28.4413370" lon="-16.3985720">
        <ele>1061.9</ele>
        <time>2020-11-11T11:33:33Z</time>
      </trkpt>
      <trkpt lat="28.4412950" lon="-16.3986270">
        <ele>1061.9</ele>
        <time>2020-11-11T11:33:34Z</time>
      </trkpt>
      <trkpt lat="28.4412950" lon="-16.3986270">
        <ele>1061.9</ele>
        <time>2020-11-11T11:33:35Z</time>
      </trkpt>
      <trkpt lat="28.4412620" lon="-16.3986770">
        <ele>1061.9</ele>
        <time>2020-11-11T11:33:36Z</time>
      </trkpt>
      <trkpt lat="28.4412450" lon="-16.3987030">
        <ele>1061.9</ele>
        <time>2020-11-11T11:33:37Z</time>
      </trkpt>
      <trkpt lat="28.4412450" lon="-16.3987030">
        <ele>1061.9</ele>
        <time>2020-11-11T11:33:38Z</time>
      </trkpt>
      <trkpt lat="28.4412120" lon="-16.3987600">
        <ele>1062.9</ele>
        <time>2020-11-11T11:33:39Z</time>
      </trkpt>
      <trkpt lat="28.4412120" lon="-16.3987600">
        <ele>1062.9</ele>
        <time>2020-11-11T11:33:40Z</time>
      </trkpt>
      <trkpt lat="28.4411730" lon="-16.3988050">
        <ele>1062.9</ele>
        <time>2020-11-11T11:33:41Z</time>
      </trkpt>
      <trkpt lat="28.4411730" lon="-16.3988050">
        <ele>1062.9</ele>
        <time>2020-11-11T11:33:42Z</time>
      </trkpt>
      <trkpt lat="28.4411320" lon="-16.3988370">
        <ele>1063.9</ele>
        <time>2020-11-11T11:33:43Z</time>
      </trkpt>
      <trkpt lat="28.4411320" lon="-16.3988370">
        <ele>1063.9</ele>
        <time>2020-11-11T11:33:44Z</time>
      </trkpt>
      <trkpt lat="28.4410900" lon="-16.3988650">
        <ele>1063.9</ele>
        <time>2020-11-11T11:33:45Z</time>
      </trkpt>
      <trkpt lat="28.4410900" lon="-16.3988650">
        <ele>1063.9</ele>
        <time>2020-11-11T11:33:46Z</time>
      </trkpt>
      <trkpt lat="28.4410430" lon="-16.3989100">
        <ele>1063.9</ele>
        <time>2020-11-11T11:33:47Z</time>
      </trkpt>
      <trkpt lat="28.4410200" lon="-16.3989350">
        <ele>1064.9</ele>
        <time>2020-11-11T11:33:48Z</time>
      </trkpt>
      <trkpt lat="28.4410200" lon="-16.3989350">
        <ele>1064.9</ele>
        <time>2020-11-11T11:33:49Z</time>
      </trkpt>
      <trkpt lat="28.4409720" lon="-16.3989830">
        <ele>1064.9</ele>
        <time>2020-11-11T11:33:50Z</time>
      </trkpt>
      <trkpt lat="28.4409720" lon="-16.3989830">
        <ele>1064.9</ele>
        <time>2020-11-11T11:33:51Z</time>
      </trkpt>
      <trkpt lat="28.4409320" lon="-16.3990330">
        <ele>1064.9</ele>
        <time>2020-11-11T11:33:52Z</time>
      </trkpt>
      <trkpt lat="28.4409320" lon="-16.3990330">
        <ele>1064.9</ele>
        <time>2020-11-11T11:33:53Z</time>
      </trkpt>
      <trkpt lat="28.4408880" lon="-16.3990870">
        <ele>1064.9</ele>
        <time>2020-11-11T11:33:54Z</time>
      </trkpt>
      <trkpt lat="28.4408650" lon="-16.3991170">
        <ele>1064.9</ele>
        <time>2020-11-11T11:33:55Z</time>
      </trkpt>
      <trkpt lat="28.4408650" lon="-16.3991170">
        <ele>1064.9</ele>
        <time>2020-11-11T11:33:56Z</time>
      </trkpt>
      <trkpt lat="28.4408230" lon="-16.3991750">
        <ele>1064.9</ele>
        <time>2020-11-11T11:33:57Z</time>
      </trkpt>
      <trkpt lat="28.4408230" lon="-16.3991750">
        <ele>1064.9</ele>
        <time>2020-11-11T11:33:58Z</time>
      </trkpt>
      <trkpt lat="28.4407820" lon="-16.3992480">
        <ele>1064.9</ele>
        <time>2020-11-11T11:33:59Z</time>
      </trkpt>
      <trkpt lat="28.4407820" lon="-16.3992480">
        <ele>1064.9</ele>
        <time>2020-11-11T11:34:00Z</time>
      </trkpt>
      <trkpt lat="28.4407450" lon="-16.3993250">
        <ele>1063.9</ele>
        <time>2020-11-11T11:34:01Z</time>
      </trkpt>
      <trkpt lat="28.4407450" lon="-16.3993250">
        <ele>1063.9</ele>
        <time>2020-11-11T11:34:02Z</time>
      </trkpt>
      <trkpt lat="28.4407150" lon="-16.3993980">
        <ele>1063.9</ele>
        <time>2020-11-11T11:34:03Z</time>
      </trkpt>
      <trkpt lat="28.4407030" lon="-16.3994380">
        <ele>1063.9</ele>
        <time>2020-11-11T11:34:04Z</time>
      </trkpt>
      <trkpt lat="28.4407030" lon="-16.3994380">
        <ele>1063.9</ele>
        <time>2020-11-11T11:34:05Z</time>
      </trkpt>
      <trkpt lat="28.4406750" lon="-16.3995120">
        <ele>1063.9</ele>
        <time>2020-11-11T11:34:06Z</time>
      </trkpt>
      <trkpt lat="28.4406750" lon="-16.3995120">
        <ele>1063.9</ele>
        <time>2020-11-11T11:34:07Z</time>
      </trkpt>
      <trkpt lat="28.4406450" lon="-16.3995880">
        <ele>1063.9</ele>
        <time>2020-11-11T11:34:08Z</time>
      </trkpt>
      <trkpt lat="28.4406450" lon="-16.3995880">
        <ele>1063.9</ele>
        <time>2020-11-11T11:34:09Z</time>
      </trkpt>
      <trkpt lat="28.4406220" lon="-16.3996850">
        <ele>1063.9</ele>
        <time>2020-11-11T11:34:10Z</time>
      </trkpt>
      <trkpt lat="28.4406220" lon="-16.3996850">
        <ele>1063.9</ele>
        <time>2020-11-11T11:34:11Z</time>
      </trkpt>
      <trkpt lat="28.4405950" lon="-16.3997630">
        <ele>1063.9</ele>
        <time>2020-11-11T11:34:12Z</time>
      </trkpt>
      <trkpt lat="28.4405820" lon="-16.3998020">
        <ele>1063.9</ele>
        <time>2020-11-11T11:34:13Z</time>
      </trkpt>
      <trkpt lat="28.4405820" lon="-16.3998020">
        <ele>1063.9</ele>
        <time>2020-11-11T11:34:14Z</time>
      </trkpt>
      <trkpt lat="28.4405670" lon="-16.3998720">
        <ele>1063.9</ele>
        <time>2020-11-11T11:34:15Z</time>
      </trkpt>
      <trkpt lat="28.4405670" lon="-16.3998720">
        <ele>1063.9</ele>
        <time>2020-11-11T11:34:16Z</time>
      </trkpt>
      <trkpt lat="28.4405430" lon="-16.3999500">
        <ele>1063.9</ele>
        <time>2020-11-11T11:34:17Z</time>
      </trkpt>
      <trkpt lat="28.4405430" lon="-16.3999500">
        <ele>1063.9</ele>
        <time>2020-11-11T11:34:18Z</time>
      </trkpt>
      <trkpt lat="28.4405270" lon="-16.4000320">
        <ele>1063.9</ele>
        <time>2020-11-11T11:34:19Z</time>
      </trkpt>
      <trkpt lat="28.4405180" lon="-16.4000750">
        <ele>1063.9</ele>
        <time>2020-11-11T11:34:20Z</time>
      </trkpt>
      <trkpt lat="28.4405180" lon="-16.4000750">
        <ele>1064.9</ele>
        <time>2020-11-11T11:34:21Z</time>
      </trkpt>
      <trkpt lat="28.4405050" lon="-16.4001580">
        <ele>1064.9</ele>
        <time>2020-11-11T11:34:22Z</time>
      </trkpt>
      <trkpt lat="28.4405050" lon="-16.4001580">
        <ele>1064.9</ele>
        <time>2020-11-11T11:34:23Z</time>
      </trkpt>
      <trkpt lat="28.4404980" lon="-16.4002380">
        <ele>1064.9</ele>
        <time>2020-11-11T11:34:24Z</time>
      </trkpt>
      <trkpt lat="28.4404980" lon="-16.4002380">
        <ele>1065.9</ele>
        <time>2020-11-11T11:34:25Z</time>
      </trkpt>
      <trkpt lat="28.4404830" lon="-16.4003180">
        <ele>1065.9</ele>
        <time>2020-11-11T11:34:26Z</time>
      </trkpt>
      <trkpt lat="28.4404770" lon="-16.4003580">
        <ele>1065.9</ele>
        <time>2020-11-11T11:34:27Z</time>
      </trkpt>
      <trkpt lat="28.4404770" lon="-16.4003580">
        <ele>1065.9</ele>
        <time>2020-11-11T11:34:28Z</time>
      </trkpt>
      <trkpt lat="28.4404620" lon="-16.4004300">
        <ele>1065.9</ele>
        <time>2020-11-11T11:34:29Z</time>
      </trkpt>
      <trkpt lat="28.4404620" lon="-16.4004300">
        <ele>1065.9</ele>
        <time>2020-11-11T11:34:30Z</time>
      </trkpt>
      <trkpt lat="28.4404450" lon="-16.4005000">
        <ele>1065.9</ele>
        <time>2020-11-11T11:34:31Z</time>
      </trkpt>
      <trkpt lat="28.4404450" lon="-16.4005000">
        <ele>1066.9</ele>
        <time>2020-11-11T11:34:32Z</time>
      </trkpt>
      <trkpt lat="28.4404300" lon="-16.4005680">
        <ele>1066.9</ele>
        <time>2020-11-11T11:34:33Z</time>
      </trkpt>
      <trkpt lat="28.4404300" lon="-16.4005680">
        <ele>1066.9</ele>
        <time>2020-11-11T11:34:34Z</time>
      </trkpt>
      <trkpt lat="28.4404070" lon="-16.4006400">
        <ele>1066.9</ele>
        <time>2020-11-11T11:34:35Z</time>
      </trkpt>
      <trkpt lat="28.4403950" lon="-16.4006750">
        <ele>1066.9</ele>
        <time>2020-11-11T11:34:36Z</time>
      </trkpt>
      <trkpt lat="28.4403950" lon="-16.4006750">
        <ele>1066.9</ele>
        <time>2020-11-11T11:34:37Z</time>
      </trkpt>
      <trkpt lat="28.4403720" lon="-16.4007420">
        <ele>1066.9</ele>
        <time>2020-11-11T11:34:38Z</time>
      </trkpt>
      <trkpt lat="28.4403720" lon="-16.4007420">
        <ele>1066.9</ele>
        <time>2020-11-11T11:34:39Z</time>
      </trkpt>
      <trkpt lat="28.4403520" lon="-16.4007950">
        <ele>1066.9</ele>
        <time>2020-11-11T11:34:40Z</time>
      </trkpt>
      <trkpt lat="28.4403430" lon="-16.4008220">
        <ele>1066.9</ele>
        <time>2020-11-11T11:34:41Z</time>
      </trkpt>
      <trkpt lat="28.4403430" lon="-16.4008220">
        <ele>1066.9</ele>
        <time>2020-11-11T11:34:42Z</time>
      </trkpt>
      <trkpt lat="28.4403130" lon="-16.4008830">
        <ele>1066.9</ele>
        <time>2020-11-11T11:34:43Z</time>
      </trkpt>
      <trkpt lat="28.4403130" lon="-16.4008830">
        <ele>1066.9</ele>
        <time>2020-11-11T11:34:44Z</time>
      </trkpt>
      <trkpt lat="28.4402830" lon="-16.4009250">
        <ele>1066.9</ele>
        <time>2020-11-11T11:34:45Z</time>
      </trkpt>
      <trkpt lat="28.4402830" lon="-16.4009250">
        <ele>1066.9</ele>
        <time>2020-11-11T11:34:46Z</time>
      </trkpt>
      <trkpt lat="28.4402350" lon="-16.4009850">
        <ele>1066.9</ele>
        <time>2020-11-11T11:34:47Z</time>
      </trkpt>
      <trkpt lat="28.4402350" lon="-16.4009850">
        <ele>1065.9</ele>
        <time>2020-11-11T11:34:48Z</time>
      </trkpt>
      <trkpt lat="28.4401750" lon="-16.4010470">
        <ele>1065.9</ele>
        <time>2020-11-11T11:34:49Z</time>
      </trkpt>
      <trkpt lat="28.4401750" lon="-16.4010470">
        <ele>1065.9</ele>
        <time>2020-11-11T11:34:50Z</time>
      </trkpt>
      <trkpt lat="28.4401150" lon="-16.4011130">
        <ele>1065.9</ele>
        <time>2020-11-11T11:34:51Z</time>
      </trkpt>
      <trkpt lat="28.4400930" lon="-16.4011430">
        <ele>1065.9</ele>
        <time>2020-11-11T11:34:52Z</time>
      </trkpt>
      <trkpt lat="28.4400930" lon="-16.4011430">
        <ele>1065.9</ele>
        <time>2020-11-11T11:34:53Z</time>
      </trkpt>
      <trkpt lat="28.4400600" lon="-16.4012000">
        <ele>1064.9</ele>
        <time>2020-11-11T11:34:54Z</time>
      </trkpt>
      <trkpt lat="28.4400470" lon="-16.4012300">
        <ele>1064.9</ele>
        <time>2020-11-11T11:34:55Z</time>
      </trkpt>
      <trkpt lat="28.4400470" lon="-16.4012300">
        <ele>1064.9</ele>
        <time>2020-11-11T11:34:56Z</time>
      </trkpt>
      <trkpt lat="28.4400200" lon="-16.4012900">
        <ele>1064.9</ele>
        <time>2020-11-11T11:34:57Z</time>
      </trkpt>
      <trkpt lat="28.4400200" lon="-16.4012900">
        <ele>1063.9</ele>
        <time>2020-11-11T11:34:58Z</time>
      </trkpt>
      <trkpt lat="28.4399970" lon="-16.4013520">
        <ele>1063.9</ele>
        <time>2020-11-11T11:34:59Z</time>
      </trkpt>
      <trkpt lat="28.4399970" lon="-16.4013520">
        <ele>1063.9</ele>
        <time>2020-11-11T11:35:00Z</time>
      </trkpt>
      <trkpt lat="28.4399770" lon="-16.4014080">
        <ele>1063.9</ele>
        <time>2020-11-11T11:35:01Z</time>
      </trkpt>
      <trkpt lat="28.4399770" lon="-16.4014080">
        <ele>1063.9</ele>
        <time>2020-11-11T11:35:02Z</time>
      </trkpt>
      <trkpt lat="28.4399730" lon="-16.4014670">
        <ele>1063.9</ele>
        <time>2020-11-11T11:35:03Z</time>
      </trkpt>
      <trkpt lat="28.4399730" lon="-16.4014670">
        <ele>1062.9</ele>
        <time>2020-11-11T11:35:04Z</time>
      </trkpt>
      <trkpt lat="28.4399650" lon="-16.4015170">
        <ele>1062.9</ele>
        <time>2020-11-11T11:35:05Z</time>
      </trkpt>
      <trkpt lat="28.4399650" lon="-16.4015170">
        <ele>1062.9</ele>
        <time>2020-11-11T11:35:06Z</time>
      </trkpt>
      <trkpt lat="28.4399550" lon="-16.4015900">
        <ele>1062.9</ele>
        <time>2020-11-11T11:35:07Z</time>
      </trkpt>
      <trkpt lat="28.4399500" lon="-16.4016220">
        <ele>1061.9</ele>
        <time>2020-11-11T11:35:08Z</time>
      </trkpt>
      <trkpt lat="28.4399500" lon="-16.4016220">
        <ele>1061.9</ele>
        <time>2020-11-11T11:35:09Z</time>
      </trkpt>
      <trkpt lat="28.4399430" lon="-16.4016930">
        <ele>1061.9</ele>
        <time>2020-11-11T11:35:10Z</time>
      </trkpt>
      <trkpt lat="28.4399430" lon="-16.4016930">
        <ele>1061.9</ele>
        <time>2020-11-11T11:35:11Z</time>
      </trkpt>
      <trkpt lat="28.4399150" lon="-16.4018230">
        <ele>1060.9</ele>
        <time>2020-11-11T11:35:12Z</time>
      </trkpt>
      <trkpt lat="28.4399080" lon="-16.4018930">
        <ele>1060.9</ele>
        <time>2020-11-11T11:35:13Z</time>
      </trkpt>
      <trkpt lat="28.4399080" lon="-16.4018930">
        <ele>1060.9</ele>
        <time>2020-11-11T11:35:14Z</time>
      </trkpt>
      <trkpt lat="28.4398580" lon="-16.4020120">
        <ele>1060.9</ele>
        <time>2020-11-11T11:35:15Z</time>
      </trkpt>
      <trkpt lat="28.4398580" lon="-16.4020120">
        <ele>1059.9</ele>
        <time>2020-11-11T11:35:16Z</time>
      </trkpt>
      <trkpt lat="28.4398000" lon="-16.4021150">
        <ele>1059.9</ele>
        <time>2020-11-11T11:35:17Z</time>
      </trkpt>
      <trkpt lat="28.4398000" lon="-16.4021150">
        <ele>1059.9</ele>
        <time>2020-11-11T11:35:18Z</time>
      </trkpt>
      <trkpt lat="28.4397400" lon="-16.4021880">
        <ele>1059.9</ele>
        <time>2020-11-11T11:35:19Z</time>
      </trkpt>
      <trkpt lat="28.4397080" lon="-16.4022200">
        <ele>1057.9</ele>
        <time>2020-11-11T11:35:20Z</time>
      </trkpt>
      <trkpt lat="28.4397080" lon="-16.4022200">
        <ele>1057.9</ele>
        <time>2020-11-11T11:35:21Z</time>
      </trkpt>
      <trkpt lat="28.4396550" lon="-16.4022950">
        <ele>1056.9</ele>
        <time>2020-11-11T11:35:22Z</time>
      </trkpt>
      <trkpt lat="28.4396380" lon="-16.4023400">
        <ele>1056.9</ele>
        <time>2020-11-11T11:35:23Z</time>
      </trkpt>
      <trkpt lat="28.4396380" lon="-16.4023400">
        <ele>1056.9</ele>
        <time>2020-11-11T11:35:24Z</time>
      </trkpt>
      <trkpt lat="28.4395970" lon="-16.4024370">
        <ele>1056.9</ele>
        <time>2020-11-11T11:35:25Z</time>
      </trkpt>
      <trkpt lat="28.4395800" lon="-16.4024950">
        <ele>1055.9</ele>
        <time>2020-11-11T11:35:26Z</time>
      </trkpt>
      <trkpt lat="28.4395800" lon="-16.4024950">
        <ele>1055.9</ele>
        <time>2020-11-11T11:35:27Z</time>
      </trkpt>
      <trkpt lat="28.4395480" lon="-16.4026120">
        <ele>1055.9</ele>
        <time>2020-11-11T11:35:28Z</time>
      </trkpt>
      <trkpt lat="28.4395480" lon="-16.4026120">
        <ele>1055.9</ele>
        <time>2020-11-11T11:35:29Z</time>
      </trkpt>
      <trkpt lat="28.4395130" lon="-16.4027080">
        <ele>1054.9</ele>
        <time>2020-11-11T11:35:30Z</time>
      </trkpt>
      <trkpt lat="28.4394970" lon="-16.4027580">
        <ele>1054.9</ele>
        <time>2020-11-11T11:35:31Z</time>
      </trkpt>
      <trkpt lat="28.4394970" lon="-16.4027580">
        <ele>1054.9</ele>
        <time>2020-11-11T11:35:32Z</time>
      </trkpt>
      <trkpt lat="28.4394520" lon="-16.4028500">
        <ele>1054.9</ele>
        <time>2020-11-11T11:35:33Z</time>
      </trkpt>
      <trkpt lat="28.4394520" lon="-16.4028500">
        <ele>1054.9</ele>
        <time>2020-11-11T11:35:34Z</time>
      </trkpt>
      <trkpt lat="28.4393870" lon="-16.4029730">
        <ele>1054.9</ele>
        <time>2020-11-11T11:35:35Z</time>
      </trkpt>
      <trkpt lat="28.4393870" lon="-16.4029730">
        <ele>1054.9</ele>
        <time>2020-11-11T11:35:36Z</time>
      </trkpt>
      <trkpt lat="28.4393300" lon="-16.4030550">
        <ele>1054.9</ele>
        <time>2020-11-11T11:35:37Z</time>
      </trkpt>
      <trkpt lat="28.4393020" lon="-16.4030850">
        <ele>1054.9</ele>
        <time>2020-11-11T11:35:38Z</time>
      </trkpt>
      <trkpt lat="28.4393020" lon="-16.4030850">
        <ele>1053.9</ele>
        <time>2020-11-11T11:35:39Z</time>
      </trkpt>
      <trkpt lat="28.4392370" lon="-16.4031470">
        <ele>1053.9</ele>
        <time>2020-11-11T11:35:40Z</time>
      </trkpt>
      <trkpt lat="28.4392370" lon="-16.4031470">
        <ele>1053.9</ele>
        <time>2020-11-11T11:35:41Z</time>
      </trkpt>
      <trkpt lat="28.4391850" lon="-16.4031950">
        <ele>1052.9</ele>
        <time>2020-11-11T11:35:42Z</time>
      </trkpt>
      <trkpt lat="28.4391730" lon="-16.4032220">
        <ele>1052.9</ele>
        <time>2020-11-11T11:35:43Z</time>
      </trkpt>
      <trkpt lat="28.4391730" lon="-16.4032220">
        <ele>1052.9</ele>
        <time>2020-11-11T11:35:44Z</time>
      </trkpt>
      <trkpt lat="28.4391350" lon="-16.4032730">
        <ele>1052.9</ele>
        <time>2020-11-11T11:35:45Z</time>
      </trkpt>
      <trkpt lat="28.4391350" lon="-16.4032730">
        <ele>1051.9</ele>
        <time>2020-11-11T11:35:46Z</time>
      </trkpt>
      <trkpt lat="28.4391130" lon="-16.4033170">
        <ele>1051.9</ele>
        <time>2020-11-11T11:35:47Z</time>
      </trkpt>
      <trkpt lat="28.4391130" lon="-16.4033170">
        <ele>1051.9</ele>
        <time>2020-11-11T11:35:48Z</time>
      </trkpt>
      <trkpt lat="28.4391130" lon="-16.4033930">
        <ele>1051.9</ele>
        <time>2020-11-11T11:35:49Z</time>
      </trkpt>
      <trkpt lat="28.4391130" lon="-16.4033930">
        <ele>1051.9</ele>
        <time>2020-11-11T11:35:50Z</time>
      </trkpt>
      <trkpt lat="28.4391020" lon="-16.4034720">
        <ele>1051.9</ele>
        <time>2020-11-11T11:35:51Z</time>
      </trkpt>
      <trkpt lat="28.4391020" lon="-16.4034720">
        <ele>1051.9</ele>
        <time>2020-11-11T11:35:52Z</time>
      </trkpt>
      <trkpt lat="28.4390730" lon="-16.4035230">
        <ele>1051.9</ele>
        <time>2020-11-11T11:35:53Z</time>
      </trkpt>
      <trkpt lat="28.4390580" lon="-16.4035450">
        <ele>1051.9</ele>
        <time>2020-11-11T11:35:54Z</time>
      </trkpt>
      <trkpt lat="28.4390580" lon="-16.4035450">
        <ele>1051.9</ele>
        <time>2020-11-11T11:35:55Z</time>
      </trkpt>
      <trkpt lat="28.4390150" lon="-16.4035900">
        <ele>1051.9</ele>
        <time>2020-11-11T11:35:56Z</time>
      </trkpt>
      <trkpt lat="28.4390150" lon="-16.4035900">
        <ele>1051.9</ele>
        <time>2020-11-11T11:35:57Z</time>
      </trkpt>
      <trkpt lat="28.4389750" lon="-16.4036200">
        <ele>1051.9</ele>
        <time>2020-11-11T11:35:58Z</time>
      </trkpt>
      <trkpt lat="28.4389750" lon="-16.4036200">
        <ele>1051.9</ele>
        <time>2020-11-11T11:35:59Z</time>
      </trkpt>
      <trkpt lat="28.4389280" lon="-16.4036570">
        <ele>1051.9</ele>
        <time>2020-11-11T11:36:00Z</time>
      </trkpt>
      <trkpt lat="28.4389280" lon="-16.4036570">
        <ele>1051.9</ele>
        <time>2020-11-11T11:36:01Z</time>
      </trkpt>
      <trkpt lat="28.4388820" lon="-16.4037000">
        <ele>1052.9</ele>
        <time>2020-11-11T11:36:02Z</time>
      </trkpt>
      <trkpt lat="28.4388820" lon="-16.4037000">
        <ele>1052.9</ele>
        <time>2020-11-11T11:36:03Z</time>
      </trkpt>
      <trkpt lat="28.4388380" lon="-16.4037420">
        <ele>1052.9</ele>
        <time>2020-11-11T11:36:04Z</time>
      </trkpt>
      <trkpt lat="28.4388200" lon="-16.4037580">
        <ele>1052.9</ele>
        <time>2020-11-11T11:36:05Z</time>
      </trkpt>
      <trkpt lat="28.4388200" lon="-16.4037580">
        <ele>1052.9</ele>
        <time>2020-11-11T11:36:06Z</time>
      </trkpt>
      <trkpt lat="28.4387700" lon="-16.4037970">
        <ele>1052.9</ele>
        <time>2020-11-11T11:36:07Z</time>
      </trkpt>
      <trkpt lat="28.4387700" lon="-16.4037970">
        <ele>1052.9</ele>
        <time>2020-11-11T11:36:08Z</time>
      </trkpt>
      <trkpt lat="28.4387250" lon="-16.4038370">
        <ele>1052.9</ele>
        <time>2020-11-11T11:36:09Z</time>
      </trkpt>
      <trkpt lat="28.4387050" lon="-16.4038570">
        <ele>1052.9</ele>
        <time>2020-11-11T11:36:10Z</time>
      </trkpt>
      <trkpt lat="28.4387050" lon="-16.4038570">
        <ele>1052.9</ele>
        <time>2020-11-11T11:36:11Z</time>
      </trkpt>
      <trkpt lat="28.4386520" lon="-16.4039180">
        <ele>1052.9</ele>
        <time>2020-11-11T11:36:12Z</time>
      </trkpt>
      <trkpt lat="28.4386280" lon="-16.4039470">
        <ele>1052.9</ele>
        <time>2020-11-11T11:36:13Z</time>
      </trkpt>
      <trkpt lat="28.4386280" lon="-16.4039470">
        <ele>1053.9</ele>
        <time>2020-11-11T11:36:14Z</time>
      </trkpt>
      <trkpt lat="28.4385630" lon="-16.4040050">
        <ele>1053.9</ele>
        <time>2020-11-11T11:36:15Z</time>
      </trkpt>
      <trkpt lat="28.4385480" lon="-16.4040180">
        <ele>1053.9</ele>
        <time>2020-11-11T11:36:16Z</time>
      </trkpt>
      <trkpt lat="28.4385480" lon="-16.4040180">
        <ele>1053.9</ele>
        <time>2020-11-11T11:36:17Z</time>
      </trkpt>
      <trkpt lat="28.4385230" lon="-16.4040170">
        <ele>1053.9</ele>
        <time>2020-11-11T11:36:18Z</time>
      </trkpt>
      <trkpt lat="28.4385100" lon="-16.4040150">
        <ele>1053.9</ele>
        <time>2020-11-11T11:36:19Z</time>
      </trkpt>
      <trkpt lat="28.4385100" lon="-16.4040150">
        <ele>1054.9</ele>
        <time>2020-11-11T11:36:20Z</time>
      </trkpt>
      <trkpt lat="28.4384730" lon="-16.4040330">
        <ele>1054.9</ele>
        <time>2020-11-11T11:36:21Z</time>
      </trkpt>
      <trkpt lat="28.4384730" lon="-16.4040330">
        <ele>1054.9</ele>
        <time>2020-11-11T11:36:22Z</time>
      </trkpt>
      <trkpt lat="28.4384520" lon="-16.4040370">
        <ele>1054.9</ele>
        <time>2020-11-11T11:36:23Z</time>
      </trkpt>
      <trkpt lat="28.4384520" lon="-16.4040370">
        <ele>1056.9</ele>
        <time>2020-11-11T11:36:24Z</time>
      </trkpt>
      <trkpt lat="28.4384270" lon="-16.4040350">
        <ele>1056.9</ele>
        <time>2020-11-11T11:36:25Z</time>
      </trkpt>
      <trkpt lat="28.4384100" lon="-16.4040370">
        <ele>1056.9</ele>
        <time>2020-11-11T11:36:26Z</time>
      </trkpt>
      <trkpt lat="28.4384100" lon="-16.4040370">
        <ele>1056.9</ele>
        <time>2020-11-11T11:36:27Z</time>
      </trkpt>
      <trkpt lat="28.4383630" lon="-16.4040580">
        <ele>1056.9</ele>
        <time>2020-11-11T11:36:28Z</time>
      </trkpt>
      <trkpt lat="28.4383630" lon="-16.4040580">
        <ele>1056.9</ele>
        <time>2020-11-11T11:36:29Z</time>
      </trkpt>
      <trkpt lat="28.4383100" lon="-16.4040730">
        <ele>1057.9</ele>
        <time>2020-11-11T11:36:30Z</time>
      </trkpt>
      <trkpt lat="28.4382830" lon="-16.4040900">
        <ele>1057.9</ele>
        <time>2020-11-11T11:36:31Z</time>
      </trkpt>
      <trkpt lat="28.4382830" lon="-16.4040900">
        <ele>1057.9</ele>
        <time>2020-11-11T11:36:32Z</time>
      </trkpt>
      <trkpt lat="28.4382430" lon="-16.4041020">
        <ele>1057.9</ele>
        <time>2020-11-11T11:36:33Z</time>
      </trkpt>
      <trkpt lat="28.4382430" lon="-16.4041020">
        <ele>1057.9</ele>
        <time>2020-11-11T11:36:34Z</time>
      </trkpt>
      <trkpt lat="28.4381770" lon="-16.4041470">
        <ele>1057.9</ele>
        <time>2020-11-11T11:36:35Z</time>
      </trkpt>
      <trkpt lat="28.4381770" lon="-16.4041470">
        <ele>1058.9</ele>
        <time>2020-11-11T11:36:36Z</time>
      </trkpt>
      <trkpt lat="28.4381270" lon="-16.4041880">
        <ele>1058.9</ele>
        <time>2020-11-11T11:36:37Z</time>
      </trkpt>
      <trkpt lat="28.4381270" lon="-16.4041880">
        <ele>1058.9</ele>
        <time>2020-11-11T11:36:38Z</time>
      </trkpt>
      <trkpt lat="28.4380780" lon="-16.4041920">
        <ele>1058.9</ele>
        <time>2020-11-11T11:36:39Z</time>
      </trkpt>
      <trkpt lat="28.4380780" lon="-16.4041920">
        <ele>1059.9</ele>
        <time>2020-11-11T11:36:40Z</time>
      </trkpt>
      <trkpt lat="28.4380400" lon="-16.4041730">
        <ele>1059.9</ele>
        <time>2020-11-11T11:36:41Z</time>
      </trkpt>
      <trkpt lat="28.4380400" lon="-16.4041730">
        <ele>1059.9</ele>
        <time>2020-11-11T11:36:42Z</time>
      </trkpt>
      <trkpt lat="28.4380020" lon="-16.4041600">
        <ele>1059.9</ele>
        <time>2020-11-11T11:36:43Z</time>
      </trkpt>
      <trkpt lat="28.4379650" lon="-16.4041650">
        <ele>1060.9</ele>
        <time>2020-11-11T11:36:44Z</time>
      </trkpt>
      <trkpt lat="28.4379650" lon="-16.4041650">
        <ele>1060.9</ele>
        <time>2020-11-11T11:36:45Z</time>
      </trkpt>
      <trkpt lat="28.4378830" lon="-16.4041680">
        <ele>1060.9</ele>
        <time>2020-11-11T11:36:46Z</time>
      </trkpt>
      <trkpt lat="28.4378830" lon="-16.4041680">
        <ele>1060.9</ele>
        <time>2020-11-11T11:36:47Z</time>
      </trkpt>
      <trkpt lat="28.4378420" lon="-16.4041650">
        <ele>1060.9</ele>
        <time>2020-11-11T11:36:48Z</time>
      </trkpt>
      <trkpt lat="28.4378250" lon="-16.4041550">
        <ele>1060.9</ele>
        <time>2020-11-11T11:36:49Z</time>
      </trkpt>
      <trkpt lat="28.4378250" lon="-16.4041550">
        <ele>1061.9</ele>
        <time>2020-11-11T11:36:50Z</time>
      </trkpt>
      <trkpt lat="28.4377930" lon="-16.4041420">
        <ele>1061.9</ele>
        <time>2020-11-11T11:36:51Z</time>
      </trkpt>
      <trkpt lat="28.4377930" lon="-16.4041420">
        <ele>1061.9</ele>
        <time>2020-11-11T11:36:52Z</time>
      </trkpt>
      <trkpt lat="28.4377480" lon="-16.4041570">
        <ele>1061.9</ele>
        <time>2020-11-11T11:36:53Z</time>
      </trkpt>
      <trkpt lat="28.4377280" lon="-16.4041580">
        <ele>1061.9</ele>
        <time>2020-11-11T11:36:54Z</time>
      </trkpt>
      <trkpt lat="28.4376980" lon="-16.4041720">
        <ele>1063.9</ele>
        <time>2020-11-11T11:36:55Z</time>
      </trkpt>
      <trkpt lat="28.4376980" lon="-16.4041720">
        <ele>1063.9</ele>
        <time>2020-11-11T11:36:56Z</time>
      </trkpt>
      <trkpt lat="28.4376620" lon="-16.4041750">
        <ele>1063.9</ele>
        <time>2020-11-11T11:36:57Z</time>
      </trkpt>
      <trkpt lat="28.4376620" lon="-16.4041750">
        <ele>1063.9</ele>
        <time>2020-11-11T11:36:58Z</time>
      </trkpt>
      <trkpt lat="28.4376380" lon="-16.4041550">
        <ele>1063.9</ele>
        <time>2020-11-11T11:36:59Z</time>
      </trkpt>
      <trkpt lat="28.4376380" lon="-16.4041550">
        <ele>1064.9</ele>
        <time>2020-11-11T11:37:00Z</time>
      </trkpt>
      <trkpt lat="28.4375970" lon="-16.4041630">
        <ele>1064.9</ele>
        <time>2020-11-11T11:37:01Z</time>
      </trkpt>
      <trkpt lat="28.4375970" lon="-16.4041630">
        <ele>1064.9</ele>
        <time>2020-11-11T11:37:02Z</time>
      </trkpt>
      <trkpt lat="28.4375620" lon="-16.4041770">
        <ele>1065.9</ele>
        <time>2020-11-11T11:37:03Z</time>
      </trkpt>
      <trkpt lat="28.4375620" lon="-16.4041770">
        <ele>1065.9</ele>
        <time>2020-11-11T11:37:04Z</time>
      </trkpt>
      <trkpt lat="28.4375180" lon="-16.4041950">
        <ele>1065.9</ele>
        <time>2020-11-11T11:37:05Z</time>
      </trkpt>
      <trkpt lat="28.4375180" lon="-16.4041950">
        <ele>1065.9</ele>
        <time>2020-11-11T11:37:06Z</time>
      </trkpt>
      <trkpt lat="28.4374870" lon="-16.4041980">
        <ele>1066.9</ele>
        <time>2020-11-11T11:37:07Z</time>
      </trkpt>
      <trkpt lat="28.4374870" lon="-16.4041980">
        <ele>1066.9</ele>
        <time>2020-11-11T11:37:08Z</time>
      </trkpt>
      <trkpt lat="28.4374420" lon="-16.4042100">
        <ele>1066.9</ele>
        <time>2020-11-11T11:37:09Z</time>
      </trkpt>
      <trkpt lat="28.4374420" lon="-16.4042100">
        <ele>1066.9</ele>
        <time>2020-11-11T11:37:10Z</time>
      </trkpt>
      <trkpt lat="28.4373920" lon="-16.4042220">
        <ele>1067.9</ele>
        <time>2020-11-11T11:37:11Z</time>
      </trkpt>
      <trkpt lat="28.4373920" lon="-16.4042220">
        <ele>1067.9</ele>
        <time>2020-11-11T11:37:12Z</time>
      </trkpt>
      <trkpt lat="28.4373500" lon="-16.4042350">
        <ele>1067.9</ele>
        <time>2020-11-11T11:37:13Z</time>
      </trkpt>
      <trkpt lat="28.4373430" lon="-16.4042480">
        <ele>1067.9</ele>
        <time>2020-11-11T11:37:14Z</time>
      </trkpt>
      <trkpt lat="28.4373430" lon="-16.4042480">
        <ele>1068.9</ele>
        <time>2020-11-11T11:37:15Z</time>
      </trkpt>
      <trkpt lat="28.4373300" lon="-16.4042750">
        <ele>1068.9</ele>
        <time>2020-11-11T11:37:16Z</time>
      </trkpt>
      <trkpt lat="28.4373300" lon="-16.4042750">
        <ele>1068.9</ele>
        <time>2020-11-11T11:37:17Z</time>
      </trkpt>
      <trkpt lat="28.4373280" lon="-16.4042970">
        <ele>1068.9</ele>
        <time>2020-11-11T11:37:18Z</time>
      </trkpt>
      <trkpt lat="28.4373280" lon="-16.4042970">
        <ele>1068.9</ele>
        <time>2020-11-11T11:37:19Z</time>
      </trkpt>
      <trkpt lat="28.4373220" lon="-16.4043430">
        <ele>1068.9</ele>
        <time>2020-11-11T11:37:20Z</time>
      </trkpt>
      <trkpt lat="28.4373200" lon="-16.4043700">
        <ele>1068.9</ele>
        <time>2020-11-11T11:37:21Z</time>
      </trkpt>
      <trkpt lat="28.4373200" lon="-16.4043700">
        <ele>1068.9</ele>
        <time>2020-11-11T11:37:22Z</time>
      </trkpt>
      <trkpt lat="28.4373070" lon="-16.4044180">
        <ele>1068.9</ele>
        <time>2020-11-11T11:37:23Z</time>
      </trkpt>
      <trkpt lat="28.4373070" lon="-16.4044180">
        <ele>1068.9</ele>
        <time>2020-11-11T11:37:24Z</time>
      </trkpt>
      <trkpt lat="28.4372970" lon="-16.4044650">
        <ele>1068.9</ele>
        <time>2020-11-11T11:37:25Z</time>
      </trkpt>
      <trkpt lat="28.4372970" lon="-16.4044650">
        <ele>1068.9</ele>
        <time>2020-11-11T11:37:26Z</time>
      </trkpt>
      <trkpt lat="28.4372970" lon="-16.4045320">
        <ele>1067.9</ele>
        <time>2020-11-11T11:37:27Z</time>
      </trkpt>
      <trkpt lat="28.4372970" lon="-16.4045320">
        <ele>1067.9</ele>
        <time>2020-11-11T11:37:28Z</time>
      </trkpt>
      <trkpt lat="28.4372950" lon="-16.4045920">
        <ele>1067.9</ele>
        <time>2020-11-11T11:37:29Z</time>
      </trkpt>
      <trkpt lat="28.4372950" lon="-16.4045920">
        <ele>1067.9</ele>
        <time>2020-11-11T11:37:30Z</time>
      </trkpt>
      <trkpt lat="28.4372880" lon="-16.4046430">
        <ele>1067.9</ele>
        <time>2020-11-11T11:37:31Z</time>
      </trkpt>
      <trkpt lat="28.4372880" lon="-16.4046430">
        <ele>1067.9</ele>
        <time>2020-11-11T11:37:32Z</time>
      </trkpt>
      <trkpt lat="28.4372980" lon="-16.4046950">
        <ele>1067.9</ele>
        <time>2020-11-11T11:37:33Z</time>
      </trkpt>
      <trkpt lat="28.4373000" lon="-16.4047230">
        <ele>1067.9</ele>
        <time>2020-11-11T11:37:34Z</time>
      </trkpt>
      <trkpt lat="28.4373000" lon="-16.4047230">
        <ele>1067.9</ele>
        <time>2020-11-11T11:37:35Z</time>
      </trkpt>
      <trkpt lat="28.4373080" lon="-16.4047830">
        <ele>1067.9</ele>
        <time>2020-11-11T11:37:36Z</time>
      </trkpt>
      <trkpt lat="28.4373080" lon="-16.4047830">
        <ele>1067.9</ele>
        <time>2020-11-11T11:37:37Z</time>
      </trkpt>
      <trkpt lat="28.4373120" lon="-16.4048500">
        <ele>1067.9</ele>
        <time>2020-11-11T11:37:38Z</time>
      </trkpt>
      <trkpt lat="28.4373120" lon="-16.4048920">
        <ele>1067.9</ele>
        <time>2020-11-11T11:37:39Z</time>
      </trkpt>
      <trkpt lat="28.4373120" lon="-16.4048920">
        <ele>1067.9</ele>
        <time>2020-11-11T11:37:40Z</time>
      </trkpt>
      <trkpt lat="28.4373220" lon="-16.4049930">
        <ele>1066.9</ele>
        <time>2020-11-11T11:37:41Z</time>
      </trkpt>
      <trkpt lat="28.4373220" lon="-16.4049930">
        <ele>1066.9</ele>
        <time>2020-11-11T11:37:42Z</time>
      </trkpt>
      <trkpt lat="28.4373080" lon="-16.4050800">
        <ele>1066.9</ele>
        <time>2020-11-11T11:37:43Z</time>
      </trkpt>
      <trkpt lat="28.4373080" lon="-16.4050800">
        <ele>1066.9</ele>
        <time>2020-11-11T11:37:44Z</time>
      </trkpt>
      <trkpt lat="28.4372980" lon="-16.4051580">
        <ele>1066.9</ele>
        <time>2020-11-11T11:37:45Z</time>
      </trkpt>
      <trkpt lat="28.4372980" lon="-16.4051580">
        <ele>1066.9</ele>
        <time>2020-11-11T11:37:46Z</time>
      </trkpt>
      <trkpt lat="28.4372730" lon="-16.4052880">
        <ele>1066.9</ele>
        <time>2020-11-11T11:37:47Z</time>
      </trkpt>
      <trkpt lat="28.4372750" lon="-16.4053420">
        <ele>1066.9</ele>
        <time>2020-11-11T11:37:48Z</time>
      </trkpt>
      <trkpt lat="28.4372750" lon="-16.4053420">
        <ele>1066.9</ele>
        <time>2020-11-11T11:37:49Z</time>
      </trkpt>
      <trkpt lat="28.4372650" lon="-16.4054470">
        <ele>1066.9</ele>
        <time>2020-11-11T11:37:50Z</time>
      </trkpt>
      <trkpt lat="28.4372650" lon="-16.4054470">
        <ele>1066.9</ele>
        <time>2020-11-11T11:37:51Z</time>
      </trkpt>
      <trkpt lat="28.4372530" lon="-16.4055280">
        <ele>1066.9</ele>
        <time>2020-11-11T11:37:52Z</time>
      </trkpt>
      <trkpt lat="28.4372530" lon="-16.4055280">
        <ele>1066.9</ele>
        <time>2020-11-11T11:37:53Z</time>
      </trkpt>
      <trkpt lat="28.4372770" lon="-16.4056380">
        <ele>1066.9</ele>
        <time>2020-11-11T11:37:54Z</time>
      </trkpt>
      <trkpt lat="28.4372680" lon="-16.4056870">
        <ele>1066.9</ele>
        <time>2020-11-11T11:37:55Z</time>
      </trkpt>
      <trkpt lat="28.4372680" lon="-16.4056870">
        <ele>1066.9</ele>
        <time>2020-11-11T11:37:56Z</time>
      </trkpt>
      <trkpt lat="28.4372750" lon="-16.4057650">
        <ele>1066.9</ele>
        <time>2020-11-11T11:37:57Z</time>
      </trkpt>
      <trkpt lat="28.4372750" lon="-16.4057650">
        <ele>1066.9</ele>
        <time>2020-11-11T11:37:58Z</time>
      </trkpt>
      <trkpt lat="28.4372880" lon="-16.4058380">
        <ele>1066.9</ele>
        <time>2020-11-11T11:37:59Z</time>
      </trkpt>
      <trkpt lat="28.4372880" lon="-16.4058380">
        <ele>1066.9</ele>
        <time>2020-11-11T11:38:00Z</time>
      </trkpt>
      <trkpt lat="28.4373070" lon="-16.4059500">
        <ele>1066.9</ele>
        <time>2020-11-11T11:38:01Z</time>
      </trkpt>
      <trkpt lat="28.4373070" lon="-16.4059500">
        <ele>1066.9</ele>
        <time>2020-11-11T11:38:02Z</time>
      </trkpt>
      <trkpt lat="28.4373030" lon="-16.4060630">
        <ele>1066.9</ele>
        <time>2020-11-11T11:38:03Z</time>
      </trkpt>
      <trkpt lat="28.4373030" lon="-16.4060630">
        <ele>1066.9</ele>
        <time>2020-11-11T11:38:04Z</time>
      </trkpt>
      <trkpt lat="28.4372670" lon="-16.4061600">
        <ele>1066.9</ele>
        <time>2020-11-11T11:38:05Z</time>
      </trkpt>
      <trkpt lat="28.4372480" lon="-16.4061950">
        <ele>1066.9</ele>
        <time>2020-11-11T11:38:06Z</time>
      </trkpt>
      <trkpt lat="28.4372480" lon="-16.4061950">
        <ele>1066.9</ele>
        <time>2020-11-11T11:38:07Z</time>
      </trkpt>
      <trkpt lat="28.4372020" lon="-16.4062700">
        <ele>1067.9</ele>
        <time>2020-11-11T11:38:08Z</time>
      </trkpt>
      <trkpt lat="28.4372020" lon="-16.4062700">
        <ele>1067.9</ele>
        <time>2020-11-11T11:38:09Z</time>
      </trkpt>
      <trkpt lat="28.4371500" lon="-16.4063380">
        <ele>1067.9</ele>
        <time>2020-11-11T11:38:10Z</time>
      </trkpt>
      <trkpt lat="28.4371280" lon="-16.4063730">
        <ele>1067.9</ele>
        <time>2020-11-11T11:38:11Z</time>
      </trkpt>
      <trkpt lat="28.4371280" lon="-16.4063730">
        <ele>1067.9</ele>
        <time>2020-11-11T11:38:12Z</time>
      </trkpt>
      <trkpt lat="28.4370700" lon="-16.4064620">
        <ele>1067.9</ele>
        <time>2020-11-11T11:38:13Z</time>
      </trkpt>
      <trkpt lat="28.4370700" lon="-16.4064620">
        <ele>1067.9</ele>
        <time>2020-11-11T11:38:14Z</time>
      </trkpt>
      <trkpt lat="28.4370320" lon="-16.4065380">
        <ele>1067.9</ele>
        <time>2020-11-11T11:38:15Z</time>
      </trkpt>
      <trkpt lat="28.4370180" lon="-16.4065750">
        <ele>1067.9</ele>
        <time>2020-11-11T11:38:16Z</time>
      </trkpt>
      <trkpt lat="28.4370180" lon="-16.4065750">
        <ele>1067.9</ele>
        <time>2020-11-11T11:38:17Z</time>
      </trkpt>
      <trkpt lat="28.4369930" lon="-16.4066550">
        <ele>1067.9</ele>
        <time>2020-11-11T11:38:18Z</time>
      </trkpt>
      <trkpt lat="28.4369720" lon="-16.4066970">
        <ele>1067.9</ele>
        <time>2020-11-11T11:38:19Z</time>
      </trkpt>
      <trkpt lat="28.4369720" lon="-16.4066970">
        <ele>1067.9</ele>
        <time>2020-11-11T11:38:20Z</time>
      </trkpt>
      <trkpt lat="28.4369250" lon="-16.4067800">
        <ele>1067.9</ele>
        <time>2020-11-11T11:38:21Z</time>
      </trkpt>
      <trkpt lat="28.4368930" lon="-16.4068200">
        <ele>1066.9</ele>
        <time>2020-11-11T11:38:22Z</time>
      </trkpt>
      <trkpt lat="28.4368930" lon="-16.4068200">
        <ele>1066.9</ele>
        <time>2020-11-11T11:38:23Z</time>
      </trkpt>
      <trkpt lat="28.4368180" lon="-16.4069030">
        <ele>1066.9</ele>
        <time>2020-11-11T11:38:24Z</time>
      </trkpt>
      <trkpt lat="28.4367870" lon="-16.4069270">
        <ele>1066.9</ele>
        <time>2020-11-11T11:38:25Z</time>
      </trkpt>
      <trkpt lat="28.4367870" lon="-16.4069270">
        <ele>1066.9</ele>
        <time>2020-11-11T11:38:26Z</time>
      </trkpt>
      <trkpt lat="28.4367150" lon="-16.4069750">
        <ele>1066.9</ele>
        <time>2020-11-11T11:38:27Z</time>
      </trkpt>
      <trkpt lat="28.4367150" lon="-16.4069750">
        <ele>1066.9</ele>
        <time>2020-11-11T11:38:28Z</time>
      </trkpt>
      <trkpt lat="28.4366330" lon="-16.4070050">
        <ele>1066.9</ele>
        <time>2020-11-11T11:38:29Z</time>
      </trkpt>
      <trkpt lat="28.4366330" lon="-16.4070050">
        <ele>1066.9</ele>
        <time>2020-11-11T11:38:30Z</time>
      </trkpt>
      <trkpt lat="28.4365520" lon="-16.4070550">
        <ele>1066.9</ele>
        <time>2020-11-11T11:38:31Z</time>
      </trkpt>
      <trkpt lat="28.4365520" lon="-16.4070550">
        <ele>1066.9</ele>
        <time>2020-11-11T11:38:32Z</time>
      </trkpt>
      <trkpt lat="28.4364800" lon="-16.4071280">
        <ele>1066.9</ele>
        <time>2020-11-11T11:38:33Z</time>
      </trkpt>
      <trkpt lat="28.4364800" lon="-16.4071280">
        <ele>1066.9</ele>
        <time>2020-11-11T11:38:34Z</time>
      </trkpt>
      <trkpt lat="28.4364170" lon="-16.4072000">
        <ele>1066.9</ele>
        <time>2020-11-11T11:38:35Z</time>
      </trkpt>
      <trkpt lat="28.4363970" lon="-16.4072430">
        <ele>1066.9</ele>
        <time>2020-11-11T11:38:36Z</time>
      </trkpt>
      <trkpt lat="28.4363970" lon="-16.4072430">
        <ele>1066.9</ele>
        <time>2020-11-11T11:38:37Z</time>
      </trkpt>
      <trkpt lat="28.4363630" lon="-16.4073180">
        <ele>1066.9</ele>
        <time>2020-11-11T11:38:38Z</time>
      </trkpt>
      <trkpt lat="28.4363630" lon="-16.4073180">
        <ele>1066.9</ele>
        <time>2020-11-11T11:38:39Z</time>
      </trkpt>
      <trkpt lat="28.4363450" lon="-16.4073900">
        <ele>1066.9</ele>
        <time>2020-11-11T11:38:40Z</time>
      </trkpt>
      <trkpt lat="28.4363450" lon="-16.4073900">
        <ele>1066.9</ele>
        <time>2020-11-11T11:38:41Z</time>
      </trkpt>
      <trkpt lat="28.4363350" lon="-16.4074650">
        <ele>1066.9</ele>
        <time>2020-11-11T11:38:42Z</time>
      </trkpt>
      <trkpt lat="28.4363280" lon="-16.4075150">
        <ele>1066.9</ele>
        <time>2020-11-11T11:38:43Z</time>
      </trkpt>
      <trkpt lat="28.4363280" lon="-16.4075150">
        <ele>1066.9</ele>
        <time>2020-11-11T11:38:44Z</time>
      </trkpt>
      <trkpt lat="28.4363120" lon="-16.4076030">
        <ele>1066.9</ele>
        <time>2020-11-11T11:38:45Z</time>
      </trkpt>
      <trkpt lat="28.4363120" lon="-16.4076030">
        <ele>1066.9</ele>
        <time>2020-11-11T11:38:46Z</time>
      </trkpt>
      <trkpt lat="28.4362900" lon="-16.4077050">
        <ele>1066.9</ele>
        <time>2020-11-11T11:38:47Z</time>
      </trkpt>
      <trkpt lat="28.4362900" lon="-16.4077050">
        <ele>1066.9</ele>
        <time>2020-11-11T11:38:48Z</time>
      </trkpt>
      <trkpt lat="28.4362600" lon="-16.4077950">
        <ele>1066.9</ele>
        <time>2020-11-11T11:38:49Z</time>
      </trkpt>
      <trkpt lat="28.4362600" lon="-16.4077950">
        <ele>1066.9</ele>
        <time>2020-11-11T11:38:50Z</time>
      </trkpt>
      <trkpt lat="28.4362100" lon="-16.4078970">
        <ele>1066.9</ele>
        <time>2020-11-11T11:38:51Z</time>
      </trkpt>
      <trkpt lat="28.4362050" lon="-16.4079400">
        <ele>1066.9</ele>
        <time>2020-11-11T11:38:52Z</time>
      </trkpt>
      <trkpt lat="28.4362050" lon="-16.4079400">
        <ele>1066.9</ele>
        <time>2020-11-11T11:38:53Z</time>
      </trkpt>
      <trkpt lat="28.4361950" lon="-16.4080180">
        <ele>1066.9</ele>
        <time>2020-11-11T11:38:54Z</time>
      </trkpt>
      <trkpt lat="28.4361920" lon="-16.4080570">
        <ele>1066.9</ele>
        <time>2020-11-11T11:38:55Z</time>
      </trkpt>
      <trkpt lat="28.4361920" lon="-16.4080570">
        <ele>1066.9</ele>
        <time>2020-11-11T11:38:56Z</time>
      </trkpt>
      <trkpt lat="28.4361720" lon="-16.4081680">
        <ele>1065.9</ele>
        <time>2020-11-11T11:38:57Z</time>
      </trkpt>
      <trkpt lat="28.4361720" lon="-16.4081680">
        <ele>1065.9</ele>
        <time>2020-11-11T11:38:58Z</time>
      </trkpt>
      <trkpt lat="28.4361750" lon="-16.4082480">
        <ele>1065.9</ele>
        <time>2020-11-11T11:38:59Z</time>
      </trkpt>
      <trkpt lat="28.4361750" lon="-16.4082480">
        <ele>1065.9</ele>
        <time>2020-11-11T11:39:00Z</time>
      </trkpt>
      <trkpt lat="28.4361480" lon="-16.4083400">
        <ele>1065.9</ele>
        <time>2020-11-11T11:39:01Z</time>
      </trkpt>
      <trkpt lat="28.4361480" lon="-16.4083400">
        <ele>1065.9</ele>
        <time>2020-11-11T11:39:02Z</time>
      </trkpt>
      <trkpt lat="28.4360980" lon="-16.4084170">
        <ele>1065.9</ele>
        <time>2020-11-11T11:39:03Z</time>
      </trkpt>
      <trkpt lat="28.4360980" lon="-16.4084170">
        <ele>1065.9</ele>
        <time>2020-11-11T11:39:04Z</time>
      </trkpt>
      <trkpt lat="28.4360050" lon="-16.4085230">
        <ele>1065.9</ele>
        <time>2020-11-11T11:39:05Z</time>
      </trkpt>
      <trkpt lat="28.4360050" lon="-16.4085230">
        <ele>1065.9</ele>
        <time>2020-11-11T11:39:06Z</time>
      </trkpt>
      <trkpt lat="28.4359130" lon="-16.4086180">
        <ele>1065.9</ele>
        <time>2020-11-11T11:39:07Z</time>
      </trkpt>
      <trkpt lat="28.4359130" lon="-16.4086180">
        <ele>1065.9</ele>
        <time>2020-11-11T11:39:08Z</time>
      </trkpt>
      <trkpt lat="28.4358470" lon="-16.4086970">
        <ele>1065.9</ele>
        <time>2020-11-11T11:39:09Z</time>
      </trkpt>
      <trkpt lat="28.4358470" lon="-16.4086970">
        <ele>1065.9</ele>
        <time>2020-11-11T11:39:10Z</time>
      </trkpt>
      <trkpt lat="28.4357850" lon="-16.4087850">
        <ele>1065.9</ele>
        <time>2020-11-11T11:39:11Z</time>
      </trkpt>
      <trkpt lat="28.4357620" lon="-16.4088350">
        <ele>1065.9</ele>
        <time>2020-11-11T11:39:12Z</time>
      </trkpt>
      <trkpt lat="28.4357620" lon="-16.4088350">
        <ele>1065.9</ele>
        <time>2020-11-11T11:39:13Z</time>
      </trkpt>
      <trkpt lat="28.4356900" lon="-16.4089230">
        <ele>1065.9</ele>
        <time>2020-11-11T11:39:14Z</time>
      </trkpt>
      <trkpt lat="28.4356900" lon="-16.4089230">
        <ele>1065.9</ele>
        <time>2020-11-11T11:39:15Z</time>
      </trkpt>
      <trkpt lat="28.4356050" lon="-16.4089970">
        <ele>1065.9</ele>
        <time>2020-11-11T11:39:16Z</time>
      </trkpt>
      <trkpt lat="28.4355600" lon="-16.4090250">
        <ele>1066.9</ele>
        <time>2020-11-11T11:39:17Z</time>
      </trkpt>
      <trkpt lat="28.4355120" lon="-16.4090500">
        <ele>1066.9</ele>
        <time>2020-11-11T11:39:18Z</time>
      </trkpt>
      <trkpt lat="28.4355120" lon="-16.4090500">
        <ele>1066.9</ele>
        <time>2020-11-11T11:39:19Z</time>
      </trkpt>
      <trkpt lat="28.4354100" lon="-16.4090650">
        <ele>1066.9</ele>
        <time>2020-11-11T11:39:20Z</time>
      </trkpt>
      <trkpt lat="28.4353650" lon="-16.4090570">
        <ele>1066.9</ele>
        <time>2020-11-11T11:39:21Z</time>
      </trkpt>
      <trkpt lat="28.4353650" lon="-16.4090570">
        <ele>1066.9</ele>
        <time>2020-11-11T11:39:22Z</time>
      </trkpt>
      <trkpt lat="28.4352680" lon="-16.4090420">
        <ele>1066.9</ele>
        <time>2020-11-11T11:39:23Z</time>
      </trkpt>
      <trkpt lat="28.4352200" lon="-16.4090400">
        <ele>1066.9</ele>
        <time>2020-11-11T11:39:24Z</time>
      </trkpt>
      <trkpt lat="28.4352200" lon="-16.4090400">
        <ele>1066.9</ele>
        <time>2020-11-11T11:39:25Z</time>
      </trkpt>
      <trkpt lat="28.4351350" lon="-16.4090700">
        <ele>1066.9</ele>
        <time>2020-11-11T11:39:26Z</time>
      </trkpt>
      <trkpt lat="28.4351350" lon="-16.4090700">
        <ele>1066.9</ele>
        <time>2020-11-11T11:39:27Z</time>
      </trkpt>
      <trkpt lat="28.4350700" lon="-16.4091200">
        <ele>1066.9</ele>
        <time>2020-11-11T11:39:28Z</time>
      </trkpt>
      <trkpt lat="28.4350700" lon="-16.4091200">
        <ele>1066.9</ele>
        <time>2020-11-11T11:39:29Z</time>
      </trkpt>
      <trkpt lat="28.4350170" lon="-16.4091780">
        <ele>1066.9</ele>
        <time>2020-11-11T11:39:30Z</time>
      </trkpt>
      <trkpt lat="28.4349830" lon="-16.4092050">
        <ele>1066.9</ele>
        <time>2020-11-11T11:39:31Z</time>
      </trkpt>
      <trkpt lat="28.4349830" lon="-16.4092050">
        <ele>1066.9</ele>
        <time>2020-11-11T11:39:32Z</time>
      </trkpt>
      <trkpt lat="28.4349220" lon="-16.4092700">
        <ele>1066.9</ele>
        <time>2020-11-11T11:39:33Z</time>
      </trkpt>
      <trkpt lat="28.4349220" lon="-16.4092700">
        <ele>1066.9</ele>
        <time>2020-11-11T11:39:34Z</time>
      </trkpt>
      <trkpt lat="28.4348700" lon="-16.4093350">
        <ele>1066.9</ele>
        <time>2020-11-11T11:39:35Z</time>
      </trkpt>
      <trkpt lat="28.4348700" lon="-16.4093350">
        <ele>1066.9</ele>
        <time>2020-11-11T11:39:36Z</time>
      </trkpt>
      <trkpt lat="28.4348150" lon="-16.4093980">
        <ele>1066.9</ele>
        <time>2020-11-11T11:39:37Z</time>
      </trkpt>
      <trkpt lat="28.4348150" lon="-16.4093980">
        <ele>1066.9</ele>
        <time>2020-11-11T11:39:38Z</time>
      </trkpt>
      <trkpt lat="28.4347550" lon="-16.4094580">
        <ele>1066.9</ele>
        <time>2020-11-11T11:39:39Z</time>
      </trkpt>
      <trkpt lat="28.4347550" lon="-16.4094580">
        <ele>1066.9</ele>
        <time>2020-11-11T11:39:40Z</time>
      </trkpt>
      <trkpt lat="28.4346930" lon="-16.4095250">
        <ele>1066.9</ele>
        <time>2020-11-11T11:39:41Z</time>
      </trkpt>
      <trkpt lat="28.4346570" lon="-16.4095500">
        <ele>1066.9</ele>
        <time>2020-11-11T11:39:42Z</time>
      </trkpt>
      <trkpt lat="28.4346570" lon="-16.4095500">
        <ele>1066.9</ele>
        <time>2020-11-11T11:39:43Z</time>
      </trkpt>
      <trkpt lat="28.4346120" lon="-16.4096020">
        <ele>1066.9</ele>
        <time>2020-11-11T11:39:44Z</time>
      </trkpt>
      <trkpt lat="28.4346120" lon="-16.4096020">
        <ele>1066.9</ele>
        <time>2020-11-11T11:39:45Z</time>
      </trkpt>
      <trkpt lat="28.4345820" lon="-16.4096700">
        <ele>1066.9</ele>
        <time>2020-11-11T11:39:46Z</time>
      </trkpt>
      <trkpt lat="28.4345600" lon="-16.4096980">
        <ele>1066.9</ele>
        <time>2020-11-11T11:39:47Z</time>
      </trkpt>
      <trkpt lat="28.4345600" lon="-16.4096980">
        <ele>1066.9</ele>
        <time>2020-11-11T11:39:48Z</time>
      </trkpt>
      <trkpt lat="28.4344920" lon="-16.4098270">
        <ele>1066.9</ele>
        <time>2020-11-11T11:39:49Z</time>
      </trkpt>
      <trkpt lat="28.4344920" lon="-16.4098270">
        <ele>1066.9</ele>
        <time>2020-11-11T11:39:50Z</time>
      </trkpt>
      <trkpt lat="28.4344120" lon="-16.4099600">
        <ele>1066.9</ele>
        <time>2020-11-11T11:39:51Z</time>
      </trkpt>
      <trkpt lat="28.4344120" lon="-16.4099600">
        <ele>1066.9</ele>
        <time>2020-11-11T11:39:52Z</time>
      </trkpt>
      <trkpt lat="28.4343520" lon="-16.4100530">
        <ele>1066.9</ele>
        <time>2020-11-11T11:39:53Z</time>
      </trkpt>
      <trkpt lat="28.4343520" lon="-16.4100530">
        <ele>1066.9</ele>
        <time>2020-11-11T11:39:54Z</time>
      </trkpt>
      <trkpt lat="28.4342820" lon="-16.4101650">
        <ele>1066.9</ele>
        <time>2020-11-11T11:39:55Z</time>
      </trkpt>
      <trkpt lat="28.4342820" lon="-16.4101650">
        <ele>1066.9</ele>
        <time>2020-11-11T11:39:56Z</time>
      </trkpt>
      <trkpt lat="28.4342500" lon="-16.4102520">
        <ele>1066.9</ele>
        <time>2020-11-11T11:39:57Z</time>
      </trkpt>
      <trkpt lat="28.4342420" lon="-16.4102900">
        <ele>1066.9</ele>
        <time>2020-11-11T11:39:58Z</time>
      </trkpt>
      <trkpt lat="28.4342420" lon="-16.4102900">
        <ele>1066.9</ele>
        <time>2020-11-11T11:39:59Z</time>
      </trkpt>
      <trkpt lat="28.4342200" lon="-16.4103580">
        <ele>1066.9</ele>
        <time>2020-11-11T11:40:00Z</time>
      </trkpt>
      <trkpt lat="28.4342220" lon="-16.4103900">
        <ele>1066.9</ele>
        <time>2020-11-11T11:40:01Z</time>
      </trkpt>
      <trkpt lat="28.4342220" lon="-16.4103900">
        <ele>1066.9</ele>
        <time>2020-11-11T11:40:02Z</time>
      </trkpt>
      <trkpt lat="28.4342080" lon="-16.4104700">
        <ele>1066.9</ele>
        <time>2020-11-11T11:40:03Z</time>
      </trkpt>
      <trkpt lat="28.4342080" lon="-16.4104700">
        <ele>1066.9</ele>
        <time>2020-11-11T11:40:04Z</time>
      </trkpt>
      <trkpt lat="28.4342180" lon="-16.4105250">
        <ele>1066.9</ele>
        <time>2020-11-11T11:40:05Z</time>
      </trkpt>
      <trkpt lat="28.4342180" lon="-16.4105250">
        <ele>1067.9</ele>
        <time>2020-11-11T11:40:06Z</time>
      </trkpt>
      <trkpt lat="28.4342070" lon="-16.4106020">
        <ele>1067.9</ele>
        <time>2020-11-11T11:40:07Z</time>
      </trkpt>
      <trkpt lat="28.4342070" lon="-16.4106770">
        <ele>1067.9</ele>
        <time>2020-11-11T11:40:08Z</time>
      </trkpt>
      <trkpt lat="28.4342070" lon="-16.4106770">
        <ele>1067.9</ele>
        <time>2020-11-11T11:40:09Z</time>
      </trkpt>
      <trkpt lat="28.4342020" lon="-16.4107630">
        <ele>1067.9</ele>
        <time>2020-11-11T11:40:10Z</time>
      </trkpt>
      <trkpt lat="28.4342050" lon="-16.4107920">
        <ele>1067.9</ele>
        <time>2020-11-11T11:40:11Z</time>
      </trkpt>
      <trkpt lat="28.4342050" lon="-16.4107920">
        <ele>1067.9</ele>
        <time>2020-11-11T11:40:12Z</time>
      </trkpt>
      <trkpt lat="28.4342180" lon="-16.4108620">
        <ele>1067.9</ele>
        <time>2020-11-11T11:40:13Z</time>
      </trkpt>
      <trkpt lat="28.4342420" lon="-16.4109400">
        <ele>1067.9</ele>
        <time>2020-11-11T11:40:14Z</time>
      </trkpt>
      <trkpt lat="28.4342420" lon="-16.4109400">
        <ele>1067.9</ele>
        <time>2020-11-11T11:40:15Z</time>
      </trkpt>
      <trkpt lat="28.4342500" lon="-16.4110880">
        <ele>1068.9</ele>
        <time>2020-11-11T11:40:16Z</time>
      </trkpt>
      <trkpt lat="28.4342500" lon="-16.4111780">
        <ele>1068.9</ele>
        <time>2020-11-11T11:40:17Z</time>
      </trkpt>
      <trkpt lat="28.4342500" lon="-16.4111780">
        <ele>1068.9</ele>
        <time>2020-11-11T11:40:18Z</time>
      </trkpt>
      <trkpt lat="28.4342580" lon="-16.4113180">
        <ele>1068.9</ele>
        <time>2020-11-11T11:40:19Z</time>
      </trkpt>
      <trkpt lat="28.4342580" lon="-16.4113180">
        <ele>1068.9</ele>
        <time>2020-11-11T11:40:20Z</time>
      </trkpt>
      <trkpt lat="28.4342680" lon="-16.4114920">
        <ele>1068.9</ele>
        <time>2020-11-11T11:40:21Z</time>
      </trkpt>
      <trkpt lat="28.4342680" lon="-16.4114920">
        <ele>1068.9</ele>
        <time>2020-11-11T11:40:22Z</time>
      </trkpt>
      <trkpt lat="28.4342750" lon="-16.4117080">
        <ele>1068.9</ele>
        <time>2020-11-11T11:40:23Z</time>
      </trkpt>
      <trkpt lat="28.4342750" lon="-16.4117080">
        <ele>1068.9</ele>
        <time>2020-11-11T11:40:24Z</time>
      </trkpt>
      <trkpt lat="28.4342730" lon="-16.4118520">
        <ele>1068.9</ele>
        <time>2020-11-11T11:40:25Z</time>
      </trkpt>
      <trkpt lat="28.4342730" lon="-16.4118520">
        <ele>1068.9</ele>
        <time>2020-11-11T11:40:26Z</time>
      </trkpt>
      <trkpt lat="28.4342670" lon="-16.4119850">
        <ele>1068.9</ele>
        <time>2020-11-11T11:40:27Z</time>
      </trkpt>
      <trkpt lat="28.4342720" lon="-16.4120400">
        <ele>1067.9</ele>
        <time>2020-11-11T11:40:28Z</time>
      </trkpt>
      <trkpt lat="28.4342720" lon="-16.4120400">
        <ele>1067.9</ele>
        <time>2020-11-11T11:40:29Z</time>
      </trkpt>
      <trkpt lat="28.4342730" lon="-16.4121620">
        <ele>1067.9</ele>
        <time>2020-11-11T11:40:30Z</time>
      </trkpt>
      <trkpt lat="28.4342730" lon="-16.4121620">
        <ele>1067.9</ele>
        <time>2020-11-11T11:40:31Z</time>
      </trkpt>
      <trkpt lat="28.4342830" lon="-16.4122680">
        <ele>1067.9</ele>
        <time>2020-11-11T11:40:32Z</time>
      </trkpt>
      <trkpt lat="28.4342880" lon="-16.4123200">
        <ele>1067.9</ele>
        <time>2020-11-11T11:40:33Z</time>
      </trkpt>
      <trkpt lat="28.4342880" lon="-16.4123200">
        <ele>1067.9</ele>
        <time>2020-11-11T11:40:34Z</time>
      </trkpt>
      <trkpt lat="28.4342920" lon="-16.4124470">
        <ele>1067.9</ele>
        <time>2020-11-11T11:40:35Z</time>
      </trkpt>
      <trkpt lat="28.4342920" lon="-16.4124470">
        <ele>1067.9</ele>
        <time>2020-11-11T11:40:36Z</time>
      </trkpt>
      <trkpt lat="28.4343000" lon="-16.4125870">
        <ele>1066.9</ele>
        <time>2020-11-11T11:40:37Z</time>
      </trkpt>
      <trkpt lat="28.4343030" lon="-16.4126450">
        <ele>1066.9</ele>
        <time>2020-11-11T11:40:38Z</time>
      </trkpt>
      <trkpt lat="28.4343030" lon="-16.4126450">
        <ele>1066.9</ele>
        <time>2020-11-11T11:40:39Z</time>
      </trkpt>
      <trkpt lat="28.4343170" lon="-16.4127680">
        <ele>1066.9</ele>
        <time>2020-11-11T11:40:40Z</time>
      </trkpt>
      <trkpt lat="28.4343230" lon="-16.4128350">
        <ele>1066.9</ele>
        <time>2020-11-11T11:40:41Z</time>
      </trkpt>
      <trkpt lat="28.4343230" lon="-16.4128350">
        <ele>1066.9</ele>
        <time>2020-11-11T11:40:42Z</time>
      </trkpt>
      <trkpt lat="28.4343280" lon="-16.4129600">
        <ele>1066.9</ele>
        <time>2020-11-11T11:40:43Z</time>
      </trkpt>
      <trkpt lat="28.4343280" lon="-16.4129600">
        <ele>1066.9</ele>
        <time>2020-11-11T11:40:44Z</time>
      </trkpt>
      <trkpt lat="28.4343300" lon="-16.4130720">
        <ele>1067.9</ele>
        <time>2020-11-11T11:40:45Z</time>
      </trkpt>
      <trkpt lat="28.4343300" lon="-16.4130720">
        <ele>1067.9</ele>
        <time>2020-11-11T11:40:46Z</time>
      </trkpt>
      <trkpt lat="28.4343300" lon="-16.4131750">
        <ele>1067.9</ele>
        <time>2020-11-11T11:40:47Z</time>
      </trkpt>
      <trkpt lat="28.4343300" lon="-16.4131750">
        <ele>1067.9</ele>
        <time>2020-11-11T11:40:48Z</time>
      </trkpt>
      <trkpt lat="28.4343420" lon="-16.4132870">
        <ele>1067.9</ele>
        <time>2020-11-11T11:40:49Z</time>
      </trkpt>
      <trkpt lat="28.4343420" lon="-16.4132870">
        <ele>1067.9</ele>
        <time>2020-11-11T11:40:50Z</time>
      </trkpt>
      <trkpt lat="28.4343600" lon="-16.4133930">
        <ele>1067.9</ele>
        <time>2020-11-11T11:40:51Z</time>
      </trkpt>
      <trkpt lat="28.4343600" lon="-16.4133930">
        <ele>1067.9</ele>
        <time>2020-11-11T11:40:52Z</time>
      </trkpt>
      <trkpt lat="28.4343670" lon="-16.4135370">
        <ele>1067.9</ele>
        <time>2020-11-11T11:40:53Z</time>
      </trkpt>
      <trkpt lat="28.4343620" lon="-16.4136030">
        <ele>1066.9</ele>
        <time>2020-11-11T11:40:54Z</time>
      </trkpt>
      <trkpt lat="28.4343620" lon="-16.4136030">
        <ele>1066.9</ele>
        <time>2020-11-11T11:40:55Z</time>
      </trkpt>
      <trkpt lat="28.4343620" lon="-16.4137380">
        <ele>1066.9</ele>
        <time>2020-11-11T11:40:56Z</time>
      </trkpt>
      <trkpt lat="28.4343620" lon="-16.4137380">
        <ele>1066.9</ele>
        <time>2020-11-11T11:40:57Z</time>
      </trkpt>
      <trkpt lat="28.4343700" lon="-16.4138550">
        <ele>1066.9</ele>
        <time>2020-11-11T11:40:58Z</time>
      </trkpt>
      <trkpt lat="28.4343700" lon="-16.4138550">
        <ele>1066.9</ele>
        <time>2020-11-11T11:40:59Z</time>
      </trkpt>
      <trkpt lat="28.4343620" lon="-16.4139700">
        <ele>1065.9</ele>
        <time>2020-11-11T11:41:00Z</time>
      </trkpt>
      <trkpt lat="28.4343620" lon="-16.4139700">
        <ele>1065.9</ele>
        <time>2020-11-11T11:41:01Z</time>
      </trkpt>
      <trkpt lat="28.4343250" lon="-16.4140900">
        <ele>1065.9</ele>
        <time>2020-11-11T11:41:02Z</time>
      </trkpt>
      <trkpt lat="28.4343250" lon="-16.4140900">
        <ele>1065.9</ele>
        <time>2020-11-11T11:41:03Z</time>
      </trkpt>
      <trkpt lat="28.4342850" lon="-16.4142000">
        <ele>1064.9</ele>
        <time>2020-11-11T11:41:04Z</time>
      </trkpt>
      <trkpt lat="28.4342850" lon="-16.4142000">
        <ele>1064.9</ele>
        <time>2020-11-11T11:41:05Z</time>
      </trkpt>
      <trkpt lat="28.4342730" lon="-16.4142930">
        <ele>1064.9</ele>
        <time>2020-11-11T11:41:06Z</time>
      </trkpt>
      <trkpt lat="28.4342880" lon="-16.4143450">
        <ele>1064.9</ele>
        <time>2020-11-11T11:41:07Z</time>
      </trkpt>
      <trkpt lat="28.4342880" lon="-16.4143450">
        <ele>1063.9</ele>
        <time>2020-11-11T11:41:08Z</time>
      </trkpt>
      <trkpt lat="28.4343470" lon="-16.4144520">
        <ele>1063.9</ele>
        <time>2020-11-11T11:41:09Z</time>
      </trkpt>
      <trkpt lat="28.4343800" lon="-16.4144850">
        <ele>1063.9</ele>
        <time>2020-11-11T11:41:10Z</time>
      </trkpt>
      <trkpt lat="28.4343800" lon="-16.4144850">
        <ele>1063.9</ele>
        <time>2020-11-11T11:41:11Z</time>
      </trkpt>
      <trkpt lat="28.4344620" lon="-16.4145220">
        <ele>1063.9</ele>
        <time>2020-11-11T11:41:12Z</time>
      </trkpt>
      <trkpt lat="28.4345070" lon="-16.4145470">
        <ele>1063.9</ele>
        <time>2020-11-11T11:41:13Z</time>
      </trkpt>
      <trkpt lat="28.4345070" lon="-16.4145470">
        <ele>1063.9</ele>
        <time>2020-11-11T11:41:14Z</time>
      </trkpt>
      <trkpt lat="28.4345930" lon="-16.4146120">
        <ele>1063.9</ele>
        <time>2020-11-11T11:41:15Z</time>
      </trkpt>
      <trkpt lat="28.4345930" lon="-16.4146120">
        <ele>1063.9</ele>
        <time>2020-11-11T11:41:16Z</time>
      </trkpt>
      <trkpt lat="28.4346400" lon="-16.4147170">
        <ele>1063.9</ele>
        <time>2020-11-11T11:41:17Z</time>
      </trkpt>
      <trkpt lat="28.4346500" lon="-16.4147720">
        <ele>1063.9</ele>
        <time>2020-11-11T11:41:18Z</time>
      </trkpt>
      <trkpt lat="28.4346500" lon="-16.4147720">
        <ele>1063.9</ele>
        <time>2020-11-11T11:41:19Z</time>
      </trkpt>
      <trkpt lat="28.4346570" lon="-16.4148850">
        <ele>1063.9</ele>
        <time>2020-11-11T11:41:20Z</time>
      </trkpt>
      <trkpt lat="28.4346570" lon="-16.4148850">
        <ele>1062.9</ele>
        <time>2020-11-11T11:41:21Z</time>
      </trkpt>
      <trkpt lat="28.4346580" lon="-16.4149900">
        <ele>1062.9</ele>
        <time>2020-11-11T11:41:22Z</time>
      </trkpt>
      <trkpt lat="28.4346580" lon="-16.4150470">
        <ele>1062.9</ele>
        <time>2020-11-11T11:41:23Z</time>
      </trkpt>
      <trkpt lat="28.4346570" lon="-16.4151250">
        <ele>1062.9</ele>
        <time>2020-11-11T11:41:24Z</time>
      </trkpt>
      <trkpt lat="28.4346570" lon="-16.4151250">
        <ele>1062.9</ele>
        <time>2020-11-11T11:41:25Z</time>
      </trkpt>
      <trkpt lat="28.4346600" lon="-16.4152480">
        <ele>1062.9</ele>
        <time>2020-11-11T11:41:26Z</time>
      </trkpt>
      <trkpt lat="28.4346600" lon="-16.4152480">
        <ele>1062.9</ele>
        <time>2020-11-11T11:41:27Z</time>
      </trkpt>
      <trkpt lat="28.4346750" lon="-16.4153670">
        <ele>1062.9</ele>
        <time>2020-11-11T11:41:28Z</time>
      </trkpt>
      <trkpt lat="28.4346750" lon="-16.4153670">
        <ele>1062.9</ele>
        <time>2020-11-11T11:41:29Z</time>
      </trkpt>
      <trkpt lat="28.4346930" lon="-16.4154920">
        <ele>1062.9</ele>
        <time>2020-11-11T11:41:30Z</time>
      </trkpt>
      <trkpt lat="28.4346930" lon="-16.4154920">
        <ele>1062.9</ele>
        <time>2020-11-11T11:41:31Z</time>
      </trkpt>
      <trkpt lat="28.4347020" lon="-16.4156020">
        <ele>1062.9</ele>
        <time>2020-11-11T11:41:32Z</time>
      </trkpt>
      <trkpt lat="28.4347080" lon="-16.4156620">
        <ele>1062.9</ele>
        <time>2020-11-11T11:41:33Z</time>
      </trkpt>
      <trkpt lat="28.4347080" lon="-16.4156620">
        <ele>1062.9</ele>
        <time>2020-11-11T11:41:34Z</time>
      </trkpt>
      <trkpt lat="28.4347170" lon="-16.4157800">
        <ele>1062.9</ele>
        <time>2020-11-11T11:41:35Z</time>
      </trkpt>
      <trkpt lat="28.4347170" lon="-16.4157800">
        <ele>1062.9</ele>
        <time>2020-11-11T11:41:36Z</time>
      </trkpt>
      <trkpt lat="28.4347270" lon="-16.4158880">
        <ele>1061.9</ele>
        <time>2020-11-11T11:41:37Z</time>
      </trkpt>
      <trkpt lat="28.4347270" lon="-16.4158880">
        <ele>1061.9</ele>
        <time>2020-11-11T11:41:38Z</time>
      </trkpt>
      <trkpt lat="28.4347200" lon="-16.4159930">
        <ele>1061.9</ele>
        <time>2020-11-11T11:41:39Z</time>
      </trkpt>
      <trkpt lat="28.4347200" lon="-16.4159930">
        <ele>1061.9</ele>
        <time>2020-11-11T11:41:40Z</time>
      </trkpt>
      <trkpt lat="28.4346870" lon="-16.4160980">
        <ele>1061.9</ele>
        <time>2020-11-11T11:41:41Z</time>
      </trkpt>
      <trkpt lat="28.4346870" lon="-16.4160980">
        <ele>1061.9</ele>
        <time>2020-11-11T11:41:42Z</time>
      </trkpt>
      <trkpt lat="28.4346530" lon="-16.4162130">
        <ele>1061.9</ele>
        <time>2020-11-11T11:41:43Z</time>
      </trkpt>
      <trkpt lat="28.4346530" lon="-16.4162130">
        <ele>1061.9</ele>
        <time>2020-11-11T11:41:44Z</time>
      </trkpt>
      <trkpt lat="28.4346220" lon="-16.4163350">
        <ele>1061.9</ele>
        <time>2020-11-11T11:41:45Z</time>
      </trkpt>
      <trkpt lat="28.4346220" lon="-16.4163350">
        <ele>1061.9</ele>
        <time>2020-11-11T11:41:46Z</time>
      </trkpt>
      <trkpt lat="28.4345870" lon="-16.4164470">
        <ele>1061.9</ele>
        <time>2020-11-11T11:41:47Z</time>
      </trkpt>
      <trkpt lat="28.4345730" lon="-16.4165000">
        <ele>1061.9</ele>
        <time>2020-11-11T11:41:48Z</time>
      </trkpt>
      <trkpt lat="28.4345600" lon="-16.4165500">
        <ele>1061.9</ele>
        <time>2020-11-11T11:41:49Z</time>
      </trkpt>
      <trkpt lat="28.4345600" lon="-16.4165500">
        <ele>1061.9</ele>
        <time>2020-11-11T11:41:50Z</time>
      </trkpt>
      <trkpt lat="28.4345200" lon="-16.4166530">
        <ele>1061.9</ele>
        <time>2020-11-11T11:41:51Z</time>
      </trkpt>
      <trkpt lat="28.4345200" lon="-16.4166530">
        <ele>1061.9</ele>
        <time>2020-11-11T11:41:52Z</time>
      </trkpt>
      <trkpt lat="28.4344770" lon="-16.4167470">
        <ele>1061.9</ele>
        <time>2020-11-11T11:41:53Z</time>
      </trkpt>
      <trkpt lat="28.4344770" lon="-16.4167470">
        <ele>1061.9</ele>
        <time>2020-11-11T11:41:54Z</time>
      </trkpt>
      <trkpt lat="28.4344220" lon="-16.4168520">
        <ele>1061.9</ele>
        <time>2020-11-11T11:41:55Z</time>
      </trkpt>
      <trkpt lat="28.4344220" lon="-16.4168520">
        <ele>1061.9</ele>
        <time>2020-11-11T11:41:56Z</time>
      </trkpt>
      <trkpt lat="28.4343650" lon="-16.4169720">
        <ele>1061.9</ele>
        <time>2020-11-11T11:41:57Z</time>
      </trkpt>
      <trkpt lat="28.4343350" lon="-16.4170270">
        <ele>1061.9</ele>
        <time>2020-11-11T11:41:58Z</time>
      </trkpt>
      <trkpt lat="28.4343000" lon="-16.4170850">
        <ele>1060.9</ele>
        <time>2020-11-11T11:41:59Z</time>
      </trkpt>
      <trkpt lat="28.4343000" lon="-16.4170850">
        <ele>1060.9</ele>
        <time>2020-11-11T11:42:00Z</time>
      </trkpt>
      <trkpt lat="28.4342370" lon="-16.4171820">
        <ele>1060.9</ele>
        <time>2020-11-11T11:42:01Z</time>
      </trkpt>
      <trkpt lat="28.4342370" lon="-16.4171820">
        <ele>1060.9</ele>
        <time>2020-11-11T11:42:02Z</time>
      </trkpt>
      <trkpt lat="28.4341880" lon="-16.4172770">
        <ele>1060.9</ele>
        <time>2020-11-11T11:42:03Z</time>
      </trkpt>
      <trkpt lat="28.4341550" lon="-16.4173320">
        <ele>1060.9</ele>
        <time>2020-11-11T11:42:04Z</time>
      </trkpt>
      <trkpt lat="28.4341270" lon="-16.4173870">
        <ele>1060.9</ele>
        <time>2020-11-11T11:42:05Z</time>
      </trkpt>
      <trkpt lat="28.4341270" lon="-16.4173870">
        <ele>1060.9</ele>
        <time>2020-11-11T11:42:06Z</time>
      </trkpt>
      <trkpt lat="28.4340680" lon="-16.4174930">
        <ele>1060.9</ele>
        <time>2020-11-11T11:42:07Z</time>
      </trkpt>
      <trkpt lat="28.4340680" lon="-16.4174930">
        <ele>1060.9</ele>
        <time>2020-11-11T11:42:08Z</time>
      </trkpt>
      <trkpt lat="28.4340130" lon="-16.4175970">
        <ele>1060.9</ele>
        <time>2020-11-11T11:42:09Z</time>
      </trkpt>
      <trkpt lat="28.4340130" lon="-16.4175970">
        <ele>1059.9</ele>
        <time>2020-11-11T11:42:10Z</time>
      </trkpt>
      <trkpt lat="28.4339230" lon="-16.4176850">
        <ele>1059.9</ele>
        <time>2020-11-11T11:42:11Z</time>
      </trkpt>
      <trkpt lat="28.4338750" lon="-16.4177150">
        <ele>1059.9</ele>
        <time>2020-11-11T11:42:12Z</time>
      </trkpt>
      <trkpt lat="28.4338750" lon="-16.4177150">
        <ele>1059.9</ele>
        <time>2020-11-11T11:42:13Z</time>
      </trkpt>
      <trkpt lat="28.4337720" lon="-16.4177570">
        <ele>1059.9</ele>
        <time>2020-11-11T11:42:14Z</time>
      </trkpt>
      <trkpt lat="28.4337720" lon="-16.4177570">
        <ele>1059.9</ele>
        <time>2020-11-11T11:42:15Z</time>
      </trkpt>
      <trkpt lat="28.4336680" lon="-16.4178050">
        <ele>1059.9</ele>
        <time>2020-11-11T11:42:16Z</time>
      </trkpt>
      <trkpt lat="28.4336270" lon="-16.4178450">
        <ele>1059.9</ele>
        <time>2020-11-11T11:42:17Z</time>
      </trkpt>
      <trkpt lat="28.4336270" lon="-16.4178450">
        <ele>1059.9</ele>
        <time>2020-11-11T11:42:18Z</time>
      </trkpt>
      <trkpt lat="28.4335670" lon="-16.4179470">
        <ele>1059.9</ele>
        <time>2020-11-11T11:42:19Z</time>
      </trkpt>
      <trkpt lat="28.4335670" lon="-16.4179470">
        <ele>1059.9</ele>
        <time>2020-11-11T11:42:20Z</time>
      </trkpt>
      <trkpt lat="28.4335220" lon="-16.4180420">
        <ele>1059.9</ele>
        <time>2020-11-11T11:42:21Z</time>
      </trkpt>
      <trkpt lat="28.4335020" lon="-16.4180830">
        <ele>1059.9</ele>
        <time>2020-11-11T11:42:22Z</time>
      </trkpt>
      <trkpt lat="28.4335020" lon="-16.4180830">
        <ele>1059.9</ele>
        <time>2020-11-11T11:42:23Z</time>
      </trkpt>
      <trkpt lat="28.4334800" lon="-16.4181720">
        <ele>1059.9</ele>
        <time>2020-11-11T11:42:24Z</time>
      </trkpt>
      <trkpt lat="28.4334800" lon="-16.4181720">
        <ele>1059.9</ele>
        <time>2020-11-11T11:42:25Z</time>
      </trkpt>
      <trkpt lat="28.4334930" lon="-16.4182670">
        <ele>1059.9</ele>
        <time>2020-11-11T11:42:26Z</time>
      </trkpt>
      <trkpt lat="28.4334930" lon="-16.4182670">
        <ele>1059.9</ele>
        <time>2020-11-11T11:42:27Z</time>
      </trkpt>
      <trkpt lat="28.4335380" lon="-16.4183470">
        <ele>1059.9</ele>
        <time>2020-11-11T11:42:28Z</time>
      </trkpt>
      <trkpt lat="28.4335650" lon="-16.4183780">
        <ele>1059.9</ele>
        <time>2020-11-11T11:42:29Z</time>
      </trkpt>
      <trkpt lat="28.4335650" lon="-16.4183780">
        <ele>1059.9</ele>
        <time>2020-11-11T11:42:30Z</time>
      </trkpt>
      <trkpt lat="28.4335950" lon="-16.4184580">
        <ele>1059.9</ele>
        <time>2020-11-11T11:42:31Z</time>
      </trkpt>
      <trkpt lat="28.4335950" lon="-16.4184580">
        <ele>1059.9</ele>
        <time>2020-11-11T11:42:32Z</time>
      </trkpt>
      <trkpt lat="28.4336230" lon="-16.4185500">
        <ele>1059.9</ele>
        <time>2020-11-11T11:42:33Z</time>
      </trkpt>
      <trkpt lat="28.4336280" lon="-16.4185980">
        <ele>1059.9</ele>
        <time>2020-11-11T11:42:34Z</time>
      </trkpt>
      <trkpt lat="28.4336280" lon="-16.4185980">
        <ele>1059.9</ele>
        <time>2020-11-11T11:42:35Z</time>
      </trkpt>
      <trkpt lat="28.4336000" lon="-16.4186880">
        <ele>1059.9</ele>
        <time>2020-11-11T11:42:36Z</time>
      </trkpt>
      <trkpt lat="28.4335600" lon="-16.4187220">
        <ele>1059.9</ele>
        <time>2020-11-11T11:42:37Z</time>
      </trkpt>
      <trkpt lat="28.4335600" lon="-16.4187220">
        <ele>1059.9</ele>
        <time>2020-11-11T11:42:38Z</time>
      </trkpt>
      <trkpt lat="28.4334800" lon="-16.4187770">
        <ele>1059.9</ele>
        <time>2020-11-11T11:42:39Z</time>
      </trkpt>
      <trkpt lat="28.4334800" lon="-16.4187770">
        <ele>1059.9</ele>
        <time>2020-11-11T11:42:40Z</time>
      </trkpt>
      <trkpt lat="28.4334100" lon="-16.4188400">
        <ele>1060.9</ele>
        <time>2020-11-11T11:42:41Z</time>
      </trkpt>
      <trkpt lat="28.4334100" lon="-16.4188400">
        <ele>1060.9</ele>
        <time>2020-11-11T11:42:42Z</time>
      </trkpt>
      <trkpt lat="28.4333770" lon="-16.4189220">
        <ele>1060.9</ele>
        <time>2020-11-11T11:42:43Z</time>
      </trkpt>
      <trkpt lat="28.4333770" lon="-16.4189220">
        <ele>1060.9</ele>
        <time>2020-11-11T11:42:44Z</time>
      </trkpt>
      <trkpt lat="28.4333720" lon="-16.4190050">
        <ele>1060.9</ele>
        <time>2020-11-11T11:42:45Z</time>
      </trkpt>
      <trkpt lat="28.4333720" lon="-16.4190050">
        <ele>1060.9</ele>
        <time>2020-11-11T11:42:46Z</time>
      </trkpt>
      <trkpt lat="28.4333470" lon="-16.4190950">
        <ele>1060.9</ele>
        <time>2020-11-11T11:42:47Z</time>
      </trkpt>
      <trkpt lat="28.4333470" lon="-16.4190950">
        <ele>1060.9</ele>
        <time>2020-11-11T11:42:48Z</time>
      </trkpt>
      <trkpt lat="28.4333030" lon="-16.4191730">
        <ele>1060.9</ele>
        <time>2020-11-11T11:42:49Z</time>
      </trkpt>
      <trkpt lat="28.4333030" lon="-16.4191730">
        <ele>1060.9</ele>
        <time>2020-11-11T11:42:50Z</time>
      </trkpt>
      <trkpt lat="28.4332500" lon="-16.4192350">
        <ele>1060.9</ele>
        <time>2020-11-11T11:42:51Z</time>
      </trkpt>
      <trkpt lat="28.4332500" lon="-16.4192350">
        <ele>1060.9</ele>
        <time>2020-11-11T11:42:52Z</time>
      </trkpt>
      <trkpt lat="28.4331870" lon="-16.4193070">
        <ele>1060.9</ele>
        <time>2020-11-11T11:42:53Z</time>
      </trkpt>
      <trkpt lat="28.4331720" lon="-16.4193400">
        <ele>1060.9</ele>
        <time>2020-11-11T11:42:54Z</time>
      </trkpt>
      <trkpt lat="28.4331720" lon="-16.4193400">
        <ele>1060.9</ele>
        <time>2020-11-11T11:42:55Z</time>
      </trkpt>
      <trkpt lat="28.4331470" lon="-16.4194330">
        <ele>1060.9</ele>
        <time>2020-11-11T11:42:56Z</time>
      </trkpt>
      <trkpt lat="28.4331470" lon="-16.4194330">
        <ele>1060.9</ele>
        <time>2020-11-11T11:42:57Z</time>
      </trkpt>
      <trkpt lat="28.4330620" lon="-16.4195320">
        <ele>1060.9</ele>
        <time>2020-11-11T11:42:58Z</time>
      </trkpt>
      <trkpt lat="28.4330120" lon="-16.4195520">
        <ele>1060.9</ele>
        <time>2020-11-11T11:42:59Z</time>
      </trkpt>
      <trkpt lat="28.4330120" lon="-16.4195520">
        <ele>1060.9</ele>
        <time>2020-11-11T11:43:00Z</time>
      </trkpt>
      <trkpt lat="28.4329280" lon="-16.4195730">
        <ele>1061.9</ele>
        <time>2020-11-11T11:43:01Z</time>
      </trkpt>
      <trkpt lat="28.4329280" lon="-16.4195730">
        <ele>1061.9</ele>
        <time>2020-11-11T11:43:02Z</time>
      </trkpt>
      <trkpt lat="28.4328500" lon="-16.4195880">
        <ele>1061.9</ele>
        <time>2020-11-11T11:43:03Z</time>
      </trkpt>
      <trkpt lat="28.4328180" lon="-16.4195950">
        <ele>1061.9</ele>
        <time>2020-11-11T11:43:04Z</time>
      </trkpt>
      <trkpt lat="28.4328180" lon="-16.4195950">
        <ele>1061.9</ele>
        <time>2020-11-11T11:43:05Z</time>
      </trkpt>
      <trkpt lat="28.4327580" lon="-16.4196070">
        <ele>1061.9</ele>
        <time>2020-11-11T11:43:06Z</time>
      </trkpt>
      <trkpt lat="28.4327250" lon="-16.4196130">
        <ele>1062.9</ele>
        <time>2020-11-11T11:43:07Z</time>
      </trkpt>
      <trkpt lat="28.4326900" lon="-16.4196200">
        <ele>1062.9</ele>
        <time>2020-11-11T11:43:08Z</time>
      </trkpt>
      <trkpt lat="28.4326900" lon="-16.4196200">
        <ele>1062.9</ele>
        <time>2020-11-11T11:43:09Z</time>
      </trkpt>
      <trkpt lat="28.4326250" lon="-16.4196450">
        <ele>1062.9</ele>
        <time>2020-11-11T11:43:10Z</time>
      </trkpt>
      <trkpt lat="28.4326250" lon="-16.4196450">
        <ele>1062.9</ele>
        <time>2020-11-11T11:43:11Z</time>
      </trkpt>
      <trkpt lat="28.4325700" lon="-16.4196750">
        <ele>1063.9</ele>
        <time>2020-11-11T11:43:12Z</time>
      </trkpt>
      <trkpt lat="28.4325470" lon="-16.4196930">
        <ele>1063.9</ele>
        <time>2020-11-11T11:43:13Z</time>
      </trkpt>
      <trkpt lat="28.4325470" lon="-16.4196930">
        <ele>1063.9</ele>
        <time>2020-11-11T11:43:14Z</time>
      </trkpt>
      <trkpt lat="28.4325100" lon="-16.4197300">
        <ele>1063.9</ele>
        <time>2020-11-11T11:43:15Z</time>
      </trkpt>
      <trkpt lat="28.4325100" lon="-16.4197300">
        <ele>1063.9</ele>
        <time>2020-11-11T11:43:16Z</time>
      </trkpt>
      <trkpt lat="28.4324750" lon="-16.4197770">
        <ele>1063.9</ele>
        <time>2020-11-11T11:43:17Z</time>
      </trkpt>
      <trkpt lat="28.4324750" lon="-16.4197770">
        <ele>1064.9</ele>
        <time>2020-11-11T11:43:18Z</time>
      </trkpt>
      <trkpt lat="28.4324500" lon="-16.4198200">
        <ele>1064.9</ele>
        <time>2020-11-11T11:43:19Z</time>
      </trkpt>
      <trkpt lat="28.4324350" lon="-16.4198380">
        <ele>1064.9</ele>
        <time>2020-11-11T11:43:20Z</time>
      </trkpt>
      <trkpt lat="28.4324350" lon="-16.4198380">
        <ele>1064.9</ele>
        <time>2020-11-11T11:43:21Z</time>
      </trkpt>
      <trkpt lat="28.4324250" lon="-16.4198800">
        <ele>1064.9</ele>
        <time>2020-11-11T11:43:22Z</time>
      </trkpt>
      <trkpt lat="28.4324170" lon="-16.4198970">
        <ele>1064.9</ele>
        <time>2020-11-11T11:43:23Z</time>
      </trkpt>
      <trkpt lat="28.4324020" lon="-16.4199170">
        <ele>1065.9</ele>
        <time>2020-11-11T11:43:24Z</time>
      </trkpt>
      <trkpt lat="28.4324020" lon="-16.4199170">
        <ele>1065.9</ele>
        <time>2020-11-11T11:43:25Z</time>
      </trkpt>
      <trkpt lat="28.4323800" lon="-16.4199580">
        <ele>1065.9</ele>
        <time>2020-11-11T11:43:26Z</time>
      </trkpt>
      <trkpt lat="28.4323800" lon="-16.4199580">
        <ele>1065.9</ele>
        <time>2020-11-11T11:43:27Z</time>
      </trkpt>
      <trkpt lat="28.4323500" lon="-16.4199980">
        <ele>1065.9</ele>
        <time>2020-11-11T11:43:28Z</time>
      </trkpt>
      <trkpt lat="28.4323500" lon="-16.4199980">
        <ele>1065.9</ele>
        <time>2020-11-11T11:43:29Z</time>
      </trkpt>
      <trkpt lat="28.4323030" lon="-16.4200450">
        <ele>1066.9</ele>
        <time>2020-11-11T11:43:30Z</time>
      </trkpt>
      <trkpt lat="28.4322880" lon="-16.4200680">
        <ele>1066.9</ele>
        <time>2020-11-11T11:43:31Z</time>
      </trkpt>
      <trkpt lat="28.4322880" lon="-16.4200680">
        <ele>1066.9</ele>
        <time>2020-11-11T11:43:32Z</time>
      </trkpt>
      <trkpt lat="28.4322650" lon="-16.4201000">
        <ele>1066.9</ele>
        <time>2020-11-11T11:43:33Z</time>
      </trkpt>
      <trkpt lat="28.4322650" lon="-16.4201000">
        <ele>1067.9</ele>
        <time>2020-11-11T11:43:34Z</time>
      </trkpt>
      <trkpt lat="28.4322370" lon="-16.4201580">
        <ele>1067.9</ele>
        <time>2020-11-11T11:43:35Z</time>
      </trkpt>
      <trkpt lat="28.4322370" lon="-16.4201580">
        <ele>1067.9</ele>
        <time>2020-11-11T11:43:36Z</time>
      </trkpt>
      <trkpt lat="28.4322080" lon="-16.4202020">
        <ele>1067.9</ele>
        <time>2020-11-11T11:43:37Z</time>
      </trkpt>
      <trkpt lat="28.4322080" lon="-16.4202020">
        <ele>1067.9</ele>
        <time>2020-11-11T11:43:38Z</time>
      </trkpt>
      <trkpt lat="28.4321720" lon="-16.4202300">
        <ele>1067.9</ele>
        <time>2020-11-11T11:43:39Z</time>
      </trkpt>
      <trkpt lat="28.4321500" lon="-16.4202420">
        <ele>1068.9</ele>
        <time>2020-11-11T11:43:40Z</time>
      </trkpt>
      <trkpt lat="28.4321500" lon="-16.4202420">
        <ele>1068.9</ele>
        <time>2020-11-11T11:43:41Z</time>
      </trkpt>
      <trkpt lat="28.4321080" lon="-16.4202550">
        <ele>1068.9</ele>
        <time>2020-11-11T11:43:42Z</time>
      </trkpt>
      <trkpt lat="28.4321080" lon="-16.4202550">
        <ele>1068.9</ele>
        <time>2020-11-11T11:43:43Z</time>
      </trkpt>
      <trkpt lat="28.4320580" lon="-16.4202650">
        <ele>1069.9</ele>
        <time>2020-11-11T11:43:44Z</time>
      </trkpt>
      <trkpt lat="28.4320430" lon="-16.4202720">
        <ele>1069.9</ele>
        <time>2020-11-11T11:43:45Z</time>
      </trkpt>
      <trkpt lat="28.4320430" lon="-16.4202720">
        <ele>1069.9</ele>
        <time>2020-11-11T11:43:46Z</time>
      </trkpt>
      <trkpt lat="28.4320100" lon="-16.4202800">
        <ele>1069.9</ele>
        <time>2020-11-11T11:43:47Z</time>
      </trkpt>
      <trkpt lat="28.4320100" lon="-16.4202800">
        <ele>1070.9</ele>
        <time>2020-11-11T11:43:48Z</time>
      </trkpt>
      <trkpt lat="28.4319680" lon="-16.4202950">
        <ele>1070.9</ele>
        <time>2020-11-11T11:43:49Z</time>
      </trkpt>
      <trkpt lat="28.4319680" lon="-16.4202950">
        <ele>1070.9</ele>
        <time>2020-11-11T11:43:50Z</time>
      </trkpt>
      <trkpt lat="28.4319170" lon="-16.4203050">
        <ele>1070.9</ele>
        <time>2020-11-11T11:43:51Z</time>
      </trkpt>
      <trkpt lat="28.4319170" lon="-16.4203050">
        <ele>1070.9</ele>
        <time>2020-11-11T11:43:52Z</time>
      </trkpt>
      <trkpt lat="28.4318670" lon="-16.4203100">
        <ele>1071.9</ele>
        <time>2020-11-11T11:43:53Z</time>
      </trkpt>
      <trkpt lat="28.4318670" lon="-16.4203100">
        <ele>1071.9</ele>
        <time>2020-11-11T11:43:54Z</time>
      </trkpt>
      <trkpt lat="28.4318230" lon="-16.4203130">
        <ele>1071.9</ele>
        <time>2020-11-11T11:43:55Z</time>
      </trkpt>
      <trkpt lat="28.4318230" lon="-16.4203130">
        <ele>1071.9</ele>
        <time>2020-11-11T11:43:56Z</time>
      </trkpt>
      <trkpt lat="28.4317730" lon="-16.4203200">
        <ele>1071.9</ele>
        <time>2020-11-11T11:43:57Z</time>
      </trkpt>
      <trkpt lat="28.4317480" lon="-16.4203220">
        <ele>1071.9</ele>
        <time>2020-11-11T11:43:58Z</time>
      </trkpt>
      <trkpt lat="28.4317480" lon="-16.4203220">
        <ele>1071.9</ele>
        <time>2020-11-11T11:43:59Z</time>
      </trkpt>
      <trkpt lat="28.4317020" lon="-16.4203280">
        <ele>1071.9</ele>
        <time>2020-11-11T11:44:00Z</time>
      </trkpt>
      <trkpt lat="28.4316780" lon="-16.4203320">
        <ele>1072.9</ele>
        <time>2020-11-11T11:44:01Z</time>
      </trkpt>
      <trkpt lat="28.4316780" lon="-16.4203320">
        <ele>1072.9</ele>
        <time>2020-11-11T11:44:02Z</time>
      </trkpt>
      <trkpt lat="28.4316280" lon="-16.4203420">
        <ele>1072.9</ele>
        <time>2020-11-11T11:44:03Z</time>
      </trkpt>
      <trkpt lat="28.4316280" lon="-16.4203420">
        <ele>1072.9</ele>
        <time>2020-11-11T11:44:04Z</time>
      </trkpt>
      <trkpt lat="28.4315850" lon="-16.4203680">
        <ele>1072.9</ele>
        <time>2020-11-11T11:44:05Z</time>
      </trkpt>
      <trkpt lat="28.4315850" lon="-16.4203680">
        <ele>1072.9</ele>
        <time>2020-11-11T11:44:06Z</time>
      </trkpt>
      <trkpt lat="28.4315580" lon="-16.4204100">
        <ele>1073.9</ele>
        <time>2020-11-11T11:44:07Z</time>
      </trkpt>
      <trkpt lat="28.4315580" lon="-16.4204100">
        <ele>1073.9</ele>
        <time>2020-11-11T11:44:08Z</time>
      </trkpt>
      <trkpt lat="28.4315430" lon="-16.4204550">
        <ele>1073.9</ele>
        <time>2020-11-11T11:44:09Z</time>
      </trkpt>
      <trkpt lat="28.4315430" lon="-16.4204550">
        <ele>1073.9</ele>
        <time>2020-11-11T11:44:10Z</time>
      </trkpt>
      <trkpt lat="28.4315330" lon="-16.4204930">
        <ele>1073.9</ele>
        <time>2020-11-11T11:44:11Z</time>
      </trkpt>
      <trkpt lat="28.4315330" lon="-16.4204930">
        <ele>1073.9</ele>
        <time>2020-11-11T11:44:12Z</time>
      </trkpt>
      <trkpt lat="28.4315370" lon="-16.4205470">
        <ele>1073.9</ele>
        <time>2020-11-11T11:44:13Z</time>
      </trkpt>
      <trkpt lat="28.4315370" lon="-16.4205470">
        <ele>1073.9</ele>
        <time>2020-11-11T11:44:14Z</time>
      </trkpt>
      <trkpt lat="28.4315450" lon="-16.4206250">
        <ele>1073.9</ele>
        <time>2020-11-11T11:44:15Z</time>
      </trkpt>
      <trkpt lat="28.4315450" lon="-16.4206250">
        <ele>1073.9</ele>
        <time>2020-11-11T11:44:16Z</time>
      </trkpt>
      <trkpt lat="28.4315700" lon="-16.4206930">
        <ele>1073.9</ele>
        <time>2020-11-11T11:44:17Z</time>
      </trkpt>
      <trkpt lat="28.4315700" lon="-16.4206930">
        <ele>1073.9</ele>
        <time>2020-11-11T11:44:18Z</time>
      </trkpt>
      <trkpt lat="28.4315920" lon="-16.4207650">
        <ele>1073.9</ele>
        <time>2020-11-11T11:44:19Z</time>
      </trkpt>
      <trkpt lat="28.4315920" lon="-16.4207650">
        <ele>1073.9</ele>
        <time>2020-11-11T11:44:20Z</time>
      </trkpt>
      <trkpt lat="28.4316150" lon="-16.4208350">
        <ele>1073.9</ele>
        <time>2020-11-11T11:44:21Z</time>
      </trkpt>
      <trkpt lat="28.4316150" lon="-16.4208350">
        <ele>1073.9</ele>
        <time>2020-11-11T11:44:22Z</time>
      </trkpt>
      <trkpt lat="28.4316250" lon="-16.4209100">
        <ele>1073.9</ele>
        <time>2020-11-11T11:44:23Z</time>
      </trkpt>
      <trkpt lat="28.4316250" lon="-16.4209100">
        <ele>1074.9</ele>
        <time>2020-11-11T11:44:24Z</time>
      </trkpt>
      <trkpt lat="28.4316320" lon="-16.4209900">
        <ele>1074.9</ele>
        <time>2020-11-11T11:44:25Z</time>
      </trkpt>
      <trkpt lat="28.4316320" lon="-16.4209900">
        <ele>1074.9</ele>
        <time>2020-11-11T11:44:26Z</time>
      </trkpt>
      <trkpt lat="28.4316380" lon="-16.4210750">
        <ele>1074.9</ele>
        <time>2020-11-11T11:44:27Z</time>
      </trkpt>
      <trkpt lat="28.4316420" lon="-16.4211180">
        <ele>1074.9</ele>
        <time>2020-11-11T11:44:28Z</time>
      </trkpt>
      <trkpt lat="28.4316420" lon="-16.4211180">
        <ele>1074.9</ele>
        <time>2020-11-11T11:44:29Z</time>
      </trkpt>
      <trkpt lat="28.4316550" lon="-16.4211970">
        <ele>1074.9</ele>
        <time>2020-11-11T11:44:30Z</time>
      </trkpt>
      <trkpt lat="28.4316600" lon="-16.4212330">
        <ele>1074.9</ele>
        <time>2020-11-11T11:44:31Z</time>
      </trkpt>
      <trkpt lat="28.4316600" lon="-16.4212330">
        <ele>1074.9</ele>
        <time>2020-11-11T11:44:32Z</time>
      </trkpt>
      <trkpt lat="28.4316720" lon="-16.4213030">
        <ele>1074.9</ele>
        <time>2020-11-11T11:44:33Z</time>
      </trkpt>
      <trkpt lat="28.4316780" lon="-16.4213370">
        <ele>1075.9</ele>
        <time>2020-11-11T11:44:34Z</time>
      </trkpt>
      <trkpt lat="28.4316780" lon="-16.4213370">
        <ele>1075.9</ele>
        <time>2020-11-11T11:44:35Z</time>
      </trkpt>
      <trkpt lat="28.4316950" lon="-16.4214130">
        <ele>1075.9</ele>
        <time>2020-11-11T11:44:36Z</time>
      </trkpt>
      <trkpt lat="28.4317030" lon="-16.4214480">
        <ele>1075.9</ele>
        <time>2020-11-11T11:44:37Z</time>
      </trkpt>
      <trkpt lat="28.4317030" lon="-16.4214480">
        <ele>1075.9</ele>
        <time>2020-11-11T11:44:38Z</time>
      </trkpt>
      <trkpt lat="28.4317150" lon="-16.4215250">
        <ele>1075.9</ele>
        <time>2020-11-11T11:44:39Z</time>
      </trkpt>
      <trkpt lat="28.4317150" lon="-16.4215250">
        <ele>1075.9</ele>
        <time>2020-11-11T11:44:40Z</time>
      </trkpt>
      <trkpt lat="28.4317030" lon="-16.4216250">
        <ele>1075.9</ele>
        <time>2020-11-11T11:44:41Z</time>
      </trkpt>
      <trkpt lat="28.4317030" lon="-16.4216250">
        <ele>1075.9</ele>
        <time>2020-11-11T11:44:42Z</time>
      </trkpt>
      <trkpt lat="28.4316780" lon="-16.4217030">
        <ele>1075.9</ele>
        <time>2020-11-11T11:44:43Z</time>
      </trkpt>
      <trkpt lat="28.4316780" lon="-16.4217030">
        <ele>1075.9</ele>
        <time>2020-11-11T11:44:44Z</time>
      </trkpt>
      <trkpt lat="28.4316520" lon="-16.4217900">
        <ele>1075.9</ele>
        <time>2020-11-11T11:44:45Z</time>
      </trkpt>
      <trkpt lat="28.4316520" lon="-16.4217900">
        <ele>1075.9</ele>
        <time>2020-11-11T11:44:46Z</time>
      </trkpt>
      <trkpt lat="28.4316150" lon="-16.4218750">
        <ele>1075.9</ele>
        <time>2020-11-11T11:44:47Z</time>
      </trkpt>
      <trkpt lat="28.4315850" lon="-16.4219100">
        <ele>1075.9</ele>
        <time>2020-11-11T11:44:48Z</time>
      </trkpt>
      <trkpt lat="28.4315500" lon="-16.4219420">
        <ele>1075.9</ele>
        <time>2020-11-11T11:44:49Z</time>
      </trkpt>
      <trkpt lat="28.4315500" lon="-16.4219420">
        <ele>1075.9</ele>
        <time>2020-11-11T11:44:50Z</time>
      </trkpt>
      <trkpt lat="28.4314930" lon="-16.4219800">
        <ele>1075.9</ele>
        <time>2020-11-11T11:44:51Z</time>
      </trkpt>
      <trkpt lat="28.4314930" lon="-16.4219800">
        <ele>1075.9</ele>
        <time>2020-11-11T11:44:52Z</time>
      </trkpt>
      <trkpt lat="28.4314280" lon="-16.4220120">
        <ele>1075.9</ele>
        <time>2020-11-11T11:44:53Z</time>
      </trkpt>
      <trkpt lat="28.4314280" lon="-16.4220120">
        <ele>1075.9</ele>
        <time>2020-11-11T11:44:54Z</time>
      </trkpt>
      <trkpt lat="28.4313600" lon="-16.4220550">
        <ele>1075.9</ele>
        <time>2020-11-11T11:44:55Z</time>
      </trkpt>
      <trkpt lat="28.4313600" lon="-16.4220550">
        <ele>1075.9</ele>
        <time>2020-11-11T11:44:56Z</time>
      </trkpt>
      <trkpt lat="28.4312850" lon="-16.4221020">
        <ele>1075.9</ele>
        <time>2020-11-11T11:44:57Z</time>
      </trkpt>
      <trkpt lat="28.4312850" lon="-16.4221020">
        <ele>1075.9</ele>
        <time>2020-11-11T11:44:58Z</time>
      </trkpt>
      <trkpt lat="28.4312230" lon="-16.4221470">
        <ele>1075.9</ele>
        <time>2020-11-11T11:44:59Z</time>
      </trkpt>
      <trkpt lat="28.4311900" lon="-16.4221670">
        <ele>1075.9</ele>
        <time>2020-11-11T11:45:00Z</time>
      </trkpt>
      <trkpt lat="28.4311900" lon="-16.4221670">
        <ele>1075.9</ele>
        <time>2020-11-11T11:45:01Z</time>
      </trkpt>
      <trkpt lat="28.4311150" lon="-16.4222270">
        <ele>1075.9</ele>
        <time>2020-11-11T11:45:02Z</time>
      </trkpt>
      <trkpt lat="28.4311150" lon="-16.4222270">
        <ele>1076.9</ele>
        <time>2020-11-11T11:45:03Z</time>
      </trkpt>
      <trkpt lat="28.4310500" lon="-16.4222700">
        <ele>1076.9</ele>
        <time>2020-11-11T11:45:04Z</time>
      </trkpt>
      <trkpt lat="28.4310500" lon="-16.4222700">
        <ele>1076.9</ele>
        <time>2020-11-11T11:45:05Z</time>
      </trkpt>
      <trkpt lat="28.4309930" lon="-16.4222980">
        <ele>1076.9</ele>
        <time>2020-11-11T11:45:06Z</time>
      </trkpt>
      <trkpt lat="28.4309930" lon="-16.4222980">
        <ele>1077.9</ele>
        <time>2020-11-11T11:45:07Z</time>
      </trkpt>
      <trkpt lat="28.4309200" lon="-16.4223130">
        <ele>1077.9</ele>
        <time>2020-11-11T11:45:08Z</time>
      </trkpt>
      <trkpt lat="28.4308850" lon="-16.4223150">
        <ele>1077.9</ele>
        <time>2020-11-11T11:45:09Z</time>
      </trkpt>
      <trkpt lat="28.4308850" lon="-16.4223150">
        <ele>1077.9</ele>
        <time>2020-11-11T11:45:10Z</time>
      </trkpt>
      <trkpt lat="28.4308180" lon="-16.4223050">
        <ele>1077.9</ele>
        <time>2020-11-11T11:45:11Z</time>
      </trkpt>
      <trkpt lat="28.4308180" lon="-16.4223050">
        <ele>1077.9</ele>
        <time>2020-11-11T11:45:12Z</time>
      </trkpt>
      <trkpt lat="28.4307530" lon="-16.4222950">
        <ele>1077.9</ele>
        <time>2020-11-11T11:45:13Z</time>
      </trkpt>
      <trkpt lat="28.4307530" lon="-16.4222950">
        <ele>1077.9</ele>
        <time>2020-11-11T11:45:14Z</time>
      </trkpt>
      <trkpt lat="28.4306980" lon="-16.4222680">
        <ele>1077.9</ele>
        <time>2020-11-11T11:45:15Z</time>
      </trkpt>
      <trkpt lat="28.4306700" lon="-16.4222580">
        <ele>1077.9</ele>
        <time>2020-11-11T11:45:16Z</time>
      </trkpt>
      <trkpt lat="28.4306700" lon="-16.4222580">
        <ele>1077.9</ele>
        <time>2020-11-11T11:45:17Z</time>
      </trkpt>
      <trkpt lat="28.4306180" lon="-16.4222500">
        <ele>1077.9</ele>
        <time>2020-11-11T11:45:18Z</time>
      </trkpt>
      <trkpt lat="28.4306000" lon="-16.4222480">
        <ele>1077.9</ele>
        <time>2020-11-11T11:45:19Z</time>
      </trkpt>
      <trkpt lat="28.4306000" lon="-16.4222480">
        <ele>1077.9</ele>
        <time>2020-11-11T11:45:20Z</time>
      </trkpt>
      <trkpt lat="28.4305300" lon="-16.4222920">
        <ele>1077.9</ele>
        <time>2020-11-11T11:45:21Z</time>
      </trkpt>
      <trkpt lat="28.4305300" lon="-16.4222920">
        <ele>1077.9</ele>
        <time>2020-11-11T11:45:22Z</time>
      </trkpt>
      <trkpt lat="28.4304900" lon="-16.4223370">
        <ele>1077.9</ele>
        <time>2020-11-11T11:45:23Z</time>
      </trkpt>
      <trkpt lat="28.4304900" lon="-16.4223370">
        <ele>1077.9</ele>
        <time>2020-11-11T11:45:24Z</time>
      </trkpt>
      <trkpt lat="28.4304650" lon="-16.4223780">
        <ele>1079.9</ele>
        <time>2020-11-11T11:45:25Z</time>
      </trkpt>
      <trkpt lat="28.4304650" lon="-16.4223780">
        <ele>1079.9</ele>
        <time>2020-11-11T11:45:26Z</time>
      </trkpt>
      <trkpt lat="28.4304470" lon="-16.4224200">
        <ele>1079.9</ele>
        <time>2020-11-11T11:45:27Z</time>
      </trkpt>
      <trkpt lat="28.4304470" lon="-16.4224200">
        <ele>1079.9</ele>
        <time>2020-11-11T11:45:28Z</time>
      </trkpt>
      <trkpt lat="28.4304430" lon="-16.4224770">
        <ele>1080.9</ele>
        <time>2020-11-11T11:45:29Z</time>
      </trkpt>
      <trkpt lat="28.4304430" lon="-16.4224770">
        <ele>1080.9</ele>
        <time>2020-11-11T11:45:30Z</time>
      </trkpt>
      <trkpt lat="28.4304380" lon="-16.4225300">
        <ele>1080.9</ele>
        <time>2020-11-11T11:45:31Z</time>
      </trkpt>
      <trkpt lat="28.4304380" lon="-16.4225300">
        <ele>1080.9</ele>
        <time>2020-11-11T11:45:32Z</time>
      </trkpt>
      <trkpt lat="28.4303880" lon="-16.4226370">
        <ele>1080.9</ele>
        <time>2020-11-11T11:45:33Z</time>
      </trkpt>
      <trkpt lat="28.4303620" lon="-16.4226820">
        <ele>1080.9</ele>
        <time>2020-11-11T11:45:34Z</time>
      </trkpt>
      <trkpt lat="28.4303620" lon="-16.4226820">
        <ele>1080.9</ele>
        <time>2020-11-11T11:45:35Z</time>
      </trkpt>
      <trkpt lat="28.4303280" lon="-16.4227670">
        <ele>1080.9</ele>
        <time>2020-11-11T11:45:36Z</time>
      </trkpt>
      <trkpt lat="28.4303100" lon="-16.4228120">
        <ele>1080.9</ele>
        <time>2020-11-11T11:45:37Z</time>
      </trkpt>
      <trkpt lat="28.4303100" lon="-16.4228120">
        <ele>1080.9</ele>
        <time>2020-11-11T11:45:38Z</time>
      </trkpt>
      <trkpt lat="28.4302880" lon="-16.4228770">
        <ele>1080.9</ele>
        <time>2020-11-11T11:45:39Z</time>
      </trkpt>
      <trkpt lat="28.4302880" lon="-16.4228770">
        <ele>1080.9</ele>
        <time>2020-11-11T11:45:40Z</time>
      </trkpt>
      <trkpt lat="28.4302750" lon="-16.4229330">
        <ele>1080.9</ele>
        <time>2020-11-11T11:45:41Z</time>
      </trkpt>
      <trkpt lat="28.4302750" lon="-16.4229330">
        <ele>1080.9</ele>
        <time>2020-11-11T11:45:42Z</time>
      </trkpt>
      <trkpt lat="28.4302650" lon="-16.4229850">
        <ele>1080.9</ele>
        <time>2020-11-11T11:45:43Z</time>
      </trkpt>
      <trkpt lat="28.4302650" lon="-16.4229850">
        <ele>1081.9</ele>
        <time>2020-11-11T11:45:44Z</time>
      </trkpt>
      <trkpt lat="28.4302330" lon="-16.4230320">
        <ele>1081.9</ele>
        <time>2020-11-11T11:45:45Z</time>
      </trkpt>
      <trkpt lat="28.4302330" lon="-16.4230320">
        <ele>1081.9</ele>
        <time>2020-11-11T11:45:46Z</time>
      </trkpt>
      <trkpt lat="28.4301920" lon="-16.4230570">
        <ele>1081.9</ele>
        <time>2020-11-11T11:45:47Z</time>
      </trkpt>
      <trkpt lat="28.4301920" lon="-16.4230570">
        <ele>1081.9</ele>
        <time>2020-11-11T11:45:48Z</time>
      </trkpt>
      <trkpt lat="28.4301530" lon="-16.4230500">
        <ele>1081.9</ele>
        <time>2020-11-11T11:45:49Z</time>
      </trkpt>
      <trkpt lat="28.4301530" lon="-16.4230500">
        <ele>1081.9</ele>
        <time>2020-11-11T11:45:50Z</time>
      </trkpt>
      <trkpt lat="28.4301480" lon="-16.4230230">
        <ele>1081.9</ele>
        <time>2020-11-11T11:45:51Z</time>
      </trkpt>
      <trkpt lat="28.4301480" lon="-16.4230230">
        <ele>1082.9</ele>
        <time>2020-11-11T11:45:52Z</time>
      </trkpt>
      <trkpt lat="28.4301520" lon="-16.4229830">
        <ele>1082.9</ele>
        <time>2020-11-11T11:45:53Z</time>
      </trkpt>
      <trkpt lat="28.4301520" lon="-16.4229830">
        <ele>1082.9</ele>
        <time>2020-11-11T11:45:54Z</time>
      </trkpt>
      <trkpt lat="28.4301450" lon="-16.4229450">
        <ele>1082.9</ele>
        <time>2020-11-11T11:45:55Z</time>
      </trkpt>
      <trkpt lat="28.4301450" lon="-16.4229450">
        <ele>1082.9</ele>
        <time>2020-11-11T11:45:56Z</time>
      </trkpt>
      <trkpt lat="28.4301400" lon="-16.4229050">
        <ele>1082.9</ele>
        <time>2020-11-11T11:45:57Z</time>
      </trkpt>
      <trkpt lat="28.4301400" lon="-16.4229050">
        <ele>1083.9</ele>
        <time>2020-11-11T11:45:58Z</time>
      </trkpt>
      <trkpt lat="28.4301370" lon="-16.4228630">
        <ele>1083.9</ele>
        <time>2020-11-11T11:45:59Z</time>
      </trkpt>
      <trkpt lat="28.4301370" lon="-16.4228630">
        <ele>1083.9</ele>
        <time>2020-11-11T11:46:00Z</time>
      </trkpt>
      <trkpt lat="28.4301420" lon="-16.4228150">
        <ele>1083.9</ele>
        <time>2020-11-11T11:46:01Z</time>
      </trkpt>
      <trkpt lat="28.4301420" lon="-16.4228150">
        <ele>1084.9</ele>
        <time>2020-11-11T11:46:02Z</time>
      </trkpt>
      <trkpt lat="28.4301320" lon="-16.4227580">
        <ele>1084.9</ele>
        <time>2020-11-11T11:46:03Z</time>
      </trkpt>
      <trkpt lat="28.4301320" lon="-16.4227580">
        <ele>1084.9</ele>
        <time>2020-11-11T11:46:04Z</time>
      </trkpt>
      <trkpt lat="28.4301250" lon="-16.4227050">
        <ele>1084.9</ele>
        <time>2020-11-11T11:46:05Z</time>
      </trkpt>
      <trkpt lat="28.4301250" lon="-16.4227050">
        <ele>1084.9</ele>
        <time>2020-11-11T11:46:06Z</time>
      </trkpt>
      <trkpt lat="28.4301220" lon="-16.4226520">
        <ele>1084.9</ele>
        <time>2020-11-11T11:46:07Z</time>
      </trkpt>
      <trkpt lat="28.4301220" lon="-16.4226520">
        <ele>1085.9</ele>
        <time>2020-11-11T11:46:08Z</time>
      </trkpt>
      <trkpt lat="28.4301100" lon="-16.4226100">
        <ele>1085.9</ele>
        <time>2020-11-11T11:46:09Z</time>
      </trkpt>
      <trkpt lat="28.4301100" lon="-16.4226100">
        <ele>1085.9</ele>
        <time>2020-11-11T11:46:10Z</time>
      </trkpt>
      <trkpt lat="28.4301070" lon="-16.4225580">
        <ele>1085.9</ele>
        <time>2020-11-11T11:46:11Z</time>
      </trkpt>
      <trkpt lat="28.4301070" lon="-16.4225580">
        <ele>1086.9</ele>
        <time>2020-11-11T11:46:12Z</time>
      </trkpt>
      <trkpt lat="28.4300950" lon="-16.4225080">
        <ele>1086.9</ele>
        <time>2020-11-11T11:46:13Z</time>
      </trkpt>
      <trkpt lat="28.4300950" lon="-16.4225080">
        <ele>1086.9</ele>
        <time>2020-11-11T11:46:14Z</time>
      </trkpt>
      <trkpt lat="28.4300820" lon="-16.4224580">
        <ele>1086.9</ele>
        <time>2020-11-11T11:46:15Z</time>
      </trkpt>
      <trkpt lat="28.4300820" lon="-16.4224580">
        <ele>1086.9</ele>
        <time>2020-11-11T11:46:16Z</time>
      </trkpt>
      <trkpt lat="28.4300620" lon="-16.4223970">
        <ele>1087.9</ele>
        <time>2020-11-11T11:46:17Z</time>
      </trkpt>
      <trkpt lat="28.4300620" lon="-16.4223970">
        <ele>1087.9</ele>
        <time>2020-11-11T11:46:18Z</time>
      </trkpt>
      <trkpt lat="28.4300400" lon="-16.4223380">
        <ele>1087.9</ele>
        <time>2020-11-11T11:46:19Z</time>
      </trkpt>
      <trkpt lat="28.4300400" lon="-16.4223380">
        <ele>1087.9</ele>
        <time>2020-11-11T11:46:20Z</time>
      </trkpt>
      <trkpt lat="28.4300280" lon="-16.4222830">
        <ele>1087.9</ele>
        <time>2020-11-11T11:46:21Z</time>
      </trkpt>
      <trkpt lat="28.4300230" lon="-16.4222620">
        <ele>1087.9</ele>
        <time>2020-11-11T11:46:22Z</time>
      </trkpt>
      <trkpt lat="28.4300230" lon="-16.4222620">
        <ele>1088.9</ele>
        <time>2020-11-11T11:46:23Z</time>
      </trkpt>
      <trkpt lat="28.4300100" lon="-16.4222170">
        <ele>1088.9</ele>
        <time>2020-11-11T11:46:24Z</time>
      </trkpt>
      <trkpt lat="28.4300100" lon="-16.4222170">
        <ele>1088.9</ele>
        <time>2020-11-11T11:46:25Z</time>
      </trkpt>
      <trkpt lat="28.4299830" lon="-16.4221850">
        <ele>1088.9</ele>
        <time>2020-11-11T11:46:26Z</time>
      </trkpt>
      <trkpt lat="28.4299670" lon="-16.4221830">
        <ele>1088.9</ele>
        <time>2020-11-11T11:46:27Z</time>
      </trkpt>
      <trkpt lat="28.4299670" lon="-16.4221830">
        <ele>1088.9</ele>
        <time>2020-11-11T11:46:28Z</time>
      </trkpt>
      <trkpt lat="28.4299350" lon="-16.4221970">
        <ele>1088.9</ele>
        <time>2020-11-11T11:46:29Z</time>
      </trkpt>
      <trkpt lat="28.4299350" lon="-16.4221970">
        <ele>1088.9</ele>
        <time>2020-11-11T11:46:30Z</time>
      </trkpt>
      <trkpt lat="28.4299180" lon="-16.4222250">
        <ele>1088.9</ele>
        <time>2020-11-11T11:46:31Z</time>
      </trkpt>
      <trkpt lat="28.4299180" lon="-16.4222250">
        <ele>1088.9</ele>
        <time>2020-11-11T11:46:32Z</time>
      </trkpt>
      <trkpt lat="28.4299030" lon="-16.4222580">
        <ele>1088.9</ele>
        <time>2020-11-11T11:46:33Z</time>
      </trkpt>
      <trkpt lat="28.4299030" lon="-16.4222580">
        <ele>1088.9</ele>
        <time>2020-11-11T11:46:34Z</time>
      </trkpt>
      <trkpt lat="28.4299020" lon="-16.4222970">
        <ele>1088.9</ele>
        <time>2020-11-11T11:46:35Z</time>
      </trkpt>
      <trkpt lat="28.4298950" lon="-16.4223100">
        <ele>1088.9</ele>
        <time>2020-11-11T11:46:36Z</time>
      </trkpt>
      <trkpt lat="28.4298950" lon="-16.4223100">
        <ele>1088.9</ele>
        <time>2020-11-11T11:46:37Z</time>
      </trkpt>
      <trkpt lat="28.4298980" lon="-16.4223400">
        <ele>1089.9</ele>
        <time>2020-11-11T11:46:38Z</time>
      </trkpt>
      <trkpt lat="28.4298980" lon="-16.4223400">
        <ele>1089.9</ele>
        <time>2020-11-11T11:46:39Z</time>
      </trkpt>
      <trkpt lat="28.4298950" lon="-16.4223850">
        <ele>1089.9</ele>
        <time>2020-11-11T11:46:40Z</time>
      </trkpt>
      <trkpt lat="28.4298950" lon="-16.4223850">
        <ele>1089.9</ele>
        <time>2020-11-11T11:46:41Z</time>
      </trkpt>
      <trkpt lat="28.4298980" lon="-16.4224370">
        <ele>1089.9</ele>
        <time>2020-11-11T11:46:42Z</time>
      </trkpt>
      <trkpt lat="28.4298950" lon="-16.4224570">
        <ele>1089.9</ele>
        <time>2020-11-11T11:46:43Z</time>
      </trkpt>
      <trkpt lat="28.4298950" lon="-16.4224570">
        <ele>1090.9</ele>
        <time>2020-11-11T11:46:44Z</time>
      </trkpt>
      <trkpt lat="28.4298800" lon="-16.4225100">
        <ele>1090.9</ele>
        <time>2020-11-11T11:46:45Z</time>
      </trkpt>
      <trkpt lat="28.4298800" lon="-16.4225100">
        <ele>1090.9</ele>
        <time>2020-11-11T11:46:46Z</time>
      </trkpt>
      <trkpt lat="28.4298680" lon="-16.4225520">
        <ele>1090.9</ele>
        <time>2020-11-11T11:46:47Z</time>
      </trkpt>
      <trkpt lat="28.4298580" lon="-16.4225750">
        <ele>1090.9</ele>
        <time>2020-11-11T11:46:48Z</time>
      </trkpt>
      <trkpt lat="28.4298580" lon="-16.4225750">
        <ele>1090.9</ele>
        <time>2020-11-11T11:46:49Z</time>
      </trkpt>
      <trkpt lat="28.4298370" lon="-16.4226280">
        <ele>1091.9</ele>
        <time>2020-11-11T11:46:50Z</time>
      </trkpt>
      <trkpt lat="28.4298370" lon="-16.4226280">
        <ele>1091.9</ele>
        <time>2020-11-11T11:46:51Z</time>
      </trkpt>
      <trkpt lat="28.4298150" lon="-16.4226750">
        <ele>1091.9</ele>
        <time>2020-11-11T11:46:52Z</time>
      </trkpt>
      <trkpt lat="28.4298150" lon="-16.4226750">
        <ele>1091.9</ele>
        <time>2020-11-11T11:46:53Z</time>
      </trkpt>
      <trkpt lat="28.4298050" lon="-16.4227280">
        <ele>1091.9</ele>
        <time>2020-11-11T11:46:54Z</time>
      </trkpt>
      <trkpt lat="28.4298050" lon="-16.4227280">
        <ele>1091.9</ele>
        <time>2020-11-11T11:46:55Z</time>
      </trkpt>
      <trkpt lat="28.4297920" lon="-16.4227750">
        <ele>1091.9</ele>
        <time>2020-11-11T11:46:56Z</time>
      </trkpt>
      <trkpt lat="28.4297780" lon="-16.4228030">
        <ele>1091.9</ele>
        <time>2020-11-11T11:46:57Z</time>
      </trkpt>
      <trkpt lat="28.4297780" lon="-16.4228030">
        <ele>1091.9</ele>
        <time>2020-11-11T11:46:58Z</time>
      </trkpt>
      <trkpt lat="28.4297550" lon="-16.4228580">
        <ele>1091.9</ele>
        <time>2020-11-11T11:46:59Z</time>
      </trkpt>
      <trkpt lat="28.4297550" lon="-16.4228580">
        <ele>1091.9</ele>
        <time>2020-11-11T11:47:00Z</time>
      </trkpt>
      <trkpt lat="28.4297170" lon="-16.4229330">
        <ele>1091.9</ele>
        <time>2020-11-11T11:47:01Z</time>
      </trkpt>
      <trkpt lat="28.4297170" lon="-16.4229330">
        <ele>1091.9</ele>
        <time>2020-11-11T11:47:02Z</time>
      </trkpt>
      <trkpt lat="28.4296850" lon="-16.4229930">
        <ele>1091.9</ele>
        <time>2020-11-11T11:47:03Z</time>
      </trkpt>
      <trkpt lat="28.4296720" lon="-16.4230150">
        <ele>1091.9</ele>
        <time>2020-11-11T11:47:04Z</time>
      </trkpt>
      <trkpt lat="28.4296720" lon="-16.4230150">
        <ele>1092.9</ele>
        <time>2020-11-11T11:47:05Z</time>
      </trkpt>
      <trkpt lat="28.4296330" lon="-16.4230730">
        <ele>1092.9</ele>
        <time>2020-11-11T11:47:06Z</time>
      </trkpt>
      <trkpt lat="28.4296120" lon="-16.4231020">
        <ele>1092.9</ele>
        <time>2020-11-11T11:47:07Z</time>
      </trkpt>
      <trkpt lat="28.4296120" lon="-16.4231020">
        <ele>1092.9</ele>
        <time>2020-11-11T11:47:08Z</time>
      </trkpt>
      <trkpt lat="28.4295570" lon="-16.4231780">
        <ele>1092.9</ele>
        <time>2020-11-11T11:47:09Z</time>
      </trkpt>
      <trkpt lat="28.4295270" lon="-16.4232180">
        <ele>1092.9</ele>
        <time>2020-11-11T11:47:10Z</time>
      </trkpt>
      <trkpt lat="28.4295270" lon="-16.4232180">
        <ele>1092.9</ele>
        <time>2020-11-11T11:47:11Z</time>
      </trkpt>
      <trkpt lat="28.4294750" lon="-16.4232880">
        <ele>1092.9</ele>
        <time>2020-11-11T11:47:12Z</time>
      </trkpt>
      <trkpt lat="28.4294750" lon="-16.4232880">
        <ele>1092.9</ele>
        <time>2020-11-11T11:47:13Z</time>
      </trkpt>
      <trkpt lat="28.4294150" lon="-16.4233700">
        <ele>1092.9</ele>
        <time>2020-11-11T11:47:14Z</time>
      </trkpt>
      <trkpt lat="28.4293900" lon="-16.4234100">
        <ele>1092.9</ele>
        <time>2020-11-11T11:47:15Z</time>
      </trkpt>
      <trkpt lat="28.4293900" lon="-16.4234100">
        <ele>1092.9</ele>
        <time>2020-11-11T11:47:16Z</time>
      </trkpt>
      <trkpt lat="28.4293400" lon="-16.4234770">
        <ele>1092.9</ele>
        <time>2020-11-11T11:47:17Z</time>
      </trkpt>
      <trkpt lat="28.4293400" lon="-16.4234770">
        <ele>1093.9</ele>
        <time>2020-11-11T11:47:18Z</time>
      </trkpt>
      <trkpt lat="28.4292930" lon="-16.4235350">
        <ele>1093.9</ele>
        <time>2020-11-11T11:47:19Z</time>
      </trkpt>
      <trkpt lat="28.4292930" lon="-16.4235350">
        <ele>1093.9</ele>
        <time>2020-11-11T11:47:20Z</time>
      </trkpt>
      <trkpt lat="28.4292420" lon="-16.4235920">
        <ele>1093.9</ele>
        <time>2020-11-11T11:47:21Z</time>
      </trkpt>
      <trkpt lat="28.4292420" lon="-16.4235920">
        <ele>1093.9</ele>
        <time>2020-11-11T11:47:22Z</time>
      </trkpt>
      <trkpt lat="28.4291930" lon="-16.4236400">
        <ele>1093.9</ele>
        <time>2020-11-11T11:47:23Z</time>
      </trkpt>
      <trkpt lat="28.4291930" lon="-16.4236400">
        <ele>1094.9</ele>
        <time>2020-11-11T11:47:24Z</time>
      </trkpt>
      <trkpt lat="28.4291430" lon="-16.4236920">
        <ele>1094.9</ele>
        <time>2020-11-11T11:47:25Z</time>
      </trkpt>
      <trkpt lat="28.4291200" lon="-16.4237180">
        <ele>1094.9</ele>
        <time>2020-11-11T11:47:26Z</time>
      </trkpt>
      <trkpt lat="28.4291200" lon="-16.4237180">
        <ele>1094.9</ele>
        <time>2020-11-11T11:47:27Z</time>
      </trkpt>
      <trkpt lat="28.4290700" lon="-16.4237680">
        <ele>1095.9</ele>
        <time>2020-11-11T11:47:28Z</time>
      </trkpt>
      <trkpt lat="28.4290700" lon="-16.4237680">
        <ele>1095.9</ele>
        <time>2020-11-11T11:47:29Z</time>
      </trkpt>
      <trkpt lat="28.4290200" lon="-16.4238150">
        <ele>1095.9</ele>
        <time>2020-11-11T11:47:30Z</time>
      </trkpt>
      <trkpt lat="28.4289930" lon="-16.4238320">
        <ele>1095.9</ele>
        <time>2020-11-11T11:47:31Z</time>
      </trkpt>
      <trkpt lat="28.4289930" lon="-16.4238320">
        <ele>1095.9</ele>
        <time>2020-11-11T11:47:32Z</time>
      </trkpt>
      <trkpt lat="28.4289420" lon="-16.4238670">
        <ele>1095.9</ele>
        <time>2020-11-11T11:47:33Z</time>
      </trkpt>
      <trkpt lat="28.4289420" lon="-16.4238670">
        <ele>1095.9</ele>
        <time>2020-11-11T11:47:34Z</time>
      </trkpt>
      <trkpt lat="28.4288970" lon="-16.4238880">
        <ele>1096.9</ele>
        <time>2020-11-11T11:47:35Z</time>
      </trkpt>
      <trkpt lat="28.4288970" lon="-16.4238880">
        <ele>1096.9</ele>
        <time>2020-11-11T11:47:36Z</time>
      </trkpt>
      <trkpt lat="28.4288400" lon="-16.4239130">
        <ele>1096.9</ele>
        <time>2020-11-11T11:47:37Z</time>
      </trkpt>
      <trkpt lat="28.4288400" lon="-16.4239130">
        <ele>1096.9</ele>
        <time>2020-11-11T11:47:38Z</time>
      </trkpt>
      <trkpt lat="28.4287780" lon="-16.4239450">
        <ele>1096.9</ele>
        <time>2020-11-11T11:47:39Z</time>
      </trkpt>
      <trkpt lat="28.4287480" lon="-16.4239580">
        <ele>1096.9</ele>
        <time>2020-11-11T11:47:40Z</time>
      </trkpt>
      <trkpt lat="28.4287480" lon="-16.4239580">
        <ele>1096.9</ele>
        <time>2020-11-11T11:47:41Z</time>
      </trkpt>
      <trkpt lat="28.4286830" lon="-16.4239900">
        <ele>1096.9</ele>
        <time>2020-11-11T11:47:42Z</time>
      </trkpt>
      <trkpt lat="28.4286830" lon="-16.4239900">
        <ele>1096.9</ele>
        <time>2020-11-11T11:47:43Z</time>
      </trkpt>
      <trkpt lat="28.4286280" lon="-16.4240220">
        <ele>1096.9</ele>
        <time>2020-11-11T11:47:44Z</time>
      </trkpt>
      <trkpt lat="28.4286280" lon="-16.4240220">
        <ele>1096.9</ele>
        <time>2020-11-11T11:47:45Z</time>
      </trkpt>
      <trkpt lat="28.4285700" lon="-16.4240450">
        <ele>1096.9</ele>
        <time>2020-11-11T11:47:46Z</time>
      </trkpt>
      <trkpt lat="28.4285420" lon="-16.4240600">
        <ele>1096.9</ele>
        <time>2020-11-11T11:47:47Z</time>
      </trkpt>
      <trkpt lat="28.4285420" lon="-16.4240600">
        <ele>1096.9</ele>
        <time>2020-11-11T11:47:48Z</time>
      </trkpt>
      <trkpt lat="28.4284730" lon="-16.4240980">
        <ele>1096.9</ele>
        <time>2020-11-11T11:47:49Z</time>
      </trkpt>
      <trkpt lat="28.4284730" lon="-16.4240980">
        <ele>1096.9</ele>
        <time>2020-11-11T11:47:50Z</time>
      </trkpt>
      <trkpt lat="28.4284030" lon="-16.4241380">
        <ele>1096.9</ele>
        <time>2020-11-11T11:47:51Z</time>
      </trkpt>
      <trkpt lat="28.4284030" lon="-16.4241380">
        <ele>1096.9</ele>
        <time>2020-11-11T11:47:52Z</time>
      </trkpt>
      <trkpt lat="28.4283380" lon="-16.4241720">
        <ele>1096.9</ele>
        <time>2020-11-11T11:47:53Z</time>
      </trkpt>
      <trkpt lat="28.4283380" lon="-16.4241720">
        <ele>1096.9</ele>
        <time>2020-11-11T11:47:54Z</time>
      </trkpt>
      <trkpt lat="28.4282870" lon="-16.4241980">
        <ele>1096.9</ele>
        <time>2020-11-11T11:47:55Z</time>
      </trkpt>
      <trkpt lat="28.4282620" lon="-16.4242130">
        <ele>1096.9</ele>
        <time>2020-11-11T11:47:56Z</time>
      </trkpt>
      <trkpt lat="28.4282620" lon="-16.4242130">
        <ele>1097.9</ele>
        <time>2020-11-11T11:47:57Z</time>
      </trkpt>
      <trkpt lat="28.4282100" lon="-16.4242470">
        <ele>1097.9</ele>
        <time>2020-11-11T11:47:58Z</time>
      </trkpt>
      <trkpt lat="28.4282100" lon="-16.4242470">
        <ele>1097.9</ele>
        <time>2020-11-11T11:47:59Z</time>
      </trkpt>
      <trkpt lat="28.4281580" lon="-16.4242780">
        <ele>1097.9</ele>
        <time>2020-11-11T11:48:00Z</time>
      </trkpt>
      <trkpt lat="28.4281320" lon="-16.4242970">
        <ele>1098.9</ele>
        <time>2020-11-11T11:48:01Z</time>
      </trkpt>
      <trkpt lat="28.4281320" lon="-16.4242970">
        <ele>1098.9</ele>
        <time>2020-11-11T11:48:02Z</time>
      </trkpt>
      <trkpt lat="28.4280820" lon="-16.4243430">
        <ele>1098.9</ele>
        <time>2020-11-11T11:48:03Z</time>
      </trkpt>
      <trkpt lat="28.4280820" lon="-16.4243430">
        <ele>1098.9</ele>
        <time>2020-11-11T11:48:04Z</time>
      </trkpt>
      <trkpt lat="28.4280420" lon="-16.4243750">
        <ele>1099.9</ele>
        <time>2020-11-11T11:48:05Z</time>
      </trkpt>
      <trkpt lat="28.4280420" lon="-16.4243750">
        <ele>1099.9</ele>
        <time>2020-11-11T11:48:06Z</time>
      </trkpt>
      <trkpt lat="28.4279970" lon="-16.4244070">
        <ele>1099.9</ele>
        <time>2020-11-11T11:48:07Z</time>
      </trkpt>
      <trkpt lat="28.4279970" lon="-16.4244070">
        <ele>1099.9</ele>
        <time>2020-11-11T11:48:08Z</time>
      </trkpt>
      <trkpt lat="28.4279470" lon="-16.4244450">
        <ele>1100.9</ele>
        <time>2020-11-11T11:48:09Z</time>
      </trkpt>
      <trkpt lat="28.4279470" lon="-16.4244450">
        <ele>1100.9</ele>
        <time>2020-11-11T11:48:10Z</time>
      </trkpt>
      <trkpt lat="28.4279080" lon="-16.4244720">
        <ele>1100.9</ele>
        <time>2020-11-11T11:48:11Z</time>
      </trkpt>
      <trkpt lat="28.4278880" lon="-16.4244780">
        <ele>1101.9</ele>
        <time>2020-11-11T11:48:12Z</time>
      </trkpt>
      <trkpt lat="28.4278880" lon="-16.4244780">
        <ele>1101.9</ele>
        <time>2020-11-11T11:48:13Z</time>
      </trkpt>
      <trkpt lat="28.4278450" lon="-16.4245050">
        <ele>1101.9</ele>
        <time>2020-11-11T11:48:14Z</time>
      </trkpt>
      <trkpt lat="28.4278450" lon="-16.4245050">
        <ele>1101.9</ele>
        <time>2020-11-11T11:48:15Z</time>
      </trkpt>
      <trkpt lat="28.4278070" lon="-16.4245330">
        <ele>1102.9</ele>
        <time>2020-11-11T11:48:16Z</time>
      </trkpt>
      <trkpt lat="28.4278070" lon="-16.4245330">
        <ele>1102.9</ele>
        <time>2020-11-11T11:48:17Z</time>
      </trkpt>
      <trkpt lat="28.4277680" lon="-16.4245580">
        <ele>1102.9</ele>
        <time>2020-11-11T11:48:18Z</time>
      </trkpt>
      <trkpt lat="28.4277480" lon="-16.4245720">
        <ele>1102.9</ele>
        <time>2020-11-11T11:48:19Z</time>
      </trkpt>
      <trkpt lat="28.4277480" lon="-16.4245720">
        <ele>1103.9</ele>
        <time>2020-11-11T11:48:20Z</time>
      </trkpt>
      <trkpt lat="28.4277100" lon="-16.4245970">
        <ele>1103.9</ele>
        <time>2020-11-11T11:48:21Z</time>
      </trkpt>
      <trkpt lat="28.4277100" lon="-16.4245970">
        <ele>1103.9</ele>
        <time>2020-11-11T11:48:22Z</time>
      </trkpt>
      <trkpt lat="28.4276720" lon="-16.4246200">
        <ele>1103.9</ele>
        <time>2020-11-11T11:48:23Z</time>
      </trkpt>
      <trkpt lat="28.4276720" lon="-16.4246200">
        <ele>1104.9</ele>
        <time>2020-11-11T11:48:24Z</time>
      </trkpt>
      <trkpt lat="28.4276320" lon="-16.4246430">
        <ele>1104.9</ele>
        <time>2020-11-11T11:48:25Z</time>
      </trkpt>
      <trkpt lat="28.4276320" lon="-16.4246430">
        <ele>1104.9</ele>
        <time>2020-11-11T11:48:26Z</time>
      </trkpt>
      <trkpt lat="28.4275870" lon="-16.4246620">
        <ele>1104.9</ele>
        <time>2020-11-11T11:48:27Z</time>
      </trkpt>
      <trkpt lat="28.4275670" lon="-16.4246720">
        <ele>1104.9</ele>
        <time>2020-11-11T11:48:28Z</time>
      </trkpt>
      <trkpt lat="28.4275670" lon="-16.4246720">
        <ele>1104.9</ele>
        <time>2020-11-11T11:48:29Z</time>
      </trkpt>
      <trkpt lat="28.4275250" lon="-16.4247000">
        <ele>1104.9</ele>
        <time>2020-11-11T11:48:30Z</time>
      </trkpt>
      <trkpt lat="28.4275250" lon="-16.4247000">
        <ele>1104.9</ele>
        <time>2020-11-11T11:48:31Z</time>
      </trkpt>
      <trkpt lat="28.4274770" lon="-16.4247220">
        <ele>1104.9</ele>
        <time>2020-11-11T11:48:32Z</time>
      </trkpt>
      <trkpt lat="28.4274770" lon="-16.4247220">
        <ele>1104.9</ele>
        <time>2020-11-11T11:48:33Z</time>
      </trkpt>
      <trkpt lat="28.4274300" lon="-16.4247450">
        <ele>1105.9</ele>
        <time>2020-11-11T11:48:34Z</time>
      </trkpt>
      <trkpt lat="28.4274300" lon="-16.4247450">
        <ele>1105.9</ele>
        <time>2020-11-11T11:48:35Z</time>
      </trkpt>
      <trkpt lat="28.4273870" lon="-16.4247770">
        <ele>1105.9</ele>
        <time>2020-11-11T11:48:36Z</time>
      </trkpt>
      <trkpt lat="28.4273870" lon="-16.4247770">
        <ele>1105.9</ele>
        <time>2020-11-11T11:48:37Z</time>
      </trkpt>
      <trkpt lat="28.4273370" lon="-16.4248030">
        <ele>1105.9</ele>
        <time>2020-11-11T11:48:38Z</time>
      </trkpt>
      <trkpt lat="28.4273370" lon="-16.4248030">
        <ele>1105.9</ele>
        <time>2020-11-11T11:48:39Z</time>
      </trkpt>
      <trkpt lat="28.4272870" lon="-16.4248380">
        <ele>1105.9</ele>
        <time>2020-11-11T11:48:40Z</time>
      </trkpt>
      <trkpt lat="28.4272870" lon="-16.4248380">
        <ele>1105.9</ele>
        <time>2020-11-11T11:48:41Z</time>
      </trkpt>
      <trkpt lat="28.4272370" lon="-16.4248670">
        <ele>1105.9</ele>
        <time>2020-11-11T11:48:42Z</time>
      </trkpt>
      <trkpt lat="28.4272370" lon="-16.4248670">
        <ele>1105.9</ele>
        <time>2020-11-11T11:48:43Z</time>
      </trkpt>
      <trkpt lat="28.4271920" lon="-16.4248900">
        <ele>1105.9</ele>
        <time>2020-11-11T11:48:44Z</time>
      </trkpt>
      <trkpt lat="28.4271920" lon="-16.4248900">
        <ele>1105.9</ele>
        <time>2020-11-11T11:48:45Z</time>
      </trkpt>
      <trkpt lat="28.4271400" lon="-16.4249230">
        <ele>1105.9</ele>
        <time>2020-11-11T11:48:46Z</time>
      </trkpt>
      <trkpt lat="28.4271400" lon="-16.4249230">
        <ele>1105.9</ele>
        <time>2020-11-11T11:48:47Z</time>
      </trkpt>
      <trkpt lat="28.4270820" lon="-16.4249720">
        <ele>1105.9</ele>
        <time>2020-11-11T11:48:48Z</time>
      </trkpt>
      <trkpt lat="28.4270500" lon="-16.4249950">
        <ele>1105.9</ele>
        <time>2020-11-11T11:48:49Z</time>
      </trkpt>
      <trkpt lat="28.4270500" lon="-16.4249950">
        <ele>1106.9</ele>
        <time>2020-11-11T11:48:50Z</time>
      </trkpt>
      <trkpt lat="28.4269920" lon="-16.4250380">
        <ele>1106.9</ele>
        <time>2020-11-11T11:48:51Z</time>
      </trkpt>
      <trkpt lat="28.4269920" lon="-16.4250380">
        <ele>1106.9</ele>
        <time>2020-11-11T11:48:52Z</time>
      </trkpt>
      <trkpt lat="28.4269400" lon="-16.4250780">
        <ele>1106.9</ele>
        <time>2020-11-11T11:48:53Z</time>
      </trkpt>
      <trkpt lat="28.4269400" lon="-16.4250780">
        <ele>1106.9</ele>
        <time>2020-11-11T11:48:54Z</time>
      </trkpt>
      <trkpt lat="28.4268820" lon="-16.4251200">
        <ele>1106.9</ele>
        <time>2020-11-11T11:48:55Z</time>
      </trkpt>
      <trkpt lat="28.4268820" lon="-16.4251200">
        <ele>1106.9</ele>
        <time>2020-11-11T11:48:56Z</time>
      </trkpt>
      <trkpt lat="28.4268250" lon="-16.4251620">
        <ele>1106.9</ele>
        <time>2020-11-11T11:48:57Z</time>
      </trkpt>
      <trkpt lat="28.4268250" lon="-16.4251620">
        <ele>1106.9</ele>
        <time>2020-11-11T11:48:58Z</time>
      </trkpt>
      <trkpt lat="28.4267770" lon="-16.4252100">
        <ele>1107.9</ele>
        <time>2020-11-11T11:48:59Z</time>
      </trkpt>
      <trkpt lat="28.4267500" lon="-16.4252320">
        <ele>1107.9</ele>
        <time>2020-11-11T11:49:00Z</time>
      </trkpt>
      <trkpt lat="28.4267230" lon="-16.4252520">
        <ele>1107.9</ele>
        <time>2020-11-11T11:49:01Z</time>
      </trkpt>
      <trkpt lat="28.4267230" lon="-16.4252520">
        <ele>1107.9</ele>
        <time>2020-11-11T11:49:02Z</time>
      </trkpt>
      <trkpt lat="28.4266670" lon="-16.4252850">
        <ele>1107.9</ele>
        <time>2020-11-11T11:49:03Z</time>
      </trkpt>
      <trkpt lat="28.4266400" lon="-16.4252980">
        <ele>1107.9</ele>
        <time>2020-11-11T11:49:04Z</time>
      </trkpt>
      <trkpt lat="28.4266400" lon="-16.4252980">
        <ele>1107.9</ele>
        <time>2020-11-11T11:49:05Z</time>
      </trkpt>
      <trkpt lat="28.4265730" lon="-16.4253100">
        <ele>1107.9</ele>
        <time>2020-11-11T11:49:06Z</time>
      </trkpt>
      <trkpt lat="28.4265450" lon="-16.4253130">
        <ele>1107.9</ele>
        <time>2020-11-11T11:49:07Z</time>
      </trkpt>
      <trkpt lat="28.4265450" lon="-16.4253130">
        <ele>1107.9</ele>
        <time>2020-11-11T11:49:08Z</time>
      </trkpt>
      <trkpt lat="28.4264830" lon="-16.4253180">
        <ele>1107.9</ele>
        <time>2020-11-11T11:49:09Z</time>
      </trkpt>
      <trkpt lat="28.4264430" lon="-16.4253300">
        <ele>1107.9</ele>
        <time>2020-11-11T11:49:10Z</time>
      </trkpt>
      <trkpt lat="28.4264430" lon="-16.4253300">
        <ele>1108.9</ele>
        <time>2020-11-11T11:49:11Z</time>
      </trkpt>
      <trkpt lat="28.4263820" lon="-16.4253430">
        <ele>1108.9</ele>
        <time>2020-11-11T11:49:12Z</time>
      </trkpt>
      <trkpt lat="28.4263820" lon="-16.4253430">
        <ele>1108.9</ele>
        <time>2020-11-11T11:49:13Z</time>
      </trkpt>
      <trkpt lat="28.4263330" lon="-16.4253380">
        <ele>1108.9</ele>
        <time>2020-11-11T11:49:14Z</time>
      </trkpt>
      <trkpt lat="28.4263080" lon="-16.4253330">
        <ele>1109.9</ele>
        <time>2020-11-11T11:49:15Z</time>
      </trkpt>
      <trkpt lat="28.4263080" lon="-16.4253330">
        <ele>1109.9</ele>
        <time>2020-11-11T11:49:16Z</time>
      </trkpt>
      <trkpt lat="28.4262550" lon="-16.4253220">
        <ele>1109.9</ele>
        <time>2020-11-11T11:49:17Z</time>
      </trkpt>
      <trkpt lat="28.4262280" lon="-16.4253150">
        <ele>1109.9</ele>
        <time>2020-11-11T11:49:18Z</time>
      </trkpt>
      <trkpt lat="28.4262280" lon="-16.4253150">
        <ele>1109.9</ele>
        <time>2020-11-11T11:49:19Z</time>
      </trkpt>
      <trkpt lat="28.4261670" lon="-16.4253050">
        <ele>1109.9</ele>
        <time>2020-11-11T11:49:20Z</time>
      </trkpt>
      <trkpt lat="28.4261670" lon="-16.4253050">
        <ele>1109.9</ele>
        <time>2020-11-11T11:49:21Z</time>
      </trkpt>
      <trkpt lat="28.4261020" lon="-16.4252930">
        <ele>1109.9</ele>
        <time>2020-11-11T11:49:22Z</time>
      </trkpt>
      <trkpt lat="28.4260750" lon="-16.4252870">
        <ele>1109.9</ele>
        <time>2020-11-11T11:49:23Z</time>
      </trkpt>
      <trkpt lat="28.4260750" lon="-16.4252870">
        <ele>1110.9</ele>
        <time>2020-11-11T11:49:24Z</time>
      </trkpt>
      <trkpt lat="28.4260170" lon="-16.4252800">
        <ele>1110.9</ele>
        <time>2020-11-11T11:49:25Z</time>
      </trkpt>
      <trkpt lat="28.4260170" lon="-16.4252800">
        <ele>1110.9</ele>
        <time>2020-11-11T11:49:26Z</time>
      </trkpt>
      <trkpt lat="28.4259580" lon="-16.4252650">
        <ele>1110.9</ele>
        <time>2020-11-11T11:49:27Z</time>
      </trkpt>
      <trkpt lat="28.4259330" lon="-16.4252670">
        <ele>1111.9</ele>
        <time>2020-11-11T11:49:28Z</time>
      </trkpt>
      <trkpt lat="28.4259330" lon="-16.4252670">
        <ele>1111.9</ele>
        <time>2020-11-11T11:49:29Z</time>
      </trkpt>
      <trkpt lat="28.4258970" lon="-16.4253200">
        <ele>1111.9</ele>
        <time>2020-11-11T11:49:30Z</time>
      </trkpt>
      <trkpt lat="28.4258970" lon="-16.4253200">
        <ele>1111.9</ele>
        <time>2020-11-11T11:49:31Z</time>
      </trkpt>
      <trkpt lat="28.4258930" lon="-16.4253750">
        <ele>1111.9</ele>
        <time>2020-11-11T11:49:32Z</time>
      </trkpt>
      <trkpt lat="28.4258930" lon="-16.4253750">
        <ele>1111.9</ele>
        <time>2020-11-11T11:49:33Z</time>
      </trkpt>
      <trkpt lat="28.4259080" lon="-16.4254270">
        <ele>1111.9</ele>
        <time>2020-11-11T11:49:34Z</time>
      </trkpt>
      <trkpt lat="28.4259080" lon="-16.4254270">
        <ele>1111.9</ele>
        <time>2020-11-11T11:49:35Z</time>
      </trkpt>
      <trkpt lat="28.4259280" lon="-16.4254680">
        <ele>1111.9</ele>
        <time>2020-11-11T11:49:36Z</time>
      </trkpt>
      <trkpt lat="28.4259280" lon="-16.4254680">
        <ele>1111.9</ele>
        <time>2020-11-11T11:49:37Z</time>
      </trkpt>
      <trkpt lat="28.4259400" lon="-16.4255070">
        <ele>1111.9</ele>
        <time>2020-11-11T11:49:38Z</time>
      </trkpt>
      <trkpt lat="28.4259430" lon="-16.4255300">
        <ele>1111.9</ele>
        <time>2020-11-11T11:49:39Z</time>
      </trkpt>
      <trkpt lat="28.4259430" lon="-16.4255300">
        <ele>1111.9</ele>
        <time>2020-11-11T11:49:40Z</time>
      </trkpt>
      <trkpt lat="28.4259850" lon="-16.4256320">
        <ele>1111.9</ele>
        <time>2020-11-11T11:49:41Z</time>
      </trkpt>
      <trkpt lat="28.4259850" lon="-16.4256320">
        <ele>1111.9</ele>
        <time>2020-11-11T11:49:42Z</time>
      </trkpt>
      <trkpt lat="28.4260080" lon="-16.4257200">
        <ele>1111.9</ele>
        <time>2020-11-11T11:49:43Z</time>
      </trkpt>
      <trkpt lat="28.4260180" lon="-16.4257700">
        <ele>1110.9</ele>
        <time>2020-11-11T11:49:44Z</time>
      </trkpt>
      <trkpt lat="28.4260280" lon="-16.4258120">
        <ele>1110.9</ele>
        <time>2020-11-11T11:49:45Z</time>
      </trkpt>
      <trkpt lat="28.4260280" lon="-16.4258120">
        <ele>1110.9</ele>
        <time>2020-11-11T11:49:46Z</time>
      </trkpt>
      <trkpt lat="28.4260330" lon="-16.4258930">
        <ele>1110.9</ele>
        <time>2020-11-11T11:49:47Z</time>
      </trkpt>
      <trkpt lat="28.4260330" lon="-16.4258930">
        <ele>1110.9</ele>
        <time>2020-11-11T11:49:48Z</time>
      </trkpt>
      <trkpt lat="28.4260120" lon="-16.4259750">
        <ele>1110.9</ele>
        <time>2020-11-11T11:49:49Z</time>
      </trkpt>
      <trkpt lat="28.4260020" lon="-16.4260130">
        <ele>1110.9</ele>
        <time>2020-11-11T11:49:50Z</time>
      </trkpt>
      <trkpt lat="28.4260020" lon="-16.4260130">
        <ele>1110.9</ele>
        <time>2020-11-11T11:49:51Z</time>
      </trkpt>
      <trkpt lat="28.4259500" lon="-16.4260930">
        <ele>1110.9</ele>
        <time>2020-11-11T11:49:52Z</time>
      </trkpt>
      <trkpt lat="28.4259130" lon="-16.4261350">
        <ele>1110.9</ele>
        <time>2020-11-11T11:49:53Z</time>
      </trkpt>
      <trkpt lat="28.4259130" lon="-16.4261350">
        <ele>1111.9</ele>
        <time>2020-11-11T11:49:54Z</time>
      </trkpt>
      <trkpt lat="28.4258450" lon="-16.4262050">
        <ele>1111.9</ele>
        <time>2020-11-11T11:49:55Z</time>
      </trkpt>
      <trkpt lat="28.4258450" lon="-16.4262050">
        <ele>1111.9</ele>
        <time>2020-11-11T11:49:56Z</time>
      </trkpt>
      <trkpt lat="28.4257750" lon="-16.4262750">
        <ele>1111.9</ele>
        <time>2020-11-11T11:49:57Z</time>
      </trkpt>
      <trkpt lat="28.4257750" lon="-16.4262750">
        <ele>1111.9</ele>
        <time>2020-11-11T11:49:58Z</time>
      </trkpt>
      <trkpt lat="28.4257170" lon="-16.4263550">
        <ele>1111.9</ele>
        <time>2020-11-11T11:49:59Z</time>
      </trkpt>
      <trkpt lat="28.4257170" lon="-16.4263550">
        <ele>1111.9</ele>
        <time>2020-11-11T11:50:00Z</time>
      </trkpt>
      <trkpt lat="28.4256600" lon="-16.4264370">
        <ele>1111.9</ele>
        <time>2020-11-11T11:50:01Z</time>
      </trkpt>
      <trkpt lat="28.4256600" lon="-16.4264370">
        <ele>1111.9</ele>
        <time>2020-11-11T11:50:02Z</time>
      </trkpt>
      <trkpt lat="28.4256130" lon="-16.4265130">
        <ele>1111.9</ele>
        <time>2020-11-11T11:50:03Z</time>
      </trkpt>
      <trkpt lat="28.4255950" lon="-16.4265520">
        <ele>1111.9</ele>
        <time>2020-11-11T11:50:04Z</time>
      </trkpt>
      <trkpt lat="28.4255950" lon="-16.4265520">
        <ele>1112.9</ele>
        <time>2020-11-11T11:50:05Z</time>
      </trkpt>
      <trkpt lat="28.4255250" lon="-16.4266280">
        <ele>1112.9</ele>
        <time>2020-11-11T11:50:06Z</time>
      </trkpt>
      <trkpt lat="28.4255250" lon="-16.4266280">
        <ele>1112.9</ele>
        <time>2020-11-11T11:50:07Z</time>
      </trkpt>
      <trkpt lat="28.4254480" lon="-16.4266800">
        <ele>1112.9</ele>
        <time>2020-11-11T11:50:08Z</time>
      </trkpt>
      <trkpt lat="28.4254070" lon="-16.4266880">
        <ele>1112.9</ele>
        <time>2020-11-11T11:50:09Z</time>
      </trkpt>
      <trkpt lat="28.4254070" lon="-16.4266880">
        <ele>1112.9</ele>
        <time>2020-11-11T11:50:10Z</time>
      </trkpt>
      <trkpt lat="28.4253250" lon="-16.4267030">
        <ele>1112.9</ele>
        <time>2020-11-11T11:50:11Z</time>
      </trkpt>
      <trkpt lat="28.4253250" lon="-16.4267030">
        <ele>1112.9</ele>
        <time>2020-11-11T11:50:12Z</time>
      </trkpt>
      <trkpt lat="28.4252330" lon="-16.4267150">
        <ele>1113.9</ele>
        <time>2020-11-11T11:50:13Z</time>
      </trkpt>
      <trkpt lat="28.4252330" lon="-16.4267150">
        <ele>1113.9</ele>
        <time>2020-11-11T11:50:14Z</time>
      </trkpt>
      <trkpt lat="28.4251530" lon="-16.4267280">
        <ele>1113.9</ele>
        <time>2020-11-11T11:50:15Z</time>
      </trkpt>
      <trkpt lat="28.4251170" lon="-16.4267370">
        <ele>1113.9</ele>
        <time>2020-11-11T11:50:16Z</time>
      </trkpt>
      <trkpt lat="28.4251170" lon="-16.4267370">
        <ele>1114.9</ele>
        <time>2020-11-11T11:50:17Z</time>
      </trkpt>
      <trkpt lat="28.4250380" lon="-16.4267450">
        <ele>1114.9</ele>
        <time>2020-11-11T11:50:18Z</time>
      </trkpt>
      <trkpt lat="28.4250380" lon="-16.4267450">
        <ele>1114.9</ele>
        <time>2020-11-11T11:50:19Z</time>
      </trkpt>
      <trkpt lat="28.4249570" lon="-16.4267600">
        <ele>1114.9</ele>
        <time>2020-11-11T11:50:20Z</time>
      </trkpt>
      <trkpt lat="28.4249150" lon="-16.4267700">
        <ele>1115.9</ele>
        <time>2020-11-11T11:50:21Z</time>
      </trkpt>
      <trkpt lat="28.4248800" lon="-16.4267880">
        <ele>1115.9</ele>
        <time>2020-11-11T11:50:22Z</time>
      </trkpt>
      <trkpt lat="28.4248800" lon="-16.4267880">
        <ele>1115.9</ele>
        <time>2020-11-11T11:50:23Z</time>
      </trkpt>
      <trkpt lat="28.4248100" lon="-16.4268330">
        <ele>1115.9</ele>
        <time>2020-11-11T11:50:24Z</time>
      </trkpt>
      <trkpt lat="28.4247870" lon="-16.4268580">
        <ele>1115.9</ele>
        <time>2020-11-11T11:50:25Z</time>
      </trkpt>
      <trkpt lat="28.4247870" lon="-16.4268580">
        <ele>1115.9</ele>
        <time>2020-11-11T11:50:26Z</time>
      </trkpt>
      <trkpt lat="28.4247420" lon="-16.4269020">
        <ele>1115.9</ele>
        <time>2020-11-11T11:50:27Z</time>
      </trkpt>
      <trkpt lat="28.4247180" lon="-16.4269250">
        <ele>1115.9</ele>
        <time>2020-11-11T11:50:28Z</time>
      </trkpt>
      <trkpt lat="28.4247180" lon="-16.4269250">
        <ele>1116.9</ele>
        <time>2020-11-11T11:50:29Z</time>
      </trkpt>
      <trkpt lat="28.4246750" lon="-16.4269680">
        <ele>1116.9</ele>
        <time>2020-11-11T11:50:30Z</time>
      </trkpt>
      <trkpt lat="28.4246550" lon="-16.4269930">
        <ele>1116.9</ele>
        <time>2020-11-11T11:50:31Z</time>
      </trkpt>
      <trkpt lat="28.4246550" lon="-16.4269930">
        <ele>1116.9</ele>
        <time>2020-11-11T11:50:32Z</time>
      </trkpt>
      <trkpt lat="28.4246220" lon="-16.4270480">
        <ele>1116.9</ele>
        <time>2020-11-11T11:50:33Z</time>
      </trkpt>
      <trkpt lat="28.4246220" lon="-16.4270480">
        <ele>1116.9</ele>
        <time>2020-11-11T11:50:34Z</time>
      </trkpt>
      <trkpt lat="28.4245670" lon="-16.4271330">
        <ele>1116.9</ele>
        <time>2020-11-11T11:50:35Z</time>
      </trkpt>
      <trkpt lat="28.4245380" lon="-16.4271750">
        <ele>1116.9</ele>
        <time>2020-11-11T11:50:36Z</time>
      </trkpt>
      <trkpt lat="28.4245380" lon="-16.4271750">
        <ele>1116.9</ele>
        <time>2020-11-11T11:50:37Z</time>
      </trkpt>
      <trkpt lat="28.4244800" lon="-16.4272530">
        <ele>1116.9</ele>
        <time>2020-11-11T11:50:38Z</time>
      </trkpt>
      <trkpt lat="28.4244800" lon="-16.4272530">
        <ele>1116.9</ele>
        <time>2020-11-11T11:50:39Z</time>
      </trkpt>
      <trkpt lat="28.4244270" lon="-16.4273350">
        <ele>1116.9</ele>
        <time>2020-11-11T11:50:40Z</time>
      </trkpt>
      <trkpt lat="28.4244270" lon="-16.4273350">
        <ele>1116.9</ele>
        <time>2020-11-11T11:50:41Z</time>
      </trkpt>
      <trkpt lat="28.4243600" lon="-16.4274350">
        <ele>1116.9</ele>
        <time>2020-11-11T11:50:42Z</time>
      </trkpt>
      <trkpt lat="28.4243230" lon="-16.4274820">
        <ele>1116.9</ele>
        <time>2020-11-11T11:50:43Z</time>
      </trkpt>
      <trkpt lat="28.4243230" lon="-16.4274820">
        <ele>1116.9</ele>
        <time>2020-11-11T11:50:44Z</time>
      </trkpt>
      <trkpt lat="28.4242720" lon="-16.4275420">
        <ele>1116.9</ele>
        <time>2020-11-11T11:50:45Z</time>
      </trkpt>
      <trkpt lat="28.4242720" lon="-16.4275420">
        <ele>1116.9</ele>
        <time>2020-11-11T11:50:46Z</time>
      </trkpt>
      <trkpt lat="28.4241920" lon="-16.4275820">
        <ele>1116.9</ele>
        <time>2020-11-11T11:50:47Z</time>
      </trkpt>
      <trkpt lat="28.4241450" lon="-16.4275980">
        <ele>1116.9</ele>
        <time>2020-11-11T11:50:48Z</time>
      </trkpt>
      <trkpt lat="28.4241450" lon="-16.4275980">
        <ele>1116.9</ele>
        <time>2020-11-11T11:50:49Z</time>
      </trkpt>
      <trkpt lat="28.4240520" lon="-16.4276330">
        <ele>1115.9</ele>
        <time>2020-11-11T11:50:50Z</time>
      </trkpt>
      <trkpt lat="28.4240100" lon="-16.4276520">
        <ele>1115.9</ele>
        <time>2020-11-11T11:50:51Z</time>
      </trkpt>
      <trkpt lat="28.4240100" lon="-16.4276520">
        <ele>1115.9</ele>
        <time>2020-11-11T11:50:52Z</time>
      </trkpt>
      <trkpt lat="28.4239480" lon="-16.4277050">
        <ele>1115.9</ele>
        <time>2020-11-11T11:50:53Z</time>
      </trkpt>
      <trkpt lat="28.4239320" lon="-16.4277470">
        <ele>1115.9</ele>
        <time>2020-11-11T11:50:54Z</time>
      </trkpt>
      <trkpt lat="28.4239320" lon="-16.4277470">
        <ele>1114.9</ele>
        <time>2020-11-11T11:50:55Z</time>
      </trkpt>
      <trkpt lat="28.4239050" lon="-16.4278320">
        <ele>1114.9</ele>
        <time>2020-11-11T11:50:56Z</time>
      </trkpt>
      <trkpt lat="28.4239050" lon="-16.4278320">
        <ele>1114.9</ele>
        <time>2020-11-11T11:50:57Z</time>
      </trkpt>
      <trkpt lat="28.4238600" lon="-16.4279100">
        <ele>1114.9</ele>
        <time>2020-11-11T11:50:58Z</time>
      </trkpt>
      <trkpt lat="28.4238350" lon="-16.4279470">
        <ele>1114.9</ele>
        <time>2020-11-11T11:50:59Z</time>
      </trkpt>
      <trkpt lat="28.4238350" lon="-16.4279470">
        <ele>1114.9</ele>
        <time>2020-11-11T11:51:00Z</time>
      </trkpt>
      <trkpt lat="28.4237900" lon="-16.4280130">
        <ele>1114.9</ele>
        <time>2020-11-11T11:51:01Z</time>
      </trkpt>
      <trkpt lat="28.4237900" lon="-16.4280130">
        <ele>1112.9</ele>
        <time>2020-11-11T11:51:02Z</time>
      </trkpt>
      <trkpt lat="28.4237600" lon="-16.4280700">
        <ele>1112.9</ele>
        <time>2020-11-11T11:51:03Z</time>
      </trkpt>
      <trkpt lat="28.4237420" lon="-16.4281020">
        <ele>1112.9</ele>
        <time>2020-11-11T11:51:04Z</time>
      </trkpt>
      <trkpt lat="28.4237420" lon="-16.4281020">
        <ele>1112.9</ele>
        <time>2020-11-11T11:51:05Z</time>
      </trkpt>
      <trkpt lat="28.4236950" lon="-16.4281600">
        <ele>1111.9</ele>
        <time>2020-11-11T11:51:06Z</time>
      </trkpt>
      <trkpt lat="28.4236680" lon="-16.4281820">
        <ele>1111.9</ele>
        <time>2020-11-11T11:51:07Z</time>
      </trkpt>
      <trkpt lat="28.4236680" lon="-16.4281820">
        <ele>1111.9</ele>
        <time>2020-11-11T11:51:08Z</time>
      </trkpt>
      <trkpt lat="28.4236200" lon="-16.4282200">
        <ele>1111.9</ele>
        <time>2020-11-11T11:51:09Z</time>
      </trkpt>
      <trkpt lat="28.4236200" lon="-16.4282200">
        <ele>1111.9</ele>
        <time>2020-11-11T11:51:10Z</time>
      </trkpt>
      <trkpt lat="28.4235700" lon="-16.4282580">
        <ele>1111.9</ele>
        <time>2020-11-11T11:51:11Z</time>
      </trkpt>
      <trkpt lat="28.4235700" lon="-16.4282580">
        <ele>1111.9</ele>
        <time>2020-11-11T11:51:12Z</time>
      </trkpt>
      <trkpt lat="28.4235250" lon="-16.4283100">
        <ele>1111.9</ele>
        <time>2020-11-11T11:51:13Z</time>
      </trkpt>
      <trkpt lat="28.4235250" lon="-16.4283100">
        <ele>1111.9</ele>
        <time>2020-11-11T11:51:14Z</time>
      </trkpt>
      <trkpt lat="28.4234870" lon="-16.4283650">
        <ele>1111.9</ele>
        <time>2020-11-11T11:51:15Z</time>
      </trkpt>
      <trkpt lat="28.4234870" lon="-16.4283650">
        <ele>1111.9</ele>
        <time>2020-11-11T11:51:16Z</time>
      </trkpt>
      <trkpt lat="28.4234550" lon="-16.4284300">
        <ele>1111.9</ele>
        <time>2020-11-11T11:51:17Z</time>
      </trkpt>
      <trkpt lat="28.4234550" lon="-16.4284300">
        <ele>1111.9</ele>
        <time>2020-11-11T11:51:18Z</time>
      </trkpt>
      <trkpt lat="28.4234400" lon="-16.4284880">
        <ele>1111.9</ele>
        <time>2020-11-11T11:51:19Z</time>
      </trkpt>
      <trkpt lat="28.4234400" lon="-16.4284880">
        <ele>1111.9</ele>
        <time>2020-11-11T11:51:20Z</time>
      </trkpt>
      <trkpt lat="28.4234220" lon="-16.4285520">
        <ele>1110.9</ele>
        <time>2020-11-11T11:51:21Z</time>
      </trkpt>
      <trkpt lat="28.4234100" lon="-16.4285830">
        <ele>1110.9</ele>
        <time>2020-11-11T11:51:22Z</time>
      </trkpt>
      <trkpt lat="28.4234100" lon="-16.4285830">
        <ele>1110.9</ele>
        <time>2020-11-11T11:51:23Z</time>
      </trkpt>
      <trkpt lat="28.4233770" lon="-16.4286380">
        <ele>1110.9</ele>
        <time>2020-11-11T11:51:24Z</time>
      </trkpt>
      <trkpt lat="28.4233520" lon="-16.4286650">
        <ele>1110.9</ele>
        <time>2020-11-11T11:51:25Z</time>
      </trkpt>
      <trkpt lat="28.4233520" lon="-16.4286650">
        <ele>1110.9</ele>
        <time>2020-11-11T11:51:26Z</time>
      </trkpt>
      <trkpt lat="28.4232950" lon="-16.4287280">
        <ele>1109.9</ele>
        <time>2020-11-11T11:51:27Z</time>
      </trkpt>
      <trkpt lat="28.4232950" lon="-16.4287280">
        <ele>1109.9</ele>
        <time>2020-11-11T11:51:28Z</time>
      </trkpt>
      <trkpt lat="28.4232280" lon="-16.4287980">
        <ele>1109.9</ele>
        <time>2020-11-11T11:51:29Z</time>
      </trkpt>
      <trkpt lat="28.4232280" lon="-16.4287980">
        <ele>1109.9</ele>
        <time>2020-11-11T11:51:30Z</time>
      </trkpt>
      <trkpt lat="28.4231680" lon="-16.4288730">
        <ele>1108.9</ele>
        <time>2020-11-11T11:51:31Z</time>
      </trkpt>
      <trkpt lat="28.4231680" lon="-16.4288730">
        <ele>1108.9</ele>
        <time>2020-11-11T11:51:32Z</time>
      </trkpt>
      <trkpt lat="28.4231120" lon="-16.4289450">
        <ele>1108.9</ele>
        <time>2020-11-11T11:51:33Z</time>
      </trkpt>
      <trkpt lat="28.4231120" lon="-16.4289450">
        <ele>1108.9</ele>
        <time>2020-11-11T11:51:34Z</time>
      </trkpt>
      <trkpt lat="28.4230570" lon="-16.4289780">
        <ele>1107.9</ele>
        <time>2020-11-11T11:51:35Z</time>
      </trkpt>
      <trkpt lat="28.4230330" lon="-16.4289930">
        <ele>1107.9</ele>
        <time>2020-11-11T11:51:36Z</time>
      </trkpt>
      <trkpt lat="28.4230330" lon="-16.4289930">
        <ele>1106.9</ele>
        <time>2020-11-11T11:51:37Z</time>
      </trkpt>
      <trkpt lat="28.4229970" lon="-16.4290370">
        <ele>1106.9</ele>
        <time>2020-11-11T11:51:38Z</time>
      </trkpt>
      <trkpt lat="28.4229970" lon="-16.4290370">
        <ele>1106.9</ele>
        <time>2020-11-11T11:51:39Z</time>
      </trkpt>
      <trkpt lat="28.4229650" lon="-16.4290920">
        <ele>1106.9</ele>
        <time>2020-11-11T11:51:40Z</time>
      </trkpt>
      <trkpt lat="28.4229650" lon="-16.4290920">
        <ele>1106.9</ele>
        <time>2020-11-11T11:51:41Z</time>
      </trkpt>
      <trkpt lat="28.4229500" lon="-16.4291570">
        <ele>1106.9</ele>
        <time>2020-11-11T11:51:42Z</time>
      </trkpt>
      <trkpt lat="28.4229380" lon="-16.4291930">
        <ele>1106.9</ele>
        <time>2020-11-11T11:51:43Z</time>
      </trkpt>
      <trkpt lat="28.4229380" lon="-16.4291930">
        <ele>1106.9</ele>
        <time>2020-11-11T11:51:44Z</time>
      </trkpt>
      <trkpt lat="28.4229250" lon="-16.4292650">
        <ele>1105.9</ele>
        <time>2020-11-11T11:51:45Z</time>
      </trkpt>
      <trkpt lat="28.4229300" lon="-16.4292870">
        <ele>1105.9</ele>
        <time>2020-11-11T11:51:46Z</time>
      </trkpt>
      <trkpt lat="28.4229300" lon="-16.4292870">
        <ele>1105.9</ele>
        <time>2020-11-11T11:51:47Z</time>
      </trkpt>
      <trkpt lat="28.4229080" lon="-16.4293500">
        <ele>1105.9</ele>
        <time>2020-11-11T11:51:48Z</time>
      </trkpt>
      <trkpt lat="28.4228850" lon="-16.4293850">
        <ele>1105.9</ele>
        <time>2020-11-11T11:51:49Z</time>
      </trkpt>
      <trkpt lat="28.4228850" lon="-16.4293850">
        <ele>1105.9</ele>
        <time>2020-11-11T11:51:50Z</time>
      </trkpt>
      <trkpt lat="28.4228250" lon="-16.4294370">
        <ele>1105.9</ele>
        <time>2020-11-11T11:51:51Z</time>
      </trkpt>
      <trkpt lat="28.4228250" lon="-16.4294370">
        <ele>1105.9</ele>
        <time>2020-11-11T11:51:52Z</time>
      </trkpt>
      <trkpt lat="28.4227370" lon="-16.4294870">
        <ele>1105.9</ele>
        <time>2020-11-11T11:51:53Z</time>
      </trkpt>
      <trkpt lat="28.4226920" lon="-16.4295020">
        <ele>1104.9</ele>
        <time>2020-11-11T11:51:54Z</time>
      </trkpt>
      <trkpt lat="28.4226920" lon="-16.4295020">
        <ele>1104.9</ele>
        <time>2020-11-11T11:51:55Z</time>
      </trkpt>
      <trkpt lat="28.4225920" lon="-16.4295220">
        <ele>1104.9</ele>
        <time>2020-11-11T11:51:56Z</time>
      </trkpt>
      <trkpt lat="28.4225920" lon="-16.4295220">
        <ele>1104.9</ele>
        <time>2020-11-11T11:51:57Z</time>
      </trkpt>
      <trkpt lat="28.4225080" lon="-16.4295470">
        <ele>1104.9</ele>
        <time>2020-11-11T11:51:58Z</time>
      </trkpt>
      <trkpt lat="28.4225080" lon="-16.4295470">
        <ele>1104.9</ele>
        <time>2020-11-11T11:51:59Z</time>
      </trkpt>
      <trkpt lat="28.4224250" lon="-16.4295650">
        <ele>1104.9</ele>
        <time>2020-11-11T11:52:00Z</time>
      </trkpt>
      <trkpt lat="28.4224250" lon="-16.4295650">
        <ele>1104.9</ele>
        <time>2020-11-11T11:52:01Z</time>
      </trkpt>
      <trkpt lat="28.4223480" lon="-16.4295850">
        <ele>1104.9</ele>
        <time>2020-11-11T11:52:02Z</time>
      </trkpt>
      <trkpt lat="28.4223150" lon="-16.4295930">
        <ele>1104.9</ele>
        <time>2020-11-11T11:52:03Z</time>
      </trkpt>
      <trkpt lat="28.4223150" lon="-16.4295930">
        <ele>1104.9</ele>
        <time>2020-11-11T11:52:04Z</time>
      </trkpt>
      <trkpt lat="28.4222500" lon="-16.4296180">
        <ele>1104.9</ele>
        <time>2020-11-11T11:52:05Z</time>
      </trkpt>
      <trkpt lat="28.4222500" lon="-16.4296180">
        <ele>1105.9</ele>
        <time>2020-11-11T11:52:06Z</time>
      </trkpt>
      <trkpt lat="28.4221820" lon="-16.4296600">
        <ele>1105.9</ele>
        <time>2020-11-11T11:52:07Z</time>
      </trkpt>
      <trkpt lat="28.4221820" lon="-16.4296600">
        <ele>1105.9</ele>
        <time>2020-11-11T11:52:08Z</time>
      </trkpt>
      <trkpt lat="28.4221250" lon="-16.4297250">
        <ele>1105.9</ele>
        <time>2020-11-11T11:52:09Z</time>
      </trkpt>
      <trkpt lat="28.4221020" lon="-16.4297630">
        <ele>1104.9</ele>
        <time>2020-11-11T11:52:10Z</time>
      </trkpt>
      <trkpt lat="28.4221020" lon="-16.4297630">
        <ele>1104.9</ele>
        <time>2020-11-11T11:52:11Z</time>
      </trkpt>
      <trkpt lat="28.4220620" lon="-16.4298330">
        <ele>1104.9</ele>
        <time>2020-11-11T11:52:12Z</time>
      </trkpt>
      <trkpt lat="28.4220470" lon="-16.4298680">
        <ele>1104.9</ele>
        <time>2020-11-11T11:52:13Z</time>
      </trkpt>
      <trkpt lat="28.4220470" lon="-16.4298680">
        <ele>1104.9</ele>
        <time>2020-11-11T11:52:14Z</time>
      </trkpt>
      <trkpt lat="28.4220030" lon="-16.4299230">
        <ele>1104.9</ele>
        <time>2020-11-11T11:52:15Z</time>
      </trkpt>
      <trkpt lat="28.4219730" lon="-16.4299670">
        <ele>1104.9</ele>
        <time>2020-11-11T11:52:16Z</time>
      </trkpt>
      <trkpt lat="28.4219730" lon="-16.4299670">
        <ele>1104.9</ele>
        <time>2020-11-11T11:52:17Z</time>
      </trkpt>
      <trkpt lat="28.4219270" lon="-16.4300380">
        <ele>1104.9</ele>
        <time>2020-11-11T11:52:18Z</time>
      </trkpt>
      <trkpt lat="28.4219050" lon="-16.4300820">
        <ele>1104.9</ele>
        <time>2020-11-11T11:52:19Z</time>
      </trkpt>
      <trkpt lat="28.4219050" lon="-16.4300820">
        <ele>1103.9</ele>
        <time>2020-11-11T11:52:20Z</time>
      </trkpt>
      <trkpt lat="28.4218950" lon="-16.4301800">
        <ele>1103.9</ele>
        <time>2020-11-11T11:52:21Z</time>
      </trkpt>
      <trkpt lat="28.4218930" lon="-16.4302180">
        <ele>1103.9</ele>
        <time>2020-11-11T11:52:22Z</time>
      </trkpt>
      <trkpt lat="28.4218880" lon="-16.4302550">
        <ele>1103.9</ele>
        <time>2020-11-11T11:52:23Z</time>
      </trkpt>
      <trkpt lat="28.4218780" lon="-16.4302870">
        <ele>1103.9</ele>
        <time>2020-11-11T11:52:24Z</time>
      </trkpt>
      <trkpt lat="28.4218780" lon="-16.4302870">
        <ele>1103.9</ele>
        <time>2020-11-11T11:52:25Z</time>
      </trkpt>
      <trkpt lat="28.4218270" lon="-16.4303700">
        <ele>1103.9</ele>
        <time>2020-11-11T11:52:26Z</time>
      </trkpt>
      <trkpt lat="28.4218270" lon="-16.4303700">
        <ele>1103.9</ele>
        <time>2020-11-11T11:52:27Z</time>
      </trkpt>
      <trkpt lat="28.4217520" lon="-16.4304300">
        <ele>1103.9</ele>
        <time>2020-11-11T11:52:28Z</time>
      </trkpt>
      <trkpt lat="28.4217520" lon="-16.4304300">
        <ele>1103.9</ele>
        <time>2020-11-11T11:52:29Z</time>
      </trkpt>
      <trkpt lat="28.4216700" lon="-16.4304900">
        <ele>1103.9</ele>
        <time>2020-11-11T11:52:30Z</time>
      </trkpt>
      <trkpt lat="28.4216370" lon="-16.4305220">
        <ele>1102.9</ele>
        <time>2020-11-11T11:52:31Z</time>
      </trkpt>
      <trkpt lat="28.4216370" lon="-16.4305220">
        <ele>1102.9</ele>
        <time>2020-11-11T11:52:32Z</time>
      </trkpt>
      <trkpt lat="28.4215650" lon="-16.4305970">
        <ele>1102.9</ele>
        <time>2020-11-11T11:52:33Z</time>
      </trkpt>
      <trkpt lat="28.4215320" lon="-16.4306330">
        <ele>1102.9</ele>
        <time>2020-11-11T11:52:34Z</time>
      </trkpt>
      <trkpt lat="28.4215320" lon="-16.4306330">
        <ele>1102.9</ele>
        <time>2020-11-11T11:52:35Z</time>
      </trkpt>
      <trkpt lat="28.4214700" lon="-16.4306950">
        <ele>1102.9</ele>
        <time>2020-11-11T11:52:36Z</time>
      </trkpt>
      <trkpt lat="28.4214700" lon="-16.4306950">
        <ele>1102.9</ele>
        <time>2020-11-11T11:52:37Z</time>
      </trkpt>
      <trkpt lat="28.4214070" lon="-16.4307470">
        <ele>1102.9</ele>
        <time>2020-11-11T11:52:38Z</time>
      </trkpt>
      <trkpt lat="28.4214070" lon="-16.4307470">
        <ele>1102.9</ele>
        <time>2020-11-11T11:52:39Z</time>
      </trkpt>
      <trkpt lat="28.4213320" lon="-16.4307770">
        <ele>1102.9</ele>
        <time>2020-11-11T11:52:40Z</time>
      </trkpt>
      <trkpt lat="28.4213320" lon="-16.4307770">
        <ele>1102.9</ele>
        <time>2020-11-11T11:52:41Z</time>
      </trkpt>
      <trkpt lat="28.4212570" lon="-16.4308070">
        <ele>1103.9</ele>
        <time>2020-11-11T11:52:42Z</time>
      </trkpt>
      <trkpt lat="28.4212200" lon="-16.4308100">
        <ele>1103.9</ele>
        <time>2020-11-11T11:52:43Z</time>
      </trkpt>
      <trkpt lat="28.4211850" lon="-16.4308070">
        <ele>1103.9</ele>
        <time>2020-11-11T11:52:44Z</time>
      </trkpt>
      <trkpt lat="28.4211850" lon="-16.4308070">
        <ele>1103.9</ele>
        <time>2020-11-11T11:52:45Z</time>
      </trkpt>
      <trkpt lat="28.4211180" lon="-16.4308000">
        <ele>1103.9</ele>
        <time>2020-11-11T11:52:46Z</time>
      </trkpt>
      <trkpt lat="28.4211180" lon="-16.4308000">
        <ele>1103.9</ele>
        <time>2020-11-11T11:52:47Z</time>
      </trkpt>
      <trkpt lat="28.4210600" lon="-16.4307900">
        <ele>1103.9</ele>
        <time>2020-11-11T11:52:48Z</time>
      </trkpt>
      <trkpt lat="28.4210600" lon="-16.4307900">
        <ele>1103.9</ele>
        <time>2020-11-11T11:52:49Z</time>
      </trkpt>
      <trkpt lat="28.4210050" lon="-16.4307880">
        <ele>1103.9</ele>
        <time>2020-11-11T11:52:50Z</time>
      </trkpt>
      <trkpt lat="28.4209770" lon="-16.4308020">
        <ele>1103.9</ele>
        <time>2020-11-11T11:52:51Z</time>
      </trkpt>
      <trkpt lat="28.4209770" lon="-16.4308020">
        <ele>1103.9</ele>
        <time>2020-11-11T11:52:52Z</time>
      </trkpt>
      <trkpt lat="28.4209230" lon="-16.4308330">
        <ele>1103.9</ele>
        <time>2020-11-11T11:52:53Z</time>
      </trkpt>
      <trkpt lat="28.4209230" lon="-16.4308330">
        <ele>1104.9</ele>
        <time>2020-11-11T11:52:54Z</time>
      </trkpt>
      <trkpt lat="28.4208820" lon="-16.4308870">
        <ele>1104.9</ele>
        <time>2020-11-11T11:52:55Z</time>
      </trkpt>
      <trkpt lat="28.4208820" lon="-16.4308870">
        <ele>1104.9</ele>
        <time>2020-11-11T11:52:56Z</time>
      </trkpt>
      <trkpt lat="28.4208520" lon="-16.4309400">
        <ele>1104.9</ele>
        <time>2020-11-11T11:52:57Z</time>
      </trkpt>
      <trkpt lat="28.4208370" lon="-16.4309730">
        <ele>1105.9</ele>
        <time>2020-11-11T11:52:58Z</time>
      </trkpt>
      <trkpt lat="28.4208370" lon="-16.4309730">
        <ele>1105.9</ele>
        <time>2020-11-11T11:52:59Z</time>
      </trkpt>
      <trkpt lat="28.4208130" lon="-16.4310420">
        <ele>1105.9</ele>
        <time>2020-11-11T11:53:00Z</time>
      </trkpt>
      <trkpt lat="28.4208130" lon="-16.4310420">
        <ele>1105.9</ele>
        <time>2020-11-11T11:53:01Z</time>
      </trkpt>
      <trkpt lat="28.4207780" lon="-16.4311180">
        <ele>1105.9</ele>
        <time>2020-11-11T11:53:02Z</time>
      </trkpt>
      <trkpt lat="28.4207780" lon="-16.4311180">
        <ele>1105.9</ele>
        <time>2020-11-11T11:53:03Z</time>
      </trkpt>
      <trkpt lat="28.4207200" lon="-16.4311800">
        <ele>1106.9</ele>
        <time>2020-11-11T11:53:04Z</time>
      </trkpt>
      <trkpt lat="28.4207200" lon="-16.4311800">
        <ele>1106.9</ele>
        <time>2020-11-11T11:53:05Z</time>
      </trkpt>
      <trkpt lat="28.4206630" lon="-16.4312000">
        <ele>1106.9</ele>
        <time>2020-11-11T11:53:06Z</time>
      </trkpt>
      <trkpt lat="28.4206400" lon="-16.4312050">
        <ele>1106.9</ele>
        <time>2020-11-11T11:53:07Z</time>
      </trkpt>
      <trkpt lat="28.4206400" lon="-16.4312050">
        <ele>1106.9</ele>
        <time>2020-11-11T11:53:08Z</time>
      </trkpt>
      <trkpt lat="28.4206050" lon="-16.4312170">
        <ele>1106.9</ele>
        <time>2020-11-11T11:53:09Z</time>
      </trkpt>
      <trkpt lat="28.4206050" lon="-16.4312170">
        <ele>1107.9</ele>
        <time>2020-11-11T11:53:10Z</time>
      </trkpt>
      <trkpt lat="28.4205750" lon="-16.4312330">
        <ele>1107.9</ele>
        <time>2020-11-11T11:53:11Z</time>
      </trkpt>
      <trkpt lat="28.4205570" lon="-16.4312380">
        <ele>1107.9</ele>
        <time>2020-11-11T11:53:12Z</time>
      </trkpt>
      <trkpt lat="28.4205570" lon="-16.4312380">
        <ele>1107.9</ele>
        <time>2020-11-11T11:53:13Z</time>
      </trkpt>
      <trkpt lat="28.4205120" lon="-16.4312520">
        <ele>1107.9</ele>
        <time>2020-11-11T11:53:14Z</time>
      </trkpt>
      <trkpt lat="28.4205120" lon="-16.4312520">
        <ele>1107.9</ele>
        <time>2020-11-11T11:53:15Z</time>
      </trkpt>
      <trkpt lat="28.4204600" lon="-16.4312600">
        <ele>1108.9</ele>
        <time>2020-11-11T11:53:16Z</time>
      </trkpt>
      <trkpt lat="28.4204600" lon="-16.4312600">
        <ele>1108.9</ele>
        <time>2020-11-11T11:53:17Z</time>
      </trkpt>
      <trkpt lat="28.4204030" lon="-16.4312720">
        <ele>1108.9</ele>
        <time>2020-11-11T11:53:18Z</time>
      </trkpt>
      <trkpt lat="28.4204030" lon="-16.4312720">
        <ele>1108.9</ele>
        <time>2020-11-11T11:53:19Z</time>
      </trkpt>
      <trkpt lat="28.4203470" lon="-16.4312700">
        <ele>1108.9</ele>
        <time>2020-11-11T11:53:20Z</time>
      </trkpt>
      <trkpt lat="28.4203470" lon="-16.4312700">
        <ele>1108.9</ele>
        <time>2020-11-11T11:53:21Z</time>
      </trkpt>
      <trkpt lat="28.4203070" lon="-16.4312680">
        <ele>1109.9</ele>
        <time>2020-11-11T11:53:22Z</time>
      </trkpt>
      <trkpt lat="28.4203070" lon="-16.4312680">
        <ele>1109.9</ele>
        <time>2020-11-11T11:53:23Z</time>
      </trkpt>
      <trkpt lat="28.4202700" lon="-16.4312600">
        <ele>1109.9</ele>
        <time>2020-11-11T11:53:24Z</time>
      </trkpt>
      <trkpt lat="28.4202700" lon="-16.4312600">
        <ele>1109.9</ele>
        <time>2020-11-11T11:53:25Z</time>
      </trkpt>
      <trkpt lat="28.4202320" lon="-16.4312470">
        <ele>1109.9</ele>
        <time>2020-11-11T11:53:26Z</time>
      </trkpt>
      <trkpt lat="28.4202320" lon="-16.4312470">
        <ele>1109.9</ele>
        <time>2020-11-11T11:53:27Z</time>
      </trkpt>
      <trkpt lat="28.4201920" lon="-16.4312330">
        <ele>1109.9</ele>
        <time>2020-11-11T11:53:28Z</time>
      </trkpt>
      <trkpt lat="28.4201920" lon="-16.4312330">
        <ele>1109.9</ele>
        <time>2020-11-11T11:53:29Z</time>
      </trkpt>
      <trkpt lat="28.4201400" lon="-16.4312230">
        <ele>1109.9</ele>
        <time>2020-11-11T11:53:30Z</time>
      </trkpt>
      <trkpt lat="28.4201400" lon="-16.4312230">
        <ele>1109.9</ele>
        <time>2020-11-11T11:53:31Z</time>
      </trkpt>
      <trkpt lat="28.4200900" lon="-16.4312130">
        <ele>1109.9</ele>
        <time>2020-11-11T11:53:32Z</time>
      </trkpt>
      <trkpt lat="28.4200900" lon="-16.4312130">
        <ele>1110.9</ele>
        <time>2020-11-11T11:53:33Z</time>
      </trkpt>
      <trkpt lat="28.4200420" lon="-16.4312250">
        <ele>1110.9</ele>
        <time>2020-11-11T11:53:34Z</time>
      </trkpt>
      <trkpt lat="28.4200420" lon="-16.4312250">
        <ele>1110.9</ele>
        <time>2020-11-11T11:53:35Z</time>
      </trkpt>
      <trkpt lat="28.4200080" lon="-16.4312470">
        <ele>1110.9</ele>
        <time>2020-11-11T11:53:36Z</time>
      </trkpt>
      <trkpt lat="28.4200080" lon="-16.4312470">
        <ele>1110.9</ele>
        <time>2020-11-11T11:53:37Z</time>
      </trkpt>
      <trkpt lat="28.4199830" lon="-16.4312720">
        <ele>1110.9</ele>
        <time>2020-11-11T11:53:38Z</time>
      </trkpt>
      <trkpt lat="28.4199830" lon="-16.4312720">
        <ele>1112.9</ele>
        <time>2020-11-11T11:53:39Z</time>
      </trkpt>
      <trkpt lat="28.4199620" lon="-16.4313130">
        <ele>1112.9</ele>
        <time>2020-11-11T11:53:40Z</time>
      </trkpt>
      <trkpt lat="28.4199620" lon="-16.4313130">
        <ele>1112.9</ele>
        <time>2020-11-11T11:53:41Z</time>
      </trkpt>
      <trkpt lat="28.4199450" lon="-16.4313450">
        <ele>1113.9</ele>
        <time>2020-11-11T11:53:42Z</time>
      </trkpt>
      <trkpt lat="28.4199400" lon="-16.4313570">
        <ele>1113.9</ele>
        <time>2020-11-11T11:53:43Z</time>
      </trkpt>
      <trkpt lat="28.4199400" lon="-16.4313570">
        <ele>1113.9</ele>
        <time>2020-11-11T11:53:44Z</time>
      </trkpt>
      <trkpt lat="28.4199150" lon="-16.4313830">
        <ele>1113.9</ele>
        <time>2020-11-11T11:53:45Z</time>
      </trkpt>
      <trkpt lat="28.4199150" lon="-16.4313830">
        <ele>1113.9</ele>
        <time>2020-11-11T11:53:46Z</time>
      </trkpt>
      <trkpt lat="28.4199050" lon="-16.4314000">
        <ele>1113.9</ele>
        <time>2020-11-11T11:53:47Z</time>
      </trkpt>
      <trkpt lat="28.4199050" lon="-16.4314000">
        <ele>1114.9</ele>
        <time>2020-11-11T11:53:48Z</time>
      </trkpt>
      <trkpt lat="28.4199380" lon="-16.4314500">
        <ele>1114.9</ele>
        <time>2020-11-11T11:53:49Z</time>
      </trkpt>
      <trkpt lat="28.4199380" lon="-16.4314500">
        <ele>1114.9</ele>
        <time>2020-11-11T11:53:50Z</time>
      </trkpt>
      <trkpt lat="28.4199280" lon="-16.4314570">
        <ele>1114.9</ele>
        <time>2020-11-11T11:53:51Z</time>
      </trkpt>
      <trkpt lat="28.4199220" lon="-16.4314600">
        <ele>1114.9</ele>
        <time>2020-11-11T11:53:52Z</time>
      </trkpt>
      <trkpt lat="28.4199220" lon="-16.4314600">
        <ele>1114.9</ele>
        <time>2020-11-11T11:53:53Z</time>
      </trkpt>
      <trkpt lat="28.4198930" lon="-16.4314900">
        <ele>1115.9</ele>
        <time>2020-11-11T11:53:54Z</time>
      </trkpt>
      <trkpt lat="28.4198780" lon="-16.4315030">
        <ele>1115.9</ele>
        <time>2020-11-11T11:53:55Z</time>
      </trkpt>
      <trkpt lat="28.4198780" lon="-16.4315030">
        <ele>1115.9</ele>
        <time>2020-11-11T11:53:56Z</time>
      </trkpt>
      <trkpt lat="28.4198600" lon="-16.4315330">
        <ele>1115.9</ele>
        <time>2020-11-11T11:53:57Z</time>
      </trkpt>
      <trkpt lat="28.4198530" lon="-16.4315570">
        <ele>1115.9</ele>
        <time>2020-11-11T11:53:58Z</time>
      </trkpt>
      <trkpt lat="28.4198530" lon="-16.4315570">
        <ele>1115.9</ele>
        <time>2020-11-11T11:53:59Z</time>
      </trkpt>
      <trkpt lat="28.4198430" lon="-16.4315870">
        <ele>1116.9</ele>
        <time>2020-11-11T11:54:00Z</time>
      </trkpt>
      <trkpt lat="28.4198430" lon="-16.4315870">
        <ele>1116.9</ele>
        <time>2020-11-11T11:54:01Z</time>
      </trkpt>
      <trkpt lat="28.4198270" lon="-16.4316020">
        <ele>1116.9</ele>
        <time>2020-11-11T11:54:02Z</time>
      </trkpt>
      <trkpt lat="28.4198270" lon="-16.4316020">
        <ele>1116.9</ele>
        <time>2020-11-11T11:54:03Z</time>
      </trkpt>
      <trkpt lat="28.4197780" lon="-16.4316480">
        <ele>1116.9</ele>
        <time>2020-11-11T11:54:04Z</time>
      </trkpt>
      <trkpt lat="28.4197780" lon="-16.4316480">
        <ele>1116.9</ele>
        <time>2020-11-11T11:54:05Z</time>
      </trkpt>
      <trkpt lat="28.4197270" lon="-16.4316880">
        <ele>1116.9</ele>
        <time>2020-11-11T11:54:06Z</time>
      </trkpt>
      <trkpt lat="28.4197270" lon="-16.4316880">
        <ele>1116.9</ele>
        <time>2020-11-11T11:54:07Z</time>
      </trkpt>
      <trkpt lat="28.4196950" lon="-16.4317180">
        <ele>1116.9</ele>
        <time>2020-11-11T11:54:08Z</time>
      </trkpt>
      <trkpt lat="28.4196950" lon="-16.4317180">
        <ele>1116.9</ele>
        <time>2020-11-11T11:54:09Z</time>
      </trkpt>
      <trkpt lat="28.4196550" lon="-16.4317680">
        <ele>1117.9</ele>
        <time>2020-11-11T11:54:10Z</time>
      </trkpt>
      <trkpt lat="28.4196380" lon="-16.4317950">
        <ele>1117.9</ele>
        <time>2020-11-11T11:54:11Z</time>
      </trkpt>
      <trkpt lat="28.4196380" lon="-16.4317950">
        <ele>1117.9</ele>
        <time>2020-11-11T11:54:12Z</time>
      </trkpt>
      <trkpt lat="28.4196050" lon="-16.4318250">
        <ele>1117.9</ele>
        <time>2020-11-11T11:54:13Z</time>
      </trkpt>
      <trkpt lat="28.4196050" lon="-16.4318250">
        <ele>1118.9</ele>
        <time>2020-11-11T11:54:14Z</time>
      </trkpt>
      <trkpt lat="28.4195850" lon="-16.4318700">
        <ele>1118.9</ele>
        <time>2020-11-11T11:54:15Z</time>
      </trkpt>
      <trkpt lat="28.4195720" lon="-16.4318850">
        <ele>1118.9</ele>
        <time>2020-11-11T11:54:16Z</time>
      </trkpt>
      <trkpt lat="28.4195720" lon="-16.4318850">
        <ele>1118.9</ele>
        <time>2020-11-11T11:54:17Z</time>
      </trkpt>
      <trkpt lat="28.4195420" lon="-16.4319180">
        <ele>1118.9</ele>
        <time>2020-11-11T11:54:18Z</time>
      </trkpt>
      <trkpt lat="28.4195220" lon="-16.4319270">
        <ele>1119.9</ele>
        <time>2020-11-11T11:54:19Z</time>
      </trkpt>
      <trkpt lat="28.4195220" lon="-16.4319270">
        <ele>1119.9</ele>
        <time>2020-11-11T11:54:20Z</time>
      </trkpt>
      <trkpt lat="28.4195020" lon="-16.4319650">
        <ele>1119.9</ele>
        <time>2020-11-11T11:54:21Z</time>
      </trkpt>
      <trkpt lat="28.4195020" lon="-16.4319650">
        <ele>1119.9</ele>
        <time>2020-11-11T11:54:22Z</time>
      </trkpt>
      <trkpt lat="28.4194930" lon="-16.4320030">
        <ele>1119.9</ele>
        <time>2020-11-11T11:54:23Z</time>
      </trkpt>
      <trkpt lat="28.4194770" lon="-16.4320270">
        <ele>1119.9</ele>
        <time>2020-11-11T11:54:24Z</time>
      </trkpt>
      <trkpt lat="28.4194650" lon="-16.4320480">
        <ele>1120.9</ele>
        <time>2020-11-11T11:54:25Z</time>
      </trkpt>
      <trkpt lat="28.4194650" lon="-16.4320480">
        <ele>1120.9</ele>
        <time>2020-11-11T11:54:26Z</time>
      </trkpt>
      <trkpt lat="28.4194270" lon="-16.4320850">
        <ele>1122.9</ele>
        <time>2020-11-11T11:54:27Z</time>
      </trkpt>
      <trkpt lat="28.4194270" lon="-16.4320850">
        <ele>1122.9</ele>
        <time>2020-11-11T11:54:28Z</time>
      </trkpt>
      <trkpt lat="28.4193870" lon="-16.4321100">
        <ele>1122.9</ele>
        <time>2020-11-11T11:54:29Z</time>
      </trkpt>
      <trkpt lat="28.4193870" lon="-16.4321100">
        <ele>1122.9</ele>
        <time>2020-11-11T11:54:30Z</time>
      </trkpt>
      <trkpt lat="28.4193530" lon="-16.4321320">
        <ele>1122.9</ele>
        <time>2020-11-11T11:54:31Z</time>
      </trkpt>
      <trkpt lat="28.4193370" lon="-16.4321400">
        <ele>1122.9</ele>
        <time>2020-11-11T11:54:32Z</time>
      </trkpt>
      <trkpt lat="28.4193370" lon="-16.4321400">
        <ele>1122.9</ele>
        <time>2020-11-11T11:54:33Z</time>
      </trkpt>
      <trkpt lat="28.4192980" lon="-16.4321520">
        <ele>1122.9</ele>
        <time>2020-11-11T11:54:34Z</time>
      </trkpt>
      <trkpt lat="28.4192980" lon="-16.4321520">
        <ele>1122.9</ele>
        <time>2020-11-11T11:54:35Z</time>
      </trkpt>
      <trkpt lat="28.4192650" lon="-16.4321650">
        <ele>1122.9</ele>
        <time>2020-11-11T11:54:36Z</time>
      </trkpt>
      <trkpt lat="28.4192650" lon="-16.4321650">
        <ele>1122.9</ele>
        <time>2020-11-11T11:54:37Z</time>
      </trkpt>
      <trkpt lat="28.4192300" lon="-16.4321880">
        <ele>1122.9</ele>
        <time>2020-11-11T11:54:38Z</time>
      </trkpt>
      <trkpt lat="28.4192300" lon="-16.4321880">
        <ele>1122.9</ele>
        <time>2020-11-11T11:54:39Z</time>
      </trkpt>
      <trkpt lat="28.4191970" lon="-16.4322050">
        <ele>1122.9</ele>
        <time>2020-11-11T11:54:40Z</time>
      </trkpt>
      <trkpt lat="28.4191970" lon="-16.4322050">
        <ele>1123.9</ele>
        <time>2020-11-11T11:54:41Z</time>
      </trkpt>
      <trkpt lat="28.4191570" lon="-16.4322270">
        <ele>1123.9</ele>
        <time>2020-11-11T11:54:42Z</time>
      </trkpt>
      <trkpt lat="28.4191380" lon="-16.4322420">
        <ele>1123.9</ele>
        <time>2020-11-11T11:54:43Z</time>
      </trkpt>
      <trkpt lat="28.4191380" lon="-16.4322420">
        <ele>1123.9</ele>
        <time>2020-11-11T11:54:44Z</time>
      </trkpt>
      <trkpt lat="28.4191030" lon="-16.4322530">
        <ele>1124.9</ele>
        <time>2020-11-11T11:54:45Z</time>
      </trkpt>
      <trkpt lat="28.4191030" lon="-16.4322530">
        <ele>1124.9</ele>
        <time>2020-11-11T11:54:46Z</time>
      </trkpt>
      <trkpt lat="28.4190670" lon="-16.4322750">
        <ele>1124.9</ele>
        <time>2020-11-11T11:54:47Z</time>
      </trkpt>
      <trkpt lat="28.4190670" lon="-16.4322750">
        <ele>1124.9</ele>
        <time>2020-11-11T11:54:48Z</time>
      </trkpt>
      <trkpt lat="28.4190300" lon="-16.4322980">
        <ele>1125.9</ele>
        <time>2020-11-11T11:54:49Z</time>
      </trkpt>
      <trkpt lat="28.4190300" lon="-16.4322980">
        <ele>1125.9</ele>
        <time>2020-11-11T11:54:50Z</time>
      </trkpt>
      <trkpt lat="28.4189820" lon="-16.4323270">
        <ele>1125.9</ele>
        <time>2020-11-11T11:54:51Z</time>
      </trkpt>
      <trkpt lat="28.4189580" lon="-16.4323300">
        <ele>1125.9</ele>
        <time>2020-11-11T11:54:52Z</time>
      </trkpt>
      <trkpt lat="28.4189580" lon="-16.4323300">
        <ele>1126.9</ele>
        <time>2020-11-11T11:54:53Z</time>
      </trkpt>
      <trkpt lat="28.4189170" lon="-16.4323450">
        <ele>1126.9</ele>
        <time>2020-11-11T11:54:54Z</time>
      </trkpt>
      <trkpt lat="28.4189170" lon="-16.4323450">
        <ele>1126.9</ele>
        <time>2020-11-11T11:54:55Z</time>
      </trkpt>
      <trkpt lat="28.4188700" lon="-16.4323470">
        <ele>1126.9</ele>
        <time>2020-11-11T11:54:56Z</time>
      </trkpt>
      <trkpt lat="28.4188700" lon="-16.4323470">
        <ele>1126.9</ele>
        <time>2020-11-11T11:54:57Z</time>
      </trkpt>
      <trkpt lat="28.4188330" lon="-16.4323550">
        <ele>1126.9</ele>
        <time>2020-11-11T11:54:58Z</time>
      </trkpt>
      <trkpt lat="28.4188170" lon="-16.4323580">
        <ele>1126.9</ele>
        <time>2020-11-11T11:54:59Z</time>
      </trkpt>
      <trkpt lat="28.4188170" lon="-16.4323580">
        <ele>1126.9</ele>
        <time>2020-11-11T11:55:00Z</time>
      </trkpt>
      <trkpt lat="28.4187830" lon="-16.4323750">
        <ele>1127.9</ele>
        <time>2020-11-11T11:55:01Z</time>
      </trkpt>
      <trkpt lat="28.4187830" lon="-16.4323750">
        <ele>1127.9</ele>
        <time>2020-11-11T11:55:02Z</time>
      </trkpt>
      <trkpt lat="28.4187520" lon="-16.4323880">
        <ele>1127.9</ele>
        <time>2020-11-11T11:55:03Z</time>
      </trkpt>
      <trkpt lat="28.4187350" lon="-16.4323970">
        <ele>1127.9</ele>
        <time>2020-11-11T11:55:04Z</time>
      </trkpt>
      <trkpt lat="28.4187350" lon="-16.4323970">
        <ele>1128.9</ele>
        <time>2020-11-11T11:55:05Z</time>
      </trkpt>
      <trkpt lat="28.4187030" lon="-16.4324000">
        <ele>1128.9</ele>
        <time>2020-11-11T11:55:06Z</time>
      </trkpt>
      <trkpt lat="28.4186850" lon="-16.4324030">
        <ele>1128.9</ele>
        <time>2020-11-11T11:55:07Z</time>
      </trkpt>
      <trkpt lat="28.4186850" lon="-16.4324030">
        <ele>1128.9</ele>
        <time>2020-11-11T11:55:08Z</time>
      </trkpt>
      <trkpt lat="28.4186580" lon="-16.4324180">
        <ele>1129.9</ele>
        <time>2020-11-11T11:55:09Z</time>
      </trkpt>
      <trkpt lat="28.4186470" lon="-16.4324220">
        <ele>1129.9</ele>
        <time>2020-11-11T11:55:10Z</time>
      </trkpt>
      <trkpt lat="28.4186470" lon="-16.4324220">
        <ele>1129.9</ele>
        <time>2020-11-11T11:55:11Z</time>
      </trkpt>
      <trkpt lat="28.4186150" lon="-16.4324280">
        <ele>1129.9</ele>
        <time>2020-11-11T11:55:12Z</time>
      </trkpt>
      <trkpt lat="28.4185950" lon="-16.4324300">
        <ele>1129.9</ele>
        <time>2020-11-11T11:55:13Z</time>
      </trkpt>
      <trkpt lat="28.4185950" lon="-16.4324300">
        <ele>1129.9</ele>
        <time>2020-11-11T11:55:14Z</time>
      </trkpt>
      <trkpt lat="28.4185630" lon="-16.4324400">
        <ele>1130.9</ele>
        <time>2020-11-11T11:55:15Z</time>
      </trkpt>
      <trkpt lat="28.4185630" lon="-16.4324400">
        <ele>1130.9</ele>
        <time>2020-11-11T11:55:16Z</time>
      </trkpt>
      <trkpt lat="28.4185250" lon="-16.4324570">
        <ele>1130.9</ele>
        <time>2020-11-11T11:55:17Z</time>
      </trkpt>
      <trkpt lat="28.4185250" lon="-16.4324570">
        <ele>1130.9</ele>
        <time>2020-11-11T11:55:18Z</time>
      </trkpt>
      <trkpt lat="28.4184900" lon="-16.4324770">
        <ele>1130.9</ele>
        <time>2020-11-11T11:55:19Z</time>
      </trkpt>
      <trkpt lat="28.4184900" lon="-16.4324770">
        <ele>1130.9</ele>
        <time>2020-11-11T11:55:20Z</time>
      </trkpt>
      <trkpt lat="28.4184480" lon="-16.4325000">
        <ele>1131.9</ele>
        <time>2020-11-11T11:55:21Z</time>
      </trkpt>
      <trkpt lat="28.4184480" lon="-16.4325000">
        <ele>1131.9</ele>
        <time>2020-11-11T11:55:22Z</time>
      </trkpt>
      <trkpt lat="28.4184120" lon="-16.4325100">
        <ele>1131.9</ele>
        <time>2020-11-11T11:55:23Z</time>
      </trkpt>
      <trkpt lat="28.4183950" lon="-16.4325130">
        <ele>1131.9</ele>
        <time>2020-11-11T11:55:24Z</time>
      </trkpt>
      <trkpt lat="28.4183950" lon="-16.4325130">
        <ele>1132.9</ele>
        <time>2020-11-11T11:55:25Z</time>
      </trkpt>
      <trkpt lat="28.4183550" lon="-16.4325320">
        <ele>1132.9</ele>
        <time>2020-11-11T11:55:26Z</time>
      </trkpt>
      <trkpt lat="28.4183550" lon="-16.4325320">
        <ele>1132.9</ele>
        <time>2020-11-11T11:55:27Z</time>
      </trkpt>
      <trkpt lat="28.4183170" lon="-16.4325580">
        <ele>1132.9</ele>
        <time>2020-11-11T11:55:28Z</time>
      </trkpt>
      <trkpt lat="28.4183170" lon="-16.4325580">
        <ele>1132.9</ele>
        <time>2020-11-11T11:55:29Z</time>
      </trkpt>
      <trkpt lat="28.4182950" lon="-16.4325870">
        <ele>1132.9</ele>
        <time>2020-11-11T11:55:30Z</time>
      </trkpt>
      <trkpt lat="28.4182820" lon="-16.4326020">
        <ele>1133.9</ele>
        <time>2020-11-11T11:55:31Z</time>
      </trkpt>
      <trkpt lat="28.4182670" lon="-16.4326180">
        <ele>1133.9</ele>
        <time>2020-11-11T11:55:32Z</time>
      </trkpt>
      <trkpt lat="28.4182670" lon="-16.4326180">
        <ele>1133.9</ele>
        <time>2020-11-11T11:55:33Z</time>
      </trkpt>
      <trkpt lat="28.4182420" lon="-16.4326420">
        <ele>1133.9</ele>
        <time>2020-11-11T11:55:34Z</time>
      </trkpt>
      <trkpt lat="28.4182420" lon="-16.4326420">
        <ele>1133.9</ele>
        <time>2020-11-11T11:55:35Z</time>
      </trkpt>
      <trkpt lat="28.4182050" lon="-16.4326550">
        <ele>1134.9</ele>
        <time>2020-11-11T11:55:36Z</time>
      </trkpt>
      <trkpt lat="28.4182050" lon="-16.4326550">
        <ele>1134.9</ele>
        <time>2020-11-11T11:55:37Z</time>
      </trkpt>
      <trkpt lat="28.4181720" lon="-16.4326570">
        <ele>1134.9</ele>
        <time>2020-11-11T11:55:38Z</time>
      </trkpt>
      <trkpt lat="28.4181720" lon="-16.4326570">
        <ele>1134.9</ele>
        <time>2020-11-11T11:55:39Z</time>
      </trkpt>
      <trkpt lat="28.4181350" lon="-16.4326670">
        <ele>1135.9</ele>
        <time>2020-11-11T11:55:40Z</time>
      </trkpt>
      <trkpt lat="28.4181350" lon="-16.4326670">
        <ele>1135.9</ele>
        <time>2020-11-11T11:55:41Z</time>
      </trkpt>
      <trkpt lat="28.4181150" lon="-16.4326680">
        <ele>1135.9</ele>
        <time>2020-11-11T11:55:42Z</time>
      </trkpt>
      <trkpt lat="28.4181150" lon="-16.4326680">
        <ele>1135.9</ele>
        <time>2020-11-11T11:55:43Z</time>
      </trkpt>
      <trkpt lat="28.4181020" lon="-16.4326600">
        <ele>1136.9</ele>
        <time>2020-11-11T11:55:44Z</time>
      </trkpt>
      <trkpt lat="28.4181020" lon="-16.4326600">
        <ele>1136.9</ele>
        <time>2020-11-11T11:55:45Z</time>
      </trkpt>
      <trkpt lat="28.4180800" lon="-16.4326430">
        <ele>1136.9</ele>
        <time>2020-11-11T11:55:46Z</time>
      </trkpt>
      <trkpt lat="28.4180800" lon="-16.4326430">
        <ele>1136.9</ele>
        <time>2020-11-11T11:55:47Z</time>
      </trkpt>
      <trkpt lat="28.4180530" lon="-16.4326300">
        <ele>1136.9</ele>
        <time>2020-11-11T11:55:48Z</time>
      </trkpt>
      <trkpt lat="28.4180380" lon="-16.4326220">
        <ele>1136.9</ele>
        <time>2020-11-11T11:55:49Z</time>
      </trkpt>
      <trkpt lat="28.4180380" lon="-16.4326220">
        <ele>1136.9</ele>
        <time>2020-11-11T11:55:50Z</time>
      </trkpt>
      <trkpt lat="28.4180030" lon="-16.4326250">
        <ele>1136.9</ele>
        <time>2020-11-11T11:55:51Z</time>
      </trkpt>
      <trkpt lat="28.4180030" lon="-16.4326250">
        <ele>1136.9</ele>
        <time>2020-11-11T11:55:52Z</time>
      </trkpt>
      <trkpt lat="28.4179680" lon="-16.4326200">
        <ele>1136.9</ele>
        <time>2020-11-11T11:55:53Z</time>
      </trkpt>
      <trkpt lat="28.4179430" lon="-16.4326070">
        <ele>1136.9</ele>
        <time>2020-11-11T11:55:54Z</time>
      </trkpt>
      <trkpt lat="28.4179430" lon="-16.4326070">
        <ele>1136.9</ele>
        <time>2020-11-11T11:55:55Z</time>
      </trkpt>
      <trkpt lat="28.4179070" lon="-16.4326020">
        <ele>1137.9</ele>
        <time>2020-11-11T11:55:56Z</time>
      </trkpt>
      <trkpt lat="28.4179070" lon="-16.4326020">
        <ele>1137.9</ele>
        <time>2020-11-11T11:55:57Z</time>
      </trkpt>
      <trkpt lat="28.4178850" lon="-16.4325920">
        <ele>1137.9</ele>
        <time>2020-11-11T11:55:58Z</time>
      </trkpt>
      <trkpt lat="28.4178780" lon="-16.4325850">
        <ele>1137.9</ele>
        <time>2020-11-11T11:55:59Z</time>
      </trkpt>
      <trkpt lat="28.4178780" lon="-16.4325850">
        <ele>1137.9</ele>
        <time>2020-11-11T11:56:00Z</time>
      </trkpt>
      <trkpt lat="28.4178500" lon="-16.4325820">
        <ele>1137.9</ele>
        <time>2020-11-11T11:56:01Z</time>
      </trkpt>
      <trkpt lat="28.4178500" lon="-16.4325820">
        <ele>1137.9</ele>
        <time>2020-11-11T11:56:02Z</time>
      </trkpt>
      <trkpt lat="28.4178320" lon="-16.4325950">
        <ele>1138.9</ele>
        <time>2020-11-11T11:56:03Z</time>
      </trkpt>
      <trkpt lat="28.4178170" lon="-16.4325970">
        <ele>1138.9</ele>
        <time>2020-11-11T11:56:04Z</time>
      </trkpt>
      <trkpt lat="28.4178170" lon="-16.4325970">
        <ele>1138.9</ele>
        <time>2020-11-11T11:56:05Z</time>
      </trkpt>
      <trkpt lat="28.4177870" lon="-16.4326030">
        <ele>1138.9</ele>
        <time>2020-11-11T11:56:06Z</time>
      </trkpt>
      <trkpt lat="28.4177650" lon="-16.4326100">
        <ele>1140.9</ele>
        <time>2020-11-11T11:56:07Z</time>
      </trkpt>
      <trkpt lat="28.4177650" lon="-16.4326100">
        <ele>1140.9</ele>
        <time>2020-11-11T11:56:08Z</time>
      </trkpt>
      <trkpt lat="28.4177420" lon="-16.4326220">
        <ele>1140.9</ele>
        <time>2020-11-11T11:56:09Z</time>
      </trkpt>
      <trkpt lat="28.4177420" lon="-16.4326220">
        <ele>1140.9</ele>
        <time>2020-11-11T11:56:10Z</time>
      </trkpt>
      <trkpt lat="28.4177120" lon="-16.4326270">
        <ele>1140.9</ele>
        <time>2020-11-11T11:56:11Z</time>
      </trkpt>
      <trkpt lat="28.4177120" lon="-16.4326270">
        <ele>1140.9</ele>
        <time>2020-11-11T11:56:12Z</time>
      </trkpt>
      <trkpt lat="28.4176680" lon="-16.4326370">
        <ele>1140.9</ele>
        <time>2020-11-11T11:56:13Z</time>
      </trkpt>
      <trkpt lat="28.4176680" lon="-16.4326370">
        <ele>1141.9</ele>
        <time>2020-11-11T11:56:14Z</time>
      </trkpt>
      <trkpt lat="28.4176380" lon="-16.4326350">
        <ele>1141.9</ele>
        <time>2020-11-11T11:56:15Z</time>
      </trkpt>
      <trkpt lat="28.4176380" lon="-16.4326350">
        <ele>1141.9</ele>
        <time>2020-11-11T11:56:16Z</time>
      </trkpt>
      <trkpt lat="28.4176120" lon="-16.4326300">
        <ele>1141.9</ele>
        <time>2020-11-11T11:56:17Z</time>
      </trkpt>
      <trkpt lat="28.4176120" lon="-16.4326300">
        <ele>1142.9</ele>
        <time>2020-11-11T11:56:18Z</time>
      </trkpt>
      <trkpt lat="28.4175850" lon="-16.4326330">
        <ele>1142.9</ele>
        <time>2020-11-11T11:56:19Z</time>
      </trkpt>
      <trkpt lat="28.4175850" lon="-16.4326330">
        <ele>1142.9</ele>
        <time>2020-11-11T11:56:20Z</time>
      </trkpt>
      <trkpt lat="28.4175680" lon="-16.4326300">
        <ele>1142.9</ele>
        <time>2020-11-11T11:56:21Z</time>
      </trkpt>
      <trkpt lat="28.4175680" lon="-16.4326300">
        <ele>1143.9</ele>
        <time>2020-11-11T11:56:22Z</time>
      </trkpt>
      <trkpt lat="28.4175370" lon="-16.4326250">
        <ele>1143.9</ele>
        <time>2020-11-11T11:56:23Z</time>
      </trkpt>
      <trkpt lat="28.4175370" lon="-16.4326250">
        <ele>1143.9</ele>
        <time>2020-11-11T11:56:24Z</time>
      </trkpt>
      <trkpt lat="28.4174900" lon="-16.4326370">
        <ele>1143.9</ele>
        <time>2020-11-11T11:56:25Z</time>
      </trkpt>
      <trkpt lat="28.4174900" lon="-16.4326370">
        <ele>1143.9</ele>
        <time>2020-11-11T11:56:26Z</time>
      </trkpt>
      <trkpt lat="28.4174450" lon="-16.4326420">
        <ele>1143.9</ele>
        <time>2020-11-11T11:56:27Z</time>
      </trkpt>
      <trkpt lat="28.4174250" lon="-16.4326450">
        <ele>1144.9</ele>
        <time>2020-11-11T11:56:28Z</time>
      </trkpt>
      <trkpt lat="28.4174250" lon="-16.4326450">
        <ele>1144.9</ele>
        <time>2020-11-11T11:56:29Z</time>
      </trkpt>
      <trkpt lat="28.4174000" lon="-16.4326380">
        <ele>1144.9</ele>
        <time>2020-11-11T11:56:30Z</time>
      </trkpt>
      <trkpt lat="28.4174000" lon="-16.4326380">
        <ele>1144.9</ele>
        <time>2020-11-11T11:56:31Z</time>
      </trkpt>
      <trkpt lat="28.4173680" lon="-16.4326330">
        <ele>1145.9</ele>
        <time>2020-11-11T11:56:32Z</time>
      </trkpt>
      <trkpt lat="28.4173680" lon="-16.4326330">
        <ele>1145.9</ele>
        <time>2020-11-11T11:56:33Z</time>
      </trkpt>
      <trkpt lat="28.4173330" lon="-16.4326350">
        <ele>1145.9</ele>
        <time>2020-11-11T11:56:34Z</time>
      </trkpt>
      <trkpt lat="28.4173330" lon="-16.4326350">
        <ele>1145.9</ele>
        <time>2020-11-11T11:56:35Z</time>
      </trkpt>
      <trkpt lat="28.4173050" lon="-16.4326220">
        <ele>1146.9</ele>
        <time>2020-11-11T11:56:36Z</time>
      </trkpt>
      <trkpt lat="28.4172870" lon="-16.4326180">
        <ele>1146.9</ele>
        <time>2020-11-11T11:56:37Z</time>
      </trkpt>
      <trkpt lat="28.4172870" lon="-16.4326180">
        <ele>1146.9</ele>
        <time>2020-11-11T11:56:38Z</time>
      </trkpt>
      <trkpt lat="28.4172570" lon="-16.4326100">
        <ele>1146.9</ele>
        <time>2020-11-11T11:56:39Z</time>
      </trkpt>
      <trkpt lat="28.4172570" lon="-16.4326100">
        <ele>1147.9</ele>
        <time>2020-11-11T11:56:40Z</time>
      </trkpt>
      <trkpt lat="28.4172200" lon="-16.4326020">
        <ele>1147.9</ele>
        <time>2020-11-11T11:56:41Z</time>
      </trkpt>
      <trkpt lat="28.4172200" lon="-16.4326020">
        <ele>1147.9</ele>
        <time>2020-11-11T11:56:42Z</time>
      </trkpt>
      <trkpt lat="28.4171820" lon="-16.4325920">
        <ele>1147.9</ele>
        <time>2020-11-11T11:56:43Z</time>
      </trkpt>
      <trkpt lat="28.4171820" lon="-16.4325920">
        <ele>1148.9</ele>
        <time>2020-11-11T11:56:44Z</time>
      </trkpt>
      <trkpt lat="28.4171280" lon="-16.4325880">
        <ele>1148.9</ele>
        <time>2020-11-11T11:56:45Z</time>
      </trkpt>
      <trkpt lat="28.4170970" lon="-16.4325900">
        <ele>1148.9</ele>
        <time>2020-11-11T11:56:46Z</time>
      </trkpt>
      <trkpt lat="28.4170970" lon="-16.4325900">
        <ele>1148.9</ele>
        <time>2020-11-11T11:56:47Z</time>
      </trkpt>
      <trkpt lat="28.4170380" lon="-16.4326030">
        <ele>1148.9</ele>
        <time>2020-11-11T11:56:48Z</time>
      </trkpt>
      <trkpt lat="28.4170380" lon="-16.4326030">
        <ele>1148.9</ele>
        <time>2020-11-11T11:56:49Z</time>
      </trkpt>
      <trkpt lat="28.4169870" lon="-16.4326230">
        <ele>1148.9</ele>
        <time>2020-11-11T11:56:50Z</time>
      </trkpt>
      <trkpt lat="28.4169870" lon="-16.4326230">
        <ele>1148.9</ele>
        <time>2020-11-11T11:56:51Z</time>
      </trkpt>
      <trkpt lat="28.4169430" lon="-16.4326350">
        <ele>1148.9</ele>
        <time>2020-11-11T11:56:52Z</time>
      </trkpt>
      <trkpt lat="28.4169220" lon="-16.4326380">
        <ele>1148.9</ele>
        <time>2020-11-11T11:56:53Z</time>
      </trkpt>
      <trkpt lat="28.4169220" lon="-16.4326380">
        <ele>1148.9</ele>
        <time>2020-11-11T11:56:54Z</time>
      </trkpt>
      <trkpt lat="28.4168800" lon="-16.4326430">
        <ele>1149.9</ele>
        <time>2020-11-11T11:56:55Z</time>
      </trkpt>
      <trkpt lat="28.4168800" lon="-16.4326430">
        <ele>1149.9</ele>
        <time>2020-11-11T11:56:56Z</time>
      </trkpt>
      <trkpt lat="28.4168220" lon="-16.4326500">
        <ele>1149.9</ele>
        <time>2020-11-11T11:56:57Z</time>
      </trkpt>
      <trkpt lat="28.4168220" lon="-16.4326500">
        <ele>1149.9</ele>
        <time>2020-11-11T11:56:58Z</time>
      </trkpt>
      <trkpt lat="28.4167850" lon="-16.4326550">
        <ele>1150.9</ele>
        <time>2020-11-11T11:56:59Z</time>
      </trkpt>
      <trkpt lat="28.4167850" lon="-16.4326550">
        <ele>1150.9</ele>
        <time>2020-11-11T11:57:00Z</time>
      </trkpt>
      <trkpt lat="28.4167530" lon="-16.4326670">
        <ele>1150.9</ele>
        <time>2020-11-11T11:57:01Z</time>
      </trkpt>
      <trkpt lat="28.4167530" lon="-16.4326670">
        <ele>1150.9</ele>
        <time>2020-11-11T11:57:02Z</time>
      </trkpt>
      <trkpt lat="28.4167280" lon="-16.4326800">
        <ele>1151.9</ele>
        <time>2020-11-11T11:57:03Z</time>
      </trkpt>
      <trkpt lat="28.4167280" lon="-16.4326800">
        <ele>1151.9</ele>
        <time>2020-11-11T11:57:04Z</time>
      </trkpt>
      <trkpt lat="28.4166980" lon="-16.4326950">
        <ele>1151.9</ele>
        <time>2020-11-11T11:57:05Z</time>
      </trkpt>
      <trkpt lat="28.4166980" lon="-16.4326950">
        <ele>1151.9</ele>
        <time>2020-11-11T11:57:06Z</time>
      </trkpt>
      <trkpt lat="28.4166680" lon="-16.4327050">
        <ele>1152.9</ele>
        <time>2020-11-11T11:57:07Z</time>
      </trkpt>
      <trkpt lat="28.4166680" lon="-16.4327050">
        <ele>1152.9</ele>
        <time>2020-11-11T11:57:08Z</time>
      </trkpt>
      <trkpt lat="28.4166350" lon="-16.4327280">
        <ele>1152.9</ele>
        <time>2020-11-11T11:57:09Z</time>
      </trkpt>
      <trkpt lat="28.4166350" lon="-16.4327280">
        <ele>1152.9</ele>
        <time>2020-11-11T11:57:10Z</time>
      </trkpt>
      <trkpt lat="28.4166100" lon="-16.4327570">
        <ele>1152.9</ele>
        <time>2020-11-11T11:57:11Z</time>
      </trkpt>
      <trkpt lat="28.4166100" lon="-16.4327570">
        <ele>1152.9</ele>
        <time>2020-11-11T11:57:12Z</time>
      </trkpt>
      <trkpt lat="28.4166050" lon="-16.4327920">
        <ele>1152.9</ele>
        <time>2020-11-11T11:57:13Z</time>
      </trkpt>
      <trkpt lat="28.4166050" lon="-16.4327920">
        <ele>1152.9</ele>
        <time>2020-11-11T11:57:14Z</time>
      </trkpt>
      <trkpt lat="28.4165980" lon="-16.4328230">
        <ele>1153.9</ele>
        <time>2020-11-11T11:57:15Z</time>
      </trkpt>
      <trkpt lat="28.4165980" lon="-16.4328230">
        <ele>1153.9</ele>
        <time>2020-11-11T11:57:16Z</time>
      </trkpt>
      <trkpt lat="28.4166000" lon="-16.4328650">
        <ele>1153.9</ele>
        <time>2020-11-11T11:57:17Z</time>
      </trkpt>
      <trkpt lat="28.4166000" lon="-16.4328650">
        <ele>1153.9</ele>
        <time>2020-11-11T11:57:18Z</time>
      </trkpt>
      <trkpt lat="28.4165970" lon="-16.4328980">
        <ele>1153.9</ele>
        <time>2020-11-11T11:57:19Z</time>
      </trkpt>
      <trkpt lat="28.4165970" lon="-16.4328980">
        <ele>1153.9</ele>
        <time>2020-11-11T11:57:20Z</time>
      </trkpt>
      <trkpt lat="28.4165930" lon="-16.4329350">
        <ele>1153.9</ele>
        <time>2020-11-11T11:57:21Z</time>
      </trkpt>
      <trkpt lat="28.4165930" lon="-16.4329350">
        <ele>1153.9</ele>
        <time>2020-11-11T11:57:22Z</time>
      </trkpt>
      <trkpt lat="28.4165900" lon="-16.4329920">
        <ele>1153.9</ele>
        <time>2020-11-11T11:57:23Z</time>
      </trkpt>
      <trkpt lat="28.4165900" lon="-16.4329920">
        <ele>1153.9</ele>
        <time>2020-11-11T11:57:24Z</time>
      </trkpt>
      <trkpt lat="28.4165920" lon="-16.4330350">
        <ele>1153.9</ele>
        <time>2020-11-11T11:57:25Z</time>
      </trkpt>
      <trkpt lat="28.4165920" lon="-16.4330350">
        <ele>1153.9</ele>
        <time>2020-11-11T11:57:26Z</time>
      </trkpt>
      <trkpt lat="28.4165920" lon="-16.4330880">
        <ele>1154.9</ele>
        <time>2020-11-11T11:57:27Z</time>
      </trkpt>
      <trkpt lat="28.4165920" lon="-16.4330880">
        <ele>1154.9</ele>
        <time>2020-11-11T11:57:28Z</time>
      </trkpt>
      <trkpt lat="28.4165900" lon="-16.4331250">
        <ele>1154.9</ele>
        <time>2020-11-11T11:57:29Z</time>
      </trkpt>
      <trkpt lat="28.4165920" lon="-16.4331370">
        <ele>1154.9</ele>
        <time>2020-11-11T11:57:30Z</time>
      </trkpt>
      <trkpt lat="28.4165920" lon="-16.4331370">
        <ele>1154.9</ele>
        <time>2020-11-11T11:57:31Z</time>
      </trkpt>
      <trkpt lat="28.4165870" lon="-16.4331580">
        <ele>1154.9</ele>
        <time>2020-11-11T11:57:32Z</time>
      </trkpt>
      <trkpt lat="28.4165870" lon="-16.4331580">
        <ele>1155.9</ele>
        <time>2020-11-11T11:57:33Z</time>
      </trkpt>
      <trkpt lat="28.4165750" lon="-16.4331950">
        <ele>1155.9</ele>
        <time>2020-11-11T11:57:34Z</time>
      </trkpt>
      <trkpt lat="28.4165750" lon="-16.4331950">
        <ele>1156.9</ele>
        <time>2020-11-11T11:57:35Z</time>
      </trkpt>
      <trkpt lat="28.4165650" lon="-16.4332280">
        <ele>1156.9</ele>
        <time>2020-11-11T11:57:36Z</time>
      </trkpt>
      <trkpt lat="28.4165600" lon="-16.4332470">
        <ele>1156.9</ele>
        <time>2020-11-11T11:57:37Z</time>
      </trkpt>
      <trkpt lat="28.4165600" lon="-16.4332470">
        <ele>1156.9</ele>
        <time>2020-11-11T11:57:38Z</time>
      </trkpt>
      <trkpt lat="28.4165330" lon="-16.4332850">
        <ele>1156.9</ele>
        <time>2020-11-11T11:57:39Z</time>
      </trkpt>
      <trkpt lat="28.4165330" lon="-16.4332850">
        <ele>1156.9</ele>
        <time>2020-11-11T11:57:40Z</time>
      </trkpt>
      <trkpt lat="28.4165020" lon="-16.4333250">
        <ele>1157.9</ele>
        <time>2020-11-11T11:57:41Z</time>
      </trkpt>
      <trkpt lat="28.4165020" lon="-16.4333250">
        <ele>1157.9</ele>
        <time>2020-11-11T11:57:42Z</time>
      </trkpt>
      <trkpt lat="28.4164620" lon="-16.4333580">
        <ele>1157.9</ele>
        <time>2020-11-11T11:57:43Z</time>
      </trkpt>
      <trkpt lat="28.4164620" lon="-16.4333580">
        <ele>1157.9</ele>
        <time>2020-11-11T11:57:44Z</time>
      </trkpt>
      <trkpt lat="28.4164380" lon="-16.4333730">
        <ele>1157.9</ele>
        <time>2020-11-11T11:57:45Z</time>
      </trkpt>
      <trkpt lat="28.4164270" lon="-16.4333830">
        <ele>1157.9</ele>
        <time>2020-11-11T11:57:46Z</time>
      </trkpt>
      <trkpt lat="28.4164270" lon="-16.4333830">
        <ele>1158.9</ele>
        <time>2020-11-11T11:57:47Z</time>
      </trkpt>
      <trkpt lat="28.4163970" lon="-16.4333920">
        <ele>1158.9</ele>
        <time>2020-11-11T11:57:48Z</time>
      </trkpt>
      <trkpt lat="28.4163830" lon="-16.4333950">
        <ele>1158.9</ele>
        <time>2020-11-11T11:57:49Z</time>
      </trkpt>
      <trkpt lat="28.4163830" lon="-16.4333950">
        <ele>1158.9</ele>
        <time>2020-11-11T11:57:50Z</time>
      </trkpt>
      <trkpt lat="28.4163580" lon="-16.4333980">
        <ele>1158.9</ele>
        <time>2020-11-11T11:57:51Z</time>
      </trkpt>
      <trkpt lat="28.4163470" lon="-16.4333970">
        <ele>1158.9</ele>
        <time>2020-11-11T11:57:52Z</time>
      </trkpt>
      <trkpt lat="28.4163470" lon="-16.4333970">
        <ele>1158.9</ele>
        <time>2020-11-11T11:57:53Z</time>
      </trkpt>
      <trkpt lat="28.4163150" lon="-16.4333920">
        <ele>1158.9</ele>
        <time>2020-11-11T11:57:54Z</time>
      </trkpt>
      <trkpt lat="28.4162970" lon="-16.4333930">
        <ele>1159.9</ele>
        <time>2020-11-11T11:57:55Z</time>
      </trkpt>
      <trkpt lat="28.4162970" lon="-16.4333930">
        <ele>1159.9</ele>
        <time>2020-11-11T11:57:56Z</time>
      </trkpt>
      <trkpt lat="28.4162670" lon="-16.4334000">
        <ele>1159.9</ele>
        <time>2020-11-11T11:57:57Z</time>
      </trkpt>
      <trkpt lat="28.4162670" lon="-16.4334000">
        <ele>1159.9</ele>
        <time>2020-11-11T11:57:58Z</time>
      </trkpt>
      <trkpt lat="28.4162470" lon="-16.4334200">
        <ele>1159.9</ele>
        <time>2020-11-11T11:57:59Z</time>
      </trkpt>
      <trkpt lat="28.4162470" lon="-16.4334200">
        <ele>1159.9</ele>
        <time>2020-11-11T11:58:00Z</time>
      </trkpt>
      <trkpt lat="28.4162100" lon="-16.4334280">
        <ele>1159.9</ele>
        <time>2020-11-11T11:58:01Z</time>
      </trkpt>
      <trkpt lat="28.4162100" lon="-16.4334280">
        <ele>1159.9</ele>
        <time>2020-11-11T11:58:02Z</time>
      </trkpt>
      <trkpt lat="28.4161820" lon="-16.4334280">
        <ele>1159.9</ele>
        <time>2020-11-11T11:58:03Z</time>
      </trkpt>
      <trkpt lat="28.4161720" lon="-16.4334270">
        <ele>1159.9</ele>
        <time>2020-11-11T11:58:04Z</time>
      </trkpt>
      <trkpt lat="28.4161720" lon="-16.4334270">
        <ele>1159.9</ele>
        <time>2020-11-11T11:58:05Z</time>
      </trkpt>
      <trkpt lat="28.4161550" lon="-16.4334170">
        <ele>1160.9</ele>
        <time>2020-11-11T11:58:06Z</time>
      </trkpt>
      <trkpt lat="28.4161550" lon="-16.4334170">
        <ele>1160.9</ele>
        <time>2020-11-11T11:58:07Z</time>
      </trkpt>
      <trkpt lat="28.4161320" lon="-16.4334070">
        <ele>1160.9</ele>
        <time>2020-11-11T11:58:08Z</time>
      </trkpt>
      <trkpt lat="28.4161320" lon="-16.4334070">
        <ele>1160.9</ele>
        <time>2020-11-11T11:58:09Z</time>
      </trkpt>
      <trkpt lat="28.4161100" lon="-16.4333950">
        <ele>1161.9</ele>
        <time>2020-11-11T11:58:10Z</time>
      </trkpt>
      <trkpt lat="28.4161100" lon="-16.4333950">
        <ele>1161.9</ele>
        <time>2020-11-11T11:58:11Z</time>
      </trkpt>
      <trkpt lat="28.4160800" lon="-16.4333870">
        <ele>1161.9</ele>
        <time>2020-11-11T11:58:12Z</time>
      </trkpt>
      <trkpt lat="28.4160670" lon="-16.4333820">
        <ele>1161.9</ele>
        <time>2020-11-11T11:58:13Z</time>
      </trkpt>
      <trkpt lat="28.4160670" lon="-16.4333820">
        <ele>1161.9</ele>
        <time>2020-11-11T11:58:14Z</time>
      </trkpt>
      <trkpt lat="28.4160330" lon="-16.4333800">
        <ele>1161.9</ele>
        <time>2020-11-11T11:58:15Z</time>
      </trkpt>
      <trkpt lat="28.4160330" lon="-16.4333800">
        <ele>1162.9</ele>
        <time>2020-11-11T11:58:16Z</time>
      </trkpt>
      <trkpt lat="28.4160030" lon="-16.4333780">
        <ele>1162.9</ele>
        <time>2020-11-11T11:58:17Z</time>
      </trkpt>
      <trkpt lat="28.4159830" lon="-16.4333770">
        <ele>1162.9</ele>
        <time>2020-11-11T11:58:18Z</time>
      </trkpt>
      <trkpt lat="28.4159830" lon="-16.4333770">
        <ele>1163.9</ele>
        <time>2020-11-11T11:58:19Z</time>
      </trkpt>
      <trkpt lat="28.4159630" lon="-16.4333830">
        <ele>1163.9</ele>
        <time>2020-11-11T11:58:20Z</time>
      </trkpt>
      <trkpt lat="28.4159630" lon="-16.4333830">
        <ele>1163.9</ele>
        <time>2020-11-11T11:58:21Z</time>
      </trkpt>
      <trkpt lat="28.4159400" lon="-16.4333770">
        <ele>1163.9</ele>
        <time>2020-11-11T11:58:22Z</time>
      </trkpt>
      <trkpt lat="28.4159400" lon="-16.4333770">
        <ele>1163.9</ele>
        <time>2020-11-11T11:58:23Z</time>
      </trkpt>
      <trkpt lat="28.4159050" lon="-16.4333650">
        <ele>1163.9</ele>
        <time>2020-11-11T11:58:24Z</time>
      </trkpt>
      <trkpt lat="28.4159050" lon="-16.4333650">
        <ele>1163.9</ele>
        <time>2020-11-11T11:58:25Z</time>
      </trkpt>
      <trkpt lat="28.4158800" lon="-16.4333570">
        <ele>1163.9</ele>
        <time>2020-11-11T11:58:26Z</time>
      </trkpt>
      <trkpt lat="28.4158800" lon="-16.4333570">
        <ele>1164.9</ele>
        <time>2020-11-11T11:58:27Z</time>
      </trkpt>
      <trkpt lat="28.4158530" lon="-16.4333620">
        <ele>1164.9</ele>
        <time>2020-11-11T11:58:28Z</time>
      </trkpt>
      <trkpt lat="28.4158530" lon="-16.4333620">
        <ele>1164.9</ele>
        <time>2020-11-11T11:58:29Z</time>
      </trkpt>
      <trkpt lat="28.4158120" lon="-16.4333550">
        <ele>1164.9</ele>
        <time>2020-11-11T11:58:30Z</time>
      </trkpt>
      <trkpt lat="28.4157950" lon="-16.4333570">
        <ele>1165.9</ele>
        <time>2020-11-11T11:58:31Z</time>
      </trkpt>
      <trkpt lat="28.4157950" lon="-16.4333570">
        <ele>1165.9</ele>
        <time>2020-11-11T11:58:32Z</time>
      </trkpt>
      <trkpt lat="28.4157580" lon="-16.4333650">
        <ele>1165.9</ele>
        <time>2020-11-11T11:58:33Z</time>
      </trkpt>
      <trkpt lat="28.4157580" lon="-16.4333650">
        <ele>1165.9</ele>
        <time>2020-11-11T11:58:34Z</time>
      </trkpt>
      <trkpt lat="28.4157250" lon="-16.4333800">
        <ele>1165.9</ele>
        <time>2020-11-11T11:58:35Z</time>
      </trkpt>
      <trkpt lat="28.4157120" lon="-16.4333930">
        <ele>1165.9</ele>
        <time>2020-11-11T11:58:36Z</time>
      </trkpt>
      <trkpt lat="28.4157120" lon="-16.4333930">
        <ele>1165.9</ele>
        <time>2020-11-11T11:58:37Z</time>
      </trkpt>
      <trkpt lat="28.4156830" lon="-16.4334120">
        <ele>1166.9</ele>
        <time>2020-11-11T11:58:38Z</time>
      </trkpt>
      <trkpt lat="28.4156830" lon="-16.4334120">
        <ele>1166.9</ele>
        <time>2020-11-11T11:58:39Z</time>
      </trkpt>
      <trkpt lat="28.4156550" lon="-16.4334170">
        <ele>1166.9</ele>
        <time>2020-11-11T11:58:40Z</time>
      </trkpt>
      <trkpt lat="28.4156550" lon="-16.4334170">
        <ele>1166.9</ele>
        <time>2020-11-11T11:58:41Z</time>
      </trkpt>
      <trkpt lat="28.4156270" lon="-16.4334270">
        <ele>1167.9</ele>
        <time>2020-11-11T11:58:42Z</time>
      </trkpt>
      <trkpt lat="28.4156150" lon="-16.4334280">
        <ele>1167.9</ele>
        <time>2020-11-11T11:58:43Z</time>
      </trkpt>
      <trkpt lat="28.4156150" lon="-16.4334280">
        <ele>1167.9</ele>
        <time>2020-11-11T11:58:44Z</time>
      </trkpt>
      <trkpt lat="28.4155800" lon="-16.4334380">
        <ele>1167.9</ele>
        <time>2020-11-11T11:58:45Z</time>
      </trkpt>
      <trkpt lat="28.4155800" lon="-16.4334380">
        <ele>1167.9</ele>
        <time>2020-11-11T11:58:46Z</time>
      </trkpt>
      <trkpt lat="28.4155550" lon="-16.4334520">
        <ele>1167.9</ele>
        <time>2020-11-11T11:58:47Z</time>
      </trkpt>
      <trkpt lat="28.4155550" lon="-16.4334520">
        <ele>1168.9</ele>
        <time>2020-11-11T11:58:48Z</time>
      </trkpt>
      <trkpt lat="28.4155320" lon="-16.4334630">
        <ele>1168.9</ele>
        <time>2020-11-11T11:58:49Z</time>
      </trkpt>
      <trkpt lat="28.4155320" lon="-16.4334630">
        <ele>1168.9</ele>
        <time>2020-11-11T11:58:50Z</time>
      </trkpt>
      <trkpt lat="28.4155170" lon="-16.4334870">
        <ele>1168.9</ele>
        <time>2020-11-11T11:58:51Z</time>
      </trkpt>
      <trkpt lat="28.4155170" lon="-16.4334870">
        <ele>1168.9</ele>
        <time>2020-11-11T11:58:52Z</time>
      </trkpt>
      <trkpt lat="28.4154880" lon="-16.4335080">
        <ele>1169.9</ele>
        <time>2020-11-11T11:58:53Z</time>
      </trkpt>
      <trkpt lat="28.4154880" lon="-16.4335080">
        <ele>1169.9</ele>
        <time>2020-11-11T11:58:54Z</time>
      </trkpt>
      <trkpt lat="28.4154500" lon="-16.4335180">
        <ele>1169.9</ele>
        <time>2020-11-11T11:58:55Z</time>
      </trkpt>
      <trkpt lat="28.4154500" lon="-16.4335180">
        <ele>1169.9</ele>
        <time>2020-11-11T11:58:56Z</time>
      </trkpt>
      <trkpt lat="28.4154180" lon="-16.4335300">
        <ele>1170.9</ele>
        <time>2020-11-11T11:58:57Z</time>
      </trkpt>
      <trkpt lat="28.4154180" lon="-16.4335300">
        <ele>1170.9</ele>
        <time>2020-11-11T11:58:58Z</time>
      </trkpt>
      <trkpt lat="28.4153380" lon="-16.4335720">
        <ele>1170.9</ele>
        <time>2020-11-11T11:58:59Z</time>
      </trkpt>
      <trkpt lat="28.4153380" lon="-16.4335720">
        <ele>1170.9</ele>
        <time>2020-11-11T11:59:00Z</time>
      </trkpt>
      <trkpt lat="28.4152350" lon="-16.4336300">
        <ele>1171.9</ele>
        <time>2020-11-11T11:59:01Z</time>
      </trkpt>
      <trkpt lat="28.4152350" lon="-16.4336300">
        <ele>1171.9</ele>
        <time>2020-11-11T11:59:02Z</time>
      </trkpt>
      <trkpt lat="28.4152070" lon="-16.4336400">
        <ele>1171.9</ele>
        <time>2020-11-11T11:59:03Z</time>
      </trkpt>
      <trkpt lat="28.4152070" lon="-16.4336400">
        <ele>1171.9</ele>
        <time>2020-11-11T11:59:04Z</time>
      </trkpt>
      <trkpt lat="28.4151900" lon="-16.4336500">
        <ele>1171.9</ele>
        <time>2020-11-11T11:59:05Z</time>
      </trkpt>
      <trkpt lat="28.4151720" lon="-16.4336570">
        <ele>1171.9</ele>
        <time>2020-11-11T11:59:06Z</time>
      </trkpt>
      <trkpt lat="28.4151720" lon="-16.4336570">
        <ele>1171.9</ele>
        <time>2020-11-11T11:59:07Z</time>
      </trkpt>
      <trkpt lat="28.4151280" lon="-16.4336700">
        <ele>1171.9</ele>
        <time>2020-11-11T11:59:08Z</time>
      </trkpt>
      <trkpt lat="28.4151280" lon="-16.4336700">
        <ele>1171.9</ele>
        <time>2020-11-11T11:59:09Z</time>
      </trkpt>
      <trkpt lat="28.4150950" lon="-16.4336720">
        <ele>1171.9</ele>
        <time>2020-11-11T11:59:10Z</time>
      </trkpt>
      <trkpt lat="28.4150950" lon="-16.4336720">
        <ele>1171.9</ele>
        <time>2020-11-11T11:59:11Z</time>
      </trkpt>
      <trkpt lat="28.4150680" lon="-16.4336680">
        <ele>1171.9</ele>
        <time>2020-11-11T11:59:12Z</time>
      </trkpt>
      <trkpt lat="28.4150680" lon="-16.4336680">
        <ele>1171.9</ele>
        <time>2020-11-11T11:59:13Z</time>
      </trkpt>
      <trkpt lat="28.4150300" lon="-16.4336620">
        <ele>1171.9</ele>
        <time>2020-11-11T11:59:14Z</time>
      </trkpt>
      <trkpt lat="28.4150050" lon="-16.4336530">
        <ele>1173.9</ele>
        <time>2020-11-11T11:59:15Z</time>
      </trkpt>
      <trkpt lat="28.4150050" lon="-16.4336530">
        <ele>1173.9</ele>
        <time>2020-11-11T11:59:16Z</time>
      </trkpt>
      <trkpt lat="28.4149470" lon="-16.4336600">
        <ele>1173.9</ele>
        <time>2020-11-11T11:59:17Z</time>
      </trkpt>
      <trkpt lat="28.4149470" lon="-16.4336600">
        <ele>1173.9</ele>
        <time>2020-11-11T11:59:18Z</time>
      </trkpt>
      <trkpt lat="28.4149020" lon="-16.4336550">
        <ele>1173.9</ele>
        <time>2020-11-11T11:59:19Z</time>
      </trkpt>
      <trkpt lat="28.4149020" lon="-16.4336550">
        <ele>1173.9</ele>
        <time>2020-11-11T11:59:20Z</time>
      </trkpt>
      <trkpt lat="28.4148670" lon="-16.4336420">
        <ele>1173.9</ele>
        <time>2020-11-11T11:59:21Z</time>
      </trkpt>
      <trkpt lat="28.4148550" lon="-16.4336350">
        <ele>1173.9</ele>
        <time>2020-11-11T11:59:22Z</time>
      </trkpt>
      <trkpt lat="28.4148370" lon="-16.4336200">
        <ele>1173.9</ele>
        <time>2020-11-11T11:59:23Z</time>
      </trkpt>
      <trkpt lat="28.4148370" lon="-16.4336200">
        <ele>1173.9</ele>
        <time>2020-11-11T11:59:24Z</time>
      </trkpt>
      <trkpt lat="28.4148120" lon="-16.4335920">
        <ele>1173.9</ele>
        <time>2020-11-11T11:59:25Z</time>
      </trkpt>
      <trkpt lat="28.4148020" lon="-16.4335820">
        <ele>1174.9</ele>
        <time>2020-11-11T11:59:26Z</time>
      </trkpt>
      <trkpt lat="28.4148020" lon="-16.4335820">
        <ele>1174.9</ele>
        <time>2020-11-11T11:59:27Z</time>
      </trkpt>
      <trkpt lat="28.4147750" lon="-16.4335530">
        <ele>1174.9</ele>
        <time>2020-11-11T11:59:28Z</time>
      </trkpt>
      <trkpt lat="28.4147750" lon="-16.4335530">
        <ele>1174.9</ele>
        <time>2020-11-11T11:59:29Z</time>
      </trkpt>
      <trkpt lat="28.4147600" lon="-16.4335200">
        <ele>1174.9</ele>
        <time>2020-11-11T11:59:30Z</time>
      </trkpt>
      <trkpt lat="28.4147570" lon="-16.4334980">
        <ele>1174.9</ele>
        <time>2020-11-11T11:59:31Z</time>
      </trkpt>
      <trkpt lat="28.4147570" lon="-16.4334980">
        <ele>1174.9</ele>
        <time>2020-11-11T11:59:32Z</time>
      </trkpt>
      <trkpt lat="28.4147500" lon="-16.4334630">
        <ele>1175.9</ele>
        <time>2020-11-11T11:59:33Z</time>
      </trkpt>
      <trkpt lat="28.4147500" lon="-16.4334630">
        <ele>1175.9</ele>
        <time>2020-11-11T11:59:34Z</time>
      </trkpt>
      <trkpt lat="28.4147280" lon="-16.4334500">
        <ele>1175.9</ele>
        <time>2020-11-11T11:59:35Z</time>
      </trkpt>
      <trkpt lat="28.4147280" lon="-16.4334500">
        <ele>1175.9</ele>
        <time>2020-11-11T11:59:36Z</time>
      </trkpt>
      <trkpt lat="28.4147270" lon="-16.4334300">
        <ele>1175.9</ele>
        <time>2020-11-11T11:59:37Z</time>
      </trkpt>
      <trkpt lat="28.4147270" lon="-16.4334300">
        <ele>1175.9</ele>
        <time>2020-11-11T11:59:38Z</time>
      </trkpt>
      <trkpt lat="28.4147300" lon="-16.4334020">
        <ele>1176.9</ele>
        <time>2020-11-11T11:59:39Z</time>
      </trkpt>
      <trkpt lat="28.4147300" lon="-16.4334020">
        <ele>1176.9</ele>
        <time>2020-11-11T11:59:40Z</time>
      </trkpt>
      <trkpt lat="28.4147280" lon="-16.4333580">
        <ele>1176.9</ele>
        <time>2020-11-11T11:59:41Z</time>
      </trkpt>
      <trkpt lat="28.4147280" lon="-16.4333580">
        <ele>1176.9</ele>
        <time>2020-11-11T11:59:42Z</time>
      </trkpt>
      <trkpt lat="28.4147270" lon="-16.4333200">
        <ele>1176.9</ele>
        <time>2020-11-11T11:59:43Z</time>
      </trkpt>
      <trkpt lat="28.4147270" lon="-16.4333200">
        <ele>1176.9</ele>
        <time>2020-11-11T11:59:44Z</time>
      </trkpt>
      <trkpt lat="28.4147180" lon="-16.4332720">
        <ele>1177.9</ele>
        <time>2020-11-11T11:59:45Z</time>
      </trkpt>
      <trkpt lat="28.4147180" lon="-16.4332720">
        <ele>1177.9</ele>
        <time>2020-11-11T11:59:46Z</time>
      </trkpt>
      <trkpt lat="28.4146950" lon="-16.4332380">
        <ele>1177.9</ele>
        <time>2020-11-11T11:59:47Z</time>
      </trkpt>
      <trkpt lat="28.4146950" lon="-16.4332380">
        <ele>1177.9</ele>
        <time>2020-11-11T11:59:48Z</time>
      </trkpt>
      <trkpt lat="28.4146780" lon="-16.4332150">
        <ele>1178.9</ele>
        <time>2020-11-11T11:59:49Z</time>
      </trkpt>
      <trkpt lat="28.4146780" lon="-16.4332150">
        <ele>1178.9</ele>
        <time>2020-11-11T11:59:50Z</time>
      </trkpt>
      <trkpt lat="28.4146550" lon="-16.4332080">
        <ele>1178.9</ele>
        <time>2020-11-11T11:59:51Z</time>
      </trkpt>
      <trkpt lat="28.4146550" lon="-16.4332080">
        <ele>1178.9</ele>
        <time>2020-11-11T11:59:52Z</time>
      </trkpt>
      <trkpt lat="28.4146380" lon="-16.4332100">
        <ele>1178.9</ele>
        <time>2020-11-11T11:59:53Z</time>
      </trkpt>
      <trkpt lat="28.4146380" lon="-16.4332100">
        <ele>1178.9</ele>
        <time>2020-11-11T11:59:54Z</time>
      </trkpt>
      <trkpt lat="28.4146100" lon="-16.4332100">
        <ele>1179.9</ele>
        <time>2020-11-11T11:59:55Z</time>
      </trkpt>
      <trkpt lat="28.4146100" lon="-16.4332100">
        <ele>1179.9</ele>
        <time>2020-11-11T11:59:56Z</time>
      </trkpt>
      <trkpt lat="28.4145730" lon="-16.4332020">
        <ele>1179.9</ele>
        <time>2020-11-11T11:59:57Z</time>
      </trkpt>
      <trkpt lat="28.4145580" lon="-16.4331930">
        <ele>1179.9</ele>
        <time>2020-11-11T11:59:58Z</time>
      </trkpt>
      <trkpt lat="28.4145580" lon="-16.4331930">
        <ele>1179.9</ele>
        <time>2020-11-11T11:59:59Z</time>
      </trkpt>
      <trkpt lat="28.4145300" lon="-16.4331720">
        <ele>1179.9</ele>
        <time>2020-11-11T12:00:00Z</time>
      </trkpt>
      <trkpt lat="28.4145180" lon="-16.4331620">
        <ele>1179.9</ele>
        <time>2020-11-11T12:00:01Z</time>
      </trkpt>
      <trkpt lat="28.4145180" lon="-16.4331620">
        <ele>1180.9</ele>
        <time>2020-11-11T12:00:02Z</time>
      </trkpt>
      <trkpt lat="28.4145100" lon="-16.4331370">
        <ele>1180.9</ele>
        <time>2020-11-11T12:00:03Z</time>
      </trkpt>
      <trkpt lat="28.4145050" lon="-16.4331180">
        <ele>1180.9</ele>
        <time>2020-11-11T12:00:04Z</time>
      </trkpt>
      <trkpt lat="28.4145050" lon="-16.4331180">
        <ele>1180.9</ele>
        <time>2020-11-11T12:00:05Z</time>
      </trkpt>
      <trkpt lat="28.4144930" lon="-16.4330970">
        <ele>1181.9</ele>
        <time>2020-11-11T12:00:06Z</time>
      </trkpt>
      <trkpt lat="28.4144880" lon="-16.4330870">
        <ele>1181.9</ele>
        <time>2020-11-11T12:00:07Z</time>
      </trkpt>
      <trkpt lat="28.4144880" lon="-16.4330870">
        <ele>1181.9</ele>
        <time>2020-11-11T12:00:08Z</time>
      </trkpt>
      <trkpt lat="28.4144880" lon="-16.4330670">
        <ele>1181.9</ele>
        <time>2020-11-11T12:00:09Z</time>
      </trkpt>
      <trkpt lat="28.4144930" lon="-16.4330580">
        <ele>1182.9</ele>
        <time>2020-11-11T12:00:10Z</time>
      </trkpt>
      <trkpt lat="28.4144930" lon="-16.4330580">
        <ele>1182.9</ele>
        <time>2020-11-11T12:00:11Z</time>
      </trkpt>
      <trkpt lat="28.4145030" lon="-16.4330520">
        <ele>1182.9</ele>
        <time>2020-11-11T12:00:12Z</time>
      </trkpt>
      <trkpt lat="28.4145030" lon="-16.4330520">
        <ele>1182.9</ele>
        <time>2020-11-11T12:00:13Z</time>
      </trkpt>
      <trkpt lat="28.4145100" lon="-16.4330300">
        <ele>1182.9</ele>
        <time>2020-11-11T12:00:14Z</time>
      </trkpt>
      <trkpt lat="28.4145130" lon="-16.4330180">
        <ele>1182.9</ele>
        <time>2020-11-11T12:00:15Z</time>
      </trkpt>
      <trkpt lat="28.4145130" lon="-16.4330180">
        <ele>1182.9</ele>
        <time>2020-11-11T12:00:16Z</time>
      </trkpt>
      <trkpt lat="28.4145250" lon="-16.4329770">
        <ele>1182.9</ele>
        <time>2020-11-11T12:00:17Z</time>
      </trkpt>
      <trkpt lat="28.4145300" lon="-16.4329650">
        <ele>1182.9</ele>
        <time>2020-11-11T12:00:18Z</time>
      </trkpt>
      <trkpt lat="28.4145350" lon="-16.4329520">
        <ele>1182.9</ele>
        <time>2020-11-11T12:00:19Z</time>
      </trkpt>
      <trkpt lat="28.4145350" lon="-16.4329520">
        <ele>1182.9</ele>
        <time>2020-11-11T12:00:20Z</time>
      </trkpt>
      <trkpt lat="28.4145520" lon="-16.4329270">
        <ele>1182.9</ele>
        <time>2020-11-11T12:00:21Z</time>
      </trkpt>
      <trkpt lat="28.4145580" lon="-16.4329180">
        <ele>1183.9</ele>
        <time>2020-11-11T12:00:22Z</time>
      </trkpt>
      <trkpt lat="28.4145580" lon="-16.4329180">
        <ele>1183.9</ele>
        <time>2020-11-11T12:00:23Z</time>
      </trkpt>
      <trkpt lat="28.4145800" lon="-16.4328870">
        <ele>1183.9</ele>
        <time>2020-11-11T12:00:24Z</time>
      </trkpt>
      <trkpt lat="28.4145800" lon="-16.4328870">
        <ele>1183.9</ele>
        <time>2020-11-11T12:00:25Z</time>
      </trkpt>
      <trkpt lat="28.4145980" lon="-16.4328670">
        <ele>1184.9</ele>
        <time>2020-11-11T12:00:26Z</time>
      </trkpt>
      <trkpt lat="28.4145980" lon="-16.4328670">
        <ele>1184.9</ele>
        <time>2020-11-11T12:00:27Z</time>
      </trkpt>
      <trkpt lat="28.4146130" lon="-16.4328380">
        <ele>1184.9</ele>
        <time>2020-11-11T12:00:28Z</time>
      </trkpt>
      <trkpt lat="28.4146130" lon="-16.4328380">
        <ele>1184.9</ele>
        <time>2020-11-11T12:00:29Z</time>
      </trkpt>
      <trkpt lat="28.4146270" lon="-16.4328100">
        <ele>1184.9</ele>
        <time>2020-11-11T12:00:30Z</time>
      </trkpt>
      <trkpt lat="28.4146370" lon="-16.4328000">
        <ele>1184.9</ele>
        <time>2020-11-11T12:00:31Z</time>
      </trkpt>
      <trkpt lat="28.4146370" lon="-16.4328000">
        <ele>1185.9</ele>
        <time>2020-11-11T12:00:32Z</time>
      </trkpt>
      <trkpt lat="28.4146630" lon="-16.4327750">
        <ele>1185.9</ele>
        <time>2020-11-11T12:00:33Z</time>
      </trkpt>
      <trkpt lat="28.4146770" lon="-16.4327630">
        <ele>1185.9</ele>
        <time>2020-11-11T12:00:34Z</time>
      </trkpt>
      <trkpt lat="28.4146770" lon="-16.4327630">
        <ele>1186.9</ele>
        <time>2020-11-11T12:00:35Z</time>
      </trkpt>
      <trkpt lat="28.4147000" lon="-16.4327400">
        <ele>1186.9</ele>
        <time>2020-11-11T12:00:36Z</time>
      </trkpt>
      <trkpt lat="28.4147130" lon="-16.4327280">
        <ele>1186.9</ele>
        <time>2020-11-11T12:00:37Z</time>
      </trkpt>
      <trkpt lat="28.4147130" lon="-16.4327280">
        <ele>1186.9</ele>
        <time>2020-11-11T12:00:38Z</time>
      </trkpt>
      <trkpt lat="28.4147380" lon="-16.4327130">
        <ele>1186.9</ele>
        <time>2020-11-11T12:00:39Z</time>
      </trkpt>
      <trkpt lat="28.4147380" lon="-16.4327130">
        <ele>1186.9</ele>
        <time>2020-11-11T12:00:40Z</time>
      </trkpt>
      <trkpt lat="28.4147670" lon="-16.4326800">
        <ele>1187.9</ele>
        <time>2020-11-11T12:00:41Z</time>
      </trkpt>
      <trkpt lat="28.4147670" lon="-16.4326800">
        <ele>1187.9</ele>
        <time>2020-11-11T12:00:42Z</time>
      </trkpt>
      <trkpt lat="28.4147950" lon="-16.4326520">
        <ele>1187.9</ele>
        <time>2020-11-11T12:00:43Z</time>
      </trkpt>
      <trkpt lat="28.4147950" lon="-16.4326520">
        <ele>1187.9</ele>
        <time>2020-11-11T12:00:44Z</time>
      </trkpt>
      <trkpt lat="28.4148250" lon="-16.4326300">
        <ele>1188.9</ele>
        <time>2020-11-11T12:00:45Z</time>
      </trkpt>
      <trkpt lat="28.4148250" lon="-16.4326300">
        <ele>1188.9</ele>
        <time>2020-11-11T12:00:46Z</time>
      </trkpt>
      <trkpt lat="28.4148500" lon="-16.4326030">
        <ele>1188.9</ele>
        <time>2020-11-11T12:00:47Z</time>
      </trkpt>
      <trkpt lat="28.4148620" lon="-16.4325870">
        <ele>1188.9</ele>
        <time>2020-11-11T12:00:48Z</time>
      </trkpt>
      <trkpt lat="28.4148770" lon="-16.4325700">
        <ele>1188.9</ele>
        <time>2020-11-11T12:00:49Z</time>
      </trkpt>
      <trkpt lat="28.4148770" lon="-16.4325700">
        <ele>1188.9</ele>
        <time>2020-11-11T12:00:50Z</time>
      </trkpt>
      <trkpt lat="28.4149030" lon="-16.4325420">
        <ele>1189.9</ele>
        <time>2020-11-11T12:00:51Z</time>
      </trkpt>
      <trkpt lat="28.4149030" lon="-16.4325420">
        <ele>1189.9</ele>
        <time>2020-11-11T12:00:52Z</time>
      </trkpt>
      <trkpt lat="28.4149250" lon="-16.4325130">
        <ele>1189.9</ele>
        <time>2020-11-11T12:00:53Z</time>
      </trkpt>
      <trkpt lat="28.4149250" lon="-16.4325130">
        <ele>1189.9</ele>
        <time>2020-11-11T12:00:54Z</time>
      </trkpt>
      <trkpt lat="28.4149470" lon="-16.4324930">
        <ele>1189.9</ele>
        <time>2020-11-11T12:00:55Z</time>
      </trkpt>
      <trkpt lat="28.4149470" lon="-16.4324930">
        <ele>1189.9</ele>
        <time>2020-11-11T12:00:56Z</time>
      </trkpt>
      <trkpt lat="28.4149630" lon="-16.4324680">
        <ele>1190.9</ele>
        <time>2020-11-11T12:00:57Z</time>
      </trkpt>
      <trkpt lat="28.4149700" lon="-16.4324550">
        <ele>1190.9</ele>
        <time>2020-11-11T12:00:58Z</time>
      </trkpt>
      <trkpt lat="28.4149700" lon="-16.4324550">
        <ele>1190.9</ele>
        <time>2020-11-11T12:00:59Z</time>
      </trkpt>
      <trkpt lat="28.4149870" lon="-16.4324280">
        <ele>1190.9</ele>
        <time>2020-11-11T12:01:00Z</time>
      </trkpt>
      <trkpt lat="28.4149870" lon="-16.4324280">
        <ele>1190.9</ele>
        <time>2020-11-11T12:01:01Z</time>
      </trkpt>
      <trkpt lat="28.4149980" lon="-16.4323950">
        <ele>1190.9</ele>
        <time>2020-11-11T12:01:02Z</time>
      </trkpt>
      <trkpt lat="28.4149980" lon="-16.4323950">
        <ele>1191.9</ele>
        <time>2020-11-11T12:01:03Z</time>
      </trkpt>
      <trkpt lat="28.4150150" lon="-16.4323380">
        <ele>1191.9</ele>
        <time>2020-11-11T12:01:04Z</time>
      </trkpt>
      <trkpt lat="28.4150150" lon="-16.4323380">
        <ele>1191.9</ele>
        <time>2020-11-11T12:01:05Z</time>
      </trkpt>
      <trkpt lat="28.4150180" lon="-16.4322750">
        <ele>1191.9</ele>
        <time>2020-11-11T12:01:06Z</time>
      </trkpt>
      <trkpt lat="28.4150180" lon="-16.4322750">
        <ele>1191.9</ele>
        <time>2020-11-11T12:01:07Z</time>
      </trkpt>
      <trkpt lat="28.4150130" lon="-16.4322270">
        <ele>1191.9</ele>
        <time>2020-11-11T12:01:08Z</time>
      </trkpt>
      <trkpt lat="28.4150130" lon="-16.4322270">
        <ele>1192.9</ele>
        <time>2020-11-11T12:01:09Z</time>
      </trkpt>
      <trkpt lat="28.4149980" lon="-16.4321950">
        <ele>1192.9</ele>
        <time>2020-11-11T12:01:10Z</time>
      </trkpt>
      <trkpt lat="28.4149880" lon="-16.4321870">
        <ele>1192.9</ele>
        <time>2020-11-11T12:01:11Z</time>
      </trkpt>
      <trkpt lat="28.4149880" lon="-16.4321870">
        <ele>1192.9</ele>
        <time>2020-11-11T12:01:12Z</time>
      </trkpt>
      <trkpt lat="28.4149670" lon="-16.4321770">
        <ele>1192.9</ele>
        <time>2020-11-11T12:01:13Z</time>
      </trkpt>
      <trkpt lat="28.4149530" lon="-16.4321720">
        <ele>1193.9</ele>
        <time>2020-11-11T12:01:14Z</time>
      </trkpt>
      <trkpt lat="28.4149530" lon="-16.4321720">
        <ele>1193.9</ele>
        <time>2020-11-11T12:01:15Z</time>
      </trkpt>
      <trkpt lat="28.4149220" lon="-16.4321780">
        <ele>1193.9</ele>
        <time>2020-11-11T12:01:16Z</time>
      </trkpt>
      <trkpt lat="28.4149220" lon="-16.4321780">
        <ele>1193.9</ele>
        <time>2020-11-11T12:01:17Z</time>
      </trkpt>
      <trkpt lat="28.4148950" lon="-16.4322030">
        <ele>1194.9</ele>
        <time>2020-11-11T12:01:18Z</time>
      </trkpt>
      <trkpt lat="28.4148950" lon="-16.4322030">
        <ele>1194.9</ele>
        <time>2020-11-11T12:01:19Z</time>
      </trkpt>
      <trkpt lat="28.4148680" lon="-16.4322130">
        <ele>1194.9</ele>
        <time>2020-11-11T12:01:20Z</time>
      </trkpt>
      <trkpt lat="28.4148550" lon="-16.4322130">
        <ele>1194.9</ele>
        <time>2020-11-11T12:01:21Z</time>
      </trkpt>
      <trkpt lat="28.4148550" lon="-16.4322130">
        <ele>1195.9</ele>
        <time>2020-11-11T12:01:22Z</time>
      </trkpt>
      <trkpt lat="28.4148280" lon="-16.4322200">
        <ele>1195.9</ele>
        <time>2020-11-11T12:01:23Z</time>
      </trkpt>
      <trkpt lat="28.4148150" lon="-16.4322280">
        <ele>1195.9</ele>
        <time>2020-11-11T12:01:24Z</time>
      </trkpt>
      <trkpt lat="28.4148020" lon="-16.4322330">
        <ele>1195.9</ele>
        <time>2020-11-11T12:01:25Z</time>
      </trkpt>
      <trkpt lat="28.4148020" lon="-16.4322330">
        <ele>1195.9</ele>
        <time>2020-11-11T12:01:26Z</time>
      </trkpt>
      <trkpt lat="28.4147750" lon="-16.4322430">
        <ele>1195.9</ele>
        <time>2020-11-11T12:01:27Z</time>
      </trkpt>
      <trkpt lat="28.4147750" lon="-16.4322430">
        <ele>1195.9</ele>
        <time>2020-11-11T12:01:28Z</time>
      </trkpt>
      <trkpt lat="28.4147520" lon="-16.4322480">
        <ele>1195.9</ele>
        <time>2020-11-11T12:01:29Z</time>
      </trkpt>
      <trkpt lat="28.4147350" lon="-16.4322520">
        <ele>1195.9</ele>
        <time>2020-11-11T12:01:30Z</time>
      </trkpt>
      <trkpt lat="28.4147350" lon="-16.4322520">
        <ele>1195.9</ele>
        <time>2020-11-11T12:01:31Z</time>
      </trkpt>
      <trkpt lat="28.4147050" lon="-16.4322470">
        <ele>1195.9</ele>
        <time>2020-11-11T12:01:32Z</time>
      </trkpt>
      <trkpt lat="28.4146900" lon="-16.4322520">
        <ele>1195.9</ele>
        <time>2020-11-11T12:01:33Z</time>
      </trkpt>
      <trkpt lat="28.4146730" lon="-16.4322530">
        <ele>1196.9</ele>
        <time>2020-11-11T12:01:34Z</time>
      </trkpt>
      <trkpt lat="28.4146650" lon="-16.4322480">
        <ele>1196.9</ele>
        <time>2020-11-11T12:01:35Z</time>
      </trkpt>
      <trkpt lat="28.4146650" lon="-16.4322480">
        <ele>1196.9</ele>
        <time>2020-11-11T12:01:36Z</time>
      </trkpt>
      <trkpt lat="28.4146350" lon="-16.4322400">
        <ele>1196.9</ele>
        <time>2020-11-11T12:01:37Z</time>
      </trkpt>
      <trkpt lat="28.4146350" lon="-16.4322400">
        <ele>1197.9</ele>
        <time>2020-11-11T12:01:38Z</time>
      </trkpt>
      <trkpt lat="28.4146000" lon="-16.4322350">
        <ele>1197.9</ele>
        <time>2020-11-11T12:01:39Z</time>
      </trkpt>
      <trkpt lat="28.4146000" lon="-16.4322350">
        <ele>1197.9</ele>
        <time>2020-11-11T12:01:40Z</time>
      </trkpt>
      <trkpt lat="28.4145730" lon="-16.4322380">
        <ele>1197.9</ele>
        <time>2020-11-11T12:01:41Z</time>
      </trkpt>
      <trkpt lat="28.4145730" lon="-16.4322380">
        <ele>1198.9</ele>
        <time>2020-11-11T12:01:42Z</time>
      </trkpt>
      <trkpt lat="28.4145530" lon="-16.4322400">
        <ele>1198.9</ele>
        <time>2020-11-11T12:01:43Z</time>
      </trkpt>
      <trkpt lat="28.4145530" lon="-16.4322400">
        <ele>1198.9</ele>
        <time>2020-11-11T12:01:44Z</time>
      </trkpt>
      <trkpt lat="28.4145270" lon="-16.4322400">
        <ele>1198.9</ele>
        <time>2020-11-11T12:01:45Z</time>
      </trkpt>
      <trkpt lat="28.4145270" lon="-16.4322400">
        <ele>1198.9</ele>
        <time>2020-11-11T12:01:46Z</time>
      </trkpt>
      <trkpt lat="28.4145000" lon="-16.4322400">
        <ele>1199.9</ele>
        <time>2020-11-11T12:01:47Z</time>
      </trkpt>
      <trkpt lat="28.4144920" lon="-16.4322400">
        <ele>1199.9</ele>
        <time>2020-11-11T12:01:48Z</time>
      </trkpt>
      <trkpt lat="28.4144820" lon="-16.4322500">
        <ele>1199.9</ele>
        <time>2020-11-11T12:01:49Z</time>
      </trkpt>
      <trkpt lat="28.4144820" lon="-16.4322500">
        <ele>1199.9</ele>
        <time>2020-11-11T12:01:50Z</time>
      </trkpt>
      <trkpt lat="28.4144530" lon="-16.4322720">
        <ele>1199.9</ele>
        <time>2020-11-11T12:01:51Z</time>
      </trkpt>
      <trkpt lat="28.4144530" lon="-16.4322720">
        <ele>1199.9</ele>
        <time>2020-11-11T12:01:52Z</time>
      </trkpt>
      <trkpt lat="28.4144280" lon="-16.4322970">
        <ele>1200.9</ele>
        <time>2020-11-11T12:01:53Z</time>
      </trkpt>
      <trkpt lat="28.4144280" lon="-16.4322970">
        <ele>1200.9</ele>
        <time>2020-11-11T12:01:54Z</time>
      </trkpt>
      <trkpt lat="28.4144000" lon="-16.4323050">
        <ele>1200.9</ele>
        <time>2020-11-11T12:01:55Z</time>
      </trkpt>
      <trkpt lat="28.4144000" lon="-16.4323050">
        <ele>1200.9</ele>
        <time>2020-11-11T12:01:56Z</time>
      </trkpt>
      <trkpt lat="28.4143750" lon="-16.4323180">
        <ele>1201.9</ele>
        <time>2020-11-11T12:01:57Z</time>
      </trkpt>
      <trkpt lat="28.4143750" lon="-16.4323180">
        <ele>1201.9</ele>
        <time>2020-11-11T12:01:58Z</time>
      </trkpt>
      <trkpt lat="28.4143550" lon="-16.4323330">
        <ele>1201.9</ele>
        <time>2020-11-11T12:01:59Z</time>
      </trkpt>
      <trkpt lat="28.4143550" lon="-16.4323330">
        <ele>1201.9</ele>
        <time>2020-11-11T12:02:00Z</time>
      </trkpt>
      <trkpt lat="28.4143330" lon="-16.4323480">
        <ele>1201.9</ele>
        <time>2020-11-11T12:02:01Z</time>
      </trkpt>
      <trkpt lat="28.4143170" lon="-16.4323550">
        <ele>1201.9</ele>
        <time>2020-11-11T12:02:02Z</time>
      </trkpt>
      <trkpt lat="28.4143170" lon="-16.4323550">
        <ele>1202.9</ele>
        <time>2020-11-11T12:02:03Z</time>
      </trkpt>
      <trkpt lat="28.4142830" lon="-16.4323670">
        <ele>1202.9</ele>
        <time>2020-11-11T12:02:04Z</time>
      </trkpt>
      <trkpt lat="28.4142830" lon="-16.4323670">
        <ele>1202.9</ele>
        <time>2020-11-11T12:02:05Z</time>
      </trkpt>
      <trkpt lat="28.4142450" lon="-16.4323980">
        <ele>1202.9</ele>
        <time>2020-11-11T12:02:06Z</time>
      </trkpt>
      <trkpt lat="28.4142450" lon="-16.4323980">
        <ele>1202.9</ele>
        <time>2020-11-11T12:02:07Z</time>
      </trkpt>
      <trkpt lat="28.4142150" lon="-16.4324270">
        <ele>1202.9</ele>
        <time>2020-11-11T12:02:08Z</time>
      </trkpt>
      <trkpt lat="28.4141980" lon="-16.4324330">
        <ele>1202.9</ele>
        <time>2020-11-11T12:02:09Z</time>
      </trkpt>
      <trkpt lat="28.4141980" lon="-16.4324330">
        <ele>1202.9</ele>
        <time>2020-11-11T12:02:10Z</time>
      </trkpt>
      <trkpt lat="28.4141700" lon="-16.4324430">
        <ele>1202.9</ele>
        <time>2020-11-11T12:02:11Z</time>
      </trkpt>
      <trkpt lat="28.4141700" lon="-16.4324430">
        <ele>1203.9</ele>
        <time>2020-11-11T12:02:12Z</time>
      </trkpt>
      <trkpt lat="28.4141430" lon="-16.4324570">
        <ele>1203.9</ele>
        <time>2020-11-11T12:02:13Z</time>
      </trkpt>
      <trkpt lat="28.4141300" lon="-16.4324650">
        <ele>1204.9</ele>
        <time>2020-11-11T12:02:14Z</time>
      </trkpt>
      <trkpt lat="28.4141300" lon="-16.4324650">
        <ele>1204.9</ele>
        <time>2020-11-11T12:02:15Z</time>
      </trkpt>
      <trkpt lat="28.4140950" lon="-16.4324800">
        <ele>1204.9</ele>
        <time>2020-11-11T12:02:16Z</time>
      </trkpt>
      <trkpt lat="28.4140950" lon="-16.4324800">
        <ele>1204.9</ele>
        <time>2020-11-11T12:02:17Z</time>
      </trkpt>
      <trkpt lat="28.4140650" lon="-16.4324930">
        <ele>1204.9</ele>
        <time>2020-11-11T12:02:18Z</time>
      </trkpt>
      <trkpt lat="28.4140480" lon="-16.4325020">
        <ele>1204.9</ele>
        <time>2020-11-11T12:02:19Z</time>
      </trkpt>
      <trkpt lat="28.4140480" lon="-16.4325020">
        <ele>1204.9</ele>
        <time>2020-11-11T12:02:20Z</time>
      </trkpt>
      <trkpt lat="28.4140270" lon="-16.4325070">
        <ele>1204.9</ele>
        <time>2020-11-11T12:02:21Z</time>
      </trkpt>
      <trkpt lat="28.4140270" lon="-16.4325070">
        <ele>1204.9</ele>
        <time>2020-11-11T12:02:22Z</time>
      </trkpt>
      <trkpt lat="28.4139970" lon="-16.4325030">
        <ele>1205.9</ele>
        <time>2020-11-11T12:02:23Z</time>
      </trkpt>
      <trkpt lat="28.4139970" lon="-16.4325030">
        <ele>1205.9</ele>
        <time>2020-11-11T12:02:24Z</time>
      </trkpt>
      <trkpt lat="28.4139650" lon="-16.4325020">
        <ele>1205.9</ele>
        <time>2020-11-11T12:02:25Z</time>
      </trkpt>
      <trkpt lat="28.4139650" lon="-16.4325020">
        <ele>1205.9</ele>
        <time>2020-11-11T12:02:26Z</time>
      </trkpt>
      <trkpt lat="28.4139270" lon="-16.4324970">
        <ele>1205.9</ele>
        <time>2020-11-11T12:02:27Z</time>
      </trkpt>
      <trkpt lat="28.4139130" lon="-16.4324920">
        <ele>1206.9</ele>
        <time>2020-11-11T12:02:28Z</time>
      </trkpt>
      <trkpt lat="28.4139130" lon="-16.4324920">
        <ele>1206.9</ele>
        <time>2020-11-11T12:02:29Z</time>
      </trkpt>
      <trkpt lat="28.4138920" lon="-16.4324700">
        <ele>1206.9</ele>
        <time>2020-11-11T12:02:30Z</time>
      </trkpt>
      <trkpt lat="28.4138820" lon="-16.4324550">
        <ele>1206.9</ele>
        <time>2020-11-11T12:02:31Z</time>
      </trkpt>
      <trkpt lat="28.4138670" lon="-16.4324420">
        <ele>1206.9</ele>
        <time>2020-11-11T12:02:32Z</time>
      </trkpt>
      <trkpt lat="28.4138670" lon="-16.4324420">
        <ele>1206.9</ele>
        <time>2020-11-11T12:02:33Z</time>
      </trkpt>
      <trkpt lat="28.4138380" lon="-16.4324220">
        <ele>1206.9</ele>
        <time>2020-11-11T12:02:34Z</time>
      </trkpt>
      <trkpt lat="28.4138380" lon="-16.4324220">
        <ele>1207.9</ele>
        <time>2020-11-11T12:02:35Z</time>
      </trkpt>
      <trkpt lat="28.4138100" lon="-16.4324020">
        <ele>1207.9</ele>
        <time>2020-11-11T12:02:36Z</time>
      </trkpt>
      <trkpt lat="28.4138100" lon="-16.4324020">
        <ele>1207.9</ele>
        <time>2020-11-11T12:02:37Z</time>
      </trkpt>
      <trkpt lat="28.4137930" lon="-16.4323720">
        <ele>1207.9</ele>
        <time>2020-11-11T12:02:38Z</time>
      </trkpt>
      <trkpt lat="28.4137930" lon="-16.4323720">
        <ele>1207.9</ele>
        <time>2020-11-11T12:02:39Z</time>
      </trkpt>
      <trkpt lat="28.4137670" lon="-16.4323530">
        <ele>1207.9</ele>
        <time>2020-11-11T12:02:40Z</time>
      </trkpt>
      <trkpt lat="28.4137670" lon="-16.4323530">
        <ele>1207.9</ele>
        <time>2020-11-11T12:02:41Z</time>
      </trkpt>
      <trkpt lat="28.4137430" lon="-16.4323470">
        <ele>1207.9</ele>
        <time>2020-11-11T12:02:42Z</time>
      </trkpt>
      <trkpt lat="28.4137350" lon="-16.4323420">
        <ele>1207.9</ele>
        <time>2020-11-11T12:02:43Z</time>
      </trkpt>
      <trkpt lat="28.4137350" lon="-16.4323420">
        <ele>1207.9</ele>
        <time>2020-11-11T12:02:44Z</time>
      </trkpt>
      <trkpt lat="28.4137320" lon="-16.4323380">
        <ele>1207.9</ele>
        <time>2020-11-11T12:02:45Z</time>
      </trkpt>
      <trkpt lat="28.4137320" lon="-16.4323380">
        <ele>1207.9</ele>
        <time>2020-11-11T12:02:46Z</time>
      </trkpt>
      <trkpt lat="28.4137400" lon="-16.4323300">
        <ele>1207.9</ele>
        <time>2020-11-11T12:02:47Z</time>
      </trkpt>
      <trkpt lat="28.4137400" lon="-16.4323300">
        <ele>1207.9</ele>
        <time>2020-11-11T12:02:48Z</time>
      </trkpt>
      <trkpt lat="28.4137530" lon="-16.4323400">
        <ele>1207.9</ele>
        <time>2020-11-11T12:02:49Z</time>
      </trkpt>
      <trkpt lat="28.4137530" lon="-16.4323400">
        <ele>1207.9</ele>
        <time>2020-11-11T12:02:50Z</time>
      </trkpt>
      <trkpt lat="28.4137530" lon="-16.4323400">
        <ele>1207.9</ele>
        <time>2020-11-11T12:02:51Z</time>
      </trkpt>
      <trkpt lat="28.4137530" lon="-16.4323400">
        <ele>1207.9</ele>
        <time>2020-11-11T12:02:52Z</time>
      </trkpt>
      <trkpt lat="28.4137530" lon="-16.4323400">
        <ele>1207.9</ele>
        <time>2020-11-11T12:02:53Z</time>
      </trkpt>
      <trkpt lat="28.4137530" lon="-16.4323400">
        <ele>1207.9</ele>
        <time>2020-11-11T12:03:36Z</time>
      </trkpt>
      <trkpt lat="28.4136850" lon="-16.4323600">
        <ele>1207.9</ele>
        <time>2020-11-11T12:03:37Z</time>
      </trkpt>
      <trkpt lat="28.4136850" lon="-16.4323600">
        <ele>1207.9</ele>
        <time>2020-11-11T12:03:38Z</time>
      </trkpt>
      <trkpt lat="28.4136470" lon="-16.4323370">
        <ele>1207.9</ele>
        <time>2020-11-11T12:03:39Z</time>
      </trkpt>
      <trkpt lat="28.4136350" lon="-16.4323280">
        <ele>1207.9</ele>
        <time>2020-11-11T12:03:40Z</time>
      </trkpt>
      <trkpt lat="28.4136220" lon="-16.4323180">
        <ele>1207.9</ele>
        <time>2020-11-11T12:03:41Z</time>
      </trkpt>
      <trkpt lat="28.4136220" lon="-16.4323180">
        <ele>1207.9</ele>
        <time>2020-11-11T12:03:42Z</time>
      </trkpt>
      <trkpt lat="28.4135980" lon="-16.4323220">
        <ele>1207.9</ele>
        <time>2020-11-11T12:03:43Z</time>
      </trkpt>
      <trkpt lat="28.4135980" lon="-16.4323220">
        <ele>1207.9</ele>
        <time>2020-11-11T12:03:44Z</time>
      </trkpt>
      <trkpt lat="28.4135700" lon="-16.4323230">
        <ele>1207.9</ele>
        <time>2020-11-11T12:03:45Z</time>
      </trkpt>
      <trkpt lat="28.4135700" lon="-16.4323230">
        <ele>1208.9</ele>
        <time>2020-11-11T12:03:46Z</time>
      </trkpt>
      <trkpt lat="28.4135600" lon="-16.4323300">
        <ele>1208.9</ele>
        <time>2020-11-11T12:03:47Z</time>
      </trkpt>
      <trkpt lat="28.4135550" lon="-16.4323380">
        <ele>1208.9</ele>
        <time>2020-11-11T12:03:48Z</time>
      </trkpt>
      <trkpt lat="28.4135550" lon="-16.4323500">
        <ele>1208.9</ele>
        <time>2020-11-11T12:03:49Z</time>
      </trkpt>
      <trkpt lat="28.4135550" lon="-16.4323500">
        <ele>1209.9</ele>
        <time>2020-11-11T12:03:50Z</time>
      </trkpt>
      <trkpt lat="28.4135470" lon="-16.4323650">
        <ele>1209.9</ele>
        <time>2020-11-11T12:03:51Z</time>
      </trkpt>
      <trkpt lat="28.4135470" lon="-16.4323650">
        <ele>1209.9</ele>
        <time>2020-11-11T12:03:52Z</time>
      </trkpt>
      <trkpt lat="28.4135320" lon="-16.4323930">
        <ele>1209.9</ele>
        <time>2020-11-11T12:03:53Z</time>
      </trkpt>
      <trkpt lat="28.4135300" lon="-16.4324050">
        <ele>1210.9</ele>
        <time>2020-11-11T12:03:54Z</time>
      </trkpt>
      <trkpt lat="28.4135300" lon="-16.4324050">
        <ele>1210.9</ele>
        <time>2020-11-11T12:03:55Z</time>
      </trkpt>
      <trkpt lat="28.4135080" lon="-16.4324300">
        <ele>1210.9</ele>
        <time>2020-11-11T12:03:56Z</time>
      </trkpt>
      <trkpt lat="28.4135000" lon="-16.4324530">
        <ele>1210.9</ele>
        <time>2020-11-11T12:03:57Z</time>
      </trkpt>
      <trkpt lat="28.4135000" lon="-16.4324530">
        <ele>1210.9</ele>
        <time>2020-11-11T12:03:58Z</time>
      </trkpt>
      <trkpt lat="28.4134730" lon="-16.4324780">
        <ele>1210.9</ele>
        <time>2020-11-11T12:03:59Z</time>
      </trkpt>
      <trkpt lat="28.4134730" lon="-16.4324780">
        <ele>1210.9</ele>
        <time>2020-11-11T12:04:00Z</time>
      </trkpt>
      <trkpt lat="28.4134270" lon="-16.4325200">
        <ele>1210.9</ele>
        <time>2020-11-11T12:04:01Z</time>
      </trkpt>
      <trkpt lat="28.4134270" lon="-16.4325200">
        <ele>1211.9</ele>
        <time>2020-11-11T12:04:02Z</time>
      </trkpt>
      <trkpt lat="28.4133880" lon="-16.4325550">
        <ele>1211.9</ele>
        <time>2020-11-11T12:04:03Z</time>
      </trkpt>
      <trkpt lat="28.4133880" lon="-16.4325550">
        <ele>1211.9</ele>
        <time>2020-11-11T12:04:04Z</time>
      </trkpt>
      <trkpt lat="28.4133500" lon="-16.4326000">
        <ele>1211.9</ele>
        <time>2020-11-11T12:04:05Z</time>
      </trkpt>
      <trkpt lat="28.4133500" lon="-16.4326000">
        <ele>1211.9</ele>
        <time>2020-11-11T12:04:06Z</time>
      </trkpt>
      <trkpt lat="28.4133200" lon="-16.4326350">
        <ele>1211.9</ele>
        <time>2020-11-11T12:04:07Z</time>
      </trkpt>
      <trkpt lat="28.4133200" lon="-16.4326350">
        <ele>1211.9</ele>
        <time>2020-11-11T12:04:08Z</time>
      </trkpt>
      <trkpt lat="28.4132900" lon="-16.4326700">
        <ele>1211.9</ele>
        <time>2020-11-11T12:04:09Z</time>
      </trkpt>
      <trkpt lat="28.4132900" lon="-16.4326700">
        <ele>1212.9</ele>
        <time>2020-11-11T12:04:10Z</time>
      </trkpt>
      <trkpt lat="28.4132570" lon="-16.4327300">
        <ele>1212.9</ele>
        <time>2020-11-11T12:04:11Z</time>
      </trkpt>
      <trkpt lat="28.4132570" lon="-16.4327300">
        <ele>1212.9</ele>
        <time>2020-11-11T12:04:12Z</time>
      </trkpt>
      <trkpt lat="28.4132300" lon="-16.4327420">
        <ele>1212.9</ele>
        <time>2020-11-11T12:04:13Z</time>
      </trkpt>
      <trkpt lat="28.4132300" lon="-16.4327420">
        <ele>1213.9</ele>
        <time>2020-11-11T12:04:14Z</time>
      </trkpt>
      <trkpt lat="28.4132000" lon="-16.4327520">
        <ele>1213.9</ele>
        <time>2020-11-11T12:04:15Z</time>
      </trkpt>
      <trkpt lat="28.4132000" lon="-16.4327520">
        <ele>1213.9</ele>
        <time>2020-11-11T12:04:16Z</time>
      </trkpt>
      <trkpt lat="28.4131720" lon="-16.4327580">
        <ele>1213.9</ele>
        <time>2020-11-11T12:04:17Z</time>
      </trkpt>
      <trkpt lat="28.4131720" lon="-16.4327580">
        <ele>1213.9</ele>
        <time>2020-11-11T12:04:18Z</time>
      </trkpt>
      <trkpt lat="28.4131550" lon="-16.4327670">
        <ele>1213.9</ele>
        <time>2020-11-11T12:04:19Z</time>
      </trkpt>
      <trkpt lat="28.4131550" lon="-16.4327670">
        <ele>1213.9</ele>
        <time>2020-11-11T12:04:20Z</time>
      </trkpt>
      <trkpt lat="28.4131380" lon="-16.4327700">
        <ele>1214.9</ele>
        <time>2020-11-11T12:04:21Z</time>
      </trkpt>
      <trkpt lat="28.4131380" lon="-16.4327700">
        <ele>1214.9</ele>
        <time>2020-11-11T12:04:22Z</time>
      </trkpt>
      <trkpt lat="28.4131180" lon="-16.4327720">
        <ele>1214.9</ele>
        <time>2020-11-11T12:04:23Z</time>
      </trkpt>
      <trkpt lat="28.4131180" lon="-16.4327720">
        <ele>1214.9</ele>
        <time>2020-11-11T12:04:24Z</time>
      </trkpt>
      <trkpt lat="28.4130950" lon="-16.4327830">
        <ele>1214.9</ele>
        <time>2020-11-11T12:04:25Z</time>
      </trkpt>
      <trkpt lat="28.4130950" lon="-16.4327830">
        <ele>1215.9</ele>
        <time>2020-11-11T12:04:26Z</time>
      </trkpt>
      <trkpt lat="28.4130830" lon="-16.4327880">
        <ele>1215.9</ele>
        <time>2020-11-11T12:04:27Z</time>
      </trkpt>
      <trkpt lat="28.4130770" lon="-16.4327920">
        <ele>1216.9</ele>
        <time>2020-11-11T12:04:28Z</time>
      </trkpt>
      <trkpt lat="28.4130770" lon="-16.4327920">
        <ele>1216.9</ele>
        <time>2020-11-11T12:04:29Z</time>
      </trkpt>
      <trkpt lat="28.4130600" lon="-16.4327930">
        <ele>1216.9</ele>
        <time>2020-11-11T12:04:30Z</time>
      </trkpt>
      <trkpt lat="28.4130520" lon="-16.4327970">
        <ele>1216.9</ele>
        <time>2020-11-11T12:04:31Z</time>
      </trkpt>
      <trkpt lat="28.4130520" lon="-16.4327970">
        <ele>1216.9</ele>
        <time>2020-11-11T12:04:32Z</time>
      </trkpt>
      <trkpt lat="28.4130420" lon="-16.4327970">
        <ele>1216.9</ele>
        <time>2020-11-11T12:04:33Z</time>
      </trkpt>
      <trkpt lat="28.4130230" lon="-16.4327950">
        <ele>1216.9</ele>
        <time>2020-11-11T12:04:34Z</time>
      </trkpt>
      <trkpt lat="28.4130230" lon="-16.4327950">
        <ele>1216.9</ele>
        <time>2020-11-11T12:04:35Z</time>
      </trkpt>
      <trkpt lat="28.4129970" lon="-16.4328050">
        <ele>1217.9</ele>
        <time>2020-11-11T12:04:36Z</time>
      </trkpt>
      <trkpt lat="28.4129830" lon="-16.4328100">
        <ele>1217.9</ele>
        <time>2020-11-11T12:04:37Z</time>
      </trkpt>
      <trkpt lat="28.4129830" lon="-16.4328100">
        <ele>1217.9</ele>
        <time>2020-11-11T12:04:38Z</time>
      </trkpt>
      <trkpt lat="28.4129630" lon="-16.4328070">
        <ele>1217.9</ele>
        <time>2020-11-11T12:04:39Z</time>
      </trkpt>
      <trkpt lat="28.4129630" lon="-16.4328070">
        <ele>1217.9</ele>
        <time>2020-11-11T12:04:40Z</time>
      </trkpt>
      <trkpt lat="28.4129250" lon="-16.4328030">
        <ele>1217.9</ele>
        <time>2020-11-11T12:04:41Z</time>
      </trkpt>
      <trkpt lat="28.4129250" lon="-16.4328030">
        <ele>1217.9</ele>
        <time>2020-11-11T12:04:42Z</time>
      </trkpt>
      <trkpt lat="28.4128870" lon="-16.4328120">
        <ele>1217.9</ele>
        <time>2020-11-11T12:04:43Z</time>
      </trkpt>
      <trkpt lat="28.4128870" lon="-16.4328120">
        <ele>1217.9</ele>
        <time>2020-11-11T12:04:44Z</time>
      </trkpt>
      <trkpt lat="28.4128520" lon="-16.4327920">
        <ele>1218.9</ele>
        <time>2020-11-11T12:04:45Z</time>
      </trkpt>
      <trkpt lat="28.4128320" lon="-16.4327950">
        <ele>1218.9</ele>
        <time>2020-11-11T12:04:46Z</time>
      </trkpt>
      <trkpt lat="28.4128320" lon="-16.4327950">
        <ele>1218.9</ele>
        <time>2020-11-11T12:04:47Z</time>
      </trkpt>
      <trkpt lat="28.4127880" lon="-16.4327980">
        <ele>1218.9</ele>
        <time>2020-11-11T12:04:48Z</time>
      </trkpt>
      <trkpt lat="28.4127520" lon="-16.4327930">
        <ele>1218.9</ele>
        <time>2020-11-11T12:04:49Z</time>
      </trkpt>
      <trkpt lat="28.4127520" lon="-16.4327930">
        <ele>1218.9</ele>
        <time>2020-11-11T12:04:50Z</time>
      </trkpt>
      <trkpt lat="28.4127030" lon="-16.4327970">
        <ele>1219.9</ele>
        <time>2020-11-11T12:04:51Z</time>
      </trkpt>
      <trkpt lat="28.4127030" lon="-16.4327970">
        <ele>1219.9</ele>
        <time>2020-11-11T12:04:52Z</time>
      </trkpt>
      <trkpt lat="28.4126630" lon="-16.4328050">
        <ele>1219.9</ele>
        <time>2020-11-11T12:04:53Z</time>
      </trkpt>
      <trkpt lat="28.4126630" lon="-16.4328050">
        <ele>1219.9</ele>
        <time>2020-11-11T12:04:54Z</time>
      </trkpt>
      <trkpt lat="28.4126270" lon="-16.4327970">
        <ele>1219.9</ele>
        <time>2020-11-11T12:04:55Z</time>
      </trkpt>
      <trkpt lat="28.4126270" lon="-16.4327970">
        <ele>1219.9</ele>
        <time>2020-11-11T12:04:56Z</time>
      </trkpt>
      <trkpt lat="28.4125680" lon="-16.4327920">
        <ele>1220.9</ele>
        <time>2020-11-11T12:04:57Z</time>
      </trkpt>
      <trkpt lat="28.4125680" lon="-16.4327920">
        <ele>1220.9</ele>
        <time>2020-11-11T12:04:58Z</time>
      </trkpt>
      <trkpt lat="28.4125550" lon="-16.4327920">
        <ele>1220.9</ele>
        <time>2020-11-11T12:04:59Z</time>
      </trkpt>
      <trkpt lat="28.4125500" lon="-16.4328100">
        <ele>1220.9</ele>
        <time>2020-11-11T12:05:00Z</time>
      </trkpt>
      <trkpt lat="28.4125500" lon="-16.4328100">
        <ele>1220.9</ele>
        <time>2020-11-11T12:05:01Z</time>
      </trkpt>
      <trkpt lat="28.4125220" lon="-16.4328780">
        <ele>1220.9</ele>
        <time>2020-11-11T12:05:02Z</time>
      </trkpt>
      <trkpt lat="28.4125220" lon="-16.4328780">
        <ele>1221.9</ele>
        <time>2020-11-11T12:05:03Z</time>
      </trkpt>
      <trkpt lat="28.4124870" lon="-16.4329550">
        <ele>1221.9</ele>
        <time>2020-11-11T12:05:04Z</time>
      </trkpt>
      <trkpt lat="28.4124870" lon="-16.4329550">
        <ele>1221.9</ele>
        <time>2020-11-11T12:05:05Z</time>
      </trkpt>
      <trkpt lat="28.4124450" lon="-16.4330150">
        <ele>1221.9</ele>
        <time>2020-11-11T12:05:06Z</time>
      </trkpt>
      <trkpt lat="28.4124300" lon="-16.4330370">
        <ele>1222.9</ele>
        <time>2020-11-11T12:05:07Z</time>
      </trkpt>
      <trkpt lat="28.4124300" lon="-16.4330370">
        <ele>1222.9</ele>
        <time>2020-11-11T12:05:08Z</time>
      </trkpt>
      <trkpt lat="28.4124050" lon="-16.4330620">
        <ele>1222.9</ele>
        <time>2020-11-11T12:05:09Z</time>
      </trkpt>
      <trkpt lat="28.4124050" lon="-16.4330620">
        <ele>1222.9</ele>
        <time>2020-11-11T12:05:10Z</time>
      </trkpt>
      <trkpt lat="28.4123930" lon="-16.4330980">
        <ele>1223.9</ele>
        <time>2020-11-11T12:05:11Z</time>
      </trkpt>
      <trkpt lat="28.4123880" lon="-16.4331170">
        <ele>1223.9</ele>
        <time>2020-11-11T12:05:12Z</time>
      </trkpt>
      <trkpt lat="28.4123880" lon="-16.4331300">
        <ele>1223.9</ele>
        <time>2020-11-11T12:05:13Z</time>
      </trkpt>
      <trkpt lat="28.4123880" lon="-16.4331300">
        <ele>1223.9</ele>
        <time>2020-11-11T12:05:14Z</time>
      </trkpt>
      <trkpt lat="28.4123750" lon="-16.4331720">
        <ele>1224.9</ele>
        <time>2020-11-11T12:05:15Z</time>
      </trkpt>
      <trkpt lat="28.4123750" lon="-16.4331720">
        <ele>1224.9</ele>
        <time>2020-11-11T12:05:16Z</time>
      </trkpt>
      <trkpt lat="28.4123700" lon="-16.4332050">
        <ele>1224.9</ele>
        <time>2020-11-11T12:05:17Z</time>
      </trkpt>
      <trkpt lat="28.4123650" lon="-16.4332200">
        <ele>1224.9</ele>
        <time>2020-11-11T12:05:18Z</time>
      </trkpt>
      <trkpt lat="28.4123550" lon="-16.4332420">
        <ele>1224.9</ele>
        <time>2020-11-11T12:05:19Z</time>
      </trkpt>
      <trkpt lat="28.4123550" lon="-16.4332420">
        <ele>1224.9</ele>
        <time>2020-11-11T12:05:20Z</time>
      </trkpt>
      <trkpt lat="28.4123480" lon="-16.4332850">
        <ele>1224.9</ele>
        <time>2020-11-11T12:05:21Z</time>
      </trkpt>
      <trkpt lat="28.4123480" lon="-16.4332850">
        <ele>1225.9</ele>
        <time>2020-11-11T12:05:22Z</time>
      </trkpt>
      <trkpt lat="28.4123400" lon="-16.4333430">
        <ele>1225.9</ele>
        <time>2020-11-11T12:05:23Z</time>
      </trkpt>
      <trkpt lat="28.4123400" lon="-16.4333430">
        <ele>1225.9</ele>
        <time>2020-11-11T12:05:24Z</time>
      </trkpt>
      <trkpt lat="28.4123320" lon="-16.4333870">
        <ele>1225.9</ele>
        <time>2020-11-11T12:05:25Z</time>
      </trkpt>
      <trkpt lat="28.4123320" lon="-16.4333870">
        <ele>1225.9</ele>
        <time>2020-11-11T12:05:26Z</time>
      </trkpt>
      <trkpt lat="28.4123330" lon="-16.4334250">
        <ele>1225.9</ele>
        <time>2020-11-11T12:05:27Z</time>
      </trkpt>
      <trkpt lat="28.4123330" lon="-16.4334250">
        <ele>1225.9</ele>
        <time>2020-11-11T12:05:28Z</time>
      </trkpt>
      <trkpt lat="28.4123180" lon="-16.4334670">
        <ele>1225.9</ele>
        <time>2020-11-11T12:05:29Z</time>
      </trkpt>
      <trkpt lat="28.4123130" lon="-16.4334870">
        <ele>1225.9</ele>
        <time>2020-11-11T12:05:30Z</time>
      </trkpt>
      <trkpt lat="28.4123130" lon="-16.4334870">
        <ele>1225.9</ele>
        <time>2020-11-11T12:05:31Z</time>
      </trkpt>
      <trkpt lat="28.4123000" lon="-16.4335570">
        <ele>1226.9</ele>
        <time>2020-11-11T12:05:32Z</time>
      </trkpt>
      <trkpt lat="28.4123000" lon="-16.4335570">
        <ele>1226.9</ele>
        <time>2020-11-11T12:05:33Z</time>
      </trkpt>
      <trkpt lat="28.4122980" lon="-16.4336020">
        <ele>1226.9</ele>
        <time>2020-11-11T12:05:34Z</time>
      </trkpt>
      <trkpt lat="28.4122980" lon="-16.4336020">
        <ele>1226.9</ele>
        <time>2020-11-11T12:05:35Z</time>
      </trkpt>
      <trkpt lat="28.4122880" lon="-16.4336250">
        <ele>1226.9</ele>
        <time>2020-11-11T12:05:36Z</time>
      </trkpt>
      <trkpt lat="28.4122830" lon="-16.4336400">
        <ele>1226.9</ele>
        <time>2020-11-11T12:05:37Z</time>
      </trkpt>
      <trkpt lat="28.4122830" lon="-16.4336400">
        <ele>1228.9</ele>
        <time>2020-11-11T12:05:38Z</time>
      </trkpt>
      <trkpt lat="28.4122650" lon="-16.4336630">
        <ele>1228.9</ele>
        <time>2020-11-11T12:05:39Z</time>
      </trkpt>
      <trkpt lat="28.4122530" lon="-16.4336770">
        <ele>1228.9</ele>
        <time>2020-11-11T12:05:40Z</time>
      </trkpt>
      <trkpt lat="28.4122530" lon="-16.4336770">
        <ele>1228.9</ele>
        <time>2020-11-11T12:05:41Z</time>
      </trkpt>
      <trkpt lat="28.4122170" lon="-16.4337150">
        <ele>1228.9</ele>
        <time>2020-11-11T12:05:42Z</time>
      </trkpt>
      <trkpt lat="28.4122030" lon="-16.4337280">
        <ele>1228.9</ele>
        <time>2020-11-11T12:05:43Z</time>
      </trkpt>
      <trkpt lat="28.4122030" lon="-16.4337280">
        <ele>1228.9</ele>
        <time>2020-11-11T12:05:44Z</time>
      </trkpt>
      <trkpt lat="28.4121800" lon="-16.4337500">
        <ele>1228.9</ele>
        <time>2020-11-11T12:05:45Z</time>
      </trkpt>
      <trkpt lat="28.4121800" lon="-16.4337500">
        <ele>1228.9</ele>
        <time>2020-11-11T12:05:46Z</time>
      </trkpt>
      <trkpt lat="28.4121680" lon="-16.4337720">
        <ele>1228.9</ele>
        <time>2020-11-11T12:05:47Z</time>
      </trkpt>
      <trkpt lat="28.4121680" lon="-16.4337720">
        <ele>1229.9</ele>
        <time>2020-11-11T12:05:48Z</time>
      </trkpt>
      <trkpt lat="28.4121530" lon="-16.4337880">
        <ele>1229.9</ele>
        <time>2020-11-11T12:05:49Z</time>
      </trkpt>
      <trkpt lat="28.4121380" lon="-16.4337980">
        <ele>1229.9</ele>
        <time>2020-11-11T12:05:50Z</time>
      </trkpt>
      <trkpt lat="28.4121380" lon="-16.4337980">
        <ele>1229.9</ele>
        <time>2020-11-11T12:05:51Z</time>
      </trkpt>
      <trkpt lat="28.4121170" lon="-16.4338200">
        <ele>1230.9</ele>
        <time>2020-11-11T12:05:52Z</time>
      </trkpt>
      <trkpt lat="28.4120920" lon="-16.4338280">
        <ele>1230.9</ele>
        <time>2020-11-11T12:05:53Z</time>
      </trkpt>
      <trkpt lat="28.4120920" lon="-16.4338280">
        <ele>1230.9</ele>
        <time>2020-11-11T12:05:54Z</time>
      </trkpt>
      <trkpt lat="28.4120650" lon="-16.4338450">
        <ele>1230.9</ele>
        <time>2020-11-11T12:05:55Z</time>
      </trkpt>
      <trkpt lat="28.4120650" lon="-16.4338450">
        <ele>1230.9</ele>
        <time>2020-11-11T12:05:56Z</time>
      </trkpt>
      <trkpt lat="28.4120450" lon="-16.4338580">
        <ele>1230.9</ele>
        <time>2020-11-11T12:05:57Z</time>
      </trkpt>
      <trkpt lat="28.4120450" lon="-16.4338580">
        <ele>1231.9</ele>
        <time>2020-11-11T12:05:58Z</time>
      </trkpt>
      <trkpt lat="28.4120120" lon="-16.4338770">
        <ele>1231.9</ele>
        <time>2020-11-11T12:05:59Z</time>
      </trkpt>
      <trkpt lat="28.4120120" lon="-16.4338770">
        <ele>1231.9</ele>
        <time>2020-11-11T12:06:00Z</time>
      </trkpt>
      <trkpt lat="28.4119800" lon="-16.4338970">
        <ele>1231.9</ele>
        <time>2020-11-11T12:06:01Z</time>
      </trkpt>
      <trkpt lat="28.4119800" lon="-16.4338970">
        <ele>1231.9</ele>
        <time>2020-11-11T12:06:02Z</time>
      </trkpt>
      <trkpt lat="28.4119420" lon="-16.4339020">
        <ele>1231.9</ele>
        <time>2020-11-11T12:06:03Z</time>
      </trkpt>
      <trkpt lat="28.4119420" lon="-16.4339020">
        <ele>1232.9</ele>
        <time>2020-11-11T12:06:04Z</time>
      </trkpt>
      <trkpt lat="28.4119080" lon="-16.4339050">
        <ele>1232.9</ele>
        <time>2020-11-11T12:06:05Z</time>
      </trkpt>
      <trkpt lat="28.4119080" lon="-16.4339050">
        <ele>1232.9</ele>
        <time>2020-11-11T12:06:06Z</time>
      </trkpt>
      <trkpt lat="28.4118780" lon="-16.4339030">
        <ele>1232.9</ele>
        <time>2020-11-11T12:06:07Z</time>
      </trkpt>
      <trkpt lat="28.4118780" lon="-16.4339030">
        <ele>1232.9</ele>
        <time>2020-11-11T12:06:08Z</time>
      </trkpt>
      <trkpt lat="28.4118480" lon="-16.4339120">
        <ele>1232.9</ele>
        <time>2020-11-11T12:06:09Z</time>
      </trkpt>
      <trkpt lat="28.4118480" lon="-16.4339120">
        <ele>1232.9</ele>
        <time>2020-11-11T12:06:10Z</time>
      </trkpt>
      <trkpt lat="28.4118150" lon="-16.4339200">
        <ele>1234.9</ele>
        <time>2020-11-11T12:06:11Z</time>
      </trkpt>
      <trkpt lat="28.4118150" lon="-16.4339200">
        <ele>1234.9</ele>
        <time>2020-11-11T12:06:12Z</time>
      </trkpt>
      <trkpt lat="28.4117830" lon="-16.4339320">
        <ele>1234.9</ele>
        <time>2020-11-11T12:06:13Z</time>
      </trkpt>
      <trkpt lat="28.4117830" lon="-16.4339320">
        <ele>1234.9</ele>
        <time>2020-11-11T12:06:14Z</time>
      </trkpt>
      <trkpt lat="28.4117470" lon="-16.4339250">
        <ele>1235.9</ele>
        <time>2020-11-11T12:06:15Z</time>
      </trkpt>
      <trkpt lat="28.4117470" lon="-16.4339250">
        <ele>1235.9</ele>
        <time>2020-11-11T12:06:16Z</time>
      </trkpt>
      <trkpt lat="28.4117020" lon="-16.4339030">
        <ele>1235.9</ele>
        <time>2020-11-11T12:06:17Z</time>
      </trkpt>
      <trkpt lat="28.4117020" lon="-16.4339030">
        <ele>1235.9</ele>
        <time>2020-11-11T12:06:18Z</time>
      </trkpt>
      <trkpt lat="28.4116570" lon="-16.4339000">
        <ele>1236.9</ele>
        <time>2020-11-11T12:06:19Z</time>
      </trkpt>
      <trkpt lat="28.4116570" lon="-16.4339000">
        <ele>1236.9</ele>
        <time>2020-11-11T12:06:20Z</time>
      </trkpt>
      <trkpt lat="28.4116220" lon="-16.4338920">
        <ele>1236.9</ele>
        <time>2020-11-11T12:06:21Z</time>
      </trkpt>
      <trkpt lat="28.4115980" lon="-16.4339030">
        <ele>1236.9</ele>
        <time>2020-11-11T12:06:22Z</time>
      </trkpt>
      <trkpt lat="28.4115980" lon="-16.4339030">
        <ele>1236.9</ele>
        <time>2020-11-11T12:06:23Z</time>
      </trkpt>
      <trkpt lat="28.4115620" lon="-16.4338770">
        <ele>1236.9</ele>
        <time>2020-11-11T12:06:24Z</time>
      </trkpt>
      <trkpt lat="28.4115620" lon="-16.4338770">
        <ele>1237.9</ele>
        <time>2020-11-11T12:06:25Z</time>
      </trkpt>
      <trkpt lat="28.4115170" lon="-16.4338750">
        <ele>1237.9</ele>
        <time>2020-11-11T12:06:26Z</time>
      </trkpt>
      <trkpt lat="28.4114950" lon="-16.4338670">
        <ele>1237.9</ele>
        <time>2020-11-11T12:06:27Z</time>
      </trkpt>
      <trkpt lat="28.4114950" lon="-16.4338670">
        <ele>1237.9</ele>
        <time>2020-11-11T12:06:28Z</time>
      </trkpt>
      <trkpt lat="28.4114670" lon="-16.4338480">
        <ele>1237.9</ele>
        <time>2020-11-11T12:06:29Z</time>
      </trkpt>
      <trkpt lat="28.4114670" lon="-16.4338480">
        <ele>1237.9</ele>
        <time>2020-11-11T12:06:30Z</time>
      </trkpt>
      <trkpt lat="28.4114100" lon="-16.4338220">
        <ele>1237.9</ele>
        <time>2020-11-11T12:06:31Z</time>
      </trkpt>
      <trkpt lat="28.4114100" lon="-16.4338220">
        <ele>1237.9</ele>
        <time>2020-11-11T12:06:32Z</time>
      </trkpt>
      <trkpt lat="28.4113620" lon="-16.4338130">
        <ele>1238.9</ele>
        <time>2020-11-11T12:06:33Z</time>
      </trkpt>
      <trkpt lat="28.4113370" lon="-16.4338050">
        <ele>1238.9</ele>
        <time>2020-11-11T12:06:34Z</time>
      </trkpt>
      <trkpt lat="28.4113370" lon="-16.4338050">
        <ele>1238.9</ele>
        <time>2020-11-11T12:06:35Z</time>
      </trkpt>
      <trkpt lat="28.4112900" lon="-16.4338330">
        <ele>1238.9</ele>
        <time>2020-11-11T12:06:36Z</time>
      </trkpt>
      <trkpt lat="28.4112900" lon="-16.4338330">
        <ele>1239.9</ele>
        <time>2020-11-11T12:06:37Z</time>
      </trkpt>
      <trkpt lat="28.4112420" lon="-16.4338300">
        <ele>1239.9</ele>
        <time>2020-11-11T12:06:38Z</time>
      </trkpt>
      <trkpt lat="28.4112420" lon="-16.4338300">
        <ele>1239.9</ele>
        <time>2020-11-11T12:06:39Z</time>
      </trkpt>
      <trkpt lat="28.4112150" lon="-16.4338370">
        <ele>1239.9</ele>
        <time>2020-11-11T12:06:40Z</time>
      </trkpt>
      <trkpt lat="28.4112150" lon="-16.4338370">
        <ele>1239.9</ele>
        <time>2020-11-11T12:06:41Z</time>
      </trkpt>
      <trkpt lat="28.4111950" lon="-16.4338430">
        <ele>1240.9</ele>
        <time>2020-11-11T12:06:42Z</time>
      </trkpt>
      <trkpt lat="28.4111820" lon="-16.4338520">
        <ele>1240.9</ele>
        <time>2020-11-11T12:06:43Z</time>
      </trkpt>
      <trkpt lat="28.4111820" lon="-16.4338520">
        <ele>1240.9</ele>
        <time>2020-11-11T12:06:44Z</time>
      </trkpt>
      <trkpt lat="28.4111550" lon="-16.4338570">
        <ele>1240.9</ele>
        <time>2020-11-11T12:06:45Z</time>
      </trkpt>
      <trkpt lat="28.4111550" lon="-16.4338570">
        <ele>1241.9</ele>
        <time>2020-11-11T12:06:46Z</time>
      </trkpt>
      <trkpt lat="28.4111180" lon="-16.4338630">
        <ele>1241.9</ele>
        <time>2020-11-11T12:06:47Z</time>
      </trkpt>
      <trkpt lat="28.4111030" lon="-16.4338630">
        <ele>1241.9</ele>
        <time>2020-11-11T12:06:48Z</time>
      </trkpt>
      <trkpt lat="28.4110830" lon="-16.4338680">
        <ele>1241.9</ele>
        <time>2020-11-11T12:06:49Z</time>
      </trkpt>
      <trkpt lat="28.4110830" lon="-16.4338680">
        <ele>1241.9</ele>
        <time>2020-11-11T12:06:50Z</time>
      </trkpt>
      <trkpt lat="28.4110480" lon="-16.4338800">
        <ele>1241.9</ele>
        <time>2020-11-11T12:06:51Z</time>
      </trkpt>
      <trkpt lat="28.4110480" lon="-16.4338800">
        <ele>1242.9</ele>
        <time>2020-11-11T12:06:52Z</time>
      </trkpt>
      <trkpt lat="28.4110080" lon="-16.4338800">
        <ele>1242.9</ele>
        <time>2020-11-11T12:06:53Z</time>
      </trkpt>
      <trkpt lat="28.4109900" lon="-16.4338850">
        <ele>1242.9</ele>
        <time>2020-11-11T12:06:54Z</time>
      </trkpt>
      <trkpt lat="28.4109630" lon="-16.4338950">
        <ele>1242.9</ele>
        <time>2020-11-11T12:06:55Z</time>
      </trkpt>
      <trkpt lat="28.4109630" lon="-16.4338950">
        <ele>1242.9</ele>
        <time>2020-11-11T12:06:56Z</time>
      </trkpt>
      <trkpt lat="28.4109220" lon="-16.4339130">
        <ele>1242.9</ele>
        <time>2020-11-11T12:06:57Z</time>
      </trkpt>
      <trkpt lat="28.4109070" lon="-16.4339180">
        <ele>1242.9</ele>
        <time>2020-11-11T12:06:58Z</time>
      </trkpt>
      <trkpt lat="28.4108920" lon="-16.4339320">
        <ele>1242.9</ele>
        <time>2020-11-11T12:06:59Z</time>
      </trkpt>
      <trkpt lat="28.4108920" lon="-16.4339320">
        <ele>1242.9</ele>
        <time>2020-11-11T12:07:00Z</time>
      </trkpt>
      <trkpt lat="28.4108480" lon="-16.4339470">
        <ele>1242.9</ele>
        <time>2020-11-11T12:07:01Z</time>
      </trkpt>
      <trkpt lat="28.4108480" lon="-16.4339470">
        <ele>1242.9</ele>
        <time>2020-11-11T12:07:02Z</time>
      </trkpt>
      <trkpt lat="28.4108200" lon="-16.4339650">
        <ele>1243.9</ele>
        <time>2020-11-11T12:07:03Z</time>
      </trkpt>
      <trkpt lat="28.4108200" lon="-16.4339650">
        <ele>1243.9</ele>
        <time>2020-11-11T12:07:04Z</time>
      </trkpt>
      <trkpt lat="28.4107920" lon="-16.4339700">
        <ele>1243.9</ele>
        <time>2020-11-11T12:07:05Z</time>
      </trkpt>
      <trkpt lat="28.4107920" lon="-16.4339700">
        <ele>1243.9</ele>
        <time>2020-11-11T12:07:06Z</time>
      </trkpt>
      <trkpt lat="28.4107620" lon="-16.4339970">
        <ele>1243.9</ele>
        <time>2020-11-11T12:07:07Z</time>
      </trkpt>
      <trkpt lat="28.4107430" lon="-16.4340170">
        <ele>1243.9</ele>
        <time>2020-11-11T12:07:08Z</time>
      </trkpt>
      <trkpt lat="28.4107430" lon="-16.4340170">
        <ele>1244.9</ele>
        <time>2020-11-11T12:07:09Z</time>
      </trkpt>
      <trkpt lat="28.4107020" lon="-16.4340570">
        <ele>1244.9</ele>
        <time>2020-11-11T12:07:10Z</time>
      </trkpt>
      <trkpt lat="28.4107020" lon="-16.4340570">
        <ele>1244.9</ele>
        <time>2020-11-11T12:07:11Z</time>
      </trkpt>
      <trkpt lat="28.4106680" lon="-16.4340770">
        <ele>1244.9</ele>
        <time>2020-11-11T12:07:12Z</time>
      </trkpt>
      <trkpt lat="28.4106530" lon="-16.4340800">
        <ele>1245.9</ele>
        <time>2020-11-11T12:07:13Z</time>
      </trkpt>
      <trkpt lat="28.4106400" lon="-16.4340770">
        <ele>1245.9</ele>
        <time>2020-11-11T12:07:14Z</time>
      </trkpt>
      <trkpt lat="28.4106400" lon="-16.4340770">
        <ele>1245.9</ele>
        <time>2020-11-11T12:07:15Z</time>
      </trkpt>
      <trkpt lat="28.4106130" lon="-16.4340780">
        <ele>1245.9</ele>
        <time>2020-11-11T12:07:16Z</time>
      </trkpt>
      <trkpt lat="28.4105980" lon="-16.4340820">
        <ele>1246.9</ele>
        <time>2020-11-11T12:07:17Z</time>
      </trkpt>
      <trkpt lat="28.4105980" lon="-16.4340820">
        <ele>1246.9</ele>
        <time>2020-11-11T12:07:18Z</time>
      </trkpt>
      <trkpt lat="28.4105770" lon="-16.4340870">
        <ele>1246.9</ele>
        <time>2020-11-11T12:07:19Z</time>
      </trkpt>
      <trkpt lat="28.4105770" lon="-16.4340870">
        <ele>1247.9</ele>
        <time>2020-11-11T12:07:20Z</time>
      </trkpt>
      <trkpt lat="28.4105600" lon="-16.4340900">
        <ele>1247.9</ele>
        <time>2020-11-11T12:07:21Z</time>
      </trkpt>
      <trkpt lat="28.4105600" lon="-16.4340900">
        <ele>1247.9</ele>
        <time>2020-11-11T12:07:22Z</time>
      </trkpt>
      <trkpt lat="28.4105450" lon="-16.4341170">
        <ele>1247.9</ele>
        <time>2020-11-11T12:07:23Z</time>
      </trkpt>
      <trkpt lat="28.4105220" lon="-16.4341430">
        <ele>1248.9</ele>
        <time>2020-11-11T12:07:24Z</time>
      </trkpt>
      <trkpt lat="28.4105220" lon="-16.4341430">
        <ele>1248.9</ele>
        <time>2020-11-11T12:07:25Z</time>
      </trkpt>
      <trkpt lat="28.4104930" lon="-16.4341750">
        <ele>1248.9</ele>
        <time>2020-11-11T12:07:26Z</time>
      </trkpt>
      <trkpt lat="28.4104930" lon="-16.4341750">
        <ele>1248.9</ele>
        <time>2020-11-11T12:07:27Z</time>
      </trkpt>
      <trkpt lat="28.4104580" lon="-16.4342030">
        <ele>1249.9</ele>
        <time>2020-11-11T12:07:28Z</time>
      </trkpt>
      <trkpt lat="28.4104420" lon="-16.4342150">
        <ele>1249.9</ele>
        <time>2020-11-11T12:07:29Z</time>
      </trkpt>
      <trkpt lat="28.4104280" lon="-16.4342250">
        <ele>1249.9</ele>
        <time>2020-11-11T12:07:30Z</time>
      </trkpt>
      <trkpt lat="28.4104120" lon="-16.4342300">
        <ele>1249.9</ele>
        <time>2020-11-11T12:07:31Z</time>
      </trkpt>
      <trkpt lat="28.4104120" lon="-16.4342300">
        <ele>1250.9</ele>
        <time>2020-11-11T12:07:32Z</time>
      </trkpt>
      <trkpt lat="28.4103850" lon="-16.4342550">
        <ele>1250.9</ele>
        <time>2020-11-11T12:07:33Z</time>
      </trkpt>
      <trkpt lat="28.4103850" lon="-16.4342550">
        <ele>1250.9</ele>
        <time>2020-11-11T12:07:34Z</time>
      </trkpt>
      <trkpt lat="28.4103500" lon="-16.4342750">
        <ele>1250.9</ele>
        <time>2020-11-11T12:07:35Z</time>
      </trkpt>
      <trkpt lat="28.4103500" lon="-16.4342750">
        <ele>1250.9</ele>
        <time>2020-11-11T12:07:36Z</time>
      </trkpt>
      <trkpt lat="28.4102970" lon="-16.4343050">
        <ele>1250.9</ele>
        <time>2020-11-11T12:07:37Z</time>
      </trkpt>
      <trkpt lat="28.4102750" lon="-16.4343150">
        <ele>1250.9</ele>
        <time>2020-11-11T12:07:38Z</time>
      </trkpt>
      <trkpt lat="28.4102750" lon="-16.4343150">
        <ele>1250.9</ele>
        <time>2020-11-11T12:07:39Z</time>
      </trkpt>
      <trkpt lat="28.4102370" lon="-16.4343330">
        <ele>1250.9</ele>
        <time>2020-11-11T12:07:40Z</time>
      </trkpt>
      <trkpt lat="28.4102370" lon="-16.4343330">
        <ele>1250.9</ele>
        <time>2020-11-11T12:07:41Z</time>
      </trkpt>
      <trkpt lat="28.4102080" lon="-16.4343550">
        <ele>1251.9</ele>
        <time>2020-11-11T12:07:42Z</time>
      </trkpt>
      <trkpt lat="28.4102080" lon="-16.4343550">
        <ele>1251.9</ele>
        <time>2020-11-11T12:07:43Z</time>
      </trkpt>
      <trkpt lat="28.4101750" lon="-16.4343750">
        <ele>1251.9</ele>
        <time>2020-11-11T12:07:44Z</time>
      </trkpt>
      <trkpt lat="28.4101600" lon="-16.4343820">
        <ele>1251.9</ele>
        <time>2020-11-11T12:07:45Z</time>
      </trkpt>
      <trkpt lat="28.4101600" lon="-16.4343820">
        <ele>1252.9</ele>
        <time>2020-11-11T12:07:46Z</time>
      </trkpt>
      <trkpt lat="28.4101300" lon="-16.4344000">
        <ele>1252.9</ele>
        <time>2020-11-11T12:07:47Z</time>
      </trkpt>
      <trkpt lat="28.4101300" lon="-16.4344000">
        <ele>1252.9</ele>
        <time>2020-11-11T12:07:48Z</time>
      </trkpt>
      <trkpt lat="28.4101070" lon="-16.4344200">
        <ele>1252.9</ele>
        <time>2020-11-11T12:07:49Z</time>
      </trkpt>
      <trkpt lat="28.4101070" lon="-16.4344200">
        <ele>1253.9</ele>
        <time>2020-11-11T12:07:50Z</time>
      </trkpt>
      <trkpt lat="28.4100700" lon="-16.4344380">
        <ele>1253.9</ele>
        <time>2020-11-11T12:07:51Z</time>
      </trkpt>
      <trkpt lat="28.4100700" lon="-16.4344380">
        <ele>1253.9</ele>
        <time>2020-11-11T12:07:52Z</time>
      </trkpt>
      <trkpt lat="28.4100370" lon="-16.4344600">
        <ele>1253.9</ele>
        <time>2020-11-11T12:07:53Z</time>
      </trkpt>
      <trkpt lat="28.4100370" lon="-16.4344600">
        <ele>1253.9</ele>
        <time>2020-11-11T12:07:54Z</time>
      </trkpt>
      <trkpt lat="28.4100030" lon="-16.4344820">
        <ele>1253.9</ele>
        <time>2020-11-11T12:07:55Z</time>
      </trkpt>
      <trkpt lat="28.4100030" lon="-16.4344820">
        <ele>1254.9</ele>
        <time>2020-11-11T12:07:56Z</time>
      </trkpt>
      <trkpt lat="28.4099670" lon="-16.4345100">
        <ele>1254.9</ele>
        <time>2020-11-11T12:07:57Z</time>
      </trkpt>
      <trkpt lat="28.4099550" lon="-16.4345270">
        <ele>1254.9</ele>
        <time>2020-11-11T12:07:58Z</time>
      </trkpt>
      <trkpt lat="28.4099550" lon="-16.4345270">
        <ele>1254.9</ele>
        <time>2020-11-11T12:07:59Z</time>
      </trkpt>
      <trkpt lat="28.4098980" lon="-16.4345670">
        <ele>1254.9</ele>
        <time>2020-11-11T12:08:00Z</time>
      </trkpt>
      <trkpt lat="28.4098980" lon="-16.4345670">
        <ele>1254.9</ele>
        <time>2020-11-11T12:08:01Z</time>
      </trkpt>
      <trkpt lat="28.4098350" lon="-16.4346020">
        <ele>1254.9</ele>
        <time>2020-11-11T12:08:02Z</time>
      </trkpt>
      <trkpt lat="28.4098120" lon="-16.4346400">
        <ele>1254.9</ele>
        <time>2020-11-11T12:08:03Z</time>
      </trkpt>
      <trkpt lat="28.4098120" lon="-16.4346400">
        <ele>1254.9</ele>
        <time>2020-11-11T12:08:04Z</time>
      </trkpt>
      <trkpt lat="28.4097680" lon="-16.4347070">
        <ele>1254.9</ele>
        <time>2020-11-11T12:08:05Z</time>
      </trkpt>
      <trkpt lat="28.4097680" lon="-16.4347070">
        <ele>1254.9</ele>
        <time>2020-11-11T12:08:06Z</time>
      </trkpt>
      <trkpt lat="28.4097350" lon="-16.4347780">
        <ele>1254.9</ele>
        <time>2020-11-11T12:08:07Z</time>
      </trkpt>
      <trkpt lat="28.4097350" lon="-16.4347780">
        <ele>1253.9</ele>
        <time>2020-11-11T12:08:08Z</time>
      </trkpt>
      <trkpt lat="28.4097250" lon="-16.4348380">
        <ele>1253.9</ele>
        <time>2020-11-11T12:08:09Z</time>
      </trkpt>
      <trkpt lat="28.4097250" lon="-16.4348380">
        <ele>1253.9</ele>
        <time>2020-11-11T12:08:10Z</time>
      </trkpt>
      <trkpt lat="28.4097200" lon="-16.4349250">
        <ele>1253.9</ele>
        <time>2020-11-11T12:08:11Z</time>
      </trkpt>
      <trkpt lat="28.4097200" lon="-16.4349250">
        <ele>1253.9</ele>
        <time>2020-11-11T12:08:12Z</time>
      </trkpt>
      <trkpt lat="28.4097050" lon="-16.4350370">
        <ele>1253.9</ele>
        <time>2020-11-11T12:08:13Z</time>
      </trkpt>
      <trkpt lat="28.4096950" lon="-16.4350820">
        <ele>1253.9</ele>
        <time>2020-11-11T12:08:14Z</time>
      </trkpt>
      <trkpt lat="28.4096950" lon="-16.4350820">
        <ele>1253.9</ele>
        <time>2020-11-11T12:08:15Z</time>
      </trkpt>
      <trkpt lat="28.4096650" lon="-16.4351580">
        <ele>1253.9</ele>
        <time>2020-11-11T12:08:16Z</time>
      </trkpt>
      <trkpt lat="28.4096470" lon="-16.4351830">
        <ele>1253.9</ele>
        <time>2020-11-11T12:08:17Z</time>
      </trkpt>
      <trkpt lat="28.4096470" lon="-16.4351830">
        <ele>1253.9</ele>
        <time>2020-11-11T12:08:18Z</time>
      </trkpt>
      <trkpt lat="28.4096050" lon="-16.4352020">
        <ele>1253.9</ele>
        <time>2020-11-11T12:08:19Z</time>
      </trkpt>
      <trkpt lat="28.4095950" lon="-16.4352220">
        <ele>1253.9</ele>
        <time>2020-11-11T12:08:20Z</time>
      </trkpt>
      <trkpt lat="28.4095950" lon="-16.4352220">
        <ele>1253.9</ele>
        <time>2020-11-11T12:08:21Z</time>
      </trkpt>
      <trkpt lat="28.4095700" lon="-16.4352830">
        <ele>1253.9</ele>
        <time>2020-11-11T12:08:22Z</time>
      </trkpt>
      <trkpt lat="28.4095700" lon="-16.4352830">
        <ele>1253.9</ele>
        <time>2020-11-11T12:08:23Z</time>
      </trkpt>
      <trkpt lat="28.4095780" lon="-16.4353400">
        <ele>1251.9</ele>
        <time>2020-11-11T12:08:24Z</time>
      </trkpt>
      <trkpt lat="28.4095780" lon="-16.4353400">
        <ele>1251.9</ele>
        <time>2020-11-11T12:08:25Z</time>
      </trkpt>
      <trkpt lat="28.4096000" lon="-16.4353800">
        <ele>1251.9</ele>
        <time>2020-11-11T12:08:26Z</time>
      </trkpt>
      <trkpt lat="28.4096000" lon="-16.4353800">
        <ele>1251.9</ele>
        <time>2020-11-11T12:08:27Z</time>
      </trkpt>
      <trkpt lat="28.4096420" lon="-16.4354300">
        <ele>1252.9</ele>
        <time>2020-11-11T12:08:28Z</time>
      </trkpt>
      <trkpt lat="28.4096570" lon="-16.4354400">
        <ele>1253.9</ele>
        <time>2020-11-11T12:08:29Z</time>
      </trkpt>
      <trkpt lat="28.4096750" lon="-16.4354580">
        <ele>1253.9</ele>
        <time>2020-11-11T12:08:30Z</time>
      </trkpt>
      <trkpt lat="28.4096750" lon="-16.4354580">
        <ele>1253.9</ele>
        <time>2020-11-11T12:08:31Z</time>
      </trkpt>
      <trkpt lat="28.4097030" lon="-16.4354850">
        <ele>1254.9</ele>
        <time>2020-11-11T12:08:32Z</time>
      </trkpt>
      <trkpt lat="28.4097030" lon="-16.4354850">
        <ele>1254.9</ele>
        <time>2020-11-11T12:08:33Z</time>
      </trkpt>
      <trkpt lat="28.4097400" lon="-16.4355220">
        <ele>1254.9</ele>
        <time>2020-11-11T12:08:34Z</time>
      </trkpt>
      <trkpt lat="28.4097630" lon="-16.4355430">
        <ele>1255.9</ele>
        <time>2020-11-11T12:08:35Z</time>
      </trkpt>
      <trkpt lat="28.4097630" lon="-16.4355430">
        <ele>1255.9</ele>
        <time>2020-11-11T12:08:36Z</time>
      </trkpt>
      <trkpt lat="28.4097980" lon="-16.4355920">
        <ele>1255.9</ele>
        <time>2020-11-11T12:08:37Z</time>
      </trkpt>
      <trkpt lat="28.4097980" lon="-16.4355920">
        <ele>1255.9</ele>
        <time>2020-11-11T12:08:38Z</time>
      </trkpt>
      <trkpt lat="28.4098170" lon="-16.4356500">
        <ele>1255.9</ele>
        <time>2020-11-11T12:08:39Z</time>
      </trkpt>
      <trkpt lat="28.4098170" lon="-16.4356500">
        <ele>1255.9</ele>
        <time>2020-11-11T12:08:40Z</time>
      </trkpt>
      <trkpt lat="28.4098100" lon="-16.4356880">
        <ele>1255.9</ele>
        <time>2020-11-11T12:08:41Z</time>
      </trkpt>
      <trkpt lat="28.4098100" lon="-16.4356880">
        <ele>1255.9</ele>
        <time>2020-11-11T12:08:42Z</time>
      </trkpt>
      <trkpt lat="28.4097830" lon="-16.4356930">
        <ele>1255.9</ele>
        <time>2020-11-11T12:08:43Z</time>
      </trkpt>
      <trkpt lat="28.4097830" lon="-16.4356930">
        <ele>1256.9</ele>
        <time>2020-11-11T12:08:44Z</time>
      </trkpt>
      <trkpt lat="28.4097600" lon="-16.4357030">
        <ele>1256.9</ele>
        <time>2020-11-11T12:08:45Z</time>
      </trkpt>
      <trkpt lat="28.4097600" lon="-16.4357030">
        <ele>1256.9</ele>
        <time>2020-11-11T12:08:46Z</time>
      </trkpt>
      <trkpt lat="28.4097270" lon="-16.4357300">
        <ele>1256.9</ele>
        <time>2020-11-11T12:08:47Z</time>
      </trkpt>
      <trkpt lat="28.4097270" lon="-16.4357300">
        <ele>1256.9</ele>
        <time>2020-11-11T12:08:48Z</time>
      </trkpt>
      <trkpt lat="28.4096920" lon="-16.4357650">
        <ele>1256.9</ele>
        <time>2020-11-11T12:08:49Z</time>
      </trkpt>
      <trkpt lat="28.4096920" lon="-16.4357650">
        <ele>1256.9</ele>
        <time>2020-11-11T12:08:50Z</time>
      </trkpt>
      <trkpt lat="28.4096670" lon="-16.4357870">
        <ele>1256.9</ele>
        <time>2020-11-11T12:08:51Z</time>
      </trkpt>
      <trkpt lat="28.4096670" lon="-16.4357870">
        <ele>1257.9</ele>
        <time>2020-11-11T12:08:52Z</time>
      </trkpt>
      <trkpt lat="28.4096470" lon="-16.4358150">
        <ele>1257.9</ele>
        <time>2020-11-11T12:08:53Z</time>
      </trkpt>
      <trkpt lat="28.4096470" lon="-16.4358150">
        <ele>1257.9</ele>
        <time>2020-11-11T12:08:54Z</time>
      </trkpt>
      <trkpt lat="28.4096320" lon="-16.4358350">
        <ele>1257.9</ele>
        <time>2020-11-11T12:08:55Z</time>
      </trkpt>
      <trkpt lat="28.4096320" lon="-16.4358350">
        <ele>1257.9</ele>
        <time>2020-11-11T12:08:56Z</time>
      </trkpt>
      <trkpt lat="28.4095950" lon="-16.4358520">
        <ele>1257.9</ele>
        <time>2020-11-11T12:08:57Z</time>
      </trkpt>
      <trkpt lat="28.4095950" lon="-16.4358520">
        <ele>1257.9</ele>
        <time>2020-11-11T12:08:58Z</time>
      </trkpt>
      <trkpt lat="28.4095850" lon="-16.4358750">
        <ele>1257.9</ele>
        <time>2020-11-11T12:08:59Z</time>
      </trkpt>
      <trkpt lat="28.4095800" lon="-16.4358880">
        <ele>1258.9</ele>
        <time>2020-11-11T12:09:00Z</time>
      </trkpt>
      <trkpt lat="28.4095800" lon="-16.4358880">
        <ele>1258.9</ele>
        <time>2020-11-11T12:09:01Z</time>
      </trkpt>
      <trkpt lat="28.4095700" lon="-16.4359270">
        <ele>1258.9</ele>
        <time>2020-11-11T12:09:02Z</time>
      </trkpt>
      <trkpt lat="28.4095700" lon="-16.4359270">
        <ele>1258.9</ele>
        <time>2020-11-11T12:09:03Z</time>
      </trkpt>
      <trkpt lat="28.4095430" lon="-16.4359780">
        <ele>1258.9</ele>
        <time>2020-11-11T12:09:04Z</time>
      </trkpt>
      <trkpt lat="28.4095430" lon="-16.4359780">
        <ele>1258.9</ele>
        <time>2020-11-11T12:09:05Z</time>
      </trkpt>
      <trkpt lat="28.4095130" lon="-16.4360480">
        <ele>1258.9</ele>
        <time>2020-11-11T12:09:06Z</time>
      </trkpt>
      <trkpt lat="28.4095130" lon="-16.4360480">
        <ele>1258.9</ele>
        <time>2020-11-11T12:09:07Z</time>
      </trkpt>
      <trkpt lat="28.4095030" lon="-16.4361100">
        <ele>1258.9</ele>
        <time>2020-11-11T12:09:08Z</time>
      </trkpt>
      <trkpt lat="28.4095130" lon="-16.4361420">
        <ele>1258.9</ele>
        <time>2020-11-11T12:09:09Z</time>
      </trkpt>
      <trkpt lat="28.4095130" lon="-16.4361420">
        <ele>1258.9</ele>
        <time>2020-11-11T12:09:10Z</time>
      </trkpt>
      <trkpt lat="28.4095430" lon="-16.4362330">
        <ele>1258.9</ele>
        <time>2020-11-11T12:09:11Z</time>
      </trkpt>
      <trkpt lat="28.4095430" lon="-16.4362330">
        <ele>1258.9</ele>
        <time>2020-11-11T12:09:12Z</time>
      </trkpt>
      <trkpt lat="28.4095530" lon="-16.4363080">
        <ele>1258.9</ele>
        <time>2020-11-11T12:09:13Z</time>
      </trkpt>
      <trkpt lat="28.4095530" lon="-16.4363080">
        <ele>1258.9</ele>
        <time>2020-11-11T12:09:14Z</time>
      </trkpt>
      <trkpt lat="28.4095700" lon="-16.4363680">
        <ele>1258.9</ele>
        <time>2020-11-11T12:09:15Z</time>
      </trkpt>
      <trkpt lat="28.4095750" lon="-16.4363920">
        <ele>1258.9</ele>
        <time>2020-11-11T12:09:16Z</time>
      </trkpt>
      <trkpt lat="28.4095750" lon="-16.4363920">
        <ele>1258.9</ele>
        <time>2020-11-11T12:09:17Z</time>
      </trkpt>
      <trkpt lat="28.4095880" lon="-16.4364350">
        <ele>1258.9</ele>
        <time>2020-11-11T12:09:18Z</time>
      </trkpt>
      <trkpt lat="28.4095970" lon="-16.4364730">
        <ele>1258.9</ele>
        <time>2020-11-11T12:09:19Z</time>
      </trkpt>
      <trkpt lat="28.4095970" lon="-16.4364730">
        <ele>1258.9</ele>
        <time>2020-11-11T12:09:20Z</time>
      </trkpt>
      <trkpt lat="28.4096030" lon="-16.4365320">
        <ele>1258.9</ele>
        <time>2020-11-11T12:09:21Z</time>
      </trkpt>
      <trkpt lat="28.4096030" lon="-16.4365320">
        <ele>1258.9</ele>
        <time>2020-11-11T12:09:22Z</time>
      </trkpt>
      <trkpt lat="28.4096220" lon="-16.4366220">
        <ele>1258.9</ele>
        <time>2020-11-11T12:09:23Z</time>
      </trkpt>
      <trkpt lat="28.4096220" lon="-16.4366220">
        <ele>1259.9</ele>
        <time>2020-11-11T12:09:24Z</time>
      </trkpt>
      <trkpt lat="28.4096420" lon="-16.4366920">
        <ele>1259.9</ele>
        <time>2020-11-11T12:09:25Z</time>
      </trkpt>
      <trkpt lat="28.4096420" lon="-16.4366920">
        <ele>1259.9</ele>
        <time>2020-11-11T12:09:26Z</time>
      </trkpt>
      <trkpt lat="28.4096350" lon="-16.4367870">
        <ele>1259.9</ele>
        <time>2020-11-11T12:09:27Z</time>
      </trkpt>
      <trkpt lat="28.4096350" lon="-16.4367870">
        <ele>1259.9</ele>
        <time>2020-11-11T12:09:28Z</time>
      </trkpt>
      <trkpt lat="28.4096180" lon="-16.4368720">
        <ele>1259.9</ele>
        <time>2020-11-11T12:09:29Z</time>
      </trkpt>
      <trkpt lat="28.4096180" lon="-16.4368720">
        <ele>1259.9</ele>
        <time>2020-11-11T12:09:30Z</time>
      </trkpt>
      <trkpt lat="28.4095970" lon="-16.4369600">
        <ele>1259.9</ele>
        <time>2020-11-11T12:09:31Z</time>
      </trkpt>
      <trkpt lat="28.4095830" lon="-16.4370050">
        <ele>1259.9</ele>
        <time>2020-11-11T12:09:32Z</time>
      </trkpt>
      <trkpt lat="28.4095830" lon="-16.4370050">
        <ele>1259.9</ele>
        <time>2020-11-11T12:09:33Z</time>
      </trkpt>
      <trkpt lat="28.4095630" lon="-16.4370680">
        <ele>1259.9</ele>
        <time>2020-11-11T12:09:34Z</time>
      </trkpt>
      <trkpt lat="28.4095630" lon="-16.4370680">
        <ele>1259.9</ele>
        <time>2020-11-11T12:09:35Z</time>
      </trkpt>
      <trkpt lat="28.4095430" lon="-16.4371480">
        <ele>1259.9</ele>
        <time>2020-11-11T12:09:36Z</time>
      </trkpt>
      <trkpt lat="28.4095330" lon="-16.4371750">
        <ele>1259.9</ele>
        <time>2020-11-11T12:09:37Z</time>
      </trkpt>
      <trkpt lat="28.4095330" lon="-16.4371750">
        <ele>1259.9</ele>
        <time>2020-11-11T12:09:38Z</time>
      </trkpt>
      <trkpt lat="28.4095200" lon="-16.4372520">
        <ele>1259.9</ele>
        <time>2020-11-11T12:09:39Z</time>
      </trkpt>
      <trkpt lat="28.4095200" lon="-16.4372520">
        <ele>1259.9</ele>
        <time>2020-11-11T12:09:40Z</time>
      </trkpt>
      <trkpt lat="28.4095220" lon="-16.4373720">
        <ele>1259.9</ele>
        <time>2020-11-11T12:09:41Z</time>
      </trkpt>
      <trkpt lat="28.4095220" lon="-16.4373720">
        <ele>1259.9</ele>
        <time>2020-11-11T12:09:42Z</time>
      </trkpt>
      <trkpt lat="28.4095320" lon="-16.4374700">
        <ele>1259.9</ele>
        <time>2020-11-11T12:09:43Z</time>
      </trkpt>
      <trkpt lat="28.4095320" lon="-16.4374700">
        <ele>1259.9</ele>
        <time>2020-11-11T12:09:44Z</time>
      </trkpt>
      <trkpt lat="28.4095470" lon="-16.4375570">
        <ele>1259.9</ele>
        <time>2020-11-11T12:09:45Z</time>
      </trkpt>
      <trkpt lat="28.4095470" lon="-16.4375570">
        <ele>1259.9</ele>
        <time>2020-11-11T12:09:46Z</time>
      </trkpt>
      <trkpt lat="28.4095900" lon="-16.4376320">
        <ele>1259.9</ele>
        <time>2020-11-11T12:09:47Z</time>
      </trkpt>
      <trkpt lat="28.4096030" lon="-16.4376520">
        <ele>1259.9</ele>
        <time>2020-11-11T12:09:48Z</time>
      </trkpt>
      <trkpt lat="28.4096030" lon="-16.4376520">
        <ele>1259.9</ele>
        <time>2020-11-11T12:09:49Z</time>
      </trkpt>
      <trkpt lat="28.4096430" lon="-16.4377100">
        <ele>1259.9</ele>
        <time>2020-11-11T12:09:50Z</time>
      </trkpt>
      <trkpt lat="28.4096430" lon="-16.4377100">
        <ele>1259.9</ele>
        <time>2020-11-11T12:09:51Z</time>
      </trkpt>
      <trkpt lat="28.4096970" lon="-16.4377650">
        <ele>1259.9</ele>
        <time>2020-11-11T12:09:52Z</time>
      </trkpt>
      <trkpt lat="28.4097180" lon="-16.4377970">
        <ele>1260.9</ele>
        <time>2020-11-11T12:09:53Z</time>
      </trkpt>
      <trkpt lat="28.4097180" lon="-16.4377970">
        <ele>1260.9</ele>
        <time>2020-11-11T12:09:54Z</time>
      </trkpt>
      <trkpt lat="28.4097420" lon="-16.4378880">
        <ele>1260.9</ele>
        <time>2020-11-11T12:09:55Z</time>
      </trkpt>
      <trkpt lat="28.4097420" lon="-16.4378880">
        <ele>1260.9</ele>
        <time>2020-11-11T12:09:56Z</time>
      </trkpt>
      <trkpt lat="28.4097720" lon="-16.4379730">
        <ele>1260.9</ele>
        <time>2020-11-11T12:09:57Z</time>
      </trkpt>
      <trkpt lat="28.4097980" lon="-16.4380080">
        <ele>1260.9</ele>
        <time>2020-11-11T12:09:58Z</time>
      </trkpt>
      <trkpt lat="28.4098280" lon="-16.4380550">
        <ele>1260.9</ele>
        <time>2020-11-11T12:09:59Z</time>
      </trkpt>
      <trkpt lat="28.4098280" lon="-16.4380550">
        <ele>1260.9</ele>
        <time>2020-11-11T12:10:00Z</time>
      </trkpt>
      <trkpt lat="28.4098580" lon="-16.4381420">
        <ele>1260.9</ele>
        <time>2020-11-11T12:10:01Z</time>
      </trkpt>
      <trkpt lat="28.4098580" lon="-16.4381420">
        <ele>1260.9</ele>
        <time>2020-11-11T12:10:02Z</time>
      </trkpt>
      <trkpt lat="28.4098770" lon="-16.4382180">
        <ele>1260.9</ele>
        <time>2020-11-11T12:10:03Z</time>
      </trkpt>
      <trkpt lat="28.4098770" lon="-16.4382180">
        <ele>1260.9</ele>
        <time>2020-11-11T12:10:04Z</time>
      </trkpt>
      <trkpt lat="28.4098900" lon="-16.4383020">
        <ele>1260.9</ele>
        <time>2020-11-11T12:10:05Z</time>
      </trkpt>
      <trkpt lat="28.4098900" lon="-16.4383020">
        <ele>1260.9</ele>
        <time>2020-11-11T12:10:06Z</time>
      </trkpt>
      <trkpt lat="28.4098720" lon="-16.4383450">
        <ele>1260.9</ele>
        <time>2020-11-11T12:10:07Z</time>
      </trkpt>
      <trkpt lat="28.4098720" lon="-16.4383450">
        <ele>1260.9</ele>
        <time>2020-11-11T12:10:08Z</time>
      </trkpt>
      <trkpt lat="28.4098500" lon="-16.4383800">
        <ele>1260.9</ele>
        <time>2020-11-11T12:10:09Z</time>
      </trkpt>
      <trkpt lat="28.4098500" lon="-16.4383800">
        <ele>1261.9</ele>
        <time>2020-11-11T12:10:10Z</time>
      </trkpt>
      <trkpt lat="28.4098020" lon="-16.4384120">
        <ele>1261.9</ele>
        <time>2020-11-11T12:10:11Z</time>
      </trkpt>
      <trkpt lat="28.4098020" lon="-16.4384120">
        <ele>1261.9</ele>
        <time>2020-11-11T12:10:12Z</time>
      </trkpt>
      <trkpt lat="28.4097830" lon="-16.4384370">
        <ele>1261.9</ele>
        <time>2020-11-11T12:10:13Z</time>
      </trkpt>
      <trkpt lat="28.4097830" lon="-16.4384370">
        <ele>1261.9</ele>
        <time>2020-11-11T12:10:14Z</time>
      </trkpt>
      <trkpt lat="28.4097370" lon="-16.4384330">
        <ele>1261.9</ele>
        <time>2020-11-11T12:10:15Z</time>
      </trkpt>
      <trkpt lat="28.4097370" lon="-16.4384330">
        <ele>1261.9</ele>
        <time>2020-11-11T12:10:16Z</time>
      </trkpt>
      <trkpt lat="28.4096850" lon="-16.4384370">
        <ele>1261.9</ele>
        <time>2020-11-11T12:10:17Z</time>
      </trkpt>
      <trkpt lat="28.4096650" lon="-16.4384330">
        <ele>1262.9</ele>
        <time>2020-11-11T12:10:18Z</time>
      </trkpt>
      <trkpt lat="28.4096650" lon="-16.4384330">
        <ele>1262.9</ele>
        <time>2020-11-11T12:10:19Z</time>
      </trkpt>
      <trkpt lat="28.4096120" lon="-16.4384120">
        <ele>1262.9</ele>
        <time>2020-11-11T12:10:20Z</time>
      </trkpt>
      <trkpt lat="28.4096120" lon="-16.4384120">
        <ele>1262.9</ele>
        <time>2020-11-11T12:10:21Z</time>
      </trkpt>
      <trkpt lat="28.4095700" lon="-16.4384000">
        <ele>1262.9</ele>
        <time>2020-11-11T12:10:22Z</time>
      </trkpt>
      <trkpt lat="28.4095700" lon="-16.4384000">
        <ele>1262.9</ele>
        <time>2020-11-11T12:10:23Z</time>
      </trkpt>
      <trkpt lat="28.4095170" lon="-16.4383920">
        <ele>1262.9</ele>
        <time>2020-11-11T12:10:24Z</time>
      </trkpt>
      <trkpt lat="28.4095170" lon="-16.4383920">
        <ele>1263.9</ele>
        <time>2020-11-11T12:10:25Z</time>
      </trkpt>
      <trkpt lat="28.4094570" lon="-16.4383770">
        <ele>1263.9</ele>
        <time>2020-11-11T12:10:26Z</time>
      </trkpt>
      <trkpt lat="28.4094570" lon="-16.4383770">
        <ele>1263.9</ele>
        <time>2020-11-11T12:10:27Z</time>
      </trkpt>
      <trkpt lat="28.4093950" lon="-16.4383700">
        <ele>1263.9</ele>
        <time>2020-11-11T12:10:28Z</time>
      </trkpt>
      <trkpt lat="28.4093720" lon="-16.4383630">
        <ele>1263.9</ele>
        <time>2020-11-11T12:10:29Z</time>
      </trkpt>
      <trkpt lat="28.4093720" lon="-16.4383630">
        <ele>1263.9</ele>
        <time>2020-11-11T12:10:30Z</time>
      </trkpt>
      <trkpt lat="28.4093180" lon="-16.4383550">
        <ele>1264.9</ele>
        <time>2020-11-11T12:10:31Z</time>
      </trkpt>
      <trkpt lat="28.4093180" lon="-16.4383550">
        <ele>1264.9</ele>
        <time>2020-11-11T12:10:32Z</time>
      </trkpt>
      <trkpt lat="28.4093280" lon="-16.4383520">
        <ele>1264.9</ele>
        <time>2020-11-11T12:10:33Z</time>
      </trkpt>
      <trkpt lat="28.4093280" lon="-16.4383520">
        <ele>1264.9</ele>
        <time>2020-11-11T12:10:34Z</time>
      </trkpt>
      <trkpt lat="28.4093380" lon="-16.4384020">
        <ele>1264.9</ele>
        <time>2020-11-11T12:10:35Z</time>
      </trkpt>
      <trkpt lat="28.4093330" lon="-16.4384500">
        <ele>1264.9</ele>
        <time>2020-11-11T12:10:36Z</time>
      </trkpt>
      <trkpt lat="28.4093370" lon="-16.4384880">
        <ele>1264.9</ele>
        <time>2020-11-11T12:10:37Z</time>
      </trkpt>
      <trkpt lat="28.4093370" lon="-16.4384880">
        <ele>1264.9</ele>
        <time>2020-11-11T12:10:38Z</time>
      </trkpt>
      <trkpt lat="28.4092970" lon="-16.4386170">
        <ele>1264.9</ele>
        <time>2020-11-11T12:10:39Z</time>
      </trkpt>
      <trkpt lat="28.4092970" lon="-16.4386170">
        <ele>1264.9</ele>
        <time>2020-11-11T12:10:40Z</time>
      </trkpt>
      <trkpt lat="28.4092920" lon="-16.4387170">
        <ele>1265.9</ele>
        <time>2020-11-11T12:10:41Z</time>
      </trkpt>
      <trkpt lat="28.4092920" lon="-16.4387170">
        <ele>1265.9</ele>
        <time>2020-11-11T12:10:42Z</time>
      </trkpt>
      <trkpt lat="28.4092970" lon="-16.4388030">
        <ele>1265.9</ele>
        <time>2020-11-11T12:10:43Z</time>
      </trkpt>
      <trkpt lat="28.4092970" lon="-16.4388030">
        <ele>1265.9</ele>
        <time>2020-11-11T12:10:44Z</time>
      </trkpt>
      <trkpt lat="28.4093120" lon="-16.4388780">
        <ele>1265.9</ele>
        <time>2020-11-11T12:10:45Z</time>
      </trkpt>
      <trkpt lat="28.4093120" lon="-16.4388780">
        <ele>1265.9</ele>
        <time>2020-11-11T12:10:46Z</time>
      </trkpt>
      <trkpt lat="28.4093250" lon="-16.4389500">
        <ele>1265.9</ele>
        <time>2020-11-11T12:10:47Z</time>
      </trkpt>
      <trkpt lat="28.4093250" lon="-16.4389500">
        <ele>1265.9</ele>
        <time>2020-11-11T12:10:48Z</time>
      </trkpt>
      <trkpt lat="28.4093300" lon="-16.4390200">
        <ele>1266.9</ele>
        <time>2020-11-11T12:10:49Z</time>
      </trkpt>
      <trkpt lat="28.4093300" lon="-16.4390200">
        <ele>1266.9</ele>
        <time>2020-11-11T12:10:50Z</time>
      </trkpt>
      <trkpt lat="28.4093400" lon="-16.4390850">
        <ele>1266.9</ele>
        <time>2020-11-11T12:10:51Z</time>
      </trkpt>
      <trkpt lat="28.4093400" lon="-16.4390850">
        <ele>1266.9</ele>
        <time>2020-11-11T12:10:52Z</time>
      </trkpt>
      <trkpt lat="28.4093450" lon="-16.4391400">
        <ele>1266.9</ele>
        <time>2020-11-11T12:10:53Z</time>
      </trkpt>
      <trkpt lat="28.4093450" lon="-16.4391680">
        <ele>1266.9</ele>
        <time>2020-11-11T12:10:54Z</time>
      </trkpt>
      <trkpt lat="28.4093420" lon="-16.4391970">
        <ele>1266.9</ele>
        <time>2020-11-11T12:10:55Z</time>
      </trkpt>
      <trkpt lat="28.4093420" lon="-16.4391970">
        <ele>1266.9</ele>
        <time>2020-11-11T12:10:56Z</time>
      </trkpt>
      <trkpt lat="28.4093470" lon="-16.4392550">
        <ele>1266.9</ele>
        <time>2020-11-11T12:10:57Z</time>
      </trkpt>
      <trkpt lat="28.4093470" lon="-16.4392550">
        <ele>1267.9</ele>
        <time>2020-11-11T12:10:58Z</time>
      </trkpt>
      <trkpt lat="28.4093730" lon="-16.4393030">
        <ele>1267.9</ele>
        <time>2020-11-11T12:10:59Z</time>
      </trkpt>
      <trkpt lat="28.4093870" lon="-16.4393220">
        <ele>1267.9</ele>
        <time>2020-11-11T12:11:00Z</time>
      </trkpt>
      <trkpt lat="28.4093930" lon="-16.4393400">
        <ele>1267.9</ele>
        <time>2020-11-11T12:11:01Z</time>
      </trkpt>
      <trkpt lat="28.4093930" lon="-16.4393400">
        <ele>1268.9</ele>
        <time>2020-11-11T12:11:02Z</time>
      </trkpt>
      <trkpt lat="28.4094150" lon="-16.4393780">
        <ele>1268.9</ele>
        <time>2020-11-11T12:11:03Z</time>
      </trkpt>
      <trkpt lat="28.4094150" lon="-16.4393780">
        <ele>1268.9</ele>
        <time>2020-11-11T12:11:04Z</time>
      </trkpt>
      <trkpt lat="28.4094350" lon="-16.4394120">
        <ele>1268.9</ele>
        <time>2020-11-11T12:11:05Z</time>
      </trkpt>
      <trkpt lat="28.4094350" lon="-16.4394120">
        <ele>1269.9</ele>
        <time>2020-11-11T12:11:06Z</time>
      </trkpt>
      <trkpt lat="28.4094300" lon="-16.4394630">
        <ele>1269.9</ele>
        <time>2020-11-11T12:11:07Z</time>
      </trkpt>
      <trkpt lat="28.4094350" lon="-16.4394920">
        <ele>1269.9</ele>
        <time>2020-11-11T12:11:08Z</time>
      </trkpt>
      <trkpt lat="28.4094350" lon="-16.4394920">
        <ele>1269.9</ele>
        <time>2020-11-11T12:11:09Z</time>
      </trkpt>
      <trkpt lat="28.4094230" lon="-16.4395280">
        <ele>1269.9</ele>
        <time>2020-11-11T12:11:10Z</time>
      </trkpt>
      <trkpt lat="28.4094230" lon="-16.4395280">
        <ele>1270.9</ele>
        <time>2020-11-11T12:11:11Z</time>
      </trkpt>
      <trkpt lat="28.4093730" lon="-16.4395550">
        <ele>1270.9</ele>
        <time>2020-11-11T12:11:12Z</time>
      </trkpt>
      <trkpt lat="28.4093530" lon="-16.4395720">
        <ele>1270.9</ele>
        <time>2020-11-11T12:11:13Z</time>
      </trkpt>
      <trkpt lat="28.4093530" lon="-16.4395720">
        <ele>1270.9</ele>
        <time>2020-11-11T12:11:14Z</time>
      </trkpt>
      <trkpt lat="28.4093070" lon="-16.4396170">
        <ele>1271.9</ele>
        <time>2020-11-11T12:11:15Z</time>
      </trkpt>
      <trkpt lat="28.4093070" lon="-16.4396170">
        <ele>1271.9</ele>
        <time>2020-11-11T12:11:16Z</time>
      </trkpt>
      <trkpt lat="28.4092620" lon="-16.4396350">
        <ele>1271.9</ele>
        <time>2020-11-11T12:11:17Z</time>
      </trkpt>
      <trkpt lat="28.4092620" lon="-16.4396350">
        <ele>1271.9</ele>
        <time>2020-11-11T12:11:18Z</time>
      </trkpt>
      <trkpt lat="28.4092320" lon="-16.4396500">
        <ele>1272.9</ele>
        <time>2020-11-11T12:11:19Z</time>
      </trkpt>
      <trkpt lat="28.4092320" lon="-16.4396500">
        <ele>1272.9</ele>
        <time>2020-11-11T12:11:20Z</time>
      </trkpt>
      <trkpt lat="28.4092130" lon="-16.4396470">
        <ele>1272.9</ele>
        <time>2020-11-11T12:11:21Z</time>
      </trkpt>
      <trkpt lat="28.4091980" lon="-16.4396350">
        <ele>1272.9</ele>
        <time>2020-11-11T12:11:22Z</time>
      </trkpt>
      <trkpt lat="28.4091980" lon="-16.4396350">
        <ele>1272.9</ele>
        <time>2020-11-11T12:11:23Z</time>
      </trkpt>
      <trkpt lat="28.4091650" lon="-16.4396170">
        <ele>1272.9</ele>
        <time>2020-11-11T12:11:24Z</time>
      </trkpt>
      <trkpt lat="28.4091650" lon="-16.4396170">
        <ele>1272.9</ele>
        <time>2020-11-11T12:11:25Z</time>
      </trkpt>
      <trkpt lat="28.4091420" lon="-16.4396070">
        <ele>1272.9</ele>
        <time>2020-11-11T12:11:26Z</time>
      </trkpt>
      <trkpt lat="28.4091320" lon="-16.4396020">
        <ele>1273.9</ele>
        <time>2020-11-11T12:11:27Z</time>
      </trkpt>
      <trkpt lat="28.4091320" lon="-16.4396020">
        <ele>1273.9</ele>
        <time>2020-11-11T12:11:28Z</time>
      </trkpt>
      <trkpt lat="28.4091100" lon="-16.4395850">
        <ele>1273.9</ele>
        <time>2020-11-11T12:11:29Z</time>
      </trkpt>
      <trkpt lat="28.4091100" lon="-16.4395850">
        <ele>1273.9</ele>
        <time>2020-11-11T12:11:30Z</time>
      </trkpt>
      <trkpt lat="28.4090970" lon="-16.4395700">
        <ele>1273.9</ele>
        <time>2020-11-11T12:11:31Z</time>
      </trkpt>
      <trkpt lat="28.4090970" lon="-16.4395700">
        <ele>1273.9</ele>
        <time>2020-11-11T12:11:32Z</time>
      </trkpt>
      <trkpt lat="28.4090770" lon="-16.4395650">
        <ele>1274.9</ele>
        <time>2020-11-11T12:11:33Z</time>
      </trkpt>
      <trkpt lat="28.4090670" lon="-16.4395570">
        <ele>1274.9</ele>
        <time>2020-11-11T12:11:34Z</time>
      </trkpt>
      <trkpt lat="28.4090520" lon="-16.4395430">
        <ele>1274.9</ele>
        <time>2020-11-11T12:11:35Z</time>
      </trkpt>
      <trkpt lat="28.4090520" lon="-16.4395430">
        <ele>1274.9</ele>
        <time>2020-11-11T12:11:36Z</time>
      </trkpt>
      <trkpt lat="28.4090170" lon="-16.4395270">
        <ele>1274.9</ele>
        <time>2020-11-11T12:11:37Z</time>
      </trkpt>
      <trkpt lat="28.4090170" lon="-16.4395270">
        <ele>1275.9</ele>
        <time>2020-11-11T12:11:38Z</time>
      </trkpt>
      <trkpt lat="28.4089970" lon="-16.4395100">
        <ele>1275.9</ele>
        <time>2020-11-11T12:11:39Z</time>
      </trkpt>
      <trkpt lat="28.4089900" lon="-16.4395000">
        <ele>1275.9</ele>
        <time>2020-11-11T12:11:40Z</time>
      </trkpt>
      <trkpt lat="28.4089900" lon="-16.4395000">
        <ele>1275.9</ele>
        <time>2020-11-11T12:11:41Z</time>
      </trkpt>
      <trkpt lat="28.4089550" lon="-16.4394850">
        <ele>1275.9</ele>
        <time>2020-11-11T12:11:42Z</time>
      </trkpt>
      <trkpt lat="28.4089550" lon="-16.4394850">
        <ele>1276.9</ele>
        <time>2020-11-11T12:11:43Z</time>
      </trkpt>
      <trkpt lat="28.4089220" lon="-16.4394580">
        <ele>1276.9</ele>
        <time>2020-11-11T12:11:44Z</time>
      </trkpt>
      <trkpt lat="28.4089080" lon="-16.4394480">
        <ele>1276.9</ele>
        <time>2020-11-11T12:11:45Z</time>
      </trkpt>
      <trkpt lat="28.4089080" lon="-16.4394480">
        <ele>1276.9</ele>
        <time>2020-11-11T12:11:46Z</time>
      </trkpt>
      <trkpt lat="28.4088730" lon="-16.4394300">
        <ele>1276.9</ele>
        <time>2020-11-11T12:11:47Z</time>
      </trkpt>
      <trkpt lat="28.4088730" lon="-16.4394300">
        <ele>1277.9</ele>
        <time>2020-11-11T12:11:48Z</time>
      </trkpt>
      <trkpt lat="28.4088420" lon="-16.4394120">
        <ele>1277.9</ele>
        <time>2020-11-11T12:11:49Z</time>
      </trkpt>
      <trkpt lat="28.4088420" lon="-16.4394120">
        <ele>1277.9</ele>
        <time>2020-11-11T12:11:50Z</time>
      </trkpt>
      <trkpt lat="28.4087980" lon="-16.4394000">
        <ele>1277.9</ele>
        <time>2020-11-11T12:11:51Z</time>
      </trkpt>
      <trkpt lat="28.4087980" lon="-16.4394000">
        <ele>1277.9</ele>
        <time>2020-11-11T12:11:52Z</time>
      </trkpt>
      <trkpt lat="28.4087620" lon="-16.4393850">
        <ele>1277.9</ele>
        <time>2020-11-11T12:11:53Z</time>
      </trkpt>
      <trkpt lat="28.4087450" lon="-16.4393750">
        <ele>1278.9</ele>
        <time>2020-11-11T12:11:54Z</time>
      </trkpt>
      <trkpt lat="28.4087450" lon="-16.4393750">
        <ele>1278.9</ele>
        <time>2020-11-11T12:11:55Z</time>
      </trkpt>
      <trkpt lat="28.4087120" lon="-16.4393770">
        <ele>1278.9</ele>
        <time>2020-11-11T12:11:56Z</time>
      </trkpt>
      <trkpt lat="28.4087120" lon="-16.4393770">
        <ele>1278.9</ele>
        <time>2020-11-11T12:11:57Z</time>
      </trkpt>
      <trkpt lat="28.4086720" lon="-16.4393770">
        <ele>1278.9</ele>
        <time>2020-11-11T12:11:58Z</time>
      </trkpt>
      <trkpt lat="28.4086720" lon="-16.4393770">
        <ele>1278.9</ele>
        <time>2020-11-11T12:11:59Z</time>
      </trkpt>
      <trkpt lat="28.4086280" lon="-16.4393720">
        <ele>1279.9</ele>
        <time>2020-11-11T12:12:00Z</time>
      </trkpt>
      <trkpt lat="28.4086130" lon="-16.4393680">
        <ele>1279.9</ele>
        <time>2020-11-11T12:12:01Z</time>
      </trkpt>
      <trkpt lat="28.4086130" lon="-16.4393680">
        <ele>1279.9</ele>
        <time>2020-11-11T12:12:02Z</time>
      </trkpt>
      <trkpt lat="28.4085750" lon="-16.4393570">
        <ele>1279.9</ele>
        <time>2020-11-11T12:12:03Z</time>
      </trkpt>
      <trkpt lat="28.4085750" lon="-16.4393570">
        <ele>1279.9</ele>
        <time>2020-11-11T12:12:04Z</time>
      </trkpt>
      <trkpt lat="28.4085470" lon="-16.4393430">
        <ele>1279.9</ele>
        <time>2020-11-11T12:12:05Z</time>
      </trkpt>
      <trkpt lat="28.4085470" lon="-16.4393430">
        <ele>1280.9</ele>
        <time>2020-11-11T12:12:06Z</time>
      </trkpt>
      <trkpt lat="28.4085220" lon="-16.4393300">
        <ele>1280.9</ele>
        <time>2020-11-11T12:12:07Z</time>
      </trkpt>
      <trkpt lat="28.4085220" lon="-16.4393300">
        <ele>1280.9</ele>
        <time>2020-11-11T12:12:08Z</time>
      </trkpt>
      <trkpt lat="28.4084730" lon="-16.4393150">
        <ele>1280.9</ele>
        <time>2020-11-11T12:12:09Z</time>
      </trkpt>
      <trkpt lat="28.4084730" lon="-16.4393150">
        <ele>1281.9</ele>
        <time>2020-11-11T12:12:10Z</time>
      </trkpt>
      <trkpt lat="28.4084350" lon="-16.4392980">
        <ele>1281.9</ele>
        <time>2020-11-11T12:12:11Z</time>
      </trkpt>
      <trkpt lat="28.4084150" lon="-16.4392830">
        <ele>1281.9</ele>
        <time>2020-11-11T12:12:12Z</time>
      </trkpt>
      <trkpt lat="28.4083900" lon="-16.4392620">
        <ele>1281.9</ele>
        <time>2020-11-11T12:12:13Z</time>
      </trkpt>
      <trkpt lat="28.4083900" lon="-16.4392620">
        <ele>1281.9</ele>
        <time>2020-11-11T12:12:14Z</time>
      </trkpt>
      <trkpt lat="28.4083430" lon="-16.4392220">
        <ele>1281.9</ele>
        <time>2020-11-11T12:12:15Z</time>
      </trkpt>
      <trkpt lat="28.4083430" lon="-16.4392220">
        <ele>1281.9</ele>
        <time>2020-11-11T12:12:16Z</time>
      </trkpt>
      <trkpt lat="28.4083080" lon="-16.4392000">
        <ele>1281.9</ele>
        <time>2020-11-11T12:12:17Z</time>
      </trkpt>
      <trkpt lat="28.4083080" lon="-16.4392000">
        <ele>1281.9</ele>
        <time>2020-11-11T12:12:18Z</time>
      </trkpt>
      <trkpt lat="28.4082670" lon="-16.4391650">
        <ele>1282.9</ele>
        <time>2020-11-11T12:12:19Z</time>
      </trkpt>
      <trkpt lat="28.4082670" lon="-16.4391650">
        <ele>1282.9</ele>
        <time>2020-11-11T12:12:20Z</time>
      </trkpt>
      <trkpt lat="28.4082220" lon="-16.4391280">
        <ele>1282.9</ele>
        <time>2020-11-11T12:12:21Z</time>
      </trkpt>
      <trkpt lat="28.4082220" lon="-16.4391280">
        <ele>1282.9</ele>
        <time>2020-11-11T12:12:22Z</time>
      </trkpt>
      <trkpt lat="28.4081880" lon="-16.4391050">
        <ele>1282.9</ele>
        <time>2020-11-11T12:12:23Z</time>
      </trkpt>
      <trkpt lat="28.4081730" lon="-16.4391030">
        <ele>1282.9</ele>
        <time>2020-11-11T12:12:24Z</time>
      </trkpt>
      <trkpt lat="28.4081730" lon="-16.4391030">
        <ele>1282.9</ele>
        <time>2020-11-11T12:12:25Z</time>
      </trkpt>
      <trkpt lat="28.4081380" lon="-16.4390980">
        <ele>1282.9</ele>
        <time>2020-11-11T12:12:26Z</time>
      </trkpt>
      <trkpt lat="28.4081380" lon="-16.4390980">
        <ele>1282.9</ele>
        <time>2020-11-11T12:12:27Z</time>
      </trkpt>
      <trkpt lat="28.4081030" lon="-16.4390900">
        <ele>1282.9</ele>
        <time>2020-11-11T12:12:28Z</time>
      </trkpt>
      <trkpt lat="28.4081030" lon="-16.4390900">
        <ele>1282.9</ele>
        <time>2020-11-11T12:12:29Z</time>
      </trkpt>
      <trkpt lat="28.4080770" lon="-16.4390920">
        <ele>1282.9</ele>
        <time>2020-11-11T12:12:30Z</time>
      </trkpt>
      <trkpt lat="28.4080770" lon="-16.4390920">
        <ele>1282.9</ele>
        <time>2020-11-11T12:12:31Z</time>
      </trkpt>
      <trkpt lat="28.4080280" lon="-16.4390580">
        <ele>1282.9</ele>
        <time>2020-11-11T12:12:32Z</time>
      </trkpt>
      <trkpt lat="28.4080080" lon="-16.4390450">
        <ele>1283.9</ele>
        <time>2020-11-11T12:12:33Z</time>
      </trkpt>
      <trkpt lat="28.4080080" lon="-16.4390450">
        <ele>1283.9</ele>
        <time>2020-11-11T12:12:34Z</time>
      </trkpt>
      <trkpt lat="28.4079750" lon="-16.4390220">
        <ele>1283.9</ele>
        <time>2020-11-11T12:12:35Z</time>
      </trkpt>
      <trkpt lat="28.4079750" lon="-16.4390220">
        <ele>1283.9</ele>
        <time>2020-11-11T12:12:36Z</time>
      </trkpt>
      <trkpt lat="28.4079400" lon="-16.4390000">
        <ele>1283.9</ele>
        <time>2020-11-11T12:12:37Z</time>
      </trkpt>
      <trkpt lat="28.4079400" lon="-16.4390000">
        <ele>1283.9</ele>
        <time>2020-11-11T12:12:38Z</time>
      </trkpt>
      <trkpt lat="28.4078950" lon="-16.4389750">
        <ele>1284.9</ele>
        <time>2020-11-11T12:12:39Z</time>
      </trkpt>
      <trkpt lat="28.4078950" lon="-16.4389750">
        <ele>1284.9</ele>
        <time>2020-11-11T12:12:40Z</time>
      </trkpt>
      <trkpt lat="28.4078570" lon="-16.4389500">
        <ele>1284.9</ele>
        <time>2020-11-11T12:12:41Z</time>
      </trkpt>
      <trkpt lat="28.4078570" lon="-16.4389500">
        <ele>1284.9</ele>
        <time>2020-11-11T12:12:42Z</time>
      </trkpt>
      <trkpt lat="28.4078030" lon="-16.4389220">
        <ele>1284.9</ele>
        <time>2020-11-11T12:12:43Z</time>
      </trkpt>
      <trkpt lat="28.4078030" lon="-16.4389220">
        <ele>1284.9</ele>
        <time>2020-11-11T12:12:44Z</time>
      </trkpt>
      <trkpt lat="28.4077630" lon="-16.4389150">
        <ele>1284.9</ele>
        <time>2020-11-11T12:12:45Z</time>
      </trkpt>
      <trkpt lat="28.4077630" lon="-16.4389150">
        <ele>1284.9</ele>
        <time>2020-11-11T12:12:46Z</time>
      </trkpt>
      <trkpt lat="28.4077250" lon="-16.4388880">
        <ele>1284.9</ele>
        <time>2020-11-11T12:12:47Z</time>
      </trkpt>
      <trkpt lat="28.4077250" lon="-16.4388880">
        <ele>1285.9</ele>
        <time>2020-11-11T12:12:48Z</time>
      </trkpt>
      <trkpt lat="28.4076900" lon="-16.4388700">
        <ele>1285.9</ele>
        <time>2020-11-11T12:12:49Z</time>
      </trkpt>
      <trkpt lat="28.4076900" lon="-16.4388700">
        <ele>1285.9</ele>
        <time>2020-11-11T12:12:50Z</time>
      </trkpt>
      <trkpt lat="28.4076530" lon="-16.4388470">
        <ele>1285.9</ele>
        <time>2020-11-11T12:12:51Z</time>
      </trkpt>
      <trkpt lat="28.4076530" lon="-16.4388470">
        <ele>1285.9</ele>
        <time>2020-11-11T12:12:52Z</time>
      </trkpt>
      <trkpt lat="28.4076130" lon="-16.4388330">
        <ele>1285.9</ele>
        <time>2020-11-11T12:12:53Z</time>
      </trkpt>
      <trkpt lat="28.4076130" lon="-16.4388330">
        <ele>1286.9</ele>
        <time>2020-11-11T12:12:54Z</time>
      </trkpt>
      <trkpt lat="28.4075680" lon="-16.4388070">
        <ele>1286.9</ele>
        <time>2020-11-11T12:12:55Z</time>
      </trkpt>
      <trkpt lat="28.4075680" lon="-16.4388070">
        <ele>1286.9</ele>
        <time>2020-11-11T12:12:56Z</time>
      </trkpt>
      <trkpt lat="28.4075330" lon="-16.4387820">
        <ele>1286.9</ele>
        <time>2020-11-11T12:12:57Z</time>
      </trkpt>
      <trkpt lat="28.4075150" lon="-16.4387700">
        <ele>1286.9</ele>
        <time>2020-11-11T12:12:58Z</time>
      </trkpt>
      <trkpt lat="28.4075150" lon="-16.4387700">
        <ele>1286.9</ele>
        <time>2020-11-11T12:12:59Z</time>
      </trkpt>
      <trkpt lat="28.4074750" lon="-16.4387570">
        <ele>1287.9</ele>
        <time>2020-11-11T12:13:00Z</time>
      </trkpt>
      <trkpt lat="28.4074570" lon="-16.4387450">
        <ele>1287.9</ele>
        <time>2020-11-11T12:13:01Z</time>
      </trkpt>
      <trkpt lat="28.4074570" lon="-16.4387450">
        <ele>1287.9</ele>
        <time>2020-11-11T12:13:02Z</time>
      </trkpt>
      <trkpt lat="28.4074180" lon="-16.4387170">
        <ele>1287.9</ele>
        <time>2020-11-11T12:13:03Z</time>
      </trkpt>
      <trkpt lat="28.4074180" lon="-16.4387170">
        <ele>1287.9</ele>
        <time>2020-11-11T12:13:04Z</time>
      </trkpt>
      <trkpt lat="28.4073770" lon="-16.4387070">
        <ele>1287.9</ele>
        <time>2020-11-11T12:13:05Z</time>
      </trkpt>
      <trkpt lat="28.4073770" lon="-16.4387070">
        <ele>1288.9</ele>
        <time>2020-11-11T12:13:06Z</time>
      </trkpt>
      <trkpt lat="28.4073370" lon="-16.4386870">
        <ele>1288.9</ele>
        <time>2020-11-11T12:13:07Z</time>
      </trkpt>
      <trkpt lat="28.4073370" lon="-16.4386870">
        <ele>1288.9</ele>
        <time>2020-11-11T12:13:08Z</time>
      </trkpt>
      <trkpt lat="28.4072920" lon="-16.4386730">
        <ele>1288.9</ele>
        <time>2020-11-11T12:13:09Z</time>
      </trkpt>
      <trkpt lat="28.4072800" lon="-16.4386570">
        <ele>1288.9</ele>
        <time>2020-11-11T12:13:10Z</time>
      </trkpt>
      <trkpt lat="28.4072750" lon="-16.4386520">
        <ele>1288.9</ele>
        <time>2020-11-11T12:13:11Z</time>
      </trkpt>
      <trkpt lat="28.4072750" lon="-16.4386520">
        <ele>1288.9</ele>
        <time>2020-11-11T12:13:12Z</time>
      </trkpt>
      <trkpt lat="28.4072580" lon="-16.4386430">
        <ele>1288.9</ele>
        <time>2020-11-11T12:13:13Z</time>
      </trkpt>
      <trkpt lat="28.4072580" lon="-16.4386430">
        <ele>1289.9</ele>
        <time>2020-11-11T12:13:14Z</time>
      </trkpt>
      <trkpt lat="28.4072250" lon="-16.4386170">
        <ele>1289.9</ele>
        <time>2020-11-11T12:13:15Z</time>
      </trkpt>
      <trkpt lat="28.4072200" lon="-16.4386080">
        <ele>1289.9</ele>
        <time>2020-11-11T12:13:16Z</time>
      </trkpt>
      <trkpt lat="28.4072200" lon="-16.4386080">
        <ele>1289.9</ele>
        <time>2020-11-11T12:13:17Z</time>
      </trkpt>
      <trkpt lat="28.4072050" lon="-16.4385930">
        <ele>1290.9</ele>
        <time>2020-11-11T12:13:18Z</time>
      </trkpt>
      <trkpt lat="28.4072050" lon="-16.4385930">
        <ele>1290.9</ele>
        <time>2020-11-11T12:13:19Z</time>
      </trkpt>
      <trkpt lat="28.4071320" lon="-16.4386450">
        <ele>1290.9</ele>
        <time>2020-11-11T12:13:20Z</time>
      </trkpt>
      <trkpt lat="28.4071320" lon="-16.4386450">
        <ele>1290.9</ele>
        <time>2020-11-11T12:13:21Z</time>
      </trkpt>
      <trkpt lat="28.4070920" lon="-16.4386400">
        <ele>1290.9</ele>
        <time>2020-11-11T12:13:22Z</time>
      </trkpt>
      <trkpt lat="28.4070830" lon="-16.4386480">
        <ele>1290.9</ele>
        <time>2020-11-11T12:13:23Z</time>
      </trkpt>
      <trkpt lat="28.4070830" lon="-16.4386480">
        <ele>1290.9</ele>
        <time>2020-11-11T12:13:24Z</time>
      </trkpt>
      <trkpt lat="28.4070720" lon="-16.4386630">
        <ele>1290.9</ele>
        <time>2020-11-11T12:13:25Z</time>
      </trkpt>
      <trkpt lat="28.4070720" lon="-16.4386630">
        <ele>1290.9</ele>
        <time>2020-11-11T12:13:26Z</time>
      </trkpt>
      <trkpt lat="28.4070600" lon="-16.4386830">
        <ele>1291.9</ele>
        <time>2020-11-11T12:13:27Z</time>
      </trkpt>
      <trkpt lat="28.4070600" lon="-16.4386830">
        <ele>1291.9</ele>
        <time>2020-11-11T12:13:28Z</time>
      </trkpt>
      <trkpt lat="28.4070300" lon="-16.4387150">
        <ele>1291.9</ele>
        <time>2020-11-11T12:13:29Z</time>
      </trkpt>
      <trkpt lat="28.4070300" lon="-16.4387150">
        <ele>1291.9</ele>
        <time>2020-11-11T12:13:30Z</time>
      </trkpt>
      <trkpt lat="28.4069370" lon="-16.4388180">
        <ele>1291.9</ele>
        <time>2020-11-11T12:13:31Z</time>
      </trkpt>
      <trkpt lat="28.4069370" lon="-16.4388180">
        <ele>1291.9</ele>
        <time>2020-11-11T12:13:32Z</time>
      </trkpt>
      <trkpt lat="28.4068850" lon="-16.4388850">
        <ele>1291.9</ele>
        <time>2020-11-11T12:13:33Z</time>
      </trkpt>
      <trkpt lat="28.4068850" lon="-16.4388850">
        <ele>1291.9</ele>
        <time>2020-11-11T12:13:34Z</time>
      </trkpt>
      <trkpt lat="28.4068550" lon="-16.4389080">
        <ele>1291.9</ele>
        <time>2020-11-11T12:13:35Z</time>
      </trkpt>
      <trkpt lat="28.4068550" lon="-16.4389080">
        <ele>1291.9</ele>
        <time>2020-11-11T12:13:36Z</time>
      </trkpt>
      <trkpt lat="28.4068280" lon="-16.4389220">
        <ele>1291.9</ele>
        <time>2020-11-11T12:13:37Z</time>
      </trkpt>
      <trkpt lat="28.4068280" lon="-16.4389220">
        <ele>1291.9</ele>
        <time>2020-11-11T12:13:38Z</time>
      </trkpt>
      <trkpt lat="28.4068030" lon="-16.4389330">
        <ele>1291.9</ele>
        <time>2020-11-11T12:13:39Z</time>
      </trkpt>
      <trkpt lat="28.4068030" lon="-16.4389330">
        <ele>1291.9</ele>
        <time>2020-11-11T12:13:40Z</time>
      </trkpt>
      <trkpt lat="28.4067680" lon="-16.4389700">
        <ele>1291.9</ele>
        <time>2020-11-11T12:13:41Z</time>
      </trkpt>
      <trkpt lat="28.4067680" lon="-16.4389700">
        <ele>1292.9</ele>
        <time>2020-11-11T12:13:42Z</time>
      </trkpt>
      <trkpt lat="28.4067170" lon="-16.4390150">
        <ele>1292.9</ele>
        <time>2020-11-11T12:13:43Z</time>
      </trkpt>
      <trkpt lat="28.4067170" lon="-16.4390150">
        <ele>1292.9</ele>
        <time>2020-11-11T12:13:44Z</time>
      </trkpt>
      <trkpt lat="28.4066830" lon="-16.4390370">
        <ele>1292.9</ele>
        <time>2020-11-11T12:13:45Z</time>
      </trkpt>
      <trkpt lat="28.4066830" lon="-16.4390370">
        <ele>1292.9</ele>
        <time>2020-11-11T12:13:46Z</time>
      </trkpt>
      <trkpt lat="28.4066550" lon="-16.4390300">
        <ele>1292.9</ele>
        <time>2020-11-11T12:13:47Z</time>
      </trkpt>
      <trkpt lat="28.4066550" lon="-16.4390300">
        <ele>1293.9</ele>
        <time>2020-11-11T12:13:48Z</time>
      </trkpt>
      <trkpt lat="28.4066400" lon="-16.4390270">
        <ele>1293.9</ele>
        <time>2020-11-11T12:13:49Z</time>
      </trkpt>
      <trkpt lat="28.4066400" lon="-16.4390270">
        <ele>1293.9</ele>
        <time>2020-11-11T12:13:50Z</time>
      </trkpt>
      <trkpt lat="28.4066120" lon="-16.4390130">
        <ele>1293.9</ele>
        <time>2020-11-11T12:13:51Z</time>
      </trkpt>
      <trkpt lat="28.4066120" lon="-16.4390130">
        <ele>1294.9</ele>
        <time>2020-11-11T12:13:52Z</time>
      </trkpt>
      <trkpt lat="28.4065800" lon="-16.4390100">
        <ele>1294.9</ele>
        <time>2020-11-11T12:13:53Z</time>
      </trkpt>
      <trkpt lat="28.4065800" lon="-16.4390100">
        <ele>1294.9</ele>
        <time>2020-11-11T12:13:54Z</time>
      </trkpt>
      <trkpt lat="28.4065550" lon="-16.4390050">
        <ele>1294.9</ele>
        <time>2020-11-11T12:13:55Z</time>
      </trkpt>
      <trkpt lat="28.4065550" lon="-16.4390050">
        <ele>1295.9</ele>
        <time>2020-11-11T12:13:56Z</time>
      </trkpt>
      <trkpt lat="28.4065280" lon="-16.4390000">
        <ele>1295.9</ele>
        <time>2020-11-11T12:13:57Z</time>
      </trkpt>
      <trkpt lat="28.4065280" lon="-16.4390000">
        <ele>1295.9</ele>
        <time>2020-11-11T12:13:58Z</time>
      </trkpt>
      <trkpt lat="28.4065080" lon="-16.4390020">
        <ele>1295.9</ele>
        <time>2020-11-11T12:13:59Z</time>
      </trkpt>
      <trkpt lat="28.4065080" lon="-16.4390020">
        <ele>1295.9</ele>
        <time>2020-11-11T12:14:00Z</time>
      </trkpt>
      <trkpt lat="28.4064450" lon="-16.4389520">
        <ele>1295.9</ele>
        <time>2020-11-11T12:14:01Z</time>
      </trkpt>
      <trkpt lat="28.4064450" lon="-16.4389520">
        <ele>1296.9</ele>
        <time>2020-11-11T12:14:02Z</time>
      </trkpt>
      <trkpt lat="28.4064030" lon="-16.4389350">
        <ele>1296.9</ele>
        <time>2020-11-11T12:14:03Z</time>
      </trkpt>
      <trkpt lat="28.4064030" lon="-16.4389350">
        <ele>1296.9</ele>
        <time>2020-11-11T12:14:04Z</time>
      </trkpt>
      <trkpt lat="28.4063670" lon="-16.4389200">
        <ele>1296.9</ele>
        <time>2020-11-11T12:14:05Z</time>
      </trkpt>
      <trkpt lat="28.4063670" lon="-16.4389200">
        <ele>1296.9</ele>
        <time>2020-11-11T12:14:06Z</time>
      </trkpt>
      <trkpt lat="28.4063370" lon="-16.4388970">
        <ele>1296.9</ele>
        <time>2020-11-11T12:14:07Z</time>
      </trkpt>
      <trkpt lat="28.4063370" lon="-16.4388970">
        <ele>1296.9</ele>
        <time>2020-11-11T12:14:08Z</time>
      </trkpt>
      <trkpt lat="28.4063000" lon="-16.4388730">
        <ele>1296.9</ele>
        <time>2020-11-11T12:14:09Z</time>
      </trkpt>
      <trkpt lat="28.4063000" lon="-16.4388730">
        <ele>1296.9</ele>
        <time>2020-11-11T12:14:10Z</time>
      </trkpt>
      <trkpt lat="28.4062530" lon="-16.4388750">
        <ele>1296.9</ele>
        <time>2020-11-11T12:14:11Z</time>
      </trkpt>
      <trkpt lat="28.4062530" lon="-16.4388750">
        <ele>1296.9</ele>
        <time>2020-11-11T12:14:12Z</time>
      </trkpt>
      <trkpt lat="28.4061880" lon="-16.4388450">
        <ele>1296.9</ele>
        <time>2020-11-11T12:14:13Z</time>
      </trkpt>
      <trkpt lat="28.4061880" lon="-16.4388450">
        <ele>1296.9</ele>
        <time>2020-11-11T12:14:14Z</time>
      </trkpt>
      <trkpt lat="28.4061070" lon="-16.4387670">
        <ele>1296.9</ele>
        <time>2020-11-11T12:14:15Z</time>
      </trkpt>
      <trkpt lat="28.4061070" lon="-16.4387670">
        <ele>1296.9</ele>
        <time>2020-11-11T12:14:16Z</time>
      </trkpt>
      <trkpt lat="28.4060080" lon="-16.4387650">
        <ele>1296.9</ele>
        <time>2020-11-11T12:14:17Z</time>
      </trkpt>
      <trkpt lat="28.4060080" lon="-16.4387650">
        <ele>1296.9</ele>
        <time>2020-11-11T12:14:18Z</time>
      </trkpt>
      <trkpt lat="28.4059450" lon="-16.4387670">
        <ele>1296.9</ele>
        <time>2020-11-11T12:14:19Z</time>
      </trkpt>
      <trkpt lat="28.4059450" lon="-16.4387670">
        <ele>1296.9</ele>
        <time>2020-11-11T12:14:20Z</time>
      </trkpt>
      <trkpt lat="28.4058920" lon="-16.4387720">
        <ele>1296.9</ele>
        <time>2020-11-11T12:14:21Z</time>
      </trkpt>
      <trkpt lat="28.4058880" lon="-16.4387650">
        <ele>1296.9</ele>
        <time>2020-11-11T12:14:22Z</time>
      </trkpt>
      <trkpt lat="28.4058880" lon="-16.4387650">
        <ele>1296.9</ele>
        <time>2020-11-11T12:14:23Z</time>
      </trkpt>
      <trkpt lat="28.4058770" lon="-16.4387870">
        <ele>1296.9</ele>
        <time>2020-11-11T12:14:24Z</time>
      </trkpt>
      <trkpt lat="28.4058770" lon="-16.4387870">
        <ele>1296.9</ele>
        <time>2020-11-11T12:14:25Z</time>
      </trkpt>
      <trkpt lat="28.4058250" lon="-16.4388580">
        <ele>1296.9</ele>
        <time>2020-11-11T12:14:26Z</time>
      </trkpt>
      <trkpt lat="28.4058250" lon="-16.4388580">
        <ele>1296.9</ele>
        <time>2020-11-11T12:14:27Z</time>
      </trkpt>
      <trkpt lat="28.4058080" lon="-16.4388770">
        <ele>1296.9</ele>
        <time>2020-11-11T12:14:28Z</time>
      </trkpt>
      <trkpt lat="28.4057970" lon="-16.4388830">
        <ele>1297.9</ele>
        <time>2020-11-11T12:14:29Z</time>
      </trkpt>
      <trkpt lat="28.4057970" lon="-16.4388830">
        <ele>1297.9</ele>
        <time>2020-11-11T12:14:30Z</time>
      </trkpt>
      <trkpt lat="28.4057770" lon="-16.4388920">
        <ele>1297.9</ele>
        <time>2020-11-11T12:14:31Z</time>
      </trkpt>
      <trkpt lat="28.4057770" lon="-16.4388920">
        <ele>1297.9</ele>
        <time>2020-11-11T12:14:32Z</time>
      </trkpt>
      <trkpt lat="28.4057400" lon="-16.4389180">
        <ele>1298.9</ele>
        <time>2020-11-11T12:14:33Z</time>
      </trkpt>
      <trkpt lat="28.4057400" lon="-16.4389180">
        <ele>1298.9</ele>
        <time>2020-11-11T12:14:34Z</time>
      </trkpt>
      <trkpt lat="28.4056970" lon="-16.4389480">
        <ele>1298.9</ele>
        <time>2020-11-11T12:14:35Z</time>
      </trkpt>
      <trkpt lat="28.4056750" lon="-16.4389580">
        <ele>1298.9</ele>
        <time>2020-11-11T12:14:36Z</time>
      </trkpt>
      <trkpt lat="28.4056750" lon="-16.4389580">
        <ele>1299.9</ele>
        <time>2020-11-11T12:14:37Z</time>
      </trkpt>
      <trkpt lat="28.4056150" lon="-16.4389900">
        <ele>1299.9</ele>
        <time>2020-11-11T12:14:38Z</time>
      </trkpt>
      <trkpt lat="28.4056150" lon="-16.4389900">
        <ele>1299.9</ele>
        <time>2020-11-11T12:14:39Z</time>
      </trkpt>
      <trkpt lat="28.4055720" lon="-16.4390150">
        <ele>1299.9</ele>
        <time>2020-11-11T12:14:40Z</time>
      </trkpt>
      <trkpt lat="28.4055720" lon="-16.4390150">
        <ele>1299.9</ele>
        <time>2020-11-11T12:14:41Z</time>
      </trkpt>
      <trkpt lat="28.4055130" lon="-16.4390370">
        <ele>1300.9</ele>
        <time>2020-11-11T12:14:42Z</time>
      </trkpt>
      <trkpt lat="28.4054950" lon="-16.4390400">
        <ele>1300.9</ele>
        <time>2020-11-11T12:14:43Z</time>
      </trkpt>
      <trkpt lat="28.4054830" lon="-16.4390450">
        <ele>1300.9</ele>
        <time>2020-11-11T12:14:44Z</time>
      </trkpt>
      <trkpt lat="28.4054830" lon="-16.4390450">
        <ele>1300.9</ele>
        <time>2020-11-11T12:14:45Z</time>
      </trkpt>
      <trkpt lat="28.4054470" lon="-16.4390430">
        <ele>1301.9</ele>
        <time>2020-11-11T12:14:46Z</time>
      </trkpt>
      <trkpt lat="28.4054470" lon="-16.4390430">
        <ele>1301.9</ele>
        <time>2020-11-11T12:14:47Z</time>
      </trkpt>
      <trkpt lat="28.4054050" lon="-16.4390430">
        <ele>1301.9</ele>
        <time>2020-11-11T12:14:48Z</time>
      </trkpt>
      <trkpt lat="28.4053830" lon="-16.4390400">
        <ele>1301.9</ele>
        <time>2020-11-11T12:14:49Z</time>
      </trkpt>
      <trkpt lat="28.4053830" lon="-16.4390400">
        <ele>1301.9</ele>
        <time>2020-11-11T12:14:50Z</time>
      </trkpt>
      <trkpt lat="28.4053450" lon="-16.4390120">
        <ele>1301.9</ele>
        <time>2020-11-11T12:14:51Z</time>
      </trkpt>
      <trkpt lat="28.4053450" lon="-16.4390120">
        <ele>1301.9</ele>
        <time>2020-11-11T12:14:52Z</time>
      </trkpt>
      <trkpt lat="28.4053150" lon="-16.4390080">
        <ele>1301.9</ele>
        <time>2020-11-11T12:14:53Z</time>
      </trkpt>
      <trkpt lat="28.4053030" lon="-16.4390080">
        <ele>1301.9</ele>
        <time>2020-11-11T12:14:54Z</time>
      </trkpt>
      <trkpt lat="28.4053000" lon="-16.4390130">
        <ele>1301.9</ele>
        <time>2020-11-11T12:14:55Z</time>
      </trkpt>
      <trkpt lat="28.4052790" lon="-16.4390500">
        <ele>1301.9</ele>
        <time>2020-11-11T12:14:56Z</time>
      </trkpt>
      <trkpt lat="28.4052590" lon="-16.4390870">
        <ele>1301.9</ele>
        <time>2020-11-11T12:14:57Z</time>
      </trkpt>
      <trkpt lat="28.4052380" lon="-16.4391230">
        <ele>1301.9</ele>
        <time>2020-11-11T12:14:58Z</time>
      </trkpt>
      <trkpt lat="28.4052170" lon="-16.4391600">
        <ele>1301.9</ele>
        <time>2020-11-11T12:14:59Z</time>
      </trkpt>
      <trkpt lat="28.4052170" lon="-16.4391600">
        <ele>1301.9</ele>
        <time>2020-11-11T12:15:00Z</time>
      </trkpt>
      <trkpt lat="28.4051980" lon="-16.4392250">
        <ele>1301.9</ele>
        <time>2020-11-11T12:15:01Z</time>
      </trkpt>
      <trkpt lat="28.4051980" lon="-16.4392250">
        <ele>1302.9</ele>
        <time>2020-11-11T12:15:02Z</time>
      </trkpt>
      <trkpt lat="28.4051780" lon="-16.4393050">
        <ele>1302.9</ele>
        <time>2020-11-11T12:15:03Z</time>
      </trkpt>
      <trkpt lat="28.4051820" lon="-16.4393250">
        <ele>1303.9</ele>
        <time>2020-11-11T12:15:04Z</time>
      </trkpt>
      <trkpt lat="28.4051820" lon="-16.4393250">
        <ele>1303.9</ele>
        <time>2020-11-11T12:15:05Z</time>
      </trkpt>
      <trkpt lat="28.4051830" lon="-16.4393650">
        <ele>1303.9</ele>
        <time>2020-11-11T12:15:06Z</time>
      </trkpt>
      <trkpt lat="28.4051830" lon="-16.4393650">
        <ele>1303.9</ele>
        <time>2020-11-11T12:15:07Z</time>
      </trkpt>
      <trkpt lat="28.4052100" lon="-16.4393930">
        <ele>1303.9</ele>
        <time>2020-11-11T12:15:08Z</time>
      </trkpt>
      <trkpt lat="28.4052100" lon="-16.4393930">
        <ele>1303.9</ele>
        <time>2020-11-11T12:15:09Z</time>
      </trkpt>
      <trkpt lat="28.4052270" lon="-16.4394430">
        <ele>1304.9</ele>
        <time>2020-11-11T12:15:10Z</time>
      </trkpt>
      <trkpt lat="28.4052270" lon="-16.4394430">
        <ele>1304.9</ele>
        <time>2020-11-11T12:15:11Z</time>
      </trkpt>
      <trkpt lat="28.4052370" lon="-16.4394730">
        <ele>1304.9</ele>
        <time>2020-11-11T12:15:12Z</time>
      </trkpt>
      <trkpt lat="28.4052480" lon="-16.4394970">
        <ele>1304.9</ele>
        <time>2020-11-11T12:15:13Z</time>
      </trkpt>
      <trkpt lat="28.4052480" lon="-16.4394970">
        <ele>1304.9</ele>
        <time>2020-11-11T12:15:14Z</time>
      </trkpt>
      <trkpt lat="28.4052600" lon="-16.4395550">
        <ele>1304.9</ele>
        <time>2020-11-11T12:15:15Z</time>
      </trkpt>
      <trkpt lat="28.4052600" lon="-16.4395550">
        <ele>1305.9</ele>
        <time>2020-11-11T12:15:16Z</time>
      </trkpt>
      <trkpt lat="28.4052580" lon="-16.4395930">
        <ele>1305.9</ele>
        <time>2020-11-11T12:15:17Z</time>
      </trkpt>
      <trkpt lat="28.4052580" lon="-16.4395930">
        <ele>1305.9</ele>
        <time>2020-11-11T12:15:18Z</time>
      </trkpt>
      <trkpt lat="28.4052650" lon="-16.4396480">
        <ele>1306.9</ele>
        <time>2020-11-11T12:15:19Z</time>
      </trkpt>
      <trkpt lat="28.4052650" lon="-16.4396480">
        <ele>1306.9</ele>
        <time>2020-11-11T12:15:20Z</time>
      </trkpt>
      <trkpt lat="28.4052680" lon="-16.4396950">
        <ele>1306.9</ele>
        <time>2020-11-11T12:15:21Z</time>
      </trkpt>
      <trkpt lat="28.4052680" lon="-16.4396950">
        <ele>1306.9</ele>
        <time>2020-11-11T12:15:22Z</time>
      </trkpt>
      <trkpt lat="28.4052770" lon="-16.4397280">
        <ele>1306.9</ele>
        <time>2020-11-11T12:15:23Z</time>
      </trkpt>
      <trkpt lat="28.4052770" lon="-16.4397280">
        <ele>1306.9</ele>
        <time>2020-11-11T12:15:24Z</time>
      </trkpt>
      <trkpt lat="28.4052720" lon="-16.4397720">
        <ele>1306.9</ele>
        <time>2020-11-11T12:15:25Z</time>
      </trkpt>
      <trkpt lat="28.4052720" lon="-16.4397720">
        <ele>1306.9</ele>
        <time>2020-11-11T12:15:26Z</time>
      </trkpt>
      <trkpt lat="28.4052750" lon="-16.4398130">
        <ele>1307.9</ele>
        <time>2020-11-11T12:15:27Z</time>
      </trkpt>
      <trkpt lat="28.4052750" lon="-16.4398130">
        <ele>1307.9</ele>
        <time>2020-11-11T12:15:28Z</time>
      </trkpt>
      <trkpt lat="28.4052670" lon="-16.4398280">
        <ele>1307.9</ele>
        <time>2020-11-11T12:15:29Z</time>
      </trkpt>
      <trkpt lat="28.4052650" lon="-16.4398520">
        <ele>1307.9</ele>
        <time>2020-11-11T12:15:30Z</time>
      </trkpt>
      <trkpt lat="28.4052600" lon="-16.4398800">
        <ele>1308.9</ele>
        <time>2020-11-11T12:15:31Z</time>
      </trkpt>
      <trkpt lat="28.4052600" lon="-16.4398800">
        <ele>1308.9</ele>
        <time>2020-11-11T12:15:32Z</time>
      </trkpt>
      <trkpt lat="28.4052120" lon="-16.4399150">
        <ele>1308.9</ele>
        <time>2020-11-11T12:15:33Z</time>
      </trkpt>
      <trkpt lat="28.4052120" lon="-16.4399150">
        <ele>1308.9</ele>
        <time>2020-11-11T12:15:34Z</time>
      </trkpt>
      <trkpt lat="28.4051900" lon="-16.4399330">
        <ele>1308.9</ele>
        <time>2020-11-11T12:15:35Z</time>
      </trkpt>
      <trkpt lat="28.4051900" lon="-16.4399330">
        <ele>1308.9</ele>
        <time>2020-11-11T12:15:36Z</time>
      </trkpt>
      <trkpt lat="28.4051680" lon="-16.4399780">
        <ele>1308.9</ele>
        <time>2020-11-11T12:15:37Z</time>
      </trkpt>
      <trkpt lat="28.4051680" lon="-16.4399780">
        <ele>1308.9</ele>
        <time>2020-11-11T12:15:38Z</time>
      </trkpt>
      <trkpt lat="28.4051330" lon="-16.4400020">
        <ele>1308.9</ele>
        <time>2020-11-11T12:15:39Z</time>
      </trkpt>
      <trkpt lat="28.4051330" lon="-16.4400020">
        <ele>1308.9</ele>
        <time>2020-11-11T12:15:40Z</time>
      </trkpt>
      <trkpt lat="28.4051050" lon="-16.4400100">
        <ele>1309.9</ele>
        <time>2020-11-11T12:15:41Z</time>
      </trkpt>
      <trkpt lat="28.4051050" lon="-16.4400100">
        <ele>1309.9</ele>
        <time>2020-11-11T12:15:42Z</time>
      </trkpt>
      <trkpt lat="28.4050950" lon="-16.4400220">
        <ele>1309.9</ele>
        <time>2020-11-11T12:15:43Z</time>
      </trkpt>
      <trkpt lat="28.4050950" lon="-16.4400220">
        <ele>1309.9</ele>
        <time>2020-11-11T12:15:44Z</time>
      </trkpt>
      <trkpt lat="28.4050800" lon="-16.4400130">
        <ele>1309.9</ele>
        <time>2020-11-11T12:15:45Z</time>
      </trkpt>
      <trkpt lat="28.4050720" lon="-16.4400170">
        <ele>1309.9</ele>
        <time>2020-11-11T12:15:46Z</time>
      </trkpt>
      <trkpt lat="28.4050620" lon="-16.4400220">
        <ele>1310.9</ele>
        <time>2020-11-11T12:15:47Z</time>
      </trkpt>
      <trkpt lat="28.4050620" lon="-16.4400220">
        <ele>1310.9</ele>
        <time>2020-11-11T12:15:48Z</time>
      </trkpt>
      <trkpt lat="28.4050380" lon="-16.4400370">
        <ele>1310.9</ele>
        <time>2020-11-11T12:15:49Z</time>
      </trkpt>
      <trkpt lat="28.4050380" lon="-16.4400370">
        <ele>1310.9</ele>
        <time>2020-11-11T12:15:50Z</time>
      </trkpt>
      <trkpt lat="28.4050130" lon="-16.4400320">
        <ele>1311.9</ele>
        <time>2020-11-11T12:15:51Z</time>
      </trkpt>
      <trkpt lat="28.4050130" lon="-16.4400320">
        <ele>1311.9</ele>
        <time>2020-11-11T12:15:52Z</time>
      </trkpt>
      <trkpt lat="28.4049900" lon="-16.4400380">
        <ele>1311.9</ele>
        <time>2020-11-11T12:15:53Z</time>
      </trkpt>
      <trkpt lat="28.4049900" lon="-16.4400380">
        <ele>1312.9</ele>
        <time>2020-11-11T12:15:54Z</time>
      </trkpt>
      <trkpt lat="28.4049770" lon="-16.4400320">
        <ele>1312.9</ele>
        <time>2020-11-11T12:15:55Z</time>
      </trkpt>
      <trkpt lat="28.4049770" lon="-16.4400320">
        <ele>1312.9</ele>
        <time>2020-11-11T12:15:56Z</time>
      </trkpt>
      <trkpt lat="28.4049550" lon="-16.4400280">
        <ele>1312.9</ele>
        <time>2020-11-11T12:15:57Z</time>
      </trkpt>
      <trkpt lat="28.4049550" lon="-16.4400280">
        <ele>1313.9</ele>
        <time>2020-11-11T12:15:58Z</time>
      </trkpt>
      <trkpt lat="28.4049350" lon="-16.4400300">
        <ele>1313.9</ele>
        <time>2020-11-11T12:15:59Z</time>
      </trkpt>
      <trkpt lat="28.4049350" lon="-16.4400300">
        <ele>1313.9</ele>
        <time>2020-11-11T12:16:00Z</time>
      </trkpt>
      <trkpt lat="28.4049080" lon="-16.4400350">
        <ele>1313.9</ele>
        <time>2020-11-11T12:16:01Z</time>
      </trkpt>
      <trkpt lat="28.4049080" lon="-16.4400350">
        <ele>1313.9</ele>
        <time>2020-11-11T12:16:02Z</time>
      </trkpt>
      <trkpt lat="28.4048950" lon="-16.4400400">
        <ele>1313.9</ele>
        <time>2020-11-11T12:16:03Z</time>
      </trkpt>
      <trkpt lat="28.4048950" lon="-16.4400400">
        <ele>1314.9</ele>
        <time>2020-11-11T12:16:04Z</time>
      </trkpt>
      <trkpt lat="28.4048700" lon="-16.4400370">
        <ele>1314.9</ele>
        <time>2020-11-11T12:16:05Z</time>
      </trkpt>
      <trkpt lat="28.4048580" lon="-16.4400430">
        <ele>1314.9</ele>
        <time>2020-11-11T12:16:06Z</time>
      </trkpt>
      <trkpt lat="28.4048580" lon="-16.4400430">
        <ele>1314.9</ele>
        <time>2020-11-11T12:16:07Z</time>
      </trkpt>
      <trkpt lat="28.4048350" lon="-16.4400650">
        <ele>1314.9</ele>
        <time>2020-11-11T12:16:08Z</time>
      </trkpt>
      <trkpt lat="28.4048350" lon="-16.4400650">
        <ele>1314.9</ele>
        <time>2020-11-11T12:16:09Z</time>
      </trkpt>
      <trkpt lat="28.4048100" lon="-16.4400950">
        <ele>1315.9</ele>
        <time>2020-11-11T12:16:10Z</time>
      </trkpt>
      <trkpt lat="28.4048100" lon="-16.4400950">
        <ele>1315.9</ele>
        <time>2020-11-11T12:16:11Z</time>
      </trkpt>
      <trkpt lat="28.4047880" lon="-16.4401080">
        <ele>1315.9</ele>
        <time>2020-11-11T12:16:12Z</time>
      </trkpt>
      <trkpt lat="28.4047880" lon="-16.4401080">
        <ele>1315.9</ele>
        <time>2020-11-11T12:16:13Z</time>
      </trkpt>
      <trkpt lat="28.4047480" lon="-16.4401250">
        <ele>1315.9</ele>
        <time>2020-11-11T12:16:14Z</time>
      </trkpt>
      <trkpt lat="28.4047480" lon="-16.4401250">
        <ele>1315.9</ele>
        <time>2020-11-11T12:16:15Z</time>
      </trkpt>
      <trkpt lat="28.4047200" lon="-16.4401230">
        <ele>1315.9</ele>
        <time>2020-11-11T12:16:16Z</time>
      </trkpt>
      <trkpt lat="28.4047200" lon="-16.4401230">
        <ele>1315.9</ele>
        <time>2020-11-11T12:16:17Z</time>
      </trkpt>
      <trkpt lat="28.4046830" lon="-16.4401350">
        <ele>1316.9</ele>
        <time>2020-11-11T12:16:18Z</time>
      </trkpt>
      <trkpt lat="28.4046620" lon="-16.4401420">
        <ele>1316.9</ele>
        <time>2020-11-11T12:16:19Z</time>
      </trkpt>
      <trkpt lat="28.4046620" lon="-16.4401420">
        <ele>1316.9</ele>
        <time>2020-11-11T12:16:20Z</time>
      </trkpt>
      <trkpt lat="28.4046270" lon="-16.4401500">
        <ele>1316.9</ele>
        <time>2020-11-11T12:16:21Z</time>
      </trkpt>
      <trkpt lat="28.4046020" lon="-16.4401520">
        <ele>1316.9</ele>
        <time>2020-11-11T12:16:22Z</time>
      </trkpt>
      <trkpt lat="28.4046020" lon="-16.4401520">
        <ele>1316.9</ele>
        <time>2020-11-11T12:16:23Z</time>
      </trkpt>
      <trkpt lat="28.4045550" lon="-16.4401580">
        <ele>1317.9</ele>
        <time>2020-11-11T12:16:24Z</time>
      </trkpt>
      <trkpt lat="28.4045300" lon="-16.4401620">
        <ele>1317.9</ele>
        <time>2020-11-11T12:16:25Z</time>
      </trkpt>
      <trkpt lat="28.4045300" lon="-16.4401620">
        <ele>1317.9</ele>
        <time>2020-11-11T12:16:26Z</time>
      </trkpt>
      <trkpt lat="28.4045020" lon="-16.4401680">
        <ele>1317.9</ele>
        <time>2020-11-11T12:16:27Z</time>
      </trkpt>
      <trkpt lat="28.4044870" lon="-16.4401700">
        <ele>1317.9</ele>
        <time>2020-11-11T12:16:28Z</time>
      </trkpt>
      <trkpt lat="28.4044870" lon="-16.4401700">
        <ele>1317.9</ele>
        <time>2020-11-11T12:16:29Z</time>
      </trkpt>
      <trkpt lat="28.4044600" lon="-16.4401730">
        <ele>1317.9</ele>
        <time>2020-11-11T12:16:30Z</time>
      </trkpt>
      <trkpt lat="28.4044350" lon="-16.4401770">
        <ele>1317.9</ele>
        <time>2020-11-11T12:16:31Z</time>
      </trkpt>
      <trkpt lat="28.4044350" lon="-16.4401770">
        <ele>1317.9</ele>
        <time>2020-11-11T12:16:32Z</time>
      </trkpt>
      <trkpt lat="28.4043930" lon="-16.4401750">
        <ele>1317.9</ele>
        <time>2020-11-11T12:16:33Z</time>
      </trkpt>
      <trkpt lat="28.4043930" lon="-16.4401750">
        <ele>1317.9</ele>
        <time>2020-11-11T12:16:34Z</time>
      </trkpt>
      <trkpt lat="28.4043750" lon="-16.4401850">
        <ele>1317.9</ele>
        <time>2020-11-11T12:16:35Z</time>
      </trkpt>
      <trkpt lat="28.4043750" lon="-16.4401850">
        <ele>1317.9</ele>
        <time>2020-11-11T12:16:36Z</time>
      </trkpt>
      <trkpt lat="28.4043600" lon="-16.4402000">
        <ele>1317.9</ele>
        <time>2020-11-11T12:16:37Z</time>
      </trkpt>
      <trkpt lat="28.4043600" lon="-16.4402000">
        <ele>1317.9</ele>
        <time>2020-11-11T12:16:38Z</time>
      </trkpt>
      <trkpt lat="28.4043530" lon="-16.4402250">
        <ele>1318.9</ele>
        <time>2020-11-11T12:16:39Z</time>
      </trkpt>
      <trkpt lat="28.4043530" lon="-16.4402250">
        <ele>1318.9</ele>
        <time>2020-11-11T12:16:40Z</time>
      </trkpt>
      <trkpt lat="28.4042920" lon="-16.4403200">
        <ele>1318.9</ele>
        <time>2020-11-11T12:16:41Z</time>
      </trkpt>
      <trkpt lat="28.4042920" lon="-16.4403200">
        <ele>1318.9</ele>
        <time>2020-11-11T12:16:42Z</time>
      </trkpt>
      <trkpt lat="28.4042620" lon="-16.4404400">
        <ele>1319.9</ele>
        <time>2020-11-11T12:16:43Z</time>
      </trkpt>
      <trkpt lat="28.4042620" lon="-16.4404400">
        <ele>1319.9</ele>
        <time>2020-11-11T12:16:44Z</time>
      </trkpt>
      <trkpt lat="28.4042520" lon="-16.4405130">
        <ele>1319.9</ele>
        <time>2020-11-11T12:16:45Z</time>
      </trkpt>
      <trkpt lat="28.4042520" lon="-16.4405130">
        <ele>1319.9</ele>
        <time>2020-11-11T12:16:46Z</time>
      </trkpt>
      <trkpt lat="28.4042430" lon="-16.4405720">
        <ele>1319.9</ele>
        <time>2020-11-11T12:16:47Z</time>
      </trkpt>
      <trkpt lat="28.4042380" lon="-16.4405900">
        <ele>1319.9</ele>
        <time>2020-11-11T12:16:48Z</time>
      </trkpt>
      <trkpt lat="28.4042380" lon="-16.4405900">
        <ele>1319.9</ele>
        <time>2020-11-11T12:16:49Z</time>
      </trkpt>
      <trkpt lat="28.4042300" lon="-16.4406270">
        <ele>1319.9</ele>
        <time>2020-11-11T12:16:50Z</time>
      </trkpt>
      <trkpt lat="28.4042220" lon="-16.4406570">
        <ele>1320.9</ele>
        <time>2020-11-11T12:16:51Z</time>
      </trkpt>
      <trkpt lat="28.4042220" lon="-16.4406570">
        <ele>1320.9</ele>
        <time>2020-11-11T12:16:52Z</time>
      </trkpt>
      <trkpt lat="28.4042230" lon="-16.4407000">
        <ele>1320.9</ele>
        <time>2020-11-11T12:16:53Z</time>
      </trkpt>
      <trkpt lat="28.4042230" lon="-16.4407000">
        <ele>1320.9</ele>
        <time>2020-11-11T12:16:54Z</time>
      </trkpt>
      <trkpt lat="28.4042370" lon="-16.4407450">
        <ele>1321.9</ele>
        <time>2020-11-11T12:16:55Z</time>
      </trkpt>
      <trkpt lat="28.4042370" lon="-16.4407450">
        <ele>1321.9</ele>
        <time>2020-11-11T12:16:56Z</time>
      </trkpt>
      <trkpt lat="28.4042550" lon="-16.4408020">
        <ele>1321.9</ele>
        <time>2020-11-11T12:16:57Z</time>
      </trkpt>
      <trkpt lat="28.4042550" lon="-16.4408020">
        <ele>1321.9</ele>
        <time>2020-11-11T12:16:58Z</time>
      </trkpt>
      <trkpt lat="28.4042620" lon="-16.4408480">
        <ele>1321.9</ele>
        <time>2020-11-11T12:16:59Z</time>
      </trkpt>
      <trkpt lat="28.4042600" lon="-16.4408570">
        <ele>1321.9</ele>
        <time>2020-11-11T12:17:00Z</time>
      </trkpt>
      <trkpt lat="28.4042600" lon="-16.4408570">
        <ele>1322.9</ele>
        <time>2020-11-11T12:17:01Z</time>
      </trkpt>
      <trkpt lat="28.4042630" lon="-16.4408870">
        <ele>1322.9</ele>
        <time>2020-11-11T12:17:02Z</time>
      </trkpt>
      <trkpt lat="28.4042630" lon="-16.4408870">
        <ele>1322.9</ele>
        <time>2020-11-11T12:17:03Z</time>
      </trkpt>
      <trkpt lat="28.4042580" lon="-16.4409180">
        <ele>1322.9</ele>
        <time>2020-11-11T12:17:04Z</time>
      </trkpt>
      <trkpt lat="28.4042630" lon="-16.4409380">
        <ele>1322.9</ele>
        <time>2020-11-11T12:17:05Z</time>
      </trkpt>
      <trkpt lat="28.4042630" lon="-16.4409380">
        <ele>1322.9</ele>
        <time>2020-11-11T12:17:06Z</time>
      </trkpt>
      <trkpt lat="28.4042700" lon="-16.4409900">
        <ele>1323.9</ele>
        <time>2020-11-11T12:17:07Z</time>
      </trkpt>
      <trkpt lat="28.4042700" lon="-16.4409900">
        <ele>1323.9</ele>
        <time>2020-11-11T12:17:08Z</time>
      </trkpt>
      <trkpt lat="28.4042680" lon="-16.4410380">
        <ele>1323.9</ele>
        <time>2020-11-11T12:17:09Z</time>
      </trkpt>
      <trkpt lat="28.4042680" lon="-16.4410380">
        <ele>1323.9</ele>
        <time>2020-11-11T12:17:10Z</time>
      </trkpt>
      <trkpt lat="28.4042530" lon="-16.4410800">
        <ele>1323.9</ele>
        <time>2020-11-11T12:17:11Z</time>
      </trkpt>
      <trkpt lat="28.4042530" lon="-16.4410800">
        <ele>1323.9</ele>
        <time>2020-11-11T12:17:12Z</time>
      </trkpt>
      <trkpt lat="28.4042350" lon="-16.4411230">
        <ele>1323.9</ele>
        <time>2020-11-11T12:17:13Z</time>
      </trkpt>
      <trkpt lat="28.4042350" lon="-16.4411230">
        <ele>1323.9</ele>
        <time>2020-11-11T12:17:14Z</time>
      </trkpt>
      <trkpt lat="28.4041980" lon="-16.4411420">
        <ele>1323.9</ele>
        <time>2020-11-11T12:17:15Z</time>
      </trkpt>
      <trkpt lat="28.4041850" lon="-16.4411430">
        <ele>1324.9</ele>
        <time>2020-11-11T12:17:16Z</time>
      </trkpt>
      <trkpt lat="28.4041850" lon="-16.4411430">
        <ele>1324.9</ele>
        <time>2020-11-11T12:17:17Z</time>
      </trkpt>
      <trkpt lat="28.4041620" lon="-16.4411300">
        <ele>1324.9</ele>
        <time>2020-11-11T12:17:18Z</time>
      </trkpt>
      <trkpt lat="28.4041620" lon="-16.4411300">
        <ele>1324.9</ele>
        <time>2020-11-11T12:17:19Z</time>
      </trkpt>
      <trkpt lat="28.4041470" lon="-16.4411250">
        <ele>1324.9</ele>
        <time>2020-11-11T12:17:20Z</time>
      </trkpt>
      <trkpt lat="28.4041470" lon="-16.4411250">
        <ele>1324.9</ele>
        <time>2020-11-11T12:17:21Z</time>
      </trkpt>
      <trkpt lat="28.4041120" lon="-16.4411150">
        <ele>1325.9</ele>
        <time>2020-11-11T12:17:22Z</time>
      </trkpt>
      <trkpt lat="28.4040830" lon="-16.4411050">
        <ele>1325.9</ele>
        <time>2020-11-11T12:17:23Z</time>
      </trkpt>
      <trkpt lat="28.4040830" lon="-16.4411050">
        <ele>1325.9</ele>
        <time>2020-11-11T12:17:24Z</time>
      </trkpt>
      <trkpt lat="28.4040470" lon="-16.4410980">
        <ele>1325.9</ele>
        <time>2020-11-11T12:17:25Z</time>
      </trkpt>
      <trkpt lat="28.4040470" lon="-16.4410980">
        <ele>1326.9</ele>
        <time>2020-11-11T12:17:26Z</time>
      </trkpt>
      <trkpt lat="28.4040230" lon="-16.4410870">
        <ele>1326.9</ele>
        <time>2020-11-11T12:17:27Z</time>
      </trkpt>
      <trkpt lat="28.4040230" lon="-16.4410870">
        <ele>1326.9</ele>
        <time>2020-11-11T12:17:28Z</time>
      </trkpt>
      <trkpt lat="28.4040030" lon="-16.4410680">
        <ele>1326.9</ele>
        <time>2020-11-11T12:17:29Z</time>
      </trkpt>
      <trkpt lat="28.4040030" lon="-16.4410680">
        <ele>1326.9</ele>
        <time>2020-11-11T12:17:30Z</time>
      </trkpt>
      <trkpt lat="28.4039780" lon="-16.4410450">
        <ele>1326.9</ele>
        <time>2020-11-11T12:17:31Z</time>
      </trkpt>
      <trkpt lat="28.4039780" lon="-16.4410450">
        <ele>1327.9</ele>
        <time>2020-11-11T12:17:32Z</time>
      </trkpt>
      <trkpt lat="28.4039550" lon="-16.4410270">
        <ele>1327.9</ele>
        <time>2020-11-11T12:17:33Z</time>
      </trkpt>
      <trkpt lat="28.4039420" lon="-16.4410280">
        <ele>1327.9</ele>
        <time>2020-11-11T12:17:34Z</time>
      </trkpt>
      <trkpt lat="28.4039420" lon="-16.4410280">
        <ele>1327.9</ele>
        <time>2020-11-11T12:17:35Z</time>
      </trkpt>
      <trkpt lat="28.4039180" lon="-16.4410280">
        <ele>1328.9</ele>
        <time>2020-11-11T12:17:36Z</time>
      </trkpt>
      <trkpt lat="28.4039100" lon="-16.4410280">
        <ele>1328.9</ele>
        <time>2020-11-11T12:17:37Z</time>
      </trkpt>
      <trkpt lat="28.4039100" lon="-16.4410280">
        <ele>1328.9</ele>
        <time>2020-11-11T12:17:38Z</time>
      </trkpt>
      <trkpt lat="28.4038770" lon="-16.4410250">
        <ele>1328.9</ele>
        <time>2020-11-11T12:17:39Z</time>
      </trkpt>
      <trkpt lat="28.4038770" lon="-16.4410250">
        <ele>1329.9</ele>
        <time>2020-11-11T12:17:40Z</time>
      </trkpt>
      <trkpt lat="28.4038570" lon="-16.4410350">
        <ele>1329.9</ele>
        <time>2020-11-11T12:17:41Z</time>
      </trkpt>
      <trkpt lat="28.4038570" lon="-16.4410350">
        <ele>1329.9</ele>
        <time>2020-11-11T12:17:42Z</time>
      </trkpt>
      <trkpt lat="28.4038300" lon="-16.4410430">
        <ele>1329.9</ele>
        <time>2020-11-11T12:17:43Z</time>
      </trkpt>
      <trkpt lat="28.4038300" lon="-16.4410430">
        <ele>1330.9</ele>
        <time>2020-11-11T12:17:44Z</time>
      </trkpt>
      <trkpt lat="28.4037720" lon="-16.4409930">
        <ele>1330.9</ele>
        <time>2020-11-11T12:17:45Z</time>
      </trkpt>
      <trkpt lat="28.4037720" lon="-16.4409930">
        <ele>1330.9</ele>
        <time>2020-11-11T12:17:46Z</time>
      </trkpt>
      <trkpt lat="28.4037450" lon="-16.4409630">
        <ele>1331.9</ele>
        <time>2020-11-11T12:17:47Z</time>
      </trkpt>
      <trkpt lat="28.4037200" lon="-16.4409430">
        <ele>1331.9</ele>
        <time>2020-11-11T12:17:48Z</time>
      </trkpt>
      <trkpt lat="28.4037200" lon="-16.4409430">
        <ele>1331.9</ele>
        <time>2020-11-11T12:17:49Z</time>
      </trkpt>
      <trkpt lat="28.4036780" lon="-16.4409470">
        <ele>1331.9</ele>
        <time>2020-11-11T12:17:50Z</time>
      </trkpt>
      <trkpt lat="28.4036630" lon="-16.4409450">
        <ele>1331.9</ele>
        <time>2020-11-11T12:17:51Z</time>
      </trkpt>
      <trkpt lat="28.4036630" lon="-16.4409450">
        <ele>1331.9</ele>
        <time>2020-11-11T12:17:52Z</time>
      </trkpt>
      <trkpt lat="28.4036150" lon="-16.4409450">
        <ele>1332.9</ele>
        <time>2020-11-11T12:17:53Z</time>
      </trkpt>
      <trkpt lat="28.4036150" lon="-16.4409450">
        <ele>1332.9</ele>
        <time>2020-11-11T12:17:54Z</time>
      </trkpt>
      <trkpt lat="28.4035850" lon="-16.4409620">
        <ele>1332.9</ele>
        <time>2020-11-11T12:17:55Z</time>
      </trkpt>
      <trkpt lat="28.4035850" lon="-16.4409620">
        <ele>1332.9</ele>
        <time>2020-11-11T12:17:56Z</time>
      </trkpt>
      <trkpt lat="28.4035480" lon="-16.4409600">
        <ele>1332.9</ele>
        <time>2020-11-11T12:17:57Z</time>
      </trkpt>
      <trkpt lat="28.4035480" lon="-16.4409600">
        <ele>1332.9</ele>
        <time>2020-11-11T12:17:58Z</time>
      </trkpt>
      <trkpt lat="28.4035150" lon="-16.4409580">
        <ele>1333.9</ele>
        <time>2020-11-11T12:17:59Z</time>
      </trkpt>
      <trkpt lat="28.4035150" lon="-16.4409580">
        <ele>1333.9</ele>
        <time>2020-11-11T12:18:00Z</time>
      </trkpt>
      <trkpt lat="28.4034800" lon="-16.4409700">
        <ele>1333.9</ele>
        <time>2020-11-11T12:18:01Z</time>
      </trkpt>
      <trkpt lat="28.4034800" lon="-16.4409700">
        <ele>1333.9</ele>
        <time>2020-11-11T12:18:02Z</time>
      </trkpt>
      <trkpt lat="28.4034420" lon="-16.4409750">
        <ele>1333.9</ele>
        <time>2020-11-11T12:18:03Z</time>
      </trkpt>
      <trkpt lat="28.4034230" lon="-16.4409750">
        <ele>1333.9</ele>
        <time>2020-11-11T12:18:04Z</time>
      </trkpt>
      <trkpt lat="28.4034230" lon="-16.4409750">
        <ele>1333.9</ele>
        <time>2020-11-11T12:18:05Z</time>
      </trkpt>
      <trkpt lat="28.4033850" lon="-16.4409670">
        <ele>1333.9</ele>
        <time>2020-11-11T12:18:06Z</time>
      </trkpt>
      <trkpt lat="28.4033850" lon="-16.4409670">
        <ele>1333.9</ele>
        <time>2020-11-11T12:18:07Z</time>
      </trkpt>
      <trkpt lat="28.4033430" lon="-16.4409750">
        <ele>1333.9</ele>
        <time>2020-11-11T12:18:08Z</time>
      </trkpt>
      <trkpt lat="28.4033430" lon="-16.4409750">
        <ele>1333.9</ele>
        <time>2020-11-11T12:18:09Z</time>
      </trkpt>
      <trkpt lat="28.4033080" lon="-16.4409750">
        <ele>1333.9</ele>
        <time>2020-11-11T12:18:10Z</time>
      </trkpt>
      <trkpt lat="28.4032970" lon="-16.4409770">
        <ele>1335.9</ele>
        <time>2020-11-11T12:18:11Z</time>
      </trkpt>
      <trkpt lat="28.4032970" lon="-16.4409770">
        <ele>1335.9</ele>
        <time>2020-11-11T12:18:12Z</time>
      </trkpt>
      <trkpt lat="28.4032670" lon="-16.4409820">
        <ele>1335.9</ele>
        <time>2020-11-11T12:18:13Z</time>
      </trkpt>
      <trkpt lat="28.4032670" lon="-16.4409820">
        <ele>1335.9</ele>
        <time>2020-11-11T12:18:14Z</time>
      </trkpt>
      <trkpt lat="28.4032330" lon="-16.4409980">
        <ele>1335.9</ele>
        <time>2020-11-11T12:18:15Z</time>
      </trkpt>
      <trkpt lat="28.4032330" lon="-16.4409980">
        <ele>1335.9</ele>
        <time>2020-11-11T12:18:16Z</time>
      </trkpt>
      <trkpt lat="28.4031920" lon="-16.4410120">
        <ele>1335.9</ele>
        <time>2020-11-11T12:18:17Z</time>
      </trkpt>
      <trkpt lat="28.4031920" lon="-16.4410120">
        <ele>1335.9</ele>
        <time>2020-11-11T12:18:18Z</time>
      </trkpt>
      <trkpt lat="28.4031480" lon="-16.4410180">
        <ele>1335.9</ele>
        <time>2020-11-11T12:18:19Z</time>
      </trkpt>
      <trkpt lat="28.4031370" lon="-16.4410180">
        <ele>1336.9</ele>
        <time>2020-11-11T12:18:20Z</time>
      </trkpt>
      <trkpt lat="28.4031370" lon="-16.4410180">
        <ele>1336.9</ele>
        <time>2020-11-11T12:18:21Z</time>
      </trkpt>
      <trkpt lat="28.4031230" lon="-16.4410100">
        <ele>1336.9</ele>
        <time>2020-11-11T12:18:22Z</time>
      </trkpt>
      <trkpt lat="28.4031230" lon="-16.4410100">
        <ele>1337.9</ele>
        <time>2020-11-11T12:18:23Z</time>
      </trkpt>
      <trkpt lat="28.4031020" lon="-16.4410050">
        <ele>1337.9</ele>
        <time>2020-11-11T12:18:24Z</time>
      </trkpt>
      <trkpt lat="28.4030950" lon="-16.4410050">
        <ele>1337.9</ele>
        <time>2020-11-11T12:18:25Z</time>
      </trkpt>
      <trkpt lat="28.4030950" lon="-16.4410050">
        <ele>1337.9</ele>
        <time>2020-11-11T12:18:26Z</time>
      </trkpt>
      <trkpt lat="28.4030750" lon="-16.4410100">
        <ele>1337.9</ele>
        <time>2020-11-11T12:18:27Z</time>
      </trkpt>
      <trkpt lat="28.4030750" lon="-16.4410100">
        <ele>1337.9</ele>
        <time>2020-11-11T12:18:28Z</time>
      </trkpt>
      <trkpt lat="28.4030650" lon="-16.4410120">
        <ele>1338.9</ele>
        <time>2020-11-11T12:18:29Z</time>
      </trkpt>
      <trkpt lat="28.4030550" lon="-16.4410130">
        <ele>1338.9</ele>
        <time>2020-11-11T12:18:30Z</time>
      </trkpt>
      <trkpt lat="28.4030430" lon="-16.4410120">
        <ele>1338.9</ele>
        <time>2020-11-11T12:18:31Z</time>
      </trkpt>
      <trkpt lat="28.4030430" lon="-16.4410120">
        <ele>1338.9</ele>
        <time>2020-11-11T12:18:32Z</time>
      </trkpt>
      <trkpt lat="28.4030120" lon="-16.4410080">
        <ele>1338.9</ele>
        <time>2020-11-11T12:18:33Z</time>
      </trkpt>
      <trkpt lat="28.4030120" lon="-16.4410080">
        <ele>1338.9</ele>
        <time>2020-11-11T12:18:34Z</time>
      </trkpt>
      <trkpt lat="28.4029830" lon="-16.4410200">
        <ele>1339.9</ele>
        <time>2020-11-11T12:18:35Z</time>
      </trkpt>
      <trkpt lat="28.4029700" lon="-16.4410200">
        <ele>1339.9</ele>
        <time>2020-11-11T12:18:36Z</time>
      </trkpt>
      <trkpt lat="28.4029520" lon="-16.4410180">
        <ele>1339.9</ele>
        <time>2020-11-11T12:18:37Z</time>
      </trkpt>
      <trkpt lat="28.4029520" lon="-16.4410180">
        <ele>1339.9</ele>
        <time>2020-11-11T12:18:38Z</time>
      </trkpt>
      <trkpt lat="28.4029180" lon="-16.4410220">
        <ele>1339.9</ele>
        <time>2020-11-11T12:18:39Z</time>
      </trkpt>
      <trkpt lat="28.4029180" lon="-16.4410220">
        <ele>1339.9</ele>
        <time>2020-11-11T12:18:40Z</time>
      </trkpt>
      <trkpt lat="28.4028780" lon="-16.4410330">
        <ele>1340.9</ele>
        <time>2020-11-11T12:18:41Z</time>
      </trkpt>
      <trkpt lat="28.4028780" lon="-16.4410330">
        <ele>1340.9</ele>
        <time>2020-11-11T12:18:42Z</time>
      </trkpt>
      <trkpt lat="28.4028380" lon="-16.4410320">
        <ele>1340.9</ele>
        <time>2020-11-11T12:18:43Z</time>
      </trkpt>
      <trkpt lat="28.4028380" lon="-16.4410320">
        <ele>1340.9</ele>
        <time>2020-11-11T12:18:44Z</time>
      </trkpt>
      <trkpt lat="28.4027980" lon="-16.4410220">
        <ele>1340.9</ele>
        <time>2020-11-11T12:18:45Z</time>
      </trkpt>
      <trkpt lat="28.4027800" lon="-16.4410120">
        <ele>1340.9</ele>
        <time>2020-11-11T12:18:46Z</time>
      </trkpt>
      <trkpt lat="28.4027800" lon="-16.4410120">
        <ele>1340.9</ele>
        <time>2020-11-11T12:18:47Z</time>
      </trkpt>
      <trkpt lat="28.4027330" lon="-16.4409950">
        <ele>1341.9</ele>
        <time>2020-11-11T12:18:48Z</time>
      </trkpt>
      <trkpt lat="28.4027330" lon="-16.4409950">
        <ele>1341.9</ele>
        <time>2020-11-11T12:18:49Z</time>
      </trkpt>
      <trkpt lat="28.4026870" lon="-16.4409750">
        <ele>1341.9</ele>
        <time>2020-11-11T12:18:50Z</time>
      </trkpt>
      <trkpt lat="28.4026650" lon="-16.4409580">
        <ele>1341.9</ele>
        <time>2020-11-11T12:18:51Z</time>
      </trkpt>
      <trkpt lat="28.4026650" lon="-16.4409580">
        <ele>1341.9</ele>
        <time>2020-11-11T12:18:52Z</time>
      </trkpt>
      <trkpt lat="28.4025900" lon="-16.4409750">
        <ele>1341.9</ele>
        <time>2020-11-11T12:18:53Z</time>
      </trkpt>
      <trkpt lat="28.4025720" lon="-16.4409620">
        <ele>1341.9</ele>
        <time>2020-11-11T12:18:54Z</time>
      </trkpt>
      <trkpt lat="28.4025720" lon="-16.4409620">
        <ele>1342.9</ele>
        <time>2020-11-11T12:18:55Z</time>
      </trkpt>
      <trkpt lat="28.4025270" lon="-16.4409450">
        <ele>1342.9</ele>
        <time>2020-11-11T12:18:56Z</time>
      </trkpt>
      <trkpt lat="28.4025270" lon="-16.4409450">
        <ele>1342.9</ele>
        <time>2020-11-11T12:18:57Z</time>
      </trkpt>
      <trkpt lat="28.4024750" lon="-16.4409430">
        <ele>1342.9</ele>
        <time>2020-11-11T12:18:58Z</time>
      </trkpt>
      <trkpt lat="28.4024570" lon="-16.4409250">
        <ele>1342.9</ele>
        <time>2020-11-11T12:18:59Z</time>
      </trkpt>
      <trkpt lat="28.4024570" lon="-16.4409250">
        <ele>1342.9</ele>
        <time>2020-11-11T12:19:00Z</time>
      </trkpt>
      <trkpt lat="28.4024270" lon="-16.4408920">
        <ele>1342.9</ele>
        <time>2020-11-11T12:19:01Z</time>
      </trkpt>
      <trkpt lat="28.4024150" lon="-16.4408800">
        <ele>1343.9</ele>
        <time>2020-11-11T12:19:02Z</time>
      </trkpt>
      <trkpt lat="28.4024150" lon="-16.4408800">
        <ele>1343.9</ele>
        <time>2020-11-11T12:19:03Z</time>
      </trkpt>
      <trkpt lat="28.4023750" lon="-16.4408700">
        <ele>1343.9</ele>
        <time>2020-11-11T12:19:04Z</time>
      </trkpt>
      <trkpt lat="28.4023600" lon="-16.4408670">
        <ele>1343.9</ele>
        <time>2020-11-11T12:19:05Z</time>
      </trkpt>
      <trkpt lat="28.4023600" lon="-16.4408670">
        <ele>1343.9</ele>
        <time>2020-11-11T12:19:06Z</time>
      </trkpt>
      <trkpt lat="28.4023130" lon="-16.4408780">
        <ele>1343.9</ele>
        <time>2020-11-11T12:19:07Z</time>
      </trkpt>
      <trkpt lat="28.4023130" lon="-16.4408780">
        <ele>1343.9</ele>
        <time>2020-11-11T12:19:08Z</time>
      </trkpt>
      <trkpt lat="28.4022650" lon="-16.4408900">
        <ele>1343.9</ele>
        <time>2020-11-11T12:19:09Z</time>
      </trkpt>
      <trkpt lat="28.4022220" lon="-16.4408930">
        <ele>1343.9</ele>
        <time>2020-11-11T12:19:10Z</time>
      </trkpt>
      <trkpt lat="28.4021880" lon="-16.4408970">
        <ele>1343.9</ele>
        <time>2020-11-11T12:19:11Z</time>
      </trkpt>
      <trkpt lat="28.4021880" lon="-16.4408970">
        <ele>1343.9</ele>
        <time>2020-11-11T12:19:12Z</time>
      </trkpt>
      <trkpt lat="28.4021280" lon="-16.4408870">
        <ele>1343.9</ele>
        <time>2020-11-11T12:19:13Z</time>
      </trkpt>
      <trkpt lat="28.4021280" lon="-16.4408870">
        <ele>1344.9</ele>
        <time>2020-11-11T12:19:14Z</time>
      </trkpt>
      <trkpt lat="28.4021030" lon="-16.4408180">
        <ele>1344.9</ele>
        <time>2020-11-11T12:19:15Z</time>
      </trkpt>
      <trkpt lat="28.4021030" lon="-16.4408180">
        <ele>1344.9</ele>
        <time>2020-11-11T12:19:16Z</time>
      </trkpt>
      <trkpt lat="28.4020650" lon="-16.4407780">
        <ele>1344.9</ele>
        <time>2020-11-11T12:19:17Z</time>
      </trkpt>
      <trkpt lat="28.4020650" lon="-16.4407780">
        <ele>1344.9</ele>
        <time>2020-11-11T12:19:18Z</time>
      </trkpt>
      <trkpt lat="28.4020500" lon="-16.4407220">
        <ele>1344.9</ele>
        <time>2020-11-11T12:19:19Z</time>
      </trkpt>
      <trkpt lat="28.4020500" lon="-16.4407220">
        <ele>1344.9</ele>
        <time>2020-11-11T12:19:20Z</time>
      </trkpt>
      <trkpt lat="28.4020000" lon="-16.4406850">
        <ele>1344.9</ele>
        <time>2020-11-11T12:19:21Z</time>
      </trkpt>
      <trkpt lat="28.4020000" lon="-16.4406850">
        <ele>1344.9</ele>
        <time>2020-11-11T12:19:22Z</time>
      </trkpt>
      <trkpt lat="28.4019530" lon="-16.4406530">
        <ele>1344.9</ele>
        <time>2020-11-11T12:19:23Z</time>
      </trkpt>
      <trkpt lat="28.4019270" lon="-16.4406480">
        <ele>1344.9</ele>
        <time>2020-11-11T12:19:24Z</time>
      </trkpt>
      <trkpt lat="28.4019270" lon="-16.4406480">
        <ele>1344.9</ele>
        <time>2020-11-11T12:19:25Z</time>
      </trkpt>
      <trkpt lat="28.4018670" lon="-16.4406580">
        <ele>1344.9</ele>
        <time>2020-11-11T12:19:26Z</time>
      </trkpt>
      <trkpt lat="28.4018670" lon="-16.4406580">
        <ele>1344.9</ele>
        <time>2020-11-11T12:19:27Z</time>
      </trkpt>
      <trkpt lat="28.4018280" lon="-16.4406800">
        <ele>1344.9</ele>
        <time>2020-11-11T12:19:28Z</time>
      </trkpt>
      <trkpt lat="28.4018120" lon="-16.4407070">
        <ele>1344.9</ele>
        <time>2020-11-11T12:19:29Z</time>
      </trkpt>
      <trkpt lat="28.4018120" lon="-16.4407070">
        <ele>1344.9</ele>
        <time>2020-11-11T12:19:30Z</time>
      </trkpt>
      <trkpt lat="28.4017530" lon="-16.4408170">
        <ele>1344.9</ele>
        <time>2020-11-11T12:19:31Z</time>
      </trkpt>
      <trkpt lat="28.4017530" lon="-16.4408170">
        <ele>1344.9</ele>
        <time>2020-11-11T12:19:32Z</time>
      </trkpt>
      <trkpt lat="28.4017270" lon="-16.4409170">
        <ele>1344.9</ele>
        <time>2020-11-11T12:19:33Z</time>
      </trkpt>
      <trkpt lat="28.4017220" lon="-16.4409550">
        <ele>1344.9</ele>
        <time>2020-11-11T12:19:34Z</time>
      </trkpt>
      <trkpt lat="28.4017220" lon="-16.4409550">
        <ele>1344.9</ele>
        <time>2020-11-11T12:19:35Z</time>
      </trkpt>
      <trkpt lat="28.4017100" lon="-16.4410320">
        <ele>1344.9</ele>
        <time>2020-11-11T12:19:36Z</time>
      </trkpt>
      <trkpt lat="28.4017020" lon="-16.4410670">
        <ele>1344.9</ele>
        <time>2020-11-11T12:19:37Z</time>
      </trkpt>
      <trkpt lat="28.4017020" lon="-16.4410670">
        <ele>1344.9</ele>
        <time>2020-11-11T12:19:38Z</time>
      </trkpt>
      <trkpt lat="28.4016850" lon="-16.4411370">
        <ele>1344.9</ele>
        <time>2020-11-11T12:19:39Z</time>
      </trkpt>
      <trkpt lat="28.4016850" lon="-16.4411370">
        <ele>1344.9</ele>
        <time>2020-11-11T12:19:40Z</time>
      </trkpt>
      <trkpt lat="28.4016850" lon="-16.4411850">
        <ele>1344.9</ele>
        <time>2020-11-11T12:19:41Z</time>
      </trkpt>
      <trkpt lat="28.4016850" lon="-16.4411850">
        <ele>1344.9</ele>
        <time>2020-11-11T12:19:42Z</time>
      </trkpt>
      <trkpt lat="28.4017020" lon="-16.4412370">
        <ele>1345.9</ele>
        <time>2020-11-11T12:19:43Z</time>
      </trkpt>
      <trkpt lat="28.4017020" lon="-16.4412370">
        <ele>1345.9</ele>
        <time>2020-11-11T12:19:44Z</time>
      </trkpt>
      <trkpt lat="28.4017320" lon="-16.4412880">
        <ele>1345.9</ele>
        <time>2020-11-11T12:19:45Z</time>
      </trkpt>
      <trkpt lat="28.4017320" lon="-16.4412880">
        <ele>1345.9</ele>
        <time>2020-11-11T12:19:46Z</time>
      </trkpt>
      <trkpt lat="28.4017570" lon="-16.4413330">
        <ele>1346.9</ele>
        <time>2020-11-11T12:19:47Z</time>
      </trkpt>
      <trkpt lat="28.4017720" lon="-16.4413520">
        <ele>1346.9</ele>
        <time>2020-11-11T12:19:48Z</time>
      </trkpt>
      <trkpt lat="28.4017720" lon="-16.4413520">
        <ele>1346.9</ele>
        <time>2020-11-11T12:19:49Z</time>
      </trkpt>
      <trkpt lat="28.4017920" lon="-16.4413800">
        <ele>1346.9</ele>
        <time>2020-11-11T12:19:50Z</time>
      </trkpt>
      <trkpt lat="28.4017980" lon="-16.4413930">
        <ele>1346.9</ele>
        <time>2020-11-11T12:19:51Z</time>
      </trkpt>
      <trkpt lat="28.4017980" lon="-16.4413930">
        <ele>1346.9</ele>
        <time>2020-11-11T12:19:52Z</time>
      </trkpt>
      <trkpt lat="28.4018050" lon="-16.4414520">
        <ele>1346.9</ele>
        <time>2020-11-11T12:19:53Z</time>
      </trkpt>
      <trkpt lat="28.4018050" lon="-16.4414520">
        <ele>1347.9</ele>
        <time>2020-11-11T12:19:54Z</time>
      </trkpt>
      <trkpt lat="28.4018170" lon="-16.4415150">
        <ele>1347.9</ele>
        <time>2020-11-11T12:19:55Z</time>
      </trkpt>
      <trkpt lat="28.4018170" lon="-16.4415150">
        <ele>1347.9</ele>
        <time>2020-11-11T12:19:56Z</time>
      </trkpt>
      <trkpt lat="28.4018300" lon="-16.4415730">
        <ele>1347.9</ele>
        <time>2020-11-11T12:19:57Z</time>
      </trkpt>
      <trkpt lat="28.4018400" lon="-16.4415970">
        <ele>1347.9</ele>
        <time>2020-11-11T12:19:58Z</time>
      </trkpt>
      <trkpt lat="28.4018400" lon="-16.4415970">
        <ele>1347.9</ele>
        <time>2020-11-11T12:19:59Z</time>
      </trkpt>
      <trkpt lat="28.4018520" lon="-16.4416400">
        <ele>1347.9</ele>
        <time>2020-11-11T12:20:00Z</time>
      </trkpt>
      <trkpt lat="28.4018550" lon="-16.4416630">
        <ele>1347.9</ele>
        <time>2020-11-11T12:20:01Z</time>
      </trkpt>
      <trkpt lat="28.4018550" lon="-16.4416630">
        <ele>1347.9</ele>
        <time>2020-11-11T12:20:02Z</time>
      </trkpt>
      <trkpt lat="28.4018670" lon="-16.4417100">
        <ele>1347.9</ele>
        <time>2020-11-11T12:20:03Z</time>
      </trkpt>
      <trkpt lat="28.4018670" lon="-16.4417100">
        <ele>1348.9</ele>
        <time>2020-11-11T12:20:04Z</time>
      </trkpt>
      <trkpt lat="28.4018970" lon="-16.4417630">
        <ele>1348.9</ele>
        <time>2020-11-11T12:20:05Z</time>
      </trkpt>
      <trkpt lat="28.4018970" lon="-16.4417630">
        <ele>1348.9</ele>
        <time>2020-11-11T12:20:06Z</time>
      </trkpt>
      <trkpt lat="28.4019130" lon="-16.4418100">
        <ele>1348.9</ele>
        <time>2020-11-11T12:20:07Z</time>
      </trkpt>
      <trkpt lat="28.4019130" lon="-16.4418100">
        <ele>1348.9</ele>
        <time>2020-11-11T12:20:08Z</time>
      </trkpt>
      <trkpt lat="28.4019280" lon="-16.4418650">
        <ele>1348.9</ele>
        <time>2020-11-11T12:20:09Z</time>
      </trkpt>
      <trkpt lat="28.4019280" lon="-16.4418650">
        <ele>1348.9</ele>
        <time>2020-11-11T12:20:10Z</time>
      </trkpt>
      <trkpt lat="28.4019480" lon="-16.4419220">
        <ele>1348.9</ele>
        <time>2020-11-11T12:20:11Z</time>
      </trkpt>
      <trkpt lat="28.4019500" lon="-16.4419620">
        <ele>1349.9</ele>
        <time>2020-11-11T12:20:12Z</time>
      </trkpt>
      <trkpt lat="28.4019500" lon="-16.4419620">
        <ele>1349.9</ele>
        <time>2020-11-11T12:20:13Z</time>
      </trkpt>
      <trkpt lat="28.4019550" lon="-16.4420400">
        <ele>1349.9</ele>
        <time>2020-11-11T12:20:14Z</time>
      </trkpt>
      <trkpt lat="28.4019550" lon="-16.4420400">
        <ele>1349.9</ele>
        <time>2020-11-11T12:20:15Z</time>
      </trkpt>
      <trkpt lat="28.4019600" lon="-16.4421130">
        <ele>1349.9</ele>
        <time>2020-11-11T12:20:16Z</time>
      </trkpt>
      <trkpt lat="28.4019680" lon="-16.4421450">
        <ele>1349.9</ele>
        <time>2020-11-11T12:20:17Z</time>
      </trkpt>
      <trkpt lat="28.4019680" lon="-16.4421450">
        <ele>1349.9</ele>
        <time>2020-11-11T12:20:18Z</time>
      </trkpt>
      <trkpt lat="28.4019780" lon="-16.4422200">
        <ele>1349.9</ele>
        <time>2020-11-11T12:20:19Z</time>
      </trkpt>
      <trkpt lat="28.4019780" lon="-16.4422200">
        <ele>1349.9</ele>
        <time>2020-11-11T12:20:20Z</time>
      </trkpt>
      <trkpt lat="28.4019950" lon="-16.4422900">
        <ele>1350.9</ele>
        <time>2020-11-11T12:20:21Z</time>
      </trkpt>
      <trkpt lat="28.4019950" lon="-16.4422900">
        <ele>1350.9</ele>
        <time>2020-11-11T12:20:22Z</time>
      </trkpt>
      <trkpt lat="28.4020170" lon="-16.4423600">
        <ele>1350.9</ele>
        <time>2020-11-11T12:20:23Z</time>
      </trkpt>
      <trkpt lat="28.4020170" lon="-16.4423600">
        <ele>1350.9</ele>
        <time>2020-11-11T12:20:24Z</time>
      </trkpt>
      <trkpt lat="28.4020530" lon="-16.4424180">
        <ele>1350.9</ele>
        <time>2020-11-11T12:20:25Z</time>
      </trkpt>
      <trkpt lat="28.4020530" lon="-16.4424180">
        <ele>1350.9</ele>
        <time>2020-11-11T12:20:26Z</time>
      </trkpt>
      <trkpt lat="28.4021050" lon="-16.4424630">
        <ele>1350.9</ele>
        <time>2020-11-11T12:20:27Z</time>
      </trkpt>
      <trkpt lat="28.4021320" lon="-16.4424780">
        <ele>1350.9</ele>
        <time>2020-11-11T12:20:28Z</time>
      </trkpt>
      <trkpt lat="28.4021320" lon="-16.4424780">
        <ele>1350.9</ele>
        <time>2020-11-11T12:20:29Z</time>
      </trkpt>
      <trkpt lat="28.4021720" lon="-16.4424880">
        <ele>1350.9</ele>
        <time>2020-11-11T12:20:30Z</time>
      </trkpt>
      <trkpt lat="28.4021720" lon="-16.4424880">
        <ele>1350.9</ele>
        <time>2020-11-11T12:20:31Z</time>
      </trkpt>
      <trkpt lat="28.4022030" lon="-16.4424900">
        <ele>1350.9</ele>
        <time>2020-11-11T12:20:32Z</time>
      </trkpt>
      <trkpt lat="28.4022030" lon="-16.4424900">
        <ele>1350.9</ele>
        <time>2020-11-11T12:20:33Z</time>
      </trkpt>
      <trkpt lat="28.4022420" lon="-16.4424930">
        <ele>1350.9</ele>
        <time>2020-11-11T12:20:34Z</time>
      </trkpt>
      <trkpt lat="28.4022420" lon="-16.4424930">
        <ele>1350.9</ele>
        <time>2020-11-11T12:20:35Z</time>
      </trkpt>
      <trkpt lat="28.4022820" lon="-16.4425070">
        <ele>1350.9</ele>
        <time>2020-11-11T12:20:36Z</time>
      </trkpt>
      <trkpt lat="28.4023030" lon="-16.4425200">
        <ele>1351.9</ele>
        <time>2020-11-11T12:20:37Z</time>
      </trkpt>
      <trkpt lat="28.4023030" lon="-16.4425200">
        <ele>1351.9</ele>
        <time>2020-11-11T12:20:38Z</time>
      </trkpt>
      <trkpt lat="28.4023470" lon="-16.4425670">
        <ele>1351.9</ele>
        <time>2020-11-11T12:20:39Z</time>
      </trkpt>
      <trkpt lat="28.4023620" lon="-16.4425950">
        <ele>1351.9</ele>
        <time>2020-11-11T12:20:40Z</time>
      </trkpt>
      <trkpt lat="28.4023620" lon="-16.4425950">
        <ele>1351.9</ele>
        <time>2020-11-11T12:20:41Z</time>
      </trkpt>
      <trkpt lat="28.4023680" lon="-16.4426550">
        <ele>1351.9</ele>
        <time>2020-11-11T12:20:42Z</time>
      </trkpt>
      <trkpt lat="28.4023730" lon="-16.4426800">
        <ele>1351.9</ele>
        <time>2020-11-11T12:20:43Z</time>
      </trkpt>
      <trkpt lat="28.4023730" lon="-16.4426800">
        <ele>1351.9</ele>
        <time>2020-11-11T12:20:44Z</time>
      </trkpt>
      <trkpt lat="28.4023850" lon="-16.4427330">
        <ele>1351.9</ele>
        <time>2020-11-11T12:20:45Z</time>
      </trkpt>
      <trkpt lat="28.4023870" lon="-16.4427570">
        <ele>1352.9</ele>
        <time>2020-11-11T12:20:46Z</time>
      </trkpt>
      <trkpt lat="28.4023870" lon="-16.4427570">
        <ele>1352.9</ele>
        <time>2020-11-11T12:20:47Z</time>
      </trkpt>
      <trkpt lat="28.4024150" lon="-16.4427900">
        <ele>1352.9</ele>
        <time>2020-11-11T12:20:48Z</time>
      </trkpt>
      <trkpt lat="28.4024150" lon="-16.4427900">
        <ele>1352.9</ele>
        <time>2020-11-11T12:20:49Z</time>
      </trkpt>
      <trkpt lat="28.4024480" lon="-16.4428220">
        <ele>1352.9</ele>
        <time>2020-11-11T12:20:50Z</time>
      </trkpt>
      <trkpt lat="28.4024600" lon="-16.4428330">
        <ele>1352.9</ele>
        <time>2020-11-11T12:20:51Z</time>
      </trkpt>
      <trkpt lat="28.4024600" lon="-16.4428330">
        <ele>1352.9</ele>
        <time>2020-11-11T12:20:52Z</time>
      </trkpt>
      <trkpt lat="28.4024700" lon="-16.4428750">
        <ele>1352.9</ele>
        <time>2020-11-11T12:20:53Z</time>
      </trkpt>
      <trkpt lat="28.4024700" lon="-16.4428750">
        <ele>1352.9</ele>
        <time>2020-11-11T12:20:54Z</time>
      </trkpt>
      <trkpt lat="28.4024820" lon="-16.4429180">
        <ele>1353.9</ele>
        <time>2020-11-11T12:20:55Z</time>
      </trkpt>
      <trkpt lat="28.4024820" lon="-16.4429180">
        <ele>1353.9</ele>
        <time>2020-11-11T12:20:56Z</time>
      </trkpt>
      <trkpt lat="28.4024770" lon="-16.4429650">
        <ele>1353.9</ele>
        <time>2020-11-11T12:20:57Z</time>
      </trkpt>
      <trkpt lat="28.4024720" lon="-16.4429930">
        <ele>1353.9</ele>
        <time>2020-11-11T12:20:58Z</time>
      </trkpt>
      <trkpt lat="28.4024720" lon="-16.4429930">
        <ele>1354.9</ele>
        <time>2020-11-11T12:20:59Z</time>
      </trkpt>
      <trkpt lat="28.4024680" lon="-16.4430500">
        <ele>1354.9</ele>
        <time>2020-11-11T12:21:00Z</time>
      </trkpt>
      <trkpt lat="28.4024680" lon="-16.4430500">
        <ele>1354.9</ele>
        <time>2020-11-11T12:21:01Z</time>
      </trkpt>
      <trkpt lat="28.4024650" lon="-16.4431050">
        <ele>1354.9</ele>
        <time>2020-11-11T12:21:02Z</time>
      </trkpt>
      <trkpt lat="28.4024650" lon="-16.4431050">
        <ele>1354.9</ele>
        <time>2020-11-11T12:21:03Z</time>
      </trkpt>
      <trkpt lat="28.4024550" lon="-16.4431520">
        <ele>1354.9</ele>
        <time>2020-11-11T12:21:04Z</time>
      </trkpt>
      <trkpt lat="28.4024550" lon="-16.4431520">
        <ele>1354.9</ele>
        <time>2020-11-11T12:21:05Z</time>
      </trkpt>
      <trkpt lat="28.4024370" lon="-16.4432000">
        <ele>1354.9</ele>
        <time>2020-11-11T12:21:06Z</time>
      </trkpt>
      <trkpt lat="28.4024270" lon="-16.4432270">
        <ele>1354.9</ele>
        <time>2020-11-11T12:21:07Z</time>
      </trkpt>
      <trkpt lat="28.4024270" lon="-16.4432270">
        <ele>1354.9</ele>
        <time>2020-11-11T12:21:08Z</time>
      </trkpt>
      <trkpt lat="28.4024180" lon="-16.4432730">
        <ele>1354.9</ele>
        <time>2020-11-11T12:21:09Z</time>
      </trkpt>
      <trkpt lat="28.4024180" lon="-16.4432730">
        <ele>1354.9</ele>
        <time>2020-11-11T12:21:10Z</time>
      </trkpt>
      <trkpt lat="28.4024320" lon="-16.4433350">
        <ele>1355.9</ele>
        <time>2020-11-11T12:21:11Z</time>
      </trkpt>
      <trkpt lat="28.4024320" lon="-16.4433350">
        <ele>1355.9</ele>
        <time>2020-11-11T12:21:12Z</time>
      </trkpt>
      <trkpt lat="28.4024130" lon="-16.4434120">
        <ele>1355.9</ele>
        <time>2020-11-11T12:21:13Z</time>
      </trkpt>
      <trkpt lat="28.4024130" lon="-16.4434120">
        <ele>1355.9</ele>
        <time>2020-11-11T12:21:14Z</time>
      </trkpt>
      <trkpt lat="28.4023930" lon="-16.4434850">
        <ele>1355.9</ele>
        <time>2020-11-11T12:21:15Z</time>
      </trkpt>
      <trkpt lat="28.4023870" lon="-16.4435170">
        <ele>1355.9</ele>
        <time>2020-11-11T12:21:16Z</time>
      </trkpt>
      <trkpt lat="28.4023870" lon="-16.4435170">
        <ele>1355.9</ele>
        <time>2020-11-11T12:21:17Z</time>
      </trkpt>
      <trkpt lat="28.4023800" lon="-16.4435920">
        <ele>1355.9</ele>
        <time>2020-11-11T12:21:18Z</time>
      </trkpt>
      <trkpt lat="28.4023800" lon="-16.4435920">
        <ele>1355.9</ele>
        <time>2020-11-11T12:21:19Z</time>
      </trkpt>
      <trkpt lat="28.4023780" lon="-16.4436980">
        <ele>1355.9</ele>
        <time>2020-11-11T12:21:20Z</time>
      </trkpt>
      <trkpt lat="28.4023780" lon="-16.4436980">
        <ele>1355.9</ele>
        <time>2020-11-11T12:21:21Z</time>
      </trkpt>
      <trkpt lat="28.4023650" lon="-16.4437750">
        <ele>1355.9</ele>
        <time>2020-11-11T12:21:22Z</time>
      </trkpt>
      <trkpt lat="28.4023530" lon="-16.4438120">
        <ele>1355.9</ele>
        <time>2020-11-11T12:21:23Z</time>
      </trkpt>
      <trkpt lat="28.4023530" lon="-16.4438120">
        <ele>1355.9</ele>
        <time>2020-11-11T12:21:24Z</time>
      </trkpt>
      <trkpt lat="28.4023280" lon="-16.4438920">
        <ele>1355.9</ele>
        <time>2020-11-11T12:21:25Z</time>
      </trkpt>
      <trkpt lat="28.4023280" lon="-16.4438920">
        <ele>1355.9</ele>
        <time>2020-11-11T12:21:26Z</time>
      </trkpt>
      <trkpt lat="28.4023020" lon="-16.4439580">
        <ele>1355.9</ele>
        <time>2020-11-11T12:21:27Z</time>
      </trkpt>
      <trkpt lat="28.4023020" lon="-16.4439580">
        <ele>1355.9</ele>
        <time>2020-11-11T12:21:28Z</time>
      </trkpt>
      <trkpt lat="28.4022820" lon="-16.4439980">
        <ele>1355.9</ele>
        <time>2020-11-11T12:21:29Z</time>
      </trkpt>
      <trkpt lat="28.4022720" lon="-16.4440270">
        <ele>1355.9</ele>
        <time>2020-11-11T12:21:30Z</time>
      </trkpt>
      <trkpt lat="28.4022720" lon="-16.4440270">
        <ele>1355.9</ele>
        <time>2020-11-11T12:21:31Z</time>
      </trkpt>
      <trkpt lat="28.4022580" lon="-16.4441100">
        <ele>1355.9</ele>
        <time>2020-11-11T12:21:32Z</time>
      </trkpt>
      <trkpt lat="28.4022580" lon="-16.4441100">
        <ele>1355.9</ele>
        <time>2020-11-11T12:21:33Z</time>
      </trkpt>
      <trkpt lat="28.4022550" lon="-16.4442120">
        <ele>1355.9</ele>
        <time>2020-11-11T12:21:34Z</time>
      </trkpt>
      <trkpt lat="28.4022600" lon="-16.4442620">
        <ele>1355.9</ele>
        <time>2020-11-11T12:21:35Z</time>
      </trkpt>
      <trkpt lat="28.4022630" lon="-16.4443080">
        <ele>1355.9</ele>
        <time>2020-11-11T12:21:36Z</time>
      </trkpt>
      <trkpt lat="28.4022630" lon="-16.4443080">
        <ele>1355.9</ele>
        <time>2020-11-11T12:21:37Z</time>
      </trkpt>
      <trkpt lat="28.4022720" lon="-16.4443980">
        <ele>1355.9</ele>
        <time>2020-11-11T12:21:38Z</time>
      </trkpt>
      <trkpt lat="28.4022720" lon="-16.4443980">
        <ele>1355.9</ele>
        <time>2020-11-11T12:21:39Z</time>
      </trkpt>
      <trkpt lat="28.4022900" lon="-16.4444680">
        <ele>1355.9</ele>
        <time>2020-11-11T12:21:40Z</time>
      </trkpt>
      <trkpt lat="28.4022980" lon="-16.4445070">
        <ele>1355.9</ele>
        <time>2020-11-11T12:21:41Z</time>
      </trkpt>
      <trkpt lat="28.4023080" lon="-16.4445480">
        <ele>1355.9</ele>
        <time>2020-11-11T12:21:42Z</time>
      </trkpt>
      <trkpt lat="28.4023200" lon="-16.4445870">
        <ele>1355.9</ele>
        <time>2020-11-11T12:21:43Z</time>
      </trkpt>
      <trkpt lat="28.4023200" lon="-16.4445870">
        <ele>1355.9</ele>
        <time>2020-11-11T12:21:44Z</time>
      </trkpt>
      <trkpt lat="28.4023400" lon="-16.4446580">
        <ele>1355.9</ele>
        <time>2020-11-11T12:21:45Z</time>
      </trkpt>
      <trkpt lat="28.4023500" lon="-16.4447000">
        <ele>1355.9</ele>
        <time>2020-11-11T12:21:46Z</time>
      </trkpt>
      <trkpt lat="28.4023500" lon="-16.4447000">
        <ele>1355.9</ele>
        <time>2020-11-11T12:21:47Z</time>
      </trkpt>
      <trkpt lat="28.4023770" lon="-16.4447700">
        <ele>1355.9</ele>
        <time>2020-11-11T12:21:48Z</time>
      </trkpt>
      <trkpt lat="28.4023770" lon="-16.4447700">
        <ele>1355.9</ele>
        <time>2020-11-11T12:21:49Z</time>
      </trkpt>
      <trkpt lat="28.4023930" lon="-16.4448320">
        <ele>1356.9</ele>
        <time>2020-11-11T12:21:50Z</time>
      </trkpt>
      <trkpt lat="28.4023930" lon="-16.4448320">
        <ele>1356.9</ele>
        <time>2020-11-11T12:21:51Z</time>
      </trkpt>
      <trkpt lat="28.4023970" lon="-16.4449050">
        <ele>1356.9</ele>
        <time>2020-11-11T12:21:52Z</time>
      </trkpt>
      <trkpt lat="28.4023970" lon="-16.4449050">
        <ele>1356.9</ele>
        <time>2020-11-11T12:21:53Z</time>
      </trkpt>
      <trkpt lat="28.4024300" lon="-16.4449830">
        <ele>1356.9</ele>
        <time>2020-11-11T12:21:54Z</time>
      </trkpt>
      <trkpt lat="28.4024530" lon="-16.4450230">
        <ele>1356.9</ele>
        <time>2020-11-11T12:21:55Z</time>
      </trkpt>
      <trkpt lat="28.4024530" lon="-16.4450230">
        <ele>1356.9</ele>
        <time>2020-11-11T12:21:56Z</time>
      </trkpt>
      <trkpt lat="28.4024900" lon="-16.4450980">
        <ele>1356.9</ele>
        <time>2020-11-11T12:21:57Z</time>
      </trkpt>
      <trkpt lat="28.4024900" lon="-16.4450980">
        <ele>1356.9</ele>
        <time>2020-11-11T12:21:58Z</time>
      </trkpt>
      <trkpt lat="28.4025380" lon="-16.4451620">
        <ele>1356.9</ele>
        <time>2020-11-11T12:21:59Z</time>
      </trkpt>
      <trkpt lat="28.4025380" lon="-16.4451620">
        <ele>1356.9</ele>
        <time>2020-11-11T12:22:00Z</time>
      </trkpt>
      <trkpt lat="28.4025780" lon="-16.4452400">
        <ele>1356.9</ele>
        <time>2020-11-11T12:22:01Z</time>
      </trkpt>
      <trkpt lat="28.4025880" lon="-16.4452880">
        <ele>1356.9</ele>
        <time>2020-11-11T12:22:02Z</time>
      </trkpt>
      <trkpt lat="28.4025880" lon="-16.4452880">
        <ele>1356.9</ele>
        <time>2020-11-11T12:22:03Z</time>
      </trkpt>
      <trkpt lat="28.4026050" lon="-16.4453650">
        <ele>1356.9</ele>
        <time>2020-11-11T12:22:04Z</time>
      </trkpt>
      <trkpt lat="28.4026050" lon="-16.4453650">
        <ele>1356.9</ele>
        <time>2020-11-11T12:22:05Z</time>
      </trkpt>
      <trkpt lat="28.4026100" lon="-16.4454370">
        <ele>1356.9</ele>
        <time>2020-11-11T12:22:06Z</time>
      </trkpt>
      <trkpt lat="28.4026100" lon="-16.4454370">
        <ele>1356.9</ele>
        <time>2020-11-11T12:22:07Z</time>
      </trkpt>
      <trkpt lat="28.4026120" lon="-16.4455270">
        <ele>1356.9</ele>
        <time>2020-11-11T12:22:08Z</time>
      </trkpt>
      <trkpt lat="28.4026120" lon="-16.4455270">
        <ele>1356.9</ele>
        <time>2020-11-11T12:22:09Z</time>
      </trkpt>
      <trkpt lat="28.4026150" lon="-16.4456000">
        <ele>1356.9</ele>
        <time>2020-11-11T12:22:10Z</time>
      </trkpt>
      <trkpt lat="28.4026150" lon="-16.4456000">
        <ele>1356.9</ele>
        <time>2020-11-11T12:22:11Z</time>
      </trkpt>
      <trkpt lat="28.4026370" lon="-16.4456530">
        <ele>1356.9</ele>
        <time>2020-11-11T12:22:12Z</time>
      </trkpt>
      <trkpt lat="28.4026370" lon="-16.4456530">
        <ele>1356.9</ele>
        <time>2020-11-11T12:22:13Z</time>
      </trkpt>
      <trkpt lat="28.4026570" lon="-16.4457550">
        <ele>1356.9</ele>
        <time>2020-11-11T12:22:14Z</time>
      </trkpt>
      <trkpt lat="28.4026770" lon="-16.4458020">
        <ele>1357.9</ele>
        <time>2020-11-11T12:22:15Z</time>
      </trkpt>
      <trkpt lat="28.4026770" lon="-16.4458020">
        <ele>1357.9</ele>
        <time>2020-11-11T12:22:16Z</time>
      </trkpt>
      <trkpt lat="28.4026870" lon="-16.4458850">
        <ele>1357.9</ele>
        <time>2020-11-11T12:22:17Z</time>
      </trkpt>
      <trkpt lat="28.4027000" lon="-16.4459270">
        <ele>1357.9</ele>
        <time>2020-11-11T12:22:18Z</time>
      </trkpt>
      <trkpt lat="28.4027000" lon="-16.4459270">
        <ele>1357.9</ele>
        <time>2020-11-11T12:22:19Z</time>
      </trkpt>
      <trkpt lat="28.4026970" lon="-16.4459820">
        <ele>1357.9</ele>
        <time>2020-11-11T12:22:20Z</time>
      </trkpt>
      <trkpt lat="28.4026970" lon="-16.4459820">
        <ele>1357.9</ele>
        <time>2020-11-11T12:22:21Z</time>
      </trkpt>
      <trkpt lat="28.4026420" lon="-16.4460050">
        <ele>1357.9</ele>
        <time>2020-11-11T12:22:22Z</time>
      </trkpt>
      <trkpt lat="28.4026420" lon="-16.4460050">
        <ele>1357.9</ele>
        <time>2020-11-11T12:22:23Z</time>
      </trkpt>
      <trkpt lat="28.4025970" lon="-16.4459820">
        <ele>1357.9</ele>
        <time>2020-11-11T12:22:24Z</time>
      </trkpt>
      <trkpt lat="28.4025970" lon="-16.4459820">
        <ele>1357.9</ele>
        <time>2020-11-11T12:22:25Z</time>
      </trkpt>
      <trkpt lat="28.4025370" lon="-16.4459580">
        <ele>1357.9</ele>
        <time>2020-11-11T12:22:26Z</time>
      </trkpt>
      <trkpt lat="28.4025370" lon="-16.4459580">
        <ele>1357.9</ele>
        <time>2020-11-11T12:22:27Z</time>
      </trkpt>
      <trkpt lat="28.4024870" lon="-16.4459380">
        <ele>1357.9</ele>
        <time>2020-11-11T12:22:28Z</time>
      </trkpt>
      <trkpt lat="28.4024550" lon="-16.4459280">
        <ele>1357.9</ele>
        <time>2020-11-11T12:22:29Z</time>
      </trkpt>
      <trkpt lat="28.4024550" lon="-16.4459280">
        <ele>1357.9</ele>
        <time>2020-11-11T12:22:30Z</time>
      </trkpt>
      <trkpt lat="28.4024000" lon="-16.4459180">
        <ele>1357.9</ele>
        <time>2020-11-11T12:22:31Z</time>
      </trkpt>
      <trkpt lat="28.4024000" lon="-16.4459180">
        <ele>1357.9</ele>
        <time>2020-11-11T12:22:32Z</time>
      </trkpt>
      <trkpt lat="28.4023470" lon="-16.4459000">
        <ele>1357.9</ele>
        <time>2020-11-11T12:22:33Z</time>
      </trkpt>
      <trkpt lat="28.4023470" lon="-16.4459000">
        <ele>1357.9</ele>
        <time>2020-11-11T12:22:34Z</time>
      </trkpt>
      <trkpt lat="28.4022830" lon="-16.4458870">
        <ele>1357.9</ele>
        <time>2020-11-11T12:22:35Z</time>
      </trkpt>
      <trkpt lat="28.4022830" lon="-16.4458870">
        <ele>1357.9</ele>
        <time>2020-11-11T12:22:36Z</time>
      </trkpt>
      <trkpt lat="28.4022300" lon="-16.4458870">
        <ele>1357.9</ele>
        <time>2020-11-11T12:22:37Z</time>
      </trkpt>
      <trkpt lat="28.4022300" lon="-16.4458870">
        <ele>1357.9</ele>
        <time>2020-11-11T12:22:38Z</time>
      </trkpt>
      <trkpt lat="28.4021600" lon="-16.4458680">
        <ele>1357.9</ele>
        <time>2020-11-11T12:22:39Z</time>
      </trkpt>
      <trkpt lat="28.4021280" lon="-16.4458600">
        <ele>1357.9</ele>
        <time>2020-11-11T12:22:40Z</time>
      </trkpt>
      <trkpt lat="28.4021280" lon="-16.4458600">
        <ele>1358.9</ele>
        <time>2020-11-11T12:22:41Z</time>
      </trkpt>
      <trkpt lat="28.4020730" lon="-16.4458450">
        <ele>1358.9</ele>
        <time>2020-11-11T12:22:42Z</time>
      </trkpt>
      <trkpt lat="28.4020320" lon="-16.4458400">
        <ele>1358.9</ele>
        <time>2020-11-11T12:22:43Z</time>
      </trkpt>
      <trkpt lat="28.4020320" lon="-16.4458400">
        <ele>1358.9</ele>
        <time>2020-11-11T12:22:44Z</time>
      </trkpt>
      <trkpt lat="28.4020050" lon="-16.4458870">
        <ele>1358.9</ele>
        <time>2020-11-11T12:22:45Z</time>
      </trkpt>
      <trkpt lat="28.4020050" lon="-16.4458870">
        <ele>1358.9</ele>
        <time>2020-11-11T12:22:46Z</time>
      </trkpt>
      <trkpt lat="28.4019950" lon="-16.4459530">
        <ele>1358.9</ele>
        <time>2020-11-11T12:22:47Z</time>
      </trkpt>
      <trkpt lat="28.4019950" lon="-16.4459530">
        <ele>1358.9</ele>
        <time>2020-11-11T12:22:48Z</time>
      </trkpt>
      <trkpt lat="28.4019800" lon="-16.4460400">
        <ele>1359.9</ele>
        <time>2020-11-11T12:22:49Z</time>
      </trkpt>
      <trkpt lat="28.4019800" lon="-16.4460400">
        <ele>1359.9</ele>
        <time>2020-11-11T12:22:50Z</time>
      </trkpt>
      <trkpt lat="28.4019750" lon="-16.4461180">
        <ele>1359.9</ele>
        <time>2020-11-11T12:22:51Z</time>
      </trkpt>
      <trkpt lat="28.4019750" lon="-16.4461180">
        <ele>1359.9</ele>
        <time>2020-11-11T12:22:52Z</time>
      </trkpt>
      <trkpt lat="28.4019320" lon="-16.4461670">
        <ele>1359.9</ele>
        <time>2020-11-11T12:22:53Z</time>
      </trkpt>
      <trkpt lat="28.4019200" lon="-16.4461900">
        <ele>1359.9</ele>
        <time>2020-11-11T12:22:54Z</time>
      </trkpt>
      <trkpt lat="28.4019200" lon="-16.4461900">
        <ele>1359.9</ele>
        <time>2020-11-11T12:22:55Z</time>
      </trkpt>
      <trkpt lat="28.4018630" lon="-16.4462130">
        <ele>1359.9</ele>
        <time>2020-11-11T12:22:56Z</time>
      </trkpt>
      <trkpt lat="28.4018630" lon="-16.4462130">
        <ele>1360.9</ele>
        <time>2020-11-11T12:22:57Z</time>
      </trkpt>
      <trkpt lat="28.4017900" lon="-16.4462120">
        <ele>1360.9</ele>
        <time>2020-11-11T12:22:58Z</time>
      </trkpt>
      <trkpt lat="28.4017900" lon="-16.4462120">
        <ele>1360.9</ele>
        <time>2020-11-11T12:22:59Z</time>
      </trkpt>
      <trkpt lat="28.4017300" lon="-16.4461820">
        <ele>1360.9</ele>
        <time>2020-11-11T12:23:00Z</time>
      </trkpt>
      <trkpt lat="28.4017050" lon="-16.4461670">
        <ele>1360.9</ele>
        <time>2020-11-11T12:23:01Z</time>
      </trkpt>
      <trkpt lat="28.4017050" lon="-16.4461670">
        <ele>1360.9</ele>
        <time>2020-11-11T12:23:02Z</time>
      </trkpt>
      <trkpt lat="28.4016450" lon="-16.4461450">
        <ele>1360.9</ele>
        <time>2020-11-11T12:23:03Z</time>
      </trkpt>
      <trkpt lat="28.4016170" lon="-16.4461300">
        <ele>1360.9</ele>
        <time>2020-11-11T12:23:04Z</time>
      </trkpt>
      <trkpt lat="28.4016170" lon="-16.4461300">
        <ele>1360.9</ele>
        <time>2020-11-11T12:23:05Z</time>
      </trkpt>
      <trkpt lat="28.4015580" lon="-16.4460920">
        <ele>1360.9</ele>
        <time>2020-11-11T12:23:06Z</time>
      </trkpt>
      <trkpt lat="28.4015580" lon="-16.4460920">
        <ele>1360.9</ele>
        <time>2020-11-11T12:23:07Z</time>
      </trkpt>
      <trkpt lat="28.4015100" lon="-16.4460430">
        <ele>1360.9</ele>
        <time>2020-11-11T12:23:08Z</time>
      </trkpt>
      <trkpt lat="28.4014880" lon="-16.4460220">
        <ele>1360.9</ele>
        <time>2020-11-11T12:23:09Z</time>
      </trkpt>
      <trkpt lat="28.4014650" lon="-16.4460080">
        <ele>1360.9</ele>
        <time>2020-11-11T12:23:10Z</time>
      </trkpt>
      <trkpt lat="28.4014650" lon="-16.4460080">
        <ele>1361.9</ele>
        <time>2020-11-11T12:23:11Z</time>
      </trkpt>
      <trkpt lat="28.4014180" lon="-16.4459980">
        <ele>1361.9</ele>
        <time>2020-11-11T12:23:12Z</time>
      </trkpt>
      <trkpt lat="28.4013970" lon="-16.4459870">
        <ele>1361.9</ele>
        <time>2020-11-11T12:23:13Z</time>
      </trkpt>
      <trkpt lat="28.4013970" lon="-16.4459870">
        <ele>1361.9</ele>
        <time>2020-11-11T12:23:14Z</time>
      </trkpt>
      <trkpt lat="28.4013400" lon="-16.4459650">
        <ele>1361.9</ele>
        <time>2020-11-11T12:23:15Z</time>
      </trkpt>
      <trkpt lat="28.4013400" lon="-16.4459650">
        <ele>1361.9</ele>
        <time>2020-11-11T12:23:16Z</time>
      </trkpt>
      <trkpt lat="28.4012900" lon="-16.4459920">
        <ele>1361.9</ele>
        <time>2020-11-11T12:23:17Z</time>
      </trkpt>
      <trkpt lat="28.4012900" lon="-16.4459920">
        <ele>1363.9</ele>
        <time>2020-11-11T12:23:18Z</time>
      </trkpt>
      <trkpt lat="28.4012370" lon="-16.4459830">
        <ele>1363.9</ele>
        <time>2020-11-11T12:23:19Z</time>
      </trkpt>
      <trkpt lat="28.4012370" lon="-16.4459830">
        <ele>1363.9</ele>
        <time>2020-11-11T12:23:20Z</time>
      </trkpt>
      <trkpt lat="28.4011800" lon="-16.4459470">
        <ele>1363.9</ele>
        <time>2020-11-11T12:23:21Z</time>
      </trkpt>
      <trkpt lat="28.4011480" lon="-16.4459150">
        <ele>1363.9</ele>
        <time>2020-11-11T12:23:22Z</time>
      </trkpt>
      <trkpt lat="28.4011480" lon="-16.4459150">
        <ele>1363.9</ele>
        <time>2020-11-11T12:23:23Z</time>
      </trkpt>
      <trkpt lat="28.4010830" lon="-16.4458870">
        <ele>1363.9</ele>
        <time>2020-11-11T12:23:24Z</time>
      </trkpt>
      <trkpt lat="28.4010830" lon="-16.4458870">
        <ele>1363.9</ele>
        <time>2020-11-11T12:23:25Z</time>
      </trkpt>
      <trkpt lat="28.4010400" lon="-16.4458500">
        <ele>1363.9</ele>
        <time>2020-11-11T12:23:26Z</time>
      </trkpt>
      <trkpt lat="28.4010400" lon="-16.4458500">
        <ele>1363.9</ele>
        <time>2020-11-11T12:23:27Z</time>
      </trkpt>
      <trkpt lat="28.4010000" lon="-16.4458080">
        <ele>1363.9</ele>
        <time>2020-11-11T12:23:28Z</time>
      </trkpt>
      <trkpt lat="28.4010000" lon="-16.4458080">
        <ele>1363.9</ele>
        <time>2020-11-11T12:23:29Z</time>
      </trkpt>
      <trkpt lat="28.4009670" lon="-16.4457750">
        <ele>1363.9</ele>
        <time>2020-11-11T12:23:30Z</time>
      </trkpt>
      <trkpt lat="28.4009670" lon="-16.4457750">
        <ele>1363.9</ele>
        <time>2020-11-11T12:23:31Z</time>
      </trkpt>
      <trkpt lat="28.4009430" lon="-16.4457530">
        <ele>1364.9</ele>
        <time>2020-11-11T12:23:32Z</time>
      </trkpt>
      <trkpt lat="28.4009300" lon="-16.4457420">
        <ele>1364.9</ele>
        <time>2020-11-11T12:23:33Z</time>
      </trkpt>
      <trkpt lat="28.4009300" lon="-16.4457420">
        <ele>1364.9</ele>
        <time>2020-11-11T12:23:34Z</time>
      </trkpt>
      <trkpt lat="28.4008650" lon="-16.4457270">
        <ele>1364.9</ele>
        <time>2020-11-11T12:23:35Z</time>
      </trkpt>
      <trkpt lat="28.4008650" lon="-16.4457270">
        <ele>1364.9</ele>
        <time>2020-11-11T12:23:36Z</time>
      </trkpt>
      <trkpt lat="28.4008230" lon="-16.4456970">
        <ele>1364.9</ele>
        <time>2020-11-11T12:23:37Z</time>
      </trkpt>
      <trkpt lat="28.4008130" lon="-16.4456750">
        <ele>1365.9</ele>
        <time>2020-11-11T12:23:38Z</time>
      </trkpt>
      <trkpt lat="28.4008130" lon="-16.4456750">
        <ele>1365.9</ele>
        <time>2020-11-11T12:23:39Z</time>
      </trkpt>
      <trkpt lat="28.4007750" lon="-16.4456350">
        <ele>1365.9</ele>
        <time>2020-11-11T12:23:40Z</time>
      </trkpt>
      <trkpt lat="28.4007750" lon="-16.4456350">
        <ele>1365.9</ele>
        <time>2020-11-11T12:23:41Z</time>
      </trkpt>
      <trkpt lat="28.4007670" lon="-16.4456200">
        <ele>1365.9</ele>
        <time>2020-11-11T12:23:42Z</time>
      </trkpt>
      <trkpt lat="28.4007600" lon="-16.4456100">
        <ele>1365.9</ele>
        <time>2020-11-11T12:23:43Z</time>
      </trkpt>
      <trkpt lat="28.4007600" lon="-16.4456100">
        <ele>1366.9</ele>
        <time>2020-11-11T12:23:44Z</time>
      </trkpt>
      <trkpt lat="28.4007380" lon="-16.4455870">
        <ele>1366.9</ele>
        <time>2020-11-11T12:23:45Z</time>
      </trkpt>
      <trkpt lat="28.4007380" lon="-16.4455870">
        <ele>1366.9</ele>
        <time>2020-11-11T12:23:46Z</time>
      </trkpt>
      <trkpt lat="28.4007180" lon="-16.4455620">
        <ele>1366.9</ele>
        <time>2020-11-11T12:23:47Z</time>
      </trkpt>
      <trkpt lat="28.4006900" lon="-16.4455480">
        <ele>1366.9</ele>
        <time>2020-11-11T12:23:48Z</time>
      </trkpt>
      <trkpt lat="28.4006630" lon="-16.4455350">
        <ele>1366.9</ele>
        <time>2020-11-11T12:23:49Z</time>
      </trkpt>
      <trkpt lat="28.4006630" lon="-16.4455350">
        <ele>1367.9</ele>
        <time>2020-11-11T12:23:50Z</time>
      </trkpt>
      <trkpt lat="28.4005300" lon="-16.4455800">
        <ele>1367.9</ele>
        <time>2020-11-11T12:23:51Z</time>
      </trkpt>
      <trkpt lat="28.4005300" lon="-16.4455800">
        <ele>1367.9</ele>
        <time>2020-11-11T12:23:52Z</time>
      </trkpt>
      <trkpt lat="28.4004830" lon="-16.4455500">
        <ele>1367.9</ele>
        <time>2020-11-11T12:23:53Z</time>
      </trkpt>
      <trkpt lat="28.4004680" lon="-16.4455220">
        <ele>1367.9</ele>
        <time>2020-11-11T12:23:54Z</time>
      </trkpt>
      <trkpt lat="28.4004500" lon="-16.4455020">
        <ele>1367.9</ele>
        <time>2020-11-11T12:23:55Z</time>
      </trkpt>
      <trkpt lat="28.4004500" lon="-16.4455020">
        <ele>1368.9</ele>
        <time>2020-11-11T12:23:56Z</time>
      </trkpt>
      <trkpt lat="28.4004230" lon="-16.4454600">
        <ele>1368.9</ele>
        <time>2020-11-11T12:23:57Z</time>
      </trkpt>
      <trkpt lat="28.4004120" lon="-16.4454330">
        <ele>1368.9</ele>
        <time>2020-11-11T12:23:58Z</time>
      </trkpt>
      <trkpt lat="28.4004120" lon="-16.4454330">
        <ele>1368.9</ele>
        <time>2020-11-11T12:23:59Z</time>
      </trkpt>
      <trkpt lat="28.4004000" lon="-16.4453680">
        <ele>1369.9</ele>
        <time>2020-11-11T12:24:00Z</time>
      </trkpt>
      <trkpt lat="28.4003770" lon="-16.4453450">
        <ele>1369.9</ele>
        <time>2020-11-11T12:24:01Z</time>
      </trkpt>
      <trkpt lat="28.4003770" lon="-16.4453450">
        <ele>1369.9</ele>
        <time>2020-11-11T12:24:02Z</time>
      </trkpt>
      <trkpt lat="28.4003520" lon="-16.4452870">
        <ele>1369.9</ele>
        <time>2020-11-11T12:24:03Z</time>
      </trkpt>
      <trkpt lat="28.4003520" lon="-16.4452870">
        <ele>1369.9</ele>
        <time>2020-11-11T12:24:04Z</time>
      </trkpt>
      <trkpt lat="28.4003350" lon="-16.4452520">
        <ele>1369.9</ele>
        <time>2020-11-11T12:24:05Z</time>
      </trkpt>
      <trkpt lat="28.4003350" lon="-16.4452520">
        <ele>1370.9</ele>
        <time>2020-11-11T12:24:06Z</time>
      </trkpt>
      <trkpt lat="28.4002930" lon="-16.4452450">
        <ele>1370.9</ele>
        <time>2020-11-11T12:24:07Z</time>
      </trkpt>
      <trkpt lat="28.4002930" lon="-16.4452450">
        <ele>1370.9</ele>
        <time>2020-11-11T12:24:08Z</time>
      </trkpt>
      <trkpt lat="28.4002870" lon="-16.4452130">
        <ele>1370.9</ele>
        <time>2020-11-11T12:24:09Z</time>
      </trkpt>
      <trkpt lat="28.4002870" lon="-16.4452130">
        <ele>1371.9</ele>
        <time>2020-11-11T12:24:10Z</time>
      </trkpt>
      <trkpt lat="28.4002570" lon="-16.4451670">
        <ele>1371.9</ele>
        <time>2020-11-11T12:24:11Z</time>
      </trkpt>
      <trkpt lat="28.4002470" lon="-16.4451400">
        <ele>1371.9</ele>
        <time>2020-11-11T12:24:12Z</time>
      </trkpt>
      <trkpt lat="28.4002470" lon="-16.4451400">
        <ele>1371.9</ele>
        <time>2020-11-11T12:24:13Z</time>
      </trkpt>
      <trkpt lat="28.4002200" lon="-16.4450950">
        <ele>1371.9</ele>
        <time>2020-11-11T12:24:14Z</time>
      </trkpt>
      <trkpt lat="28.4002200" lon="-16.4450950">
        <ele>1371.9</ele>
        <time>2020-11-11T12:24:15Z</time>
      </trkpt>
      <trkpt lat="28.4001900" lon="-16.4450500">
        <ele>1371.9</ele>
        <time>2020-11-11T12:24:16Z</time>
      </trkpt>
      <trkpt lat="28.4001900" lon="-16.4450500">
        <ele>1371.9</ele>
        <time>2020-11-11T12:24:17Z</time>
      </trkpt>
      <trkpt lat="28.4001550" lon="-16.4450080">
        <ele>1371.9</ele>
        <time>2020-11-11T12:24:18Z</time>
      </trkpt>
      <trkpt lat="28.4001470" lon="-16.4449850">
        <ele>1371.9</ele>
        <time>2020-11-11T12:24:19Z</time>
      </trkpt>
      <trkpt lat="28.4001470" lon="-16.4449850">
        <ele>1371.9</ele>
        <time>2020-11-11T12:24:20Z</time>
      </trkpt>
      <trkpt lat="28.4001170" lon="-16.4449370">
        <ele>1371.9</ele>
        <time>2020-11-11T12:24:21Z</time>
      </trkpt>
      <trkpt lat="28.4001170" lon="-16.4449370">
        <ele>1371.9</ele>
        <time>2020-11-11T12:24:22Z</time>
      </trkpt>
      <trkpt lat="28.4000900" lon="-16.4448850">
        <ele>1372.9</ele>
        <time>2020-11-11T12:24:23Z</time>
      </trkpt>
      <trkpt lat="28.4000900" lon="-16.4448850">
        <ele>1372.9</ele>
        <time>2020-11-11T12:24:24Z</time>
      </trkpt>
      <trkpt lat="28.4000820" lon="-16.4448350">
        <ele>1372.9</ele>
        <time>2020-11-11T12:24:25Z</time>
      </trkpt>
      <trkpt lat="28.4000820" lon="-16.4448350">
        <ele>1372.9</ele>
        <time>2020-11-11T12:24:26Z</time>
      </trkpt>
      <trkpt lat="28.4000520" lon="-16.4447930">
        <ele>1373.9</ele>
        <time>2020-11-11T12:24:27Z</time>
      </trkpt>
      <trkpt lat="28.4000520" lon="-16.4447930">
        <ele>1373.9</ele>
        <time>2020-11-11T12:24:28Z</time>
      </trkpt>
      <trkpt lat="28.4000330" lon="-16.4447630">
        <ele>1373.9</ele>
        <time>2020-11-11T12:24:29Z</time>
      </trkpt>
      <trkpt lat="28.4000170" lon="-16.4447400">
        <ele>1373.9</ele>
        <time>2020-11-11T12:24:30Z</time>
      </trkpt>
      <trkpt lat="28.4000170" lon="-16.4447400">
        <ele>1374.9</ele>
        <time>2020-11-11T12:24:31Z</time>
      </trkpt>
      <trkpt lat="28.4000030" lon="-16.4446820">
        <ele>1374.9</ele>
        <time>2020-11-11T12:24:32Z</time>
      </trkpt>
      <trkpt lat="28.4000030" lon="-16.4446820">
        <ele>1374.9</ele>
        <time>2020-11-11T12:24:33Z</time>
      </trkpt>
      <trkpt lat="28.4000020" lon="-16.4446330">
        <ele>1374.9</ele>
        <time>2020-11-11T12:24:34Z</time>
      </trkpt>
      <trkpt lat="28.4000020" lon="-16.4446330">
        <ele>1375.9</ele>
        <time>2020-11-11T12:24:35Z</time>
      </trkpt>
      <trkpt lat="28.4000000" lon="-16.4445880">
        <ele>1375.9</ele>
        <time>2020-11-11T12:24:36Z</time>
      </trkpt>
      <trkpt lat="28.3999970" lon="-16.4445730">
        <ele>1376.9</ele>
        <time>2020-11-11T12:24:37Z</time>
      </trkpt>
      <trkpt lat="28.3999970" lon="-16.4445730">
        <ele>1376.9</ele>
        <time>2020-11-11T12:24:38Z</time>
      </trkpt>
      <trkpt lat="28.3999900" lon="-16.4445470">
        <ele>1376.9</ele>
        <time>2020-11-11T12:24:39Z</time>
      </trkpt>
      <trkpt lat="28.3999900" lon="-16.4445470">
        <ele>1376.9</ele>
        <time>2020-11-11T12:24:40Z</time>
      </trkpt>
      <trkpt lat="28.3999820" lon="-16.4445220">
        <ele>1377.9</ele>
        <time>2020-11-11T12:24:41Z</time>
      </trkpt>
      <trkpt lat="28.3999820" lon="-16.4445220">
        <ele>1377.9</ele>
        <time>2020-11-11T12:24:42Z</time>
      </trkpt>
      <trkpt lat="28.3999780" lon="-16.4445030">
        <ele>1377.9</ele>
        <time>2020-11-11T12:24:43Z</time>
      </trkpt>
      <trkpt lat="28.3999770" lon="-16.4444900">
        <ele>1377.9</ele>
        <time>2020-11-11T12:24:44Z</time>
      </trkpt>
      <trkpt lat="28.3999770" lon="-16.4444900">
        <ele>1378.9</ele>
        <time>2020-11-11T12:24:45Z</time>
      </trkpt>
      <trkpt lat="28.3999670" lon="-16.4444830">
        <ele>1378.9</ele>
        <time>2020-11-11T12:24:46Z</time>
      </trkpt>
      <trkpt lat="28.3999670" lon="-16.4444830">
        <ele>1378.9</ele>
        <time>2020-11-11T12:24:47Z</time>
      </trkpt>
      <trkpt lat="28.3999470" lon="-16.4444480">
        <ele>1378.9</ele>
        <time>2020-11-11T12:24:48Z</time>
      </trkpt>
      <trkpt lat="28.3999470" lon="-16.4444480">
        <ele>1378.9</ele>
        <time>2020-11-11T12:24:49Z</time>
      </trkpt>
      <trkpt lat="28.3999350" lon="-16.4444070">
        <ele>1378.9</ele>
        <time>2020-11-11T12:24:50Z</time>
      </trkpt>
      <trkpt lat="28.3999380" lon="-16.4443820">
        <ele>1379.9</ele>
        <time>2020-11-11T12:24:51Z</time>
      </trkpt>
      <trkpt lat="28.3999380" lon="-16.4443820">
        <ele>1379.9</ele>
        <time>2020-11-11T12:24:52Z</time>
      </trkpt>
      <trkpt lat="28.3999370" lon="-16.4443200">
        <ele>1379.9</ele>
        <time>2020-11-11T12:24:53Z</time>
      </trkpt>
      <trkpt lat="28.3999370" lon="-16.4443200">
        <ele>1379.9</ele>
        <time>2020-11-11T12:24:54Z</time>
      </trkpt>
      <trkpt lat="28.3999600" lon="-16.4442480">
        <ele>1380.9</ele>
        <time>2020-11-11T12:24:55Z</time>
      </trkpt>
      <trkpt lat="28.3999600" lon="-16.4442480">
        <ele>1380.9</ele>
        <time>2020-11-11T12:24:56Z</time>
      </trkpt>
      <trkpt lat="28.3999670" lon="-16.4441670">
        <ele>1380.9</ele>
        <time>2020-11-11T12:24:57Z</time>
      </trkpt>
      <trkpt lat="28.3999670" lon="-16.4441670">
        <ele>1380.9</ele>
        <time>2020-11-11T12:24:58Z</time>
      </trkpt>
      <trkpt lat="28.4000000" lon="-16.4441400">
        <ele>1381.9</ele>
        <time>2020-11-11T12:24:59Z</time>
      </trkpt>
      <trkpt lat="28.4000020" lon="-16.4441220">
        <ele>1381.9</ele>
        <time>2020-11-11T12:25:00Z</time>
      </trkpt>
      <trkpt lat="28.4000020" lon="-16.4441220">
        <ele>1381.9</ele>
        <time>2020-11-11T12:25:01Z</time>
      </trkpt>
      <trkpt lat="28.3999830" lon="-16.4440870">
        <ele>1381.9</ele>
        <time>2020-11-11T12:25:02Z</time>
      </trkpt>
      <trkpt lat="28.3999830" lon="-16.4440870">
        <ele>1381.9</ele>
        <time>2020-11-11T12:25:03Z</time>
      </trkpt>
      <trkpt lat="28.3999850" lon="-16.4440620">
        <ele>1381.9</ele>
        <time>2020-11-11T12:25:04Z</time>
      </trkpt>
      <trkpt lat="28.3999800" lon="-16.4440480">
        <ele>1381.9</ele>
        <time>2020-11-11T12:25:05Z</time>
      </trkpt>
      <trkpt lat="28.3999800" lon="-16.4440480">
        <ele>1381.9</ele>
        <time>2020-11-11T12:25:06Z</time>
      </trkpt>
      <trkpt lat="28.3999730" lon="-16.4440150">
        <ele>1381.9</ele>
        <time>2020-11-11T12:25:07Z</time>
      </trkpt>
      <trkpt lat="28.3999730" lon="-16.4440150">
        <ele>1381.9</ele>
        <time>2020-11-11T12:25:08Z</time>
      </trkpt>
      <trkpt lat="28.3999670" lon="-16.4439780">
        <ele>1382.9</ele>
        <time>2020-11-11T12:25:09Z</time>
      </trkpt>
      <trkpt lat="28.3999670" lon="-16.4439780">
        <ele>1382.9</ele>
        <time>2020-11-11T12:25:10Z</time>
      </trkpt>
      <trkpt lat="28.3999420" lon="-16.4439170">
        <ele>1382.9</ele>
        <time>2020-11-11T12:25:11Z</time>
      </trkpt>
      <trkpt lat="28.3999420" lon="-16.4439170">
        <ele>1382.9</ele>
        <time>2020-11-11T12:25:12Z</time>
      </trkpt>
      <trkpt lat="28.3999280" lon="-16.4438720">
        <ele>1383.9</ele>
        <time>2020-11-11T12:25:13Z</time>
      </trkpt>
      <trkpt lat="28.3999280" lon="-16.4438720">
        <ele>1383.9</ele>
        <time>2020-11-11T12:25:14Z</time>
      </trkpt>
      <trkpt lat="28.3999020" lon="-16.4438370">
        <ele>1383.9</ele>
        <time>2020-11-11T12:25:15Z</time>
      </trkpt>
      <trkpt lat="28.3998880" lon="-16.4438250">
        <ele>1383.9</ele>
        <time>2020-11-11T12:25:16Z</time>
      </trkpt>
      <trkpt lat="28.3998880" lon="-16.4438250">
        <ele>1383.9</ele>
        <time>2020-11-11T12:25:17Z</time>
      </trkpt>
      <trkpt lat="28.3998630" lon="-16.4438070">
        <ele>1383.9</ele>
        <time>2020-11-11T12:25:18Z</time>
      </trkpt>
      <trkpt lat="28.3998630" lon="-16.4438070">
        <ele>1384.9</ele>
        <time>2020-11-11T12:25:19Z</time>
      </trkpt>
      <trkpt lat="28.3998580" lon="-16.4437770">
        <ele>1384.9</ele>
        <time>2020-11-11T12:25:20Z</time>
      </trkpt>
      <trkpt lat="28.3998470" lon="-16.4437650">
        <ele>1384.9</ele>
        <time>2020-11-11T12:25:21Z</time>
      </trkpt>
      <trkpt lat="28.3998470" lon="-16.4437650">
        <ele>1384.9</ele>
        <time>2020-11-11T12:25:22Z</time>
      </trkpt>
      <trkpt lat="28.3998320" lon="-16.4437280">
        <ele>1384.9</ele>
        <time>2020-11-11T12:25:23Z</time>
      </trkpt>
      <trkpt lat="28.3998320" lon="-16.4437280">
        <ele>1384.9</ele>
        <time>2020-11-11T12:25:24Z</time>
      </trkpt>
      <trkpt lat="28.3997950" lon="-16.4437070">
        <ele>1384.9</ele>
        <time>2020-11-11T12:25:25Z</time>
      </trkpt>
      <trkpt lat="28.3997950" lon="-16.4437070">
        <ele>1385.9</ele>
        <time>2020-11-11T12:25:26Z</time>
      </trkpt>
      <trkpt lat="28.3997680" lon="-16.4436770">
        <ele>1385.9</ele>
        <time>2020-11-11T12:25:27Z</time>
      </trkpt>
      <trkpt lat="28.3997680" lon="-16.4436770">
        <ele>1385.9</ele>
        <time>2020-11-11T12:25:28Z</time>
      </trkpt>
      <trkpt lat="28.3997320" lon="-16.4436600">
        <ele>1385.9</ele>
        <time>2020-11-11T12:25:29Z</time>
      </trkpt>
      <trkpt lat="28.3997320" lon="-16.4436600">
        <ele>1385.9</ele>
        <time>2020-11-11T12:25:30Z</time>
      </trkpt>
      <trkpt lat="28.3997080" lon="-16.4436470">
        <ele>1385.9</ele>
        <time>2020-11-11T12:25:31Z</time>
      </trkpt>
      <trkpt lat="28.3996970" lon="-16.4436280">
        <ele>1387.9</ele>
        <time>2020-11-11T12:25:32Z</time>
      </trkpt>
      <trkpt lat="28.3996970" lon="-16.4436280">
        <ele>1387.9</ele>
        <time>2020-11-11T12:25:33Z</time>
      </trkpt>
      <trkpt lat="28.3996700" lon="-16.4436070">
        <ele>1387.9</ele>
        <time>2020-11-11T12:25:34Z</time>
      </trkpt>
      <trkpt lat="28.3996700" lon="-16.4436070">
        <ele>1387.9</ele>
        <time>2020-11-11T12:25:35Z</time>
      </trkpt>
      <trkpt lat="28.3996400" lon="-16.4435850">
        <ele>1387.9</ele>
        <time>2020-11-11T12:25:36Z</time>
      </trkpt>
      <trkpt lat="28.3996330" lon="-16.4435650">
        <ele>1387.9</ele>
        <time>2020-11-11T12:25:37Z</time>
      </trkpt>
      <trkpt lat="28.3996330" lon="-16.4435650">
        <ele>1387.9</ele>
        <time>2020-11-11T12:25:38Z</time>
      </trkpt>
      <trkpt lat="28.3996250" lon="-16.4435220">
        <ele>1387.9</ele>
        <time>2020-11-11T12:25:39Z</time>
      </trkpt>
      <trkpt lat="28.3996250" lon="-16.4435220">
        <ele>1387.9</ele>
        <time>2020-11-11T12:25:40Z</time>
      </trkpt>
      <trkpt lat="28.3996080" lon="-16.4435080">
        <ele>1387.9</ele>
        <time>2020-11-11T12:25:41Z</time>
      </trkpt>
      <trkpt lat="28.3996080" lon="-16.4435080">
        <ele>1387.9</ele>
        <time>2020-11-11T12:25:42Z</time>
      </trkpt>
      <trkpt lat="28.3995970" lon="-16.4434880">
        <ele>1388.9</ele>
        <time>2020-11-11T12:25:43Z</time>
      </trkpt>
      <trkpt lat="28.3995970" lon="-16.4434880">
        <ele>1388.9</ele>
        <time>2020-11-11T12:25:44Z</time>
      </trkpt>
      <trkpt lat="28.3995780" lon="-16.4434680">
        <ele>1388.9</ele>
        <time>2020-11-11T12:25:45Z</time>
      </trkpt>
      <trkpt lat="28.3995680" lon="-16.4434550">
        <ele>1388.9</ele>
        <time>2020-11-11T12:25:46Z</time>
      </trkpt>
      <trkpt lat="28.3995580" lon="-16.4434420">
        <ele>1388.9</ele>
        <time>2020-11-11T12:25:47Z</time>
      </trkpt>
      <trkpt lat="28.3995580" lon="-16.4434420">
        <ele>1389.9</ele>
        <time>2020-11-11T12:25:48Z</time>
      </trkpt>
      <trkpt lat="28.3995520" lon="-16.4434100">
        <ele>1389.9</ele>
        <time>2020-11-11T12:25:49Z</time>
      </trkpt>
      <trkpt lat="28.3995370" lon="-16.4434070">
        <ele>1389.9</ele>
        <time>2020-11-11T12:25:50Z</time>
      </trkpt>
      <trkpt lat="28.3995370" lon="-16.4434070">
        <ele>1389.9</ele>
        <time>2020-11-11T12:25:51Z</time>
      </trkpt>
      <trkpt lat="28.3995300" lon="-16.4433730">
        <ele>1389.9</ele>
        <time>2020-11-11T12:25:52Z</time>
      </trkpt>
      <trkpt lat="28.3995320" lon="-16.4433520">
        <ele>1389.9</ele>
        <time>2020-11-11T12:25:53Z</time>
      </trkpt>
      <trkpt lat="28.3995320" lon="-16.4433520">
        <ele>1390.9</ele>
        <time>2020-11-11T12:25:54Z</time>
      </trkpt>
      <trkpt lat="28.3995250" lon="-16.4433150">
        <ele>1390.9</ele>
        <time>2020-11-11T12:25:55Z</time>
      </trkpt>
      <trkpt lat="28.3995250" lon="-16.4433150">
        <ele>1390.9</ele>
        <time>2020-11-11T12:25:56Z</time>
      </trkpt>
      <trkpt lat="28.3995150" lon="-16.4432670">
        <ele>1390.9</ele>
        <time>2020-11-11T12:25:57Z</time>
      </trkpt>
      <trkpt lat="28.3995150" lon="-16.4432670">
        <ele>1391.9</ele>
        <time>2020-11-11T12:25:58Z</time>
      </trkpt>
      <trkpt lat="28.3995030" lon="-16.4432270">
        <ele>1391.9</ele>
        <time>2020-11-11T12:25:59Z</time>
      </trkpt>
      <trkpt lat="28.3995030" lon="-16.4432270">
        <ele>1391.9</ele>
        <time>2020-11-11T12:26:00Z</time>
      </trkpt>
      <trkpt lat="28.3995020" lon="-16.4431530">
        <ele>1391.9</ele>
        <time>2020-11-11T12:26:01Z</time>
      </trkpt>
      <trkpt lat="28.3995020" lon="-16.4431530">
        <ele>1391.9</ele>
        <time>2020-11-11T12:26:02Z</time>
      </trkpt>
      <trkpt lat="28.3994850" lon="-16.4431120">
        <ele>1391.9</ele>
        <time>2020-11-11T12:26:03Z</time>
      </trkpt>
      <trkpt lat="28.3994730" lon="-16.4430970">
        <ele>1391.9</ele>
        <time>2020-11-11T12:26:04Z</time>
      </trkpt>
      <trkpt lat="28.3994730" lon="-16.4430970">
        <ele>1391.9</ele>
        <time>2020-11-11T12:26:05Z</time>
      </trkpt>
      <trkpt lat="28.3994580" lon="-16.4430670">
        <ele>1391.9</ele>
        <time>2020-11-11T12:26:06Z</time>
      </trkpt>
      <trkpt lat="28.3994580" lon="-16.4430670">
        <ele>1391.9</ele>
        <time>2020-11-11T12:26:07Z</time>
      </trkpt>
      <trkpt lat="28.3994320" lon="-16.4430500">
        <ele>1391.9</ele>
        <time>2020-11-11T12:26:08Z</time>
      </trkpt>
      <trkpt lat="28.3994320" lon="-16.4430500">
        <ele>1391.9</ele>
        <time>2020-11-11T12:26:09Z</time>
      </trkpt>
      <trkpt lat="28.3993970" lon="-16.4430350">
        <ele>1391.9</ele>
        <time>2020-11-11T12:26:10Z</time>
      </trkpt>
      <trkpt lat="28.3993970" lon="-16.4430350">
        <ele>1391.9</ele>
        <time>2020-11-11T12:26:11Z</time>
      </trkpt>
      <trkpt lat="28.3993630" lon="-16.4430220">
        <ele>1391.9</ele>
        <time>2020-11-11T12:26:12Z</time>
      </trkpt>
      <trkpt lat="28.3993470" lon="-16.4430170">
        <ele>1391.9</ele>
        <time>2020-11-11T12:26:13Z</time>
      </trkpt>
      <trkpt lat="28.3993470" lon="-16.4430170">
        <ele>1391.9</ele>
        <time>2020-11-11T12:26:14Z</time>
      </trkpt>
      <trkpt lat="28.3993230" lon="-16.4429980">
        <ele>1391.9</ele>
        <time>2020-11-11T12:26:15Z</time>
      </trkpt>
      <trkpt lat="28.3993230" lon="-16.4429980">
        <ele>1392.9</ele>
        <time>2020-11-11T12:26:16Z</time>
      </trkpt>
      <trkpt lat="28.3993000" lon="-16.4429650">
        <ele>1392.9</ele>
        <time>2020-11-11T12:26:17Z</time>
      </trkpt>
      <trkpt lat="28.3992870" lon="-16.4429480">
        <ele>1392.9</ele>
        <time>2020-11-11T12:26:18Z</time>
      </trkpt>
      <trkpt lat="28.3992870" lon="-16.4429480">
        <ele>1392.9</ele>
        <time>2020-11-11T12:26:19Z</time>
      </trkpt>
      <trkpt lat="28.3992630" lon="-16.4429180">
        <ele>1392.9</ele>
        <time>2020-11-11T12:26:20Z</time>
      </trkpt>
      <trkpt lat="28.3992630" lon="-16.4429180">
        <ele>1392.9</ele>
        <time>2020-11-11T12:26:21Z</time>
      </trkpt>
      <trkpt lat="28.3992450" lon="-16.4429000">
        <ele>1393.9</ele>
        <time>2020-11-11T12:26:22Z</time>
      </trkpt>
      <trkpt lat="28.3992450" lon="-16.4429000">
        <ele>1393.9</ele>
        <time>2020-11-11T12:26:23Z</time>
      </trkpt>
      <trkpt lat="28.3992220" lon="-16.4428970">
        <ele>1393.9</ele>
        <time>2020-11-11T12:26:24Z</time>
      </trkpt>
      <trkpt lat="28.3992120" lon="-16.4428970">
        <ele>1393.9</ele>
        <time>2020-11-11T12:26:25Z</time>
      </trkpt>
      <trkpt lat="28.3992120" lon="-16.4428970">
        <ele>1393.9</ele>
        <time>2020-11-11T12:26:26Z</time>
      </trkpt>
      <trkpt lat="28.3991680" lon="-16.4428750">
        <ele>1394.9</ele>
        <time>2020-11-11T12:26:27Z</time>
      </trkpt>
      <trkpt lat="28.3991680" lon="-16.4428750">
        <ele>1394.9</ele>
        <time>2020-11-11T12:26:28Z</time>
      </trkpt>
      <trkpt lat="28.3991330" lon="-16.4428380">
        <ele>1394.9</ele>
        <time>2020-11-11T12:26:29Z</time>
      </trkpt>
      <trkpt lat="28.3991330" lon="-16.4428380">
        <ele>1394.9</ele>
        <time>2020-11-11T12:26:30Z</time>
      </trkpt>
      <trkpt lat="28.3991100" lon="-16.4428150">
        <ele>1395.9</ele>
        <time>2020-11-11T12:26:31Z</time>
      </trkpt>
      <trkpt lat="28.3991100" lon="-16.4428150">
        <ele>1395.9</ele>
        <time>2020-11-11T12:26:32Z</time>
      </trkpt>
      <trkpt lat="28.3990920" lon="-16.4427920">
        <ele>1395.9</ele>
        <time>2020-11-11T12:26:33Z</time>
      </trkpt>
      <trkpt lat="28.3990920" lon="-16.4427920">
        <ele>1395.9</ele>
        <time>2020-11-11T12:26:34Z</time>
      </trkpt>
      <trkpt lat="28.3990780" lon="-16.4427630">
        <ele>1396.9</ele>
        <time>2020-11-11T12:26:35Z</time>
      </trkpt>
      <trkpt lat="28.3990620" lon="-16.4427470">
        <ele>1396.9</ele>
        <time>2020-11-11T12:26:36Z</time>
      </trkpt>
      <trkpt lat="28.3990620" lon="-16.4427470">
        <ele>1396.9</ele>
        <time>2020-11-11T12:26:37Z</time>
      </trkpt>
      <trkpt lat="28.3990400" lon="-16.4427430">
        <ele>1396.9</ele>
        <time>2020-11-11T12:26:38Z</time>
      </trkpt>
      <trkpt lat="28.3990400" lon="-16.4427430">
        <ele>1397.9</ele>
        <time>2020-11-11T12:26:39Z</time>
      </trkpt>
      <trkpt lat="28.3990150" lon="-16.4427280">
        <ele>1397.9</ele>
        <time>2020-11-11T12:26:40Z</time>
      </trkpt>
      <trkpt lat="28.3989830" lon="-16.4427100">
        <ele>1397.9</ele>
        <time>2020-11-11T12:26:41Z</time>
      </trkpt>
      <trkpt lat="28.3989830" lon="-16.4427100">
        <ele>1397.9</ele>
        <time>2020-11-11T12:26:42Z</time>
      </trkpt>
      <trkpt lat="28.3989380" lon="-16.4426530">
        <ele>1397.9</ele>
        <time>2020-11-11T12:26:43Z</time>
      </trkpt>
      <trkpt lat="28.3989380" lon="-16.4426530">
        <ele>1397.9</ele>
        <time>2020-11-11T12:26:44Z</time>
      </trkpt>
      <trkpt lat="28.3989180" lon="-16.4426080">
        <ele>1397.9</ele>
        <time>2020-11-11T12:26:45Z</time>
      </trkpt>
      <trkpt lat="28.3989180" lon="-16.4426080">
        <ele>1397.9</ele>
        <time>2020-11-11T12:26:46Z</time>
      </trkpt>
      <trkpt lat="28.3988870" lon="-16.4425730">
        <ele>1398.9</ele>
        <time>2020-11-11T12:26:47Z</time>
      </trkpt>
      <trkpt lat="28.3988870" lon="-16.4425730">
        <ele>1398.9</ele>
        <time>2020-11-11T12:26:48Z</time>
      </trkpt>
      <trkpt lat="28.3988730" lon="-16.4425350">
        <ele>1398.9</ele>
        <time>2020-11-11T12:26:49Z</time>
      </trkpt>
      <trkpt lat="28.3988730" lon="-16.4425350">
        <ele>1398.9</ele>
        <time>2020-11-11T12:26:50Z</time>
      </trkpt>
      <trkpt lat="28.3988480" lon="-16.4425030">
        <ele>1398.9</ele>
        <time>2020-11-11T12:26:51Z</time>
      </trkpt>
      <trkpt lat="28.3988450" lon="-16.4424780">
        <ele>1398.9</ele>
        <time>2020-11-11T12:26:52Z</time>
      </trkpt>
      <trkpt lat="28.3988450" lon="-16.4424780">
        <ele>1399.9</ele>
        <time>2020-11-11T12:26:53Z</time>
      </trkpt>
      <trkpt lat="28.3988250" lon="-16.4424500">
        <ele>1399.9</ele>
        <time>2020-11-11T12:26:54Z</time>
      </trkpt>
      <trkpt lat="28.3988250" lon="-16.4424500">
        <ele>1399.9</ele>
        <time>2020-11-11T12:26:55Z</time>
      </trkpt>
      <trkpt lat="28.3988030" lon="-16.4424230">
        <ele>1399.9</ele>
        <time>2020-11-11T12:26:56Z</time>
      </trkpt>
      <trkpt lat="28.3988030" lon="-16.4424230">
        <ele>1399.9</ele>
        <time>2020-11-11T12:26:57Z</time>
      </trkpt>
      <trkpt lat="28.3987750" lon="-16.4423970">
        <ele>1399.9</ele>
        <time>2020-11-11T12:26:58Z</time>
      </trkpt>
      <trkpt lat="28.3987750" lon="-16.4423970">
        <ele>1400.9</ele>
        <time>2020-11-11T12:26:59Z</time>
      </trkpt>
      <trkpt lat="28.3987430" lon="-16.4423730">
        <ele>1400.9</ele>
        <time>2020-11-11T12:27:00Z</time>
      </trkpt>
      <trkpt lat="28.3987280" lon="-16.4423570">
        <ele>1400.9</ele>
        <time>2020-11-11T12:27:01Z</time>
      </trkpt>
      <trkpt lat="28.3987280" lon="-16.4423570">
        <ele>1400.9</ele>
        <time>2020-11-11T12:27:02Z</time>
      </trkpt>
      <trkpt lat="28.3986950" lon="-16.4423270">
        <ele>1400.9</ele>
        <time>2020-11-11T12:27:03Z</time>
      </trkpt>
      <trkpt lat="28.3986950" lon="-16.4423270">
        <ele>1400.9</ele>
        <time>2020-11-11T12:27:04Z</time>
      </trkpt>
      <trkpt lat="28.3986670" lon="-16.4423080">
        <ele>1401.9</ele>
        <time>2020-11-11T12:27:05Z</time>
      </trkpt>
      <trkpt lat="28.3986670" lon="-16.4423080">
        <ele>1401.9</ele>
        <time>2020-11-11T12:27:06Z</time>
      </trkpt>
      <trkpt lat="28.3986420" lon="-16.4422800">
        <ele>1401.9</ele>
        <time>2020-11-11T12:27:07Z</time>
      </trkpt>
      <trkpt lat="28.3986420" lon="-16.4422800">
        <ele>1401.9</ele>
        <time>2020-11-11T12:27:08Z</time>
      </trkpt>
      <trkpt lat="28.3986200" lon="-16.4422570">
        <ele>1401.9</ele>
        <time>2020-11-11T12:27:09Z</time>
      </trkpt>
      <trkpt lat="28.3986200" lon="-16.4422570">
        <ele>1401.9</ele>
        <time>2020-11-11T12:27:10Z</time>
      </trkpt>
      <trkpt lat="28.3985930" lon="-16.4422470">
        <ele>1402.9</ele>
        <time>2020-11-11T12:27:11Z</time>
      </trkpt>
      <trkpt lat="28.3985750" lon="-16.4422280">
        <ele>1402.9</ele>
        <time>2020-11-11T12:27:12Z</time>
      </trkpt>
      <trkpt lat="28.3985520" lon="-16.4422100">
        <ele>1402.9</ele>
        <time>2020-11-11T12:27:13Z</time>
      </trkpt>
      <trkpt lat="28.3985520" lon="-16.4422100">
        <ele>1402.9</ele>
        <time>2020-11-11T12:27:14Z</time>
      </trkpt>
      <trkpt lat="28.3985300" lon="-16.4421800">
        <ele>1402.9</ele>
        <time>2020-11-11T12:27:15Z</time>
      </trkpt>
      <trkpt lat="28.3985300" lon="-16.4421800">
        <ele>1402.9</ele>
        <time>2020-11-11T12:27:16Z</time>
      </trkpt>
      <trkpt lat="28.3984780" lon="-16.4421670">
        <ele>1402.9</ele>
        <time>2020-11-11T12:27:17Z</time>
      </trkpt>
      <trkpt lat="28.3984780" lon="-16.4421670">
        <ele>1402.9</ele>
        <time>2020-11-11T12:27:18Z</time>
      </trkpt>
      <trkpt lat="28.3984150" lon="-16.4421730">
        <ele>1402.9</ele>
        <time>2020-11-11T12:27:19Z</time>
      </trkpt>
      <trkpt lat="28.3984150" lon="-16.4421730">
        <ele>1402.9</ele>
        <time>2020-11-11T12:27:20Z</time>
      </trkpt>
      <trkpt lat="28.3983780" lon="-16.4421950">
        <ele>1402.9</ele>
        <time>2020-11-11T12:27:21Z</time>
      </trkpt>
      <trkpt lat="28.3983780" lon="-16.4421950">
        <ele>1402.9</ele>
        <time>2020-11-11T12:27:22Z</time>
      </trkpt>
      <trkpt lat="28.3983630" lon="-16.4422200">
        <ele>1402.9</ele>
        <time>2020-11-11T12:27:23Z</time>
      </trkpt>
      <trkpt lat="28.3983550" lon="-16.4422380">
        <ele>1402.9</ele>
        <time>2020-11-11T12:27:24Z</time>
      </trkpt>
      <trkpt lat="28.3983550" lon="-16.4422380">
        <ele>1402.9</ele>
        <time>2020-11-11T12:27:25Z</time>
      </trkpt>
      <trkpt lat="28.3983500" lon="-16.4422820">
        <ele>1402.9</ele>
        <time>2020-11-11T12:27:26Z</time>
      </trkpt>
      <trkpt lat="28.3983500" lon="-16.4422820">
        <ele>1402.9</ele>
        <time>2020-11-11T12:27:27Z</time>
      </trkpt>
      <trkpt lat="28.3983400" lon="-16.4423350">
        <ele>1402.9</ele>
        <time>2020-11-11T12:27:28Z</time>
      </trkpt>
      <trkpt lat="28.3983400" lon="-16.4423350">
        <ele>1403.9</ele>
        <time>2020-11-11T12:27:29Z</time>
      </trkpt>
      <trkpt lat="28.3983280" lon="-16.4423930">
        <ele>1403.9</ele>
        <time>2020-11-11T12:27:30Z</time>
      </trkpt>
      <trkpt lat="28.3983330" lon="-16.4424200">
        <ele>1403.9</ele>
        <time>2020-11-11T12:27:31Z</time>
      </trkpt>
      <trkpt lat="28.3983330" lon="-16.4424200">
        <ele>1403.9</ele>
        <time>2020-11-11T12:27:32Z</time>
      </trkpt>
      <trkpt lat="28.3983350" lon="-16.4424870">
        <ele>1403.9</ele>
        <time>2020-11-11T12:27:33Z</time>
      </trkpt>
      <trkpt lat="28.3983320" lon="-16.4425200">
        <ele>1403.9</ele>
        <time>2020-11-11T12:27:34Z</time>
      </trkpt>
      <trkpt lat="28.3983320" lon="-16.4425200">
        <ele>1403.9</ele>
        <time>2020-11-11T12:27:35Z</time>
      </trkpt>
      <trkpt lat="28.3983280" lon="-16.4425830">
        <ele>1403.9</ele>
        <time>2020-11-11T12:27:36Z</time>
      </trkpt>
      <trkpt lat="28.3983370" lon="-16.4426050">
        <ele>1403.9</ele>
        <time>2020-11-11T12:27:37Z</time>
      </trkpt>
      <trkpt lat="28.3983370" lon="-16.4426050">
        <ele>1403.9</ele>
        <time>2020-11-11T12:27:38Z</time>
      </trkpt>
      <trkpt lat="28.3983330" lon="-16.4426570">
        <ele>1403.9</ele>
        <time>2020-11-11T12:27:39Z</time>
      </trkpt>
      <trkpt lat="28.3983330" lon="-16.4426570">
        <ele>1403.9</ele>
        <time>2020-11-11T12:27:40Z</time>
      </trkpt>
      <trkpt lat="28.3983270" lon="-16.4427080">
        <ele>1403.9</ele>
        <time>2020-11-11T12:27:41Z</time>
      </trkpt>
      <trkpt lat="28.3983180" lon="-16.4427380">
        <ele>1403.9</ele>
        <time>2020-11-11T12:27:42Z</time>
      </trkpt>
      <trkpt lat="28.3983020" lon="-16.4427770">
        <ele>1403.9</ele>
        <time>2020-11-11T12:27:43Z</time>
      </trkpt>
      <trkpt lat="28.3983020" lon="-16.4427770">
        <ele>1404.9</ele>
        <time>2020-11-11T12:27:44Z</time>
      </trkpt>
      <trkpt lat="28.3982920" lon="-16.4428420">
        <ele>1404.9</ele>
        <time>2020-11-11T12:27:45Z</time>
      </trkpt>
      <trkpt lat="28.3982920" lon="-16.4428420">
        <ele>1404.9</ele>
        <time>2020-11-11T12:27:46Z</time>
      </trkpt>
      <trkpt lat="28.3983030" lon="-16.4428950">
        <ele>1404.9</ele>
        <time>2020-11-11T12:27:47Z</time>
      </trkpt>
      <trkpt lat="28.3983030" lon="-16.4428950">
        <ele>1404.9</ele>
        <time>2020-11-11T12:27:48Z</time>
      </trkpt>
      <trkpt lat="28.3983230" lon="-16.4429470">
        <ele>1404.9</ele>
        <time>2020-11-11T12:27:49Z</time>
      </trkpt>
      <trkpt lat="28.3983230" lon="-16.4429470">
        <ele>1404.9</ele>
        <time>2020-11-11T12:27:50Z</time>
      </trkpt>
      <trkpt lat="28.3983230" lon="-16.4430050">
        <ele>1404.9</ele>
        <time>2020-11-11T12:27:51Z</time>
      </trkpt>
      <trkpt lat="28.3983230" lon="-16.4430050">
        <ele>1404.9</ele>
        <time>2020-11-11T12:27:52Z</time>
      </trkpt>
      <trkpt lat="28.3983220" lon="-16.4430750">
        <ele>1404.9</ele>
        <time>2020-11-11T12:27:53Z</time>
      </trkpt>
      <trkpt lat="28.3983220" lon="-16.4430750">
        <ele>1404.9</ele>
        <time>2020-11-11T12:27:54Z</time>
      </trkpt>
      <trkpt lat="28.3983170" lon="-16.4431480">
        <ele>1404.9</ele>
        <time>2020-11-11T12:27:55Z</time>
      </trkpt>
      <trkpt lat="28.3983170" lon="-16.4431480">
        <ele>1404.9</ele>
        <time>2020-11-11T12:27:56Z</time>
      </trkpt>
      <trkpt lat="28.3983180" lon="-16.4432120">
        <ele>1404.9</ele>
        <time>2020-11-11T12:27:57Z</time>
      </trkpt>
      <trkpt lat="28.3983180" lon="-16.4432120">
        <ele>1404.9</ele>
        <time>2020-11-11T12:27:58Z</time>
      </trkpt>
      <trkpt lat="28.3983180" lon="-16.4432870">
        <ele>1405.9</ele>
        <time>2020-11-11T12:27:59Z</time>
      </trkpt>
      <trkpt lat="28.3983180" lon="-16.4432870">
        <ele>1405.9</ele>
        <time>2020-11-11T12:28:00Z</time>
      </trkpt>
      <trkpt lat="28.3983150" lon="-16.4433350">
        <ele>1405.9</ele>
        <time>2020-11-11T12:28:01Z</time>
      </trkpt>
      <trkpt lat="28.3983150" lon="-16.4433350">
        <ele>1405.9</ele>
        <time>2020-11-11T12:28:02Z</time>
      </trkpt>
      <trkpt lat="28.3983000" lon="-16.4433880">
        <ele>1405.9</ele>
        <time>2020-11-11T12:28:03Z</time>
      </trkpt>
      <trkpt lat="28.3983000" lon="-16.4433880">
        <ele>1405.9</ele>
        <time>2020-11-11T12:28:04Z</time>
      </trkpt>
      <trkpt lat="28.3982680" lon="-16.4434520">
        <ele>1405.9</ele>
        <time>2020-11-11T12:28:05Z</time>
      </trkpt>
      <trkpt lat="28.3982680" lon="-16.4434520">
        <ele>1405.9</ele>
        <time>2020-11-11T12:28:06Z</time>
      </trkpt>
      <trkpt lat="28.3982320" lon="-16.4434980">
        <ele>1405.9</ele>
        <time>2020-11-11T12:28:07Z</time>
      </trkpt>
      <trkpt lat="28.3982320" lon="-16.4434980">
        <ele>1405.9</ele>
        <time>2020-11-11T12:28:08Z</time>
      </trkpt>
      <trkpt lat="28.3981800" lon="-16.4435400">
        <ele>1405.9</ele>
        <time>2020-11-11T12:28:09Z</time>
      </trkpt>
      <trkpt lat="28.3981800" lon="-16.4435400">
        <ele>1406.9</ele>
        <time>2020-11-11T12:28:10Z</time>
      </trkpt>
      <trkpt lat="28.3981120" lon="-16.4435520">
        <ele>1406.9</ele>
        <time>2020-11-11T12:28:11Z</time>
      </trkpt>
      <trkpt lat="28.3980780" lon="-16.4435570">
        <ele>1406.9</ele>
        <time>2020-11-11T12:28:12Z</time>
      </trkpt>
      <trkpt lat="28.3980780" lon="-16.4435570">
        <ele>1406.9</ele>
        <time>2020-11-11T12:28:13Z</time>
      </trkpt>
      <trkpt lat="28.3980280" lon="-16.4435720">
        <ele>1406.9</ele>
        <time>2020-11-11T12:28:14Z</time>
      </trkpt>
      <trkpt lat="28.3980280" lon="-16.4435720">
        <ele>1406.9</ele>
        <time>2020-11-11T12:28:15Z</time>
      </trkpt>
      <trkpt lat="28.3980070" lon="-16.4436200">
        <ele>1406.9</ele>
        <time>2020-11-11T12:28:16Z</time>
      </trkpt>
      <trkpt lat="28.3980020" lon="-16.4436370">
        <ele>1406.9</ele>
        <time>2020-11-11T12:28:17Z</time>
      </trkpt>
      <trkpt lat="28.3980050" lon="-16.4436770">
        <ele>1406.9</ele>
        <time>2020-11-11T12:28:18Z</time>
      </trkpt>
      <trkpt lat="28.3980050" lon="-16.4436770">
        <ele>1406.9</ele>
        <time>2020-11-11T12:28:19Z</time>
      </trkpt>
      <trkpt lat="28.3979800" lon="-16.4437950">
        <ele>1406.9</ele>
        <time>2020-11-11T12:28:20Z</time>
      </trkpt>
      <trkpt lat="28.3979800" lon="-16.4437950">
        <ele>1406.9</ele>
        <time>2020-11-11T12:28:21Z</time>
      </trkpt>
      <trkpt lat="28.3979680" lon="-16.4438920">
        <ele>1406.9</ele>
        <time>2020-11-11T12:28:22Z</time>
      </trkpt>
      <trkpt lat="28.3979680" lon="-16.4438920">
        <ele>1406.9</ele>
        <time>2020-11-11T12:28:23Z</time>
      </trkpt>
      <trkpt lat="28.3979350" lon="-16.4439620">
        <ele>1406.9</ele>
        <time>2020-11-11T12:28:24Z</time>
      </trkpt>
      <trkpt lat="28.3979350" lon="-16.4439620">
        <ele>1406.9</ele>
        <time>2020-11-11T12:28:25Z</time>
      </trkpt>
      <trkpt lat="28.3978930" lon="-16.4440100">
        <ele>1406.9</ele>
        <time>2020-11-11T12:28:26Z</time>
      </trkpt>
      <trkpt lat="28.3978930" lon="-16.4440100">
        <ele>1406.9</ele>
        <time>2020-11-11T12:28:27Z</time>
      </trkpt>
      <trkpt lat="28.3978400" lon="-16.4440450">
        <ele>1406.9</ele>
        <time>2020-11-11T12:28:28Z</time>
      </trkpt>
      <trkpt lat="28.3978400" lon="-16.4440450">
        <ele>1406.9</ele>
        <time>2020-11-11T12:28:29Z</time>
      </trkpt>
      <trkpt lat="28.3978000" lon="-16.4440780">
        <ele>1406.9</ele>
        <time>2020-11-11T12:28:30Z</time>
      </trkpt>
      <trkpt lat="28.3978000" lon="-16.4440780">
        <ele>1406.9</ele>
        <time>2020-11-11T12:28:31Z</time>
      </trkpt>
      <trkpt lat="28.3977530" lon="-16.4441300">
        <ele>1406.9</ele>
        <time>2020-11-11T12:28:32Z</time>
      </trkpt>
      <trkpt lat="28.3977300" lon="-16.4441600">
        <ele>1406.9</ele>
        <time>2020-11-11T12:28:33Z</time>
      </trkpt>
      <trkpt lat="28.3977300" lon="-16.4441600">
        <ele>1406.9</ele>
        <time>2020-11-11T12:28:34Z</time>
      </trkpt>
      <trkpt lat="28.3976720" lon="-16.4442130">
        <ele>1406.9</ele>
        <time>2020-11-11T12:28:35Z</time>
      </trkpt>
      <trkpt lat="28.3976720" lon="-16.4442130">
        <ele>1406.9</ele>
        <time>2020-11-11T12:28:36Z</time>
      </trkpt>
      <trkpt lat="28.3976150" lon="-16.4442680">
        <ele>1406.9</ele>
        <time>2020-11-11T12:28:37Z</time>
      </trkpt>
      <trkpt lat="28.3976150" lon="-16.4442680">
        <ele>1406.9</ele>
        <time>2020-11-11T12:28:38Z</time>
      </trkpt>
      <trkpt lat="28.3975670" lon="-16.4443280">
        <ele>1408.9</ele>
        <time>2020-11-11T12:28:39Z</time>
      </trkpt>
      <trkpt lat="28.3975670" lon="-16.4443280">
        <ele>1408.9</ele>
        <time>2020-11-11T12:28:40Z</time>
      </trkpt>
      <trkpt lat="28.3975350" lon="-16.4444030">
        <ele>1408.9</ele>
        <time>2020-11-11T12:28:41Z</time>
      </trkpt>
      <trkpt lat="28.3975350" lon="-16.4444030">
        <ele>1408.9</ele>
        <time>2020-11-11T12:28:42Z</time>
      </trkpt>
      <trkpt lat="28.3975180" lon="-16.4444920">
        <ele>1408.9</ele>
        <time>2020-11-11T12:28:43Z</time>
      </trkpt>
      <trkpt lat="28.3975120" lon="-16.4445370">
        <ele>1408.9</ele>
        <time>2020-11-11T12:28:44Z</time>
      </trkpt>
      <trkpt lat="28.3975120" lon="-16.4445370">
        <ele>1408.9</ele>
        <time>2020-11-11T12:28:45Z</time>
      </trkpt>
      <trkpt lat="28.3975020" lon="-16.4446370">
        <ele>1408.9</ele>
        <time>2020-11-11T12:28:46Z</time>
      </trkpt>
      <trkpt lat="28.3975020" lon="-16.4446370">
        <ele>1408.9</ele>
        <time>2020-11-11T12:28:47Z</time>
      </trkpt>
      <trkpt lat="28.3974930" lon="-16.4447330">
        <ele>1408.9</ele>
        <time>2020-11-11T12:28:48Z</time>
      </trkpt>
      <trkpt lat="28.3974880" lon="-16.4447700">
        <ele>1408.9</ele>
        <time>2020-11-11T12:28:49Z</time>
      </trkpt>
      <trkpt lat="28.3974880" lon="-16.4447700">
        <ele>1408.9</ele>
        <time>2020-11-11T12:28:50Z</time>
      </trkpt>
      <trkpt lat="28.3974830" lon="-16.4448800">
        <ele>1408.9</ele>
        <time>2020-11-11T12:28:51Z</time>
      </trkpt>
      <trkpt lat="28.3974830" lon="-16.4448800">
        <ele>1408.9</ele>
        <time>2020-11-11T12:28:52Z</time>
      </trkpt>
      <trkpt lat="28.3974770" lon="-16.4449750">
        <ele>1408.9</ele>
        <time>2020-11-11T12:28:53Z</time>
      </trkpt>
      <trkpt lat="28.3974770" lon="-16.4449750">
        <ele>1408.9</ele>
        <time>2020-11-11T12:28:54Z</time>
      </trkpt>
      <trkpt lat="28.3974820" lon="-16.4450870">
        <ele>1408.9</ele>
        <time>2020-11-11T12:28:55Z</time>
      </trkpt>
      <trkpt lat="28.3974820" lon="-16.4450870">
        <ele>1408.9</ele>
        <time>2020-11-11T12:28:56Z</time>
      </trkpt>
      <trkpt lat="28.3974770" lon="-16.4451830">
        <ele>1408.9</ele>
        <time>2020-11-11T12:28:57Z</time>
      </trkpt>
      <trkpt lat="28.3974700" lon="-16.4452370">
        <ele>1408.9</ele>
        <time>2020-11-11T12:28:58Z</time>
      </trkpt>
      <trkpt lat="28.3974670" lon="-16.4452870">
        <ele>1408.9</ele>
        <time>2020-11-11T12:28:59Z</time>
      </trkpt>
      <trkpt lat="28.3974670" lon="-16.4452870">
        <ele>1408.9</ele>
        <time>2020-11-11T12:29:00Z</time>
      </trkpt>
      <trkpt lat="28.3974520" lon="-16.4453800">
        <ele>1408.9</ele>
        <time>2020-11-11T12:29:01Z</time>
      </trkpt>
      <trkpt lat="28.3974520" lon="-16.4453800">
        <ele>1408.9</ele>
        <time>2020-11-11T12:29:02Z</time>
      </trkpt>
      <trkpt lat="28.3974320" lon="-16.4454720">
        <ele>1408.9</ele>
        <time>2020-11-11T12:29:03Z</time>
      </trkpt>
      <trkpt lat="28.3974320" lon="-16.4454720">
        <ele>1408.9</ele>
        <time>2020-11-11T12:29:04Z</time>
      </trkpt>
      <trkpt lat="28.3974170" lon="-16.4455580">
        <ele>1408.9</ele>
        <time>2020-11-11T12:29:05Z</time>
      </trkpt>
      <trkpt lat="28.3974170" lon="-16.4455580">
        <ele>1408.9</ele>
        <time>2020-11-11T12:29:06Z</time>
      </trkpt>
      <trkpt lat="28.3973770" lon="-16.4456550">
        <ele>1408.9</ele>
        <time>2020-11-11T12:29:07Z</time>
      </trkpt>
      <trkpt lat="28.3973770" lon="-16.4456550">
        <ele>1408.9</ele>
        <time>2020-11-11T12:29:08Z</time>
      </trkpt>
      <trkpt lat="28.3973200" lon="-16.4457280">
        <ele>1407.9</ele>
        <time>2020-11-11T12:29:09Z</time>
      </trkpt>
      <trkpt lat="28.3973200" lon="-16.4457280">
        <ele>1407.9</ele>
        <time>2020-11-11T12:29:10Z</time>
      </trkpt>
      <trkpt lat="28.3972500" lon="-16.4457900">
        <ele>1407.9</ele>
        <time>2020-11-11T12:29:11Z</time>
      </trkpt>
      <trkpt lat="28.3972500" lon="-16.4457900">
        <ele>1407.9</ele>
        <time>2020-11-11T12:29:12Z</time>
      </trkpt>
      <trkpt lat="28.3971770" lon="-16.4458250">
        <ele>1407.9</ele>
        <time>2020-11-11T12:29:13Z</time>
      </trkpt>
      <trkpt lat="28.3971770" lon="-16.4458250">
        <ele>1407.9</ele>
        <time>2020-11-11T12:29:14Z</time>
      </trkpt>
      <trkpt lat="28.3971020" lon="-16.4458400">
        <ele>1406.9</ele>
        <time>2020-11-11T12:29:15Z</time>
      </trkpt>
      <trkpt lat="28.3971020" lon="-16.4458400">
        <ele>1406.9</ele>
        <time>2020-11-11T12:29:16Z</time>
      </trkpt>
      <trkpt lat="28.3970130" lon="-16.4458570">
        <ele>1406.9</ele>
        <time>2020-11-11T12:29:17Z</time>
      </trkpt>
      <trkpt lat="28.3969680" lon="-16.4458670">
        <ele>1406.9</ele>
        <time>2020-11-11T12:29:18Z</time>
      </trkpt>
      <trkpt lat="28.3969680" lon="-16.4458670">
        <ele>1406.9</ele>
        <time>2020-11-11T12:29:19Z</time>
      </trkpt>
      <trkpt lat="28.3968830" lon="-16.4458920">
        <ele>1406.9</ele>
        <time>2020-11-11T12:29:20Z</time>
      </trkpt>
      <trkpt lat="28.3968420" lon="-16.4459050">
        <ele>1406.9</ele>
        <time>2020-11-11T12:29:21Z</time>
      </trkpt>
      <trkpt lat="28.3968420" lon="-16.4459050">
        <ele>1406.9</ele>
        <time>2020-11-11T12:29:22Z</time>
      </trkpt>
      <trkpt lat="28.3967530" lon="-16.4459220">
        <ele>1405.9</ele>
        <time>2020-11-11T12:29:23Z</time>
      </trkpt>
      <trkpt lat="28.3967530" lon="-16.4459220">
        <ele>1405.9</ele>
        <time>2020-11-11T12:29:24Z</time>
      </trkpt>
      <trkpt lat="28.3966620" lon="-16.4459170">
        <ele>1405.9</ele>
        <time>2020-11-11T12:29:25Z</time>
      </trkpt>
      <trkpt lat="28.3966620" lon="-16.4459170">
        <ele>1405.9</ele>
        <time>2020-11-11T12:29:26Z</time>
      </trkpt>
      <trkpt lat="28.3965720" lon="-16.4459280">
        <ele>1404.9</ele>
        <time>2020-11-11T12:29:27Z</time>
      </trkpt>
      <trkpt lat="28.3965720" lon="-16.4459280">
        <ele>1404.9</ele>
        <time>2020-11-11T12:29:28Z</time>
      </trkpt>
      <trkpt lat="28.3965200" lon="-16.4459420">
        <ele>1404.9</ele>
        <time>2020-11-11T12:29:29Z</time>
      </trkpt>
      <trkpt lat="28.3965200" lon="-16.4459420">
        <ele>1403.9</ele>
        <time>2020-11-11T12:29:30Z</time>
      </trkpt>
      <trkpt lat="28.3964980" lon="-16.4459750">
        <ele>1403.9</ele>
        <time>2020-11-11T12:29:31Z</time>
      </trkpt>
      <trkpt lat="28.3964280" lon="-16.4460570">
        <ele>1403.9</ele>
        <time>2020-11-11T12:29:32Z</time>
      </trkpt>
      <trkpt lat="28.3964280" lon="-16.4460570">
        <ele>1403.9</ele>
        <time>2020-11-11T12:29:33Z</time>
      </trkpt>
      <trkpt lat="28.3962930" lon="-16.4462580">
        <ele>1402.9</ele>
        <time>2020-11-11T12:29:34Z</time>
      </trkpt>
      <trkpt lat="28.3962930" lon="-16.4462580">
        <ele>1402.9</ele>
        <time>2020-11-11T12:29:35Z</time>
      </trkpt>
      <trkpt lat="28.3962480" lon="-16.4463950">
        <ele>1401.9</ele>
        <time>2020-11-11T12:29:36Z</time>
      </trkpt>
      <trkpt lat="28.3962320" lon="-16.4464350">
        <ele>1401.9</ele>
        <time>2020-11-11T12:29:37Z</time>
      </trkpt>
      <trkpt lat="28.3962320" lon="-16.4464350">
        <ele>1400.9</ele>
        <time>2020-11-11T12:29:38Z</time>
      </trkpt>
      <trkpt lat="28.3961850" lon="-16.4464780">
        <ele>1400.9</ele>
        <time>2020-11-11T12:29:39Z</time>
      </trkpt>
      <trkpt lat="28.3961850" lon="-16.4464780">
        <ele>1398.9</ele>
        <time>2020-11-11T12:29:40Z</time>
      </trkpt>
      <trkpt lat="28.3960950" lon="-16.4465170">
        <ele>1398.9</ele>
        <time>2020-11-11T12:29:41Z</time>
      </trkpt>
      <trkpt lat="28.3960950" lon="-16.4465170">
        <ele>1397.9</ele>
        <time>2020-11-11T12:29:42Z</time>
      </trkpt>
      <trkpt lat="28.3959930" lon="-16.4465480">
        <ele>1397.9</ele>
        <time>2020-11-11T12:29:43Z</time>
      </trkpt>
      <trkpt lat="28.3959930" lon="-16.4465480">
        <ele>1397.9</ele>
        <time>2020-11-11T12:29:44Z</time>
      </trkpt>
      <trkpt lat="28.3959080" lon="-16.4466180">
        <ele>1397.9</ele>
        <time>2020-11-11T12:29:45Z</time>
      </trkpt>
      <trkpt lat="28.3959080" lon="-16.4466180">
        <ele>1397.9</ele>
        <time>2020-11-11T12:29:46Z</time>
      </trkpt>
      <trkpt lat="28.3959120" lon="-16.4466980">
        <ele>1397.9</ele>
        <time>2020-11-11T12:29:47Z</time>
      </trkpt>
      <trkpt lat="28.3959400" lon="-16.4467580">
        <ele>1396.9</ele>
        <time>2020-11-11T12:29:48Z</time>
      </trkpt>
      <trkpt lat="28.3959400" lon="-16.4467580">
        <ele>1396.9</ele>
        <time>2020-11-11T12:29:49Z</time>
      </trkpt>
      <trkpt lat="28.3960030" lon="-16.4468670">
        <ele>1396.9</ele>
        <time>2020-11-11T12:29:50Z</time>
      </trkpt>
      <trkpt lat="28.3960030" lon="-16.4468670">
        <ele>1396.9</ele>
        <time>2020-11-11T12:29:51Z</time>
      </trkpt>
      <trkpt lat="28.3960850" lon="-16.4469750">
        <ele>1394.9</ele>
        <time>2020-11-11T12:29:52Z</time>
      </trkpt>
      <trkpt lat="28.3960850" lon="-16.4469750">
        <ele>1394.9</ele>
        <time>2020-11-11T12:29:53Z</time>
      </trkpt>
      <trkpt lat="28.3961680" lon="-16.4470980">
        <ele>1394.9</ele>
        <time>2020-11-11T12:29:54Z</time>
      </trkpt>
      <trkpt lat="28.3962050" lon="-16.4471620">
        <ele>1394.9</ele>
        <time>2020-11-11T12:29:55Z</time>
      </trkpt>
      <trkpt lat="28.3962050" lon="-16.4471620">
        <ele>1394.9</ele>
        <time>2020-11-11T12:29:56Z</time>
      </trkpt>
      <trkpt lat="28.3962730" lon="-16.4473020">
        <ele>1394.9</ele>
        <time>2020-11-11T12:29:57Z</time>
      </trkpt>
      <trkpt lat="28.3962730" lon="-16.4473020">
        <ele>1394.9</ele>
        <time>2020-11-11T12:29:58Z</time>
      </trkpt>
      <trkpt lat="28.3963450" lon="-16.4474220">
        <ele>1394.9</ele>
        <time>2020-11-11T12:29:59Z</time>
      </trkpt>
      <trkpt lat="28.3963450" lon="-16.4474220">
        <ele>1392.9</ele>
        <time>2020-11-11T12:30:00Z</time>
      </trkpt>
      <trkpt lat="28.3963770" lon="-16.4475330">
        <ele>1392.9</ele>
        <time>2020-11-11T12:30:01Z</time>
      </trkpt>
      <trkpt lat="28.3963770" lon="-16.4475330">
        <ele>1392.9</ele>
        <time>2020-11-11T12:30:02Z</time>
      </trkpt>
      <trkpt lat="28.3963780" lon="-16.4476430">
        <ele>1392.9</ele>
        <time>2020-11-11T12:30:03Z</time>
      </trkpt>
      <trkpt lat="28.3963700" lon="-16.4477230">
        <ele>1391.9</ele>
        <time>2020-11-11T12:30:04Z</time>
      </trkpt>
      <trkpt lat="28.3963680" lon="-16.4477770">
        <ele>1391.9</ele>
        <time>2020-11-11T12:30:05Z</time>
      </trkpt>
      <trkpt lat="28.3963680" lon="-16.4477770">
        <ele>1391.9</ele>
        <time>2020-11-11T12:30:06Z</time>
      </trkpt>
      <trkpt lat="28.3963850" lon="-16.4478930">
        <ele>1391.9</ele>
        <time>2020-11-11T12:30:07Z</time>
      </trkpt>
      <trkpt lat="28.3963850" lon="-16.4478930">
        <ele>1391.9</ele>
        <time>2020-11-11T12:30:08Z</time>
      </trkpt>
      <trkpt lat="28.3963530" lon="-16.4480350">
        <ele>1391.9</ele>
        <time>2020-11-11T12:30:09Z</time>
      </trkpt>
      <trkpt lat="28.3963530" lon="-16.4480350">
        <ele>1390.9</ele>
        <time>2020-11-11T12:30:10Z</time>
      </trkpt>
      <trkpt lat="28.3962650" lon="-16.4481180">
        <ele>1390.9</ele>
        <time>2020-11-11T12:30:11Z</time>
      </trkpt>
      <trkpt lat="28.3962250" lon="-16.4481480">
        <ele>1390.9</ele>
        <time>2020-11-11T12:30:12Z</time>
      </trkpt>
      <trkpt lat="28.3961800" lon="-16.4481550">
        <ele>1390.9</ele>
        <time>2020-11-11T12:30:13Z</time>
      </trkpt>
      <trkpt lat="28.3961800" lon="-16.4481550">
        <ele>1390.9</ele>
        <time>2020-11-11T12:30:14Z</time>
      </trkpt>
      <trkpt lat="28.3960900" lon="-16.4481800">
        <ele>1390.9</ele>
        <time>2020-11-11T12:30:15Z</time>
      </trkpt>
      <trkpt lat="28.3960530" lon="-16.4481980">
        <ele>1390.9</ele>
        <time>2020-11-11T12:30:16Z</time>
      </trkpt>
      <trkpt lat="28.3960530" lon="-16.4481980">
        <ele>1390.9</ele>
        <time>2020-11-11T12:30:17Z</time>
      </trkpt>
      <trkpt lat="28.3959900" lon="-16.4482530">
        <ele>1389.9</ele>
        <time>2020-11-11T12:30:18Z</time>
      </trkpt>
      <trkpt lat="28.3959900" lon="-16.4482530">
        <ele>1389.9</ele>
        <time>2020-11-11T12:30:19Z</time>
      </trkpt>
      <trkpt lat="28.3959330" lon="-16.4482880">
        <ele>1389.9</ele>
        <time>2020-11-11T12:30:20Z</time>
      </trkpt>
      <trkpt lat="28.3959330" lon="-16.4482880">
        <ele>1389.9</ele>
        <time>2020-11-11T12:30:21Z</time>
      </trkpt>
      <trkpt lat="28.3958400" lon="-16.4483400">
        <ele>1389.9</ele>
        <time>2020-11-11T12:30:22Z</time>
      </trkpt>
      <trkpt lat="28.3957920" lon="-16.4483570">
        <ele>1389.9</ele>
        <time>2020-11-11T12:30:23Z</time>
      </trkpt>
      <trkpt lat="28.3957920" lon="-16.4483570">
        <ele>1389.9</ele>
        <time>2020-11-11T12:30:24Z</time>
      </trkpt>
      <trkpt lat="28.3957270" lon="-16.4483900">
        <ele>1389.9</ele>
        <time>2020-11-11T12:30:25Z</time>
      </trkpt>
      <trkpt lat="28.3957270" lon="-16.4483900">
        <ele>1388.9</ele>
        <time>2020-11-11T12:30:26Z</time>
      </trkpt>
      <trkpt lat="28.3957120" lon="-16.4484700">
        <ele>1388.9</ele>
        <time>2020-11-11T12:30:27Z</time>
      </trkpt>
      <trkpt lat="28.3957120" lon="-16.4484700">
        <ele>1388.9</ele>
        <time>2020-11-11T12:30:28Z</time>
      </trkpt>
      <trkpt lat="28.3957170" lon="-16.4485850">
        <ele>1388.9</ele>
        <time>2020-11-11T12:30:29Z</time>
      </trkpt>
      <trkpt lat="28.3957170" lon="-16.4485850">
        <ele>1387.9</ele>
        <time>2020-11-11T12:30:30Z</time>
      </trkpt>
      <trkpt lat="28.3957300" lon="-16.4487280">
        <ele>1387.9</ele>
        <time>2020-11-11T12:30:31Z</time>
      </trkpt>
      <trkpt lat="28.3957300" lon="-16.4487280">
        <ele>1387.9</ele>
        <time>2020-11-11T12:30:32Z</time>
      </trkpt>
      <trkpt lat="28.3957680" lon="-16.4488500">
        <ele>1387.9</ele>
        <time>2020-11-11T12:30:33Z</time>
      </trkpt>
      <trkpt lat="28.3958000" lon="-16.4489000">
        <ele>1387.9</ele>
        <time>2020-11-11T12:30:34Z</time>
      </trkpt>
      <trkpt lat="28.3958000" lon="-16.4489000">
        <ele>1387.9</ele>
        <time>2020-11-11T12:30:35Z</time>
      </trkpt>
      <trkpt lat="28.3958670" lon="-16.4489780">
        <ele>1387.9</ele>
        <time>2020-11-11T12:30:36Z</time>
      </trkpt>
      <trkpt lat="28.3958670" lon="-16.4489780">
        <ele>1387.9</ele>
        <time>2020-11-11T12:30:37Z</time>
      </trkpt>
      <trkpt lat="28.3959500" lon="-16.4490670">
        <ele>1387.9</ele>
        <time>2020-11-11T12:30:38Z</time>
      </trkpt>
      <trkpt lat="28.3959500" lon="-16.4490670">
        <ele>1387.9</ele>
        <time>2020-11-11T12:30:39Z</time>
      </trkpt>
      <trkpt lat="28.3960280" lon="-16.4491530">
        <ele>1387.9</ele>
        <time>2020-11-11T12:30:40Z</time>
      </trkpt>
      <trkpt lat="28.3960680" lon="-16.4492030">
        <ele>1387.9</ele>
        <time>2020-11-11T12:30:41Z</time>
      </trkpt>
      <trkpt lat="28.3960680" lon="-16.4492030">
        <ele>1387.9</ele>
        <time>2020-11-11T12:30:42Z</time>
      </trkpt>
      <trkpt lat="28.3961350" lon="-16.4492970">
        <ele>1386.9</ele>
        <time>2020-11-11T12:30:43Z</time>
      </trkpt>
      <trkpt lat="28.3961350" lon="-16.4492970">
        <ele>1386.9</ele>
        <time>2020-11-11T12:30:44Z</time>
      </trkpt>
      <trkpt lat="28.3962070" lon="-16.4493850">
        <ele>1386.9</ele>
        <time>2020-11-11T12:30:45Z</time>
      </trkpt>
      <trkpt lat="28.3962070" lon="-16.4493850">
        <ele>1386.9</ele>
        <time>2020-11-11T12:30:46Z</time>
      </trkpt>
      <trkpt lat="28.3962870" lon="-16.4494500">
        <ele>1386.9</ele>
        <time>2020-11-11T12:30:47Z</time>
      </trkpt>
      <trkpt lat="28.3962870" lon="-16.4494500">
        <ele>1386.9</ele>
        <time>2020-11-11T12:30:48Z</time>
      </trkpt>
      <trkpt lat="28.3963680" lon="-16.4495170">
        <ele>1386.9</ele>
        <time>2020-11-11T12:30:49Z</time>
      </trkpt>
      <trkpt lat="28.3964100" lon="-16.4495570">
        <ele>1385.9</ele>
        <time>2020-11-11T12:30:50Z</time>
      </trkpt>
      <trkpt lat="28.3964100" lon="-16.4495570">
        <ele>1385.9</ele>
        <time>2020-11-11T12:30:51Z</time>
      </trkpt>
      <trkpt lat="28.3964920" lon="-16.4496520">
        <ele>1385.9</ele>
        <time>2020-11-11T12:30:52Z</time>
      </trkpt>
      <trkpt lat="28.3965250" lon="-16.4497020">
        <ele>1385.9</ele>
        <time>2020-11-11T12:30:53Z</time>
      </trkpt>
      <trkpt lat="28.3965250" lon="-16.4497020">
        <ele>1384.9</ele>
        <time>2020-11-11T12:30:54Z</time>
      </trkpt>
      <trkpt lat="28.3966280" lon="-16.4498020">
        <ele>1384.9</ele>
        <time>2020-11-11T12:30:55Z</time>
      </trkpt>
      <trkpt lat="28.3966680" lon="-16.4498550">
        <ele>1384.9</ele>
        <time>2020-11-11T12:30:56Z</time>
      </trkpt>
      <trkpt lat="28.3966680" lon="-16.4498550">
        <ele>1384.9</ele>
        <time>2020-11-11T12:30:57Z</time>
      </trkpt>
      <trkpt lat="28.3967520" lon="-16.4499570">
        <ele>1383.9</ele>
        <time>2020-11-11T12:30:58Z</time>
      </trkpt>
      <trkpt lat="28.3967520" lon="-16.4499570">
        <ele>1383.9</ele>
        <time>2020-11-11T12:30:59Z</time>
      </trkpt>
      <trkpt lat="28.3968500" lon="-16.4500600">
        <ele>1383.9</ele>
        <time>2020-11-11T12:31:00Z</time>
      </trkpt>
      <trkpt lat="28.3968820" lon="-16.4501080">
        <ele>1383.9</ele>
        <time>2020-11-11T12:31:01Z</time>
      </trkpt>
      <trkpt lat="28.3968820" lon="-16.4501080">
        <ele>1382.9</ele>
        <time>2020-11-11T12:31:02Z</time>
      </trkpt>
      <trkpt lat="28.3969550" lon="-16.4502030">
        <ele>1382.9</ele>
        <time>2020-11-11T12:31:03Z</time>
      </trkpt>
      <trkpt lat="28.3969550" lon="-16.4502030">
        <ele>1382.9</ele>
        <time>2020-11-11T12:31:04Z</time>
      </trkpt>
      <trkpt lat="28.3970270" lon="-16.4502820">
        <ele>1382.9</ele>
        <time>2020-11-11T12:31:05Z</time>
      </trkpt>
      <trkpt lat="28.3970270" lon="-16.4502820">
        <ele>1382.9</ele>
        <time>2020-11-11T12:31:06Z</time>
      </trkpt>
      <trkpt lat="28.3971000" lon="-16.4503830">
        <ele>1382.9</ele>
        <time>2020-11-11T12:31:07Z</time>
      </trkpt>
      <trkpt lat="28.3971350" lon="-16.4504400">
        <ele>1381.9</ele>
        <time>2020-11-11T12:31:08Z</time>
      </trkpt>
      <trkpt lat="28.3971350" lon="-16.4504400">
        <ele>1381.9</ele>
        <time>2020-11-11T12:31:09Z</time>
      </trkpt>
      <trkpt lat="28.3972220" lon="-16.4505350">
        <ele>1381.9</ele>
        <time>2020-11-11T12:31:10Z</time>
      </trkpt>
      <trkpt lat="28.3972220" lon="-16.4505350">
        <ele>1381.9</ele>
        <time>2020-11-11T12:31:11Z</time>
      </trkpt>
      <trkpt lat="28.3972770" lon="-16.4506070">
        <ele>1381.9</ele>
        <time>2020-11-11T12:31:12Z</time>
      </trkpt>
      <trkpt lat="28.3973270" lon="-16.4506320">
        <ele>1381.9</ele>
        <time>2020-11-11T12:31:13Z</time>
      </trkpt>
      <trkpt lat="28.3973270" lon="-16.4506320">
        <ele>1381.9</ele>
        <time>2020-11-11T12:31:14Z</time>
      </trkpt>
      <trkpt lat="28.3974030" lon="-16.4507130">
        <ele>1381.9</ele>
        <time>2020-11-11T12:31:15Z</time>
      </trkpt>
      <trkpt lat="28.3974030" lon="-16.4507130">
        <ele>1380.9</ele>
        <time>2020-11-11T12:31:16Z</time>
      </trkpt>
      <trkpt lat="28.3974370" lon="-16.4507820">
        <ele>1380.9</ele>
        <time>2020-11-11T12:31:17Z</time>
      </trkpt>
      <trkpt lat="28.3974370" lon="-16.4507820">
        <ele>1380.9</ele>
        <time>2020-11-11T12:31:18Z</time>
      </trkpt>
      <trkpt lat="28.3974080" lon="-16.4508230">
        <ele>1380.9</ele>
        <time>2020-11-11T12:31:19Z</time>
      </trkpt>
      <trkpt lat="28.3974080" lon="-16.4508230">
        <ele>1380.9</ele>
        <time>2020-11-11T12:31:20Z</time>
      </trkpt>
      <trkpt lat="28.3973400" lon="-16.4508600">
        <ele>1380.9</ele>
        <time>2020-11-11T12:31:21Z</time>
      </trkpt>
      <trkpt lat="28.3973120" lon="-16.4508670">
        <ele>1379.9</ele>
        <time>2020-11-11T12:31:22Z</time>
      </trkpt>
      <trkpt lat="28.3973120" lon="-16.4508670">
        <ele>1379.9</ele>
        <time>2020-11-11T12:31:23Z</time>
      </trkpt>
      <trkpt lat="28.3972310" lon="-16.4508790">
        <ele>1379.9</ele>
        <time>2020-11-11T12:31:24Z</time>
      </trkpt>
      <trkpt lat="28.3972170" lon="-16.4508830">
        <ele>1379.9</ele>
        <time>2020-11-11T12:31:25Z</time>
      </trkpt>
      <trkpt lat="28.3972030" lon="-16.4508870">
        <ele>1379.9</ele>
        <time>2020-11-11T12:31:26Z</time>
      </trkpt>
      <trkpt lat="28.3971220" lon="-16.4509200">
        <ele>1379.9</ele>
        <time>2020-11-11T12:31:27Z</time>
      </trkpt>
      <trkpt lat="28.3970750" lon="-16.4509130">
        <ele>1379.9</ele>
        <time>2020-11-11T12:31:28Z</time>
      </trkpt>
      <trkpt lat="28.3970380" lon="-16.4509070">
        <ele>1379.9</ele>
        <time>2020-11-11T12:31:29Z</time>
      </trkpt>
      <trkpt lat="28.3970380" lon="-16.4509070">
        <ele>1379.9</ele>
        <time>2020-11-11T12:31:30Z</time>
      </trkpt>
      <trkpt lat="28.3969700" lon="-16.4508920">
        <ele>1378.9</ele>
        <time>2020-11-11T12:31:31Z</time>
      </trkpt>
      <trkpt lat="28.3969700" lon="-16.4508920">
        <ele>1378.9</ele>
        <time>2020-11-11T12:31:32Z</time>
      </trkpt>
      <trkpt lat="28.3968880" lon="-16.4509020">
        <ele>1378.9</ele>
        <time>2020-11-11T12:31:33Z</time>
      </trkpt>
      <trkpt lat="28.3968880" lon="-16.4509020">
        <ele>1378.9</ele>
        <time>2020-11-11T12:31:34Z</time>
      </trkpt>
      <trkpt lat="28.3968130" lon="-16.4508730">
        <ele>1378.9</ele>
        <time>2020-11-11T12:31:35Z</time>
      </trkpt>
      <trkpt lat="28.3968130" lon="-16.4508730">
        <ele>1378.9</ele>
        <time>2020-11-11T12:31:36Z</time>
      </trkpt>
      <trkpt lat="28.3967120" lon="-16.4508250">
        <ele>1377.9</ele>
        <time>2020-11-11T12:31:37Z</time>
      </trkpt>
      <trkpt lat="28.3967120" lon="-16.4508250">
        <ele>1377.9</ele>
        <time>2020-11-11T12:31:38Z</time>
      </trkpt>
      <trkpt lat="28.3966220" lon="-16.4507950">
        <ele>1377.9</ele>
        <time>2020-11-11T12:31:39Z</time>
      </trkpt>
      <trkpt lat="28.3965730" lon="-16.4507830">
        <ele>1377.9</ele>
        <time>2020-11-11T12:31:40Z</time>
      </trkpt>
      <trkpt lat="28.3965730" lon="-16.4507830">
        <ele>1376.9</ele>
        <time>2020-11-11T12:31:41Z</time>
      </trkpt>
      <trkpt lat="28.3964800" lon="-16.4507650">
        <ele>1376.9</ele>
        <time>2020-11-11T12:31:42Z</time>
      </trkpt>
      <trkpt lat="28.3964800" lon="-16.4507650">
        <ele>1376.9</ele>
        <time>2020-11-11T12:31:43Z</time>
      </trkpt>
      <trkpt lat="28.3963870" lon="-16.4507480">
        <ele>1376.9</ele>
        <time>2020-11-11T12:31:44Z</time>
      </trkpt>
      <trkpt lat="28.3963420" lon="-16.4507320">
        <ele>1376.9</ele>
        <time>2020-11-11T12:31:45Z</time>
      </trkpt>
      <trkpt lat="28.3963420" lon="-16.4507320">
        <ele>1376.9</ele>
        <time>2020-11-11T12:31:46Z</time>
      </trkpt>
      <trkpt lat="28.3962420" lon="-16.4507300">
        <ele>1375.9</ele>
        <time>2020-11-11T12:31:47Z</time>
      </trkpt>
      <trkpt lat="28.3961800" lon="-16.4507420">
        <ele>1375.9</ele>
        <time>2020-11-11T12:31:48Z</time>
      </trkpt>
      <trkpt lat="28.3961230" lon="-16.4507450">
        <ele>1375.9</ele>
        <time>2020-11-11T12:31:49Z</time>
      </trkpt>
      <trkpt lat="28.3961230" lon="-16.4507450">
        <ele>1375.9</ele>
        <time>2020-11-11T12:31:50Z</time>
      </trkpt>
      <trkpt lat="28.3960030" lon="-16.4507630">
        <ele>1375.9</ele>
        <time>2020-11-11T12:31:51Z</time>
      </trkpt>
      <trkpt lat="28.3960030" lon="-16.4507630">
        <ele>1375.9</ele>
        <time>2020-11-11T12:31:52Z</time>
      </trkpt>
      <trkpt lat="28.3958800" lon="-16.4508000">
        <ele>1375.9</ele>
        <time>2020-11-11T12:31:53Z</time>
      </trkpt>
      <trkpt lat="28.3958800" lon="-16.4508000">
        <ele>1375.9</ele>
        <time>2020-11-11T12:31:54Z</time>
      </trkpt>
      <trkpt lat="28.3957150" lon="-16.4508930">
        <ele>1375.9</ele>
        <time>2020-11-11T12:31:55Z</time>
      </trkpt>
      <trkpt lat="28.3957150" lon="-16.4508930">
        <ele>1375.9</ele>
        <time>2020-11-11T12:31:56Z</time>
      </trkpt>
      <trkpt lat="28.3956630" lon="-16.4509680">
        <ele>1375.9</ele>
        <time>2020-11-11T12:31:57Z</time>
      </trkpt>
      <trkpt lat="28.3956300" lon="-16.4510300">
        <ele>1375.9</ele>
        <time>2020-11-11T12:31:58Z</time>
      </trkpt>
      <trkpt lat="28.3956000" lon="-16.4510800">
        <ele>1374.9</ele>
        <time>2020-11-11T12:31:59Z</time>
      </trkpt>
      <trkpt lat="28.3956000" lon="-16.4510800">
        <ele>1374.9</ele>
        <time>2020-11-11T12:32:00Z</time>
      </trkpt>
      <trkpt lat="28.3955630" lon="-16.4511480">
        <ele>1374.9</ele>
        <time>2020-11-11T12:32:01Z</time>
      </trkpt>
      <trkpt lat="28.3955630" lon="-16.4511480">
        <ele>1374.9</ele>
        <time>2020-11-11T12:32:02Z</time>
      </trkpt>
      <trkpt lat="28.3955130" lon="-16.4512050">
        <ele>1374.9</ele>
        <time>2020-11-11T12:32:03Z</time>
      </trkpt>
      <trkpt lat="28.3954680" lon="-16.4512230">
        <ele>1374.9</ele>
        <time>2020-11-11T12:32:04Z</time>
      </trkpt>
      <trkpt lat="28.3954680" lon="-16.4512230">
        <ele>1373.9</ele>
        <time>2020-11-11T12:32:05Z</time>
      </trkpt>
      <trkpt lat="28.3953880" lon="-16.4512380">
        <ele>1373.9</ele>
        <time>2020-11-11T12:32:06Z</time>
      </trkpt>
      <trkpt lat="28.3953400" lon="-16.4512380">
        <ele>1373.9</ele>
        <time>2020-11-11T12:32:07Z</time>
      </trkpt>
      <trkpt lat="28.3953400" lon="-16.4512380">
        <ele>1373.9</ele>
        <time>2020-11-11T12:32:08Z</time>
      </trkpt>
      <trkpt lat="28.3952430" lon="-16.4512670">
        <ele>1373.9</ele>
        <time>2020-11-11T12:32:09Z</time>
      </trkpt>
      <trkpt lat="28.3952430" lon="-16.4512670">
        <ele>1373.9</ele>
        <time>2020-11-11T12:32:10Z</time>
      </trkpt>
      <trkpt lat="28.3951420" lon="-16.4512730">
        <ele>1373.9</ele>
        <time>2020-11-11T12:32:11Z</time>
      </trkpt>
      <trkpt lat="28.3951120" lon="-16.4512750">
        <ele>1373.9</ele>
        <time>2020-11-11T12:32:12Z</time>
      </trkpt>
      <trkpt lat="28.3951120" lon="-16.4512750">
        <ele>1372.9</ele>
        <time>2020-11-11T12:32:13Z</time>
      </trkpt>
      <trkpt lat="28.3950780" lon="-16.4513670">
        <ele>1372.9</ele>
        <time>2020-11-11T12:32:14Z</time>
      </trkpt>
      <trkpt lat="28.3950780" lon="-16.4513670">
        <ele>1372.9</ele>
        <time>2020-11-11T12:32:15Z</time>
      </trkpt>
      <trkpt lat="28.3951020" lon="-16.4514570">
        <ele>1372.9</ele>
        <time>2020-11-11T12:32:16Z</time>
      </trkpt>
      <trkpt lat="28.3951020" lon="-16.4514570">
        <ele>1371.9</ele>
        <time>2020-11-11T12:32:17Z</time>
      </trkpt>
      <trkpt lat="28.3951550" lon="-16.4515320">
        <ele>1371.9</ele>
        <time>2020-11-11T12:32:18Z</time>
      </trkpt>
      <trkpt lat="28.3951950" lon="-16.4515620">
        <ele>1371.9</ele>
        <time>2020-11-11T12:32:19Z</time>
      </trkpt>
      <trkpt lat="28.3951950" lon="-16.4515620">
        <ele>1371.9</ele>
        <time>2020-11-11T12:32:20Z</time>
      </trkpt>
      <trkpt lat="28.3952770" lon="-16.4516230">
        <ele>1371.9</ele>
        <time>2020-11-11T12:32:21Z</time>
      </trkpt>
      <trkpt lat="28.3952770" lon="-16.4516230">
        <ele>1371.9</ele>
        <time>2020-11-11T12:32:22Z</time>
      </trkpt>
      <trkpt lat="28.3953530" lon="-16.4517030">
        <ele>1371.9</ele>
        <time>2020-11-11T12:32:23Z</time>
      </trkpt>
      <trkpt lat="28.3953530" lon="-16.4517030">
        <ele>1371.9</ele>
        <time>2020-11-11T12:32:24Z</time>
      </trkpt>
      <trkpt lat="28.3954320" lon="-16.4517770">
        <ele>1371.9</ele>
        <time>2020-11-11T12:32:25Z</time>
      </trkpt>
      <trkpt lat="28.3954320" lon="-16.4517770">
        <ele>1370.9</ele>
        <time>2020-11-11T12:32:26Z</time>
      </trkpt>
      <trkpt lat="28.3955230" lon="-16.4518450">
        <ele>1370.9</ele>
        <time>2020-11-11T12:32:27Z</time>
      </trkpt>
      <trkpt lat="28.3955230" lon="-16.4518450">
        <ele>1370.9</ele>
        <time>2020-11-11T12:32:28Z</time>
      </trkpt>
      <trkpt lat="28.3956100" lon="-16.4519020">
        <ele>1370.9</ele>
        <time>2020-11-11T12:32:29Z</time>
      </trkpt>
      <trkpt lat="28.3956580" lon="-16.4519350">
        <ele>1370.9</ele>
        <time>2020-11-11T12:32:30Z</time>
      </trkpt>
      <trkpt lat="28.3956580" lon="-16.4519350">
        <ele>1370.9</ele>
        <time>2020-11-11T12:32:31Z</time>
      </trkpt>
      <trkpt lat="28.3957400" lon="-16.4519880">
        <ele>1369.9</ele>
        <time>2020-11-11T12:32:32Z</time>
      </trkpt>
      <trkpt lat="28.3957400" lon="-16.4519880">
        <ele>1369.9</ele>
        <time>2020-11-11T12:32:33Z</time>
      </trkpt>
      <trkpt lat="28.3958330" lon="-16.4520770">
        <ele>1369.9</ele>
        <time>2020-11-11T12:32:34Z</time>
      </trkpt>
      <trkpt lat="28.3958530" lon="-16.4521230">
        <ele>1369.9</ele>
        <time>2020-11-11T12:32:35Z</time>
      </trkpt>
      <trkpt lat="28.3958530" lon="-16.4521230">
        <ele>1369.9</ele>
        <time>2020-11-11T12:32:36Z</time>
      </trkpt>
      <trkpt lat="28.3959000" lon="-16.4522180">
        <ele>1369.9</ele>
        <time>2020-11-11T12:32:37Z</time>
      </trkpt>
      <trkpt lat="28.3959000" lon="-16.4522180">
        <ele>1369.9</ele>
        <time>2020-11-11T12:32:38Z</time>
      </trkpt>
      <trkpt lat="28.3959230" lon="-16.4523120">
        <ele>1369.9</ele>
        <time>2020-11-11T12:32:39Z</time>
      </trkpt>
      <trkpt lat="28.3959450" lon="-16.4523700">
        <ele>1368.9</ele>
        <time>2020-11-11T12:32:40Z</time>
      </trkpt>
      <trkpt lat="28.3959450" lon="-16.4523700">
        <ele>1368.9</ele>
        <time>2020-11-11T12:32:41Z</time>
      </trkpt>
      <trkpt lat="28.3959920" lon="-16.4524570">
        <ele>1368.9</ele>
        <time>2020-11-11T12:32:42Z</time>
      </trkpt>
      <trkpt lat="28.3960300" lon="-16.4525100">
        <ele>1368.9</ele>
        <time>2020-11-11T12:32:43Z</time>
      </trkpt>
      <trkpt lat="28.3960300" lon="-16.4525100">
        <ele>1368.9</ele>
        <time>2020-11-11T12:32:44Z</time>
      </trkpt>
      <trkpt lat="28.3960530" lon="-16.4525980">
        <ele>1368.9</ele>
        <time>2020-11-11T12:32:45Z</time>
      </trkpt>
      <trkpt lat="28.3960650" lon="-16.4526370">
        <ele>1368.9</ele>
        <time>2020-11-11T12:32:46Z</time>
      </trkpt>
      <trkpt lat="28.3960650" lon="-16.4526370">
        <ele>1368.9</ele>
        <time>2020-11-11T12:32:47Z</time>
      </trkpt>
      <trkpt lat="28.3960780" lon="-16.4527170">
        <ele>1368.9</ele>
        <time>2020-11-11T12:32:48Z</time>
      </trkpt>
      <trkpt lat="28.3960780" lon="-16.4527170">
        <ele>1368.9</ele>
        <time>2020-11-11T12:32:49Z</time>
      </trkpt>
      <trkpt lat="28.3960500" lon="-16.4527750">
        <ele>1368.9</ele>
        <time>2020-11-11T12:32:50Z</time>
      </trkpt>
      <trkpt lat="28.3960500" lon="-16.4527750">
        <ele>1368.9</ele>
        <time>2020-11-11T12:32:51Z</time>
      </trkpt>
      <trkpt lat="28.3959820" lon="-16.4528170">
        <ele>1368.9</ele>
        <time>2020-11-11T12:32:52Z</time>
      </trkpt>
      <trkpt lat="28.3959770" lon="-16.4528570">
        <ele>1368.9</ele>
        <time>2020-11-11T12:32:53Z</time>
      </trkpt>
      <trkpt lat="28.3959770" lon="-16.4528570">
        <ele>1367.9</ele>
        <time>2020-11-11T12:32:54Z</time>
      </trkpt>
      <trkpt lat="28.3959780" lon="-16.4529330">
        <ele>1367.9</ele>
        <time>2020-11-11T12:32:55Z</time>
      </trkpt>
      <trkpt lat="28.3959780" lon="-16.4529330">
        <ele>1367.9</ele>
        <time>2020-11-11T12:32:56Z</time>
      </trkpt>
      <trkpt lat="28.3959830" lon="-16.4530250">
        <ele>1367.9</ele>
        <time>2020-11-11T12:32:57Z</time>
      </trkpt>
      <trkpt lat="28.3960020" lon="-16.4530720">
        <ele>1367.9</ele>
        <time>2020-11-11T12:32:58Z</time>
      </trkpt>
      <trkpt lat="28.3960020" lon="-16.4530720">
        <ele>1367.9</ele>
        <time>2020-11-11T12:32:59Z</time>
      </trkpt>
      <trkpt lat="28.3960280" lon="-16.4531670">
        <ele>1367.9</ele>
        <time>2020-11-11T12:33:00Z</time>
      </trkpt>
      <trkpt lat="28.3960380" lon="-16.4532130">
        <ele>1367.9</ele>
        <time>2020-11-11T12:33:01Z</time>
      </trkpt>
      <trkpt lat="28.3960380" lon="-16.4532130">
        <ele>1367.9</ele>
        <time>2020-11-11T12:33:02Z</time>
      </trkpt>
      <trkpt lat="28.3960550" lon="-16.4533220">
        <ele>1367.9</ele>
        <time>2020-11-11T12:33:03Z</time>
      </trkpt>
      <trkpt lat="28.3960550" lon="-16.4533220">
        <ele>1367.9</ele>
        <time>2020-11-11T12:33:04Z</time>
      </trkpt>
      <trkpt lat="28.3960630" lon="-16.4534370">
        <ele>1367.9</ele>
        <time>2020-11-11T12:33:05Z</time>
      </trkpt>
      <trkpt lat="28.3960630" lon="-16.4534370">
        <ele>1366.9</ele>
        <time>2020-11-11T12:33:06Z</time>
      </trkpt>
      <trkpt lat="28.3960780" lon="-16.4535350">
        <ele>1366.9</ele>
        <time>2020-11-11T12:33:07Z</time>
      </trkpt>
      <trkpt lat="28.3960780" lon="-16.4535350">
        <ele>1366.9</ele>
        <time>2020-11-11T12:33:08Z</time>
      </trkpt>
      <trkpt lat="28.3961100" lon="-16.4536330">
        <ele>1366.9</ele>
        <time>2020-11-11T12:33:09Z</time>
      </trkpt>
      <trkpt lat="28.3961100" lon="-16.4536330">
        <ele>1366.9</ele>
        <time>2020-11-11T12:33:10Z</time>
      </trkpt>
      <trkpt lat="28.3961200" lon="-16.4537220">
        <ele>1366.9</ele>
        <time>2020-11-11T12:33:11Z</time>
      </trkpt>
      <trkpt lat="28.3961350" lon="-16.4537700">
        <ele>1366.9</ele>
        <time>2020-11-11T12:33:12Z</time>
      </trkpt>
      <trkpt lat="28.3961350" lon="-16.4537700">
        <ele>1366.9</ele>
        <time>2020-11-11T12:33:13Z</time>
      </trkpt>
      <trkpt lat="28.3961200" lon="-16.4538750">
        <ele>1366.9</ele>
        <time>2020-11-11T12:33:14Z</time>
      </trkpt>
      <trkpt lat="28.3961200" lon="-16.4538750">
        <ele>1366.9</ele>
        <time>2020-11-11T12:33:15Z</time>
      </trkpt>
      <trkpt lat="28.3961130" lon="-16.4539430">
        <ele>1366.9</ele>
        <time>2020-11-11T12:33:16Z</time>
      </trkpt>
      <trkpt lat="28.3960770" lon="-16.4539470">
        <ele>1366.9</ele>
        <time>2020-11-11T12:33:17Z</time>
      </trkpt>
      <trkpt lat="28.3960770" lon="-16.4539470">
        <ele>1366.9</ele>
        <time>2020-11-11T12:33:18Z</time>
      </trkpt>
      <trkpt lat="28.3960180" lon="-16.4539550">
        <ele>1366.9</ele>
        <time>2020-11-11T12:33:19Z</time>
      </trkpt>
      <trkpt lat="28.3959900" lon="-16.4539580">
        <ele>1366.9</ele>
        <time>2020-11-11T12:33:20Z</time>
      </trkpt>
      <trkpt lat="28.3959900" lon="-16.4539580">
        <ele>1366.9</ele>
        <time>2020-11-11T12:33:21Z</time>
      </trkpt>
      <trkpt lat="28.3959420" lon="-16.4539530">
        <ele>1366.9</ele>
        <time>2020-11-11T12:33:22Z</time>
      </trkpt>
      <trkpt lat="28.3959230" lon="-16.4539520">
        <ele>1366.9</ele>
        <time>2020-11-11T12:33:23Z</time>
      </trkpt>
      <trkpt lat="28.3959230" lon="-16.4539520">
        <ele>1366.9</ele>
        <time>2020-11-11T12:33:24Z</time>
      </trkpt>
      <trkpt lat="28.3958600" lon="-16.4539350">
        <ele>1367.9</ele>
        <time>2020-11-11T12:33:25Z</time>
      </trkpt>
      <trkpt lat="28.3958600" lon="-16.4539350">
        <ele>1367.9</ele>
        <time>2020-11-11T12:33:26Z</time>
      </trkpt>
      <trkpt lat="28.3958100" lon="-16.4539420">
        <ele>1367.9</ele>
        <time>2020-11-11T12:33:27Z</time>
      </trkpt>
      <trkpt lat="28.3958100" lon="-16.4539420">
        <ele>1367.9</ele>
        <time>2020-11-11T12:33:28Z</time>
      </trkpt>
      <trkpt lat="28.3957730" lon="-16.4539380">
        <ele>1367.9</ele>
        <time>2020-11-11T12:33:29Z</time>
      </trkpt>
      <trkpt lat="28.3957600" lon="-16.4539420">
        <ele>1367.9</ele>
        <time>2020-11-11T12:33:30Z</time>
      </trkpt>
      <trkpt lat="28.3957450" lon="-16.4539250">
        <ele>1367.9</ele>
        <time>2020-11-11T12:33:31Z</time>
      </trkpt>
      <trkpt lat="28.3957450" lon="-16.4539250">
        <ele>1367.9</ele>
        <time>2020-11-11T12:33:32Z</time>
      </trkpt>
      <trkpt lat="28.3956920" lon="-16.4539250">
        <ele>1367.9</ele>
        <time>2020-11-11T12:33:33Z</time>
      </trkpt>
      <trkpt lat="28.3956650" lon="-16.4539230">
        <ele>1367.9</ele>
        <time>2020-11-11T12:33:34Z</time>
      </trkpt>
      <trkpt lat="28.3956650" lon="-16.4539230">
        <ele>1367.9</ele>
        <time>2020-11-11T12:33:35Z</time>
      </trkpt>
      <trkpt lat="28.3956170" lon="-16.4539120">
        <ele>1367.9</ele>
        <time>2020-11-11T12:33:36Z</time>
      </trkpt>
      <trkpt lat="28.3955720" lon="-16.4539220">
        <ele>1368.9</ele>
        <time>2020-11-11T12:33:37Z</time>
      </trkpt>
      <trkpt lat="28.3955720" lon="-16.4539220">
        <ele>1368.9</ele>
        <time>2020-11-11T12:33:38Z</time>
      </trkpt>
      <trkpt lat="28.3955080" lon="-16.4539480">
        <ele>1368.9</ele>
        <time>2020-11-11T12:33:39Z</time>
      </trkpt>
      <trkpt lat="28.3955080" lon="-16.4539480">
        <ele>1368.9</ele>
        <time>2020-11-11T12:33:40Z</time>
      </trkpt>
      <trkpt lat="28.3954470" lon="-16.4539570">
        <ele>1368.9</ele>
        <time>2020-11-11T12:33:41Z</time>
      </trkpt>
      <trkpt lat="28.3954470" lon="-16.4539570">
        <ele>1368.9</ele>
        <time>2020-11-11T12:33:42Z</time>
      </trkpt>
      <trkpt lat="28.3953970" lon="-16.4539650">
        <ele>1369.9</ele>
        <time>2020-11-11T12:33:43Z</time>
      </trkpt>
      <trkpt lat="28.3953970" lon="-16.4539650">
        <ele>1369.9</ele>
        <time>2020-11-11T12:33:44Z</time>
      </trkpt>
      <trkpt lat="28.3953470" lon="-16.4539700">
        <ele>1369.9</ele>
        <time>2020-11-11T12:33:45Z</time>
      </trkpt>
      <trkpt lat="28.3953470" lon="-16.4539700">
        <ele>1369.9</ele>
        <time>2020-11-11T12:33:46Z</time>
      </trkpt>
      <trkpt lat="28.3952650" lon="-16.4539530">
        <ele>1370.9</ele>
        <time>2020-11-11T12:33:47Z</time>
      </trkpt>
      <trkpt lat="28.3952320" lon="-16.4539600">
        <ele>1370.9</ele>
        <time>2020-11-11T12:33:48Z</time>
      </trkpt>
      <trkpt lat="28.3952320" lon="-16.4539600">
        <ele>1370.9</ele>
        <time>2020-11-11T12:33:49Z</time>
      </trkpt>
      <trkpt lat="28.3951530" lon="-16.4539620">
        <ele>1370.9</ele>
        <time>2020-11-11T12:33:50Z</time>
      </trkpt>
      <trkpt lat="28.3951530" lon="-16.4539620">
        <ele>1370.9</ele>
        <time>2020-11-11T12:33:51Z</time>
      </trkpt>
      <trkpt lat="28.3950970" lon="-16.4539630">
        <ele>1370.9</ele>
        <time>2020-11-11T12:33:52Z</time>
      </trkpt>
      <trkpt lat="28.3950970" lon="-16.4539630">
        <ele>1371.9</ele>
        <time>2020-11-11T12:33:53Z</time>
      </trkpt>
      <trkpt lat="28.3950170" lon="-16.4539670">
        <ele>1371.9</ele>
        <time>2020-11-11T12:33:54Z</time>
      </trkpt>
      <trkpt lat="28.3949820" lon="-16.4539680">
        <ele>1371.9</ele>
        <time>2020-11-11T12:33:55Z</time>
      </trkpt>
      <trkpt lat="28.3949820" lon="-16.4539680">
        <ele>1371.9</ele>
        <time>2020-11-11T12:33:56Z</time>
      </trkpt>
      <trkpt lat="28.3949150" lon="-16.4539980">
        <ele>1371.9</ele>
        <time>2020-11-11T12:33:57Z</time>
      </trkpt>
      <trkpt lat="28.3949150" lon="-16.4539980">
        <ele>1371.9</ele>
        <time>2020-11-11T12:33:58Z</time>
      </trkpt>
      <trkpt lat="28.3948450" lon="-16.4540120">
        <ele>1371.9</ele>
        <time>2020-11-11T12:33:59Z</time>
      </trkpt>
      <trkpt lat="28.3948450" lon="-16.4540120">
        <ele>1372.9</ele>
        <time>2020-11-11T12:34:00Z</time>
      </trkpt>
      <trkpt lat="28.3947950" lon="-16.4540220">
        <ele>1372.9</ele>
        <time>2020-11-11T12:34:01Z</time>
      </trkpt>
      <trkpt lat="28.3947680" lon="-16.4540250">
        <ele>1372.9</ele>
        <time>2020-11-11T12:34:02Z</time>
      </trkpt>
      <trkpt lat="28.3947680" lon="-16.4540250">
        <ele>1372.9</ele>
        <time>2020-11-11T12:34:03Z</time>
      </trkpt>
      <trkpt lat="28.3947270" lon="-16.4540450">
        <ele>1372.9</ele>
        <time>2020-11-11T12:34:04Z</time>
      </trkpt>
      <trkpt lat="28.3947270" lon="-16.4540450">
        <ele>1372.9</ele>
        <time>2020-11-11T12:34:05Z</time>
      </trkpt>
      <trkpt lat="28.3946850" lon="-16.4540520">
        <ele>1372.9</ele>
        <time>2020-11-11T12:34:06Z</time>
      </trkpt>
      <trkpt lat="28.3946850" lon="-16.4540520">
        <ele>1372.9</ele>
        <time>2020-11-11T12:34:07Z</time>
      </trkpt>
      <trkpt lat="28.3946350" lon="-16.4540670">
        <ele>1372.9</ele>
        <time>2020-11-11T12:34:08Z</time>
      </trkpt>
      <trkpt lat="28.3946200" lon="-16.4540600">
        <ele>1372.9</ele>
        <time>2020-11-11T12:34:09Z</time>
      </trkpt>
      <trkpt lat="28.3945980" lon="-16.4540630">
        <ele>1374.9</ele>
        <time>2020-11-11T12:34:10Z</time>
      </trkpt>
      <trkpt lat="28.3945680" lon="-16.4540670">
        <ele>1374.9</ele>
        <time>2020-11-11T12:34:11Z</time>
      </trkpt>
      <trkpt lat="28.3945680" lon="-16.4540670">
        <ele>1374.9</ele>
        <time>2020-11-11T12:34:12Z</time>
      </trkpt>
      <trkpt lat="28.3945250" lon="-16.4540600">
        <ele>1374.9</ele>
        <time>2020-11-11T12:34:13Z</time>
      </trkpt>
      <trkpt lat="28.3945250" lon="-16.4540600">
        <ele>1374.9</ele>
        <time>2020-11-11T12:34:14Z</time>
      </trkpt>
      <trkpt lat="28.3944880" lon="-16.4540550">
        <ele>1374.9</ele>
        <time>2020-11-11T12:34:15Z</time>
      </trkpt>
      <trkpt lat="28.3944880" lon="-16.4540550">
        <ele>1374.9</ele>
        <time>2020-11-11T12:34:16Z</time>
      </trkpt>
      <trkpt lat="28.3944500" lon="-16.4540500">
        <ele>1374.9</ele>
        <time>2020-11-11T12:34:17Z</time>
      </trkpt>
      <trkpt lat="28.3944500" lon="-16.4540500">
        <ele>1374.9</ele>
        <time>2020-11-11T12:34:18Z</time>
      </trkpt>
      <trkpt lat="28.3944250" lon="-16.4540500">
        <ele>1374.9</ele>
        <time>2020-11-11T12:34:19Z</time>
      </trkpt>
      <trkpt lat="28.3944030" lon="-16.4540450">
        <ele>1374.9</ele>
        <time>2020-11-11T12:34:20Z</time>
      </trkpt>
      <trkpt lat="28.3944030" lon="-16.4540450">
        <ele>1374.9</ele>
        <time>2020-11-11T12:34:21Z</time>
      </trkpt>
      <trkpt lat="28.3943670" lon="-16.4540350">
        <ele>1374.9</ele>
        <time>2020-11-11T12:34:22Z</time>
      </trkpt>
      <trkpt lat="28.3943670" lon="-16.4540350">
        <ele>1374.9</ele>
        <time>2020-11-11T12:34:23Z</time>
      </trkpt>
      <trkpt lat="28.3943380" lon="-16.4540150">
        <ele>1374.9</ele>
        <time>2020-11-11T12:34:24Z</time>
      </trkpt>
      <trkpt lat="28.3943180" lon="-16.4539880">
        <ele>1375.9</ele>
        <time>2020-11-11T12:34:25Z</time>
      </trkpt>
      <trkpt lat="28.3943180" lon="-16.4539880">
        <ele>1375.9</ele>
        <time>2020-11-11T12:34:26Z</time>
      </trkpt>
      <trkpt lat="28.3942850" lon="-16.4539500">
        <ele>1375.9</ele>
        <time>2020-11-11T12:34:27Z</time>
      </trkpt>
      <trkpt lat="28.3942850" lon="-16.4539500">
        <ele>1375.9</ele>
        <time>2020-11-11T12:34:28Z</time>
      </trkpt>
      <trkpt lat="28.3942680" lon="-16.4539080">
        <ele>1374.9</ele>
        <time>2020-11-11T12:34:29Z</time>
      </trkpt>
      <trkpt lat="28.3942600" lon="-16.4538950">
        <ele>1374.9</ele>
        <time>2020-11-11T12:34:30Z</time>
      </trkpt>
      <trkpt lat="28.3942570" lon="-16.4538770">
        <ele>1375.9</ele>
        <time>2020-11-11T12:34:31Z</time>
      </trkpt>
      <trkpt lat="28.3942570" lon="-16.4538770">
        <ele>1375.9</ele>
        <time>2020-11-11T12:34:32Z</time>
      </trkpt>
      <trkpt lat="28.3942320" lon="-16.4538500">
        <ele>1376.9</ele>
        <time>2020-11-11T12:34:33Z</time>
      </trkpt>
      <trkpt lat="28.3942320" lon="-16.4538500">
        <ele>1376.9</ele>
        <time>2020-11-11T12:34:34Z</time>
      </trkpt>
      <trkpt lat="28.3942150" lon="-16.4538150">
        <ele>1376.9</ele>
        <time>2020-11-11T12:34:35Z</time>
      </trkpt>
      <trkpt lat="28.3942150" lon="-16.4537970">
        <ele>1376.9</ele>
        <time>2020-11-11T12:34:36Z</time>
      </trkpt>
      <trkpt lat="28.3942170" lon="-16.4537700">
        <ele>1377.9</ele>
        <time>2020-11-11T12:34:37Z</time>
      </trkpt>
      <trkpt lat="28.3942170" lon="-16.4537700">
        <ele>1377.9</ele>
        <time>2020-11-11T12:34:38Z</time>
      </trkpt>
      <trkpt lat="28.3942020" lon="-16.4537380">
        <ele>1377.9</ele>
        <time>2020-11-11T12:34:39Z</time>
      </trkpt>
      <trkpt lat="28.3942020" lon="-16.4537380">
        <ele>1377.9</ele>
        <time>2020-11-11T12:34:40Z</time>
      </trkpt>
      <trkpt lat="28.3941850" lon="-16.4537030">
        <ele>1377.9</ele>
        <time>2020-11-11T12:34:41Z</time>
      </trkpt>
      <trkpt lat="28.3941850" lon="-16.4537030">
        <ele>1378.9</ele>
        <time>2020-11-11T12:34:42Z</time>
      </trkpt>
      <trkpt lat="28.3941530" lon="-16.4536670">
        <ele>1378.9</ele>
        <time>2020-11-11T12:34:43Z</time>
      </trkpt>
      <trkpt lat="28.3941530" lon="-16.4536670">
        <ele>1378.9</ele>
        <time>2020-11-11T12:34:44Z</time>
      </trkpt>
      <trkpt lat="28.3941120" lon="-16.4536380">
        <ele>1378.9</ele>
        <time>2020-11-11T12:34:45Z</time>
      </trkpt>
      <trkpt lat="28.3940900" lon="-16.4536220">
        <ele>1379.9</ele>
        <time>2020-11-11T12:34:46Z</time>
      </trkpt>
      <trkpt lat="28.3940900" lon="-16.4536220">
        <ele>1379.9</ele>
        <time>2020-11-11T12:34:47Z</time>
      </trkpt>
      <trkpt lat="28.3940630" lon="-16.4535780">
        <ele>1379.9</ele>
        <time>2020-11-11T12:34:48Z</time>
      </trkpt>
      <trkpt lat="28.3940630" lon="-16.4535780">
        <ele>1379.9</ele>
        <time>2020-11-11T12:34:49Z</time>
      </trkpt>
      <trkpt lat="28.3940380" lon="-16.4535470">
        <ele>1379.9</ele>
        <time>2020-11-11T12:34:50Z</time>
      </trkpt>
      <trkpt lat="28.3940380" lon="-16.4535470">
        <ele>1379.9</ele>
        <time>2020-11-11T12:34:51Z</time>
      </trkpt>
      <trkpt lat="28.3939970" lon="-16.4535250">
        <ele>1380.9</ele>
        <time>2020-11-11T12:34:52Z</time>
      </trkpt>
      <trkpt lat="28.3939970" lon="-16.4535250">
        <ele>1380.9</ele>
        <time>2020-11-11T12:34:53Z</time>
      </trkpt>
      <trkpt lat="28.3939570" lon="-16.4535270">
        <ele>1380.9</ele>
        <time>2020-11-11T12:34:54Z</time>
      </trkpt>
      <trkpt lat="28.3939570" lon="-16.4535270">
        <ele>1380.9</ele>
        <time>2020-11-11T12:34:55Z</time>
      </trkpt>
      <trkpt lat="28.3938980" lon="-16.4535350">
        <ele>1380.9</ele>
        <time>2020-11-11T12:34:56Z</time>
      </trkpt>
      <trkpt lat="28.3938980" lon="-16.4535350">
        <ele>1380.9</ele>
        <time>2020-11-11T12:34:57Z</time>
      </trkpt>
      <trkpt lat="28.3937120" lon="-16.4535480">
        <ele>1381.9</ele>
        <time>2020-11-11T12:35:03Z</time>
      </trkpt>
      <trkpt lat="28.3937120" lon="-16.4535480">
        <ele>1381.9</ele>
        <time>2020-11-11T12:35:04Z</time>
      </trkpt>
      <trkpt lat="28.3936770" lon="-16.4535600">
        <ele>1381.9</ele>
        <time>2020-11-11T12:35:05Z</time>
      </trkpt>
      <trkpt lat="28.3936770" lon="-16.4535600">
        <ele>1381.9</ele>
        <time>2020-11-11T12:35:06Z</time>
      </trkpt>
      <trkpt lat="28.3936630" lon="-16.4535600">
        <ele>1383.9</ele>
        <time>2020-11-11T12:35:07Z</time>
      </trkpt>
      <trkpt lat="28.3936300" lon="-16.4535800">
        <ele>1383.9</ele>
        <time>2020-11-11T12:35:08Z</time>
      </trkpt>
      <trkpt lat="28.3936300" lon="-16.4535800">
        <ele>1383.9</ele>
        <time>2020-11-11T12:35:09Z</time>
      </trkpt>
      <trkpt lat="28.3936100" lon="-16.4535850">
        <ele>1383.9</ele>
        <time>2020-11-11T12:35:10Z</time>
      </trkpt>
      <trkpt lat="28.3936100" lon="-16.4535850">
        <ele>1383.9</ele>
        <time>2020-11-11T12:35:11Z</time>
      </trkpt>
      <trkpt lat="28.3935880" lon="-16.4535850">
        <ele>1383.9</ele>
        <time>2020-11-11T12:35:12Z</time>
      </trkpt>
      <trkpt lat="28.3935820" lon="-16.4535870">
        <ele>1383.9</ele>
        <time>2020-11-11T12:35:13Z</time>
      </trkpt>
      <trkpt lat="28.3935820" lon="-16.4535870">
        <ele>1383.9</ele>
        <time>2020-11-11T12:35:14Z</time>
      </trkpt>
      <trkpt lat="28.3935550" lon="-16.4535900">
        <ele>1383.9</ele>
        <time>2020-11-11T12:35:15Z</time>
      </trkpt>
      <trkpt lat="28.3935550" lon="-16.4535900">
        <ele>1384.9</ele>
        <time>2020-11-11T12:35:16Z</time>
      </trkpt>
      <trkpt lat="28.3935130" lon="-16.4535970">
        <ele>1384.9</ele>
        <time>2020-11-11T12:35:17Z</time>
      </trkpt>
      <trkpt lat="28.3935130" lon="-16.4535970">
        <ele>1384.9</ele>
        <time>2020-11-11T12:35:18Z</time>
      </trkpt>
      <trkpt lat="28.3935000" lon="-16.4535580">
        <ele>1384.9</ele>
        <time>2020-11-11T12:35:19Z</time>
      </trkpt>
      <trkpt lat="28.3934930" lon="-16.4535530">
        <ele>1385.9</ele>
        <time>2020-11-11T12:35:20Z</time>
      </trkpt>
      <trkpt lat="28.3934930" lon="-16.4535530">
        <ele>1385.9</ele>
        <time>2020-11-11T12:35:21Z</time>
      </trkpt>
      <trkpt lat="28.3934880" lon="-16.4535230">
        <ele>1385.9</ele>
        <time>2020-11-11T12:35:22Z</time>
      </trkpt>
      <trkpt lat="28.3934880" lon="-16.4535230">
        <ele>1385.9</ele>
        <time>2020-11-11T12:35:23Z</time>
      </trkpt>
      <trkpt lat="28.3934700" lon="-16.4535180">
        <ele>1385.9</ele>
        <time>2020-11-11T12:35:24Z</time>
      </trkpt>
      <trkpt lat="28.3934700" lon="-16.4535180">
        <ele>1386.9</ele>
        <time>2020-11-11T12:35:25Z</time>
      </trkpt>
      <trkpt lat="28.3934430" lon="-16.4535180">
        <ele>1386.9</ele>
        <time>2020-11-11T12:35:26Z</time>
      </trkpt>
      <trkpt lat="28.3934430" lon="-16.4535180">
        <ele>1386.9</ele>
        <time>2020-11-11T12:35:27Z</time>
      </trkpt>
      <trkpt lat="28.3934170" lon="-16.4534900">
        <ele>1386.9</ele>
        <time>2020-11-11T12:35:28Z</time>
      </trkpt>
      <trkpt lat="28.3934170" lon="-16.4534900">
        <ele>1387.9</ele>
        <time>2020-11-11T12:35:29Z</time>
      </trkpt>
      <trkpt lat="28.3933770" lon="-16.4534820">
        <ele>1387.9</ele>
        <time>2020-11-11T12:35:30Z</time>
      </trkpt>
      <trkpt lat="28.3933770" lon="-16.4534820">
        <ele>1387.9</ele>
        <time>2020-11-11T12:35:31Z</time>
      </trkpt>
      <trkpt lat="28.3933320" lon="-16.4534720">
        <ele>1387.9</ele>
        <time>2020-11-11T12:35:32Z</time>
      </trkpt>
      <trkpt lat="28.3933320" lon="-16.4534720">
        <ele>1388.9</ele>
        <time>2020-11-11T12:35:33Z</time>
      </trkpt>
      <trkpt lat="28.3932850" lon="-16.4534650">
        <ele>1388.9</ele>
        <time>2020-11-11T12:35:34Z</time>
      </trkpt>
      <trkpt lat="28.3932850" lon="-16.4534650">
        <ele>1385.9</ele>
        <time>2020-11-11T12:35:35Z</time>
      </trkpt>
      <trkpt lat="28.3932320" lon="-16.4534530">
        <ele>1385.9</ele>
        <time>2020-11-11T12:35:36Z</time>
      </trkpt>
      <trkpt lat="28.3932320" lon="-16.4534530">
        <ele>1387.9</ele>
        <time>2020-11-11T12:35:37Z</time>
      </trkpt>
      <trkpt lat="28.3931780" lon="-16.4534430">
        <ele>1387.9</ele>
        <time>2020-11-11T12:35:38Z</time>
      </trkpt>
      <trkpt lat="28.3931780" lon="-16.4534430">
        <ele>1387.9</ele>
        <time>2020-11-11T12:35:39Z</time>
      </trkpt>
      <trkpt lat="28.3931470" lon="-16.4534120">
        <ele>1387.9</ele>
        <time>2020-11-11T12:35:40Z</time>
      </trkpt>
      <trkpt lat="28.3931470" lon="-16.4534120">
        <ele>1387.9</ele>
        <time>2020-11-11T12:35:41Z</time>
      </trkpt>
      <trkpt lat="28.3931220" lon="-16.4533680">
        <ele>1387.9</ele>
        <time>2020-11-11T12:35:42Z</time>
      </trkpt>
      <trkpt lat="28.3931220" lon="-16.4533680">
        <ele>1388.9</ele>
        <time>2020-11-11T12:35:43Z</time>
      </trkpt>
      <trkpt lat="28.3930780" lon="-16.4533450">
        <ele>1388.9</ele>
        <time>2020-11-11T12:35:44Z</time>
      </trkpt>
      <trkpt lat="28.3930780" lon="-16.4533450">
        <ele>1388.9</ele>
        <time>2020-11-11T12:35:45Z</time>
      </trkpt>
      <trkpt lat="28.3930500" lon="-16.4533170">
        <ele>1388.9</ele>
        <time>2020-11-11T12:35:46Z</time>
      </trkpt>
      <trkpt lat="28.3930500" lon="-16.4533170">
        <ele>1388.9</ele>
        <time>2020-11-11T12:35:47Z</time>
      </trkpt>
      <trkpt lat="28.3930130" lon="-16.4533030">
        <ele>1388.9</ele>
        <time>2020-11-11T12:35:48Z</time>
      </trkpt>
      <trkpt lat="28.3930000" lon="-16.4532920">
        <ele>1388.9</ele>
        <time>2020-11-11T12:35:49Z</time>
      </trkpt>
      <trkpt lat="28.3930000" lon="-16.4532920">
        <ele>1388.9</ele>
        <time>2020-11-11T12:35:50Z</time>
      </trkpt>
      <trkpt lat="28.3930000" lon="-16.4532920">
        <ele>1388.9</ele>
        <time>2020-11-11T12:35:51Z</time>
      </trkpt>
      <trkpt lat="28.3929730" lon="-16.4532820">
        <ele>1388.9</ele>
        <time>2020-11-11T12:35:52Z</time>
      </trkpt>
      <trkpt lat="28.3929580" lon="-16.4532780">
        <ele>1388.9</ele>
        <time>2020-11-11T12:35:53Z</time>
      </trkpt>
      <trkpt lat="28.3929580" lon="-16.4532780">
        <ele>1389.9</ele>
        <time>2020-11-11T12:35:54Z</time>
      </trkpt>
      <trkpt lat="28.3929370" lon="-16.4532720">
        <ele>1389.9</ele>
        <time>2020-11-11T12:35:55Z</time>
      </trkpt>
      <trkpt lat="28.3929370" lon="-16.4532720">
        <ele>1389.9</ele>
        <time>2020-11-11T12:35:56Z</time>
      </trkpt>
      <trkpt lat="28.3928850" lon="-16.4532180">
        <ele>1389.9</ele>
        <time>2020-11-11T12:35:57Z</time>
      </trkpt>
      <trkpt lat="28.3928850" lon="-16.4532180">
        <ele>1389.9</ele>
        <time>2020-11-11T12:35:58Z</time>
      </trkpt>
      <trkpt lat="28.3928720" lon="-16.4531920">
        <ele>1389.9</ele>
        <time>2020-11-11T12:35:59Z</time>
      </trkpt>
      <trkpt lat="28.3928720" lon="-16.4531920">
        <ele>1389.9</ele>
        <time>2020-11-11T12:36:00Z</time>
      </trkpt>
      <trkpt lat="28.3928330" lon="-16.4531680">
        <ele>1389.9</ele>
        <time>2020-11-11T12:36:01Z</time>
      </trkpt>
      <trkpt lat="28.3928330" lon="-16.4531680">
        <ele>1389.9</ele>
        <time>2020-11-11T12:36:02Z</time>
      </trkpt>
      <trkpt lat="28.3927670" lon="-16.4531350">
        <ele>1389.9</ele>
        <time>2020-11-11T12:36:03Z</time>
      </trkpt>
      <trkpt lat="28.3927480" lon="-16.4531200">
        <ele>1390.9</ele>
        <time>2020-11-11T12:36:04Z</time>
      </trkpt>
      <trkpt lat="28.3927480" lon="-16.4531200">
        <ele>1390.9</ele>
        <time>2020-11-11T12:36:05Z</time>
      </trkpt>
      <trkpt lat="28.3927300" lon="-16.4530750">
        <ele>1390.9</ele>
        <time>2020-11-11T12:36:06Z</time>
      </trkpt>
      <trkpt lat="28.3927300" lon="-16.4530750">
        <ele>1390.9</ele>
        <time>2020-11-11T12:36:07Z</time>
      </trkpt>
      <trkpt lat="28.3926770" lon="-16.4530000">
        <ele>1390.9</ele>
        <time>2020-11-11T12:36:08Z</time>
      </trkpt>
      <trkpt lat="28.3926770" lon="-16.4530000">
        <ele>1390.9</ele>
        <time>2020-11-11T12:36:09Z</time>
      </trkpt>
      <trkpt lat="28.3926580" lon="-16.4529180">
        <ele>1390.9</ele>
        <time>2020-11-11T12:36:10Z</time>
      </trkpt>
      <trkpt lat="28.3926580" lon="-16.4529180">
        <ele>1390.9</ele>
        <time>2020-11-11T12:36:11Z</time>
      </trkpt>
      <trkpt lat="28.3926000" lon="-16.4528580">
        <ele>1390.9</ele>
        <time>2020-11-11T12:36:12Z</time>
      </trkpt>
      <trkpt lat="28.3926000" lon="-16.4528580">
        <ele>1390.9</ele>
        <time>2020-11-11T12:36:13Z</time>
      </trkpt>
      <trkpt lat="28.3925580" lon="-16.4528100">
        <ele>1390.9</ele>
        <time>2020-11-11T12:36:14Z</time>
      </trkpt>
      <trkpt lat="28.3925580" lon="-16.4528100">
        <ele>1390.9</ele>
        <time>2020-11-11T12:36:15Z</time>
      </trkpt>
      <trkpt lat="28.3925000" lon="-16.4527450">
        <ele>1390.9</ele>
        <time>2020-11-11T12:36:16Z</time>
      </trkpt>
      <trkpt lat="28.3925000" lon="-16.4527450">
        <ele>1390.9</ele>
        <time>2020-11-11T12:36:17Z</time>
      </trkpt>
      <trkpt lat="28.3925000" lon="-16.4527450">
        <ele>1390.9</ele>
        <time>2020-11-11T12:36:18Z</time>
      </trkpt>
      <trkpt lat="28.3924000" lon="-16.4526630">
        <ele>1390.9</ele>
        <time>2020-11-11T12:36:19Z</time>
      </trkpt>
      <trkpt lat="28.3924000" lon="-16.4526630">
        <ele>1389.9</ele>
        <time>2020-11-11T12:36:20Z</time>
      </trkpt>
      <trkpt lat="28.3923200" lon="-16.4526500">
        <ele>1389.9</ele>
        <time>2020-11-11T12:36:21Z</time>
      </trkpt>
      <trkpt lat="28.3923200" lon="-16.4526500">
        <ele>1389.9</ele>
        <time>2020-11-11T12:36:22Z</time>
      </trkpt>
      <trkpt lat="28.3922750" lon="-16.4526480">
        <ele>1389.9</ele>
        <time>2020-11-11T12:36:23Z</time>
      </trkpt>
      <trkpt lat="28.3922750" lon="-16.4526480">
        <ele>1388.9</ele>
        <time>2020-11-11T12:36:24Z</time>
      </trkpt>
      <trkpt lat="28.3922850" lon="-16.4526580">
        <ele>1388.9</ele>
        <time>2020-11-11T12:36:25Z</time>
      </trkpt>
      <trkpt lat="28.3922850" lon="-16.4526580">
        <ele>1388.9</ele>
        <time>2020-11-11T12:36:26Z</time>
      </trkpt>
      <trkpt lat="28.3923220" lon="-16.4526570">
        <ele>1388.9</ele>
        <time>2020-11-11T12:36:27Z</time>
      </trkpt>
      <trkpt lat="28.3923220" lon="-16.4526570">
        <ele>1388.9</ele>
        <time>2020-11-11T12:36:28Z</time>
      </trkpt>
      <trkpt lat="28.3923430" lon="-16.4526770">
        <ele>1388.9</ele>
        <time>2020-11-11T12:36:29Z</time>
      </trkpt>
      <trkpt lat="28.3923430" lon="-16.4526770">
        <ele>1388.9</ele>
        <time>2020-11-11T12:36:30Z</time>
      </trkpt>
      <trkpt lat="28.3923480" lon="-16.4527080">
        <ele>1388.9</ele>
        <time>2020-11-11T12:36:31Z</time>
      </trkpt>
      <trkpt lat="28.3923470" lon="-16.4527230">
        <ele>1389.9</ele>
        <time>2020-11-11T12:36:32Z</time>
      </trkpt>
      <trkpt lat="28.3923470" lon="-16.4527230">
        <ele>1389.9</ele>
        <time>2020-11-11T12:36:33Z</time>
      </trkpt>
      <trkpt lat="28.3923230" lon="-16.4527600">
        <ele>1389.9</ele>
        <time>2020-11-11T12:36:34Z</time>
      </trkpt>
      <trkpt lat="28.3923230" lon="-16.4527600">
        <ele>1390.9</ele>
        <time>2020-11-11T12:36:35Z</time>
      </trkpt>
      <trkpt lat="28.3923050" lon="-16.4527970">
        <ele>1390.9</ele>
        <time>2020-11-11T12:36:36Z</time>
      </trkpt>
      <trkpt lat="28.3923050" lon="-16.4527970">
        <ele>1390.9</ele>
        <time>2020-11-11T12:36:37Z</time>
      </trkpt>
      <trkpt lat="28.3922970" lon="-16.4528330">
        <ele>1390.9</ele>
        <time>2020-11-11T12:36:38Z</time>
      </trkpt>
      <trkpt lat="28.3922930" lon="-16.4528480">
        <ele>1391.9</ele>
        <time>2020-11-11T12:36:39Z</time>
      </trkpt>
      <trkpt lat="28.3922930" lon="-16.4528480">
        <ele>1391.9</ele>
        <time>2020-11-11T12:36:40Z</time>
      </trkpt>
      <trkpt lat="28.3922680" lon="-16.4528730">
        <ele>1391.9</ele>
        <time>2020-11-11T12:36:41Z</time>
      </trkpt>
      <trkpt lat="28.3922570" lon="-16.4528850">
        <ele>1391.9</ele>
        <time>2020-11-11T12:36:42Z</time>
      </trkpt>
      <trkpt lat="28.3922500" lon="-16.4528920">
        <ele>1392.9</ele>
        <time>2020-11-11T12:36:43Z</time>
      </trkpt>
      <trkpt lat="28.3922500" lon="-16.4528920">
        <ele>1392.9</ele>
        <time>2020-11-11T12:36:44Z</time>
      </trkpt>
      <trkpt lat="28.3922280" lon="-16.4529100">
        <ele>1392.9</ele>
        <time>2020-11-11T12:36:45Z</time>
      </trkpt>
      <trkpt lat="28.3922280" lon="-16.4529100">
        <ele>1392.9</ele>
        <time>2020-11-11T12:36:46Z</time>
      </trkpt>
      <trkpt lat="28.3922120" lon="-16.4529200">
        <ele>1393.9</ele>
        <time>2020-11-11T12:36:47Z</time>
      </trkpt>
      <trkpt lat="28.3922120" lon="-16.4529200">
        <ele>1393.9</ele>
        <time>2020-11-11T12:36:48Z</time>
      </trkpt>
      <trkpt lat="28.3922080" lon="-16.4529420">
        <ele>1393.9</ele>
        <time>2020-11-11T12:36:49Z</time>
      </trkpt>
      <trkpt lat="28.3922080" lon="-16.4529420">
        <ele>1393.9</ele>
        <time>2020-11-11T12:36:50Z</time>
      </trkpt>
      <trkpt lat="28.3922220" lon="-16.4529720">
        <ele>1394.9</ele>
        <time>2020-11-11T12:36:51Z</time>
      </trkpt>
      <trkpt lat="28.3922220" lon="-16.4529720">
        <ele>1394.9</ele>
        <time>2020-11-11T12:36:52Z</time>
      </trkpt>
      <trkpt lat="28.3921950" lon="-16.4530020">
        <ele>1394.9</ele>
        <time>2020-11-11T12:36:53Z</time>
      </trkpt>
      <trkpt lat="28.3921950" lon="-16.4530020">
        <ele>1394.9</ele>
        <time>2020-11-11T12:36:54Z</time>
      </trkpt>
      <trkpt lat="28.3921870" lon="-16.4530200">
        <ele>1394.9</ele>
        <time>2020-11-11T12:36:55Z</time>
      </trkpt>
      <trkpt lat="28.3921870" lon="-16.4530200">
        <ele>1394.9</ele>
        <time>2020-11-11T12:36:56Z</time>
      </trkpt>
      <trkpt lat="28.3921750" lon="-16.4530580">
        <ele>1394.9</ele>
        <time>2020-11-11T12:36:57Z</time>
      </trkpt>
      <trkpt lat="28.3921770" lon="-16.4530780">
        <ele>1394.9</ele>
        <time>2020-11-11T12:36:58Z</time>
      </trkpt>
      <trkpt lat="28.3921750" lon="-16.4530950">
        <ele>1395.9</ele>
        <time>2020-11-11T12:36:59Z</time>
      </trkpt>
      <trkpt lat="28.3921750" lon="-16.4530950">
        <ele>1395.9</ele>
        <time>2020-11-11T12:37:00Z</time>
      </trkpt>
      <trkpt lat="28.3921300" lon="-16.4531270">
        <ele>1395.9</ele>
        <time>2020-11-11T12:37:01Z</time>
      </trkpt>
      <trkpt lat="28.3921300" lon="-16.4531270">
        <ele>1395.9</ele>
        <time>2020-11-11T12:37:02Z</time>
      </trkpt>
      <trkpt lat="28.3921100" lon="-16.4531600">
        <ele>1395.9</ele>
        <time>2020-11-11T12:37:03Z</time>
      </trkpt>
      <trkpt lat="28.3921100" lon="-16.4531600">
        <ele>1395.9</ele>
        <time>2020-11-11T12:37:04Z</time>
      </trkpt>
      <trkpt lat="28.3921030" lon="-16.4531930">
        <ele>1395.9</ele>
        <time>2020-11-11T12:37:05Z</time>
      </trkpt>
      <trkpt lat="28.3920920" lon="-16.4532020">
        <ele>1395.9</ele>
        <time>2020-11-11T12:37:06Z</time>
      </trkpt>
      <trkpt lat="28.3920920" lon="-16.4532020">
        <ele>1396.9</ele>
        <time>2020-11-11T12:37:07Z</time>
      </trkpt>
      <trkpt lat="28.3920780" lon="-16.4532270">
        <ele>1396.9</ele>
        <time>2020-11-11T12:37:08Z</time>
      </trkpt>
      <trkpt lat="28.3920820" lon="-16.4532420">
        <ele>1396.9</ele>
        <time>2020-11-11T12:37:09Z</time>
      </trkpt>
      <trkpt lat="28.3920820" lon="-16.4532420">
        <ele>1396.9</ele>
        <time>2020-11-11T12:37:10Z</time>
      </trkpt>
      <trkpt lat="28.3920870" lon="-16.4532480">
        <ele>1396.9</ele>
        <time>2020-11-11T12:37:11Z</time>
      </trkpt>
      <trkpt lat="28.3920870" lon="-16.4532480">
        <ele>1397.9</ele>
        <time>2020-11-11T12:37:12Z</time>
      </trkpt>
      <trkpt lat="28.3920800" lon="-16.4532580">
        <ele>1397.9</ele>
        <time>2020-11-11T12:37:13Z</time>
      </trkpt>
      <trkpt lat="28.3920800" lon="-16.4532580">
        <ele>1397.9</ele>
        <time>2020-11-11T12:37:14Z</time>
      </trkpt>
      <trkpt lat="28.3920800" lon="-16.4532680">
        <ele>1397.9</ele>
        <time>2020-11-11T12:37:15Z</time>
      </trkpt>
      <trkpt lat="28.3920800" lon="-16.4532680">
        <ele>1397.9</ele>
        <time>2020-11-11T12:37:16Z</time>
      </trkpt>
      <trkpt lat="28.3920630" lon="-16.4532700">
        <ele>1397.9</ele>
        <time>2020-11-11T12:37:17Z</time>
      </trkpt>
      <trkpt lat="28.3920630" lon="-16.4532700">
        <ele>1397.9</ele>
        <time>2020-11-11T12:37:18Z</time>
      </trkpt>
      <trkpt lat="28.3919770" lon="-16.4532850">
        <ele>1397.9</ele>
        <time>2020-11-11T12:37:19Z</time>
      </trkpt>
      <trkpt lat="28.3919270" lon="-16.4532900">
        <ele>1397.9</ele>
        <time>2020-11-11T12:37:20Z</time>
      </trkpt>
      <trkpt lat="28.3919270" lon="-16.4532900">
        <ele>1397.9</ele>
        <time>2020-11-11T12:37:21Z</time>
      </trkpt>
      <trkpt lat="28.3918720" lon="-16.4532900">
        <ele>1397.9</ele>
        <time>2020-11-11T12:37:22Z</time>
      </trkpt>
      <trkpt lat="28.3918400" lon="-16.4532880">
        <ele>1397.9</ele>
        <time>2020-11-11T12:37:23Z</time>
      </trkpt>
      <trkpt lat="28.3918400" lon="-16.4532880">
        <ele>1398.9</ele>
        <time>2020-11-11T12:37:24Z</time>
      </trkpt>
      <trkpt lat="28.3918000" lon="-16.4532750">
        <ele>1398.9</ele>
        <time>2020-11-11T12:37:25Z</time>
      </trkpt>
      <trkpt lat="28.3918000" lon="-16.4532750">
        <ele>1398.9</ele>
        <time>2020-11-11T12:37:26Z</time>
      </trkpt>
      <trkpt lat="28.3917600" lon="-16.4532700">
        <ele>1398.9</ele>
        <time>2020-11-11T12:37:27Z</time>
      </trkpt>
      <trkpt lat="28.3917600" lon="-16.4532700">
        <ele>1398.9</ele>
        <time>2020-11-11T12:37:28Z</time>
      </trkpt>
      <trkpt lat="28.3917280" lon="-16.4532520">
        <ele>1398.9</ele>
        <time>2020-11-11T12:37:29Z</time>
      </trkpt>
      <trkpt lat="28.3917080" lon="-16.4532470">
        <ele>1398.9</ele>
        <time>2020-11-11T12:37:30Z</time>
      </trkpt>
      <trkpt lat="28.3917080" lon="-16.4532470">
        <ele>1398.9</ele>
        <time>2020-11-11T12:37:31Z</time>
      </trkpt>
      <trkpt lat="28.3916570" lon="-16.4532100">
        <ele>1398.9</ele>
        <time>2020-11-11T12:37:32Z</time>
      </trkpt>
      <trkpt lat="28.3916570" lon="-16.4532100">
        <ele>1398.9</ele>
        <time>2020-11-11T12:37:33Z</time>
      </trkpt>
      <trkpt lat="28.3916300" lon="-16.4532300">
        <ele>1399.9</ele>
        <time>2020-11-11T12:37:34Z</time>
      </trkpt>
      <trkpt lat="28.3916300" lon="-16.4532300">
        <ele>1399.9</ele>
        <time>2020-11-11T12:37:35Z</time>
      </trkpt>
      <trkpt lat="28.3915770" lon="-16.4532080">
        <ele>1399.9</ele>
        <time>2020-11-11T12:37:36Z</time>
      </trkpt>
      <trkpt lat="28.3915770" lon="-16.4532080">
        <ele>1399.9</ele>
        <time>2020-11-11T12:37:37Z</time>
      </trkpt>
      <trkpt lat="28.3915100" lon="-16.4531870">
        <ele>1399.9</ele>
        <time>2020-11-11T12:37:38Z</time>
      </trkpt>
      <trkpt lat="28.3915100" lon="-16.4531870">
        <ele>1399.9</ele>
        <time>2020-11-11T12:37:39Z</time>
      </trkpt>
      <trkpt lat="28.3914530" lon="-16.4531950">
        <ele>1399.9</ele>
        <time>2020-11-11T12:37:40Z</time>
      </trkpt>
      <trkpt lat="28.3914300" lon="-16.4531950">
        <ele>1399.9</ele>
        <time>2020-11-11T12:37:41Z</time>
      </trkpt>
      <trkpt lat="28.3914300" lon="-16.4531950">
        <ele>1399.9</ele>
        <time>2020-11-11T12:37:42Z</time>
      </trkpt>
      <trkpt lat="28.3913780" lon="-16.4532480">
        <ele>1399.9</ele>
        <time>2020-11-11T12:37:43Z</time>
      </trkpt>
      <trkpt lat="28.3913780" lon="-16.4532480">
        <ele>1399.9</ele>
        <time>2020-11-11T12:37:44Z</time>
      </trkpt>
      <trkpt lat="28.3913270" lon="-16.4532650">
        <ele>1399.9</ele>
        <time>2020-11-11T12:37:45Z</time>
      </trkpt>
      <trkpt lat="28.3913180" lon="-16.4532700">
        <ele>1400.9</ele>
        <time>2020-11-11T12:37:46Z</time>
      </trkpt>
      <trkpt lat="28.3913100" lon="-16.4532730">
        <ele>1400.9</ele>
        <time>2020-11-11T12:37:47Z</time>
      </trkpt>
      <trkpt lat="28.3913100" lon="-16.4532730">
        <ele>1400.9</ele>
        <time>2020-11-11T12:37:48Z</time>
      </trkpt>
      <trkpt lat="28.3912780" lon="-16.4532880">
        <ele>1400.9</ele>
        <time>2020-11-11T12:37:49Z</time>
      </trkpt>
      <trkpt lat="28.3912780" lon="-16.4532880">
        <ele>1400.9</ele>
        <time>2020-11-11T12:37:50Z</time>
      </trkpt>
      <trkpt lat="28.3912330" lon="-16.4533020">
        <ele>1400.9</ele>
        <time>2020-11-11T12:37:51Z</time>
      </trkpt>
      <trkpt lat="28.3912330" lon="-16.4533020">
        <ele>1400.9</ele>
        <time>2020-11-11T12:37:52Z</time>
      </trkpt>
      <trkpt lat="28.3911980" lon="-16.4533220">
        <ele>1400.9</ele>
        <time>2020-11-11T12:37:53Z</time>
      </trkpt>
      <trkpt lat="28.3911980" lon="-16.4533220">
        <ele>1401.9</ele>
        <time>2020-11-11T12:37:54Z</time>
      </trkpt>
      <trkpt lat="28.3911400" lon="-16.4533350">
        <ele>1401.9</ele>
        <time>2020-11-11T12:37:55Z</time>
      </trkpt>
      <trkpt lat="28.3911400" lon="-16.4533350">
        <ele>1401.9</ele>
        <time>2020-11-11T12:37:56Z</time>
      </trkpt>
      <trkpt lat="28.3910720" lon="-16.4533330">
        <ele>1401.9</ele>
        <time>2020-11-11T12:37:57Z</time>
      </trkpt>
      <trkpt lat="28.3910720" lon="-16.4533330">
        <ele>1401.9</ele>
        <time>2020-11-11T12:37:58Z</time>
      </trkpt>
      <trkpt lat="28.3909680" lon="-16.4534120">
        <ele>1401.9</ele>
        <time>2020-11-11T12:37:59Z</time>
      </trkpt>
      <trkpt lat="28.3909680" lon="-16.4534120">
        <ele>1401.9</ele>
        <time>2020-11-11T12:38:00Z</time>
      </trkpt>
      <trkpt lat="28.3908880" lon="-16.4534800">
        <ele>1401.9</ele>
        <time>2020-11-11T12:38:01Z</time>
      </trkpt>
      <trkpt lat="28.3908880" lon="-16.4534800">
        <ele>1401.9</ele>
        <time>2020-11-11T12:38:02Z</time>
      </trkpt>
      <trkpt lat="28.3908530" lon="-16.4535570">
        <ele>1401.9</ele>
        <time>2020-11-11T12:38:03Z</time>
      </trkpt>
      <trkpt lat="28.3908500" lon="-16.4535870">
        <ele>1401.9</ele>
        <time>2020-11-11T12:38:04Z</time>
      </trkpt>
      <trkpt lat="28.3908500" lon="-16.4535870">
        <ele>1401.9</ele>
        <time>2020-11-11T12:38:05Z</time>
      </trkpt>
      <trkpt lat="28.3908980" lon="-16.4535950">
        <ele>1401.9</ele>
        <time>2020-11-11T12:38:06Z</time>
      </trkpt>
      <trkpt lat="28.3908980" lon="-16.4535950">
        <ele>1401.9</ele>
        <time>2020-11-11T12:38:07Z</time>
      </trkpt>
      <trkpt lat="28.3908980" lon="-16.4535950">
        <ele>1401.9</ele>
        <time>2020-11-11T12:38:08Z</time>
      </trkpt>
      <trkpt lat="28.3909550" lon="-16.4536220">
        <ele>1401.9</ele>
        <time>2020-11-11T12:38:09Z</time>
      </trkpt>
      <trkpt lat="28.3910020" lon="-16.4536470">
        <ele>1401.9</ele>
        <time>2020-11-11T12:38:10Z</time>
      </trkpt>
      <trkpt lat="28.3910020" lon="-16.4536470">
        <ele>1401.9</ele>
        <time>2020-11-11T12:38:11Z</time>
      </trkpt>
      <trkpt lat="28.3910550" lon="-16.4536780">
        <ele>1402.9</ele>
        <time>2020-11-11T12:38:12Z</time>
      </trkpt>
      <trkpt lat="28.3910780" lon="-16.4537050">
        <ele>1402.9</ele>
        <time>2020-11-11T12:38:13Z</time>
      </trkpt>
      <trkpt lat="28.3910780" lon="-16.4537050">
        <ele>1402.9</ele>
        <time>2020-11-11T12:38:14Z</time>
      </trkpt>
      <trkpt lat="28.3910780" lon="-16.4537050">
        <ele>1402.9</ele>
        <time>2020-11-11T12:38:15Z</time>
      </trkpt>
      <trkpt lat="28.3911530" lon="-16.4537350">
        <ele>1402.9</ele>
        <time>2020-11-11T12:38:16Z</time>
      </trkpt>
      <trkpt lat="28.3911400" lon="-16.4537970">
        <ele>1402.9</ele>
        <time>2020-11-11T12:38:17Z</time>
      </trkpt>
      <trkpt lat="28.3911430" lon="-16.4538280">
        <ele>1402.9</ele>
        <time>2020-11-11T12:38:18Z</time>
      </trkpt>
      <trkpt lat="28.3911400" lon="-16.4538530">
        <ele>1402.9</ele>
        <time>2020-11-11T12:38:19Z</time>
      </trkpt>
      <trkpt lat="28.3911400" lon="-16.4538530">
        <ele>1403.9</ele>
        <time>2020-11-11T12:38:20Z</time>
      </trkpt>
      <trkpt lat="28.3911420" lon="-16.4539080">
        <ele>1403.9</ele>
        <time>2020-11-11T12:38:21Z</time>
      </trkpt>
      <trkpt lat="28.3911200" lon="-16.4539150">
        <ele>1403.9</ele>
        <time>2020-11-11T12:38:22Z</time>
      </trkpt>
      <trkpt lat="28.3911200" lon="-16.4539150">
        <ele>1403.9</ele>
        <time>2020-11-11T12:38:23Z</time>
      </trkpt>
      <trkpt lat="28.3910930" lon="-16.4539370">
        <ele>1403.9</ele>
        <time>2020-11-11T12:38:24Z</time>
      </trkpt>
      <trkpt lat="28.3910800" lon="-16.4539500">
        <ele>1403.9</ele>
        <time>2020-11-11T12:38:25Z</time>
      </trkpt>
      <trkpt lat="28.3910800" lon="-16.4539500">
        <ele>1404.9</ele>
        <time>2020-11-11T12:38:26Z</time>
      </trkpt>
      <trkpt lat="28.3910450" lon="-16.4539720">
        <ele>1404.9</ele>
        <time>2020-11-11T12:38:27Z</time>
      </trkpt>
      <trkpt lat="28.3910450" lon="-16.4539720">
        <ele>1404.9</ele>
        <time>2020-11-11T12:38:28Z</time>
      </trkpt>
      <trkpt lat="28.3910030" lon="-16.4539850">
        <ele>1404.9</ele>
        <time>2020-11-11T12:38:29Z</time>
      </trkpt>
      <trkpt lat="28.3910030" lon="-16.4539850">
        <ele>1404.9</ele>
        <time>2020-11-11T12:38:30Z</time>
      </trkpt>
      <trkpt lat="28.3909670" lon="-16.4540070">
        <ele>1405.9</ele>
        <time>2020-11-11T12:38:31Z</time>
      </trkpt>
      <trkpt lat="28.3909670" lon="-16.4540070">
        <ele>1405.9</ele>
        <time>2020-11-11T12:38:32Z</time>
      </trkpt>
      <trkpt lat="28.3909220" lon="-16.4540250">
        <ele>1405.9</ele>
        <time>2020-11-11T12:38:33Z</time>
      </trkpt>
      <trkpt lat="28.3909150" lon="-16.4540320">
        <ele>1405.9</ele>
        <time>2020-11-11T12:38:34Z</time>
      </trkpt>
      <trkpt lat="28.3909150" lon="-16.4540320">
        <ele>1405.9</ele>
        <time>2020-11-11T12:38:35Z</time>
      </trkpt>
      <trkpt lat="28.3908770" lon="-16.4540500">
        <ele>1405.9</ele>
        <time>2020-11-11T12:38:36Z</time>
      </trkpt>
      <trkpt lat="28.3908770" lon="-16.4540500">
        <ele>1406.9</ele>
        <time>2020-11-11T12:38:37Z</time>
      </trkpt>
      <trkpt lat="28.3908430" lon="-16.4540670">
        <ele>1406.9</ele>
        <time>2020-11-11T12:38:38Z</time>
      </trkpt>
      <trkpt lat="28.3908430" lon="-16.4540670">
        <ele>1406.9</ele>
        <time>2020-11-11T12:38:39Z</time>
      </trkpt>
      <trkpt lat="28.3908250" lon="-16.4540870">
        <ele>1406.9</ele>
        <time>2020-11-11T12:38:40Z</time>
      </trkpt>
      <trkpt lat="28.3908250" lon="-16.4540870">
        <ele>1407.9</ele>
        <time>2020-11-11T12:38:41Z</time>
      </trkpt>
      <trkpt lat="28.3907950" lon="-16.4541100">
        <ele>1407.9</ele>
        <time>2020-11-11T12:38:42Z</time>
      </trkpt>
      <trkpt lat="28.3907820" lon="-16.4541250">
        <ele>1407.9</ele>
        <time>2020-11-11T12:38:43Z</time>
      </trkpt>
      <trkpt lat="28.3907700" lon="-16.4541420">
        <ele>1407.9</ele>
        <time>2020-11-11T12:38:44Z</time>
      </trkpt>
      <trkpt lat="28.3907700" lon="-16.4541420">
        <ele>1407.9</ele>
        <time>2020-11-11T12:38:45Z</time>
      </trkpt>
      <trkpt lat="28.3907630" lon="-16.4541750">
        <ele>1407.9</ele>
        <time>2020-11-11T12:38:46Z</time>
      </trkpt>
      <trkpt lat="28.3907550" lon="-16.4541930">
        <ele>1407.9</ele>
        <time>2020-11-11T12:38:47Z</time>
      </trkpt>
      <trkpt lat="28.3907550" lon="-16.4541930">
        <ele>1407.9</ele>
        <time>2020-11-11T12:38:48Z</time>
      </trkpt>
      <trkpt lat="28.3907250" lon="-16.4542270">
        <ele>1407.9</ele>
        <time>2020-11-11T12:38:49Z</time>
      </trkpt>
      <trkpt lat="28.3907250" lon="-16.4542270">
        <ele>1407.9</ele>
        <time>2020-11-11T12:38:50Z</time>
      </trkpt>
      <trkpt lat="28.3906600" lon="-16.4542470">
        <ele>1407.9</ele>
        <time>2020-11-11T12:38:51Z</time>
      </trkpt>
      <trkpt lat="28.3906600" lon="-16.4542470">
        <ele>1407.9</ele>
        <time>2020-11-11T12:38:52Z</time>
      </trkpt>
      <trkpt lat="28.3906280" lon="-16.4542550">
        <ele>1407.9</ele>
        <time>2020-11-11T12:38:53Z</time>
      </trkpt>
      <trkpt lat="28.3906280" lon="-16.4542550">
        <ele>1408.9</ele>
        <time>2020-11-11T12:38:54Z</time>
      </trkpt>
      <trkpt lat="28.3906280" lon="-16.4542550">
        <ele>1408.9</ele>
        <time>2020-11-11T12:38:55Z</time>
      </trkpt>
      <trkpt lat="28.3906020" lon="-16.4542700">
        <ele>1408.9</ele>
        <time>2020-11-11T12:38:56Z</time>
      </trkpt>
      <trkpt lat="28.3905430" lon="-16.4542870">
        <ele>1408.9</ele>
        <time>2020-11-11T12:38:57Z</time>
      </trkpt>
      <trkpt lat="28.3905430" lon="-16.4542870">
        <ele>1408.9</ele>
        <time>2020-11-11T12:38:58Z</time>
      </trkpt>
      <trkpt lat="28.3905100" lon="-16.4543220">
        <ele>1408.9</ele>
        <time>2020-11-11T12:38:59Z</time>
      </trkpt>
      <trkpt lat="28.3905100" lon="-16.4543220">
        <ele>1408.9</ele>
        <time>2020-11-11T12:39:00Z</time>
      </trkpt>
      <trkpt lat="28.3904680" lon="-16.4543430">
        <ele>1408.9</ele>
        <time>2020-11-11T12:39:01Z</time>
      </trkpt>
      <trkpt lat="28.3904680" lon="-16.4543430">
        <ele>1409.9</ele>
        <time>2020-11-11T12:39:02Z</time>
      </trkpt>
      <trkpt lat="28.3904150" lon="-16.4543530">
        <ele>1409.9</ele>
        <time>2020-11-11T12:39:03Z</time>
      </trkpt>
      <trkpt lat="28.3904150" lon="-16.4543530">
        <ele>1409.9</ele>
        <time>2020-11-11T12:39:04Z</time>
      </trkpt>
      <trkpt lat="28.3903350" lon="-16.4543820">
        <ele>1409.9</ele>
        <time>2020-11-11T12:39:05Z</time>
      </trkpt>
      <trkpt lat="28.3903350" lon="-16.4543820">
        <ele>1409.9</ele>
        <time>2020-11-11T12:39:06Z</time>
      </trkpt>
      <trkpt lat="28.3903330" lon="-16.4544170">
        <ele>1409.9</ele>
        <time>2020-11-11T12:39:07Z</time>
      </trkpt>
      <trkpt lat="28.3903430" lon="-16.4544580">
        <ele>1409.9</ele>
        <time>2020-11-11T12:39:08Z</time>
      </trkpt>
      <trkpt lat="28.3903430" lon="-16.4544580">
        <ele>1410.9</ele>
        <time>2020-11-11T12:39:09Z</time>
      </trkpt>
      <trkpt lat="28.3903570" lon="-16.4545480">
        <ele>1410.9</ele>
        <time>2020-11-11T12:39:10Z</time>
      </trkpt>
      <trkpt lat="28.3903570" lon="-16.4545480">
        <ele>1410.9</ele>
        <time>2020-11-11T12:39:11Z</time>
      </trkpt>
      <trkpt lat="28.3903870" lon="-16.4546520">
        <ele>1410.9</ele>
        <time>2020-11-11T12:39:12Z</time>
      </trkpt>
      <trkpt lat="28.3903870" lon="-16.4546520">
        <ele>1410.9</ele>
        <time>2020-11-11T12:39:13Z</time>
      </trkpt>
      <trkpt lat="28.3903930" lon="-16.4547080">
        <ele>1410.9</ele>
        <time>2020-11-11T12:39:14Z</time>
      </trkpt>
      <trkpt lat="28.3903870" lon="-16.4547480">
        <ele>1410.9</ele>
        <time>2020-11-11T12:39:15Z</time>
      </trkpt>
      <trkpt lat="28.3903870" lon="-16.4547480">
        <ele>1410.9</ele>
        <time>2020-11-11T12:39:16Z</time>
      </trkpt>
      <trkpt lat="28.3903730" lon="-16.4548230">
        <ele>1410.9</ele>
        <time>2020-11-11T12:39:17Z</time>
      </trkpt>
      <trkpt lat="28.3903730" lon="-16.4548230">
        <ele>1410.9</ele>
        <time>2020-11-11T12:39:18Z</time>
      </trkpt>
      <trkpt lat="28.3903900" lon="-16.4548980">
        <ele>1410.9</ele>
        <time>2020-11-11T12:39:19Z</time>
      </trkpt>
      <trkpt lat="28.3903900" lon="-16.4548980">
        <ele>1410.9</ele>
        <time>2020-11-11T12:39:20Z</time>
      </trkpt>
      <trkpt lat="28.3904100" lon="-16.4549720">
        <ele>1410.9</ele>
        <time>2020-11-11T12:39:21Z</time>
      </trkpt>
      <trkpt lat="28.3904100" lon="-16.4549720">
        <ele>1410.9</ele>
        <time>2020-11-11T12:39:22Z</time>
      </trkpt>
      <trkpt lat="28.3904100" lon="-16.4549720">
        <ele>1410.9</ele>
        <time>2020-11-11T12:39:23Z</time>
      </trkpt>
      <trkpt lat="28.3904620" lon="-16.4550770">
        <ele>1410.9</ele>
        <time>2020-11-11T12:39:24Z</time>
      </trkpt>
      <trkpt lat="28.3905070" lon="-16.4551370">
        <ele>1410.9</ele>
        <time>2020-11-11T12:39:25Z</time>
      </trkpt>
      <trkpt lat="28.3905070" lon="-16.4551370">
        <ele>1410.9</ele>
        <time>2020-11-11T12:39:26Z</time>
      </trkpt>
      <trkpt lat="28.3905620" lon="-16.4551630">
        <ele>1410.9</ele>
        <time>2020-11-11T12:39:27Z</time>
      </trkpt>
      <trkpt lat="28.3905830" lon="-16.4551720">
        <ele>1410.9</ele>
        <time>2020-11-11T12:39:28Z</time>
      </trkpt>
      <trkpt lat="28.3905830" lon="-16.4551720">
        <ele>1410.9</ele>
        <time>2020-11-11T12:39:29Z</time>
      </trkpt>
      <trkpt lat="28.3906470" lon="-16.4552020">
        <ele>1410.9</ele>
        <time>2020-11-11T12:39:30Z</time>
      </trkpt>
      <trkpt lat="28.3906770" lon="-16.4552220">
        <ele>1410.9</ele>
        <time>2020-11-11T12:39:31Z</time>
      </trkpt>
      <trkpt lat="28.3906770" lon="-16.4552220">
        <ele>1410.9</ele>
        <time>2020-11-11T12:39:32Z</time>
      </trkpt>
      <trkpt lat="28.3907400" lon="-16.4552680">
        <ele>1409.9</ele>
        <time>2020-11-11T12:39:33Z</time>
      </trkpt>
      <trkpt lat="28.3907400" lon="-16.4552680">
        <ele>1409.9</ele>
        <time>2020-11-11T12:39:34Z</time>
      </trkpt>
      <trkpt lat="28.3908150" lon="-16.4553180">
        <ele>1409.9</ele>
        <time>2020-11-11T12:39:35Z</time>
      </trkpt>
      <trkpt lat="28.3908150" lon="-16.4553180">
        <ele>1408.9</ele>
        <time>2020-11-11T12:39:36Z</time>
      </trkpt>
      <trkpt lat="28.3908570" lon="-16.4553270">
        <ele>1408.9</ele>
        <time>2020-11-11T12:39:37Z</time>
      </trkpt>
      <trkpt lat="28.3908570" lon="-16.4553270">
        <ele>1408.9</ele>
        <time>2020-11-11T12:39:38Z</time>
      </trkpt>
      <trkpt lat="28.3909000" lon="-16.4553330">
        <ele>1408.9</ele>
        <time>2020-11-11T12:39:39Z</time>
      </trkpt>
      <trkpt lat="28.3909000" lon="-16.4553330">
        <ele>1408.9</ele>
        <time>2020-11-11T12:39:40Z</time>
      </trkpt>
      <trkpt lat="28.3909550" lon="-16.4553500">
        <ele>1408.9</ele>
        <time>2020-11-11T12:39:41Z</time>
      </trkpt>
      <trkpt lat="28.3909550" lon="-16.4553500">
        <ele>1408.9</ele>
        <time>2020-11-11T12:39:42Z</time>
      </trkpt>
      <trkpt lat="28.3910180" lon="-16.4553820">
        <ele>1408.9</ele>
        <time>2020-11-11T12:39:43Z</time>
      </trkpt>
      <trkpt lat="28.3910180" lon="-16.4553820">
        <ele>1408.9</ele>
        <time>2020-11-11T12:39:44Z</time>
      </trkpt>
      <trkpt lat="28.3910730" lon="-16.4554330">
        <ele>1408.9</ele>
        <time>2020-11-11T12:39:45Z</time>
      </trkpt>
      <trkpt lat="28.3910730" lon="-16.4554330">
        <ele>1407.9</ele>
        <time>2020-11-11T12:39:46Z</time>
      </trkpt>
      <trkpt lat="28.3911450" lon="-16.4555020">
        <ele>1407.9</ele>
        <time>2020-11-11T12:39:47Z</time>
      </trkpt>
      <trkpt lat="28.3911450" lon="-16.4555020">
        <ele>1407.9</ele>
        <time>2020-11-11T12:39:48Z</time>
      </trkpt>
      <trkpt lat="28.3911970" lon="-16.4555100">
        <ele>1407.9</ele>
        <time>2020-11-11T12:39:49Z</time>
      </trkpt>
      <trkpt lat="28.3911970" lon="-16.4555100">
        <ele>1407.9</ele>
        <time>2020-11-11T12:39:50Z</time>
      </trkpt>
      <trkpt lat="28.3912870" lon="-16.4554970">
        <ele>1407.9</ele>
        <time>2020-11-11T12:39:51Z</time>
      </trkpt>
      <trkpt lat="28.3912870" lon="-16.4554970">
        <ele>1406.9</ele>
        <time>2020-11-11T12:39:52Z</time>
      </trkpt>
      <trkpt lat="28.3914370" lon="-16.4555220">
        <ele>1406.9</ele>
        <time>2020-11-11T12:39:53Z</time>
      </trkpt>
      <trkpt lat="28.3914370" lon="-16.4555220">
        <ele>1406.9</ele>
        <time>2020-11-11T12:39:54Z</time>
      </trkpt>
      <trkpt lat="28.3915370" lon="-16.4555600">
        <ele>1406.9</ele>
        <time>2020-11-11T12:39:55Z</time>
      </trkpt>
      <trkpt lat="28.3915370" lon="-16.4555600">
        <ele>1405.9</ele>
        <time>2020-11-11T12:39:56Z</time>
      </trkpt>
      <trkpt lat="28.3916130" lon="-16.4556170">
        <ele>1405.9</ele>
        <time>2020-11-11T12:39:57Z</time>
      </trkpt>
      <trkpt lat="28.3916130" lon="-16.4556170">
        <ele>1405.9</ele>
        <time>2020-11-11T12:39:58Z</time>
      </trkpt>
      <trkpt lat="28.3917070" lon="-16.4556930">
        <ele>1405.9</ele>
        <time>2020-11-11T12:39:59Z</time>
      </trkpt>
      <trkpt lat="28.3917070" lon="-16.4556930">
        <ele>1404.9</ele>
        <time>2020-11-11T12:40:00Z</time>
      </trkpt>
      <trkpt lat="28.3917730" lon="-16.4557730">
        <ele>1404.9</ele>
        <time>2020-11-11T12:40:01Z</time>
      </trkpt>
      <trkpt lat="28.3917730" lon="-16.4557730">
        <ele>1404.9</ele>
        <time>2020-11-11T12:40:02Z</time>
      </trkpt>
      <trkpt lat="28.3918250" lon="-16.4558800">
        <ele>1404.9</ele>
        <time>2020-11-11T12:40:03Z</time>
      </trkpt>
      <trkpt lat="28.3918250" lon="-16.4558800">
        <ele>1404.9</ele>
        <time>2020-11-11T12:40:04Z</time>
      </trkpt>
      <trkpt lat="28.3919120" lon="-16.4559680">
        <ele>1404.9</ele>
        <time>2020-11-11T12:40:05Z</time>
      </trkpt>
      <trkpt lat="28.3919120" lon="-16.4559680">
        <ele>1404.9</ele>
        <time>2020-11-11T12:40:06Z</time>
      </trkpt>
      <trkpt lat="28.3919950" lon="-16.4560480">
        <ele>1404.9</ele>
        <time>2020-11-11T12:40:07Z</time>
      </trkpt>
      <trkpt lat="28.3919950" lon="-16.4560480">
        <ele>1404.9</ele>
        <time>2020-11-11T12:40:08Z</time>
      </trkpt>
      <trkpt lat="28.3920920" lon="-16.4560780">
        <ele>1404.9</ele>
        <time>2020-11-11T12:40:09Z</time>
      </trkpt>
      <trkpt lat="28.3921400" lon="-16.4560880">
        <ele>1404.9</ele>
        <time>2020-11-11T12:40:10Z</time>
      </trkpt>
      <trkpt lat="28.3921400" lon="-16.4560880">
        <ele>1403.9</ele>
        <time>2020-11-11T12:40:11Z</time>
      </trkpt>
      <trkpt lat="28.3922380" lon="-16.4561080">
        <ele>1403.9</ele>
        <time>2020-11-11T12:40:12Z</time>
      </trkpt>
      <trkpt lat="28.3922380" lon="-16.4561080">
        <ele>1403.9</ele>
        <time>2020-11-11T12:40:13Z</time>
      </trkpt>
      <trkpt lat="28.3923570" lon="-16.4561420">
        <ele>1403.9</ele>
        <time>2020-11-11T12:40:14Z</time>
      </trkpt>
      <trkpt lat="28.3923570" lon="-16.4561420">
        <ele>1403.9</ele>
        <time>2020-11-11T12:40:15Z</time>
      </trkpt>
      <trkpt lat="28.3924180" lon="-16.4562050">
        <ele>1403.9</ele>
        <time>2020-11-11T12:40:16Z</time>
      </trkpt>
      <trkpt lat="28.3924470" lon="-16.4562430">
        <ele>1402.9</ele>
        <time>2020-11-11T12:40:17Z</time>
      </trkpt>
      <trkpt lat="28.3924470" lon="-16.4562430">
        <ele>1402.9</ele>
        <time>2020-11-11T12:40:18Z</time>
      </trkpt>
      <trkpt lat="28.3924970" lon="-16.4563520">
        <ele>1402.9</ele>
        <time>2020-11-11T12:40:19Z</time>
      </trkpt>
      <trkpt lat="28.3924970" lon="-16.4563520">
        <ele>1401.9</ele>
        <time>2020-11-11T12:40:20Z</time>
      </trkpt>
      <trkpt lat="28.3925520" lon="-16.4564830">
        <ele>1401.9</ele>
        <time>2020-11-11T12:40:21Z</time>
      </trkpt>
      <trkpt lat="28.3925520" lon="-16.4564830">
        <ele>1400.9</ele>
        <time>2020-11-11T12:40:22Z</time>
      </trkpt>
      <trkpt lat="28.3926130" lon="-16.4565930">
        <ele>1400.9</ele>
        <time>2020-11-11T12:40:23Z</time>
      </trkpt>
      <trkpt lat="28.3926500" lon="-16.4566550">
        <ele>1399.9</ele>
        <time>2020-11-11T12:40:24Z</time>
      </trkpt>
      <trkpt lat="28.3926500" lon="-16.4566550">
        <ele>1399.9</ele>
        <time>2020-11-11T12:40:25Z</time>
      </trkpt>
      <trkpt lat="28.3926720" lon="-16.4568000">
        <ele>1398.9</ele>
        <time>2020-11-11T12:40:26Z</time>
      </trkpt>
      <trkpt lat="28.3926720" lon="-16.4568000">
        <ele>1398.9</ele>
        <time>2020-11-11T12:40:27Z</time>
      </trkpt>
      <trkpt lat="28.3926750" lon="-16.4569500">
        <ele>1397.9</ele>
        <time>2020-11-11T12:40:28Z</time>
      </trkpt>
      <trkpt lat="28.3926750" lon="-16.4569500">
        <ele>1397.9</ele>
        <time>2020-11-11T12:40:29Z</time>
      </trkpt>
      <trkpt lat="28.3926830" lon="-16.4570630">
        <ele>1396.9</ele>
        <time>2020-11-11T12:40:30Z</time>
      </trkpt>
      <trkpt lat="28.3926930" lon="-16.4571100">
        <ele>1396.9</ele>
        <time>2020-11-11T12:40:31Z</time>
      </trkpt>
      <trkpt lat="28.3926930" lon="-16.4571100">
        <ele>1395.9</ele>
        <time>2020-11-11T12:40:32Z</time>
      </trkpt>
      <trkpt lat="28.3927450" lon="-16.4571970">
        <ele>1395.9</ele>
        <time>2020-11-11T12:40:33Z</time>
      </trkpt>
      <trkpt lat="28.3927450" lon="-16.4571970">
        <ele>1394.9</ele>
        <time>2020-11-11T12:40:34Z</time>
      </trkpt>
      <trkpt lat="28.3928850" lon="-16.4573000">
        <ele>1394.9</ele>
        <time>2020-11-11T12:40:35Z</time>
      </trkpt>
      <trkpt lat="28.3928850" lon="-16.4573000">
        <ele>1393.9</ele>
        <time>2020-11-11T12:40:36Z</time>
      </trkpt>
      <trkpt lat="28.3929850" lon="-16.4573530">
        <ele>1393.9</ele>
        <time>2020-11-11T12:40:37Z</time>
      </trkpt>
      <trkpt lat="28.3929850" lon="-16.4573530">
        <ele>1392.9</ele>
        <time>2020-11-11T12:40:38Z</time>
      </trkpt>
      <trkpt lat="28.3930920" lon="-16.4574100">
        <ele>1392.9</ele>
        <time>2020-11-11T12:40:39Z</time>
      </trkpt>
      <trkpt lat="28.3930920" lon="-16.4574100">
        <ele>1391.9</ele>
        <time>2020-11-11T12:40:40Z</time>
      </trkpt>
      <trkpt lat="28.3932020" lon="-16.4574780">
        <ele>1391.9</ele>
        <time>2020-11-11T12:40:41Z</time>
      </trkpt>
      <trkpt lat="28.3932430" lon="-16.4574930">
        <ele>1390.9</ele>
        <time>2020-11-11T12:40:42Z</time>
      </trkpt>
      <trkpt lat="28.3932430" lon="-16.4574930">
        <ele>1390.9</ele>
        <time>2020-11-11T12:40:43Z</time>
      </trkpt>
      <trkpt lat="28.3933330" lon="-16.4575330">
        <ele>1389.9</ele>
        <time>2020-11-11T12:40:44Z</time>
      </trkpt>
      <trkpt lat="28.3933330" lon="-16.4575330">
        <ele>1389.9</ele>
        <time>2020-11-11T12:40:45Z</time>
      </trkpt>
      <trkpt lat="28.3934250" lon="-16.4575970">
        <ele>1388.9</ele>
        <time>2020-11-11T12:40:46Z</time>
      </trkpt>
      <trkpt lat="28.3934520" lon="-16.4576430">
        <ele>1388.9</ele>
        <time>2020-11-11T12:40:47Z</time>
      </trkpt>
      <trkpt lat="28.3934520" lon="-16.4576430">
        <ele>1387.9</ele>
        <time>2020-11-11T12:40:48Z</time>
      </trkpt>
      <trkpt lat="28.3934900" lon="-16.4577500">
        <ele>1387.9</ele>
        <time>2020-11-11T12:40:49Z</time>
      </trkpt>
      <trkpt lat="28.3934900" lon="-16.4577500">
        <ele>1386.9</ele>
        <time>2020-11-11T12:40:50Z</time>
      </trkpt>
      <trkpt lat="28.3935380" lon="-16.4578680">
        <ele>1386.9</ele>
        <time>2020-11-11T12:40:51Z</time>
      </trkpt>
      <trkpt lat="28.3935380" lon="-16.4578680">
        <ele>1386.9</ele>
        <time>2020-11-11T12:40:52Z</time>
      </trkpt>
      <trkpt lat="28.3935900" lon="-16.4579850">
        <ele>1386.9</ele>
        <time>2020-11-11T12:40:53Z</time>
      </trkpt>
      <trkpt lat="28.3935900" lon="-16.4579850">
        <ele>1384.9</ele>
        <time>2020-11-11T12:40:54Z</time>
      </trkpt>
      <trkpt lat="28.3936400" lon="-16.4580870">
        <ele>1384.9</ele>
        <time>2020-11-11T12:40:55Z</time>
      </trkpt>
      <trkpt lat="28.3936400" lon="-16.4580870">
        <ele>1384.9</ele>
        <time>2020-11-11T12:40:56Z</time>
      </trkpt>
      <trkpt lat="28.3936700" lon="-16.4582020">
        <ele>1383.9</ele>
        <time>2020-11-11T12:40:57Z</time>
      </trkpt>
      <trkpt lat="28.3936780" lon="-16.4582680">
        <ele>1383.9</ele>
        <time>2020-11-11T12:40:58Z</time>
      </trkpt>
      <trkpt lat="28.3936780" lon="-16.4582680">
        <ele>1382.9</ele>
        <time>2020-11-11T12:40:59Z</time>
      </trkpt>
      <trkpt lat="28.3936780" lon="-16.4583870">
        <ele>1382.9</ele>
        <time>2020-11-11T12:41:00Z</time>
      </trkpt>
      <trkpt lat="28.3936780" lon="-16.4583870">
        <ele>1381.9</ele>
        <time>2020-11-11T12:41:01Z</time>
      </trkpt>
      <trkpt lat="28.3936320" lon="-16.4584920">
        <ele>1381.9</ele>
        <time>2020-11-11T12:41:02Z</time>
      </trkpt>
      <trkpt lat="28.3936320" lon="-16.4584920">
        <ele>1380.9</ele>
        <time>2020-11-11T12:41:03Z</time>
      </trkpt>
      <trkpt lat="28.3935550" lon="-16.4585730">
        <ele>1380.9</ele>
        <time>2020-11-11T12:41:04Z</time>
      </trkpt>
      <trkpt lat="28.3935550" lon="-16.4585730">
        <ele>1379.9</ele>
        <time>2020-11-11T12:41:05Z</time>
      </trkpt>
      <trkpt lat="28.3934570" lon="-16.4586650">
        <ele>1379.9</ele>
        <time>2020-11-11T12:41:06Z</time>
      </trkpt>
      <trkpt lat="28.3933950" lon="-16.4586920">
        <ele>1378.9</ele>
        <time>2020-11-11T12:41:07Z</time>
      </trkpt>
      <trkpt lat="28.3933950" lon="-16.4586920">
        <ele>1378.9</ele>
        <time>2020-11-11T12:41:08Z</time>
      </trkpt>
      <trkpt lat="28.3932880" lon="-16.4587280">
        <ele>1378.9</ele>
        <time>2020-11-11T12:41:09Z</time>
      </trkpt>
      <trkpt lat="28.3932880" lon="-16.4587280">
        <ele>1378.9</ele>
        <time>2020-11-11T12:41:10Z</time>
      </trkpt>
      <trkpt lat="28.3932030" lon="-16.4587600">
        <ele>1376.9</ele>
        <time>2020-11-11T12:41:11Z</time>
      </trkpt>
      <trkpt lat="28.3932030" lon="-16.4587600">
        <ele>1376.9</ele>
        <time>2020-11-11T12:41:12Z</time>
      </trkpt>
      <trkpt lat="28.3931770" lon="-16.4588000">
        <ele>1375.9</ele>
        <time>2020-11-11T12:41:13Z</time>
      </trkpt>
      <trkpt lat="28.3931770" lon="-16.4588000">
        <ele>1375.9</ele>
        <time>2020-11-11T12:41:14Z</time>
      </trkpt>
      <trkpt lat="28.3931950" lon="-16.4588800">
        <ele>1375.9</ele>
        <time>2020-11-11T12:41:15Z</time>
      </trkpt>
      <trkpt lat="28.3931950" lon="-16.4588800">
        <ele>1375.9</ele>
        <time>2020-11-11T12:41:16Z</time>
      </trkpt>
      <trkpt lat="28.3932200" lon="-16.4590220">
        <ele>1374.9</ele>
        <time>2020-11-11T12:41:17Z</time>
      </trkpt>
      <trkpt lat="28.3932320" lon="-16.4590930">
        <ele>1374.9</ele>
        <time>2020-11-11T12:41:18Z</time>
      </trkpt>
      <trkpt lat="28.3932320" lon="-16.4590930">
        <ele>1373.9</ele>
        <time>2020-11-11T12:41:19Z</time>
      </trkpt>
      <trkpt lat="28.3932350" lon="-16.4591850">
        <ele>1373.9</ele>
        <time>2020-11-11T12:41:20Z</time>
      </trkpt>
      <trkpt lat="28.3932350" lon="-16.4591850">
        <ele>1372.9</ele>
        <time>2020-11-11T12:41:21Z</time>
      </trkpt>
      <trkpt lat="28.3932220" lon="-16.4592400">
        <ele>1372.9</ele>
        <time>2020-11-11T12:41:22Z</time>
      </trkpt>
      <trkpt lat="28.3932220" lon="-16.4592400">
        <ele>1372.9</ele>
        <time>2020-11-11T12:41:23Z</time>
      </trkpt>
      <trkpt lat="28.3932380" lon="-16.4592850">
        <ele>1372.9</ele>
        <time>2020-11-11T12:41:24Z</time>
      </trkpt>
      <trkpt lat="28.3932420" lon="-16.4593050">
        <ele>1371.9</ele>
        <time>2020-11-11T12:41:25Z</time>
      </trkpt>
      <trkpt lat="28.3932420" lon="-16.4593050">
        <ele>1371.9</ele>
        <time>2020-11-11T12:41:26Z</time>
      </trkpt>
      <trkpt lat="28.3932500" lon="-16.4593200">
        <ele>1371.9</ele>
        <time>2020-11-11T12:41:27Z</time>
      </trkpt>
      <trkpt lat="28.3932470" lon="-16.4593220">
        <ele>1371.9</ele>
        <time>2020-11-11T12:41:28Z</time>
      </trkpt>
      <trkpt lat="28.3932470" lon="-16.4593220">
        <ele>1371.9</ele>
        <time>2020-11-11T12:41:29Z</time>
      </trkpt>
      <trkpt lat="28.3932500" lon="-16.4593300">
        <ele>1371.9</ele>
        <time>2020-11-11T12:41:30Z</time>
      </trkpt>
      <trkpt lat="28.3932220" lon="-16.4594380">
        <ele>1371.9</ele>
        <time>2020-11-11T12:41:38Z</time>
      </trkpt>
      <trkpt lat="28.3932130" lon="-16.4594600">
        <ele>1371.9</ele>
        <time>2020-11-11T12:41:39Z</time>
      </trkpt>
      <trkpt lat="28.3932130" lon="-16.4594600">
        <ele>1371.9</ele>
        <time>2020-11-11T12:41:40Z</time>
      </trkpt>
      <trkpt lat="28.3932070" lon="-16.4595250">
        <ele>1371.9</ele>
        <time>2020-11-11T12:41:41Z</time>
      </trkpt>
      <trkpt lat="28.3932070" lon="-16.4595250">
        <ele>1371.9</ele>
        <time>2020-11-11T12:41:42Z</time>
      </trkpt>
      <trkpt lat="28.3932300" lon="-16.4595750">
        <ele>1371.9</ele>
        <time>2020-11-11T12:41:43Z</time>
      </trkpt>
      <trkpt lat="28.3932300" lon="-16.4595750">
        <ele>1371.9</ele>
        <time>2020-11-11T12:41:44Z</time>
      </trkpt>
      <trkpt lat="28.3932370" lon="-16.4596230">
        <ele>1371.9</ele>
        <time>2020-11-11T12:41:45Z</time>
      </trkpt>
      <trkpt lat="28.3932430" lon="-16.4596480">
        <ele>1371.9</ele>
        <time>2020-11-11T12:41:46Z</time>
      </trkpt>
      <trkpt lat="28.3932430" lon="-16.4596480">
        <ele>1371.9</ele>
        <time>2020-11-11T12:41:47Z</time>
      </trkpt>
      <trkpt lat="28.3932450" lon="-16.4596970">
        <ele>1371.9</ele>
        <time>2020-11-11T12:41:48Z</time>
      </trkpt>
      <trkpt lat="28.3932450" lon="-16.4596970">
        <ele>1371.9</ele>
        <time>2020-11-11T12:41:49Z</time>
      </trkpt>
      <trkpt lat="28.3932430" lon="-16.4597420">
        <ele>1371.9</ele>
        <time>2020-11-11T12:41:50Z</time>
      </trkpt>
      <trkpt lat="28.3932430" lon="-16.4597420">
        <ele>1371.9</ele>
        <time>2020-11-11T12:41:51Z</time>
      </trkpt>
      <trkpt lat="28.3932430" lon="-16.4598020">
        <ele>1371.9</ele>
        <time>2020-11-11T12:41:52Z</time>
      </trkpt>
      <trkpt lat="28.3932430" lon="-16.4598020">
        <ele>1371.9</ele>
        <time>2020-11-11T12:41:53Z</time>
      </trkpt>
      <trkpt lat="28.3932630" lon="-16.4598530">
        <ele>1371.9</ele>
        <time>2020-11-11T12:41:54Z</time>
      </trkpt>
      <trkpt lat="28.3932470" lon="-16.4598620">
        <ele>1372.9</ele>
        <time>2020-11-11T12:41:55Z</time>
      </trkpt>
      <trkpt lat="28.3932470" lon="-16.4598620">
        <ele>1372.9</ele>
        <time>2020-11-11T12:41:56Z</time>
      </trkpt>
      <trkpt lat="28.3932070" lon="-16.4599120">
        <ele>1372.9</ele>
        <time>2020-11-11T12:41:57Z</time>
      </trkpt>
      <trkpt lat="28.3932070" lon="-16.4599120">
        <ele>1372.9</ele>
        <time>2020-11-11T12:41:58Z</time>
      </trkpt>
      <trkpt lat="28.3931620" lon="-16.4599430">
        <ele>1373.9</ele>
        <time>2020-11-11T12:41:59Z</time>
      </trkpt>
      <trkpt lat="28.3931620" lon="-16.4599430">
        <ele>1373.9</ele>
        <time>2020-11-11T12:42:00Z</time>
      </trkpt>
      <trkpt lat="28.3931050" lon="-16.4599830">
        <ele>1373.9</ele>
        <time>2020-11-11T12:42:01Z</time>
      </trkpt>
      <trkpt lat="28.3931050" lon="-16.4599830">
        <ele>1373.9</ele>
        <time>2020-11-11T12:42:02Z</time>
      </trkpt>
      <trkpt lat="28.3930620" lon="-16.4599980">
        <ele>1374.9</ele>
        <time>2020-11-11T12:42:03Z</time>
      </trkpt>
      <trkpt lat="28.3930620" lon="-16.4599980">
        <ele>1374.9</ele>
        <time>2020-11-11T12:42:04Z</time>
      </trkpt>
      <trkpt lat="28.3930130" lon="-16.4600180">
        <ele>1374.9</ele>
        <time>2020-11-11T12:42:05Z</time>
      </trkpt>
      <trkpt lat="28.3929930" lon="-16.4600270">
        <ele>1374.9</ele>
        <time>2020-11-11T12:42:06Z</time>
      </trkpt>
      <trkpt lat="28.3929930" lon="-16.4600270">
        <ele>1374.9</ele>
        <time>2020-11-11T12:42:07Z</time>
      </trkpt>
      <trkpt lat="28.3929570" lon="-16.4600280">
        <ele>1374.9</ele>
        <time>2020-11-11T12:42:08Z</time>
      </trkpt>
      <trkpt lat="28.3929570" lon="-16.4600280">
        <ele>1375.9</ele>
        <time>2020-11-11T12:42:09Z</time>
      </trkpt>
      <trkpt lat="28.3929230" lon="-16.4600230">
        <ele>1375.9</ele>
        <time>2020-11-11T12:42:10Z</time>
      </trkpt>
      <trkpt lat="28.3929230" lon="-16.4600230">
        <ele>1375.9</ele>
        <time>2020-11-11T12:42:11Z</time>
      </trkpt>
      <trkpt lat="28.3928800" lon="-16.4600130">
        <ele>1375.9</ele>
        <time>2020-11-11T12:42:12Z</time>
      </trkpt>
      <trkpt lat="28.3928620" lon="-16.4600080">
        <ele>1375.9</ele>
        <time>2020-11-11T12:42:13Z</time>
      </trkpt>
      <trkpt lat="28.3928620" lon="-16.4600080">
        <ele>1375.9</ele>
        <time>2020-11-11T12:42:14Z</time>
      </trkpt>
      <trkpt lat="28.3928070" lon="-16.4599870">
        <ele>1376.9</ele>
        <time>2020-11-11T12:42:15Z</time>
      </trkpt>
      <trkpt lat="28.3928070" lon="-16.4599870">
        <ele>1376.9</ele>
        <time>2020-11-11T12:42:16Z</time>
      </trkpt>
      <trkpt lat="28.3927580" lon="-16.4599750">
        <ele>1376.9</ele>
        <time>2020-11-11T12:42:17Z</time>
      </trkpt>
      <trkpt lat="28.3927580" lon="-16.4599750">
        <ele>1376.9</ele>
        <time>2020-11-11T12:42:18Z</time>
      </trkpt>
      <trkpt lat="28.3927030" lon="-16.4599670">
        <ele>1377.9</ele>
        <time>2020-11-11T12:42:19Z</time>
      </trkpt>
      <trkpt lat="28.3927030" lon="-16.4599670">
        <ele>1377.9</ele>
        <time>2020-11-11T12:42:20Z</time>
      </trkpt>
      <trkpt lat="28.3926530" lon="-16.4599550">
        <ele>1377.9</ele>
        <time>2020-11-11T12:42:21Z</time>
      </trkpt>
      <trkpt lat="28.3926530" lon="-16.4599550">
        <ele>1377.9</ele>
        <time>2020-11-11T12:42:22Z</time>
      </trkpt>
      <trkpt lat="28.3926080" lon="-16.4599480">
        <ele>1377.9</ele>
        <time>2020-11-11T12:42:23Z</time>
      </trkpt>
      <trkpt lat="28.3926080" lon="-16.4599480">
        <ele>1377.9</ele>
        <time>2020-11-11T12:42:24Z</time>
      </trkpt>
      <trkpt lat="28.3925720" lon="-16.4599480">
        <ele>1377.9</ele>
        <time>2020-11-11T12:42:25Z</time>
      </trkpt>
      <trkpt lat="28.3925550" lon="-16.4599470">
        <ele>1377.9</ele>
        <time>2020-11-11T12:42:26Z</time>
      </trkpt>
      <trkpt lat="28.3925370" lon="-16.4599370">
        <ele>1377.9</ele>
        <time>2020-11-11T12:42:27Z</time>
      </trkpt>
      <trkpt lat="28.3925370" lon="-16.4599370">
        <ele>1377.9</ele>
        <time>2020-11-11T12:42:28Z</time>
      </trkpt>
      <trkpt lat="28.3925080" lon="-16.4599250">
        <ele>1377.9</ele>
        <time>2020-11-11T12:42:29Z</time>
      </trkpt>
      <trkpt lat="28.3925080" lon="-16.4599250">
        <ele>1377.9</ele>
        <time>2020-11-11T12:42:30Z</time>
      </trkpt>
      <trkpt lat="28.3924800" lon="-16.4599050">
        <ele>1377.9</ele>
        <time>2020-11-11T12:42:31Z</time>
      </trkpt>
      <trkpt lat="28.3924800" lon="-16.4599050">
        <ele>1377.9</ele>
        <time>2020-11-11T12:42:32Z</time>
      </trkpt>
      <trkpt lat="28.3924420" lon="-16.4598970">
        <ele>1377.9</ele>
        <time>2020-11-11T12:42:33Z</time>
      </trkpt>
      <trkpt lat="28.3924420" lon="-16.4598970">
        <ele>1378.9</ele>
        <time>2020-11-11T12:42:34Z</time>
      </trkpt>
      <trkpt lat="28.3924100" lon="-16.4598920">
        <ele>1378.9</ele>
        <time>2020-11-11T12:42:35Z</time>
      </trkpt>
      <trkpt lat="28.3924000" lon="-16.4598850">
        <ele>1378.9</ele>
        <time>2020-11-11T12:42:36Z</time>
      </trkpt>
      <trkpt lat="28.3924000" lon="-16.4598850">
        <ele>1378.9</ele>
        <time>2020-11-11T12:42:37Z</time>
      </trkpt>
      <trkpt lat="28.3923470" lon="-16.4598620">
        <ele>1378.9</ele>
        <time>2020-11-11T12:42:38Z</time>
      </trkpt>
      <trkpt lat="28.3923470" lon="-16.4598620">
        <ele>1378.9</ele>
        <time>2020-11-11T12:42:39Z</time>
      </trkpt>
      <trkpt lat="28.3922850" lon="-16.4598350">
        <ele>1379.9</ele>
        <time>2020-11-11T12:42:40Z</time>
      </trkpt>
      <trkpt lat="28.3922850" lon="-16.4598350">
        <ele>1379.9</ele>
        <time>2020-11-11T12:42:41Z</time>
      </trkpt>
      <trkpt lat="28.3922420" lon="-16.4598130">
        <ele>1379.9</ele>
        <time>2020-11-11T12:42:42Z</time>
      </trkpt>
      <trkpt lat="28.3922100" lon="-16.4598150">
        <ele>1379.9</ele>
        <time>2020-11-11T12:42:43Z</time>
      </trkpt>
      <trkpt lat="28.3922100" lon="-16.4598150">
        <ele>1379.9</ele>
        <time>2020-11-11T12:42:44Z</time>
      </trkpt>
      <trkpt lat="28.3921480" lon="-16.4598220">
        <ele>1379.9</ele>
        <time>2020-11-11T12:42:45Z</time>
      </trkpt>
      <trkpt lat="28.3921480" lon="-16.4598220">
        <ele>1381.9</ele>
        <time>2020-11-11T12:42:46Z</time>
      </trkpt>
      <trkpt lat="28.3920920" lon="-16.4598030">
        <ele>1381.9</ele>
        <time>2020-11-11T12:42:47Z</time>
      </trkpt>
      <trkpt lat="28.3920920" lon="-16.4598030">
        <ele>1381.9</ele>
        <time>2020-11-11T12:42:48Z</time>
      </trkpt>
      <trkpt lat="28.3920500" lon="-16.4597930">
        <ele>1381.9</ele>
        <time>2020-11-11T12:42:49Z</time>
      </trkpt>
      <trkpt lat="28.3920500" lon="-16.4597930">
        <ele>1381.9</ele>
        <time>2020-11-11T12:42:50Z</time>
      </trkpt>
      <trkpt lat="28.3920070" lon="-16.4597630">
        <ele>1381.9</ele>
        <time>2020-11-11T12:42:51Z</time>
      </trkpt>
      <trkpt lat="28.3920070" lon="-16.4597630">
        <ele>1382.9</ele>
        <time>2020-11-11T12:42:52Z</time>
      </trkpt>
      <trkpt lat="28.3919800" lon="-16.4597280">
        <ele>1382.9</ele>
        <time>2020-11-11T12:42:53Z</time>
      </trkpt>
      <trkpt lat="28.3919820" lon="-16.4597080">
        <ele>1382.9</ele>
        <time>2020-11-11T12:42:54Z</time>
      </trkpt>
      <trkpt lat="28.3919820" lon="-16.4597080">
        <ele>1382.9</ele>
        <time>2020-11-11T12:42:55Z</time>
      </trkpt>
      <trkpt lat="28.3919750" lon="-16.4596730">
        <ele>1382.9</ele>
        <time>2020-11-11T12:42:56Z</time>
      </trkpt>
      <trkpt lat="28.3919750" lon="-16.4596730">
        <ele>1382.9</ele>
        <time>2020-11-11T12:42:57Z</time>
      </trkpt>
      <trkpt lat="28.3919500" lon="-16.4596270">
        <ele>1382.9</ele>
        <time>2020-11-11T12:42:58Z</time>
      </trkpt>
      <trkpt lat="28.3919470" lon="-16.4596070">
        <ele>1382.9</ele>
        <time>2020-11-11T12:42:59Z</time>
      </trkpt>
      <trkpt lat="28.3919470" lon="-16.4596070">
        <ele>1384.9</ele>
        <time>2020-11-11T12:43:00Z</time>
      </trkpt>
      <trkpt lat="28.3919250" lon="-16.4595850">
        <ele>1384.9</ele>
        <time>2020-11-11T12:43:01Z</time>
      </trkpt>
      <trkpt lat="28.3919250" lon="-16.4595850">
        <ele>1384.9</ele>
        <time>2020-11-11T12:43:02Z</time>
      </trkpt>
      <trkpt lat="28.3918900" lon="-16.4595600">
        <ele>1384.9</ele>
        <time>2020-11-11T12:43:03Z</time>
      </trkpt>
      <trkpt lat="28.3918650" lon="-16.4595470">
        <ele>1384.9</ele>
        <time>2020-11-11T12:43:04Z</time>
      </trkpt>
      <trkpt lat="28.3918350" lon="-16.4595270">
        <ele>1384.9</ele>
        <time>2020-11-11T12:43:05Z</time>
      </trkpt>
      <trkpt lat="28.3918350" lon="-16.4595270">
        <ele>1384.9</ele>
        <time>2020-11-11T12:43:06Z</time>
      </trkpt>
      <trkpt lat="28.3917770" lon="-16.4595130">
        <ele>1384.9</ele>
        <time>2020-11-11T12:43:07Z</time>
      </trkpt>
      <trkpt lat="28.3917770" lon="-16.4595130">
        <ele>1384.9</ele>
        <time>2020-11-11T12:43:08Z</time>
      </trkpt>
      <trkpt lat="28.3917270" lon="-16.4594970">
        <ele>1386.9</ele>
        <time>2020-11-11T12:43:09Z</time>
      </trkpt>
      <trkpt lat="28.3917020" lon="-16.4594980">
        <ele>1386.9</ele>
        <time>2020-11-11T12:43:10Z</time>
      </trkpt>
      <trkpt lat="28.3916770" lon="-16.4594970">
        <ele>1386.9</ele>
        <time>2020-11-11T12:43:11Z</time>
      </trkpt>
      <trkpt lat="28.3916770" lon="-16.4594970">
        <ele>1386.9</ele>
        <time>2020-11-11T12:43:12Z</time>
      </trkpt>
      <trkpt lat="28.3916430" lon="-16.4594650">
        <ele>1386.9</ele>
        <time>2020-11-11T12:43:13Z</time>
      </trkpt>
      <trkpt lat="28.3916430" lon="-16.4594650">
        <ele>1386.9</ele>
        <time>2020-11-11T12:43:14Z</time>
      </trkpt>
      <trkpt lat="28.3916050" lon="-16.4594370">
        <ele>1386.9</ele>
        <time>2020-11-11T12:43:15Z</time>
      </trkpt>
      <trkpt lat="28.3916050" lon="-16.4594370">
        <ele>1386.9</ele>
        <time>2020-11-11T12:43:16Z</time>
      </trkpt>
      <trkpt lat="28.3915670" lon="-16.4594100">
        <ele>1387.9</ele>
        <time>2020-11-11T12:43:17Z</time>
      </trkpt>
      <trkpt lat="28.3915670" lon="-16.4594100">
        <ele>1387.9</ele>
        <time>2020-11-11T12:43:18Z</time>
      </trkpt>
      <trkpt lat="28.3915580" lon="-16.4594230">
        <ele>1387.9</ele>
        <time>2020-11-11T12:43:19Z</time>
      </trkpt>
      <trkpt lat="28.3915580" lon="-16.4594230">
        <ele>1387.9</ele>
        <time>2020-11-11T12:43:20Z</time>
      </trkpt>
      <trkpt lat="28.3915470" lon="-16.4594650">
        <ele>1387.9</ele>
        <time>2020-11-11T12:43:21Z</time>
      </trkpt>
      <trkpt lat="28.3915470" lon="-16.4594650">
        <ele>1387.9</ele>
        <time>2020-11-11T12:43:22Z</time>
      </trkpt>
      <trkpt lat="28.3915450" lon="-16.4595070">
        <ele>1387.9</ele>
        <time>2020-11-11T12:43:23Z</time>
      </trkpt>
      <trkpt lat="28.3915570" lon="-16.4595280">
        <ele>1387.9</ele>
        <time>2020-11-11T12:43:24Z</time>
      </trkpt>
      <trkpt lat="28.3915600" lon="-16.4595480">
        <ele>1387.9</ele>
        <time>2020-11-11T12:43:25Z</time>
      </trkpt>
      <trkpt lat="28.3915600" lon="-16.4595480">
        <ele>1387.9</ele>
        <time>2020-11-11T12:43:26Z</time>
      </trkpt>
      <trkpt lat="28.3915770" lon="-16.4595900">
        <ele>1387.9</ele>
        <time>2020-11-11T12:43:27Z</time>
      </trkpt>
      <trkpt lat="28.3915770" lon="-16.4595900">
        <ele>1387.9</ele>
        <time>2020-11-11T12:43:28Z</time>
      </trkpt>
      <trkpt lat="28.3915880" lon="-16.4596330">
        <ele>1387.9</ele>
        <time>2020-11-11T12:43:29Z</time>
      </trkpt>
      <trkpt lat="28.3915880" lon="-16.4596330">
        <ele>1387.9</ele>
        <time>2020-11-11T12:43:30Z</time>
      </trkpt>
      <trkpt lat="28.3915920" lon="-16.4596770">
        <ele>1388.9</ele>
        <time>2020-11-11T12:43:31Z</time>
      </trkpt>
      <trkpt lat="28.3915920" lon="-16.4596770">
        <ele>1388.9</ele>
        <time>2020-11-11T12:43:32Z</time>
      </trkpt>
      <trkpt lat="28.3916150" lon="-16.4597230">
        <ele>1388.9</ele>
        <time>2020-11-11T12:43:33Z</time>
      </trkpt>
      <trkpt lat="28.3916150" lon="-16.4597230">
        <ele>1388.9</ele>
        <time>2020-11-11T12:43:34Z</time>
      </trkpt>
      <trkpt lat="28.3916250" lon="-16.4597520">
        <ele>1388.9</ele>
        <time>2020-11-11T12:43:35Z</time>
      </trkpt>
      <trkpt lat="28.3916250" lon="-16.4597520">
        <ele>1388.9</ele>
        <time>2020-11-11T12:43:36Z</time>
      </trkpt>
      <trkpt lat="28.3916270" lon="-16.4597830">
        <ele>1389.9</ele>
        <time>2020-11-11T12:43:37Z</time>
      </trkpt>
      <trkpt lat="28.3916330" lon="-16.4598030">
        <ele>1389.9</ele>
        <time>2020-11-11T12:43:38Z</time>
      </trkpt>
      <trkpt lat="28.3916330" lon="-16.4598030">
        <ele>1389.9</ele>
        <time>2020-11-11T12:43:39Z</time>
      </trkpt>
      <trkpt lat="28.3916570" lon="-16.4598480">
        <ele>1389.9</ele>
        <time>2020-11-11T12:43:40Z</time>
      </trkpt>
      <trkpt lat="28.3916570" lon="-16.4598480">
        <ele>1389.9</ele>
        <time>2020-11-11T12:43:41Z</time>
      </trkpt>
      <trkpt lat="28.3916780" lon="-16.4598920">
        <ele>1389.9</ele>
        <time>2020-11-11T12:43:42Z</time>
      </trkpt>
      <trkpt lat="28.3916780" lon="-16.4598920">
        <ele>1389.9</ele>
        <time>2020-11-11T12:43:43Z</time>
      </trkpt>
      <trkpt lat="28.3916980" lon="-16.4599300">
        <ele>1389.9</ele>
        <time>2020-11-11T12:43:44Z</time>
      </trkpt>
      <trkpt lat="28.3916980" lon="-16.4599300">
        <ele>1389.9</ele>
        <time>2020-11-11T12:43:45Z</time>
      </trkpt>
      <trkpt lat="28.3917180" lon="-16.4599730">
        <ele>1390.9</ele>
        <time>2020-11-11T12:43:46Z</time>
      </trkpt>
      <trkpt lat="28.3917180" lon="-16.4599730">
        <ele>1390.9</ele>
        <time>2020-11-11T12:43:47Z</time>
      </trkpt>
      <trkpt lat="28.3917220" lon="-16.4600150">
        <ele>1390.9</ele>
        <time>2020-11-11T12:43:48Z</time>
      </trkpt>
      <trkpt lat="28.3917220" lon="-16.4600320">
        <ele>1390.9</ele>
        <time>2020-11-11T12:43:49Z</time>
      </trkpt>
      <trkpt lat="28.3917220" lon="-16.4600320">
        <ele>1390.9</ele>
        <time>2020-11-11T12:43:50Z</time>
      </trkpt>
      <trkpt lat="28.3917250" lon="-16.4600630">
        <ele>1390.9</ele>
        <time>2020-11-11T12:43:51Z</time>
      </trkpt>
      <trkpt lat="28.3917250" lon="-16.4600630">
        <ele>1390.9</ele>
        <time>2020-11-11T12:43:52Z</time>
      </trkpt>
      <trkpt lat="28.3917080" lon="-16.4601030">
        <ele>1390.9</ele>
        <time>2020-11-11T12:43:53Z</time>
      </trkpt>
      <trkpt lat="28.3917080" lon="-16.4601030">
        <ele>1391.9</ele>
        <time>2020-11-11T12:43:54Z</time>
      </trkpt>
      <trkpt lat="28.3917080" lon="-16.4601230">
        <ele>1391.9</ele>
        <time>2020-11-11T12:43:55Z</time>
      </trkpt>
      <trkpt lat="28.3917080" lon="-16.4601230">
        <ele>1391.9</ele>
        <time>2020-11-11T12:43:56Z</time>
      </trkpt>
      <trkpt lat="28.3917120" lon="-16.4601520">
        <ele>1391.9</ele>
        <time>2020-11-11T12:43:57Z</time>
      </trkpt>
      <trkpt lat="28.3917120" lon="-16.4601520">
        <ele>1392.9</ele>
        <time>2020-11-11T12:43:58Z</time>
      </trkpt>
      <trkpt lat="28.3917270" lon="-16.4601800">
        <ele>1392.9</ele>
        <time>2020-11-11T12:43:59Z</time>
      </trkpt>
      <trkpt lat="28.3917270" lon="-16.4601800">
        <ele>1392.9</ele>
        <time>2020-11-11T12:44:00Z</time>
      </trkpt>
      <trkpt lat="28.3917330" lon="-16.4602200">
        <ele>1392.9</ele>
        <time>2020-11-11T12:44:01Z</time>
      </trkpt>
      <trkpt lat="28.3917330" lon="-16.4602200">
        <ele>1393.9</ele>
        <time>2020-11-11T12:44:02Z</time>
      </trkpt>
      <trkpt lat="28.3917450" lon="-16.4602620">
        <ele>1393.9</ele>
        <time>2020-11-11T12:44:03Z</time>
      </trkpt>
      <trkpt lat="28.3917450" lon="-16.4602620">
        <ele>1393.9</ele>
        <time>2020-11-11T12:44:04Z</time>
      </trkpt>
      <trkpt lat="28.3917500" lon="-16.4603100">
        <ele>1393.9</ele>
        <time>2020-11-11T12:44:05Z</time>
      </trkpt>
      <trkpt lat="28.3917500" lon="-16.4603100">
        <ele>1394.9</ele>
        <time>2020-11-11T12:44:06Z</time>
      </trkpt>
      <trkpt lat="28.3917700" lon="-16.4603730">
        <ele>1394.9</ele>
        <time>2020-11-11T12:44:07Z</time>
      </trkpt>
      <trkpt lat="28.3917700" lon="-16.4603730">
        <ele>1394.9</ele>
        <time>2020-11-11T12:44:08Z</time>
      </trkpt>
      <trkpt lat="28.3917820" lon="-16.4604300">
        <ele>1394.9</ele>
        <time>2020-11-11T12:44:09Z</time>
      </trkpt>
      <trkpt lat="28.3917850" lon="-16.4604530">
        <ele>1394.9</ele>
        <time>2020-11-11T12:44:10Z</time>
      </trkpt>
      <trkpt lat="28.3917850" lon="-16.4604530">
        <ele>1394.9</ele>
        <time>2020-11-11T12:44:11Z</time>
      </trkpt>
      <trkpt lat="28.3917820" lon="-16.4604930">
        <ele>1394.9</ele>
        <time>2020-11-11T12:44:12Z</time>
      </trkpt>
      <trkpt lat="28.3917830" lon="-16.4605150">
        <ele>1394.9</ele>
        <time>2020-11-11T12:44:13Z</time>
      </trkpt>
      <trkpt lat="28.3917830" lon="-16.4605150">
        <ele>1395.9</ele>
        <time>2020-11-11T12:44:14Z</time>
      </trkpt>
      <trkpt lat="28.3917920" lon="-16.4605480">
        <ele>1395.9</ele>
        <time>2020-11-11T12:44:15Z</time>
      </trkpt>
      <trkpt lat="28.3917850" lon="-16.4605650">
        <ele>1395.9</ele>
        <time>2020-11-11T12:44:16Z</time>
      </trkpt>
      <trkpt lat="28.3917850" lon="-16.4605650">
        <ele>1395.9</ele>
        <time>2020-11-11T12:44:17Z</time>
      </trkpt>
      <trkpt lat="28.3917950" lon="-16.4606230">
        <ele>1395.9</ele>
        <time>2020-11-11T12:44:18Z</time>
      </trkpt>
      <trkpt lat="28.3917970" lon="-16.4606520">
        <ele>1396.9</ele>
        <time>2020-11-11T12:44:19Z</time>
      </trkpt>
      <trkpt lat="28.3917970" lon="-16.4606520">
        <ele>1396.9</ele>
        <time>2020-11-11T12:44:20Z</time>
      </trkpt>
      <trkpt lat="28.3917880" lon="-16.4606980">
        <ele>1396.9</ele>
        <time>2020-11-11T12:44:21Z</time>
      </trkpt>
      <trkpt lat="28.3917880" lon="-16.4606980">
        <ele>1396.9</ele>
        <time>2020-11-11T12:44:22Z</time>
      </trkpt>
      <trkpt lat="28.3917780" lon="-16.4607450">
        <ele>1397.9</ele>
        <time>2020-11-11T12:44:23Z</time>
      </trkpt>
      <trkpt lat="28.3917780" lon="-16.4607450">
        <ele>1397.9</ele>
        <time>2020-11-11T12:44:24Z</time>
      </trkpt>
      <trkpt lat="28.3917680" lon="-16.4607950">
        <ele>1397.9</ele>
        <time>2020-11-11T12:44:25Z</time>
      </trkpt>
      <trkpt lat="28.3917680" lon="-16.4607950">
        <ele>1397.9</ele>
        <time>2020-11-11T12:44:26Z</time>
      </trkpt>
      <trkpt lat="28.3917480" lon="-16.4608420">
        <ele>1397.9</ele>
        <time>2020-11-11T12:44:27Z</time>
      </trkpt>
      <trkpt lat="28.3917480" lon="-16.4608420">
        <ele>1397.9</ele>
        <time>2020-11-11T12:44:28Z</time>
      </trkpt>
      <trkpt lat="28.3917370" lon="-16.4608820">
        <ele>1397.9</ele>
        <time>2020-11-11T12:44:29Z</time>
      </trkpt>
      <trkpt lat="28.3917370" lon="-16.4608820">
        <ele>1397.9</ele>
        <time>2020-11-11T12:44:30Z</time>
      </trkpt>
      <trkpt lat="28.3917280" lon="-16.4609230">
        <ele>1398.9</ele>
        <time>2020-11-11T12:44:31Z</time>
      </trkpt>
      <trkpt lat="28.3917300" lon="-16.4609400">
        <ele>1398.9</ele>
        <time>2020-11-11T12:44:32Z</time>
      </trkpt>
      <trkpt lat="28.3917300" lon="-16.4609400">
        <ele>1398.9</ele>
        <time>2020-11-11T12:44:33Z</time>
      </trkpt>
      <trkpt lat="28.3917230" lon="-16.4609720">
        <ele>1398.9</ele>
        <time>2020-11-11T12:44:34Z</time>
      </trkpt>
      <trkpt lat="28.3917230" lon="-16.4609720">
        <ele>1398.9</ele>
        <time>2020-11-11T12:44:35Z</time>
      </trkpt>
      <trkpt lat="28.3917280" lon="-16.4610220">
        <ele>1398.9</ele>
        <time>2020-11-11T12:44:36Z</time>
      </trkpt>
      <trkpt lat="28.3917330" lon="-16.4610480">
        <ele>1398.9</ele>
        <time>2020-11-11T12:44:37Z</time>
      </trkpt>
      <trkpt lat="28.3917330" lon="-16.4610480">
        <ele>1398.9</ele>
        <time>2020-11-11T12:44:38Z</time>
      </trkpt>
      <trkpt lat="28.3917380" lon="-16.4610900">
        <ele>1399.9</ele>
        <time>2020-11-11T12:44:39Z</time>
      </trkpt>
      <trkpt lat="28.3917380" lon="-16.4610900">
        <ele>1399.9</ele>
        <time>2020-11-11T12:44:40Z</time>
      </trkpt>
      <trkpt lat="28.3917430" lon="-16.4611270">
        <ele>1399.9</ele>
        <time>2020-11-11T12:44:41Z</time>
      </trkpt>
      <trkpt lat="28.3917520" lon="-16.4611480">
        <ele>1399.9</ele>
        <time>2020-11-11T12:44:42Z</time>
      </trkpt>
      <trkpt lat="28.3917550" lon="-16.4611670">
        <ele>1399.9</ele>
        <time>2020-11-11T12:44:43Z</time>
      </trkpt>
      <trkpt lat="28.3917550" lon="-16.4611670">
        <ele>1399.9</ele>
        <time>2020-11-11T12:44:44Z</time>
      </trkpt>
      <trkpt lat="28.3917580" lon="-16.4612030">
        <ele>1399.9</ele>
        <time>2020-11-11T12:44:45Z</time>
      </trkpt>
      <trkpt lat="28.3917580" lon="-16.4612030">
        <ele>1399.9</ele>
        <time>2020-11-11T12:44:46Z</time>
      </trkpt>
      <trkpt lat="28.3917700" lon="-16.4612600">
        <ele>1399.9</ele>
        <time>2020-11-11T12:44:47Z</time>
      </trkpt>
      <trkpt lat="28.3917700" lon="-16.4612600">
        <ele>1399.9</ele>
        <time>2020-11-11T12:44:48Z</time>
      </trkpt>
      <trkpt lat="28.3917850" lon="-16.4613080">
        <ele>1399.9</ele>
        <time>2020-11-11T12:44:49Z</time>
      </trkpt>
      <trkpt lat="28.3917850" lon="-16.4613080">
        <ele>1399.9</ele>
        <time>2020-11-11T12:44:50Z</time>
      </trkpt>
      <trkpt lat="28.3917930" lon="-16.4613520">
        <ele>1400.9</ele>
        <time>2020-11-11T12:44:51Z</time>
      </trkpt>
      <trkpt lat="28.3917930" lon="-16.4613520">
        <ele>1400.9</ele>
        <time>2020-11-11T12:44:52Z</time>
      </trkpt>
      <trkpt lat="28.3918030" lon="-16.4613970">
        <ele>1400.9</ele>
        <time>2020-11-11T12:44:53Z</time>
      </trkpt>
      <trkpt lat="28.3918070" lon="-16.4614200">
        <ele>1400.9</ele>
        <time>2020-11-11T12:44:54Z</time>
      </trkpt>
      <trkpt lat="28.3918080" lon="-16.4614420">
        <ele>1400.9</ele>
        <time>2020-11-11T12:44:55Z</time>
      </trkpt>
      <trkpt lat="28.3918080" lon="-16.4614420">
        <ele>1400.9</ele>
        <time>2020-11-11T12:44:56Z</time>
      </trkpt>
      <trkpt lat="28.3918270" lon="-16.4614820">
        <ele>1400.9</ele>
        <time>2020-11-11T12:44:57Z</time>
      </trkpt>
      <trkpt lat="28.3918400" lon="-16.4615170">
        <ele>1400.9</ele>
        <time>2020-11-11T12:44:58Z</time>
      </trkpt>
      <trkpt lat="28.3918400" lon="-16.4615170">
        <ele>1401.9</ele>
        <time>2020-11-11T12:44:59Z</time>
      </trkpt>
      <trkpt lat="28.3918600" lon="-16.4615700">
        <ele>1401.9</ele>
        <time>2020-11-11T12:45:00Z</time>
      </trkpt>
      <trkpt lat="28.3918600" lon="-16.4615700">
        <ele>1401.9</ele>
        <time>2020-11-11T12:45:01Z</time>
      </trkpt>
      <trkpt lat="28.3918680" lon="-16.4616300">
        <ele>1401.9</ele>
        <time>2020-11-11T12:45:02Z</time>
      </trkpt>
      <trkpt lat="28.3918680" lon="-16.4616300">
        <ele>1401.9</ele>
        <time>2020-11-11T12:45:03Z</time>
      </trkpt>
      <trkpt lat="28.3918620" lon="-16.4616730">
        <ele>1401.9</ele>
        <time>2020-11-11T12:45:04Z</time>
      </trkpt>
      <trkpt lat="28.3918500" lon="-16.4616880">
        <ele>1401.9</ele>
        <time>2020-11-11T12:45:05Z</time>
      </trkpt>
      <trkpt lat="28.3918500" lon="-16.4616880">
        <ele>1401.9</ele>
        <time>2020-11-11T12:45:06Z</time>
      </trkpt>
      <trkpt lat="28.3918150" lon="-16.4617070">
        <ele>1402.9</ele>
        <time>2020-11-11T12:45:07Z</time>
      </trkpt>
      <trkpt lat="28.3918150" lon="-16.4617070">
        <ele>1402.9</ele>
        <time>2020-11-11T12:45:08Z</time>
      </trkpt>
      <trkpt lat="28.3917730" lon="-16.4617000">
        <ele>1402.9</ele>
        <time>2020-11-11T12:45:09Z</time>
      </trkpt>
      <trkpt lat="28.3917480" lon="-16.4616970">
        <ele>1402.9</ele>
        <time>2020-11-11T12:45:10Z</time>
      </trkpt>
      <trkpt lat="28.3917220" lon="-16.4616870">
        <ele>1402.9</ele>
        <time>2020-11-11T12:45:11Z</time>
      </trkpt>
      <trkpt lat="28.3917220" lon="-16.4616870">
        <ele>1402.9</ele>
        <time>2020-11-11T12:45:12Z</time>
      </trkpt>
      <trkpt lat="28.3916680" lon="-16.4616570">
        <ele>1402.9</ele>
        <time>2020-11-11T12:45:13Z</time>
      </trkpt>
      <trkpt lat="28.3916680" lon="-16.4616570">
        <ele>1402.9</ele>
        <time>2020-11-11T12:45:14Z</time>
      </trkpt>
      <trkpt lat="28.3916330" lon="-16.4616400">
        <ele>1402.9</ele>
        <time>2020-11-11T12:45:15Z</time>
      </trkpt>
      <trkpt lat="28.3916150" lon="-16.4616280">
        <ele>1402.9</ele>
        <time>2020-11-11T12:45:16Z</time>
      </trkpt>
      <trkpt lat="28.3916150" lon="-16.4616280">
        <ele>1402.9</ele>
        <time>2020-11-11T12:45:17Z</time>
      </trkpt>
      <trkpt lat="28.3915670" lon="-16.4616080">
        <ele>1402.9</ele>
        <time>2020-11-11T12:45:18Z</time>
      </trkpt>
      <trkpt lat="28.3915370" lon="-16.4615930">
        <ele>1402.9</ele>
        <time>2020-11-11T12:45:19Z</time>
      </trkpt>
      <trkpt lat="28.3915370" lon="-16.4615930">
        <ele>1402.9</ele>
        <time>2020-11-11T12:45:20Z</time>
      </trkpt>
      <trkpt lat="28.3914780" lon="-16.4615700">
        <ele>1402.9</ele>
        <time>2020-11-11T12:45:21Z</time>
      </trkpt>
      <trkpt lat="28.3914780" lon="-16.4615700">
        <ele>1402.9</ele>
        <time>2020-11-11T12:45:22Z</time>
      </trkpt>
      <trkpt lat="28.3914170" lon="-16.4615420">
        <ele>1402.9</ele>
        <time>2020-11-11T12:45:23Z</time>
      </trkpt>
      <trkpt lat="28.3913920" lon="-16.4615330">
        <ele>1402.9</ele>
        <time>2020-11-11T12:45:24Z</time>
      </trkpt>
      <trkpt lat="28.3913920" lon="-16.4615330">
        <ele>1402.9</ele>
        <time>2020-11-11T12:45:25Z</time>
      </trkpt>
      <trkpt lat="28.3913280" lon="-16.4615230">
        <ele>1402.9</ele>
        <time>2020-11-11T12:45:26Z</time>
      </trkpt>
      <trkpt lat="28.3913000" lon="-16.4615150">
        <ele>1402.9</ele>
        <time>2020-11-11T12:45:27Z</time>
      </trkpt>
      <trkpt lat="28.3913000" lon="-16.4615150">
        <ele>1402.9</ele>
        <time>2020-11-11T12:45:28Z</time>
      </trkpt>
      <trkpt lat="28.3912500" lon="-16.4614970">
        <ele>1402.9</ele>
        <time>2020-11-11T12:45:29Z</time>
      </trkpt>
      <trkpt lat="28.3912180" lon="-16.4614850">
        <ele>1402.9</ele>
        <time>2020-11-11T12:45:30Z</time>
      </trkpt>
      <trkpt lat="28.3911780" lon="-16.4614650">
        <ele>1402.9</ele>
        <time>2020-11-11T12:45:31Z</time>
      </trkpt>
      <trkpt lat="28.3911450" lon="-16.4614520">
        <ele>1402.9</ele>
        <time>2020-11-11T12:45:32Z</time>
      </trkpt>
      <trkpt lat="28.3911450" lon="-16.4614520">
        <ele>1402.9</ele>
        <time>2020-11-11T12:45:33Z</time>
      </trkpt>
      <trkpt lat="28.3910770" lon="-16.4614130">
        <ele>1402.9</ele>
        <time>2020-11-11T12:45:34Z</time>
      </trkpt>
      <trkpt lat="28.3910770" lon="-16.4614130">
        <ele>1402.9</ele>
        <time>2020-11-11T12:45:35Z</time>
      </trkpt>
      <trkpt lat="28.3910120" lon="-16.4613930">
        <ele>1402.9</ele>
        <time>2020-11-11T12:45:36Z</time>
      </trkpt>
      <trkpt lat="28.3909820" lon="-16.4613800">
        <ele>1402.9</ele>
        <time>2020-11-11T12:45:37Z</time>
      </trkpt>
      <trkpt lat="28.3909820" lon="-16.4613800">
        <ele>1402.9</ele>
        <time>2020-11-11T12:45:38Z</time>
      </trkpt>
      <trkpt lat="28.3909100" lon="-16.4613470">
        <ele>1402.9</ele>
        <time>2020-11-11T12:45:39Z</time>
      </trkpt>
      <trkpt lat="28.3909100" lon="-16.4613470">
        <ele>1402.9</ele>
        <time>2020-11-11T12:45:40Z</time>
      </trkpt>
      <trkpt lat="28.3908480" lon="-16.4613250">
        <ele>1402.9</ele>
        <time>2020-11-11T12:45:41Z</time>
      </trkpt>
      <trkpt lat="28.3908480" lon="-16.4613250">
        <ele>1402.9</ele>
        <time>2020-11-11T12:45:42Z</time>
      </trkpt>
      <trkpt lat="28.3907880" lon="-16.4613130">
        <ele>1402.9</ele>
        <time>2020-11-11T12:45:43Z</time>
      </trkpt>
      <trkpt lat="28.3907880" lon="-16.4613130">
        <ele>1402.9</ele>
        <time>2020-11-11T12:45:44Z</time>
      </trkpt>
      <trkpt lat="28.3907170" lon="-16.4612880">
        <ele>1402.9</ele>
        <time>2020-11-11T12:45:45Z</time>
      </trkpt>
      <trkpt lat="28.3907170" lon="-16.4612880">
        <ele>1402.9</ele>
        <time>2020-11-11T12:45:46Z</time>
      </trkpt>
      <trkpt lat="28.3906620" lon="-16.4612420">
        <ele>1402.9</ele>
        <time>2020-11-11T12:45:47Z</time>
      </trkpt>
      <trkpt lat="28.3906380" lon="-16.4612180">
        <ele>1402.9</ele>
        <time>2020-11-11T12:45:48Z</time>
      </trkpt>
      <trkpt lat="28.3906380" lon="-16.4612180">
        <ele>1402.9</ele>
        <time>2020-11-11T12:45:49Z</time>
      </trkpt>
      <trkpt lat="28.3905980" lon="-16.4611700">
        <ele>1402.9</ele>
        <time>2020-11-11T12:45:50Z</time>
      </trkpt>
      <trkpt lat="28.3905980" lon="-16.4611700">
        <ele>1402.9</ele>
        <time>2020-11-11T12:45:51Z</time>
      </trkpt>
      <trkpt lat="28.3905680" lon="-16.4611180">
        <ele>1402.9</ele>
        <time>2020-11-11T12:45:52Z</time>
      </trkpt>
      <trkpt lat="28.3905680" lon="-16.4611180">
        <ele>1402.9</ele>
        <time>2020-11-11T12:45:53Z</time>
      </trkpt>
      <trkpt lat="28.3905220" lon="-16.4610580">
        <ele>1402.9</ele>
        <time>2020-11-11T12:45:54Z</time>
      </trkpt>
      <trkpt lat="28.3904750" lon="-16.4610180">
        <ele>1402.9</ele>
        <time>2020-11-11T12:45:55Z</time>
      </trkpt>
      <trkpt lat="28.3904750" lon="-16.4610180">
        <ele>1402.9</ele>
        <time>2020-11-11T12:45:56Z</time>
      </trkpt>
      <trkpt lat="28.3903850" lon="-16.4609670">
        <ele>1402.9</ele>
        <time>2020-11-11T12:45:57Z</time>
      </trkpt>
      <trkpt lat="28.3903850" lon="-16.4609670">
        <ele>1401.9</ele>
        <time>2020-11-11T12:45:58Z</time>
      </trkpt>
      <trkpt lat="28.3902920" lon="-16.4609080">
        <ele>1401.9</ele>
        <time>2020-11-11T12:45:59Z</time>
      </trkpt>
      <trkpt lat="28.3902920" lon="-16.4609080">
        <ele>1401.9</ele>
        <time>2020-11-11T12:46:00Z</time>
      </trkpt>
      <trkpt lat="28.3902130" lon="-16.4608850">
        <ele>1401.9</ele>
        <time>2020-11-11T12:46:01Z</time>
      </trkpt>
      <trkpt lat="28.3902130" lon="-16.4608850">
        <ele>1401.9</ele>
        <time>2020-11-11T12:46:02Z</time>
      </trkpt>
      <trkpt lat="28.3901380" lon="-16.4608770">
        <ele>1400.9</ele>
        <time>2020-11-11T12:46:03Z</time>
      </trkpt>
      <trkpt lat="28.3901380" lon="-16.4608770">
        <ele>1400.9</ele>
        <time>2020-11-11T12:46:04Z</time>
      </trkpt>
      <trkpt lat="28.3900650" lon="-16.4608780">
        <ele>1399.9</ele>
        <time>2020-11-11T12:46:05Z</time>
      </trkpt>
      <trkpt lat="28.3900650" lon="-16.4608780">
        <ele>1399.9</ele>
        <time>2020-11-11T12:46:06Z</time>
      </trkpt>
      <trkpt lat="28.3900220" lon="-16.4608480">
        <ele>1399.9</ele>
        <time>2020-11-11T12:46:07Z</time>
      </trkpt>
      <trkpt lat="28.3900220" lon="-16.4608480">
        <ele>1399.9</ele>
        <time>2020-11-11T12:46:08Z</time>
      </trkpt>
      <trkpt lat="28.3899250" lon="-16.4608000">
        <ele>1399.9</ele>
        <time>2020-11-11T12:46:09Z</time>
      </trkpt>
      <trkpt lat="28.3899250" lon="-16.4608000">
        <ele>1399.9</ele>
        <time>2020-11-11T12:46:10Z</time>
      </trkpt>
      <trkpt lat="28.3898450" lon="-16.4608400">
        <ele>1397.9</ele>
        <time>2020-11-11T12:46:11Z</time>
      </trkpt>
      <trkpt lat="28.3898450" lon="-16.4608400">
        <ele>1397.9</ele>
        <time>2020-11-11T12:46:12Z</time>
      </trkpt>
      <trkpt lat="28.3898230" lon="-16.4608880">
        <ele>1397.9</ele>
        <time>2020-11-11T12:46:13Z</time>
      </trkpt>
      <trkpt lat="28.3898230" lon="-16.4608880">
        <ele>1397.9</ele>
        <time>2020-11-11T12:46:14Z</time>
      </trkpt>
      <trkpt lat="28.3898120" lon="-16.4609570">
        <ele>1397.9</ele>
        <time>2020-11-11T12:46:15Z</time>
      </trkpt>
      <trkpt lat="28.3898120" lon="-16.4609570">
        <ele>1397.9</ele>
        <time>2020-11-11T12:46:16Z</time>
      </trkpt>
      <trkpt lat="28.3897980" lon="-16.4610220">
        <ele>1397.9</ele>
        <time>2020-11-11T12:46:17Z</time>
      </trkpt>
      <trkpt lat="28.3898000" lon="-16.4610470">
        <ele>1397.9</ele>
        <time>2020-11-11T12:46:18Z</time>
      </trkpt>
      <trkpt lat="28.3898000" lon="-16.4610470">
        <ele>1397.9</ele>
        <time>2020-11-11T12:46:19Z</time>
      </trkpt>
      <trkpt lat="28.3897820" lon="-16.4611180">
        <ele>1397.9</ele>
        <time>2020-11-11T12:46:20Z</time>
      </trkpt>
      <trkpt lat="28.3897650" lon="-16.4611530">
        <ele>1397.9</ele>
        <time>2020-11-11T12:46:21Z</time>
      </trkpt>
      <trkpt lat="28.3897650" lon="-16.4611530">
        <ele>1397.9</ele>
        <time>2020-11-11T12:46:22Z</time>
      </trkpt>
      <trkpt lat="28.3897330" lon="-16.4612070">
        <ele>1397.9</ele>
        <time>2020-11-11T12:46:23Z</time>
      </trkpt>
      <trkpt lat="28.3897330" lon="-16.4612070">
        <ele>1397.9</ele>
        <time>2020-11-11T12:46:24Z</time>
      </trkpt>
      <trkpt lat="28.3897100" lon="-16.4612580">
        <ele>1397.9</ele>
        <time>2020-11-11T12:46:25Z</time>
      </trkpt>
      <trkpt lat="28.3897100" lon="-16.4612580">
        <ele>1397.9</ele>
        <time>2020-11-11T12:46:26Z</time>
      </trkpt>
      <trkpt lat="28.3896930" lon="-16.4613000">
        <ele>1397.9</ele>
        <time>2020-11-11T12:46:27Z</time>
      </trkpt>
      <trkpt lat="28.3896930" lon="-16.4613000">
        <ele>1397.9</ele>
        <time>2020-11-11T12:46:28Z</time>
      </trkpt>
      <trkpt lat="28.3896730" lon="-16.4613400">
        <ele>1399.9</ele>
        <time>2020-11-11T12:46:29Z</time>
      </trkpt>
      <trkpt lat="28.3896730" lon="-16.4613400">
        <ele>1399.9</ele>
        <time>2020-11-11T12:46:30Z</time>
      </trkpt>
      <trkpt lat="28.3896600" lon="-16.4613680">
        <ele>1399.9</ele>
        <time>2020-11-11T12:46:31Z</time>
      </trkpt>
      <trkpt lat="28.3896600" lon="-16.4613680">
        <ele>1399.9</ele>
        <time>2020-11-11T12:46:32Z</time>
      </trkpt>
      <trkpt lat="28.3896380" lon="-16.4614000">
        <ele>1399.9</ele>
        <time>2020-11-11T12:46:33Z</time>
      </trkpt>
      <trkpt lat="28.3896380" lon="-16.4614000">
        <ele>1399.9</ele>
        <time>2020-11-11T12:46:34Z</time>
      </trkpt>
      <trkpt lat="28.3896130" lon="-16.4614130">
        <ele>1400.9</ele>
        <time>2020-11-11T12:46:35Z</time>
      </trkpt>
      <trkpt lat="28.3896130" lon="-16.4614130">
        <ele>1400.9</ele>
        <time>2020-11-11T12:46:36Z</time>
      </trkpt>
      <trkpt lat="28.3896000" lon="-16.4614170">
        <ele>1400.9</ele>
        <time>2020-11-11T12:46:37Z</time>
      </trkpt>
      <trkpt lat="28.3896000" lon="-16.4614170">
        <ele>1400.9</ele>
        <time>2020-11-11T12:46:38Z</time>
      </trkpt>
      <trkpt lat="28.3895900" lon="-16.4614400">
        <ele>1400.9</ele>
        <time>2020-11-11T12:46:39Z</time>
      </trkpt>
      <trkpt lat="28.3895900" lon="-16.4614400">
        <ele>1400.9</ele>
        <time>2020-11-11T12:46:40Z</time>
      </trkpt>
      <trkpt lat="28.3895700" lon="-16.4614750">
        <ele>1400.9</ele>
        <time>2020-11-11T12:46:41Z</time>
      </trkpt>
      <trkpt lat="28.3895700" lon="-16.4614750">
        <ele>1400.9</ele>
        <time>2020-11-11T12:46:42Z</time>
      </trkpt>
      <trkpt lat="28.3895430" lon="-16.4615420">
        <ele>1401.9</ele>
        <time>2020-11-11T12:46:43Z</time>
      </trkpt>
      <trkpt lat="28.3895430" lon="-16.4615420">
        <ele>1401.9</ele>
        <time>2020-11-11T12:46:44Z</time>
      </trkpt>
      <trkpt lat="28.3895420" lon="-16.4616100">
        <ele>1401.9</ele>
        <time>2020-11-11T12:46:45Z</time>
      </trkpt>
      <trkpt lat="28.3895420" lon="-16.4616100">
        <ele>1401.9</ele>
        <time>2020-11-11T12:46:46Z</time>
      </trkpt>
      <trkpt lat="28.3895480" lon="-16.4616570">
        <ele>1401.9</ele>
        <time>2020-11-11T12:46:47Z</time>
      </trkpt>
      <trkpt lat="28.3895480" lon="-16.4616570">
        <ele>1401.9</ele>
        <time>2020-11-11T12:46:48Z</time>
      </trkpt>
      <trkpt lat="28.3895620" lon="-16.4617070">
        <ele>1401.9</ele>
        <time>2020-11-11T12:46:49Z</time>
      </trkpt>
      <trkpt lat="28.3895620" lon="-16.4617070">
        <ele>1401.9</ele>
        <time>2020-11-11T12:46:50Z</time>
      </trkpt>
      <trkpt lat="28.3895700" lon="-16.4617570">
        <ele>1401.9</ele>
        <time>2020-11-11T12:46:51Z</time>
      </trkpt>
      <trkpt lat="28.3895730" lon="-16.4617820">
        <ele>1401.9</ele>
        <time>2020-11-11T12:46:52Z</time>
      </trkpt>
      <trkpt lat="28.3895730" lon="-16.4617820">
        <ele>1401.9</ele>
        <time>2020-11-11T12:46:53Z</time>
      </trkpt>
      <trkpt lat="28.3895850" lon="-16.4618330">
        <ele>1402.9</ele>
        <time>2020-11-11T12:46:54Z</time>
      </trkpt>
      <trkpt lat="28.3895920" lon="-16.4618600">
        <ele>1402.9</ele>
        <time>2020-11-11T12:46:55Z</time>
      </trkpt>
      <trkpt lat="28.3895920" lon="-16.4618600">
        <ele>1402.9</ele>
        <time>2020-11-11T12:46:56Z</time>
      </trkpt>
      <trkpt lat="28.3896000" lon="-16.4619120">
        <ele>1402.9</ele>
        <time>2020-11-11T12:46:57Z</time>
      </trkpt>
      <trkpt lat="28.3896070" lon="-16.4619370">
        <ele>1402.9</ele>
        <time>2020-11-11T12:46:58Z</time>
      </trkpt>
      <trkpt lat="28.3896070" lon="-16.4619370">
        <ele>1402.9</ele>
        <time>2020-11-11T12:46:59Z</time>
      </trkpt>
      <trkpt lat="28.3895980" lon="-16.4620170">
        <ele>1402.9</ele>
        <time>2020-11-11T12:47:00Z</time>
      </trkpt>
      <trkpt lat="28.3895980" lon="-16.4620170">
        <ele>1402.9</ele>
        <time>2020-11-11T12:47:01Z</time>
      </trkpt>
      <trkpt lat="28.3896150" lon="-16.4620650">
        <ele>1402.9</ele>
        <time>2020-11-11T12:47:02Z</time>
      </trkpt>
      <trkpt lat="28.3896300" lon="-16.4620920">
        <ele>1402.9</ele>
        <time>2020-11-11T12:47:03Z</time>
      </trkpt>
      <trkpt lat="28.3896300" lon="-16.4620920">
        <ele>1403.9</ele>
        <time>2020-11-11T12:47:04Z</time>
      </trkpt>
      <trkpt lat="28.3896450" lon="-16.4621430">
        <ele>1403.9</ele>
        <time>2020-11-11T12:47:05Z</time>
      </trkpt>
      <trkpt lat="28.3896450" lon="-16.4621430">
        <ele>1403.9</ele>
        <time>2020-11-11T12:47:06Z</time>
      </trkpt>
      <trkpt lat="28.3896480" lon="-16.4621870">
        <ele>1403.9</ele>
        <time>2020-11-11T12:47:07Z</time>
      </trkpt>
      <trkpt lat="28.3896680" lon="-16.4622100">
        <ele>1403.9</ele>
        <time>2020-11-11T12:47:08Z</time>
      </trkpt>
      <trkpt lat="28.3896680" lon="-16.4622100">
        <ele>1403.9</ele>
        <time>2020-11-11T12:47:09Z</time>
      </trkpt>
      <trkpt lat="28.3896830" lon="-16.4622450">
        <ele>1403.9</ele>
        <time>2020-11-11T12:47:10Z</time>
      </trkpt>
      <trkpt lat="28.3896870" lon="-16.4622670">
        <ele>1403.9</ele>
        <time>2020-11-11T12:47:11Z</time>
      </trkpt>
      <trkpt lat="28.3896870" lon="-16.4622670">
        <ele>1404.9</ele>
        <time>2020-11-11T12:47:12Z</time>
      </trkpt>
      <trkpt lat="28.3896950" lon="-16.4623070">
        <ele>1404.9</ele>
        <time>2020-11-11T12:47:13Z</time>
      </trkpt>
      <trkpt lat="28.3896950" lon="-16.4623070">
        <ele>1404.9</ele>
        <time>2020-11-11T12:47:14Z</time>
      </trkpt>
      <trkpt lat="28.3897030" lon="-16.4623380">
        <ele>1404.9</ele>
        <time>2020-11-11T12:47:15Z</time>
      </trkpt>
      <trkpt lat="28.3897030" lon="-16.4623380">
        <ele>1404.9</ele>
        <time>2020-11-11T12:47:16Z</time>
      </trkpt>
      <trkpt lat="28.3897070" lon="-16.4623820">
        <ele>1404.9</ele>
        <time>2020-11-11T12:47:17Z</time>
      </trkpt>
      <trkpt lat="28.3897070" lon="-16.4623820">
        <ele>1404.9</ele>
        <time>2020-11-11T12:47:18Z</time>
      </trkpt>
      <trkpt lat="28.3897130" lon="-16.4624300">
        <ele>1404.9</ele>
        <time>2020-11-11T12:47:19Z</time>
      </trkpt>
      <trkpt lat="28.3897130" lon="-16.4624300">
        <ele>1404.9</ele>
        <time>2020-11-11T12:47:20Z</time>
      </trkpt>
      <trkpt lat="28.3897170" lon="-16.4624820">
        <ele>1404.9</ele>
        <time>2020-11-11T12:47:21Z</time>
      </trkpt>
      <trkpt lat="28.3897170" lon="-16.4624820">
        <ele>1404.9</ele>
        <time>2020-11-11T12:47:22Z</time>
      </trkpt>
      <trkpt lat="28.3897220" lon="-16.4625380">
        <ele>1405.9</ele>
        <time>2020-11-11T12:47:23Z</time>
      </trkpt>
      <trkpt lat="28.3897220" lon="-16.4625380">
        <ele>1405.9</ele>
        <time>2020-11-11T12:47:24Z</time>
      </trkpt>
      <trkpt lat="28.3897200" lon="-16.4625880">
        <ele>1405.9</ele>
        <time>2020-11-11T12:47:25Z</time>
      </trkpt>
      <trkpt lat="28.3897200" lon="-16.4625880">
        <ele>1405.9</ele>
        <time>2020-11-11T12:47:26Z</time>
      </trkpt>
      <trkpt lat="28.3897100" lon="-16.4626380">
        <ele>1406.9</ele>
        <time>2020-11-11T12:47:27Z</time>
      </trkpt>
      <trkpt lat="28.3897100" lon="-16.4626380">
        <ele>1406.9</ele>
        <time>2020-11-11T12:47:28Z</time>
      </trkpt>
      <trkpt lat="28.3896880" lon="-16.4626770">
        <ele>1406.9</ele>
        <time>2020-11-11T12:47:29Z</time>
      </trkpt>
      <trkpt lat="28.3896750" lon="-16.4626930">
        <ele>1406.9</ele>
        <time>2020-11-11T12:47:30Z</time>
      </trkpt>
      <trkpt lat="28.3896750" lon="-16.4626930">
        <ele>1407.9</ele>
        <time>2020-11-11T12:47:31Z</time>
      </trkpt>
      <trkpt lat="28.3896450" lon="-16.4627300">
        <ele>1407.9</ele>
        <time>2020-11-11T12:47:32Z</time>
      </trkpt>
      <trkpt lat="28.3896420" lon="-16.4627370">
        <ele>1407.9</ele>
        <time>2020-11-11T12:47:33Z</time>
      </trkpt>
      <trkpt lat="28.3896350" lon="-16.4627430">
        <ele>1407.9</ele>
        <time>2020-11-11T12:47:34Z</time>
      </trkpt>
      <trkpt lat="28.3896350" lon="-16.4627430">
        <ele>1408.9</ele>
        <time>2020-11-11T12:47:35Z</time>
      </trkpt>
      <trkpt lat="28.3896150" lon="-16.4627400">
        <ele>1408.9</ele>
        <time>2020-11-11T12:47:36Z</time>
      </trkpt>
      <trkpt lat="28.3896070" lon="-16.4627450">
        <ele>1408.9</ele>
        <time>2020-11-11T12:47:37Z</time>
      </trkpt>
      <trkpt lat="28.3895920" lon="-16.4627520">
        <ele>1408.9</ele>
        <time>2020-11-11T12:47:38Z</time>
      </trkpt>
      <trkpt lat="28.3895920" lon="-16.4627520">
        <ele>1408.9</ele>
        <time>2020-11-11T12:47:39Z</time>
      </trkpt>
      <trkpt lat="28.3895620" lon="-16.4627630">
        <ele>1408.9</ele>
        <time>2020-11-11T12:47:40Z</time>
      </trkpt>
      <trkpt lat="28.3895620" lon="-16.4627630">
        <ele>1408.9</ele>
        <time>2020-11-11T12:47:41Z</time>
      </trkpt>
      <trkpt lat="28.3895320" lon="-16.4627820">
        <ele>1408.9</ele>
        <time>2020-11-11T12:47:42Z</time>
      </trkpt>
      <trkpt lat="28.3895320" lon="-16.4627820">
        <ele>1409.9</ele>
        <time>2020-11-11T12:47:43Z</time>
      </trkpt>
      <trkpt lat="28.3895070" lon="-16.4628000">
        <ele>1409.9</ele>
        <time>2020-11-11T12:47:44Z</time>
      </trkpt>
      <trkpt lat="28.3895070" lon="-16.4628000">
        <ele>1409.9</ele>
        <time>2020-11-11T12:47:45Z</time>
      </trkpt>
      <trkpt lat="28.3894780" lon="-16.4628050">
        <ele>1409.9</ele>
        <time>2020-11-11T12:47:46Z</time>
      </trkpt>
      <trkpt lat="28.3894780" lon="-16.4628050">
        <ele>1410.9</ele>
        <time>2020-11-11T12:47:47Z</time>
      </trkpt>
      <trkpt lat="28.3894550" lon="-16.4628130">
        <ele>1410.9</ele>
        <time>2020-11-11T12:47:48Z</time>
      </trkpt>
      <trkpt lat="28.3894400" lon="-16.4628220">
        <ele>1410.9</ele>
        <time>2020-11-11T12:47:49Z</time>
      </trkpt>
      <trkpt lat="28.3894400" lon="-16.4628220">
        <ele>1410.9</ele>
        <time>2020-11-11T12:47:50Z</time>
      </trkpt>
      <trkpt lat="28.3894070" lon="-16.4628320">
        <ele>1410.9</ele>
        <time>2020-11-11T12:47:51Z</time>
      </trkpt>
      <trkpt lat="28.3894070" lon="-16.4628320">
        <ele>1410.9</ele>
        <time>2020-11-11T12:47:52Z</time>
      </trkpt>
      <trkpt lat="28.3893680" lon="-16.4628470">
        <ele>1411.9</ele>
        <time>2020-11-11T12:47:53Z</time>
      </trkpt>
      <trkpt lat="28.3893680" lon="-16.4628470">
        <ele>1411.9</ele>
        <time>2020-11-11T12:47:54Z</time>
      </trkpt>
      <trkpt lat="28.3893420" lon="-16.4628570">
        <ele>1411.9</ele>
        <time>2020-11-11T12:47:55Z</time>
      </trkpt>
      <trkpt lat="28.3893420" lon="-16.4628570">
        <ele>1411.9</ele>
        <time>2020-11-11T12:47:56Z</time>
      </trkpt>
      <trkpt lat="28.3893120" lon="-16.4628650">
        <ele>1411.9</ele>
        <time>2020-11-11T12:47:57Z</time>
      </trkpt>
      <trkpt lat="28.3893120" lon="-16.4628650">
        <ele>1411.9</ele>
        <time>2020-11-11T12:47:58Z</time>
      </trkpt>
      <trkpt lat="28.3892900" lon="-16.4628770">
        <ele>1412.9</ele>
        <time>2020-11-11T12:47:59Z</time>
      </trkpt>
      <trkpt lat="28.3892900" lon="-16.4628770">
        <ele>1412.9</ele>
        <time>2020-11-11T12:48:00Z</time>
      </trkpt>
      <trkpt lat="28.3892550" lon="-16.4628800">
        <ele>1412.9</ele>
        <time>2020-11-11T12:48:01Z</time>
      </trkpt>
      <trkpt lat="28.3892280" lon="-16.4628850">
        <ele>1412.9</ele>
        <time>2020-11-11T12:48:02Z</time>
      </trkpt>
      <trkpt lat="28.3892280" lon="-16.4628850">
        <ele>1412.9</ele>
        <time>2020-11-11T12:48:03Z</time>
      </trkpt>
      <trkpt lat="28.3891820" lon="-16.4628920">
        <ele>1413.9</ele>
        <time>2020-11-11T12:48:04Z</time>
      </trkpt>
      <trkpt lat="28.3891820" lon="-16.4628920">
        <ele>1413.9</ele>
        <time>2020-11-11T12:48:05Z</time>
      </trkpt>
      <trkpt lat="28.3891380" lon="-16.4629050">
        <ele>1413.9</ele>
        <time>2020-11-11T12:48:06Z</time>
      </trkpt>
      <trkpt lat="28.3891180" lon="-16.4629080">
        <ele>1413.9</ele>
        <time>2020-11-11T12:48:07Z</time>
      </trkpt>
      <trkpt lat="28.3891180" lon="-16.4629080">
        <ele>1413.9</ele>
        <time>2020-11-11T12:48:08Z</time>
      </trkpt>
      <trkpt lat="28.3891000" lon="-16.4629170">
        <ele>1413.9</ele>
        <time>2020-11-11T12:48:09Z</time>
      </trkpt>
      <trkpt lat="28.3891000" lon="-16.4629170">
        <ele>1413.9</ele>
        <time>2020-11-11T12:48:10Z</time>
      </trkpt>
      <trkpt lat="28.3890800" lon="-16.4629250">
        <ele>1413.9</ele>
        <time>2020-11-11T12:48:11Z</time>
      </trkpt>
      <trkpt lat="28.3890800" lon="-16.4629250">
        <ele>1413.9</ele>
        <time>2020-11-11T12:48:12Z</time>
      </trkpt>
      <trkpt lat="28.3890580" lon="-16.4629330">
        <ele>1414.9</ele>
        <time>2020-11-11T12:48:13Z</time>
      </trkpt>
      <trkpt lat="28.3890580" lon="-16.4629330">
        <ele>1414.9</ele>
        <time>2020-11-11T12:48:14Z</time>
      </trkpt>
      <trkpt lat="28.3890420" lon="-16.4629430">
        <ele>1414.9</ele>
        <time>2020-11-11T12:48:15Z</time>
      </trkpt>
      <trkpt lat="28.3890420" lon="-16.4629430">
        <ele>1414.9</ele>
        <time>2020-11-11T12:48:16Z</time>
      </trkpt>
      <trkpt lat="28.3890200" lon="-16.4629550">
        <ele>1415.9</ele>
        <time>2020-11-11T12:48:17Z</time>
      </trkpt>
      <trkpt lat="28.3890000" lon="-16.4629600">
        <ele>1415.9</ele>
        <time>2020-11-11T12:48:18Z</time>
      </trkpt>
      <trkpt lat="28.3889830" lon="-16.4629650">
        <ele>1415.9</ele>
        <time>2020-11-11T12:48:19Z</time>
      </trkpt>
      <trkpt lat="28.3889830" lon="-16.4629650">
        <ele>1415.9</ele>
        <time>2020-11-11T12:48:20Z</time>
      </trkpt>
      <trkpt lat="28.3889470" lon="-16.4629720">
        <ele>1415.9</ele>
        <time>2020-11-11T12:48:21Z</time>
      </trkpt>
      <trkpt lat="28.3889470" lon="-16.4629720">
        <ele>1415.9</ele>
        <time>2020-11-11T12:48:22Z</time>
      </trkpt>
      <trkpt lat="28.3889050" lon="-16.4629880">
        <ele>1416.9</ele>
        <time>2020-11-11T12:48:23Z</time>
      </trkpt>
      <trkpt lat="28.3888900" lon="-16.4630000">
        <ele>1416.9</ele>
        <time>2020-11-11T12:48:24Z</time>
      </trkpt>
      <trkpt lat="28.3888850" lon="-16.4630080">
        <ele>1416.9</ele>
        <time>2020-11-11T12:48:25Z</time>
      </trkpt>
      <trkpt lat="28.3888850" lon="-16.4630080">
        <ele>1416.9</ele>
        <time>2020-11-11T12:48:26Z</time>
      </trkpt>
      <trkpt lat="28.3888870" lon="-16.4630350">
        <ele>1416.9</ele>
        <time>2020-11-11T12:48:27Z</time>
      </trkpt>
      <trkpt lat="28.3888870" lon="-16.4630350">
        <ele>1416.9</ele>
        <time>2020-11-11T12:48:28Z</time>
      </trkpt>
      <trkpt lat="28.3888870" lon="-16.4630800">
        <ele>1416.9</ele>
        <time>2020-11-11T12:48:29Z</time>
      </trkpt>
      <trkpt lat="28.3888670" lon="-16.4631070">
        <ele>1416.9</ele>
        <time>2020-11-11T12:48:30Z</time>
      </trkpt>
      <trkpt lat="28.3888630" lon="-16.4631270">
        <ele>1416.9</ele>
        <time>2020-11-11T12:48:31Z</time>
      </trkpt>
      <trkpt lat="28.3888630" lon="-16.4631270">
        <ele>1416.9</ele>
        <time>2020-11-11T12:48:32Z</time>
      </trkpt>
      <trkpt lat="28.3888680" lon="-16.4631630">
        <ele>1417.9</ele>
        <time>2020-11-11T12:48:33Z</time>
      </trkpt>
      <trkpt lat="28.3888720" lon="-16.4631770">
        <ele>1417.9</ele>
        <time>2020-11-11T12:48:34Z</time>
      </trkpt>
      <trkpt lat="28.3888770" lon="-16.4631900">
        <ele>1417.9</ele>
        <time>2020-11-11T12:48:35Z</time>
      </trkpt>
      <trkpt lat="28.3888770" lon="-16.4631900">
        <ele>1417.9</ele>
        <time>2020-11-11T12:48:36Z</time>
      </trkpt>
      <trkpt lat="28.3888750" lon="-16.4632170">
        <ele>1417.9</ele>
        <time>2020-11-11T12:48:37Z</time>
      </trkpt>
      <trkpt lat="28.3888750" lon="-16.4632170">
        <ele>1417.9</ele>
        <time>2020-11-11T12:48:38Z</time>
      </trkpt>
      <trkpt lat="28.3888570" lon="-16.4632370">
        <ele>1418.9</ele>
        <time>2020-11-11T12:48:39Z</time>
      </trkpt>
      <trkpt lat="28.3888570" lon="-16.4632370">
        <ele>1418.9</ele>
        <time>2020-11-11T12:48:40Z</time>
      </trkpt>
      <trkpt lat="28.3888900" lon="-16.4632530">
        <ele>1418.9</ele>
        <time>2020-11-11T12:48:41Z</time>
      </trkpt>
      <trkpt lat="28.3888900" lon="-16.4632530">
        <ele>1418.9</ele>
        <time>2020-11-11T12:48:42Z</time>
      </trkpt>
      <trkpt lat="28.3889330" lon="-16.4632820">
        <ele>1418.9</ele>
        <time>2020-11-11T12:48:43Z</time>
      </trkpt>
      <trkpt lat="28.3889330" lon="-16.4632820">
        <ele>1418.9</ele>
        <time>2020-11-11T12:48:44Z</time>
      </trkpt>
      <trkpt lat="28.3889530" lon="-16.4633150">
        <ele>1418.9</ele>
        <time>2020-11-11T12:48:45Z</time>
      </trkpt>
      <trkpt lat="28.3889570" lon="-16.4633350">
        <ele>1419.9</ele>
        <time>2020-11-11T12:48:46Z</time>
      </trkpt>
      <trkpt lat="28.3889570" lon="-16.4633350">
        <ele>1419.9</ele>
        <time>2020-11-11T12:48:47Z</time>
      </trkpt>
      <trkpt lat="28.3889550" lon="-16.4633730">
        <ele>1419.9</ele>
        <time>2020-11-11T12:48:48Z</time>
      </trkpt>
      <trkpt lat="28.3889550" lon="-16.4633730">
        <ele>1419.9</ele>
        <time>2020-11-11T12:48:49Z</time>
      </trkpt>
      <trkpt lat="28.3889680" lon="-16.4634230">
        <ele>1420.9</ele>
        <time>2020-11-11T12:48:50Z</time>
      </trkpt>
      <trkpt lat="28.3889650" lon="-16.4634450">
        <ele>1420.9</ele>
        <time>2020-11-11T12:48:51Z</time>
      </trkpt>
      <trkpt lat="28.3889650" lon="-16.4634450">
        <ele>1420.9</ele>
        <time>2020-11-11T12:48:52Z</time>
      </trkpt>
      <trkpt lat="28.3889830" lon="-16.4634830">
        <ele>1420.9</ele>
        <time>2020-11-11T12:48:53Z</time>
      </trkpt>
      <trkpt lat="28.3889830" lon="-16.4634830">
        <ele>1421.9</ele>
        <time>2020-11-11T12:48:54Z</time>
      </trkpt>
      <trkpt lat="28.3889970" lon="-16.4635180">
        <ele>1421.9</ele>
        <time>2020-11-11T12:48:55Z</time>
      </trkpt>
      <trkpt lat="28.3889970" lon="-16.4635180">
        <ele>1421.9</ele>
        <time>2020-11-11T12:48:56Z</time>
      </trkpt>
      <trkpt lat="28.3889980" lon="-16.4635620">
        <ele>1421.9</ele>
        <time>2020-11-11T12:48:57Z</time>
      </trkpt>
      <trkpt lat="28.3889980" lon="-16.4635620">
        <ele>1422.9</ele>
        <time>2020-11-11T12:48:58Z</time>
      </trkpt>
      <trkpt lat="28.3890120" lon="-16.4635980">
        <ele>1422.9</ele>
        <time>2020-11-11T12:48:59Z</time>
      </trkpt>
      <trkpt lat="28.3890120" lon="-16.4635980">
        <ele>1422.9</ele>
        <time>2020-11-11T12:49:00Z</time>
      </trkpt>
      <trkpt lat="28.3890230" lon="-16.4636420">
        <ele>1422.9</ele>
        <time>2020-11-11T12:49:01Z</time>
      </trkpt>
      <trkpt lat="28.3890300" lon="-16.4636580">
        <ele>1422.9</ele>
        <time>2020-11-11T12:49:02Z</time>
      </trkpt>
      <trkpt lat="28.3890330" lon="-16.4636730">
        <ele>1422.9</ele>
        <time>2020-11-11T12:49:03Z</time>
      </trkpt>
      <trkpt lat="28.3890330" lon="-16.4636730">
        <ele>1422.9</ele>
        <time>2020-11-11T12:49:04Z</time>
      </trkpt>
      <trkpt lat="28.3890520" lon="-16.4637030">
        <ele>1422.9</ele>
        <time>2020-11-11T12:49:05Z</time>
      </trkpt>
      <trkpt lat="28.3890520" lon="-16.4637030">
        <ele>1422.9</ele>
        <time>2020-11-11T12:49:06Z</time>
      </trkpt>
      <trkpt lat="28.3890770" lon="-16.4637330">
        <ele>1422.9</ele>
        <time>2020-11-11T12:49:07Z</time>
      </trkpt>
      <trkpt lat="28.3890770" lon="-16.4637330">
        <ele>1422.9</ele>
        <time>2020-11-11T12:49:08Z</time>
      </trkpt>
      <trkpt lat="28.3890970" lon="-16.4637680">
        <ele>1422.9</ele>
        <time>2020-11-11T12:49:09Z</time>
      </trkpt>
      <trkpt lat="28.3890970" lon="-16.4637680">
        <ele>1423.9</ele>
        <time>2020-11-11T12:49:10Z</time>
      </trkpt>
      <trkpt lat="28.3891070" lon="-16.4638030">
        <ele>1423.9</ele>
        <time>2020-11-11T12:49:11Z</time>
      </trkpt>
      <trkpt lat="28.3891130" lon="-16.4638220">
        <ele>1423.9</ele>
        <time>2020-11-11T12:49:12Z</time>
      </trkpt>
      <trkpt lat="28.3891130" lon="-16.4638220">
        <ele>1423.9</ele>
        <time>2020-11-11T12:49:13Z</time>
      </trkpt>
      <trkpt lat="28.3891350" lon="-16.4638600">
        <ele>1423.9</ele>
        <time>2020-11-11T12:49:14Z</time>
      </trkpt>
      <trkpt lat="28.3891350" lon="-16.4638600">
        <ele>1424.9</ele>
        <time>2020-11-11T12:49:15Z</time>
      </trkpt>
      <trkpt lat="28.3891520" lon="-16.4639000">
        <ele>1424.9</ele>
        <time>2020-11-11T12:49:16Z</time>
      </trkpt>
      <trkpt lat="28.3891520" lon="-16.4639000">
        <ele>1424.9</ele>
        <time>2020-11-11T12:49:17Z</time>
      </trkpt>
      <trkpt lat="28.3891680" lon="-16.4639450">
        <ele>1424.9</ele>
        <time>2020-11-11T12:49:18Z</time>
      </trkpt>
      <trkpt lat="28.3891680" lon="-16.4639450">
        <ele>1424.9</ele>
        <time>2020-11-11T12:49:19Z</time>
      </trkpt>
      <trkpt lat="28.3891820" lon="-16.4639900">
        <ele>1424.9</ele>
        <time>2020-11-11T12:49:20Z</time>
      </trkpt>
      <trkpt lat="28.3891900" lon="-16.4640130">
        <ele>1425.9</ele>
        <time>2020-11-11T12:49:21Z</time>
      </trkpt>
      <trkpt lat="28.3891900" lon="-16.4640130">
        <ele>1425.9</ele>
        <time>2020-11-11T12:49:22Z</time>
      </trkpt>
      <trkpt lat="28.3891750" lon="-16.4640530">
        <ele>1425.9</ele>
        <time>2020-11-11T12:49:23Z</time>
      </trkpt>
      <trkpt lat="28.3891750" lon="-16.4640530">
        <ele>1425.9</ele>
        <time>2020-11-11T12:49:24Z</time>
      </trkpt>
      <trkpt lat="28.3891550" lon="-16.4640850">
        <ele>1425.9</ele>
        <time>2020-11-11T12:49:25Z</time>
      </trkpt>
      <trkpt lat="28.3891550" lon="-16.4640850">
        <ele>1425.9</ele>
        <time>2020-11-11T12:49:26Z</time>
      </trkpt>
      <trkpt lat="28.3891300" lon="-16.4641150">
        <ele>1425.9</ele>
        <time>2020-11-11T12:49:27Z</time>
      </trkpt>
      <trkpt lat="28.3891300" lon="-16.4641150">
        <ele>1425.9</ele>
        <time>2020-11-11T12:49:28Z</time>
      </trkpt>
      <trkpt lat="28.3890970" lon="-16.4641350">
        <ele>1425.9</ele>
        <time>2020-11-11T12:49:29Z</time>
      </trkpt>
      <trkpt lat="28.3890970" lon="-16.4641350">
        <ele>1425.9</ele>
        <time>2020-11-11T12:49:30Z</time>
      </trkpt>
      <trkpt lat="28.3890600" lon="-16.4641530">
        <ele>1426.9</ele>
        <time>2020-11-11T12:49:31Z</time>
      </trkpt>
      <trkpt lat="28.3890480" lon="-16.4641600">
        <ele>1426.9</ele>
        <time>2020-11-11T12:49:32Z</time>
      </trkpt>
      <trkpt lat="28.3890480" lon="-16.4641600">
        <ele>1426.9</ele>
        <time>2020-11-11T12:49:33Z</time>
      </trkpt>
      <trkpt lat="28.3890200" lon="-16.4641780">
        <ele>1426.9</ele>
        <time>2020-11-11T12:49:34Z</time>
      </trkpt>
      <trkpt lat="28.3890050" lon="-16.4641870">
        <ele>1426.9</ele>
        <time>2020-11-11T12:49:35Z</time>
      </trkpt>
      <trkpt lat="28.3890050" lon="-16.4641870">
        <ele>1426.9</ele>
        <time>2020-11-11T12:49:36Z</time>
      </trkpt>
      <trkpt lat="28.3889850" lon="-16.4642020">
        <ele>1426.9</ele>
        <time>2020-11-11T12:49:37Z</time>
      </trkpt>
      <trkpt lat="28.3889850" lon="-16.4642020">
        <ele>1426.9</ele>
        <time>2020-11-11T12:49:38Z</time>
      </trkpt>
      <trkpt lat="28.3889570" lon="-16.4642150">
        <ele>1426.9</ele>
        <time>2020-11-11T12:49:39Z</time>
      </trkpt>
      <trkpt lat="28.3889570" lon="-16.4642150">
        <ele>1426.9</ele>
        <time>2020-11-11T12:49:40Z</time>
      </trkpt>
      <trkpt lat="28.3889320" lon="-16.4642370">
        <ele>1426.9</ele>
        <time>2020-11-11T12:49:41Z</time>
      </trkpt>
      <trkpt lat="28.3889320" lon="-16.4642370">
        <ele>1426.9</ele>
        <time>2020-11-11T12:49:42Z</time>
      </trkpt>
      <trkpt lat="28.3889070" lon="-16.4642570">
        <ele>1426.9</ele>
        <time>2020-11-11T12:49:43Z</time>
      </trkpt>
      <trkpt lat="28.3889070" lon="-16.4642570">
        <ele>1426.9</ele>
        <time>2020-11-11T12:49:44Z</time>
      </trkpt>
      <trkpt lat="28.3888870" lon="-16.4642830">
        <ele>1427.9</ele>
        <time>2020-11-11T12:49:45Z</time>
      </trkpt>
      <trkpt lat="28.3888870" lon="-16.4642830">
        <ele>1427.9</ele>
        <time>2020-11-11T12:49:46Z</time>
      </trkpt>
      <trkpt lat="28.3888550" lon="-16.4643100">
        <ele>1427.9</ele>
        <time>2020-11-11T12:49:47Z</time>
      </trkpt>
      <trkpt lat="28.3888350" lon="-16.4643250">
        <ele>1427.9</ele>
        <time>2020-11-11T12:49:48Z</time>
      </trkpt>
      <trkpt lat="28.3888350" lon="-16.4643250">
        <ele>1427.9</ele>
        <time>2020-11-11T12:49:49Z</time>
      </trkpt>
      <trkpt lat="28.3888050" lon="-16.4643520">
        <ele>1428.9</ele>
        <time>2020-11-11T12:49:50Z</time>
      </trkpt>
      <trkpt lat="28.3888050" lon="-16.4643520">
        <ele>1428.9</ele>
        <time>2020-11-11T12:49:51Z</time>
      </trkpt>
      <trkpt lat="28.3887330" lon="-16.4643770">
        <ele>1428.9</ele>
        <time>2020-11-11T12:49:52Z</time>
      </trkpt>
      <trkpt lat="28.3887230" lon="-16.4643730">
        <ele>1428.9</ele>
        <time>2020-11-11T12:49:53Z</time>
      </trkpt>
      <trkpt lat="28.3887230" lon="-16.4643730">
        <ele>1429.9</ele>
        <time>2020-11-11T12:49:54Z</time>
      </trkpt>
      <trkpt lat="28.3886850" lon="-16.4643830">
        <ele>1429.9</ele>
        <time>2020-11-11T12:49:55Z</time>
      </trkpt>
      <trkpt lat="28.3886850" lon="-16.4643830">
        <ele>1429.9</ele>
        <time>2020-11-11T12:49:56Z</time>
      </trkpt>
      <trkpt lat="28.3886630" lon="-16.4643970">
        <ele>1429.9</ele>
        <time>2020-11-11T12:49:57Z</time>
      </trkpt>
      <trkpt lat="28.3886630" lon="-16.4643970">
        <ele>1429.9</ele>
        <time>2020-11-11T12:49:58Z</time>
      </trkpt>
      <trkpt lat="28.3886350" lon="-16.4644050">
        <ele>1429.9</ele>
        <time>2020-11-11T12:49:59Z</time>
      </trkpt>
      <trkpt lat="28.3886350" lon="-16.4644050">
        <ele>1429.9</ele>
        <time>2020-11-11T12:50:00Z</time>
      </trkpt>
      <trkpt lat="28.3886000" lon="-16.4644150">
        <ele>1429.9</ele>
        <time>2020-11-11T12:50:01Z</time>
      </trkpt>
      <trkpt lat="28.3885800" lon="-16.4644170">
        <ele>1430.9</ele>
        <time>2020-11-11T12:50:02Z</time>
      </trkpt>
      <trkpt lat="28.3885800" lon="-16.4644170">
        <ele>1430.9</ele>
        <time>2020-11-11T12:50:03Z</time>
      </trkpt>
      <trkpt lat="28.3885450" lon="-16.4644150">
        <ele>1430.9</ele>
        <time>2020-11-11T12:50:04Z</time>
      </trkpt>
      <trkpt lat="28.3885280" lon="-16.4644220">
        <ele>1430.9</ele>
        <time>2020-11-11T12:50:05Z</time>
      </trkpt>
      <trkpt lat="28.3885280" lon="-16.4644220">
        <ele>1430.9</ele>
        <time>2020-11-11T12:50:06Z</time>
      </trkpt>
      <trkpt lat="28.3884950" lon="-16.4644330">
        <ele>1430.9</ele>
        <time>2020-11-11T12:50:07Z</time>
      </trkpt>
      <trkpt lat="28.3884750" lon="-16.4644320">
        <ele>1431.9</ele>
        <time>2020-11-11T12:50:08Z</time>
      </trkpt>
      <trkpt lat="28.3884750" lon="-16.4644320">
        <ele>1431.9</ele>
        <time>2020-11-11T12:50:09Z</time>
      </trkpt>
      <trkpt lat="28.3884420" lon="-16.4644370">
        <ele>1431.9</ele>
        <time>2020-11-11T12:50:10Z</time>
      </trkpt>
      <trkpt lat="28.3884230" lon="-16.4644370">
        <ele>1431.9</ele>
        <time>2020-11-11T12:50:11Z</time>
      </trkpt>
      <trkpt lat="28.3884230" lon="-16.4644370">
        <ele>1431.9</ele>
        <time>2020-11-11T12:50:12Z</time>
      </trkpt>
      <trkpt lat="28.3883920" lon="-16.4644450">
        <ele>1431.9</ele>
        <time>2020-11-11T12:50:13Z</time>
      </trkpt>
      <trkpt lat="28.3883920" lon="-16.4644450">
        <ele>1432.9</ele>
        <time>2020-11-11T12:50:14Z</time>
      </trkpt>
      <trkpt lat="28.3883480" lon="-16.4644570">
        <ele>1432.9</ele>
        <time>2020-11-11T12:50:15Z</time>
      </trkpt>
      <trkpt lat="28.3883480" lon="-16.4644570">
        <ele>1432.9</ele>
        <time>2020-11-11T12:50:16Z</time>
      </trkpt>
      <trkpt lat="28.3883070" lon="-16.4644650">
        <ele>1432.9</ele>
        <time>2020-11-11T12:50:17Z</time>
      </trkpt>
      <trkpt lat="28.3882900" lon="-16.4644650">
        <ele>1432.9</ele>
        <time>2020-11-11T12:50:18Z</time>
      </trkpt>
      <trkpt lat="28.3882900" lon="-16.4644650">
        <ele>1432.9</ele>
        <time>2020-11-11T12:50:19Z</time>
      </trkpt>
      <trkpt lat="28.3882580" lon="-16.4644670">
        <ele>1433.9</ele>
        <time>2020-11-11T12:50:20Z</time>
      </trkpt>
      <trkpt lat="28.3882580" lon="-16.4644670">
        <ele>1433.9</ele>
        <time>2020-11-11T12:50:21Z</time>
      </trkpt>
      <trkpt lat="28.3882220" lon="-16.4644750">
        <ele>1433.9</ele>
        <time>2020-11-11T12:50:22Z</time>
      </trkpt>
      <trkpt lat="28.3881920" lon="-16.4644780">
        <ele>1433.9</ele>
        <time>2020-11-11T12:50:23Z</time>
      </trkpt>
      <trkpt lat="28.3881920" lon="-16.4644780">
        <ele>1433.9</ele>
        <time>2020-11-11T12:50:24Z</time>
      </trkpt>
      <trkpt lat="28.3881380" lon="-16.4644750">
        <ele>1433.9</ele>
        <time>2020-11-11T12:50:25Z</time>
      </trkpt>
      <trkpt lat="28.3881380" lon="-16.4644750">
        <ele>1433.9</ele>
        <time>2020-11-11T12:50:26Z</time>
      </trkpt>
      <trkpt lat="28.3881030" lon="-16.4644730">
        <ele>1433.9</ele>
        <time>2020-11-11T12:50:27Z</time>
      </trkpt>
      <trkpt lat="28.3881030" lon="-16.4644730">
        <ele>1433.9</ele>
        <time>2020-11-11T12:50:28Z</time>
      </trkpt>
      <trkpt lat="28.3880750" lon="-16.4644730">
        <ele>1434.9</ele>
        <time>2020-11-11T12:50:29Z</time>
      </trkpt>
      <trkpt lat="28.3880750" lon="-16.4644730">
        <ele>1434.9</ele>
        <time>2020-11-11T12:50:30Z</time>
      </trkpt>
      <trkpt lat="28.3880430" lon="-16.4644720">
        <ele>1434.9</ele>
        <time>2020-11-11T12:50:31Z</time>
      </trkpt>
      <trkpt lat="28.3880430" lon="-16.4644720">
        <ele>1434.9</ele>
        <time>2020-11-11T12:50:32Z</time>
      </trkpt>
      <trkpt lat="28.3880100" lon="-16.4644700">
        <ele>1435.9</ele>
        <time>2020-11-11T12:50:33Z</time>
      </trkpt>
      <trkpt lat="28.3879900" lon="-16.4644700">
        <ele>1435.9</ele>
        <time>2020-11-11T12:50:34Z</time>
      </trkpt>
      <trkpt lat="28.3879900" lon="-16.4644700">
        <ele>1435.9</ele>
        <time>2020-11-11T12:50:35Z</time>
      </trkpt>
      <trkpt lat="28.3879580" lon="-16.4644770">
        <ele>1435.9</ele>
        <time>2020-11-11T12:50:36Z</time>
      </trkpt>
      <trkpt lat="28.3879580" lon="-16.4644770">
        <ele>1436.9</ele>
        <time>2020-11-11T12:50:37Z</time>
      </trkpt>
      <trkpt lat="28.3879180" lon="-16.4644900">
        <ele>1436.9</ele>
        <time>2020-11-11T12:50:38Z</time>
      </trkpt>
      <trkpt lat="28.3878970" lon="-16.4644920">
        <ele>1436.9</ele>
        <time>2020-11-11T12:50:39Z</time>
      </trkpt>
      <trkpt lat="28.3878730" lon="-16.4645020">
        <ele>1436.9</ele>
        <time>2020-11-11T12:50:40Z</time>
      </trkpt>
      <trkpt lat="28.3878730" lon="-16.4645020">
        <ele>1436.9</ele>
        <time>2020-11-11T12:50:41Z</time>
      </trkpt>
      <trkpt lat="28.3878450" lon="-16.4645200">
        <ele>1436.9</ele>
        <time>2020-11-11T12:50:42Z</time>
      </trkpt>
      <trkpt lat="28.3878430" lon="-16.4645430">
        <ele>1437.9</ele>
        <time>2020-11-11T12:50:43Z</time>
      </trkpt>
      <trkpt lat="28.3878430" lon="-16.4645430">
        <ele>1437.9</ele>
        <time>2020-11-11T12:50:44Z</time>
      </trkpt>
      <trkpt lat="28.3878350" lon="-16.4645800">
        <ele>1437.9</ele>
        <time>2020-11-11T12:50:45Z</time>
      </trkpt>
      <trkpt lat="28.3878350" lon="-16.4645800">
        <ele>1437.9</ele>
        <time>2020-11-11T12:50:46Z</time>
      </trkpt>
      <trkpt lat="28.3878250" lon="-16.4646170">
        <ele>1438.9</ele>
        <time>2020-11-11T12:50:47Z</time>
      </trkpt>
      <trkpt lat="28.3878250" lon="-16.4646170">
        <ele>1438.9</ele>
        <time>2020-11-11T12:50:48Z</time>
      </trkpt>
      <trkpt lat="28.3878250" lon="-16.4646470">
        <ele>1438.9</ele>
        <time>2020-11-11T12:50:49Z</time>
      </trkpt>
      <trkpt lat="28.3878250" lon="-16.4646470">
        <ele>1438.9</ele>
        <time>2020-11-11T12:50:50Z</time>
      </trkpt>
      <trkpt lat="28.3878250" lon="-16.4646730">
        <ele>1439.9</ele>
        <time>2020-11-11T12:50:51Z</time>
      </trkpt>
      <trkpt lat="28.3878330" lon="-16.4646820">
        <ele>1439.9</ele>
        <time>2020-11-11T12:50:52Z</time>
      </trkpt>
      <trkpt lat="28.3878450" lon="-16.4646920">
        <ele>1439.9</ele>
        <time>2020-11-11T12:50:53Z</time>
      </trkpt>
      <trkpt lat="28.3878450" lon="-16.4646920">
        <ele>1439.9</ele>
        <time>2020-11-11T12:50:54Z</time>
      </trkpt>
      <trkpt lat="28.3878530" lon="-16.4647350">
        <ele>1439.9</ele>
        <time>2020-11-11T12:50:55Z</time>
      </trkpt>
      <trkpt lat="28.3878530" lon="-16.4647350">
        <ele>1439.9</ele>
        <time>2020-11-11T12:50:56Z</time>
      </trkpt>
      <trkpt lat="28.3878550" lon="-16.4647750">
        <ele>1440.9</ele>
        <time>2020-11-11T12:50:57Z</time>
      </trkpt>
      <trkpt lat="28.3878550" lon="-16.4647750">
        <ele>1440.9</ele>
        <time>2020-11-11T12:50:58Z</time>
      </trkpt>
      <trkpt lat="28.3878580" lon="-16.4648100">
        <ele>1440.9</ele>
        <time>2020-11-11T12:50:59Z</time>
      </trkpt>
      <trkpt lat="28.3878580" lon="-16.4648100">
        <ele>1440.9</ele>
        <time>2020-11-11T12:51:00Z</time>
      </trkpt>
      <trkpt lat="28.3878370" lon="-16.4648480">
        <ele>1440.9</ele>
        <time>2020-11-11T12:51:01Z</time>
      </trkpt>
      <trkpt lat="28.3878370" lon="-16.4648480">
        <ele>1440.9</ele>
        <time>2020-11-11T12:51:02Z</time>
      </trkpt>
      <trkpt lat="28.3878330" lon="-16.4648770">
        <ele>1440.9</ele>
        <time>2020-11-11T12:51:03Z</time>
      </trkpt>
      <trkpt lat="28.3878330" lon="-16.4648770">
        <ele>1440.9</ele>
        <time>2020-11-11T12:51:04Z</time>
      </trkpt>
      <trkpt lat="28.3878080" lon="-16.4649250">
        <ele>1440.9</ele>
        <time>2020-11-11T12:51:05Z</time>
      </trkpt>
      <trkpt lat="28.3877830" lon="-16.4649470">
        <ele>1440.9</ele>
        <time>2020-11-11T12:51:06Z</time>
      </trkpt>
      <trkpt lat="28.3877830" lon="-16.4649470">
        <ele>1440.9</ele>
        <time>2020-11-11T12:51:07Z</time>
      </trkpt>
      <trkpt lat="28.3877350" lon="-16.4649870">
        <ele>1440.9</ele>
        <time>2020-11-11T12:51:08Z</time>
      </trkpt>
      <trkpt lat="28.3877350" lon="-16.4649870">
        <ele>1442.9</ele>
        <time>2020-11-11T12:51:09Z</time>
      </trkpt>
      <trkpt lat="28.3876920" lon="-16.4649880">
        <ele>1442.9</ele>
        <time>2020-11-11T12:51:10Z</time>
      </trkpt>
      <trkpt lat="28.3876920" lon="-16.4649880">
        <ele>1442.9</ele>
        <time>2020-11-11T12:51:11Z</time>
      </trkpt>
      <trkpt lat="28.3876620" lon="-16.4649870">
        <ele>1442.9</ele>
        <time>2020-11-11T12:51:12Z</time>
      </trkpt>
      <trkpt lat="28.3876620" lon="-16.4649870">
        <ele>1442.9</ele>
        <time>2020-11-11T12:51:13Z</time>
      </trkpt>
      <trkpt lat="28.3876400" lon="-16.4649800">
        <ele>1442.9</ele>
        <time>2020-11-11T12:51:14Z</time>
      </trkpt>
      <trkpt lat="28.3876230" lon="-16.4649700">
        <ele>1442.9</ele>
        <time>2020-11-11T12:51:15Z</time>
      </trkpt>
      <trkpt lat="28.3876230" lon="-16.4649700">
        <ele>1442.9</ele>
        <time>2020-11-11T12:51:16Z</time>
      </trkpt>
      <trkpt lat="28.3875870" lon="-16.4649450">
        <ele>1442.9</ele>
        <time>2020-11-11T12:51:17Z</time>
      </trkpt>
      <trkpt lat="28.3875870" lon="-16.4649450">
        <ele>1442.9</ele>
        <time>2020-11-11T12:51:18Z</time>
      </trkpt>
      <trkpt lat="28.3875480" lon="-16.4649150">
        <ele>1442.9</ele>
        <time>2020-11-11T12:51:19Z</time>
      </trkpt>
      <trkpt lat="28.3875480" lon="-16.4649150">
        <ele>1442.9</ele>
        <time>2020-11-11T12:51:20Z</time>
      </trkpt>
      <trkpt lat="28.3875120" lon="-16.4648920">
        <ele>1442.9</ele>
        <time>2020-11-11T12:51:21Z</time>
      </trkpt>
      <trkpt lat="28.3874820" lon="-16.4648730">
        <ele>1442.9</ele>
        <time>2020-11-11T12:51:22Z</time>
      </trkpt>
      <trkpt lat="28.3874820" lon="-16.4648730">
        <ele>1442.9</ele>
        <time>2020-11-11T12:51:23Z</time>
      </trkpt>
      <trkpt lat="28.3874320" lon="-16.4648480">
        <ele>1442.9</ele>
        <time>2020-11-11T12:51:24Z</time>
      </trkpt>
      <trkpt lat="28.3874050" lon="-16.4648350">
        <ele>1442.9</ele>
        <time>2020-11-11T12:51:25Z</time>
      </trkpt>
      <trkpt lat="28.3874050" lon="-16.4648350">
        <ele>1442.9</ele>
        <time>2020-11-11T12:51:26Z</time>
      </trkpt>
      <trkpt lat="28.3873620" lon="-16.4648200">
        <ele>1442.9</ele>
        <time>2020-11-11T12:51:27Z</time>
      </trkpt>
      <trkpt lat="28.3873370" lon="-16.4648130">
        <ele>1442.9</ele>
        <time>2020-11-11T12:51:28Z</time>
      </trkpt>
      <trkpt lat="28.3873150" lon="-16.4648100">
        <ele>1442.9</ele>
        <time>2020-11-11T12:51:29Z</time>
      </trkpt>
      <trkpt lat="28.3873150" lon="-16.4648100">
        <ele>1442.9</ele>
        <time>2020-11-11T12:51:30Z</time>
      </trkpt>
      <trkpt lat="28.3872620" lon="-16.4648120">
        <ele>1442.9</ele>
        <time>2020-11-11T12:51:31Z</time>
      </trkpt>
      <trkpt lat="28.3872620" lon="-16.4648120">
        <ele>1442.9</ele>
        <time>2020-11-11T12:51:32Z</time>
      </trkpt>
      <trkpt lat="28.3872270" lon="-16.4648030">
        <ele>1442.9</ele>
        <time>2020-11-11T12:51:33Z</time>
      </trkpt>
      <trkpt lat="28.3872270" lon="-16.4648030">
        <ele>1442.9</ele>
        <time>2020-11-11T12:51:34Z</time>
      </trkpt>
      <trkpt lat="28.3871880" lon="-16.4648030">
        <ele>1442.9</ele>
        <time>2020-11-11T12:51:35Z</time>
      </trkpt>
      <trkpt lat="28.3871730" lon="-16.4648050">
        <ele>1442.9</ele>
        <time>2020-11-11T12:51:36Z</time>
      </trkpt>
      <trkpt lat="28.3871730" lon="-16.4648050">
        <ele>1442.9</ele>
        <time>2020-11-11T12:51:37Z</time>
      </trkpt>
      <trkpt lat="28.3871450" lon="-16.4648070">
        <ele>1442.9</ele>
        <time>2020-11-11T12:51:38Z</time>
      </trkpt>
      <trkpt lat="28.3871450" lon="-16.4648070">
        <ele>1442.9</ele>
        <time>2020-11-11T12:51:39Z</time>
      </trkpt>
      <trkpt lat="28.3870920" lon="-16.4647970">
        <ele>1443.9</ele>
        <time>2020-11-11T12:51:40Z</time>
      </trkpt>
      <trkpt lat="28.3870920" lon="-16.4647970">
        <ele>1443.9</ele>
        <time>2020-11-11T12:51:41Z</time>
      </trkpt>
      <trkpt lat="28.3870530" lon="-16.4647880">
        <ele>1443.9</ele>
        <time>2020-11-11T12:51:42Z</time>
      </trkpt>
      <trkpt lat="28.3870380" lon="-16.4647880">
        <ele>1443.9</ele>
        <time>2020-11-11T12:51:43Z</time>
      </trkpt>
      <trkpt lat="28.3870380" lon="-16.4647880">
        <ele>1443.9</ele>
        <time>2020-11-11T12:51:44Z</time>
      </trkpt>
      <trkpt lat="28.3870030" lon="-16.4647780">
        <ele>1444.9</ele>
        <time>2020-11-11T12:51:45Z</time>
      </trkpt>
      <trkpt lat="28.3870030" lon="-16.4647780">
        <ele>1444.9</ele>
        <time>2020-11-11T12:51:46Z</time>
      </trkpt>
      <trkpt lat="28.3869650" lon="-16.4647670">
        <ele>1444.9</ele>
        <time>2020-11-11T12:51:47Z</time>
      </trkpt>
      <trkpt lat="28.3869550" lon="-16.4647580">
        <ele>1444.9</ele>
        <time>2020-11-11T12:51:48Z</time>
      </trkpt>
      <trkpt lat="28.3869550" lon="-16.4647580">
        <ele>1445.9</ele>
        <time>2020-11-11T12:51:49Z</time>
      </trkpt>
      <trkpt lat="28.3869250" lon="-16.4647370">
        <ele>1445.9</ele>
        <time>2020-11-11T12:51:50Z</time>
      </trkpt>
      <trkpt lat="28.3869250" lon="-16.4647370">
        <ele>1445.9</ele>
        <time>2020-11-11T12:51:51Z</time>
      </trkpt>
      <trkpt lat="28.3868850" lon="-16.4647130">
        <ele>1445.9</ele>
        <time>2020-11-11T12:51:52Z</time>
      </trkpt>
      <trkpt lat="28.3868650" lon="-16.4647000">
        <ele>1445.9</ele>
        <time>2020-11-11T12:51:53Z</time>
      </trkpt>
      <trkpt lat="28.3868650" lon="-16.4647000">
        <ele>1445.9</ele>
        <time>2020-11-11T12:51:54Z</time>
      </trkpt>
      <trkpt lat="28.3868100" lon="-16.4646780">
        <ele>1445.9</ele>
        <time>2020-11-11T12:51:55Z</time>
      </trkpt>
      <trkpt lat="28.3867880" lon="-16.4646680">
        <ele>1445.9</ele>
        <time>2020-11-11T12:51:56Z</time>
      </trkpt>
      <trkpt lat="28.3867880" lon="-16.4646680">
        <ele>1445.9</ele>
        <time>2020-11-11T12:51:57Z</time>
      </trkpt>
      <trkpt lat="28.3867330" lon="-16.4646350">
        <ele>1445.9</ele>
        <time>2020-11-11T12:51:58Z</time>
      </trkpt>
      <trkpt lat="28.3867330" lon="-16.4646350">
        <ele>1445.9</ele>
        <time>2020-11-11T12:51:59Z</time>
      </trkpt>
      <trkpt lat="28.3866930" lon="-16.4646200">
        <ele>1445.9</ele>
        <time>2020-11-11T12:52:00Z</time>
      </trkpt>
      <trkpt lat="28.3866780" lon="-16.4646170">
        <ele>1445.9</ele>
        <time>2020-11-11T12:52:01Z</time>
      </trkpt>
      <trkpt lat="28.3866780" lon="-16.4646170">
        <ele>1445.9</ele>
        <time>2020-11-11T12:52:02Z</time>
      </trkpt>
      <trkpt lat="28.3866420" lon="-16.4646180">
        <ele>1445.9</ele>
        <time>2020-11-11T12:52:03Z</time>
      </trkpt>
      <trkpt lat="28.3866250" lon="-16.4646220">
        <ele>1445.9</ele>
        <time>2020-11-11T12:52:04Z</time>
      </trkpt>
      <trkpt lat="28.3866100" lon="-16.4646250">
        <ele>1446.9</ele>
        <time>2020-11-11T12:52:05Z</time>
      </trkpt>
      <trkpt lat="28.3866100" lon="-16.4646250">
        <ele>1446.9</ele>
        <time>2020-11-11T12:52:06Z</time>
      </trkpt>
      <trkpt lat="28.3865730" lon="-16.4646330">
        <ele>1446.9</ele>
        <time>2020-11-11T12:52:07Z</time>
      </trkpt>
      <trkpt lat="28.3865730" lon="-16.4646330">
        <ele>1446.9</ele>
        <time>2020-11-11T12:52:08Z</time>
      </trkpt>
      <trkpt lat="28.3865180" lon="-16.4646670">
        <ele>1446.9</ele>
        <time>2020-11-11T12:52:09Z</time>
      </trkpt>
      <trkpt lat="28.3865180" lon="-16.4646670">
        <ele>1446.9</ele>
        <time>2020-11-11T12:52:10Z</time>
      </trkpt>
      <trkpt lat="28.3864650" lon="-16.4646980">
        <ele>1447.9</ele>
        <time>2020-11-11T12:52:11Z</time>
      </trkpt>
      <trkpt lat="28.3864650" lon="-16.4646980">
        <ele>1447.9</ele>
        <time>2020-11-11T12:52:12Z</time>
      </trkpt>
      <trkpt lat="28.3864100" lon="-16.4647100">
        <ele>1447.9</ele>
        <time>2020-11-11T12:52:13Z</time>
      </trkpt>
      <trkpt lat="28.3864100" lon="-16.4647100">
        <ele>1447.9</ele>
        <time>2020-11-11T12:52:14Z</time>
      </trkpt>
      <trkpt lat="28.3863550" lon="-16.4647180">
        <ele>1447.9</ele>
        <time>2020-11-11T12:52:15Z</time>
      </trkpt>
      <trkpt lat="28.3863320" lon="-16.4647130">
        <ele>1447.9</ele>
        <time>2020-11-11T12:52:16Z</time>
      </trkpt>
      <trkpt lat="28.3863320" lon="-16.4647130">
        <ele>1449.9</ele>
        <time>2020-11-11T12:52:17Z</time>
      </trkpt>
      <trkpt lat="28.3862830" lon="-16.4646970">
        <ele>1450.9</ele>
        <time>2020-11-11T12:52:18Z</time>
      </trkpt>
      <trkpt lat="28.3862630" lon="-16.4646950">
        <ele>1450.9</ele>
        <time>2020-11-11T12:52:19Z</time>
      </trkpt>
      <trkpt lat="28.3862630" lon="-16.4646950">
        <ele>1450.9</ele>
        <time>2020-11-11T12:52:20Z</time>
      </trkpt>
      <trkpt lat="28.3862130" lon="-16.4646820">
        <ele>1450.9</ele>
        <time>2020-11-11T12:52:21Z</time>
      </trkpt>
      <trkpt lat="28.3861870" lon="-16.4646770">
        <ele>1450.9</ele>
        <time>2020-11-11T12:52:22Z</time>
      </trkpt>
      <trkpt lat="28.3861870" lon="-16.4646770">
        <ele>1450.9</ele>
        <time>2020-11-11T12:52:23Z</time>
      </trkpt>
      <trkpt lat="28.3861350" lon="-16.4646630">
        <ele>1450.9</ele>
        <time>2020-11-11T12:52:24Z</time>
      </trkpt>
      <trkpt lat="28.3861180" lon="-16.4646620">
        <ele>1450.9</ele>
        <time>2020-11-11T12:52:25Z</time>
      </trkpt>
      <trkpt lat="28.3861180" lon="-16.4646620">
        <ele>1451.9</ele>
        <time>2020-11-11T12:52:26Z</time>
      </trkpt>
      <trkpt lat="28.3860780" lon="-16.4646550">
        <ele>1451.9</ele>
        <time>2020-11-11T12:52:27Z</time>
      </trkpt>
      <trkpt lat="28.3860620" lon="-16.4646530">
        <ele>1451.9</ele>
        <time>2020-11-11T12:52:28Z</time>
      </trkpt>
      <trkpt lat="28.3860620" lon="-16.4646530">
        <ele>1451.9</ele>
        <time>2020-11-11T12:52:29Z</time>
      </trkpt>
      <trkpt lat="28.3860380" lon="-16.4646450">
        <ele>1452.9</ele>
        <time>2020-11-11T12:52:30Z</time>
      </trkpt>
      <trkpt lat="28.3860220" lon="-16.4646380">
        <ele>1452.9</ele>
        <time>2020-11-11T12:52:31Z</time>
      </trkpt>
      <trkpt lat="28.3860220" lon="-16.4646380">
        <ele>1452.9</ele>
        <time>2020-11-11T12:52:32Z</time>
      </trkpt>
      <trkpt lat="28.3859880" lon="-16.4646270">
        <ele>1452.9</ele>
        <time>2020-11-11T12:52:33Z</time>
      </trkpt>
      <trkpt lat="28.3859750" lon="-16.4646200">
        <ele>1453.9</ele>
        <time>2020-11-11T12:52:34Z</time>
      </trkpt>
      <trkpt lat="28.3859670" lon="-16.4646120">
        <ele>1453.9</ele>
        <time>2020-11-11T12:52:35Z</time>
      </trkpt>
      <trkpt lat="28.3859650" lon="-16.4645980">
        <ele>1453.9</ele>
        <time>2020-11-11T12:52:36Z</time>
      </trkpt>
      <trkpt lat="28.3859650" lon="-16.4645980">
        <ele>1453.9</ele>
        <time>2020-11-11T12:52:37Z</time>
      </trkpt>
      <trkpt lat="28.3859450" lon="-16.4645780">
        <ele>1453.9</ele>
        <time>2020-11-11T12:52:38Z</time>
      </trkpt>
      <trkpt lat="28.3859450" lon="-16.4645780">
        <ele>1453.9</ele>
        <time>2020-11-11T12:52:39Z</time>
      </trkpt>
      <trkpt lat="28.3859230" lon="-16.4645580">
        <ele>1454.9</ele>
        <time>2020-11-11T12:52:40Z</time>
      </trkpt>
      <trkpt lat="28.3859230" lon="-16.4645580">
        <ele>1454.9</ele>
        <time>2020-11-11T12:52:41Z</time>
      </trkpt>
      <trkpt lat="28.3858970" lon="-16.4645320">
        <ele>1454.9</ele>
        <time>2020-11-11T12:52:42Z</time>
      </trkpt>
      <trkpt lat="28.3858870" lon="-16.4645150">
        <ele>1454.9</ele>
        <time>2020-11-11T12:52:43Z</time>
      </trkpt>
      <trkpt lat="28.3858870" lon="-16.4645150">
        <ele>1454.9</ele>
        <time>2020-11-11T12:52:44Z</time>
      </trkpt>
      <trkpt lat="28.3858600" lon="-16.4645080">
        <ele>1454.9</ele>
        <time>2020-11-11T12:52:45Z</time>
      </trkpt>
      <trkpt lat="28.3858600" lon="-16.4645080">
        <ele>1454.9</ele>
        <time>2020-11-11T12:52:46Z</time>
      </trkpt>
      <trkpt lat="28.3858300" lon="-16.4644830">
        <ele>1454.9</ele>
        <time>2020-11-11T12:52:47Z</time>
      </trkpt>
      <trkpt lat="28.3858300" lon="-16.4644830">
        <ele>1455.9</ele>
        <time>2020-11-11T12:52:48Z</time>
      </trkpt>
      <trkpt lat="28.3857880" lon="-16.4644450">
        <ele>1455.9</ele>
        <time>2020-11-11T12:52:49Z</time>
      </trkpt>
      <trkpt lat="28.3857730" lon="-16.4644330">
        <ele>1455.9</ele>
        <time>2020-11-11T12:52:50Z</time>
      </trkpt>
      <trkpt lat="28.3857730" lon="-16.4644330">
        <ele>1455.9</ele>
        <time>2020-11-11T12:52:51Z</time>
      </trkpt>
      <trkpt lat="28.3857550" lon="-16.4644180">
        <ele>1455.9</ele>
        <time>2020-11-11T12:52:52Z</time>
      </trkpt>
      <trkpt lat="28.3857480" lon="-16.4644170">
        <ele>1455.9</ele>
        <time>2020-11-11T12:52:53Z</time>
      </trkpt>
      <trkpt lat="28.3857480" lon="-16.4644170">
        <ele>1456.9</ele>
        <time>2020-11-11T12:52:54Z</time>
      </trkpt>
      <trkpt lat="28.3857300" lon="-16.4644030">
        <ele>1456.9</ele>
        <time>2020-11-11T12:52:55Z</time>
      </trkpt>
      <trkpt lat="28.3857300" lon="-16.4644030">
        <ele>1456.9</ele>
        <time>2020-11-11T12:52:56Z</time>
      </trkpt>
      <trkpt lat="28.3856880" lon="-16.4643580">
        <ele>1456.9</ele>
        <time>2020-11-11T12:52:57Z</time>
      </trkpt>
      <trkpt lat="28.3856720" lon="-16.4643520">
        <ele>1456.9</ele>
        <time>2020-11-11T12:52:58Z</time>
      </trkpt>
      <trkpt lat="28.3856720" lon="-16.4643520">
        <ele>1456.9</ele>
        <time>2020-11-11T12:52:59Z</time>
      </trkpt>
      <trkpt lat="28.3856450" lon="-16.4643320">
        <ele>1456.9</ele>
        <time>2020-11-11T12:53:00Z</time>
      </trkpt>
      <trkpt lat="28.3856450" lon="-16.4643320">
        <ele>1458.9</ele>
        <time>2020-11-11T12:53:01Z</time>
      </trkpt>
      <trkpt lat="28.3856350" lon="-16.4643200">
        <ele>1458.9</ele>
        <time>2020-11-11T12:53:02Z</time>
      </trkpt>
      <trkpt lat="28.3856300" lon="-16.4643130">
        <ele>1458.9</ele>
        <time>2020-11-11T12:53:03Z</time>
      </trkpt>
      <trkpt lat="28.3856180" lon="-16.4642950">
        <ele>1458.9</ele>
        <time>2020-11-11T12:53:04Z</time>
      </trkpt>
      <trkpt lat="28.3856180" lon="-16.4642950">
        <ele>1458.9</ele>
        <time>2020-11-11T12:53:05Z</time>
      </trkpt>
      <trkpt lat="28.3855830" lon="-16.4642530">
        <ele>1458.9</ele>
        <time>2020-11-11T12:53:06Z</time>
      </trkpt>
      <trkpt lat="28.3855700" lon="-16.4642470">
        <ele>1458.9</ele>
        <time>2020-11-11T12:53:07Z</time>
      </trkpt>
      <trkpt lat="28.3855700" lon="-16.4642470">
        <ele>1458.9</ele>
        <time>2020-11-11T12:53:08Z</time>
      </trkpt>
      <trkpt lat="28.3855420" lon="-16.4642350">
        <ele>1458.9</ele>
        <time>2020-11-11T12:53:09Z</time>
      </trkpt>
      <trkpt lat="28.3855220" lon="-16.4642300">
        <ele>1458.9</ele>
        <time>2020-11-11T12:53:10Z</time>
      </trkpt>
      <trkpt lat="28.3855220" lon="-16.4642300">
        <ele>1458.9</ele>
        <time>2020-11-11T12:53:11Z</time>
      </trkpt>
      <trkpt lat="28.3854850" lon="-16.4642050">
        <ele>1458.9</ele>
        <time>2020-11-11T12:53:12Z</time>
      </trkpt>
      <trkpt lat="28.3854750" lon="-16.4641880">
        <ele>1459.9</ele>
        <time>2020-11-11T12:53:13Z</time>
      </trkpt>
      <trkpt lat="28.3854680" lon="-16.4641720">
        <ele>1459.9</ele>
        <time>2020-11-11T12:53:14Z</time>
      </trkpt>
      <trkpt lat="28.3854680" lon="-16.4641720">
        <ele>1459.9</ele>
        <time>2020-11-11T12:53:15Z</time>
      </trkpt>
      <trkpt lat="28.3854270" lon="-16.4641330">
        <ele>1459.9</ele>
        <time>2020-11-11T12:53:16Z</time>
      </trkpt>
      <trkpt lat="28.3854270" lon="-16.4641330">
        <ele>1459.9</ele>
        <time>2020-11-11T12:53:17Z</time>
      </trkpt>
      <trkpt lat="28.3854000" lon="-16.4641020">
        <ele>1459.9</ele>
        <time>2020-11-11T12:53:18Z</time>
      </trkpt>
      <trkpt lat="28.3853870" lon="-16.4640850">
        <ele>1459.9</ele>
        <time>2020-11-11T12:53:19Z</time>
      </trkpt>
      <trkpt lat="28.3853870" lon="-16.4640850">
        <ele>1459.9</ele>
        <time>2020-11-11T12:53:20Z</time>
      </trkpt>
      <trkpt lat="28.3853530" lon="-16.4640530">
        <ele>1460.9</ele>
        <time>2020-11-11T12:53:21Z</time>
      </trkpt>
      <trkpt lat="28.3853530" lon="-16.4640530">
        <ele>1460.9</ele>
        <time>2020-11-11T12:53:22Z</time>
      </trkpt>
      <trkpt lat="28.3853130" lon="-16.4640120">
        <ele>1460.9</ele>
        <time>2020-11-11T12:53:23Z</time>
      </trkpt>
      <trkpt lat="28.3853130" lon="-16.4640120">
        <ele>1460.9</ele>
        <time>2020-11-11T12:53:24Z</time>
      </trkpt>
      <trkpt lat="28.3852680" lon="-16.4639830">
        <ele>1460.9</ele>
        <time>2020-11-11T12:53:25Z</time>
      </trkpt>
      <trkpt lat="28.3852680" lon="-16.4639830">
        <ele>1460.9</ele>
        <time>2020-11-11T12:53:26Z</time>
      </trkpt>
      <trkpt lat="28.3852100" lon="-16.4639450">
        <ele>1460.9</ele>
        <time>2020-11-11T12:53:27Z</time>
      </trkpt>
      <trkpt lat="28.3852100" lon="-16.4639450">
        <ele>1460.9</ele>
        <time>2020-11-11T12:53:28Z</time>
      </trkpt>
      <trkpt lat="28.3851200" lon="-16.4638920">
        <ele>1460.9</ele>
        <time>2020-11-11T12:53:29Z</time>
      </trkpt>
      <trkpt lat="28.3851200" lon="-16.4638920">
        <ele>1460.9</ele>
        <time>2020-11-11T12:53:30Z</time>
      </trkpt>
      <trkpt lat="28.3850520" lon="-16.4638930">
        <ele>1460.9</ele>
        <time>2020-11-11T12:53:31Z</time>
      </trkpt>
      <trkpt lat="28.3850250" lon="-16.4638900">
        <ele>1460.9</ele>
        <time>2020-11-11T12:53:32Z</time>
      </trkpt>
      <trkpt lat="28.3850250" lon="-16.4638900">
        <ele>1460.9</ele>
        <time>2020-11-11T12:53:33Z</time>
      </trkpt>
      <trkpt lat="28.3850330" lon="-16.4639080">
        <ele>1460.9</ele>
        <time>2020-11-11T12:53:34Z</time>
      </trkpt>
      <trkpt lat="28.3850370" lon="-16.4639180">
        <ele>1460.9</ele>
        <time>2020-11-11T12:53:35Z</time>
      </trkpt>
      <trkpt lat="28.3850450" lon="-16.4639330">
        <ele>1460.9</ele>
        <time>2020-11-11T12:53:36Z</time>
      </trkpt>
      <trkpt lat="28.3850450" lon="-16.4639330">
        <ele>1460.9</ele>
        <time>2020-11-11T12:53:37Z</time>
      </trkpt>
      <trkpt lat="28.3850170" lon="-16.4639720">
        <ele>1460.9</ele>
        <time>2020-11-11T12:53:38Z</time>
      </trkpt>
      <trkpt lat="28.3850170" lon="-16.4639720">
        <ele>1460.9</ele>
        <time>2020-11-11T12:53:39Z</time>
      </trkpt>
      <trkpt lat="28.3850000" lon="-16.4640270">
        <ele>1460.9</ele>
        <time>2020-11-11T12:53:40Z</time>
      </trkpt>
      <trkpt lat="28.3849920" lon="-16.4640500">
        <ele>1460.9</ele>
        <time>2020-11-11T12:53:41Z</time>
      </trkpt>
      <trkpt lat="28.3849920" lon="-16.4640500">
        <ele>1460.9</ele>
        <time>2020-11-11T12:53:42Z</time>
      </trkpt>
      <trkpt lat="28.3849870" lon="-16.4640900">
        <ele>1460.9</ele>
        <time>2020-11-11T12:53:43Z</time>
      </trkpt>
      <trkpt lat="28.3849870" lon="-16.4640900">
        <ele>1461.9</ele>
        <time>2020-11-11T12:53:44Z</time>
      </trkpt>
      <trkpt lat="28.3849930" lon="-16.4641570">
        <ele>1461.9</ele>
        <time>2020-11-11T12:53:45Z</time>
      </trkpt>
      <trkpt lat="28.3849980" lon="-16.4641850">
        <ele>1461.9</ele>
        <time>2020-11-11T12:53:46Z</time>
      </trkpt>
      <trkpt lat="28.3849980" lon="-16.4641850">
        <ele>1461.9</ele>
        <time>2020-11-11T12:53:47Z</time>
      </trkpt>
      <trkpt lat="28.3849950" lon="-16.4642370">
        <ele>1461.9</ele>
        <time>2020-11-11T12:53:48Z</time>
      </trkpt>
      <trkpt lat="28.3849950" lon="-16.4642370">
        <ele>1461.9</ele>
        <time>2020-11-11T12:53:49Z</time>
      </trkpt>
      <trkpt lat="28.3849530" lon="-16.4642900">
        <ele>1461.9</ele>
        <time>2020-11-11T12:53:50Z</time>
      </trkpt>
      <trkpt lat="28.3849350" lon="-16.4643230">
        <ele>1461.9</ele>
        <time>2020-11-11T12:53:51Z</time>
      </trkpt>
      <trkpt lat="28.3849250" lon="-16.4643520">
        <ele>1461.9</ele>
        <time>2020-11-11T12:53:52Z</time>
      </trkpt>
      <trkpt lat="28.3849250" lon="-16.4643520">
        <ele>1461.9</ele>
        <time>2020-11-11T12:53:53Z</time>
      </trkpt>
      <trkpt lat="28.3849180" lon="-16.4644030">
        <ele>1461.9</ele>
        <time>2020-11-11T12:53:54Z</time>
      </trkpt>
      <trkpt lat="28.3849230" lon="-16.4644300">
        <ele>1461.9</ele>
        <time>2020-11-11T12:53:55Z</time>
      </trkpt>
      <trkpt lat="28.3849230" lon="-16.4644300">
        <ele>1461.9</ele>
        <time>2020-11-11T12:53:56Z</time>
      </trkpt>
      <trkpt lat="28.3849180" lon="-16.4644720">
        <ele>1462.9</ele>
        <time>2020-11-11T12:53:57Z</time>
      </trkpt>
      <trkpt lat="28.3849180" lon="-16.4644720">
        <ele>1462.9</ele>
        <time>2020-11-11T12:53:58Z</time>
      </trkpt>
      <trkpt lat="28.3849170" lon="-16.4645080">
        <ele>1462.9</ele>
        <time>2020-11-11T12:53:59Z</time>
      </trkpt>
      <trkpt lat="28.3849170" lon="-16.4645080">
        <ele>1462.9</ele>
        <time>2020-11-11T12:54:00Z</time>
      </trkpt>
      <trkpt lat="28.3849120" lon="-16.4645450">
        <ele>1462.9</ele>
        <time>2020-11-11T12:54:01Z</time>
      </trkpt>
      <trkpt lat="28.3849120" lon="-16.4645450">
        <ele>1462.9</ele>
        <time>2020-11-11T12:54:02Z</time>
      </trkpt>
      <trkpt lat="28.3848920" lon="-16.4645880">
        <ele>1463.9</ele>
        <time>2020-11-11T12:54:03Z</time>
      </trkpt>
      <trkpt lat="28.3848920" lon="-16.4645880">
        <ele>1463.9</ele>
        <time>2020-11-11T12:54:04Z</time>
      </trkpt>
      <trkpt lat="28.3848800" lon="-16.4646220">
        <ele>1463.9</ele>
        <time>2020-11-11T12:54:05Z</time>
      </trkpt>
      <trkpt lat="28.3848800" lon="-16.4646220">
        <ele>1463.9</ele>
        <time>2020-11-11T12:54:06Z</time>
      </trkpt>
      <trkpt lat="28.3848720" lon="-16.4646300">
        <ele>1463.9</ele>
        <time>2020-11-11T12:54:07Z</time>
      </trkpt>
      <trkpt lat="28.3848430" lon="-16.4646450">
        <ele>1463.9</ele>
        <time>2020-11-11T12:54:08Z</time>
      </trkpt>
      <trkpt lat="28.3848430" lon="-16.4646450">
        <ele>1464.9</ele>
        <time>2020-11-11T12:54:09Z</time>
      </trkpt>
      <trkpt lat="28.3847970" lon="-16.4646800">
        <ele>1464.9</ele>
        <time>2020-11-11T12:54:10Z</time>
      </trkpt>
      <trkpt lat="28.3847970" lon="-16.4646800">
        <ele>1464.9</ele>
        <time>2020-11-11T12:54:11Z</time>
      </trkpt>
      <trkpt lat="28.3847600" lon="-16.4647180">
        <ele>1465.9</ele>
        <time>2020-11-11T12:54:12Z</time>
      </trkpt>
      <trkpt lat="28.3847580" lon="-16.4647470">
        <ele>1465.9</ele>
        <time>2020-11-11T12:54:13Z</time>
      </trkpt>
      <trkpt lat="28.3847580" lon="-16.4647470">
        <ele>1465.9</ele>
        <time>2020-11-11T12:54:14Z</time>
      </trkpt>
      <trkpt lat="28.3847400" lon="-16.4647830">
        <ele>1465.9</ele>
        <time>2020-11-11T12:54:15Z</time>
      </trkpt>
      <trkpt lat="28.3847400" lon="-16.4647830">
        <ele>1465.9</ele>
        <time>2020-11-11T12:54:16Z</time>
      </trkpt>
      <trkpt lat="28.3847150" lon="-16.4648080">
        <ele>1465.9</ele>
        <time>2020-11-11T12:54:17Z</time>
      </trkpt>
      <trkpt lat="28.3847030" lon="-16.4648280">
        <ele>1465.9</ele>
        <time>2020-11-11T12:54:18Z</time>
      </trkpt>
      <trkpt lat="28.3847030" lon="-16.4648280">
        <ele>1465.9</ele>
        <time>2020-11-11T12:54:19Z</time>
      </trkpt>
      <trkpt lat="28.3846820" lon="-16.4648780">
        <ele>1466.9</ele>
        <time>2020-11-11T12:54:20Z</time>
      </trkpt>
      <trkpt lat="28.3846820" lon="-16.4648780">
        <ele>1466.9</ele>
        <time>2020-11-11T12:54:21Z</time>
      </trkpt>
      <trkpt lat="28.3846470" lon="-16.4649200">
        <ele>1466.9</ele>
        <time>2020-11-11T12:54:22Z</time>
      </trkpt>
      <trkpt lat="28.3846220" lon="-16.4649400">
        <ele>1466.9</ele>
        <time>2020-11-11T12:54:23Z</time>
      </trkpt>
      <trkpt lat="28.3846220" lon="-16.4649400">
        <ele>1466.9</ele>
        <time>2020-11-11T12:54:24Z</time>
      </trkpt>
      <trkpt lat="28.3846080" lon="-16.4649750">
        <ele>1466.9</ele>
        <time>2020-11-11T12:54:25Z</time>
      </trkpt>
      <trkpt lat="28.3846080" lon="-16.4649750">
        <ele>1467.9</ele>
        <time>2020-11-11T12:54:26Z</time>
      </trkpt>
      <trkpt lat="28.3846000" lon="-16.4650050">
        <ele>1467.9</ele>
        <time>2020-11-11T12:54:27Z</time>
      </trkpt>
      <trkpt lat="28.3845880" lon="-16.4650150">
        <ele>1467.9</ele>
        <time>2020-11-11T12:54:28Z</time>
      </trkpt>
      <trkpt lat="28.3845780" lon="-16.4650250">
        <ele>1467.9</ele>
        <time>2020-11-11T12:54:29Z</time>
      </trkpt>
      <trkpt lat="28.3845780" lon="-16.4650250">
        <ele>1467.9</ele>
        <time>2020-11-11T12:54:30Z</time>
      </trkpt>
      <trkpt lat="28.3845430" lon="-16.4650430">
        <ele>1467.9</ele>
        <time>2020-11-11T12:54:31Z</time>
      </trkpt>
      <trkpt lat="28.3845430" lon="-16.4650430">
        <ele>1467.9</ele>
        <time>2020-11-11T12:54:32Z</time>
      </trkpt>
      <trkpt lat="28.3845200" lon="-16.4650550">
        <ele>1467.9</ele>
        <time>2020-11-11T12:54:33Z</time>
      </trkpt>
      <trkpt lat="28.3845030" lon="-16.4650650">
        <ele>1467.9</ele>
        <time>2020-11-11T12:54:34Z</time>
      </trkpt>
      <trkpt lat="28.3845030" lon="-16.4650650">
        <ele>1467.9</ele>
        <time>2020-11-11T12:54:35Z</time>
      </trkpt>
      <trkpt lat="28.3844800" lon="-16.4650770">
        <ele>1468.9</ele>
        <time>2020-11-11T12:54:36Z</time>
      </trkpt>
      <trkpt lat="28.3844800" lon="-16.4650770">
        <ele>1468.9</ele>
        <time>2020-11-11T12:54:37Z</time>
      </trkpt>
      <trkpt lat="28.3844700" lon="-16.4650920">
        <ele>1468.9</ele>
        <time>2020-11-11T12:54:38Z</time>
      </trkpt>
      <trkpt lat="28.3844520" lon="-16.4651000">
        <ele>1468.9</ele>
        <time>2020-11-11T12:54:39Z</time>
      </trkpt>
      <trkpt lat="28.3844520" lon="-16.4651000">
        <ele>1469.9</ele>
        <time>2020-11-11T12:54:40Z</time>
      </trkpt>
      <trkpt lat="28.3844080" lon="-16.4651130">
        <ele>1469.9</ele>
        <time>2020-11-11T12:54:41Z</time>
      </trkpt>
      <trkpt lat="28.3843980" lon="-16.4651270">
        <ele>1469.9</ele>
        <time>2020-11-11T12:54:42Z</time>
      </trkpt>
      <trkpt lat="28.3843980" lon="-16.4651270">
        <ele>1469.9</ele>
        <time>2020-11-11T12:54:43Z</time>
      </trkpt>
      <trkpt lat="28.3843550" lon="-16.4651330">
        <ele>1469.9</ele>
        <time>2020-11-11T12:54:44Z</time>
      </trkpt>
      <trkpt lat="28.3843350" lon="-16.4651380">
        <ele>1469.9</ele>
        <time>2020-11-11T12:54:45Z</time>
      </trkpt>
      <trkpt lat="28.3843350" lon="-16.4651380">
        <ele>1469.9</ele>
        <time>2020-11-11T12:54:46Z</time>
      </trkpt>
      <trkpt lat="28.3842970" lon="-16.4651420">
        <ele>1470.9</ele>
        <time>2020-11-11T12:54:47Z</time>
      </trkpt>
      <trkpt lat="28.3842970" lon="-16.4651420">
        <ele>1470.9</ele>
        <time>2020-11-11T12:54:48Z</time>
      </trkpt>
      <trkpt lat="28.3842600" lon="-16.4651470">
        <ele>1470.9</ele>
        <time>2020-11-11T12:54:49Z</time>
      </trkpt>
      <trkpt lat="28.3842600" lon="-16.4651470">
        <ele>1470.9</ele>
        <time>2020-11-11T12:54:50Z</time>
      </trkpt>
      <trkpt lat="28.3842230" lon="-16.4651470">
        <ele>1470.9</ele>
        <time>2020-11-11T12:54:51Z</time>
      </trkpt>
      <trkpt lat="28.3842080" lon="-16.4651480">
        <ele>1470.9</ele>
        <time>2020-11-11T12:54:52Z</time>
      </trkpt>
      <trkpt lat="28.3842080" lon="-16.4651480">
        <ele>1471.9</ele>
        <time>2020-11-11T12:54:53Z</time>
      </trkpt>
      <trkpt lat="28.3841870" lon="-16.4651630">
        <ele>1471.9</ele>
        <time>2020-11-11T12:54:54Z</time>
      </trkpt>
      <trkpt lat="28.3841830" lon="-16.4651720">
        <ele>1471.9</ele>
        <time>2020-11-11T12:54:55Z</time>
      </trkpt>
      <trkpt lat="28.3841830" lon="-16.4651720">
        <ele>1471.9</ele>
        <time>2020-11-11T12:54:56Z</time>
      </trkpt>
      <trkpt lat="28.3841730" lon="-16.4651670">
        <ele>1471.9</ele>
        <time>2020-11-11T12:54:57Z</time>
      </trkpt>
      <trkpt lat="28.3841730" lon="-16.4651670">
        <ele>1471.9</ele>
        <time>2020-11-11T12:54:58Z</time>
      </trkpt>
      <trkpt lat="28.3841300" lon="-16.4651580">
        <ele>1471.9</ele>
        <time>2020-11-11T12:54:59Z</time>
      </trkpt>
      <trkpt lat="28.3841300" lon="-16.4651580">
        <ele>1471.9</ele>
        <time>2020-11-11T12:55:00Z</time>
      </trkpt>
      <trkpt lat="28.3840870" lon="-16.4651620">
        <ele>1471.9</ele>
        <time>2020-11-11T12:55:01Z</time>
      </trkpt>
      <trkpt lat="28.3840870" lon="-16.4651620">
        <ele>1471.9</ele>
        <time>2020-11-11T12:55:02Z</time>
      </trkpt>
      <trkpt lat="28.3840420" lon="-16.4651670">
        <ele>1471.9</ele>
        <time>2020-11-11T12:55:03Z</time>
      </trkpt>
      <trkpt lat="28.3840420" lon="-16.4651670">
        <ele>1471.9</ele>
        <time>2020-11-11T12:55:04Z</time>
      </trkpt>
      <trkpt lat="28.3839970" lon="-16.4651680">
        <ele>1472.9</ele>
        <time>2020-11-11T12:55:05Z</time>
      </trkpt>
      <trkpt lat="28.3839770" lon="-16.4651670">
        <ele>1472.9</ele>
        <time>2020-11-11T12:55:06Z</time>
      </trkpt>
      <trkpt lat="28.3839770" lon="-16.4651670">
        <ele>1472.9</ele>
        <time>2020-11-11T12:55:07Z</time>
      </trkpt>
      <trkpt lat="28.3839450" lon="-16.4651670">
        <ele>1472.9</ele>
        <time>2020-11-11T12:55:08Z</time>
      </trkpt>
      <trkpt lat="28.3839450" lon="-16.4651670">
        <ele>1473.9</ele>
        <time>2020-11-11T12:55:09Z</time>
      </trkpt>
      <trkpt lat="28.3839050" lon="-16.4651600">
        <ele>1473.9</ele>
        <time>2020-11-11T12:55:10Z</time>
      </trkpt>
      <trkpt lat="28.3839050" lon="-16.4651600">
        <ele>1473.9</ele>
        <time>2020-11-11T12:55:11Z</time>
      </trkpt>
      <trkpt lat="28.3838650" lon="-16.4651550">
        <ele>1473.9</ele>
        <time>2020-11-11T12:55:12Z</time>
      </trkpt>
      <trkpt lat="28.3838650" lon="-16.4651550">
        <ele>1473.9</ele>
        <time>2020-11-11T12:55:13Z</time>
      </trkpt>
      <trkpt lat="28.3838330" lon="-16.4651530">
        <ele>1473.9</ele>
        <time>2020-11-11T12:55:14Z</time>
      </trkpt>
      <trkpt lat="28.3838330" lon="-16.4651530">
        <ele>1474.9</ele>
        <time>2020-11-11T12:55:15Z</time>
      </trkpt>
      <trkpt lat="28.3838030" lon="-16.4651530">
        <ele>1474.9</ele>
        <time>2020-11-11T12:55:16Z</time>
      </trkpt>
      <trkpt lat="28.3838030" lon="-16.4651530">
        <ele>1474.9</ele>
        <time>2020-11-11T12:55:17Z</time>
      </trkpt>
      <trkpt lat="28.3837780" lon="-16.4651380">
        <ele>1474.9</ele>
        <time>2020-11-11T12:55:18Z</time>
      </trkpt>
      <trkpt lat="28.3837620" lon="-16.4651350">
        <ele>1474.9</ele>
        <time>2020-11-11T12:55:19Z</time>
      </trkpt>
      <trkpt lat="28.3837620" lon="-16.4651350">
        <ele>1474.9</ele>
        <time>2020-11-11T12:55:20Z</time>
      </trkpt>
      <trkpt lat="28.3837230" lon="-16.4651300">
        <ele>1475.9</ele>
        <time>2020-11-11T12:55:21Z</time>
      </trkpt>
      <trkpt lat="28.3837230" lon="-16.4651300">
        <ele>1475.9</ele>
        <time>2020-11-11T12:55:22Z</time>
      </trkpt>
      <trkpt lat="28.3836820" lon="-16.4651130">
        <ele>1475.9</ele>
        <time>2020-11-11T12:55:23Z</time>
      </trkpt>
      <trkpt lat="28.3836630" lon="-16.4651030">
        <ele>1475.9</ele>
        <time>2020-11-11T12:55:24Z</time>
      </trkpt>
      <trkpt lat="28.3836500" lon="-16.4650970">
        <ele>1475.9</ele>
        <time>2020-11-11T12:55:25Z</time>
      </trkpt>
      <trkpt lat="28.3836500" lon="-16.4650970">
        <ele>1475.9</ele>
        <time>2020-11-11T12:55:26Z</time>
      </trkpt>
      <trkpt lat="28.3836230" lon="-16.4650870">
        <ele>1475.9</ele>
        <time>2020-11-11T12:55:27Z</time>
      </trkpt>
      <trkpt lat="28.3836030" lon="-16.4650820">
        <ele>1475.9</ele>
        <time>2020-11-11T12:55:28Z</time>
      </trkpt>
      <trkpt lat="28.3836030" lon="-16.4650820">
        <ele>1475.9</ele>
        <time>2020-11-11T12:55:29Z</time>
      </trkpt>
      <trkpt lat="28.3835650" lon="-16.4650750">
        <ele>1476.9</ele>
        <time>2020-11-11T12:55:30Z</time>
      </trkpt>
      <trkpt lat="28.3835650" lon="-16.4650750">
        <ele>1476.9</ele>
        <time>2020-11-11T12:55:31Z</time>
      </trkpt>
      <trkpt lat="28.3835280" lon="-16.4650720">
        <ele>1476.9</ele>
        <time>2020-11-11T12:55:32Z</time>
      </trkpt>
      <trkpt lat="28.3835130" lon="-16.4650780">
        <ele>1476.9</ele>
        <time>2020-11-11T12:55:33Z</time>
      </trkpt>
      <trkpt lat="28.3835130" lon="-16.4650780">
        <ele>1476.9</ele>
        <time>2020-11-11T12:55:34Z</time>
      </trkpt>
      <trkpt lat="28.3834820" lon="-16.4650900">
        <ele>1476.9</ele>
        <time>2020-11-11T12:55:35Z</time>
      </trkpt>
      <trkpt lat="28.3834820" lon="-16.4650900">
        <ele>1476.9</ele>
        <time>2020-11-11T12:55:36Z</time>
      </trkpt>
      <trkpt lat="28.3834520" lon="-16.4651030">
        <ele>1476.9</ele>
        <time>2020-11-11T12:55:37Z</time>
      </trkpt>
      <trkpt lat="28.3834380" lon="-16.4651130">
        <ele>1476.9</ele>
        <time>2020-11-11T12:55:38Z</time>
      </trkpt>
      <trkpt lat="28.3834380" lon="-16.4651130">
        <ele>1476.9</ele>
        <time>2020-11-11T12:55:39Z</time>
      </trkpt>
      <trkpt lat="28.3834330" lon="-16.4651500">
        <ele>1476.9</ele>
        <time>2020-11-11T12:55:40Z</time>
      </trkpt>
      <trkpt lat="28.3834330" lon="-16.4651500">
        <ele>1476.9</ele>
        <time>2020-11-11T12:55:41Z</time>
      </trkpt>
      <trkpt lat="28.3834270" lon="-16.4651700">
        <ele>1477.9</ele>
        <time>2020-11-11T12:55:42Z</time>
      </trkpt>
      <trkpt lat="28.3834050" lon="-16.4651970">
        <ele>1477.9</ele>
        <time>2020-11-11T12:55:43Z</time>
      </trkpt>
      <trkpt lat="28.3834050" lon="-16.4651970">
        <ele>1477.9</ele>
        <time>2020-11-11T12:55:44Z</time>
      </trkpt>
      <trkpt lat="28.3833780" lon="-16.4652300">
        <ele>1477.9</ele>
        <time>2020-11-11T12:55:45Z</time>
      </trkpt>
      <trkpt lat="28.3833580" lon="-16.4652420">
        <ele>1478.9</ele>
        <time>2020-11-11T12:55:46Z</time>
      </trkpt>
      <trkpt lat="28.3833450" lon="-16.4652500">
        <ele>1478.9</ele>
        <time>2020-11-11T12:55:47Z</time>
      </trkpt>
      <trkpt lat="28.3833450" lon="-16.4652500">
        <ele>1478.9</ele>
        <time>2020-11-11T12:55:48Z</time>
      </trkpt>
      <trkpt lat="28.3833350" lon="-16.4652770">
        <ele>1478.9</ele>
        <time>2020-11-11T12:55:49Z</time>
      </trkpt>
      <trkpt lat="28.3833350" lon="-16.4652770">
        <ele>1478.9</ele>
        <time>2020-11-11T12:55:50Z</time>
      </trkpt>
      <trkpt lat="28.3833150" lon="-16.4652980">
        <ele>1478.9</ele>
        <time>2020-11-11T12:55:51Z</time>
      </trkpt>
      <trkpt lat="28.3833150" lon="-16.4652980">
        <ele>1478.9</ele>
        <time>2020-11-11T12:55:52Z</time>
      </trkpt>
      <trkpt lat="28.3832930" lon="-16.4653330">
        <ele>1479.9</ele>
        <time>2020-11-11T12:55:53Z</time>
      </trkpt>
      <trkpt lat="28.3832800" lon="-16.4653450">
        <ele>1479.9</ele>
        <time>2020-11-11T12:55:54Z</time>
      </trkpt>
      <trkpt lat="28.3832800" lon="-16.4653450">
        <ele>1479.9</ele>
        <time>2020-11-11T12:55:55Z</time>
      </trkpt>
      <trkpt lat="28.3832500" lon="-16.4653670">
        <ele>1479.9</ele>
        <time>2020-11-11T12:55:56Z</time>
      </trkpt>
      <trkpt lat="28.3832500" lon="-16.4653670">
        <ele>1479.9</ele>
        <time>2020-11-11T12:55:57Z</time>
      </trkpt>
      <trkpt lat="28.3832300" lon="-16.4653980">
        <ele>1479.9</ele>
        <time>2020-11-11T12:55:58Z</time>
      </trkpt>
      <trkpt lat="28.3832300" lon="-16.4653980">
        <ele>1480.9</ele>
        <time>2020-11-11T12:55:59Z</time>
      </trkpt>
      <trkpt lat="28.3832180" lon="-16.4654330">
        <ele>1480.9</ele>
        <time>2020-11-11T12:56:00Z</time>
      </trkpt>
      <trkpt lat="28.3832180" lon="-16.4654330">
        <ele>1480.9</ele>
        <time>2020-11-11T12:56:01Z</time>
      </trkpt>
      <trkpt lat="28.3831720" lon="-16.4654820">
        <ele>1480.9</ele>
        <time>2020-11-11T12:56:02Z</time>
      </trkpt>
      <trkpt lat="28.3831720" lon="-16.4654820">
        <ele>1480.9</ele>
        <time>2020-11-11T12:56:03Z</time>
      </trkpt>
      <trkpt lat="28.3831470" lon="-16.4654900">
        <ele>1480.9</ele>
        <time>2020-11-11T12:56:04Z</time>
      </trkpt>
      <trkpt lat="28.3831470" lon="-16.4654900">
        <ele>1481.9</ele>
        <time>2020-11-11T12:56:05Z</time>
      </trkpt>
      <trkpt lat="28.3831250" lon="-16.4655020">
        <ele>1481.9</ele>
        <time>2020-11-11T12:56:06Z</time>
      </trkpt>
      <trkpt lat="28.3831030" lon="-16.4655070">
        <ele>1481.9</ele>
        <time>2020-11-11T12:56:07Z</time>
      </trkpt>
      <trkpt lat="28.3831030" lon="-16.4655070">
        <ele>1481.9</ele>
        <time>2020-11-11T12:56:08Z</time>
      </trkpt>
      <trkpt lat="28.3830670" lon="-16.4655050">
        <ele>1481.9</ele>
        <time>2020-11-11T12:56:09Z</time>
      </trkpt>
      <trkpt lat="28.3830500" lon="-16.4655050">
        <ele>1481.9</ele>
        <time>2020-11-11T12:56:10Z</time>
      </trkpt>
      <trkpt lat="28.3830500" lon="-16.4655050">
        <ele>1482.9</ele>
        <time>2020-11-11T12:56:11Z</time>
      </trkpt>
      <trkpt lat="28.3830100" lon="-16.4655050">
        <ele>1482.9</ele>
        <time>2020-11-11T12:56:12Z</time>
      </trkpt>
      <trkpt lat="28.3830100" lon="-16.4655050">
        <ele>1482.9</ele>
        <time>2020-11-11T12:56:13Z</time>
      </trkpt>
      <trkpt lat="28.3829850" lon="-16.4655120">
        <ele>1482.9</ele>
        <time>2020-11-11T12:56:14Z</time>
      </trkpt>
      <trkpt lat="28.3829680" lon="-16.4655130">
        <ele>1483.9</ele>
        <time>2020-11-11T12:56:15Z</time>
      </trkpt>
      <trkpt lat="28.3829550" lon="-16.4655150">
        <ele>1483.9</ele>
        <time>2020-11-11T12:56:16Z</time>
      </trkpt>
      <trkpt lat="28.3829550" lon="-16.4655150">
        <ele>1483.9</ele>
        <time>2020-11-11T12:56:17Z</time>
      </trkpt>
      <trkpt lat="28.3829220" lon="-16.4655150">
        <ele>1483.9</ele>
        <time>2020-11-11T12:56:18Z</time>
      </trkpt>
      <trkpt lat="28.3829220" lon="-16.4655150">
        <ele>1483.9</ele>
        <time>2020-11-11T12:56:19Z</time>
      </trkpt>
      <trkpt lat="28.3828820" lon="-16.4655180">
        <ele>1483.9</ele>
        <time>2020-11-11T12:56:20Z</time>
      </trkpt>
      <trkpt lat="28.3828600" lon="-16.4655220">
        <ele>1484.9</ele>
        <time>2020-11-11T12:56:21Z</time>
      </trkpt>
      <trkpt lat="28.3828600" lon="-16.4655220">
        <ele>1484.9</ele>
        <time>2020-11-11T12:56:22Z</time>
      </trkpt>
      <trkpt lat="28.3828200" lon="-16.4655320">
        <ele>1484.9</ele>
        <time>2020-11-11T12:56:23Z</time>
      </trkpt>
      <trkpt lat="28.3828200" lon="-16.4655320">
        <ele>1484.9</ele>
        <time>2020-11-11T12:56:24Z</time>
      </trkpt>
      <trkpt lat="28.3827830" lon="-16.4655400">
        <ele>1485.9</ele>
        <time>2020-11-11T12:56:25Z</time>
      </trkpt>
      <trkpt lat="28.3827830" lon="-16.4655400">
        <ele>1485.9</ele>
        <time>2020-11-11T12:56:26Z</time>
      </trkpt>
      <trkpt lat="28.3827630" lon="-16.4655730">
        <ele>1485.9</ele>
        <time>2020-11-11T12:56:27Z</time>
      </trkpt>
      <trkpt lat="28.3827630" lon="-16.4655730">
        <ele>1485.9</ele>
        <time>2020-11-11T12:56:28Z</time>
      </trkpt>
      <trkpt lat="28.3827580" lon="-16.4656250">
        <ele>1485.9</ele>
        <time>2020-11-11T12:56:29Z</time>
      </trkpt>
      <trkpt lat="28.3827580" lon="-16.4656250">
        <ele>1485.9</ele>
        <time>2020-11-11T12:56:30Z</time>
      </trkpt>
      <trkpt lat="28.3827750" lon="-16.4656570">
        <ele>1485.9</ele>
        <time>2020-11-11T12:56:31Z</time>
      </trkpt>
      <trkpt lat="28.3827750" lon="-16.4656570">
        <ele>1485.9</ele>
        <time>2020-11-11T12:56:32Z</time>
      </trkpt>
      <trkpt lat="28.3827920" lon="-16.4656950">
        <ele>1486.9</ele>
        <time>2020-11-11T12:56:33Z</time>
      </trkpt>
      <trkpt lat="28.3827920" lon="-16.4657130">
        <ele>1486.9</ele>
        <time>2020-11-11T12:56:34Z</time>
      </trkpt>
      <trkpt lat="28.3827920" lon="-16.4657130">
        <ele>1486.9</ele>
        <time>2020-11-11T12:56:35Z</time>
      </trkpt>
      <trkpt lat="28.3828050" lon="-16.4657380">
        <ele>1486.9</ele>
        <time>2020-11-11T12:56:36Z</time>
      </trkpt>
      <trkpt lat="28.3828200" lon="-16.4657530">
        <ele>1486.9</ele>
        <time>2020-11-11T12:56:37Z</time>
      </trkpt>
      <trkpt lat="28.3828200" lon="-16.4657530">
        <ele>1486.9</ele>
        <time>2020-11-11T12:56:38Z</time>
      </trkpt>
      <trkpt lat="28.3828400" lon="-16.4657680">
        <ele>1486.9</ele>
        <time>2020-11-11T12:56:39Z</time>
      </trkpt>
      <trkpt lat="28.3828400" lon="-16.4657680">
        <ele>1486.9</ele>
        <time>2020-11-11T12:56:40Z</time>
      </trkpt>
      <trkpt lat="28.3828750" lon="-16.4658020">
        <ele>1486.9</ele>
        <time>2020-11-11T12:56:41Z</time>
      </trkpt>
      <trkpt lat="28.3828830" lon="-16.4658200">
        <ele>1488.9</ele>
        <time>2020-11-11T12:56:42Z</time>
      </trkpt>
      <trkpt lat="28.3828830" lon="-16.4658200">
        <ele>1488.9</ele>
        <time>2020-11-11T12:56:43Z</time>
      </trkpt>
      <trkpt lat="28.3828800" lon="-16.4658700">
        <ele>1488.9</ele>
        <time>2020-11-11T12:56:44Z</time>
      </trkpt>
      <trkpt lat="28.3828800" lon="-16.4658700">
        <ele>1488.9</ele>
        <time>2020-11-11T12:56:45Z</time>
      </trkpt>
      <trkpt lat="28.3828720" lon="-16.4659020">
        <ele>1488.9</ele>
        <time>2020-11-11T12:56:46Z</time>
      </trkpt>
      <trkpt lat="28.3828630" lon="-16.4659100">
        <ele>1488.9</ele>
        <time>2020-11-11T12:56:47Z</time>
      </trkpt>
      <trkpt lat="28.3828630" lon="-16.4659100">
        <ele>1489.9</ele>
        <time>2020-11-11T12:56:48Z</time>
      </trkpt>
      <trkpt lat="28.3828420" lon="-16.4659300">
        <ele>1489.9</ele>
        <time>2020-11-11T12:56:49Z</time>
      </trkpt>
      <trkpt lat="28.3828420" lon="-16.4659300">
        <ele>1489.9</ele>
        <time>2020-11-11T12:56:50Z</time>
      </trkpt>
      <trkpt lat="28.3828200" lon="-16.4659350">
        <ele>1489.9</ele>
        <time>2020-11-11T12:56:51Z</time>
      </trkpt>
      <trkpt lat="28.3828120" lon="-16.4659280">
        <ele>1490.9</ele>
        <time>2020-11-11T12:56:52Z</time>
      </trkpt>
      <trkpt lat="28.3828120" lon="-16.4659280">
        <ele>1490.9</ele>
        <time>2020-11-11T12:56:53Z</time>
      </trkpt>
      <trkpt lat="28.3827980" lon="-16.4659120">
        <ele>1490.9</ele>
        <time>2020-11-11T12:56:54Z</time>
      </trkpt>
      <trkpt lat="28.3828000" lon="-16.4659000">
        <ele>1490.9</ele>
        <time>2020-11-11T12:56:55Z</time>
      </trkpt>
      <trkpt lat="28.3828000" lon="-16.4659000">
        <ele>1490.9</ele>
        <time>2020-11-11T12:56:56Z</time>
      </trkpt>
      <trkpt lat="28.3827980" lon="-16.4658900">
        <ele>1490.9</ele>
        <time>2020-11-11T12:56:57Z</time>
      </trkpt>
      <trkpt lat="28.3827950" lon="-16.4658850">
        <ele>1491.9</ele>
        <time>2020-11-11T12:56:58Z</time>
      </trkpt>
      <trkpt lat="28.3827950" lon="-16.4658850">
        <ele>1491.9</ele>
        <time>2020-11-11T12:56:59Z</time>
      </trkpt>
      <trkpt lat="28.3827880" lon="-16.4658780">
        <ele>1491.9</ele>
        <time>2020-11-11T12:57:00Z</time>
      </trkpt>
      <trkpt lat="28.3827770" lon="-16.4658680">
        <ele>1491.9</ele>
        <time>2020-11-11T12:57:01Z</time>
      </trkpt>
      <trkpt lat="28.3827770" lon="-16.4658680">
        <ele>1492.9</ele>
        <time>2020-11-11T12:57:02Z</time>
      </trkpt>
      <trkpt lat="28.3827480" lon="-16.4658670">
        <ele>1492.9</ele>
        <time>2020-11-11T12:57:03Z</time>
      </trkpt>
      <trkpt lat="28.3827480" lon="-16.4658670">
        <ele>1492.9</ele>
        <time>2020-11-11T12:57:04Z</time>
      </trkpt>
      <trkpt lat="28.3827320" lon="-16.4658700">
        <ele>1492.9</ele>
        <time>2020-11-11T12:57:05Z</time>
      </trkpt>
      <trkpt lat="28.3827230" lon="-16.4658630">
        <ele>1492.9</ele>
        <time>2020-11-11T12:57:06Z</time>
      </trkpt>
      <trkpt lat="28.3827230" lon="-16.4658630">
        <ele>1492.9</ele>
        <time>2020-11-11T12:57:07Z</time>
      </trkpt>
      <trkpt lat="28.3826930" lon="-16.4658420">
        <ele>1492.9</ele>
        <time>2020-11-11T12:57:08Z</time>
      </trkpt>
      <trkpt lat="28.3826820" lon="-16.4658320">
        <ele>1492.9</ele>
        <time>2020-11-11T12:57:09Z</time>
      </trkpt>
      <trkpt lat="28.3826820" lon="-16.4658320">
        <ele>1492.9</ele>
        <time>2020-11-11T12:57:10Z</time>
      </trkpt>
      <trkpt lat="28.3826470" lon="-16.4658030">
        <ele>1492.9</ele>
        <time>2020-11-11T12:57:11Z</time>
      </trkpt>
      <trkpt lat="28.3826470" lon="-16.4658030">
        <ele>1493.9</ele>
        <time>2020-11-11T12:57:12Z</time>
      </trkpt>
      <trkpt lat="28.3826130" lon="-16.4657800">
        <ele>1493.9</ele>
        <time>2020-11-11T12:57:13Z</time>
      </trkpt>
      <trkpt lat="28.3826130" lon="-16.4657800">
        <ele>1493.9</ele>
        <time>2020-11-11T12:57:14Z</time>
      </trkpt>
      <trkpt lat="28.3825880" lon="-16.4657580">
        <ele>1493.9</ele>
        <time>2020-11-11T12:57:15Z</time>
      </trkpt>
      <trkpt lat="28.3825800" lon="-16.4657570">
        <ele>1493.9</ele>
        <time>2020-11-11T12:57:16Z</time>
      </trkpt>
      <trkpt lat="28.3825800" lon="-16.4657570">
        <ele>1493.9</ele>
        <time>2020-11-11T12:57:17Z</time>
      </trkpt>
      <trkpt lat="28.3825670" lon="-16.4657400">
        <ele>1494.9</ele>
        <time>2020-11-11T12:57:18Z</time>
      </trkpt>
      <trkpt lat="28.3825550" lon="-16.4657330">
        <ele>1494.9</ele>
        <time>2020-11-11T12:57:19Z</time>
      </trkpt>
      <trkpt lat="28.3825550" lon="-16.4657330">
        <ele>1494.9</ele>
        <time>2020-11-11T12:57:20Z</time>
      </trkpt>
      <trkpt lat="28.3825230" lon="-16.4656980">
        <ele>1494.9</ele>
        <time>2020-11-11T12:57:21Z</time>
      </trkpt>
      <trkpt lat="28.3825230" lon="-16.4656980">
        <ele>1495.9</ele>
        <time>2020-11-11T12:57:22Z</time>
      </trkpt>
      <trkpt lat="28.3824980" lon="-16.4656670">
        <ele>1495.9</ele>
        <time>2020-11-11T12:57:23Z</time>
      </trkpt>
      <trkpt lat="28.3824850" lon="-16.4656570">
        <ele>1495.9</ele>
        <time>2020-11-11T12:57:24Z</time>
      </trkpt>
      <trkpt lat="28.3824850" lon="-16.4656570">
        <ele>1495.9</ele>
        <time>2020-11-11T12:57:25Z</time>
      </trkpt>
      <trkpt lat="28.3824500" lon="-16.4656370">
        <ele>1496.9</ele>
        <time>2020-11-11T12:57:26Z</time>
      </trkpt>
      <trkpt lat="28.3824330" lon="-16.4656220">
        <ele>1496.9</ele>
        <time>2020-11-11T12:57:27Z</time>
      </trkpt>
      <trkpt lat="28.3824330" lon="-16.4656220">
        <ele>1496.9</ele>
        <time>2020-11-11T12:57:28Z</time>
      </trkpt>
      <trkpt lat="28.3824020" lon="-16.4655850">
        <ele>1496.9</ele>
        <time>2020-11-11T12:57:29Z</time>
      </trkpt>
      <trkpt lat="28.3824020" lon="-16.4655850">
        <ele>1496.9</ele>
        <time>2020-11-11T12:57:30Z</time>
      </trkpt>
      <trkpt lat="28.3823770" lon="-16.4655070">
        <ele>1496.9</ele>
        <time>2020-11-11T12:57:31Z</time>
      </trkpt>
      <trkpt lat="28.3823730" lon="-16.4654880">
        <ele>1496.9</ele>
        <time>2020-11-11T12:57:32Z</time>
      </trkpt>
      <trkpt lat="28.3823730" lon="-16.4654880">
        <ele>1496.9</ele>
        <time>2020-11-11T12:57:33Z</time>
      </trkpt>
      <trkpt lat="28.3823730" lon="-16.4654680">
        <ele>1496.9</ele>
        <time>2020-11-11T12:57:34Z</time>
      </trkpt>
      <trkpt lat="28.3823750" lon="-16.4654630">
        <ele>1496.9</ele>
        <time>2020-11-11T12:57:35Z</time>
      </trkpt>
      <trkpt lat="28.3823750" lon="-16.4654630">
        <ele>1497.9</ele>
        <time>2020-11-11T12:57:36Z</time>
      </trkpt>
      <trkpt lat="28.3823770" lon="-16.4654570">
        <ele>1497.9</ele>
        <time>2020-11-11T12:57:37Z</time>
      </trkpt>
      <trkpt lat="28.3823800" lon="-16.4654530">
        <ele>1497.9</ele>
        <time>2020-11-11T12:57:38Z</time>
      </trkpt>
      <trkpt lat="28.3823800" lon="-16.4654530">
        <ele>1497.9</ele>
        <time>2020-11-11T12:57:39Z</time>
      </trkpt>
      <trkpt lat="28.3823900" lon="-16.4654520">
        <ele>1497.9</ele>
        <time>2020-11-11T12:57:40Z</time>
      </trkpt>
      <trkpt lat="28.3823970" lon="-16.4654550">
        <ele>1497.9</ele>
        <time>2020-11-11T12:57:41Z</time>
      </trkpt>
      <trkpt lat="28.3823970" lon="-16.4654550">
        <ele>1497.9</ele>
        <time>2020-11-11T12:57:42Z</time>
      </trkpt>
      <trkpt lat="28.3824220" lon="-16.4654400">
        <ele>1497.9</ele>
        <time>2020-11-11T12:57:43Z</time>
      </trkpt>
      <trkpt lat="28.3824220" lon="-16.4654400">
        <ele>1498.9</ele>
        <time>2020-11-11T12:57:44Z</time>
      </trkpt>
      <trkpt lat="28.3824350" lon="-16.4654180">
        <ele>1498.9</ele>
        <time>2020-11-11T12:57:45Z</time>
      </trkpt>
      <trkpt lat="28.3824350" lon="-16.4654180">
        <ele>1498.9</ele>
        <time>2020-11-11T12:57:46Z</time>
      </trkpt>
      <trkpt lat="28.3824830" lon="-16.4653920">
        <ele>1498.9</ele>
        <time>2020-11-11T12:57:47Z</time>
      </trkpt>
      <trkpt lat="28.3824830" lon="-16.4653920">
        <ele>1499.9</ele>
        <time>2020-11-11T12:57:48Z</time>
      </trkpt>
      <trkpt lat="28.3825330" lon="-16.4653530">
        <ele>1499.9</ele>
        <time>2020-11-11T12:57:49Z</time>
      </trkpt>
      <trkpt lat="28.3825330" lon="-16.4653530">
        <ele>1499.9</ele>
        <time>2020-11-11T12:57:50Z</time>
      </trkpt>
      <trkpt lat="28.3825600" lon="-16.4653300">
        <ele>1499.9</ele>
        <time>2020-11-11T12:57:51Z</time>
      </trkpt>
      <trkpt lat="28.3825600" lon="-16.4653300">
        <ele>1499.9</ele>
        <time>2020-11-11T12:57:52Z</time>
      </trkpt>
      <trkpt lat="28.3825950" lon="-16.4653080">
        <ele>1499.9</ele>
        <time>2020-11-11T12:57:53Z</time>
      </trkpt>
      <trkpt lat="28.3826100" lon="-16.4652850">
        <ele>1500.9</ele>
        <time>2020-11-11T12:57:54Z</time>
      </trkpt>
      <trkpt lat="28.3826100" lon="-16.4652850">
        <ele>1500.9</ele>
        <time>2020-11-11T12:57:55Z</time>
      </trkpt>
      <trkpt lat="28.3826370" lon="-16.4652530">
        <ele>1500.9</ele>
        <time>2020-11-11T12:57:56Z</time>
      </trkpt>
      <trkpt lat="28.3826400" lon="-16.4652380">
        <ele>1500.9</ele>
        <time>2020-11-11T12:57:57Z</time>
      </trkpt>
      <trkpt lat="28.3826470" lon="-16.4652270">
        <ele>1500.9</ele>
        <time>2020-11-11T12:57:58Z</time>
      </trkpt>
      <trkpt lat="28.3826470" lon="-16.4652270">
        <ele>1500.9</ele>
        <time>2020-11-11T12:57:59Z</time>
      </trkpt>
      <trkpt lat="28.3826500" lon="-16.4651850">
        <ele>1501.9</ele>
        <time>2020-11-11T12:58:00Z</time>
      </trkpt>
      <trkpt lat="28.3826500" lon="-16.4651850">
        <ele>1501.9</ele>
        <time>2020-11-11T12:58:01Z</time>
      </trkpt>
      <trkpt lat="28.3826750" lon="-16.4651530">
        <ele>1501.9</ele>
        <time>2020-11-11T12:58:02Z</time>
      </trkpt>
      <trkpt lat="28.3826770" lon="-16.4651400">
        <ele>1501.9</ele>
        <time>2020-11-11T12:58:03Z</time>
      </trkpt>
      <trkpt lat="28.3827030" lon="-16.4651230">
        <ele>1501.9</ele>
        <time>2020-11-11T12:58:04Z</time>
      </trkpt>
      <trkpt lat="28.3827030" lon="-16.4651230">
        <ele>1501.9</ele>
        <time>2020-11-11T12:58:05Z</time>
      </trkpt>
      <trkpt lat="28.3827350" lon="-16.4650920">
        <ele>1501.9</ele>
        <time>2020-11-11T12:58:06Z</time>
      </trkpt>
      <trkpt lat="28.3827480" lon="-16.4650770">
        <ele>1501.9</ele>
        <time>2020-11-11T12:58:07Z</time>
      </trkpt>
      <trkpt lat="28.3827480" lon="-16.4650770">
        <ele>1501.9</ele>
        <time>2020-11-11T12:58:08Z</time>
      </trkpt>
      <trkpt lat="28.3827880" lon="-16.4650530">
        <ele>1501.9</ele>
        <time>2020-11-11T12:58:09Z</time>
      </trkpt>
      <trkpt lat="28.3828030" lon="-16.4650400">
        <ele>1502.9</ele>
        <time>2020-11-11T12:58:10Z</time>
      </trkpt>
      <trkpt lat="28.3828030" lon="-16.4650400">
        <ele>1502.9</ele>
        <time>2020-11-11T12:58:11Z</time>
      </trkpt>
      <trkpt lat="28.3828070" lon="-16.4649980">
        <ele>1502.9</ele>
        <time>2020-11-11T12:58:12Z</time>
      </trkpt>
      <trkpt lat="28.3828100" lon="-16.4649780">
        <ele>1502.9</ele>
        <time>2020-11-11T12:58:13Z</time>
      </trkpt>
      <trkpt lat="28.3828100" lon="-16.4649780">
        <ele>1502.9</ele>
        <time>2020-11-11T12:58:14Z</time>
      </trkpt>
      <trkpt lat="28.3828170" lon="-16.4649320">
        <ele>1502.9</ele>
        <time>2020-11-11T12:58:15Z</time>
      </trkpt>
      <trkpt lat="28.3828170" lon="-16.4649320">
        <ele>1503.9</ele>
        <time>2020-11-11T12:58:16Z</time>
      </trkpt>
      <trkpt lat="28.3828100" lon="-16.4648920">
        <ele>1503.9</ele>
        <time>2020-11-11T12:58:17Z</time>
      </trkpt>
      <trkpt lat="28.3828100" lon="-16.4648920">
        <ele>1503.9</ele>
        <time>2020-11-11T12:58:18Z</time>
      </trkpt>
      <trkpt lat="28.3828180" lon="-16.4648600">
        <ele>1503.9</ele>
        <time>2020-11-11T12:58:19Z</time>
      </trkpt>
      <trkpt lat="28.3828180" lon="-16.4648500">
        <ele>1503.9</ele>
        <time>2020-11-11T12:58:20Z</time>
      </trkpt>
      <trkpt lat="28.3828180" lon="-16.4648500">
        <ele>1503.9</ele>
        <time>2020-11-11T12:58:21Z</time>
      </trkpt>
      <trkpt lat="28.3828070" lon="-16.4648080">
        <ele>1503.9</ele>
        <time>2020-11-11T12:58:22Z</time>
      </trkpt>
      <trkpt lat="28.3828070" lon="-16.4648080">
        <ele>1503.9</ele>
        <time>2020-11-11T12:58:23Z</time>
      </trkpt>
      <trkpt lat="28.3827950" lon="-16.4647820">
        <ele>1504.9</ele>
        <time>2020-11-11T12:58:24Z</time>
      </trkpt>
      <trkpt lat="28.3827950" lon="-16.4647820">
        <ele>1504.9</ele>
        <time>2020-11-11T12:58:25Z</time>
      </trkpt>
      <trkpt lat="28.3827780" lon="-16.4647220">
        <ele>1504.9</ele>
        <time>2020-11-11T12:58:26Z</time>
      </trkpt>
      <trkpt lat="28.3827780" lon="-16.4647220">
        <ele>1504.9</ele>
        <time>2020-11-11T12:58:27Z</time>
      </trkpt>
      <trkpt lat="28.3827630" lon="-16.4646730">
        <ele>1504.9</ele>
        <time>2020-11-11T12:58:28Z</time>
      </trkpt>
      <trkpt lat="28.3827580" lon="-16.4646430">
        <ele>1505.9</ele>
        <time>2020-11-11T12:58:29Z</time>
      </trkpt>
      <trkpt lat="28.3827580" lon="-16.4646430">
        <ele>1505.9</ele>
        <time>2020-11-11T12:58:30Z</time>
      </trkpt>
      <trkpt lat="28.3827600" lon="-16.4645970">
        <ele>1505.9</ele>
        <time>2020-11-11T12:58:31Z</time>
      </trkpt>
      <trkpt lat="28.3827600" lon="-16.4645970">
        <ele>1505.9</ele>
        <time>2020-11-11T12:58:32Z</time>
      </trkpt>
      <trkpt lat="28.3827520" lon="-16.4645620">
        <ele>1505.9</ele>
        <time>2020-11-11T12:58:33Z</time>
      </trkpt>
      <trkpt lat="28.3827480" lon="-16.4645500">
        <ele>1505.9</ele>
        <time>2020-11-11T12:58:34Z</time>
      </trkpt>
      <trkpt lat="28.3827480" lon="-16.4645500">
        <ele>1506.9</ele>
        <time>2020-11-11T12:58:35Z</time>
      </trkpt>
      <trkpt lat="28.3827470" lon="-16.4645200">
        <ele>1506.9</ele>
        <time>2020-11-11T12:58:36Z</time>
      </trkpt>
      <trkpt lat="28.3827470" lon="-16.4645200">
        <ele>1506.9</ele>
        <time>2020-11-11T12:58:37Z</time>
      </trkpt>
      <trkpt lat="28.3827520" lon="-16.4645000">
        <ele>1506.9</ele>
        <time>2020-11-11T12:58:38Z</time>
      </trkpt>
      <trkpt lat="28.3827550" lon="-16.4644930">
        <ele>1506.9</ele>
        <time>2020-11-11T12:58:39Z</time>
      </trkpt>
      <trkpt lat="28.3827550" lon="-16.4644930">
        <ele>1506.9</ele>
        <time>2020-11-11T12:58:40Z</time>
      </trkpt>
      <trkpt lat="28.3827470" lon="-16.4644650">
        <ele>1507.9</ele>
        <time>2020-11-11T12:58:41Z</time>
      </trkpt>
      <trkpt lat="28.3827420" lon="-16.4644520">
        <ele>1507.9</ele>
        <time>2020-11-11T12:58:42Z</time>
      </trkpt>
      <trkpt lat="28.3827420" lon="-16.4644520">
        <ele>1507.9</ele>
        <time>2020-11-11T12:58:43Z</time>
      </trkpt>
      <trkpt lat="28.3827370" lon="-16.4644270">
        <ele>1507.9</ele>
        <time>2020-11-11T12:58:44Z</time>
      </trkpt>
      <trkpt lat="28.3827370" lon="-16.4644270">
        <ele>1508.9</ele>
        <time>2020-11-11T12:58:45Z</time>
      </trkpt>
      <trkpt lat="28.3827130" lon="-16.4643930">
        <ele>1508.9</ele>
        <time>2020-11-11T12:58:46Z</time>
      </trkpt>
      <trkpt lat="28.3827130" lon="-16.4643930">
        <ele>1508.9</ele>
        <time>2020-11-11T12:58:47Z</time>
      </trkpt>
      <trkpt lat="28.3826900" lon="-16.4643550">
        <ele>1508.9</ele>
        <time>2020-11-11T12:58:48Z</time>
      </trkpt>
      <trkpt lat="28.3826850" lon="-16.4643400">
        <ele>1508.9</ele>
        <time>2020-11-11T12:58:49Z</time>
      </trkpt>
      <trkpt lat="28.3826850" lon="-16.4643400">
        <ele>1508.9</ele>
        <time>2020-11-11T12:58:50Z</time>
      </trkpt>
      <trkpt lat="28.3826720" lon="-16.4642980">
        <ele>1508.9</ele>
        <time>2020-11-11T12:58:51Z</time>
      </trkpt>
      <trkpt lat="28.3826720" lon="-16.4642980">
        <ele>1508.9</ele>
        <time>2020-11-11T12:58:52Z</time>
      </trkpt>
      <trkpt lat="28.3826750" lon="-16.4642580">
        <ele>1509.9</ele>
        <time>2020-11-11T12:58:53Z</time>
      </trkpt>
      <trkpt lat="28.3826750" lon="-16.4642580">
        <ele>1509.9</ele>
        <time>2020-11-11T12:58:54Z</time>
      </trkpt>
      <trkpt lat="28.3826630" lon="-16.4642030">
        <ele>1509.9</ele>
        <time>2020-11-11T12:58:55Z</time>
      </trkpt>
      <trkpt lat="28.3826630" lon="-16.4642030">
        <ele>1509.9</ele>
        <time>2020-11-11T12:58:56Z</time>
      </trkpt>
      <trkpt lat="28.3826550" lon="-16.4641670">
        <ele>1510.9</ele>
        <time>2020-11-11T12:58:57Z</time>
      </trkpt>
      <trkpt lat="28.3826550" lon="-16.4641670">
        <ele>1510.9</ele>
        <time>2020-11-11T12:58:58Z</time>
      </trkpt>
      <trkpt lat="28.3826350" lon="-16.4641080">
        <ele>1510.9</ele>
        <time>2020-11-11T12:58:59Z</time>
      </trkpt>
      <trkpt lat="28.3826350" lon="-16.4641080">
        <ele>1510.9</ele>
        <time>2020-11-11T12:59:00Z</time>
      </trkpt>
      <trkpt lat="28.3826100" lon="-16.4640720">
        <ele>1510.9</ele>
        <time>2020-11-11T12:59:01Z</time>
      </trkpt>
      <trkpt lat="28.3826100" lon="-16.4640720">
        <ele>1510.9</ele>
        <time>2020-11-11T12:59:02Z</time>
      </trkpt>
      <trkpt lat="28.3825950" lon="-16.4640500">
        <ele>1510.9</ele>
        <time>2020-11-11T12:59:03Z</time>
      </trkpt>
      <trkpt lat="28.3825950" lon="-16.4640500">
        <ele>1510.9</ele>
        <time>2020-11-11T12:59:04Z</time>
      </trkpt>
      <trkpt lat="28.3825580" lon="-16.4640400">
        <ele>1511.9</ele>
        <time>2020-11-11T12:59:05Z</time>
      </trkpt>
      <trkpt lat="28.3825380" lon="-16.4640330">
        <ele>1511.9</ele>
        <time>2020-11-11T12:59:06Z</time>
      </trkpt>
      <trkpt lat="28.3825380" lon="-16.4640330">
        <ele>1511.9</ele>
        <time>2020-11-11T12:59:07Z</time>
      </trkpt>
      <trkpt lat="28.3824970" lon="-16.4640070">
        <ele>1511.9</ele>
        <time>2020-11-11T12:59:08Z</time>
      </trkpt>
      <trkpt lat="28.3824970" lon="-16.4640070">
        <ele>1511.9</ele>
        <time>2020-11-11T12:59:09Z</time>
      </trkpt>
      <trkpt lat="28.3824630" lon="-16.4640170">
        <ele>1512.9</ele>
        <time>2020-11-11T12:59:10Z</time>
      </trkpt>
      <trkpt lat="28.3824520" lon="-16.4640280">
        <ele>1512.9</ele>
        <time>2020-11-11T12:59:11Z</time>
      </trkpt>
      <trkpt lat="28.3824430" lon="-16.4640430">
        <ele>1512.9</ele>
        <time>2020-11-11T12:59:12Z</time>
      </trkpt>
      <trkpt lat="28.3824430" lon="-16.4640430">
        <ele>1512.9</ele>
        <time>2020-11-11T12:59:13Z</time>
      </trkpt>
      <trkpt lat="28.3824350" lon="-16.4640750">
        <ele>1513.9</ele>
        <time>2020-11-11T12:59:14Z</time>
      </trkpt>
      <trkpt lat="28.3824350" lon="-16.4640750">
        <ele>1513.9</ele>
        <time>2020-11-11T12:59:15Z</time>
      </trkpt>
      <trkpt lat="28.3824320" lon="-16.4641030">
        <ele>1513.9</ele>
        <time>2020-11-11T12:59:16Z</time>
      </trkpt>
      <trkpt lat="28.3824350" lon="-16.4641220">
        <ele>1513.9</ele>
        <time>2020-11-11T12:59:17Z</time>
      </trkpt>
      <trkpt lat="28.3824350" lon="-16.4641220">
        <ele>1513.9</ele>
        <time>2020-11-11T12:59:18Z</time>
      </trkpt>
      <trkpt lat="28.3824400" lon="-16.4641550">
        <ele>1513.9</ele>
        <time>2020-11-11T12:59:19Z</time>
      </trkpt>
      <trkpt lat="28.3824400" lon="-16.4641550">
        <ele>1513.9</ele>
        <time>2020-11-11T12:59:20Z</time>
      </trkpt>
      <trkpt lat="28.3824320" lon="-16.4641750">
        <ele>1513.9</ele>
        <time>2020-11-11T12:59:21Z</time>
      </trkpt>
      <trkpt lat="28.3824320" lon="-16.4641750">
        <ele>1514.9</ele>
        <time>2020-11-11T12:59:22Z</time>
      </trkpt>
      <trkpt lat="28.3824400" lon="-16.4641850">
        <ele>1514.9</ele>
        <time>2020-11-11T12:59:23Z</time>
      </trkpt>
      <trkpt lat="28.3824400" lon="-16.4641850">
        <ele>1514.9</ele>
        <time>2020-11-11T12:59:24Z</time>
      </trkpt>
      <trkpt lat="28.3824450" lon="-16.4642030">
        <ele>1514.9</ele>
        <time>2020-11-11T12:59:25Z</time>
      </trkpt>
      <trkpt lat="28.3824450" lon="-16.4642030">
        <ele>1515.9</ele>
        <time>2020-11-11T12:59:26Z</time>
      </trkpt>
      <trkpt lat="28.3824620" lon="-16.4642530">
        <ele>1515.9</ele>
        <time>2020-11-11T12:59:27Z</time>
      </trkpt>
      <trkpt lat="28.3824720" lon="-16.4642680">
        <ele>1515.9</ele>
        <time>2020-11-11T12:59:28Z</time>
      </trkpt>
      <trkpt lat="28.3824720" lon="-16.4642680">
        <ele>1515.9</ele>
        <time>2020-11-11T12:59:29Z</time>
      </trkpt>
      <trkpt lat="28.3824870" lon="-16.4643250">
        <ele>1515.9</ele>
        <time>2020-11-11T12:59:30Z</time>
      </trkpt>
      <trkpt lat="28.3824870" lon="-16.4643250">
        <ele>1515.9</ele>
        <time>2020-11-11T12:59:31Z</time>
      </trkpt>
      <trkpt lat="28.3825200" lon="-16.4644030">
        <ele>1515.9</ele>
        <time>2020-11-11T12:59:32Z</time>
      </trkpt>
      <trkpt lat="28.3825200" lon="-16.4644030">
        <ele>1515.9</ele>
        <time>2020-11-11T12:59:33Z</time>
      </trkpt>
      <trkpt lat="28.3825100" lon="-16.4644670">
        <ele>1515.9</ele>
        <time>2020-11-11T12:59:34Z</time>
      </trkpt>
      <trkpt lat="28.3825080" lon="-16.4645020">
        <ele>1515.9</ele>
        <time>2020-11-11T12:59:35Z</time>
      </trkpt>
      <trkpt lat="28.3825080" lon="-16.4645020">
        <ele>1515.9</ele>
        <time>2020-11-11T12:59:36Z</time>
      </trkpt>
      <trkpt lat="28.3825300" lon="-16.4645580">
        <ele>1515.9</ele>
        <time>2020-11-11T12:59:37Z</time>
      </trkpt>
      <trkpt lat="28.3825300" lon="-16.4645580">
        <ele>1515.9</ele>
        <time>2020-11-11T12:59:38Z</time>
      </trkpt>
      <trkpt lat="28.3825380" lon="-16.4646080">
        <ele>1515.9</ele>
        <time>2020-11-11T12:59:39Z</time>
      </trkpt>
      <trkpt lat="28.3825380" lon="-16.4646080">
        <ele>1516.9</ele>
        <time>2020-11-11T12:59:40Z</time>
      </trkpt>
      <trkpt lat="28.3825400" lon="-16.4646370">
        <ele>1516.9</ele>
        <time>2020-11-11T12:59:41Z</time>
      </trkpt>
      <trkpt lat="28.3825400" lon="-16.4646370">
        <ele>1516.9</ele>
        <time>2020-11-11T12:59:42Z</time>
      </trkpt>
      <trkpt lat="28.3825250" lon="-16.4646580">
        <ele>1517.9</ele>
        <time>2020-11-11T12:59:43Z</time>
      </trkpt>
      <trkpt lat="28.3825250" lon="-16.4646580">
        <ele>1517.9</ele>
        <time>2020-11-11T12:59:44Z</time>
      </trkpt>
      <trkpt lat="28.3825120" lon="-16.4646830">
        <ele>1517.9</ele>
        <time>2020-11-11T12:59:45Z</time>
      </trkpt>
      <trkpt lat="28.3825050" lon="-16.4646950">
        <ele>1517.9</ele>
        <time>2020-11-11T12:59:46Z</time>
      </trkpt>
      <trkpt lat="28.3825050" lon="-16.4646950">
        <ele>1517.9</ele>
        <time>2020-11-11T12:59:47Z</time>
      </trkpt>
      <trkpt lat="28.3824970" lon="-16.4647320">
        <ele>1517.9</ele>
        <time>2020-11-11T12:59:48Z</time>
      </trkpt>
      <trkpt lat="28.3824850" lon="-16.4647520">
        <ele>1518.9</ele>
        <time>2020-11-11T12:59:49Z</time>
      </trkpt>
      <trkpt lat="28.3824850" lon="-16.4647520">
        <ele>1518.9</ele>
        <time>2020-11-11T12:59:50Z</time>
      </trkpt>
      <trkpt lat="28.3824680" lon="-16.4647780">
        <ele>1518.9</ele>
        <time>2020-11-11T12:59:51Z</time>
      </trkpt>
      <trkpt lat="28.3824680" lon="-16.4647780">
        <ele>1518.9</ele>
        <time>2020-11-11T12:59:52Z</time>
      </trkpt>
      <trkpt lat="28.3824700" lon="-16.4648070">
        <ele>1518.9</ele>
        <time>2020-11-11T12:59:53Z</time>
      </trkpt>
      <trkpt lat="28.3824700" lon="-16.4648070">
        <ele>1518.9</ele>
        <time>2020-11-11T12:59:54Z</time>
      </trkpt>
      <trkpt lat="28.3824370" lon="-16.4648350">
        <ele>1518.9</ele>
        <time>2020-11-11T12:59:55Z</time>
      </trkpt>
      <trkpt lat="28.3824200" lon="-16.4648450">
        <ele>1518.9</ele>
        <time>2020-11-11T12:59:56Z</time>
      </trkpt>
      <trkpt lat="28.3824200" lon="-16.4648450">
        <ele>1519.9</ele>
        <time>2020-11-11T12:59:57Z</time>
      </trkpt>
      <trkpt lat="28.3823900" lon="-16.4648680">
        <ele>1519.9</ele>
        <time>2020-11-11T12:59:58Z</time>
      </trkpt>
      <trkpt lat="28.3823900" lon="-16.4648680">
        <ele>1519.9</ele>
        <time>2020-11-11T12:59:59Z</time>
      </trkpt>
      <trkpt lat="28.3823570" lon="-16.4648880">
        <ele>1519.9</ele>
        <time>2020-11-11T13:00:00Z</time>
      </trkpt>
      <trkpt lat="28.3823400" lon="-16.4649000">
        <ele>1520.9</ele>
        <time>2020-11-11T13:00:01Z</time>
      </trkpt>
      <trkpt lat="28.3823400" lon="-16.4649000">
        <ele>1520.9</ele>
        <time>2020-11-11T13:00:02Z</time>
      </trkpt>
      <trkpt lat="28.3823250" lon="-16.4649320">
        <ele>1520.9</ele>
        <time>2020-11-11T13:00:03Z</time>
      </trkpt>
      <trkpt lat="28.3823250" lon="-16.4649320">
        <ele>1520.9</ele>
        <time>2020-11-11T13:00:04Z</time>
      </trkpt>
      <trkpt lat="28.3822970" lon="-16.4649550">
        <ele>1520.9</ele>
        <time>2020-11-11T13:00:05Z</time>
      </trkpt>
      <trkpt lat="28.3822970" lon="-16.4649550">
        <ele>1520.9</ele>
        <time>2020-11-11T13:00:06Z</time>
      </trkpt>
      <trkpt lat="28.3822820" lon="-16.4649830">
        <ele>1520.9</ele>
        <time>2020-11-11T13:00:07Z</time>
      </trkpt>
      <trkpt lat="28.3822820" lon="-16.4649830">
        <ele>1520.9</ele>
        <time>2020-11-11T13:00:08Z</time>
      </trkpt>
      <trkpt lat="28.3822520" lon="-16.4650030">
        <ele>1520.9</ele>
        <time>2020-11-11T13:00:09Z</time>
      </trkpt>
      <trkpt lat="28.3822520" lon="-16.4650030">
        <ele>1520.9</ele>
        <time>2020-11-11T13:00:10Z</time>
      </trkpt>
      <trkpt lat="28.3822030" lon="-16.4650320">
        <ele>1520.9</ele>
        <time>2020-11-11T13:00:11Z</time>
      </trkpt>
      <trkpt lat="28.3821870" lon="-16.4650400">
        <ele>1520.9</ele>
        <time>2020-11-11T13:00:12Z</time>
      </trkpt>
      <trkpt lat="28.3821870" lon="-16.4650400">
        <ele>1520.9</ele>
        <time>2020-11-11T13:00:13Z</time>
      </trkpt>
      <trkpt lat="28.3821550" lon="-16.4650480">
        <ele>1520.9</ele>
        <time>2020-11-11T13:00:14Z</time>
      </trkpt>
      <trkpt lat="28.3821420" lon="-16.4650520">
        <ele>1521.9</ele>
        <time>2020-11-11T13:00:15Z</time>
      </trkpt>
      <trkpt lat="28.3821420" lon="-16.4650520">
        <ele>1521.9</ele>
        <time>2020-11-11T13:00:16Z</time>
      </trkpt>
      <trkpt lat="28.3821220" lon="-16.4650570">
        <ele>1521.9</ele>
        <time>2020-11-11T13:00:17Z</time>
      </trkpt>
      <trkpt lat="28.3820950" lon="-16.4650580">
        <ele>1521.9</ele>
        <time>2020-11-11T13:00:18Z</time>
      </trkpt>
      <trkpt lat="28.3820780" lon="-16.4650630">
        <ele>1521.9</ele>
        <time>2020-11-11T13:00:19Z</time>
      </trkpt>
      <trkpt lat="28.3820780" lon="-16.4650630">
        <ele>1522.9</ele>
        <time>2020-11-11T13:00:20Z</time>
      </trkpt>
      <trkpt lat="28.3820480" lon="-16.4650720">
        <ele>1522.9</ele>
        <time>2020-11-11T13:00:21Z</time>
      </trkpt>
      <trkpt lat="28.3820330" lon="-16.4650700">
        <ele>1522.9</ele>
        <time>2020-11-11T13:00:22Z</time>
      </trkpt>
      <trkpt lat="28.3820330" lon="-16.4650700">
        <ele>1522.9</ele>
        <time>2020-11-11T13:00:23Z</time>
      </trkpt>
      <trkpt lat="28.3820120" lon="-16.4650770">
        <ele>1522.9</ele>
        <time>2020-11-11T13:00:24Z</time>
      </trkpt>
      <trkpt lat="28.3820120" lon="-16.4650770">
        <ele>1522.9</ele>
        <time>2020-11-11T13:00:25Z</time>
      </trkpt>
      <trkpt lat="28.3819950" lon="-16.4650850">
        <ele>1523.9</ele>
        <time>2020-11-11T13:00:26Z</time>
      </trkpt>
      <trkpt lat="28.3819900" lon="-16.4650850">
        <ele>1523.9</ele>
        <time>2020-11-11T13:00:27Z</time>
      </trkpt>
      <trkpt lat="28.3819900" lon="-16.4650850">
        <ele>1523.9</ele>
        <time>2020-11-11T13:00:28Z</time>
      </trkpt>
      <trkpt lat="28.3819900" lon="-16.4650850">
        <ele>1523.9</ele>
        <time>2020-11-11T13:00:29Z</time>
      </trkpt>
      <trkpt lat="28.3819580" lon="-16.4651020">
        <ele>1524.9</ele>
        <time>2020-11-11T13:00:30Z</time>
      </trkpt>
      <trkpt lat="28.3819530" lon="-16.4651070">
        <ele>1524.9</ele>
        <time>2020-11-11T13:00:31Z</time>
      </trkpt>
      <trkpt lat="28.3819530" lon="-16.4651070">
        <ele>1524.9</ele>
        <time>2020-11-11T13:00:32Z</time>
      </trkpt>
      <trkpt lat="28.3819420" lon="-16.4651130">
        <ele>1524.9</ele>
        <time>2020-11-11T13:00:33Z</time>
      </trkpt>
      <trkpt lat="28.3819420" lon="-16.4651130">
        <ele>1524.9</ele>
        <time>2020-11-11T13:00:34Z</time>
      </trkpt>
      <trkpt lat="28.3819200" lon="-16.4651230">
        <ele>1524.9</ele>
        <time>2020-11-11T13:00:35Z</time>
      </trkpt>
      <trkpt lat="28.3819200" lon="-16.4651230">
        <ele>1525.9</ele>
        <time>2020-11-11T13:00:36Z</time>
      </trkpt>
      <trkpt lat="28.3818970" lon="-16.4651300">
        <ele>1525.9</ele>
        <time>2020-11-11T13:00:37Z</time>
      </trkpt>
      <trkpt lat="28.3818970" lon="-16.4651300">
        <ele>1525.9</ele>
        <time>2020-11-11T13:00:38Z</time>
      </trkpt>
      <trkpt lat="28.3818700" lon="-16.4651420">
        <ele>1525.9</ele>
        <time>2020-11-11T13:00:39Z</time>
      </trkpt>
      <trkpt lat="28.3818700" lon="-16.4651420">
        <ele>1526.9</ele>
        <time>2020-11-11T13:00:40Z</time>
      </trkpt>
      <trkpt lat="28.3818420" lon="-16.4651680">
        <ele>1526.9</ele>
        <time>2020-11-11T13:00:41Z</time>
      </trkpt>
      <trkpt lat="28.3818320" lon="-16.4651780">
        <ele>1526.9</ele>
        <time>2020-11-11T13:00:42Z</time>
      </trkpt>
      <trkpt lat="28.3818320" lon="-16.4651780">
        <ele>1526.9</ele>
        <time>2020-11-11T13:00:43Z</time>
      </trkpt>
      <trkpt lat="28.3817580" lon="-16.4651870">
        <ele>1526.9</ele>
        <time>2020-11-11T13:00:44Z</time>
      </trkpt>
      <trkpt lat="28.3817420" lon="-16.4651920">
        <ele>1526.9</ele>
        <time>2020-11-11T13:00:45Z</time>
      </trkpt>
      <trkpt lat="28.3817420" lon="-16.4651920">
        <ele>1526.9</ele>
        <time>2020-11-11T13:00:46Z</time>
      </trkpt>
      <trkpt lat="28.3816980" lon="-16.4652070">
        <ele>1527.9</ele>
        <time>2020-11-11T13:00:47Z</time>
      </trkpt>
      <trkpt lat="28.3816980" lon="-16.4652070">
        <ele>1527.9</ele>
        <time>2020-11-11T13:00:48Z</time>
      </trkpt>
      <trkpt lat="28.3816580" lon="-16.4652270">
        <ele>1527.9</ele>
        <time>2020-11-11T13:00:49Z</time>
      </trkpt>
      <trkpt lat="28.3816580" lon="-16.4652270">
        <ele>1527.9</ele>
        <time>2020-11-11T13:00:50Z</time>
      </trkpt>
      <trkpt lat="28.3816250" lon="-16.4652430">
        <ele>1527.9</ele>
        <time>2020-11-11T13:00:51Z</time>
      </trkpt>
      <trkpt lat="28.3816250" lon="-16.4652430">
        <ele>1527.9</ele>
        <time>2020-11-11T13:00:52Z</time>
      </trkpt>
      <trkpt lat="28.3815930" lon="-16.4652550">
        <ele>1528.9</ele>
        <time>2020-11-11T13:00:53Z</time>
      </trkpt>
      <trkpt lat="28.3815930" lon="-16.4652550">
        <ele>1528.9</ele>
        <time>2020-11-11T13:00:54Z</time>
      </trkpt>
      <trkpt lat="28.3815500" lon="-16.4652650">
        <ele>1528.9</ele>
        <time>2020-11-11T13:00:55Z</time>
      </trkpt>
      <trkpt lat="28.3815500" lon="-16.4652650">
        <ele>1528.9</ele>
        <time>2020-11-11T13:00:56Z</time>
      </trkpt>
      <trkpt lat="28.3815050" lon="-16.4652870">
        <ele>1528.9</ele>
        <time>2020-11-11T13:00:57Z</time>
      </trkpt>
      <trkpt lat="28.3814750" lon="-16.4652970">
        <ele>1529.9</ele>
        <time>2020-11-11T13:00:58Z</time>
      </trkpt>
      <trkpt lat="28.3814750" lon="-16.4652970">
        <ele>1529.9</ele>
        <time>2020-11-11T13:00:59Z</time>
      </trkpt>
      <trkpt lat="28.3814180" lon="-16.4652980">
        <ele>1529.9</ele>
        <time>2020-11-11T13:01:00Z</time>
      </trkpt>
      <trkpt lat="28.3813950" lon="-16.4653000">
        <ele>1529.9</ele>
        <time>2020-11-11T13:01:01Z</time>
      </trkpt>
      <trkpt lat="28.3813950" lon="-16.4653000">
        <ele>1529.9</ele>
        <time>2020-11-11T13:01:02Z</time>
      </trkpt>
      <trkpt lat="28.3813300" lon="-16.4653170">
        <ele>1529.9</ele>
        <time>2020-11-11T13:01:03Z</time>
      </trkpt>
      <trkpt lat="28.3813300" lon="-16.4653170">
        <ele>1529.9</ele>
        <time>2020-11-11T13:01:04Z</time>
      </trkpt>
      <trkpt lat="28.3812870" lon="-16.4653080">
        <ele>1529.9</ele>
        <time>2020-11-11T13:01:05Z</time>
      </trkpt>
      <trkpt lat="28.3812870" lon="-16.4653080">
        <ele>1529.9</ele>
        <time>2020-11-11T13:01:06Z</time>
      </trkpt>
      <trkpt lat="28.3812520" lon="-16.4653280">
        <ele>1530.9</ele>
        <time>2020-11-11T13:01:07Z</time>
      </trkpt>
      <trkpt lat="28.3812520" lon="-16.4653280">
        <ele>1530.9</ele>
        <time>2020-11-11T13:01:08Z</time>
      </trkpt>
      <trkpt lat="28.3812230" lon="-16.4653370">
        <ele>1530.9</ele>
        <time>2020-11-11T13:01:09Z</time>
      </trkpt>
      <trkpt lat="28.3812230" lon="-16.4653370">
        <ele>1530.9</ele>
        <time>2020-11-11T13:01:10Z</time>
      </trkpt>
      <trkpt lat="28.3811900" lon="-16.4653550">
        <ele>1530.9</ele>
        <time>2020-11-11T13:01:11Z</time>
      </trkpt>
      <trkpt lat="28.3811900" lon="-16.4653550">
        <ele>1530.9</ele>
        <time>2020-11-11T13:01:12Z</time>
      </trkpt>
      <trkpt lat="28.3811500" lon="-16.4653570">
        <ele>1530.9</ele>
        <time>2020-11-11T13:01:13Z</time>
      </trkpt>
      <trkpt lat="28.3811500" lon="-16.4653570">
        <ele>1530.9</ele>
        <time>2020-11-11T13:01:14Z</time>
      </trkpt>
      <trkpt lat="28.3811120" lon="-16.4653750">
        <ele>1530.9</ele>
        <time>2020-11-11T13:01:15Z</time>
      </trkpt>
      <trkpt lat="28.3811120" lon="-16.4653750">
        <ele>1530.9</ele>
        <time>2020-11-11T13:01:16Z</time>
      </trkpt>
      <trkpt lat="28.3810700" lon="-16.4653870">
        <ele>1530.9</ele>
        <time>2020-11-11T13:01:17Z</time>
      </trkpt>
      <trkpt lat="28.3810700" lon="-16.4653870">
        <ele>1530.9</ele>
        <time>2020-11-11T13:01:18Z</time>
      </trkpt>
      <trkpt lat="28.3810200" lon="-16.4653900">
        <ele>1531.9</ele>
        <time>2020-11-11T13:01:19Z</time>
      </trkpt>
      <trkpt lat="28.3810200" lon="-16.4653900">
        <ele>1531.9</ele>
        <time>2020-11-11T13:01:20Z</time>
      </trkpt>
      <trkpt lat="28.3809750" lon="-16.4653770">
        <ele>1531.9</ele>
        <time>2020-11-11T13:01:21Z</time>
      </trkpt>
      <trkpt lat="28.3809750" lon="-16.4653770">
        <ele>1531.9</ele>
        <time>2020-11-11T13:01:22Z</time>
      </trkpt>
      <trkpt lat="28.3809530" lon="-16.4653880">
        <ele>1531.9</ele>
        <time>2020-11-11T13:01:23Z</time>
      </trkpt>
      <trkpt lat="28.3809530" lon="-16.4653880">
        <ele>1531.9</ele>
        <time>2020-11-11T13:01:24Z</time>
      </trkpt>
      <trkpt lat="28.3809600" lon="-16.4654250">
        <ele>1531.9</ele>
        <time>2020-11-11T13:01:25Z</time>
      </trkpt>
      <trkpt lat="28.3809600" lon="-16.4654250">
        <ele>1531.9</ele>
        <time>2020-11-11T13:01:26Z</time>
      </trkpt>
      <trkpt lat="28.3809720" lon="-16.4654730">
        <ele>1531.9</ele>
        <time>2020-11-11T13:01:27Z</time>
      </trkpt>
      <trkpt lat="28.3809720" lon="-16.4654730">
        <ele>1531.9</ele>
        <time>2020-11-11T13:01:28Z</time>
      </trkpt>
      <trkpt lat="28.3809630" lon="-16.4655200">
        <ele>1531.9</ele>
        <time>2020-11-11T13:01:29Z</time>
      </trkpt>
      <trkpt lat="28.3809620" lon="-16.4655400">
        <ele>1531.9</ele>
        <time>2020-11-11T13:01:30Z</time>
      </trkpt>
      <trkpt lat="28.3809620" lon="-16.4655400">
        <ele>1532.9</ele>
        <time>2020-11-11T13:01:31Z</time>
      </trkpt>
      <trkpt lat="28.3809730" lon="-16.4655730">
        <ele>1532.9</ele>
        <time>2020-11-11T13:01:32Z</time>
      </trkpt>
      <trkpt lat="28.3809730" lon="-16.4655730">
        <ele>1532.9</ele>
        <time>2020-11-11T13:01:33Z</time>
      </trkpt>
      <trkpt lat="28.3809620" lon="-16.4656050">
        <ele>1532.9</ele>
        <time>2020-11-11T13:01:34Z</time>
      </trkpt>
      <trkpt lat="28.3809620" lon="-16.4656050">
        <ele>1532.9</ele>
        <time>2020-11-11T13:01:35Z</time>
      </trkpt>
      <trkpt lat="28.3809650" lon="-16.4656330">
        <ele>1533.9</ele>
        <time>2020-11-11T13:01:36Z</time>
      </trkpt>
      <trkpt lat="28.3809650" lon="-16.4656330">
        <ele>1533.9</ele>
        <time>2020-11-11T13:01:37Z</time>
      </trkpt>
      <trkpt lat="28.3809800" lon="-16.4656620">
        <ele>1533.9</ele>
        <time>2020-11-11T13:01:38Z</time>
      </trkpt>
      <trkpt lat="28.3809800" lon="-16.4656620">
        <ele>1533.9</ele>
        <time>2020-11-11T13:01:39Z</time>
      </trkpt>
      <trkpt lat="28.3809980" lon="-16.4656850">
        <ele>1534.9</ele>
        <time>2020-11-11T13:01:40Z</time>
      </trkpt>
      <trkpt lat="28.3810050" lon="-16.4657070">
        <ele>1534.9</ele>
        <time>2020-11-11T13:01:41Z</time>
      </trkpt>
      <trkpt lat="28.3810100" lon="-16.4657230">
        <ele>1534.9</ele>
        <time>2020-11-11T13:01:42Z</time>
      </trkpt>
      <trkpt lat="28.3810200" lon="-16.4657470">
        <ele>1534.9</ele>
        <time>2020-11-11T13:01:43Z</time>
      </trkpt>
      <trkpt lat="28.3810200" lon="-16.4657470">
        <ele>1534.9</ele>
        <time>2020-11-11T13:01:44Z</time>
      </trkpt>
      <trkpt lat="28.3810350" lon="-16.4657920">
        <ele>1534.9</ele>
        <time>2020-11-11T13:01:45Z</time>
      </trkpt>
      <trkpt lat="28.3810350" lon="-16.4658130">
        <ele>1534.9</ele>
        <time>2020-11-11T13:01:46Z</time>
      </trkpt>
      <trkpt lat="28.3810350" lon="-16.4658130">
        <ele>1534.9</ele>
        <time>2020-11-11T13:01:47Z</time>
      </trkpt>
      <trkpt lat="28.3810400" lon="-16.4658700">
        <ele>1534.9</ele>
        <time>2020-11-11T13:01:48Z</time>
      </trkpt>
      <trkpt lat="28.3810400" lon="-16.4658700">
        <ele>1534.9</ele>
        <time>2020-11-11T13:01:49Z</time>
      </trkpt>
      <trkpt lat="28.3810380" lon="-16.4658950">
        <ele>1534.9</ele>
        <time>2020-11-11T13:01:50Z</time>
      </trkpt>
      <trkpt lat="28.3810400" lon="-16.4659130">
        <ele>1534.9</ele>
        <time>2020-11-11T13:01:51Z</time>
      </trkpt>
      <trkpt lat="28.3810400" lon="-16.4659130">
        <ele>1535.9</ele>
        <time>2020-11-11T13:01:52Z</time>
      </trkpt>
      <trkpt lat="28.3810380" lon="-16.4659520">
        <ele>1535.9</ele>
        <time>2020-11-11T13:01:53Z</time>
      </trkpt>
      <trkpt lat="28.3810370" lon="-16.4659730">
        <ele>1535.9</ele>
        <time>2020-11-11T13:01:54Z</time>
      </trkpt>
      <trkpt lat="28.3810370" lon="-16.4659730">
        <ele>1535.9</ele>
        <time>2020-11-11T13:01:55Z</time>
      </trkpt>
      <trkpt lat="28.3810300" lon="-16.4660220">
        <ele>1535.9</ele>
        <time>2020-11-11T13:01:56Z</time>
      </trkpt>
      <trkpt lat="28.3810150" lon="-16.4660400">
        <ele>1535.9</ele>
        <time>2020-11-11T13:01:57Z</time>
      </trkpt>
      <trkpt lat="28.3810150" lon="-16.4660400">
        <ele>1535.9</ele>
        <time>2020-11-11T13:01:58Z</time>
      </trkpt>
      <trkpt lat="28.3809920" lon="-16.4660570">
        <ele>1536.9</ele>
        <time>2020-11-11T13:01:59Z</time>
      </trkpt>
      <trkpt lat="28.3809920" lon="-16.4660570">
        <ele>1536.9</ele>
        <time>2020-11-11T13:02:00Z</time>
      </trkpt>
      <trkpt lat="28.3809600" lon="-16.4660830">
        <ele>1536.9</ele>
        <time>2020-11-11T13:02:01Z</time>
      </trkpt>
      <trkpt lat="28.3809600" lon="-16.4660830">
        <ele>1536.9</ele>
        <time>2020-11-11T13:02:02Z</time>
      </trkpt>
      <trkpt lat="28.3809350" lon="-16.4661370">
        <ele>1536.9</ele>
        <time>2020-11-11T13:02:03Z</time>
      </trkpt>
      <trkpt lat="28.3809370" lon="-16.4661570">
        <ele>1536.9</ele>
        <time>2020-11-11T13:02:04Z</time>
      </trkpt>
      <trkpt lat="28.3809370" lon="-16.4661570">
        <ele>1537.9</ele>
        <time>2020-11-11T13:02:05Z</time>
      </trkpt>
      <trkpt lat="28.3809570" lon="-16.4661850">
        <ele>1537.9</ele>
        <time>2020-11-11T13:02:06Z</time>
      </trkpt>
      <trkpt lat="28.3809570" lon="-16.4661850">
        <ele>1537.9</ele>
        <time>2020-11-11T13:02:07Z</time>
      </trkpt>
      <trkpt lat="28.3809850" lon="-16.4662050">
        <ele>1537.9</ele>
        <time>2020-11-11T13:02:08Z</time>
      </trkpt>
      <trkpt lat="28.3809850" lon="-16.4662050">
        <ele>1537.9</ele>
        <time>2020-11-11T13:02:09Z</time>
      </trkpt>
      <trkpt lat="28.3810080" lon="-16.4662220">
        <ele>1537.9</ele>
        <time>2020-11-11T13:02:10Z</time>
      </trkpt>
      <trkpt lat="28.3810080" lon="-16.4662220">
        <ele>1537.9</ele>
        <time>2020-11-11T13:02:11Z</time>
      </trkpt>
      <trkpt lat="28.3810300" lon="-16.4662370">
        <ele>1537.9</ele>
        <time>2020-11-11T13:02:12Z</time>
      </trkpt>
      <trkpt lat="28.3810470" lon="-16.4662420">
        <ele>1537.9</ele>
        <time>2020-11-11T13:02:13Z</time>
      </trkpt>
      <trkpt lat="28.3810470" lon="-16.4662420">
        <ele>1537.9</ele>
        <time>2020-11-11T13:02:14Z</time>
      </trkpt>
      <trkpt lat="28.3810780" lon="-16.4662470">
        <ele>1538.9</ele>
        <time>2020-11-11T13:02:15Z</time>
      </trkpt>
      <trkpt lat="28.3810780" lon="-16.4662470">
        <ele>1538.9</ele>
        <time>2020-11-11T13:02:16Z</time>
      </trkpt>
      <trkpt lat="28.3811070" lon="-16.4662500">
        <ele>1539.9</ele>
        <time>2020-11-11T13:02:17Z</time>
      </trkpt>
      <trkpt lat="28.3811130" lon="-16.4662650">
        <ele>1539.9</ele>
        <time>2020-11-11T13:02:18Z</time>
      </trkpt>
      <trkpt lat="28.3811230" lon="-16.4662680">
        <ele>1539.9</ele>
        <time>2020-11-11T13:02:19Z</time>
      </trkpt>
      <trkpt lat="28.3811230" lon="-16.4662680">
        <ele>1539.9</ele>
        <time>2020-11-11T13:02:20Z</time>
      </trkpt>
      <trkpt lat="28.3811450" lon="-16.4662750">
        <ele>1540.9</ele>
        <time>2020-11-11T13:02:21Z</time>
      </trkpt>
      <trkpt lat="28.3811450" lon="-16.4662750">
        <ele>1540.9</ele>
        <time>2020-11-11T13:02:22Z</time>
      </trkpt>
      <trkpt lat="28.3811730" lon="-16.4662870">
        <ele>1540.9</ele>
        <time>2020-11-11T13:02:23Z</time>
      </trkpt>
      <trkpt lat="28.3811730" lon="-16.4662870">
        <ele>1540.9</ele>
        <time>2020-11-11T13:02:24Z</time>
      </trkpt>
      <trkpt lat="28.3812200" lon="-16.4662880">
        <ele>1540.9</ele>
        <time>2020-11-11T13:02:25Z</time>
      </trkpt>
      <trkpt lat="28.3812200" lon="-16.4662880">
        <ele>1540.9</ele>
        <time>2020-11-11T13:02:26Z</time>
      </trkpt>
      <trkpt lat="28.3812470" lon="-16.4662870">
        <ele>1540.9</ele>
        <time>2020-11-11T13:02:27Z</time>
      </trkpt>
      <trkpt lat="28.3812470" lon="-16.4662870">
        <ele>1540.9</ele>
        <time>2020-11-11T13:02:28Z</time>
      </trkpt>
      <trkpt lat="28.3812730" lon="-16.4663080">
        <ele>1540.9</ele>
        <time>2020-11-11T13:02:29Z</time>
      </trkpt>
      <trkpt lat="28.3812730" lon="-16.4663080">
        <ele>1541.9</ele>
        <time>2020-11-11T13:02:30Z</time>
      </trkpt>
      <trkpt lat="28.3812950" lon="-16.4663270">
        <ele>1541.9</ele>
        <time>2020-11-11T13:02:31Z</time>
      </trkpt>
      <trkpt lat="28.3812950" lon="-16.4663270">
        <ele>1541.9</ele>
        <time>2020-11-11T13:02:32Z</time>
      </trkpt>
      <trkpt lat="28.3813230" lon="-16.4663450">
        <ele>1541.9</ele>
        <time>2020-11-11T13:02:33Z</time>
      </trkpt>
      <trkpt lat="28.3813280" lon="-16.4663470">
        <ele>1541.9</ele>
        <time>2020-11-11T13:02:34Z</time>
      </trkpt>
      <trkpt lat="28.3813280" lon="-16.4663470">
        <ele>1541.9</ele>
        <time>2020-11-11T13:02:35Z</time>
      </trkpt>
      <trkpt lat="28.3813700" lon="-16.4663730">
        <ele>1542.9</ele>
        <time>2020-11-11T13:02:36Z</time>
      </trkpt>
      <trkpt lat="28.3813700" lon="-16.4663730">
        <ele>1542.9</ele>
        <time>2020-11-11T13:02:37Z</time>
      </trkpt>
      <trkpt lat="28.3814050" lon="-16.4663970">
        <ele>1542.9</ele>
        <time>2020-11-11T13:02:38Z</time>
      </trkpt>
      <trkpt lat="28.3814220" lon="-16.4664080">
        <ele>1542.9</ele>
        <time>2020-11-11T13:02:39Z</time>
      </trkpt>
      <trkpt lat="28.3814220" lon="-16.4664080">
        <ele>1542.9</ele>
        <time>2020-11-11T13:02:40Z</time>
      </trkpt>
      <trkpt lat="28.3814570" lon="-16.4664380">
        <ele>1542.9</ele>
        <time>2020-11-11T13:02:41Z</time>
      </trkpt>
      <trkpt lat="28.3814570" lon="-16.4664380">
        <ele>1542.9</ele>
        <time>2020-11-11T13:02:42Z</time>
      </trkpt>
      <trkpt lat="28.3814830" lon="-16.4664520">
        <ele>1542.9</ele>
        <time>2020-11-11T13:02:43Z</time>
      </trkpt>
      <trkpt lat="28.3814830" lon="-16.4664520">
        <ele>1542.9</ele>
        <time>2020-11-11T13:02:44Z</time>
      </trkpt>
      <trkpt lat="28.3815070" lon="-16.4664780">
        <ele>1542.9</ele>
        <time>2020-11-11T13:02:45Z</time>
      </trkpt>
      <trkpt lat="28.3815070" lon="-16.4664780">
        <ele>1543.9</ele>
        <time>2020-11-11T13:02:46Z</time>
      </trkpt>
      <trkpt lat="28.3815350" lon="-16.4665050">
        <ele>1543.9</ele>
        <time>2020-11-11T13:02:47Z</time>
      </trkpt>
      <trkpt lat="28.3815520" lon="-16.4665180">
        <ele>1543.9</ele>
        <time>2020-11-11T13:02:48Z</time>
      </trkpt>
      <trkpt lat="28.3815520" lon="-16.4665180">
        <ele>1543.9</ele>
        <time>2020-11-11T13:02:49Z</time>
      </trkpt>
      <trkpt lat="28.3815780" lon="-16.4665400">
        <ele>1543.9</ele>
        <time>2020-11-11T13:02:50Z</time>
      </trkpt>
      <trkpt lat="28.3815780" lon="-16.4665400">
        <ele>1544.9</ele>
        <time>2020-11-11T13:02:51Z</time>
      </trkpt>
      <trkpt lat="28.3816150" lon="-16.4665620">
        <ele>1544.9</ele>
        <time>2020-11-11T13:02:52Z</time>
      </trkpt>
      <trkpt lat="28.3816150" lon="-16.4665620">
        <ele>1544.9</ele>
        <time>2020-11-11T13:02:53Z</time>
      </trkpt>
      <trkpt lat="28.3816600" lon="-16.4665970">
        <ele>1544.9</ele>
        <time>2020-11-11T13:02:54Z</time>
      </trkpt>
      <trkpt lat="28.3816820" lon="-16.4666130">
        <ele>1544.9</ele>
        <time>2020-11-11T13:02:55Z</time>
      </trkpt>
      <trkpt lat="28.3816820" lon="-16.4666130">
        <ele>1544.9</ele>
        <time>2020-11-11T13:02:56Z</time>
      </trkpt>
      <trkpt lat="28.3817130" lon="-16.4666430">
        <ele>1544.9</ele>
        <time>2020-11-11T13:02:57Z</time>
      </trkpt>
      <trkpt lat="28.3817130" lon="-16.4666430">
        <ele>1544.9</ele>
        <time>2020-11-11T13:02:58Z</time>
      </trkpt>
      <trkpt lat="28.3817370" lon="-16.4666500">
        <ele>1545.9</ele>
        <time>2020-11-11T13:02:59Z</time>
      </trkpt>
      <trkpt lat="28.3817370" lon="-16.4666500">
        <ele>1545.9</ele>
        <time>2020-11-11T13:03:00Z</time>
      </trkpt>
      <trkpt lat="28.3817580" lon="-16.4666700">
        <ele>1545.9</ele>
        <time>2020-11-11T13:03:01Z</time>
      </trkpt>
      <trkpt lat="28.3817580" lon="-16.4666700">
        <ele>1545.9</ele>
        <time>2020-11-11T13:03:02Z</time>
      </trkpt>
      <trkpt lat="28.3817730" lon="-16.4666980">
        <ele>1545.9</ele>
        <time>2020-11-11T13:03:03Z</time>
      </trkpt>
      <trkpt lat="28.3817730" lon="-16.4666980">
        <ele>1545.9</ele>
        <time>2020-11-11T13:03:04Z</time>
      </trkpt>
      <trkpt lat="28.3817800" lon="-16.4667400">
        <ele>1546.9</ele>
        <time>2020-11-11T13:03:05Z</time>
      </trkpt>
      <trkpt lat="28.3817800" lon="-16.4667400">
        <ele>1546.9</ele>
        <time>2020-11-11T13:03:06Z</time>
      </trkpt>
      <trkpt lat="28.3817600" lon="-16.4667500">
        <ele>1546.9</ele>
        <time>2020-11-11T13:03:07Z</time>
      </trkpt>
      <trkpt lat="28.3817400" lon="-16.4667420">
        <ele>1546.9</ele>
        <time>2020-11-11T13:03:08Z</time>
      </trkpt>
      <trkpt lat="28.3817400" lon="-16.4667420">
        <ele>1546.9</ele>
        <time>2020-11-11T13:03:09Z</time>
      </trkpt>
      <trkpt lat="28.3817000" lon="-16.4667430">
        <ele>1546.9</ele>
        <time>2020-11-11T13:03:10Z</time>
      </trkpt>
      <trkpt lat="28.3817000" lon="-16.4667430">
        <ele>1547.9</ele>
        <time>2020-11-11T13:03:11Z</time>
      </trkpt>
      <trkpt lat="28.3816670" lon="-16.4667350">
        <ele>1547.9</ele>
        <time>2020-11-11T13:03:12Z</time>
      </trkpt>
      <trkpt lat="28.3816530" lon="-16.4667280">
        <ele>1547.9</ele>
        <time>2020-11-11T13:03:13Z</time>
      </trkpt>
      <trkpt lat="28.3816530" lon="-16.4667280">
        <ele>1547.9</ele>
        <time>2020-11-11T13:03:14Z</time>
      </trkpt>
      <trkpt lat="28.3816320" lon="-16.4667150">
        <ele>1548.9</ele>
        <time>2020-11-11T13:03:15Z</time>
      </trkpt>
      <trkpt lat="28.3816220" lon="-16.4667070">
        <ele>1548.9</ele>
        <time>2020-11-11T13:03:16Z</time>
      </trkpt>
      <trkpt lat="28.3816220" lon="-16.4667070">
        <ele>1548.9</ele>
        <time>2020-11-11T13:03:17Z</time>
      </trkpt>
      <trkpt lat="28.3816050" lon="-16.4667020">
        <ele>1548.9</ele>
        <time>2020-11-11T13:03:18Z</time>
      </trkpt>
      <trkpt lat="28.3816000" lon="-16.4667030">
        <ele>1548.9</ele>
        <time>2020-11-11T13:03:19Z</time>
      </trkpt>
      <trkpt lat="28.3816000" lon="-16.4667030">
        <ele>1548.9</ele>
        <time>2020-11-11T13:03:20Z</time>
      </trkpt>
      <trkpt lat="28.3815980" lon="-16.4666830">
        <ele>1549.9</ele>
        <time>2020-11-11T13:03:21Z</time>
      </trkpt>
      <trkpt lat="28.3815980" lon="-16.4666830">
        <ele>1549.9</ele>
        <time>2020-11-11T13:03:22Z</time>
      </trkpt>
      <trkpt lat="28.3815730" lon="-16.4666670">
        <ele>1549.9</ele>
        <time>2020-11-11T13:03:23Z</time>
      </trkpt>
      <trkpt lat="28.3815730" lon="-16.4666670">
        <ele>1550.9</ele>
        <time>2020-11-11T13:03:24Z</time>
      </trkpt>
      <trkpt lat="28.3815400" lon="-16.4666480">
        <ele>1550.9</ele>
        <time>2020-11-11T13:03:25Z</time>
      </trkpt>
      <trkpt lat="28.3815400" lon="-16.4666480">
        <ele>1550.9</ele>
        <time>2020-11-11T13:03:26Z</time>
      </trkpt>
      <trkpt lat="28.3815150" lon="-16.4666370">
        <ele>1550.9</ele>
        <time>2020-11-11T13:03:27Z</time>
      </trkpt>
      <trkpt lat="28.3815000" lon="-16.4666280">
        <ele>1550.9</ele>
        <time>2020-11-11T13:03:28Z</time>
      </trkpt>
      <trkpt lat="28.3815000" lon="-16.4666280">
        <ele>1550.9</ele>
        <time>2020-11-11T13:03:29Z</time>
      </trkpt>
      <trkpt lat="28.3814670" lon="-16.4666080">
        <ele>1550.9</ele>
        <time>2020-11-11T13:03:30Z</time>
      </trkpt>
      <trkpt lat="28.3814670" lon="-16.4666080">
        <ele>1550.9</ele>
        <time>2020-11-11T13:03:31Z</time>
      </trkpt>
      <trkpt lat="28.3814330" lon="-16.4665980">
        <ele>1550.9</ele>
        <time>2020-11-11T13:03:32Z</time>
      </trkpt>
      <trkpt lat="28.3814180" lon="-16.4665920">
        <ele>1551.9</ele>
        <time>2020-11-11T13:03:33Z</time>
      </trkpt>
      <trkpt lat="28.3814180" lon="-16.4665920">
        <ele>1551.9</ele>
        <time>2020-11-11T13:03:34Z</time>
      </trkpt>
      <trkpt lat="28.3813930" lon="-16.4665800">
        <ele>1551.9</ele>
        <time>2020-11-11T13:03:35Z</time>
      </trkpt>
      <trkpt lat="28.3813930" lon="-16.4665800">
        <ele>1551.9</ele>
        <time>2020-11-11T13:03:36Z</time>
      </trkpt>
      <trkpt lat="28.3813570" lon="-16.4665670">
        <ele>1551.9</ele>
        <time>2020-11-11T13:03:37Z</time>
      </trkpt>
      <trkpt lat="28.3813400" lon="-16.4665630">
        <ele>1551.9</ele>
        <time>2020-11-11T13:03:38Z</time>
      </trkpt>
      <trkpt lat="28.3813400" lon="-16.4665630">
        <ele>1552.9</ele>
        <time>2020-11-11T13:03:39Z</time>
      </trkpt>
      <trkpt lat="28.3813100" lon="-16.4665580">
        <ele>1552.9</ele>
        <time>2020-11-11T13:03:40Z</time>
      </trkpt>
      <trkpt lat="28.3813100" lon="-16.4665580">
        <ele>1552.9</ele>
        <time>2020-11-11T13:03:41Z</time>
      </trkpt>
      <trkpt lat="28.3812830" lon="-16.4665520">
        <ele>1552.9</ele>
        <time>2020-11-11T13:03:42Z</time>
      </trkpt>
      <trkpt lat="28.3812830" lon="-16.4665520">
        <ele>1553.9</ele>
        <time>2020-11-11T13:03:43Z</time>
      </trkpt>
      <trkpt lat="28.3812620" lon="-16.4665450">
        <ele>1553.9</ele>
        <time>2020-11-11T13:03:44Z</time>
      </trkpt>
      <trkpt lat="28.3812530" lon="-16.4665400">
        <ele>1553.9</ele>
        <time>2020-11-11T13:03:45Z</time>
      </trkpt>
      <trkpt lat="28.3812530" lon="-16.4665400">
        <ele>1553.9</ele>
        <time>2020-11-11T13:03:46Z</time>
      </trkpt>
      <trkpt lat="28.3812300" lon="-16.4665300">
        <ele>1553.9</ele>
        <time>2020-11-11T13:03:47Z</time>
      </trkpt>
      <trkpt lat="28.3812300" lon="-16.4665300">
        <ele>1554.9</ele>
        <time>2020-11-11T13:03:48Z</time>
      </trkpt>
      <trkpt lat="28.3812020" lon="-16.4665320">
        <ele>1554.9</ele>
        <time>2020-11-11T13:03:49Z</time>
      </trkpt>
      <trkpt lat="28.3812020" lon="-16.4665320">
        <ele>1554.9</ele>
        <time>2020-11-11T13:03:50Z</time>
      </trkpt>
      <trkpt lat="28.3811620" lon="-16.4665280">
        <ele>1554.9</ele>
        <time>2020-11-11T13:03:51Z</time>
      </trkpt>
      <trkpt lat="28.3811620" lon="-16.4665280">
        <ele>1554.9</ele>
        <time>2020-11-11T13:03:52Z</time>
      </trkpt>
      <trkpt lat="28.3811350" lon="-16.4665200">
        <ele>1554.9</ele>
        <time>2020-11-11T13:03:53Z</time>
      </trkpt>
      <trkpt lat="28.3811180" lon="-16.4665150">
        <ele>1554.9</ele>
        <time>2020-11-11T13:03:54Z</time>
      </trkpt>
      <trkpt lat="28.3811180" lon="-16.4665150">
        <ele>1554.9</ele>
        <time>2020-11-11T13:03:55Z</time>
      </trkpt>
      <trkpt lat="28.3810850" lon="-16.4665220">
        <ele>1554.9</ele>
        <time>2020-11-11T13:03:56Z</time>
      </trkpt>
      <trkpt lat="28.3810850" lon="-16.4665220">
        <ele>1554.9</ele>
        <time>2020-11-11T13:03:57Z</time>
      </trkpt>
      <trkpt lat="28.3810400" lon="-16.4665120">
        <ele>1555.9</ele>
        <time>2020-11-11T13:03:58Z</time>
      </trkpt>
      <trkpt lat="28.3810400" lon="-16.4665120">
        <ele>1555.9</ele>
        <time>2020-11-11T13:03:59Z</time>
      </trkpt>
      <trkpt lat="28.3810070" lon="-16.4665080">
        <ele>1555.9</ele>
        <time>2020-11-11T13:04:00Z</time>
      </trkpt>
      <trkpt lat="28.3809930" lon="-16.4665100">
        <ele>1555.9</ele>
        <time>2020-11-11T13:04:01Z</time>
      </trkpt>
      <trkpt lat="28.3809930" lon="-16.4665100">
        <ele>1555.9</ele>
        <time>2020-11-11T13:04:02Z</time>
      </trkpt>
      <trkpt lat="28.3809650" lon="-16.4665130">
        <ele>1556.9</ele>
        <time>2020-11-11T13:04:03Z</time>
      </trkpt>
      <trkpt lat="28.3809520" lon="-16.4665170">
        <ele>1556.9</ele>
        <time>2020-11-11T13:04:04Z</time>
      </trkpt>
      <trkpt lat="28.3809400" lon="-16.4665250">
        <ele>1556.9</ele>
        <time>2020-11-11T13:04:05Z</time>
      </trkpt>
      <trkpt lat="28.3809250" lon="-16.4665280">
        <ele>1556.9</ele>
        <time>2020-11-11T13:04:06Z</time>
      </trkpt>
      <trkpt lat="28.3809130" lon="-16.4665320">
        <ele>1556.9</ele>
        <time>2020-11-11T13:04:07Z</time>
      </trkpt>
      <trkpt lat="28.3809130" lon="-16.4665320">
        <ele>1556.9</ele>
        <time>2020-11-11T13:04:08Z</time>
      </trkpt>
      <trkpt lat="28.3808830" lon="-16.4665370">
        <ele>1557.9</ele>
        <time>2020-11-11T13:04:09Z</time>
      </trkpt>
      <trkpt lat="28.3808830" lon="-16.4665370">
        <ele>1557.9</ele>
        <time>2020-11-11T13:04:10Z</time>
      </trkpt>
      <trkpt lat="28.3808470" lon="-16.4665420">
        <ele>1557.9</ele>
        <time>2020-11-11T13:04:11Z</time>
      </trkpt>
      <trkpt lat="28.3808300" lon="-16.4665430">
        <ele>1557.9</ele>
        <time>2020-11-11T13:04:12Z</time>
      </trkpt>
      <trkpt lat="28.3808300" lon="-16.4665430">
        <ele>1557.9</ele>
        <time>2020-11-11T13:04:13Z</time>
      </trkpt>
      <trkpt lat="28.3808020" lon="-16.4665500">
        <ele>1557.9</ele>
        <time>2020-11-11T13:04:14Z</time>
      </trkpt>
      <trkpt lat="28.3808020" lon="-16.4665500">
        <ele>1558.9</ele>
        <time>2020-11-11T13:04:15Z</time>
      </trkpt>
      <trkpt lat="28.3807720" lon="-16.4665570">
        <ele>1558.9</ele>
        <time>2020-11-11T13:04:16Z</time>
      </trkpt>
      <trkpt lat="28.3807500" lon="-16.4665620">
        <ele>1558.9</ele>
        <time>2020-11-11T13:04:17Z</time>
      </trkpt>
      <trkpt lat="28.3807500" lon="-16.4665620">
        <ele>1558.9</ele>
        <time>2020-11-11T13:04:18Z</time>
      </trkpt>
      <trkpt lat="28.3807120" lon="-16.4665730">
        <ele>1558.9</ele>
        <time>2020-11-11T13:04:19Z</time>
      </trkpt>
      <trkpt lat="28.3807120" lon="-16.4665730">
        <ele>1558.9</ele>
        <time>2020-11-11T13:04:20Z</time>
      </trkpt>
      <trkpt lat="28.3806850" lon="-16.4665900">
        <ele>1559.9</ele>
        <time>2020-11-11T13:04:21Z</time>
      </trkpt>
      <trkpt lat="28.3806850" lon="-16.4665900">
        <ele>1559.9</ele>
        <time>2020-11-11T13:04:22Z</time>
      </trkpt>
      <trkpt lat="28.3806620" lon="-16.4666150">
        <ele>1559.9</ele>
        <time>2020-11-11T13:04:23Z</time>
      </trkpt>
      <trkpt lat="28.3806620" lon="-16.4666150">
        <ele>1559.9</ele>
        <time>2020-11-11T13:04:24Z</time>
      </trkpt>
      <trkpt lat="28.3806300" lon="-16.4666180">
        <ele>1559.9</ele>
        <time>2020-11-11T13:04:25Z</time>
      </trkpt>
      <trkpt lat="28.3806300" lon="-16.4666180">
        <ele>1559.9</ele>
        <time>2020-11-11T13:04:26Z</time>
      </trkpt>
      <trkpt lat="28.3805950" lon="-16.4666220">
        <ele>1560.9</ele>
        <time>2020-11-11T13:04:27Z</time>
      </trkpt>
      <trkpt lat="28.3805820" lon="-16.4666300">
        <ele>1560.9</ele>
        <time>2020-11-11T13:04:28Z</time>
      </trkpt>
      <trkpt lat="28.3805820" lon="-16.4666300">
        <ele>1560.9</ele>
        <time>2020-11-11T13:04:29Z</time>
      </trkpt>
      <trkpt lat="28.3805520" lon="-16.4666380">
        <ele>1560.9</ele>
        <time>2020-11-11T13:04:30Z</time>
      </trkpt>
      <trkpt lat="28.3805330" lon="-16.4666400">
        <ele>1561.9</ele>
        <time>2020-11-11T13:04:31Z</time>
      </trkpt>
      <trkpt lat="28.3805170" lon="-16.4666450">
        <ele>1561.9</ele>
        <time>2020-11-11T13:04:32Z</time>
      </trkpt>
      <trkpt lat="28.3805170" lon="-16.4666450">
        <ele>1561.9</ele>
        <time>2020-11-11T13:04:33Z</time>
      </trkpt>
      <trkpt lat="28.3804870" lon="-16.4666530">
        <ele>1561.9</ele>
        <time>2020-11-11T13:04:34Z</time>
      </trkpt>
      <trkpt lat="28.3804870" lon="-16.4666530">
        <ele>1562.9</ele>
        <time>2020-11-11T13:04:35Z</time>
      </trkpt>
      <trkpt lat="28.3804550" lon="-16.4666500">
        <ele>1562.9</ele>
        <time>2020-11-11T13:04:36Z</time>
      </trkpt>
      <trkpt lat="28.3804380" lon="-16.4666530">
        <ele>1562.9</ele>
        <time>2020-11-11T13:04:37Z</time>
      </trkpt>
      <trkpt lat="28.3804380" lon="-16.4666530">
        <ele>1563.9</ele>
        <time>2020-11-11T13:04:38Z</time>
      </trkpt>
      <trkpt lat="28.3803980" lon="-16.4666450">
        <ele>1563.9</ele>
        <time>2020-11-11T13:04:39Z</time>
      </trkpt>
      <trkpt lat="28.3803980" lon="-16.4666450">
        <ele>1563.9</ele>
        <time>2020-11-11T13:04:40Z</time>
      </trkpt>
      <trkpt lat="28.3803670" lon="-16.4666470">
        <ele>1563.9</ele>
        <time>2020-11-11T13:04:41Z</time>
      </trkpt>
      <trkpt lat="28.3803530" lon="-16.4666500">
        <ele>1564.9</ele>
        <time>2020-11-11T13:04:42Z</time>
      </trkpt>
      <trkpt lat="28.3803530" lon="-16.4666500">
        <ele>1564.9</ele>
        <time>2020-11-11T13:04:43Z</time>
      </trkpt>
      <trkpt lat="28.3803230" lon="-16.4666530">
        <ele>1564.9</ele>
        <time>2020-11-11T13:04:44Z</time>
      </trkpt>
      <trkpt lat="28.3803070" lon="-16.4666430">
        <ele>1564.9</ele>
        <time>2020-11-11T13:04:45Z</time>
      </trkpt>
      <trkpt lat="28.3803070" lon="-16.4666430">
        <ele>1565.9</ele>
        <time>2020-11-11T13:04:46Z</time>
      </trkpt>
      <trkpt lat="28.3802750" lon="-16.4666300">
        <ele>1565.9</ele>
        <time>2020-11-11T13:04:47Z</time>
      </trkpt>
      <trkpt lat="28.3802750" lon="-16.4666300">
        <ele>1565.9</ele>
        <time>2020-11-11T13:04:48Z</time>
      </trkpt>
      <trkpt lat="28.3802500" lon="-16.4666120">
        <ele>1565.9</ele>
        <time>2020-11-11T13:04:49Z</time>
      </trkpt>
      <trkpt lat="28.3802500" lon="-16.4666120">
        <ele>1565.9</ele>
        <time>2020-11-11T13:04:50Z</time>
      </trkpt>
      <trkpt lat="28.3802300" lon="-16.4665600">
        <ele>1565.9</ele>
        <time>2020-11-11T13:04:51Z</time>
      </trkpt>
      <trkpt lat="28.3802300" lon="-16.4665600">
        <ele>1565.9</ele>
        <time>2020-11-11T13:04:52Z</time>
      </trkpt>
      <trkpt lat="28.3802200" lon="-16.4665220">
        <ele>1565.9</ele>
        <time>2020-11-11T13:04:53Z</time>
      </trkpt>
      <trkpt lat="28.3802200" lon="-16.4665220">
        <ele>1565.9</ele>
        <time>2020-11-11T13:04:54Z</time>
      </trkpt>
      <trkpt lat="28.3802220" lon="-16.4664900">
        <ele>1565.9</ele>
        <time>2020-11-11T13:04:55Z</time>
      </trkpt>
      <trkpt lat="28.3802220" lon="-16.4664900">
        <ele>1565.9</ele>
        <time>2020-11-11T13:04:56Z</time>
      </trkpt>
      <trkpt lat="28.3802250" lon="-16.4664730">
        <ele>1565.9</ele>
        <time>2020-11-11T13:04:57Z</time>
      </trkpt>
      <trkpt lat="28.3802250" lon="-16.4664730">
        <ele>1566.9</ele>
        <time>2020-11-11T13:04:58Z</time>
      </trkpt>
      <trkpt lat="28.3802370" lon="-16.4664400">
        <ele>1566.9</ele>
        <time>2020-11-11T13:04:59Z</time>
      </trkpt>
      <trkpt lat="28.3802370" lon="-16.4664400">
        <ele>1566.9</ele>
        <time>2020-11-11T13:05:00Z</time>
      </trkpt>
      <trkpt lat="28.3802500" lon="-16.4664050">
        <ele>1566.9</ele>
        <time>2020-11-11T13:05:01Z</time>
      </trkpt>
      <trkpt lat="28.3802500" lon="-16.4664050">
        <ele>1566.9</ele>
        <time>2020-11-11T13:05:02Z</time>
      </trkpt>
      <trkpt lat="28.3802650" lon="-16.4663730">
        <ele>1566.9</ele>
        <time>2020-11-11T13:05:03Z</time>
      </trkpt>
      <trkpt lat="28.3802650" lon="-16.4663730">
        <ele>1566.9</ele>
        <time>2020-11-11T13:05:04Z</time>
      </trkpt>
      <trkpt lat="28.3802750" lon="-16.4663420">
        <ele>1566.9</ele>
        <time>2020-11-11T13:05:05Z</time>
      </trkpt>
      <trkpt lat="28.3802750" lon="-16.4663420">
        <ele>1567.9</ele>
        <time>2020-11-11T13:05:06Z</time>
      </trkpt>
      <trkpt lat="28.3802850" lon="-16.4663030">
        <ele>1567.9</ele>
        <time>2020-11-11T13:05:07Z</time>
      </trkpt>
      <trkpt lat="28.3802850" lon="-16.4663030">
        <ele>1567.9</ele>
        <time>2020-11-11T13:05:08Z</time>
      </trkpt>
      <trkpt lat="28.3802980" lon="-16.4662700">
        <ele>1567.9</ele>
        <time>2020-11-11T13:05:09Z</time>
      </trkpt>
      <trkpt lat="28.3802980" lon="-16.4662700">
        <ele>1567.9</ele>
        <time>2020-11-11T13:05:10Z</time>
      </trkpt>
      <trkpt lat="28.3803030" lon="-16.4662370">
        <ele>1567.9</ele>
        <time>2020-11-11T13:05:11Z</time>
      </trkpt>
      <trkpt lat="28.3803030" lon="-16.4662370">
        <ele>1567.9</ele>
        <time>2020-11-11T13:05:12Z</time>
      </trkpt>
      <trkpt lat="28.3803170" lon="-16.4661950">
        <ele>1568.9</ele>
        <time>2020-11-11T13:05:13Z</time>
      </trkpt>
      <trkpt lat="28.3803170" lon="-16.4661950">
        <ele>1568.9</ele>
        <time>2020-11-11T13:05:14Z</time>
      </trkpt>
      <trkpt lat="28.3803320" lon="-16.4661530">
        <ele>1568.9</ele>
        <time>2020-11-11T13:05:15Z</time>
      </trkpt>
      <trkpt lat="28.3803330" lon="-16.4661330">
        <ele>1568.9</ele>
        <time>2020-11-11T13:05:16Z</time>
      </trkpt>
      <trkpt lat="28.3803330" lon="-16.4661330">
        <ele>1568.9</ele>
        <time>2020-11-11T13:05:17Z</time>
      </trkpt>
      <trkpt lat="28.3803380" lon="-16.4660970">
        <ele>1569.9</ele>
        <time>2020-11-11T13:05:18Z</time>
      </trkpt>
      <trkpt lat="28.3803380" lon="-16.4660970">
        <ele>1569.9</ele>
        <time>2020-11-11T13:05:19Z</time>
      </trkpt>
      <trkpt lat="28.3803430" lon="-16.4660570">
        <ele>1569.9</ele>
        <time>2020-11-11T13:05:20Z</time>
      </trkpt>
      <trkpt lat="28.3803430" lon="-16.4660570">
        <ele>1569.9</ele>
        <time>2020-11-11T13:05:21Z</time>
      </trkpt>
      <trkpt lat="28.3803420" lon="-16.4660230">
        <ele>1569.9</ele>
        <time>2020-11-11T13:05:22Z</time>
      </trkpt>
      <trkpt lat="28.3803380" lon="-16.4660100">
        <ele>1569.9</ele>
        <time>2020-11-11T13:05:23Z</time>
      </trkpt>
      <trkpt lat="28.3803380" lon="-16.4660100">
        <ele>1570.9</ele>
        <time>2020-11-11T13:05:24Z</time>
      </trkpt>
      <trkpt lat="28.3803300" lon="-16.4659850">
        <ele>1570.9</ele>
        <time>2020-11-11T13:05:25Z</time>
      </trkpt>
      <trkpt lat="28.3803300" lon="-16.4659850">
        <ele>1570.9</ele>
        <time>2020-11-11T13:05:26Z</time>
      </trkpt>
      <trkpt lat="28.3803280" lon="-16.4659470">
        <ele>1570.9</ele>
        <time>2020-11-11T13:05:27Z</time>
      </trkpt>
      <trkpt lat="28.3803250" lon="-16.4659320">
        <ele>1570.9</ele>
        <time>2020-11-11T13:05:28Z</time>
      </trkpt>
      <trkpt lat="28.3803250" lon="-16.4659320">
        <ele>1570.9</ele>
        <time>2020-11-11T13:05:29Z</time>
      </trkpt>
      <trkpt lat="28.3803170" lon="-16.4658900">
        <ele>1571.9</ele>
        <time>2020-11-11T13:05:30Z</time>
      </trkpt>
      <trkpt lat="28.3803100" lon="-16.4658700">
        <ele>1571.9</ele>
        <time>2020-11-11T13:05:31Z</time>
      </trkpt>
      <trkpt lat="28.3803100" lon="-16.4658700">
        <ele>1571.9</ele>
        <time>2020-11-11T13:05:32Z</time>
      </trkpt>
      <trkpt lat="28.3803130" lon="-16.4658320">
        <ele>1571.9</ele>
        <time>2020-11-11T13:05:33Z</time>
      </trkpt>
      <trkpt lat="28.3803130" lon="-16.4658320">
        <ele>1571.9</ele>
        <time>2020-11-11T13:05:34Z</time>
      </trkpt>
      <trkpt lat="28.3803130" lon="-16.4657980">
        <ele>1571.9</ele>
        <time>2020-11-11T13:05:35Z</time>
      </trkpt>
      <trkpt lat="28.3803130" lon="-16.4657980">
        <ele>1572.9</ele>
        <time>2020-11-11T13:05:36Z</time>
      </trkpt>
      <trkpt lat="28.3803120" lon="-16.4657630">
        <ele>1572.9</ele>
        <time>2020-11-11T13:05:37Z</time>
      </trkpt>
      <trkpt lat="28.3803120" lon="-16.4657630">
        <ele>1572.9</ele>
        <time>2020-11-11T13:05:38Z</time>
      </trkpt>
      <trkpt lat="28.3803080" lon="-16.4657370">
        <ele>1572.9</ele>
        <time>2020-11-11T13:05:39Z</time>
      </trkpt>
      <trkpt lat="28.3803080" lon="-16.4657370">
        <ele>1572.9</ele>
        <time>2020-11-11T13:05:40Z</time>
      </trkpt>
      <trkpt lat="28.3802980" lon="-16.4657100">
        <ele>1572.9</ele>
        <time>2020-11-11T13:05:41Z</time>
      </trkpt>
      <trkpt lat="28.3802800" lon="-16.4656920">
        <ele>1573.9</ele>
        <time>2020-11-11T13:05:42Z</time>
      </trkpt>
      <trkpt lat="28.3802800" lon="-16.4656920">
        <ele>1573.9</ele>
        <time>2020-11-11T13:05:43Z</time>
      </trkpt>
      <trkpt lat="28.3802650" lon="-16.4656850">
        <ele>1573.9</ele>
        <time>2020-11-11T13:05:44Z</time>
      </trkpt>
      <trkpt lat="28.3802650" lon="-16.4656850">
        <ele>1573.9</ele>
        <time>2020-11-11T13:05:45Z</time>
      </trkpt>
      <trkpt lat="28.3802520" lon="-16.4656880">
        <ele>1573.9</ele>
        <time>2020-11-11T13:05:46Z</time>
      </trkpt>
      <trkpt lat="28.3802520" lon="-16.4656880">
        <ele>1573.9</ele>
        <time>2020-11-11T13:05:47Z</time>
      </trkpt>
      <trkpt lat="28.3802350" lon="-16.4656850">
        <ele>1573.9</ele>
        <time>2020-11-11T13:05:48Z</time>
      </trkpt>
      <trkpt lat="28.3802350" lon="-16.4656850">
        <ele>1573.9</ele>
        <time>2020-11-11T13:05:49Z</time>
      </trkpt>
      <trkpt lat="28.3802250" lon="-16.4656880">
        <ele>1574.9</ele>
        <time>2020-11-11T13:05:50Z</time>
      </trkpt>
      <trkpt lat="28.3802250" lon="-16.4656880">
        <ele>1574.9</ele>
        <time>2020-11-11T13:05:51Z</time>
      </trkpt>
      <trkpt lat="28.3802100" lon="-16.4657680">
        <ele>1574.9</ele>
        <time>2020-11-11T13:07:07Z</time>
      </trkpt>
      <trkpt lat="28.3802100" lon="-16.4657680">
        <ele>1574.9</ele>
        <time>2020-11-11T13:07:08Z</time>
      </trkpt>
      <trkpt lat="28.3802270" lon="-16.4658100">
        <ele>1574.9</ele>
        <time>2020-11-11T13:07:09Z</time>
      </trkpt>
      <trkpt lat="28.3802270" lon="-16.4658100">
        <ele>1574.9</ele>
        <time>2020-11-11T13:07:10Z</time>
      </trkpt>
      <trkpt lat="28.3802400" lon="-16.4658400">
        <ele>1574.9</ele>
        <time>2020-11-11T13:07:11Z</time>
      </trkpt>
      <trkpt lat="28.3802520" lon="-16.4658570">
        <ele>1575.9</ele>
        <time>2020-11-11T13:07:12Z</time>
      </trkpt>
      <trkpt lat="28.3802520" lon="-16.4658570">
        <ele>1575.9</ele>
        <time>2020-11-11T13:07:13Z</time>
      </trkpt>
      <trkpt lat="28.3802600" lon="-16.4658970">
        <ele>1575.9</ele>
        <time>2020-11-11T13:07:14Z</time>
      </trkpt>
      <trkpt lat="28.3802600" lon="-16.4658970">
        <ele>1575.9</ele>
        <time>2020-11-11T13:07:15Z</time>
      </trkpt>
      <trkpt lat="28.3802650" lon="-16.4659430">
        <ele>1575.9</ele>
        <time>2020-11-11T13:07:16Z</time>
      </trkpt>
      <trkpt lat="28.3802650" lon="-16.4659680">
        <ele>1575.9</ele>
        <time>2020-11-11T13:07:17Z</time>
      </trkpt>
      <trkpt lat="28.3802650" lon="-16.4659680">
        <ele>1575.9</ele>
        <time>2020-11-11T13:07:18Z</time>
      </trkpt>
      <trkpt lat="28.3802670" lon="-16.4660120">
        <ele>1575.9</ele>
        <time>2020-11-11T13:07:19Z</time>
      </trkpt>
      <trkpt lat="28.3802670" lon="-16.4660120">
        <ele>1575.9</ele>
        <time>2020-11-11T13:07:20Z</time>
      </trkpt>
      <trkpt lat="28.3802570" lon="-16.4660520">
        <ele>1575.9</ele>
        <time>2020-11-11T13:07:21Z</time>
      </trkpt>
      <trkpt lat="28.3802470" lon="-16.4660670">
        <ele>1576.9</ele>
        <time>2020-11-11T13:07:22Z</time>
      </trkpt>
      <trkpt lat="28.3802470" lon="-16.4660670">
        <ele>1576.9</ele>
        <time>2020-11-11T13:07:23Z</time>
      </trkpt>
      <trkpt lat="28.3802300" lon="-16.4661130">
        <ele>1576.9</ele>
        <time>2020-11-11T13:07:24Z</time>
      </trkpt>
      <trkpt lat="28.3802300" lon="-16.4661130">
        <ele>1576.9</ele>
        <time>2020-11-11T13:07:25Z</time>
      </trkpt>
      <trkpt lat="28.3802130" lon="-16.4661530">
        <ele>1576.9</ele>
        <time>2020-11-11T13:07:26Z</time>
      </trkpt>
      <trkpt lat="28.3802130" lon="-16.4661530">
        <ele>1576.9</ele>
        <time>2020-11-11T13:07:27Z</time>
      </trkpt>
      <trkpt lat="28.3801880" lon="-16.4661970">
        <ele>1576.9</ele>
        <time>2020-11-11T13:07:28Z</time>
      </trkpt>
      <trkpt lat="28.3801880" lon="-16.4661970">
        <ele>1577.9</ele>
        <time>2020-11-11T13:07:29Z</time>
      </trkpt>
      <trkpt lat="28.3801750" lon="-16.4662400">
        <ele>1577.9</ele>
        <time>2020-11-11T13:07:30Z</time>
      </trkpt>
      <trkpt lat="28.3801630" lon="-16.4662570">
        <ele>1577.9</ele>
        <time>2020-11-11T13:07:31Z</time>
      </trkpt>
      <trkpt lat="28.3801630" lon="-16.4662570">
        <ele>1577.9</ele>
        <time>2020-11-11T13:07:32Z</time>
      </trkpt>
      <trkpt lat="28.3801350" lon="-16.4662900">
        <ele>1577.9</ele>
        <time>2020-11-11T13:07:33Z</time>
      </trkpt>
      <trkpt lat="28.3801350" lon="-16.4662900">
        <ele>1577.9</ele>
        <time>2020-11-11T13:07:34Z</time>
      </trkpt>
      <trkpt lat="28.3801070" lon="-16.4663170">
        <ele>1578.9</ele>
        <time>2020-11-11T13:07:35Z</time>
      </trkpt>
      <trkpt lat="28.3801070" lon="-16.4663170">
        <ele>1578.9</ele>
        <time>2020-11-11T13:07:36Z</time>
      </trkpt>
      <trkpt lat="28.3800950" lon="-16.4663400">
        <ele>1578.9</ele>
        <time>2020-11-11T13:07:37Z</time>
      </trkpt>
      <trkpt lat="28.3800950" lon="-16.4663400">
        <ele>1578.9</ele>
        <time>2020-11-11T13:07:38Z</time>
      </trkpt>
      <trkpt lat="28.3800650" lon="-16.4663630">
        <ele>1578.9</ele>
        <time>2020-11-11T13:07:39Z</time>
      </trkpt>
      <trkpt lat="28.3800650" lon="-16.4663630">
        <ele>1578.9</ele>
        <time>2020-11-11T13:07:40Z</time>
      </trkpt>
      <trkpt lat="28.3800020" lon="-16.4664000">
        <ele>1578.9</ele>
        <time>2020-11-11T13:07:41Z</time>
      </trkpt>
      <trkpt lat="28.3800020" lon="-16.4664000">
        <ele>1578.9</ele>
        <time>2020-11-11T13:07:42Z</time>
      </trkpt>
      <trkpt lat="28.3799380" lon="-16.4664250">
        <ele>1578.9</ele>
        <time>2020-11-11T13:07:43Z</time>
      </trkpt>
      <trkpt lat="28.3799200" lon="-16.4664400">
        <ele>1578.9</ele>
        <time>2020-11-11T13:07:44Z</time>
      </trkpt>
      <trkpt lat="28.3799200" lon="-16.4664400">
        <ele>1578.9</ele>
        <time>2020-11-11T13:07:45Z</time>
      </trkpt>
      <trkpt lat="28.3799070" lon="-16.4664850">
        <ele>1578.9</ele>
        <time>2020-11-11T13:07:46Z</time>
      </trkpt>
      <trkpt lat="28.3799070" lon="-16.4664850">
        <ele>1578.9</ele>
        <time>2020-11-11T13:07:47Z</time>
      </trkpt>
      <trkpt lat="28.3799180" lon="-16.4665300">
        <ele>1578.9</ele>
        <time>2020-11-11T13:07:48Z</time>
      </trkpt>
      <trkpt lat="28.3799180" lon="-16.4665300">
        <ele>1579.9</ele>
        <time>2020-11-11T13:07:49Z</time>
      </trkpt>
      <trkpt lat="28.3799180" lon="-16.4665700">
        <ele>1579.9</ele>
        <time>2020-11-11T13:07:50Z</time>
      </trkpt>
      <trkpt lat="28.3799180" lon="-16.4665700">
        <ele>1579.9</ele>
        <time>2020-11-11T13:07:51Z</time>
      </trkpt>
      <trkpt lat="28.3799170" lon="-16.4666170">
        <ele>1579.9</ele>
        <time>2020-11-11T13:07:52Z</time>
      </trkpt>
      <trkpt lat="28.3799170" lon="-16.4666170">
        <ele>1580.9</ele>
        <time>2020-11-11T13:07:53Z</time>
      </trkpt>
      <trkpt lat="28.3799150" lon="-16.4666630">
        <ele>1580.9</ele>
        <time>2020-11-11T13:07:54Z</time>
      </trkpt>
      <trkpt lat="28.3799150" lon="-16.4666630">
        <ele>1580.9</ele>
        <time>2020-11-11T13:07:55Z</time>
      </trkpt>
      <trkpt lat="28.3799350" lon="-16.4667030">
        <ele>1580.9</ele>
        <time>2020-11-11T13:07:56Z</time>
      </trkpt>
      <trkpt lat="28.3799280" lon="-16.4667350">
        <ele>1580.9</ele>
        <time>2020-11-11T13:07:57Z</time>
      </trkpt>
      <trkpt lat="28.3799300" lon="-16.4667570">
        <ele>1580.9</ele>
        <time>2020-11-11T13:07:58Z</time>
      </trkpt>
      <trkpt lat="28.3799300" lon="-16.4667570">
        <ele>1581.9</ele>
        <time>2020-11-11T13:07:59Z</time>
      </trkpt>
      <trkpt lat="28.3799280" lon="-16.4668070">
        <ele>1581.9</ele>
        <time>2020-11-11T13:08:00Z</time>
      </trkpt>
      <trkpt lat="28.3799280" lon="-16.4668070">
        <ele>1581.9</ele>
        <time>2020-11-11T13:08:01Z</time>
      </trkpt>
      <trkpt lat="28.3799270" lon="-16.4668530">
        <ele>1581.9</ele>
        <time>2020-11-11T13:08:02Z</time>
      </trkpt>
      <trkpt lat="28.3799270" lon="-16.4668530">
        <ele>1581.9</ele>
        <time>2020-11-11T13:08:03Z</time>
      </trkpt>
      <trkpt lat="28.3799200" lon="-16.4668920">
        <ele>1581.9</ele>
        <time>2020-11-11T13:08:04Z</time>
      </trkpt>
      <trkpt lat="28.3799150" lon="-16.4669100">
        <ele>1582.9</ele>
        <time>2020-11-11T13:08:05Z</time>
      </trkpt>
      <trkpt lat="28.3799320" lon="-16.4669370">
        <ele>1582.9</ele>
        <time>2020-11-11T13:08:06Z</time>
      </trkpt>
      <trkpt lat="28.3799320" lon="-16.4669370">
        <ele>1582.9</ele>
        <time>2020-11-11T13:08:07Z</time>
      </trkpt>
      <trkpt lat="28.3799180" lon="-16.4669730">
        <ele>1582.9</ele>
        <time>2020-11-11T13:08:08Z</time>
      </trkpt>
      <trkpt lat="28.3799180" lon="-16.4669730">
        <ele>1583.9</ele>
        <time>2020-11-11T13:08:09Z</time>
      </trkpt>
      <trkpt lat="28.3799130" lon="-16.4670020">
        <ele>1583.9</ele>
        <time>2020-11-11T13:08:10Z</time>
      </trkpt>
      <trkpt lat="28.3799130" lon="-16.4670020">
        <ele>1583.9</ele>
        <time>2020-11-11T13:08:11Z</time>
      </trkpt>
      <trkpt lat="28.3798800" lon="-16.4670630">
        <ele>1583.9</ele>
        <time>2020-11-11T13:08:12Z</time>
      </trkpt>
      <trkpt lat="28.3798800" lon="-16.4670630">
        <ele>1583.9</ele>
        <time>2020-11-11T13:08:13Z</time>
      </trkpt>
      <trkpt lat="28.3798520" lon="-16.4671200">
        <ele>1583.9</ele>
        <time>2020-11-11T13:08:14Z</time>
      </trkpt>
      <trkpt lat="28.3798520" lon="-16.4671200">
        <ele>1583.9</ele>
        <time>2020-11-11T13:08:15Z</time>
      </trkpt>
      <trkpt lat="28.3798300" lon="-16.4671600">
        <ele>1583.9</ele>
        <time>2020-11-11T13:08:16Z</time>
      </trkpt>
      <trkpt lat="28.3798300" lon="-16.4671600">
        <ele>1583.9</ele>
        <time>2020-11-11T13:08:17Z</time>
      </trkpt>
      <trkpt lat="28.3798020" lon="-16.4671950">
        <ele>1583.9</ele>
        <time>2020-11-11T13:08:18Z</time>
      </trkpt>
      <trkpt lat="28.3797870" lon="-16.4672120">
        <ele>1583.9</ele>
        <time>2020-11-11T13:08:19Z</time>
      </trkpt>
      <trkpt lat="28.3797870" lon="-16.4672120">
        <ele>1583.9</ele>
        <time>2020-11-11T13:08:20Z</time>
      </trkpt>
      <trkpt lat="28.3797580" lon="-16.4672380">
        <ele>1583.9</ele>
        <time>2020-11-11T13:08:21Z</time>
      </trkpt>
      <trkpt lat="28.3797580" lon="-16.4672380">
        <ele>1583.9</ele>
        <time>2020-11-11T13:08:22Z</time>
      </trkpt>
      <trkpt lat="28.3797470" lon="-16.4672700">
        <ele>1583.9</ele>
        <time>2020-11-11T13:08:23Z</time>
      </trkpt>
      <trkpt lat="28.3797400" lon="-16.4672880">
        <ele>1583.9</ele>
        <time>2020-11-11T13:08:24Z</time>
      </trkpt>
      <trkpt lat="28.3797320" lon="-16.4673070">
        <ele>1583.9</ele>
        <time>2020-11-11T13:08:25Z</time>
      </trkpt>
      <trkpt lat="28.3797320" lon="-16.4673070">
        <ele>1583.9</ele>
        <time>2020-11-11T13:08:26Z</time>
      </trkpt>
      <trkpt lat="28.3797400" lon="-16.4673330">
        <ele>1583.9</ele>
        <time>2020-11-11T13:08:27Z</time>
      </trkpt>
      <trkpt lat="28.3797400" lon="-16.4673400">
        <ele>1583.9</ele>
        <time>2020-11-11T13:08:28Z</time>
      </trkpt>
      <trkpt lat="28.3797400" lon="-16.4673400">
        <ele>1583.9</ele>
        <time>2020-11-11T13:08:29Z</time>
      </trkpt>
      <trkpt lat="28.3797420" lon="-16.4673500">
        <ele>1583.9</ele>
        <time>2020-11-11T13:08:30Z</time>
      </trkpt>
      <trkpt lat="28.3797420" lon="-16.4673500">
        <ele>1583.9</ele>
        <time>2020-11-11T13:08:31Z</time>
      </trkpt>
      <trkpt lat="28.3797420" lon="-16.4673500">
        <ele>1583.9</ele>
        <time>2020-11-11T13:08:32Z</time>
      </trkpt>
      <trkpt lat="28.3797420" lon="-16.4673500">
        <ele>1583.9</ele>
        <time>2020-11-11T13:08:33Z</time>
      </trkpt>
      <trkpt lat="28.3797420" lon="-16.4673500">
        <ele>1583.9</ele>
        <time>2020-11-11T13:08:52Z</time>
      </trkpt>
      <trkpt lat="28.3797430" lon="-16.4675720">
        <ele>1583.9</ele>
        <time>2020-11-11T13:08:53Z</time>
      </trkpt>
      <trkpt lat="28.3797430" lon="-16.4675720">
        <ele>1583.9</ele>
        <time>2020-11-11T13:08:54Z</time>
      </trkpt>
      <trkpt lat="28.3797930" lon="-16.4675750">
        <ele>1583.9</ele>
        <time>2020-11-11T13:09:51Z</time>
      </trkpt>
      <trkpt lat="28.3797930" lon="-16.4675750">
        <ele>1583.9</ele>
        <time>2020-11-11T13:09:52Z</time>
      </trkpt>
      <trkpt lat="28.3797480" lon="-16.4676150">
        <ele>1583.9</ele>
        <time>2020-11-11T13:09:53Z</time>
      </trkpt>
      <trkpt lat="28.3797480" lon="-16.4676150">
        <ele>1583.9</ele>
        <time>2020-11-11T13:09:54Z</time>
      </trkpt>
      <trkpt lat="28.3797350" lon="-16.4676750">
        <ele>1583.9</ele>
        <time>2020-11-11T13:09:55Z</time>
      </trkpt>
      <trkpt lat="28.3797350" lon="-16.4676750">
        <ele>1583.9</ele>
        <time>2020-11-11T13:09:56Z</time>
      </trkpt>
      <trkpt lat="28.3797200" lon="-16.4677370">
        <ele>1582.9</ele>
        <time>2020-11-11T13:09:57Z</time>
      </trkpt>
      <trkpt lat="28.3797200" lon="-16.4677370">
        <ele>1582.9</ele>
        <time>2020-11-11T13:09:58Z</time>
      </trkpt>
      <trkpt lat="28.3797100" lon="-16.4677870">
        <ele>1582.9</ele>
        <time>2020-11-11T13:09:59Z</time>
      </trkpt>
      <trkpt lat="28.3796980" lon="-16.4678080">
        <ele>1582.9</ele>
        <time>2020-11-11T13:10:00Z</time>
      </trkpt>
      <trkpt lat="28.3796980" lon="-16.4678080">
        <ele>1582.9</ele>
        <time>2020-11-11T13:10:01Z</time>
      </trkpt>
      <trkpt lat="28.3796630" lon="-16.4678480">
        <ele>1582.9</ele>
        <time>2020-11-11T13:10:02Z</time>
      </trkpt>
      <trkpt lat="28.3796630" lon="-16.4678480">
        <ele>1582.9</ele>
        <time>2020-11-11T13:10:03Z</time>
      </trkpt>
      <trkpt lat="28.3796250" lon="-16.4679020">
        <ele>1582.9</ele>
        <time>2020-11-11T13:10:04Z</time>
      </trkpt>
      <trkpt lat="28.3796250" lon="-16.4679020">
        <ele>1582.9</ele>
        <time>2020-11-11T13:10:05Z</time>
      </trkpt>
      <trkpt lat="28.3795670" lon="-16.4679520">
        <ele>1582.9</ele>
        <time>2020-11-11T13:10:06Z</time>
      </trkpt>
      <trkpt lat="28.3795670" lon="-16.4679520">
        <ele>1582.9</ele>
        <time>2020-11-11T13:10:07Z</time>
      </trkpt>
      <trkpt lat="28.3795200" lon="-16.4679950">
        <ele>1582.9</ele>
        <time>2020-11-11T13:10:08Z</time>
      </trkpt>
      <trkpt lat="28.3795200" lon="-16.4679950">
        <ele>1581.9</ele>
        <time>2020-11-11T13:10:09Z</time>
      </trkpt>
      <trkpt lat="28.3794780" lon="-16.4680380">
        <ele>1581.9</ele>
        <time>2020-11-11T13:10:10Z</time>
      </trkpt>
      <trkpt lat="28.3794530" lon="-16.4680570">
        <ele>1581.9</ele>
        <time>2020-11-11T13:10:11Z</time>
      </trkpt>
      <trkpt lat="28.3794530" lon="-16.4680570">
        <ele>1581.9</ele>
        <time>2020-11-11T13:10:12Z</time>
      </trkpt>
      <trkpt lat="28.3793980" lon="-16.4680830">
        <ele>1581.9</ele>
        <time>2020-11-11T13:10:13Z</time>
      </trkpt>
      <trkpt lat="28.3793980" lon="-16.4680830">
        <ele>1581.9</ele>
        <time>2020-11-11T13:10:14Z</time>
      </trkpt>
      <trkpt lat="28.3793550" lon="-16.4681050">
        <ele>1581.9</ele>
        <time>2020-11-11T13:10:15Z</time>
      </trkpt>
      <trkpt lat="28.3793550" lon="-16.4681050">
        <ele>1581.9</ele>
        <time>2020-11-11T13:10:16Z</time>
      </trkpt>
      <trkpt lat="28.3792920" lon="-16.4681280">
        <ele>1581.9</ele>
        <time>2020-11-11T13:10:17Z</time>
      </trkpt>
      <trkpt lat="28.3792920" lon="-16.4681280">
        <ele>1581.9</ele>
        <time>2020-11-11T13:10:18Z</time>
      </trkpt>
      <trkpt lat="28.3792320" lon="-16.4681330">
        <ele>1581.9</ele>
        <time>2020-11-11T13:10:19Z</time>
      </trkpt>
      <trkpt lat="28.3792320" lon="-16.4681330">
        <ele>1581.9</ele>
        <time>2020-11-11T13:10:20Z</time>
      </trkpt>
      <trkpt lat="28.3791750" lon="-16.4681320">
        <ele>1581.9</ele>
        <time>2020-11-11T13:10:21Z</time>
      </trkpt>
      <trkpt lat="28.3791750" lon="-16.4681320">
        <ele>1581.9</ele>
        <time>2020-11-11T13:10:22Z</time>
      </trkpt>
      <trkpt lat="28.3791100" lon="-16.4681200">
        <ele>1581.9</ele>
        <time>2020-11-11T13:10:23Z</time>
      </trkpt>
      <trkpt lat="28.3790880" lon="-16.4681150">
        <ele>1581.9</ele>
        <time>2020-11-11T13:10:24Z</time>
      </trkpt>
      <trkpt lat="28.3790650" lon="-16.4681000">
        <ele>1581.9</ele>
        <time>2020-11-11T13:10:25Z</time>
      </trkpt>
      <trkpt lat="28.3790650" lon="-16.4681000">
        <ele>1581.9</ele>
        <time>2020-11-11T13:10:26Z</time>
      </trkpt>
      <trkpt lat="28.3790230" lon="-16.4680620">
        <ele>1581.9</ele>
        <time>2020-11-11T13:10:27Z</time>
      </trkpt>
      <trkpt lat="28.3790230" lon="-16.4680620">
        <ele>1581.9</ele>
        <time>2020-11-11T13:10:28Z</time>
      </trkpt>
      <trkpt lat="28.3789920" lon="-16.4680270">
        <ele>1581.9</ele>
        <time>2020-11-11T13:10:29Z</time>
      </trkpt>
      <trkpt lat="28.3789920" lon="-16.4680270">
        <ele>1581.9</ele>
        <time>2020-11-11T13:10:30Z</time>
      </trkpt>
      <trkpt lat="28.3789570" lon="-16.4679870">
        <ele>1581.9</ele>
        <time>2020-11-11T13:10:31Z</time>
      </trkpt>
      <trkpt lat="28.3789570" lon="-16.4679870">
        <ele>1581.9</ele>
        <time>2020-11-11T13:10:32Z</time>
      </trkpt>
      <trkpt lat="28.3789120" lon="-16.4679470">
        <ele>1581.9</ele>
        <time>2020-11-11T13:10:33Z</time>
      </trkpt>
      <trkpt lat="28.3788920" lon="-16.4679230">
        <ele>1582.9</ele>
        <time>2020-11-11T13:10:34Z</time>
      </trkpt>
      <trkpt lat="28.3788920" lon="-16.4679230">
        <ele>1582.9</ele>
        <time>2020-11-11T13:10:35Z</time>
      </trkpt>
      <trkpt lat="28.3788670" lon="-16.4678800">
        <ele>1582.9</ele>
        <time>2020-11-11T13:10:36Z</time>
      </trkpt>
      <trkpt lat="28.3788670" lon="-16.4678800">
        <ele>1582.9</ele>
        <time>2020-11-11T13:10:37Z</time>
      </trkpt>
      <trkpt lat="28.3788480" lon="-16.4678480">
        <ele>1582.9</ele>
        <time>2020-11-11T13:10:38Z</time>
      </trkpt>
      <trkpt lat="28.3788380" lon="-16.4678270">
        <ele>1582.9</ele>
        <time>2020-11-11T13:10:39Z</time>
      </trkpt>
      <trkpt lat="28.3788380" lon="-16.4678270">
        <ele>1582.9</ele>
        <time>2020-11-11T13:10:40Z</time>
      </trkpt>
      <trkpt lat="28.3788150" lon="-16.4677800">
        <ele>1582.9</ele>
        <time>2020-11-11T13:10:41Z</time>
      </trkpt>
      <trkpt lat="28.3788150" lon="-16.4677800">
        <ele>1583.9</ele>
        <time>2020-11-11T13:10:42Z</time>
      </trkpt>
      <trkpt lat="28.3787880" lon="-16.4677400">
        <ele>1583.9</ele>
        <time>2020-11-11T13:10:43Z</time>
      </trkpt>
      <trkpt lat="28.3787880" lon="-16.4677400">
        <ele>1583.9</ele>
        <time>2020-11-11T13:10:44Z</time>
      </trkpt>
      <trkpt lat="28.3787550" lon="-16.4677030">
        <ele>1583.9</ele>
        <time>2020-11-11T13:10:45Z</time>
      </trkpt>
      <trkpt lat="28.3787550" lon="-16.4677030">
        <ele>1583.9</ele>
        <time>2020-11-11T13:10:46Z</time>
      </trkpt>
      <trkpt lat="28.3787280" lon="-16.4676500">
        <ele>1583.9</ele>
        <time>2020-11-11T13:10:47Z</time>
      </trkpt>
      <trkpt lat="28.3787280" lon="-16.4676500">
        <ele>1583.9</ele>
        <time>2020-11-11T13:10:48Z</time>
      </trkpt>
      <trkpt lat="28.3787230" lon="-16.4676120">
        <ele>1583.9</ele>
        <time>2020-11-11T13:10:49Z</time>
      </trkpt>
      <trkpt lat="28.3787230" lon="-16.4676120">
        <ele>1583.9</ele>
        <time>2020-11-11T13:10:50Z</time>
      </trkpt>
      <trkpt lat="28.3787270" lon="-16.4675720">
        <ele>1583.9</ele>
        <time>2020-11-11T13:10:51Z</time>
      </trkpt>
      <trkpt lat="28.3787170" lon="-16.4675570">
        <ele>1583.9</ele>
        <time>2020-11-11T13:10:52Z</time>
      </trkpt>
      <trkpt lat="28.3787170" lon="-16.4675570">
        <ele>1583.9</ele>
        <time>2020-11-11T13:10:53Z</time>
      </trkpt>
      <trkpt lat="28.3787000" lon="-16.4675280">
        <ele>1584.9</ele>
        <time>2020-11-11T13:10:54Z</time>
      </trkpt>
      <trkpt lat="28.3786880" lon="-16.4675130">
        <ele>1584.9</ele>
        <time>2020-11-11T13:10:55Z</time>
      </trkpt>
      <trkpt lat="28.3786880" lon="-16.4675130">
        <ele>1584.9</ele>
        <time>2020-11-11T13:10:56Z</time>
      </trkpt>
      <trkpt lat="28.3786230" lon="-16.4674720">
        <ele>1584.9</ele>
        <time>2020-11-11T13:10:57Z</time>
      </trkpt>
      <trkpt lat="28.3786230" lon="-16.4674720">
        <ele>1584.9</ele>
        <time>2020-11-11T13:10:58Z</time>
      </trkpt>
      <trkpt lat="28.3785920" lon="-16.4674330">
        <ele>1584.9</ele>
        <time>2020-11-11T13:10:59Z</time>
      </trkpt>
      <trkpt lat="28.3785920" lon="-16.4674330">
        <ele>1584.9</ele>
        <time>2020-11-11T13:11:00Z</time>
      </trkpt>
      <trkpt lat="28.3785620" lon="-16.4673880">
        <ele>1584.9</ele>
        <time>2020-11-11T13:11:01Z</time>
      </trkpt>
      <trkpt lat="28.3785620" lon="-16.4673880">
        <ele>1584.9</ele>
        <time>2020-11-11T13:11:02Z</time>
      </trkpt>
      <trkpt lat="28.3785200" lon="-16.4673430">
        <ele>1584.9</ele>
        <time>2020-11-11T13:11:03Z</time>
      </trkpt>
      <trkpt lat="28.3785070" lon="-16.4673220">
        <ele>1584.9</ele>
        <time>2020-11-11T13:11:04Z</time>
      </trkpt>
      <trkpt lat="28.3785070" lon="-16.4673220">
        <ele>1584.9</ele>
        <time>2020-11-11T13:11:05Z</time>
      </trkpt>
      <trkpt lat="28.3784780" lon="-16.4672770">
        <ele>1584.9</ele>
        <time>2020-11-11T13:11:06Z</time>
      </trkpt>
      <trkpt lat="28.3784780" lon="-16.4672770">
        <ele>1584.9</ele>
        <time>2020-11-11T13:11:07Z</time>
      </trkpt>
      <trkpt lat="28.3784570" lon="-16.4672300">
        <ele>1584.9</ele>
        <time>2020-11-11T13:11:08Z</time>
      </trkpt>
      <trkpt lat="28.3784570" lon="-16.4672300">
        <ele>1584.9</ele>
        <time>2020-11-11T13:11:09Z</time>
      </trkpt>
      <trkpt lat="28.3784330" lon="-16.4671880">
        <ele>1584.9</ele>
        <time>2020-11-11T13:11:10Z</time>
      </trkpt>
      <trkpt lat="28.3784330" lon="-16.4671880">
        <ele>1584.9</ele>
        <time>2020-11-11T13:11:11Z</time>
      </trkpt>
      <trkpt lat="28.3784080" lon="-16.4671500">
        <ele>1584.9</ele>
        <time>2020-11-11T13:11:12Z</time>
      </trkpt>
      <trkpt lat="28.3784080" lon="-16.4671500">
        <ele>1584.9</ele>
        <time>2020-11-11T13:11:13Z</time>
      </trkpt>
      <trkpt lat="28.3783820" lon="-16.4671120">
        <ele>1584.9</ele>
        <time>2020-11-11T13:11:14Z</time>
      </trkpt>
      <trkpt lat="28.3783820" lon="-16.4671120">
        <ele>1584.9</ele>
        <time>2020-11-11T13:11:15Z</time>
      </trkpt>
      <trkpt lat="28.3783450" lon="-16.4670580">
        <ele>1584.9</ele>
        <time>2020-11-11T13:11:16Z</time>
      </trkpt>
      <trkpt lat="28.3783450" lon="-16.4670580">
        <ele>1585.9</ele>
        <time>2020-11-11T13:11:17Z</time>
      </trkpt>
      <trkpt lat="28.3783070" lon="-16.4670150">
        <ele>1585.9</ele>
        <time>2020-11-11T13:11:18Z</time>
      </trkpt>
      <trkpt lat="28.3782930" lon="-16.4670020">
        <ele>1585.9</ele>
        <time>2020-11-11T13:11:19Z</time>
      </trkpt>
      <trkpt lat="28.3782930" lon="-16.4670020">
        <ele>1585.9</ele>
        <time>2020-11-11T13:11:20Z</time>
      </trkpt>
      <trkpt lat="28.3782550" lon="-16.4669680">
        <ele>1585.9</ele>
        <time>2020-11-11T13:11:21Z</time>
      </trkpt>
      <trkpt lat="28.3782550" lon="-16.4669680">
        <ele>1585.9</ele>
        <time>2020-11-11T13:11:22Z</time>
      </trkpt>
      <trkpt lat="28.3782270" lon="-16.4669300">
        <ele>1585.9</ele>
        <time>2020-11-11T13:11:23Z</time>
      </trkpt>
      <trkpt lat="28.3782270" lon="-16.4669300">
        <ele>1585.9</ele>
        <time>2020-11-11T13:11:24Z</time>
      </trkpt>
      <trkpt lat="28.3781900" lon="-16.4668800">
        <ele>1586.9</ele>
        <time>2020-11-11T13:11:25Z</time>
      </trkpt>
      <trkpt lat="28.3781900" lon="-16.4668800">
        <ele>1586.9</ele>
        <time>2020-11-11T13:11:26Z</time>
      </trkpt>
      <trkpt lat="28.3781470" lon="-16.4668500">
        <ele>1586.9</ele>
        <time>2020-11-11T13:11:27Z</time>
      </trkpt>
      <trkpt lat="28.3781470" lon="-16.4668500">
        <ele>1586.9</ele>
        <time>2020-11-11T13:11:28Z</time>
      </trkpt>
      <trkpt lat="28.3781130" lon="-16.4668130">
        <ele>1586.9</ele>
        <time>2020-11-11T13:11:29Z</time>
      </trkpt>
      <trkpt lat="28.3781130" lon="-16.4668130">
        <ele>1586.9</ele>
        <time>2020-11-11T13:11:30Z</time>
      </trkpt>
      <trkpt lat="28.3780750" lon="-16.4667820">
        <ele>1586.9</ele>
        <time>2020-11-11T13:11:31Z</time>
      </trkpt>
      <trkpt lat="28.3780750" lon="-16.4667820">
        <ele>1586.9</ele>
        <time>2020-11-11T13:11:32Z</time>
      </trkpt>
      <trkpt lat="28.3780520" lon="-16.4667520">
        <ele>1587.9</ele>
        <time>2020-11-11T13:11:33Z</time>
      </trkpt>
      <trkpt lat="28.3780520" lon="-16.4667520">
        <ele>1587.9</ele>
        <time>2020-11-11T13:11:34Z</time>
      </trkpt>
      <trkpt lat="28.3780230" lon="-16.4667200">
        <ele>1587.9</ele>
        <time>2020-11-11T13:11:35Z</time>
      </trkpt>
      <trkpt lat="28.3780230" lon="-16.4667200">
        <ele>1587.9</ele>
        <time>2020-11-11T13:11:36Z</time>
      </trkpt>
      <trkpt lat="28.3779970" lon="-16.4666900">
        <ele>1588.9</ele>
        <time>2020-11-11T13:11:37Z</time>
      </trkpt>
      <trkpt lat="28.3779970" lon="-16.4666900">
        <ele>1588.9</ele>
        <time>2020-11-11T13:11:38Z</time>
      </trkpt>
      <trkpt lat="28.3779680" lon="-16.4666550">
        <ele>1588.9</ele>
        <time>2020-11-11T13:11:39Z</time>
      </trkpt>
      <trkpt lat="28.3779680" lon="-16.4666550">
        <ele>1588.9</ele>
        <time>2020-11-11T13:11:40Z</time>
      </trkpt>
      <trkpt lat="28.3779430" lon="-16.4666170">
        <ele>1588.9</ele>
        <time>2020-11-11T13:11:41Z</time>
      </trkpt>
      <trkpt lat="28.3779280" lon="-16.4665980">
        <ele>1588.9</ele>
        <time>2020-11-11T13:11:42Z</time>
      </trkpt>
      <trkpt lat="28.3779280" lon="-16.4665980">
        <ele>1589.9</ele>
        <time>2020-11-11T13:11:43Z</time>
      </trkpt>
      <trkpt lat="28.3778980" lon="-16.4665580">
        <ele>1589.9</ele>
        <time>2020-11-11T13:11:44Z</time>
      </trkpt>
      <trkpt lat="28.3778980" lon="-16.4665580">
        <ele>1589.9</ele>
        <time>2020-11-11T13:11:45Z</time>
      </trkpt>
      <trkpt lat="28.3778530" lon="-16.4665330">
        <ele>1589.9</ele>
        <time>2020-11-11T13:11:46Z</time>
      </trkpt>
      <trkpt lat="28.3778270" lon="-16.4665300">
        <ele>1589.9</ele>
        <time>2020-11-11T13:11:47Z</time>
      </trkpt>
      <trkpt lat="28.3778270" lon="-16.4665300">
        <ele>1589.9</ele>
        <time>2020-11-11T13:11:48Z</time>
      </trkpt>
      <trkpt lat="28.3777650" lon="-16.4665530">
        <ele>1589.9</ele>
        <time>2020-11-11T13:11:49Z</time>
      </trkpt>
      <trkpt lat="28.3777650" lon="-16.4665530">
        <ele>1588.9</ele>
        <time>2020-11-11T13:11:50Z</time>
      </trkpt>
      <trkpt lat="28.3777580" lon="-16.4665880">
        <ele>1588.9</ele>
        <time>2020-11-11T13:11:51Z</time>
      </trkpt>
      <trkpt lat="28.3777580" lon="-16.4665880">
        <ele>1588.9</ele>
        <time>2020-11-11T13:11:52Z</time>
      </trkpt>
      <trkpt lat="28.3777550" lon="-16.4666280">
        <ele>1588.9</ele>
        <time>2020-11-11T13:11:53Z</time>
      </trkpt>
      <trkpt lat="28.3777480" lon="-16.4666500">
        <ele>1588.9</ele>
        <time>2020-11-11T13:11:54Z</time>
      </trkpt>
      <trkpt lat="28.3777480" lon="-16.4666500">
        <ele>1588.9</ele>
        <time>2020-11-11T13:11:55Z</time>
      </trkpt>
      <trkpt lat="28.3777320" lon="-16.4666780">
        <ele>1588.9</ele>
        <time>2020-11-11T13:11:56Z</time>
      </trkpt>
      <trkpt lat="28.3777320" lon="-16.4666780">
        <ele>1588.9</ele>
        <time>2020-11-11T13:11:57Z</time>
      </trkpt>
      <trkpt lat="28.3777120" lon="-16.4667150">
        <ele>1589.9</ele>
        <time>2020-11-11T13:11:58Z</time>
      </trkpt>
      <trkpt lat="28.3776970" lon="-16.4667280">
        <ele>1589.9</ele>
        <time>2020-11-11T13:11:59Z</time>
      </trkpt>
      <trkpt lat="28.3776970" lon="-16.4667280">
        <ele>1589.9</ele>
        <time>2020-11-11T13:12:00Z</time>
      </trkpt>
      <trkpt lat="28.3776850" lon="-16.4667700">
        <ele>1589.9</ele>
        <time>2020-11-11T13:12:01Z</time>
      </trkpt>
      <trkpt lat="28.3776850" lon="-16.4667700">
        <ele>1589.9</ele>
        <time>2020-11-11T13:12:02Z</time>
      </trkpt>
      <trkpt lat="28.3776720" lon="-16.4668100">
        <ele>1589.9</ele>
        <time>2020-11-11T13:12:03Z</time>
      </trkpt>
      <trkpt lat="28.3776720" lon="-16.4668100">
        <ele>1591.9</ele>
        <time>2020-11-11T13:12:04Z</time>
      </trkpt>
      <trkpt lat="28.3776670" lon="-16.4668570">
        <ele>1591.9</ele>
        <time>2020-11-11T13:12:05Z</time>
      </trkpt>
      <trkpt lat="28.3776670" lon="-16.4668570">
        <ele>1591.9</ele>
        <time>2020-11-11T13:12:06Z</time>
      </trkpt>
      <trkpt lat="28.3776730" lon="-16.4669000">
        <ele>1591.9</ele>
        <time>2020-11-11T13:12:07Z</time>
      </trkpt>
      <trkpt lat="28.3776730" lon="-16.4669000">
        <ele>1591.9</ele>
        <time>2020-11-11T13:12:08Z</time>
      </trkpt>
      <trkpt lat="28.3776830" lon="-16.4669470">
        <ele>1591.9</ele>
        <time>2020-11-11T13:12:09Z</time>
      </trkpt>
      <trkpt lat="28.3776870" lon="-16.4669700">
        <ele>1591.9</ele>
        <time>2020-11-11T13:12:10Z</time>
      </trkpt>
      <trkpt lat="28.3776850" lon="-16.4669930">
        <ele>1593.9</ele>
        <time>2020-11-11T13:12:11Z</time>
      </trkpt>
      <trkpt lat="28.3776850" lon="-16.4669930">
        <ele>1593.9</ele>
        <time>2020-11-11T13:12:12Z</time>
      </trkpt>
      <trkpt lat="28.3776870" lon="-16.4670480">
        <ele>1593.9</ele>
        <time>2020-11-11T13:12:13Z</time>
      </trkpt>
      <trkpt lat="28.3776820" lon="-16.4670750">
        <ele>1593.9</ele>
        <time>2020-11-11T13:12:14Z</time>
      </trkpt>
      <trkpt lat="28.3776820" lon="-16.4670750">
        <ele>1593.9</ele>
        <time>2020-11-11T13:12:15Z</time>
      </trkpt>
      <trkpt lat="28.3776520" lon="-16.4671180">
        <ele>1593.9</ele>
        <time>2020-11-11T13:12:16Z</time>
      </trkpt>
      <trkpt lat="28.3776520" lon="-16.4671180">
        <ele>1593.9</ele>
        <time>2020-11-11T13:12:17Z</time>
      </trkpt>
      <trkpt lat="28.3776200" lon="-16.4671680">
        <ele>1593.9</ele>
        <time>2020-11-11T13:12:18Z</time>
      </trkpt>
      <trkpt lat="28.3775980" lon="-16.4671900">
        <ele>1593.9</ele>
        <time>2020-11-11T13:12:19Z</time>
      </trkpt>
      <trkpt lat="28.3775980" lon="-16.4671900">
        <ele>1593.9</ele>
        <time>2020-11-11T13:12:20Z</time>
      </trkpt>
      <trkpt lat="28.3775530" lon="-16.4672280">
        <ele>1593.9</ele>
        <time>2020-11-11T13:12:21Z</time>
      </trkpt>
      <trkpt lat="28.3775530" lon="-16.4672280">
        <ele>1593.9</ele>
        <time>2020-11-11T13:12:22Z</time>
      </trkpt>
      <trkpt lat="28.3775170" lon="-16.4672750">
        <ele>1593.9</ele>
        <time>2020-11-11T13:12:23Z</time>
      </trkpt>
      <trkpt lat="28.3775170" lon="-16.4672750">
        <ele>1593.9</ele>
        <time>2020-11-11T13:12:24Z</time>
      </trkpt>
      <trkpt lat="28.3774900" lon="-16.4673270">
        <ele>1593.9</ele>
        <time>2020-11-11T13:12:25Z</time>
      </trkpt>
      <trkpt lat="28.3774870" lon="-16.4673580">
        <ele>1593.9</ele>
        <time>2020-11-11T13:12:26Z</time>
      </trkpt>
      <trkpt lat="28.3774870" lon="-16.4673580">
        <ele>1593.9</ele>
        <time>2020-11-11T13:12:27Z</time>
      </trkpt>
      <trkpt lat="28.3774830" lon="-16.4674130">
        <ele>1593.9</ele>
        <time>2020-11-11T13:12:28Z</time>
      </trkpt>
      <trkpt lat="28.3774830" lon="-16.4674130">
        <ele>1593.9</ele>
        <time>2020-11-11T13:12:29Z</time>
      </trkpt>
      <trkpt lat="28.3774570" lon="-16.4674500">
        <ele>1593.9</ele>
        <time>2020-11-11T13:12:30Z</time>
      </trkpt>
      <trkpt lat="28.3774530" lon="-16.4674800">
        <ele>1593.9</ele>
        <time>2020-11-11T13:12:31Z</time>
      </trkpt>
      <trkpt lat="28.3774530" lon="-16.4674800">
        <ele>1593.9</ele>
        <time>2020-11-11T13:12:32Z</time>
      </trkpt>
      <trkpt lat="28.3774470" lon="-16.4675080">
        <ele>1594.9</ele>
        <time>2020-11-11T13:12:33Z</time>
      </trkpt>
      <trkpt lat="28.3774350" lon="-16.4675630">
        <ele>1594.9</ele>
        <time>2020-11-11T13:12:34Z</time>
      </trkpt>
      <trkpt lat="28.3774270" lon="-16.4675950">
        <ele>1594.9</ele>
        <time>2020-11-11T13:12:35Z</time>
      </trkpt>
      <trkpt lat="28.3774270" lon="-16.4675950">
        <ele>1594.9</ele>
        <time>2020-11-11T13:12:36Z</time>
      </trkpt>
      <trkpt lat="28.3774120" lon="-16.4676570">
        <ele>1594.9</ele>
        <time>2020-11-11T13:12:37Z</time>
      </trkpt>
      <trkpt lat="28.3774120" lon="-16.4676570">
        <ele>1594.9</ele>
        <time>2020-11-11T13:12:38Z</time>
      </trkpt>
      <trkpt lat="28.3773880" lon="-16.4677170">
        <ele>1594.9</ele>
        <time>2020-11-11T13:12:39Z</time>
      </trkpt>
      <trkpt lat="28.3773750" lon="-16.4677450">
        <ele>1594.9</ele>
        <time>2020-11-11T13:12:40Z</time>
      </trkpt>
      <trkpt lat="28.3773750" lon="-16.4677450">
        <ele>1594.9</ele>
        <time>2020-11-11T13:12:41Z</time>
      </trkpt>
      <trkpt lat="28.3773730" lon="-16.4678030">
        <ele>1594.9</ele>
        <time>2020-11-11T13:12:42Z</time>
      </trkpt>
      <trkpt lat="28.3773700" lon="-16.4678280">
        <ele>1594.9</ele>
        <time>2020-11-11T13:12:43Z</time>
      </trkpt>
      <trkpt lat="28.3773700" lon="-16.4678280">
        <ele>1594.9</ele>
        <time>2020-11-11T13:12:44Z</time>
      </trkpt>
      <trkpt lat="28.3773620" lon="-16.4678750">
        <ele>1594.9</ele>
        <time>2020-11-11T13:12:45Z</time>
      </trkpt>
      <trkpt lat="28.3773580" lon="-16.4678980">
        <ele>1594.9</ele>
        <time>2020-11-11T13:12:46Z</time>
      </trkpt>
      <trkpt lat="28.3773580" lon="-16.4678980">
        <ele>1595.9</ele>
        <time>2020-11-11T13:12:47Z</time>
      </trkpt>
      <trkpt lat="28.3773520" lon="-16.4679470">
        <ele>1595.9</ele>
        <time>2020-11-11T13:12:48Z</time>
      </trkpt>
      <trkpt lat="28.3773520" lon="-16.4679470">
        <ele>1595.9</ele>
        <time>2020-11-11T13:12:49Z</time>
      </trkpt>
      <trkpt lat="28.3773520" lon="-16.4680000">
        <ele>1595.9</ele>
        <time>2020-11-11T13:12:50Z</time>
      </trkpt>
      <trkpt lat="28.3773530" lon="-16.4680200">
        <ele>1595.9</ele>
        <time>2020-11-11T13:12:51Z</time>
      </trkpt>
      <trkpt lat="28.3773530" lon="-16.4680200">
        <ele>1595.9</ele>
        <time>2020-11-11T13:12:52Z</time>
      </trkpt>
      <trkpt lat="28.3773500" lon="-16.4680600">
        <ele>1595.9</ele>
        <time>2020-11-11T13:12:53Z</time>
      </trkpt>
      <trkpt lat="28.3773500" lon="-16.4680600">
        <ele>1595.9</ele>
        <time>2020-11-11T13:12:54Z</time>
      </trkpt>
      <trkpt lat="28.3773500" lon="-16.4680600">
        <ele>1596.9</ele>
        <time>2020-11-11T13:12:55Z</time>
      </trkpt>
      <trkpt lat="28.3773520" lon="-16.4681000">
        <ele>1596.9</ele>
        <time>2020-11-11T13:12:56Z</time>
      </trkpt>
      <trkpt lat="28.3773350" lon="-16.4681300">
        <ele>1596.9</ele>
        <time>2020-11-11T13:12:57Z</time>
      </trkpt>
      <trkpt lat="28.3773350" lon="-16.4681300">
        <ele>1596.9</ele>
        <time>2020-11-11T13:12:58Z</time>
      </trkpt>
      <trkpt lat="28.3773330" lon="-16.4681850">
        <ele>1596.9</ele>
        <time>2020-11-11T13:12:59Z</time>
      </trkpt>
      <trkpt lat="28.3773330" lon="-16.4681850">
        <ele>1596.9</ele>
        <time>2020-11-11T13:13:00Z</time>
      </trkpt>
      <trkpt lat="28.3773250" lon="-16.4682550">
        <ele>1596.9</ele>
        <time>2020-11-11T13:13:01Z</time>
      </trkpt>
      <trkpt lat="28.3773250" lon="-16.4682550">
        <ele>1596.9</ele>
        <time>2020-11-11T13:13:02Z</time>
      </trkpt>
      <trkpt lat="28.3773100" lon="-16.4682980">
        <ele>1597.9</ele>
        <time>2020-11-11T13:13:03Z</time>
      </trkpt>
      <trkpt lat="28.3773000" lon="-16.4683180">
        <ele>1597.9</ele>
        <time>2020-11-11T13:13:04Z</time>
      </trkpt>
      <trkpt lat="28.3773000" lon="-16.4683180">
        <ele>1597.9</ele>
        <time>2020-11-11T13:13:05Z</time>
      </trkpt>
      <trkpt lat="28.3772700" lon="-16.4683680">
        <ele>1597.9</ele>
        <time>2020-11-11T13:13:06Z</time>
      </trkpt>
      <trkpt lat="28.3772520" lon="-16.4683900">
        <ele>1597.9</ele>
        <time>2020-11-11T13:13:07Z</time>
      </trkpt>
      <trkpt lat="28.3772520" lon="-16.4683900">
        <ele>1597.9</ele>
        <time>2020-11-11T13:13:08Z</time>
      </trkpt>
      <trkpt lat="28.3772050" lon="-16.4684270">
        <ele>1597.9</ele>
        <time>2020-11-11T13:13:09Z</time>
      </trkpt>
      <trkpt lat="28.3771770" lon="-16.4684320">
        <ele>1597.9</ele>
        <time>2020-11-11T13:13:10Z</time>
      </trkpt>
      <trkpt lat="28.3771770" lon="-16.4684320">
        <ele>1597.9</ele>
        <time>2020-11-11T13:13:11Z</time>
      </trkpt>
      <trkpt lat="28.3771250" lon="-16.4684350">
        <ele>1597.9</ele>
        <time>2020-11-11T13:13:12Z</time>
      </trkpt>
      <trkpt lat="28.3771250" lon="-16.4684350">
        <ele>1598.9</ele>
        <time>2020-11-11T13:13:13Z</time>
      </trkpt>
      <trkpt lat="28.3770720" lon="-16.4684270">
        <ele>1598.9</ele>
        <time>2020-11-11T13:13:14Z</time>
      </trkpt>
      <trkpt lat="28.3770720" lon="-16.4684270">
        <ele>1598.9</ele>
        <time>2020-11-11T13:13:15Z</time>
      </trkpt>
      <trkpt lat="28.3770200" lon="-16.4684220">
        <ele>1598.9</ele>
        <time>2020-11-11T13:13:16Z</time>
      </trkpt>
      <trkpt lat="28.3770200" lon="-16.4684220">
        <ele>1598.9</ele>
        <time>2020-11-11T13:13:17Z</time>
      </trkpt>
      <trkpt lat="28.3769670" lon="-16.4684330">
        <ele>1598.9</ele>
        <time>2020-11-11T13:13:18Z</time>
      </trkpt>
      <trkpt lat="28.3769430" lon="-16.4684380">
        <ele>1598.9</ele>
        <time>2020-11-11T13:13:19Z</time>
      </trkpt>
      <trkpt lat="28.3769430" lon="-16.4684380">
        <ele>1598.9</ele>
        <time>2020-11-11T13:13:20Z</time>
      </trkpt>
      <trkpt lat="28.3769020" lon="-16.4684370">
        <ele>1598.9</ele>
        <time>2020-11-11T13:13:21Z</time>
      </trkpt>
      <trkpt lat="28.3769020" lon="-16.4684370">
        <ele>1598.9</ele>
        <time>2020-11-11T13:13:22Z</time>
      </trkpt>
      <trkpt lat="28.3768650" lon="-16.4684330">
        <ele>1598.9</ele>
        <time>2020-11-11T13:13:23Z</time>
      </trkpt>
      <trkpt lat="28.3768650" lon="-16.4684330">
        <ele>1598.9</ele>
        <time>2020-11-11T13:13:24Z</time>
      </trkpt>
      <trkpt lat="28.3768280" lon="-16.4684330">
        <ele>1598.9</ele>
        <time>2020-11-11T13:13:25Z</time>
      </trkpt>
      <trkpt lat="28.3768280" lon="-16.4684330">
        <ele>1598.9</ele>
        <time>2020-11-11T13:13:26Z</time>
      </trkpt>
      <trkpt lat="28.3768120" lon="-16.4684320">
        <ele>1598.9</ele>
        <time>2020-11-11T13:13:27Z</time>
      </trkpt>
      <trkpt lat="28.3767730" lon="-16.4684330">
        <ele>1598.9</ele>
        <time>2020-11-11T13:13:28Z</time>
      </trkpt>
      <trkpt lat="28.3767730" lon="-16.4684330">
        <ele>1598.9</ele>
        <time>2020-11-11T13:13:29Z</time>
      </trkpt>
      <trkpt lat="28.3767280" lon="-16.4684380">
        <ele>1598.9</ele>
        <time>2020-11-11T13:13:30Z</time>
      </trkpt>
      <trkpt lat="28.3767280" lon="-16.4684380">
        <ele>1598.9</ele>
        <time>2020-11-11T13:13:31Z</time>
      </trkpt>
      <trkpt lat="28.3766720" lon="-16.4684570">
        <ele>1598.9</ele>
        <time>2020-11-11T13:13:32Z</time>
      </trkpt>
      <trkpt lat="28.3766720" lon="-16.4684570">
        <ele>1598.9</ele>
        <time>2020-11-11T13:13:33Z</time>
      </trkpt>
      <trkpt lat="28.3766380" lon="-16.4684530">
        <ele>1598.9</ele>
        <time>2020-11-11T13:13:34Z</time>
      </trkpt>
      <trkpt lat="28.3766250" lon="-16.4684520">
        <ele>1599.9</ele>
        <time>2020-11-11T13:13:35Z</time>
      </trkpt>
      <trkpt lat="28.3766250" lon="-16.4684520">
        <ele>1599.9</ele>
        <time>2020-11-11T13:13:36Z</time>
      </trkpt>
      <trkpt lat="28.3765770" lon="-16.4684620">
        <ele>1599.9</ele>
        <time>2020-11-11T13:13:37Z</time>
      </trkpt>
      <trkpt lat="28.3765770" lon="-16.4684620">
        <ele>1599.9</ele>
        <time>2020-11-11T13:13:38Z</time>
      </trkpt>
      <trkpt lat="28.3765220" lon="-16.4684680">
        <ele>1599.9</ele>
        <time>2020-11-11T13:13:39Z</time>
      </trkpt>
      <trkpt lat="28.3765220" lon="-16.4684680">
        <ele>1599.9</ele>
        <time>2020-11-11T13:13:40Z</time>
      </trkpt>
      <trkpt lat="28.3764730" lon="-16.4684650">
        <ele>1599.9</ele>
        <time>2020-11-11T13:13:41Z</time>
      </trkpt>
      <trkpt lat="28.3764730" lon="-16.4684650">
        <ele>1600.9</ele>
        <time>2020-11-11T13:13:42Z</time>
      </trkpt>
      <trkpt lat="28.3764230" lon="-16.4684520">
        <ele>1600.9</ele>
        <time>2020-11-11T13:13:43Z</time>
      </trkpt>
      <trkpt lat="28.3764230" lon="-16.4684520">
        <ele>1600.9</ele>
        <time>2020-11-11T13:13:44Z</time>
      </trkpt>
      <trkpt lat="28.3763800" lon="-16.4684300">
        <ele>1600.9</ele>
        <time>2020-11-11T13:13:45Z</time>
      </trkpt>
      <trkpt lat="28.3763800" lon="-16.4684300">
        <ele>1600.9</ele>
        <time>2020-11-11T13:13:46Z</time>
      </trkpt>
      <trkpt lat="28.3763330" lon="-16.4684180">
        <ele>1600.9</ele>
        <time>2020-11-11T13:13:47Z</time>
      </trkpt>
      <trkpt lat="28.3763330" lon="-16.4684180">
        <ele>1601.9</ele>
        <time>2020-11-11T13:13:48Z</time>
      </trkpt>
      <trkpt lat="28.3762970" lon="-16.4684030">
        <ele>1601.9</ele>
        <time>2020-11-11T13:13:49Z</time>
      </trkpt>
      <trkpt lat="28.3762970" lon="-16.4684030">
        <ele>1601.9</ele>
        <time>2020-11-11T13:13:50Z</time>
      </trkpt>
      <trkpt lat="28.3762720" lon="-16.4683820">
        <ele>1601.9</ele>
        <time>2020-11-11T13:13:51Z</time>
      </trkpt>
      <trkpt lat="28.3762720" lon="-16.4683820">
        <ele>1601.9</ele>
        <time>2020-11-11T13:13:52Z</time>
      </trkpt>
      <trkpt lat="28.3762280" lon="-16.4683630">
        <ele>1601.9</ele>
        <time>2020-11-11T13:13:53Z</time>
      </trkpt>
      <trkpt lat="28.3762280" lon="-16.4683630">
        <ele>1601.9</ele>
        <time>2020-11-11T13:13:54Z</time>
      </trkpt>
      <trkpt lat="28.3761920" lon="-16.4683380">
        <ele>1601.9</ele>
        <time>2020-11-11T13:13:55Z</time>
      </trkpt>
      <trkpt lat="28.3761920" lon="-16.4683380">
        <ele>1601.9</ele>
        <time>2020-11-11T13:13:56Z</time>
      </trkpt>
      <trkpt lat="28.3761520" lon="-16.4683270">
        <ele>1601.9</ele>
        <time>2020-11-11T13:13:57Z</time>
      </trkpt>
      <trkpt lat="28.3761520" lon="-16.4683270">
        <ele>1602.9</ele>
        <time>2020-11-11T13:13:58Z</time>
      </trkpt>
      <trkpt lat="28.3761100" lon="-16.4683320">
        <ele>1602.9</ele>
        <time>2020-11-11T13:13:59Z</time>
      </trkpt>
      <trkpt lat="28.3761100" lon="-16.4683320">
        <ele>1602.9</ele>
        <time>2020-11-11T13:14:00Z</time>
      </trkpt>
      <trkpt lat="28.3761030" lon="-16.4683380">
        <ele>1602.9</ele>
        <time>2020-11-11T13:14:01Z</time>
      </trkpt>
      <trkpt lat="28.3761030" lon="-16.4683380">
        <ele>1602.9</ele>
        <time>2020-11-11T13:14:02Z</time>
      </trkpt>
      <trkpt lat="28.3760700" lon="-16.4683430">
        <ele>1602.9</ele>
        <time>2020-11-11T13:14:03Z</time>
      </trkpt>
      <trkpt lat="28.3760530" lon="-16.4683530">
        <ele>1602.9</ele>
        <time>2020-11-11T13:14:04Z</time>
      </trkpt>
      <trkpt lat="28.3760530" lon="-16.4683530">
        <ele>1602.9</ele>
        <time>2020-11-11T13:14:05Z</time>
      </trkpt>
      <trkpt lat="28.3760180" lon="-16.4683630">
        <ele>1602.9</ele>
        <time>2020-11-11T13:14:06Z</time>
      </trkpt>
      <trkpt lat="28.3759950" lon="-16.4683730">
        <ele>1602.9</ele>
        <time>2020-11-11T13:14:07Z</time>
      </trkpt>
      <trkpt lat="28.3759950" lon="-16.4683730">
        <ele>1602.9</ele>
        <time>2020-11-11T13:14:08Z</time>
      </trkpt>
      <trkpt lat="28.3759530" lon="-16.4683780">
        <ele>1602.9</ele>
        <time>2020-11-11T13:14:09Z</time>
      </trkpt>
      <trkpt lat="28.3759530" lon="-16.4683780">
        <ele>1602.9</ele>
        <time>2020-11-11T13:14:10Z</time>
      </trkpt>
      <trkpt lat="28.3759180" lon="-16.4683850">
        <ele>1602.9</ele>
        <time>2020-11-11T13:14:11Z</time>
      </trkpt>
      <trkpt lat="28.3759180" lon="-16.4683850">
        <ele>1602.9</ele>
        <time>2020-11-11T13:14:12Z</time>
      </trkpt>
      <trkpt lat="28.3758820" lon="-16.4683870">
        <ele>1602.9</ele>
        <time>2020-11-11T13:14:13Z</time>
      </trkpt>
      <trkpt lat="28.3758820" lon="-16.4683870">
        <ele>1602.9</ele>
        <time>2020-11-11T13:14:14Z</time>
      </trkpt>
      <trkpt lat="28.3758320" lon="-16.4683880">
        <ele>1602.9</ele>
        <time>2020-11-11T13:14:15Z</time>
      </trkpt>
      <trkpt lat="28.3758320" lon="-16.4683880">
        <ele>1602.9</ele>
        <time>2020-11-11T13:14:16Z</time>
      </trkpt>
      <trkpt lat="28.3757920" lon="-16.4684080">
        <ele>1602.9</ele>
        <time>2020-11-11T13:14:17Z</time>
      </trkpt>
      <trkpt lat="28.3757920" lon="-16.4684080">
        <ele>1603.9</ele>
        <time>2020-11-11T13:14:18Z</time>
      </trkpt>
      <trkpt lat="28.3757480" lon="-16.4684170">
        <ele>1603.9</ele>
        <time>2020-11-11T13:14:19Z</time>
      </trkpt>
      <trkpt lat="28.3757480" lon="-16.4684170">
        <ele>1603.9</ele>
        <time>2020-11-11T13:14:20Z</time>
      </trkpt>
      <trkpt lat="28.3757080" lon="-16.4684170">
        <ele>1603.9</ele>
        <time>2020-11-11T13:14:21Z</time>
      </trkpt>
      <trkpt lat="28.3757080" lon="-16.4684170">
        <ele>1604.9</ele>
        <time>2020-11-11T13:14:22Z</time>
      </trkpt>
      <trkpt lat="28.3756550" lon="-16.4684120">
        <ele>1604.9</ele>
        <time>2020-11-11T13:14:23Z</time>
      </trkpt>
      <trkpt lat="28.3756550" lon="-16.4684120">
        <ele>1604.9</ele>
        <time>2020-11-11T13:14:24Z</time>
      </trkpt>
      <trkpt lat="28.3756120" lon="-16.4684080">
        <ele>1604.9</ele>
        <time>2020-11-11T13:14:25Z</time>
      </trkpt>
      <trkpt lat="28.3756120" lon="-16.4684080">
        <ele>1604.9</ele>
        <time>2020-11-11T13:14:26Z</time>
      </trkpt>
      <trkpt lat="28.3755650" lon="-16.4684120">
        <ele>1604.9</ele>
        <time>2020-11-11T13:14:27Z</time>
      </trkpt>
      <trkpt lat="28.3755650" lon="-16.4684120">
        <ele>1605.9</ele>
        <time>2020-11-11T13:14:28Z</time>
      </trkpt>
      <trkpt lat="28.3755270" lon="-16.4684170">
        <ele>1605.9</ele>
        <time>2020-11-11T13:14:29Z</time>
      </trkpt>
      <trkpt lat="28.3755270" lon="-16.4684170">
        <ele>1605.9</ele>
        <time>2020-11-11T13:14:30Z</time>
      </trkpt>
      <trkpt lat="28.3755270" lon="-16.4684170">
        <ele>1605.9</ele>
        <time>2020-11-11T13:14:31Z</time>
      </trkpt>
      <trkpt lat="28.3754900" lon="-16.4684520">
        <ele>1605.9</ele>
        <time>2020-11-11T13:14:32Z</time>
      </trkpt>
      <trkpt lat="28.3754720" lon="-16.4684680">
        <ele>1605.9</ele>
        <time>2020-11-11T13:14:33Z</time>
      </trkpt>
      <trkpt lat="28.3754720" lon="-16.4684680">
        <ele>1605.9</ele>
        <time>2020-11-11T13:14:34Z</time>
      </trkpt>
      <trkpt lat="28.3754650" lon="-16.4684680">
        <ele>1605.9</ele>
        <time>2020-11-11T13:14:35Z</time>
      </trkpt>
      <trkpt lat="28.3754650" lon="-16.4684680">
        <ele>1606.9</ele>
        <time>2020-11-11T13:14:36Z</time>
      </trkpt>
      <trkpt lat="28.3754280" lon="-16.4686600">
        <ele>1606.9</ele>
        <time>2020-11-11T13:15:43Z</time>
      </trkpt>
      <trkpt lat="28.3754280" lon="-16.4686600">
        <ele>1606.9</ele>
        <time>2020-11-11T13:15:44Z</time>
      </trkpt>
      <trkpt lat="28.3754170" lon="-16.4686820">
        <ele>1606.9</ele>
        <time>2020-11-11T13:15:45Z</time>
      </trkpt>
      <trkpt lat="28.3754170" lon="-16.4686820">
        <ele>1606.9</ele>
        <time>2020-11-11T13:15:46Z</time>
      </trkpt>
      <trkpt lat="28.3754100" lon="-16.4686880">
        <ele>1606.9</ele>
        <time>2020-11-11T13:15:47Z</time>
      </trkpt>
      <trkpt lat="28.3754100" lon="-16.4686880">
        <ele>1606.9</ele>
        <time>2020-11-11T13:15:48Z</time>
      </trkpt>
      <trkpt lat="28.3754070" lon="-16.4686820">
        <ele>1606.9</ele>
        <time>2020-11-11T13:18:33Z</time>
      </trkpt>
      <trkpt lat="28.3754070" lon="-16.4686820">
        <ele>1606.9</ele>
        <time>2020-11-11T13:18:34Z</time>
      </trkpt>
      <trkpt lat="28.3754320" lon="-16.4685700">
        <ele>1606.9</ele>
        <time>2020-11-11T13:18:35Z</time>
      </trkpt>
      <trkpt lat="28.3754320" lon="-16.4685700">
        <ele>1606.9</ele>
        <time>2020-11-11T13:18:43Z</time>
      </trkpt>
      <trkpt lat="28.3754320" lon="-16.4685700">
        <ele>1606.9</ele>
        <time>2020-11-11T13:18:44Z</time>
      </trkpt>
      <trkpt lat="28.3753950" lon="-16.4684800">
        <ele>1606.9</ele>
        <time>2020-11-11T13:18:45Z</time>
      </trkpt>
      <trkpt lat="28.3753950" lon="-16.4684800">
        <ele>1606.9</ele>
        <time>2020-11-11T13:18:46Z</time>
      </trkpt>
      <trkpt lat="28.3753700" lon="-16.4684650">
        <ele>1606.9</ele>
        <time>2020-11-11T13:18:47Z</time>
      </trkpt>
      <trkpt lat="28.3753580" lon="-16.4684670">
        <ele>1607.9</ele>
        <time>2020-11-11T13:18:48Z</time>
      </trkpt>
      <trkpt lat="28.3753450" lon="-16.4684630">
        <ele>1607.9</ele>
        <time>2020-11-11T13:18:49Z</time>
      </trkpt>
      <trkpt lat="28.3753450" lon="-16.4684630">
        <ele>1607.9</ele>
        <time>2020-11-11T13:18:50Z</time>
      </trkpt>
      <trkpt lat="28.3753180" lon="-16.4684630">
        <ele>1607.9</ele>
        <time>2020-11-11T13:18:51Z</time>
      </trkpt>
      <trkpt lat="28.3753180" lon="-16.4684630">
        <ele>1608.9</ele>
        <time>2020-11-11T13:18:52Z</time>
      </trkpt>
      <trkpt lat="28.3752980" lon="-16.4684600">
        <ele>1608.9</ele>
        <time>2020-11-11T13:18:53Z</time>
      </trkpt>
      <trkpt lat="28.3752980" lon="-16.4684600">
        <ele>1608.9</ele>
        <time>2020-11-11T13:18:54Z</time>
      </trkpt>
      <trkpt lat="28.3753000" lon="-16.4684530">
        <ele>1608.9</ele>
        <time>2020-11-11T13:18:55Z</time>
      </trkpt>
      <trkpt lat="28.3753000" lon="-16.4684530">
        <ele>1608.9</ele>
        <time>2020-11-11T13:18:56Z</time>
      </trkpt>
      <trkpt lat="28.3753020" lon="-16.4684500">
        <ele>1608.9</ele>
        <time>2020-11-11T13:18:57Z</time>
      </trkpt>
      <trkpt lat="28.3753020" lon="-16.4684500">
        <ele>1608.9</ele>
        <time>2020-11-11T13:19:15Z</time>
      </trkpt>
      <trkpt lat="28.3752880" lon="-16.4685150">
        <ele>1608.9</ele>
        <time>2020-11-11T13:19:16Z</time>
      </trkpt>
      <trkpt lat="28.3752880" lon="-16.4685150">
        <ele>1609.9</ele>
        <time>2020-11-11T13:19:17Z</time>
      </trkpt>
      <trkpt lat="28.3752680" lon="-16.4685300">
        <ele>1609.9</ele>
        <time>2020-11-11T13:19:18Z</time>
      </trkpt>
      <trkpt lat="28.3752680" lon="-16.4685300">
        <ele>1609.9</ele>
        <time>2020-11-11T13:19:19Z</time>
      </trkpt>
      <trkpt lat="28.3752550" lon="-16.4685420">
        <ele>1609.9</ele>
        <time>2020-11-11T13:19:20Z</time>
      </trkpt>
      <trkpt lat="28.3752550" lon="-16.4685420">
        <ele>1609.9</ele>
        <time>2020-11-11T13:19:21Z</time>
      </trkpt>
      <trkpt lat="28.3752470" lon="-16.4685630">
        <ele>1609.9</ele>
        <time>2020-11-11T13:19:22Z</time>
      </trkpt>
      <trkpt lat="28.3752470" lon="-16.4685630">
        <ele>1609.9</ele>
        <time>2020-11-11T13:19:23Z</time>
      </trkpt>
      <trkpt lat="28.3752480" lon="-16.4685820">
        <ele>1609.9</ele>
        <time>2020-11-11T13:19:24Z</time>
      </trkpt>
      <trkpt lat="28.3752480" lon="-16.4685900">
        <ele>1609.9</ele>
        <time>2020-11-11T13:19:25Z</time>
      </trkpt>
      <trkpt lat="28.3752480" lon="-16.4685900">
        <ele>1609.9</ele>
        <time>2020-11-11T13:19:26Z</time>
      </trkpt>
      <trkpt lat="28.3752500" lon="-16.4686050">
        <ele>1609.9</ele>
        <time>2020-11-11T13:19:27Z</time>
      </trkpt>
      <trkpt lat="28.3752500" lon="-16.4686050">
        <ele>1609.9</ele>
        <time>2020-11-11T13:19:28Z</time>
      </trkpt>
      <trkpt lat="28.3752400" lon="-16.4686200">
        <ele>1609.9</ele>
        <time>2020-11-11T13:19:29Z</time>
      </trkpt>
      <trkpt lat="28.3752400" lon="-16.4686200">
        <ele>1610.9</ele>
        <time>2020-11-11T13:19:30Z</time>
      </trkpt>
      <trkpt lat="28.3752370" lon="-16.4686380">
        <ele>1610.9</ele>
        <time>2020-11-11T13:19:31Z</time>
      </trkpt>
      <trkpt lat="28.3752370" lon="-16.4686450">
        <ele>1610.9</ele>
        <time>2020-11-11T13:19:32Z</time>
      </trkpt>
      <trkpt lat="28.3752370" lon="-16.4686450">
        <ele>1610.9</ele>
        <time>2020-11-11T13:19:33Z</time>
      </trkpt>
      <trkpt lat="28.3752330" lon="-16.4686580">
        <ele>1610.9</ele>
        <time>2020-11-11T13:19:34Z</time>
      </trkpt>
      <trkpt lat="28.3752330" lon="-16.4686580">
        <ele>1610.9</ele>
        <time>2020-11-11T13:19:35Z</time>
      </trkpt>
      <trkpt lat="28.3752280" lon="-16.4686820">
        <ele>1610.9</ele>
        <time>2020-11-11T13:19:36Z</time>
      </trkpt>
      <trkpt lat="28.3752280" lon="-16.4686820">
        <ele>1610.9</ele>
        <time>2020-11-11T13:19:37Z</time>
      </trkpt>
      <trkpt lat="28.3752320" lon="-16.4687030">
        <ele>1610.9</ele>
        <time>2020-11-11T13:19:38Z</time>
      </trkpt>
      <trkpt lat="28.3752320" lon="-16.4687030">
        <ele>1611.9</ele>
        <time>2020-11-11T13:19:39Z</time>
      </trkpt>
      <trkpt lat="28.3752350" lon="-16.4687180">
        <ele>1611.9</ele>
        <time>2020-11-11T13:19:40Z</time>
      </trkpt>
      <trkpt lat="28.3752350" lon="-16.4687180">
        <ele>1611.9</ele>
        <time>2020-11-11T13:19:41Z</time>
      </trkpt>
      <trkpt lat="28.3752550" lon="-16.4687330">
        <ele>1611.9</ele>
        <time>2020-11-11T13:19:42Z</time>
      </trkpt>
      <trkpt lat="28.3752620" lon="-16.4687400">
        <ele>1611.9</ele>
        <time>2020-11-11T13:19:43Z</time>
      </trkpt>
      <trkpt lat="28.3752620" lon="-16.4687400">
        <ele>1611.9</ele>
        <time>2020-11-11T13:19:44Z</time>
      </trkpt>
      <trkpt lat="28.3752820" lon="-16.4687530">
        <ele>1611.9</ele>
        <time>2020-11-11T13:19:45Z</time>
      </trkpt>
      <trkpt lat="28.3752820" lon="-16.4687530">
        <ele>1611.9</ele>
        <time>2020-11-11T13:19:46Z</time>
      </trkpt>
      <trkpt lat="28.3752970" lon="-16.4687680">
        <ele>1611.9</ele>
        <time>2020-11-11T13:19:47Z</time>
      </trkpt>
      <trkpt lat="28.3752970" lon="-16.4687680">
        <ele>1611.9</ele>
        <time>2020-11-11T13:19:48Z</time>
      </trkpt>
      <trkpt lat="28.3753080" lon="-16.4687830">
        <ele>1611.9</ele>
        <time>2020-11-11T13:19:49Z</time>
      </trkpt>
      <trkpt lat="28.3753080" lon="-16.4687830">
        <ele>1611.9</ele>
        <time>2020-11-11T13:19:50Z</time>
      </trkpt>
      <trkpt lat="28.3753170" lon="-16.4687900">
        <ele>1612.9</ele>
        <time>2020-11-11T13:19:51Z</time>
      </trkpt>
      <trkpt lat="28.3753170" lon="-16.4687900">
        <ele>1612.9</ele>
        <time>2020-11-11T13:19:52Z</time>
      </trkpt>
      <trkpt lat="28.3753270" lon="-16.4687980">
        <ele>1612.9</ele>
        <time>2020-11-11T13:19:53Z</time>
      </trkpt>
      <trkpt lat="28.3753320" lon="-16.4688000">
        <ele>1612.9</ele>
        <time>2020-11-11T13:19:54Z</time>
      </trkpt>
      <trkpt lat="28.3753320" lon="-16.4688000">
        <ele>1612.9</ele>
        <time>2020-11-11T13:19:55Z</time>
      </trkpt>
      <trkpt lat="28.3753500" lon="-16.4688030">
        <ele>1612.9</ele>
        <time>2020-11-11T13:19:56Z</time>
      </trkpt>
      <trkpt lat="28.3753500" lon="-16.4688030">
        <ele>1613.9</ele>
        <time>2020-11-11T13:19:57Z</time>
      </trkpt>
      <trkpt lat="28.3753770" lon="-16.4688100">
        <ele>1613.9</ele>
        <time>2020-11-11T13:19:58Z</time>
      </trkpt>
      <trkpt lat="28.3753830" lon="-16.4688150">
        <ele>1613.9</ele>
        <time>2020-11-11T13:19:59Z</time>
      </trkpt>
      <trkpt lat="28.3753830" lon="-16.4688150">
        <ele>1613.9</ele>
        <time>2020-11-11T13:20:00Z</time>
      </trkpt>
      <trkpt lat="28.3753950" lon="-16.4688250">
        <ele>1613.9</ele>
        <time>2020-11-11T13:20:01Z</time>
      </trkpt>
      <trkpt lat="28.3754030" lon="-16.4688300">
        <ele>1614.9</ele>
        <time>2020-11-11T13:20:02Z</time>
      </trkpt>
      <trkpt lat="28.3754030" lon="-16.4688300">
        <ele>1614.9</ele>
        <time>2020-11-11T13:20:03Z</time>
      </trkpt>
      <trkpt lat="28.3754230" lon="-16.4688470">
        <ele>1614.9</ele>
        <time>2020-11-11T13:20:04Z</time>
      </trkpt>
      <trkpt lat="28.3754230" lon="-16.4688470">
        <ele>1614.9</ele>
        <time>2020-11-11T13:20:05Z</time>
      </trkpt>
      <trkpt lat="28.3754450" lon="-16.4688580">
        <ele>1614.9</ele>
        <time>2020-11-11T13:20:06Z</time>
      </trkpt>
      <trkpt lat="28.3754450" lon="-16.4688580">
        <ele>1614.9</ele>
        <time>2020-11-11T13:20:07Z</time>
      </trkpt>
      <trkpt lat="28.3754630" lon="-16.4688750">
        <ele>1614.9</ele>
        <time>2020-11-11T13:20:08Z</time>
      </trkpt>
      <trkpt lat="28.3754630" lon="-16.4688750">
        <ele>1614.9</ele>
        <time>2020-11-11T13:20:09Z</time>
      </trkpt>
      <trkpt lat="28.3754800" lon="-16.4688880">
        <ele>1615.9</ele>
        <time>2020-11-11T13:20:10Z</time>
      </trkpt>
      <trkpt lat="28.3754800" lon="-16.4688880">
        <ele>1615.9</ele>
        <time>2020-11-11T13:20:11Z</time>
      </trkpt>
      <trkpt lat="28.3754970" lon="-16.4689120">
        <ele>1615.9</ele>
        <time>2020-11-11T13:20:12Z</time>
      </trkpt>
      <trkpt lat="28.3755030" lon="-16.4689270">
        <ele>1615.9</ele>
        <time>2020-11-11T13:20:13Z</time>
      </trkpt>
      <trkpt lat="28.3755100" lon="-16.4689370">
        <ele>1615.9</ele>
        <time>2020-11-11T13:20:14Z</time>
      </trkpt>
      <trkpt lat="28.3755100" lon="-16.4689370">
        <ele>1615.9</ele>
        <time>2020-11-11T13:20:15Z</time>
      </trkpt>
      <trkpt lat="28.3755130" lon="-16.4689430">
        <ele>1615.9</ele>
        <time>2020-11-11T13:20:16Z</time>
      </trkpt>
      <trkpt lat="28.3755180" lon="-16.4689500">
        <ele>1615.9</ele>
        <time>2020-11-11T13:20:17Z</time>
      </trkpt>
      <trkpt lat="28.3755180" lon="-16.4689500">
        <ele>1615.9</ele>
        <time>2020-11-11T13:20:18Z</time>
      </trkpt>
      <trkpt lat="28.3755280" lon="-16.4689680">
        <ele>1615.9</ele>
        <time>2020-11-11T13:20:19Z</time>
      </trkpt>
      <trkpt lat="28.3755280" lon="-16.4689770">
        <ele>1615.9</ele>
        <time>2020-11-11T13:20:20Z</time>
      </trkpt>
      <trkpt lat="28.3755280" lon="-16.4689770">
        <ele>1615.9</ele>
        <time>2020-11-11T13:20:21Z</time>
      </trkpt>
      <trkpt lat="28.3755380" lon="-16.4689980">
        <ele>1615.9</ele>
        <time>2020-11-11T13:20:22Z</time>
      </trkpt>
      <trkpt lat="28.3755380" lon="-16.4689980">
        <ele>1616.9</ele>
        <time>2020-11-11T13:20:23Z</time>
      </trkpt>
      <trkpt lat="28.3755430" lon="-16.4690170">
        <ele>1616.9</ele>
        <time>2020-11-11T13:20:24Z</time>
      </trkpt>
      <trkpt lat="28.3755430" lon="-16.4690170">
        <ele>1616.9</ele>
        <time>2020-11-11T13:20:25Z</time>
      </trkpt>
      <trkpt lat="28.3755520" lon="-16.4690280">
        <ele>1616.9</ele>
        <time>2020-11-11T13:20:26Z</time>
      </trkpt>
      <trkpt lat="28.3755520" lon="-16.4690280">
        <ele>1616.9</ele>
        <time>2020-11-11T13:20:27Z</time>
      </trkpt>
      <trkpt lat="28.3755620" lon="-16.4690500">
        <ele>1616.9</ele>
        <time>2020-11-11T13:20:28Z</time>
      </trkpt>
      <trkpt lat="28.3755620" lon="-16.4690500">
        <ele>1616.9</ele>
        <time>2020-11-11T13:20:29Z</time>
      </trkpt>
      <trkpt lat="28.3755680" lon="-16.4690620">
        <ele>1616.9</ele>
        <time>2020-11-11T13:20:30Z</time>
      </trkpt>
      <trkpt lat="28.3755630" lon="-16.4690700">
        <ele>1616.9</ele>
        <time>2020-11-11T13:20:31Z</time>
      </trkpt>
      <trkpt lat="28.3755630" lon="-16.4690700">
        <ele>1616.9</ele>
        <time>2020-11-11T13:20:32Z</time>
      </trkpt>
      <trkpt lat="28.3755630" lon="-16.4690880">
        <ele>1616.9</ele>
        <time>2020-11-11T13:20:33Z</time>
      </trkpt>
      <trkpt lat="28.3755630" lon="-16.4690880">
        <ele>1616.9</ele>
        <time>2020-11-11T13:20:34Z</time>
      </trkpt>
      <trkpt lat="28.3755620" lon="-16.4691120">
        <ele>1616.9</ele>
        <time>2020-11-11T13:20:35Z</time>
      </trkpt>
      <trkpt lat="28.3755600" lon="-16.4691230">
        <ele>1617.9</ele>
        <time>2020-11-11T13:20:36Z</time>
      </trkpt>
      <trkpt lat="28.3755600" lon="-16.4691230">
        <ele>1617.9</ele>
        <time>2020-11-11T13:20:37Z</time>
      </trkpt>
      <trkpt lat="28.3755730" lon="-16.4691530">
        <ele>1617.9</ele>
        <time>2020-11-11T13:20:38Z</time>
      </trkpt>
      <trkpt lat="28.3755730" lon="-16.4691530">
        <ele>1617.9</ele>
        <time>2020-11-11T13:20:39Z</time>
      </trkpt>
      <trkpt lat="28.3755820" lon="-16.4691820">
        <ele>1617.9</ele>
        <time>2020-11-11T13:20:40Z</time>
      </trkpt>
      <trkpt lat="28.3755820" lon="-16.4691820">
        <ele>1617.9</ele>
        <time>2020-11-11T13:20:41Z</time>
      </trkpt>
      <trkpt lat="28.3755900" lon="-16.4692030">
        <ele>1617.9</ele>
        <time>2020-11-11T13:20:42Z</time>
      </trkpt>
      <trkpt lat="28.3755980" lon="-16.4692120">
        <ele>1617.9</ele>
        <time>2020-11-11T13:20:43Z</time>
      </trkpt>
      <trkpt lat="28.3755980" lon="-16.4692120">
        <ele>1617.9</ele>
        <time>2020-11-11T13:20:44Z</time>
      </trkpt>
      <trkpt lat="28.3756100" lon="-16.4692370">
        <ele>1618.9</ele>
        <time>2020-11-11T13:20:45Z</time>
      </trkpt>
      <trkpt lat="28.3756130" lon="-16.4692470">
        <ele>1618.9</ele>
        <time>2020-11-11T13:20:46Z</time>
      </trkpt>
      <trkpt lat="28.3756130" lon="-16.4692470">
        <ele>1618.9</ele>
        <time>2020-11-11T13:20:47Z</time>
      </trkpt>
      <trkpt lat="28.3756230" lon="-16.4692630">
        <ele>1618.9</ele>
        <time>2020-11-11T13:20:48Z</time>
      </trkpt>
      <trkpt lat="28.3756230" lon="-16.4692630">
        <ele>1618.9</ele>
        <time>2020-11-11T13:20:49Z</time>
      </trkpt>
      <trkpt lat="28.3756330" lon="-16.4692820">
        <ele>1618.9</ele>
        <time>2020-11-11T13:20:50Z</time>
      </trkpt>
      <trkpt lat="28.3756330" lon="-16.4692820">
        <ele>1618.9</ele>
        <time>2020-11-11T13:20:51Z</time>
      </trkpt>
      <trkpt lat="28.3756550" lon="-16.4693020">
        <ele>1618.9</ele>
        <time>2020-11-11T13:20:52Z</time>
      </trkpt>
      <trkpt lat="28.3756550" lon="-16.4693020">
        <ele>1620.9</ele>
        <time>2020-11-11T13:20:53Z</time>
      </trkpt>
      <trkpt lat="28.3756720" lon="-16.4693170">
        <ele>1620.9</ele>
        <time>2020-11-11T13:20:54Z</time>
      </trkpt>
      <trkpt lat="28.3756720" lon="-16.4693170">
        <ele>1620.9</ele>
        <time>2020-11-11T13:20:55Z</time>
      </trkpt>
      <trkpt lat="28.3756920" lon="-16.4693250">
        <ele>1620.9</ele>
        <time>2020-11-11T13:20:56Z</time>
      </trkpt>
      <trkpt lat="28.3756920" lon="-16.4693250">
        <ele>1620.9</ele>
        <time>2020-11-11T13:20:57Z</time>
      </trkpt>
      <trkpt lat="28.3756950" lon="-16.4693230">
        <ele>1620.9</ele>
        <time>2020-11-11T13:20:58Z</time>
      </trkpt>
      <trkpt lat="28.3756950" lon="-16.4693230">
        <ele>1620.9</ele>
        <time>2020-11-11T13:20:59Z</time>
      </trkpt>
      <trkpt lat="28.3756970" lon="-16.4693250">
        <ele>1620.9</ele>
        <time>2020-11-11T13:21:00Z</time>
      </trkpt>
      <trkpt lat="28.3757000" lon="-16.4693280">
        <ele>1620.9</ele>
        <time>2020-11-11T13:21:01Z</time>
      </trkpt>
      <trkpt lat="28.3757000" lon="-16.4693280">
        <ele>1620.9</ele>
        <time>2020-11-11T13:21:02Z</time>
      </trkpt>
      <trkpt lat="28.3757170" lon="-16.4693480">
        <ele>1620.9</ele>
        <time>2020-11-11T13:21:03Z</time>
      </trkpt>
      <trkpt lat="28.3757350" lon="-16.4693520">
        <ele>1620.9</ele>
        <time>2020-11-11T13:21:04Z</time>
      </trkpt>
      <trkpt lat="28.3757350" lon="-16.4693520">
        <ele>1620.9</ele>
        <time>2020-11-11T13:21:05Z</time>
      </trkpt>
      <trkpt lat="28.3757430" lon="-16.4693500">
        <ele>1620.9</ele>
        <time>2020-11-11T13:21:06Z</time>
      </trkpt>
      <trkpt lat="28.3757430" lon="-16.4693500">
        <ele>1620.9</ele>
        <time>2020-11-11T13:21:07Z</time>
      </trkpt>
      <trkpt lat="28.3757620" lon="-16.4693550">
        <ele>1620.9</ele>
        <time>2020-11-11T13:21:08Z</time>
      </trkpt>
      <trkpt lat="28.3757620" lon="-16.4693550">
        <ele>1620.9</ele>
        <time>2020-11-11T13:21:09Z</time>
      </trkpt>
      <trkpt lat="28.3757580" lon="-16.4693580">
        <ele>1620.9</ele>
        <time>2020-11-11T13:21:10Z</time>
      </trkpt>
      <trkpt lat="28.3757580" lon="-16.4693580">
        <ele>1620.9</ele>
        <time>2020-11-11T13:21:11Z</time>
      </trkpt>
      <trkpt lat="28.3757670" lon="-16.4693630">
        <ele>1621.9</ele>
        <time>2020-11-11T13:21:12Z</time>
      </trkpt>
      <trkpt lat="28.3757670" lon="-16.4693630">
        <ele>1621.9</ele>
        <time>2020-11-11T13:21:13Z</time>
      </trkpt>
      <trkpt lat="28.3757670" lon="-16.4693630">
        <ele>1621.9</ele>
        <time>2020-11-11T13:21:14Z</time>
      </trkpt>
      <trkpt lat="28.3757670" lon="-16.4693630">
        <ele>1621.9</ele>
        <time>2020-11-11T13:21:15Z</time>
      </trkpt>
      <trkpt lat="28.3757670" lon="-16.4693630">
        <ele>1621.9</ele>
        <time>2020-11-11T13:21:16Z</time>
      </trkpt>
      <trkpt lat="28.3757370" lon="-16.4693450">
        <ele>1621.9</ele>
        <time>2020-11-11T13:21:17Z</time>
      </trkpt>
      <trkpt lat="28.3757370" lon="-16.4693450">
        <ele>1621.9</ele>
        <time>2020-11-11T13:21:18Z</time>
      </trkpt>
      <trkpt lat="28.3757330" lon="-16.4693400">
        <ele>1621.9</ele>
        <time>2020-11-11T13:21:19Z</time>
      </trkpt>
      <trkpt lat="28.3757330" lon="-16.4693400">
        <ele>1621.9</ele>
        <time>2020-11-11T13:21:20Z</time>
      </trkpt>
      <trkpt lat="28.3757330" lon="-16.4693450">
        <ele>1621.9</ele>
        <time>2020-11-11T13:21:25Z</time>
      </trkpt>
      <trkpt lat="28.3757330" lon="-16.4693450">
        <ele>1621.9</ele>
        <time>2020-11-11T13:21:26Z</time>
      </trkpt>
      <trkpt lat="28.3756420" lon="-16.4692600">
        <ele>1621.9</ele>
        <time>2020-11-11T13:21:27Z</time>
      </trkpt>
      <trkpt lat="28.3756420" lon="-16.4692370">
        <ele>1621.9</ele>
        <time>2020-11-11T13:21:28Z</time>
      </trkpt>
      <trkpt lat="28.3756420" lon="-16.4692370">
        <ele>1620.9</ele>
        <time>2020-11-11T13:21:29Z</time>
      </trkpt>
      <trkpt lat="28.3756320" lon="-16.4691880">
        <ele>1620.9</ele>
        <time>2020-11-11T13:21:30Z</time>
      </trkpt>
      <trkpt lat="28.3756320" lon="-16.4691880">
        <ele>1619.9</ele>
        <time>2020-11-11T13:21:31Z</time>
      </trkpt>
      <trkpt lat="28.3756120" lon="-16.4691500">
        <ele>1619.9</ele>
        <time>2020-11-11T13:21:32Z</time>
      </trkpt>
      <trkpt lat="28.3756070" lon="-16.4691300">
        <ele>1619.9</ele>
        <time>2020-11-11T13:21:33Z</time>
      </trkpt>
      <trkpt lat="28.3756070" lon="-16.4691300">
        <ele>1619.9</ele>
        <time>2020-11-11T13:21:34Z</time>
      </trkpt>
      <trkpt lat="28.3755970" lon="-16.4690920">
        <ele>1618.9</ele>
        <time>2020-11-11T13:21:35Z</time>
      </trkpt>
      <trkpt lat="28.3755970" lon="-16.4690920">
        <ele>1618.9</ele>
        <time>2020-11-11T13:21:36Z</time>
      </trkpt>
      <trkpt lat="28.3755770" lon="-16.4690570">
        <ele>1618.9</ele>
        <time>2020-11-11T13:21:37Z</time>
      </trkpt>
      <trkpt lat="28.3755780" lon="-16.4690420">
        <ele>1618.9</ele>
        <time>2020-11-11T13:21:38Z</time>
      </trkpt>
      <trkpt lat="28.3755780" lon="-16.4690420">
        <ele>1617.9</ele>
        <time>2020-11-11T13:21:39Z</time>
      </trkpt>
      <trkpt lat="28.3755620" lon="-16.4689980">
        <ele>1617.9</ele>
        <time>2020-11-11T13:21:40Z</time>
      </trkpt>
      <trkpt lat="28.3755620" lon="-16.4689980">
        <ele>1617.9</ele>
        <time>2020-11-11T13:21:41Z</time>
      </trkpt>
      <trkpt lat="28.3755400" lon="-16.4689470">
        <ele>1617.9</ele>
        <time>2020-11-11T13:21:42Z</time>
      </trkpt>
      <trkpt lat="28.3755370" lon="-16.4689320">
        <ele>1616.9</ele>
        <time>2020-11-11T13:21:43Z</time>
      </trkpt>
      <trkpt lat="28.3755280" lon="-16.4689170">
        <ele>1616.9</ele>
        <time>2020-11-11T13:21:44Z</time>
      </trkpt>
      <trkpt lat="28.3755280" lon="-16.4689170">
        <ele>1616.9</ele>
        <time>2020-11-11T13:21:45Z</time>
      </trkpt>
      <trkpt lat="28.3754930" lon="-16.4688730">
        <ele>1616.9</ele>
        <time>2020-11-11T13:21:46Z</time>
      </trkpt>
      <trkpt lat="28.3754930" lon="-16.4688730">
        <ele>1616.9</ele>
        <time>2020-11-11T13:21:47Z</time>
      </trkpt>
      <trkpt lat="28.3754670" lon="-16.4688370">
        <ele>1616.9</ele>
        <time>2020-11-11T13:21:48Z</time>
      </trkpt>
      <trkpt lat="28.3754670" lon="-16.4688370">
        <ele>1615.9</ele>
        <time>2020-11-11T13:21:49Z</time>
      </trkpt>
      <trkpt lat="28.3754420" lon="-16.4688100">
        <ele>1615.9</ele>
        <time>2020-11-11T13:21:50Z</time>
      </trkpt>
      <trkpt lat="28.3754420" lon="-16.4688100">
        <ele>1615.9</ele>
        <time>2020-11-11T13:21:51Z</time>
      </trkpt>
      <trkpt lat="28.3754130" lon="-16.4687850">
        <ele>1615.9</ele>
        <time>2020-11-11T13:21:52Z</time>
      </trkpt>
      <trkpt lat="28.3754130" lon="-16.4687850">
        <ele>1613.9</ele>
        <time>2020-11-11T13:21:53Z</time>
      </trkpt>
      <trkpt lat="28.3753980" lon="-16.4687730">
        <ele>1613.9</ele>
        <time>2020-11-11T13:21:54Z</time>
      </trkpt>
      <trkpt lat="28.3753830" lon="-16.4687700">
        <ele>1613.9</ele>
        <time>2020-11-11T13:21:55Z</time>
      </trkpt>
      <trkpt lat="28.3753830" lon="-16.4687700">
        <ele>1613.9</ele>
        <time>2020-11-11T13:21:56Z</time>
      </trkpt>
      <trkpt lat="28.3753430" lon="-16.4687370">
        <ele>1612.9</ele>
        <time>2020-11-11T13:21:57Z</time>
      </trkpt>
      <trkpt lat="28.3753430" lon="-16.4687370">
        <ele>1612.9</ele>
        <time>2020-11-11T13:21:58Z</time>
      </trkpt>
      <trkpt lat="28.3753280" lon="-16.4687150">
        <ele>1612.9</ele>
        <time>2020-11-11T13:21:59Z</time>
      </trkpt>
      <trkpt lat="28.3753280" lon="-16.4687150">
        <ele>1612.9</ele>
        <time>2020-11-11T13:22:00Z</time>
      </trkpt>
      <trkpt lat="28.3753200" lon="-16.4687000">
        <ele>1612.9</ele>
        <time>2020-11-11T13:22:01Z</time>
      </trkpt>
      <trkpt lat="28.3753200" lon="-16.4687000">
        <ele>1612.9</ele>
        <time>2020-11-11T13:22:02Z</time>
      </trkpt>
      <trkpt lat="28.3752970" lon="-16.4686770">
        <ele>1612.9</ele>
        <time>2020-11-11T13:22:03Z</time>
      </trkpt>
      <trkpt lat="28.3752970" lon="-16.4686770">
        <ele>1612.9</ele>
        <time>2020-11-11T13:22:04Z</time>
      </trkpt>
      <trkpt lat="28.3752770" lon="-16.4686250">
        <ele>1612.9</ele>
        <time>2020-11-11T13:22:05Z</time>
      </trkpt>
      <trkpt lat="28.3752770" lon="-16.4686250">
        <ele>1611.9</ele>
        <time>2020-11-11T13:22:06Z</time>
      </trkpt>
      <trkpt lat="28.3752770" lon="-16.4685800">
        <ele>1611.9</ele>
        <time>2020-11-11T13:22:07Z</time>
      </trkpt>
      <trkpt lat="28.3752770" lon="-16.4685800">
        <ele>1611.9</ele>
        <time>2020-11-11T13:22:08Z</time>
      </trkpt>
      <trkpt lat="28.3752830" lon="-16.4685530">
        <ele>1611.9</ele>
        <time>2020-11-11T13:22:09Z</time>
      </trkpt>
      <trkpt lat="28.3752870" lon="-16.4685400">
        <ele>1610.9</ele>
        <time>2020-11-11T13:22:10Z</time>
      </trkpt>
      <trkpt lat="28.3752870" lon="-16.4685400">
        <ele>1610.9</ele>
        <time>2020-11-11T13:22:11Z</time>
      </trkpt>
      <trkpt lat="28.3752980" lon="-16.4685200">
        <ele>1610.9</ele>
        <time>2020-11-11T13:22:12Z</time>
      </trkpt>
      <trkpt lat="28.3753000" lon="-16.4685080">
        <ele>1610.9</ele>
        <time>2020-11-11T13:22:13Z</time>
      </trkpt>
      <trkpt lat="28.3753000" lon="-16.4685080">
        <ele>1610.9</ele>
        <time>2020-11-11T13:22:14Z</time>
      </trkpt>
      <trkpt lat="28.3753130" lon="-16.4684880">
        <ele>1610.9</ele>
        <time>2020-11-11T13:22:15Z</time>
      </trkpt>
      <trkpt lat="28.3753170" lon="-16.4684780">
        <ele>1609.9</ele>
        <time>2020-11-11T13:22:16Z</time>
      </trkpt>
      <trkpt lat="28.3753170" lon="-16.4684780">
        <ele>1609.9</ele>
        <time>2020-11-11T13:22:17Z</time>
      </trkpt>
      <trkpt lat="28.3753230" lon="-16.4684650">
        <ele>1609.9</ele>
        <time>2020-11-11T13:22:18Z</time>
      </trkpt>
      <trkpt lat="28.3753230" lon="-16.4684650">
        <ele>1609.9</ele>
        <time>2020-11-11T13:22:19Z</time>
      </trkpt>
      <trkpt lat="28.3753370" lon="-16.4684600">
        <ele>1609.9</ele>
        <time>2020-11-11T13:22:20Z</time>
      </trkpt>
      <trkpt lat="28.3753370" lon="-16.4684600">
        <ele>1609.9</ele>
        <time>2020-11-11T13:22:21Z</time>
      </trkpt>
      <trkpt lat="28.3753470" lon="-16.4684570">
        <ele>1609.9</ele>
        <time>2020-11-11T13:22:22Z</time>
      </trkpt>
      <trkpt lat="28.3753470" lon="-16.4684570">
        <ele>1609.9</ele>
        <time>2020-11-11T13:22:23Z</time>
      </trkpt>
      <trkpt lat="28.3753720" lon="-16.4684480">
        <ele>1608.9</ele>
        <time>2020-11-11T13:22:24Z</time>
      </trkpt>
      <trkpt lat="28.3753720" lon="-16.4684480">
        <ele>1608.9</ele>
        <time>2020-11-11T13:22:25Z</time>
      </trkpt>
      <trkpt lat="28.3753950" lon="-16.4684430">
        <ele>1608.9</ele>
        <time>2020-11-11T13:22:26Z</time>
      </trkpt>
      <trkpt lat="28.3753950" lon="-16.4684430">
        <ele>1608.9</ele>
        <time>2020-11-11T13:22:27Z</time>
      </trkpt>
      <trkpt lat="28.3754180" lon="-16.4684530">
        <ele>1608.9</ele>
        <time>2020-11-11T13:22:28Z</time>
      </trkpt>
      <trkpt lat="28.3754180" lon="-16.4684530">
        <ele>1608.9</ele>
        <time>2020-11-11T13:22:29Z</time>
      </trkpt>
      <trkpt lat="28.3754350" lon="-16.4684880">
        <ele>1607.9</ele>
        <time>2020-11-11T13:22:30Z</time>
      </trkpt>
      <trkpt lat="28.3754350" lon="-16.4684880">
        <ele>1607.9</ele>
        <time>2020-11-11T13:22:31Z</time>
      </trkpt>
      <trkpt lat="28.3754420" lon="-16.4685300">
        <ele>1607.9</ele>
        <time>2020-11-11T13:22:32Z</time>
      </trkpt>
      <trkpt lat="28.3754420" lon="-16.4685300">
        <ele>1607.9</ele>
        <time>2020-11-11T13:22:33Z</time>
      </trkpt>
      <trkpt lat="28.3754320" lon="-16.4685630">
        <ele>1607.9</ele>
        <time>2020-11-11T13:22:34Z</time>
      </trkpt>
      <trkpt lat="28.3754320" lon="-16.4685630">
        <ele>1607.9</ele>
        <time>2020-11-11T13:22:35Z</time>
      </trkpt>
      <trkpt lat="28.3754170" lon="-16.4685930">
        <ele>1607.9</ele>
        <time>2020-11-11T13:22:36Z</time>
      </trkpt>
      <trkpt lat="28.3754170" lon="-16.4685930">
        <ele>1607.9</ele>
        <time>2020-11-11T13:22:37Z</time>
      </trkpt>
      <trkpt lat="28.3753950" lon="-16.4686300">
        <ele>1607.9</ele>
        <time>2020-11-11T13:22:38Z</time>
      </trkpt>
      <trkpt lat="28.3753900" lon="-16.4686480">
        <ele>1605.9</ele>
        <time>2020-11-11T13:22:39Z</time>
      </trkpt>
      <trkpt lat="28.3753900" lon="-16.4686480">
        <ele>1605.9</ele>
        <time>2020-11-11T13:22:40Z</time>
      </trkpt>
      <trkpt lat="28.3753930" lon="-16.4686780">
        <ele>1605.9</ele>
        <time>2020-11-11T13:22:41Z</time>
      </trkpt>
      <trkpt lat="28.3753930" lon="-16.4686780">
        <ele>1605.9</ele>
        <time>2020-11-11T13:22:42Z</time>
      </trkpt>
      <trkpt lat="28.3754080" lon="-16.4687100">
        <ele>1605.9</ele>
        <time>2020-11-11T13:22:43Z</time>
      </trkpt>
      <trkpt lat="28.3754080" lon="-16.4687100">
        <ele>1605.9</ele>
        <time>2020-11-11T13:22:44Z</time>
      </trkpt>
      <trkpt lat="28.3754430" lon="-16.4687450">
        <ele>1605.9</ele>
        <time>2020-11-11T13:22:45Z</time>
      </trkpt>
      <trkpt lat="28.3754430" lon="-16.4687450">
        <ele>1605.9</ele>
        <time>2020-11-11T13:22:46Z</time>
      </trkpt>
      <trkpt lat="28.3754850" lon="-16.4687600">
        <ele>1605.9</ele>
        <time>2020-11-11T13:22:47Z</time>
      </trkpt>
      <trkpt lat="28.3754850" lon="-16.4687600">
        <ele>1605.9</ele>
        <time>2020-11-11T13:22:48Z</time>
      </trkpt>
      <trkpt lat="28.3755430" lon="-16.4687770">
        <ele>1605.9</ele>
        <time>2020-11-11T13:22:49Z</time>
      </trkpt>
      <trkpt lat="28.3755430" lon="-16.4687770">
        <ele>1605.9</ele>
        <time>2020-11-11T13:22:50Z</time>
      </trkpt>
      <trkpt lat="28.3756130" lon="-16.4688130">
        <ele>1605.9</ele>
        <time>2020-11-11T13:22:51Z</time>
      </trkpt>
      <trkpt lat="28.3756450" lon="-16.4688330">
        <ele>1605.9</ele>
        <time>2020-11-11T13:22:52Z</time>
      </trkpt>
      <trkpt lat="28.3756450" lon="-16.4688330">
        <ele>1605.9</ele>
        <time>2020-11-11T13:22:53Z</time>
      </trkpt>
      <trkpt lat="28.3757070" lon="-16.4688720">
        <ele>1603.9</ele>
        <time>2020-11-11T13:22:54Z</time>
      </trkpt>
      <trkpt lat="28.3757070" lon="-16.4688720">
        <ele>1603.9</ele>
        <time>2020-11-11T13:22:55Z</time>
      </trkpt>
      <trkpt lat="28.3757650" lon="-16.4689180">
        <ele>1602.9</ele>
        <time>2020-11-11T13:22:56Z</time>
      </trkpt>
      <trkpt lat="28.3757970" lon="-16.4689400">
        <ele>1602.9</ele>
        <time>2020-11-11T13:22:57Z</time>
      </trkpt>
      <trkpt lat="28.3757970" lon="-16.4689400">
        <ele>1602.9</ele>
        <time>2020-11-11T13:22:58Z</time>
      </trkpt>
      <trkpt lat="28.3758500" lon="-16.4689350">
        <ele>1602.9</ele>
        <time>2020-11-11T13:22:59Z</time>
      </trkpt>
      <trkpt lat="28.3758500" lon="-16.4689350">
        <ele>1601.9</ele>
        <time>2020-11-11T13:23:00Z</time>
      </trkpt>
      <trkpt lat="28.3758930" lon="-16.4689980">
        <ele>1601.9</ele>
        <time>2020-11-11T13:23:01Z</time>
      </trkpt>
      <trkpt lat="28.3758930" lon="-16.4689980">
        <ele>1601.9</ele>
        <time>2020-11-11T13:23:02Z</time>
      </trkpt>
      <trkpt lat="28.3759250" lon="-16.4690720">
        <ele>1601.9</ele>
        <time>2020-11-11T13:23:03Z</time>
      </trkpt>
      <trkpt lat="28.3759250" lon="-16.4690720">
        <ele>1599.9</ele>
        <time>2020-11-11T13:23:04Z</time>
      </trkpt>
      <trkpt lat="28.3759420" lon="-16.4691120">
        <ele>1599.9</ele>
        <time>2020-11-11T13:23:05Z</time>
      </trkpt>
      <trkpt lat="28.3759600" lon="-16.4691330">
        <ele>1598.9</ele>
        <time>2020-11-11T13:23:06Z</time>
      </trkpt>
      <trkpt lat="28.3759800" lon="-16.4691480">
        <ele>1598.9</ele>
        <time>2020-11-11T13:23:07Z</time>
      </trkpt>
      <trkpt lat="28.3759800" lon="-16.4691480">
        <ele>1597.9</ele>
        <time>2020-11-11T13:23:08Z</time>
      </trkpt>
      <trkpt lat="28.3760350" lon="-16.4691800">
        <ele>1597.9</ele>
        <time>2020-11-11T13:23:09Z</time>
      </trkpt>
      <trkpt lat="28.3760350" lon="-16.4691800">
        <ele>1597.9</ele>
        <time>2020-11-11T13:23:10Z</time>
      </trkpt>
      <trkpt lat="28.3761050" lon="-16.4692000">
        <ele>1597.9</ele>
        <time>2020-11-11T13:23:11Z</time>
      </trkpt>
      <trkpt lat="28.3761050" lon="-16.4692000">
        <ele>1596.9</ele>
        <time>2020-11-11T13:23:12Z</time>
      </trkpt>
      <trkpt lat="28.3761780" lon="-16.4692220">
        <ele>1596.9</ele>
        <time>2020-11-11T13:23:13Z</time>
      </trkpt>
      <trkpt lat="28.3761780" lon="-16.4692220">
        <ele>1595.9</ele>
        <time>2020-11-11T13:23:14Z</time>
      </trkpt>
      <trkpt lat="28.3762330" lon="-16.4692550">
        <ele>1595.9</ele>
        <time>2020-11-11T13:23:15Z</time>
      </trkpt>
      <trkpt lat="28.3762330" lon="-16.4692550">
        <ele>1595.9</ele>
        <time>2020-11-11T13:23:16Z</time>
      </trkpt>
      <trkpt lat="28.3762880" lon="-16.4692850">
        <ele>1593.9</ele>
        <time>2020-11-11T13:23:17Z</time>
      </trkpt>
      <trkpt lat="28.3762880" lon="-16.4692850">
        <ele>1593.9</ele>
        <time>2020-11-11T13:23:18Z</time>
      </trkpt>
      <trkpt lat="28.3763380" lon="-16.4693000">
        <ele>1593.9</ele>
        <time>2020-11-11T13:23:19Z</time>
      </trkpt>
      <trkpt lat="28.3763380" lon="-16.4693000">
        <ele>1593.9</ele>
        <time>2020-11-11T13:23:20Z</time>
      </trkpt>
      <trkpt lat="28.3763850" lon="-16.4692870">
        <ele>1592.9</ele>
        <time>2020-11-11T13:23:21Z</time>
      </trkpt>
      <trkpt lat="28.3763850" lon="-16.4692870">
        <ele>1592.9</ele>
        <time>2020-11-11T13:23:22Z</time>
      </trkpt>
      <trkpt lat="28.3764220" lon="-16.4692520">
        <ele>1592.9</ele>
        <time>2020-11-11T13:23:23Z</time>
      </trkpt>
      <trkpt lat="28.3764220" lon="-16.4692520">
        <ele>1592.9</ele>
        <time>2020-11-11T13:23:24Z</time>
      </trkpt>
      <trkpt lat="28.3764930" lon="-16.4692570">
        <ele>1591.9</ele>
        <time>2020-11-11T13:23:25Z</time>
      </trkpt>
      <trkpt lat="28.3764930" lon="-16.4692570">
        <ele>1591.9</ele>
        <time>2020-11-11T13:23:26Z</time>
      </trkpt>
      <trkpt lat="28.3765620" lon="-16.4692780">
        <ele>1590.9</ele>
        <time>2020-11-11T13:23:27Z</time>
      </trkpt>
      <trkpt lat="28.3765620" lon="-16.4692780">
        <ele>1590.9</ele>
        <time>2020-11-11T13:23:28Z</time>
      </trkpt>
      <trkpt lat="28.3766330" lon="-16.4693020">
        <ele>1589.9</ele>
        <time>2020-11-11T13:23:29Z</time>
      </trkpt>
      <trkpt lat="28.3766330" lon="-16.4693020">
        <ele>1589.9</ele>
        <time>2020-11-11T13:23:30Z</time>
      </trkpt>
      <trkpt lat="28.3767120" lon="-16.4693430">
        <ele>1588.9</ele>
        <time>2020-11-11T13:23:31Z</time>
      </trkpt>
      <trkpt lat="28.3767120" lon="-16.4693430">
        <ele>1588.9</ele>
        <time>2020-11-11T13:23:32Z</time>
      </trkpt>
      <trkpt lat="28.3767720" lon="-16.4693880">
        <ele>1587.9</ele>
        <time>2020-11-11T13:23:33Z</time>
      </trkpt>
      <trkpt lat="28.3767720" lon="-16.4693880">
        <ele>1587.9</ele>
        <time>2020-11-11T13:23:34Z</time>
      </trkpt>
      <trkpt lat="28.3768130" lon="-16.4694100">
        <ele>1586.9</ele>
        <time>2020-11-11T13:23:35Z</time>
      </trkpt>
      <trkpt lat="28.3768130" lon="-16.4694100">
        <ele>1586.9</ele>
        <time>2020-11-11T13:23:36Z</time>
      </trkpt>
      <trkpt lat="28.3768380" lon="-16.4695030">
        <ele>1586.9</ele>
        <time>2020-11-11T13:23:37Z</time>
      </trkpt>
      <trkpt lat="28.3768380" lon="-16.4695030">
        <ele>1586.9</ele>
        <time>2020-11-11T13:23:38Z</time>
      </trkpt>
      <trkpt lat="28.3768430" lon="-16.4695780">
        <ele>1585.9</ele>
        <time>2020-11-11T13:23:39Z</time>
      </trkpt>
      <trkpt lat="28.3768430" lon="-16.4695780">
        <ele>1585.9</ele>
        <time>2020-11-11T13:23:40Z</time>
      </trkpt>
      <trkpt lat="28.3768450" lon="-16.4696480">
        <ele>1585.9</ele>
        <time>2020-11-11T13:23:41Z</time>
      </trkpt>
      <trkpt lat="28.3768450" lon="-16.4696480">
        <ele>1585.9</ele>
        <time>2020-11-11T13:23:42Z</time>
      </trkpt>
      <trkpt lat="28.3768320" lon="-16.4697070">
        <ele>1585.9</ele>
        <time>2020-11-11T13:23:43Z</time>
      </trkpt>
      <trkpt lat="28.3768320" lon="-16.4697070">
        <ele>1585.9</ele>
        <time>2020-11-11T13:23:44Z</time>
      </trkpt>
      <trkpt lat="28.3768030" lon="-16.4697570">
        <ele>1585.9</ele>
        <time>2020-11-11T13:23:45Z</time>
      </trkpt>
      <trkpt lat="28.3768030" lon="-16.4697570">
        <ele>1585.9</ele>
        <time>2020-11-11T13:23:46Z</time>
      </trkpt>
      <trkpt lat="28.3767870" lon="-16.4698170">
        <ele>1585.9</ele>
        <time>2020-11-11T13:23:47Z</time>
      </trkpt>
      <trkpt lat="28.3767870" lon="-16.4698170">
        <ele>1585.9</ele>
        <time>2020-11-11T13:23:48Z</time>
      </trkpt>
      <trkpt lat="28.3767700" lon="-16.4698580">
        <ele>1585.9</ele>
        <time>2020-11-11T13:23:49Z</time>
      </trkpt>
      <trkpt lat="28.3767700" lon="-16.4698580">
        <ele>1585.9</ele>
        <time>2020-11-11T13:23:50Z</time>
      </trkpt>
      <trkpt lat="28.3767500" lon="-16.4699120">
        <ele>1585.9</ele>
        <time>2020-11-11T13:23:51Z</time>
      </trkpt>
      <trkpt lat="28.3767500" lon="-16.4699120">
        <ele>1585.9</ele>
        <time>2020-11-11T13:23:52Z</time>
      </trkpt>
      <trkpt lat="28.3767220" lon="-16.4699700">
        <ele>1585.9</ele>
        <time>2020-11-11T13:23:53Z</time>
      </trkpt>
      <trkpt lat="28.3767220" lon="-16.4699700">
        <ele>1585.9</ele>
        <time>2020-11-11T13:23:54Z</time>
      </trkpt>
      <trkpt lat="28.3766930" lon="-16.4700280">
        <ele>1585.9</ele>
        <time>2020-11-11T13:23:55Z</time>
      </trkpt>
      <trkpt lat="28.3766930" lon="-16.4700280">
        <ele>1585.9</ele>
        <time>2020-11-11T13:23:56Z</time>
      </trkpt>
      <trkpt lat="28.3767070" lon="-16.4701230">
        <ele>1585.9</ele>
        <time>2020-11-11T13:23:57Z</time>
      </trkpt>
      <trkpt lat="28.3767100" lon="-16.4701670">
        <ele>1585.9</ele>
        <time>2020-11-11T13:23:58Z</time>
      </trkpt>
      <trkpt lat="28.3767100" lon="-16.4701670">
        <ele>1585.9</ele>
        <time>2020-11-11T13:23:59Z</time>
      </trkpt>
      <trkpt lat="28.3767220" lon="-16.4702480">
        <ele>1585.9</ele>
        <time>2020-11-11T13:24:00Z</time>
      </trkpt>
      <trkpt lat="28.3767200" lon="-16.4702970">
        <ele>1585.9</ele>
        <time>2020-11-11T13:24:01Z</time>
      </trkpt>
      <trkpt lat="28.3767200" lon="-16.4702970">
        <ele>1585.9</ele>
        <time>2020-11-11T13:24:02Z</time>
      </trkpt>
      <trkpt lat="28.3767320" lon="-16.4703830">
        <ele>1584.9</ele>
        <time>2020-11-11T13:24:03Z</time>
      </trkpt>
      <trkpt lat="28.3767320" lon="-16.4703830">
        <ele>1584.9</ele>
        <time>2020-11-11T13:24:04Z</time>
      </trkpt>
      <trkpt lat="28.3767680" lon="-16.4704650">
        <ele>1583.9</ele>
        <time>2020-11-11T13:24:05Z</time>
      </trkpt>
      <trkpt lat="28.3767680" lon="-16.4704650">
        <ele>1583.9</ele>
        <time>2020-11-11T13:24:06Z</time>
      </trkpt>
      <trkpt lat="28.3768070" lon="-16.4705350">
        <ele>1583.9</ele>
        <time>2020-11-11T13:24:07Z</time>
      </trkpt>
      <trkpt lat="28.3768070" lon="-16.4705350">
        <ele>1583.9</ele>
        <time>2020-11-11T13:24:08Z</time>
      </trkpt>
      <trkpt lat="28.3768320" lon="-16.4705930">
        <ele>1582.9</ele>
        <time>2020-11-11T13:24:09Z</time>
      </trkpt>
      <trkpt lat="28.3768420" lon="-16.4706150">
        <ele>1582.9</ele>
        <time>2020-11-11T13:24:10Z</time>
      </trkpt>
      <trkpt lat="28.3768420" lon="-16.4706150">
        <ele>1582.9</ele>
        <time>2020-11-11T13:24:11Z</time>
      </trkpt>
      <trkpt lat="28.3768770" lon="-16.4706750">
        <ele>1582.9</ele>
        <time>2020-11-11T13:24:12Z</time>
      </trkpt>
      <trkpt lat="28.3768770" lon="-16.4706750">
        <ele>1581.9</ele>
        <time>2020-11-11T13:24:13Z</time>
      </trkpt>
      <trkpt lat="28.3769030" lon="-16.4707370">
        <ele>1581.9</ele>
        <time>2020-11-11T13:24:14Z</time>
      </trkpt>
      <trkpt lat="28.3769130" lon="-16.4707650">
        <ele>1580.9</ele>
        <time>2020-11-11T13:24:15Z</time>
      </trkpt>
      <trkpt lat="28.3769270" lon="-16.4707970">
        <ele>1580.9</ele>
        <time>2020-11-11T13:24:16Z</time>
      </trkpt>
      <trkpt lat="28.3769270" lon="-16.4707970">
        <ele>1579.9</ele>
        <time>2020-11-11T13:24:17Z</time>
      </trkpt>
      <trkpt lat="28.3769380" lon="-16.4708550">
        <ele>1579.9</ele>
        <time>2020-11-11T13:24:18Z</time>
      </trkpt>
      <trkpt lat="28.3769380" lon="-16.4708850">
        <ele>1579.9</ele>
        <time>2020-11-11T13:24:19Z</time>
      </trkpt>
      <trkpt lat="28.3769380" lon="-16.4708850">
        <ele>1579.9</ele>
        <time>2020-11-11T13:24:20Z</time>
      </trkpt>
      <trkpt lat="28.3769420" lon="-16.4709380">
        <ele>1577.9</ele>
        <time>2020-11-11T13:24:21Z</time>
      </trkpt>
      <trkpt lat="28.3769420" lon="-16.4709380">
        <ele>1577.9</ele>
        <time>2020-11-11T13:24:22Z</time>
      </trkpt>
      <trkpt lat="28.3769520" lon="-16.4709850">
        <ele>1576.9</ele>
        <time>2020-11-11T13:24:23Z</time>
      </trkpt>
      <trkpt lat="28.3769520" lon="-16.4709850">
        <ele>1576.9</ele>
        <time>2020-11-11T13:24:24Z</time>
      </trkpt>
      <trkpt lat="28.3769770" lon="-16.4710370">
        <ele>1575.9</ele>
        <time>2020-11-11T13:24:25Z</time>
      </trkpt>
      <trkpt lat="28.3769770" lon="-16.4710370">
        <ele>1575.9</ele>
        <time>2020-11-11T13:24:26Z</time>
      </trkpt>
      <trkpt lat="28.3770220" lon="-16.4710780">
        <ele>1575.9</ele>
        <time>2020-11-11T13:24:27Z</time>
      </trkpt>
      <trkpt lat="28.3770220" lon="-16.4710780">
        <ele>1575.9</ele>
        <time>2020-11-11T13:24:28Z</time>
      </trkpt>
      <trkpt lat="28.3770580" lon="-16.4711080">
        <ele>1574.9</ele>
        <time>2020-11-11T13:24:29Z</time>
      </trkpt>
      <trkpt lat="28.3770580" lon="-16.4711080">
        <ele>1574.9</ele>
        <time>2020-11-11T13:24:30Z</time>
      </trkpt>
      <trkpt lat="28.3770950" lon="-16.4711500">
        <ele>1574.9</ele>
        <time>2020-11-11T13:24:31Z</time>
      </trkpt>
      <trkpt lat="28.3770950" lon="-16.4711500">
        <ele>1574.9</ele>
        <time>2020-11-11T13:24:32Z</time>
      </trkpt>
      <trkpt lat="28.3771480" lon="-16.4711970">
        <ele>1574.9</ele>
        <time>2020-11-11T13:24:33Z</time>
      </trkpt>
      <trkpt lat="28.3771480" lon="-16.4711970">
        <ele>1574.9</ele>
        <time>2020-11-11T13:24:34Z</time>
      </trkpt>
      <trkpt lat="28.3771870" lon="-16.4712450">
        <ele>1574.9</ele>
        <time>2020-11-11T13:24:35Z</time>
      </trkpt>
      <trkpt lat="28.3771870" lon="-16.4712450">
        <ele>1574.9</ele>
        <time>2020-11-11T13:24:36Z</time>
      </trkpt>
      <trkpt lat="28.3772120" lon="-16.4712920">
        <ele>1574.9</ele>
        <time>2020-11-11T13:24:37Z</time>
      </trkpt>
      <trkpt lat="28.3772120" lon="-16.4712920">
        <ele>1572.9</ele>
        <time>2020-11-11T13:24:38Z</time>
      </trkpt>
      <trkpt lat="28.3772430" lon="-16.4713330">
        <ele>1572.9</ele>
        <time>2020-11-11T13:24:39Z</time>
      </trkpt>
      <trkpt lat="28.3772430" lon="-16.4713330">
        <ele>1572.9</ele>
        <time>2020-11-11T13:24:40Z</time>
      </trkpt>
      <trkpt lat="28.3772680" lon="-16.4713750">
        <ele>1572.9</ele>
        <time>2020-11-11T13:24:41Z</time>
      </trkpt>
      <trkpt lat="28.3772680" lon="-16.4713750">
        <ele>1572.9</ele>
        <time>2020-11-11T13:24:42Z</time>
      </trkpt>
      <trkpt lat="28.3772850" lon="-16.4714070">
        <ele>1572.9</ele>
        <time>2020-11-11T13:24:43Z</time>
      </trkpt>
      <trkpt lat="28.3772850" lon="-16.4714070">
        <ele>1572.9</ele>
        <time>2020-11-11T13:24:44Z</time>
      </trkpt>
      <trkpt lat="28.3773200" lon="-16.4714400">
        <ele>1572.9</ele>
        <time>2020-11-11T13:24:45Z</time>
      </trkpt>
      <trkpt lat="28.3773200" lon="-16.4714400">
        <ele>1572.9</ele>
        <time>2020-11-11T13:24:46Z</time>
      </trkpt>
      <trkpt lat="28.3773480" lon="-16.4714730">
        <ele>1572.9</ele>
        <time>2020-11-11T13:24:47Z</time>
      </trkpt>
      <trkpt lat="28.3773530" lon="-16.4715020">
        <ele>1572.9</ele>
        <time>2020-11-11T13:24:48Z</time>
      </trkpt>
      <trkpt lat="28.3773530" lon="-16.4715020">
        <ele>1572.9</ele>
        <time>2020-11-11T13:24:49Z</time>
      </trkpt>
      <trkpt lat="28.3773470" lon="-16.4715600">
        <ele>1571.9</ele>
        <time>2020-11-11T13:24:50Z</time>
      </trkpt>
      <trkpt lat="28.3773470" lon="-16.4715600">
        <ele>1571.9</ele>
        <time>2020-11-11T13:24:51Z</time>
      </trkpt>
      <trkpt lat="28.3773430" lon="-16.4716250">
        <ele>1571.9</ele>
        <time>2020-11-11T13:24:52Z</time>
      </trkpt>
      <trkpt lat="28.3773520" lon="-16.4716570">
        <ele>1571.9</ele>
        <time>2020-11-11T13:24:53Z</time>
      </trkpt>
      <trkpt lat="28.3773520" lon="-16.4716570">
        <ele>1571.9</ele>
        <time>2020-11-11T13:24:54Z</time>
      </trkpt>
      <trkpt lat="28.3773930" lon="-16.4717080">
        <ele>1571.9</ele>
        <time>2020-11-11T13:24:55Z</time>
      </trkpt>
      <trkpt lat="28.3773930" lon="-16.4717080">
        <ele>1570.9</ele>
        <time>2020-11-11T13:24:56Z</time>
      </trkpt>
      <trkpt lat="28.3774450" lon="-16.4717430">
        <ele>1570.9</ele>
        <time>2020-11-11T13:24:57Z</time>
      </trkpt>
      <trkpt lat="28.3774450" lon="-16.4717430">
        <ele>1570.9</ele>
        <time>2020-11-11T13:24:58Z</time>
      </trkpt>
      <trkpt lat="28.3775120" lon="-16.4717870">
        <ele>1570.9</ele>
        <time>2020-11-11T13:24:59Z</time>
      </trkpt>
      <trkpt lat="28.3775380" lon="-16.4718070">
        <ele>1569.9</ele>
        <time>2020-11-11T13:25:00Z</time>
      </trkpt>
      <trkpt lat="28.3775720" lon="-16.4718320">
        <ele>1569.9</ele>
        <time>2020-11-11T13:25:01Z</time>
      </trkpt>
      <trkpt lat="28.3775720" lon="-16.4718320">
        <ele>1569.9</ele>
        <time>2020-11-11T13:25:02Z</time>
      </trkpt>
      <trkpt lat="28.3776700" lon="-16.4719120">
        <ele>1569.9</ele>
        <time>2020-11-11T13:25:03Z</time>
      </trkpt>
      <trkpt lat="28.3776700" lon="-16.4719120">
        <ele>1568.9</ele>
        <time>2020-11-11T13:25:04Z</time>
      </trkpt>
      <trkpt lat="28.3777380" lon="-16.4719830">
        <ele>1568.9</ele>
        <time>2020-11-11T13:25:05Z</time>
      </trkpt>
      <trkpt lat="28.3777380" lon="-16.4719830">
        <ele>1568.9</ele>
        <time>2020-11-11T13:25:06Z</time>
      </trkpt>
      <trkpt lat="28.3777970" lon="-16.4720130">
        <ele>1567.9</ele>
        <time>2020-11-11T13:25:07Z</time>
      </trkpt>
      <trkpt lat="28.3778220" lon="-16.4720200">
        <ele>1567.9</ele>
        <time>2020-11-11T13:25:08Z</time>
      </trkpt>
      <trkpt lat="28.3778220" lon="-16.4720200">
        <ele>1567.9</ele>
        <time>2020-11-11T13:25:09Z</time>
      </trkpt>
      <trkpt lat="28.3778750" lon="-16.4720270">
        <ele>1567.9</ele>
        <time>2020-11-11T13:25:10Z</time>
      </trkpt>
      <trkpt lat="28.3778980" lon="-16.4720330">
        <ele>1566.9</ele>
        <time>2020-11-11T13:25:11Z</time>
      </trkpt>
      <trkpt lat="28.3778980" lon="-16.4720330">
        <ele>1566.9</ele>
        <time>2020-11-11T13:25:12Z</time>
      </trkpt>
      <trkpt lat="28.3779530" lon="-16.4720580">
        <ele>1566.9</ele>
        <time>2020-11-11T13:25:13Z</time>
      </trkpt>
      <trkpt lat="28.3779530" lon="-16.4720580">
        <ele>1566.9</ele>
        <time>2020-11-11T13:25:14Z</time>
      </trkpt>
      <trkpt lat="28.3780070" lon="-16.4720980">
        <ele>1565.9</ele>
        <time>2020-11-11T13:25:15Z</time>
      </trkpt>
      <trkpt lat="28.3780280" lon="-16.4721230">
        <ele>1565.9</ele>
        <time>2020-11-11T13:25:16Z</time>
      </trkpt>
      <trkpt lat="28.3780280" lon="-16.4721230">
        <ele>1565.9</ele>
        <time>2020-11-11T13:25:17Z</time>
      </trkpt>
      <trkpt lat="28.3780700" lon="-16.4721770">
        <ele>1565.9</ele>
        <time>2020-11-11T13:25:18Z</time>
      </trkpt>
      <trkpt lat="28.3780700" lon="-16.4721770">
        <ele>1564.9</ele>
        <time>2020-11-11T13:25:19Z</time>
      </trkpt>
      <trkpt lat="28.3781130" lon="-16.4722130">
        <ele>1564.9</ele>
        <time>2020-11-11T13:25:20Z</time>
      </trkpt>
      <trkpt lat="28.3781130" lon="-16.4722130">
        <ele>1564.9</ele>
        <time>2020-11-11T13:25:21Z</time>
      </trkpt>
      <trkpt lat="28.3781620" lon="-16.4722230">
        <ele>1564.9</ele>
        <time>2020-11-11T13:25:22Z</time>
      </trkpt>
      <trkpt lat="28.3781620" lon="-16.4722230">
        <ele>1563.9</ele>
        <time>2020-11-11T13:25:23Z</time>
      </trkpt>
      <trkpt lat="28.3782220" lon="-16.4722220">
        <ele>1563.9</ele>
        <time>2020-11-11T13:25:24Z</time>
      </trkpt>
      <trkpt lat="28.3782600" lon="-16.4722270">
        <ele>1563.9</ele>
        <time>2020-11-11T13:25:25Z</time>
      </trkpt>
      <trkpt lat="28.3782600" lon="-16.4722270">
        <ele>1563.9</ele>
        <time>2020-11-11T13:25:26Z</time>
      </trkpt>
      <trkpt lat="28.3783180" lon="-16.4722530">
        <ele>1562.9</ele>
        <time>2020-11-11T13:25:27Z</time>
      </trkpt>
      <trkpt lat="28.3783180" lon="-16.4722530">
        <ele>1562.9</ele>
        <time>2020-11-11T13:25:28Z</time>
      </trkpt>
      <trkpt lat="28.3783630" lon="-16.4723020">
        <ele>1562.9</ele>
        <time>2020-11-11T13:25:29Z</time>
      </trkpt>
      <trkpt lat="28.3783630" lon="-16.4723020">
        <ele>1562.9</ele>
        <time>2020-11-11T13:25:30Z</time>
      </trkpt>
      <trkpt lat="28.3783900" lon="-16.4723430">
        <ele>1561.9</ele>
        <time>2020-11-11T13:25:31Z</time>
      </trkpt>
      <trkpt lat="28.3783900" lon="-16.4723430">
        <ele>1561.9</ele>
        <time>2020-11-11T13:25:32Z</time>
      </trkpt>
      <trkpt lat="28.3784220" lon="-16.4723830">
        <ele>1561.9</ele>
        <time>2020-11-11T13:25:33Z</time>
      </trkpt>
      <trkpt lat="28.3784470" lon="-16.4724070">
        <ele>1561.9</ele>
        <time>2020-11-11T13:25:34Z</time>
      </trkpt>
      <trkpt lat="28.3784470" lon="-16.4724070">
        <ele>1560.9</ele>
        <time>2020-11-11T13:25:35Z</time>
      </trkpt>
      <trkpt lat="28.3784880" lon="-16.4724430">
        <ele>1560.9</ele>
        <time>2020-11-11T13:25:36Z</time>
      </trkpt>
      <trkpt lat="28.3784880" lon="-16.4724430">
        <ele>1560.9</ele>
        <time>2020-11-11T13:25:37Z</time>
      </trkpt>
      <trkpt lat="28.3785370" lon="-16.4724570">
        <ele>1560.9</ele>
        <time>2020-11-11T13:25:38Z</time>
      </trkpt>
      <trkpt lat="28.3785370" lon="-16.4724570">
        <ele>1559.9</ele>
        <time>2020-11-11T13:25:39Z</time>
      </trkpt>
      <trkpt lat="28.3785850" lon="-16.4724700">
        <ele>1559.9</ele>
        <time>2020-11-11T13:25:40Z</time>
      </trkpt>
      <trkpt lat="28.3785850" lon="-16.4724700">
        <ele>1559.9</ele>
        <time>2020-11-11T13:25:41Z</time>
      </trkpt>
      <trkpt lat="28.3786500" lon="-16.4724720">
        <ele>1559.9</ele>
        <time>2020-11-11T13:25:42Z</time>
      </trkpt>
      <trkpt lat="28.3786780" lon="-16.4724670">
        <ele>1559.9</ele>
        <time>2020-11-11T13:25:43Z</time>
      </trkpt>
      <trkpt lat="28.3786780" lon="-16.4724670">
        <ele>1558.9</ele>
        <time>2020-11-11T13:25:44Z</time>
      </trkpt>
      <trkpt lat="28.3787120" lon="-16.4724520">
        <ele>1558.9</ele>
        <time>2020-11-11T13:25:45Z</time>
      </trkpt>
      <trkpt lat="28.3787120" lon="-16.4724520">
        <ele>1558.9</ele>
        <time>2020-11-11T13:25:46Z</time>
      </trkpt>
      <trkpt lat="28.3787480" lon="-16.4724400">
        <ele>1557.9</ele>
        <time>2020-11-11T13:25:47Z</time>
      </trkpt>
      <trkpt lat="28.3787700" lon="-16.4724400">
        <ele>1557.9</ele>
        <time>2020-11-11T13:25:48Z</time>
      </trkpt>
      <trkpt lat="28.3787880" lon="-16.4724430">
        <ele>1557.9</ele>
        <time>2020-11-11T13:25:49Z</time>
      </trkpt>
      <trkpt lat="28.3787880" lon="-16.4724430">
        <ele>1557.9</ele>
        <time>2020-11-11T13:25:50Z</time>
      </trkpt>
      <trkpt lat="28.3788370" lon="-16.4724680">
        <ele>1556.9</ele>
        <time>2020-11-11T13:25:51Z</time>
      </trkpt>
      <trkpt lat="28.3788370" lon="-16.4724680">
        <ele>1556.9</ele>
        <time>2020-11-11T13:25:52Z</time>
      </trkpt>
      <trkpt lat="28.3788870" lon="-16.4725050">
        <ele>1556.9</ele>
        <time>2020-11-11T13:25:53Z</time>
      </trkpt>
      <trkpt lat="28.3788870" lon="-16.4725050">
        <ele>1556.9</ele>
        <time>2020-11-11T13:25:54Z</time>
      </trkpt>
      <trkpt lat="28.3789280" lon="-16.4725430">
        <ele>1556.9</ele>
        <time>2020-11-11T13:25:55Z</time>
      </trkpt>
      <trkpt lat="28.3789280" lon="-16.4725430">
        <ele>1555.9</ele>
        <time>2020-11-11T13:25:56Z</time>
      </trkpt>
      <trkpt lat="28.3789680" lon="-16.4725850">
        <ele>1555.9</ele>
        <time>2020-11-11T13:25:57Z</time>
      </trkpt>
      <trkpt lat="28.3789680" lon="-16.4725850">
        <ele>1555.9</ele>
        <time>2020-11-11T13:25:58Z</time>
      </trkpt>
      <trkpt lat="28.3790050" lon="-16.4726220">
        <ele>1554.9</ele>
        <time>2020-11-11T13:25:59Z</time>
      </trkpt>
      <trkpt lat="28.3790050" lon="-16.4726220">
        <ele>1554.9</ele>
        <time>2020-11-11T13:26:00Z</time>
      </trkpt>
      <trkpt lat="28.3790520" lon="-16.4726600">
        <ele>1554.9</ele>
        <time>2020-11-11T13:26:01Z</time>
      </trkpt>
      <trkpt lat="28.3790520" lon="-16.4726600">
        <ele>1554.9</ele>
        <time>2020-11-11T13:26:02Z</time>
      </trkpt>
      <trkpt lat="28.3790850" lon="-16.4727080">
        <ele>1553.9</ele>
        <time>2020-11-11T13:26:03Z</time>
      </trkpt>
      <trkpt lat="28.3791020" lon="-16.4727320">
        <ele>1553.9</ele>
        <time>2020-11-11T13:26:04Z</time>
      </trkpt>
      <trkpt lat="28.3791020" lon="-16.4727320">
        <ele>1552.9</ele>
        <time>2020-11-11T13:26:05Z</time>
      </trkpt>
      <trkpt lat="28.3791330" lon="-16.4727650">
        <ele>1552.9</ele>
        <time>2020-11-11T13:26:06Z</time>
      </trkpt>
      <trkpt lat="28.3791500" lon="-16.4727850">
        <ele>1551.9</ele>
        <time>2020-11-11T13:26:07Z</time>
      </trkpt>
      <trkpt lat="28.3791500" lon="-16.4727850">
        <ele>1551.9</ele>
        <time>2020-11-11T13:26:08Z</time>
      </trkpt>
      <trkpt lat="28.3791870" lon="-16.4728270">
        <ele>1551.9</ele>
        <time>2020-11-11T13:26:09Z</time>
      </trkpt>
      <trkpt lat="28.3791870" lon="-16.4728270">
        <ele>1551.9</ele>
        <time>2020-11-11T13:26:10Z</time>
      </trkpt>
      <trkpt lat="28.3792500" lon="-16.4728830">
        <ele>1550.9</ele>
        <time>2020-11-11T13:26:11Z</time>
      </trkpt>
      <trkpt lat="28.3792800" lon="-16.4729120">
        <ele>1550.9</ele>
        <time>2020-11-11T13:26:12Z</time>
      </trkpt>
      <trkpt lat="28.3793080" lon="-16.4729380">
        <ele>1549.9</ele>
        <time>2020-11-11T13:26:13Z</time>
      </trkpt>
      <trkpt lat="28.3793080" lon="-16.4729380">
        <ele>1549.9</ele>
        <time>2020-11-11T13:26:14Z</time>
      </trkpt>
      <trkpt lat="28.3793580" lon="-16.4729750">
        <ele>1548.9</ele>
        <time>2020-11-11T13:26:15Z</time>
      </trkpt>
      <trkpt lat="28.3793580" lon="-16.4729750">
        <ele>1548.9</ele>
        <time>2020-11-11T13:26:16Z</time>
      </trkpt>
      <trkpt lat="28.3794220" lon="-16.4730320">
        <ele>1548.9</ele>
        <time>2020-11-11T13:26:17Z</time>
      </trkpt>
      <trkpt lat="28.3794580" lon="-16.4730550">
        <ele>1548.9</ele>
        <time>2020-11-11T13:26:18Z</time>
      </trkpt>
      <trkpt lat="28.3794580" lon="-16.4730550">
        <ele>1548.9</ele>
        <time>2020-11-11T13:26:19Z</time>
      </trkpt>
      <trkpt lat="28.3795280" lon="-16.4730920">
        <ele>1547.9</ele>
        <time>2020-11-11T13:26:20Z</time>
      </trkpt>
      <trkpt lat="28.3795280" lon="-16.4730920">
        <ele>1547.9</ele>
        <time>2020-11-11T13:26:21Z</time>
      </trkpt>
      <trkpt lat="28.3795980" lon="-16.4731250">
        <ele>1547.9</ele>
        <time>2020-11-11T13:26:22Z</time>
      </trkpt>
      <trkpt lat="28.3795980" lon="-16.4731250">
        <ele>1547.9</ele>
        <time>2020-11-11T13:26:23Z</time>
      </trkpt>
      <trkpt lat="28.3796480" lon="-16.4731620">
        <ele>1546.9</ele>
        <time>2020-11-11T13:26:24Z</time>
      </trkpt>
      <trkpt lat="28.3796800" lon="-16.4731880">
        <ele>1546.9</ele>
        <time>2020-11-11T13:26:25Z</time>
      </trkpt>
      <trkpt lat="28.3797030" lon="-16.4732120">
        <ele>1546.9</ele>
        <time>2020-11-11T13:26:26Z</time>
      </trkpt>
      <trkpt lat="28.3797030" lon="-16.4732120">
        <ele>1546.9</ele>
        <time>2020-11-11T13:26:27Z</time>
      </trkpt>
      <trkpt lat="28.3797300" lon="-16.4732800">
        <ele>1545.9</ele>
        <time>2020-11-11T13:26:28Z</time>
      </trkpt>
      <trkpt lat="28.3797300" lon="-16.4732800">
        <ele>1545.9</ele>
        <time>2020-11-11T13:26:29Z</time>
      </trkpt>
      <trkpt lat="28.3797180" lon="-16.4733430">
        <ele>1545.9</ele>
        <time>2020-11-11T13:26:30Z</time>
      </trkpt>
      <trkpt lat="28.3797020" lon="-16.4733730">
        <ele>1545.9</ele>
        <time>2020-11-11T13:26:31Z</time>
      </trkpt>
      <trkpt lat="28.3797020" lon="-16.4733730">
        <ele>1545.9</ele>
        <time>2020-11-11T13:26:32Z</time>
      </trkpt>
      <trkpt lat="28.3796550" lon="-16.4734280">
        <ele>1545.9</ele>
        <time>2020-11-11T13:26:33Z</time>
      </trkpt>
      <trkpt lat="28.3796270" lon="-16.4734550">
        <ele>1544.9</ele>
        <time>2020-11-11T13:26:34Z</time>
      </trkpt>
      <trkpt lat="28.3796270" lon="-16.4734550">
        <ele>1544.9</ele>
        <time>2020-11-11T13:26:35Z</time>
      </trkpt>
      <trkpt lat="28.3795830" lon="-16.4735100">
        <ele>1544.9</ele>
        <time>2020-11-11T13:26:36Z</time>
      </trkpt>
      <trkpt lat="28.3795830" lon="-16.4735100">
        <ele>1544.9</ele>
        <time>2020-11-11T13:26:37Z</time>
      </trkpt>
      <trkpt lat="28.3795330" lon="-16.4735780">
        <ele>1543.9</ele>
        <time>2020-11-11T13:26:38Z</time>
      </trkpt>
      <trkpt lat="28.3795330" lon="-16.4735780">
        <ele>1543.9</ele>
        <time>2020-11-11T13:26:39Z</time>
      </trkpt>
      <trkpt lat="28.3795280" lon="-16.4736450">
        <ele>1543.9</ele>
        <time>2020-11-11T13:26:40Z</time>
      </trkpt>
      <trkpt lat="28.3795280" lon="-16.4736450">
        <ele>1543.9</ele>
        <time>2020-11-11T13:26:41Z</time>
      </trkpt>
      <trkpt lat="28.3795570" lon="-16.4737050">
        <ele>1542.9</ele>
        <time>2020-11-11T13:26:42Z</time>
      </trkpt>
      <trkpt lat="28.3795830" lon="-16.4737380">
        <ele>1542.9</ele>
        <time>2020-11-11T13:26:43Z</time>
      </trkpt>
      <trkpt lat="28.3795830" lon="-16.4737380">
        <ele>1542.9</ele>
        <time>2020-11-11T13:26:44Z</time>
      </trkpt>
      <trkpt lat="28.3796320" lon="-16.4737970">
        <ele>1542.9</ele>
        <time>2020-11-11T13:26:45Z</time>
      </trkpt>
      <trkpt lat="28.3796320" lon="-16.4737970">
        <ele>1542.9</ele>
        <time>2020-11-11T13:26:46Z</time>
      </trkpt>
      <trkpt lat="28.3796730" lon="-16.4738520">
        <ele>1542.9</ele>
        <time>2020-11-11T13:26:47Z</time>
      </trkpt>
      <trkpt lat="28.3796930" lon="-16.4738820">
        <ele>1541.9</ele>
        <time>2020-11-11T13:26:48Z</time>
      </trkpt>
      <trkpt lat="28.3797150" lon="-16.4739120">
        <ele>1541.9</ele>
        <time>2020-11-11T13:26:49Z</time>
      </trkpt>
      <trkpt lat="28.3797150" lon="-16.4739120">
        <ele>1540.9</ele>
        <time>2020-11-11T13:26:50Z</time>
      </trkpt>
      <trkpt lat="28.3797550" lon="-16.4739830">
        <ele>1540.9</ele>
        <time>2020-11-11T13:26:51Z</time>
      </trkpt>
      <trkpt lat="28.3797550" lon="-16.4739830">
        <ele>1540.9</ele>
        <time>2020-11-11T13:26:52Z</time>
      </trkpt>
      <trkpt lat="28.3797650" lon="-16.4740620">
        <ele>1540.9</ele>
        <time>2020-11-11T13:26:53Z</time>
      </trkpt>
      <trkpt lat="28.3797650" lon="-16.4740620">
        <ele>1539.9</ele>
        <time>2020-11-11T13:26:54Z</time>
      </trkpt>
      <trkpt lat="28.3797430" lon="-16.4741330">
        <ele>1539.9</ele>
        <time>2020-11-11T13:26:55Z</time>
      </trkpt>
      <trkpt lat="28.3797430" lon="-16.4741330">
        <ele>1538.9</ele>
        <time>2020-11-11T13:26:56Z</time>
      </trkpt>
      <trkpt lat="28.3797250" lon="-16.4741950">
        <ele>1538.9</ele>
        <time>2020-11-11T13:26:57Z</time>
      </trkpt>
      <trkpt lat="28.3797250" lon="-16.4741950">
        <ele>1538.9</ele>
        <time>2020-11-11T13:26:58Z</time>
      </trkpt>
      <trkpt lat="28.3797080" lon="-16.4742530">
        <ele>1537.9</ele>
        <time>2020-11-11T13:26:59Z</time>
      </trkpt>
      <trkpt lat="28.3797080" lon="-16.4742530">
        <ele>1537.9</ele>
        <time>2020-11-11T13:27:00Z</time>
      </trkpt>
      <trkpt lat="28.3796820" lon="-16.4743230">
        <ele>1537.9</ele>
        <time>2020-11-11T13:27:01Z</time>
      </trkpt>
      <trkpt lat="28.3796820" lon="-16.4743230">
        <ele>1537.9</ele>
        <time>2020-11-11T13:27:02Z</time>
      </trkpt>
      <trkpt lat="28.3796670" lon="-16.4743870">
        <ele>1536.9</ele>
        <time>2020-11-11T13:27:03Z</time>
      </trkpt>
      <trkpt lat="28.3796670" lon="-16.4743870">
        <ele>1536.9</ele>
        <time>2020-11-11T13:27:04Z</time>
      </trkpt>
      <trkpt lat="28.3796470" lon="-16.4744420">
        <ele>1535.9</ele>
        <time>2020-11-11T13:27:05Z</time>
      </trkpt>
      <trkpt lat="28.3796470" lon="-16.4744420">
        <ele>1535.9</ele>
        <time>2020-11-11T13:27:06Z</time>
      </trkpt>
      <trkpt lat="28.3796320" lon="-16.4745430">
        <ele>1535.9</ele>
        <time>2020-11-11T13:27:07Z</time>
      </trkpt>
      <trkpt lat="28.3796320" lon="-16.4745430">
        <ele>1535.9</ele>
        <time>2020-11-11T13:27:08Z</time>
      </trkpt>
      <trkpt lat="28.3796070" lon="-16.4746570">
        <ele>1534.9</ele>
        <time>2020-11-11T13:27:09Z</time>
      </trkpt>
      <trkpt lat="28.3796070" lon="-16.4746570">
        <ele>1534.9</ele>
        <time>2020-11-11T13:27:10Z</time>
      </trkpt>
      <trkpt lat="28.3795700" lon="-16.4747770">
        <ele>1533.9</ele>
        <time>2020-11-11T13:27:11Z</time>
      </trkpt>
      <trkpt lat="28.3795700" lon="-16.4747770">
        <ele>1533.9</ele>
        <time>2020-11-11T13:27:12Z</time>
      </trkpt>
      <trkpt lat="28.3795580" lon="-16.4748650">
        <ele>1533.9</ele>
        <time>2020-11-11T13:27:13Z</time>
      </trkpt>
      <trkpt lat="28.3795580" lon="-16.4748650">
        <ele>1533.9</ele>
        <time>2020-11-11T13:27:14Z</time>
      </trkpt>
      <trkpt lat="28.3795500" lon="-16.4749270">
        <ele>1533.9</ele>
        <time>2020-11-11T13:27:15Z</time>
      </trkpt>
      <trkpt lat="28.3795500" lon="-16.4749270">
        <ele>1533.9</ele>
        <time>2020-11-11T13:27:16Z</time>
      </trkpt>
      <trkpt lat="28.3795520" lon="-16.4749720">
        <ele>1533.9</ele>
        <time>2020-11-11T13:27:17Z</time>
      </trkpt>
      <trkpt lat="28.3795530" lon="-16.4749930">
        <ele>1533.9</ele>
        <time>2020-11-11T13:27:18Z</time>
      </trkpt>
      <trkpt lat="28.3795550" lon="-16.4750130">
        <ele>1533.9</ele>
        <time>2020-11-11T13:27:19Z</time>
      </trkpt>
      <trkpt lat="28.3795550" lon="-16.4750130">
        <ele>1533.9</ele>
        <time>2020-11-11T13:27:20Z</time>
      </trkpt>
      <trkpt lat="28.3795530" lon="-16.4750520">
        <ele>1534.9</ele>
        <time>2020-11-11T13:27:21Z</time>
      </trkpt>
      <trkpt lat="28.3795530" lon="-16.4750520">
        <ele>1534.9</ele>
        <time>2020-11-11T13:27:22Z</time>
      </trkpt>
      <trkpt lat="28.3795550" lon="-16.4750930">
        <ele>1534.9</ele>
        <time>2020-11-11T13:27:23Z</time>
      </trkpt>
      <trkpt lat="28.3795550" lon="-16.4750930">
        <ele>1534.9</ele>
        <time>2020-11-11T13:27:24Z</time>
      </trkpt>
      <trkpt lat="28.3795880" lon="-16.4751550">
        <ele>1534.9</ele>
        <time>2020-11-11T13:27:25Z</time>
      </trkpt>
      <trkpt lat="28.3795880" lon="-16.4751550">
        <ele>1534.9</ele>
        <time>2020-11-11T13:27:26Z</time>
      </trkpt>
      <trkpt lat="28.3795580" lon="-16.4751850">
        <ele>1534.9</ele>
        <time>2020-11-11T13:27:27Z</time>
      </trkpt>
      <trkpt lat="28.3795580" lon="-16.4751850">
        <ele>1535.9</ele>
        <time>2020-11-11T13:27:28Z</time>
      </trkpt>
      <trkpt lat="28.3795170" lon="-16.4752070">
        <ele>1535.9</ele>
        <time>2020-11-11T13:27:29Z</time>
      </trkpt>
      <trkpt lat="28.3794980" lon="-16.4752130">
        <ele>1535.9</ele>
        <time>2020-11-11T13:27:30Z</time>
      </trkpt>
      <trkpt lat="28.3794720" lon="-16.4752170">
        <ele>1535.9</ele>
        <time>2020-11-11T13:27:31Z</time>
      </trkpt>
      <trkpt lat="28.3794720" lon="-16.4752170">
        <ele>1536.9</ele>
        <time>2020-11-11T13:27:32Z</time>
      </trkpt>
      <trkpt lat="28.3794330" lon="-16.4752120">
        <ele>1536.9</ele>
        <time>2020-11-11T13:27:33Z</time>
      </trkpt>
      <trkpt lat="28.3794330" lon="-16.4752120">
        <ele>1536.9</ele>
        <time>2020-11-11T13:27:34Z</time>
      </trkpt>
      <trkpt lat="28.3794030" lon="-16.4752070">
        <ele>1536.9</ele>
        <time>2020-11-11T13:27:35Z</time>
      </trkpt>
      <trkpt lat="28.3794030" lon="-16.4752070">
        <ele>1536.9</ele>
        <time>2020-11-11T13:27:36Z</time>
      </trkpt>
      <trkpt lat="28.3794050" lon="-16.4752070">
        <ele>1537.9</ele>
        <time>2020-11-11T13:27:37Z</time>
      </trkpt>
      <trkpt lat="28.3794050" lon="-16.4752070">
        <ele>1537.9</ele>
        <time>2020-11-11T13:27:38Z</time>
      </trkpt>
      <trkpt lat="28.3794050" lon="-16.4752070">
        <ele>1537.9</ele>
        <time>2020-11-11T13:28:05Z</time>
      </trkpt>
      <trkpt lat="28.3794400" lon="-16.4751980">
        <ele>1537.9</ele>
        <time>2020-11-11T13:28:06Z</time>
      </trkpt>
      <trkpt lat="28.3794400" lon="-16.4751980">
        <ele>1537.9</ele>
        <time>2020-11-11T13:28:07Z</time>
      </trkpt>
      <trkpt lat="28.3794420" lon="-16.4752200">
        <ele>1537.9</ele>
        <time>2020-11-11T13:28:08Z</time>
      </trkpt>
      <trkpt lat="28.3794420" lon="-16.4752200">
        <ele>1537.9</ele>
        <time>2020-11-11T13:28:09Z</time>
      </trkpt>
      <trkpt lat="28.3794330" lon="-16.4752480">
        <ele>1537.9</ele>
        <time>2020-11-11T13:28:10Z</time>
      </trkpt>
      <trkpt lat="28.3794330" lon="-16.4752480">
        <ele>1537.9</ele>
        <time>2020-11-11T13:28:11Z</time>
      </trkpt>
      <trkpt lat="28.3794250" lon="-16.4752600">
        <ele>1537.9</ele>
        <time>2020-11-11T13:28:12Z</time>
      </trkpt>
      <trkpt lat="28.3794250" lon="-16.4752600">
        <ele>1537.9</ele>
        <time>2020-11-11T13:30:40Z</time>
      </trkpt>
      <trkpt lat="28.3794250" lon="-16.4752600">
        <ele>1537.9</ele>
        <time>2020-11-11T13:30:50Z</time>
      </trkpt>
      <trkpt lat="28.3794250" lon="-16.4752600">
        <ele>1537.9</ele>
        <time>2020-11-11T13:30:51Z</time>
      </trkpt>
      <trkpt lat="28.3793850" lon="-16.4751820">
        <ele>1537.9</ele>
        <time>2020-11-11T13:30:52Z</time>
      </trkpt>
      <trkpt lat="28.3793850" lon="-16.4751820">
        <ele>1538.9</ele>
        <time>2020-11-11T13:30:53Z</time>
      </trkpt>
      <trkpt lat="28.3793530" lon="-16.4751780">
        <ele>1538.9</ele>
        <time>2020-11-11T13:30:54Z</time>
      </trkpt>
      <trkpt lat="28.3793530" lon="-16.4751780">
        <ele>1538.9</ele>
        <time>2020-11-11T13:30:55Z</time>
      </trkpt>
      <trkpt lat="28.3793270" lon="-16.4751800">
        <ele>1538.9</ele>
        <time>2020-11-11T13:30:56Z</time>
      </trkpt>
      <trkpt lat="28.3793270" lon="-16.4751800">
        <ele>1538.9</ele>
        <time>2020-11-11T13:30:57Z</time>
      </trkpt>
      <trkpt lat="28.3792920" lon="-16.4751650">
        <ele>1538.9</ele>
        <time>2020-11-11T13:30:58Z</time>
      </trkpt>
      <trkpt lat="28.3792920" lon="-16.4751650">
        <ele>1539.9</ele>
        <time>2020-11-11T13:30:59Z</time>
      </trkpt>
      <trkpt lat="28.3792570" lon="-16.4751520">
        <ele>1539.9</ele>
        <time>2020-11-11T13:31:00Z</time>
      </trkpt>
      <trkpt lat="28.3792570" lon="-16.4751520">
        <ele>1539.9</ele>
        <time>2020-11-11T13:31:01Z</time>
      </trkpt>
      <trkpt lat="28.3792320" lon="-16.4751420">
        <ele>1539.9</ele>
        <time>2020-11-11T13:31:02Z</time>
      </trkpt>
      <trkpt lat="28.3792320" lon="-16.4751420">
        <ele>1540.9</ele>
        <time>2020-11-11T13:31:03Z</time>
      </trkpt>
      <trkpt lat="28.3792050" lon="-16.4751320">
        <ele>1540.9</ele>
        <time>2020-11-11T13:31:04Z</time>
      </trkpt>
      <trkpt lat="28.3792050" lon="-16.4751320">
        <ele>1540.9</ele>
        <time>2020-11-11T13:31:05Z</time>
      </trkpt>
      <trkpt lat="28.3791770" lon="-16.4751150">
        <ele>1540.9</ele>
        <time>2020-11-11T13:31:06Z</time>
      </trkpt>
      <trkpt lat="28.3791770" lon="-16.4751150">
        <ele>1540.9</ele>
        <time>2020-11-11T13:31:07Z</time>
      </trkpt>
      <trkpt lat="28.3791500" lon="-16.4751020">
        <ele>1541.9</ele>
        <time>2020-11-11T13:31:08Z</time>
      </trkpt>
      <trkpt lat="28.3791500" lon="-16.4751020">
        <ele>1541.9</ele>
        <time>2020-11-11T13:31:09Z</time>
      </trkpt>
      <trkpt lat="28.3791170" lon="-16.4750900">
        <ele>1541.9</ele>
        <time>2020-11-11T13:31:10Z</time>
      </trkpt>
      <trkpt lat="28.3791170" lon="-16.4750900">
        <ele>1541.9</ele>
        <time>2020-11-11T13:31:11Z</time>
      </trkpt>
      <trkpt lat="28.3790770" lon="-16.4750780">
        <ele>1542.9</ele>
        <time>2020-11-11T13:31:12Z</time>
      </trkpt>
      <trkpt lat="28.3790770" lon="-16.4750780">
        <ele>1542.9</ele>
        <time>2020-11-11T13:31:13Z</time>
      </trkpt>
      <trkpt lat="28.3790430" lon="-16.4750650">
        <ele>1542.9</ele>
        <time>2020-11-11T13:31:14Z</time>
      </trkpt>
      <trkpt lat="28.3790430" lon="-16.4750650">
        <ele>1542.9</ele>
        <time>2020-11-11T13:31:15Z</time>
      </trkpt>
      <trkpt lat="28.3790320" lon="-16.4750570">
        <ele>1542.9</ele>
        <time>2020-11-11T13:31:16Z</time>
      </trkpt>
      <trkpt lat="28.3790300" lon="-16.4750570">
        <ele>1542.9</ele>
        <time>2020-11-11T13:31:17Z</time>
      </trkpt>
      <trkpt lat="28.3790280" lon="-16.4750570">
        <ele>1543.9</ele>
        <time>2020-11-11T13:31:18Z</time>
      </trkpt>
      <trkpt lat="28.3790280" lon="-16.4750570">
        <ele>1543.9</ele>
        <time>2020-11-11T13:31:28Z</time>
      </trkpt>
      <trkpt lat="28.3790280" lon="-16.4750570">
        <ele>1543.9</ele>
        <time>2020-11-11T13:31:29Z</time>
      </trkpt>
      <trkpt lat="28.3789680" lon="-16.4750270">
        <ele>1543.9</ele>
        <time>2020-11-11T13:31:30Z</time>
      </trkpt>
      <trkpt lat="28.3789680" lon="-16.4750270">
        <ele>1543.9</ele>
        <time>2020-11-11T13:31:31Z</time>
      </trkpt>
      <trkpt lat="28.3789500" lon="-16.4750220">
        <ele>1543.9</ele>
        <time>2020-11-11T13:31:32Z</time>
      </trkpt>
      <trkpt lat="28.3789500" lon="-16.4750220">
        <ele>1544.9</ele>
        <time>2020-11-11T13:31:33Z</time>
      </trkpt>
      <trkpt lat="28.3789300" lon="-16.4750170">
        <ele>1544.9</ele>
        <time>2020-11-11T13:31:34Z</time>
      </trkpt>
      <trkpt lat="28.3789300" lon="-16.4750170">
        <ele>1544.9</ele>
        <time>2020-11-11T13:31:35Z</time>
      </trkpt>
      <trkpt lat="28.3789220" lon="-16.4750200">
        <ele>1544.9</ele>
        <time>2020-11-11T13:31:36Z</time>
      </trkpt>
      <trkpt lat="28.3789220" lon="-16.4750200">
        <ele>1544.9</ele>
        <time>2020-11-11T13:31:37Z</time>
      </trkpt>
      <trkpt lat="28.3789080" lon="-16.4750150">
        <ele>1544.9</ele>
        <time>2020-11-11T13:31:38Z</time>
      </trkpt>
      <trkpt lat="28.3789080" lon="-16.4750150">
        <ele>1545.9</ele>
        <time>2020-11-11T13:31:39Z</time>
      </trkpt>
      <trkpt lat="28.3788880" lon="-16.4750080">
        <ele>1545.9</ele>
        <time>2020-11-11T13:31:40Z</time>
      </trkpt>
      <trkpt lat="28.3788880" lon="-16.4750080">
        <ele>1545.9</ele>
        <time>2020-11-11T13:31:41Z</time>
      </trkpt>
      <trkpt lat="28.3788670" lon="-16.4750080">
        <ele>1545.9</ele>
        <time>2020-11-11T13:31:42Z</time>
      </trkpt>
      <trkpt lat="28.3788670" lon="-16.4750080">
        <ele>1545.9</ele>
        <time>2020-11-11T13:31:43Z</time>
      </trkpt>
      <trkpt lat="28.3788430" lon="-16.4750070">
        <ele>1545.9</ele>
        <time>2020-11-11T13:31:44Z</time>
      </trkpt>
      <trkpt lat="28.3788430" lon="-16.4750070">
        <ele>1545.9</ele>
        <time>2020-11-11T13:31:45Z</time>
      </trkpt>
      <trkpt lat="28.3788300" lon="-16.4750030">
        <ele>1545.9</ele>
        <time>2020-11-11T13:31:46Z</time>
      </trkpt>
      <trkpt lat="28.3788300" lon="-16.4750030">
        <ele>1545.9</ele>
        <time>2020-11-11T13:31:47Z</time>
      </trkpt>
      <trkpt lat="28.3788120" lon="-16.4749980">
        <ele>1545.9</ele>
        <time>2020-11-11T13:31:48Z</time>
      </trkpt>
      <trkpt lat="28.3788120" lon="-16.4749980">
        <ele>1545.9</ele>
        <time>2020-11-11T13:31:49Z</time>
      </trkpt>
      <trkpt lat="28.3787920" lon="-16.4749920">
        <ele>1545.9</ele>
        <time>2020-11-11T13:31:50Z</time>
      </trkpt>
      <trkpt lat="28.3787920" lon="-16.4749920">
        <ele>1545.9</ele>
        <time>2020-11-11T13:31:51Z</time>
      </trkpt>
      <trkpt lat="28.3787730" lon="-16.4749820">
        <ele>1545.9</ele>
        <time>2020-11-11T13:31:52Z</time>
      </trkpt>
      <trkpt lat="28.3787730" lon="-16.4749820">
        <ele>1546.9</ele>
        <time>2020-11-11T13:31:53Z</time>
      </trkpt>
      <trkpt lat="28.3787520" lon="-16.4749770">
        <ele>1546.9</ele>
        <time>2020-11-11T13:31:54Z</time>
      </trkpt>
      <trkpt lat="28.3787520" lon="-16.4749770">
        <ele>1546.9</ele>
        <time>2020-11-11T13:31:55Z</time>
      </trkpt>
      <trkpt lat="28.3787300" lon="-16.4749720">
        <ele>1546.9</ele>
        <time>2020-11-11T13:31:56Z</time>
      </trkpt>
      <trkpt lat="28.3787300" lon="-16.4749720">
        <ele>1546.9</ele>
        <time>2020-11-11T13:31:57Z</time>
      </trkpt>
      <trkpt lat="28.3787080" lon="-16.4749670">
        <ele>1546.9</ele>
        <time>2020-11-11T13:31:58Z</time>
      </trkpt>
      <trkpt lat="28.3786980" lon="-16.4749630">
        <ele>1546.9</ele>
        <time>2020-11-11T13:31:59Z</time>
      </trkpt>
      <trkpt lat="28.3786980" lon="-16.4749630">
        <ele>1546.9</ele>
        <time>2020-11-11T13:32:00Z</time>
      </trkpt>
      <trkpt lat="28.3786670" lon="-16.4749620">
        <ele>1547.9</ele>
        <time>2020-11-11T13:32:01Z</time>
      </trkpt>
      <trkpt lat="28.3786600" lon="-16.4749570">
        <ele>1547.9</ele>
        <time>2020-11-11T13:32:02Z</time>
      </trkpt>
      <trkpt lat="28.3786600" lon="-16.4749570">
        <ele>1547.9</ele>
        <time>2020-11-11T13:32:03Z</time>
      </trkpt>
      <trkpt lat="28.3786420" lon="-16.4749480">
        <ele>1547.9</ele>
        <time>2020-11-11T13:32:04Z</time>
      </trkpt>
      <trkpt lat="28.3786280" lon="-16.4749470">
        <ele>1548.9</ele>
        <time>2020-11-11T13:32:05Z</time>
      </trkpt>
      <trkpt lat="28.3786220" lon="-16.4749430">
        <ele>1548.9</ele>
        <time>2020-11-11T13:32:06Z</time>
      </trkpt>
      <trkpt lat="28.3786220" lon="-16.4749430">
        <ele>1548.9</ele>
        <time>2020-11-11T13:32:07Z</time>
      </trkpt>
      <trkpt lat="28.3786150" lon="-16.4749400">
        <ele>1548.9</ele>
        <time>2020-11-11T13:32:08Z</time>
      </trkpt>
      <trkpt lat="28.3786150" lon="-16.4749400">
        <ele>1548.9</ele>
        <time>2020-11-11T13:32:09Z</time>
      </trkpt>
      <trkpt lat="28.3786080" lon="-16.4749330">
        <ele>1549.9</ele>
        <time>2020-11-11T13:32:10Z</time>
      </trkpt>
      <trkpt lat="28.3786080" lon="-16.4749330">
        <ele>1549.9</ele>
        <time>2020-11-11T13:32:11Z</time>
      </trkpt>
      <trkpt lat="28.3785980" lon="-16.4749250">
        <ele>1549.9</ele>
        <time>2020-11-11T13:32:12Z</time>
      </trkpt>
      <trkpt lat="28.3785980" lon="-16.4749250">
        <ele>1549.9</ele>
        <time>2020-11-11T13:32:13Z</time>
      </trkpt>
      <trkpt lat="28.3785920" lon="-16.4749250">
        <ele>1549.9</ele>
        <time>2020-11-11T13:32:14Z</time>
      </trkpt>
      <trkpt lat="28.3785920" lon="-16.4749250">
        <ele>1549.9</ele>
        <time>2020-11-11T13:32:15Z</time>
      </trkpt>
      <trkpt lat="28.3785880" lon="-16.4749250">
        <ele>1549.9</ele>
        <time>2020-11-11T13:32:16Z</time>
      </trkpt>
      <trkpt lat="28.3785880" lon="-16.4749250">
        <ele>1549.9</ele>
        <time>2020-11-11T13:32:17Z</time>
      </trkpt>
      <trkpt lat="28.3785880" lon="-16.4749250">
        <ele>1549.9</ele>
        <time>2020-11-11T13:32:18Z</time>
      </trkpt>
      <trkpt lat="28.3785880" lon="-16.4749250">
        <ele>1549.9</ele>
        <time>2020-11-11T13:32:58Z</time>
      </trkpt>
      <trkpt lat="28.3786050" lon="-16.4749350">
        <ele>1549.9</ele>
        <time>2020-11-11T13:32:59Z</time>
      </trkpt>
      <trkpt lat="28.3786050" lon="-16.4749350">
        <ele>1549.9</ele>
        <time>2020-11-11T13:33:00Z</time>
      </trkpt>
      <trkpt lat="28.3786050" lon="-16.4749350">
        <ele>1549.9</ele>
        <time>2020-11-11T13:33:07Z</time>
      </trkpt>
      <trkpt lat="28.3786050" lon="-16.4749350">
        <ele>1549.9</ele>
        <time>2020-11-11T13:33:08Z</time>
      </trkpt>
      <trkpt lat="28.3786800" lon="-16.4749620">
        <ele>1549.9</ele>
        <time>2020-11-11T13:33:09Z</time>
      </trkpt>
      <trkpt lat="28.3786970" lon="-16.4749700">
        <ele>1549.9</ele>
        <time>2020-11-11T13:33:10Z</time>
      </trkpt>
      <trkpt lat="28.3787170" lon="-16.4749780">
        <ele>1548.9</ele>
        <time>2020-11-11T13:33:11Z</time>
      </trkpt>
      <trkpt lat="28.3787170" lon="-16.4749780">
        <ele>1548.9</ele>
        <time>2020-11-11T13:33:12Z</time>
      </trkpt>
      <trkpt lat="28.3787580" lon="-16.4749920">
        <ele>1548.9</ele>
        <time>2020-11-11T13:33:13Z</time>
      </trkpt>
      <trkpt lat="28.3787800" lon="-16.4749980">
        <ele>1548.9</ele>
        <time>2020-11-11T13:33:14Z</time>
      </trkpt>
      <trkpt lat="28.3787800" lon="-16.4749980">
        <ele>1548.9</ele>
        <time>2020-11-11T13:33:15Z</time>
      </trkpt>
      <trkpt lat="28.3788230" lon="-16.4750180">
        <ele>1547.9</ele>
        <time>2020-11-11T13:33:16Z</time>
      </trkpt>
      <trkpt lat="28.3788480" lon="-16.4750270">
        <ele>1547.9</ele>
        <time>2020-11-11T13:33:17Z</time>
      </trkpt>
      <trkpt lat="28.3788480" lon="-16.4750270">
        <ele>1547.9</ele>
        <time>2020-11-11T13:33:18Z</time>
      </trkpt>
      <trkpt lat="28.3788930" lon="-16.4750430">
        <ele>1546.9</ele>
        <time>2020-11-11T13:33:19Z</time>
      </trkpt>
      <trkpt lat="28.3789180" lon="-16.4750530">
        <ele>1546.9</ele>
        <time>2020-11-11T13:33:20Z</time>
      </trkpt>
      <trkpt lat="28.3789180" lon="-16.4750530">
        <ele>1545.9</ele>
        <time>2020-11-11T13:33:21Z</time>
      </trkpt>
      <trkpt lat="28.3789680" lon="-16.4750720">
        <ele>1545.9</ele>
        <time>2020-11-11T13:33:22Z</time>
      </trkpt>
      <trkpt lat="28.3789880" lon="-16.4750800">
        <ele>1545.9</ele>
        <time>2020-11-11T13:33:23Z</time>
      </trkpt>
      <trkpt lat="28.3789880" lon="-16.4750800">
        <ele>1545.9</ele>
        <time>2020-11-11T13:33:24Z</time>
      </trkpt>
      <trkpt lat="28.3790330" lon="-16.4750980">
        <ele>1544.9</ele>
        <time>2020-11-11T13:33:25Z</time>
      </trkpt>
      <trkpt lat="28.3790330" lon="-16.4750980">
        <ele>1544.9</ele>
        <time>2020-11-11T13:33:26Z</time>
      </trkpt>
      <trkpt lat="28.3790830" lon="-16.4751220">
        <ele>1544.9</ele>
        <time>2020-11-11T13:33:27Z</time>
      </trkpt>
      <trkpt lat="28.3791130" lon="-16.4751330">
        <ele>1544.9</ele>
        <time>2020-11-11T13:33:28Z</time>
      </trkpt>
      <trkpt lat="28.3791130" lon="-16.4751330">
        <ele>1543.9</ele>
        <time>2020-11-11T13:33:29Z</time>
      </trkpt>
      <trkpt lat="28.3791650" lon="-16.4751580">
        <ele>1543.9</ele>
        <time>2020-11-11T13:33:30Z</time>
      </trkpt>
      <trkpt lat="28.3791650" lon="-16.4751580">
        <ele>1542.9</ele>
        <time>2020-11-11T13:33:31Z</time>
      </trkpt>
      <trkpt lat="28.3792220" lon="-16.4751850">
        <ele>1542.9</ele>
        <time>2020-11-11T13:33:32Z</time>
      </trkpt>
      <trkpt lat="28.3792220" lon="-16.4751850">
        <ele>1541.9</ele>
        <time>2020-11-11T13:33:33Z</time>
      </trkpt>
      <trkpt lat="28.3792850" lon="-16.4752130">
        <ele>1541.9</ele>
        <time>2020-11-11T13:33:34Z</time>
      </trkpt>
      <trkpt lat="28.3793170" lon="-16.4752230">
        <ele>1540.9</ele>
        <time>2020-11-11T13:33:35Z</time>
      </trkpt>
      <trkpt lat="28.3793170" lon="-16.4752230">
        <ele>1540.9</ele>
        <time>2020-11-11T13:33:36Z</time>
      </trkpt>
      <trkpt lat="28.3793800" lon="-16.4752430">
        <ele>1540.9</ele>
        <time>2020-11-11T13:33:37Z</time>
      </trkpt>
      <trkpt lat="28.3794120" lon="-16.4752480">
        <ele>1540.9</ele>
        <time>2020-11-11T13:33:38Z</time>
      </trkpt>
      <trkpt lat="28.3794120" lon="-16.4752480">
        <ele>1539.9</ele>
        <time>2020-11-11T13:33:39Z</time>
      </trkpt>
      <trkpt lat="28.3794870" lon="-16.4752150">
        <ele>1539.9</ele>
        <time>2020-11-11T13:33:40Z</time>
      </trkpt>
      <trkpt lat="28.3795100" lon="-16.4751970">
        <ele>1539.9</ele>
        <time>2020-11-11T13:33:41Z</time>
      </trkpt>
      <trkpt lat="28.3795100" lon="-16.4751970">
        <ele>1539.9</ele>
        <time>2020-11-11T13:33:42Z</time>
      </trkpt>
      <trkpt lat="28.3795300" lon="-16.4751570">
        <ele>1538.9</ele>
        <time>2020-11-11T13:33:43Z</time>
      </trkpt>
      <trkpt lat="28.3795320" lon="-16.4751350">
        <ele>1538.9</ele>
        <time>2020-11-11T13:33:44Z</time>
      </trkpt>
      <trkpt lat="28.3795320" lon="-16.4751350">
        <ele>1538.9</ele>
        <time>2020-11-11T13:33:45Z</time>
      </trkpt>
      <trkpt lat="28.3795330" lon="-16.4750930">
        <ele>1538.9</ele>
        <time>2020-11-11T13:33:46Z</time>
      </trkpt>
      <trkpt lat="28.3795320" lon="-16.4750680">
        <ele>1537.9</ele>
        <time>2020-11-11T13:33:47Z</time>
      </trkpt>
      <trkpt lat="28.3795320" lon="-16.4750680">
        <ele>1537.9</ele>
        <time>2020-11-11T13:33:48Z</time>
      </trkpt>
      <trkpt lat="28.3795380" lon="-16.4750170">
        <ele>1537.9</ele>
        <time>2020-11-11T13:33:49Z</time>
      </trkpt>
      <trkpt lat="28.3795400" lon="-16.4749920">
        <ele>1537.9</ele>
        <time>2020-11-11T13:33:50Z</time>
      </trkpt>
      <trkpt lat="28.3795400" lon="-16.4749920">
        <ele>1536.9</ele>
        <time>2020-11-11T13:33:51Z</time>
      </trkpt>
      <trkpt lat="28.3795520" lon="-16.4749350">
        <ele>1536.9</ele>
        <time>2020-11-11T13:33:52Z</time>
      </trkpt>
      <trkpt lat="28.3795520" lon="-16.4749350">
        <ele>1536.9</ele>
        <time>2020-11-11T13:33:53Z</time>
      </trkpt>
      <trkpt lat="28.3795720" lon="-16.4749000">
        <ele>1536.9</ele>
        <time>2020-11-11T13:33:54Z</time>
      </trkpt>
      <trkpt lat="28.3795870" lon="-16.4748880">
        <ele>1534.9</ele>
        <time>2020-11-11T13:33:55Z</time>
      </trkpt>
      <trkpt lat="28.3795870" lon="-16.4748880">
        <ele>1534.9</ele>
        <time>2020-11-11T13:33:56Z</time>
      </trkpt>
      <trkpt lat="28.3796270" lon="-16.4748880">
        <ele>1534.9</ele>
        <time>2020-11-11T13:33:57Z</time>
      </trkpt>
      <trkpt lat="28.3796270" lon="-16.4748880">
        <ele>1534.9</ele>
        <time>2020-11-11T13:33:58Z</time>
      </trkpt>
      <trkpt lat="28.3796620" lon="-16.4749180">
        <ele>1534.9</ele>
        <time>2020-11-11T13:33:59Z</time>
      </trkpt>
      <trkpt lat="28.3796820" lon="-16.4749470">
        <ele>1534.9</ele>
        <time>2020-11-11T13:34:00Z</time>
      </trkpt>
      <trkpt lat="28.3796820" lon="-16.4749470">
        <ele>1534.9</ele>
        <time>2020-11-11T13:34:01Z</time>
      </trkpt>
      <trkpt lat="28.3796980" lon="-16.4750000">
        <ele>1533.9</ele>
        <time>2020-11-11T13:34:02Z</time>
      </trkpt>
      <trkpt lat="28.3797000" lon="-16.4750220">
        <ele>1533.9</ele>
        <time>2020-11-11T13:34:03Z</time>
      </trkpt>
      <trkpt lat="28.3797000" lon="-16.4750220">
        <ele>1533.9</ele>
        <time>2020-11-11T13:34:04Z</time>
      </trkpt>
      <trkpt lat="28.3797070" lon="-16.4750680">
        <ele>1533.9</ele>
        <time>2020-11-11T13:34:05Z</time>
      </trkpt>
      <trkpt lat="28.3797070" lon="-16.4750680">
        <ele>1532.9</ele>
        <time>2020-11-11T13:34:06Z</time>
      </trkpt>
      <trkpt lat="28.3797220" lon="-16.4751150">
        <ele>1532.9</ele>
        <time>2020-11-11T13:34:07Z</time>
      </trkpt>
      <trkpt lat="28.3797220" lon="-16.4751150">
        <ele>1531.9</ele>
        <time>2020-11-11T13:34:08Z</time>
      </trkpt>
      <trkpt lat="28.3797430" lon="-16.4751880">
        <ele>1531.9</ele>
        <time>2020-11-11T13:34:09Z</time>
      </trkpt>
      <trkpt lat="28.3797430" lon="-16.4751880">
        <ele>1531.9</ele>
        <time>2020-11-11T13:34:10Z</time>
      </trkpt>
      <trkpt lat="28.3797750" lon="-16.4752620">
        <ele>1531.9</ele>
        <time>2020-11-11T13:34:11Z</time>
      </trkpt>
      <trkpt lat="28.3797750" lon="-16.4752620">
        <ele>1530.9</ele>
        <time>2020-11-11T13:34:12Z</time>
      </trkpt>
      <trkpt lat="28.3797920" lon="-16.4753480">
        <ele>1530.9</ele>
        <time>2020-11-11T13:34:13Z</time>
      </trkpt>
      <trkpt lat="28.3797950" lon="-16.4753920">
        <ele>1530.9</ele>
        <time>2020-11-11T13:34:14Z</time>
      </trkpt>
      <trkpt lat="28.3797950" lon="-16.4753920">
        <ele>1530.9</ele>
        <time>2020-11-11T13:34:15Z</time>
      </trkpt>
      <trkpt lat="28.3797720" lon="-16.4754670">
        <ele>1528.9</ele>
        <time>2020-11-11T13:34:16Z</time>
      </trkpt>
      <trkpt lat="28.3797720" lon="-16.4754670">
        <ele>1528.9</ele>
        <time>2020-11-11T13:34:17Z</time>
      </trkpt>
      <trkpt lat="28.3797320" lon="-16.4755180">
        <ele>1527.9</ele>
        <time>2020-11-11T13:34:18Z</time>
      </trkpt>
      <trkpt lat="28.3797100" lon="-16.4755350">
        <ele>1527.9</ele>
        <time>2020-11-11T13:34:19Z</time>
      </trkpt>
      <trkpt lat="28.3796850" lon="-16.4755500">
        <ele>1527.9</ele>
        <time>2020-11-11T13:34:20Z</time>
      </trkpt>
      <trkpt lat="28.3796850" lon="-16.4755500">
        <ele>1527.9</ele>
        <time>2020-11-11T13:34:21Z</time>
      </trkpt>
      <trkpt lat="28.3796320" lon="-16.4755780">
        <ele>1526.9</ele>
        <time>2020-11-11T13:34:22Z</time>
      </trkpt>
      <trkpt lat="28.3796320" lon="-16.4755780">
        <ele>1526.9</ele>
        <time>2020-11-11T13:34:23Z</time>
      </trkpt>
      <trkpt lat="28.3795680" lon="-16.4755920">
        <ele>1525.9</ele>
        <time>2020-11-11T13:34:24Z</time>
      </trkpt>
      <trkpt lat="28.3795680" lon="-16.4755920">
        <ele>1525.9</ele>
        <time>2020-11-11T13:34:25Z</time>
      </trkpt>
      <trkpt lat="28.3795000" lon="-16.4755880">
        <ele>1525.9</ele>
        <time>2020-11-11T13:34:26Z</time>
      </trkpt>
      <trkpt lat="28.3794630" lon="-16.4755830">
        <ele>1525.9</ele>
        <time>2020-11-11T13:34:27Z</time>
      </trkpt>
      <trkpt lat="28.3794630" lon="-16.4755830">
        <ele>1525.9</ele>
        <time>2020-11-11T13:34:28Z</time>
      </trkpt>
      <trkpt lat="28.3793920" lon="-16.4755680">
        <ele>1525.9</ele>
        <time>2020-11-11T13:34:29Z</time>
      </trkpt>
      <trkpt lat="28.3793550" lon="-16.4755600">
        <ele>1523.9</ele>
        <time>2020-11-11T13:34:30Z</time>
      </trkpt>
      <trkpt lat="28.3793550" lon="-16.4755600">
        <ele>1523.9</ele>
        <time>2020-11-11T13:34:31Z</time>
      </trkpt>
      <trkpt lat="28.3792870" lon="-16.4755450">
        <ele>1522.9</ele>
        <time>2020-11-11T13:34:32Z</time>
      </trkpt>
      <trkpt lat="28.3792870" lon="-16.4755450">
        <ele>1522.9</ele>
        <time>2020-11-11T13:34:33Z</time>
      </trkpt>
      <trkpt lat="28.3792320" lon="-16.4755330">
        <ele>1522.9</ele>
        <time>2020-11-11T13:34:34Z</time>
      </trkpt>
      <trkpt lat="28.3792030" lon="-16.4755250">
        <ele>1521.9</ele>
        <time>2020-11-11T13:34:35Z</time>
      </trkpt>
      <trkpt lat="28.3791750" lon="-16.4755180">
        <ele>1521.9</ele>
        <time>2020-11-11T13:34:36Z</time>
      </trkpt>
      <trkpt lat="28.3791750" lon="-16.4755180">
        <ele>1521.9</ele>
        <time>2020-11-11T13:34:37Z</time>
      </trkpt>
      <trkpt lat="28.3791200" lon="-16.4755070">
        <ele>1521.9</ele>
        <time>2020-11-11T13:34:38Z</time>
      </trkpt>
      <trkpt lat="28.3791200" lon="-16.4755070">
        <ele>1521.9</ele>
        <time>2020-11-11T13:34:39Z</time>
      </trkpt>
      <trkpt lat="28.3790670" lon="-16.4754980">
        <ele>1521.9</ele>
        <time>2020-11-11T13:34:40Z</time>
      </trkpt>
      <trkpt lat="28.3790670" lon="-16.4754980">
        <ele>1520.9</ele>
        <time>2020-11-11T13:34:41Z</time>
      </trkpt>
      <trkpt lat="28.3789980" lon="-16.4754950">
        <ele>1520.9</ele>
        <time>2020-11-11T13:34:42Z</time>
      </trkpt>
      <trkpt lat="28.3789980" lon="-16.4754950">
        <ele>1520.9</ele>
        <time>2020-11-11T13:34:43Z</time>
      </trkpt>
      <trkpt lat="28.3789430" lon="-16.4754880">
        <ele>1520.9</ele>
        <time>2020-11-11T13:34:44Z</time>
      </trkpt>
      <trkpt lat="28.3789430" lon="-16.4754880">
        <ele>1518.9</ele>
        <time>2020-11-11T13:34:45Z</time>
      </trkpt>
      <trkpt lat="28.3788800" lon="-16.4754850">
        <ele>1518.9</ele>
        <time>2020-11-11T13:34:46Z</time>
      </trkpt>
      <trkpt lat="28.3788800" lon="-16.4754850">
        <ele>1517.9</ele>
        <time>2020-11-11T13:34:47Z</time>
      </trkpt>
      <trkpt lat="28.3788180" lon="-16.4754820">
        <ele>1517.9</ele>
        <time>2020-11-11T13:34:48Z</time>
      </trkpt>
      <trkpt lat="28.3788180" lon="-16.4754820">
        <ele>1517.9</ele>
        <time>2020-11-11T13:34:49Z</time>
      </trkpt>
      <trkpt lat="28.3787750" lon="-16.4754870">
        <ele>1517.9</ele>
        <time>2020-11-11T13:34:50Z</time>
      </trkpt>
      <trkpt lat="28.3787750" lon="-16.4754870">
        <ele>1516.9</ele>
        <time>2020-11-11T13:34:51Z</time>
      </trkpt>
      <trkpt lat="28.3787380" lon="-16.4754980">
        <ele>1516.9</ele>
        <time>2020-11-11T13:34:52Z</time>
      </trkpt>
      <trkpt lat="28.3787220" lon="-16.4755070">
        <ele>1515.9</ele>
        <time>2020-11-11T13:34:53Z</time>
      </trkpt>
      <trkpt lat="28.3787220" lon="-16.4755070">
        <ele>1515.9</ele>
        <time>2020-11-11T13:34:54Z</time>
      </trkpt>
      <trkpt lat="28.3786850" lon="-16.4755300">
        <ele>1515.9</ele>
        <time>2020-11-11T13:34:55Z</time>
      </trkpt>
      <trkpt lat="28.3786620" lon="-16.4755370">
        <ele>1515.9</ele>
        <time>2020-11-11T13:34:56Z</time>
      </trkpt>
      <trkpt lat="28.3786620" lon="-16.4755370">
        <ele>1514.9</ele>
        <time>2020-11-11T13:34:57Z</time>
      </trkpt>
      <trkpt lat="28.3786270" lon="-16.4755550">
        <ele>1514.9</ele>
        <time>2020-11-11T13:34:58Z</time>
      </trkpt>
      <trkpt lat="28.3786180" lon="-16.4755720">
        <ele>1514.9</ele>
        <time>2020-11-11T13:34:59Z</time>
      </trkpt>
      <trkpt lat="28.3786180" lon="-16.4755720">
        <ele>1514.9</ele>
        <time>2020-11-11T13:35:00Z</time>
      </trkpt>
      <trkpt lat="28.3786120" lon="-16.4756150">
        <ele>1513.9</ele>
        <time>2020-11-11T13:35:01Z</time>
      </trkpt>
      <trkpt lat="28.3786130" lon="-16.4756370">
        <ele>1513.9</ele>
        <time>2020-11-11T13:35:02Z</time>
      </trkpt>
      <trkpt lat="28.3786130" lon="-16.4756370">
        <ele>1512.9</ele>
        <time>2020-11-11T13:35:03Z</time>
      </trkpt>
      <trkpt lat="28.3786180" lon="-16.4756930">
        <ele>1512.9</ele>
        <time>2020-11-11T13:35:04Z</time>
      </trkpt>
      <trkpt lat="28.3786180" lon="-16.4756930">
        <ele>1512.9</ele>
        <time>2020-11-11T13:35:05Z</time>
      </trkpt>
      <trkpt lat="28.3786220" lon="-16.4757420">
        <ele>1512.9</ele>
        <time>2020-11-11T13:35:06Z</time>
      </trkpt>
      <trkpt lat="28.3786220" lon="-16.4757420">
        <ele>1511.9</ele>
        <time>2020-11-11T13:35:07Z</time>
      </trkpt>
      <trkpt lat="28.3786400" lon="-16.4757980">
        <ele>1510.9</ele>
        <time>2020-11-11T13:35:08Z</time>
      </trkpt>
      <trkpt lat="28.3786530" lon="-16.4758200">
        <ele>1510.9</ele>
        <time>2020-11-11T13:35:09Z</time>
      </trkpt>
      <trkpt lat="28.3786530" lon="-16.4758200">
        <ele>1509.9</ele>
        <time>2020-11-11T13:35:10Z</time>
      </trkpt>
      <trkpt lat="28.3786880" lon="-16.4758500">
        <ele>1509.9</ele>
        <time>2020-11-11T13:35:11Z</time>
      </trkpt>
      <trkpt lat="28.3786880" lon="-16.4758500">
        <ele>1509.9</ele>
        <time>2020-11-11T13:35:12Z</time>
      </trkpt>
      <trkpt lat="28.3787030" lon="-16.4758430">
        <ele>1509.9</ele>
        <time>2020-11-11T13:35:13Z</time>
      </trkpt>
      <trkpt lat="28.3787030" lon="-16.4758430">
        <ele>1508.9</ele>
        <time>2020-11-11T13:35:14Z</time>
      </trkpt>
      <trkpt lat="28.3787050" lon="-16.4758070">
        <ele>1508.9</ele>
        <time>2020-11-11T13:35:15Z</time>
      </trkpt>
      <trkpt lat="28.3787050" lon="-16.4758070">
        <ele>1508.9</ele>
        <time>2020-11-11T13:35:16Z</time>
      </trkpt>
      <trkpt lat="28.3787250" lon="-16.4757500">
        <ele>1508.9</ele>
        <time>2020-11-11T13:35:17Z</time>
      </trkpt>
      <trkpt lat="28.3787330" lon="-16.4757320">
        <ele>1508.9</ele>
        <time>2020-11-11T13:35:18Z</time>
      </trkpt>
      <trkpt lat="28.3787330" lon="-16.4757320">
        <ele>1508.9</ele>
        <time>2020-11-11T13:35:19Z</time>
      </trkpt>
      <trkpt lat="28.3787770" lon="-16.4757000">
        <ele>1507.9</ele>
        <time>2020-11-11T13:35:20Z</time>
      </trkpt>
      <trkpt lat="28.3787770" lon="-16.4757000">
        <ele>1507.9</ele>
        <time>2020-11-11T13:35:21Z</time>
      </trkpt>
      <trkpt lat="28.3788300" lon="-16.4756930">
        <ele>1507.9</ele>
        <time>2020-11-11T13:35:22Z</time>
      </trkpt>
      <trkpt lat="28.3788570" lon="-16.4757000">
        <ele>1507.9</ele>
        <time>2020-11-11T13:35:23Z</time>
      </trkpt>
      <trkpt lat="28.3788570" lon="-16.4757000">
        <ele>1507.9</ele>
        <time>2020-11-11T13:35:24Z</time>
      </trkpt>
      <trkpt lat="28.3789080" lon="-16.4757230">
        <ele>1505.9</ele>
        <time>2020-11-11T13:35:25Z</time>
      </trkpt>
      <trkpt lat="28.3789080" lon="-16.4757230">
        <ele>1505.9</ele>
        <time>2020-11-11T13:35:26Z</time>
      </trkpt>
      <trkpt lat="28.3789550" lon="-16.4757600">
        <ele>1505.9</ele>
        <time>2020-11-11T13:35:27Z</time>
      </trkpt>
      <trkpt lat="28.3789550" lon="-16.4757600">
        <ele>1505.9</ele>
        <time>2020-11-11T13:35:28Z</time>
      </trkpt>
      <trkpt lat="28.3790030" lon="-16.4758150">
        <ele>1504.9</ele>
        <time>2020-11-11T13:35:29Z</time>
      </trkpt>
      <trkpt lat="28.3790030" lon="-16.4758150">
        <ele>1504.9</ele>
        <time>2020-11-11T13:35:30Z</time>
      </trkpt>
      <trkpt lat="28.3790530" lon="-16.4758780">
        <ele>1504.9</ele>
        <time>2020-11-11T13:35:31Z</time>
      </trkpt>
      <trkpt lat="28.3790780" lon="-16.4759050">
        <ele>1504.9</ele>
        <time>2020-11-11T13:35:32Z</time>
      </trkpt>
      <trkpt lat="28.3790780" lon="-16.4759050">
        <ele>1502.9</ele>
        <time>2020-11-11T13:35:33Z</time>
      </trkpt>
      <trkpt lat="28.3791370" lon="-16.4759580">
        <ele>1502.9</ele>
        <time>2020-11-11T13:35:34Z</time>
      </trkpt>
      <trkpt lat="28.3791370" lon="-16.4759580">
        <ele>1502.9</ele>
        <time>2020-11-11T13:35:35Z</time>
      </trkpt>
      <trkpt lat="28.3792050" lon="-16.4760280">
        <ele>1502.9</ele>
        <time>2020-11-11T13:35:36Z</time>
      </trkpt>
      <trkpt lat="28.3792400" lon="-16.4760570">
        <ele>1501.9</ele>
        <time>2020-11-11T13:35:37Z</time>
      </trkpt>
      <trkpt lat="28.3792780" lon="-16.4760930">
        <ele>1501.9</ele>
        <time>2020-11-11T13:35:38Z</time>
      </trkpt>
      <trkpt lat="28.3792780" lon="-16.4760930">
        <ele>1500.9</ele>
        <time>2020-11-11T13:35:39Z</time>
      </trkpt>
      <trkpt lat="28.3793500" lon="-16.4761550">
        <ele>1500.9</ele>
        <time>2020-11-11T13:35:40Z</time>
      </trkpt>
      <trkpt lat="28.3793830" lon="-16.4761800">
        <ele>1500.9</ele>
        <time>2020-11-11T13:35:41Z</time>
      </trkpt>
      <trkpt lat="28.3793830" lon="-16.4761800">
        <ele>1500.9</ele>
        <time>2020-11-11T13:35:42Z</time>
      </trkpt>
      <trkpt lat="28.3794450" lon="-16.4762380">
        <ele>1499.9</ele>
        <time>2020-11-11T13:35:43Z</time>
      </trkpt>
      <trkpt lat="28.3794450" lon="-16.4762380">
        <ele>1498.9</ele>
        <time>2020-11-11T13:35:44Z</time>
      </trkpt>
      <trkpt lat="28.3795170" lon="-16.4762970">
        <ele>1498.9</ele>
        <time>2020-11-11T13:35:45Z</time>
      </trkpt>
      <trkpt lat="28.3795170" lon="-16.4762970">
        <ele>1497.9</ele>
        <time>2020-11-11T13:35:46Z</time>
      </trkpt>
      <trkpt lat="28.3796050" lon="-16.4763670">
        <ele>1497.9</ele>
        <time>2020-11-11T13:35:47Z</time>
      </trkpt>
      <trkpt lat="28.3796050" lon="-16.4763670">
        <ele>1496.9</ele>
        <time>2020-11-11T13:35:48Z</time>
      </trkpt>
      <trkpt lat="28.3796980" lon="-16.4764300">
        <ele>1496.9</ele>
        <time>2020-11-11T13:35:49Z</time>
      </trkpt>
      <trkpt lat="28.3797450" lon="-16.4764680">
        <ele>1495.9</ele>
        <time>2020-11-11T13:35:50Z</time>
      </trkpt>
      <trkpt lat="28.3797450" lon="-16.4764680">
        <ele>1495.9</ele>
        <time>2020-11-11T13:35:51Z</time>
      </trkpt>
      <trkpt lat="28.3798250" lon="-16.4765370">
        <ele>1494.9</ele>
        <time>2020-11-11T13:35:52Z</time>
      </trkpt>
      <trkpt lat="28.3798620" lon="-16.4765750">
        <ele>1494.9</ele>
        <time>2020-11-11T13:35:53Z</time>
      </trkpt>
      <trkpt lat="28.3798620" lon="-16.4765750">
        <ele>1493.9</ele>
        <time>2020-11-11T13:35:54Z</time>
      </trkpt>
      <trkpt lat="28.3799230" lon="-16.4766270">
        <ele>1493.9</ele>
        <time>2020-11-11T13:35:55Z</time>
      </trkpt>
      <trkpt lat="28.3799230" lon="-16.4766270">
        <ele>1493.9</ele>
        <time>2020-11-11T13:35:56Z</time>
      </trkpt>
      <trkpt lat="28.3799820" lon="-16.4766670">
        <ele>1493.9</ele>
        <time>2020-11-11T13:35:57Z</time>
      </trkpt>
      <trkpt lat="28.3799820" lon="-16.4766670">
        <ele>1492.9</ele>
        <time>2020-11-11T13:35:58Z</time>
      </trkpt>
      <trkpt lat="28.3800380" lon="-16.4766970">
        <ele>1492.9</ele>
        <time>2020-11-11T13:35:59Z</time>
      </trkpt>
      <trkpt lat="28.3800680" lon="-16.4767070">
        <ele>1492.9</ele>
        <time>2020-11-11T13:36:00Z</time>
      </trkpt>
      <trkpt lat="28.3800680" lon="-16.4767070">
        <ele>1492.9</ele>
        <time>2020-11-11T13:36:01Z</time>
      </trkpt>
      <trkpt lat="28.3801250" lon="-16.4766980">
        <ele>1492.9</ele>
        <time>2020-11-11T13:36:02Z</time>
      </trkpt>
      <trkpt lat="28.3801250" lon="-16.4766980">
        <ele>1492.9</ele>
        <time>2020-11-11T13:36:03Z</time>
      </trkpt>
      <trkpt lat="28.3801770" lon="-16.4766720">
        <ele>1490.9</ele>
        <time>2020-11-11T13:36:04Z</time>
      </trkpt>
      <trkpt lat="28.3801770" lon="-16.4766720">
        <ele>1490.9</ele>
        <time>2020-11-11T13:36:05Z</time>
      </trkpt>
      <trkpt lat="28.3802220" lon="-16.4766330">
        <ele>1490.9</ele>
        <time>2020-11-11T13:36:06Z</time>
      </trkpt>
      <trkpt lat="28.3802220" lon="-16.4766330">
        <ele>1490.9</ele>
        <time>2020-11-11T13:36:07Z</time>
      </trkpt>
      <trkpt lat="28.3802450" lon="-16.4765730">
        <ele>1490.9</ele>
        <time>2020-11-11T13:36:08Z</time>
      </trkpt>
      <trkpt lat="28.3802450" lon="-16.4765730">
        <ele>1490.9</ele>
        <time>2020-11-11T13:36:09Z</time>
      </trkpt>
      <trkpt lat="28.3802800" lon="-16.4764930">
        <ele>1488.9</ele>
        <time>2020-11-11T13:36:10Z</time>
      </trkpt>
      <trkpt lat="28.3802800" lon="-16.4764930">
        <ele>1488.9</ele>
        <time>2020-11-11T13:36:11Z</time>
      </trkpt>
      <trkpt lat="28.3803030" lon="-16.4764120">
        <ele>1488.9</ele>
        <time>2020-11-11T13:36:12Z</time>
      </trkpt>
      <trkpt lat="28.3802980" lon="-16.4763680">
        <ele>1488.9</ele>
        <time>2020-11-11T13:36:13Z</time>
      </trkpt>
      <trkpt lat="28.3802980" lon="-16.4763680">
        <ele>1487.9</ele>
        <time>2020-11-11T13:36:14Z</time>
      </trkpt>
      <trkpt lat="28.3803280" lon="-16.4762750">
        <ele>1487.9</ele>
        <time>2020-11-11T13:36:15Z</time>
      </trkpt>
      <trkpt lat="28.3803280" lon="-16.4762750">
        <ele>1486.9</ele>
        <time>2020-11-11T13:36:16Z</time>
      </trkpt>
      <trkpt lat="28.3803850" lon="-16.4761920">
        <ele>1486.9</ele>
        <time>2020-11-11T13:36:17Z</time>
      </trkpt>
      <trkpt lat="28.3803850" lon="-16.4761920">
        <ele>1485.9</ele>
        <time>2020-11-11T13:36:18Z</time>
      </trkpt>
      <trkpt lat="28.3804480" lon="-16.4761070">
        <ele>1485.9</ele>
        <time>2020-11-11T13:36:19Z</time>
      </trkpt>
      <trkpt lat="28.3804870" lon="-16.4760680">
        <ele>1485.9</ele>
        <time>2020-11-11T13:36:20Z</time>
      </trkpt>
      <trkpt lat="28.3804870" lon="-16.4760680">
        <ele>1484.9</ele>
        <time>2020-11-11T13:36:21Z</time>
      </trkpt>
      <trkpt lat="28.3805580" lon="-16.4760070">
        <ele>1484.9</ele>
        <time>2020-11-11T13:36:22Z</time>
      </trkpt>
      <trkpt lat="28.3805580" lon="-16.4760070">
        <ele>1483.9</ele>
        <time>2020-11-11T13:36:23Z</time>
      </trkpt>
      <trkpt lat="28.3806180" lon="-16.4759570">
        <ele>1483.9</ele>
        <time>2020-11-11T13:36:24Z</time>
      </trkpt>
      <trkpt lat="28.3806180" lon="-16.4759570">
        <ele>1482.9</ele>
        <time>2020-11-11T13:36:25Z</time>
      </trkpt>
      <trkpt lat="28.3806870" lon="-16.4759170">
        <ele>1482.9</ele>
        <time>2020-11-11T13:36:26Z</time>
      </trkpt>
      <trkpt lat="28.3807180" lon="-16.4759180">
        <ele>1481.9</ele>
        <time>2020-11-11T13:36:27Z</time>
      </trkpt>
      <trkpt lat="28.3807180" lon="-16.4759180">
        <ele>1481.9</ele>
        <time>2020-11-11T13:36:28Z</time>
      </trkpt>
      <trkpt lat="28.3807530" lon="-16.4759570">
        <ele>1481.9</ele>
        <time>2020-11-11T13:36:29Z</time>
      </trkpt>
      <trkpt lat="28.3807530" lon="-16.4759570">
        <ele>1481.9</ele>
        <time>2020-11-11T13:36:30Z</time>
      </trkpt>
      <trkpt lat="28.3807420" lon="-16.4759950">
        <ele>1479.9</ele>
        <time>2020-11-11T13:36:31Z</time>
      </trkpt>
      <trkpt lat="28.3807420" lon="-16.4759950">
        <ele>1479.9</ele>
        <time>2020-11-11T13:36:32Z</time>
      </trkpt>
      <trkpt lat="28.3806950" lon="-16.4760350">
        <ele>1478.9</ele>
        <time>2020-11-11T13:36:33Z</time>
      </trkpt>
      <trkpt lat="28.3806950" lon="-16.4760350">
        <ele>1478.9</ele>
        <time>2020-11-11T13:36:34Z</time>
      </trkpt>
      <trkpt lat="28.3806320" lon="-16.4760670">
        <ele>1477.9</ele>
        <time>2020-11-11T13:36:35Z</time>
      </trkpt>
      <trkpt lat="28.3806320" lon="-16.4760670">
        <ele>1477.9</ele>
        <time>2020-11-11T13:36:36Z</time>
      </trkpt>
      <trkpt lat="28.3805720" lon="-16.4761220">
        <ele>1476.9</ele>
        <time>2020-11-11T13:36:37Z</time>
      </trkpt>
      <trkpt lat="28.3805550" lon="-16.4761600">
        <ele>1476.9</ele>
        <time>2020-11-11T13:36:38Z</time>
      </trkpt>
      <trkpt lat="28.3805550" lon="-16.4761600">
        <ele>1476.9</ele>
        <time>2020-11-11T13:36:39Z</time>
      </trkpt>
      <trkpt lat="28.3805500" lon="-16.4762620">
        <ele>1476.9</ele>
        <time>2020-11-11T13:36:40Z</time>
      </trkpt>
      <trkpt lat="28.3805500" lon="-16.4762620">
        <ele>1475.9</ele>
        <time>2020-11-11T13:36:41Z</time>
      </trkpt>
      <trkpt lat="28.3805750" lon="-16.4763400">
        <ele>1475.9</ele>
        <time>2020-11-11T13:36:42Z</time>
      </trkpt>
      <trkpt lat="28.3805750" lon="-16.4763400">
        <ele>1474.9</ele>
        <time>2020-11-11T13:36:43Z</time>
      </trkpt>
      <trkpt lat="28.3806020" lon="-16.4764200">
        <ele>1474.9</ele>
        <time>2020-11-11T13:36:44Z</time>
      </trkpt>
      <trkpt lat="28.3806020" lon="-16.4764200">
        <ele>1473.9</ele>
        <time>2020-11-11T13:36:45Z</time>
      </trkpt>
      <trkpt lat="28.3806120" lon="-16.4765430">
        <ele>1473.9</ele>
        <time>2020-11-11T13:36:46Z</time>
      </trkpt>
      <trkpt lat="28.3806230" lon="-16.4765950">
        <ele>1472.9</ele>
        <time>2020-11-11T13:36:47Z</time>
      </trkpt>
      <trkpt lat="28.3806230" lon="-16.4765950">
        <ele>1472.9</ele>
        <time>2020-11-11T13:36:48Z</time>
      </trkpt>
      <trkpt lat="28.3806520" lon="-16.4766770">
        <ele>1471.9</ele>
        <time>2020-11-11T13:36:49Z</time>
      </trkpt>
      <trkpt lat="28.3806700" lon="-16.4767350">
        <ele>1471.9</ele>
        <time>2020-11-11T13:36:50Z</time>
      </trkpt>
      <trkpt lat="28.3806700" lon="-16.4767350">
        <ele>1470.9</ele>
        <time>2020-11-11T13:36:51Z</time>
      </trkpt>
      <trkpt lat="28.3807050" lon="-16.4768320">
        <ele>1470.9</ele>
        <time>2020-11-11T13:36:52Z</time>
      </trkpt>
      <trkpt lat="28.3807150" lon="-16.4768770">
        <ele>1470.9</ele>
        <time>2020-11-11T13:36:53Z</time>
      </trkpt>
      <trkpt lat="28.3807150" lon="-16.4768770">
        <ele>1470.9</ele>
        <time>2020-11-11T13:36:54Z</time>
      </trkpt>
      <trkpt lat="28.3807170" lon="-16.4769630">
        <ele>1469.9</ele>
        <time>2020-11-11T13:36:55Z</time>
      </trkpt>
      <trkpt lat="28.3807120" lon="-16.4770150">
        <ele>1468.9</ele>
        <time>2020-11-11T13:36:56Z</time>
      </trkpt>
      <trkpt lat="28.3807120" lon="-16.4770150">
        <ele>1468.9</ele>
        <time>2020-11-11T13:36:57Z</time>
      </trkpt>
      <trkpt lat="28.3806920" lon="-16.4771170">
        <ele>1467.9</ele>
        <time>2020-11-11T13:36:58Z</time>
      </trkpt>
      <trkpt lat="28.3807020" lon="-16.4771770">
        <ele>1467.9</ele>
        <time>2020-11-11T13:36:59Z</time>
      </trkpt>
      <trkpt lat="28.3807020" lon="-16.4771770">
        <ele>1466.9</ele>
        <time>2020-11-11T13:37:00Z</time>
      </trkpt>
      <trkpt lat="28.3807100" lon="-16.4772820">
        <ele>1466.9</ele>
        <time>2020-11-11T13:37:01Z</time>
      </trkpt>
      <trkpt lat="28.3807100" lon="-16.4772820">
        <ele>1465.9</ele>
        <time>2020-11-11T13:37:02Z</time>
      </trkpt>
      <trkpt lat="28.3806720" lon="-16.4773500">
        <ele>1465.9</ele>
        <time>2020-11-11T13:37:03Z</time>
      </trkpt>
      <trkpt lat="28.3806720" lon="-16.4773500">
        <ele>1465.9</ele>
        <time>2020-11-11T13:37:04Z</time>
      </trkpt>
      <trkpt lat="28.3805920" lon="-16.4773900">
        <ele>1464.9</ele>
        <time>2020-11-11T13:37:05Z</time>
      </trkpt>
      <trkpt lat="28.3805420" lon="-16.4773850">
        <ele>1464.9</ele>
        <time>2020-11-11T13:37:06Z</time>
      </trkpt>
      <trkpt lat="28.3805420" lon="-16.4773850">
        <ele>1463.9</ele>
        <time>2020-11-11T13:37:07Z</time>
      </trkpt>
      <trkpt lat="28.3804700" lon="-16.4774150">
        <ele>1463.9</ele>
        <time>2020-11-11T13:37:08Z</time>
      </trkpt>
      <trkpt lat="28.3804700" lon="-16.4774150">
        <ele>1462.9</ele>
        <time>2020-11-11T13:37:09Z</time>
      </trkpt>
      <trkpt lat="28.3804020" lon="-16.4774130">
        <ele>1462.9</ele>
        <time>2020-11-11T13:37:10Z</time>
      </trkpt>
      <trkpt lat="28.3803620" lon="-16.4774170">
        <ele>1461.9</ele>
        <time>2020-11-11T13:37:11Z</time>
      </trkpt>
      <trkpt lat="28.3803620" lon="-16.4774170">
        <ele>1461.9</ele>
        <time>2020-11-11T13:37:12Z</time>
      </trkpt>
      <trkpt lat="28.3802650" lon="-16.4774230">
        <ele>1461.9</ele>
        <time>2020-11-11T13:37:13Z</time>
      </trkpt>
      <trkpt lat="28.3802650" lon="-16.4774230">
        <ele>1461.9</ele>
        <time>2020-11-11T13:37:14Z</time>
      </trkpt>
      <trkpt lat="28.3801470" lon="-16.4774420">
        <ele>1460.9</ele>
        <time>2020-11-11T13:37:15Z</time>
      </trkpt>
      <trkpt lat="28.3801470" lon="-16.4774420">
        <ele>1460.9</ele>
        <time>2020-11-11T13:37:16Z</time>
      </trkpt>
      <trkpt lat="28.3799780" lon="-16.4774570">
        <ele>1458.9</ele>
        <time>2020-11-11T13:37:17Z</time>
      </trkpt>
      <trkpt lat="28.3799780" lon="-16.4774570">
        <ele>1458.9</ele>
        <time>2020-11-11T13:37:18Z</time>
      </trkpt>
      <trkpt lat="28.3798880" lon="-16.4774470">
        <ele>1457.9</ele>
        <time>2020-11-11T13:37:19Z</time>
      </trkpt>
      <trkpt lat="28.3798880" lon="-16.4774470">
        <ele>1457.9</ele>
        <time>2020-11-11T13:37:20Z</time>
      </trkpt>
      <trkpt lat="28.3798230" lon="-16.4774820">
        <ele>1456.9</ele>
        <time>2020-11-11T13:37:21Z</time>
      </trkpt>
      <trkpt lat="28.3798230" lon="-16.4774820">
        <ele>1456.9</ele>
        <time>2020-11-11T13:37:22Z</time>
      </trkpt>
      <trkpt lat="28.3797800" lon="-16.4775180">
        <ele>1455.9</ele>
        <time>2020-11-11T13:37:23Z</time>
      </trkpt>
      <trkpt lat="28.3797800" lon="-16.4775180">
        <ele>1455.9</ele>
        <time>2020-11-11T13:37:24Z</time>
      </trkpt>
      <trkpt lat="28.3797780" lon="-16.4775480">
        <ele>1454.9</ele>
        <time>2020-11-11T13:37:25Z</time>
      </trkpt>
      <trkpt lat="28.3797830" lon="-16.4775580">
        <ele>1454.9</ele>
        <time>2020-11-11T13:37:26Z</time>
      </trkpt>
      <trkpt lat="28.3797830" lon="-16.4775580">
        <ele>1454.9</ele>
        <time>2020-11-11T13:37:27Z</time>
      </trkpt>
      <trkpt lat="28.3798000" lon="-16.4776080">
        <ele>1454.9</ele>
        <time>2020-11-11T13:37:28Z</time>
      </trkpt>
      <trkpt lat="28.3798000" lon="-16.4776080">
        <ele>1453.9</ele>
        <time>2020-11-11T13:37:29Z</time>
      </trkpt>
      <trkpt lat="28.3798430" lon="-16.4776700">
        <ele>1453.9</ele>
        <time>2020-11-11T13:37:30Z</time>
      </trkpt>
      <trkpt lat="28.3798700" lon="-16.4777030">
        <ele>1453.9</ele>
        <time>2020-11-11T13:37:31Z</time>
      </trkpt>
      <trkpt lat="28.3798700" lon="-16.4777030">
        <ele>1453.9</ele>
        <time>2020-11-11T13:37:32Z</time>
      </trkpt>
      <trkpt lat="28.3799300" lon="-16.4777800">
        <ele>1452.9</ele>
        <time>2020-11-11T13:37:33Z</time>
      </trkpt>
      <trkpt lat="28.3799300" lon="-16.4777800">
        <ele>1451.9</ele>
        <time>2020-11-11T13:37:34Z</time>
      </trkpt>
      <trkpt lat="28.3799750" lon="-16.4778570">
        <ele>1451.9</ele>
        <time>2020-11-11T13:37:35Z</time>
      </trkpt>
      <trkpt lat="28.3799750" lon="-16.4778570">
        <ele>1450.9</ele>
        <time>2020-11-11T13:37:36Z</time>
      </trkpt>
      <trkpt lat="28.3800350" lon="-16.4779500">
        <ele>1450.9</ele>
        <time>2020-11-11T13:37:37Z</time>
      </trkpt>
      <trkpt lat="28.3800350" lon="-16.4779500">
        <ele>1449.9</ele>
        <time>2020-11-11T13:37:38Z</time>
      </trkpt>
      <trkpt lat="28.3800850" lon="-16.4780370">
        <ele>1449.9</ele>
        <time>2020-11-11T13:37:39Z</time>
      </trkpt>
      <trkpt lat="28.3800850" lon="-16.4780370">
        <ele>1449.9</ele>
        <time>2020-11-11T13:37:40Z</time>
      </trkpt>
      <trkpt lat="28.3801470" lon="-16.4781280">
        <ele>1449.9</ele>
        <time>2020-11-11T13:37:41Z</time>
      </trkpt>
      <trkpt lat="28.3801720" lon="-16.4781820">
        <ele>1448.9</ele>
        <time>2020-11-11T13:37:42Z</time>
      </trkpt>
      <trkpt lat="28.3801720" lon="-16.4781820">
        <ele>1448.9</ele>
        <time>2020-11-11T13:37:43Z</time>
      </trkpt>
      <trkpt lat="28.3802070" lon="-16.4782830">
        <ele>1448.9</ele>
        <time>2020-11-11T13:37:44Z</time>
      </trkpt>
      <trkpt lat="28.3802070" lon="-16.4782830">
        <ele>1448.9</ele>
        <time>2020-11-11T13:37:45Z</time>
      </trkpt>
      <trkpt lat="28.3802370" lon="-16.4783680">
        <ele>1448.9</ele>
        <time>2020-11-11T13:37:46Z</time>
      </trkpt>
      <trkpt lat="28.3802370" lon="-16.4783680">
        <ele>1448.9</ele>
        <time>2020-11-11T13:37:47Z</time>
      </trkpt>
      <trkpt lat="28.3802620" lon="-16.4784400">
        <ele>1447.9</ele>
        <time>2020-11-11T13:37:48Z</time>
      </trkpt>
      <trkpt lat="28.3802700" lon="-16.4784680">
        <ele>1447.9</ele>
        <time>2020-11-11T13:37:49Z</time>
      </trkpt>
      <trkpt lat="28.3802700" lon="-16.4784680">
        <ele>1447.9</ele>
        <time>2020-11-11T13:37:50Z</time>
      </trkpt>
      <trkpt lat="28.3802750" lon="-16.4785200">
        <ele>1447.9</ele>
        <time>2020-11-11T13:37:51Z</time>
      </trkpt>
      <trkpt lat="28.3802750" lon="-16.4785200">
        <ele>1446.9</ele>
        <time>2020-11-11T13:37:52Z</time>
      </trkpt>
      <trkpt lat="28.3802780" lon="-16.4785320">
        <ele>1446.9</ele>
        <time>2020-11-11T13:37:53Z</time>
      </trkpt>
      <trkpt lat="28.3802780" lon="-16.4785320">
        <ele>1446.9</ele>
        <time>2020-11-11T13:37:54Z</time>
      </trkpt>
      <trkpt lat="28.3803580" lon="-16.4785880">
        <ele>1446.9</ele>
        <time>2020-11-11T13:38:02Z</time>
      </trkpt>
      <trkpt lat="28.3803700" lon="-16.4785850">
        <ele>1446.9</ele>
        <time>2020-11-11T13:38:03Z</time>
      </trkpt>
      <trkpt lat="28.3803700" lon="-16.4785850">
        <ele>1445.9</ele>
        <time>2020-11-11T13:38:04Z</time>
      </trkpt>
      <trkpt lat="28.3803750" lon="-16.4785830">
        <ele>1445.9</ele>
        <time>2020-11-11T13:38:05Z</time>
      </trkpt>
      <trkpt lat="28.3803750" lon="-16.4785830">
        <ele>1445.9</ele>
        <time>2020-11-11T13:38:35Z</time>
      </trkpt>
      <trkpt lat="28.3803750" lon="-16.4785830">
        <ele>1445.9</ele>
        <time>2020-11-11T13:38:36Z</time>
      </trkpt>
      <trkpt lat="28.3804070" lon="-16.4785570">
        <ele>1445.9</ele>
        <time>2020-11-11T13:38:37Z</time>
      </trkpt>
      <trkpt lat="28.3804070" lon="-16.4785570">
        <ele>1445.9</ele>
        <time>2020-11-11T13:38:51Z</time>
      </trkpt>
      <trkpt lat="28.3804070" lon="-16.4785570">
        <ele>1445.9</ele>
        <time>2020-11-11T13:38:52Z</time>
      </trkpt>
      <trkpt lat="28.3804120" lon="-16.4785050">
        <ele>1445.9</ele>
        <time>2020-11-11T13:38:53Z</time>
      </trkpt>
      <trkpt lat="28.3804120" lon="-16.4785050">
        <ele>1445.9</ele>
        <time>2020-11-11T13:38:54Z</time>
      </trkpt>
      <trkpt lat="28.3804150" lon="-16.4785030">
        <ele>1445.9</ele>
        <time>2020-11-11T13:38:55Z</time>
      </trkpt>
      <trkpt lat="28.3804150" lon="-16.4785030">
        <ele>1445.9</ele>
        <time>2020-11-11T13:39:02Z</time>
      </trkpt>
      <trkpt lat="28.3804250" lon="-16.4783570">
        <ele>1445.9</ele>
        <time>2020-11-11T13:39:03Z</time>
      </trkpt>
      <trkpt lat="28.3804250" lon="-16.4783570">
        <ele>1445.9</ele>
        <time>2020-11-11T13:39:04Z</time>
      </trkpt>
      <trkpt lat="28.3804070" lon="-16.4783070">
        <ele>1445.9</ele>
        <time>2020-11-11T13:39:05Z</time>
      </trkpt>
      <trkpt lat="28.3804070" lon="-16.4783070">
        <ele>1444.9</ele>
        <time>2020-11-11T13:39:06Z</time>
      </trkpt>
      <trkpt lat="28.3803830" lon="-16.4782700">
        <ele>1444.9</ele>
        <time>2020-11-11T13:39:07Z</time>
      </trkpt>
      <trkpt lat="28.3803830" lon="-16.4782700">
        <ele>1444.9</ele>
        <time>2020-11-11T13:39:08Z</time>
      </trkpt>
      <trkpt lat="28.3803580" lon="-16.4782070">
        <ele>1444.9</ele>
        <time>2020-11-11T13:39:09Z</time>
      </trkpt>
      <trkpt lat="28.3803580" lon="-16.4782070">
        <ele>1444.9</ele>
        <time>2020-11-11T13:39:10Z</time>
      </trkpt>
      <trkpt lat="28.3803630" lon="-16.4781370">
        <ele>1443.9</ele>
        <time>2020-11-11T13:39:11Z</time>
      </trkpt>
      <trkpt lat="28.3803630" lon="-16.4781370">
        <ele>1443.9</ele>
        <time>2020-11-11T13:39:12Z</time>
      </trkpt>
      <trkpt lat="28.3803870" lon="-16.4781000">
        <ele>1443.9</ele>
        <time>2020-11-11T13:39:13Z</time>
      </trkpt>
      <trkpt lat="28.3803980" lon="-16.4781000">
        <ele>1443.9</ele>
        <time>2020-11-11T13:39:14Z</time>
      </trkpt>
      <trkpt lat="28.3803980" lon="-16.4781000">
        <ele>1443.9</ele>
        <time>2020-11-11T13:39:15Z</time>
      </trkpt>
      <trkpt lat="28.3804100" lon="-16.4780770">
        <ele>1443.9</ele>
        <time>2020-11-11T13:39:16Z</time>
      </trkpt>
      <trkpt lat="28.3804100" lon="-16.4780770">
        <ele>1443.9</ele>
        <time>2020-11-11T13:39:17Z</time>
      </trkpt>
      <trkpt lat="28.3804380" lon="-16.4780800">
        <ele>1443.9</ele>
        <time>2020-11-11T13:39:18Z</time>
      </trkpt>
      <trkpt lat="28.3804500" lon="-16.4780830">
        <ele>1443.9</ele>
        <time>2020-11-11T13:39:19Z</time>
      </trkpt>
      <trkpt lat="28.3804500" lon="-16.4780830">
        <ele>1443.9</ele>
        <time>2020-11-11T13:39:20Z</time>
      </trkpt>
      <trkpt lat="28.3804580" lon="-16.4780650">
        <ele>1444.9</ele>
        <time>2020-11-11T13:39:21Z</time>
      </trkpt>
      <trkpt lat="28.3804580" lon="-16.4780650">
        <ele>1444.9</ele>
        <time>2020-11-11T13:39:22Z</time>
      </trkpt>
      <trkpt lat="28.3804820" lon="-16.4780550">
        <ele>1444.9</ele>
        <time>2020-11-11T13:39:23Z</time>
      </trkpt>
      <trkpt lat="28.3804920" lon="-16.4780550">
        <ele>1444.9</ele>
        <time>2020-11-11T13:39:24Z</time>
      </trkpt>
      <trkpt lat="28.3804920" lon="-16.4780550">
        <ele>1444.9</ele>
        <time>2020-11-11T13:39:25Z</time>
      </trkpt>
      <trkpt lat="28.3805220" lon="-16.4780570">
        <ele>1444.9</ele>
        <time>2020-11-11T13:39:26Z</time>
      </trkpt>
      <trkpt lat="28.3805220" lon="-16.4780570">
        <ele>1445.9</ele>
        <time>2020-11-11T13:39:27Z</time>
      </trkpt>
      <trkpt lat="28.3805550" lon="-16.4780570">
        <ele>1445.9</ele>
        <time>2020-11-11T13:39:28Z</time>
      </trkpt>
      <trkpt lat="28.3805550" lon="-16.4780570">
        <ele>1445.9</ele>
        <time>2020-11-11T13:39:29Z</time>
      </trkpt>
      <trkpt lat="28.3805880" lon="-16.4780650">
        <ele>1445.9</ele>
        <time>2020-11-11T13:39:30Z</time>
      </trkpt>
      <trkpt lat="28.3805880" lon="-16.4780650">
        <ele>1445.9</ele>
        <time>2020-11-11T13:39:31Z</time>
      </trkpt>
      <trkpt lat="28.3806130" lon="-16.4780770">
        <ele>1445.9</ele>
        <time>2020-11-11T13:39:32Z</time>
      </trkpt>
      <trkpt lat="28.3806130" lon="-16.4780770">
        <ele>1445.9</ele>
        <time>2020-11-11T13:39:33Z</time>
      </trkpt>
      <trkpt lat="28.3806400" lon="-16.4781000">
        <ele>1445.9</ele>
        <time>2020-11-11T13:39:34Z</time>
      </trkpt>
      <trkpt lat="28.3806400" lon="-16.4781000">
        <ele>1445.9</ele>
        <time>2020-11-11T13:39:35Z</time>
      </trkpt>
      <trkpt lat="28.3806650" lon="-16.4781230">
        <ele>1445.9</ele>
        <time>2020-11-11T13:39:36Z</time>
      </trkpt>
      <trkpt lat="28.3806650" lon="-16.4781230">
        <ele>1445.9</ele>
        <time>2020-11-11T13:39:37Z</time>
      </trkpt>
      <trkpt lat="28.3806920" lon="-16.4781450">
        <ele>1445.9</ele>
        <time>2020-11-11T13:39:38Z</time>
      </trkpt>
      <trkpt lat="28.3806920" lon="-16.4781450">
        <ele>1445.9</ele>
        <time>2020-11-11T13:39:39Z</time>
      </trkpt>
      <trkpt lat="28.3807200" lon="-16.4781720">
        <ele>1445.9</ele>
        <time>2020-11-11T13:39:40Z</time>
      </trkpt>
      <trkpt lat="28.3807200" lon="-16.4781720">
        <ele>1445.9</ele>
        <time>2020-11-11T13:39:41Z</time>
      </trkpt>
      <trkpt lat="28.3807530" lon="-16.4781900">
        <ele>1445.9</ele>
        <time>2020-11-11T13:39:42Z</time>
      </trkpt>
      <trkpt lat="28.3807720" lon="-16.4781970">
        <ele>1445.9</ele>
        <time>2020-11-11T13:39:43Z</time>
      </trkpt>
      <trkpt lat="28.3807720" lon="-16.4781970">
        <ele>1445.9</ele>
        <time>2020-11-11T13:39:44Z</time>
      </trkpt>
      <trkpt lat="28.3808170" lon="-16.4782070">
        <ele>1445.9</ele>
        <time>2020-11-11T13:39:45Z</time>
      </trkpt>
      <trkpt lat="28.3808420" lon="-16.4782150">
        <ele>1445.9</ele>
        <time>2020-11-11T13:39:46Z</time>
      </trkpt>
      <trkpt lat="28.3808420" lon="-16.4782150">
        <ele>1445.9</ele>
        <time>2020-11-11T13:39:47Z</time>
      </trkpt>
      <trkpt lat="28.3808900" lon="-16.4782400">
        <ele>1445.9</ele>
        <time>2020-11-11T13:39:48Z</time>
      </trkpt>
      <trkpt lat="28.3808900" lon="-16.4782400">
        <ele>1445.9</ele>
        <time>2020-11-11T13:39:49Z</time>
      </trkpt>
      <trkpt lat="28.3809400" lon="-16.4782600">
        <ele>1445.9</ele>
        <time>2020-11-11T13:39:50Z</time>
      </trkpt>
      <trkpt lat="28.3809400" lon="-16.4782600">
        <ele>1445.9</ele>
        <time>2020-11-11T13:39:51Z</time>
      </trkpt>
      <trkpt lat="28.3810070" lon="-16.4782800">
        <ele>1445.9</ele>
        <time>2020-11-11T13:39:52Z</time>
      </trkpt>
      <trkpt lat="28.3810070" lon="-16.4782800">
        <ele>1445.9</ele>
        <time>2020-11-11T13:39:53Z</time>
      </trkpt>
      <trkpt lat="28.3810780" lon="-16.4782900">
        <ele>1445.9</ele>
        <time>2020-11-11T13:39:54Z</time>
      </trkpt>
      <trkpt lat="28.3811080" lon="-16.4782930">
        <ele>1445.9</ele>
        <time>2020-11-11T13:39:55Z</time>
      </trkpt>
      <trkpt lat="28.3811080" lon="-16.4782930">
        <ele>1445.9</ele>
        <time>2020-11-11T13:39:56Z</time>
      </trkpt>
      <trkpt lat="28.3811700" lon="-16.4782970">
        <ele>1445.9</ele>
        <time>2020-11-11T13:39:57Z</time>
      </trkpt>
      <trkpt lat="28.3812020" lon="-16.4783000">
        <ele>1445.9</ele>
        <time>2020-11-11T13:39:58Z</time>
      </trkpt>
      <trkpt lat="28.3812020" lon="-16.4783000">
        <ele>1445.9</ele>
        <time>2020-11-11T13:39:59Z</time>
      </trkpt>
      <trkpt lat="28.3812530" lon="-16.4783150">
        <ele>1445.9</ele>
        <time>2020-11-11T13:40:00Z</time>
      </trkpt>
      <trkpt lat="28.3812530" lon="-16.4783150">
        <ele>1445.9</ele>
        <time>2020-11-11T13:40:01Z</time>
      </trkpt>
      <trkpt lat="28.3812880" lon="-16.4783180">
        <ele>1445.9</ele>
        <time>2020-11-11T13:40:02Z</time>
      </trkpt>
      <trkpt lat="28.3812880" lon="-16.4783180">
        <ele>1445.9</ele>
        <time>2020-11-11T13:40:03Z</time>
      </trkpt>
      <trkpt lat="28.3813170" lon="-16.4783150">
        <ele>1445.9</ele>
        <time>2020-11-11T13:40:04Z</time>
      </trkpt>
      <trkpt lat="28.3813170" lon="-16.4783150">
        <ele>1445.9</ele>
        <time>2020-11-11T13:40:05Z</time>
      </trkpt>
      <trkpt lat="28.3813650" lon="-16.4783070">
        <ele>1445.9</ele>
        <time>2020-11-11T13:40:06Z</time>
      </trkpt>
      <trkpt lat="28.3813920" lon="-16.4783000">
        <ele>1445.9</ele>
        <time>2020-11-11T13:40:07Z</time>
      </trkpt>
      <trkpt lat="28.3813920" lon="-16.4783000">
        <ele>1445.9</ele>
        <time>2020-11-11T13:40:08Z</time>
      </trkpt>
      <trkpt lat="28.3814550" lon="-16.4783220">
        <ele>1444.9</ele>
        <time>2020-11-11T13:40:09Z</time>
      </trkpt>
      <trkpt lat="28.3814550" lon="-16.4783220">
        <ele>1444.9</ele>
        <time>2020-11-11T13:40:10Z</time>
      </trkpt>
      <trkpt lat="28.3815250" lon="-16.4783770">
        <ele>1444.9</ele>
        <time>2020-11-11T13:40:11Z</time>
      </trkpt>
      <trkpt lat="28.3815450" lon="-16.4784080">
        <ele>1444.9</ele>
        <time>2020-11-11T13:40:12Z</time>
      </trkpt>
      <trkpt lat="28.3815450" lon="-16.4784080">
        <ele>1443.9</ele>
        <time>2020-11-11T13:40:13Z</time>
      </trkpt>
      <trkpt lat="28.3815580" lon="-16.4784720">
        <ele>1443.9</ele>
        <time>2020-11-11T13:40:14Z</time>
      </trkpt>
      <trkpt lat="28.3815580" lon="-16.4784720">
        <ele>1442.9</ele>
        <time>2020-11-11T13:40:15Z</time>
      </trkpt>
      <trkpt lat="28.3815450" lon="-16.4785180">
        <ele>1442.9</ele>
        <time>2020-11-11T13:40:16Z</time>
      </trkpt>
      <trkpt lat="28.3815450" lon="-16.4785180">
        <ele>1441.9</ele>
        <time>2020-11-11T13:40:17Z</time>
      </trkpt>
      <trkpt lat="28.3815180" lon="-16.4785500">
        <ele>1441.9</ele>
        <time>2020-11-11T13:40:18Z</time>
      </trkpt>
      <trkpt lat="28.3815180" lon="-16.4785500">
        <ele>1441.9</ele>
        <time>2020-11-11T13:40:19Z</time>
      </trkpt>
      <trkpt lat="28.3814670" lon="-16.4785700">
        <ele>1441.9</ele>
        <time>2020-11-11T13:40:20Z</time>
      </trkpt>
      <trkpt lat="28.3814380" lon="-16.4785780">
        <ele>1440.9</ele>
        <time>2020-11-11T13:40:21Z</time>
      </trkpt>
      <trkpt lat="28.3814380" lon="-16.4785780">
        <ele>1440.9</ele>
        <time>2020-11-11T13:40:22Z</time>
      </trkpt>
      <trkpt lat="28.3813520" lon="-16.4785920">
        <ele>1440.9</ele>
        <time>2020-11-11T13:40:23Z</time>
      </trkpt>
      <trkpt lat="28.3813520" lon="-16.4785920">
        <ele>1440.9</ele>
        <time>2020-11-11T13:40:24Z</time>
      </trkpt>
      <trkpt lat="28.3812730" lon="-16.4785850">
        <ele>1439.9</ele>
        <time>2020-11-11T13:40:25Z</time>
      </trkpt>
      <trkpt lat="28.3812730" lon="-16.4785850">
        <ele>1439.9</ele>
        <time>2020-11-11T13:40:26Z</time>
      </trkpt>
      <trkpt lat="28.3811880" lon="-16.4785670">
        <ele>1439.9</ele>
        <time>2020-11-11T13:40:27Z</time>
      </trkpt>
      <trkpt lat="28.3811400" lon="-16.4785570">
        <ele>1439.9</ele>
        <time>2020-11-11T13:40:28Z</time>
      </trkpt>
      <trkpt lat="28.3811400" lon="-16.4785570">
        <ele>1437.9</ele>
        <time>2020-11-11T13:40:29Z</time>
      </trkpt>
      <trkpt lat="28.3810530" lon="-16.4785180">
        <ele>1437.9</ele>
        <time>2020-11-11T13:40:30Z</time>
      </trkpt>
      <trkpt lat="28.3810130" lon="-16.4785100">
        <ele>1437.9</ele>
        <time>2020-11-11T13:40:31Z</time>
      </trkpt>
      <trkpt lat="28.3810130" lon="-16.4785100">
        <ele>1437.9</ele>
        <time>2020-11-11T13:40:32Z</time>
      </trkpt>
      <trkpt lat="28.3809320" lon="-16.4785000">
        <ele>1436.9</ele>
        <time>2020-11-11T13:40:33Z</time>
      </trkpt>
      <trkpt lat="28.3808980" lon="-16.4784930">
        <ele>1436.9</ele>
        <time>2020-11-11T13:40:34Z</time>
      </trkpt>
      <trkpt lat="28.3808650" lon="-16.4784870">
        <ele>1436.9</ele>
        <time>2020-11-11T13:40:35Z</time>
      </trkpt>
      <trkpt lat="28.3808650" lon="-16.4784870">
        <ele>1435.9</ele>
        <time>2020-11-11T13:40:36Z</time>
      </trkpt>
      <trkpt lat="28.3808070" lon="-16.4784730">
        <ele>1435.9</ele>
        <time>2020-11-11T13:40:37Z</time>
      </trkpt>
      <trkpt lat="28.3808070" lon="-16.4784730">
        <ele>1434.9</ele>
        <time>2020-11-11T13:40:38Z</time>
      </trkpt>
      <trkpt lat="28.3807520" lon="-16.4784780">
        <ele>1434.9</ele>
        <time>2020-11-11T13:40:39Z</time>
      </trkpt>
      <trkpt lat="28.3807520" lon="-16.4784780">
        <ele>1432.9</ele>
        <time>2020-11-11T13:40:40Z</time>
      </trkpt>
      <trkpt lat="28.3807170" lon="-16.4785170">
        <ele>1432.9</ele>
        <time>2020-11-11T13:40:41Z</time>
      </trkpt>
      <trkpt lat="28.3807020" lon="-16.4785380">
        <ele>1432.9</ele>
        <time>2020-11-11T13:40:42Z</time>
      </trkpt>
      <trkpt lat="28.3807020" lon="-16.4785380">
        <ele>1432.9</ele>
        <time>2020-11-11T13:40:43Z</time>
      </trkpt>
      <trkpt lat="28.3806980" lon="-16.4785820">
        <ele>1431.9</ele>
        <time>2020-11-11T13:40:44Z</time>
      </trkpt>
      <trkpt lat="28.3806980" lon="-16.4785820">
        <ele>1431.9</ele>
        <time>2020-11-11T13:40:45Z</time>
      </trkpt>
      <trkpt lat="28.3807120" lon="-16.4786370">
        <ele>1431.9</ele>
        <time>2020-11-11T13:40:46Z</time>
      </trkpt>
      <trkpt lat="28.3807200" lon="-16.4786630">
        <ele>1431.9</ele>
        <time>2020-11-11T13:40:47Z</time>
      </trkpt>
      <trkpt lat="28.3807200" lon="-16.4786630">
        <ele>1431.9</ele>
        <time>2020-11-11T13:40:48Z</time>
      </trkpt>
      <trkpt lat="28.3807250" lon="-16.4787220">
        <ele>1431.9</ele>
        <time>2020-11-11T13:40:49Z</time>
      </trkpt>
      <trkpt lat="28.3807350" lon="-16.4787630">
        <ele>1431.9</ele>
        <time>2020-11-11T13:40:50Z</time>
      </trkpt>
      <trkpt lat="28.3807350" lon="-16.4787630">
        <ele>1431.9</ele>
        <time>2020-11-11T13:40:51Z</time>
      </trkpt>
      <trkpt lat="28.3807520" lon="-16.4788600">
        <ele>1431.9</ele>
        <time>2020-11-11T13:40:52Z</time>
      </trkpt>
      <trkpt lat="28.3807770" lon="-16.4789180">
        <ele>1431.9</ele>
        <time>2020-11-11T13:40:53Z</time>
      </trkpt>
      <trkpt lat="28.3807770" lon="-16.4789180">
        <ele>1431.9</ele>
        <time>2020-11-11T13:40:54Z</time>
      </trkpt>
      <trkpt lat="28.3807770" lon="-16.4789870">
        <ele>1431.9</ele>
        <time>2020-11-11T13:40:55Z</time>
      </trkpt>
      <trkpt lat="28.3807770" lon="-16.4789870">
        <ele>1431.9</ele>
        <time>2020-11-11T13:40:56Z</time>
      </trkpt>
      <trkpt lat="28.3807770" lon="-16.4790230">
        <ele>1429.9</ele>
        <time>2020-11-11T13:40:57Z</time>
      </trkpt>
      <trkpt lat="28.3807770" lon="-16.4790230">
        <ele>1429.9</ele>
        <time>2020-11-11T13:40:58Z</time>
      </trkpt>
      <trkpt lat="28.3807880" lon="-16.4790700">
        <ele>1429.9</ele>
        <time>2020-11-11T13:40:59Z</time>
      </trkpt>
      <trkpt lat="28.3807880" lon="-16.4790700">
        <ele>1428.9</ele>
        <time>2020-11-11T13:41:00Z</time>
      </trkpt>
      <trkpt lat="28.3807930" lon="-16.4791000">
        <ele>1428.9</ele>
        <time>2020-11-11T13:41:01Z</time>
      </trkpt>
      <trkpt lat="28.3807930" lon="-16.4791000">
        <ele>1428.9</ele>
        <time>2020-11-11T13:41:02Z</time>
      </trkpt>
      <trkpt lat="28.3807900" lon="-16.4791270">
        <ele>1428.9</ele>
        <time>2020-11-11T13:41:03Z</time>
      </trkpt>
      <trkpt lat="28.3807900" lon="-16.4791270">
        <ele>1428.9</ele>
        <time>2020-11-11T13:41:04Z</time>
      </trkpt>
      <trkpt lat="28.3807880" lon="-16.4791350">
        <ele>1427.9</ele>
        <time>2020-11-11T13:41:05Z</time>
      </trkpt>
      <trkpt lat="28.3807880" lon="-16.4791350">
        <ele>1427.9</ele>
        <time>2020-11-11T13:41:06Z</time>
      </trkpt>
      <trkpt lat="28.3807880" lon="-16.4791350">
        <ele>1427.9</ele>
        <time>2020-11-11T13:41:18Z</time>
      </trkpt>
      <trkpt lat="28.3807650" lon="-16.4791580">
        <ele>1427.9</ele>
        <time>2020-11-11T13:41:19Z</time>
      </trkpt>
      <trkpt lat="28.3807600" lon="-16.4791530">
        <ele>1427.9</ele>
        <time>2020-11-11T13:41:20Z</time>
      </trkpt>
      <trkpt lat="28.3807600" lon="-16.4791530">
        <ele>1427.9</ele>
        <time>2020-11-11T13:41:21Z</time>
      </trkpt>
      <trkpt lat="28.3807500" lon="-16.4791450">
        <ele>1427.9</ele>
        <time>2020-11-11T13:41:22Z</time>
      </trkpt>
      <trkpt lat="28.3807430" lon="-16.4791380">
        <ele>1427.9</ele>
        <time>2020-11-11T13:41:23Z</time>
      </trkpt>
      <trkpt lat="28.3807430" lon="-16.4791380">
        <ele>1427.9</ele>
        <time>2020-11-11T13:41:24Z</time>
      </trkpt>
      <trkpt lat="28.3807170" lon="-16.4791270">
        <ele>1427.9</ele>
        <time>2020-11-11T13:41:25Z</time>
      </trkpt>
      <trkpt lat="28.3806920" lon="-16.4791220">
        <ele>1427.9</ele>
        <time>2020-11-11T13:41:26Z</time>
      </trkpt>
      <trkpt lat="28.3806920" lon="-16.4791220">
        <ele>1427.9</ele>
        <time>2020-11-11T13:41:27Z</time>
      </trkpt>
      <trkpt lat="28.3805980" lon="-16.4791080">
        <ele>1427.9</ele>
        <time>2020-11-11T13:41:28Z</time>
      </trkpt>
      <trkpt lat="28.3805980" lon="-16.4791080">
        <ele>1427.9</ele>
        <time>2020-11-11T13:41:29Z</time>
      </trkpt>
      <trkpt lat="28.3805070" lon="-16.4790980">
        <ele>1427.9</ele>
        <time>2020-11-11T13:41:30Z</time>
      </trkpt>
      <trkpt lat="28.3804720" lon="-16.4790850">
        <ele>1425.9</ele>
        <time>2020-11-11T13:41:31Z</time>
      </trkpt>
      <trkpt lat="28.3804720" lon="-16.4790850">
        <ele>1425.9</ele>
        <time>2020-11-11T13:41:32Z</time>
      </trkpt>
      <trkpt lat="28.3803800" lon="-16.4790500">
        <ele>1425.9</ele>
        <time>2020-11-11T13:41:33Z</time>
      </trkpt>
      <trkpt lat="28.3803800" lon="-16.4790500">
        <ele>1425.9</ele>
        <time>2020-11-11T13:41:34Z</time>
      </trkpt>
      <trkpt lat="28.3802880" lon="-16.4789970">
        <ele>1425.9</ele>
        <time>2020-11-11T13:41:35Z</time>
      </trkpt>
      <trkpt lat="28.3802880" lon="-16.4789970">
        <ele>1425.9</ele>
        <time>2020-11-11T13:41:36Z</time>
      </trkpt>
      <trkpt lat="28.3801850" lon="-16.4789530">
        <ele>1424.9</ele>
        <time>2020-11-11T13:41:37Z</time>
      </trkpt>
      <trkpt lat="28.3801850" lon="-16.4789530">
        <ele>1424.9</ele>
        <time>2020-11-11T13:41:38Z</time>
      </trkpt>
      <trkpt lat="28.3800670" lon="-16.4789100">
        <ele>1424.9</ele>
        <time>2020-11-11T13:41:39Z</time>
      </trkpt>
      <trkpt lat="28.3800670" lon="-16.4789100">
        <ele>1424.9</ele>
        <time>2020-11-11T13:41:40Z</time>
      </trkpt>
      <trkpt lat="28.3799630" lon="-16.4788650">
        <ele>1423.9</ele>
        <time>2020-11-11T13:41:41Z</time>
      </trkpt>
      <trkpt lat="28.3799100" lon="-16.4788480">
        <ele>1423.9</ele>
        <time>2020-11-11T13:41:42Z</time>
      </trkpt>
      <trkpt lat="28.3799100" lon="-16.4788480">
        <ele>1422.9</ele>
        <time>2020-11-11T13:41:43Z</time>
      </trkpt>
      <trkpt lat="28.3797930" lon="-16.4788030">
        <ele>1422.9</ele>
        <time>2020-11-11T13:41:44Z</time>
      </trkpt>
      <trkpt lat="28.3797930" lon="-16.4788030">
        <ele>1422.9</ele>
        <time>2020-11-11T13:41:45Z</time>
      </trkpt>
      <trkpt lat="28.3796670" lon="-16.4787830">
        <ele>1422.9</ele>
        <time>2020-11-11T13:41:46Z</time>
      </trkpt>
      <trkpt lat="28.3796670" lon="-16.4787830">
        <ele>1421.9</ele>
        <time>2020-11-11T13:41:47Z</time>
      </trkpt>
      <trkpt lat="28.3795470" lon="-16.4787680">
        <ele>1421.9</ele>
        <time>2020-11-11T13:41:48Z</time>
      </trkpt>
      <trkpt lat="28.3795470" lon="-16.4787680">
        <ele>1421.9</ele>
        <time>2020-11-11T13:41:49Z</time>
      </trkpt>
      <trkpt lat="28.3794370" lon="-16.4787330">
        <ele>1420.9</ele>
        <time>2020-11-11T13:41:50Z</time>
      </trkpt>
      <trkpt lat="28.3794370" lon="-16.4787330">
        <ele>1420.9</ele>
        <time>2020-11-11T13:41:51Z</time>
      </trkpt>
      <trkpt lat="28.3793670" lon="-16.4786580">
        <ele>1420.9</ele>
        <time>2020-11-11T13:41:52Z</time>
      </trkpt>
      <trkpt lat="28.3793400" lon="-16.4786030">
        <ele>1420.9</ele>
        <time>2020-11-11T13:41:53Z</time>
      </trkpt>
      <trkpt lat="28.3793400" lon="-16.4786030">
        <ele>1419.9</ele>
        <time>2020-11-11T13:41:54Z</time>
      </trkpt>
      <trkpt lat="28.3792850" lon="-16.4785000">
        <ele>1419.9</ele>
        <time>2020-11-11T13:41:55Z</time>
      </trkpt>
      <trkpt lat="28.3792850" lon="-16.4785000">
        <ele>1419.9</ele>
        <time>2020-11-11T13:41:56Z</time>
      </trkpt>
      <trkpt lat="28.3792280" lon="-16.4784420">
        <ele>1419.9</ele>
        <time>2020-11-11T13:41:57Z</time>
      </trkpt>
      <trkpt lat="28.3791830" lon="-16.4784150">
        <ele>1418.9</ele>
        <time>2020-11-11T13:41:58Z</time>
      </trkpt>
      <trkpt lat="28.3791830" lon="-16.4784150">
        <ele>1418.9</ele>
        <time>2020-11-11T13:41:59Z</time>
      </trkpt>
      <trkpt lat="28.3791000" lon="-16.4783730">
        <ele>1418.9</ele>
        <time>2020-11-11T13:42:00Z</time>
      </trkpt>
      <trkpt lat="28.3791000" lon="-16.4783730">
        <ele>1418.9</ele>
        <time>2020-11-11T13:42:01Z</time>
      </trkpt>
      <trkpt lat="28.3790250" lon="-16.4783300">
        <ele>1418.9</ele>
        <time>2020-11-11T13:42:02Z</time>
      </trkpt>
      <trkpt lat="28.3790250" lon="-16.4783300">
        <ele>1418.9</ele>
        <time>2020-11-11T13:42:03Z</time>
      </trkpt>
      <trkpt lat="28.3789950" lon="-16.4783000">
        <ele>1418.9</ele>
        <time>2020-11-11T13:42:04Z</time>
      </trkpt>
      <trkpt lat="28.3789820" lon="-16.4782920">
        <ele>1418.9</ele>
        <time>2020-11-11T13:42:05Z</time>
      </trkpt>
      <trkpt lat="28.3789820" lon="-16.4782920">
        <ele>1417.9</ele>
        <time>2020-11-11T13:42:06Z</time>
      </trkpt>
      <trkpt lat="28.3789700" lon="-16.4782800">
        <ele>1417.9</ele>
        <time>2020-11-11T13:42:07Z</time>
      </trkpt>
      <trkpt lat="28.3789700" lon="-16.4782800">
        <ele>1417.9</ele>
        <time>2020-11-11T13:42:08Z</time>
      </trkpt>
      <trkpt lat="28.3789720" lon="-16.4782820">
        <ele>1417.9</ele>
        <time>2020-11-11T13:42:21Z</time>
      </trkpt>
      <trkpt lat="28.3790100" lon="-16.4782550">
        <ele>1417.9</ele>
        <time>2020-11-11T13:42:22Z</time>
      </trkpt>
      <trkpt lat="28.3790100" lon="-16.4782550">
        <ele>1417.9</ele>
        <time>2020-11-11T13:42:23Z</time>
      </trkpt>
      <trkpt lat="28.3790200" lon="-16.4782550">
        <ele>1417.9</ele>
        <time>2020-11-11T13:42:24Z</time>
      </trkpt>
      <trkpt lat="28.3790250" lon="-16.4782570">
        <ele>1417.9</ele>
        <time>2020-11-11T13:42:25Z</time>
      </trkpt>
      <trkpt lat="28.3790250" lon="-16.4782570">
        <ele>1417.9</ele>
        <time>2020-11-11T13:42:26Z</time>
      </trkpt>
      <trkpt lat="28.3790280" lon="-16.4782600">
        <ele>1417.9</ele>
        <time>2020-11-11T13:42:27Z</time>
      </trkpt>
      <trkpt lat="28.3790280" lon="-16.4782600">
        <ele>1417.9</ele>
        <time>2020-11-11T13:42:28Z</time>
      </trkpt>
      <trkpt lat="28.3790320" lon="-16.4782650">
        <ele>1417.9</ele>
        <time>2020-11-11T13:42:29Z</time>
      </trkpt>
      <trkpt lat="28.3790320" lon="-16.4782650">
        <ele>1417.9</ele>
        <time>2020-11-11T13:42:51Z</time>
      </trkpt>
      <trkpt lat="28.3790320" lon="-16.4782650">
        <ele>1417.9</ele>
        <time>2020-11-11T13:42:52Z</time>
      </trkpt>
      <trkpt lat="28.3790230" lon="-16.4784330">
        <ele>1417.9</ele>
        <time>2020-11-11T13:42:53Z</time>
      </trkpt>
      <trkpt lat="28.3790230" lon="-16.4784330">
        <ele>1417.9</ele>
        <time>2020-11-11T13:43:48Z</time>
      </trkpt>
      <trkpt lat="28.3789430" lon="-16.4782930">
        <ele>1417.9</ele>
        <time>2020-11-11T13:43:49Z</time>
      </trkpt>
      <trkpt lat="28.3789320" lon="-16.4782780">
        <ele>1417.9</ele>
        <time>2020-11-11T13:43:50Z</time>
      </trkpt>
      <trkpt lat="28.3789320" lon="-16.4782780">
        <ele>1417.9</ele>
        <time>2020-11-11T13:43:51Z</time>
      </trkpt>
      <trkpt lat="28.3788750" lon="-16.4782230">
        <ele>1417.9</ele>
        <time>2020-11-11T13:43:52Z</time>
      </trkpt>
      <trkpt lat="28.3788520" lon="-16.4781970">
        <ele>1417.9</ele>
        <time>2020-11-11T13:43:53Z</time>
      </trkpt>
      <trkpt lat="28.3788520" lon="-16.4781970">
        <ele>1417.9</ele>
        <time>2020-11-11T13:43:54Z</time>
      </trkpt>
      <trkpt lat="28.3787930" lon="-16.4781630">
        <ele>1416.9</ele>
        <time>2020-11-11T13:43:55Z</time>
      </trkpt>
      <trkpt lat="28.3787930" lon="-16.4781630">
        <ele>1416.9</ele>
        <time>2020-11-11T13:43:56Z</time>
      </trkpt>
      <trkpt lat="28.3787320" lon="-16.4781400">
        <ele>1416.9</ele>
        <time>2020-11-11T13:43:57Z</time>
      </trkpt>
      <trkpt lat="28.3787320" lon="-16.4781400">
        <ele>1416.9</ele>
        <time>2020-11-11T13:43:58Z</time>
      </trkpt>
      <trkpt lat="28.3786770" lon="-16.4781320">
        <ele>1416.9</ele>
        <time>2020-11-11T13:43:59Z</time>
      </trkpt>
      <trkpt lat="28.3786470" lon="-16.4781280">
        <ele>1416.9</ele>
        <time>2020-11-11T13:44:00Z</time>
      </trkpt>
      <trkpt lat="28.3786470" lon="-16.4781280">
        <ele>1416.9</ele>
        <time>2020-11-11T13:44:01Z</time>
      </trkpt>
      <trkpt lat="28.3785930" lon="-16.4781270">
        <ele>1416.9</ele>
        <time>2020-11-11T13:44:02Z</time>
      </trkpt>
      <trkpt lat="28.3785930" lon="-16.4781270">
        <ele>1416.9</ele>
        <time>2020-11-11T13:44:03Z</time>
      </trkpt>
      <trkpt lat="28.3785450" lon="-16.4781230">
        <ele>1416.9</ele>
        <time>2020-11-11T13:44:04Z</time>
      </trkpt>
      <trkpt lat="28.3785170" lon="-16.4781220">
        <ele>1416.9</ele>
        <time>2020-11-11T13:44:05Z</time>
      </trkpt>
      <trkpt lat="28.3785170" lon="-16.4781220">
        <ele>1416.9</ele>
        <time>2020-11-11T13:44:06Z</time>
      </trkpt>
      <trkpt lat="28.3784580" lon="-16.4781170">
        <ele>1416.9</ele>
        <time>2020-11-11T13:44:07Z</time>
      </trkpt>
      <trkpt lat="28.3784300" lon="-16.4781080">
        <ele>1416.9</ele>
        <time>2020-11-11T13:44:08Z</time>
      </trkpt>
      <trkpt lat="28.3784300" lon="-16.4781080">
        <ele>1416.9</ele>
        <time>2020-11-11T13:44:09Z</time>
      </trkpt>
      <trkpt lat="28.3783780" lon="-16.4780950">
        <ele>1416.9</ele>
        <time>2020-11-11T13:44:10Z</time>
      </trkpt>
      <trkpt lat="28.3783780" lon="-16.4780950">
        <ele>1416.9</ele>
        <time>2020-11-11T13:44:11Z</time>
      </trkpt>
      <trkpt lat="28.3783350" lon="-16.4780920">
        <ele>1416.9</ele>
        <time>2020-11-11T13:44:12Z</time>
      </trkpt>
      <trkpt lat="28.3783120" lon="-16.4780900">
        <ele>1416.9</ele>
        <time>2020-11-11T13:44:13Z</time>
      </trkpt>
      <trkpt lat="28.3783120" lon="-16.4780900">
        <ele>1417.9</ele>
        <time>2020-11-11T13:44:14Z</time>
      </trkpt>
      <trkpt lat="28.3782750" lon="-16.4780820">
        <ele>1417.9</ele>
        <time>2020-11-11T13:44:15Z</time>
      </trkpt>
      <trkpt lat="28.3782750" lon="-16.4780820">
        <ele>1417.9</ele>
        <time>2020-11-11T13:44:16Z</time>
      </trkpt>
      <trkpt lat="28.3782450" lon="-16.4780700">
        <ele>1417.9</ele>
        <time>2020-11-11T13:44:17Z</time>
      </trkpt>
      <trkpt lat="28.3782450" lon="-16.4780700">
        <ele>1417.9</ele>
        <time>2020-11-11T13:44:18Z</time>
      </trkpt>
      <trkpt lat="28.3782200" lon="-16.4780650">
        <ele>1418.9</ele>
        <time>2020-11-11T13:44:19Z</time>
      </trkpt>
      <trkpt lat="28.3782050" lon="-16.4780620">
        <ele>1418.9</ele>
        <time>2020-11-11T13:44:20Z</time>
      </trkpt>
      <trkpt lat="28.3782050" lon="-16.4780620">
        <ele>1418.9</ele>
        <time>2020-11-11T13:44:21Z</time>
      </trkpt>
      <trkpt lat="28.3781750" lon="-16.4780550">
        <ele>1418.9</ele>
        <time>2020-11-11T13:44:22Z</time>
      </trkpt>
      <trkpt lat="28.3781630" lon="-16.4780400">
        <ele>1418.9</ele>
        <time>2020-11-11T13:44:23Z</time>
      </trkpt>
      <trkpt lat="28.3781630" lon="-16.4780400">
        <ele>1418.9</ele>
        <time>2020-11-11T13:44:24Z</time>
      </trkpt>
      <trkpt lat="28.3781400" lon="-16.4780150">
        <ele>1419.9</ele>
        <time>2020-11-11T13:44:25Z</time>
      </trkpt>
      <trkpt lat="28.3781320" lon="-16.4779980">
        <ele>1419.9</ele>
        <time>2020-11-11T13:44:26Z</time>
      </trkpt>
      <trkpt lat="28.3781320" lon="-16.4779980">
        <ele>1419.9</ele>
        <time>2020-11-11T13:44:27Z</time>
      </trkpt>
      <trkpt lat="28.3781180" lon="-16.4779670">
        <ele>1419.9</ele>
        <time>2020-11-11T13:44:28Z</time>
      </trkpt>
      <trkpt lat="28.3781150" lon="-16.4779480">
        <ele>1420.9</ele>
        <time>2020-11-11T13:44:29Z</time>
      </trkpt>
      <trkpt lat="28.3781150" lon="-16.4779480">
        <ele>1420.9</ele>
        <time>2020-11-11T13:44:30Z</time>
      </trkpt>
      <trkpt lat="28.3781180" lon="-16.4779130">
        <ele>1420.9</ele>
        <time>2020-11-11T13:44:31Z</time>
      </trkpt>
      <trkpt lat="28.3781180" lon="-16.4779130">
        <ele>1420.9</ele>
        <time>2020-11-11T13:44:32Z</time>
      </trkpt>
      <trkpt lat="28.3781200" lon="-16.4778730">
        <ele>1421.9</ele>
        <time>2020-11-11T13:44:33Z</time>
      </trkpt>
      <trkpt lat="28.3781200" lon="-16.4778730">
        <ele>1421.9</ele>
        <time>2020-11-11T13:44:34Z</time>
      </trkpt>
      <trkpt lat="28.3781180" lon="-16.4778320">
        <ele>1421.9</ele>
        <time>2020-11-11T13:44:35Z</time>
      </trkpt>
      <trkpt lat="28.3781180" lon="-16.4778320">
        <ele>1421.9</ele>
        <time>2020-11-11T13:44:36Z</time>
      </trkpt>
      <trkpt lat="28.3781130" lon="-16.4777920">
        <ele>1421.9</ele>
        <time>2020-11-11T13:44:37Z</time>
      </trkpt>
      <trkpt lat="28.3781130" lon="-16.4777920">
        <ele>1421.9</ele>
        <time>2020-11-11T13:44:38Z</time>
      </trkpt>
      <trkpt lat="28.3781050" lon="-16.4777580">
        <ele>1421.9</ele>
        <time>2020-11-11T13:44:39Z</time>
      </trkpt>
      <trkpt lat="28.3781020" lon="-16.4777430">
        <ele>1422.9</ele>
        <time>2020-11-11T13:44:40Z</time>
      </trkpt>
      <trkpt lat="28.3781020" lon="-16.4777430">
        <ele>1422.9</ele>
        <time>2020-11-11T13:44:41Z</time>
      </trkpt>
      <trkpt lat="28.3780920" lon="-16.4777080">
        <ele>1422.9</ele>
        <time>2020-11-11T13:44:42Z</time>
      </trkpt>
      <trkpt lat="28.3780920" lon="-16.4777080">
        <ele>1422.9</ele>
        <time>2020-11-11T13:44:43Z</time>
      </trkpt>
      <trkpt lat="28.3780720" lon="-16.4776800">
        <ele>1422.9</ele>
        <time>2020-11-11T13:44:44Z</time>
      </trkpt>
      <trkpt lat="28.3780720" lon="-16.4776800">
        <ele>1422.9</ele>
        <time>2020-11-11T13:44:45Z</time>
      </trkpt>
      <trkpt lat="28.3780500" lon="-16.4776570">
        <ele>1422.9</ele>
        <time>2020-11-11T13:44:46Z</time>
      </trkpt>
      <trkpt lat="28.3780500" lon="-16.4776570">
        <ele>1422.9</ele>
        <time>2020-11-11T13:44:47Z</time>
      </trkpt>
      <trkpt lat="28.3780320" lon="-16.4776330">
        <ele>1422.9</ele>
        <time>2020-11-11T13:44:48Z</time>
      </trkpt>
      <trkpt lat="28.3780320" lon="-16.4776330">
        <ele>1423.9</ele>
        <time>2020-11-11T13:44:49Z</time>
      </trkpt>
      <trkpt lat="28.3780070" lon="-16.4776130">
        <ele>1423.9</ele>
        <time>2020-11-11T13:44:50Z</time>
      </trkpt>
      <trkpt lat="28.3780070" lon="-16.4776130">
        <ele>1423.9</ele>
        <time>2020-11-11T13:44:51Z</time>
      </trkpt>
      <trkpt lat="28.3779870" lon="-16.4775900">
        <ele>1423.9</ele>
        <time>2020-11-11T13:44:52Z</time>
      </trkpt>
      <trkpt lat="28.3779870" lon="-16.4775900">
        <ele>1424.9</ele>
        <time>2020-11-11T13:44:53Z</time>
      </trkpt>
      <trkpt lat="28.3779550" lon="-16.4775550">
        <ele>1424.9</ele>
        <time>2020-11-11T13:44:54Z</time>
      </trkpt>
      <trkpt lat="28.3779550" lon="-16.4775550">
        <ele>1424.9</ele>
        <time>2020-11-11T13:44:55Z</time>
      </trkpt>
      <trkpt lat="28.3779370" lon="-16.4775150">
        <ele>1424.9</ele>
        <time>2020-11-11T13:44:56Z</time>
      </trkpt>
      <trkpt lat="28.3779370" lon="-16.4775150">
        <ele>1424.9</ele>
        <time>2020-11-11T13:44:57Z</time>
      </trkpt>
      <trkpt lat="28.3779350" lon="-16.4774780">
        <ele>1424.9</ele>
        <time>2020-11-11T13:44:58Z</time>
      </trkpt>
      <trkpt lat="28.3779350" lon="-16.4774600">
        <ele>1424.9</ele>
        <time>2020-11-11T13:44:59Z</time>
      </trkpt>
      <trkpt lat="28.3779350" lon="-16.4774600">
        <ele>1424.9</ele>
        <time>2020-11-11T13:45:00Z</time>
      </trkpt>
      <trkpt lat="28.3779430" lon="-16.4774320">
        <ele>1424.9</ele>
        <time>2020-11-11T13:45:01Z</time>
      </trkpt>
      <trkpt lat="28.3779430" lon="-16.4774320">
        <ele>1424.9</ele>
        <time>2020-11-11T13:45:02Z</time>
      </trkpt>
      <trkpt lat="28.3779430" lon="-16.4774020">
        <ele>1424.9</ele>
        <time>2020-11-11T13:45:03Z</time>
      </trkpt>
      <trkpt lat="28.3779430" lon="-16.4774020">
        <ele>1424.9</ele>
        <time>2020-11-11T13:45:04Z</time>
      </trkpt>
      <trkpt lat="28.3779430" lon="-16.4773730">
        <ele>1425.9</ele>
        <time>2020-11-11T13:45:05Z</time>
      </trkpt>
      <trkpt lat="28.3779370" lon="-16.4773600">
        <ele>1425.9</ele>
        <time>2020-11-11T13:45:06Z</time>
      </trkpt>
      <trkpt lat="28.3779370" lon="-16.4773600">
        <ele>1425.9</ele>
        <time>2020-11-11T13:45:07Z</time>
      </trkpt>
      <trkpt lat="28.3779220" lon="-16.4773350">
        <ele>1425.9</ele>
        <time>2020-11-11T13:45:08Z</time>
      </trkpt>
      <trkpt lat="28.3779220" lon="-16.4773350">
        <ele>1425.9</ele>
        <time>2020-11-11T13:45:09Z</time>
      </trkpt>
      <trkpt lat="28.3779050" lon="-16.4773000">
        <ele>1425.9</ele>
        <time>2020-11-11T13:45:10Z</time>
      </trkpt>
      <trkpt lat="28.3779050" lon="-16.4773000">
        <ele>1425.9</ele>
        <time>2020-11-11T13:45:11Z</time>
      </trkpt>
      <trkpt lat="28.3778900" lon="-16.4772720">
        <ele>1425.9</ele>
        <time>2020-11-11T13:45:12Z</time>
      </trkpt>
      <trkpt lat="28.3778900" lon="-16.4772720">
        <ele>1425.9</ele>
        <time>2020-11-11T13:45:13Z</time>
      </trkpt>
      <trkpt lat="28.3778750" lon="-16.4772470">
        <ele>1425.9</ele>
        <time>2020-11-11T13:45:14Z</time>
      </trkpt>
      <trkpt lat="28.3778750" lon="-16.4772470">
        <ele>1426.9</ele>
        <time>2020-11-11T13:45:15Z</time>
      </trkpt>
      <trkpt lat="28.3778620" lon="-16.4772250">
        <ele>1426.9</ele>
        <time>2020-11-11T13:45:16Z</time>
      </trkpt>
      <trkpt lat="28.3778620" lon="-16.4772250">
        <ele>1426.9</ele>
        <time>2020-11-11T13:45:17Z</time>
      </trkpt>
      <trkpt lat="28.3778570" lon="-16.4771980">
        <ele>1426.9</ele>
        <time>2020-11-11T13:45:18Z</time>
      </trkpt>
      <trkpt lat="28.3778530" lon="-16.4771850">
        <ele>1426.9</ele>
        <time>2020-11-11T13:45:19Z</time>
      </trkpt>
      <trkpt lat="28.3778530" lon="-16.4771850">
        <ele>1426.9</ele>
        <time>2020-11-11T13:45:20Z</time>
      </trkpt>
      <trkpt lat="28.3778380" lon="-16.4771500">
        <ele>1426.9</ele>
        <time>2020-11-11T13:45:21Z</time>
      </trkpt>
      <trkpt lat="28.3778380" lon="-16.4771500">
        <ele>1426.9</ele>
        <time>2020-11-11T13:45:22Z</time>
      </trkpt>
      <trkpt lat="28.3778270" lon="-16.4771120">
        <ele>1427.9</ele>
        <time>2020-11-11T13:45:23Z</time>
      </trkpt>
      <trkpt lat="28.3778270" lon="-16.4771120">
        <ele>1427.9</ele>
        <time>2020-11-11T13:45:24Z</time>
      </trkpt>
      <trkpt lat="28.3778020" lon="-16.4770580">
        <ele>1427.9</ele>
        <time>2020-11-11T13:45:25Z</time>
      </trkpt>
      <trkpt lat="28.3777900" lon="-16.4770420">
        <ele>1427.9</ele>
        <time>2020-11-11T13:45:26Z</time>
      </trkpt>
      <trkpt lat="28.3777770" lon="-16.4770180">
        <ele>1427.9</ele>
        <time>2020-11-11T13:45:27Z</time>
      </trkpt>
      <trkpt lat="28.3777770" lon="-16.4770180">
        <ele>1427.9</ele>
        <time>2020-11-11T13:45:28Z</time>
      </trkpt>
      <trkpt lat="28.3777400" lon="-16.4769820">
        <ele>1428.9</ele>
        <time>2020-11-11T13:45:29Z</time>
      </trkpt>
      <trkpt lat="28.3777400" lon="-16.4769820">
        <ele>1428.9</ele>
        <time>2020-11-11T13:45:30Z</time>
      </trkpt>
      <trkpt lat="28.3777120" lon="-16.4769650">
        <ele>1428.9</ele>
        <time>2020-11-11T13:45:31Z</time>
      </trkpt>
      <trkpt lat="28.3777120" lon="-16.4769650">
        <ele>1428.9</ele>
        <time>2020-11-11T13:45:32Z</time>
      </trkpt>
      <trkpt lat="28.3776870" lon="-16.4769450">
        <ele>1428.9</ele>
        <time>2020-11-11T13:45:33Z</time>
      </trkpt>
      <trkpt lat="28.3776870" lon="-16.4769450">
        <ele>1428.9</ele>
        <time>2020-11-11T13:45:34Z</time>
      </trkpt>
      <trkpt lat="28.3776550" lon="-16.4769330">
        <ele>1428.9</ele>
        <time>2020-11-11T13:45:35Z</time>
      </trkpt>
      <trkpt lat="28.3776550" lon="-16.4769330">
        <ele>1428.9</ele>
        <time>2020-11-11T13:45:36Z</time>
      </trkpt>
      <trkpt lat="28.3776220" lon="-16.4769220">
        <ele>1428.9</ele>
        <time>2020-11-11T13:45:37Z</time>
      </trkpt>
      <trkpt lat="28.3776070" lon="-16.4769180">
        <ele>1428.9</ele>
        <time>2020-11-11T13:45:38Z</time>
      </trkpt>
      <trkpt lat="28.3776070" lon="-16.4769180">
        <ele>1428.9</ele>
        <time>2020-11-11T13:45:39Z</time>
      </trkpt>
      <trkpt lat="28.3775780" lon="-16.4769180">
        <ele>1429.9</ele>
        <time>2020-11-11T13:45:40Z</time>
      </trkpt>
      <trkpt lat="28.3775600" lon="-16.4769220">
        <ele>1429.9</ele>
        <time>2020-11-11T13:45:41Z</time>
      </trkpt>
      <trkpt lat="28.3775600" lon="-16.4769220">
        <ele>1429.9</ele>
        <time>2020-11-11T13:45:42Z</time>
      </trkpt>
      <trkpt lat="28.3775270" lon="-16.4769280">
        <ele>1429.9</ele>
        <time>2020-11-11T13:45:43Z</time>
      </trkpt>
      <trkpt lat="28.3775070" lon="-16.4769300">
        <ele>1431.9</ele>
        <time>2020-11-11T13:45:44Z</time>
      </trkpt>
      <trkpt lat="28.3775070" lon="-16.4769300">
        <ele>1431.9</ele>
        <time>2020-11-11T13:45:45Z</time>
      </trkpt>
      <trkpt lat="28.3774780" lon="-16.4769330">
        <ele>1431.9</ele>
        <time>2020-11-11T13:45:46Z</time>
      </trkpt>
      <trkpt lat="28.3774780" lon="-16.4769330">
        <ele>1431.9</ele>
        <time>2020-11-11T13:45:47Z</time>
      </trkpt>
      <trkpt lat="28.3774470" lon="-16.4769270">
        <ele>1431.9</ele>
        <time>2020-11-11T13:45:48Z</time>
      </trkpt>
      <trkpt lat="28.3774330" lon="-16.4769250">
        <ele>1431.9</ele>
        <time>2020-11-11T13:45:49Z</time>
      </trkpt>
      <trkpt lat="28.3774330" lon="-16.4769250">
        <ele>1431.9</ele>
        <time>2020-11-11T13:45:50Z</time>
      </trkpt>
      <trkpt lat="28.3774080" lon="-16.4769330">
        <ele>1431.9</ele>
        <time>2020-11-11T13:45:51Z</time>
      </trkpt>
      <trkpt lat="28.3774080" lon="-16.4769330">
        <ele>1432.9</ele>
        <time>2020-11-11T13:45:52Z</time>
      </trkpt>
      <trkpt lat="28.3773680" lon="-16.4769400">
        <ele>1432.9</ele>
        <time>2020-11-11T13:45:53Z</time>
      </trkpt>
      <trkpt lat="28.3773680" lon="-16.4769400">
        <ele>1432.9</ele>
        <time>2020-11-11T13:45:54Z</time>
      </trkpt>
      <trkpt lat="28.3773250" lon="-16.4769500">
        <ele>1432.9</ele>
        <time>2020-11-11T13:45:55Z</time>
      </trkpt>
      <trkpt lat="28.3773250" lon="-16.4769500">
        <ele>1432.9</ele>
        <time>2020-11-11T13:45:56Z</time>
      </trkpt>
      <trkpt lat="28.3772870" lon="-16.4769500">
        <ele>1432.9</ele>
        <time>2020-11-11T13:45:57Z</time>
      </trkpt>
      <trkpt lat="28.3772770" lon="-16.4769520">
        <ele>1432.9</ele>
        <time>2020-11-11T13:45:58Z</time>
      </trkpt>
      <trkpt lat="28.3772700" lon="-16.4769520">
        <ele>1432.9</ele>
        <time>2020-11-11T13:45:59Z</time>
      </trkpt>
      <trkpt lat="28.3772600" lon="-16.4769550">
        <ele>1432.9</ele>
        <time>2020-11-11T13:46:00Z</time>
      </trkpt>
      <trkpt lat="28.3772600" lon="-16.4769550">
        <ele>1432.9</ele>
        <time>2020-11-11T13:46:01Z</time>
      </trkpt>
      <trkpt lat="28.3772420" lon="-16.4769720">
        <ele>1433.9</ele>
        <time>2020-11-11T13:46:02Z</time>
      </trkpt>
      <trkpt lat="28.3772420" lon="-16.4769720">
        <ele>1433.9</ele>
        <time>2020-11-11T13:46:03Z</time>
      </trkpt>
      <trkpt lat="28.3772250" lon="-16.4769880">
        <ele>1433.9</ele>
        <time>2020-11-11T13:46:04Z</time>
      </trkpt>
      <trkpt lat="28.3772080" lon="-16.4769930">
        <ele>1433.9</ele>
        <time>2020-11-11T13:46:05Z</time>
      </trkpt>
      <trkpt lat="28.3772080" lon="-16.4769930">
        <ele>1435.9</ele>
        <time>2020-11-11T13:46:06Z</time>
      </trkpt>
      <trkpt lat="28.3771850" lon="-16.4770000">
        <ele>1435.9</ele>
        <time>2020-11-11T13:46:07Z</time>
      </trkpt>
      <trkpt lat="28.3771700" lon="-16.4770030">
        <ele>1435.9</ele>
        <time>2020-11-11T13:46:08Z</time>
      </trkpt>
      <trkpt lat="28.3771700" lon="-16.4770030">
        <ele>1435.9</ele>
        <time>2020-11-11T13:46:09Z</time>
      </trkpt>
      <trkpt lat="28.3771350" lon="-16.4770100">
        <ele>1436.9</ele>
        <time>2020-11-11T13:46:10Z</time>
      </trkpt>
      <trkpt lat="28.3771350" lon="-16.4770100">
        <ele>1436.9</ele>
        <time>2020-11-11T13:46:11Z</time>
      </trkpt>
      <trkpt lat="28.3771020" lon="-16.4770120">
        <ele>1436.9</ele>
        <time>2020-11-11T13:46:12Z</time>
      </trkpt>
      <trkpt lat="28.3771020" lon="-16.4770120">
        <ele>1436.9</ele>
        <time>2020-11-11T13:46:13Z</time>
      </trkpt>
      <trkpt lat="28.3770680" lon="-16.4770120">
        <ele>1437.9</ele>
        <time>2020-11-11T13:46:14Z</time>
      </trkpt>
      <trkpt lat="28.3770680" lon="-16.4770120">
        <ele>1437.9</ele>
        <time>2020-11-11T13:46:15Z</time>
      </trkpt>
      <trkpt lat="28.3770380" lon="-16.4769980">
        <ele>1437.9</ele>
        <time>2020-11-11T13:46:16Z</time>
      </trkpt>
      <trkpt lat="28.3770380" lon="-16.4769980">
        <ele>1437.9</ele>
        <time>2020-11-11T13:46:17Z</time>
      </trkpt>
      <trkpt lat="28.3770170" lon="-16.4769780">
        <ele>1437.9</ele>
        <time>2020-11-11T13:46:18Z</time>
      </trkpt>
      <trkpt lat="28.3770170" lon="-16.4769780">
        <ele>1437.9</ele>
        <time>2020-11-11T13:46:19Z</time>
      </trkpt>
      <trkpt lat="28.3769980" lon="-16.4769470">
        <ele>1437.9</ele>
        <time>2020-11-11T13:46:20Z</time>
      </trkpt>
      <trkpt lat="28.3769880" lon="-16.4769330">
        <ele>1437.9</ele>
        <time>2020-11-11T13:46:21Z</time>
      </trkpt>
      <trkpt lat="28.3769880" lon="-16.4769330">
        <ele>1437.9</ele>
        <time>2020-11-11T13:46:22Z</time>
      </trkpt>
      <trkpt lat="28.3769770" lon="-16.4769050">
        <ele>1437.9</ele>
        <time>2020-11-11T13:46:23Z</time>
      </trkpt>
      <trkpt lat="28.3769770" lon="-16.4769050">
        <ele>1437.9</ele>
        <time>2020-11-11T13:46:24Z</time>
      </trkpt>
      <trkpt lat="28.3769700" lon="-16.4768850">
        <ele>1437.9</ele>
        <time>2020-11-11T13:46:25Z</time>
      </trkpt>
      <trkpt lat="28.3769580" lon="-16.4768730">
        <ele>1437.9</ele>
        <time>2020-11-11T13:46:26Z</time>
      </trkpt>
      <trkpt lat="28.3769530" lon="-16.4768700">
        <ele>1438.9</ele>
        <time>2020-11-11T13:46:27Z</time>
      </trkpt>
      <trkpt lat="28.3769530" lon="-16.4768700">
        <ele>1438.9</ele>
        <time>2020-11-11T13:46:28Z</time>
      </trkpt>
      <trkpt lat="28.3769270" lon="-16.4768600">
        <ele>1438.9</ele>
        <time>2020-11-11T13:46:29Z</time>
      </trkpt>
      <trkpt lat="28.3769070" lon="-16.4768420">
        <ele>1438.9</ele>
        <time>2020-11-11T13:46:30Z</time>
      </trkpt>
      <trkpt lat="28.3769070" lon="-16.4768420">
        <ele>1438.9</ele>
        <time>2020-11-11T13:46:31Z</time>
      </trkpt>
      <trkpt lat="28.3768880" lon="-16.4768120">
        <ele>1438.9</ele>
        <time>2020-11-11T13:46:32Z</time>
      </trkpt>
      <trkpt lat="28.3768880" lon="-16.4768120">
        <ele>1439.9</ele>
        <time>2020-11-11T13:46:33Z</time>
      </trkpt>
      <trkpt lat="28.3768680" lon="-16.4767870">
        <ele>1439.9</ele>
        <time>2020-11-11T13:46:34Z</time>
      </trkpt>
      <trkpt lat="28.3768550" lon="-16.4767750">
        <ele>1439.9</ele>
        <time>2020-11-11T13:46:35Z</time>
      </trkpt>
      <trkpt lat="28.3768550" lon="-16.4767750">
        <ele>1439.9</ele>
        <time>2020-11-11T13:46:36Z</time>
      </trkpt>
      <trkpt lat="28.3768430" lon="-16.4767530">
        <ele>1439.9</ele>
        <time>2020-11-11T13:46:37Z</time>
      </trkpt>
      <trkpt lat="28.3768430" lon="-16.4767530">
        <ele>1439.9</ele>
        <time>2020-11-11T13:46:38Z</time>
      </trkpt>
      <trkpt lat="28.3768280" lon="-16.4767250">
        <ele>1440.9</ele>
        <time>2020-11-11T13:46:39Z</time>
      </trkpt>
      <trkpt lat="28.3768280" lon="-16.4767250">
        <ele>1440.9</ele>
        <time>2020-11-11T13:46:40Z</time>
      </trkpt>
      <trkpt lat="28.3768080" lon="-16.4767050">
        <ele>1436.9</ele>
        <time>2020-11-11T13:46:41Z</time>
      </trkpt>
      <trkpt lat="28.3767970" lon="-16.4766900">
        <ele>1436.9</ele>
        <time>2020-11-11T13:46:42Z</time>
      </trkpt>
      <trkpt lat="28.3767820" lon="-16.4766780">
        <ele>1438.9</ele>
        <time>2020-11-11T13:46:43Z</time>
      </trkpt>
      <trkpt lat="28.3767820" lon="-16.4766780">
        <ele>1440.9</ele>
        <time>2020-11-11T13:46:44Z</time>
      </trkpt>
      <trkpt lat="28.3767570" lon="-16.4766630">
        <ele>1440.9</ele>
        <time>2020-11-11T13:46:45Z</time>
      </trkpt>
      <trkpt lat="28.3767370" lon="-16.4766530">
        <ele>1440.9</ele>
        <time>2020-11-11T13:46:46Z</time>
      </trkpt>
      <trkpt lat="28.3767370" lon="-16.4766530">
        <ele>1440.9</ele>
        <time>2020-11-11T13:46:47Z</time>
      </trkpt>
      <trkpt lat="28.3766970" lon="-16.4766350">
        <ele>1441.9</ele>
        <time>2020-11-11T13:46:48Z</time>
      </trkpt>
      <trkpt lat="28.3766970" lon="-16.4766350">
        <ele>1441.9</ele>
        <time>2020-11-11T13:46:49Z</time>
      </trkpt>
      <trkpt lat="28.3766600" lon="-16.4766230">
        <ele>1441.9</ele>
        <time>2020-11-11T13:46:50Z</time>
      </trkpt>
      <trkpt lat="28.3766600" lon="-16.4766230">
        <ele>1441.9</ele>
        <time>2020-11-11T13:46:51Z</time>
      </trkpt>
      <trkpt lat="28.3766300" lon="-16.4766180">
        <ele>1441.9</ele>
        <time>2020-11-11T13:46:52Z</time>
      </trkpt>
      <trkpt lat="28.3766120" lon="-16.4766120">
        <ele>1441.9</ele>
        <time>2020-11-11T13:46:53Z</time>
      </trkpt>
      <trkpt lat="28.3766120" lon="-16.4766120">
        <ele>1442.9</ele>
        <time>2020-11-11T13:46:54Z</time>
      </trkpt>
      <trkpt lat="28.3765720" lon="-16.4765950">
        <ele>1442.9</ele>
        <time>2020-11-11T13:46:55Z</time>
      </trkpt>
      <trkpt lat="28.3765720" lon="-16.4765950">
        <ele>1442.9</ele>
        <time>2020-11-11T13:46:56Z</time>
      </trkpt>
      <trkpt lat="28.3765230" lon="-16.4765720">
        <ele>1442.9</ele>
        <time>2020-11-11T13:46:57Z</time>
      </trkpt>
      <trkpt lat="28.3764950" lon="-16.4765630">
        <ele>1443.9</ele>
        <time>2020-11-11T13:46:58Z</time>
      </trkpt>
      <trkpt lat="28.3764950" lon="-16.4765630">
        <ele>1443.9</ele>
        <time>2020-11-11T13:46:59Z</time>
      </trkpt>
      <trkpt lat="28.3764500" lon="-16.4765570">
        <ele>1443.9</ele>
        <time>2020-11-11T13:47:00Z</time>
      </trkpt>
      <trkpt lat="28.3764500" lon="-16.4765570">
        <ele>1443.9</ele>
        <time>2020-11-11T13:47:01Z</time>
      </trkpt>
      <trkpt lat="28.3764120" lon="-16.4765570">
        <ele>1443.9</ele>
        <time>2020-11-11T13:47:02Z</time>
      </trkpt>
      <trkpt lat="28.3764120" lon="-16.4765570">
        <ele>1443.9</ele>
        <time>2020-11-11T13:47:03Z</time>
      </trkpt>
      <trkpt lat="28.3763820" lon="-16.4765550">
        <ele>1443.9</ele>
        <time>2020-11-11T13:47:04Z</time>
      </trkpt>
      <trkpt lat="28.3763820" lon="-16.4765550">
        <ele>1443.9</ele>
        <time>2020-11-11T13:47:05Z</time>
      </trkpt>
      <trkpt lat="28.3763500" lon="-16.4765580">
        <ele>1443.9</ele>
        <time>2020-11-11T13:47:06Z</time>
      </trkpt>
      <trkpt lat="28.3763500" lon="-16.4765580">
        <ele>1443.9</ele>
        <time>2020-11-11T13:47:07Z</time>
      </trkpt>
      <trkpt lat="28.3763130" lon="-16.4765730">
        <ele>1443.9</ele>
        <time>2020-11-11T13:47:08Z</time>
      </trkpt>
      <trkpt lat="28.3763130" lon="-16.4765730">
        <ele>1443.9</ele>
        <time>2020-11-11T13:47:09Z</time>
      </trkpt>
      <trkpt lat="28.3762770" lon="-16.4765900">
        <ele>1444.9</ele>
        <time>2020-11-11T13:47:10Z</time>
      </trkpt>
      <trkpt lat="28.3762770" lon="-16.4765900">
        <ele>1444.9</ele>
        <time>2020-11-11T13:47:11Z</time>
      </trkpt>
      <trkpt lat="28.3762500" lon="-16.4766300">
        <ele>1444.9</ele>
        <time>2020-11-11T13:47:12Z</time>
      </trkpt>
      <trkpt lat="28.3762500" lon="-16.4766300">
        <ele>1444.9</ele>
        <time>2020-11-11T13:47:13Z</time>
      </trkpt>
      <trkpt lat="28.3762200" lon="-16.4766600">
        <ele>1445.9</ele>
        <time>2020-11-11T13:47:14Z</time>
      </trkpt>
      <trkpt lat="28.3762200" lon="-16.4766600">
        <ele>1445.9</ele>
        <time>2020-11-11T13:47:15Z</time>
      </trkpt>
      <trkpt lat="28.3761920" lon="-16.4766780">
        <ele>1445.9</ele>
        <time>2020-11-11T13:47:16Z</time>
      </trkpt>
      <trkpt lat="28.3761920" lon="-16.4766780">
        <ele>1445.9</ele>
        <time>2020-11-11T13:47:17Z</time>
      </trkpt>
      <trkpt lat="28.3761530" lon="-16.4767120">
        <ele>1445.9</ele>
        <time>2020-11-11T13:47:18Z</time>
      </trkpt>
      <trkpt lat="28.3761530" lon="-16.4767120">
        <ele>1445.9</ele>
        <time>2020-11-11T13:47:19Z</time>
      </trkpt>
      <trkpt lat="28.3761230" lon="-16.4767470">
        <ele>1445.9</ele>
        <time>2020-11-11T13:47:20Z</time>
      </trkpt>
      <trkpt lat="28.3761230" lon="-16.4767470">
        <ele>1445.9</ele>
        <time>2020-11-11T13:47:21Z</time>
      </trkpt>
      <trkpt lat="28.3760820" lon="-16.4767680">
        <ele>1445.9</ele>
        <time>2020-11-11T13:47:22Z</time>
      </trkpt>
      <trkpt lat="28.3760820" lon="-16.4767680">
        <ele>1445.9</ele>
        <time>2020-11-11T13:47:23Z</time>
      </trkpt>
      <trkpt lat="28.3760450" lon="-16.4767850">
        <ele>1445.9</ele>
        <time>2020-11-11T13:47:24Z</time>
      </trkpt>
      <trkpt lat="28.3760450" lon="-16.4767850">
        <ele>1445.9</ele>
        <time>2020-11-11T13:47:25Z</time>
      </trkpt>
      <trkpt lat="28.3760030" lon="-16.4768030">
        <ele>1445.9</ele>
        <time>2020-11-11T13:47:26Z</time>
      </trkpt>
      <trkpt lat="28.3760030" lon="-16.4768030">
        <ele>1445.9</ele>
        <time>2020-11-11T13:47:27Z</time>
      </trkpt>
      <trkpt lat="28.3759520" lon="-16.4768330">
        <ele>1445.9</ele>
        <time>2020-11-11T13:47:28Z</time>
      </trkpt>
      <trkpt lat="28.3759520" lon="-16.4768330">
        <ele>1445.9</ele>
        <time>2020-11-11T13:47:29Z</time>
      </trkpt>
      <trkpt lat="28.3758950" lon="-16.4768570">
        <ele>1445.9</ele>
        <time>2020-11-11T13:47:30Z</time>
      </trkpt>
      <trkpt lat="28.3758950" lon="-16.4768570">
        <ele>1445.9</ele>
        <time>2020-11-11T13:47:31Z</time>
      </trkpt>
      <trkpt lat="28.3758530" lon="-16.4768730">
        <ele>1445.9</ele>
        <time>2020-11-11T13:47:32Z</time>
      </trkpt>
      <trkpt lat="28.3758530" lon="-16.4768730">
        <ele>1445.9</ele>
        <time>2020-11-11T13:47:33Z</time>
      </trkpt>
      <trkpt lat="28.3757900" lon="-16.4769170">
        <ele>1445.9</ele>
        <time>2020-11-11T13:47:34Z</time>
      </trkpt>
      <trkpt lat="28.3757900" lon="-16.4769170">
        <ele>1445.9</ele>
        <time>2020-11-11T13:47:35Z</time>
      </trkpt>
      <trkpt lat="28.3757200" lon="-16.4769280">
        <ele>1445.9</ele>
        <time>2020-11-11T13:47:36Z</time>
      </trkpt>
      <trkpt lat="28.3757200" lon="-16.4769280">
        <ele>1444.9</ele>
        <time>2020-11-11T13:47:37Z</time>
      </trkpt>
      <trkpt lat="28.3756400" lon="-16.4769220">
        <ele>1444.9</ele>
        <time>2020-11-11T13:47:38Z</time>
      </trkpt>
      <trkpt lat="28.3756400" lon="-16.4769220">
        <ele>1444.9</ele>
        <time>2020-11-11T13:47:39Z</time>
      </trkpt>
      <trkpt lat="28.3755670" lon="-16.4769150">
        <ele>1444.9</ele>
        <time>2020-11-11T13:47:40Z</time>
      </trkpt>
      <trkpt lat="28.3755380" lon="-16.4769180">
        <ele>1443.9</ele>
        <time>2020-11-11T13:47:41Z</time>
      </trkpt>
      <trkpt lat="28.3755380" lon="-16.4769180">
        <ele>1443.9</ele>
        <time>2020-11-11T13:47:42Z</time>
      </trkpt>
      <trkpt lat="28.3754820" lon="-16.4769420">
        <ele>1443.9</ele>
        <time>2020-11-11T13:47:43Z</time>
      </trkpt>
      <trkpt lat="28.3754820" lon="-16.4769420">
        <ele>1443.9</ele>
        <time>2020-11-11T13:47:44Z</time>
      </trkpt>
      <trkpt lat="28.3754300" lon="-16.4769770">
        <ele>1443.9</ele>
        <time>2020-11-11T13:47:45Z</time>
      </trkpt>
      <trkpt lat="28.3754070" lon="-16.4770000">
        <ele>1443.9</ele>
        <time>2020-11-11T13:47:46Z</time>
      </trkpt>
      <trkpt lat="28.3754070" lon="-16.4770000">
        <ele>1443.9</ele>
        <time>2020-11-11T13:47:47Z</time>
      </trkpt>
      <trkpt lat="28.3753480" lon="-16.4770630">
        <ele>1443.9</ele>
        <time>2020-11-11T13:47:48Z</time>
      </trkpt>
      <trkpt lat="28.3753480" lon="-16.4770630">
        <ele>1442.9</ele>
        <time>2020-11-11T13:47:49Z</time>
      </trkpt>
      <trkpt lat="28.3752820" lon="-16.4770980">
        <ele>1442.9</ele>
        <time>2020-11-11T13:47:50Z</time>
      </trkpt>
      <trkpt lat="28.3752820" lon="-16.4770980">
        <ele>1442.9</ele>
        <time>2020-11-11T13:47:51Z</time>
      </trkpt>
      <trkpt lat="28.3752150" lon="-16.4771570">
        <ele>1442.9</ele>
        <time>2020-11-11T13:47:52Z</time>
      </trkpt>
      <trkpt lat="28.3752150" lon="-16.4771570">
        <ele>1442.9</ele>
        <time>2020-11-11T13:47:53Z</time>
      </trkpt>
      <trkpt lat="28.3751470" lon="-16.4772180">
        <ele>1442.9</ele>
        <time>2020-11-11T13:47:54Z</time>
      </trkpt>
      <trkpt lat="28.3751470" lon="-16.4772180">
        <ele>1442.9</ele>
        <time>2020-11-11T13:47:55Z</time>
      </trkpt>
      <trkpt lat="28.3751080" lon="-16.4773130">
        <ele>1442.9</ele>
        <time>2020-11-11T13:47:56Z</time>
      </trkpt>
      <trkpt lat="28.3751080" lon="-16.4773130">
        <ele>1441.9</ele>
        <time>2020-11-11T13:47:57Z</time>
      </trkpt>
      <trkpt lat="28.3750650" lon="-16.4773870">
        <ele>1441.9</ele>
        <time>2020-11-11T13:47:58Z</time>
      </trkpt>
      <trkpt lat="28.3750530" lon="-16.4774280">
        <ele>1441.9</ele>
        <time>2020-11-11T13:47:59Z</time>
      </trkpt>
      <trkpt lat="28.3750530" lon="-16.4774280">
        <ele>1441.9</ele>
        <time>2020-11-11T13:48:00Z</time>
      </trkpt>
      <trkpt lat="28.3750150" lon="-16.4774820">
        <ele>1441.9</ele>
        <time>2020-11-11T13:48:01Z</time>
      </trkpt>
      <trkpt lat="28.3750020" lon="-16.4775030">
        <ele>1441.9</ele>
        <time>2020-11-11T13:48:02Z</time>
      </trkpt>
      <trkpt lat="28.3750020" lon="-16.4775030">
        <ele>1442.9</ele>
        <time>2020-11-11T13:48:03Z</time>
      </trkpt>
      <trkpt lat="28.3749630" lon="-16.4775520">
        <ele>1442.9</ele>
        <time>2020-11-11T13:48:04Z</time>
      </trkpt>
      <trkpt lat="28.3749500" lon="-16.4775770">
        <ele>1442.9</ele>
        <time>2020-11-11T13:48:05Z</time>
      </trkpt>
      <trkpt lat="28.3749500" lon="-16.4775770">
        <ele>1442.9</ele>
        <time>2020-11-11T13:48:06Z</time>
      </trkpt>
      <trkpt lat="28.3749100" lon="-16.4776230">
        <ele>1442.9</ele>
        <time>2020-11-11T13:48:07Z</time>
      </trkpt>
      <trkpt lat="28.3748870" lon="-16.4776530">
        <ele>1442.9</ele>
        <time>2020-11-11T13:48:08Z</time>
      </trkpt>
      <trkpt lat="28.3748870" lon="-16.4776530">
        <ele>1443.9</ele>
        <time>2020-11-11T13:48:09Z</time>
      </trkpt>
      <trkpt lat="28.3748400" lon="-16.4776970">
        <ele>1443.9</ele>
        <time>2020-11-11T13:48:10Z</time>
      </trkpt>
      <trkpt lat="28.3748020" lon="-16.4777070">
        <ele>1443.9</ele>
        <time>2020-11-11T13:48:11Z</time>
      </trkpt>
      <trkpt lat="28.3748020" lon="-16.4777070">
        <ele>1443.9</ele>
        <time>2020-11-11T13:48:12Z</time>
      </trkpt>
      <trkpt lat="28.3747420" lon="-16.4777520">
        <ele>1443.9</ele>
        <time>2020-11-11T13:48:13Z</time>
      </trkpt>
      <trkpt lat="28.3747420" lon="-16.4777520">
        <ele>1443.9</ele>
        <time>2020-11-11T13:48:14Z</time>
      </trkpt>
      <trkpt lat="28.3746600" lon="-16.4778000">
        <ele>1443.9</ele>
        <time>2020-11-11T13:48:15Z</time>
      </trkpt>
      <trkpt lat="28.3746220" lon="-16.4778180">
        <ele>1443.9</ele>
        <time>2020-11-11T13:48:16Z</time>
      </trkpt>
      <trkpt lat="28.3746220" lon="-16.4778180">
        <ele>1442.9</ele>
        <time>2020-11-11T13:48:17Z</time>
      </trkpt>
      <trkpt lat="28.3745600" lon="-16.4778370">
        <ele>1442.9</ele>
        <time>2020-11-11T13:48:18Z</time>
      </trkpt>
      <trkpt lat="28.3745600" lon="-16.4778370">
        <ele>1442.9</ele>
        <time>2020-11-11T13:48:19Z</time>
      </trkpt>
      <trkpt lat="28.3745270" lon="-16.4778650">
        <ele>1442.9</ele>
        <time>2020-11-11T13:48:20Z</time>
      </trkpt>
      <trkpt lat="28.3745270" lon="-16.4778650">
        <ele>1441.9</ele>
        <time>2020-11-11T13:48:21Z</time>
      </trkpt>
      <trkpt lat="28.3744900" lon="-16.4779230">
        <ele>1441.9</ele>
        <time>2020-11-11T13:48:22Z</time>
      </trkpt>
      <trkpt lat="28.3744900" lon="-16.4779230">
        <ele>1440.9</ele>
        <time>2020-11-11T13:48:23Z</time>
      </trkpt>
      <trkpt lat="28.3744530" lon="-16.4779780">
        <ele>1440.9</ele>
        <time>2020-11-11T13:48:24Z</time>
      </trkpt>
      <trkpt lat="28.3744350" lon="-16.4780000">
        <ele>1440.9</ele>
        <time>2020-11-11T13:48:25Z</time>
      </trkpt>
      <trkpt lat="28.3744220" lon="-16.4780330">
        <ele>1440.9</ele>
        <time>2020-11-11T13:48:26Z</time>
      </trkpt>
      <trkpt lat="28.3744080" lon="-16.4780620">
        <ele>1439.9</ele>
        <time>2020-11-11T13:48:27Z</time>
      </trkpt>
      <trkpt lat="28.3744080" lon="-16.4780620">
        <ele>1439.9</ele>
        <time>2020-11-11T13:48:28Z</time>
      </trkpt>
      <trkpt lat="28.3743780" lon="-16.4781180">
        <ele>1439.9</ele>
        <time>2020-11-11T13:48:29Z</time>
      </trkpt>
      <trkpt lat="28.3743780" lon="-16.4781180">
        <ele>1439.9</ele>
        <time>2020-11-11T13:48:30Z</time>
      </trkpt>
      <trkpt lat="28.3743580" lon="-16.4781850">
        <ele>1438.9</ele>
        <time>2020-11-11T13:48:31Z</time>
      </trkpt>
      <trkpt lat="28.3743580" lon="-16.4781850">
        <ele>1438.9</ele>
        <time>2020-11-11T13:48:32Z</time>
      </trkpt>
      <trkpt lat="28.3743270" lon="-16.4782230">
        <ele>1438.9</ele>
        <time>2020-11-11T13:48:33Z</time>
      </trkpt>
      <trkpt lat="28.3743070" lon="-16.4782400">
        <ele>1438.9</ele>
        <time>2020-11-11T13:48:34Z</time>
      </trkpt>
      <trkpt lat="28.3743070" lon="-16.4782400">
        <ele>1438.9</ele>
        <time>2020-11-11T13:48:35Z</time>
      </trkpt>
      <trkpt lat="28.3742570" lon="-16.4782500">
        <ele>1438.9</ele>
        <time>2020-11-11T13:48:36Z</time>
      </trkpt>
      <trkpt lat="28.3742570" lon="-16.4782500">
        <ele>1438.9</ele>
        <time>2020-11-11T13:48:37Z</time>
      </trkpt>
      <trkpt lat="28.3742180" lon="-16.4782400">
        <ele>1438.9</ele>
        <time>2020-11-11T13:48:38Z</time>
      </trkpt>
      <trkpt lat="28.3742180" lon="-16.4782400">
        <ele>1438.9</ele>
        <time>2020-11-11T13:48:39Z</time>
      </trkpt>
      <trkpt lat="28.3741950" lon="-16.4782330">
        <ele>1437.9</ele>
        <time>2020-11-11T13:48:40Z</time>
      </trkpt>
      <trkpt lat="28.3741950" lon="-16.4782330">
        <ele>1437.9</ele>
        <time>2020-11-11T13:48:41Z</time>
      </trkpt>
      <trkpt lat="28.3741680" lon="-16.4781980">
        <ele>1437.9</ele>
        <time>2020-11-11T13:48:42Z</time>
      </trkpt>
      <trkpt lat="28.3741680" lon="-16.4781980">
        <ele>1437.9</ele>
        <time>2020-11-11T13:48:43Z</time>
      </trkpt>
      <trkpt lat="28.3741420" lon="-16.4781630">
        <ele>1436.9</ele>
        <time>2020-11-11T13:48:44Z</time>
      </trkpt>
      <trkpt lat="28.3741420" lon="-16.4781630">
        <ele>1436.9</ele>
        <time>2020-11-11T13:48:45Z</time>
      </trkpt>
      <trkpt lat="28.3741100" lon="-16.4781120">
        <ele>1436.9</ele>
        <time>2020-11-11T13:48:46Z</time>
      </trkpt>
      <trkpt lat="28.3741100" lon="-16.4781120">
        <ele>1436.9</ele>
        <time>2020-11-11T13:48:47Z</time>
      </trkpt>
      <trkpt lat="28.3740800" lon="-16.4780600">
        <ele>1436.9</ele>
        <time>2020-11-11T13:48:48Z</time>
      </trkpt>
      <trkpt lat="28.3740800" lon="-16.4780600">
        <ele>1436.9</ele>
        <time>2020-11-11T13:48:49Z</time>
      </trkpt>
      <trkpt lat="28.3740420" lon="-16.4780020">
        <ele>1435.9</ele>
        <time>2020-11-11T13:48:50Z</time>
      </trkpt>
      <trkpt lat="28.3740420" lon="-16.4780020">
        <ele>1435.9</ele>
        <time>2020-11-11T13:48:51Z</time>
      </trkpt>
      <trkpt lat="28.3740000" lon="-16.4779130">
        <ele>1435.9</ele>
        <time>2020-11-11T13:48:52Z</time>
      </trkpt>
      <trkpt lat="28.3740000" lon="-16.4779130">
        <ele>1435.9</ele>
        <time>2020-11-11T13:48:53Z</time>
      </trkpt>
      <trkpt lat="28.3739700" lon="-16.4778100">
        <ele>1434.9</ele>
        <time>2020-11-11T13:48:54Z</time>
      </trkpt>
      <trkpt lat="28.3739700" lon="-16.4778100">
        <ele>1434.9</ele>
        <time>2020-11-11T13:48:55Z</time>
      </trkpt>
      <trkpt lat="28.3739100" lon="-16.4777320">
        <ele>1434.9</ele>
        <time>2020-11-11T13:48:56Z</time>
      </trkpt>
      <trkpt lat="28.3739100" lon="-16.4777320">
        <ele>1434.9</ele>
        <time>2020-11-11T13:48:57Z</time>
      </trkpt>
      <trkpt lat="28.3738450" lon="-16.4776870">
        <ele>1434.9</ele>
        <time>2020-11-11T13:48:58Z</time>
      </trkpt>
      <trkpt lat="28.3738050" lon="-16.4776670">
        <ele>1434.9</ele>
        <time>2020-11-11T13:48:59Z</time>
      </trkpt>
      <trkpt lat="28.3738050" lon="-16.4776670">
        <ele>1433.9</ele>
        <time>2020-11-11T13:49:00Z</time>
      </trkpt>
      <trkpt lat="28.3737120" lon="-16.4776150">
        <ele>1433.9</ele>
        <time>2020-11-11T13:49:01Z</time>
      </trkpt>
      <trkpt lat="28.3736700" lon="-16.4775730">
        <ele>1432.9</ele>
        <time>2020-11-11T13:49:02Z</time>
      </trkpt>
      <trkpt lat="28.3736700" lon="-16.4775730">
        <ele>1432.9</ele>
        <time>2020-11-11T13:49:03Z</time>
      </trkpt>
      <trkpt lat="28.3735950" lon="-16.4774880">
        <ele>1431.9</ele>
        <time>2020-11-11T13:49:04Z</time>
      </trkpt>
      <trkpt lat="28.3735950" lon="-16.4774880">
        <ele>1431.9</ele>
        <time>2020-11-11T13:49:05Z</time>
      </trkpt>
      <trkpt lat="28.3735120" lon="-16.4774200">
        <ele>1430.9</ele>
        <time>2020-11-11T13:49:06Z</time>
      </trkpt>
      <trkpt lat="28.3735120" lon="-16.4774200">
        <ele>1430.9</ele>
        <time>2020-11-11T13:49:07Z</time>
      </trkpt>
      <trkpt lat="28.3734120" lon="-16.4773770">
        <ele>1430.9</ele>
        <time>2020-11-11T13:49:08Z</time>
      </trkpt>
      <trkpt lat="28.3734120" lon="-16.4773770">
        <ele>1430.9</ele>
        <time>2020-11-11T13:49:09Z</time>
      </trkpt>
      <trkpt lat="28.3733050" lon="-16.4773570">
        <ele>1429.9</ele>
        <time>2020-11-11T13:49:10Z</time>
      </trkpt>
      <trkpt lat="28.3733050" lon="-16.4773570">
        <ele>1429.9</ele>
        <time>2020-11-11T13:49:11Z</time>
      </trkpt>
      <trkpt lat="28.3732000" lon="-16.4773150">
        <ele>1429.9</ele>
        <time>2020-11-11T13:49:12Z</time>
      </trkpt>
      <trkpt lat="28.3732000" lon="-16.4773150">
        <ele>1429.9</ele>
        <time>2020-11-11T13:49:13Z</time>
      </trkpt>
      <trkpt lat="28.3730930" lon="-16.4772900">
        <ele>1429.9</ele>
        <time>2020-11-11T13:49:14Z</time>
      </trkpt>
      <trkpt lat="28.3730930" lon="-16.4772900">
        <ele>1429.9</ele>
        <time>2020-11-11T13:49:15Z</time>
      </trkpt>
      <trkpt lat="28.3730050" lon="-16.4772750">
        <ele>1429.9</ele>
        <time>2020-11-11T13:49:16Z</time>
      </trkpt>
      <trkpt lat="28.3730050" lon="-16.4772750">
        <ele>1429.9</ele>
        <time>2020-11-11T13:49:17Z</time>
      </trkpt>
      <trkpt lat="28.3729280" lon="-16.4772700">
        <ele>1429.9</ele>
        <time>2020-11-11T13:49:18Z</time>
      </trkpt>
      <trkpt lat="28.3729280" lon="-16.4772700">
        <ele>1429.9</ele>
        <time>2020-11-11T13:49:19Z</time>
      </trkpt>
      <trkpt lat="28.3728530" lon="-16.4772550">
        <ele>1429.9</ele>
        <time>2020-11-11T13:49:20Z</time>
      </trkpt>
      <trkpt lat="28.3728530" lon="-16.4772550">
        <ele>1429.9</ele>
        <time>2020-11-11T13:49:21Z</time>
      </trkpt>
      <trkpt lat="28.3727980" lon="-16.4772150">
        <ele>1429.9</ele>
        <time>2020-11-11T13:49:22Z</time>
      </trkpt>
      <trkpt lat="28.3727980" lon="-16.4772150">
        <ele>1429.9</ele>
        <time>2020-11-11T13:49:23Z</time>
      </trkpt>
      <trkpt lat="28.3727830" lon="-16.4771430">
        <ele>1429.9</ele>
        <time>2020-11-11T13:49:24Z</time>
      </trkpt>
      <trkpt lat="28.3727830" lon="-16.4771430">
        <ele>1429.9</ele>
        <time>2020-11-11T13:49:25Z</time>
      </trkpt>
      <trkpt lat="28.3728020" lon="-16.4770670">
        <ele>1428.9</ele>
        <time>2020-11-11T13:49:26Z</time>
      </trkpt>
      <trkpt lat="28.3728020" lon="-16.4770670">
        <ele>1428.9</ele>
        <time>2020-11-11T13:49:27Z</time>
      </trkpt>
      <trkpt lat="28.3728220" lon="-16.4769630">
        <ele>1428.9</ele>
        <time>2020-11-11T13:49:28Z</time>
      </trkpt>
      <trkpt lat="28.3728220" lon="-16.4769630">
        <ele>1428.9</ele>
        <time>2020-11-11T13:49:29Z</time>
      </trkpt>
      <trkpt lat="28.3728470" lon="-16.4768620">
        <ele>1427.9</ele>
        <time>2020-11-11T13:49:30Z</time>
      </trkpt>
      <trkpt lat="28.3728470" lon="-16.4768620">
        <ele>1427.9</ele>
        <time>2020-11-11T13:49:31Z</time>
      </trkpt>
      <trkpt lat="28.3728550" lon="-16.4767600">
        <ele>1427.9</ele>
        <time>2020-11-11T13:49:32Z</time>
      </trkpt>
      <trkpt lat="28.3728580" lon="-16.4767050">
        <ele>1427.9</ele>
        <time>2020-11-11T13:49:33Z</time>
      </trkpt>
      <trkpt lat="28.3728580" lon="-16.4767050">
        <ele>1426.9</ele>
        <time>2020-11-11T13:49:34Z</time>
      </trkpt>
      <trkpt lat="28.3728630" lon="-16.4766100">
        <ele>1426.9</ele>
        <time>2020-11-11T13:49:35Z</time>
      </trkpt>
      <trkpt lat="28.3728630" lon="-16.4766100">
        <ele>1426.9</ele>
        <time>2020-11-11T13:49:36Z</time>
      </trkpt>
      <trkpt lat="28.3728570" lon="-16.4765350">
        <ele>1426.9</ele>
        <time>2020-11-11T13:49:37Z</time>
      </trkpt>
      <trkpt lat="28.3728570" lon="-16.4765350">
        <ele>1425.9</ele>
        <time>2020-11-11T13:49:38Z</time>
      </trkpt>
      <trkpt lat="28.3728330" lon="-16.4764580">
        <ele>1425.9</ele>
        <time>2020-11-11T13:49:39Z</time>
      </trkpt>
      <trkpt lat="28.3728330" lon="-16.4764580">
        <ele>1425.9</ele>
        <time>2020-11-11T13:49:40Z</time>
      </trkpt>
      <trkpt lat="28.3728170" lon="-16.4764020">
        <ele>1425.9</ele>
        <time>2020-11-11T13:49:41Z</time>
      </trkpt>
      <trkpt lat="28.3728120" lon="-16.4763700">
        <ele>1424.9</ele>
        <time>2020-11-11T13:49:42Z</time>
      </trkpt>
      <trkpt lat="28.3728120" lon="-16.4763700">
        <ele>1424.9</ele>
        <time>2020-11-11T13:49:43Z</time>
      </trkpt>
      <trkpt lat="28.3728030" lon="-16.4762850">
        <ele>1424.9</ele>
        <time>2020-11-11T13:49:44Z</time>
      </trkpt>
      <trkpt lat="28.3728030" lon="-16.4762850">
        <ele>1424.9</ele>
        <time>2020-11-11T13:49:45Z</time>
      </trkpt>
      <trkpt lat="28.3728070" lon="-16.4762020">
        <ele>1423.9</ele>
        <time>2020-11-11T13:49:46Z</time>
      </trkpt>
      <trkpt lat="28.3728070" lon="-16.4762020">
        <ele>1422.9</ele>
        <time>2020-11-11T13:49:47Z</time>
      </trkpt>
      <trkpt lat="28.3728170" lon="-16.4761330">
        <ele>1422.9</ele>
        <time>2020-11-11T13:49:48Z</time>
      </trkpt>
      <trkpt lat="28.3728170" lon="-16.4761330">
        <ele>1421.9</ele>
        <time>2020-11-11T13:49:49Z</time>
      </trkpt>
      <trkpt lat="28.3728420" lon="-16.4760780">
        <ele>1421.9</ele>
        <time>2020-11-11T13:49:50Z</time>
      </trkpt>
      <trkpt lat="28.3728420" lon="-16.4760780">
        <ele>1421.9</ele>
        <time>2020-11-11T13:49:51Z</time>
      </trkpt>
      <trkpt lat="28.3728580" lon="-16.4760270">
        <ele>1421.9</ele>
        <time>2020-11-11T13:49:52Z</time>
      </trkpt>
      <trkpt lat="28.3728580" lon="-16.4759980">
        <ele>1421.9</ele>
        <time>2020-11-11T13:49:53Z</time>
      </trkpt>
      <trkpt lat="28.3728580" lon="-16.4759980">
        <ele>1421.9</ele>
        <time>2020-11-11T13:49:54Z</time>
      </trkpt>
      <trkpt lat="28.3728400" lon="-16.4759500">
        <ele>1420.9</ele>
        <time>2020-11-11T13:49:55Z</time>
      </trkpt>
      <trkpt lat="28.3728320" lon="-16.4759320">
        <ele>1420.9</ele>
        <time>2020-11-11T13:49:56Z</time>
      </trkpt>
      <trkpt lat="28.3728320" lon="-16.4759320">
        <ele>1420.9</ele>
        <time>2020-11-11T13:49:57Z</time>
      </trkpt>
      <trkpt lat="28.3728000" lon="-16.4758620">
        <ele>1420.9</ele>
        <time>2020-11-11T13:49:58Z</time>
      </trkpt>
      <trkpt lat="28.3728000" lon="-16.4758620">
        <ele>1420.9</ele>
        <time>2020-11-11T13:49:59Z</time>
      </trkpt>
      <trkpt lat="28.3727680" lon="-16.4757900">
        <ele>1420.9</ele>
        <time>2020-11-11T13:50:00Z</time>
      </trkpt>
      <trkpt lat="28.3727570" lon="-16.4757620">
        <ele>1420.9</ele>
        <time>2020-11-11T13:50:01Z</time>
      </trkpt>
      <trkpt lat="28.3727380" lon="-16.4757370">
        <ele>1420.9</ele>
        <time>2020-11-11T13:50:02Z</time>
      </trkpt>
      <trkpt lat="28.3727380" lon="-16.4757370">
        <ele>1419.9</ele>
        <time>2020-11-11T13:50:03Z</time>
      </trkpt>
      <trkpt lat="28.3726880" lon="-16.4756680">
        <ele>1419.9</ele>
        <time>2020-11-11T13:50:04Z</time>
      </trkpt>
      <trkpt lat="28.3726650" lon="-16.4756470">
        <ele>1419.9</ele>
        <time>2020-11-11T13:50:05Z</time>
      </trkpt>
      <trkpt lat="28.3726650" lon="-16.4756470">
        <ele>1419.9</ele>
        <time>2020-11-11T13:50:06Z</time>
      </trkpt>
      <trkpt lat="28.3726280" lon="-16.4756000">
        <ele>1419.9</ele>
        <time>2020-11-11T13:50:07Z</time>
      </trkpt>
      <trkpt lat="28.3726280" lon="-16.4756000">
        <ele>1418.9</ele>
        <time>2020-11-11T13:50:08Z</time>
      </trkpt>
      <trkpt lat="28.3725980" lon="-16.4755670">
        <ele>1418.9</ele>
        <time>2020-11-11T13:50:09Z</time>
      </trkpt>
      <trkpt lat="28.3725980" lon="-16.4755670">
        <ele>1418.9</ele>
        <time>2020-11-11T13:50:10Z</time>
      </trkpt>
      <trkpt lat="28.3725600" lon="-16.4755520">
        <ele>1418.9</ele>
        <time>2020-11-11T13:50:11Z</time>
      </trkpt>
      <trkpt lat="28.3725600" lon="-16.4755520">
        <ele>1418.9</ele>
        <time>2020-11-11T13:50:12Z</time>
      </trkpt>
      <trkpt lat="28.3725100" lon="-16.4755430">
        <ele>1418.9</ele>
        <time>2020-11-11T13:50:13Z</time>
      </trkpt>
      <trkpt lat="28.3724820" lon="-16.4755350">
        <ele>1418.9</ele>
        <time>2020-11-11T13:50:14Z</time>
      </trkpt>
      <trkpt lat="28.3724820" lon="-16.4755350">
        <ele>1418.9</ele>
        <time>2020-11-11T13:50:15Z</time>
      </trkpt>
      <trkpt lat="28.3724300" lon="-16.4755170">
        <ele>1417.9</ele>
        <time>2020-11-11T13:50:16Z</time>
      </trkpt>
      <trkpt lat="28.3724300" lon="-16.4755170">
        <ele>1417.9</ele>
        <time>2020-11-11T13:50:17Z</time>
      </trkpt>
      <trkpt lat="28.3723750" lon="-16.4755050">
        <ele>1417.9</ele>
        <time>2020-11-11T13:50:18Z</time>
      </trkpt>
      <trkpt lat="28.3723750" lon="-16.4755050">
        <ele>1417.9</ele>
        <time>2020-11-11T13:50:19Z</time>
      </trkpt>
      <trkpt lat="28.3723080" lon="-16.4754850">
        <ele>1417.9</ele>
        <time>2020-11-11T13:50:20Z</time>
      </trkpt>
      <trkpt lat="28.3723080" lon="-16.4754850">
        <ele>1417.9</ele>
        <time>2020-11-11T13:50:21Z</time>
      </trkpt>
      <trkpt lat="28.3722450" lon="-16.4754520">
        <ele>1416.9</ele>
        <time>2020-11-11T13:50:22Z</time>
      </trkpt>
      <trkpt lat="28.3722450" lon="-16.4754520">
        <ele>1416.9</ele>
        <time>2020-11-11T13:50:23Z</time>
      </trkpt>
      <trkpt lat="28.3722100" lon="-16.4754030">
        <ele>1416.9</ele>
        <time>2020-11-11T13:50:24Z</time>
      </trkpt>
      <trkpt lat="28.3721980" lon="-16.4753670">
        <ele>1416.9</ele>
        <time>2020-11-11T13:50:25Z</time>
      </trkpt>
      <trkpt lat="28.3721980" lon="-16.4753670">
        <ele>1416.9</ele>
        <time>2020-11-11T13:50:26Z</time>
      </trkpt>
      <trkpt lat="28.3721720" lon="-16.4752950">
        <ele>1416.9</ele>
        <time>2020-11-11T13:50:27Z</time>
      </trkpt>
      <trkpt lat="28.3721720" lon="-16.4752950">
        <ele>1415.9</ele>
        <time>2020-11-11T13:50:28Z</time>
      </trkpt>
      <trkpt lat="28.3721550" lon="-16.4752120">
        <ele>1415.9</ele>
        <time>2020-11-11T13:50:29Z</time>
      </trkpt>
      <trkpt lat="28.3721450" lon="-16.4751720">
        <ele>1415.9</ele>
        <time>2020-11-11T13:50:30Z</time>
      </trkpt>
      <trkpt lat="28.3721450" lon="-16.4751720">
        <ele>1415.9</ele>
        <time>2020-11-11T13:50:31Z</time>
      </trkpt>
      <trkpt lat="28.3721270" lon="-16.4750880">
        <ele>1413.9</ele>
        <time>2020-11-11T13:50:32Z</time>
      </trkpt>
      <trkpt lat="28.3721100" lon="-16.4750470">
        <ele>1413.9</ele>
        <time>2020-11-11T13:50:33Z</time>
      </trkpt>
      <trkpt lat="28.3721100" lon="-16.4750470">
        <ele>1413.9</ele>
        <time>2020-11-11T13:50:34Z</time>
      </trkpt>
      <trkpt lat="28.3720720" lon="-16.4749350">
        <ele>1413.9</ele>
        <time>2020-11-11T13:50:35Z</time>
      </trkpt>
      <trkpt lat="28.3720720" lon="-16.4749350">
        <ele>1413.9</ele>
        <time>2020-11-11T13:50:36Z</time>
      </trkpt>
      <trkpt lat="28.3720470" lon="-16.4748470">
        <ele>1413.9</ele>
        <time>2020-11-11T13:50:37Z</time>
      </trkpt>
      <trkpt lat="28.3720320" lon="-16.4747980">
        <ele>1413.9</ele>
        <time>2020-11-11T13:50:38Z</time>
      </trkpt>
      <trkpt lat="28.3720200" lon="-16.4747450">
        <ele>1413.9</ele>
        <time>2020-11-11T13:50:39Z</time>
      </trkpt>
      <trkpt lat="28.3720200" lon="-16.4747450">
        <ele>1412.9</ele>
        <time>2020-11-11T13:50:40Z</time>
      </trkpt>
      <trkpt lat="28.3720220" lon="-16.4746530">
        <ele>1412.9</ele>
        <time>2020-11-11T13:50:41Z</time>
      </trkpt>
      <trkpt lat="28.3720220" lon="-16.4746530">
        <ele>1412.9</ele>
        <time>2020-11-11T13:50:42Z</time>
      </trkpt>
      <trkpt lat="28.3720250" lon="-16.4745580">
        <ele>1412.9</ele>
        <time>2020-11-11T13:50:43Z</time>
      </trkpt>
      <trkpt lat="28.3720300" lon="-16.4745180">
        <ele>1410.9</ele>
        <time>2020-11-11T13:50:44Z</time>
      </trkpt>
      <trkpt lat="28.3720300" lon="-16.4745180">
        <ele>1410.9</ele>
        <time>2020-11-11T13:50:45Z</time>
      </trkpt>
      <trkpt lat="28.3720420" lon="-16.4744330">
        <ele>1410.9</ele>
        <time>2020-11-11T13:50:46Z</time>
      </trkpt>
      <trkpt lat="28.3720420" lon="-16.4744330">
        <ele>1410.9</ele>
        <time>2020-11-11T13:50:47Z</time>
      </trkpt>
      <trkpt lat="28.3720600" lon="-16.4743620">
        <ele>1409.9</ele>
        <time>2020-11-11T13:50:48Z</time>
      </trkpt>
      <trkpt lat="28.3720600" lon="-16.4743620">
        <ele>1409.9</ele>
        <time>2020-11-11T13:50:49Z</time>
      </trkpt>
      <trkpt lat="28.3720620" lon="-16.4742880">
        <ele>1409.9</ele>
        <time>2020-11-11T13:50:50Z</time>
      </trkpt>
      <trkpt lat="28.3720620" lon="-16.4742880">
        <ele>1409.9</ele>
        <time>2020-11-11T13:50:51Z</time>
      </trkpt>
      <trkpt lat="28.3720330" lon="-16.4742370">
        <ele>1408.9</ele>
        <time>2020-11-11T13:50:52Z</time>
      </trkpt>
      <trkpt lat="28.3720330" lon="-16.4742370">
        <ele>1408.9</ele>
        <time>2020-11-11T13:50:53Z</time>
      </trkpt>
      <trkpt lat="28.3719800" lon="-16.4742130">
        <ele>1407.9</ele>
        <time>2020-11-11T13:50:54Z</time>
      </trkpt>
      <trkpt lat="28.3719800" lon="-16.4742130">
        <ele>1407.9</ele>
        <time>2020-11-11T13:50:55Z</time>
      </trkpt>
      <trkpt lat="28.3719380" lon="-16.4742380">
        <ele>1407.9</ele>
        <time>2020-11-11T13:50:56Z</time>
      </trkpt>
      <trkpt lat="28.3719380" lon="-16.4742380">
        <ele>1407.9</ele>
        <time>2020-11-11T13:50:57Z</time>
      </trkpt>
      <trkpt lat="28.3719270" lon="-16.4743130">
        <ele>1406.9</ele>
        <time>2020-11-11T13:50:58Z</time>
      </trkpt>
      <trkpt lat="28.3719220" lon="-16.4743500">
        <ele>1406.9</ele>
        <time>2020-11-11T13:50:59Z</time>
      </trkpt>
      <trkpt lat="28.3719220" lon="-16.4743500">
        <ele>1406.9</ele>
        <time>2020-11-11T13:51:00Z</time>
      </trkpt>
      <trkpt lat="28.3719100" lon="-16.4744230">
        <ele>1405.9</ele>
        <time>2020-11-11T13:51:01Z</time>
      </trkpt>
      <trkpt lat="28.3719100" lon="-16.4744230">
        <ele>1405.9</ele>
        <time>2020-11-11T13:51:02Z</time>
      </trkpt>
      <trkpt lat="28.3718820" lon="-16.4744780">
        <ele>1404.9</ele>
        <time>2020-11-11T13:51:03Z</time>
      </trkpt>
      <trkpt lat="28.3718820" lon="-16.4744780">
        <ele>1404.9</ele>
        <time>2020-11-11T13:51:04Z</time>
      </trkpt>
      <trkpt lat="28.3718450" lon="-16.4745370">
        <ele>1403.9</ele>
        <time>2020-11-11T13:51:05Z</time>
      </trkpt>
      <trkpt lat="28.3718450" lon="-16.4745370">
        <ele>1403.9</ele>
        <time>2020-11-11T13:51:06Z</time>
      </trkpt>
      <trkpt lat="28.3718000" lon="-16.4746070">
        <ele>1403.9</ele>
        <time>2020-11-11T13:51:07Z</time>
      </trkpt>
      <trkpt lat="28.3717830" lon="-16.4746400">
        <ele>1403.9</ele>
        <time>2020-11-11T13:51:08Z</time>
      </trkpt>
      <trkpt lat="28.3717830" lon="-16.4746400">
        <ele>1402.9</ele>
        <time>2020-11-11T13:51:09Z</time>
      </trkpt>
      <trkpt lat="28.3717500" lon="-16.4747330">
        <ele>1402.9</ele>
        <time>2020-11-11T13:51:10Z</time>
      </trkpt>
      <trkpt lat="28.3717500" lon="-16.4747330">
        <ele>1402.9</ele>
        <time>2020-11-11T13:51:11Z</time>
      </trkpt>
      <trkpt lat="28.3717400" lon="-16.4748320">
        <ele>1402.9</ele>
        <time>2020-11-11T13:51:12Z</time>
      </trkpt>
      <trkpt lat="28.3717400" lon="-16.4748320">
        <ele>1401.9</ele>
        <time>2020-11-11T13:51:13Z</time>
      </trkpt>
      <trkpt lat="28.3717470" lon="-16.4749320">
        <ele>1401.9</ele>
        <time>2020-11-11T13:51:14Z</time>
      </trkpt>
      <trkpt lat="28.3717470" lon="-16.4749320">
        <ele>1400.9</ele>
        <time>2020-11-11T13:51:15Z</time>
      </trkpt>
      <trkpt lat="28.3717500" lon="-16.4750100">
        <ele>1400.9</ele>
        <time>2020-11-11T13:51:16Z</time>
      </trkpt>
      <trkpt lat="28.3717500" lon="-16.4750100">
        <ele>1399.9</ele>
        <time>2020-11-11T13:51:17Z</time>
      </trkpt>
      <trkpt lat="28.3717500" lon="-16.4751030">
        <ele>1399.9</ele>
        <time>2020-11-11T13:51:18Z</time>
      </trkpt>
      <trkpt lat="28.3717500" lon="-16.4751030">
        <ele>1399.9</ele>
        <time>2020-11-11T13:51:19Z</time>
      </trkpt>
      <trkpt lat="28.3717480" lon="-16.4751970">
        <ele>1399.9</ele>
        <time>2020-11-11T13:51:20Z</time>
      </trkpt>
      <trkpt lat="28.3717480" lon="-16.4751970">
        <ele>1397.9</ele>
        <time>2020-11-11T13:51:21Z</time>
      </trkpt>
      <trkpt lat="28.3717430" lon="-16.4752830">
        <ele>1397.9</ele>
        <time>2020-11-11T13:51:22Z</time>
      </trkpt>
      <trkpt lat="28.3717430" lon="-16.4752830">
        <ele>1396.9</ele>
        <time>2020-11-11T13:51:23Z</time>
      </trkpt>
      <trkpt lat="28.3717450" lon="-16.4753530">
        <ele>1396.9</ele>
        <time>2020-11-11T13:51:24Z</time>
      </trkpt>
      <trkpt lat="28.3717450" lon="-16.4753880">
        <ele>1396.9</ele>
        <time>2020-11-11T13:51:25Z</time>
      </trkpt>
      <trkpt lat="28.3717450" lon="-16.4753880">
        <ele>1396.9</ele>
        <time>2020-11-11T13:51:26Z</time>
      </trkpt>
      <trkpt lat="28.3717570" lon="-16.4754450">
        <ele>1395.9</ele>
        <time>2020-11-11T13:51:27Z</time>
      </trkpt>
      <trkpt lat="28.3717570" lon="-16.4754450">
        <ele>1395.9</ele>
        <time>2020-11-11T13:51:28Z</time>
      </trkpt>
      <trkpt lat="28.3717730" lon="-16.4755170">
        <ele>1394.9</ele>
        <time>2020-11-11T13:51:29Z</time>
      </trkpt>
      <trkpt lat="28.3717730" lon="-16.4755170">
        <ele>1394.9</ele>
        <time>2020-11-11T13:51:30Z</time>
      </trkpt>
      <trkpt lat="28.3718150" lon="-16.4755730">
        <ele>1394.9</ele>
        <time>2020-11-11T13:51:31Z</time>
      </trkpt>
      <trkpt lat="28.3718150" lon="-16.4755730">
        <ele>1394.9</ele>
        <time>2020-11-11T13:51:32Z</time>
      </trkpt>
      <trkpt lat="28.3718870" lon="-16.4756250">
        <ele>1394.9</ele>
        <time>2020-11-11T13:51:33Z</time>
      </trkpt>
      <trkpt lat="28.3719420" lon="-16.4756500">
        <ele>1394.9</ele>
        <time>2020-11-11T13:51:34Z</time>
      </trkpt>
      <trkpt lat="28.3719420" lon="-16.4756500">
        <ele>1393.9</ele>
        <time>2020-11-11T13:51:35Z</time>
      </trkpt>
      <trkpt lat="28.3720570" lon="-16.4757100">
        <ele>1393.9</ele>
        <time>2020-11-11T13:51:36Z</time>
      </trkpt>
      <trkpt lat="28.3720570" lon="-16.4757100">
        <ele>1392.9</ele>
        <time>2020-11-11T13:51:37Z</time>
      </trkpt>
      <trkpt lat="28.3721430" lon="-16.4757820">
        <ele>1391.9</ele>
        <time>2020-11-11T13:51:38Z</time>
      </trkpt>
      <trkpt lat="28.3721430" lon="-16.4757820">
        <ele>1391.9</ele>
        <time>2020-11-11T13:51:39Z</time>
      </trkpt>
      <trkpt lat="28.3722030" lon="-16.4758480">
        <ele>1390.9</ele>
        <time>2020-11-11T13:51:40Z</time>
      </trkpt>
      <trkpt lat="28.3722320" lon="-16.4758820">
        <ele>1390.9</ele>
        <time>2020-11-11T13:51:41Z</time>
      </trkpt>
      <trkpt lat="28.3722320" lon="-16.4758820">
        <ele>1389.9</ele>
        <time>2020-11-11T13:51:42Z</time>
      </trkpt>
      <trkpt lat="28.3722750" lon="-16.4759370">
        <ele>1389.9</ele>
        <time>2020-11-11T13:51:43Z</time>
      </trkpt>
      <trkpt lat="28.3722820" lon="-16.4759670">
        <ele>1388.9</ele>
        <time>2020-11-11T13:51:44Z</time>
      </trkpt>
      <trkpt lat="28.3722780" lon="-16.4760030">
        <ele>1388.9</ele>
        <time>2020-11-11T13:51:45Z</time>
      </trkpt>
      <trkpt lat="28.3722780" lon="-16.4760030">
        <ele>1388.9</ele>
        <time>2020-11-11T13:51:46Z</time>
      </trkpt>
      <trkpt lat="28.3722420" lon="-16.4760730">
        <ele>1388.9</ele>
        <time>2020-11-11T13:51:47Z</time>
      </trkpt>
      <trkpt lat="28.3722200" lon="-16.4761080">
        <ele>1388.9</ele>
        <time>2020-11-11T13:51:48Z</time>
      </trkpt>
      <trkpt lat="28.3722200" lon="-16.4761080">
        <ele>1388.9</ele>
        <time>2020-11-11T13:51:49Z</time>
      </trkpt>
      <trkpt lat="28.3721770" lon="-16.4761770">
        <ele>1388.9</ele>
        <time>2020-11-11T13:51:50Z</time>
      </trkpt>
      <trkpt lat="28.3721770" lon="-16.4761770">
        <ele>1387.9</ele>
        <time>2020-11-11T13:51:51Z</time>
      </trkpt>
      <trkpt lat="28.3721400" lon="-16.4762480">
        <ele>1387.9</ele>
        <time>2020-11-11T13:51:52Z</time>
      </trkpt>
      <trkpt lat="28.3721400" lon="-16.4762480">
        <ele>1387.9</ele>
        <time>2020-11-11T13:51:53Z</time>
      </trkpt>
      <trkpt lat="28.3721220" lon="-16.4763280">
        <ele>1387.9</ele>
        <time>2020-11-11T13:51:54Z</time>
      </trkpt>
      <trkpt lat="28.3721220" lon="-16.4763280">
        <ele>1386.9</ele>
        <time>2020-11-11T13:51:55Z</time>
      </trkpt>
      <trkpt lat="28.3721400" lon="-16.4763920">
        <ele>1386.9</ele>
        <time>2020-11-11T13:51:56Z</time>
      </trkpt>
      <trkpt lat="28.3721400" lon="-16.4763920">
        <ele>1386.9</ele>
        <time>2020-11-11T13:51:57Z</time>
      </trkpt>
      <trkpt lat="28.3721730" lon="-16.4764220">
        <ele>1386.9</ele>
        <time>2020-11-11T13:51:58Z</time>
      </trkpt>
      <trkpt lat="28.3721730" lon="-16.4764220">
        <ele>1386.9</ele>
        <time>2020-11-11T13:51:59Z</time>
      </trkpt>
      <trkpt lat="28.3722020" lon="-16.4764430">
        <ele>1386.9</ele>
        <time>2020-11-11T13:52:00Z</time>
      </trkpt>
      <trkpt lat="28.3721980" lon="-16.4764650">
        <ele>1385.9</ele>
        <time>2020-11-11T13:52:01Z</time>
      </trkpt>
      <trkpt lat="28.3721930" lon="-16.4764950">
        <ele>1385.9</ele>
        <time>2020-11-11T13:52:02Z</time>
      </trkpt>
      <trkpt lat="28.3721930" lon="-16.4764950">
        <ele>1385.9</ele>
        <time>2020-11-11T13:52:03Z</time>
      </trkpt>
      <trkpt lat="28.3721620" lon="-16.4765400">
        <ele>1385.9</ele>
        <time>2020-11-11T13:52:04Z</time>
      </trkpt>
      <trkpt lat="28.3721620" lon="-16.4765400">
        <ele>1384.9</ele>
        <time>2020-11-11T13:52:05Z</time>
      </trkpt>
      <trkpt lat="28.3721170" lon="-16.4766170">
        <ele>1384.9</ele>
        <time>2020-11-11T13:52:06Z</time>
      </trkpt>
      <trkpt lat="28.3720970" lon="-16.4766570">
        <ele>1384.9</ele>
        <time>2020-11-11T13:52:07Z</time>
      </trkpt>
      <trkpt lat="28.3720830" lon="-16.4766980">
        <ele>1384.9</ele>
        <time>2020-11-11T13:52:08Z</time>
      </trkpt>
      <trkpt lat="28.3720830" lon="-16.4766980">
        <ele>1383.9</ele>
        <time>2020-11-11T13:52:09Z</time>
      </trkpt>
      <trkpt lat="28.3720500" lon="-16.4767750">
        <ele>1383.9</ele>
        <time>2020-11-11T13:52:10Z</time>
      </trkpt>
      <trkpt lat="28.3720500" lon="-16.4767750">
        <ele>1383.9</ele>
        <time>2020-11-11T13:52:11Z</time>
      </trkpt>
      <trkpt lat="28.3720150" lon="-16.4768350">
        <ele>1383.9</ele>
        <time>2020-11-11T13:52:12Z</time>
      </trkpt>
      <trkpt lat="28.3719970" lon="-16.4768680">
        <ele>1382.9</ele>
        <time>2020-11-11T13:52:13Z</time>
      </trkpt>
      <trkpt lat="28.3719970" lon="-16.4768680">
        <ele>1382.9</ele>
        <time>2020-11-11T13:52:14Z</time>
      </trkpt>
      <trkpt lat="28.3719650" lon="-16.4769250">
        <ele>1381.9</ele>
        <time>2020-11-11T13:52:15Z</time>
      </trkpt>
      <trkpt lat="28.3719650" lon="-16.4769250">
        <ele>1381.9</ele>
        <time>2020-11-11T13:52:16Z</time>
      </trkpt>
      <trkpt lat="28.3719350" lon="-16.4769830">
        <ele>1381.9</ele>
        <time>2020-11-11T13:52:17Z</time>
      </trkpt>
      <trkpt lat="28.3719350" lon="-16.4769830">
        <ele>1381.9</ele>
        <time>2020-11-11T13:52:18Z</time>
      </trkpt>
      <trkpt lat="28.3719050" lon="-16.4770600">
        <ele>1381.9</ele>
        <time>2020-11-11T13:52:19Z</time>
      </trkpt>
      <trkpt lat="28.3718900" lon="-16.4770970">
        <ele>1379.9</ele>
        <time>2020-11-11T13:52:20Z</time>
      </trkpt>
      <trkpt lat="28.3718900" lon="-16.4770970">
        <ele>1379.9</ele>
        <time>2020-11-11T13:52:21Z</time>
      </trkpt>
      <trkpt lat="28.3718650" lon="-16.4771870">
        <ele>1378.9</ele>
        <time>2020-11-11T13:52:22Z</time>
      </trkpt>
      <trkpt lat="28.3718650" lon="-16.4771870">
        <ele>1378.9</ele>
        <time>2020-11-11T13:52:23Z</time>
      </trkpt>
      <trkpt lat="28.3718350" lon="-16.4772600">
        <ele>1378.9</ele>
        <time>2020-11-11T13:52:24Z</time>
      </trkpt>
      <trkpt lat="28.3718250" lon="-16.4772930">
        <ele>1378.9</ele>
        <time>2020-11-11T13:52:25Z</time>
      </trkpt>
      <trkpt lat="28.3718150" lon="-16.4773270">
        <ele>1377.9</ele>
        <time>2020-11-11T13:52:26Z</time>
      </trkpt>
      <trkpt lat="28.3718150" lon="-16.4773270">
        <ele>1377.9</ele>
        <time>2020-11-11T13:52:27Z</time>
      </trkpt>
      <trkpt lat="28.3717950" lon="-16.4773870">
        <ele>1376.9</ele>
        <time>2020-11-11T13:52:28Z</time>
      </trkpt>
      <trkpt lat="28.3717950" lon="-16.4773870">
        <ele>1376.9</ele>
        <time>2020-11-11T13:52:29Z</time>
      </trkpt>
      <trkpt lat="28.3718020" lon="-16.4774630">
        <ele>1375.9</ele>
        <time>2020-11-11T13:52:30Z</time>
      </trkpt>
      <trkpt lat="28.3718080" lon="-16.4775000">
        <ele>1375.9</ele>
        <time>2020-11-11T13:52:31Z</time>
      </trkpt>
      <trkpt lat="28.3718100" lon="-16.4775350">
        <ele>1375.9</ele>
        <time>2020-11-11T13:52:32Z</time>
      </trkpt>
      <trkpt lat="28.3718100" lon="-16.4775350">
        <ele>1374.9</ele>
        <time>2020-11-11T13:52:33Z</time>
      </trkpt>
      <trkpt lat="28.3718170" lon="-16.4775720">
        <ele>1374.9</ele>
        <time>2020-11-11T13:52:34Z</time>
      </trkpt>
      <trkpt lat="28.3718200" lon="-16.4775850">
        <ele>1373.9</ele>
        <time>2020-11-11T13:52:35Z</time>
      </trkpt>
      <trkpt lat="28.3718200" lon="-16.4775850">
        <ele>1373.9</ele>
        <time>2020-11-11T13:52:36Z</time>
      </trkpt>
      <trkpt lat="28.3718120" lon="-16.4775870">
        <ele>1373.9</ele>
        <time>2020-11-11T13:52:37Z</time>
      </trkpt>
      <trkpt lat="28.3718120" lon="-16.4775870">
        <ele>1373.9</ele>
        <time>2020-11-11T13:56:05Z</time>
      </trkpt>
      <trkpt lat="28.3718720" lon="-16.4777170">
        <ele>1372.9</ele>
        <time>2020-11-11T13:56:06Z</time>
      </trkpt>
      <trkpt lat="28.3718720" lon="-16.4777170">
        <ele>1372.9</ele>
        <time>2020-11-11T13:56:07Z</time>
      </trkpt>
      <trkpt lat="28.3718780" lon="-16.4777620">
        <ele>1371.9</ele>
        <time>2020-11-11T13:56:08Z</time>
      </trkpt>
      <trkpt lat="28.3718780" lon="-16.4777620">
        <ele>1371.9</ele>
        <time>2020-11-11T13:56:09Z</time>
      </trkpt>
      <trkpt lat="28.3718850" lon="-16.4778120">
        <ele>1371.9</ele>
        <time>2020-11-11T13:56:10Z</time>
      </trkpt>
      <trkpt lat="28.3718850" lon="-16.4778120">
        <ele>1371.9</ele>
        <time>2020-11-11T13:56:11Z</time>
      </trkpt>
      <trkpt lat="28.3718900" lon="-16.4778650">
        <ele>1370.9</ele>
        <time>2020-11-11T13:56:12Z</time>
      </trkpt>
      <trkpt lat="28.3718950" lon="-16.4778900">
        <ele>1370.9</ele>
        <time>2020-11-11T13:56:13Z</time>
      </trkpt>
      <trkpt lat="28.3718950" lon="-16.4778900">
        <ele>1370.9</ele>
        <time>2020-11-11T13:56:14Z</time>
      </trkpt>
      <trkpt lat="28.3719030" lon="-16.4779600">
        <ele>1370.9</ele>
        <time>2020-11-11T13:56:15Z</time>
      </trkpt>
      <trkpt lat="28.3719030" lon="-16.4779600">
        <ele>1368.9</ele>
        <time>2020-11-11T13:56:16Z</time>
      </trkpt>
      <trkpt lat="28.3719130" lon="-16.4780330">
        <ele>1368.9</ele>
        <time>2020-11-11T13:56:17Z</time>
      </trkpt>
      <trkpt lat="28.3719130" lon="-16.4780330">
        <ele>1368.9</ele>
        <time>2020-11-11T13:56:18Z</time>
      </trkpt>
      <trkpt lat="28.3719300" lon="-16.4781080">
        <ele>1368.9</ele>
        <time>2020-11-11T13:56:19Z</time>
      </trkpt>
      <trkpt lat="28.3719300" lon="-16.4781080">
        <ele>1367.9</ele>
        <time>2020-11-11T13:56:20Z</time>
      </trkpt>
      <trkpt lat="28.3719500" lon="-16.4781830">
        <ele>1367.9</ele>
        <time>2020-11-11T13:56:21Z</time>
      </trkpt>
      <trkpt lat="28.3719500" lon="-16.4781830">
        <ele>1367.9</ele>
        <time>2020-11-11T13:56:22Z</time>
      </trkpt>
      <trkpt lat="28.3719600" lon="-16.4782680">
        <ele>1367.9</ele>
        <time>2020-11-11T13:56:23Z</time>
      </trkpt>
      <trkpt lat="28.3719680" lon="-16.4783100">
        <ele>1366.9</ele>
        <time>2020-11-11T13:56:24Z</time>
      </trkpt>
      <trkpt lat="28.3719680" lon="-16.4783100">
        <ele>1366.9</ele>
        <time>2020-11-11T13:56:25Z</time>
      </trkpt>
      <trkpt lat="28.3719830" lon="-16.4783870">
        <ele>1366.9</ele>
        <time>2020-11-11T13:56:26Z</time>
      </trkpt>
      <trkpt lat="28.3719830" lon="-16.4783870">
        <ele>1366.9</ele>
        <time>2020-11-11T13:56:27Z</time>
      </trkpt>
      <trkpt lat="28.3720200" lon="-16.4784470">
        <ele>1365.9</ele>
        <time>2020-11-11T13:56:28Z</time>
      </trkpt>
      <trkpt lat="28.3720420" lon="-16.4784700">
        <ele>1365.9</ele>
        <time>2020-11-11T13:56:29Z</time>
      </trkpt>
      <trkpt lat="28.3720420" lon="-16.4784700">
        <ele>1364.9</ele>
        <time>2020-11-11T13:56:30Z</time>
      </trkpt>
      <trkpt lat="28.3720850" lon="-16.4785070">
        <ele>1364.9</ele>
        <time>2020-11-11T13:56:31Z</time>
      </trkpt>
      <trkpt lat="28.3720850" lon="-16.4785070">
        <ele>1363.9</ele>
        <time>2020-11-11T13:56:32Z</time>
      </trkpt>
      <trkpt lat="28.3721180" lon="-16.4785580">
        <ele>1362.9</ele>
        <time>2020-11-11T13:56:33Z</time>
      </trkpt>
      <trkpt lat="28.3721180" lon="-16.4785580">
        <ele>1362.9</ele>
        <time>2020-11-11T13:56:34Z</time>
      </trkpt>
      <trkpt lat="28.3721270" lon="-16.4786170">
        <ele>1362.9</ele>
        <time>2020-11-11T13:56:35Z</time>
      </trkpt>
      <trkpt lat="28.3721270" lon="-16.4786170">
        <ele>1362.9</ele>
        <time>2020-11-11T13:56:36Z</time>
      </trkpt>
      <trkpt lat="28.3721020" lon="-16.4786750">
        <ele>1361.9</ele>
        <time>2020-11-11T13:56:37Z</time>
      </trkpt>
      <trkpt lat="28.3720820" lon="-16.4786970">
        <ele>1361.9</ele>
        <time>2020-11-11T13:56:38Z</time>
      </trkpt>
      <trkpt lat="28.3720820" lon="-16.4786970">
        <ele>1361.9</ele>
        <time>2020-11-11T13:56:39Z</time>
      </trkpt>
      <trkpt lat="28.3720350" lon="-16.4787400">
        <ele>1361.9</ele>
        <time>2020-11-11T13:56:40Z</time>
      </trkpt>
      <trkpt lat="28.3720350" lon="-16.4787400">
        <ele>1360.9</ele>
        <time>2020-11-11T13:56:41Z</time>
      </trkpt>
      <trkpt lat="28.3719900" lon="-16.4787200">
        <ele>1360.9</ele>
        <time>2020-11-11T13:56:42Z</time>
      </trkpt>
      <trkpt lat="28.3719880" lon="-16.4786930">
        <ele>1360.9</ele>
        <time>2020-11-11T13:56:43Z</time>
      </trkpt>
      <trkpt lat="28.3719820" lon="-16.4786670">
        <ele>1360.9</ele>
        <time>2020-11-11T13:56:44Z</time>
      </trkpt>
      <trkpt lat="28.3719820" lon="-16.4786670">
        <ele>1359.9</ele>
        <time>2020-11-11T13:56:45Z</time>
      </trkpt>
      <trkpt lat="28.3719600" lon="-16.4786050">
        <ele>1359.9</ele>
        <time>2020-11-11T13:56:46Z</time>
      </trkpt>
      <trkpt lat="28.3719600" lon="-16.4786050">
        <ele>1359.9</ele>
        <time>2020-11-11T13:56:47Z</time>
      </trkpt>
      <trkpt lat="28.3719350" lon="-16.4785520">
        <ele>1359.9</ele>
        <time>2020-11-11T13:56:48Z</time>
      </trkpt>
      <trkpt lat="28.3719350" lon="-16.4785520">
        <ele>1357.9</ele>
        <time>2020-11-11T13:56:49Z</time>
      </trkpt>
      <trkpt lat="28.3719220" lon="-16.4785080">
        <ele>1357.9</ele>
        <time>2020-11-11T13:56:50Z</time>
      </trkpt>
      <trkpt lat="28.3719220" lon="-16.4785080">
        <ele>1357.9</ele>
        <time>2020-11-11T13:56:51Z</time>
      </trkpt>
      <trkpt lat="28.3719070" lon="-16.4784570">
        <ele>1357.9</ele>
        <time>2020-11-11T13:56:52Z</time>
      </trkpt>
      <trkpt lat="28.3719070" lon="-16.4784570">
        <ele>1356.9</ele>
        <time>2020-11-11T13:56:53Z</time>
      </trkpt>
      <trkpt lat="28.3718920" lon="-16.4784070">
        <ele>1356.9</ele>
        <time>2020-11-11T13:56:54Z</time>
      </trkpt>
      <trkpt lat="28.3718920" lon="-16.4784070">
        <ele>1355.9</ele>
        <time>2020-11-11T13:56:55Z</time>
      </trkpt>
      <trkpt lat="28.3718800" lon="-16.4783470">
        <ele>1355.9</ele>
        <time>2020-11-11T13:56:56Z</time>
      </trkpt>
      <trkpt lat="28.3718800" lon="-16.4783470">
        <ele>1355.9</ele>
        <time>2020-11-11T13:56:57Z</time>
      </trkpt>
      <trkpt lat="28.3718500" lon="-16.4782720">
        <ele>1355.9</ele>
        <time>2020-11-11T13:56:58Z</time>
      </trkpt>
      <trkpt lat="28.3718500" lon="-16.4782720">
        <ele>1354.9</ele>
        <time>2020-11-11T13:56:59Z</time>
      </trkpt>
      <trkpt lat="28.3718070" lon="-16.4781900">
        <ele>1354.9</ele>
        <time>2020-11-11T13:57:00Z</time>
      </trkpt>
      <trkpt lat="28.3717830" lon="-16.4781470">
        <ele>1353.9</ele>
        <time>2020-11-11T13:57:01Z</time>
      </trkpt>
      <trkpt lat="28.3717830" lon="-16.4781470">
        <ele>1353.9</ele>
        <time>2020-11-11T13:57:02Z</time>
      </trkpt>
      <trkpt lat="28.3717380" lon="-16.4780650">
        <ele>1352.9</ele>
        <time>2020-11-11T13:57:03Z</time>
      </trkpt>
      <trkpt lat="28.3717380" lon="-16.4780650">
        <ele>1352.9</ele>
        <time>2020-11-11T13:57:04Z</time>
      </trkpt>
      <trkpt lat="28.3717070" lon="-16.4779900">
        <ele>1351.9</ele>
        <time>2020-11-11T13:57:05Z</time>
      </trkpt>
      <trkpt lat="28.3717070" lon="-16.4779900">
        <ele>1351.9</ele>
        <time>2020-11-11T13:57:06Z</time>
      </trkpt>
      <trkpt lat="28.3716600" lon="-16.4779100">
        <ele>1351.9</ele>
        <time>2020-11-11T13:57:07Z</time>
      </trkpt>
      <trkpt lat="28.3716280" lon="-16.4778470">
        <ele>1351.9</ele>
        <time>2020-11-11T13:57:08Z</time>
      </trkpt>
      <trkpt lat="28.3716280" lon="-16.4778470">
        <ele>1351.9</ele>
        <time>2020-11-11T13:57:09Z</time>
      </trkpt>
      <trkpt lat="28.3715730" lon="-16.4777050">
        <ele>1349.9</ele>
        <time>2020-11-11T13:57:10Z</time>
      </trkpt>
      <trkpt lat="28.3715730" lon="-16.4777050">
        <ele>1349.9</ele>
        <time>2020-11-11T13:57:11Z</time>
      </trkpt>
      <trkpt lat="28.3715120" lon="-16.4775450">
        <ele>1348.9</ele>
        <time>2020-11-11T13:57:12Z</time>
      </trkpt>
      <trkpt lat="28.3715120" lon="-16.4775450">
        <ele>1348.9</ele>
        <time>2020-11-11T13:57:13Z</time>
      </trkpt>
      <trkpt lat="28.3714270" lon="-16.4773830">
        <ele>1347.9</ele>
        <time>2020-11-11T13:57:14Z</time>
      </trkpt>
      <trkpt lat="28.3713930" lon="-16.4773170">
        <ele>1347.9</ele>
        <time>2020-11-11T13:57:15Z</time>
      </trkpt>
      <trkpt lat="28.3713930" lon="-16.4773170">
        <ele>1346.9</ele>
        <time>2020-11-11T13:57:16Z</time>
      </trkpt>
      <trkpt lat="28.3713680" lon="-16.4772120">
        <ele>1346.9</ele>
        <time>2020-11-11T13:57:17Z</time>
      </trkpt>
      <trkpt lat="28.3713680" lon="-16.4772120">
        <ele>1346.9</ele>
        <time>2020-11-11T13:57:18Z</time>
      </trkpt>
      <trkpt lat="28.3713720" lon="-16.4771130">
        <ele>1346.9</ele>
        <time>2020-11-11T13:57:19Z</time>
      </trkpt>
      <trkpt lat="28.3713780" lon="-16.4770580">
        <ele>1345.9</ele>
        <time>2020-11-11T13:57:20Z</time>
      </trkpt>
      <trkpt lat="28.3713780" lon="-16.4770580">
        <ele>1345.9</ele>
        <time>2020-11-11T13:57:21Z</time>
      </trkpt>
      <trkpt lat="28.3714050" lon="-16.4769320">
        <ele>1345.9</ele>
        <time>2020-11-11T13:57:22Z</time>
      </trkpt>
      <trkpt lat="28.3714400" lon="-16.4768220">
        <ele>1345.9</ele>
        <time>2020-11-11T13:57:23Z</time>
      </trkpt>
      <trkpt lat="28.3714400" lon="-16.4768220">
        <ele>1345.9</ele>
        <time>2020-11-11T13:57:24Z</time>
      </trkpt>
      <trkpt lat="28.3714530" lon="-16.4767680">
        <ele>1344.9</ele>
        <time>2020-11-11T13:57:25Z</time>
      </trkpt>
      <trkpt lat="28.3714570" lon="-16.4767320">
        <ele>1344.9</ele>
        <time>2020-11-11T13:57:26Z</time>
      </trkpt>
      <trkpt lat="28.3714570" lon="-16.4767320">
        <ele>1343.9</ele>
        <time>2020-11-11T13:57:27Z</time>
      </trkpt>
      <trkpt lat="28.3714580" lon="-16.4765970">
        <ele>1343.9</ele>
        <time>2020-11-11T13:57:28Z</time>
      </trkpt>
      <trkpt lat="28.3714580" lon="-16.4765970">
        <ele>1342.9</ele>
        <time>2020-11-11T13:57:29Z</time>
      </trkpt>
      <trkpt lat="28.3714720" lon="-16.4764720">
        <ele>1342.9</ele>
        <time>2020-11-11T13:57:30Z</time>
      </trkpt>
      <trkpt lat="28.3714720" lon="-16.4764720">
        <ele>1342.9</ele>
        <time>2020-11-11T13:57:31Z</time>
      </trkpt>
      <trkpt lat="28.3714520" lon="-16.4764000">
        <ele>1342.9</ele>
        <time>2020-11-11T13:57:32Z</time>
      </trkpt>
      <trkpt lat="28.3714520" lon="-16.4764000">
        <ele>1340.9</ele>
        <time>2020-11-11T13:57:33Z</time>
      </trkpt>
      <trkpt lat="28.3714020" lon="-16.4763500">
        <ele>1340.9</ele>
        <time>2020-11-11T13:57:34Z</time>
      </trkpt>
      <trkpt lat="28.3713650" lon="-16.4763350">
        <ele>1340.9</ele>
        <time>2020-11-11T13:57:35Z</time>
      </trkpt>
      <trkpt lat="28.3713650" lon="-16.4763350">
        <ele>1340.9</ele>
        <time>2020-11-11T13:57:36Z</time>
      </trkpt>
      <trkpt lat="28.3712870" lon="-16.4763330">
        <ele>1339.9</ele>
        <time>2020-11-11T13:57:37Z</time>
      </trkpt>
      <trkpt lat="28.3712870" lon="-16.4763330">
        <ele>1339.9</ele>
        <time>2020-11-11T13:57:38Z</time>
      </trkpt>
      <trkpt lat="28.3712000" lon="-16.4763330">
        <ele>1339.9</ele>
        <time>2020-11-11T13:57:39Z</time>
      </trkpt>
      <trkpt lat="28.3711620" lon="-16.4763320">
        <ele>1339.9</ele>
        <time>2020-11-11T13:57:40Z</time>
      </trkpt>
      <trkpt lat="28.3711620" lon="-16.4763320">
        <ele>1339.9</ele>
        <time>2020-11-11T13:57:41Z</time>
      </trkpt>
      <trkpt lat="28.3710680" lon="-16.4763380">
        <ele>1339.9</ele>
        <time>2020-11-11T13:57:42Z</time>
      </trkpt>
      <trkpt lat="28.3710680" lon="-16.4763380">
        <ele>1339.9</ele>
        <time>2020-11-11T13:57:43Z</time>
      </trkpt>
      <trkpt lat="28.3709720" lon="-16.4763520">
        <ele>1339.9</ele>
        <time>2020-11-11T13:57:44Z</time>
      </trkpt>
      <trkpt lat="28.3709720" lon="-16.4763520">
        <ele>1339.9</ele>
        <time>2020-11-11T13:57:45Z</time>
      </trkpt>
      <trkpt lat="28.3708680" lon="-16.4763600">
        <ele>1337.9</ele>
        <time>2020-11-11T13:57:46Z</time>
      </trkpt>
      <trkpt lat="28.3708680" lon="-16.4763600">
        <ele>1337.9</ele>
        <time>2020-11-11T13:57:47Z</time>
      </trkpt>
      <trkpt lat="28.3707850" lon="-16.4763280">
        <ele>1337.9</ele>
        <time>2020-11-11T13:57:48Z</time>
      </trkpt>
      <trkpt lat="28.3707850" lon="-16.4763280">
        <ele>1337.9</ele>
        <time>2020-11-11T13:57:49Z</time>
      </trkpt>
      <trkpt lat="28.3707530" lon="-16.4762570">
        <ele>1336.9</ele>
        <time>2020-11-11T13:57:50Z</time>
      </trkpt>
      <trkpt lat="28.3707530" lon="-16.4762570">
        <ele>1336.9</ele>
        <time>2020-11-11T13:57:51Z</time>
      </trkpt>
      <trkpt lat="28.3707570" lon="-16.4762130">
        <ele>1336.9</ele>
        <time>2020-11-11T13:57:52Z</time>
      </trkpt>
      <trkpt lat="28.3707570" lon="-16.4762130">
        <ele>1336.9</ele>
        <time>2020-11-11T13:57:53Z</time>
      </trkpt>
      <trkpt lat="28.3707300" lon="-16.4761750">
        <ele>1335.9</ele>
        <time>2020-11-11T13:57:54Z</time>
      </trkpt>
      <trkpt lat="28.3707300" lon="-16.4761750">
        <ele>1335.9</ele>
        <time>2020-11-11T13:57:55Z</time>
      </trkpt>
      <trkpt lat="28.3706550" lon="-16.4761570">
        <ele>1335.9</ele>
        <time>2020-11-11T13:57:56Z</time>
      </trkpt>
      <trkpt lat="28.3706550" lon="-16.4761570">
        <ele>1335.9</ele>
        <time>2020-11-11T13:57:57Z</time>
      </trkpt>
      <trkpt lat="28.3705800" lon="-16.4761230">
        <ele>1335.9</ele>
        <time>2020-11-11T13:57:58Z</time>
      </trkpt>
      <trkpt lat="28.3705800" lon="-16.4761230">
        <ele>1333.9</ele>
        <time>2020-11-11T13:57:59Z</time>
      </trkpt>
      <trkpt lat="28.3705180" lon="-16.4760820">
        <ele>1333.9</ele>
        <time>2020-11-11T13:58:00Z</time>
      </trkpt>
      <trkpt lat="28.3705180" lon="-16.4760820">
        <ele>1333.9</ele>
        <time>2020-11-11T13:58:01Z</time>
      </trkpt>
      <trkpt lat="28.3705030" lon="-16.4760170">
        <ele>1333.9</ele>
        <time>2020-11-11T13:58:02Z</time>
      </trkpt>
      <trkpt lat="28.3705030" lon="-16.4760170">
        <ele>1332.9</ele>
        <time>2020-11-11T13:58:03Z</time>
      </trkpt>
      <trkpt lat="28.3704700" lon="-16.4759120">
        <ele>1332.9</ele>
        <time>2020-11-11T13:58:04Z</time>
      </trkpt>
      <trkpt lat="28.3704700" lon="-16.4758630">
        <ele>1332.9</ele>
        <time>2020-11-11T13:58:05Z</time>
      </trkpt>
      <trkpt lat="28.3704700" lon="-16.4758630">
        <ele>1332.9</ele>
        <time>2020-11-11T13:58:06Z</time>
      </trkpt>
      <trkpt lat="28.3704770" lon="-16.4757630">
        <ele>1330.9</ele>
        <time>2020-11-11T13:58:07Z</time>
      </trkpt>
      <trkpt lat="28.3704770" lon="-16.4757630">
        <ele>1330.9</ele>
        <time>2020-11-11T13:58:08Z</time>
      </trkpt>
      <trkpt lat="28.3704550" lon="-16.4756870">
        <ele>1330.9</ele>
        <time>2020-11-11T13:58:09Z</time>
      </trkpt>
      <trkpt lat="28.3704480" lon="-16.4756570">
        <ele>1330.9</ele>
        <time>2020-11-11T13:58:10Z</time>
      </trkpt>
      <trkpt lat="28.3704480" lon="-16.4756570">
        <ele>1329.9</ele>
        <time>2020-11-11T13:58:11Z</time>
      </trkpt>
      <trkpt lat="28.3703830" lon="-16.4756330">
        <ele>1329.9</ele>
        <time>2020-11-11T13:58:12Z</time>
      </trkpt>
      <trkpt lat="28.3703830" lon="-16.4756330">
        <ele>1329.9</ele>
        <time>2020-11-11T13:58:13Z</time>
      </trkpt>
      <trkpt lat="28.3703350" lon="-16.4756650">
        <ele>1329.9</ele>
        <time>2020-11-11T13:58:14Z</time>
      </trkpt>
      <trkpt lat="28.3703350" lon="-16.4756650">
        <ele>1328.9</ele>
        <time>2020-11-11T13:58:15Z</time>
      </trkpt>
      <trkpt lat="28.3703130" lon="-16.4757400">
        <ele>1328.9</ele>
        <time>2020-11-11T13:58:16Z</time>
      </trkpt>
      <trkpt lat="28.3703130" lon="-16.4757400">
        <ele>1327.9</ele>
        <time>2020-11-11T13:58:17Z</time>
      </trkpt>
      <trkpt lat="28.3703120" lon="-16.4758250">
        <ele>1327.9</ele>
        <time>2020-11-11T13:58:18Z</time>
      </trkpt>
      <trkpt lat="28.3703130" lon="-16.4758620">
        <ele>1327.9</ele>
        <time>2020-11-11T13:58:19Z</time>
      </trkpt>
      <trkpt lat="28.3703200" lon="-16.4759000">
        <ele>1327.9</ele>
        <time>2020-11-11T13:58:20Z</time>
      </trkpt>
      <trkpt lat="28.3703200" lon="-16.4759000">
        <ele>1326.9</ele>
        <time>2020-11-11T13:58:21Z</time>
      </trkpt>
      <trkpt lat="28.3703370" lon="-16.4759830">
        <ele>1325.9</ele>
        <time>2020-11-11T13:58:22Z</time>
      </trkpt>
      <trkpt lat="28.3703700" lon="-16.4760670">
        <ele>1325.9</ele>
        <time>2020-11-11T13:58:23Z</time>
      </trkpt>
      <trkpt lat="28.3703700" lon="-16.4760670">
        <ele>1324.9</ele>
        <time>2020-11-11T13:58:24Z</time>
      </trkpt>
      <trkpt lat="28.3703700" lon="-16.4760670">
        <ele>1324.9</ele>
        <time>2020-11-11T13:58:25Z</time>
      </trkpt>
      <trkpt lat="28.3703970" lon="-16.4761400">
        <ele>1324.9</ele>
        <time>2020-11-11T13:58:26Z</time>
      </trkpt>
      <trkpt lat="28.3703970" lon="-16.4761400">
        <ele>1324.9</ele>
        <time>2020-11-11T13:58:27Z</time>
      </trkpt>
      <trkpt lat="28.3704250" lon="-16.4762050">
        <ele>1324.9</ele>
        <time>2020-11-11T13:58:28Z</time>
      </trkpt>
      <trkpt lat="28.3704250" lon="-16.4762050">
        <ele>1324.9</ele>
        <time>2020-11-11T13:58:29Z</time>
      </trkpt>
      <trkpt lat="28.3704530" lon="-16.4762800">
        <ele>1323.9</ele>
        <time>2020-11-11T13:58:30Z</time>
      </trkpt>
      <trkpt lat="28.3704580" lon="-16.4763200">
        <ele>1323.9</ele>
        <time>2020-11-11T13:58:31Z</time>
      </trkpt>
      <trkpt lat="28.3704580" lon="-16.4763530">
        <ele>1323.9</ele>
        <time>2020-11-11T13:58:32Z</time>
      </trkpt>
      <trkpt lat="28.3704580" lon="-16.4763530">
        <ele>1323.9</ele>
        <time>2020-11-11T13:58:33Z</time>
      </trkpt>
      <trkpt lat="28.3704520" lon="-16.4764070">
        <ele>1322.9</ele>
        <time>2020-11-11T13:58:34Z</time>
      </trkpt>
      <trkpt lat="28.3704520" lon="-16.4764070">
        <ele>1322.9</ele>
        <time>2020-11-11T13:58:35Z</time>
      </trkpt>
      <trkpt lat="28.3704600" lon="-16.4764870">
        <ele>1322.9</ele>
        <time>2020-11-11T13:58:36Z</time>
      </trkpt>
      <trkpt lat="28.3704750" lon="-16.4765180">
        <ele>1322.9</ele>
        <time>2020-11-11T13:58:37Z</time>
      </trkpt>
      <trkpt lat="28.3704750" lon="-16.4765180">
        <ele>1321.9</ele>
        <time>2020-11-11T13:58:38Z</time>
      </trkpt>
      <trkpt lat="28.3705500" lon="-16.4765630">
        <ele>1321.9</ele>
        <time>2020-11-11T13:58:39Z</time>
      </trkpt>
      <trkpt lat="28.3705930" lon="-16.4765700">
        <ele>1321.9</ele>
        <time>2020-11-11T13:58:40Z</time>
      </trkpt>
      <trkpt lat="28.3705930" lon="-16.4765700">
        <ele>1321.9</ele>
        <time>2020-11-11T13:58:41Z</time>
      </trkpt>
      <trkpt lat="28.3706900" lon="-16.4765830">
        <ele>1321.9</ele>
        <time>2020-11-11T13:58:42Z</time>
      </trkpt>
      <trkpt lat="28.3707400" lon="-16.4765930">
        <ele>1320.9</ele>
        <time>2020-11-11T13:58:43Z</time>
      </trkpt>
      <trkpt lat="28.3707400" lon="-16.4765930">
        <ele>1320.9</ele>
        <time>2020-11-11T13:58:44Z</time>
      </trkpt>
      <trkpt lat="28.3708300" lon="-16.4765950">
        <ele>1320.9</ele>
        <time>2020-11-11T13:58:45Z</time>
      </trkpt>
      <trkpt lat="28.3708300" lon="-16.4765950">
        <ele>1320.9</ele>
        <time>2020-11-11T13:58:46Z</time>
      </trkpt>
      <trkpt lat="28.3708850" lon="-16.4766030">
        <ele>1320.9</ele>
        <time>2020-11-11T13:58:47Z</time>
      </trkpt>
      <trkpt lat="28.3708850" lon="-16.4766030">
        <ele>1320.9</ele>
        <time>2020-11-11T13:58:48Z</time>
      </trkpt>
      <trkpt lat="28.3708800" lon="-16.4766800">
        <ele>1319.9</ele>
        <time>2020-11-11T13:58:49Z</time>
      </trkpt>
      <trkpt lat="28.3708800" lon="-16.4766800">
        <ele>1319.9</ele>
        <time>2020-11-11T13:58:50Z</time>
      </trkpt>
      <trkpt lat="28.3708300" lon="-16.4767280">
        <ele>1319.9</ele>
        <time>2020-11-11T13:58:51Z</time>
      </trkpt>
      <trkpt lat="28.3708300" lon="-16.4767280">
        <ele>1319.9</ele>
        <time>2020-11-11T13:58:52Z</time>
      </trkpt>
      <trkpt lat="28.3707800" lon="-16.4767700">
        <ele>1319.9</ele>
        <time>2020-11-11T13:58:53Z</time>
      </trkpt>
      <trkpt lat="28.3707800" lon="-16.4767700">
        <ele>1319.9</ele>
        <time>2020-11-11T13:58:54Z</time>
      </trkpt>
      <trkpt lat="28.3707280" lon="-16.4768150">
        <ele>1319.9</ele>
        <time>2020-11-11T13:58:55Z</time>
      </trkpt>
      <trkpt lat="28.3707030" lon="-16.4768450">
        <ele>1319.9</ele>
        <time>2020-11-11T13:58:56Z</time>
      </trkpt>
      <trkpt lat="28.3707030" lon="-16.4768450">
        <ele>1319.9</ele>
        <time>2020-11-11T13:58:57Z</time>
      </trkpt>
      <trkpt lat="28.3706980" lon="-16.4769520">
        <ele>1319.9</ele>
        <time>2020-11-11T13:58:58Z</time>
      </trkpt>
      <trkpt lat="28.3706980" lon="-16.4769520">
        <ele>1319.9</ele>
        <time>2020-11-11T13:58:59Z</time>
      </trkpt>
      <trkpt lat="28.3707270" lon="-16.4770980">
        <ele>1318.9</ele>
        <time>2020-11-11T13:59:00Z</time>
      </trkpt>
      <trkpt lat="28.3707270" lon="-16.4770980">
        <ele>1318.9</ele>
        <time>2020-11-11T13:59:01Z</time>
      </trkpt>
      <trkpt lat="28.3707380" lon="-16.4772270">
        <ele>1318.9</ele>
        <time>2020-11-11T13:59:02Z</time>
      </trkpt>
      <trkpt lat="28.3707380" lon="-16.4772270">
        <ele>1318.9</ele>
        <time>2020-11-11T13:59:03Z</time>
      </trkpt>
      <trkpt lat="28.3707680" lon="-16.4773300">
        <ele>1317.9</ele>
        <time>2020-11-11T13:59:04Z</time>
      </trkpt>
      <trkpt lat="28.3707680" lon="-16.4773300">
        <ele>1317.9</ele>
        <time>2020-11-11T13:59:05Z</time>
      </trkpt>
      <trkpt lat="28.3708320" lon="-16.4774050">
        <ele>1317.9</ele>
        <time>2020-11-11T13:59:06Z</time>
      </trkpt>
      <trkpt lat="28.3708320" lon="-16.4774050">
        <ele>1317.9</ele>
        <time>2020-11-11T13:59:07Z</time>
      </trkpt>
      <trkpt lat="28.3708830" lon="-16.4774820">
        <ele>1316.9</ele>
        <time>2020-11-11T13:59:08Z</time>
      </trkpt>
      <trkpt lat="28.3708830" lon="-16.4774820">
        <ele>1316.9</ele>
        <time>2020-11-11T13:59:09Z</time>
      </trkpt>
      <trkpt lat="28.3708920" lon="-16.4775570">
        <ele>1316.9</ele>
        <time>2020-11-11T13:59:10Z</time>
      </trkpt>
      <trkpt lat="28.3708820" lon="-16.4775900">
        <ele>1316.9</ele>
        <time>2020-11-11T13:59:11Z</time>
      </trkpt>
      <trkpt lat="28.3708820" lon="-16.4775900">
        <ele>1316.9</ele>
        <time>2020-11-11T13:59:12Z</time>
      </trkpt>
      <trkpt lat="28.3708550" lon="-16.4776230">
        <ele>1315.9</ele>
        <time>2020-11-11T13:59:13Z</time>
      </trkpt>
      <trkpt lat="28.3708400" lon="-16.4776430">
        <ele>1315.9</ele>
        <time>2020-11-11T13:59:14Z</time>
      </trkpt>
      <trkpt lat="28.3708400" lon="-16.4776430">
        <ele>1315.9</ele>
        <time>2020-11-11T13:59:15Z</time>
      </trkpt>
      <trkpt lat="28.3708370" lon="-16.4776980">
        <ele>1315.9</ele>
        <time>2020-11-11T13:59:16Z</time>
      </trkpt>
      <trkpt lat="28.3708450" lon="-16.4777300">
        <ele>1314.9</ele>
        <time>2020-11-11T13:59:17Z</time>
      </trkpt>
      <trkpt lat="28.3708520" lon="-16.4777870">
        <ele>1314.9</ele>
        <time>2020-11-11T13:59:18Z</time>
      </trkpt>
      <trkpt lat="28.3708520" lon="-16.4777870">
        <ele>1314.9</ele>
        <time>2020-11-11T13:59:19Z</time>
      </trkpt>
      <trkpt lat="28.3709020" lon="-16.4778730">
        <ele>1314.9</ele>
        <time>2020-11-11T13:59:20Z</time>
      </trkpt>
      <trkpt lat="28.3709020" lon="-16.4778730">
        <ele>1313.9</ele>
        <time>2020-11-11T13:59:21Z</time>
      </trkpt>
      <trkpt lat="28.3709270" lon="-16.4779670">
        <ele>1313.9</ele>
        <time>2020-11-11T13:59:22Z</time>
      </trkpt>
      <trkpt lat="28.3709250" lon="-16.4780070">
        <ele>1313.9</ele>
        <time>2020-11-11T13:59:23Z</time>
      </trkpt>
      <trkpt lat="28.3709250" lon="-16.4780070">
        <ele>1313.9</ele>
        <time>2020-11-11T13:59:24Z</time>
      </trkpt>
      <trkpt lat="28.3709280" lon="-16.4780570">
        <ele>1312.9</ele>
        <time>2020-11-11T13:59:25Z</time>
      </trkpt>
      <trkpt lat="28.3709280" lon="-16.4780570">
        <ele>1312.9</ele>
        <time>2020-11-11T13:59:26Z</time>
      </trkpt>
      <trkpt lat="28.3708970" lon="-16.4781000">
        <ele>1311.9</ele>
        <time>2020-11-11T13:59:27Z</time>
      </trkpt>
      <trkpt lat="28.3708970" lon="-16.4781000">
        <ele>1311.9</ele>
        <time>2020-11-11T13:59:28Z</time>
      </trkpt>
      <trkpt lat="28.3709020" lon="-16.4781920">
        <ele>1311.9</ele>
        <time>2020-11-11T13:59:29Z</time>
      </trkpt>
      <trkpt lat="28.3709030" lon="-16.4782500">
        <ele>1311.9</ele>
        <time>2020-11-11T13:59:30Z</time>
      </trkpt>
      <trkpt lat="28.3709030" lon="-16.4782500">
        <ele>1311.9</ele>
        <time>2020-11-11T13:59:31Z</time>
      </trkpt>
      <trkpt lat="28.3709220" lon="-16.4783470">
        <ele>1311.9</ele>
        <time>2020-11-11T13:59:32Z</time>
      </trkpt>
      <trkpt lat="28.3709220" lon="-16.4783470">
        <ele>1310.9</ele>
        <time>2020-11-11T13:59:33Z</time>
      </trkpt>
      <trkpt lat="28.3709730" lon="-16.4784180">
        <ele>1310.9</ele>
        <time>2020-11-11T13:59:34Z</time>
      </trkpt>
      <trkpt lat="28.3709730" lon="-16.4784180">
        <ele>1310.9</ele>
        <time>2020-11-11T13:59:35Z</time>
      </trkpt>
      <trkpt lat="28.3710320" lon="-16.4784900">
        <ele>1309.9</ele>
        <time>2020-11-11T13:59:36Z</time>
      </trkpt>
      <trkpt lat="28.3710320" lon="-16.4784900">
        <ele>1309.9</ele>
        <time>2020-11-11T13:59:37Z</time>
      </trkpt>
      <trkpt lat="28.3710620" lon="-16.4785450">
        <ele>1309.9</ele>
        <time>2020-11-11T13:59:38Z</time>
      </trkpt>
      <trkpt lat="28.3710620" lon="-16.4785450">
        <ele>1309.9</ele>
        <time>2020-11-11T13:59:39Z</time>
      </trkpt>
      <trkpt lat="28.3710530" lon="-16.4785930">
        <ele>1308.9</ele>
        <time>2020-11-11T13:59:40Z</time>
      </trkpt>
      <trkpt lat="28.3710530" lon="-16.4785930">
        <ele>1308.9</ele>
        <time>2020-11-11T13:59:41Z</time>
      </trkpt>
      <trkpt lat="28.3710330" lon="-16.4786370">
        <ele>1308.9</ele>
        <time>2020-11-11T13:59:42Z</time>
      </trkpt>
      <trkpt lat="28.3710120" lon="-16.4786850">
        <ele>1308.9</ele>
        <time>2020-11-11T13:59:43Z</time>
      </trkpt>
      <trkpt lat="28.3710120" lon="-16.4786850">
        <ele>1307.9</ele>
        <time>2020-11-11T13:59:44Z</time>
      </trkpt>
      <trkpt lat="28.3709730" lon="-16.4787470">
        <ele>1307.9</ele>
        <time>2020-11-11T13:59:45Z</time>
      </trkpt>
      <trkpt lat="28.3709330" lon="-16.4787920">
        <ele>1307.9</ele>
        <time>2020-11-11T13:59:46Z</time>
      </trkpt>
      <trkpt lat="28.3709330" lon="-16.4787920">
        <ele>1307.9</ele>
        <time>2020-11-11T13:59:47Z</time>
      </trkpt>
      <trkpt lat="28.3708700" lon="-16.4788680">
        <ele>1306.9</ele>
        <time>2020-11-11T13:59:48Z</time>
      </trkpt>
      <trkpt lat="28.3708370" lon="-16.4789030">
        <ele>1306.9</ele>
        <time>2020-11-11T13:59:49Z</time>
      </trkpt>
      <trkpt lat="28.3708050" lon="-16.4789370">
        <ele>1306.9</ele>
        <time>2020-11-11T13:59:50Z</time>
      </trkpt>
      <trkpt lat="28.3707850" lon="-16.4789680">
        <ele>1306.9</ele>
        <time>2020-11-11T13:59:51Z</time>
      </trkpt>
      <trkpt lat="28.3707850" lon="-16.4789680">
        <ele>1304.9</ele>
        <time>2020-11-11T13:59:52Z</time>
      </trkpt>
      <trkpt lat="28.3707650" lon="-16.4790470">
        <ele>1304.9</ele>
        <time>2020-11-11T13:59:53Z</time>
      </trkpt>
      <trkpt lat="28.3707650" lon="-16.4790470">
        <ele>1304.9</ele>
        <time>2020-11-11T13:59:54Z</time>
      </trkpt>
      <trkpt lat="28.3707670" lon="-16.4791800">
        <ele>1304.9</ele>
        <time>2020-11-11T13:59:55Z</time>
      </trkpt>
      <trkpt lat="28.3707630" lon="-16.4792320">
        <ele>1303.9</ele>
        <time>2020-11-11T13:59:56Z</time>
      </trkpt>
      <trkpt lat="28.3707630" lon="-16.4792320">
        <ele>1303.9</ele>
        <time>2020-11-11T13:59:57Z</time>
      </trkpt>
      <trkpt lat="28.3707630" lon="-16.4793380">
        <ele>1303.9</ele>
        <time>2020-11-11T13:59:58Z</time>
      </trkpt>
      <trkpt lat="28.3707630" lon="-16.4793380">
        <ele>1303.9</ele>
        <time>2020-11-11T13:59:59Z</time>
      </trkpt>
      <trkpt lat="28.3707900" lon="-16.4794400">
        <ele>1302.9</ele>
        <time>2020-11-11T14:00:00Z</time>
      </trkpt>
      <trkpt lat="28.3708180" lon="-16.4794630">
        <ele>1302.9</ele>
        <time>2020-11-11T14:00:01Z</time>
      </trkpt>
      <trkpt lat="28.3708180" lon="-16.4794630">
        <ele>1300.9</ele>
        <time>2020-11-11T14:00:02Z</time>
      </trkpt>
      <trkpt lat="28.3708720" lon="-16.4795050">
        <ele>1300.9</ele>
        <time>2020-11-11T14:00:03Z</time>
      </trkpt>
      <trkpt lat="28.3708720" lon="-16.4795050">
        <ele>1299.9</ele>
        <time>2020-11-11T14:00:04Z</time>
      </trkpt>
      <trkpt lat="28.3709370" lon="-16.4795470">
        <ele>1299.9</ele>
        <time>2020-11-11T14:00:05Z</time>
      </trkpt>
      <trkpt lat="28.3709770" lon="-16.4795650">
        <ele>1299.9</ele>
        <time>2020-11-11T14:00:06Z</time>
      </trkpt>
      <trkpt lat="28.3709770" lon="-16.4795650">
        <ele>1299.9</ele>
        <time>2020-11-11T14:00:07Z</time>
      </trkpt>
      <trkpt lat="28.3710470" lon="-16.4795520">
        <ele>1298.9</ele>
        <time>2020-11-11T14:00:08Z</time>
      </trkpt>
      <trkpt lat="28.3710470" lon="-16.4795520">
        <ele>1298.9</ele>
        <time>2020-11-11T14:00:09Z</time>
      </trkpt>
      <trkpt lat="28.3711330" lon="-16.4795600">
        <ele>1297.9</ele>
        <time>2020-11-11T14:00:10Z</time>
      </trkpt>
      <trkpt lat="28.3711330" lon="-16.4795600">
        <ele>1297.9</ele>
        <time>2020-11-11T14:00:11Z</time>
      </trkpt>
      <trkpt lat="28.3712380" lon="-16.4795780">
        <ele>1297.9</ele>
        <time>2020-11-11T14:00:12Z</time>
      </trkpt>
      <trkpt lat="28.3712830" lon="-16.4796030">
        <ele>1295.9</ele>
        <time>2020-11-11T14:00:13Z</time>
      </trkpt>
      <trkpt lat="28.3712830" lon="-16.4796030">
        <ele>1295.9</ele>
        <time>2020-11-11T14:00:14Z</time>
      </trkpt>
      <trkpt lat="28.3713630" lon="-16.4796770">
        <ele>1295.9</ele>
        <time>2020-11-11T14:00:15Z</time>
      </trkpt>
      <trkpt lat="28.3713630" lon="-16.4796770">
        <ele>1295.9</ele>
        <time>2020-11-11T14:00:16Z</time>
      </trkpt>
      <trkpt lat="28.3714370" lon="-16.4797900">
        <ele>1294.9</ele>
        <time>2020-11-11T14:00:17Z</time>
      </trkpt>
      <trkpt lat="28.3714750" lon="-16.4798280">
        <ele>1294.9</ele>
        <time>2020-11-11T14:00:18Z</time>
      </trkpt>
      <trkpt lat="28.3714750" lon="-16.4798280">
        <ele>1294.9</ele>
        <time>2020-11-11T14:00:19Z</time>
      </trkpt>
      <trkpt lat="28.3715450" lon="-16.4799030">
        <ele>1294.9</ele>
        <time>2020-11-11T14:00:20Z</time>
      </trkpt>
      <trkpt lat="28.3715450" lon="-16.4799030">
        <ele>1292.9</ele>
        <time>2020-11-11T14:00:21Z</time>
      </trkpt>
      <trkpt lat="28.3716320" lon="-16.4799820">
        <ele>1292.9</ele>
        <time>2020-11-11T14:00:22Z</time>
      </trkpt>
      <trkpt lat="28.3716730" lon="-16.4800130">
        <ele>1292.9</ele>
        <time>2020-11-11T14:00:23Z</time>
      </trkpt>
      <trkpt lat="28.3716730" lon="-16.4800130">
        <ele>1292.9</ele>
        <time>2020-11-11T14:00:24Z</time>
      </trkpt>
      <trkpt lat="28.3717520" lon="-16.4801050">
        <ele>1290.9</ele>
        <time>2020-11-11T14:00:25Z</time>
      </trkpt>
      <trkpt lat="28.3717930" lon="-16.4801520">
        <ele>1290.9</ele>
        <time>2020-11-11T14:00:26Z</time>
      </trkpt>
      <trkpt lat="28.3717930" lon="-16.4801520">
        <ele>1289.9</ele>
        <time>2020-11-11T14:00:27Z</time>
      </trkpt>
      <trkpt lat="28.3718980" lon="-16.4802630">
        <ele>1289.9</ele>
        <time>2020-11-11T14:00:28Z</time>
      </trkpt>
      <trkpt lat="28.3718980" lon="-16.4802630">
        <ele>1288.9</ele>
        <time>2020-11-11T14:00:29Z</time>
      </trkpt>
      <trkpt lat="28.3720070" lon="-16.4802700">
        <ele>1288.9</ele>
        <time>2020-11-11T14:00:30Z</time>
      </trkpt>
      <trkpt lat="28.3720070" lon="-16.4802700">
        <ele>1288.9</ele>
        <time>2020-11-11T14:00:31Z</time>
      </trkpt>
      <trkpt lat="28.3721030" lon="-16.4802050">
        <ele>1288.9</ele>
        <time>2020-11-11T14:00:32Z</time>
      </trkpt>
      <trkpt lat="28.3721030" lon="-16.4802050">
        <ele>1287.9</ele>
        <time>2020-11-11T14:00:33Z</time>
      </trkpt>
      <trkpt lat="28.3721980" lon="-16.4801270">
        <ele>1287.9</ele>
        <time>2020-11-11T14:00:34Z</time>
      </trkpt>
      <trkpt lat="28.3722430" lon="-16.4801020">
        <ele>1287.9</ele>
        <time>2020-11-11T14:00:35Z</time>
      </trkpt>
      <trkpt lat="28.3722430" lon="-16.4801020">
        <ele>1287.9</ele>
        <time>2020-11-11T14:00:36Z</time>
      </trkpt>
      <trkpt lat="28.3723480" lon="-16.4800680">
        <ele>1286.9</ele>
        <time>2020-11-11T14:00:37Z</time>
      </trkpt>
      <trkpt lat="28.3723970" lon="-16.4800730">
        <ele>1286.9</ele>
        <time>2020-11-11T14:00:38Z</time>
      </trkpt>
      <trkpt lat="28.3723970" lon="-16.4800730">
        <ele>1286.9</ele>
        <time>2020-11-11T14:00:39Z</time>
      </trkpt>
      <trkpt lat="28.3724650" lon="-16.4801030">
        <ele>1286.9</ele>
        <time>2020-11-11T14:00:40Z</time>
      </trkpt>
      <trkpt lat="28.3724650" lon="-16.4801030">
        <ele>1285.9</ele>
        <time>2020-11-11T14:00:41Z</time>
      </trkpt>
      <trkpt lat="28.3725170" lon="-16.4802130">
        <ele>1285.9</ele>
        <time>2020-11-11T14:00:42Z</time>
      </trkpt>
      <trkpt lat="28.3725170" lon="-16.4802130">
        <ele>1285.9</ele>
        <time>2020-11-11T14:00:43Z</time>
      </trkpt>
      <trkpt lat="28.3725600" lon="-16.4802850">
        <ele>1285.9</ele>
        <time>2020-11-11T14:00:44Z</time>
      </trkpt>
      <trkpt lat="28.3725600" lon="-16.4802850">
        <ele>1285.9</ele>
        <time>2020-11-11T14:00:45Z</time>
      </trkpt>
      <trkpt lat="28.3725980" lon="-16.4803580">
        <ele>1284.9</ele>
        <time>2020-11-11T14:00:46Z</time>
      </trkpt>
      <trkpt lat="28.3726230" lon="-16.4803900">
        <ele>1283.9</ele>
        <time>2020-11-11T14:00:47Z</time>
      </trkpt>
      <trkpt lat="28.3726230" lon="-16.4803900">
        <ele>1283.9</ele>
        <time>2020-11-11T14:00:48Z</time>
      </trkpt>
      <trkpt lat="28.3726930" lon="-16.4804880">
        <ele>1282.9</ele>
        <time>2020-11-11T14:00:49Z</time>
      </trkpt>
      <trkpt lat="28.3727170" lon="-16.4805280">
        <ele>1282.9</ele>
        <time>2020-11-11T14:00:50Z</time>
      </trkpt>
      <trkpt lat="28.3727170" lon="-16.4805280">
        <ele>1281.9</ele>
        <time>2020-11-11T14:00:51Z</time>
      </trkpt>
      <trkpt lat="28.3727720" lon="-16.4805920">
        <ele>1281.9</ele>
        <time>2020-11-11T14:00:52Z</time>
      </trkpt>
      <trkpt lat="28.3727930" lon="-16.4806150">
        <ele>1281.9</ele>
        <time>2020-11-11T14:00:53Z</time>
      </trkpt>
      <trkpt lat="28.3727930" lon="-16.4806150">
        <ele>1280.9</ele>
        <time>2020-11-11T14:00:54Z</time>
      </trkpt>
      <trkpt lat="28.3728270" lon="-16.4806880">
        <ele>1280.9</ele>
        <time>2020-11-11T14:00:55Z</time>
      </trkpt>
      <trkpt lat="28.3728230" lon="-16.4807300">
        <ele>1280.9</ele>
        <time>2020-11-11T14:00:56Z</time>
      </trkpt>
      <trkpt lat="28.3728230" lon="-16.4807300">
        <ele>1279.9</ele>
        <time>2020-11-11T14:00:57Z</time>
      </trkpt>
      <trkpt lat="28.3728430" lon="-16.4807480">
        <ele>1279.9</ele>
        <time>2020-11-11T14:00:58Z</time>
      </trkpt>
      <trkpt lat="28.3728430" lon="-16.4807480">
        <ele>1279.9</ele>
        <time>2020-11-11T14:00:59Z</time>
      </trkpt>
      <trkpt lat="28.3728870" lon="-16.4807730">
        <ele>1278.9</ele>
        <time>2020-11-11T14:01:00Z</time>
      </trkpt>
      <trkpt lat="28.3729000" lon="-16.4807920">
        <ele>1278.9</ele>
        <time>2020-11-11T14:01:01Z</time>
      </trkpt>
      <trkpt lat="28.3729000" lon="-16.4807920">
        <ele>1277.9</ele>
        <time>2020-11-11T14:01:02Z</time>
      </trkpt>
      <trkpt lat="28.3729350" lon="-16.4808470">
        <ele>1277.9</ele>
        <time>2020-11-11T14:01:03Z</time>
      </trkpt>
      <trkpt lat="28.3729350" lon="-16.4808470">
        <ele>1277.9</ele>
        <time>2020-11-11T14:01:04Z</time>
      </trkpt>
      <trkpt lat="28.3729620" lon="-16.4809050">
        <ele>1277.9</ele>
        <time>2020-11-11T14:01:05Z</time>
      </trkpt>
      <trkpt lat="28.3729820" lon="-16.4809270">
        <ele>1276.9</ele>
        <time>2020-11-11T14:01:06Z</time>
      </trkpt>
      <trkpt lat="28.3729820" lon="-16.4809270">
        <ele>1276.9</ele>
        <time>2020-11-11T14:01:07Z</time>
      </trkpt>
      <trkpt lat="28.3730180" lon="-16.4809750">
        <ele>1276.9</ele>
        <time>2020-11-11T14:01:08Z</time>
      </trkpt>
      <trkpt lat="28.3730180" lon="-16.4809750">
        <ele>1276.9</ele>
        <time>2020-11-11T14:01:09Z</time>
      </trkpt>
      <trkpt lat="28.3730650" lon="-16.4810200">
        <ele>1275.9</ele>
        <time>2020-11-11T14:01:10Z</time>
      </trkpt>
      <trkpt lat="28.3730650" lon="-16.4810200">
        <ele>1275.9</ele>
        <time>2020-11-11T14:01:11Z</time>
      </trkpt>
      <trkpt lat="28.3731230" lon="-16.4810480">
        <ele>1275.9</ele>
        <time>2020-11-11T14:01:12Z</time>
      </trkpt>
      <trkpt lat="28.3731230" lon="-16.4810480">
        <ele>1275.9</ele>
        <time>2020-11-11T14:01:13Z</time>
      </trkpt>
      <trkpt lat="28.3731850" lon="-16.4810630">
        <ele>1273.9</ele>
        <time>2020-11-11T14:01:14Z</time>
      </trkpt>
      <trkpt lat="28.3731850" lon="-16.4810630">
        <ele>1273.9</ele>
        <time>2020-11-11T14:01:15Z</time>
      </trkpt>
      <trkpt lat="28.3732400" lon="-16.4811320">
        <ele>1273.9</ele>
        <time>2020-11-11T14:01:16Z</time>
      </trkpt>
      <trkpt lat="28.3732400" lon="-16.4811320">
        <ele>1273.9</ele>
        <time>2020-11-11T14:01:17Z</time>
      </trkpt>
      <trkpt lat="28.3733000" lon="-16.4811900">
        <ele>1272.9</ele>
        <time>2020-11-11T14:01:18Z</time>
      </trkpt>
      <trkpt lat="28.3733000" lon="-16.4811900">
        <ele>1272.9</ele>
        <time>2020-11-11T14:01:19Z</time>
      </trkpt>
      <trkpt lat="28.3733380" lon="-16.4812630">
        <ele>1272.9</ele>
        <time>2020-11-11T14:01:20Z</time>
      </trkpt>
      <trkpt lat="28.3733380" lon="-16.4812630">
        <ele>1272.9</ele>
        <time>2020-11-11T14:01:21Z</time>
      </trkpt>
      <trkpt lat="28.3733630" lon="-16.4812870">
        <ele>1272.9</ele>
        <time>2020-11-11T14:01:22Z</time>
      </trkpt>
      <trkpt lat="28.3733630" lon="-16.4812870">
        <ele>1272.9</ele>
        <time>2020-11-11T14:01:23Z</time>
      </trkpt>
      <trkpt lat="28.3733530" lon="-16.4813470">
        <ele>1272.9</ele>
        <time>2020-11-11T14:01:24Z</time>
      </trkpt>
      <trkpt lat="28.3733530" lon="-16.4813470">
        <ele>1271.9</ele>
        <time>2020-11-11T14:01:25Z</time>
      </trkpt>
      <trkpt lat="28.3733230" lon="-16.4813800">
        <ele>1271.9</ele>
        <time>2020-11-11T14:01:26Z</time>
      </trkpt>
      <trkpt lat="28.3733230" lon="-16.4813800">
        <ele>1270.9</ele>
        <time>2020-11-11T14:01:27Z</time>
      </trkpt>
      <trkpt lat="28.3733020" lon="-16.4814420">
        <ele>1270.9</ele>
        <time>2020-11-11T14:01:28Z</time>
      </trkpt>
      <trkpt lat="28.3733020" lon="-16.4814420">
        <ele>1270.9</ele>
        <time>2020-11-11T14:01:29Z</time>
      </trkpt>
      <trkpt lat="28.3732770" lon="-16.4814200">
        <ele>1270.9</ele>
        <time>2020-11-11T14:01:30Z</time>
      </trkpt>
      <trkpt lat="28.3732580" lon="-16.4814120">
        <ele>1269.9</ele>
        <time>2020-11-11T14:01:31Z</time>
      </trkpt>
      <trkpt lat="28.3732400" lon="-16.4814030">
        <ele>1269.9</ele>
        <time>2020-11-11T14:01:32Z</time>
      </trkpt>
      <trkpt lat="28.3732400" lon="-16.4814030">
        <ele>1269.9</ele>
        <time>2020-11-11T14:01:33Z</time>
      </trkpt>
      <trkpt lat="28.3732220" lon="-16.4813670">
        <ele>1269.9</ele>
        <time>2020-11-11T14:01:34Z</time>
      </trkpt>
      <trkpt lat="28.3732220" lon="-16.4813670">
        <ele>1268.9</ele>
        <time>2020-11-11T14:01:35Z</time>
      </trkpt>
      <trkpt lat="28.3731720" lon="-16.4813430">
        <ele>1268.9</ele>
        <time>2020-11-11T14:01:36Z</time>
      </trkpt>
      <trkpt lat="28.3731720" lon="-16.4813430">
        <ele>1268.9</ele>
        <time>2020-11-11T14:01:37Z</time>
      </trkpt>
      <trkpt lat="28.3731200" lon="-16.4813200">
        <ele>1268.9</ele>
        <time>2020-11-11T14:01:38Z</time>
      </trkpt>
      <trkpt lat="28.3731200" lon="-16.4813200">
        <ele>1267.9</ele>
        <time>2020-11-11T14:01:39Z</time>
      </trkpt>
      <trkpt lat="28.3730580" lon="-16.4812970">
        <ele>1267.9</ele>
        <time>2020-11-11T14:01:40Z</time>
      </trkpt>
      <trkpt lat="28.3730580" lon="-16.4812970">
        <ele>1267.9</ele>
        <time>2020-11-11T14:01:41Z</time>
      </trkpt>
      <trkpt lat="28.3729900" lon="-16.4812630">
        <ele>1267.9</ele>
        <time>2020-11-11T14:01:42Z</time>
      </trkpt>
      <trkpt lat="28.3729530" lon="-16.4812500">
        <ele>1267.9</ele>
        <time>2020-11-11T14:01:43Z</time>
      </trkpt>
      <trkpt lat="28.3729220" lon="-16.4812330">
        <ele>1267.9</ele>
        <time>2020-11-11T14:01:44Z</time>
      </trkpt>
      <trkpt lat="28.3729220" lon="-16.4812330">
        <ele>1267.9</ele>
        <time>2020-11-11T14:01:45Z</time>
      </trkpt>
      <trkpt lat="28.3728700" lon="-16.4811780">
        <ele>1267.9</ele>
        <time>2020-11-11T14:01:46Z</time>
      </trkpt>
      <trkpt lat="28.3728700" lon="-16.4811780">
        <ele>1266.9</ele>
        <time>2020-11-11T14:01:47Z</time>
      </trkpt>
      <trkpt lat="28.3728250" lon="-16.4810820">
        <ele>1266.9</ele>
        <time>2020-11-11T14:01:48Z</time>
      </trkpt>
      <trkpt lat="28.3728250" lon="-16.4810820">
        <ele>1266.9</ele>
        <time>2020-11-11T14:01:49Z</time>
      </trkpt>
      <trkpt lat="28.3727620" lon="-16.4810050">
        <ele>1266.9</ele>
        <time>2020-11-11T14:01:50Z</time>
      </trkpt>
      <trkpt lat="28.3727620" lon="-16.4810050">
        <ele>1266.9</ele>
        <time>2020-11-11T14:01:51Z</time>
      </trkpt>
      <trkpt lat="28.3726970" lon="-16.4809470">
        <ele>1266.9</ele>
        <time>2020-11-11T14:01:52Z</time>
      </trkpt>
      <trkpt lat="28.3726970" lon="-16.4809470">
        <ele>1265.9</ele>
        <time>2020-11-11T14:01:53Z</time>
      </trkpt>
      <trkpt lat="28.3726300" lon="-16.4808830">
        <ele>1265.9</ele>
        <time>2020-11-11T14:01:54Z</time>
      </trkpt>
      <trkpt lat="28.3726300" lon="-16.4808830">
        <ele>1265.9</ele>
        <time>2020-11-11T14:01:55Z</time>
      </trkpt>
      <trkpt lat="28.3725600" lon="-16.4808600">
        <ele>1265.9</ele>
        <time>2020-11-11T14:01:56Z</time>
      </trkpt>
      <trkpt lat="28.3725600" lon="-16.4808600">
        <ele>1264.9</ele>
        <time>2020-11-11T14:01:57Z</time>
      </trkpt>
      <trkpt lat="28.3724870" lon="-16.4808430">
        <ele>1264.9</ele>
        <time>2020-11-11T14:01:58Z</time>
      </trkpt>
      <trkpt lat="28.3724520" lon="-16.4808350">
        <ele>1264.9</ele>
        <time>2020-11-11T14:01:59Z</time>
      </trkpt>
      <trkpt lat="28.3724520" lon="-16.4808350">
        <ele>1264.9</ele>
        <time>2020-11-11T14:02:00Z</time>
      </trkpt>
      <trkpt lat="28.3723850" lon="-16.4808350">
        <ele>1263.9</ele>
        <time>2020-11-11T14:02:01Z</time>
      </trkpt>
      <trkpt lat="28.3723420" lon="-16.4808380">
        <ele>1263.9</ele>
        <time>2020-11-11T14:02:02Z</time>
      </trkpt>
      <trkpt lat="28.3723420" lon="-16.4808380">
        <ele>1263.9</ele>
        <time>2020-11-11T14:02:03Z</time>
      </trkpt>
      <trkpt lat="28.3722720" lon="-16.4808800">
        <ele>1263.9</ele>
        <time>2020-11-11T14:02:04Z</time>
      </trkpt>
      <trkpt lat="28.3722350" lon="-16.4808950">
        <ele>1262.9</ele>
        <time>2020-11-11T14:02:05Z</time>
      </trkpt>
      <trkpt lat="28.3722350" lon="-16.4808950">
        <ele>1262.9</ele>
        <time>2020-11-11T14:02:06Z</time>
      </trkpt>
      <trkpt lat="28.3721500" lon="-16.4809070">
        <ele>1261.9</ele>
        <time>2020-11-11T14:02:07Z</time>
      </trkpt>
      <trkpt lat="28.3721180" lon="-16.4809170">
        <ele>1261.9</ele>
        <time>2020-11-11T14:02:08Z</time>
      </trkpt>
      <trkpt lat="28.3721180" lon="-16.4809170">
        <ele>1260.9</ele>
        <time>2020-11-11T14:02:09Z</time>
      </trkpt>
      <trkpt lat="28.3720370" lon="-16.4809220">
        <ele>1260.9</ele>
        <time>2020-11-11T14:02:10Z</time>
      </trkpt>
      <trkpt lat="28.3720370" lon="-16.4809220">
        <ele>1259.9</ele>
        <time>2020-11-11T14:02:11Z</time>
      </trkpt>
      <trkpt lat="28.3719150" lon="-16.4809250">
        <ele>1259.9</ele>
        <time>2020-11-11T14:02:12Z</time>
      </trkpt>
      <trkpt lat="28.3719150" lon="-16.4809250">
        <ele>1258.9</ele>
        <time>2020-11-11T14:02:13Z</time>
      </trkpt>
      <trkpt lat="28.3718200" lon="-16.4809130">
        <ele>1258.9</ele>
        <time>2020-11-11T14:02:14Z</time>
      </trkpt>
      <trkpt lat="28.3718200" lon="-16.4809130">
        <ele>1257.9</ele>
        <time>2020-11-11T14:02:15Z</time>
      </trkpt>
      <trkpt lat="28.3717280" lon="-16.4808980">
        <ele>1257.9</ele>
        <time>2020-11-11T14:02:16Z</time>
      </trkpt>
      <trkpt lat="28.3717280" lon="-16.4808980">
        <ele>1257.9</ele>
        <time>2020-11-11T14:02:17Z</time>
      </trkpt>
      <trkpt lat="28.3716530" lon="-16.4809080">
        <ele>1257.9</ele>
        <time>2020-11-11T14:02:18Z</time>
      </trkpt>
      <trkpt lat="28.3716530" lon="-16.4809080">
        <ele>1255.9</ele>
        <time>2020-11-11T14:02:19Z</time>
      </trkpt>
      <trkpt lat="28.3715950" lon="-16.4809180">
        <ele>1255.9</ele>
        <time>2020-11-11T14:02:20Z</time>
      </trkpt>
      <trkpt lat="28.3715950" lon="-16.4809180">
        <ele>1255.9</ele>
        <time>2020-11-11T14:02:21Z</time>
      </trkpt>
      <trkpt lat="28.3715280" lon="-16.4809280">
        <ele>1255.9</ele>
        <time>2020-11-11T14:02:22Z</time>
      </trkpt>
      <trkpt lat="28.3714930" lon="-16.4809220">
        <ele>1255.9</ele>
        <time>2020-11-11T14:02:23Z</time>
      </trkpt>
      <trkpt lat="28.3714930" lon="-16.4809220">
        <ele>1255.9</ele>
        <time>2020-11-11T14:02:24Z</time>
      </trkpt>
      <trkpt lat="28.3713720" lon="-16.4809430">
        <ele>1255.9</ele>
        <time>2020-11-11T14:02:25Z</time>
      </trkpt>
      <trkpt lat="28.3713180" lon="-16.4809270">
        <ele>1254.9</ele>
        <time>2020-11-11T14:02:26Z</time>
      </trkpt>
      <trkpt lat="28.3713180" lon="-16.4809270">
        <ele>1254.9</ele>
        <time>2020-11-11T14:02:27Z</time>
      </trkpt>
      <trkpt lat="28.3712520" lon="-16.4808950">
        <ele>1254.9</ele>
        <time>2020-11-11T14:02:28Z</time>
      </trkpt>
      <trkpt lat="28.3712520" lon="-16.4808950">
        <ele>1254.9</ele>
        <time>2020-11-11T14:02:29Z</time>
      </trkpt>
      <trkpt lat="28.3711920" lon="-16.4808500">
        <ele>1252.9</ele>
        <time>2020-11-11T14:02:30Z</time>
      </trkpt>
      <trkpt lat="28.3711920" lon="-16.4808500">
        <ele>1252.9</ele>
        <time>2020-11-11T14:02:31Z</time>
      </trkpt>
      <trkpt lat="28.3711270" lon="-16.4808030">
        <ele>1252.9</ele>
        <time>2020-11-11T14:02:32Z</time>
      </trkpt>
      <trkpt lat="28.3711270" lon="-16.4808030">
        <ele>1252.9</ele>
        <time>2020-11-11T14:02:33Z</time>
      </trkpt>
      <trkpt lat="28.3710820" lon="-16.4807720">
        <ele>1252.9</ele>
        <time>2020-11-11T14:02:34Z</time>
      </trkpt>
      <trkpt lat="28.3710820" lon="-16.4807720">
        <ele>1251.9</ele>
        <time>2020-11-11T14:02:35Z</time>
      </trkpt>
      <trkpt lat="28.3710230" lon="-16.4807380">
        <ele>1251.9</ele>
        <time>2020-11-11T14:02:36Z</time>
      </trkpt>
      <trkpt lat="28.3710230" lon="-16.4807380">
        <ele>1250.9</ele>
        <time>2020-11-11T14:02:37Z</time>
      </trkpt>
      <trkpt lat="28.3709580" lon="-16.4807170">
        <ele>1249.9</ele>
        <time>2020-11-11T14:02:38Z</time>
      </trkpt>
      <trkpt lat="28.3709580" lon="-16.4807170">
        <ele>1249.9</ele>
        <time>2020-11-11T14:02:39Z</time>
      </trkpt>
      <trkpt lat="28.3708830" lon="-16.4807070">
        <ele>1248.9</ele>
        <time>2020-11-11T14:02:40Z</time>
      </trkpt>
      <trkpt lat="28.3708830" lon="-16.4807070">
        <ele>1248.9</ele>
        <time>2020-11-11T14:02:41Z</time>
      </trkpt>
      <trkpt lat="28.3708280" lon="-16.4807180">
        <ele>1248.9</ele>
        <time>2020-11-11T14:02:42Z</time>
      </trkpt>
      <trkpt lat="28.3708280" lon="-16.4807180">
        <ele>1248.9</ele>
        <time>2020-11-11T14:02:43Z</time>
      </trkpt>
      <trkpt lat="28.3708320" lon="-16.4807750">
        <ele>1247.9</ele>
        <time>2020-11-11T14:02:44Z</time>
      </trkpt>
      <trkpt lat="28.3708320" lon="-16.4807750">
        <ele>1247.9</ele>
        <time>2020-11-11T14:02:45Z</time>
      </trkpt>
      <trkpt lat="28.3708650" lon="-16.4808180">
        <ele>1247.9</ele>
        <time>2020-11-11T14:02:46Z</time>
      </trkpt>
      <trkpt lat="28.3708650" lon="-16.4808180">
        <ele>1247.9</ele>
        <time>2020-11-11T14:02:47Z</time>
      </trkpt>
      <trkpt lat="28.3709080" lon="-16.4808520">
        <ele>1245.9</ele>
        <time>2020-11-11T14:02:48Z</time>
      </trkpt>
      <trkpt lat="28.3709320" lon="-16.4808630">
        <ele>1245.9</ele>
        <time>2020-11-11T14:02:49Z</time>
      </trkpt>
      <trkpt lat="28.3709570" lon="-16.4808850">
        <ele>1245.9</ele>
        <time>2020-11-11T14:02:50Z</time>
      </trkpt>
      <trkpt lat="28.3709570" lon="-16.4808850">
        <ele>1245.9</ele>
        <time>2020-11-11T14:02:51Z</time>
      </trkpt>
      <trkpt lat="28.3710130" lon="-16.4809350">
        <ele>1245.9</ele>
        <time>2020-11-11T14:02:52Z</time>
      </trkpt>
      <trkpt lat="28.3710400" lon="-16.4809670">
        <ele>1245.9</ele>
        <time>2020-11-11T14:02:53Z</time>
      </trkpt>
      <trkpt lat="28.3710400" lon="-16.4809670">
        <ele>1245.9</ele>
        <time>2020-11-11T14:02:54Z</time>
      </trkpt>
      <trkpt lat="28.3710830" lon="-16.4810370">
        <ele>1245.9</ele>
        <time>2020-11-11T14:02:55Z</time>
      </trkpt>
      <trkpt lat="28.3710830" lon="-16.4810370">
        <ele>1244.9</ele>
        <time>2020-11-11T14:02:56Z</time>
      </trkpt>
      <trkpt lat="28.3711180" lon="-16.4811070">
        <ele>1244.9</ele>
        <time>2020-11-11T14:02:57Z</time>
      </trkpt>
      <trkpt lat="28.3711350" lon="-16.4811500">
        <ele>1244.9</ele>
        <time>2020-11-11T14:02:58Z</time>
      </trkpt>
      <trkpt lat="28.3711350" lon="-16.4811500">
        <ele>1244.9</ele>
        <time>2020-11-11T14:02:59Z</time>
      </trkpt>
      <trkpt lat="28.3711680" lon="-16.4812300">
        <ele>1242.9</ele>
        <time>2020-11-11T14:03:00Z</time>
      </trkpt>
      <trkpt lat="28.3711680" lon="-16.4812300">
        <ele>1242.9</ele>
        <time>2020-11-11T14:03:01Z</time>
      </trkpt>
      <trkpt lat="28.3712200" lon="-16.4813150">
        <ele>1242.9</ele>
        <time>2020-11-11T14:03:02Z</time>
      </trkpt>
      <trkpt lat="28.3712200" lon="-16.4813150">
        <ele>1242.9</ele>
        <time>2020-11-11T14:03:03Z</time>
      </trkpt>
      <trkpt lat="28.3712730" lon="-16.4813830">
        <ele>1241.9</ele>
        <time>2020-11-11T14:03:04Z</time>
      </trkpt>
      <trkpt lat="28.3712730" lon="-16.4813830">
        <ele>1241.9</ele>
        <time>2020-11-11T14:03:05Z</time>
      </trkpt>
      <trkpt lat="28.3713280" lon="-16.4814380">
        <ele>1241.9</ele>
        <time>2020-11-11T14:03:06Z</time>
      </trkpt>
      <trkpt lat="28.3713280" lon="-16.4814380">
        <ele>1241.9</ele>
        <time>2020-11-11T14:03:07Z</time>
      </trkpt>
      <trkpt lat="28.3713930" lon="-16.4814820">
        <ele>1239.9</ele>
        <time>2020-11-11T14:03:08Z</time>
      </trkpt>
      <trkpt lat="28.3713930" lon="-16.4814820">
        <ele>1239.9</ele>
        <time>2020-11-11T14:03:09Z</time>
      </trkpt>
      <trkpt lat="28.3714820" lon="-16.4815200">
        <ele>1239.9</ele>
        <time>2020-11-11T14:03:10Z</time>
      </trkpt>
      <trkpt lat="28.3714820" lon="-16.4815200">
        <ele>1239.9</ele>
        <time>2020-11-11T14:03:11Z</time>
      </trkpt>
      <trkpt lat="28.3715480" lon="-16.4815430">
        <ele>1239.9</ele>
        <time>2020-11-11T14:03:12Z</time>
      </trkpt>
      <trkpt lat="28.3715480" lon="-16.4815430">
        <ele>1239.9</ele>
        <time>2020-11-11T14:03:13Z</time>
      </trkpt>
      <trkpt lat="28.3716080" lon="-16.4815350">
        <ele>1238.9</ele>
        <time>2020-11-11T14:03:14Z</time>
      </trkpt>
      <trkpt lat="28.3716080" lon="-16.4815350">
        <ele>1238.9</ele>
        <time>2020-11-11T14:03:15Z</time>
      </trkpt>
      <trkpt lat="28.3716870" lon="-16.4815430">
        <ele>1238.9</ele>
        <time>2020-11-11T14:03:16Z</time>
      </trkpt>
      <trkpt lat="28.3716870" lon="-16.4815430">
        <ele>1237.9</ele>
        <time>2020-11-11T14:03:17Z</time>
      </trkpt>
      <trkpt lat="28.3717720" lon="-16.4815480">
        <ele>1237.9</ele>
        <time>2020-11-11T14:03:18Z</time>
      </trkpt>
      <trkpt lat="28.3717720" lon="-16.4815480">
        <ele>1237.9</ele>
        <time>2020-11-11T14:03:19Z</time>
      </trkpt>
      <trkpt lat="28.3718570" lon="-16.4815380">
        <ele>1237.9</ele>
        <time>2020-11-11T14:03:20Z</time>
      </trkpt>
      <trkpt lat="28.3718570" lon="-16.4815380">
        <ele>1236.9</ele>
        <time>2020-11-11T14:03:21Z</time>
      </trkpt>
      <trkpt lat="28.3719350" lon="-16.4815070">
        <ele>1236.9</ele>
        <time>2020-11-11T14:03:22Z</time>
      </trkpt>
      <trkpt lat="28.3719700" lon="-16.4814830">
        <ele>1235.9</ele>
        <time>2020-11-11T14:03:23Z</time>
      </trkpt>
      <trkpt lat="28.3719700" lon="-16.4814830">
        <ele>1235.9</ele>
        <time>2020-11-11T14:03:24Z</time>
      </trkpt>
      <trkpt lat="28.3720680" lon="-16.4814200">
        <ele>1234.9</ele>
        <time>2020-11-11T14:03:25Z</time>
      </trkpt>
      <trkpt lat="28.3720680" lon="-16.4814200">
        <ele>1234.9</ele>
        <time>2020-11-11T14:03:26Z</time>
      </trkpt>
      <trkpt lat="28.3721850" lon="-16.4813920">
        <ele>1234.9</ele>
        <time>2020-11-11T14:03:27Z</time>
      </trkpt>
      <trkpt lat="28.3721850" lon="-16.4813920">
        <ele>1234.9</ele>
        <time>2020-11-11T14:03:28Z</time>
      </trkpt>
      <trkpt lat="28.3722720" lon="-16.4813900">
        <ele>1233.9</ele>
        <time>2020-11-11T14:03:29Z</time>
      </trkpt>
      <trkpt lat="28.3723070" lon="-16.4814070">
        <ele>1233.9</ele>
        <time>2020-11-11T14:03:30Z</time>
      </trkpt>
      <trkpt lat="28.3723070" lon="-16.4814070">
        <ele>1233.9</ele>
        <time>2020-11-11T14:03:31Z</time>
      </trkpt>
      <trkpt lat="28.3723630" lon="-16.4814530">
        <ele>1233.9</ele>
        <time>2020-11-11T14:03:32Z</time>
      </trkpt>
      <trkpt lat="28.3723630" lon="-16.4814530">
        <ele>1232.9</ele>
        <time>2020-11-11T14:03:33Z</time>
      </trkpt>
      <trkpt lat="28.3723970" lon="-16.4815000">
        <ele>1232.9</ele>
        <time>2020-11-11T14:03:34Z</time>
      </trkpt>
      <trkpt lat="28.3723970" lon="-16.4815000">
        <ele>1232.9</ele>
        <time>2020-11-11T14:03:35Z</time>
      </trkpt>
      <trkpt lat="28.3724220" lon="-16.4815400">
        <ele>1232.9</ele>
        <time>2020-11-11T14:03:36Z</time>
      </trkpt>
      <trkpt lat="28.3724220" lon="-16.4815400">
        <ele>1232.9</ele>
        <time>2020-11-11T14:03:37Z</time>
      </trkpt>
      <trkpt lat="28.3724520" lon="-16.4815950">
        <ele>1232.9</ele>
        <time>2020-11-11T14:03:38Z</time>
      </trkpt>
      <trkpt lat="28.3724520" lon="-16.4815950">
        <ele>1231.9</ele>
        <time>2020-11-11T14:03:39Z</time>
      </trkpt>
      <trkpt lat="28.3724870" lon="-16.4816670">
        <ele>1231.9</ele>
        <time>2020-11-11T14:03:40Z</time>
      </trkpt>
      <trkpt lat="28.3724870" lon="-16.4816670">
        <ele>1231.9</ele>
        <time>2020-11-11T14:03:41Z</time>
      </trkpt>
      <trkpt lat="28.3725300" lon="-16.4817720">
        <ele>1231.9</ele>
        <time>2020-11-11T14:03:42Z</time>
      </trkpt>
      <trkpt lat="28.3725300" lon="-16.4817720">
        <ele>1230.9</ele>
        <time>2020-11-11T14:03:43Z</time>
      </trkpt>
      <trkpt lat="28.3725680" lon="-16.4818330">
        <ele>1230.9</ele>
        <time>2020-11-11T14:03:44Z</time>
      </trkpt>
      <trkpt lat="28.3725680" lon="-16.4818330">
        <ele>1230.9</ele>
        <time>2020-11-11T14:03:45Z</time>
      </trkpt>
      <trkpt lat="28.3726220" lon="-16.4819130">
        <ele>1230.9</ele>
        <time>2020-11-11T14:03:46Z</time>
      </trkpt>
      <trkpt lat="28.3726570" lon="-16.4819370">
        <ele>1229.9</ele>
        <time>2020-11-11T14:03:47Z</time>
      </trkpt>
      <trkpt lat="28.3726880" lon="-16.4819600">
        <ele>1229.9</ele>
        <time>2020-11-11T14:03:48Z</time>
      </trkpt>
      <trkpt lat="28.3726880" lon="-16.4819600">
        <ele>1229.9</ele>
        <time>2020-11-11T14:03:49Z</time>
      </trkpt>
      <trkpt lat="28.3727530" lon="-16.4820050">
        <ele>1229.9</ele>
        <time>2020-11-11T14:03:50Z</time>
      </trkpt>
      <trkpt lat="28.3727530" lon="-16.4820050">
        <ele>1228.9</ele>
        <time>2020-11-11T14:03:51Z</time>
      </trkpt>
      <trkpt lat="28.3728050" lon="-16.4820380">
        <ele>1228.9</ele>
        <time>2020-11-11T14:03:52Z</time>
      </trkpt>
      <trkpt lat="28.3728050" lon="-16.4820380">
        <ele>1228.9</ele>
        <time>2020-11-11T14:03:53Z</time>
      </trkpt>
      <trkpt lat="28.3728600" lon="-16.4820680">
        <ele>1227.9</ele>
        <time>2020-11-11T14:03:54Z</time>
      </trkpt>
      <trkpt lat="28.3728600" lon="-16.4820680">
        <ele>1227.9</ele>
        <time>2020-11-11T14:03:55Z</time>
      </trkpt>
      <trkpt lat="28.3729120" lon="-16.4821150">
        <ele>1226.9</ele>
        <time>2020-11-11T14:03:56Z</time>
      </trkpt>
      <trkpt lat="28.3729120" lon="-16.4821150">
        <ele>1226.9</ele>
        <time>2020-11-11T14:03:57Z</time>
      </trkpt>
      <trkpt lat="28.3729620" lon="-16.4821530">
        <ele>1226.9</ele>
        <time>2020-11-11T14:03:58Z</time>
      </trkpt>
      <trkpt lat="28.3729620" lon="-16.4821530">
        <ele>1226.9</ele>
        <time>2020-11-11T14:03:59Z</time>
      </trkpt>
      <trkpt lat="28.3730200" lon="-16.4821930">
        <ele>1225.9</ele>
        <time>2020-11-11T14:04:00Z</time>
      </trkpt>
      <trkpt lat="28.3730450" lon="-16.4822100">
        <ele>1225.9</ele>
        <time>2020-11-11T14:04:01Z</time>
      </trkpt>
      <trkpt lat="28.3730450" lon="-16.4822100">
        <ele>1224.9</ele>
        <time>2020-11-11T14:04:02Z</time>
      </trkpt>
      <trkpt lat="28.3730900" lon="-16.4822700">
        <ele>1224.9</ele>
        <time>2020-11-11T14:04:03Z</time>
      </trkpt>
      <trkpt lat="28.3730970" lon="-16.4823080">
        <ele>1224.9</ele>
        <time>2020-11-11T14:04:04Z</time>
      </trkpt>
      <trkpt lat="28.3730970" lon="-16.4823080">
        <ele>1224.9</ele>
        <time>2020-11-11T14:04:05Z</time>
      </trkpt>
      <trkpt lat="28.3730770" lon="-16.4823500">
        <ele>1224.9</ele>
        <time>2020-11-11T14:04:06Z</time>
      </trkpt>
      <trkpt lat="28.3730770" lon="-16.4823500">
        <ele>1223.9</ele>
        <time>2020-11-11T14:04:07Z</time>
      </trkpt>
      <trkpt lat="28.3730270" lon="-16.4823470">
        <ele>1223.9</ele>
        <time>2020-11-11T14:04:08Z</time>
      </trkpt>
      <trkpt lat="28.3730270" lon="-16.4823470">
        <ele>1222.9</ele>
        <time>2020-11-11T14:04:09Z</time>
      </trkpt>
      <trkpt lat="28.3729800" lon="-16.4823550">
        <ele>1222.9</ele>
        <time>2020-11-11T14:04:10Z</time>
      </trkpt>
      <trkpt lat="28.3729800" lon="-16.4823550">
        <ele>1221.9</ele>
        <time>2020-11-11T14:04:11Z</time>
      </trkpt>
      <trkpt lat="28.3729470" lon="-16.4823350">
        <ele>1221.9</ele>
        <time>2020-11-11T14:04:12Z</time>
      </trkpt>
      <trkpt lat="28.3729470" lon="-16.4823350">
        <ele>1221.9</ele>
        <time>2020-11-11T14:04:13Z</time>
      </trkpt>
      <trkpt lat="28.3728980" lon="-16.4823050">
        <ele>1221.9</ele>
        <time>2020-11-11T14:04:14Z</time>
      </trkpt>
      <trkpt lat="28.3728980" lon="-16.4823050">
        <ele>1221.9</ele>
        <time>2020-11-11T14:04:15Z</time>
      </trkpt>
      <trkpt lat="28.3728550" lon="-16.4822770">
        <ele>1221.9</ele>
        <time>2020-11-11T14:04:16Z</time>
      </trkpt>
      <trkpt lat="28.3728550" lon="-16.4822770">
        <ele>1220.9</ele>
        <time>2020-11-11T14:04:17Z</time>
      </trkpt>
      <trkpt lat="28.3728220" lon="-16.4822630">
        <ele>1220.9</ele>
        <time>2020-11-11T14:04:18Z</time>
      </trkpt>
      <trkpt lat="28.3728220" lon="-16.4822630">
        <ele>1220.9</ele>
        <time>2020-11-11T14:04:19Z</time>
      </trkpt>
      <trkpt lat="28.3727750" lon="-16.4822220">
        <ele>1220.9</ele>
        <time>2020-11-11T14:04:20Z</time>
      </trkpt>
      <trkpt lat="28.3727750" lon="-16.4822220">
        <ele>1219.9</ele>
        <time>2020-11-11T14:04:21Z</time>
      </trkpt>
      <trkpt lat="28.3727080" lon="-16.4821900">
        <ele>1219.9</ele>
        <time>2020-11-11T14:04:22Z</time>
      </trkpt>
      <trkpt lat="28.3727080" lon="-16.4821900">
        <ele>1219.9</ele>
        <time>2020-11-11T14:04:23Z</time>
      </trkpt>
      <trkpt lat="28.3726500" lon="-16.4821570">
        <ele>1219.9</ele>
        <time>2020-11-11T14:04:24Z</time>
      </trkpt>
      <trkpt lat="28.3726500" lon="-16.4821570">
        <ele>1219.9</ele>
        <time>2020-11-11T14:04:25Z</time>
      </trkpt>
      <trkpt lat="28.3725950" lon="-16.4821320">
        <ele>1219.9</ele>
        <time>2020-11-11T14:04:26Z</time>
      </trkpt>
      <trkpt lat="28.3725950" lon="-16.4821320">
        <ele>1218.9</ele>
        <time>2020-11-11T14:04:27Z</time>
      </trkpt>
      <trkpt lat="28.3725450" lon="-16.4820950">
        <ele>1218.9</ele>
        <time>2020-11-11T14:04:28Z</time>
      </trkpt>
      <trkpt lat="28.3725450" lon="-16.4820950">
        <ele>1218.9</ele>
        <time>2020-11-11T14:04:29Z</time>
      </trkpt>
      <trkpt lat="28.3724620" lon="-16.4820650">
        <ele>1217.9</ele>
        <time>2020-11-11T14:04:30Z</time>
      </trkpt>
      <trkpt lat="28.3724350" lon="-16.4820630">
        <ele>1217.9</ele>
        <time>2020-11-11T14:04:31Z</time>
      </trkpt>
      <trkpt lat="28.3724350" lon="-16.4820630">
        <ele>1217.9</ele>
        <time>2020-11-11T14:04:32Z</time>
      </trkpt>
      <trkpt lat="28.3724070" lon="-16.4820950">
        <ele>1217.9</ele>
        <time>2020-11-11T14:04:33Z</time>
      </trkpt>
      <trkpt lat="28.3724070" lon="-16.4820950">
        <ele>1216.9</ele>
        <time>2020-11-11T14:04:34Z</time>
      </trkpt>
      <trkpt lat="28.3723830" lon="-16.4821400">
        <ele>1216.9</ele>
        <time>2020-11-11T14:04:35Z</time>
      </trkpt>
      <trkpt lat="28.3723830" lon="-16.4821400">
        <ele>1215.9</ele>
        <time>2020-11-11T14:04:36Z</time>
      </trkpt>
      <trkpt lat="28.3723700" lon="-16.4822000">
        <ele>1215.9</ele>
        <time>2020-11-11T14:04:37Z</time>
      </trkpt>
      <trkpt lat="28.3723530" lon="-16.4822430">
        <ele>1215.9</ele>
        <time>2020-11-11T14:04:38Z</time>
      </trkpt>
      <trkpt lat="28.3723530" lon="-16.4822430">
        <ele>1215.9</ele>
        <time>2020-11-11T14:04:39Z</time>
      </trkpt>
      <trkpt lat="28.3723070" lon="-16.4823280">
        <ele>1214.9</ele>
        <time>2020-11-11T14:04:40Z</time>
      </trkpt>
      <trkpt lat="28.3722820" lon="-16.4823550">
        <ele>1214.9</ele>
        <time>2020-11-11T14:04:41Z</time>
      </trkpt>
      <trkpt lat="28.3722820" lon="-16.4823550">
        <ele>1214.9</ele>
        <time>2020-11-11T14:04:42Z</time>
      </trkpt>
      <trkpt lat="28.3722100" lon="-16.4824350">
        <ele>1214.9</ele>
        <time>2020-11-11T14:04:43Z</time>
      </trkpt>
      <trkpt lat="28.3721830" lon="-16.4824670">
        <ele>1213.9</ele>
        <time>2020-11-11T14:04:44Z</time>
      </trkpt>
      <trkpt lat="28.3721720" lon="-16.4824980">
        <ele>1213.9</ele>
        <time>2020-11-11T14:04:45Z</time>
      </trkpt>
      <trkpt lat="28.3721720" lon="-16.4824980">
        <ele>1212.9</ele>
        <time>2020-11-11T14:04:46Z</time>
      </trkpt>
      <trkpt lat="28.3721300" lon="-16.4825300">
        <ele>1212.9</ele>
        <time>2020-11-11T14:04:47Z</time>
      </trkpt>
      <trkpt lat="28.3721170" lon="-16.4825500">
        <ele>1212.9</ele>
        <time>2020-11-11T14:04:48Z</time>
      </trkpt>
      <trkpt lat="28.3721170" lon="-16.4825500">
        <ele>1212.9</ele>
        <time>2020-11-11T14:04:49Z</time>
      </trkpt>
      <trkpt lat="28.3721120" lon="-16.4826320">
        <ele>1212.9</ele>
        <time>2020-11-11T14:04:50Z</time>
      </trkpt>
      <trkpt lat="28.3721120" lon="-16.4826320">
        <ele>1212.9</ele>
        <time>2020-11-11T14:04:51Z</time>
      </trkpt>
      <trkpt lat="28.3721030" lon="-16.4827130">
        <ele>1211.9</ele>
        <time>2020-11-11T14:04:52Z</time>
      </trkpt>
      <trkpt lat="28.3721030" lon="-16.4827130">
        <ele>1211.9</ele>
        <time>2020-11-11T14:04:53Z</time>
      </trkpt>
      <trkpt lat="28.3720850" lon="-16.4827970">
        <ele>1211.9</ele>
        <time>2020-11-11T14:04:54Z</time>
      </trkpt>
      <trkpt lat="28.3720850" lon="-16.4827970">
        <ele>1211.9</ele>
        <time>2020-11-11T14:04:55Z</time>
      </trkpt>
      <trkpt lat="28.3721030" lon="-16.4829250">
        <ele>1210.9</ele>
        <time>2020-11-11T14:04:56Z</time>
      </trkpt>
      <trkpt lat="28.3721030" lon="-16.4829250">
        <ele>1210.9</ele>
        <time>2020-11-11T14:04:57Z</time>
      </trkpt>
      <trkpt lat="28.3720750" lon="-16.4830150">
        <ele>1210.9</ele>
        <time>2020-11-11T14:04:58Z</time>
      </trkpt>
      <trkpt lat="28.3720750" lon="-16.4830150">
        <ele>1210.9</ele>
        <time>2020-11-11T14:04:59Z</time>
      </trkpt>
      <trkpt lat="28.3720400" lon="-16.4830920">
        <ele>1210.9</ele>
        <time>2020-11-11T14:05:00Z</time>
      </trkpt>
      <trkpt lat="28.3720400" lon="-16.4830920">
        <ele>1210.9</ele>
        <time>2020-11-11T14:05:01Z</time>
      </trkpt>
      <trkpt lat="28.3719920" lon="-16.4831370">
        <ele>1210.9</ele>
        <time>2020-11-11T14:05:02Z</time>
      </trkpt>
      <trkpt lat="28.3719920" lon="-16.4831370">
        <ele>1208.9</ele>
        <time>2020-11-11T14:05:03Z</time>
      </trkpt>
      <trkpt lat="28.3719330" lon="-16.4831620">
        <ele>1208.9</ele>
        <time>2020-11-11T14:05:04Z</time>
      </trkpt>
      <trkpt lat="28.3719020" lon="-16.4831700">
        <ele>1208.9</ele>
        <time>2020-11-11T14:05:05Z</time>
      </trkpt>
      <trkpt lat="28.3719020" lon="-16.4831700">
        <ele>1207.9</ele>
        <time>2020-11-11T14:05:06Z</time>
      </trkpt>
      <trkpt lat="28.3718420" lon="-16.4831920">
        <ele>1207.9</ele>
        <time>2020-11-11T14:05:07Z</time>
      </trkpt>
      <trkpt lat="28.3718020" lon="-16.4831950">
        <ele>1207.9</ele>
        <time>2020-11-11T14:05:08Z</time>
      </trkpt>
      <trkpt lat="28.3718020" lon="-16.4831950">
        <ele>1207.9</ele>
        <time>2020-11-11T14:05:09Z</time>
      </trkpt>
      <trkpt lat="28.3717350" lon="-16.4832220">
        <ele>1206.9</ele>
        <time>2020-11-11T14:05:10Z</time>
      </trkpt>
      <trkpt lat="28.3717350" lon="-16.4832220">
        <ele>1206.9</ele>
        <time>2020-11-11T14:05:11Z</time>
      </trkpt>
      <trkpt lat="28.3716670" lon="-16.4832600">
        <ele>1206.9</ele>
        <time>2020-11-11T14:05:12Z</time>
      </trkpt>
      <trkpt lat="28.3716670" lon="-16.4832600">
        <ele>1206.9</ele>
        <time>2020-11-11T14:05:13Z</time>
      </trkpt>
      <trkpt lat="28.3715880" lon="-16.4832920">
        <ele>1206.9</ele>
        <time>2020-11-11T14:05:14Z</time>
      </trkpt>
      <trkpt lat="28.3715880" lon="-16.4832920">
        <ele>1206.9</ele>
        <time>2020-11-11T14:05:15Z</time>
      </trkpt>
      <trkpt lat="28.3715030" lon="-16.4832980">
        <ele>1206.9</ele>
        <time>2020-11-11T14:05:16Z</time>
      </trkpt>
      <trkpt lat="28.3714750" lon="-16.4833230">
        <ele>1205.9</ele>
        <time>2020-11-11T14:05:17Z</time>
      </trkpt>
      <trkpt lat="28.3714750" lon="-16.4833230">
        <ele>1205.9</ele>
        <time>2020-11-11T14:05:18Z</time>
      </trkpt>
      <trkpt lat="28.3714230" lon="-16.4833230">
        <ele>1205.9</ele>
        <time>2020-11-11T14:05:19Z</time>
      </trkpt>
      <trkpt lat="28.3713870" lon="-16.4832930">
        <ele>1205.9</ele>
        <time>2020-11-11T14:05:20Z</time>
      </trkpt>
      <trkpt lat="28.3713870" lon="-16.4832930">
        <ele>1205.9</ele>
        <time>2020-11-11T14:05:21Z</time>
      </trkpt>
      <trkpt lat="28.3713120" lon="-16.4832350">
        <ele>1205.9</ele>
        <time>2020-11-11T14:05:22Z</time>
      </trkpt>
      <trkpt lat="28.3712380" lon="-16.4831700">
        <ele>1204.9</ele>
        <time>2020-11-11T14:05:23Z</time>
      </trkpt>
      <trkpt lat="28.3712380" lon="-16.4831700">
        <ele>1204.9</ele>
        <time>2020-11-11T14:05:24Z</time>
      </trkpt>
      <trkpt lat="28.3712380" lon="-16.4831700">
        <ele>1204.9</ele>
        <time>2020-11-11T14:05:25Z</time>
      </trkpt>
      <trkpt lat="28.3711670" lon="-16.4831250">
        <ele>1204.9</ele>
        <time>2020-11-11T14:05:26Z</time>
      </trkpt>
      <trkpt lat="28.3711670" lon="-16.4831250">
        <ele>1203.9</ele>
        <time>2020-11-11T14:05:27Z</time>
      </trkpt>
      <trkpt lat="28.3710750" lon="-16.4831420">
        <ele>1203.9</ele>
        <time>2020-11-11T14:05:28Z</time>
      </trkpt>
      <trkpt lat="28.3710750" lon="-16.4831420">
        <ele>1202.9</ele>
        <time>2020-11-11T14:05:29Z</time>
      </trkpt>
      <trkpt lat="28.3710520" lon="-16.4831080">
        <ele>1202.9</ele>
        <time>2020-11-11T14:05:30Z</time>
      </trkpt>
      <trkpt lat="28.3710520" lon="-16.4831080">
        <ele>1202.9</ele>
        <time>2020-11-11T14:05:31Z</time>
      </trkpt>
      <trkpt lat="28.3710080" lon="-16.4830580">
        <ele>1202.9</ele>
        <time>2020-11-11T14:05:32Z</time>
      </trkpt>
      <trkpt lat="28.3709880" lon="-16.4830250">
        <ele>1202.9</ele>
        <time>2020-11-11T14:05:33Z</time>
      </trkpt>
      <trkpt lat="28.3709880" lon="-16.4830250">
        <ele>1201.9</ele>
        <time>2020-11-11T14:05:34Z</time>
      </trkpt>
      <trkpt lat="28.3709670" lon="-16.4829570">
        <ele>1201.9</ele>
        <time>2020-11-11T14:05:35Z</time>
      </trkpt>
      <trkpt lat="28.3709670" lon="-16.4829570">
        <ele>1201.9</ele>
        <time>2020-11-11T14:05:36Z</time>
      </trkpt>
      <trkpt lat="28.3709550" lon="-16.4828830">
        <ele>1201.9</ele>
        <time>2020-11-11T14:05:37Z</time>
      </trkpt>
      <trkpt lat="28.3709550" lon="-16.4828830">
        <ele>1200.9</ele>
        <time>2020-11-11T14:05:38Z</time>
      </trkpt>
      <trkpt lat="28.3709200" lon="-16.4827950">
        <ele>1200.9</ele>
        <time>2020-11-11T14:05:39Z</time>
      </trkpt>
      <trkpt lat="28.3709030" lon="-16.4827550">
        <ele>1200.9</ele>
        <time>2020-11-11T14:05:40Z</time>
      </trkpt>
      <trkpt lat="28.3709030" lon="-16.4827550">
        <ele>1200.9</ele>
        <time>2020-11-11T14:05:41Z</time>
      </trkpt>
      <trkpt lat="28.3708780" lon="-16.4826950">
        <ele>1199.9</ele>
        <time>2020-11-11T14:05:42Z</time>
      </trkpt>
      <trkpt lat="28.3708780" lon="-16.4826950">
        <ele>1199.9</ele>
        <time>2020-11-11T14:05:43Z</time>
      </trkpt>
      <trkpt lat="28.3708400" lon="-16.4826350">
        <ele>1199.9</ele>
        <time>2020-11-11T14:05:44Z</time>
      </trkpt>
      <trkpt lat="28.3708400" lon="-16.4826350">
        <ele>1198.9</ele>
        <time>2020-11-11T14:05:45Z</time>
      </trkpt>
      <trkpt lat="28.3708050" lon="-16.4825800">
        <ele>1198.9</ele>
        <time>2020-11-11T14:05:46Z</time>
      </trkpt>
      <trkpt lat="28.3708050" lon="-16.4825800">
        <ele>1198.9</ele>
        <time>2020-11-11T14:05:47Z</time>
      </trkpt>
      <trkpt lat="28.3707370" lon="-16.4825350">
        <ele>1198.9</ele>
        <time>2020-11-11T14:05:48Z</time>
      </trkpt>
      <trkpt lat="28.3707370" lon="-16.4825350">
        <ele>1197.9</ele>
        <time>2020-11-11T14:05:49Z</time>
      </trkpt>
      <trkpt lat="28.3706680" lon="-16.4824620">
        <ele>1197.9</ele>
        <time>2020-11-11T14:05:50Z</time>
      </trkpt>
      <trkpt lat="28.3706680" lon="-16.4824620">
        <ele>1196.9</ele>
        <time>2020-11-11T14:05:51Z</time>
      </trkpt>
      <trkpt lat="28.3706100" lon="-16.4823830">
        <ele>1196.9</ele>
        <time>2020-11-11T14:05:52Z</time>
      </trkpt>
      <trkpt lat="28.3706100" lon="-16.4823830">
        <ele>1196.9</ele>
        <time>2020-11-11T14:05:53Z</time>
      </trkpt>
      <trkpt lat="28.3705580" lon="-16.4823070">
        <ele>1196.9</ele>
        <time>2020-11-11T14:05:54Z</time>
      </trkpt>
      <trkpt lat="28.3705580" lon="-16.4823070">
        <ele>1195.9</ele>
        <time>2020-11-11T14:05:55Z</time>
      </trkpt>
      <trkpt lat="28.3705320" lon="-16.4822280">
        <ele>1195.9</ele>
        <time>2020-11-11T14:05:56Z</time>
      </trkpt>
      <trkpt lat="28.3705320" lon="-16.4822280">
        <ele>1195.9</ele>
        <time>2020-11-11T14:05:57Z</time>
      </trkpt>
      <trkpt lat="28.3705080" lon="-16.4820700">
        <ele>1195.9</ele>
        <time>2020-11-11T14:05:58Z</time>
      </trkpt>
      <trkpt lat="28.3705080" lon="-16.4820700">
        <ele>1194.9</ele>
        <time>2020-11-11T14:05:59Z</time>
      </trkpt>
      <trkpt lat="28.3704820" lon="-16.4820030">
        <ele>1194.9</ele>
        <time>2020-11-11T14:06:00Z</time>
      </trkpt>
      <trkpt lat="28.3704820" lon="-16.4820030">
        <ele>1194.9</ele>
        <time>2020-11-11T14:06:01Z</time>
      </trkpt>
      <trkpt lat="28.3704270" lon="-16.4819750">
        <ele>1194.9</ele>
        <time>2020-11-11T14:06:02Z</time>
      </trkpt>
      <trkpt lat="28.3704270" lon="-16.4819750">
        <ele>1194.9</ele>
        <time>2020-11-11T14:06:03Z</time>
      </trkpt>
      <trkpt lat="28.3703770" lon="-16.4819700">
        <ele>1193.9</ele>
        <time>2020-11-11T14:06:04Z</time>
      </trkpt>
      <trkpt lat="28.3703770" lon="-16.4819700">
        <ele>1193.9</ele>
        <time>2020-11-11T14:06:05Z</time>
      </trkpt>
      <trkpt lat="28.3703550" lon="-16.4819830">
        <ele>1193.9</ele>
        <time>2020-11-11T14:06:06Z</time>
      </trkpt>
      <trkpt lat="28.3703600" lon="-16.4820020">
        <ele>1193.9</ele>
        <time>2020-11-11T14:06:07Z</time>
      </trkpt>
      <trkpt lat="28.3703600" lon="-16.4820020">
        <ele>1193.9</ele>
        <time>2020-11-11T14:06:08Z</time>
      </trkpt>
      <trkpt lat="28.3703800" lon="-16.4820370">
        <ele>1193.9</ele>
        <time>2020-11-11T14:06:09Z</time>
      </trkpt>
      <trkpt lat="28.3703900" lon="-16.4820570">
        <ele>1193.9</ele>
        <time>2020-11-11T14:06:10Z</time>
      </trkpt>
      <trkpt lat="28.3703900" lon="-16.4820570">
        <ele>1192.9</ele>
        <time>2020-11-11T14:06:11Z</time>
      </trkpt>
      <trkpt lat="28.3704100" lon="-16.4820870">
        <ele>1192.9</ele>
        <time>2020-11-11T14:06:12Z</time>
      </trkpt>
      <trkpt lat="28.3704100" lon="-16.4820870">
        <ele>1192.9</ele>
        <time>2020-11-11T14:06:13Z</time>
      </trkpt>
      <trkpt lat="28.3704350" lon="-16.4821420">
        <ele>1192.9</ele>
        <time>2020-11-11T14:06:14Z</time>
      </trkpt>
      <trkpt lat="28.3704350" lon="-16.4821420">
        <ele>1191.9</ele>
        <time>2020-11-11T14:06:15Z</time>
      </trkpt>
      <trkpt lat="28.3704620" lon="-16.4821770">
        <ele>1191.9</ele>
        <time>2020-11-11T14:06:16Z</time>
      </trkpt>
      <trkpt lat="28.3704620" lon="-16.4821770">
        <ele>1191.9</ele>
        <time>2020-11-11T14:06:17Z</time>
      </trkpt>
      <trkpt lat="28.3704950" lon="-16.4822270">
        <ele>1191.9</ele>
        <time>2020-11-11T14:06:18Z</time>
      </trkpt>
      <trkpt lat="28.3704950" lon="-16.4822270">
        <ele>1190.9</ele>
        <time>2020-11-11T14:06:19Z</time>
      </trkpt>
      <trkpt lat="28.3705230" lon="-16.4822930">
        <ele>1190.9</ele>
        <time>2020-11-11T14:06:20Z</time>
      </trkpt>
      <trkpt lat="28.3705230" lon="-16.4822930">
        <ele>1190.9</ele>
        <time>2020-11-11T14:06:21Z</time>
      </trkpt>
      <trkpt lat="28.3705570" lon="-16.4823580">
        <ele>1189.9</ele>
        <time>2020-11-11T14:06:22Z</time>
      </trkpt>
      <trkpt lat="28.3705880" lon="-16.4824070">
        <ele>1189.9</ele>
        <time>2020-11-11T14:06:23Z</time>
      </trkpt>
      <trkpt lat="28.3705880" lon="-16.4824070">
        <ele>1188.9</ele>
        <time>2020-11-11T14:06:24Z</time>
      </trkpt>
      <trkpt lat="28.3706030" lon="-16.4824320">
        <ele>1188.9</ele>
        <time>2020-11-11T14:06:25Z</time>
      </trkpt>
      <trkpt lat="28.3706030" lon="-16.4824320">
        <ele>1188.9</ele>
        <time>2020-11-11T14:06:26Z</time>
      </trkpt>
      <trkpt lat="28.3706330" lon="-16.4824920">
        <ele>1188.9</ele>
        <time>2020-11-11T14:06:27Z</time>
      </trkpt>
      <trkpt lat="28.3706470" lon="-16.4825170">
        <ele>1187.9</ele>
        <time>2020-11-11T14:06:28Z</time>
      </trkpt>
      <trkpt lat="28.3706470" lon="-16.4825170">
        <ele>1187.9</ele>
        <time>2020-11-11T14:06:29Z</time>
      </trkpt>
      <trkpt lat="28.3706680" lon="-16.4825850">
        <ele>1187.9</ele>
        <time>2020-11-11T14:06:30Z</time>
      </trkpt>
      <trkpt lat="28.3706680" lon="-16.4825850">
        <ele>1187.9</ele>
        <time>2020-11-11T14:06:31Z</time>
      </trkpt>
      <trkpt lat="28.3706830" lon="-16.4826870">
        <ele>1186.9</ele>
        <time>2020-11-11T14:06:32Z</time>
      </trkpt>
      <trkpt lat="28.3706830" lon="-16.4826870">
        <ele>1186.9</ele>
        <time>2020-11-11T14:06:33Z</time>
      </trkpt>
      <trkpt lat="28.3706830" lon="-16.4827530">
        <ele>1186.9</ele>
        <time>2020-11-11T14:06:34Z</time>
      </trkpt>
      <trkpt lat="28.3706870" lon="-16.4827830">
        <ele>1186.9</ele>
        <time>2020-11-11T14:06:35Z</time>
      </trkpt>
      <trkpt lat="28.3706900" lon="-16.4828170">
        <ele>1185.9</ele>
        <time>2020-11-11T14:06:36Z</time>
      </trkpt>
      <trkpt lat="28.3706930" lon="-16.4828600">
        <ele>1185.9</ele>
        <time>2020-11-11T14:06:37Z</time>
      </trkpt>
      <trkpt lat="28.3706930" lon="-16.4828600">
        <ele>1185.9</ele>
        <time>2020-11-11T14:06:38Z</time>
      </trkpt>
      <trkpt lat="28.3707230" lon="-16.4829880">
        <ele>1185.9</ele>
        <time>2020-11-11T14:06:39Z</time>
      </trkpt>
      <trkpt lat="28.3707230" lon="-16.4829880">
        <ele>1185.9</ele>
        <time>2020-11-11T14:06:40Z</time>
      </trkpt>
      <trkpt lat="28.3707530" lon="-16.4830880">
        <ele>1185.9</ele>
        <time>2020-11-11T14:06:41Z</time>
      </trkpt>
      <trkpt lat="28.3707530" lon="-16.4830880">
        <ele>1185.9</ele>
        <time>2020-11-11T14:06:42Z</time>
      </trkpt>
      <trkpt lat="28.3707920" lon="-16.4831500">
        <ele>1185.9</ele>
        <time>2020-11-11T14:06:43Z</time>
      </trkpt>
      <trkpt lat="28.3708230" lon="-16.4831720">
        <ele>1185.9</ele>
        <time>2020-11-11T14:06:44Z</time>
      </trkpt>
      <trkpt lat="28.3708230" lon="-16.4831720">
        <ele>1185.9</ele>
        <time>2020-11-11T14:06:45Z</time>
      </trkpt>
      <trkpt lat="28.3708880" lon="-16.4832020">
        <ele>1185.9</ele>
        <time>2020-11-11T14:06:46Z</time>
      </trkpt>
      <trkpt lat="28.3708880" lon="-16.4832020">
        <ele>1185.9</ele>
        <time>2020-11-11T14:06:47Z</time>
      </trkpt>
      <trkpt lat="28.3709530" lon="-16.4832200">
        <ele>1184.9</ele>
        <time>2020-11-11T14:06:48Z</time>
      </trkpt>
      <trkpt lat="28.3709530" lon="-16.4832200">
        <ele>1184.9</ele>
        <time>2020-11-11T14:06:49Z</time>
      </trkpt>
      <trkpt lat="28.3710070" lon="-16.4832570">
        <ele>1184.9</ele>
        <time>2020-11-11T14:06:50Z</time>
      </trkpt>
      <trkpt lat="28.3710300" lon="-16.4832900">
        <ele>1184.9</ele>
        <time>2020-11-11T14:06:51Z</time>
      </trkpt>
      <trkpt lat="28.3710300" lon="-16.4832900">
        <ele>1184.9</ele>
        <time>2020-11-11T14:06:52Z</time>
      </trkpt>
      <trkpt lat="28.3710750" lon="-16.4833920">
        <ele>1184.9</ele>
        <time>2020-11-11T14:06:53Z</time>
      </trkpt>
      <trkpt lat="28.3711020" lon="-16.4834330">
        <ele>1183.9</ele>
        <time>2020-11-11T14:06:54Z</time>
      </trkpt>
      <trkpt lat="28.3711020" lon="-16.4834330">
        <ele>1183.9</ele>
        <time>2020-11-11T14:06:55Z</time>
      </trkpt>
      <trkpt lat="28.3711450" lon="-16.4835180">
        <ele>1183.9</ele>
        <time>2020-11-11T14:06:56Z</time>
      </trkpt>
      <trkpt lat="28.3711450" lon="-16.4835180">
        <ele>1183.9</ele>
        <time>2020-11-11T14:06:57Z</time>
      </trkpt>
      <trkpt lat="28.3711800" lon="-16.4835880">
        <ele>1183.9</ele>
        <time>2020-11-11T14:06:58Z</time>
      </trkpt>
      <trkpt lat="28.3711950" lon="-16.4836080">
        <ele>1182.9</ele>
        <time>2020-11-11T14:06:59Z</time>
      </trkpt>
      <trkpt lat="28.3711950" lon="-16.4836080">
        <ele>1182.9</ele>
        <time>2020-11-11T14:07:00Z</time>
      </trkpt>
      <trkpt lat="28.3712250" lon="-16.4836470">
        <ele>1182.9</ele>
        <time>2020-11-11T14:07:01Z</time>
      </trkpt>
      <trkpt lat="28.3712370" lon="-16.4836770">
        <ele>1182.9</ele>
        <time>2020-11-11T14:07:02Z</time>
      </trkpt>
      <trkpt lat="28.3712370" lon="-16.4836770">
        <ele>1181.9</ele>
        <time>2020-11-11T14:07:03Z</time>
      </trkpt>
      <trkpt lat="28.3712770" lon="-16.4837070">
        <ele>1181.9</ele>
        <time>2020-11-11T14:07:04Z</time>
      </trkpt>
      <trkpt lat="28.3712770" lon="-16.4837070">
        <ele>1181.9</ele>
        <time>2020-11-11T14:07:05Z</time>
      </trkpt>
      <trkpt lat="28.3713200" lon="-16.4837450">
        <ele>1181.9</ele>
        <time>2020-11-11T14:07:06Z</time>
      </trkpt>
      <trkpt lat="28.3713200" lon="-16.4837450">
        <ele>1180.9</ele>
        <time>2020-11-11T14:07:07Z</time>
      </trkpt>
      <trkpt lat="28.3713680" lon="-16.4837850">
        <ele>1180.9</ele>
        <time>2020-11-11T14:07:08Z</time>
      </trkpt>
      <trkpt lat="28.3713680" lon="-16.4837850">
        <ele>1180.9</ele>
        <time>2020-11-11T14:07:09Z</time>
      </trkpt>
      <trkpt lat="28.3714280" lon="-16.4838500">
        <ele>1180.9</ele>
        <time>2020-11-11T14:07:10Z</time>
      </trkpt>
      <trkpt lat="28.3714280" lon="-16.4838500">
        <ele>1179.9</ele>
        <time>2020-11-11T14:07:11Z</time>
      </trkpt>
      <trkpt lat="28.3714880" lon="-16.4839100">
        <ele>1179.9</ele>
        <time>2020-11-11T14:07:12Z</time>
      </trkpt>
      <trkpt lat="28.3715050" lon="-16.4839420">
        <ele>1179.9</ele>
        <time>2020-11-11T14:07:13Z</time>
      </trkpt>
      <trkpt lat="28.3715050" lon="-16.4839420">
        <ele>1179.9</ele>
        <time>2020-11-11T14:07:14Z</time>
      </trkpt>
      <trkpt lat="28.3715370" lon="-16.4840280">
        <ele>1179.9</ele>
        <time>2020-11-11T14:07:15Z</time>
      </trkpt>
      <trkpt lat="28.3715370" lon="-16.4840280">
        <ele>1179.9</ele>
        <time>2020-11-11T14:07:16Z</time>
      </trkpt>
      <trkpt lat="28.3715780" lon="-16.4841030">
        <ele>1178.9</ele>
        <time>2020-11-11T14:07:17Z</time>
      </trkpt>
      <trkpt lat="28.3715980" lon="-16.4841250">
        <ele>1178.9</ele>
        <time>2020-11-11T14:07:18Z</time>
      </trkpt>
      <trkpt lat="28.3715980" lon="-16.4841250">
        <ele>1178.9</ele>
        <time>2020-11-11T14:07:19Z</time>
      </trkpt>
      <trkpt lat="28.3716530" lon="-16.4841900">
        <ele>1178.9</ele>
        <time>2020-11-11T14:07:20Z</time>
      </trkpt>
      <trkpt lat="28.3716530" lon="-16.4841900">
        <ele>1177.9</ele>
        <time>2020-11-11T14:07:21Z</time>
      </trkpt>
      <trkpt lat="28.3717050" lon="-16.4842500">
        <ele>1177.9</ele>
        <time>2020-11-11T14:07:22Z</time>
      </trkpt>
      <trkpt lat="28.3717050" lon="-16.4842500">
        <ele>1177.9</ele>
        <time>2020-11-11T14:07:23Z</time>
      </trkpt>
      <trkpt lat="28.3717550" lon="-16.4842970">
        <ele>1177.9</ele>
        <time>2020-11-11T14:07:24Z</time>
      </trkpt>
      <trkpt lat="28.3717780" lon="-16.4843180">
        <ele>1176.9</ele>
        <time>2020-11-11T14:07:25Z</time>
      </trkpt>
      <trkpt lat="28.3717930" lon="-16.4843500">
        <ele>1176.9</ele>
        <time>2020-11-11T14:07:26Z</time>
      </trkpt>
      <trkpt lat="28.3717930" lon="-16.4843500">
        <ele>1176.9</ele>
        <time>2020-11-11T14:07:27Z</time>
      </trkpt>
      <trkpt lat="28.3718250" lon="-16.4844120">
        <ele>1176.9</ele>
        <time>2020-11-11T14:07:28Z</time>
      </trkpt>
      <trkpt lat="28.3718250" lon="-16.4844120">
        <ele>1176.9</ele>
        <time>2020-11-11T14:07:29Z</time>
      </trkpt>
      <trkpt lat="28.3718400" lon="-16.4844800">
        <ele>1176.9</ele>
        <time>2020-11-11T14:07:30Z</time>
      </trkpt>
      <trkpt lat="28.3718400" lon="-16.4844800">
        <ele>1176.9</ele>
        <time>2020-11-11T14:07:31Z</time>
      </trkpt>
      <trkpt lat="28.3718550" lon="-16.4845300">
        <ele>1175.9</ele>
        <time>2020-11-11T14:07:32Z</time>
      </trkpt>
      <trkpt lat="28.3718550" lon="-16.4845300">
        <ele>1174.9</ele>
        <time>2020-11-11T14:07:33Z</time>
      </trkpt>
      <trkpt lat="28.3718720" lon="-16.4845730">
        <ele>1174.9</ele>
        <time>2020-11-11T14:07:34Z</time>
      </trkpt>
      <trkpt lat="28.3718720" lon="-16.4845730">
        <ele>1174.9</ele>
        <time>2020-11-11T14:07:35Z</time>
      </trkpt>
      <trkpt lat="28.3718880" lon="-16.4846320">
        <ele>1174.9</ele>
        <time>2020-11-11T14:07:36Z</time>
      </trkpt>
      <trkpt lat="28.3718880" lon="-16.4846320">
        <ele>1174.9</ele>
        <time>2020-11-11T14:07:37Z</time>
      </trkpt>
      <trkpt lat="28.3719170" lon="-16.4846730">
        <ele>1173.9</ele>
        <time>2020-11-11T14:07:38Z</time>
      </trkpt>
      <trkpt lat="28.3719170" lon="-16.4846730">
        <ele>1173.9</ele>
        <time>2020-11-11T14:07:39Z</time>
      </trkpt>
      <trkpt lat="28.3719670" lon="-16.4846880">
        <ele>1173.9</ele>
        <time>2020-11-11T14:07:40Z</time>
      </trkpt>
      <trkpt lat="28.3720020" lon="-16.4846880">
        <ele>1173.9</ele>
        <time>2020-11-11T14:07:41Z</time>
      </trkpt>
      <trkpt lat="28.3720280" lon="-16.4846880">
        <ele>1172.9</ele>
        <time>2020-11-11T14:07:42Z</time>
      </trkpt>
      <trkpt lat="28.3720280" lon="-16.4846880">
        <ele>1172.9</ele>
        <time>2020-11-11T14:07:43Z</time>
      </trkpt>
      <trkpt lat="28.3720820" lon="-16.4846620">
        <ele>1172.9</ele>
        <time>2020-11-11T14:07:44Z</time>
      </trkpt>
      <trkpt lat="28.3720820" lon="-16.4846620">
        <ele>1172.9</ele>
        <time>2020-11-11T14:07:45Z</time>
      </trkpt>
      <trkpt lat="28.3721380" lon="-16.4846400">
        <ele>1171.9</ele>
        <time>2020-11-11T14:07:46Z</time>
      </trkpt>
      <trkpt lat="28.3721380" lon="-16.4846400">
        <ele>1171.9</ele>
        <time>2020-11-11T14:07:47Z</time>
      </trkpt>
      <trkpt lat="28.3721830" lon="-16.4846300">
        <ele>1171.9</ele>
        <time>2020-11-11T14:07:48Z</time>
      </trkpt>
      <trkpt lat="28.3721830" lon="-16.4846300">
        <ele>1171.9</ele>
        <time>2020-11-11T14:07:49Z</time>
      </trkpt>
      <trkpt lat="28.3722370" lon="-16.4846450">
        <ele>1171.9</ele>
        <time>2020-11-11T14:07:50Z</time>
      </trkpt>
      <trkpt lat="28.3722370" lon="-16.4846450">
        <ele>1171.9</ele>
        <time>2020-11-11T14:07:51Z</time>
      </trkpt>
      <trkpt lat="28.3722850" lon="-16.4846480">
        <ele>1170.9</ele>
        <time>2020-11-11T14:07:52Z</time>
      </trkpt>
      <trkpt lat="28.3722850" lon="-16.4846480">
        <ele>1170.9</ele>
        <time>2020-11-11T14:07:53Z</time>
      </trkpt>
      <trkpt lat="28.3723500" lon="-16.4846450">
        <ele>1170.9</ele>
        <time>2020-11-11T14:07:54Z</time>
      </trkpt>
      <trkpt lat="28.3723500" lon="-16.4846450">
        <ele>1170.9</ele>
        <time>2020-11-11T14:07:55Z</time>
      </trkpt>
      <trkpt lat="28.3724380" lon="-16.4846600">
        <ele>1169.9</ele>
        <time>2020-11-11T14:07:56Z</time>
      </trkpt>
      <trkpt lat="28.3724380" lon="-16.4846600">
        <ele>1169.9</ele>
        <time>2020-11-11T14:07:57Z</time>
      </trkpt>
      <trkpt lat="28.3725070" lon="-16.4846530">
        <ele>1169.9</ele>
        <time>2020-11-11T14:07:58Z</time>
      </trkpt>
      <trkpt lat="28.3725070" lon="-16.4846530">
        <ele>1169.9</ele>
        <time>2020-11-11T14:07:59Z</time>
      </trkpt>
      <trkpt lat="28.3725670" lon="-16.4846200">
        <ele>1168.9</ele>
        <time>2020-11-11T14:08:00Z</time>
      </trkpt>
      <trkpt lat="28.3726270" lon="-16.4846050">
        <ele>1168.9</ele>
        <time>2020-11-11T14:08:01Z</time>
      </trkpt>
      <trkpt lat="28.3726800" lon="-16.4845900">
        <ele>1168.9</ele>
        <time>2020-11-11T14:08:02Z</time>
      </trkpt>
      <trkpt lat="28.3727030" lon="-16.4845700">
        <ele>1168.9</ele>
        <time>2020-11-11T14:08:03Z</time>
      </trkpt>
      <trkpt lat="28.3727030" lon="-16.4845700">
        <ele>1167.9</ele>
        <time>2020-11-11T14:08:04Z</time>
      </trkpt>
      <trkpt lat="28.3727400" lon="-16.4845120">
        <ele>1167.9</ele>
        <time>2020-11-11T14:08:05Z</time>
      </trkpt>
      <trkpt lat="28.3727400" lon="-16.4845120">
        <ele>1167.9</ele>
        <time>2020-11-11T14:08:06Z</time>
      </trkpt>
      <trkpt lat="28.3727470" lon="-16.4844530">
        <ele>1167.9</ele>
        <time>2020-11-11T14:08:07Z</time>
      </trkpt>
      <trkpt lat="28.3727450" lon="-16.4844330">
        <ele>1166.9</ele>
        <time>2020-11-11T14:08:08Z</time>
      </trkpt>
      <trkpt lat="28.3727450" lon="-16.4844330">
        <ele>1166.9</ele>
        <time>2020-11-11T14:08:09Z</time>
      </trkpt>
      <trkpt lat="28.3727420" lon="-16.4843750">
        <ele>1166.9</ele>
        <time>2020-11-11T14:08:10Z</time>
      </trkpt>
      <trkpt lat="28.3727420" lon="-16.4843750">
        <ele>1165.9</ele>
        <time>2020-11-11T14:08:11Z</time>
      </trkpt>
      <trkpt lat="28.3727700" lon="-16.4842900">
        <ele>1165.9</ele>
        <time>2020-11-11T14:08:12Z</time>
      </trkpt>
      <trkpt lat="28.3727570" lon="-16.4842550">
        <ele>1165.9</ele>
        <time>2020-11-11T14:08:13Z</time>
      </trkpt>
      <trkpt lat="28.3727570" lon="-16.4842550">
        <ele>1165.9</ele>
        <time>2020-11-11T14:08:14Z</time>
      </trkpt>
      <trkpt lat="28.3727630" lon="-16.4842030">
        <ele>1164.9</ele>
        <time>2020-11-11T14:08:15Z</time>
      </trkpt>
      <trkpt lat="28.3727630" lon="-16.4842030">
        <ele>1164.9</ele>
        <time>2020-11-11T14:08:16Z</time>
      </trkpt>
      <trkpt lat="28.3728500" lon="-16.4842070">
        <ele>1164.9</ele>
        <time>2020-11-11T14:08:17Z</time>
      </trkpt>
      <trkpt lat="28.3728500" lon="-16.4842070">
        <ele>1164.9</ele>
        <time>2020-11-11T14:08:18Z</time>
      </trkpt>
      <trkpt lat="28.3729070" lon="-16.4842550">
        <ele>1163.9</ele>
        <time>2020-11-11T14:08:19Z</time>
      </trkpt>
      <trkpt lat="28.3729070" lon="-16.4842550">
        <ele>1163.9</ele>
        <time>2020-11-11T14:08:20Z</time>
      </trkpt>
      <trkpt lat="28.3729420" lon="-16.4843020">
        <ele>1162.9</ele>
        <time>2020-11-11T14:08:21Z</time>
      </trkpt>
      <trkpt lat="28.3729570" lon="-16.4843320">
        <ele>1162.9</ele>
        <time>2020-11-11T14:08:22Z</time>
      </trkpt>
      <trkpt lat="28.3729680" lon="-16.4843930">
        <ele>1162.9</ele>
        <time>2020-11-11T14:08:23Z</time>
      </trkpt>
      <trkpt lat="28.3729680" lon="-16.4843930">
        <ele>1162.9</ele>
        <time>2020-11-11T14:08:24Z</time>
      </trkpt>
      <trkpt lat="28.3729680" lon="-16.4843930">
        <ele>1162.9</ele>
        <time>2020-11-11T14:08:25Z</time>
      </trkpt>
      <trkpt lat="28.3729620" lon="-16.4844430">
        <ele>1162.9</ele>
        <time>2020-11-11T14:08:26Z</time>
      </trkpt>
      <trkpt lat="28.3729620" lon="-16.4844430">
        <ele>1161.9</ele>
        <time>2020-11-11T14:08:27Z</time>
      </trkpt>
      <trkpt lat="28.3729630" lon="-16.4844770">
        <ele>1161.9</ele>
        <time>2020-11-11T14:08:28Z</time>
      </trkpt>
      <trkpt lat="28.3729630" lon="-16.4844770">
        <ele>1161.9</ele>
        <time>2020-11-11T14:08:29Z</time>
      </trkpt>
      <trkpt lat="28.3729580" lon="-16.4844930">
        <ele>1161.9</ele>
        <time>2020-11-11T14:08:30Z</time>
      </trkpt>
      <trkpt lat="28.3729580" lon="-16.4844930">
        <ele>1161.9</ele>
        <time>2020-11-11T14:08:31Z</time>
      </trkpt>
      <trkpt lat="28.3729600" lon="-16.4845320">
        <ele>1161.9</ele>
        <time>2020-11-11T14:08:32Z</time>
      </trkpt>
      <trkpt lat="28.3729500" lon="-16.4845500">
        <ele>1161.9</ele>
        <time>2020-11-11T14:08:33Z</time>
      </trkpt>
      <trkpt lat="28.3729500" lon="-16.4845500">
        <ele>1161.9</ele>
        <time>2020-11-11T14:08:34Z</time>
      </trkpt>
      <trkpt lat="28.3729100" lon="-16.4845930">
        <ele>1160.9</ele>
        <time>2020-11-11T14:08:35Z</time>
      </trkpt>
      <trkpt lat="28.3729100" lon="-16.4845930">
        <ele>1160.9</ele>
        <time>2020-11-11T14:08:36Z</time>
      </trkpt>
      <trkpt lat="28.3728470" lon="-16.4846500">
        <ele>1160.9</ele>
        <time>2020-11-11T14:08:37Z</time>
      </trkpt>
      <trkpt lat="28.3728470" lon="-16.4846500">
        <ele>1160.9</ele>
        <time>2020-11-11T14:08:38Z</time>
      </trkpt>
      <trkpt lat="28.3727700" lon="-16.4846880">
        <ele>1160.9</ele>
        <time>2020-11-11T14:08:39Z</time>
      </trkpt>
      <trkpt lat="28.3727700" lon="-16.4846880">
        <ele>1160.9</ele>
        <time>2020-11-11T14:08:40Z</time>
      </trkpt>
      <trkpt lat="28.3727050" lon="-16.4847520">
        <ele>1160.9</ele>
        <time>2020-11-11T14:08:41Z</time>
      </trkpt>
      <trkpt lat="28.3727050" lon="-16.4847520">
        <ele>1160.9</ele>
        <time>2020-11-11T14:08:42Z</time>
      </trkpt>
      <trkpt lat="28.3726130" lon="-16.4847880">
        <ele>1159.9</ele>
        <time>2020-11-11T14:08:43Z</time>
      </trkpt>
      <trkpt lat="28.3726130" lon="-16.4847880">
        <ele>1159.9</ele>
        <time>2020-11-11T14:08:44Z</time>
      </trkpt>
      <trkpt lat="28.3725520" lon="-16.4848300">
        <ele>1159.9</ele>
        <time>2020-11-11T14:08:45Z</time>
      </trkpt>
      <trkpt lat="28.3725520" lon="-16.4848300">
        <ele>1159.9</ele>
        <time>2020-11-11T14:08:46Z</time>
      </trkpt>
      <trkpt lat="28.3724600" lon="-16.4849220">
        <ele>1159.9</ele>
        <time>2020-11-11T14:08:47Z</time>
      </trkpt>
      <trkpt lat="28.3724220" lon="-16.4849520">
        <ele>1159.9</ele>
        <time>2020-11-11T14:08:48Z</time>
      </trkpt>
      <trkpt lat="28.3724220" lon="-16.4849520">
        <ele>1159.9</ele>
        <time>2020-11-11T14:08:49Z</time>
      </trkpt>
      <trkpt lat="28.3723350" lon="-16.4849950">
        <ele>1159.9</ele>
        <time>2020-11-11T14:08:50Z</time>
      </trkpt>
      <trkpt lat="28.3723350" lon="-16.4849950">
        <ele>1159.9</ele>
        <time>2020-11-11T14:08:51Z</time>
      </trkpt>
      <trkpt lat="28.3722630" lon="-16.4850130">
        <ele>1159.9</ele>
        <time>2020-11-11T14:08:52Z</time>
      </trkpt>
      <trkpt lat="28.3722630" lon="-16.4850130">
        <ele>1159.9</ele>
        <time>2020-11-11T14:08:53Z</time>
      </trkpt>
      <trkpt lat="28.3721920" lon="-16.4850120">
        <ele>1159.9</ele>
        <time>2020-11-11T14:08:54Z</time>
      </trkpt>
      <trkpt lat="28.3721920" lon="-16.4850120">
        <ele>1159.9</ele>
        <time>2020-11-11T14:08:55Z</time>
      </trkpt>
      <trkpt lat="28.3721220" lon="-16.4849930">
        <ele>1159.9</ele>
        <time>2020-11-11T14:08:56Z</time>
      </trkpt>
      <trkpt lat="28.3721220" lon="-16.4849930">
        <ele>1158.9</ele>
        <time>2020-11-11T14:08:57Z</time>
      </trkpt>
      <trkpt lat="28.3720450" lon="-16.4849670">
        <ele>1158.9</ele>
        <time>2020-11-11T14:08:58Z</time>
      </trkpt>
      <trkpt lat="28.3720450" lon="-16.4849670">
        <ele>1158.9</ele>
        <time>2020-11-11T14:08:59Z</time>
      </trkpt>
      <trkpt lat="28.3719820" lon="-16.4849570">
        <ele>1158.9</ele>
        <time>2020-11-11T14:09:00Z</time>
      </trkpt>
      <trkpt lat="28.3719820" lon="-16.4849570">
        <ele>1158.9</ele>
        <time>2020-11-11T14:09:01Z</time>
      </trkpt>
      <trkpt lat="28.3719380" lon="-16.4849350">
        <ele>1158.9</ele>
        <time>2020-11-11T14:09:02Z</time>
      </trkpt>
      <trkpt lat="28.3719120" lon="-16.4849100">
        <ele>1158.9</ele>
        <time>2020-11-11T14:09:03Z</time>
      </trkpt>
      <trkpt lat="28.3718820" lon="-16.4848770">
        <ele>1158.9</ele>
        <time>2020-11-11T14:09:04Z</time>
      </trkpt>
      <trkpt lat="28.3718820" lon="-16.4848770">
        <ele>1158.9</ele>
        <time>2020-11-11T14:09:05Z</time>
      </trkpt>
      <trkpt lat="28.3718380" lon="-16.4847970">
        <ele>1158.9</ele>
        <time>2020-11-11T14:09:06Z</time>
      </trkpt>
      <trkpt lat="28.3718380" lon="-16.4847970">
        <ele>1158.9</ele>
        <time>2020-11-11T14:09:07Z</time>
      </trkpt>
      <trkpt lat="28.3718150" lon="-16.4847200">
        <ele>1158.9</ele>
        <time>2020-11-11T14:09:08Z</time>
      </trkpt>
      <trkpt lat="28.3718150" lon="-16.4847200">
        <ele>1158.9</ele>
        <time>2020-11-11T14:09:09Z</time>
      </trkpt>
      <trkpt lat="28.3717720" lon="-16.4846220">
        <ele>1158.9</ele>
        <time>2020-11-11T14:09:10Z</time>
      </trkpt>
      <trkpt lat="28.3717470" lon="-16.4845780">
        <ele>1158.9</ele>
        <time>2020-11-11T14:09:11Z</time>
      </trkpt>
      <trkpt lat="28.3717130" lon="-16.4845470">
        <ele>1158.9</ele>
        <time>2020-11-11T14:09:12Z</time>
      </trkpt>
      <trkpt lat="28.3717130" lon="-16.4845470">
        <ele>1158.9</ele>
        <time>2020-11-11T14:09:13Z</time>
      </trkpt>
      <trkpt lat="28.3716420" lon="-16.4844630">
        <ele>1158.9</ele>
        <time>2020-11-11T14:09:14Z</time>
      </trkpt>
      <trkpt lat="28.3716420" lon="-16.4844630">
        <ele>1158.9</ele>
        <time>2020-11-11T14:09:15Z</time>
      </trkpt>
      <trkpt lat="28.3715430" lon="-16.4843670">
        <ele>1158.9</ele>
        <time>2020-11-11T14:09:16Z</time>
      </trkpt>
      <trkpt lat="28.3715000" lon="-16.4843130">
        <ele>1158.9</ele>
        <time>2020-11-11T14:09:17Z</time>
      </trkpt>
      <trkpt lat="28.3714630" lon="-16.4842630">
        <ele>1157.9</ele>
        <time>2020-11-11T14:09:18Z</time>
      </trkpt>
      <trkpt lat="28.3714630" lon="-16.4842630">
        <ele>1157.9</ele>
        <time>2020-11-11T14:09:19Z</time>
      </trkpt>
      <trkpt lat="28.3713420" lon="-16.4841750">
        <ele>1157.9</ele>
        <time>2020-11-11T14:09:20Z</time>
      </trkpt>
      <trkpt lat="28.3712850" lon="-16.4841350">
        <ele>1157.9</ele>
        <time>2020-11-11T14:09:21Z</time>
      </trkpt>
      <trkpt lat="28.3712850" lon="-16.4841350">
        <ele>1156.9</ele>
        <time>2020-11-11T14:09:22Z</time>
      </trkpt>
      <trkpt lat="28.3711920" lon="-16.4840400">
        <ele>1156.9</ele>
        <time>2020-11-11T14:09:23Z</time>
      </trkpt>
      <trkpt lat="28.3711920" lon="-16.4840400">
        <ele>1156.9</ele>
        <time>2020-11-11T14:09:24Z</time>
      </trkpt>
      <trkpt lat="28.3711120" lon="-16.4839370">
        <ele>1155.9</ele>
        <time>2020-11-11T14:09:25Z</time>
      </trkpt>
      <trkpt lat="28.3710750" lon="-16.4838830">
        <ele>1155.9</ele>
        <time>2020-11-11T14:09:26Z</time>
      </trkpt>
      <trkpt lat="28.3710750" lon="-16.4838830">
        <ele>1155.9</ele>
        <time>2020-11-11T14:09:27Z</time>
      </trkpt>
      <trkpt lat="28.3710300" lon="-16.4837650">
        <ele>1155.9</ele>
        <time>2020-11-11T14:09:28Z</time>
      </trkpt>
      <trkpt lat="28.3710300" lon="-16.4837650">
        <ele>1155.9</ele>
        <time>2020-11-11T14:09:29Z</time>
      </trkpt>
      <trkpt lat="28.3710000" lon="-16.4836620">
        <ele>1155.9</ele>
        <time>2020-11-11T14:09:30Z</time>
      </trkpt>
      <trkpt lat="28.3710000" lon="-16.4836620">
        <ele>1155.9</ele>
        <time>2020-11-11T14:09:31Z</time>
      </trkpt>
      <trkpt lat="28.3709400" lon="-16.4835980">
        <ele>1155.9</ele>
        <time>2020-11-11T14:09:32Z</time>
      </trkpt>
      <trkpt lat="28.3709400" lon="-16.4835980">
        <ele>1155.9</ele>
        <time>2020-11-11T14:09:33Z</time>
      </trkpt>
      <trkpt lat="28.3708580" lon="-16.4835630">
        <ele>1155.9</ele>
        <time>2020-11-11T14:09:34Z</time>
      </trkpt>
      <trkpt lat="28.3708580" lon="-16.4835630">
        <ele>1155.9</ele>
        <time>2020-11-11T14:09:35Z</time>
      </trkpt>
      <trkpt lat="28.3707570" lon="-16.4835470">
        <ele>1155.9</ele>
        <time>2020-11-11T14:09:36Z</time>
      </trkpt>
      <trkpt lat="28.3707570" lon="-16.4835470">
        <ele>1155.9</ele>
        <time>2020-11-11T14:09:37Z</time>
      </trkpt>
      <trkpt lat="28.3706580" lon="-16.4835050">
        <ele>1155.9</ele>
        <time>2020-11-11T14:09:38Z</time>
      </trkpt>
      <trkpt lat="28.3706580" lon="-16.4835050">
        <ele>1155.9</ele>
        <time>2020-11-11T14:09:39Z</time>
      </trkpt>
      <trkpt lat="28.3705700" lon="-16.4834420">
        <ele>1155.9</ele>
        <time>2020-11-11T14:09:40Z</time>
      </trkpt>
      <trkpt lat="28.3705700" lon="-16.4834420">
        <ele>1155.9</ele>
        <time>2020-11-11T14:09:41Z</time>
      </trkpt>
      <trkpt lat="28.3705120" lon="-16.4833570">
        <ele>1155.9</ele>
        <time>2020-11-11T14:09:42Z</time>
      </trkpt>
      <trkpt lat="28.3705120" lon="-16.4833570">
        <ele>1155.9</ele>
        <time>2020-11-11T14:09:43Z</time>
      </trkpt>
      <trkpt lat="28.3704770" lon="-16.4832570">
        <ele>1155.9</ele>
        <time>2020-11-11T14:09:44Z</time>
      </trkpt>
      <trkpt lat="28.3704770" lon="-16.4832570">
        <ele>1155.9</ele>
        <time>2020-11-11T14:09:45Z</time>
      </trkpt>
      <trkpt lat="28.3704470" lon="-16.4831470">
        <ele>1155.9</ele>
        <time>2020-11-11T14:09:46Z</time>
      </trkpt>
      <trkpt lat="28.3704470" lon="-16.4831470">
        <ele>1155.9</ele>
        <time>2020-11-11T14:09:47Z</time>
      </trkpt>
      <trkpt lat="28.3704050" lon="-16.4830430">
        <ele>1155.9</ele>
        <time>2020-11-11T14:09:48Z</time>
      </trkpt>
      <trkpt lat="28.3703850" lon="-16.4829900">
        <ele>1155.9</ele>
        <time>2020-11-11T14:09:49Z</time>
      </trkpt>
      <trkpt lat="28.3703850" lon="-16.4829900">
        <ele>1155.9</ele>
        <time>2020-11-11T14:09:50Z</time>
      </trkpt>
      <trkpt lat="28.3703420" lon="-16.4829050">
        <ele>1155.9</ele>
        <time>2020-11-11T14:09:51Z</time>
      </trkpt>
      <trkpt lat="28.3703420" lon="-16.4829050">
        <ele>1155.9</ele>
        <time>2020-11-11T14:09:52Z</time>
      </trkpt>
      <trkpt lat="28.3702920" lon="-16.4828300">
        <ele>1155.9</ele>
        <time>2020-11-11T14:09:53Z</time>
      </trkpt>
      <trkpt lat="28.3702920" lon="-16.4828300">
        <ele>1155.9</ele>
        <time>2020-11-11T14:09:54Z</time>
      </trkpt>
      <trkpt lat="28.3702120" lon="-16.4827880">
        <ele>1154.9</ele>
        <time>2020-11-11T14:09:55Z</time>
      </trkpt>
      <trkpt lat="28.3701670" lon="-16.4827900">
        <ele>1154.9</ele>
        <time>2020-11-11T14:09:56Z</time>
      </trkpt>
      <trkpt lat="28.3701670" lon="-16.4827900">
        <ele>1153.9</ele>
        <time>2020-11-11T14:09:57Z</time>
      </trkpt>
      <trkpt lat="28.3700980" lon="-16.4828400">
        <ele>1153.9</ele>
        <time>2020-11-11T14:09:58Z</time>
      </trkpt>
      <trkpt lat="28.3700980" lon="-16.4828400">
        <ele>1153.9</ele>
        <time>2020-11-11T14:09:59Z</time>
      </trkpt>
      <trkpt lat="28.3700780" lon="-16.4828870">
        <ele>1153.9</ele>
        <time>2020-11-11T14:10:00Z</time>
      </trkpt>
      <trkpt lat="28.3701020" lon="-16.4829120">
        <ele>1153.9</ele>
        <time>2020-11-11T14:10:01Z</time>
      </trkpt>
      <trkpt lat="28.3701020" lon="-16.4829120">
        <ele>1153.9</ele>
        <time>2020-11-11T14:10:02Z</time>
      </trkpt>
      <trkpt lat="28.3701150" lon="-16.4829300">
        <ele>1153.9</ele>
        <time>2020-11-11T14:10:03Z</time>
      </trkpt>
      <trkpt lat="28.3701150" lon="-16.4829300">
        <ele>1154.9</ele>
        <time>2020-11-11T14:10:04Z</time>
      </trkpt>
      <trkpt lat="28.3701150" lon="-16.4829730">
        <ele>1154.9</ele>
        <time>2020-11-11T14:10:05Z</time>
      </trkpt>
      <trkpt lat="28.3701050" lon="-16.4829950">
        <ele>1154.9</ele>
        <time>2020-11-11T14:10:06Z</time>
      </trkpt>
      <trkpt lat="28.3701050" lon="-16.4829950">
        <ele>1154.9</ele>
        <time>2020-11-11T14:10:07Z</time>
      </trkpt>
      <trkpt lat="28.3700750" lon="-16.4830270">
        <ele>1155.9</ele>
        <time>2020-11-11T14:10:08Z</time>
      </trkpt>
      <trkpt lat="28.3700750" lon="-16.4830270">
        <ele>1155.9</ele>
        <time>2020-11-11T14:10:09Z</time>
      </trkpt>
      <trkpt lat="28.3700350" lon="-16.4830450">
        <ele>1155.9</ele>
        <time>2020-11-11T14:10:10Z</time>
      </trkpt>
      <trkpt lat="28.3700350" lon="-16.4830450">
        <ele>1155.9</ele>
        <time>2020-11-11T14:10:11Z</time>
      </trkpt>
      <trkpt lat="28.3699780" lon="-16.4830450">
        <ele>1156.9</ele>
        <time>2020-11-11T14:10:12Z</time>
      </trkpt>
      <trkpt lat="28.3699780" lon="-16.4830450">
        <ele>1156.9</ele>
        <time>2020-11-11T14:10:13Z</time>
      </trkpt>
      <trkpt lat="28.3699230" lon="-16.4830480">
        <ele>1156.9</ele>
        <time>2020-11-11T14:10:14Z</time>
      </trkpt>
      <trkpt lat="28.3699230" lon="-16.4830480">
        <ele>1156.9</ele>
        <time>2020-11-11T14:10:15Z</time>
      </trkpt>
      <trkpt lat="28.3698720" lon="-16.4830400">
        <ele>1156.9</ele>
        <time>2020-11-11T14:10:16Z</time>
      </trkpt>
      <trkpt lat="28.3698500" lon="-16.4830400">
        <ele>1156.9</ele>
        <time>2020-11-11T14:10:17Z</time>
      </trkpt>
      <trkpt lat="28.3698500" lon="-16.4830400">
        <ele>1157.9</ele>
        <time>2020-11-11T14:10:18Z</time>
      </trkpt>
      <trkpt lat="28.3698070" lon="-16.4830470">
        <ele>1157.9</ele>
        <time>2020-11-11T14:10:19Z</time>
      </trkpt>
      <trkpt lat="28.3697900" lon="-16.4830650">
        <ele>1157.9</ele>
        <time>2020-11-11T14:10:20Z</time>
      </trkpt>
      <trkpt lat="28.3697770" lon="-16.4830950">
        <ele>1157.9</ele>
        <time>2020-11-11T14:10:21Z</time>
      </trkpt>
      <trkpt lat="28.3697770" lon="-16.4830950">
        <ele>1157.9</ele>
        <time>2020-11-11T14:10:22Z</time>
      </trkpt>
      <trkpt lat="28.3697480" lon="-16.4831500">
        <ele>1157.9</ele>
        <time>2020-11-11T14:10:23Z</time>
      </trkpt>
      <trkpt lat="28.3697480" lon="-16.4831500">
        <ele>1158.9</ele>
        <time>2020-11-11T14:10:24Z</time>
      </trkpt>
      <trkpt lat="28.3697120" lon="-16.4831850">
        <ele>1158.9</ele>
        <time>2020-11-11T14:10:25Z</time>
      </trkpt>
      <trkpt lat="28.3696950" lon="-16.4831930">
        <ele>1158.9</ele>
        <time>2020-11-11T14:10:26Z</time>
      </trkpt>
      <trkpt lat="28.3696950" lon="-16.4831930">
        <ele>1158.9</ele>
        <time>2020-11-11T14:10:27Z</time>
      </trkpt>
      <trkpt lat="28.3696530" lon="-16.4832130">
        <ele>1158.9</ele>
        <time>2020-11-11T14:10:28Z</time>
      </trkpt>
      <trkpt lat="28.3696350" lon="-16.4832180">
        <ele>1159.9</ele>
        <time>2020-11-11T14:10:29Z</time>
      </trkpt>
      <trkpt lat="28.3696150" lon="-16.4832270">
        <ele>1159.9</ele>
        <time>2020-11-11T14:10:30Z</time>
      </trkpt>
      <trkpt lat="28.3696150" lon="-16.4832270">
        <ele>1159.9</ele>
        <time>2020-11-11T14:10:31Z</time>
      </trkpt>
      <trkpt lat="28.3695730" lon="-16.4832380">
        <ele>1159.9</ele>
        <time>2020-11-11T14:10:32Z</time>
      </trkpt>
      <trkpt lat="28.3695550" lon="-16.4832500">
        <ele>1160.9</ele>
        <time>2020-11-11T14:10:33Z</time>
      </trkpt>
      <trkpt lat="28.3695550" lon="-16.4832500">
        <ele>1160.9</ele>
        <time>2020-11-11T14:10:34Z</time>
      </trkpt>
      <trkpt lat="28.3695150" lon="-16.4832820">
        <ele>1160.9</ele>
        <time>2020-11-11T14:10:35Z</time>
      </trkpt>
      <trkpt lat="28.3695150" lon="-16.4832820">
        <ele>1160.9</ele>
        <time>2020-11-11T14:10:36Z</time>
      </trkpt>
      <trkpt lat="28.3694900" lon="-16.4833050">
        <ele>1160.9</ele>
        <time>2020-11-11T14:10:37Z</time>
      </trkpt>
      <trkpt lat="28.3694780" lon="-16.4833120">
        <ele>1161.9</ele>
        <time>2020-11-11T14:10:38Z</time>
      </trkpt>
      <trkpt lat="28.3694780" lon="-16.4833120">
        <ele>1161.9</ele>
        <time>2020-11-11T14:10:39Z</time>
      </trkpt>
      <trkpt lat="28.3694570" lon="-16.4833200">
        <ele>1161.9</ele>
        <time>2020-11-11T14:10:40Z</time>
      </trkpt>
      <trkpt lat="28.3694430" lon="-16.4833380">
        <ele>1161.9</ele>
        <time>2020-11-11T14:10:41Z</time>
      </trkpt>
      <trkpt lat="28.3694430" lon="-16.4833380">
        <ele>1161.9</ele>
        <time>2020-11-11T14:10:42Z</time>
      </trkpt>
      <trkpt lat="28.3694220" lon="-16.4833820">
        <ele>1161.9</ele>
        <time>2020-11-11T14:10:43Z</time>
      </trkpt>
      <trkpt lat="28.3694220" lon="-16.4833820">
        <ele>1161.9</ele>
        <time>2020-11-11T14:10:44Z</time>
      </trkpt>
      <trkpt lat="28.3694070" lon="-16.4834120">
        <ele>1162.9</ele>
        <time>2020-11-11T14:10:45Z</time>
      </trkpt>
      <trkpt lat="28.3694050" lon="-16.4834400">
        <ele>1162.9</ele>
        <time>2020-11-11T14:10:46Z</time>
      </trkpt>
      <trkpt lat="28.3694050" lon="-16.4834400">
        <ele>1162.9</ele>
        <time>2020-11-11T14:10:47Z</time>
      </trkpt>
      <trkpt lat="28.3694120" lon="-16.4834820">
        <ele>1162.9</ele>
        <time>2020-11-11T14:10:48Z</time>
      </trkpt>
      <trkpt lat="28.3694120" lon="-16.4834820">
        <ele>1163.9</ele>
        <time>2020-11-11T14:10:49Z</time>
      </trkpt>
      <trkpt lat="28.3693870" lon="-16.4835050">
        <ele>1163.9</ele>
        <time>2020-11-11T14:10:50Z</time>
      </trkpt>
      <trkpt lat="28.3693870" lon="-16.4835050">
        <ele>1163.9</ele>
        <time>2020-11-11T14:10:51Z</time>
      </trkpt>
      <trkpt lat="28.3693720" lon="-16.4835330">
        <ele>1163.9</ele>
        <time>2020-11-11T14:10:52Z</time>
      </trkpt>
      <trkpt lat="28.3693720" lon="-16.4835330">
        <ele>1163.9</ele>
        <time>2020-11-11T14:10:53Z</time>
      </trkpt>
      <trkpt lat="28.3693370" lon="-16.4835500">
        <ele>1163.9</ele>
        <time>2020-11-11T14:10:54Z</time>
      </trkpt>
      <trkpt lat="28.3693370" lon="-16.4835500">
        <ele>1164.9</ele>
        <time>2020-11-11T14:10:55Z</time>
      </trkpt>
      <trkpt lat="28.3693100" lon="-16.4835720">
        <ele>1164.9</ele>
        <time>2020-11-11T14:10:56Z</time>
      </trkpt>
      <trkpt lat="28.3692950" lon="-16.4835830">
        <ele>1164.9</ele>
        <time>2020-11-11T14:10:57Z</time>
      </trkpt>
      <trkpt lat="28.3692800" lon="-16.4835950">
        <ele>1164.9</ele>
        <time>2020-11-11T14:10:58Z</time>
      </trkpt>
      <trkpt lat="28.3692800" lon="-16.4835950">
        <ele>1164.9</ele>
        <time>2020-11-11T14:10:59Z</time>
      </trkpt>
      <trkpt lat="28.3692520" lon="-16.4836220">
        <ele>1164.9</ele>
        <time>2020-11-11T14:11:00Z</time>
      </trkpt>
      <trkpt lat="28.3692400" lon="-16.4836370">
        <ele>1164.9</ele>
        <time>2020-11-11T14:11:01Z</time>
      </trkpt>
      <trkpt lat="28.3692280" lon="-16.4836450">
        <ele>1164.9</ele>
        <time>2020-11-11T14:11:02Z</time>
      </trkpt>
      <trkpt lat="28.3692280" lon="-16.4836450">
        <ele>1164.9</ele>
        <time>2020-11-11T14:11:03Z</time>
      </trkpt>
      <trkpt lat="28.3692250" lon="-16.4836730">
        <ele>1165.9</ele>
        <time>2020-11-11T14:11:04Z</time>
      </trkpt>
      <trkpt lat="28.3692250" lon="-16.4836730">
        <ele>1165.9</ele>
        <time>2020-11-11T14:11:05Z</time>
      </trkpt>
      <trkpt lat="28.3692350" lon="-16.4837080">
        <ele>1165.9</ele>
        <time>2020-11-11T14:11:06Z</time>
      </trkpt>
      <trkpt lat="28.3692350" lon="-16.4837080">
        <ele>1165.9</ele>
        <time>2020-11-11T14:11:07Z</time>
      </trkpt>
      <trkpt lat="28.3692650" lon="-16.4837480">
        <ele>1165.9</ele>
        <time>2020-11-11T14:11:08Z</time>
      </trkpt>
      <trkpt lat="28.3692650" lon="-16.4837480">
        <ele>1165.9</ele>
        <time>2020-11-11T14:11:09Z</time>
      </trkpt>
      <trkpt lat="28.3692900" lon="-16.4837900">
        <ele>1165.9</ele>
        <time>2020-11-11T14:11:10Z</time>
      </trkpt>
      <trkpt lat="28.3692900" lon="-16.4837900">
        <ele>1166.9</ele>
        <time>2020-11-11T14:11:11Z</time>
      </trkpt>
      <trkpt lat="28.3693220" lon="-16.4838320">
        <ele>1166.9</ele>
        <time>2020-11-11T14:11:12Z</time>
      </trkpt>
      <trkpt lat="28.3693320" lon="-16.4838520">
        <ele>1166.9</ele>
        <time>2020-11-11T14:11:13Z</time>
      </trkpt>
      <trkpt lat="28.3693320" lon="-16.4838520">
        <ele>1166.9</ele>
        <time>2020-11-11T14:11:14Z</time>
      </trkpt>
      <trkpt lat="28.3693730" lon="-16.4839050">
        <ele>1166.9</ele>
        <time>2020-11-11T14:11:15Z</time>
      </trkpt>
      <trkpt lat="28.3693870" lon="-16.4839300">
        <ele>1166.9</ele>
        <time>2020-11-11T14:11:16Z</time>
      </trkpt>
      <trkpt lat="28.3693870" lon="-16.4839300">
        <ele>1167.9</ele>
        <time>2020-11-11T14:11:17Z</time>
      </trkpt>
      <trkpt lat="28.3694020" lon="-16.4839770">
        <ele>1167.9</ele>
        <time>2020-11-11T14:11:18Z</time>
      </trkpt>
      <trkpt lat="28.3694020" lon="-16.4839770">
        <ele>1167.9</ele>
        <time>2020-11-11T14:11:19Z</time>
      </trkpt>
      <trkpt lat="28.3694230" lon="-16.4840270">
        <ele>1167.9</ele>
        <time>2020-11-11T14:11:20Z</time>
      </trkpt>
      <trkpt lat="28.3694230" lon="-16.4840270">
        <ele>1167.9</ele>
        <time>2020-11-11T14:11:21Z</time>
      </trkpt>
      <trkpt lat="28.3694250" lon="-16.4840750">
        <ele>1167.9</ele>
        <time>2020-11-11T14:11:22Z</time>
      </trkpt>
      <trkpt lat="28.3694250" lon="-16.4840750">
        <ele>1167.9</ele>
        <time>2020-11-11T14:11:23Z</time>
      </trkpt>
      <trkpt lat="28.3694230" lon="-16.4841200">
        <ele>1168.9</ele>
        <time>2020-11-11T14:11:24Z</time>
      </trkpt>
      <trkpt lat="28.3694270" lon="-16.4841450">
        <ele>1168.9</ele>
        <time>2020-11-11T14:11:25Z</time>
      </trkpt>
      <trkpt lat="28.3694270" lon="-16.4841700">
        <ele>1168.9</ele>
        <time>2020-11-11T14:11:26Z</time>
      </trkpt>
      <trkpt lat="28.3694250" lon="-16.4841930">
        <ele>1168.9</ele>
        <time>2020-11-11T14:11:27Z</time>
      </trkpt>
      <trkpt lat="28.3694250" lon="-16.4841930">
        <ele>1168.9</ele>
        <time>2020-11-11T14:11:28Z</time>
      </trkpt>
      <trkpt lat="28.3694130" lon="-16.4842400">
        <ele>1168.9</ele>
        <time>2020-11-11T14:11:29Z</time>
      </trkpt>
      <trkpt lat="28.3694130" lon="-16.4842400">
        <ele>1168.9</ele>
        <time>2020-11-11T14:11:30Z</time>
      </trkpt>
      <trkpt lat="28.3694120" lon="-16.4842820">
        <ele>1168.9</ele>
        <time>2020-11-11T14:11:31Z</time>
      </trkpt>
      <trkpt lat="28.3694120" lon="-16.4843020">
        <ele>1168.9</ele>
        <time>2020-11-11T14:11:32Z</time>
      </trkpt>
      <trkpt lat="28.3694020" lon="-16.4843200">
        <ele>1168.9</ele>
        <time>2020-11-11T14:11:33Z</time>
      </trkpt>
      <trkpt lat="28.3694020" lon="-16.4843200">
        <ele>1168.9</ele>
        <time>2020-11-11T14:11:34Z</time>
      </trkpt>
      <trkpt lat="28.3693650" lon="-16.4843500">
        <ele>1168.9</ele>
        <time>2020-11-11T14:11:35Z</time>
      </trkpt>
      <trkpt lat="28.3693570" lon="-16.4843680">
        <ele>1168.9</ele>
        <time>2020-11-11T14:11:36Z</time>
      </trkpt>
      <trkpt lat="28.3693570" lon="-16.4843680">
        <ele>1168.9</ele>
        <time>2020-11-11T14:11:37Z</time>
      </trkpt>
      <trkpt lat="28.3693270" lon="-16.4843980">
        <ele>1169.9</ele>
        <time>2020-11-11T14:11:38Z</time>
      </trkpt>
      <trkpt lat="28.3693270" lon="-16.4843980">
        <ele>1169.9</ele>
        <time>2020-11-11T14:11:39Z</time>
      </trkpt>
      <trkpt lat="28.3693370" lon="-16.4844400">
        <ele>1169.9</ele>
        <time>2020-11-11T14:11:40Z</time>
      </trkpt>
      <trkpt lat="28.3693380" lon="-16.4844630">
        <ele>1169.9</ele>
        <time>2020-11-11T14:11:41Z</time>
      </trkpt>
      <trkpt lat="28.3693380" lon="-16.4844630">
        <ele>1170.9</ele>
        <time>2020-11-11T14:11:42Z</time>
      </trkpt>
      <trkpt lat="28.3693370" lon="-16.4844980">
        <ele>1170.9</ele>
        <time>2020-11-11T14:11:43Z</time>
      </trkpt>
      <trkpt lat="28.3693350" lon="-16.4845180">
        <ele>1170.9</ele>
        <time>2020-11-11T14:11:44Z</time>
      </trkpt>
      <trkpt lat="28.3693350" lon="-16.4845370">
        <ele>1170.9</ele>
        <time>2020-11-11T14:11:45Z</time>
      </trkpt>
      <trkpt lat="28.3693350" lon="-16.4845370">
        <ele>1171.9</ele>
        <time>2020-11-11T14:11:46Z</time>
      </trkpt>
      <trkpt lat="28.3693520" lon="-16.4845700">
        <ele>1171.9</ele>
        <time>2020-11-11T14:11:47Z</time>
      </trkpt>
      <trkpt lat="28.3693620" lon="-16.4845870">
        <ele>1171.9</ele>
        <time>2020-11-11T14:11:48Z</time>
      </trkpt>
      <trkpt lat="28.3693620" lon="-16.4845870">
        <ele>1171.9</ele>
        <time>2020-11-11T14:11:49Z</time>
      </trkpt>
      <trkpt lat="28.3693730" lon="-16.4846230">
        <ele>1171.9</ele>
        <time>2020-11-11T14:11:50Z</time>
      </trkpt>
      <trkpt lat="28.3693730" lon="-16.4846230">
        <ele>1171.9</ele>
        <time>2020-11-11T14:11:51Z</time>
      </trkpt>
      <trkpt lat="28.3693880" lon="-16.4846550">
        <ele>1171.9</ele>
        <time>2020-11-11T14:11:52Z</time>
      </trkpt>
      <trkpt lat="28.3693880" lon="-16.4846550">
        <ele>1171.9</ele>
        <time>2020-11-11T14:11:53Z</time>
      </trkpt>
      <trkpt lat="28.3693680" lon="-16.4846780">
        <ele>1171.9</ele>
        <time>2020-11-11T14:11:54Z</time>
      </trkpt>
      <trkpt lat="28.3693130" lon="-16.4846840">
        <ele>1172.9</ele>
        <time>2020-11-11T14:11:55Z</time>
      </trkpt>
      <trkpt lat="28.3692580" lon="-16.4846900">
        <ele>1172.9</ele>
        <time>2020-11-11T14:11:56Z</time>
      </trkpt>
      <trkpt lat="28.3692580" lon="-16.4846900">
        <ele>1172.9</ele>
        <time>2020-11-11T14:11:57Z</time>
      </trkpt>
      <trkpt lat="28.3691720" lon="-16.4847230">
        <ele>1172.9</ele>
        <time>2020-11-11T14:11:58Z</time>
      </trkpt>
      <trkpt lat="28.3691720" lon="-16.4847230">
        <ele>1172.9</ele>
        <time>2020-11-11T14:11:59Z</time>
      </trkpt>
      <trkpt lat="28.3691670" lon="-16.4847600">
        <ele>1172.9</ele>
        <time>2020-11-11T14:12:00Z</time>
      </trkpt>
      <trkpt lat="28.3691630" lon="-16.4847770">
        <ele>1173.9</ele>
        <time>2020-11-11T14:12:01Z</time>
      </trkpt>
      <trkpt lat="28.3691520" lon="-16.4847850">
        <ele>1173.9</ele>
        <time>2020-11-11T14:12:02Z</time>
      </trkpt>
      <trkpt lat="28.3691520" lon="-16.4847850">
        <ele>1173.9</ele>
        <time>2020-11-11T14:12:03Z</time>
      </trkpt>
      <trkpt lat="28.3691170" lon="-16.4847920">
        <ele>1173.9</ele>
        <time>2020-11-11T14:12:04Z</time>
      </trkpt>
      <trkpt lat="28.3690930" lon="-16.4847920">
        <ele>1173.9</ele>
        <time>2020-11-11T14:12:05Z</time>
      </trkpt>
      <trkpt lat="28.3690930" lon="-16.4847920">
        <ele>1173.9</ele>
        <time>2020-11-11T14:12:06Z</time>
      </trkpt>
      <trkpt lat="28.3690520" lon="-16.4847800">
        <ele>1173.9</ele>
        <time>2020-11-11T14:12:07Z</time>
      </trkpt>
      <trkpt lat="28.3690520" lon="-16.4847800">
        <ele>1173.9</ele>
        <time>2020-11-11T14:12:08Z</time>
      </trkpt>
      <trkpt lat="28.3690120" lon="-16.4847770">
        <ele>1173.9</ele>
        <time>2020-11-11T14:12:09Z</time>
      </trkpt>
      <trkpt lat="28.3690120" lon="-16.4847770">
        <ele>1173.9</ele>
        <time>2020-11-11T14:12:10Z</time>
      </trkpt>
      <trkpt lat="28.3689670" lon="-16.4847700">
        <ele>1174.9</ele>
        <time>2020-11-11T14:12:11Z</time>
      </trkpt>
      <trkpt lat="28.3689670" lon="-16.4847700">
        <ele>1174.9</ele>
        <time>2020-11-11T14:12:12Z</time>
      </trkpt>
      <trkpt lat="28.3689120" lon="-16.4847680">
        <ele>1174.9</ele>
        <time>2020-11-11T14:12:13Z</time>
      </trkpt>
      <trkpt lat="28.3688820" lon="-16.4847630">
        <ele>1174.9</ele>
        <time>2020-11-11T14:12:14Z</time>
      </trkpt>
      <trkpt lat="28.3688820" lon="-16.4847630">
        <ele>1174.9</ele>
        <time>2020-11-11T14:12:15Z</time>
      </trkpt>
      <trkpt lat="28.3688220" lon="-16.4847570">
        <ele>1174.9</ele>
        <time>2020-11-11T14:12:16Z</time>
      </trkpt>
      <trkpt lat="28.3687950" lon="-16.4847530">
        <ele>1174.9</ele>
        <time>2020-11-11T14:12:17Z</time>
      </trkpt>
      <trkpt lat="28.3687950" lon="-16.4847530">
        <ele>1174.9</ele>
        <time>2020-11-11T14:12:18Z</time>
      </trkpt>
      <trkpt lat="28.3687320" lon="-16.4847550">
        <ele>1174.9</ele>
        <time>2020-11-11T14:12:19Z</time>
      </trkpt>
      <trkpt lat="28.3687070" lon="-16.4847600">
        <ele>1174.9</ele>
        <time>2020-11-11T14:12:20Z</time>
      </trkpt>
      <trkpt lat="28.3687070" lon="-16.4847600">
        <ele>1174.9</ele>
        <time>2020-11-11T14:12:21Z</time>
      </trkpt>
      <trkpt lat="28.3686900" lon="-16.4848350">
        <ele>1174.9</ele>
        <time>2020-11-11T14:12:22Z</time>
      </trkpt>
      <trkpt lat="28.3686900" lon="-16.4848350">
        <ele>1173.9</ele>
        <time>2020-11-11T14:12:23Z</time>
      </trkpt>
      <trkpt lat="28.3686980" lon="-16.4849080">
        <ele>1173.9</ele>
        <time>2020-11-11T14:12:24Z</time>
      </trkpt>
      <trkpt lat="28.3686980" lon="-16.4849080">
        <ele>1173.9</ele>
        <time>2020-11-11T14:12:25Z</time>
      </trkpt>
      <trkpt lat="28.3687430" lon="-16.4849800">
        <ele>1173.9</ele>
        <time>2020-11-11T14:12:26Z</time>
      </trkpt>
      <trkpt lat="28.3687430" lon="-16.4849800">
        <ele>1173.9</ele>
        <time>2020-11-11T14:12:27Z</time>
      </trkpt>
      <trkpt lat="28.3688200" lon="-16.4850630">
        <ele>1173.9</ele>
        <time>2020-11-11T14:12:28Z</time>
      </trkpt>
      <trkpt lat="28.3688520" lon="-16.4851070">
        <ele>1173.9</ele>
        <time>2020-11-11T14:12:29Z</time>
      </trkpt>
      <trkpt lat="28.3688520" lon="-16.4851070">
        <ele>1173.9</ele>
        <time>2020-11-11T14:12:30Z</time>
      </trkpt>
      <trkpt lat="28.3688530" lon="-16.4851870">
        <ele>1173.9</ele>
        <time>2020-11-11T14:12:31Z</time>
      </trkpt>
      <trkpt lat="28.3688630" lon="-16.4852320">
        <ele>1173.9</ele>
        <time>2020-11-11T14:12:32Z</time>
      </trkpt>
      <trkpt lat="28.3688630" lon="-16.4852320">
        <ele>1173.9</ele>
        <time>2020-11-11T14:12:33Z</time>
      </trkpt>
      <trkpt lat="28.3689020" lon="-16.4853330">
        <ele>1172.9</ele>
        <time>2020-11-11T14:12:34Z</time>
      </trkpt>
      <trkpt lat="28.3689020" lon="-16.4853330">
        <ele>1172.9</ele>
        <time>2020-11-11T14:12:35Z</time>
      </trkpt>
      <trkpt lat="28.3689220" lon="-16.4854330">
        <ele>1172.9</ele>
        <time>2020-11-11T14:12:36Z</time>
      </trkpt>
      <trkpt lat="28.3689220" lon="-16.4854330">
        <ele>1172.9</ele>
        <time>2020-11-11T14:12:37Z</time>
      </trkpt>
      <trkpt lat="28.3689270" lon="-16.4855220">
        <ele>1172.9</ele>
        <time>2020-11-11T14:12:38Z</time>
      </trkpt>
      <trkpt lat="28.3689270" lon="-16.4855220">
        <ele>1172.9</ele>
        <time>2020-11-11T14:12:39Z</time>
      </trkpt>
      <trkpt lat="28.3689100" lon="-16.4856100">
        <ele>1172.9</ele>
        <time>2020-11-11T14:12:40Z</time>
      </trkpt>
      <trkpt lat="28.3689100" lon="-16.4856100">
        <ele>1172.9</ele>
        <time>2020-11-11T14:12:41Z</time>
      </trkpt>
      <trkpt lat="28.3689130" lon="-16.4857120">
        <ele>1172.9</ele>
        <time>2020-11-11T14:12:42Z</time>
      </trkpt>
      <trkpt lat="28.3689130" lon="-16.4857120">
        <ele>1172.9</ele>
        <time>2020-11-11T14:12:43Z</time>
      </trkpt>
      <trkpt lat="28.3689200" lon="-16.4858250">
        <ele>1171.9</ele>
        <time>2020-11-11T14:12:44Z</time>
      </trkpt>
      <trkpt lat="28.3689400" lon="-16.4858830">
        <ele>1171.9</ele>
        <time>2020-11-11T14:12:45Z</time>
      </trkpt>
      <trkpt lat="28.3689400" lon="-16.4858830">
        <ele>1171.9</ele>
        <time>2020-11-11T14:12:46Z</time>
      </trkpt>
      <trkpt lat="28.3689880" lon="-16.4859900">
        <ele>1171.9</ele>
        <time>2020-11-11T14:12:47Z</time>
      </trkpt>
      <trkpt lat="28.3689880" lon="-16.4859900">
        <ele>1170.9</ele>
        <time>2020-11-11T14:12:48Z</time>
      </trkpt>
      <trkpt lat="28.3690270" lon="-16.4860950">
        <ele>1170.9</ele>
        <time>2020-11-11T14:12:49Z</time>
      </trkpt>
      <trkpt lat="28.3689920" lon="-16.4861370">
        <ele>1170.9</ele>
        <time>2020-11-11T14:12:50Z</time>
      </trkpt>
      <trkpt lat="28.3689920" lon="-16.4861370">
        <ele>1170.9</ele>
        <time>2020-11-11T14:12:51Z</time>
      </trkpt>
      <trkpt lat="28.3689650" lon="-16.4862400">
        <ele>1170.9</ele>
        <time>2020-11-11T14:12:52Z</time>
      </trkpt>
      <trkpt lat="28.3689650" lon="-16.4862400">
        <ele>1170.9</ele>
        <time>2020-11-11T14:12:53Z</time>
      </trkpt>
      <trkpt lat="28.3689320" lon="-16.4862970">
        <ele>1170.9</ele>
        <time>2020-11-11T14:12:54Z</time>
      </trkpt>
      <trkpt lat="28.3689320" lon="-16.4862970">
        <ele>1170.9</ele>
        <time>2020-11-11T14:12:55Z</time>
      </trkpt>
      <trkpt lat="28.3688930" lon="-16.4863420">
        <ele>1170.9</ele>
        <time>2020-11-11T14:12:56Z</time>
      </trkpt>
      <trkpt lat="28.3688930" lon="-16.4863420">
        <ele>1170.9</ele>
        <time>2020-11-11T14:12:57Z</time>
      </trkpt>
      <trkpt lat="28.3688580" lon="-16.4863630">
        <ele>1170.9</ele>
        <time>2020-11-11T14:12:58Z</time>
      </trkpt>
      <trkpt lat="28.3688580" lon="-16.4863630">
        <ele>1170.9</ele>
        <time>2020-11-11T14:12:59Z</time>
      </trkpt>
      <trkpt lat="28.3688480" lon="-16.4863630">
        <ele>1170.9</ele>
        <time>2020-11-11T14:13:00Z</time>
      </trkpt>
      <trkpt lat="28.3688520" lon="-16.4863700">
        <ele>1170.9</ele>
        <time>2020-11-11T14:13:01Z</time>
      </trkpt>
      <trkpt lat="28.3688500" lon="-16.4863730">
        <ele>1170.9</ele>
        <time>2020-11-11T14:13:02Z</time>
      </trkpt>
      <trkpt lat="28.3688300" lon="-16.4864330">
        <ele>1170.9</ele>
        <time>2020-11-11T14:13:49Z</time>
      </trkpt>
      <trkpt lat="28.3688300" lon="-16.4864330">
        <ele>1170.9</ele>
        <time>2020-11-11T14:13:50Z</time>
      </trkpt>
      <trkpt lat="28.3688200" lon="-16.4864270">
        <ele>1170.9</ele>
        <time>2020-11-11T14:13:51Z</time>
      </trkpt>
      <trkpt lat="28.3688200" lon="-16.4864270">
        <ele>1170.9</ele>
        <time>2020-11-11T14:13:52Z</time>
      </trkpt>
      <trkpt lat="28.3688380" lon="-16.4864130">
        <ele>1170.9</ele>
        <time>2020-11-11T14:13:53Z</time>
      </trkpt>
      <trkpt lat="28.3688380" lon="-16.4864130">
        <ele>1170.9</ele>
        <time>2020-11-11T14:13:54Z</time>
      </trkpt>
      <trkpt lat="28.3688320" lon="-16.4863950">
        <ele>1170.9</ele>
        <time>2020-11-11T14:13:55Z</time>
      </trkpt>
      <trkpt lat="28.3688320" lon="-16.4863950">
        <ele>1170.9</ele>
        <time>2020-11-11T14:13:56Z</time>
      </trkpt>
      <trkpt lat="28.3688320" lon="-16.4863750">
        <ele>1170.9</ele>
        <time>2020-11-11T14:13:57Z</time>
      </trkpt>
      <trkpt lat="28.3688320" lon="-16.4863750">
        <ele>1170.9</ele>
        <time>2020-11-11T14:13:58Z</time>
      </trkpt>
      <trkpt lat="28.3688470" lon="-16.4863580">
        <ele>1170.9</ele>
        <time>2020-11-11T14:13:59Z</time>
      </trkpt>
      <trkpt lat="28.3688500" lon="-16.4863430">
        <ele>1170.9</ele>
        <time>2020-11-11T14:14:00Z</time>
      </trkpt>
      <trkpt lat="28.3688580" lon="-16.4863380">
        <ele>1170.9</ele>
        <time>2020-11-11T14:14:01Z</time>
      </trkpt>
      <trkpt lat="28.3688580" lon="-16.4863380">
        <ele>1170.9</ele>
        <time>2020-11-11T14:14:02Z</time>
      </trkpt>
      <trkpt lat="28.3688670" lon="-16.4863400">
        <ele>1170.9</ele>
        <time>2020-11-11T14:14:03Z</time>
      </trkpt>
      <trkpt lat="28.3688720" lon="-16.4863420">
        <ele>1170.9</ele>
        <time>2020-11-11T14:14:04Z</time>
      </trkpt>
      <trkpt lat="28.3688720" lon="-16.4863420">
        <ele>1170.9</ele>
        <time>2020-11-11T14:14:59Z</time>
      </trkpt>
      <trkpt lat="28.3688720" lon="-16.4863420">
        <ele>1170.9</ele>
        <time>2020-11-11T14:15:00Z</time>
      </trkpt>
      <trkpt lat="28.3687630" lon="-16.4863430">
        <ele>1170.9</ele>
        <time>2020-11-11T14:15:01Z</time>
      </trkpt>
      <trkpt lat="28.3687630" lon="-16.4863430">
        <ele>1170.9</ele>
        <time>2020-11-11T14:15:02Z</time>
      </trkpt>
      <trkpt lat="28.3687130" lon="-16.4863480">
        <ele>1170.9</ele>
        <time>2020-11-11T14:15:03Z</time>
      </trkpt>
      <trkpt lat="28.3687130" lon="-16.4863480">
        <ele>1170.9</ele>
        <time>2020-11-11T14:15:04Z</time>
      </trkpt>
      <trkpt lat="28.3686600" lon="-16.4863780">
        <ele>1170.9</ele>
        <time>2020-11-11T14:15:05Z</time>
      </trkpt>
      <trkpt lat="28.3686600" lon="-16.4863780">
        <ele>1170.9</ele>
        <time>2020-11-11T14:15:06Z</time>
      </trkpt>
      <trkpt lat="28.3685980" lon="-16.4863980">
        <ele>1170.9</ele>
        <time>2020-11-11T14:15:07Z</time>
      </trkpt>
      <trkpt lat="28.3685670" lon="-16.4864020">
        <ele>1170.9</ele>
        <time>2020-11-11T14:15:08Z</time>
      </trkpt>
      <trkpt lat="28.3685670" lon="-16.4864020">
        <ele>1170.9</ele>
        <time>2020-11-11T14:15:09Z</time>
      </trkpt>
      <trkpt lat="28.3684970" lon="-16.4864000">
        <ele>1170.9</ele>
        <time>2020-11-11T14:15:10Z</time>
      </trkpt>
      <trkpt lat="28.3684970" lon="-16.4864000">
        <ele>1170.9</ele>
        <time>2020-11-11T14:15:11Z</time>
      </trkpt>
      <trkpt lat="28.3684320" lon="-16.4864030">
        <ele>1169.9</ele>
        <time>2020-11-11T14:15:12Z</time>
      </trkpt>
      <trkpt lat="28.3684320" lon="-16.4864030">
        <ele>1169.9</ele>
        <time>2020-11-11T14:15:13Z</time>
      </trkpt>
      <trkpt lat="28.3683720" lon="-16.4864170">
        <ele>1169.9</ele>
        <time>2020-11-11T14:15:14Z</time>
      </trkpt>
      <trkpt lat="28.3683500" lon="-16.4864350">
        <ele>1169.9</ele>
        <time>2020-11-11T14:15:15Z</time>
      </trkpt>
      <trkpt lat="28.3683500" lon="-16.4864350">
        <ele>1168.9</ele>
        <time>2020-11-11T14:15:16Z</time>
      </trkpt>
      <trkpt lat="28.3683370" lon="-16.4865250">
        <ele>1168.9</ele>
        <time>2020-11-11T14:15:17Z</time>
      </trkpt>
      <trkpt lat="28.3683370" lon="-16.4865250">
        <ele>1168.9</ele>
        <time>2020-11-11T14:15:18Z</time>
      </trkpt>
      <trkpt lat="28.3683170" lon="-16.4865980">
        <ele>1168.9</ele>
        <time>2020-11-11T14:15:19Z</time>
      </trkpt>
      <trkpt lat="28.3683170" lon="-16.4865980">
        <ele>1168.9</ele>
        <time>2020-11-11T14:15:20Z</time>
      </trkpt>
      <trkpt lat="28.3682900" lon="-16.4866700">
        <ele>1168.9</ele>
        <time>2020-11-11T14:15:21Z</time>
      </trkpt>
      <trkpt lat="28.3682900" lon="-16.4866700">
        <ele>1168.9</ele>
        <time>2020-11-11T14:15:22Z</time>
      </trkpt>
      <trkpt lat="28.3682180" lon="-16.4867280">
        <ele>1168.9</ele>
        <time>2020-11-11T14:15:23Z</time>
      </trkpt>
      <trkpt lat="28.3682180" lon="-16.4867280">
        <ele>1167.9</ele>
        <time>2020-11-11T14:15:24Z</time>
      </trkpt>
      <trkpt lat="28.3681450" lon="-16.4867630">
        <ele>1167.9</ele>
        <time>2020-11-11T14:15:25Z</time>
      </trkpt>
      <trkpt lat="28.3681450" lon="-16.4867630">
        <ele>1167.9</ele>
        <time>2020-11-11T14:15:26Z</time>
      </trkpt>
      <trkpt lat="28.3680650" lon="-16.4868430">
        <ele>1167.9</ele>
        <time>2020-11-11T14:15:27Z</time>
      </trkpt>
      <trkpt lat="28.3680650" lon="-16.4868430">
        <ele>1167.9</ele>
        <time>2020-11-11T14:15:28Z</time>
      </trkpt>
      <trkpt lat="28.3680220" lon="-16.4869500">
        <ele>1166.9</ele>
        <time>2020-11-11T14:15:29Z</time>
      </trkpt>
      <trkpt lat="28.3680220" lon="-16.4869500">
        <ele>1166.9</ele>
        <time>2020-11-11T14:15:30Z</time>
      </trkpt>
      <trkpt lat="28.3680030" lon="-16.4870520">
        <ele>1166.9</ele>
        <time>2020-11-11T14:15:31Z</time>
      </trkpt>
      <trkpt lat="28.3680030" lon="-16.4870520">
        <ele>1166.9</ele>
        <time>2020-11-11T14:15:32Z</time>
      </trkpt>
      <trkpt lat="28.3679600" lon="-16.4871600">
        <ele>1166.9</ele>
        <time>2020-11-11T14:15:33Z</time>
      </trkpt>
      <trkpt lat="28.3679600" lon="-16.4871600">
        <ele>1166.9</ele>
        <time>2020-11-11T14:15:34Z</time>
      </trkpt>
      <trkpt lat="28.3678550" lon="-16.4872150">
        <ele>1166.9</ele>
        <time>2020-11-11T14:15:35Z</time>
      </trkpt>
      <trkpt lat="28.3678550" lon="-16.4872150">
        <ele>1166.9</ele>
        <time>2020-11-11T14:15:36Z</time>
      </trkpt>
      <trkpt lat="28.3677700" lon="-16.4872650">
        <ele>1166.9</ele>
        <time>2020-11-11T14:15:37Z</time>
      </trkpt>
      <trkpt lat="28.3677700" lon="-16.4872650">
        <ele>1166.9</ele>
        <time>2020-11-11T14:15:38Z</time>
      </trkpt>
      <trkpt lat="28.3677000" lon="-16.4873050">
        <ele>1166.9</ele>
        <time>2020-11-11T14:15:39Z</time>
      </trkpt>
      <trkpt lat="28.3676620" lon="-16.4873180">
        <ele>1166.9</ele>
        <time>2020-11-11T14:15:40Z</time>
      </trkpt>
      <trkpt lat="28.3676620" lon="-16.4873180">
        <ele>1165.9</ele>
        <time>2020-11-11T14:15:41Z</time>
      </trkpt>
      <trkpt lat="28.3675820" lon="-16.4873530">
        <ele>1165.9</ele>
        <time>2020-11-11T14:15:42Z</time>
      </trkpt>
      <trkpt lat="28.3675820" lon="-16.4873530">
        <ele>1165.9</ele>
        <time>2020-11-11T14:15:43Z</time>
      </trkpt>
      <trkpt lat="28.3675070" lon="-16.4873700">
        <ele>1165.9</ele>
        <time>2020-11-11T14:15:44Z</time>
      </trkpt>
      <trkpt lat="28.3674620" lon="-16.4873850">
        <ele>1165.9</ele>
        <time>2020-11-11T14:15:45Z</time>
      </trkpt>
      <trkpt lat="28.3674620" lon="-16.4873850">
        <ele>1165.9</ele>
        <time>2020-11-11T14:15:46Z</time>
      </trkpt>
      <trkpt lat="28.3673670" lon="-16.4873780">
        <ele>1165.9</ele>
        <time>2020-11-11T14:15:47Z</time>
      </trkpt>
      <trkpt lat="28.3673670" lon="-16.4873780">
        <ele>1165.9</ele>
        <time>2020-11-11T14:15:48Z</time>
      </trkpt>
      <trkpt lat="28.3672850" lon="-16.4873830">
        <ele>1165.9</ele>
        <time>2020-11-11T14:15:49Z</time>
      </trkpt>
      <trkpt lat="28.3672850" lon="-16.4873830">
        <ele>1165.9</ele>
        <time>2020-11-11T14:15:50Z</time>
      </trkpt>
      <trkpt lat="28.3671970" lon="-16.4873620">
        <ele>1165.9</ele>
        <time>2020-11-11T14:15:51Z</time>
      </trkpt>
      <trkpt lat="28.3671970" lon="-16.4873620">
        <ele>1165.9</ele>
        <time>2020-11-11T14:15:52Z</time>
      </trkpt>
      <trkpt lat="28.3671200" lon="-16.4873120">
        <ele>1165.9</ele>
        <time>2020-11-11T14:15:53Z</time>
      </trkpt>
      <trkpt lat="28.3671200" lon="-16.4873120">
        <ele>1165.9</ele>
        <time>2020-11-11T14:15:54Z</time>
      </trkpt>
      <trkpt lat="28.3670450" lon="-16.4872820">
        <ele>1165.9</ele>
        <time>2020-11-11T14:15:55Z</time>
      </trkpt>
      <trkpt lat="28.3670450" lon="-16.4872820">
        <ele>1165.9</ele>
        <time>2020-11-11T14:15:56Z</time>
      </trkpt>
      <trkpt lat="28.3669930" lon="-16.4872920">
        <ele>1165.9</ele>
        <time>2020-11-11T14:15:57Z</time>
      </trkpt>
      <trkpt lat="28.3669930" lon="-16.4872920">
        <ele>1165.9</ele>
        <time>2020-11-11T14:15:58Z</time>
      </trkpt>
      <trkpt lat="28.3669620" lon="-16.4873450">
        <ele>1165.9</ele>
        <time>2020-11-11T14:15:59Z</time>
      </trkpt>
      <trkpt lat="28.3669620" lon="-16.4873450">
        <ele>1165.9</ele>
        <time>2020-11-11T14:16:00Z</time>
      </trkpt>
      <trkpt lat="28.3669680" lon="-16.4874220">
        <ele>1165.9</ele>
        <time>2020-11-11T14:16:01Z</time>
      </trkpt>
      <trkpt lat="28.3669680" lon="-16.4874220">
        <ele>1164.9</ele>
        <time>2020-11-11T14:16:02Z</time>
      </trkpt>
      <trkpt lat="28.3670050" lon="-16.4875350">
        <ele>1164.9</ele>
        <time>2020-11-11T14:16:03Z</time>
      </trkpt>
      <trkpt lat="28.3670050" lon="-16.4875350">
        <ele>1164.9</ele>
        <time>2020-11-11T14:16:04Z</time>
      </trkpt>
      <trkpt lat="28.3670250" lon="-16.4876450">
        <ele>1164.9</ele>
        <time>2020-11-11T14:16:05Z</time>
      </trkpt>
      <trkpt lat="28.3670250" lon="-16.4876450">
        <ele>1163.9</ele>
        <time>2020-11-11T14:16:06Z</time>
      </trkpt>
      <trkpt lat="28.3670350" lon="-16.4877650">
        <ele>1163.9</ele>
        <time>2020-11-11T14:16:07Z</time>
      </trkpt>
      <trkpt lat="28.3670350" lon="-16.4877650">
        <ele>1163.9</ele>
        <time>2020-11-11T14:16:08Z</time>
      </trkpt>
      <trkpt lat="28.3669820" lon="-16.4878550">
        <ele>1163.9</ele>
        <time>2020-11-11T14:16:09Z</time>
      </trkpt>
      <trkpt lat="28.3669820" lon="-16.4878550">
        <ele>1162.9</ele>
        <time>2020-11-11T14:16:10Z</time>
      </trkpt>
      <trkpt lat="28.3669300" lon="-16.4879380">
        <ele>1162.9</ele>
        <time>2020-11-11T14:16:11Z</time>
      </trkpt>
      <trkpt lat="28.3669000" lon="-16.4879680">
        <ele>1162.9</ele>
        <time>2020-11-11T14:16:12Z</time>
      </trkpt>
      <trkpt lat="28.3669000" lon="-16.4879680">
        <ele>1162.9</ele>
        <time>2020-11-11T14:16:13Z</time>
      </trkpt>
      <trkpt lat="28.3668380" lon="-16.4880530">
        <ele>1162.9</ele>
        <time>2020-11-11T14:16:14Z</time>
      </trkpt>
      <trkpt lat="28.3668100" lon="-16.4881020">
        <ele>1162.9</ele>
        <time>2020-11-11T14:16:15Z</time>
      </trkpt>
      <trkpt lat="28.3668100" lon="-16.4881020">
        <ele>1161.9</ele>
        <time>2020-11-11T14:16:16Z</time>
      </trkpt>
      <trkpt lat="28.3667220" lon="-16.4881780">
        <ele>1161.9</ele>
        <time>2020-11-11T14:16:17Z</time>
      </trkpt>
      <trkpt lat="28.3667220" lon="-16.4881780">
        <ele>1161.9</ele>
        <time>2020-11-11T14:16:18Z</time>
      </trkpt>
      <trkpt lat="28.3666550" lon="-16.4882630">
        <ele>1161.9</ele>
        <time>2020-11-11T14:16:19Z</time>
      </trkpt>
      <trkpt lat="28.3666550" lon="-16.4882630">
        <ele>1161.9</ele>
        <time>2020-11-11T14:16:20Z</time>
      </trkpt>
      <trkpt lat="28.3665570" lon="-16.4883530">
        <ele>1161.9</ele>
        <time>2020-11-11T14:16:21Z</time>
      </trkpt>
      <trkpt lat="28.3665570" lon="-16.4883530">
        <ele>1160.9</ele>
        <time>2020-11-11T14:16:22Z</time>
      </trkpt>
      <trkpt lat="28.3664370" lon="-16.4884270">
        <ele>1160.9</ele>
        <time>2020-11-11T14:16:23Z</time>
      </trkpt>
      <trkpt lat="28.3664370" lon="-16.4884270">
        <ele>1160.9</ele>
        <time>2020-11-11T14:16:24Z</time>
      </trkpt>
      <trkpt lat="28.3663270" lon="-16.4884630">
        <ele>1160.9</ele>
        <time>2020-11-11T14:16:25Z</time>
      </trkpt>
      <trkpt lat="28.3663270" lon="-16.4884630">
        <ele>1159.9</ele>
        <time>2020-11-11T14:16:26Z</time>
      </trkpt>
      <trkpt lat="28.3662270" lon="-16.4884930">
        <ele>1159.9</ele>
        <time>2020-11-11T14:16:27Z</time>
      </trkpt>
      <trkpt lat="28.3661800" lon="-16.4885030">
        <ele>1159.9</ele>
        <time>2020-11-11T14:16:28Z</time>
      </trkpt>
      <trkpt lat="28.3661800" lon="-16.4885030">
        <ele>1159.9</ele>
        <time>2020-11-11T14:16:29Z</time>
      </trkpt>
      <trkpt lat="28.3660720" lon="-16.4885270">
        <ele>1158.9</ele>
        <time>2020-11-11T14:16:30Z</time>
      </trkpt>
      <trkpt lat="28.3660720" lon="-16.4885270">
        <ele>1157.9</ele>
        <time>2020-11-11T14:16:31Z</time>
      </trkpt>
      <trkpt lat="28.3659650" lon="-16.4885580">
        <ele>1157.9</ele>
        <time>2020-11-11T14:16:32Z</time>
      </trkpt>
      <trkpt lat="28.3659650" lon="-16.4885580">
        <ele>1157.9</ele>
        <time>2020-11-11T14:16:33Z</time>
      </trkpt>
      <trkpt lat="28.3658780" lon="-16.4886300">
        <ele>1157.9</ele>
        <time>2020-11-11T14:16:34Z</time>
      </trkpt>
      <trkpt lat="28.3658780" lon="-16.4886300">
        <ele>1156.9</ele>
        <time>2020-11-11T14:16:35Z</time>
      </trkpt>
      <trkpt lat="28.3657830" lon="-16.4887720">
        <ele>1156.9</ele>
        <time>2020-11-11T14:16:36Z</time>
      </trkpt>
      <trkpt lat="28.3657320" lon="-16.4888000">
        <ele>1156.9</ele>
        <time>2020-11-11T14:16:37Z</time>
      </trkpt>
      <trkpt lat="28.3657320" lon="-16.4888000">
        <ele>1156.9</ele>
        <time>2020-11-11T14:16:38Z</time>
      </trkpt>
      <trkpt lat="28.3656100" lon="-16.4888300">
        <ele>1155.9</ele>
        <time>2020-11-11T14:16:39Z</time>
      </trkpt>
      <trkpt lat="28.3656100" lon="-16.4888300">
        <ele>1155.9</ele>
        <time>2020-11-11T14:16:40Z</time>
      </trkpt>
      <trkpt lat="28.3654870" lon="-16.4888530">
        <ele>1155.9</ele>
        <time>2020-11-11T14:16:41Z</time>
      </trkpt>
      <trkpt lat="28.3654870" lon="-16.4888530">
        <ele>1155.9</ele>
        <time>2020-11-11T14:16:42Z</time>
      </trkpt>
      <trkpt lat="28.3653880" lon="-16.4888580">
        <ele>1154.9</ele>
        <time>2020-11-11T14:16:43Z</time>
      </trkpt>
      <trkpt lat="28.3653880" lon="-16.4888580">
        <ele>1154.9</ele>
        <time>2020-11-11T14:16:44Z</time>
      </trkpt>
      <trkpt lat="28.3653080" lon="-16.4888180">
        <ele>1154.9</ele>
        <time>2020-11-11T14:16:45Z</time>
      </trkpt>
      <trkpt lat="28.3653080" lon="-16.4888180">
        <ele>1154.9</ele>
        <time>2020-11-11T14:16:46Z</time>
      </trkpt>
      <trkpt lat="28.3652770" lon="-16.4887500">
        <ele>1154.9</ele>
        <time>2020-11-11T14:16:47Z</time>
      </trkpt>
      <trkpt lat="28.3652770" lon="-16.4887500">
        <ele>1153.9</ele>
        <time>2020-11-11T14:16:48Z</time>
      </trkpt>
      <trkpt lat="28.3652570" lon="-16.4886680">
        <ele>1153.9</ele>
        <time>2020-11-11T14:16:49Z</time>
      </trkpt>
      <trkpt lat="28.3652570" lon="-16.4886680">
        <ele>1153.9</ele>
        <time>2020-11-11T14:16:50Z</time>
      </trkpt>
      <trkpt lat="28.3652150" lon="-16.4886180">
        <ele>1153.9</ele>
        <time>2020-11-11T14:16:51Z</time>
      </trkpt>
      <trkpt lat="28.3652150" lon="-16.4886180">
        <ele>1153.9</ele>
        <time>2020-11-11T14:16:52Z</time>
      </trkpt>
      <trkpt lat="28.3651270" lon="-16.4886020">
        <ele>1153.9</ele>
        <time>2020-11-11T14:16:53Z</time>
      </trkpt>
      <trkpt lat="28.3651270" lon="-16.4886020">
        <ele>1153.9</ele>
        <time>2020-11-11T14:16:54Z</time>
      </trkpt>
      <trkpt lat="28.3650350" lon="-16.4886250">
        <ele>1153.9</ele>
        <time>2020-11-11T14:16:55Z</time>
      </trkpt>
      <trkpt lat="28.3650350" lon="-16.4886250">
        <ele>1153.9</ele>
        <time>2020-11-11T14:16:56Z</time>
      </trkpt>
      <trkpt lat="28.3649430" lon="-16.4886400">
        <ele>1152.9</ele>
        <time>2020-11-11T14:16:57Z</time>
      </trkpt>
      <trkpt lat="28.3649430" lon="-16.4886400">
        <ele>1152.9</ele>
        <time>2020-11-11T14:16:58Z</time>
      </trkpt>
      <trkpt lat="28.3648380" lon="-16.4886520">
        <ele>1152.9</ele>
        <time>2020-11-11T14:16:59Z</time>
      </trkpt>
      <trkpt lat="28.3648380" lon="-16.4886520">
        <ele>1152.9</ele>
        <time>2020-11-11T14:17:00Z</time>
      </trkpt>
      <trkpt lat="28.3647330" lon="-16.4886480">
        <ele>1152.9</ele>
        <time>2020-11-11T14:17:01Z</time>
      </trkpt>
      <trkpt lat="28.3647330" lon="-16.4886480">
        <ele>1152.9</ele>
        <time>2020-11-11T14:17:02Z</time>
      </trkpt>
      <trkpt lat="28.3646400" lon="-16.4886750">
        <ele>1151.9</ele>
        <time>2020-11-11T14:17:03Z</time>
      </trkpt>
      <trkpt lat="28.3646400" lon="-16.4886750">
        <ele>1151.9</ele>
        <time>2020-11-11T14:17:04Z</time>
      </trkpt>
      <trkpt lat="28.3645570" lon="-16.4887270">
        <ele>1151.9</ele>
        <time>2020-11-11T14:17:05Z</time>
      </trkpt>
      <trkpt lat="28.3645570" lon="-16.4887270">
        <ele>1151.9</ele>
        <time>2020-11-11T14:17:06Z</time>
      </trkpt>
      <trkpt lat="28.3644720" lon="-16.4887700">
        <ele>1151.9</ele>
        <time>2020-11-11T14:17:07Z</time>
      </trkpt>
      <trkpt lat="28.3644720" lon="-16.4887700">
        <ele>1151.9</ele>
        <time>2020-11-11T14:17:08Z</time>
      </trkpt>
      <trkpt lat="28.3643720" lon="-16.4887630">
        <ele>1151.9</ele>
        <time>2020-11-11T14:17:09Z</time>
      </trkpt>
      <trkpt lat="28.3643720" lon="-16.4887630">
        <ele>1150.9</ele>
        <time>2020-11-11T14:17:10Z</time>
      </trkpt>
      <trkpt lat="28.3643130" lon="-16.4887170">
        <ele>1150.9</ele>
        <time>2020-11-11T14:17:11Z</time>
      </trkpt>
      <trkpt lat="28.3643130" lon="-16.4887170">
        <ele>1150.9</ele>
        <time>2020-11-11T14:17:12Z</time>
      </trkpt>
      <trkpt lat="28.3642620" lon="-16.4886750">
        <ele>1150.9</ele>
        <time>2020-11-11T14:17:13Z</time>
      </trkpt>
      <trkpt lat="28.3642620" lon="-16.4886750">
        <ele>1149.9</ele>
        <time>2020-11-11T14:17:14Z</time>
      </trkpt>
      <trkpt lat="28.3641930" lon="-16.4886670">
        <ele>1149.9</ele>
        <time>2020-11-11T14:17:15Z</time>
      </trkpt>
      <trkpt lat="28.3641550" lon="-16.4886800">
        <ele>1149.9</ele>
        <time>2020-11-11T14:17:16Z</time>
      </trkpt>
      <trkpt lat="28.3641550" lon="-16.4886800">
        <ele>1149.9</ele>
        <time>2020-11-11T14:17:17Z</time>
      </trkpt>
      <trkpt lat="28.3640870" lon="-16.4887320">
        <ele>1149.9</ele>
        <time>2020-11-11T14:17:18Z</time>
      </trkpt>
      <trkpt lat="28.3640870" lon="-16.4887320">
        <ele>1149.9</ele>
        <time>2020-11-11T14:17:19Z</time>
      </trkpt>
      <trkpt lat="28.3640180" lon="-16.4887950">
        <ele>1148.9</ele>
        <time>2020-11-11T14:17:20Z</time>
      </trkpt>
      <trkpt lat="28.3640180" lon="-16.4887950">
        <ele>1148.9</ele>
        <time>2020-11-11T14:17:21Z</time>
      </trkpt>
      <trkpt lat="28.3639480" lon="-16.4888900">
        <ele>1148.9</ele>
        <time>2020-11-11T14:17:22Z</time>
      </trkpt>
      <trkpt lat="28.3639150" lon="-16.4889200">
        <ele>1148.9</ele>
        <time>2020-11-11T14:17:23Z</time>
      </trkpt>
      <trkpt lat="28.3639150" lon="-16.4889200">
        <ele>1148.9</ele>
        <time>2020-11-11T14:17:24Z</time>
      </trkpt>
      <trkpt lat="28.3638280" lon="-16.4889570">
        <ele>1148.9</ele>
        <time>2020-11-11T14:17:25Z</time>
      </trkpt>
      <trkpt lat="28.3638280" lon="-16.4889570">
        <ele>1148.9</ele>
        <time>2020-11-11T14:17:26Z</time>
      </trkpt>
      <trkpt lat="28.3637200" lon="-16.4889720">
        <ele>1148.9</ele>
        <time>2020-11-11T14:17:27Z</time>
      </trkpt>
      <trkpt lat="28.3637200" lon="-16.4889720">
        <ele>1147.9</ele>
        <time>2020-11-11T14:17:28Z</time>
      </trkpt>
      <trkpt lat="28.3636200" lon="-16.4889780">
        <ele>1147.9</ele>
        <time>2020-11-11T14:17:29Z</time>
      </trkpt>
      <trkpt lat="28.3636200" lon="-16.4889780">
        <ele>1147.9</ele>
        <time>2020-11-11T14:17:30Z</time>
      </trkpt>
      <trkpt lat="28.3635020" lon="-16.4889730">
        <ele>1147.9</ele>
        <time>2020-11-11T14:17:31Z</time>
      </trkpt>
      <trkpt lat="28.3635020" lon="-16.4889730">
        <ele>1146.9</ele>
        <time>2020-11-11T14:17:32Z</time>
      </trkpt>
      <trkpt lat="28.3633900" lon="-16.4889470">
        <ele>1146.9</ele>
        <time>2020-11-11T14:17:33Z</time>
      </trkpt>
      <trkpt lat="28.3633900" lon="-16.4889470">
        <ele>1146.9</ele>
        <time>2020-11-11T14:17:34Z</time>
      </trkpt>
      <trkpt lat="28.3632930" lon="-16.4889230">
        <ele>1146.9</ele>
        <time>2020-11-11T14:17:35Z</time>
      </trkpt>
      <trkpt lat="28.3632930" lon="-16.4889230">
        <ele>1145.9</ele>
        <time>2020-11-11T14:17:36Z</time>
      </trkpt>
      <trkpt lat="28.3632030" lon="-16.4888980">
        <ele>1145.9</ele>
        <time>2020-11-11T14:17:37Z</time>
      </trkpt>
      <trkpt lat="28.3632030" lon="-16.4888980">
        <ele>1144.9</ele>
        <time>2020-11-11T14:17:38Z</time>
      </trkpt>
      <trkpt lat="28.3631380" lon="-16.4888520">
        <ele>1144.9</ele>
        <time>2020-11-11T14:17:39Z</time>
      </trkpt>
      <trkpt lat="28.3631380" lon="-16.4888520">
        <ele>1144.9</ele>
        <time>2020-11-11T14:17:40Z</time>
      </trkpt>
      <trkpt lat="28.3630930" lon="-16.4888170">
        <ele>1144.9</ele>
        <time>2020-11-11T14:17:41Z</time>
      </trkpt>
      <trkpt lat="28.3630930" lon="-16.4888170">
        <ele>1143.9</ele>
        <time>2020-11-11T14:17:42Z</time>
      </trkpt>
      <trkpt lat="28.3630400" lon="-16.4888150">
        <ele>1143.9</ele>
        <time>2020-11-11T14:17:43Z</time>
      </trkpt>
      <trkpt lat="28.3630400" lon="-16.4888150">
        <ele>1143.9</ele>
        <time>2020-11-11T14:17:44Z</time>
      </trkpt>
      <trkpt lat="28.3629830" lon="-16.4888320">
        <ele>1143.9</ele>
        <time>2020-11-11T14:17:45Z</time>
      </trkpt>
      <trkpt lat="28.3629830" lon="-16.4888320">
        <ele>1142.9</ele>
        <time>2020-11-11T14:17:46Z</time>
      </trkpt>
      <trkpt lat="28.3629330" lon="-16.4888480">
        <ele>1142.9</ele>
        <time>2020-11-11T14:17:47Z</time>
      </trkpt>
      <trkpt lat="28.3629330" lon="-16.4888480">
        <ele>1142.9</ele>
        <time>2020-11-11T14:17:48Z</time>
      </trkpt>
      <trkpt lat="28.3628780" lon="-16.4888850">
        <ele>1142.9</ele>
        <time>2020-11-11T14:17:49Z</time>
      </trkpt>
      <trkpt lat="28.3628780" lon="-16.4888850">
        <ele>1141.9</ele>
        <time>2020-11-11T14:17:50Z</time>
      </trkpt>
      <trkpt lat="28.3628180" lon="-16.4889170">
        <ele>1141.9</ele>
        <time>2020-11-11T14:17:51Z</time>
      </trkpt>
      <trkpt lat="28.3628180" lon="-16.4889170">
        <ele>1140.9</ele>
        <time>2020-11-11T14:17:52Z</time>
      </trkpt>
      <trkpt lat="28.3627270" lon="-16.4889600">
        <ele>1140.9</ele>
        <time>2020-11-11T14:17:53Z</time>
      </trkpt>
      <trkpt lat="28.3627270" lon="-16.4889600">
        <ele>1140.9</ele>
        <time>2020-11-11T14:17:54Z</time>
      </trkpt>
      <trkpt lat="28.3626580" lon="-16.4890300">
        <ele>1139.9</ele>
        <time>2020-11-11T14:17:55Z</time>
      </trkpt>
      <trkpt lat="28.3626580" lon="-16.4890300">
        <ele>1139.9</ele>
        <time>2020-11-11T14:17:56Z</time>
      </trkpt>
      <trkpt lat="28.3626150" lon="-16.4890930">
        <ele>1138.9</ele>
        <time>2020-11-11T14:17:57Z</time>
      </trkpt>
      <trkpt lat="28.3626150" lon="-16.4890930">
        <ele>1138.9</ele>
        <time>2020-11-11T14:17:58Z</time>
      </trkpt>
      <trkpt lat="28.3625800" lon="-16.4891630">
        <ele>1137.9</ele>
        <time>2020-11-11T14:17:59Z</time>
      </trkpt>
      <trkpt lat="28.3625450" lon="-16.4891900">
        <ele>1137.9</ele>
        <time>2020-11-11T14:18:00Z</time>
      </trkpt>
      <trkpt lat="28.3625150" lon="-16.4892220">
        <ele>1136.9</ele>
        <time>2020-11-11T14:18:01Z</time>
      </trkpt>
      <trkpt lat="28.3625150" lon="-16.4892220">
        <ele>1136.9</ele>
        <time>2020-11-11T14:18:02Z</time>
      </trkpt>
      <trkpt lat="28.3624250" lon="-16.4893020">
        <ele>1134.9</ele>
        <time>2020-11-11T14:18:03Z</time>
      </trkpt>
      <trkpt lat="28.3624250" lon="-16.4893020">
        <ele>1134.9</ele>
        <time>2020-11-11T14:18:04Z</time>
      </trkpt>
      <trkpt lat="28.3623600" lon="-16.4893820">
        <ele>1134.9</ele>
        <time>2020-11-11T14:18:05Z</time>
      </trkpt>
      <trkpt lat="28.3623600" lon="-16.4893820">
        <ele>1134.9</ele>
        <time>2020-11-11T14:18:06Z</time>
      </trkpt>
      <trkpt lat="28.3623000" lon="-16.4894530">
        <ele>1134.9</ele>
        <time>2020-11-11T14:18:07Z</time>
      </trkpt>
      <trkpt lat="28.3623000" lon="-16.4894530">
        <ele>1134.9</ele>
        <time>2020-11-11T14:18:08Z</time>
      </trkpt>
      <trkpt lat="28.3622320" lon="-16.4894850">
        <ele>1132.9</ele>
        <time>2020-11-11T14:18:09Z</time>
      </trkpt>
      <trkpt lat="28.3622320" lon="-16.4894850">
        <ele>1132.9</ele>
        <time>2020-11-11T14:18:10Z</time>
      </trkpt>
      <trkpt lat="28.3621680" lon="-16.4895050">
        <ele>1132.9</ele>
        <time>2020-11-11T14:18:11Z</time>
      </trkpt>
      <trkpt lat="28.3621680" lon="-16.4895050">
        <ele>1132.9</ele>
        <time>2020-11-11T14:18:12Z</time>
      </trkpt>
      <trkpt lat="28.3621070" lon="-16.4895250">
        <ele>1131.9</ele>
        <time>2020-11-11T14:18:13Z</time>
      </trkpt>
      <trkpt lat="28.3621070" lon="-16.4895250">
        <ele>1131.9</ele>
        <time>2020-11-11T14:18:14Z</time>
      </trkpt>
      <trkpt lat="28.3620520" lon="-16.4895280">
        <ele>1131.9</ele>
        <time>2020-11-11T14:18:15Z</time>
      </trkpt>
      <trkpt lat="28.3620520" lon="-16.4895280">
        <ele>1131.9</ele>
        <time>2020-11-11T14:18:16Z</time>
      </trkpt>
      <trkpt lat="28.3620100" lon="-16.4894930">
        <ele>1130.9</ele>
        <time>2020-11-11T14:18:17Z</time>
      </trkpt>
      <trkpt lat="28.3620100" lon="-16.4894930">
        <ele>1130.9</ele>
        <time>2020-11-11T14:18:18Z</time>
      </trkpt>
      <trkpt lat="28.3619750" lon="-16.4894550">
        <ele>1130.9</ele>
        <time>2020-11-11T14:18:19Z</time>
      </trkpt>
      <trkpt lat="28.3619520" lon="-16.4894230">
        <ele>1130.9</ele>
        <time>2020-11-11T14:18:20Z</time>
      </trkpt>
      <trkpt lat="28.3619520" lon="-16.4894230">
        <ele>1130.9</ele>
        <time>2020-11-11T14:18:21Z</time>
      </trkpt>
      <trkpt lat="28.3619150" lon="-16.4893800">
        <ele>1130.9</ele>
        <time>2020-11-11T14:18:22Z</time>
      </trkpt>
      <trkpt lat="28.3619150" lon="-16.4893800">
        <ele>1129.9</ele>
        <time>2020-11-11T14:18:23Z</time>
      </trkpt>
      <trkpt lat="28.3618800" lon="-16.4893330">
        <ele>1129.9</ele>
        <time>2020-11-11T14:18:24Z</time>
      </trkpt>
      <trkpt lat="28.3618800" lon="-16.4893330">
        <ele>1129.9</ele>
        <time>2020-11-11T14:18:25Z</time>
      </trkpt>
      <trkpt lat="28.3618670" lon="-16.4893230">
        <ele>1129.9</ele>
        <time>2020-11-11T14:18:26Z</time>
      </trkpt>
      <trkpt lat="28.3618670" lon="-16.4893230">
        <ele>1128.9</ele>
        <time>2020-11-11T14:18:27Z</time>
      </trkpt>
      <trkpt lat="28.3618180" lon="-16.4892370">
        <ele>1128.9</ele>
        <time>2020-11-11T14:18:28Z</time>
      </trkpt>
      <trkpt lat="28.3618180" lon="-16.4892370">
        <ele>1128.9</ele>
        <time>2020-11-11T14:18:29Z</time>
      </trkpt>
      <trkpt lat="28.3617970" lon="-16.4891930">
        <ele>1128.9</ele>
        <time>2020-11-11T14:18:30Z</time>
      </trkpt>
      <trkpt lat="28.3617970" lon="-16.4891930">
        <ele>1127.9</ele>
        <time>2020-11-11T14:18:31Z</time>
      </trkpt>
      <trkpt lat="28.3617750" lon="-16.4891450">
        <ele>1127.9</ele>
        <time>2020-11-11T14:18:32Z</time>
      </trkpt>
      <trkpt lat="28.3617530" lon="-16.4891200">
        <ele>1127.9</ele>
        <time>2020-11-11T14:18:33Z</time>
      </trkpt>
      <trkpt lat="28.3617530" lon="-16.4891200">
        <ele>1126.9</ele>
        <time>2020-11-11T14:18:34Z</time>
      </trkpt>
      <trkpt lat="28.3617120" lon="-16.4890730">
        <ele>1126.9</ele>
        <time>2020-11-11T14:18:35Z</time>
      </trkpt>
      <trkpt lat="28.3617120" lon="-16.4890730">
        <ele>1126.9</ele>
        <time>2020-11-11T14:18:36Z</time>
      </trkpt>
      <trkpt lat="28.3616900" lon="-16.4890050">
        <ele>1126.9</ele>
        <time>2020-11-11T14:18:37Z</time>
      </trkpt>
      <trkpt lat="28.3616900" lon="-16.4890050">
        <ele>1125.9</ele>
        <time>2020-11-11T14:18:38Z</time>
      </trkpt>
      <trkpt lat="28.3616830" lon="-16.4889330">
        <ele>1125.9</ele>
        <time>2020-11-11T14:18:39Z</time>
      </trkpt>
      <trkpt lat="28.3616830" lon="-16.4889330">
        <ele>1125.9</ele>
        <time>2020-11-11T14:18:40Z</time>
      </trkpt>
      <trkpt lat="28.3617020" lon="-16.4888520">
        <ele>1125.9</ele>
        <time>2020-11-11T14:18:41Z</time>
      </trkpt>
      <trkpt lat="28.3617020" lon="-16.4888520">
        <ele>1125.9</ele>
        <time>2020-11-11T14:18:42Z</time>
      </trkpt>
      <trkpt lat="28.3617370" lon="-16.4887780">
        <ele>1125.9</ele>
        <time>2020-11-11T14:18:43Z</time>
      </trkpt>
      <trkpt lat="28.3617370" lon="-16.4887780">
        <ele>1125.9</ele>
        <time>2020-11-11T14:18:44Z</time>
      </trkpt>
      <trkpt lat="28.3617620" lon="-16.4886970">
        <ele>1125.9</ele>
        <time>2020-11-11T14:18:45Z</time>
      </trkpt>
      <trkpt lat="28.3617620" lon="-16.4886970">
        <ele>1125.9</ele>
        <time>2020-11-11T14:18:46Z</time>
      </trkpt>
      <trkpt lat="28.3617850" lon="-16.4886130">
        <ele>1125.9</ele>
        <time>2020-11-11T14:18:47Z</time>
      </trkpt>
      <trkpt lat="28.3617850" lon="-16.4886130">
        <ele>1124.9</ele>
        <time>2020-11-11T14:18:48Z</time>
      </trkpt>
      <trkpt lat="28.3617900" lon="-16.4885320">
        <ele>1124.9</ele>
        <time>2020-11-11T14:18:49Z</time>
      </trkpt>
      <trkpt lat="28.3617900" lon="-16.4885320">
        <ele>1124.9</ele>
        <time>2020-11-11T14:18:50Z</time>
      </trkpt>
      <trkpt lat="28.3617870" lon="-16.4884580">
        <ele>1124.9</ele>
        <time>2020-11-11T14:18:51Z</time>
      </trkpt>
      <trkpt lat="28.3617880" lon="-16.4884330">
        <ele>1124.9</ele>
        <time>2020-11-11T14:18:52Z</time>
      </trkpt>
      <trkpt lat="28.3617880" lon="-16.4884330">
        <ele>1123.9</ele>
        <time>2020-11-11T14:18:53Z</time>
      </trkpt>
      <trkpt lat="28.3617720" lon="-16.4883570">
        <ele>1123.9</ele>
        <time>2020-11-11T14:18:54Z</time>
      </trkpt>
      <trkpt lat="28.3617720" lon="-16.4883570">
        <ele>1122.9</ele>
        <time>2020-11-11T14:18:55Z</time>
      </trkpt>
      <trkpt lat="28.3617450" lon="-16.4882820">
        <ele>1122.9</ele>
        <time>2020-11-11T14:18:56Z</time>
      </trkpt>
      <trkpt lat="28.3617450" lon="-16.4882820">
        <ele>1122.9</ele>
        <time>2020-11-11T14:18:57Z</time>
      </trkpt>
      <trkpt lat="28.3616920" lon="-16.4881500">
        <ele>1122.9</ele>
        <time>2020-11-11T14:18:58Z</time>
      </trkpt>
      <trkpt lat="28.3616780" lon="-16.4880950">
        <ele>1120.9</ele>
        <time>2020-11-11T14:18:59Z</time>
      </trkpt>
      <trkpt lat="28.3616780" lon="-16.4880950">
        <ele>1120.9</ele>
        <time>2020-11-11T14:19:00Z</time>
      </trkpt>
      <trkpt lat="28.3616500" lon="-16.4879520">
        <ele>1119.9</ele>
        <time>2020-11-11T14:19:01Z</time>
      </trkpt>
      <trkpt lat="28.3616500" lon="-16.4879520">
        <ele>1119.9</ele>
        <time>2020-11-11T14:19:02Z</time>
      </trkpt>
      <trkpt lat="28.3615930" lon="-16.4877950">
        <ele>1119.9</ele>
        <time>2020-11-11T14:19:03Z</time>
      </trkpt>
      <trkpt lat="28.3615600" lon="-16.4877330">
        <ele>1119.9</ele>
        <time>2020-11-11T14:19:04Z</time>
      </trkpt>
      <trkpt lat="28.3615600" lon="-16.4877330">
        <ele>1118.9</ele>
        <time>2020-11-11T14:19:05Z</time>
      </trkpt>
      <trkpt lat="28.3614930" lon="-16.4876280">
        <ele>1118.9</ele>
        <time>2020-11-11T14:19:06Z</time>
      </trkpt>
      <trkpt lat="28.3614930" lon="-16.4876280">
        <ele>1117.9</ele>
        <time>2020-11-11T14:19:07Z</time>
      </trkpt>
      <trkpt lat="28.3614230" lon="-16.4875420">
        <ele>1117.9</ele>
        <time>2020-11-11T14:19:08Z</time>
      </trkpt>
      <trkpt lat="28.3614230" lon="-16.4875420">
        <ele>1117.9</ele>
        <time>2020-11-11T14:19:09Z</time>
      </trkpt>
      <trkpt lat="28.3613700" lon="-16.4874620">
        <ele>1116.9</ele>
        <time>2020-11-11T14:19:10Z</time>
      </trkpt>
      <trkpt lat="28.3613700" lon="-16.4874620">
        <ele>1116.9</ele>
        <time>2020-11-11T14:19:11Z</time>
      </trkpt>
      <trkpt lat="28.3613200" lon="-16.4874130">
        <ele>1115.9</ele>
        <time>2020-11-11T14:19:12Z</time>
      </trkpt>
      <trkpt lat="28.3613200" lon="-16.4874130">
        <ele>1115.9</ele>
        <time>2020-11-11T14:19:13Z</time>
      </trkpt>
      <trkpt lat="28.3612280" lon="-16.4874000">
        <ele>1115.9</ele>
        <time>2020-11-11T14:19:14Z</time>
      </trkpt>
      <trkpt lat="28.3611850" lon="-16.4874020">
        <ele>1115.9</ele>
        <time>2020-11-11T14:19:15Z</time>
      </trkpt>
      <trkpt lat="28.3611850" lon="-16.4874020">
        <ele>1115.9</ele>
        <time>2020-11-11T14:19:16Z</time>
      </trkpt>
      <trkpt lat="28.3611070" lon="-16.4874050">
        <ele>1115.9</ele>
        <time>2020-11-11T14:19:17Z</time>
      </trkpt>
      <trkpt lat="28.3611070" lon="-16.4874050">
        <ele>1115.9</ele>
        <time>2020-11-11T14:19:18Z</time>
      </trkpt>
      <trkpt lat="28.3610670" lon="-16.4874220">
        <ele>1115.9</ele>
        <time>2020-11-11T14:19:19Z</time>
      </trkpt>
      <trkpt lat="28.3610670" lon="-16.4874220">
        <ele>1115.9</ele>
        <time>2020-11-11T14:19:20Z</time>
      </trkpt>
      <trkpt lat="28.3610500" lon="-16.4874300">
        <ele>1115.9</ele>
        <time>2020-11-11T14:19:21Z</time>
      </trkpt>
      <trkpt lat="28.3610500" lon="-16.4874300">
        <ele>1115.9</ele>
        <time>2020-11-11T14:19:22Z</time>
      </trkpt>
      <trkpt lat="28.3610570" lon="-16.4874070">
        <ele>1115.9</ele>
        <time>2020-11-11T14:19:23Z</time>
      </trkpt>
      <trkpt lat="28.3610620" lon="-16.4873720">
        <ele>1116.9</ele>
        <time>2020-11-11T14:19:24Z</time>
      </trkpt>
      <trkpt lat="28.3610620" lon="-16.4873720">
        <ele>1116.9</ele>
        <time>2020-11-11T14:19:25Z</time>
      </trkpt>
      <trkpt lat="28.3610450" lon="-16.4873830">
        <ele>1117.9</ele>
        <time>2020-11-11T14:19:26Z</time>
      </trkpt>
      <trkpt lat="28.3610450" lon="-16.4873830">
        <ele>1117.9</ele>
        <time>2020-11-11T14:19:27Z</time>
      </trkpt>
      <trkpt lat="28.3610080" lon="-16.4874180">
        <ele>1117.9</ele>
        <time>2020-11-11T14:19:28Z</time>
      </trkpt>
      <trkpt lat="28.3610080" lon="-16.4874180">
        <ele>1117.9</ele>
        <time>2020-11-11T14:19:29Z</time>
      </trkpt>
      <trkpt lat="28.3609700" lon="-16.4874450">
        <ele>1117.9</ele>
        <time>2020-11-11T14:19:30Z</time>
      </trkpt>
      <trkpt lat="28.3609520" lon="-16.4874530">
        <ele>1117.9</ele>
        <time>2020-11-11T14:19:31Z</time>
      </trkpt>
      <trkpt lat="28.3609520" lon="-16.4874530">
        <ele>1117.9</ele>
        <time>2020-11-11T14:19:32Z</time>
      </trkpt>
      <trkpt lat="28.3609100" lon="-16.4874600">
        <ele>1117.9</ele>
        <time>2020-11-11T14:19:33Z</time>
      </trkpt>
      <trkpt lat="28.3609100" lon="-16.4874600">
        <ele>1117.9</ele>
        <time>2020-11-11T14:19:34Z</time>
      </trkpt>
      <trkpt lat="28.3608800" lon="-16.4874600">
        <ele>1117.9</ele>
        <time>2020-11-11T14:19:35Z</time>
      </trkpt>
      <trkpt lat="28.3608800" lon="-16.4874600">
        <ele>1117.9</ele>
        <time>2020-11-11T14:19:36Z</time>
      </trkpt>
      <trkpt lat="28.3608520" lon="-16.4874520">
        <ele>1117.9</ele>
        <time>2020-11-11T14:19:37Z</time>
      </trkpt>
      <trkpt lat="28.3608520" lon="-16.4874520">
        <ele>1118.9</ele>
        <time>2020-11-11T14:19:38Z</time>
      </trkpt>
      <trkpt lat="28.3608170" lon="-16.4874430">
        <ele>1118.9</ele>
        <time>2020-11-11T14:19:39Z</time>
      </trkpt>
      <trkpt lat="28.3608170" lon="-16.4874430">
        <ele>1118.9</ele>
        <time>2020-11-11T14:19:40Z</time>
      </trkpt>
      <trkpt lat="28.3607920" lon="-16.4874330">
        <ele>1119.9</ele>
        <time>2020-11-11T14:19:41Z</time>
      </trkpt>
      <trkpt lat="28.3607920" lon="-16.4874330">
        <ele>1119.9</ele>
        <time>2020-11-11T14:19:42Z</time>
      </trkpt>
      <trkpt lat="28.3607770" lon="-16.4874230">
        <ele>1119.9</ele>
        <time>2020-11-11T14:19:43Z</time>
      </trkpt>
      <trkpt lat="28.3607770" lon="-16.4874230">
        <ele>1119.9</ele>
        <time>2020-11-11T14:19:44Z</time>
      </trkpt>
      <trkpt lat="28.3607400" lon="-16.4874150">
        <ele>1120.9</ele>
        <time>2020-11-11T14:19:45Z</time>
      </trkpt>
      <trkpt lat="28.3607400" lon="-16.4874150">
        <ele>1120.9</ele>
        <time>2020-11-11T14:19:46Z</time>
      </trkpt>
      <trkpt lat="28.3606950" lon="-16.4874150">
        <ele>1120.9</ele>
        <time>2020-11-11T14:19:47Z</time>
      </trkpt>
      <trkpt lat="28.3606950" lon="-16.4874150">
        <ele>1120.9</ele>
        <time>2020-11-11T14:19:48Z</time>
      </trkpt>
      <trkpt lat="28.3606450" lon="-16.4874230">
        <ele>1121.9</ele>
        <time>2020-11-11T14:19:49Z</time>
      </trkpt>
      <trkpt lat="28.3606450" lon="-16.4874230">
        <ele>1121.9</ele>
        <time>2020-11-11T14:19:50Z</time>
      </trkpt>
      <trkpt lat="28.3605970" lon="-16.4874330">
        <ele>1121.9</ele>
        <time>2020-11-11T14:19:51Z</time>
      </trkpt>
      <trkpt lat="28.3605970" lon="-16.4874330">
        <ele>1121.9</ele>
        <time>2020-11-11T14:19:52Z</time>
      </trkpt>
      <trkpt lat="28.3605450" lon="-16.4874420">
        <ele>1122.9</ele>
        <time>2020-11-11T14:19:53Z</time>
      </trkpt>
      <trkpt lat="28.3605450" lon="-16.4874420">
        <ele>1122.9</ele>
        <time>2020-11-11T14:19:54Z</time>
      </trkpt>
      <trkpt lat="28.3604880" lon="-16.4874380">
        <ele>1122.9</ele>
        <time>2020-11-11T14:19:55Z</time>
      </trkpt>
      <trkpt lat="28.3604880" lon="-16.4874380">
        <ele>1122.9</ele>
        <time>2020-11-11T14:19:56Z</time>
      </trkpt>
      <trkpt lat="28.3604420" lon="-16.4874380">
        <ele>1122.9</ele>
        <time>2020-11-11T14:19:57Z</time>
      </trkpt>
      <trkpt lat="28.3604170" lon="-16.4874420">
        <ele>1122.9</ele>
        <time>2020-11-11T14:19:58Z</time>
      </trkpt>
      <trkpt lat="28.3604170" lon="-16.4874420">
        <ele>1123.9</ele>
        <time>2020-11-11T14:19:59Z</time>
      </trkpt>
      <trkpt lat="28.3603650" lon="-16.4874480">
        <ele>1123.9</ele>
        <time>2020-11-11T14:20:00Z</time>
      </trkpt>
      <trkpt lat="28.3603430" lon="-16.4874430">
        <ele>1123.9</ele>
        <time>2020-11-11T14:20:01Z</time>
      </trkpt>
      <trkpt lat="28.3603430" lon="-16.4874430">
        <ele>1123.9</ele>
        <time>2020-11-11T14:20:02Z</time>
      </trkpt>
      <trkpt lat="28.3603130" lon="-16.4874430">
        <ele>1123.9</ele>
        <time>2020-11-11T14:20:03Z</time>
      </trkpt>
      <trkpt lat="28.3603130" lon="-16.4874430">
        <ele>1123.9</ele>
        <time>2020-11-11T14:20:04Z</time>
      </trkpt>
      <trkpt lat="28.3602900" lon="-16.4874480">
        <ele>1123.9</ele>
        <time>2020-11-11T14:20:05Z</time>
      </trkpt>
      <trkpt lat="28.3602900" lon="-16.4874480">
        <ele>1123.9</ele>
        <time>2020-11-11T14:20:06Z</time>
      </trkpt>
      <trkpt lat="28.3602720" lon="-16.4874480">
        <ele>1123.9</ele>
        <time>2020-11-11T14:20:07Z</time>
      </trkpt>
      <trkpt lat="28.3602720" lon="-16.4874480">
        <ele>1123.9</ele>
        <time>2020-11-11T14:20:08Z</time>
      </trkpt>
      <trkpt lat="28.3602600" lon="-16.4874600">
        <ele>1123.9</ele>
        <time>2020-11-11T14:20:09Z</time>
      </trkpt>
      <trkpt lat="28.3603350" lon="-16.4876600">
        <ele>1123.9</ele>
        <time>2020-11-11T14:20:19Z</time>
      </trkpt>
      <trkpt lat="28.3603350" lon="-16.4876600">
        <ele>1123.9</ele>
        <time>2020-11-11T14:20:20Z</time>
      </trkpt>
      <trkpt lat="28.3603550" lon="-16.4876950">
        <ele>1125.9</ele>
        <time>2020-11-11T14:20:21Z</time>
      </trkpt>
      <trkpt lat="28.3603550" lon="-16.4876950">
        <ele>1125.9</ele>
        <time>2020-11-11T14:20:22Z</time>
      </trkpt>
      <trkpt lat="28.3603620" lon="-16.4877180">
        <ele>1126.9</ele>
        <time>2020-11-11T14:20:23Z</time>
      </trkpt>
      <trkpt lat="28.3603620" lon="-16.4877180">
        <ele>1126.9</ele>
        <time>2020-11-11T14:20:24Z</time>
      </trkpt>
      <trkpt lat="28.3603950" lon="-16.4877450">
        <ele>1127.9</ele>
        <time>2020-11-11T14:20:25Z</time>
      </trkpt>
      <trkpt lat="28.3603950" lon="-16.4877450">
        <ele>1127.9</ele>
        <time>2020-11-11T14:20:26Z</time>
      </trkpt>
      <trkpt lat="28.3604070" lon="-16.4877630">
        <ele>1127.9</ele>
        <time>2020-11-11T14:20:27Z</time>
      </trkpt>
      <trkpt lat="28.3604270" lon="-16.4877800">
        <ele>1127.9</ele>
        <time>2020-11-11T14:20:28Z</time>
      </trkpt>
      <trkpt lat="28.3604370" lon="-16.4877970">
        <ele>1127.9</ele>
        <time>2020-11-11T14:20:29Z</time>
      </trkpt>
      <trkpt lat="28.3604370" lon="-16.4877970">
        <ele>1127.9</ele>
        <time>2020-11-11T14:20:30Z</time>
      </trkpt>
      <trkpt lat="28.3604670" lon="-16.4878250">
        <ele>1127.9</ele>
        <time>2020-11-11T14:20:36Z</time>
      </trkpt>
      <trkpt lat="28.3605030" lon="-16.4879330">
        <ele>1127.9</ele>
        <time>2020-11-11T14:20:37Z</time>
      </trkpt>
      <trkpt lat="28.3605050" lon="-16.4879500">
        <ele>1129.9</ele>
        <time>2020-11-11T14:20:38Z</time>
      </trkpt>
      <trkpt lat="28.3605020" lon="-16.4879730">
        <ele>1129.9</ele>
        <time>2020-11-11T14:20:39Z</time>
      </trkpt>
      <trkpt lat="28.3605020" lon="-16.4879730">
        <ele>1129.9</ele>
        <time>2020-11-11T14:20:40Z</time>
      </trkpt>
      <trkpt lat="28.3605000" lon="-16.4880170">
        <ele>1129.9</ele>
        <time>2020-11-11T14:20:41Z</time>
      </trkpt>
      <trkpt lat="28.3605000" lon="-16.4880170">
        <ele>1129.9</ele>
        <time>2020-11-11T14:20:42Z</time>
      </trkpt>
      <trkpt lat="28.3605000" lon="-16.4880600">
        <ele>1129.9</ele>
        <time>2020-11-11T14:20:43Z</time>
      </trkpt>
      <trkpt lat="28.3605000" lon="-16.4880600">
        <ele>1129.9</ele>
        <time>2020-11-11T14:20:44Z</time>
      </trkpt>
      <trkpt lat="28.3605050" lon="-16.4880850">
        <ele>1129.9</ele>
        <time>2020-11-11T14:20:45Z</time>
      </trkpt>
      <trkpt lat="28.3605150" lon="-16.4880970">
        <ele>1129.9</ele>
        <time>2020-11-11T14:20:46Z</time>
      </trkpt>
      <trkpt lat="28.3605150" lon="-16.4880970">
        <ele>1129.9</ele>
        <time>2020-11-11T14:20:47Z</time>
      </trkpt>
      <trkpt lat="28.3605200" lon="-16.4881370">
        <ele>1129.9</ele>
        <time>2020-11-11T14:20:48Z</time>
      </trkpt>
      <trkpt lat="28.3605200" lon="-16.4881370">
        <ele>1129.9</ele>
        <time>2020-11-11T14:20:49Z</time>
      </trkpt>
      <trkpt lat="28.3605270" lon="-16.4881770">
        <ele>1129.9</ele>
        <time>2020-11-11T14:20:50Z</time>
      </trkpt>
      <trkpt lat="28.3605270" lon="-16.4881770">
        <ele>1129.9</ele>
        <time>2020-11-11T14:20:51Z</time>
      </trkpt>
      <trkpt lat="28.3605250" lon="-16.4882200">
        <ele>1129.9</ele>
        <time>2020-11-11T14:20:52Z</time>
      </trkpt>
      <trkpt lat="28.3605220" lon="-16.4882470">
        <ele>1130.9</ele>
        <time>2020-11-11T14:20:53Z</time>
      </trkpt>
      <trkpt lat="28.3605220" lon="-16.4882470">
        <ele>1130.9</ele>
        <time>2020-11-11T14:20:54Z</time>
      </trkpt>
      <trkpt lat="28.3605380" lon="-16.4882970">
        <ele>1130.9</ele>
        <time>2020-11-11T14:20:55Z</time>
      </trkpt>
      <trkpt lat="28.3605380" lon="-16.4882970">
        <ele>1130.9</ele>
        <time>2020-11-11T14:20:56Z</time>
      </trkpt>
      <trkpt lat="28.3605580" lon="-16.4883430">
        <ele>1130.9</ele>
        <time>2020-11-11T14:20:57Z</time>
      </trkpt>
      <trkpt lat="28.3605580" lon="-16.4883430">
        <ele>1130.9</ele>
        <time>2020-11-11T14:20:58Z</time>
      </trkpt>
      <trkpt lat="28.3605730" lon="-16.4883920">
        <ele>1130.9</ele>
        <time>2020-11-11T14:20:59Z</time>
      </trkpt>
      <trkpt lat="28.3605480" lon="-16.4884130">
        <ele>1130.9</ele>
        <time>2020-11-11T14:21:00Z</time>
      </trkpt>
      <trkpt lat="28.3605480" lon="-16.4884130">
        <ele>1131.9</ele>
        <time>2020-11-11T14:21:01Z</time>
      </trkpt>
      <trkpt lat="28.3604930" lon="-16.4884550">
        <ele>1131.9</ele>
        <time>2020-11-11T14:21:02Z</time>
      </trkpt>
      <trkpt lat="28.3604930" lon="-16.4884550">
        <ele>1131.9</ele>
        <time>2020-11-11T14:21:03Z</time>
      </trkpt>
      <trkpt lat="28.3604170" lon="-16.4885020">
        <ele>1131.9</ele>
        <time>2020-11-11T14:21:04Z</time>
      </trkpt>
      <trkpt lat="28.3604170" lon="-16.4885020">
        <ele>1131.9</ele>
        <time>2020-11-11T14:21:05Z</time>
      </trkpt>
      <trkpt lat="28.3603550" lon="-16.4885430">
        <ele>1131.9</ele>
        <time>2020-11-11T14:21:06Z</time>
      </trkpt>
      <trkpt lat="28.3603550" lon="-16.4885430">
        <ele>1131.9</ele>
        <time>2020-11-11T14:21:07Z</time>
      </trkpt>
      <trkpt lat="28.3602650" lon="-16.4885780">
        <ele>1131.9</ele>
        <time>2020-11-11T14:21:08Z</time>
      </trkpt>
      <trkpt lat="28.3602650" lon="-16.4885780">
        <ele>1131.9</ele>
        <time>2020-11-11T14:21:09Z</time>
      </trkpt>
      <trkpt lat="28.3601880" lon="-16.4886070">
        <ele>1131.9</ele>
        <time>2020-11-11T14:21:10Z</time>
      </trkpt>
      <trkpt lat="28.3601880" lon="-16.4886070">
        <ele>1131.9</ele>
        <time>2020-11-11T14:21:11Z</time>
      </trkpt>
      <trkpt lat="28.3601020" lon="-16.4886180">
        <ele>1131.9</ele>
        <time>2020-11-11T14:21:12Z</time>
      </trkpt>
      <trkpt lat="28.3601020" lon="-16.4886180">
        <ele>1131.9</ele>
        <time>2020-11-11T14:21:13Z</time>
      </trkpt>
      <trkpt lat="28.3600180" lon="-16.4886380">
        <ele>1130.9</ele>
        <time>2020-11-11T14:21:14Z</time>
      </trkpt>
      <trkpt lat="28.3599780" lon="-16.4886500">
        <ele>1130.9</ele>
        <time>2020-11-11T14:21:15Z</time>
      </trkpt>
      <trkpt lat="28.3599380" lon="-16.4886570">
        <ele>1130.9</ele>
        <time>2020-11-11T14:21:16Z</time>
      </trkpt>
      <trkpt lat="28.3599380" lon="-16.4886570">
        <ele>1130.9</ele>
        <time>2020-11-11T14:21:17Z</time>
      </trkpt>
      <trkpt lat="28.3598600" lon="-16.4886480">
        <ele>1130.9</ele>
        <time>2020-11-11T14:21:18Z</time>
      </trkpt>
      <trkpt lat="28.3598250" lon="-16.4886480">
        <ele>1130.9</ele>
        <time>2020-11-11T14:21:19Z</time>
      </trkpt>
      <trkpt lat="28.3598250" lon="-16.4886480">
        <ele>1130.9</ele>
        <time>2020-11-11T14:21:20Z</time>
      </trkpt>
      <trkpt lat="28.3597750" lon="-16.4886630">
        <ele>1130.9</ele>
        <time>2020-11-11T14:21:21Z</time>
      </trkpt>
      <trkpt lat="28.3597570" lon="-16.4886750">
        <ele>1130.9</ele>
        <time>2020-11-11T14:21:22Z</time>
      </trkpt>
      <trkpt lat="28.3597600" lon="-16.4886970">
        <ele>1130.9</ele>
        <time>2020-11-11T14:21:23Z</time>
      </trkpt>
      <trkpt lat="28.3597600" lon="-16.4886970">
        <ele>1130.9</ele>
        <time>2020-11-11T14:21:24Z</time>
      </trkpt>
      <trkpt lat="28.3597850" lon="-16.4887630">
        <ele>1130.9</ele>
        <time>2020-11-11T14:21:25Z</time>
      </trkpt>
      <trkpt lat="28.3597850" lon="-16.4887630">
        <ele>1130.9</ele>
        <time>2020-11-11T14:21:26Z</time>
      </trkpt>
      <trkpt lat="28.3598070" lon="-16.4888520">
        <ele>1130.9</ele>
        <time>2020-11-11T14:21:27Z</time>
      </trkpt>
      <trkpt lat="28.3598070" lon="-16.4888520">
        <ele>1130.9</ele>
        <time>2020-11-11T14:21:28Z</time>
      </trkpt>
      <trkpt lat="28.3598450" lon="-16.4889170">
        <ele>1130.9</ele>
        <time>2020-11-11T14:21:29Z</time>
      </trkpt>
      <trkpt lat="28.3598450" lon="-16.4889170">
        <ele>1130.9</ele>
        <time>2020-11-11T14:21:30Z</time>
      </trkpt>
      <trkpt lat="28.3598830" lon="-16.4889720">
        <ele>1130.9</ele>
        <time>2020-11-11T14:21:31Z</time>
      </trkpt>
      <trkpt lat="28.3598830" lon="-16.4889720">
        <ele>1130.9</ele>
        <time>2020-11-11T14:21:32Z</time>
      </trkpt>
      <trkpt lat="28.3599070" lon="-16.4890050">
        <ele>1130.9</ele>
        <time>2020-11-11T14:21:33Z</time>
      </trkpt>
      <trkpt lat="28.3599070" lon="-16.4890050">
        <ele>1130.9</ele>
        <time>2020-11-11T14:21:34Z</time>
      </trkpt>
      <trkpt lat="28.3599530" lon="-16.4890530">
        <ele>1130.9</ele>
        <time>2020-11-11T14:21:35Z</time>
      </trkpt>
      <trkpt lat="28.3599530" lon="-16.4890530">
        <ele>1130.9</ele>
        <time>2020-11-11T14:21:36Z</time>
      </trkpt>
      <trkpt lat="28.3599920" lon="-16.4890970">
        <ele>1130.9</ele>
        <time>2020-11-11T14:21:37Z</time>
      </trkpt>
      <trkpt lat="28.3599920" lon="-16.4890970">
        <ele>1130.9</ele>
        <time>2020-11-11T14:21:38Z</time>
      </trkpt>
      <trkpt lat="28.3600650" lon="-16.4891450">
        <ele>1130.9</ele>
        <time>2020-11-11T14:21:39Z</time>
      </trkpt>
      <trkpt lat="28.3600650" lon="-16.4891450">
        <ele>1130.9</ele>
        <time>2020-11-11T14:21:40Z</time>
      </trkpt>
      <trkpt lat="28.3601320" lon="-16.4891830">
        <ele>1130.9</ele>
        <time>2020-11-11T14:21:41Z</time>
      </trkpt>
      <trkpt lat="28.3601320" lon="-16.4891830">
        <ele>1130.9</ele>
        <time>2020-11-11T14:21:42Z</time>
      </trkpt>
      <trkpt lat="28.3601830" lon="-16.4892380">
        <ele>1130.9</ele>
        <time>2020-11-11T14:21:43Z</time>
      </trkpt>
      <trkpt lat="28.3601830" lon="-16.4892380">
        <ele>1130.9</ele>
        <time>2020-11-11T14:21:44Z</time>
      </trkpt>
      <trkpt lat="28.3602300" lon="-16.4892820">
        <ele>1130.9</ele>
        <time>2020-11-11T14:21:45Z</time>
      </trkpt>
      <trkpt lat="28.3602300" lon="-16.4892820">
        <ele>1130.9</ele>
        <time>2020-11-11T14:21:46Z</time>
      </trkpt>
      <trkpt lat="28.3602270" lon="-16.4893600">
        <ele>1130.9</ele>
        <time>2020-11-11T14:21:47Z</time>
      </trkpt>
      <trkpt lat="28.3602270" lon="-16.4893930">
        <ele>1130.9</ele>
        <time>2020-11-11T14:21:48Z</time>
      </trkpt>
      <trkpt lat="28.3602270" lon="-16.4893930">
        <ele>1130.9</ele>
        <time>2020-11-11T14:21:49Z</time>
      </trkpt>
      <trkpt lat="28.3602130" lon="-16.4894580">
        <ele>1130.9</ele>
        <time>2020-11-11T14:21:50Z</time>
      </trkpt>
      <trkpt lat="28.3602100" lon="-16.4894850">
        <ele>1130.9</ele>
        <time>2020-11-11T14:21:51Z</time>
      </trkpt>
      <trkpt lat="28.3602100" lon="-16.4894850">
        <ele>1130.9</ele>
        <time>2020-11-11T14:21:52Z</time>
      </trkpt>
      <trkpt lat="28.3602070" lon="-16.4895350">
        <ele>1130.9</ele>
        <time>2020-11-11T14:21:53Z</time>
      </trkpt>
      <trkpt lat="28.3602070" lon="-16.4895350">
        <ele>1130.9</ele>
        <time>2020-11-11T14:21:54Z</time>
      </trkpt>
      <trkpt lat="28.3601970" lon="-16.4895850">
        <ele>1130.9</ele>
        <time>2020-11-11T14:21:55Z</time>
      </trkpt>
      <trkpt lat="28.3601970" lon="-16.4895850">
        <ele>1130.9</ele>
        <time>2020-11-11T14:21:56Z</time>
      </trkpt>
      <trkpt lat="28.3602100" lon="-16.4896520">
        <ele>1130.9</ele>
        <time>2020-11-11T14:21:57Z</time>
      </trkpt>
      <trkpt lat="28.3602100" lon="-16.4896520">
        <ele>1130.9</ele>
        <time>2020-11-11T14:21:58Z</time>
      </trkpt>
      <trkpt lat="28.3602020" lon="-16.4897100">
        <ele>1131.9</ele>
        <time>2020-11-11T14:21:59Z</time>
      </trkpt>
      <trkpt lat="28.3602020" lon="-16.4897100">
        <ele>1131.9</ele>
        <time>2020-11-11T14:22:00Z</time>
      </trkpt>
      <trkpt lat="28.3602030" lon="-16.4897730">
        <ele>1131.9</ele>
        <time>2020-11-11T14:22:01Z</time>
      </trkpt>
      <trkpt lat="28.3602030" lon="-16.4897730">
        <ele>1131.9</ele>
        <time>2020-11-11T14:22:02Z</time>
      </trkpt>
      <trkpt lat="28.3602030" lon="-16.4898500">
        <ele>1131.9</ele>
        <time>2020-11-11T14:22:03Z</time>
      </trkpt>
      <trkpt lat="28.3602030" lon="-16.4898500">
        <ele>1131.9</ele>
        <time>2020-11-11T14:22:04Z</time>
      </trkpt>
      <trkpt lat="28.3601830" lon="-16.4899170">
        <ele>1131.9</ele>
        <time>2020-11-11T14:22:05Z</time>
      </trkpt>
      <trkpt lat="28.3601830" lon="-16.4899170">
        <ele>1131.9</ele>
        <time>2020-11-11T14:22:06Z</time>
      </trkpt>
      <trkpt lat="28.3601720" lon="-16.4899870">
        <ele>1131.9</ele>
        <time>2020-11-11T14:22:07Z</time>
      </trkpt>
      <trkpt lat="28.3601720" lon="-16.4899870">
        <ele>1132.9</ele>
        <time>2020-11-11T14:22:08Z</time>
      </trkpt>
      <trkpt lat="28.3601520" lon="-16.4900470">
        <ele>1132.9</ele>
        <time>2020-11-11T14:22:09Z</time>
      </trkpt>
      <trkpt lat="28.3601520" lon="-16.4900470">
        <ele>1132.9</ele>
        <time>2020-11-11T14:22:10Z</time>
      </trkpt>
      <trkpt lat="28.3601400" lon="-16.4900980">
        <ele>1132.9</ele>
        <time>2020-11-11T14:22:11Z</time>
      </trkpt>
      <trkpt lat="28.3601330" lon="-16.4901180">
        <ele>1132.9</ele>
        <time>2020-11-11T14:22:12Z</time>
      </trkpt>
      <trkpt lat="28.3601220" lon="-16.4901400">
        <ele>1133.9</ele>
        <time>2020-11-11T14:22:13Z</time>
      </trkpt>
      <trkpt lat="28.3601220" lon="-16.4901400">
        <ele>1133.9</ele>
        <time>2020-11-11T14:22:14Z</time>
      </trkpt>
      <trkpt lat="28.3601000" lon="-16.4901980">
        <ele>1133.9</ele>
        <time>2020-11-11T14:22:15Z</time>
      </trkpt>
      <trkpt lat="28.3600900" lon="-16.4902320">
        <ele>1133.9</ele>
        <time>2020-11-11T14:22:16Z</time>
      </trkpt>
      <trkpt lat="28.3600900" lon="-16.4902320">
        <ele>1134.9</ele>
        <time>2020-11-11T14:22:17Z</time>
      </trkpt>
      <trkpt lat="28.3600550" lon="-16.4902900">
        <ele>1134.9</ele>
        <time>2020-11-11T14:22:18Z</time>
      </trkpt>
      <trkpt lat="28.3599870" lon="-16.4903080">
        <ele>1134.9</ele>
        <time>2020-11-11T14:22:19Z</time>
      </trkpt>
      <trkpt lat="28.3599870" lon="-16.4903080">
        <ele>1134.9</ele>
        <time>2020-11-11T14:22:20Z</time>
      </trkpt>
      <trkpt lat="28.3599420" lon="-16.4903580">
        <ele>1134.9</ele>
        <time>2020-11-11T14:22:21Z</time>
      </trkpt>
      <trkpt lat="28.3599270" lon="-16.4903780">
        <ele>1134.9</ele>
        <time>2020-11-11T14:22:22Z</time>
      </trkpt>
      <trkpt lat="28.3599270" lon="-16.4903780">
        <ele>1134.9</ele>
        <time>2020-11-11T14:22:23Z</time>
      </trkpt>
      <trkpt lat="28.3598970" lon="-16.4904000">
        <ele>1134.9</ele>
        <time>2020-11-11T14:22:24Z</time>
      </trkpt>
      <trkpt lat="28.3598970" lon="-16.4904000">
        <ele>1135.9</ele>
        <time>2020-11-11T14:22:25Z</time>
      </trkpt>
      <trkpt lat="28.3598630" lon="-16.4904180">
        <ele>1135.9</ele>
        <time>2020-11-11T14:22:26Z</time>
      </trkpt>
      <trkpt lat="28.3598630" lon="-16.4904180">
        <ele>1135.9</ele>
        <time>2020-11-11T14:22:27Z</time>
      </trkpt>
      <trkpt lat="28.3598400" lon="-16.4904320">
        <ele>1135.9</ele>
        <time>2020-11-11T14:22:28Z</time>
      </trkpt>
      <trkpt lat="28.3598400" lon="-16.4904320">
        <ele>1135.9</ele>
        <time>2020-11-11T14:22:29Z</time>
      </trkpt>
      <trkpt lat="28.3597800" lon="-16.4904180">
        <ele>1136.9</ele>
        <time>2020-11-11T14:22:30Z</time>
      </trkpt>
      <trkpt lat="28.3597800" lon="-16.4904180">
        <ele>1136.9</ele>
        <time>2020-11-11T14:22:31Z</time>
      </trkpt>
      <trkpt lat="28.3597200" lon="-16.4904120">
        <ele>1136.9</ele>
        <time>2020-11-11T14:22:32Z</time>
      </trkpt>
      <trkpt lat="28.3596970" lon="-16.4904120">
        <ele>1136.9</ele>
        <time>2020-11-11T14:22:33Z</time>
      </trkpt>
      <trkpt lat="28.3596970" lon="-16.4904120">
        <ele>1136.9</ele>
        <time>2020-11-11T14:22:34Z</time>
      </trkpt>
      <trkpt lat="28.3596430" lon="-16.4904080">
        <ele>1136.9</ele>
        <time>2020-11-11T14:22:35Z</time>
      </trkpt>
      <trkpt lat="28.3596230" lon="-16.4904000">
        <ele>1137.9</ele>
        <time>2020-11-11T14:22:36Z</time>
      </trkpt>
      <trkpt lat="28.3596230" lon="-16.4904000">
        <ele>1137.9</ele>
        <time>2020-11-11T14:22:37Z</time>
      </trkpt>
      <trkpt lat="28.3595900" lon="-16.4903870">
        <ele>1137.9</ele>
        <time>2020-11-11T14:22:38Z</time>
      </trkpt>
      <trkpt lat="28.3595900" lon="-16.4903870">
        <ele>1137.9</ele>
        <time>2020-11-11T14:22:39Z</time>
      </trkpt>
      <trkpt lat="28.3595330" lon="-16.4903780">
        <ele>1137.9</ele>
        <time>2020-11-11T14:22:40Z</time>
      </trkpt>
      <trkpt lat="28.3595330" lon="-16.4903780">
        <ele>1137.9</ele>
        <time>2020-11-11T14:22:41Z</time>
      </trkpt>
      <trkpt lat="28.3594850" lon="-16.4903770">
        <ele>1138.9</ele>
        <time>2020-11-11T14:22:42Z</time>
      </trkpt>
      <trkpt lat="28.3594620" lon="-16.4903770">
        <ele>1138.9</ele>
        <time>2020-11-11T14:22:43Z</time>
      </trkpt>
      <trkpt lat="28.3594620" lon="-16.4903770">
        <ele>1138.9</ele>
        <time>2020-11-11T14:22:44Z</time>
      </trkpt>
      <trkpt lat="28.3594170" lon="-16.4903650">
        <ele>1138.9</ele>
        <time>2020-11-11T14:22:45Z</time>
      </trkpt>
      <trkpt lat="28.3594170" lon="-16.4903650">
        <ele>1138.9</ele>
        <time>2020-11-11T14:22:46Z</time>
      </trkpt>
      <trkpt lat="28.3593830" lon="-16.4903520">
        <ele>1139.9</ele>
        <time>2020-11-11T14:22:47Z</time>
      </trkpt>
      <trkpt lat="28.3593830" lon="-16.4903520">
        <ele>1139.9</ele>
        <time>2020-11-11T14:22:48Z</time>
      </trkpt>
      <trkpt lat="28.3593180" lon="-16.4903470">
        <ele>1139.9</ele>
        <time>2020-11-11T14:22:49Z</time>
      </trkpt>
      <trkpt lat="28.3593180" lon="-16.4903470">
        <ele>1139.9</ele>
        <time>2020-11-11T14:22:50Z</time>
      </trkpt>
      <trkpt lat="28.3592330" lon="-16.4903500">
        <ele>1140.9</ele>
        <time>2020-11-11T14:22:51Z</time>
      </trkpt>
      <trkpt lat="28.3592030" lon="-16.4903480">
        <ele>1140.9</ele>
        <time>2020-11-11T14:22:52Z</time>
      </trkpt>
      <trkpt lat="28.3592030" lon="-16.4903480">
        <ele>1140.9</ele>
        <time>2020-11-11T14:22:53Z</time>
      </trkpt>
      <trkpt lat="28.3591570" lon="-16.4903280">
        <ele>1140.9</ele>
        <time>2020-11-11T14:22:54Z</time>
      </trkpt>
      <trkpt lat="28.3591570" lon="-16.4903280">
        <ele>1141.9</ele>
        <time>2020-11-11T14:22:55Z</time>
      </trkpt>
      <trkpt lat="28.3591180" lon="-16.4903030">
        <ele>1141.9</ele>
        <time>2020-11-11T14:22:56Z</time>
      </trkpt>
      <trkpt lat="28.3591180" lon="-16.4903030">
        <ele>1141.9</ele>
        <time>2020-11-11T14:22:57Z</time>
      </trkpt>
      <trkpt lat="28.3590880" lon="-16.4902880">
        <ele>1141.9</ele>
        <time>2020-11-11T14:22:58Z</time>
      </trkpt>
      <trkpt lat="28.3590880" lon="-16.4902880">
        <ele>1141.9</ele>
        <time>2020-11-11T14:22:59Z</time>
      </trkpt>
      <trkpt lat="28.3590670" lon="-16.4902830">
        <ele>1141.9</ele>
        <time>2020-11-11T14:23:00Z</time>
      </trkpt>
      <trkpt lat="28.3590470" lon="-16.4902780">
        <ele>1141.9</ele>
        <time>2020-11-11T14:23:01Z</time>
      </trkpt>
      <trkpt lat="28.3590470" lon="-16.4902780">
        <ele>1142.9</ele>
        <time>2020-11-11T14:23:02Z</time>
      </trkpt>
      <trkpt lat="28.3590130" lon="-16.4902780">
        <ele>1142.9</ele>
        <time>2020-11-11T14:23:03Z</time>
      </trkpt>
      <trkpt lat="28.3590130" lon="-16.4902780">
        <ele>1142.9</ele>
        <time>2020-11-11T14:23:04Z</time>
      </trkpt>
      <trkpt lat="28.3589970" lon="-16.4902950">
        <ele>1142.9</ele>
        <time>2020-11-11T14:23:05Z</time>
      </trkpt>
      <trkpt lat="28.3589970" lon="-16.4902950">
        <ele>1142.9</ele>
        <time>2020-11-11T14:23:06Z</time>
      </trkpt>
      <trkpt lat="28.3590130" lon="-16.4903250">
        <ele>1142.9</ele>
        <time>2020-11-11T14:23:07Z</time>
      </trkpt>
      <trkpt lat="28.3590130" lon="-16.4903250">
        <ele>1143.9</ele>
        <time>2020-11-11T14:23:08Z</time>
      </trkpt>
      <trkpt lat="28.3590020" lon="-16.4903870">
        <ele>1143.9</ele>
        <time>2020-11-11T14:23:09Z</time>
      </trkpt>
      <trkpt lat="28.3590020" lon="-16.4903870">
        <ele>1143.9</ele>
        <time>2020-11-11T14:23:10Z</time>
      </trkpt>
      <trkpt lat="28.3590050" lon="-16.4904470">
        <ele>1143.9</ele>
        <time>2020-11-11T14:23:11Z</time>
      </trkpt>
      <trkpt lat="28.3590050" lon="-16.4904720">
        <ele>1143.9</ele>
        <time>2020-11-11T14:23:12Z</time>
      </trkpt>
      <trkpt lat="28.3590030" lon="-16.4904900">
        <ele>1143.9</ele>
        <time>2020-11-11T14:23:13Z</time>
      </trkpt>
      <trkpt lat="28.3590030" lon="-16.4904900">
        <ele>1143.9</ele>
        <time>2020-11-11T14:23:14Z</time>
      </trkpt>
      <trkpt lat="28.3590050" lon="-16.4905350">
        <ele>1143.9</ele>
        <time>2020-11-11T14:23:15Z</time>
      </trkpt>
      <trkpt lat="28.3590050" lon="-16.4905350">
        <ele>1145.9</ele>
        <time>2020-11-11T14:23:16Z</time>
      </trkpt>
      <trkpt lat="28.3589950" lon="-16.4905920">
        <ele>1145.9</ele>
        <time>2020-11-11T14:23:17Z</time>
      </trkpt>
      <trkpt lat="28.3589950" lon="-16.4905920">
        <ele>1145.9</ele>
        <time>2020-11-11T14:23:18Z</time>
      </trkpt>
      <trkpt lat="28.3589930" lon="-16.4906420">
        <ele>1145.9</ele>
        <time>2020-11-11T14:23:19Z</time>
      </trkpt>
      <trkpt lat="28.3589930" lon="-16.4906420">
        <ele>1145.9</ele>
        <time>2020-11-11T14:23:20Z</time>
      </trkpt>
      <trkpt lat="28.3589950" lon="-16.4906920">
        <ele>1145.9</ele>
        <time>2020-11-11T14:23:21Z</time>
      </trkpt>
      <trkpt lat="28.3589950" lon="-16.4906920">
        <ele>1146.9</ele>
        <time>2020-11-11T14:23:22Z</time>
      </trkpt>
      <trkpt lat="28.3589980" lon="-16.4907270">
        <ele>1146.9</ele>
        <time>2020-11-11T14:23:23Z</time>
      </trkpt>
      <trkpt lat="28.3589980" lon="-16.4907400">
        <ele>1145.9</ele>
        <time>2020-11-11T14:23:24Z</time>
      </trkpt>
      <trkpt lat="28.3589980" lon="-16.4907400">
        <ele>1145.9</ele>
        <time>2020-11-11T14:23:25Z</time>
      </trkpt>
      <trkpt lat="28.3589930" lon="-16.4907720">
        <ele>1142.9</ele>
        <time>2020-11-11T14:23:26Z</time>
      </trkpt>
      <trkpt lat="28.3589930" lon="-16.4907720">
        <ele>1142.9</ele>
        <time>2020-11-11T14:23:27Z</time>
      </trkpt>
      <trkpt lat="28.3589830" lon="-16.4907970">
        <ele>1145.9</ele>
        <time>2020-11-11T14:23:28Z</time>
      </trkpt>
      <trkpt lat="28.3589830" lon="-16.4907970">
        <ele>1145.9</ele>
        <time>2020-11-11T14:23:29Z</time>
      </trkpt>
      <trkpt lat="28.3589620" lon="-16.4908350">
        <ele>1146.9</ele>
        <time>2020-11-11T14:23:30Z</time>
      </trkpt>
      <trkpt lat="28.3589550" lon="-16.4908580">
        <ele>1146.9</ele>
        <time>2020-11-11T14:23:31Z</time>
      </trkpt>
      <trkpt lat="28.3589550" lon="-16.4908580">
        <ele>1146.9</ele>
        <time>2020-11-11T14:23:32Z</time>
      </trkpt>
      <trkpt lat="28.3589320" lon="-16.4908970">
        <ele>1146.9</ele>
        <time>2020-11-11T14:23:33Z</time>
      </trkpt>
      <trkpt lat="28.3589320" lon="-16.4908970">
        <ele>1147.9</ele>
        <time>2020-11-11T14:23:34Z</time>
      </trkpt>
      <trkpt lat="28.3589150" lon="-16.4909330">
        <ele>1147.9</ele>
        <time>2020-11-11T14:23:35Z</time>
      </trkpt>
      <trkpt lat="28.3589150" lon="-16.4909330">
        <ele>1147.9</ele>
        <time>2020-11-11T14:23:36Z</time>
      </trkpt>
      <trkpt lat="28.3588550" lon="-16.4909670">
        <ele>1147.9</ele>
        <time>2020-11-11T14:23:37Z</time>
      </trkpt>
      <trkpt lat="28.3588550" lon="-16.4909670">
        <ele>1148.9</ele>
        <time>2020-11-11T14:23:38Z</time>
      </trkpt>
      <trkpt lat="28.3587350" lon="-16.4910180">
        <ele>1148.9</ele>
        <time>2020-11-11T14:23:39Z</time>
      </trkpt>
      <trkpt lat="28.3587350" lon="-16.4910180">
        <ele>1148.9</ele>
        <time>2020-11-11T14:23:40Z</time>
      </trkpt>
      <trkpt lat="28.3586470" lon="-16.4910670">
        <ele>1148.9</ele>
        <time>2020-11-11T14:23:41Z</time>
      </trkpt>
      <trkpt lat="28.3586220" lon="-16.4910770">
        <ele>1148.9</ele>
        <time>2020-11-11T14:23:42Z</time>
      </trkpt>
      <trkpt lat="28.3586220" lon="-16.4910770">
        <ele>1148.9</ele>
        <time>2020-11-11T14:23:43Z</time>
      </trkpt>
      <trkpt lat="28.3585630" lon="-16.4911030">
        <ele>1148.9</ele>
        <time>2020-11-11T14:23:44Z</time>
      </trkpt>
      <trkpt lat="28.3585630" lon="-16.4911030">
        <ele>1148.9</ele>
        <time>2020-11-11T14:23:45Z</time>
      </trkpt>
      <trkpt lat="28.3585030" lon="-16.4911200">
        <ele>1148.9</ele>
        <time>2020-11-11T14:23:46Z</time>
      </trkpt>
      <trkpt lat="28.3584730" lon="-16.4911250">
        <ele>1148.9</ele>
        <time>2020-11-11T14:23:47Z</time>
      </trkpt>
      <trkpt lat="28.3584730" lon="-16.4911250">
        <ele>1148.9</ele>
        <time>2020-11-11T14:23:48Z</time>
      </trkpt>
      <trkpt lat="28.3584270" lon="-16.4911320">
        <ele>1148.9</ele>
        <time>2020-11-11T14:23:49Z</time>
      </trkpt>
      <trkpt lat="28.3584270" lon="-16.4911320">
        <ele>1148.9</ele>
        <time>2020-11-11T14:23:50Z</time>
      </trkpt>
      <trkpt lat="28.3583900" lon="-16.4911480">
        <ele>1148.9</ele>
        <time>2020-11-11T14:23:51Z</time>
      </trkpt>
      <trkpt lat="28.3583900" lon="-16.4911480">
        <ele>1148.9</ele>
        <time>2020-11-11T14:23:52Z</time>
      </trkpt>
      <trkpt lat="28.3583380" lon="-16.4911550">
        <ele>1148.9</ele>
        <time>2020-11-11T14:23:53Z</time>
      </trkpt>
      <trkpt lat="28.3583380" lon="-16.4911550">
        <ele>1148.9</ele>
        <time>2020-11-11T14:23:54Z</time>
      </trkpt>
      <trkpt lat="28.3582930" lon="-16.4911580">
        <ele>1148.9</ele>
        <time>2020-11-11T14:23:55Z</time>
      </trkpt>
      <trkpt lat="28.3582930" lon="-16.4911580">
        <ele>1148.9</ele>
        <time>2020-11-11T14:23:56Z</time>
      </trkpt>
      <trkpt lat="28.3582320" lon="-16.4911580">
        <ele>1148.9</ele>
        <time>2020-11-11T14:23:57Z</time>
      </trkpt>
      <trkpt lat="28.3582320" lon="-16.4911580">
        <ele>1148.9</ele>
        <time>2020-11-11T14:23:58Z</time>
      </trkpt>
      <trkpt lat="28.3581730" lon="-16.4911600">
        <ele>1148.9</ele>
        <time>2020-11-11T14:23:59Z</time>
      </trkpt>
      <trkpt lat="28.3581730" lon="-16.4911600">
        <ele>1148.9</ele>
        <time>2020-11-11T14:24:00Z</time>
      </trkpt>
      <trkpt lat="28.3581200" lon="-16.4911750">
        <ele>1148.9</ele>
        <time>2020-11-11T14:24:01Z</time>
      </trkpt>
      <trkpt lat="28.3581200" lon="-16.4911750">
        <ele>1148.9</ele>
        <time>2020-11-11T14:24:02Z</time>
      </trkpt>
      <trkpt lat="28.3580820" lon="-16.4911900">
        <ele>1149.9</ele>
        <time>2020-11-11T14:24:03Z</time>
      </trkpt>
      <trkpt lat="28.3580820" lon="-16.4911900">
        <ele>1149.9</ele>
        <time>2020-11-11T14:24:04Z</time>
      </trkpt>
      <trkpt lat="28.3580570" lon="-16.4911950">
        <ele>1149.9</ele>
        <time>2020-11-11T14:24:05Z</time>
      </trkpt>
      <trkpt lat="28.3580570" lon="-16.4911950">
        <ele>1149.9</ele>
        <time>2020-11-11T14:24:06Z</time>
      </trkpt>
      <trkpt lat="28.3580270" lon="-16.4912100">
        <ele>1149.9</ele>
        <time>2020-11-11T14:24:07Z</time>
      </trkpt>
      <trkpt lat="28.3580270" lon="-16.4912100">
        <ele>1149.9</ele>
        <time>2020-11-11T14:24:08Z</time>
      </trkpt>
      <trkpt lat="28.3579970" lon="-16.4912250">
        <ele>1149.9</ele>
        <time>2020-11-11T14:24:09Z</time>
      </trkpt>
      <trkpt lat="28.3579970" lon="-16.4912250">
        <ele>1149.9</ele>
        <time>2020-11-11T14:24:10Z</time>
      </trkpt>
      <trkpt lat="28.3579500" lon="-16.4912280">
        <ele>1149.9</ele>
        <time>2020-11-11T14:24:11Z</time>
      </trkpt>
      <trkpt lat="28.3579500" lon="-16.4912280">
        <ele>1149.9</ele>
        <time>2020-11-11T14:24:12Z</time>
      </trkpt>
      <trkpt lat="28.3579200" lon="-16.4912480">
        <ele>1150.9</ele>
        <time>2020-11-11T14:24:13Z</time>
      </trkpt>
      <trkpt lat="28.3579200" lon="-16.4912480">
        <ele>1150.9</ele>
        <time>2020-11-11T14:24:14Z</time>
      </trkpt>
      <trkpt lat="28.3579030" lon="-16.4912980">
        <ele>1150.9</ele>
        <time>2020-11-11T14:24:15Z</time>
      </trkpt>
      <trkpt lat="28.3579030" lon="-16.4912980">
        <ele>1150.9</ele>
        <time>2020-11-11T14:24:16Z</time>
      </trkpt>
      <trkpt lat="28.3578770" lon="-16.4913420">
        <ele>1150.9</ele>
        <time>2020-11-11T14:24:17Z</time>
      </trkpt>
      <trkpt lat="28.3578770" lon="-16.4913420">
        <ele>1151.9</ele>
        <time>2020-11-11T14:24:18Z</time>
      </trkpt>
      <trkpt lat="28.3578580" lon="-16.4913730">
        <ele>1151.9</ele>
        <time>2020-11-11T14:24:19Z</time>
      </trkpt>
      <trkpt lat="28.3578580" lon="-16.4913730">
        <ele>1151.9</ele>
        <time>2020-11-11T14:24:20Z</time>
      </trkpt>
      <trkpt lat="28.3578320" lon="-16.4914000">
        <ele>1151.9</ele>
        <time>2020-11-11T14:24:21Z</time>
      </trkpt>
      <trkpt lat="28.3578320" lon="-16.4914000">
        <ele>1151.9</ele>
        <time>2020-11-11T14:24:22Z</time>
      </trkpt>
      <trkpt lat="28.3578100" lon="-16.4914370">
        <ele>1151.9</ele>
        <time>2020-11-11T14:24:23Z</time>
      </trkpt>
      <trkpt lat="28.3578100" lon="-16.4914370">
        <ele>1151.9</ele>
        <time>2020-11-11T14:24:24Z</time>
      </trkpt>
      <trkpt lat="28.3578000" lon="-16.4914730">
        <ele>1151.9</ele>
        <time>2020-11-11T14:24:25Z</time>
      </trkpt>
      <trkpt lat="28.3578000" lon="-16.4914730">
        <ele>1151.9</ele>
        <time>2020-11-11T14:24:26Z</time>
      </trkpt>
      <trkpt lat="28.3577950" lon="-16.4915120">
        <ele>1152.9</ele>
        <time>2020-11-11T14:24:27Z</time>
      </trkpt>
      <trkpt lat="28.3577950" lon="-16.4915120">
        <ele>1152.9</ele>
        <time>2020-11-11T14:24:28Z</time>
      </trkpt>
      <trkpt lat="28.3577820" lon="-16.4915420">
        <ele>1152.9</ele>
        <time>2020-11-11T14:24:29Z</time>
      </trkpt>
      <trkpt lat="28.3577820" lon="-16.4915420">
        <ele>1152.9</ele>
        <time>2020-11-11T14:24:30Z</time>
      </trkpt>
      <trkpt lat="28.3577770" lon="-16.4915720">
        <ele>1152.9</ele>
        <time>2020-11-11T14:24:31Z</time>
      </trkpt>
      <trkpt lat="28.3577770" lon="-16.4915720">
        <ele>1152.9</ele>
        <time>2020-11-11T14:24:32Z</time>
      </trkpt>
      <trkpt lat="28.3577750" lon="-16.4916000">
        <ele>1152.9</ele>
        <time>2020-11-11T14:24:33Z</time>
      </trkpt>
      <trkpt lat="28.3577750" lon="-16.4916000">
        <ele>1152.9</ele>
        <time>2020-11-11T14:24:34Z</time>
      </trkpt>
      <trkpt lat="28.3577680" lon="-16.4916200">
        <ele>1152.9</ele>
        <time>2020-11-11T14:24:35Z</time>
      </trkpt>
      <trkpt lat="28.3577680" lon="-16.4916200">
        <ele>1152.9</ele>
        <time>2020-11-11T14:24:36Z</time>
      </trkpt>
      <trkpt lat="28.3577550" lon="-16.4916570">
        <ele>1153.9</ele>
        <time>2020-11-11T14:24:37Z</time>
      </trkpt>
      <trkpt lat="28.3577550" lon="-16.4916570">
        <ele>1153.9</ele>
        <time>2020-11-11T14:24:38Z</time>
      </trkpt>
      <trkpt lat="28.3577350" lon="-16.4916870">
        <ele>1153.9</ele>
        <time>2020-11-11T14:24:39Z</time>
      </trkpt>
      <trkpt lat="28.3577350" lon="-16.4916870">
        <ele>1153.9</ele>
        <time>2020-11-11T14:24:40Z</time>
      </trkpt>
      <trkpt lat="28.3576800" lon="-16.4917300">
        <ele>1153.9</ele>
        <time>2020-11-11T14:24:41Z</time>
      </trkpt>
      <trkpt lat="28.3576800" lon="-16.4917300">
        <ele>1153.9</ele>
        <time>2020-11-11T14:24:42Z</time>
      </trkpt>
      <trkpt lat="28.3576130" lon="-16.4917630">
        <ele>1154.9</ele>
        <time>2020-11-11T14:24:43Z</time>
      </trkpt>
      <trkpt lat="28.3576130" lon="-16.4917630">
        <ele>1154.9</ele>
        <time>2020-11-11T14:24:44Z</time>
      </trkpt>
      <trkpt lat="28.3575650" lon="-16.4917950">
        <ele>1154.9</ele>
        <time>2020-11-11T14:24:45Z</time>
      </trkpt>
      <trkpt lat="28.3575650" lon="-16.4917950">
        <ele>1154.9</ele>
        <time>2020-11-11T14:24:46Z</time>
      </trkpt>
      <trkpt lat="28.3575200" lon="-16.4918270">
        <ele>1154.9</ele>
        <time>2020-11-11T14:24:47Z</time>
      </trkpt>
      <trkpt lat="28.3575200" lon="-16.4918270">
        <ele>1155.9</ele>
        <time>2020-11-11T14:24:48Z</time>
      </trkpt>
      <trkpt lat="28.3574820" lon="-16.4918430">
        <ele>1155.9</ele>
        <time>2020-11-11T14:24:49Z</time>
      </trkpt>
      <trkpt lat="28.3574820" lon="-16.4918430">
        <ele>1155.9</ele>
        <time>2020-11-11T14:24:50Z</time>
      </trkpt>
      <trkpt lat="28.3574380" lon="-16.4918570">
        <ele>1155.9</ele>
        <time>2020-11-11T14:24:51Z</time>
      </trkpt>
      <trkpt lat="28.3574380" lon="-16.4918570">
        <ele>1156.9</ele>
        <time>2020-11-11T14:24:52Z</time>
      </trkpt>
      <trkpt lat="28.3573900" lon="-16.4918680">
        <ele>1156.9</ele>
        <time>2020-11-11T14:24:53Z</time>
      </trkpt>
      <trkpt lat="28.3573900" lon="-16.4918680">
        <ele>1156.9</ele>
        <time>2020-11-11T14:24:54Z</time>
      </trkpt>
      <trkpt lat="28.3573450" lon="-16.4918730">
        <ele>1156.9</ele>
        <time>2020-11-11T14:24:55Z</time>
      </trkpt>
      <trkpt lat="28.3573450" lon="-16.4918730">
        <ele>1156.9</ele>
        <time>2020-11-11T14:24:56Z</time>
      </trkpt>
      <trkpt lat="28.3573020" lon="-16.4918750">
        <ele>1156.9</ele>
        <time>2020-11-11T14:24:57Z</time>
      </trkpt>
      <trkpt lat="28.3573020" lon="-16.4918750">
        <ele>1156.9</ele>
        <time>2020-11-11T14:24:58Z</time>
      </trkpt>
      <trkpt lat="28.3572620" lon="-16.4918780">
        <ele>1157.9</ele>
        <time>2020-11-11T14:24:59Z</time>
      </trkpt>
      <trkpt lat="28.3572620" lon="-16.4918780">
        <ele>1157.9</ele>
        <time>2020-11-11T14:25:00Z</time>
      </trkpt>
      <trkpt lat="28.3572150" lon="-16.4918720">
        <ele>1157.9</ele>
        <time>2020-11-11T14:25:01Z</time>
      </trkpt>
      <trkpt lat="28.3572150" lon="-16.4918720">
        <ele>1157.9</ele>
        <time>2020-11-11T14:25:02Z</time>
      </trkpt>
      <trkpt lat="28.3571720" lon="-16.4918570">
        <ele>1157.9</ele>
        <time>2020-11-11T14:25:03Z</time>
      </trkpt>
      <trkpt lat="28.3571720" lon="-16.4918570">
        <ele>1157.9</ele>
        <time>2020-11-11T14:25:04Z</time>
      </trkpt>
      <trkpt lat="28.3571350" lon="-16.4918470">
        <ele>1157.9</ele>
        <time>2020-11-11T14:25:05Z</time>
      </trkpt>
      <trkpt lat="28.3571350" lon="-16.4918470">
        <ele>1157.9</ele>
        <time>2020-11-11T14:25:06Z</time>
      </trkpt>
      <trkpt lat="28.3571020" lon="-16.4918320">
        <ele>1158.9</ele>
        <time>2020-11-11T14:25:07Z</time>
      </trkpt>
      <trkpt lat="28.3571020" lon="-16.4918320">
        <ele>1158.9</ele>
        <time>2020-11-11T14:25:08Z</time>
      </trkpt>
      <trkpt lat="28.3570650" lon="-16.4918200">
        <ele>1158.9</ele>
        <time>2020-11-11T14:25:09Z</time>
      </trkpt>
      <trkpt lat="28.3570650" lon="-16.4918200">
        <ele>1158.9</ele>
        <time>2020-11-11T14:25:10Z</time>
      </trkpt>
      <trkpt lat="28.3570250" lon="-16.4918120">
        <ele>1158.9</ele>
        <time>2020-11-11T14:25:11Z</time>
      </trkpt>
      <trkpt lat="28.3570250" lon="-16.4918120">
        <ele>1158.9</ele>
        <time>2020-11-11T14:25:12Z</time>
      </trkpt>
      <trkpt lat="28.3569630" lon="-16.4917900">
        <ele>1158.9</ele>
        <time>2020-11-11T14:25:13Z</time>
      </trkpt>
      <trkpt lat="28.3569630" lon="-16.4917900">
        <ele>1158.9</ele>
        <time>2020-11-11T14:25:14Z</time>
      </trkpt>
      <trkpt lat="28.3569070" lon="-16.4917950">
        <ele>1158.9</ele>
        <time>2020-11-11T14:25:15Z</time>
      </trkpt>
      <trkpt lat="28.3569070" lon="-16.4917950">
        <ele>1159.9</ele>
        <time>2020-11-11T14:25:16Z</time>
      </trkpt>
      <trkpt lat="28.3568500" lon="-16.4918130">
        <ele>1159.9</ele>
        <time>2020-11-11T14:25:17Z</time>
      </trkpt>
      <trkpt lat="28.3568500" lon="-16.4918130">
        <ele>1159.9</ele>
        <time>2020-11-11T14:25:18Z</time>
      </trkpt>
      <trkpt lat="28.3568050" lon="-16.4918500">
        <ele>1159.9</ele>
        <time>2020-11-11T14:25:19Z</time>
      </trkpt>
      <trkpt lat="28.3568050" lon="-16.4918500">
        <ele>1159.9</ele>
        <time>2020-11-11T14:25:20Z</time>
      </trkpt>
      <trkpt lat="28.3567670" lon="-16.4918800">
        <ele>1159.9</ele>
        <time>2020-11-11T14:25:21Z</time>
      </trkpt>
      <trkpt lat="28.3567480" lon="-16.4918920">
        <ele>1157.9</ele>
        <time>2020-11-11T14:25:22Z</time>
      </trkpt>
      <trkpt lat="28.3567480" lon="-16.4918920">
        <ele>1157.9</ele>
        <time>2020-11-11T14:25:23Z</time>
      </trkpt>
      <trkpt lat="28.3567170" lon="-16.4919200">
        <ele>1158.9</ele>
        <time>2020-11-11T14:25:24Z</time>
      </trkpt>
      <trkpt lat="28.3567020" lon="-16.4919330">
        <ele>1158.9</ele>
        <time>2020-11-11T14:25:25Z</time>
      </trkpt>
      <trkpt lat="28.3567020" lon="-16.4919330">
        <ele>1159.9</ele>
        <time>2020-11-11T14:25:26Z</time>
      </trkpt>
      <trkpt lat="28.3566720" lon="-16.4919600">
        <ele>1159.9</ele>
        <time>2020-11-11T14:25:27Z</time>
      </trkpt>
      <trkpt lat="28.3566720" lon="-16.4919600">
        <ele>1159.9</ele>
        <time>2020-11-11T14:25:28Z</time>
      </trkpt>
      <trkpt lat="28.3566380" lon="-16.4919820">
        <ele>1159.9</ele>
        <time>2020-11-11T14:25:29Z</time>
      </trkpt>
      <trkpt lat="28.3566380" lon="-16.4919820">
        <ele>1159.9</ele>
        <time>2020-11-11T14:25:30Z</time>
      </trkpt>
      <trkpt lat="28.3566170" lon="-16.4920070">
        <ele>1159.9</ele>
        <time>2020-11-11T14:25:31Z</time>
      </trkpt>
      <trkpt lat="28.3566170" lon="-16.4920070">
        <ele>1160.9</ele>
        <time>2020-11-11T14:25:32Z</time>
      </trkpt>
      <trkpt lat="28.3565920" lon="-16.4920270">
        <ele>1160.9</ele>
        <time>2020-11-11T14:25:33Z</time>
      </trkpt>
      <trkpt lat="28.3565750" lon="-16.4920370">
        <ele>1160.9</ele>
        <time>2020-11-11T14:25:34Z</time>
      </trkpt>
      <trkpt lat="28.3565750" lon="-16.4920370">
        <ele>1160.9</ele>
        <time>2020-11-11T14:25:35Z</time>
      </trkpt>
      <trkpt lat="28.3565400" lon="-16.4920750">
        <ele>1160.9</ele>
        <time>2020-11-11T14:25:36Z</time>
      </trkpt>
      <trkpt lat="28.3565400" lon="-16.4920750">
        <ele>1160.9</ele>
        <time>2020-11-11T14:25:37Z</time>
      </trkpt>
      <trkpt lat="28.3565180" lon="-16.4921130">
        <ele>1160.9</ele>
        <time>2020-11-11T14:25:38Z</time>
      </trkpt>
      <trkpt lat="28.3565180" lon="-16.4921130">
        <ele>1161.9</ele>
        <time>2020-11-11T14:25:39Z</time>
      </trkpt>
      <trkpt lat="28.3565070" lon="-16.4921500">
        <ele>1161.9</ele>
        <time>2020-11-11T14:25:40Z</time>
      </trkpt>
      <trkpt lat="28.3565050" lon="-16.4921670">
        <ele>1161.9</ele>
        <time>2020-11-11T14:25:41Z</time>
      </trkpt>
      <trkpt lat="28.3565050" lon="-16.4921670">
        <ele>1161.9</ele>
        <time>2020-11-11T14:25:42Z</time>
      </trkpt>
      <trkpt lat="28.3565120" lon="-16.4922020">
        <ele>1161.9</ele>
        <time>2020-11-11T14:25:43Z</time>
      </trkpt>
      <trkpt lat="28.3565120" lon="-16.4922020">
        <ele>1161.9</ele>
        <time>2020-11-11T14:25:44Z</time>
      </trkpt>
      <trkpt lat="28.3565030" lon="-16.4922430">
        <ele>1161.9</ele>
        <time>2020-11-11T14:25:45Z</time>
      </trkpt>
      <trkpt lat="28.3565030" lon="-16.4922430">
        <ele>1161.9</ele>
        <time>2020-11-11T14:25:46Z</time>
      </trkpt>
      <trkpt lat="28.3564850" lon="-16.4922700">
        <ele>1161.9</ele>
        <time>2020-11-11T14:25:47Z</time>
      </trkpt>
      <trkpt lat="28.3564780" lon="-16.4922870">
        <ele>1161.9</ele>
        <time>2020-11-11T14:25:48Z</time>
      </trkpt>
      <trkpt lat="28.3564780" lon="-16.4922870">
        <ele>1162.9</ele>
        <time>2020-11-11T14:25:49Z</time>
      </trkpt>
      <trkpt lat="28.3564780" lon="-16.4923220">
        <ele>1162.9</ele>
        <time>2020-11-11T14:25:50Z</time>
      </trkpt>
      <trkpt lat="28.3564780" lon="-16.4923220">
        <ele>1162.9</ele>
        <time>2020-11-11T14:25:51Z</time>
      </trkpt>
      <trkpt lat="28.3564530" lon="-16.4923450">
        <ele>1162.9</ele>
        <time>2020-11-11T14:25:52Z</time>
      </trkpt>
      <trkpt lat="28.3564530" lon="-16.4923450">
        <ele>1162.9</ele>
        <time>2020-11-11T14:25:53Z</time>
      </trkpt>
      <trkpt lat="28.3564320" lon="-16.4924170">
        <ele>1162.9</ele>
        <time>2020-11-11T14:25:54Z</time>
      </trkpt>
      <trkpt lat="28.3564320" lon="-16.4924170">
        <ele>1162.9</ele>
        <time>2020-11-11T14:25:55Z</time>
      </trkpt>
      <trkpt lat="28.3564030" lon="-16.4924680">
        <ele>1162.9</ele>
        <time>2020-11-11T14:25:56Z</time>
      </trkpt>
      <trkpt lat="28.3563720" lon="-16.4924920">
        <ele>1162.9</ele>
        <time>2020-11-11T14:25:57Z</time>
      </trkpt>
      <trkpt lat="28.3563720" lon="-16.4924920">
        <ele>1162.9</ele>
        <time>2020-11-11T14:25:58Z</time>
      </trkpt>
      <trkpt lat="28.3563100" lon="-16.4925400">
        <ele>1162.9</ele>
        <time>2020-11-11T14:25:59Z</time>
      </trkpt>
      <trkpt lat="28.3563100" lon="-16.4925400">
        <ele>1162.9</ele>
        <time>2020-11-11T14:26:00Z</time>
      </trkpt>
      <trkpt lat="28.3562420" lon="-16.4925770">
        <ele>1162.9</ele>
        <time>2020-11-11T14:26:01Z</time>
      </trkpt>
      <trkpt lat="28.3562420" lon="-16.4925770">
        <ele>1162.9</ele>
        <time>2020-11-11T14:26:02Z</time>
      </trkpt>
      <trkpt lat="28.3561830" lon="-16.4926030">
        <ele>1162.9</ele>
        <time>2020-11-11T14:26:03Z</time>
      </trkpt>
      <trkpt lat="28.3561830" lon="-16.4926030">
        <ele>1162.9</ele>
        <time>2020-11-11T14:26:04Z</time>
      </trkpt>
      <trkpt lat="28.3561170" lon="-16.4926200">
        <ele>1162.9</ele>
        <time>2020-11-11T14:26:05Z</time>
      </trkpt>
      <trkpt lat="28.3561170" lon="-16.4926200">
        <ele>1162.9</ele>
        <time>2020-11-11T14:26:06Z</time>
      </trkpt>
      <trkpt lat="28.3560480" lon="-16.4926430">
        <ele>1162.9</ele>
        <time>2020-11-11T14:26:07Z</time>
      </trkpt>
      <trkpt lat="28.3560480" lon="-16.4926430">
        <ele>1162.9</ele>
        <time>2020-11-11T14:26:08Z</time>
      </trkpt>
      <trkpt lat="28.3559830" lon="-16.4926650">
        <ele>1162.9</ele>
        <time>2020-11-11T14:26:09Z</time>
      </trkpt>
      <trkpt lat="28.3559830" lon="-16.4926650">
        <ele>1162.9</ele>
        <time>2020-11-11T14:26:10Z</time>
      </trkpt>
      <trkpt lat="28.3559250" lon="-16.4927070">
        <ele>1162.9</ele>
        <time>2020-11-11T14:26:11Z</time>
      </trkpt>
      <trkpt lat="28.3559250" lon="-16.4927070">
        <ele>1162.9</ele>
        <time>2020-11-11T14:26:12Z</time>
      </trkpt>
      <trkpt lat="28.3558780" lon="-16.4927550">
        <ele>1162.9</ele>
        <time>2020-11-11T14:26:13Z</time>
      </trkpt>
      <trkpt lat="28.3558780" lon="-16.4927550">
        <ele>1162.9</ele>
        <time>2020-11-11T14:26:14Z</time>
      </trkpt>
      <trkpt lat="28.3558170" lon="-16.4928170">
        <ele>1162.9</ele>
        <time>2020-11-11T14:26:15Z</time>
      </trkpt>
      <trkpt lat="28.3558170" lon="-16.4928170">
        <ele>1162.9</ele>
        <time>2020-11-11T14:26:16Z</time>
      </trkpt>
      <trkpt lat="28.3557830" lon="-16.4928950">
        <ele>1162.9</ele>
        <time>2020-11-11T14:26:17Z</time>
      </trkpt>
      <trkpt lat="28.3557830" lon="-16.4928950">
        <ele>1162.9</ele>
        <time>2020-11-11T14:26:18Z</time>
      </trkpt>
      <trkpt lat="28.3557500" lon="-16.4929520">
        <ele>1162.9</ele>
        <time>2020-11-11T14:26:19Z</time>
      </trkpt>
      <trkpt lat="28.3557500" lon="-16.4929520">
        <ele>1163.9</ele>
        <time>2020-11-11T14:26:20Z</time>
      </trkpt>
      <trkpt lat="28.3557370" lon="-16.4930080">
        <ele>1163.9</ele>
        <time>2020-11-11T14:26:21Z</time>
      </trkpt>
      <trkpt lat="28.3557370" lon="-16.4930080">
        <ele>1163.9</ele>
        <time>2020-11-11T14:26:22Z</time>
      </trkpt>
      <trkpt lat="28.3557320" lon="-16.4930900">
        <ele>1163.9</ele>
        <time>2020-11-11T14:26:23Z</time>
      </trkpt>
      <trkpt lat="28.3557320" lon="-16.4930900">
        <ele>1163.9</ele>
        <time>2020-11-11T14:26:24Z</time>
      </trkpt>
      <trkpt lat="28.3557350" lon="-16.4931780">
        <ele>1163.9</ele>
        <time>2020-11-11T14:26:25Z</time>
      </trkpt>
      <trkpt lat="28.3557350" lon="-16.4931780">
        <ele>1163.9</ele>
        <time>2020-11-11T14:26:26Z</time>
      </trkpt>
      <trkpt lat="28.3557370" lon="-16.4932630">
        <ele>1163.9</ele>
        <time>2020-11-11T14:26:27Z</time>
      </trkpt>
      <trkpt lat="28.3557370" lon="-16.4932630">
        <ele>1163.9</ele>
        <time>2020-11-11T14:26:28Z</time>
      </trkpt>
      <trkpt lat="28.3557270" lon="-16.4933270">
        <ele>1163.9</ele>
        <time>2020-11-11T14:26:29Z</time>
      </trkpt>
      <trkpt lat="28.3557270" lon="-16.4933270">
        <ele>1164.9</ele>
        <time>2020-11-11T14:26:30Z</time>
      </trkpt>
      <trkpt lat="28.3557350" lon="-16.4933820">
        <ele>1164.9</ele>
        <time>2020-11-11T14:26:31Z</time>
      </trkpt>
      <trkpt lat="28.3557350" lon="-16.4933820">
        <ele>1164.9</ele>
        <time>2020-11-11T14:26:32Z</time>
      </trkpt>
      <trkpt lat="28.3557800" lon="-16.4934580">
        <ele>1164.9</ele>
        <time>2020-11-11T14:26:33Z</time>
      </trkpt>
      <trkpt lat="28.3557800" lon="-16.4934580">
        <ele>1164.9</ele>
        <time>2020-11-11T14:26:34Z</time>
      </trkpt>
      <trkpt lat="28.3558250" lon="-16.4935470">
        <ele>1164.9</ele>
        <time>2020-11-11T14:26:35Z</time>
      </trkpt>
      <trkpt lat="28.3558250" lon="-16.4935470">
        <ele>1164.9</ele>
        <time>2020-11-11T14:26:36Z</time>
      </trkpt>
      <trkpt lat="28.3558770" lon="-16.4936470">
        <ele>1164.9</ele>
        <time>2020-11-11T14:26:37Z</time>
      </trkpt>
      <trkpt lat="28.3558770" lon="-16.4936470">
        <ele>1164.9</ele>
        <time>2020-11-11T14:26:38Z</time>
      </trkpt>
      <trkpt lat="28.3559250" lon="-16.4937570">
        <ele>1164.9</ele>
        <time>2020-11-11T14:26:39Z</time>
      </trkpt>
      <trkpt lat="28.3559520" lon="-16.4938230">
        <ele>1164.9</ele>
        <time>2020-11-11T14:26:40Z</time>
      </trkpt>
      <trkpt lat="28.3559520" lon="-16.4938230">
        <ele>1164.9</ele>
        <time>2020-11-11T14:26:41Z</time>
      </trkpt>
      <trkpt lat="28.3559850" lon="-16.4939600">
        <ele>1163.9</ele>
        <time>2020-11-11T14:26:42Z</time>
      </trkpt>
      <trkpt lat="28.3559800" lon="-16.4940080">
        <ele>1163.9</ele>
        <time>2020-11-11T14:26:43Z</time>
      </trkpt>
      <trkpt lat="28.3559800" lon="-16.4940080">
        <ele>1163.9</ele>
        <time>2020-11-11T14:26:44Z</time>
      </trkpt>
      <trkpt lat="28.3559630" lon="-16.4941120">
        <ele>1163.9</ele>
        <time>2020-11-11T14:26:45Z</time>
      </trkpt>
      <trkpt lat="28.3559630" lon="-16.4941120">
        <ele>1163.9</ele>
        <time>2020-11-11T14:26:46Z</time>
      </trkpt>
      <trkpt lat="28.3559180" lon="-16.4942230">
        <ele>1163.9</ele>
        <time>2020-11-11T14:26:47Z</time>
      </trkpt>
      <trkpt lat="28.3559180" lon="-16.4942230">
        <ele>1163.9</ele>
        <time>2020-11-11T14:26:48Z</time>
      </trkpt>
      <trkpt lat="28.3557980" lon="-16.4943070">
        <ele>1163.9</ele>
        <time>2020-11-11T14:26:49Z</time>
      </trkpt>
      <trkpt lat="28.3557980" lon="-16.4943070">
        <ele>1163.9</ele>
        <time>2020-11-11T14:26:50Z</time>
      </trkpt>
      <trkpt lat="28.3557330" lon="-16.4943630">
        <ele>1162.9</ele>
        <time>2020-11-11T14:26:51Z</time>
      </trkpt>
      <trkpt lat="28.3557330" lon="-16.4943630">
        <ele>1162.9</ele>
        <time>2020-11-11T14:26:52Z</time>
      </trkpt>
      <trkpt lat="28.3556170" lon="-16.4944120">
        <ele>1162.9</ele>
        <time>2020-11-11T14:26:53Z</time>
      </trkpt>
      <trkpt lat="28.3556170" lon="-16.4944120">
        <ele>1162.9</ele>
        <time>2020-11-11T14:26:54Z</time>
      </trkpt>
      <trkpt lat="28.3554950" lon="-16.4944350">
        <ele>1162.9</ele>
        <time>2020-11-11T14:26:55Z</time>
      </trkpt>
      <trkpt lat="28.3554950" lon="-16.4944350">
        <ele>1162.9</ele>
        <time>2020-11-11T14:26:56Z</time>
      </trkpt>
      <trkpt lat="28.3553830" lon="-16.4944780">
        <ele>1161.9</ele>
        <time>2020-11-11T14:26:57Z</time>
      </trkpt>
      <trkpt lat="28.3553830" lon="-16.4944780">
        <ele>1161.9</ele>
        <time>2020-11-11T14:26:58Z</time>
      </trkpt>
      <trkpt lat="28.3552750" lon="-16.4945080">
        <ele>1161.9</ele>
        <time>2020-11-11T14:26:59Z</time>
      </trkpt>
      <trkpt lat="28.3552750" lon="-16.4945080">
        <ele>1161.9</ele>
        <time>2020-11-11T14:27:00Z</time>
      </trkpt>
      <trkpt lat="28.3551720" lon="-16.4945470">
        <ele>1161.9</ele>
        <time>2020-11-11T14:27:01Z</time>
      </trkpt>
      <trkpt lat="28.3551720" lon="-16.4945470">
        <ele>1161.9</ele>
        <time>2020-11-11T14:27:02Z</time>
      </trkpt>
      <trkpt lat="28.3550600" lon="-16.4945630">
        <ele>1161.9</ele>
        <time>2020-11-11T14:27:03Z</time>
      </trkpt>
      <trkpt lat="28.3550600" lon="-16.4945630">
        <ele>1161.9</ele>
        <time>2020-11-11T14:27:04Z</time>
      </trkpt>
      <trkpt lat="28.3549480" lon="-16.4945770">
        <ele>1161.9</ele>
        <time>2020-11-11T14:27:05Z</time>
      </trkpt>
      <trkpt lat="28.3549480" lon="-16.4945770">
        <ele>1161.9</ele>
        <time>2020-11-11T14:27:06Z</time>
      </trkpt>
      <trkpt lat="28.3548470" lon="-16.4946070">
        <ele>1161.9</ele>
        <time>2020-11-11T14:27:07Z</time>
      </trkpt>
      <trkpt lat="28.3548470" lon="-16.4946070">
        <ele>1161.9</ele>
        <time>2020-11-11T14:27:08Z</time>
      </trkpt>
      <trkpt lat="28.3547500" lon="-16.4946350">
        <ele>1161.9</ele>
        <time>2020-11-11T14:27:09Z</time>
      </trkpt>
      <trkpt lat="28.3547030" lon="-16.4946450">
        <ele>1161.9</ele>
        <time>2020-11-11T14:27:10Z</time>
      </trkpt>
      <trkpt lat="28.3547030" lon="-16.4946450">
        <ele>1161.9</ele>
        <time>2020-11-11T14:27:11Z</time>
      </trkpt>
      <trkpt lat="28.3546050" lon="-16.4946720">
        <ele>1161.9</ele>
        <time>2020-11-11T14:27:12Z</time>
      </trkpt>
      <trkpt lat="28.3545550" lon="-16.4946800">
        <ele>1161.9</ele>
        <time>2020-11-11T14:27:13Z</time>
      </trkpt>
      <trkpt lat="28.3545550" lon="-16.4946800">
        <ele>1161.9</ele>
        <time>2020-11-11T14:27:14Z</time>
      </trkpt>
      <trkpt lat="28.3544770" lon="-16.4946880">
        <ele>1159.9</ele>
        <time>2020-11-11T14:27:15Z</time>
      </trkpt>
      <trkpt lat="28.3544770" lon="-16.4946880">
        <ele>1159.9</ele>
        <time>2020-11-11T14:27:16Z</time>
      </trkpt>
      <trkpt lat="28.3543730" lon="-16.4946770">
        <ele>1160.9</ele>
        <time>2020-11-11T14:27:17Z</time>
      </trkpt>
      <trkpt lat="28.3543730" lon="-16.4946770">
        <ele>1160.9</ele>
        <time>2020-11-11T14:27:18Z</time>
      </trkpt>
      <trkpt lat="28.3542800" lon="-16.4946600">
        <ele>1160.9</ele>
        <time>2020-11-11T14:27:19Z</time>
      </trkpt>
      <trkpt lat="28.3542800" lon="-16.4946600">
        <ele>1160.9</ele>
        <time>2020-11-11T14:27:20Z</time>
      </trkpt>
      <trkpt lat="28.3542250" lon="-16.4946530">
        <ele>1160.9</ele>
        <time>2020-11-11T14:27:21Z</time>
      </trkpt>
      <trkpt lat="28.3542250" lon="-16.4946530">
        <ele>1160.9</ele>
        <time>2020-11-11T14:27:22Z</time>
      </trkpt>
      <trkpt lat="28.3541700" lon="-16.4946680">
        <ele>1160.9</ele>
        <time>2020-11-11T14:27:23Z</time>
      </trkpt>
      <trkpt lat="28.3541700" lon="-16.4946680">
        <ele>1160.9</ele>
        <time>2020-11-11T14:27:24Z</time>
      </trkpt>
      <trkpt lat="28.3541500" lon="-16.4946930">
        <ele>1160.9</ele>
        <time>2020-11-11T14:27:25Z</time>
      </trkpt>
      <trkpt lat="28.3541500" lon="-16.4946930">
        <ele>1160.9</ele>
        <time>2020-11-11T14:27:26Z</time>
      </trkpt>
      <trkpt lat="28.3541450" lon="-16.4947520">
        <ele>1160.9</ele>
        <time>2020-11-11T14:27:27Z</time>
      </trkpt>
      <trkpt lat="28.3541450" lon="-16.4947520">
        <ele>1160.9</ele>
        <time>2020-11-11T14:27:28Z</time>
      </trkpt>
      <trkpt lat="28.3541650" lon="-16.4948430">
        <ele>1160.9</ele>
        <time>2020-11-11T14:27:29Z</time>
      </trkpt>
      <trkpt lat="28.3541770" lon="-16.4948800">
        <ele>1160.9</ele>
        <time>2020-11-11T14:27:30Z</time>
      </trkpt>
      <trkpt lat="28.3541820" lon="-16.4949170">
        <ele>1160.9</ele>
        <time>2020-11-11T14:27:31Z</time>
      </trkpt>
      <trkpt lat="28.3541820" lon="-16.4949170">
        <ele>1160.9</ele>
        <time>2020-11-11T14:27:32Z</time>
      </trkpt>
      <trkpt lat="28.3542270" lon="-16.4949680">
        <ele>1160.9</ele>
        <time>2020-11-11T14:27:33Z</time>
      </trkpt>
      <trkpt lat="28.3542550" lon="-16.4949880">
        <ele>1160.9</ele>
        <time>2020-11-11T14:27:34Z</time>
      </trkpt>
      <trkpt lat="28.3542550" lon="-16.4949880">
        <ele>1160.9</ele>
        <time>2020-11-11T14:27:35Z</time>
      </trkpt>
      <trkpt lat="28.3543230" lon="-16.4950380">
        <ele>1160.9</ele>
        <time>2020-11-11T14:27:36Z</time>
      </trkpt>
      <trkpt lat="28.3543550" lon="-16.4950670">
        <ele>1160.9</ele>
        <time>2020-11-11T14:27:37Z</time>
      </trkpt>
      <trkpt lat="28.3543550" lon="-16.4950670">
        <ele>1160.9</ele>
        <time>2020-11-11T14:27:38Z</time>
      </trkpt>
      <trkpt lat="28.3544150" lon="-16.4951250">
        <ele>1160.9</ele>
        <time>2020-11-11T14:27:39Z</time>
      </trkpt>
      <trkpt lat="28.3544150" lon="-16.4951250">
        <ele>1161.9</ele>
        <time>2020-11-11T14:27:40Z</time>
      </trkpt>
      <trkpt lat="28.3544280" lon="-16.4951950">
        <ele>1161.9</ele>
        <time>2020-11-11T14:27:41Z</time>
      </trkpt>
      <trkpt lat="28.3544280" lon="-16.4951950">
        <ele>1161.9</ele>
        <time>2020-11-11T14:27:42Z</time>
      </trkpt>
      <trkpt lat="28.3543980" lon="-16.4952780">
        <ele>1161.9</ele>
        <time>2020-11-11T14:27:43Z</time>
      </trkpt>
      <trkpt lat="28.3543980" lon="-16.4952780">
        <ele>1161.9</ele>
        <time>2020-11-11T14:27:44Z</time>
      </trkpt>
      <trkpt lat="28.3544070" lon="-16.4953600">
        <ele>1161.9</ele>
        <time>2020-11-11T14:27:45Z</time>
      </trkpt>
      <trkpt lat="28.3544070" lon="-16.4953600">
        <ele>1161.9</ele>
        <time>2020-11-11T14:27:46Z</time>
      </trkpt>
      <trkpt lat="28.3544020" lon="-16.4954070">
        <ele>1161.9</ele>
        <time>2020-11-11T14:27:47Z</time>
      </trkpt>
      <trkpt lat="28.3544020" lon="-16.4954070">
        <ele>1161.9</ele>
        <time>2020-11-11T14:27:48Z</time>
      </trkpt>
      <trkpt lat="28.3544080" lon="-16.4954500">
        <ele>1161.9</ele>
        <time>2020-11-11T14:27:49Z</time>
      </trkpt>
      <trkpt lat="28.3544080" lon="-16.4954500">
        <ele>1161.9</ele>
        <time>2020-11-11T14:27:50Z</time>
      </trkpt>
      <trkpt lat="28.3544130" lon="-16.4954770">
        <ele>1161.9</ele>
        <time>2020-11-11T14:27:51Z</time>
      </trkpt>
      <trkpt lat="28.3544070" lon="-16.4954870">
        <ele>1161.9</ele>
        <time>2020-11-11T14:27:52Z</time>
      </trkpt>
      <trkpt lat="28.3544070" lon="-16.4954870">
        <ele>1161.9</ele>
        <time>2020-11-11T14:27:53Z</time>
      </trkpt>
      <trkpt lat="28.3544180" lon="-16.4954980">
        <ele>1161.9</ele>
        <time>2020-11-11T14:27:54Z</time>
      </trkpt>
      <trkpt lat="28.3544270" lon="-16.4955000">
        <ele>1161.9</ele>
        <time>2020-11-11T14:27:55Z</time>
      </trkpt>
      <trkpt lat="28.3544270" lon="-16.4955000">
        <ele>1161.9</ele>
        <time>2020-11-11T14:27:56Z</time>
      </trkpt>
      <trkpt lat="28.3544270" lon="-16.4955000">
        <ele>1161.9</ele>
        <time>2020-11-11T14:27:57Z</time>
      </trkpt>
      <trkpt lat="28.3544270" lon="-16.4955000">
        <ele>1161.9</ele>
        <time>2020-11-11T14:29:52Z</time>
      </trkpt>
      <trkpt lat="28.3543920" lon="-16.4955220">
        <ele>1161.9</ele>
        <time>2020-11-11T14:29:53Z</time>
      </trkpt>
      <trkpt lat="28.3543880" lon="-16.4955100">
        <ele>1161.9</ele>
        <time>2020-11-11T14:29:54Z</time>
      </trkpt>
      <trkpt lat="28.3543820" lon="-16.4954970">
        <ele>1161.9</ele>
        <time>2020-11-11T14:29:55Z</time>
      </trkpt>
      <trkpt lat="28.3543820" lon="-16.4954970">
        <ele>1161.9</ele>
        <time>2020-11-11T14:29:56Z</time>
      </trkpt>
      <trkpt lat="28.3543750" lon="-16.4954800">
        <ele>1161.9</ele>
        <time>2020-11-11T14:29:57Z</time>
      </trkpt>
      <trkpt lat="28.3543750" lon="-16.4954800">
        <ele>1161.9</ele>
        <time>2020-11-11T14:29:58Z</time>
      </trkpt>
      <trkpt lat="28.3543630" lon="-16.4954770">
        <ele>1161.9</ele>
        <time>2020-11-11T14:29:59Z</time>
      </trkpt>
      <trkpt lat="28.3543630" lon="-16.4954770">
        <ele>1161.9</ele>
        <time>2020-11-11T14:30:00Z</time>
      </trkpt>
      <trkpt lat="28.3543630" lon="-16.4954770">
        <ele>1161.9</ele>
        <time>2020-11-11T14:30:12Z</time>
      </trkpt>
      <trkpt lat="28.3543570" lon="-16.4955070">
        <ele>1162.9</ele>
        <time>2020-11-11T14:30:13Z</time>
      </trkpt>
      <trkpt lat="28.3543570" lon="-16.4955070">
        <ele>1162.9</ele>
        <time>2020-11-11T14:30:14Z</time>
      </trkpt>
      <trkpt lat="28.3543900" lon="-16.4955050">
        <ele>1162.9</ele>
        <time>2020-11-11T14:33:40Z</time>
      </trkpt>
      <trkpt lat="28.3543900" lon="-16.4955050">
        <ele>1162.9</ele>
        <time>2020-11-11T14:33:41Z</time>
      </trkpt>
      <trkpt lat="28.3543820" lon="-16.4955080">
        <ele>1162.9</ele>
        <time>2020-11-11T14:33:42Z</time>
      </trkpt>
      <trkpt lat="28.3543820" lon="-16.4955080">
        <ele>1162.9</ele>
        <time>2020-11-11T14:56:58Z</time>
      </trkpt>
      <trkpt lat="28.3543950" lon="-16.4955580">
        <ele>1162.9</ele>
        <time>2020-11-11T14:56:59Z</time>
      </trkpt>
      <trkpt lat="28.3543950" lon="-16.4955580">
        <ele>1162.9</ele>
        <time>2020-11-11T14:57:00Z</time>
      </trkpt>
      <trkpt lat="28.3544030" lon="-16.4955480">
        <ele>1160.9</ele>
        <time>2020-11-11T14:57:01Z</time>
      </trkpt>
      <trkpt lat="28.3544030" lon="-16.4955480">
        <ele>1160.9</ele>
        <time>2020-11-11T14:57:02Z</time>
      </trkpt>
      <trkpt lat="28.3544070" lon="-16.4955480">
        <ele>1160.9</ele>
        <time>2020-11-11T14:57:03Z</time>
      </trkpt>
      <trkpt lat="28.3544070" lon="-16.4955480">
        <ele>1160.9</ele>
        <time>2020-11-11T14:57:07Z</time>
      </trkpt>
      <trkpt lat="28.3544570" lon="-16.4955770">
        <ele>1160.9</ele>
        <time>2020-11-11T14:57:08Z</time>
      </trkpt>
      <trkpt lat="28.3544570" lon="-16.4955770">
        <ele>1160.9</ele>
        <time>2020-11-11T14:57:09Z</time>
      </trkpt>
      <trkpt lat="28.3544700" lon="-16.4955530">
        <ele>1160.9</ele>
        <time>2020-11-11T14:57:10Z</time>
      </trkpt>
      <trkpt lat="28.3544700" lon="-16.4955530">
        <ele>1160.9</ele>
        <time>2020-11-11T14:57:11Z</time>
      </trkpt>
      <trkpt lat="28.3545180" lon="-16.4955620">
        <ele>1160.9</ele>
        <time>2020-11-11T14:57:12Z</time>
      </trkpt>
      <trkpt lat="28.3545180" lon="-16.4955620">
        <ele>1160.9</ele>
        <time>2020-11-11T14:57:13Z</time>
      </trkpt>
      <trkpt lat="28.3545450" lon="-16.4955830">
        <ele>1160.9</ele>
        <time>2020-11-11T14:57:14Z</time>
      </trkpt>
      <trkpt lat="28.3545450" lon="-16.4955830">
        <ele>1160.9</ele>
        <time>2020-11-11T14:57:15Z</time>
      </trkpt>
      <trkpt lat="28.3545730" lon="-16.4956070">
        <ele>1160.9</ele>
        <time>2020-11-11T14:57:16Z</time>
      </trkpt>
      <trkpt lat="28.3545730" lon="-16.4956070">
        <ele>1160.9</ele>
        <time>2020-11-11T14:57:17Z</time>
      </trkpt>
      <trkpt lat="28.3545920" lon="-16.4956420">
        <ele>1160.9</ele>
        <time>2020-11-11T14:57:18Z</time>
      </trkpt>
      <trkpt lat="28.3546020" lon="-16.4956650">
        <ele>1160.9</ele>
        <time>2020-11-11T14:57:19Z</time>
      </trkpt>
      <trkpt lat="28.3546020" lon="-16.4956650">
        <ele>1160.9</ele>
        <time>2020-11-11T14:57:20Z</time>
      </trkpt>
      <trkpt lat="28.3546200" lon="-16.4956980">
        <ele>1160.9</ele>
        <time>2020-11-11T14:57:21Z</time>
      </trkpt>
      <trkpt lat="28.3546200" lon="-16.4956980">
        <ele>1160.9</ele>
        <time>2020-11-11T14:57:22Z</time>
      </trkpt>
      <trkpt lat="28.3546300" lon="-16.4957270">
        <ele>1160.9</ele>
        <time>2020-11-11T14:57:23Z</time>
      </trkpt>
      <trkpt lat="28.3546300" lon="-16.4957270">
        <ele>1157.9</ele>
        <time>2020-11-11T14:57:24Z</time>
      </trkpt>
      <trkpt lat="28.3546430" lon="-16.4957520">
        <ele>1157.9</ele>
        <time>2020-11-11T14:57:25Z</time>
      </trkpt>
      <trkpt lat="28.3546430" lon="-16.4957520">
        <ele>1159.9</ele>
        <time>2020-11-11T14:57:26Z</time>
      </trkpt>
      <trkpt lat="28.3546550" lon="-16.4957850">
        <ele>1159.9</ele>
        <time>2020-11-11T14:57:27Z</time>
      </trkpt>
      <trkpt lat="28.3546550" lon="-16.4957850">
        <ele>1160.9</ele>
        <time>2020-11-11T14:57:28Z</time>
      </trkpt>
      <trkpt lat="28.3546730" lon="-16.4958380">
        <ele>1160.9</ele>
        <time>2020-11-11T14:57:29Z</time>
      </trkpt>
      <trkpt lat="28.3546730" lon="-16.4958380">
        <ele>1160.9</ele>
        <time>2020-11-11T14:57:30Z</time>
      </trkpt>
      <trkpt lat="28.3546930" lon="-16.4959080">
        <ele>1160.9</ele>
        <time>2020-11-11T14:57:31Z</time>
      </trkpt>
      <trkpt lat="28.3546930" lon="-16.4959080">
        <ele>1160.9</ele>
        <time>2020-11-11T14:57:32Z</time>
      </trkpt>
      <trkpt lat="28.3547180" lon="-16.4959770">
        <ele>1160.9</ele>
        <time>2020-11-11T14:57:33Z</time>
      </trkpt>
      <trkpt lat="28.3547180" lon="-16.4959770">
        <ele>1160.9</ele>
        <time>2020-11-11T14:57:34Z</time>
      </trkpt>
      <trkpt lat="28.3547380" lon="-16.4960480">
        <ele>1160.9</ele>
        <time>2020-11-11T14:57:35Z</time>
      </trkpt>
      <trkpt lat="28.3547380" lon="-16.4960480">
        <ele>1160.9</ele>
        <time>2020-11-11T14:57:36Z</time>
      </trkpt>
      <trkpt lat="28.3547700" lon="-16.4961170">
        <ele>1160.9</ele>
        <time>2020-11-11T14:57:37Z</time>
      </trkpt>
      <trkpt lat="28.3547700" lon="-16.4961170">
        <ele>1160.9</ele>
        <time>2020-11-11T14:57:38Z</time>
      </trkpt>
      <trkpt lat="28.3548120" lon="-16.4961770">
        <ele>1160.9</ele>
        <time>2020-11-11T14:57:39Z</time>
      </trkpt>
      <trkpt lat="28.3548120" lon="-16.4961770">
        <ele>1160.9</ele>
        <time>2020-11-11T14:57:40Z</time>
      </trkpt>
      <trkpt lat="28.3548620" lon="-16.4962200">
        <ele>1160.9</ele>
        <time>2020-11-11T14:57:41Z</time>
      </trkpt>
      <trkpt lat="28.3548620" lon="-16.4962200">
        <ele>1160.9</ele>
        <time>2020-11-11T14:57:42Z</time>
      </trkpt>
      <trkpt lat="28.3549170" lon="-16.4962700">
        <ele>1160.9</ele>
        <time>2020-11-11T14:57:43Z</time>
      </trkpt>
      <trkpt lat="28.3549170" lon="-16.4962700">
        <ele>1160.9</ele>
        <time>2020-11-11T14:57:44Z</time>
      </trkpt>
      <trkpt lat="28.3549430" lon="-16.4963280">
        <ele>1160.9</ele>
        <time>2020-11-11T14:57:45Z</time>
      </trkpt>
      <trkpt lat="28.3549550" lon="-16.4963500">
        <ele>1160.9</ele>
        <time>2020-11-11T14:57:46Z</time>
      </trkpt>
      <trkpt lat="28.3549550" lon="-16.4963500">
        <ele>1160.9</ele>
        <time>2020-11-11T14:57:47Z</time>
      </trkpt>
      <trkpt lat="28.3550000" lon="-16.4963950">
        <ele>1160.9</ele>
        <time>2020-11-11T14:57:48Z</time>
      </trkpt>
      <trkpt lat="28.3550000" lon="-16.4963950">
        <ele>1160.9</ele>
        <time>2020-11-11T14:57:49Z</time>
      </trkpt>
      <trkpt lat="28.3550420" lon="-16.4964450">
        <ele>1160.9</ele>
        <time>2020-11-11T14:57:50Z</time>
      </trkpt>
      <trkpt lat="28.3550650" lon="-16.4964600">
        <ele>1161.9</ele>
        <time>2020-11-11T14:57:51Z</time>
      </trkpt>
      <trkpt lat="28.3550650" lon="-16.4964600">
        <ele>1161.9</ele>
        <time>2020-11-11T14:57:52Z</time>
      </trkpt>
      <trkpt lat="28.3550980" lon="-16.4964980">
        <ele>1161.9</ele>
        <time>2020-11-11T14:57:53Z</time>
      </trkpt>
      <trkpt lat="28.3550980" lon="-16.4964980">
        <ele>1161.9</ele>
        <time>2020-11-11T14:57:54Z</time>
      </trkpt>
      <trkpt lat="28.3551350" lon="-16.4965270">
        <ele>1161.9</ele>
        <time>2020-11-11T14:57:55Z</time>
      </trkpt>
      <trkpt lat="28.3551350" lon="-16.4965270">
        <ele>1161.9</ele>
        <time>2020-11-11T14:57:56Z</time>
      </trkpt>
      <trkpt lat="28.3551730" lon="-16.4965670">
        <ele>1161.9</ele>
        <time>2020-11-11T14:57:57Z</time>
      </trkpt>
      <trkpt lat="28.3551730" lon="-16.4965670">
        <ele>1161.9</ele>
        <time>2020-11-11T14:57:58Z</time>
      </trkpt>
      <trkpt lat="28.3552050" lon="-16.4966080">
        <ele>1161.9</ele>
        <time>2020-11-11T14:57:59Z</time>
      </trkpt>
      <trkpt lat="28.3552050" lon="-16.4966080">
        <ele>1161.9</ele>
        <time>2020-11-11T14:58:00Z</time>
      </trkpt>
      <trkpt lat="28.3552420" lon="-16.4966420">
        <ele>1161.9</ele>
        <time>2020-11-11T14:58:01Z</time>
      </trkpt>
      <trkpt lat="28.3552420" lon="-16.4966420">
        <ele>1161.9</ele>
        <time>2020-11-11T14:58:02Z</time>
      </trkpt>
      <trkpt lat="28.3552780" lon="-16.4966570">
        <ele>1161.9</ele>
        <time>2020-11-11T14:58:03Z</time>
      </trkpt>
      <trkpt lat="28.3552780" lon="-16.4966570">
        <ele>1161.9</ele>
        <time>2020-11-11T14:58:04Z</time>
      </trkpt>
      <trkpt lat="28.3553070" lon="-16.4966800">
        <ele>1162.9</ele>
        <time>2020-11-11T14:58:05Z</time>
      </trkpt>
      <trkpt lat="28.3553070" lon="-16.4966800">
        <ele>1162.9</ele>
        <time>2020-11-11T14:58:06Z</time>
      </trkpt>
      <trkpt lat="28.3553350" lon="-16.4967080">
        <ele>1162.9</ele>
        <time>2020-11-11T14:58:07Z</time>
      </trkpt>
      <trkpt lat="28.3553350" lon="-16.4967080">
        <ele>1162.9</ele>
        <time>2020-11-11T14:58:08Z</time>
      </trkpt>
      <trkpt lat="28.3553630" lon="-16.4967270">
        <ele>1162.9</ele>
        <time>2020-11-11T14:58:09Z</time>
      </trkpt>
      <trkpt lat="28.3553630" lon="-16.4967270">
        <ele>1162.9</ele>
        <time>2020-11-11T14:58:10Z</time>
      </trkpt>
      <trkpt lat="28.3553870" lon="-16.4967570">
        <ele>1163.9</ele>
        <time>2020-11-11T14:58:11Z</time>
      </trkpt>
      <trkpt lat="28.3553870" lon="-16.4967570">
        <ele>1163.9</ele>
        <time>2020-11-11T14:58:12Z</time>
      </trkpt>
      <trkpt lat="28.3554180" lon="-16.4967870">
        <ele>1163.9</ele>
        <time>2020-11-11T14:58:13Z</time>
      </trkpt>
      <trkpt lat="28.3554180" lon="-16.4967870">
        <ele>1163.9</ele>
        <time>2020-11-11T14:58:14Z</time>
      </trkpt>
      <trkpt lat="28.3554480" lon="-16.4968200">
        <ele>1163.9</ele>
        <time>2020-11-11T14:58:15Z</time>
      </trkpt>
      <trkpt lat="28.3554480" lon="-16.4968200">
        <ele>1163.9</ele>
        <time>2020-11-11T14:58:16Z</time>
      </trkpt>
      <trkpt lat="28.3554830" lon="-16.4968470">
        <ele>1163.9</ele>
        <time>2020-11-11T14:58:17Z</time>
      </trkpt>
      <trkpt lat="28.3554830" lon="-16.4968470">
        <ele>1164.9</ele>
        <time>2020-11-11T14:58:18Z</time>
      </trkpt>
      <trkpt lat="28.3555100" lon="-16.4968750">
        <ele>1164.9</ele>
        <time>2020-11-11T14:58:19Z</time>
      </trkpt>
      <trkpt lat="28.3555100" lon="-16.4968750">
        <ele>1164.9</ele>
        <time>2020-11-11T14:58:20Z</time>
      </trkpt>
      <trkpt lat="28.3555380" lon="-16.4969050">
        <ele>1164.9</ele>
        <time>2020-11-11T14:58:21Z</time>
      </trkpt>
      <trkpt lat="28.3555380" lon="-16.4969050">
        <ele>1165.9</ele>
        <time>2020-11-11T14:58:22Z</time>
      </trkpt>
      <trkpt lat="28.3555600" lon="-16.4969430">
        <ele>1165.9</ele>
        <time>2020-11-11T14:58:23Z</time>
      </trkpt>
      <trkpt lat="28.3555600" lon="-16.4969430">
        <ele>1165.9</ele>
        <time>2020-11-11T14:58:24Z</time>
      </trkpt>
      <trkpt lat="28.3555830" lon="-16.4969830">
        <ele>1165.9</ele>
        <time>2020-11-11T14:58:25Z</time>
      </trkpt>
      <trkpt lat="28.3555830" lon="-16.4969830">
        <ele>1165.9</ele>
        <time>2020-11-11T14:58:26Z</time>
      </trkpt>
      <trkpt lat="28.3556030" lon="-16.4970250">
        <ele>1165.9</ele>
        <time>2020-11-11T14:58:27Z</time>
      </trkpt>
      <trkpt lat="28.3556030" lon="-16.4970250">
        <ele>1165.9</ele>
        <time>2020-11-11T14:58:28Z</time>
      </trkpt>
      <trkpt lat="28.3556280" lon="-16.4970770">
        <ele>1165.9</ele>
        <time>2020-11-11T14:58:29Z</time>
      </trkpt>
      <trkpt lat="28.3556280" lon="-16.4970770">
        <ele>1165.9</ele>
        <time>2020-11-11T14:58:30Z</time>
      </trkpt>
      <trkpt lat="28.3556570" lon="-16.4971330">
        <ele>1165.9</ele>
        <time>2020-11-11T14:58:31Z</time>
      </trkpt>
      <trkpt lat="28.3556570" lon="-16.4971330">
        <ele>1165.9</ele>
        <time>2020-11-11T14:58:32Z</time>
      </trkpt>
      <trkpt lat="28.3556770" lon="-16.4971950">
        <ele>1165.9</ele>
        <time>2020-11-11T14:58:33Z</time>
      </trkpt>
      <trkpt lat="28.3556770" lon="-16.4971950">
        <ele>1165.9</ele>
        <time>2020-11-11T14:58:34Z</time>
      </trkpt>
      <trkpt lat="28.3556930" lon="-16.4972580">
        <ele>1165.9</ele>
        <time>2020-11-11T14:58:35Z</time>
      </trkpt>
      <trkpt lat="28.3556930" lon="-16.4972580">
        <ele>1165.9</ele>
        <time>2020-11-11T14:58:36Z</time>
      </trkpt>
      <trkpt lat="28.3557180" lon="-16.4973080">
        <ele>1165.9</ele>
        <time>2020-11-11T14:58:37Z</time>
      </trkpt>
      <trkpt lat="28.3557180" lon="-16.4973080">
        <ele>1165.9</ele>
        <time>2020-11-11T14:58:38Z</time>
      </trkpt>
      <trkpt lat="28.3557430" lon="-16.4973700">
        <ele>1165.9</ele>
        <time>2020-11-11T14:58:39Z</time>
      </trkpt>
      <trkpt lat="28.3557430" lon="-16.4973700">
        <ele>1165.9</ele>
        <time>2020-11-11T14:58:40Z</time>
      </trkpt>
      <trkpt lat="28.3557680" lon="-16.4974200">
        <ele>1165.9</ele>
        <time>2020-11-11T14:58:41Z</time>
      </trkpt>
      <trkpt lat="28.3557680" lon="-16.4974200">
        <ele>1165.9</ele>
        <time>2020-11-11T14:58:42Z</time>
      </trkpt>
      <trkpt lat="28.3557720" lon="-16.4974880">
        <ele>1165.9</ele>
        <time>2020-11-11T14:58:43Z</time>
      </trkpt>
      <trkpt lat="28.3557720" lon="-16.4974880">
        <ele>1165.9</ele>
        <time>2020-11-11T14:58:44Z</time>
      </trkpt>
      <trkpt lat="28.3557950" lon="-16.4975620">
        <ele>1165.9</ele>
        <time>2020-11-11T14:58:45Z</time>
      </trkpt>
      <trkpt lat="28.3557950" lon="-16.4975620">
        <ele>1165.9</ele>
        <time>2020-11-11T14:58:46Z</time>
      </trkpt>
      <trkpt lat="28.3558170" lon="-16.4976300">
        <ele>1165.9</ele>
        <time>2020-11-11T14:58:47Z</time>
      </trkpt>
      <trkpt lat="28.3558350" lon="-16.4976620">
        <ele>1165.9</ele>
        <time>2020-11-11T14:58:48Z</time>
      </trkpt>
      <trkpt lat="28.3558530" lon="-16.4976900">
        <ele>1165.9</ele>
        <time>2020-11-11T14:58:49Z</time>
      </trkpt>
      <trkpt lat="28.3558530" lon="-16.4976900">
        <ele>1165.9</ele>
        <time>2020-11-11T14:58:50Z</time>
      </trkpt>
      <trkpt lat="28.3558800" lon="-16.4977420">
        <ele>1165.9</ele>
        <time>2020-11-11T14:58:51Z</time>
      </trkpt>
      <trkpt lat="28.3559030" lon="-16.4977720">
        <ele>1165.9</ele>
        <time>2020-11-11T14:58:52Z</time>
      </trkpt>
      <trkpt lat="28.3559030" lon="-16.4977720">
        <ele>1165.9</ele>
        <time>2020-11-11T14:58:53Z</time>
      </trkpt>
      <trkpt lat="28.3559470" lon="-16.4978280">
        <ele>1165.9</ele>
        <time>2020-11-11T14:58:54Z</time>
      </trkpt>
      <trkpt lat="28.3559470" lon="-16.4978280">
        <ele>1165.9</ele>
        <time>2020-11-11T14:58:55Z</time>
      </trkpt>
      <trkpt lat="28.3559850" lon="-16.4978800">
        <ele>1165.9</ele>
        <time>2020-11-11T14:58:56Z</time>
      </trkpt>
      <trkpt lat="28.3559850" lon="-16.4978800">
        <ele>1165.9</ele>
        <time>2020-11-11T14:58:57Z</time>
      </trkpt>
      <trkpt lat="28.3560300" lon="-16.4979280">
        <ele>1165.9</ele>
        <time>2020-11-11T14:58:58Z</time>
      </trkpt>
      <trkpt lat="28.3560300" lon="-16.4979280">
        <ele>1165.9</ele>
        <time>2020-11-11T14:58:59Z</time>
      </trkpt>
      <trkpt lat="28.3560780" lon="-16.4979600">
        <ele>1165.9</ele>
        <time>2020-11-11T14:59:00Z</time>
      </trkpt>
      <trkpt lat="28.3560780" lon="-16.4979600">
        <ele>1165.9</ele>
        <time>2020-11-11T14:59:01Z</time>
      </trkpt>
      <trkpt lat="28.3561180" lon="-16.4979970">
        <ele>1165.9</ele>
        <time>2020-11-11T14:59:02Z</time>
      </trkpt>
      <trkpt lat="28.3561320" lon="-16.4980100">
        <ele>1165.9</ele>
        <time>2020-11-11T14:59:03Z</time>
      </trkpt>
      <trkpt lat="28.3561320" lon="-16.4980100">
        <ele>1166.9</ele>
        <time>2020-11-11T14:59:04Z</time>
      </trkpt>
      <trkpt lat="28.3561780" lon="-16.4980530">
        <ele>1166.9</ele>
        <time>2020-11-11T14:59:05Z</time>
      </trkpt>
      <trkpt lat="28.3561780" lon="-16.4980530">
        <ele>1166.9</ele>
        <time>2020-11-11T14:59:06Z</time>
      </trkpt>
      <trkpt lat="28.3562080" lon="-16.4981100">
        <ele>1166.9</ele>
        <time>2020-11-11T14:59:07Z</time>
      </trkpt>
      <trkpt lat="28.3562080" lon="-16.4981100">
        <ele>1166.9</ele>
        <time>2020-11-11T14:59:08Z</time>
      </trkpt>
      <trkpt lat="28.3562380" lon="-16.4981680">
        <ele>1166.9</ele>
        <time>2020-11-11T14:59:09Z</time>
      </trkpt>
      <trkpt lat="28.3562580" lon="-16.4981970">
        <ele>1166.9</ele>
        <time>2020-11-11T14:59:10Z</time>
      </trkpt>
      <trkpt lat="28.3562580" lon="-16.4981970">
        <ele>1166.9</ele>
        <time>2020-11-11T14:59:11Z</time>
      </trkpt>
      <trkpt lat="28.3563020" lon="-16.4982520">
        <ele>1167.9</ele>
        <time>2020-11-11T14:59:12Z</time>
      </trkpt>
      <trkpt lat="28.3563020" lon="-16.4982520">
        <ele>1167.9</ele>
        <time>2020-11-11T14:59:13Z</time>
      </trkpt>
      <trkpt lat="28.3563650" lon="-16.4983270">
        <ele>1167.9</ele>
        <time>2020-11-11T14:59:14Z</time>
      </trkpt>
      <trkpt lat="28.3563650" lon="-16.4983270">
        <ele>1167.9</ele>
        <time>2020-11-11T14:59:15Z</time>
      </trkpt>
      <trkpt lat="28.3564030" lon="-16.4983900">
        <ele>1167.9</ele>
        <time>2020-11-11T14:59:16Z</time>
      </trkpt>
      <trkpt lat="28.3564030" lon="-16.4983900">
        <ele>1167.9</ele>
        <time>2020-11-11T14:59:17Z</time>
      </trkpt>
      <trkpt lat="28.3564370" lon="-16.4984470">
        <ele>1167.9</ele>
        <time>2020-11-11T14:59:18Z</time>
      </trkpt>
      <trkpt lat="28.3564550" lon="-16.4984750">
        <ele>1167.9</ele>
        <time>2020-11-11T14:59:19Z</time>
      </trkpt>
      <trkpt lat="28.3564550" lon="-16.4984750">
        <ele>1167.9</ele>
        <time>2020-11-11T14:59:20Z</time>
      </trkpt>
      <trkpt lat="28.3564920" lon="-16.4985300">
        <ele>1167.9</ele>
        <time>2020-11-11T14:59:21Z</time>
      </trkpt>
      <trkpt lat="28.3564920" lon="-16.4985300">
        <ele>1167.9</ele>
        <time>2020-11-11T14:59:22Z</time>
      </trkpt>
      <trkpt lat="28.3565280" lon="-16.4985880">
        <ele>1167.9</ele>
        <time>2020-11-11T14:59:23Z</time>
      </trkpt>
      <trkpt lat="28.3565420" lon="-16.4986170">
        <ele>1167.9</ele>
        <time>2020-11-11T14:59:24Z</time>
      </trkpt>
      <trkpt lat="28.3565570" lon="-16.4986480">
        <ele>1167.9</ele>
        <time>2020-11-11T14:59:25Z</time>
      </trkpt>
      <trkpt lat="28.3565570" lon="-16.4986480">
        <ele>1167.9</ele>
        <time>2020-11-11T14:59:26Z</time>
      </trkpt>
      <trkpt lat="28.3565850" lon="-16.4987020">
        <ele>1167.9</ele>
        <time>2020-11-11T14:59:27Z</time>
      </trkpt>
      <trkpt lat="28.3565850" lon="-16.4987020">
        <ele>1167.9</ele>
        <time>2020-11-11T14:59:28Z</time>
      </trkpt>
      <trkpt lat="28.3566250" lon="-16.4987550">
        <ele>1167.9</ele>
        <time>2020-11-11T14:59:29Z</time>
      </trkpt>
      <trkpt lat="28.3566480" lon="-16.4987850">
        <ele>1167.9</ele>
        <time>2020-11-11T14:59:30Z</time>
      </trkpt>
      <trkpt lat="28.3566480" lon="-16.4987850">
        <ele>1167.9</ele>
        <time>2020-11-11T14:59:31Z</time>
      </trkpt>
      <trkpt lat="28.3566870" lon="-16.4988370">
        <ele>1167.9</ele>
        <time>2020-11-11T14:59:32Z</time>
      </trkpt>
      <trkpt lat="28.3566870" lon="-16.4988370">
        <ele>1167.9</ele>
        <time>2020-11-11T14:59:33Z</time>
      </trkpt>
      <trkpt lat="28.3567220" lon="-16.4988900">
        <ele>1167.9</ele>
        <time>2020-11-11T14:59:34Z</time>
      </trkpt>
      <trkpt lat="28.3567220" lon="-16.4988900">
        <ele>1167.9</ele>
        <time>2020-11-11T14:59:35Z</time>
      </trkpt>
      <trkpt lat="28.3567600" lon="-16.4989470">
        <ele>1167.9</ele>
        <time>2020-11-11T14:59:36Z</time>
      </trkpt>
      <trkpt lat="28.3567770" lon="-16.4989780">
        <ele>1167.9</ele>
        <time>2020-11-11T14:59:37Z</time>
      </trkpt>
      <trkpt lat="28.3567770" lon="-16.4989780">
        <ele>1167.9</ele>
        <time>2020-11-11T14:59:38Z</time>
      </trkpt>
      <trkpt lat="28.3568200" lon="-16.4990350">
        <ele>1167.9</ele>
        <time>2020-11-11T14:59:39Z</time>
      </trkpt>
      <trkpt lat="28.3568200" lon="-16.4990350">
        <ele>1167.9</ele>
        <time>2020-11-11T14:59:40Z</time>
      </trkpt>
      <trkpt lat="28.3568580" lon="-16.4991100">
        <ele>1167.9</ele>
        <time>2020-11-11T14:59:41Z</time>
      </trkpt>
      <trkpt lat="28.3568770" lon="-16.4991520">
        <ele>1167.9</ele>
        <time>2020-11-11T14:59:42Z</time>
      </trkpt>
      <trkpt lat="28.3568770" lon="-16.4991520">
        <ele>1167.9</ele>
        <time>2020-11-11T14:59:43Z</time>
      </trkpt>
      <trkpt lat="28.3569020" lon="-16.4992400">
        <ele>1167.9</ele>
        <time>2020-11-11T14:59:44Z</time>
      </trkpt>
      <trkpt lat="28.3569130" lon="-16.4992780">
        <ele>1167.9</ele>
        <time>2020-11-11T14:59:45Z</time>
      </trkpt>
      <trkpt lat="28.3569130" lon="-16.4992780">
        <ele>1167.9</ele>
        <time>2020-11-11T14:59:46Z</time>
      </trkpt>
      <trkpt lat="28.3569320" lon="-16.4993470">
        <ele>1167.9</ele>
        <time>2020-11-11T14:59:47Z</time>
      </trkpt>
      <trkpt lat="28.3569320" lon="-16.4993470">
        <ele>1167.9</ele>
        <time>2020-11-11T14:59:48Z</time>
      </trkpt>
      <trkpt lat="28.3569580" lon="-16.4994080">
        <ele>1167.9</ele>
        <time>2020-11-11T14:59:49Z</time>
      </trkpt>
      <trkpt lat="28.3569580" lon="-16.4994080">
        <ele>1167.9</ele>
        <time>2020-11-11T14:59:50Z</time>
      </trkpt>
      <trkpt lat="28.3569800" lon="-16.4994680">
        <ele>1167.9</ele>
        <time>2020-11-11T14:59:51Z</time>
      </trkpt>
      <trkpt lat="28.3569800" lon="-16.4994680">
        <ele>1167.9</ele>
        <time>2020-11-11T14:59:52Z</time>
      </trkpt>
      <trkpt lat="28.3570320" lon="-16.4995080">
        <ele>1167.9</ele>
        <time>2020-11-11T14:59:53Z</time>
      </trkpt>
      <trkpt lat="28.3570570" lon="-16.4995300">
        <ele>1167.9</ele>
        <time>2020-11-11T14:59:54Z</time>
      </trkpt>
      <trkpt lat="28.3570770" lon="-16.4995530">
        <ele>1167.9</ele>
        <time>2020-11-11T14:59:55Z</time>
      </trkpt>
      <trkpt lat="28.3570770" lon="-16.4995530">
        <ele>1167.9</ele>
        <time>2020-11-11T14:59:56Z</time>
      </trkpt>
      <trkpt lat="28.3571300" lon="-16.4996000">
        <ele>1167.9</ele>
        <time>2020-11-11T14:59:57Z</time>
      </trkpt>
      <trkpt lat="28.3571300" lon="-16.4996000">
        <ele>1167.9</ele>
        <time>2020-11-11T14:59:58Z</time>
      </trkpt>
      <trkpt lat="28.3571850" lon="-16.4996520">
        <ele>1167.9</ele>
        <time>2020-11-11T14:59:59Z</time>
      </trkpt>
      <trkpt lat="28.3572050" lon="-16.4996820">
        <ele>1167.9</ele>
        <time>2020-11-11T15:00:00Z</time>
      </trkpt>
      <trkpt lat="28.3572050" lon="-16.4996820">
        <ele>1168.9</ele>
        <time>2020-11-11T15:00:01Z</time>
      </trkpt>
      <trkpt lat="28.3572530" lon="-16.4997370">
        <ele>1168.9</ele>
        <time>2020-11-11T15:00:02Z</time>
      </trkpt>
      <trkpt lat="28.3572530" lon="-16.4997370">
        <ele>1168.9</ele>
        <time>2020-11-11T15:00:03Z</time>
      </trkpt>
      <trkpt lat="28.3572870" lon="-16.4997980">
        <ele>1168.9</ele>
        <time>2020-11-11T15:00:04Z</time>
      </trkpt>
      <trkpt lat="28.3572870" lon="-16.4997980">
        <ele>1168.9</ele>
        <time>2020-11-11T15:00:05Z</time>
      </trkpt>
      <trkpt lat="28.3573120" lon="-16.4998500">
        <ele>1168.9</ele>
        <time>2020-11-11T15:00:06Z</time>
      </trkpt>
      <trkpt lat="28.3573270" lon="-16.4998820">
        <ele>1168.9</ele>
        <time>2020-11-11T15:00:07Z</time>
      </trkpt>
      <trkpt lat="28.3573270" lon="-16.4998820">
        <ele>1168.9</ele>
        <time>2020-11-11T15:00:08Z</time>
      </trkpt>
      <trkpt lat="28.3573600" lon="-16.4999480">
        <ele>1168.9</ele>
        <time>2020-11-11T15:00:09Z</time>
      </trkpt>
      <trkpt lat="28.3573750" lon="-16.4999830">
        <ele>1168.9</ele>
        <time>2020-11-11T15:00:10Z</time>
      </trkpt>
      <trkpt lat="28.3573750" lon="-16.4999830">
        <ele>1168.9</ele>
        <time>2020-11-11T15:00:11Z</time>
      </trkpt>
      <trkpt lat="28.3574030" lon="-16.5000600">
        <ele>1168.9</ele>
        <time>2020-11-11T15:00:12Z</time>
      </trkpt>
      <trkpt lat="28.3574030" lon="-16.5000600">
        <ele>1168.9</ele>
        <time>2020-11-11T15:00:13Z</time>
      </trkpt>
      <trkpt lat="28.3574380" lon="-16.5001370">
        <ele>1168.9</ele>
        <time>2020-11-11T15:00:14Z</time>
      </trkpt>
      <trkpt lat="28.3574380" lon="-16.5001370">
        <ele>1168.9</ele>
        <time>2020-11-11T15:00:15Z</time>
      </trkpt>
      <trkpt lat="28.3574900" lon="-16.5002170">
        <ele>1168.9</ele>
        <time>2020-11-11T15:00:16Z</time>
      </trkpt>
      <trkpt lat="28.3575130" lon="-16.5002550">
        <ele>1168.9</ele>
        <time>2020-11-11T15:00:17Z</time>
      </trkpt>
      <trkpt lat="28.3575130" lon="-16.5002550">
        <ele>1168.9</ele>
        <time>2020-11-11T15:00:18Z</time>
      </trkpt>
      <trkpt lat="28.3575480" lon="-16.5003330">
        <ele>1168.9</ele>
        <time>2020-11-11T15:00:19Z</time>
      </trkpt>
      <trkpt lat="28.3575480" lon="-16.5003330">
        <ele>1168.9</ele>
        <time>2020-11-11T15:00:20Z</time>
      </trkpt>
      <trkpt lat="28.3575920" lon="-16.5004000">
        <ele>1168.9</ele>
        <time>2020-11-11T15:00:21Z</time>
      </trkpt>
      <trkpt lat="28.3575920" lon="-16.5004000">
        <ele>1168.9</ele>
        <time>2020-11-11T15:00:22Z</time>
      </trkpt>
      <trkpt lat="28.3576280" lon="-16.5004670">
        <ele>1168.9</ele>
        <time>2020-11-11T15:00:23Z</time>
      </trkpt>
      <trkpt lat="28.3576280" lon="-16.5004670">
        <ele>1168.9</ele>
        <time>2020-11-11T15:00:24Z</time>
      </trkpt>
      <trkpt lat="28.3576420" lon="-16.5005100">
        <ele>1168.9</ele>
        <time>2020-11-11T15:00:25Z</time>
      </trkpt>
      <trkpt lat="28.3576420" lon="-16.5005100">
        <ele>1168.9</ele>
        <time>2020-11-11T15:00:26Z</time>
      </trkpt>
      <trkpt lat="28.3576620" lon="-16.5005450">
        <ele>1168.9</ele>
        <time>2020-11-11T15:00:27Z</time>
      </trkpt>
      <trkpt lat="28.3576620" lon="-16.5005450">
        <ele>1168.9</ele>
        <time>2020-11-11T15:00:28Z</time>
      </trkpt>
      <trkpt lat="28.3576870" lon="-16.5005870">
        <ele>1168.9</ele>
        <time>2020-11-11T15:00:29Z</time>
      </trkpt>
      <trkpt lat="28.3576870" lon="-16.5005870">
        <ele>1168.9</ele>
        <time>2020-11-11T15:00:30Z</time>
      </trkpt>
      <trkpt lat="28.3577000" lon="-16.5006230">
        <ele>1168.9</ele>
        <time>2020-11-11T15:00:31Z</time>
      </trkpt>
      <trkpt lat="28.3577000" lon="-16.5006230">
        <ele>1168.9</ele>
        <time>2020-11-11T15:00:32Z</time>
      </trkpt>
      <trkpt lat="28.3577180" lon="-16.5006520">
        <ele>1168.9</ele>
        <time>2020-11-11T15:00:33Z</time>
      </trkpt>
      <trkpt lat="28.3577180" lon="-16.5006520">
        <ele>1168.9</ele>
        <time>2020-11-11T15:00:34Z</time>
      </trkpt>
      <trkpt lat="28.3577330" lon="-16.5006750">
        <ele>1168.9</ele>
        <time>2020-11-11T15:00:35Z</time>
      </trkpt>
      <trkpt lat="28.3577400" lon="-16.5006830">
        <ele>1168.9</ele>
        <time>2020-11-11T15:00:36Z</time>
      </trkpt>
      <trkpt lat="28.3577400" lon="-16.5006830">
        <ele>1168.9</ele>
        <time>2020-11-11T15:00:37Z</time>
      </trkpt>
      <trkpt lat="28.3577630" lon="-16.5007270">
        <ele>1168.9</ele>
        <time>2020-11-11T15:00:38Z</time>
      </trkpt>
      <trkpt lat="28.3577630" lon="-16.5007270">
        <ele>1168.9</ele>
        <time>2020-11-11T15:00:39Z</time>
      </trkpt>
      <trkpt lat="28.3577830" lon="-16.5007580">
        <ele>1168.9</ele>
        <time>2020-11-11T15:00:40Z</time>
      </trkpt>
      <trkpt lat="28.3577830" lon="-16.5007580">
        <ele>1168.9</ele>
        <time>2020-11-11T15:00:41Z</time>
      </trkpt>
      <trkpt lat="28.3578030" lon="-16.5007830">
        <ele>1168.9</ele>
        <time>2020-11-11T15:00:42Z</time>
      </trkpt>
      <trkpt lat="28.3578180" lon="-16.5007820">
        <ele>1168.9</ele>
        <time>2020-11-11T15:00:43Z</time>
      </trkpt>
      <trkpt lat="28.3578180" lon="-16.5007820">
        <ele>1168.9</ele>
        <time>2020-11-11T15:00:44Z</time>
      </trkpt>
      <trkpt lat="28.3578350" lon="-16.5007720">
        <ele>1168.9</ele>
        <time>2020-11-11T15:00:45Z</time>
      </trkpt>
      <trkpt lat="28.3578350" lon="-16.5007720">
        <ele>1168.9</ele>
        <time>2020-11-11T15:00:46Z</time>
      </trkpt>
      <trkpt lat="28.3578350" lon="-16.5007620">
        <ele>1168.9</ele>
        <time>2020-11-11T15:00:47Z</time>
      </trkpt>
      <trkpt lat="28.3578350" lon="-16.5007620">
        <ele>1168.9</ele>
        <time>2020-11-11T15:00:48Z</time>
      </trkpt>
      <trkpt lat="28.3578050" lon="-16.5007530">
        <ele>1168.9</ele>
        <time>2020-11-11T15:00:49Z</time>
      </trkpt>
      <trkpt lat="28.3578050" lon="-16.5007530">
        <ele>1168.9</ele>
        <time>2020-11-11T15:00:50Z</time>
      </trkpt>
      <trkpt lat="28.3577850" lon="-16.5007330">
        <ele>1168.9</ele>
        <time>2020-11-11T15:00:51Z</time>
      </trkpt>
      <trkpt lat="28.3577850" lon="-16.5007330">
        <ele>1168.9</ele>
        <time>2020-11-11T15:00:52Z</time>
      </trkpt>
      <trkpt lat="28.3577530" lon="-16.5007180">
        <ele>1168.9</ele>
        <time>2020-11-11T15:00:53Z</time>
      </trkpt>
      <trkpt lat="28.3577530" lon="-16.5007180">
        <ele>1168.9</ele>
        <time>2020-11-11T15:00:54Z</time>
      </trkpt>
      <trkpt lat="28.3577270" lon="-16.5006980">
        <ele>1168.9</ele>
        <time>2020-11-11T15:00:55Z</time>
      </trkpt>
      <trkpt lat="28.3577270" lon="-16.5006980">
        <ele>1168.9</ele>
        <time>2020-11-11T15:00:56Z</time>
      </trkpt>
      <trkpt lat="28.3577000" lon="-16.5006650">
        <ele>1168.9</ele>
        <time>2020-11-11T15:00:57Z</time>
      </trkpt>
      <trkpt lat="28.3577000" lon="-16.5006650">
        <ele>1168.9</ele>
        <time>2020-11-11T15:00:58Z</time>
      </trkpt>
      <trkpt lat="28.3576700" lon="-16.5006350">
        <ele>1168.9</ele>
        <time>2020-11-11T15:00:59Z</time>
      </trkpt>
      <trkpt lat="28.3576550" lon="-16.5006200">
        <ele>1168.9</ele>
        <time>2020-11-11T15:01:00Z</time>
      </trkpt>
      <trkpt lat="28.3576430" lon="-16.5006070">
        <ele>1168.9</ele>
        <time>2020-11-11T15:01:01Z</time>
      </trkpt>
      <trkpt lat="28.3576430" lon="-16.5006070">
        <ele>1168.9</ele>
        <time>2020-11-11T15:01:02Z</time>
      </trkpt>
      <trkpt lat="28.3576120" lon="-16.5006020">
        <ele>1168.9</ele>
        <time>2020-11-11T15:01:03Z</time>
      </trkpt>
      <trkpt lat="28.3576120" lon="-16.5006020">
        <ele>1168.9</ele>
        <time>2020-11-11T15:01:04Z</time>
      </trkpt>
      <trkpt lat="28.3576020" lon="-16.5005970">
        <ele>1168.9</ele>
        <time>2020-11-11T15:01:05Z</time>
      </trkpt>
      <trkpt lat="28.3576020" lon="-16.5005950">
        <ele>1168.9</ele>
        <time>2020-11-11T15:01:06Z</time>
      </trkpt>
      <trkpt lat="28.3576020" lon="-16.5005950">
        <ele>1168.9</ele>
        <time>2020-11-11T15:01:16Z</time>
      </trkpt>
      <trkpt lat="28.3575970" lon="-16.5006450">
        <ele>1168.9</ele>
        <time>2020-11-11T15:01:17Z</time>
      </trkpt>
      <trkpt lat="28.3575970" lon="-16.5006450">
        <ele>1168.9</ele>
        <time>2020-11-11T15:01:18Z</time>
      </trkpt>
      <trkpt lat="28.3576030" lon="-16.5006530">
        <ele>1168.9</ele>
        <time>2020-11-11T15:01:19Z</time>
      </trkpt>
      <trkpt lat="28.3576030" lon="-16.5006530">
        <ele>1168.9</ele>
        <time>2020-11-11T15:01:20Z</time>
      </trkpt>
      <trkpt lat="28.3576130" lon="-16.5006570">
        <ele>1168.9</ele>
        <time>2020-11-11T15:01:21Z</time>
      </trkpt>
      <trkpt lat="28.3576130" lon="-16.5006570">
        <ele>1168.9</ele>
        <time>2020-11-11T15:01:22Z</time>
      </trkpt>
      <trkpt lat="28.3576200" lon="-16.5006620">
        <ele>1168.9</ele>
        <time>2020-11-11T15:01:26Z</time>
      </trkpt>
      <trkpt lat="28.3576500" lon="-16.5006670">
        <ele>1168.9</ele>
        <time>2020-11-11T15:01:27Z</time>
      </trkpt>
      <trkpt lat="28.3576500" lon="-16.5006670">
        <ele>1168.9</ele>
        <time>2020-11-11T15:01:28Z</time>
      </trkpt>
      <trkpt lat="28.3576650" lon="-16.5006670">
        <ele>1168.9</ele>
        <time>2020-11-11T15:01:29Z</time>
      </trkpt>
      <trkpt lat="28.3576650" lon="-16.5006670">
        <ele>1168.9</ele>
        <time>2020-11-11T15:01:30Z</time>
      </trkpt>
      <trkpt lat="28.3576700" lon="-16.5006650">
        <ele>1168.9</ele>
        <time>2020-11-11T15:01:31Z</time>
      </trkpt>
      <trkpt lat="28.3576700" lon="-16.5006650">
        <ele>1168.9</ele>
        <time>2020-11-11T15:01:32Z</time>
      </trkpt>
      <trkpt lat="28.3576730" lon="-16.5006650">
        <ele>1168.9</ele>
        <time>2020-11-11T15:01:33Z</time>
      </trkpt>
      <trkpt lat="28.3576950" lon="-16.5006850">
        <ele>1168.9</ele>
        <time>2020-11-11T15:01:39Z</time>
      </trkpt>
      <trkpt lat="28.3576950" lon="-16.5006850">
        <ele>1168.9</ele>
        <time>2020-11-11T15:01:40Z</time>
      </trkpt>
      <trkpt lat="28.3577050" lon="-16.5006950">
        <ele>1168.9</ele>
        <time>2020-11-11T15:01:41Z</time>
      </trkpt>
      <trkpt lat="28.3577050" lon="-16.5006950">
        <ele>1168.9</ele>
        <time>2020-11-11T15:01:42Z</time>
      </trkpt>
      <trkpt lat="28.3577100" lon="-16.5007100">
        <ele>1168.9</ele>
        <time>2020-11-11T15:01:43Z</time>
      </trkpt>
      <trkpt lat="28.3577100" lon="-16.5007100">
        <ele>1168.9</ele>
        <time>2020-11-11T15:01:44Z</time>
      </trkpt>
      <trkpt lat="28.3577100" lon="-16.5007080">
        <ele>1168.9</ele>
        <time>2020-11-11T15:01:45Z</time>
      </trkpt>
      <trkpt lat="28.3577100" lon="-16.5007080">
        <ele>1168.9</ele>
        <time>2020-11-11T15:02:02Z</time>
      </trkpt>
      <trkpt lat="28.3577020" lon="-16.5007030">
        <ele>1168.9</ele>
        <time>2020-11-11T15:02:03Z</time>
      </trkpt>
      <trkpt lat="28.3576980" lon="-16.5007020">
        <ele>1168.9</ele>
        <time>2020-11-11T15:02:04Z</time>
      </trkpt>
      <trkpt lat="28.3576980" lon="-16.5007020">
        <ele>1168.9</ele>
        <time>2020-11-11T15:02:14Z</time>
      </trkpt>
      <trkpt lat="28.3576470" lon="-16.5007100">
        <ele>1168.9</ele>
        <time>2020-11-11T15:02:15Z</time>
      </trkpt>
      <trkpt lat="28.3576470" lon="-16.5007100">
        <ele>1168.9</ele>
        <time>2020-11-11T15:02:16Z</time>
      </trkpt>
      <trkpt lat="28.3576250" lon="-16.5007220">
        <ele>1168.9</ele>
        <time>2020-11-11T15:02:17Z</time>
      </trkpt>
      <trkpt lat="28.3576250" lon="-16.5007220">
        <ele>1167.9</ele>
        <time>2020-11-11T15:02:18Z</time>
      </trkpt>
      <trkpt lat="28.3576080" lon="-16.5007330">
        <ele>1167.9</ele>
        <time>2020-11-11T15:02:19Z</time>
      </trkpt>
      <trkpt lat="28.3576080" lon="-16.5007330">
        <ele>1166.9</ele>
        <time>2020-11-11T15:02:20Z</time>
      </trkpt>
      <trkpt lat="28.3575870" lon="-16.5007530">
        <ele>1166.9</ele>
        <time>2020-11-11T15:02:21Z</time>
      </trkpt>
      <trkpt lat="28.3575870" lon="-16.5007530">
        <ele>1165.9</ele>
        <time>2020-11-11T15:02:22Z</time>
      </trkpt>
      <trkpt lat="28.3575670" lon="-16.5007720">
        <ele>1165.9</ele>
        <time>2020-11-11T15:02:23Z</time>
      </trkpt>
      <trkpt lat="28.3575670" lon="-16.5007720">
        <ele>1164.9</ele>
        <time>2020-11-11T15:02:24Z</time>
      </trkpt>
      <trkpt lat="28.3575480" lon="-16.5007900">
        <ele>1164.9</ele>
        <time>2020-11-11T15:02:25Z</time>
      </trkpt>
      <trkpt lat="28.3575480" lon="-16.5007900">
        <ele>1163.9</ele>
        <time>2020-11-11T15:02:26Z</time>
      </trkpt>
      <trkpt lat="28.3575300" lon="-16.5008150">
        <ele>1163.9</ele>
        <time>2020-11-11T15:02:27Z</time>
      </trkpt>
      <trkpt lat="28.3575300" lon="-16.5008150">
        <ele>1163.9</ele>
        <time>2020-11-11T15:02:28Z</time>
      </trkpt>
      <trkpt lat="28.3575130" lon="-16.5008300">
        <ele>1163.9</ele>
        <time>2020-11-11T15:02:29Z</time>
      </trkpt>
      <trkpt lat="28.3575130" lon="-16.5008300">
        <ele>1161.9</ele>
        <time>2020-11-11T15:02:30Z</time>
      </trkpt>
      <trkpt lat="28.3575080" lon="-16.5008870">
        <ele>1161.9</ele>
        <time>2020-11-11T15:02:31Z</time>
      </trkpt>
      <trkpt lat="28.3575080" lon="-16.5008870">
        <ele>1160.9</ele>
        <time>2020-11-11T15:02:32Z</time>
      </trkpt>
      <trkpt lat="28.3575100" lon="-16.5009370">
        <ele>1160.9</ele>
        <time>2020-11-11T15:02:33Z</time>
      </trkpt>
      <trkpt lat="28.3575230" lon="-16.5009580">
        <ele>1160.9</ele>
        <time>2020-11-11T15:02:34Z</time>
      </trkpt>
      <trkpt lat="28.3575230" lon="-16.5009580">
        <ele>1159.9</ele>
        <time>2020-11-11T15:02:35Z</time>
      </trkpt>
      <trkpt lat="28.3575520" lon="-16.5009880">
        <ele>1159.9</ele>
        <time>2020-11-11T15:02:36Z</time>
      </trkpt>
      <trkpt lat="28.3575520" lon="-16.5009880">
        <ele>1159.9</ele>
        <time>2020-11-11T15:02:37Z</time>
      </trkpt>
      <trkpt lat="28.3575720" lon="-16.5010080">
        <ele>1159.9</ele>
        <time>2020-11-11T15:02:38Z</time>
      </trkpt>
      <trkpt lat="28.3575750" lon="-16.5010120">
        <ele>1159.9</ele>
        <time>2020-11-11T15:02:39Z</time>
      </trkpt>
      <trkpt lat="28.3575750" lon="-16.5010120">
        <ele>1159.9</ele>
        <time>2020-11-11T15:02:40Z</time>
      </trkpt>
      <trkpt lat="28.3575830" lon="-16.5010200">
        <ele>1159.9</ele>
        <time>2020-11-11T15:02:41Z</time>
      </trkpt>
      <trkpt lat="28.3575830" lon="-16.5010200">
        <ele>1159.9</ele>
        <time>2020-11-11T15:02:42Z</time>
      </trkpt>
      <trkpt lat="28.3576050" lon="-16.5010330">
        <ele>1159.9</ele>
        <time>2020-11-11T15:02:43Z</time>
      </trkpt>
      <trkpt lat="28.3576050" lon="-16.5010330">
        <ele>1159.9</ele>
        <time>2020-11-11T15:02:44Z</time>
      </trkpt>
      <trkpt lat="28.3576200" lon="-16.5010320">
        <ele>1158.9</ele>
        <time>2020-11-11T15:02:45Z</time>
      </trkpt>
      <trkpt lat="28.3576200" lon="-16.5010320">
        <ele>1158.9</ele>
        <time>2020-11-11T15:02:46Z</time>
      </trkpt>
      <trkpt lat="28.3576220" lon="-16.5010430">
        <ele>1158.9</ele>
        <time>2020-11-11T15:02:47Z</time>
      </trkpt>
      <trkpt lat="28.3576220" lon="-16.5010430">
        <ele>1158.9</ele>
        <time>2020-11-11T15:02:48Z</time>
      </trkpt>
      <trkpt lat="28.3576300" lon="-16.5010530">
        <ele>1158.9</ele>
        <time>2020-11-11T15:02:49Z</time>
      </trkpt>
      <trkpt lat="28.3576300" lon="-16.5010530">
        <ele>1158.9</ele>
        <time>2020-11-11T15:02:50Z</time>
      </trkpt>
      <trkpt lat="28.3576300" lon="-16.5010620">
        <ele>1158.9</ele>
        <time>2020-11-11T15:02:51Z</time>
      </trkpt>
      <trkpt lat="28.3576300" lon="-16.5010620">
        <ele>1158.9</ele>
        <time>2020-11-11T15:03:01Z</time>
      </trkpt>
      <trkpt lat="28.3576300" lon="-16.5010620">
        <ele>1158.9</ele>
        <time>2020-11-11T15:04:26Z</time>
      </trkpt>
      <trkpt lat="28.3576230" lon="-16.5011650">
        <ele>1158.9</ele>
        <time>2020-11-11T15:04:27Z</time>
      </trkpt>
      <trkpt lat="28.3576230" lon="-16.5011650">
        <ele>1158.9</ele>
        <time>2020-11-11T15:04:28Z</time>
      </trkpt>
      <trkpt lat="28.3576120" lon="-16.5011650">
        <ele>1158.9</ele>
        <time>2020-11-11T15:04:29Z</time>
      </trkpt>
      <trkpt lat="28.3575950" lon="-16.5011550">
        <ele>1158.9</ele>
        <time>2020-11-11T15:04:30Z</time>
      </trkpt>
      <trkpt lat="28.3575950" lon="-16.5011550">
        <ele>1158.9</ele>
        <time>2020-11-11T15:04:31Z</time>
      </trkpt>
      <trkpt lat="28.3575770" lon="-16.5011380">
        <ele>1158.9</ele>
        <time>2020-11-11T15:04:32Z</time>
      </trkpt>
      <trkpt lat="28.3575770" lon="-16.5011380">
        <ele>1158.9</ele>
        <time>2020-11-11T15:04:33Z</time>
      </trkpt>
      <trkpt lat="28.3575530" lon="-16.5011180">
        <ele>1158.9</ele>
        <time>2020-11-11T15:04:34Z</time>
      </trkpt>
      <trkpt lat="28.3575530" lon="-16.5011180">
        <ele>1158.9</ele>
        <time>2020-11-11T15:04:35Z</time>
      </trkpt>
      <trkpt lat="28.3575450" lon="-16.5010930">
        <ele>1158.9</ele>
        <time>2020-11-11T15:04:36Z</time>
      </trkpt>
      <trkpt lat="28.3575370" lon="-16.5010850">
        <ele>1158.9</ele>
        <time>2020-11-11T15:04:37Z</time>
      </trkpt>
      <trkpt lat="28.3575370" lon="-16.5010850">
        <ele>1158.9</ele>
        <time>2020-11-11T15:04:38Z</time>
      </trkpt>
      <trkpt lat="28.3575230" lon="-16.5010720">
        <ele>1158.9</ele>
        <time>2020-11-11T15:04:39Z</time>
      </trkpt>
      <trkpt lat="28.3575230" lon="-16.5010720">
        <ele>1158.9</ele>
        <time>2020-11-11T15:04:40Z</time>
      </trkpt>
      <trkpt lat="28.3575000" lon="-16.5010530">
        <ele>1158.9</ele>
        <time>2020-11-11T15:04:41Z</time>
      </trkpt>
      <trkpt lat="28.3575000" lon="-16.5010530">
        <ele>1158.9</ele>
        <time>2020-11-11T15:04:42Z</time>
      </trkpt>
      <trkpt lat="28.3574770" lon="-16.5010180">
        <ele>1158.9</ele>
        <time>2020-11-11T15:04:43Z</time>
      </trkpt>
      <trkpt lat="28.3574730" lon="-16.5010000">
        <ele>1158.9</ele>
        <time>2020-11-11T15:04:44Z</time>
      </trkpt>
      <trkpt lat="28.3574730" lon="-16.5010000">
        <ele>1159.9</ele>
        <time>2020-11-11T15:04:45Z</time>
      </trkpt>
      <trkpt lat="28.3574800" lon="-16.5009680">
        <ele>1159.9</ele>
        <time>2020-11-11T15:04:46Z</time>
      </trkpt>
      <trkpt lat="28.3574800" lon="-16.5009680">
        <ele>1159.9</ele>
        <time>2020-11-11T15:04:47Z</time>
      </trkpt>
      <trkpt lat="28.3574930" lon="-16.5009470">
        <ele>1159.9</ele>
        <time>2020-11-11T15:04:48Z</time>
      </trkpt>
      <trkpt lat="28.3575020" lon="-16.5009370">
        <ele>1160.9</ele>
        <time>2020-11-11T15:04:49Z</time>
      </trkpt>
      <trkpt lat="28.3575020" lon="-16.5009370">
        <ele>1160.9</ele>
        <time>2020-11-11T15:04:50Z</time>
      </trkpt>
      <trkpt lat="28.3575320" lon="-16.5009180">
        <ele>1161.9</ele>
        <time>2020-11-11T15:04:51Z</time>
      </trkpt>
      <trkpt lat="28.3575470" lon="-16.5008980">
        <ele>1161.9</ele>
        <time>2020-11-11T15:04:52Z</time>
      </trkpt>
      <trkpt lat="28.3575580" lon="-16.5008800">
        <ele>1161.9</ele>
        <time>2020-11-11T15:04:53Z</time>
      </trkpt>
      <trkpt lat="28.3575580" lon="-16.5008800">
        <ele>1161.9</ele>
        <time>2020-11-11T15:04:54Z</time>
      </trkpt>
      <trkpt lat="28.3575820" lon="-16.5008570">
        <ele>1162.9</ele>
        <time>2020-11-11T15:04:55Z</time>
      </trkpt>
      <trkpt lat="28.3575820" lon="-16.5008570">
        <ele>1162.9</ele>
        <time>2020-11-11T15:04:56Z</time>
      </trkpt>
      <trkpt lat="28.3576020" lon="-16.5008370">
        <ele>1162.9</ele>
        <time>2020-11-11T15:04:57Z</time>
      </trkpt>
      <trkpt lat="28.3576020" lon="-16.5008370">
        <ele>1162.9</ele>
        <time>2020-11-11T15:04:58Z</time>
      </trkpt>
      <trkpt lat="28.3576250" lon="-16.5008170">
        <ele>1164.9</ele>
        <time>2020-11-11T15:04:59Z</time>
      </trkpt>
      <trkpt lat="28.3576250" lon="-16.5008170">
        <ele>1164.9</ele>
        <time>2020-11-11T15:05:00Z</time>
      </trkpt>
      <trkpt lat="28.3576500" lon="-16.5007970">
        <ele>1165.9</ele>
        <time>2020-11-11T15:05:01Z</time>
      </trkpt>
      <trkpt lat="28.3576500" lon="-16.5007970">
        <ele>1165.9</ele>
        <time>2020-11-11T15:05:02Z</time>
      </trkpt>
      <trkpt lat="28.3576850" lon="-16.5007670">
        <ele>1165.9</ele>
        <time>2020-11-11T15:05:03Z</time>
      </trkpt>
      <trkpt lat="28.3576850" lon="-16.5007670">
        <ele>1166.9</ele>
        <time>2020-11-11T15:05:04Z</time>
      </trkpt>
      <trkpt lat="28.3577170" lon="-16.5007430">
        <ele>1166.9</ele>
        <time>2020-11-11T15:05:05Z</time>
      </trkpt>
      <trkpt lat="28.3577270" lon="-16.5007370">
        <ele>1167.9</ele>
        <time>2020-11-11T15:05:06Z</time>
      </trkpt>
      <trkpt lat="28.3577270" lon="-16.5007370">
        <ele>1167.9</ele>
        <time>2020-11-11T15:05:07Z</time>
      </trkpt>
      <trkpt lat="28.3577520" lon="-16.5007320">
        <ele>1167.9</ele>
        <time>2020-11-11T15:05:08Z</time>
      </trkpt>
      <trkpt lat="28.3577630" lon="-16.5007380">
        <ele>1167.9</ele>
        <time>2020-11-11T15:05:09Z</time>
      </trkpt>
      <trkpt lat="28.3577630" lon="-16.5007380">
        <ele>1168.9</ele>
        <time>2020-11-11T15:05:10Z</time>
      </trkpt>
      <trkpt lat="28.3577880" lon="-16.5007620">
        <ele>1168.9</ele>
        <time>2020-11-11T15:05:11Z</time>
      </trkpt>
      <trkpt lat="28.3577880" lon="-16.5007620">
        <ele>1168.9</ele>
        <time>2020-11-11T15:05:12Z</time>
      </trkpt>
      <trkpt lat="28.3578080" lon="-16.5008000">
        <ele>1168.9</ele>
        <time>2020-11-11T15:05:13Z</time>
      </trkpt>
      <trkpt lat="28.3578080" lon="-16.5008000">
        <ele>1168.9</ele>
        <time>2020-11-11T15:05:14Z</time>
      </trkpt>
      <trkpt lat="28.3578220" lon="-16.5008280">
        <ele>1168.9</ele>
        <time>2020-11-11T15:05:15Z</time>
      </trkpt>
      <trkpt lat="28.3578370" lon="-16.5008370">
        <ele>1168.9</ele>
        <time>2020-11-11T15:05:16Z</time>
      </trkpt>
      <trkpt lat="28.3578370" lon="-16.5008370">
        <ele>1168.9</ele>
        <time>2020-11-11T15:05:17Z</time>
      </trkpt>
      <trkpt lat="28.3578680" lon="-16.5008250">
        <ele>1168.9</ele>
        <time>2020-11-11T15:05:18Z</time>
      </trkpt>
      <trkpt lat="28.3578680" lon="-16.5008250">
        <ele>1168.9</ele>
        <time>2020-11-11T15:05:19Z</time>
      </trkpt>
      <trkpt lat="28.3578730" lon="-16.5007950">
        <ele>1168.9</ele>
        <time>2020-11-11T15:05:20Z</time>
      </trkpt>
      <trkpt lat="28.3578730" lon="-16.5007950">
        <ele>1168.9</ele>
        <time>2020-11-11T15:05:21Z</time>
      </trkpt>
      <trkpt lat="28.3578550" lon="-16.5007770">
        <ele>1168.9</ele>
        <time>2020-11-11T15:05:22Z</time>
      </trkpt>
      <trkpt lat="28.3578550" lon="-16.5007770">
        <ele>1168.9</ele>
        <time>2020-11-11T15:05:23Z</time>
      </trkpt>
      <trkpt lat="28.3578400" lon="-16.5007580">
        <ele>1168.9</ele>
        <time>2020-11-11T15:05:24Z</time>
      </trkpt>
      <trkpt lat="28.3578300" lon="-16.5007500">
        <ele>1168.9</ele>
        <time>2020-11-11T15:05:25Z</time>
      </trkpt>
      <trkpt lat="28.3578300" lon="-16.5007500">
        <ele>1168.9</ele>
        <time>2020-11-11T15:05:26Z</time>
      </trkpt>
      <trkpt lat="28.3578070" lon="-16.5007300">
        <ele>1168.9</ele>
        <time>2020-11-11T15:05:27Z</time>
      </trkpt>
      <trkpt lat="28.3578070" lon="-16.5007300">
        <ele>1168.9</ele>
        <time>2020-11-11T15:05:28Z</time>
      </trkpt>
      <trkpt lat="28.3577850" lon="-16.5007130">
        <ele>1168.9</ele>
        <time>2020-11-11T15:05:29Z</time>
      </trkpt>
      <trkpt lat="28.3577850" lon="-16.5007130">
        <ele>1168.9</ele>
        <time>2020-11-11T15:05:30Z</time>
      </trkpt>
      <trkpt lat="28.3577720" lon="-16.5007000">
        <ele>1168.9</ele>
        <time>2020-11-11T15:05:31Z</time>
      </trkpt>
      <trkpt lat="28.3577720" lon="-16.5007000">
        <ele>1168.9</ele>
        <time>2020-11-11T15:05:32Z</time>
      </trkpt>
      <trkpt lat="28.3577700" lon="-16.5006780">
        <ele>1168.9</ele>
        <time>2020-11-11T15:05:33Z</time>
      </trkpt>
      <trkpt lat="28.3577700" lon="-16.5006780">
        <ele>1168.9</ele>
        <time>2020-11-11T15:05:34Z</time>
      </trkpt>
      <trkpt lat="28.3577570" lon="-16.5006520">
        <ele>1168.9</ele>
        <time>2020-11-11T15:05:35Z</time>
      </trkpt>
      <trkpt lat="28.3577370" lon="-16.5006320">
        <ele>1168.9</ele>
        <time>2020-11-11T15:05:36Z</time>
      </trkpt>
      <trkpt lat="28.3577370" lon="-16.5006320">
        <ele>1168.9</ele>
        <time>2020-11-11T15:05:37Z</time>
      </trkpt>
      <trkpt lat="28.3577100" lon="-16.5006380">
        <ele>1168.9</ele>
        <time>2020-11-11T15:05:38Z</time>
      </trkpt>
      <trkpt lat="28.3577070" lon="-16.5006500">
        <ele>1168.9</ele>
        <time>2020-11-11T15:05:39Z</time>
      </trkpt>
      <trkpt lat="28.3577070" lon="-16.5006500">
        <ele>1168.9</ele>
        <time>2020-11-11T15:05:40Z</time>
      </trkpt>
      <trkpt lat="28.3577200" lon="-16.5006530">
        <ele>1168.9</ele>
        <time>2020-11-11T15:05:41Z</time>
      </trkpt>
      <trkpt lat="28.3577200" lon="-16.5006530">
        <ele>1168.9</ele>
        <time>2020-11-11T15:05:42Z</time>
      </trkpt>
      <trkpt lat="28.3577350" lon="-16.5006700">
        <ele>1168.9</ele>
        <time>2020-11-11T15:05:43Z</time>
      </trkpt>
      <trkpt lat="28.3577350" lon="-16.5006700">
        <ele>1168.9</ele>
        <time>2020-11-11T15:05:44Z</time>
      </trkpt>
      <trkpt lat="28.3577620" lon="-16.5007000">
        <ele>1168.9</ele>
        <time>2020-11-11T15:05:45Z</time>
      </trkpt>
      <trkpt lat="28.3577620" lon="-16.5007000">
        <ele>1168.9</ele>
        <time>2020-11-11T15:05:46Z</time>
      </trkpt>
      <trkpt lat="28.3577970" lon="-16.5007550">
        <ele>1168.9</ele>
        <time>2020-11-11T15:05:47Z</time>
      </trkpt>
      <trkpt lat="28.3577970" lon="-16.5007550">
        <ele>1168.9</ele>
        <time>2020-11-11T15:05:48Z</time>
      </trkpt>
      <trkpt lat="28.3578300" lon="-16.5008130">
        <ele>1168.9</ele>
        <time>2020-11-11T15:05:49Z</time>
      </trkpt>
      <trkpt lat="28.3578300" lon="-16.5008130">
        <ele>1168.9</ele>
        <time>2020-11-11T15:05:50Z</time>
      </trkpt>
      <trkpt lat="28.3578600" lon="-16.5008670">
        <ele>1168.9</ele>
        <time>2020-11-11T15:05:51Z</time>
      </trkpt>
      <trkpt lat="28.3578600" lon="-16.5008670">
        <ele>1168.9</ele>
        <time>2020-11-11T15:05:52Z</time>
      </trkpt>
      <trkpt lat="28.3578880" lon="-16.5009150">
        <ele>1168.9</ele>
        <time>2020-11-11T15:05:53Z</time>
      </trkpt>
      <trkpt lat="28.3578880" lon="-16.5009150">
        <ele>1168.9</ele>
        <time>2020-11-11T15:05:54Z</time>
      </trkpt>
      <trkpt lat="28.3579200" lon="-16.5009670">
        <ele>1168.9</ele>
        <time>2020-11-11T15:05:55Z</time>
      </trkpt>
      <trkpt lat="28.3579200" lon="-16.5009670">
        <ele>1168.9</ele>
        <time>2020-11-11T15:05:56Z</time>
      </trkpt>
      <trkpt lat="28.3579420" lon="-16.5010080">
        <ele>1168.9</ele>
        <time>2020-11-11T15:05:57Z</time>
      </trkpt>
      <trkpt lat="28.3579480" lon="-16.5010280">
        <ele>1168.9</ele>
        <time>2020-11-11T15:05:58Z</time>
      </trkpt>
      <trkpt lat="28.3579480" lon="-16.5010280">
        <ele>1168.9</ele>
        <time>2020-11-11T15:05:59Z</time>
      </trkpt>
      <trkpt lat="28.3579720" lon="-16.5010770">
        <ele>1168.9</ele>
        <time>2020-11-11T15:06:00Z</time>
      </trkpt>
      <trkpt lat="28.3579830" lon="-16.5011000">
        <ele>1168.9</ele>
        <time>2020-11-11T15:06:01Z</time>
      </trkpt>
      <trkpt lat="28.3579830" lon="-16.5011000">
        <ele>1168.9</ele>
        <time>2020-11-11T15:06:02Z</time>
      </trkpt>
      <trkpt lat="28.3580050" lon="-16.5011580">
        <ele>1168.9</ele>
        <time>2020-11-11T15:06:03Z</time>
      </trkpt>
      <trkpt lat="28.3580050" lon="-16.5011580">
        <ele>1168.9</ele>
        <time>2020-11-11T15:06:04Z</time>
      </trkpt>
      <trkpt lat="28.3580150" lon="-16.5012180">
        <ele>1168.9</ele>
        <time>2020-11-11T15:06:05Z</time>
      </trkpt>
      <trkpt lat="28.3580150" lon="-16.5012180">
        <ele>1168.9</ele>
        <time>2020-11-11T15:06:06Z</time>
      </trkpt>
      <trkpt lat="28.3580200" lon="-16.5013100">
        <ele>1168.9</ele>
        <time>2020-11-11T15:06:07Z</time>
      </trkpt>
      <trkpt lat="28.3580200" lon="-16.5013100">
        <ele>1168.9</ele>
        <time>2020-11-11T15:06:08Z</time>
      </trkpt>
      <trkpt lat="28.3580380" lon="-16.5013630">
        <ele>1168.9</ele>
        <time>2020-11-11T15:06:09Z</time>
      </trkpt>
      <trkpt lat="28.3580420" lon="-16.5013880">
        <ele>1168.9</ele>
        <time>2020-11-11T15:06:10Z</time>
      </trkpt>
      <trkpt lat="28.3580420" lon="-16.5013880">
        <ele>1168.9</ele>
        <time>2020-11-11T15:06:11Z</time>
      </trkpt>
      <trkpt lat="28.3580500" lon="-16.5014420">
        <ele>1168.9</ele>
        <time>2020-11-11T15:06:12Z</time>
      </trkpt>
      <trkpt lat="28.3580520" lon="-16.5014770">
        <ele>1168.9</ele>
        <time>2020-11-11T15:06:13Z</time>
      </trkpt>
      <trkpt lat="28.3580520" lon="-16.5014770">
        <ele>1168.9</ele>
        <time>2020-11-11T15:06:14Z</time>
      </trkpt>
      <trkpt lat="28.3580570" lon="-16.5015450">
        <ele>1168.9</ele>
        <time>2020-11-11T15:06:15Z</time>
      </trkpt>
      <trkpt lat="28.3580570" lon="-16.5015450">
        <ele>1168.9</ele>
        <time>2020-11-11T15:06:16Z</time>
      </trkpt>
      <trkpt lat="28.3580700" lon="-16.5016200">
        <ele>1168.9</ele>
        <time>2020-11-11T15:06:17Z</time>
      </trkpt>
      <trkpt lat="28.3580700" lon="-16.5016200">
        <ele>1168.9</ele>
        <time>2020-11-11T15:06:18Z</time>
      </trkpt>
      <trkpt lat="28.3580820" lon="-16.5016820">
        <ele>1168.9</ele>
        <time>2020-11-11T15:06:19Z</time>
      </trkpt>
      <trkpt lat="28.3580820" lon="-16.5016820">
        <ele>1168.9</ele>
        <time>2020-11-11T15:06:20Z</time>
      </trkpt>
      <trkpt lat="28.3580750" lon="-16.5017470">
        <ele>1168.9</ele>
        <time>2020-11-11T15:06:21Z</time>
      </trkpt>
      <trkpt lat="28.3580720" lon="-16.5017780">
        <ele>1168.9</ele>
        <time>2020-11-11T15:06:22Z</time>
      </trkpt>
      <trkpt lat="28.3580720" lon="-16.5017780">
        <ele>1168.9</ele>
        <time>2020-11-11T15:06:23Z</time>
      </trkpt>
      <trkpt lat="28.3580670" lon="-16.5018380">
        <ele>1168.9</ele>
        <time>2020-11-11T15:06:24Z</time>
      </trkpt>
      <trkpt lat="28.3580620" lon="-16.5018680">
        <ele>1168.9</ele>
        <time>2020-11-11T15:06:25Z</time>
      </trkpt>
      <trkpt lat="28.3580620" lon="-16.5018680">
        <ele>1168.9</ele>
        <time>2020-11-11T15:06:26Z</time>
      </trkpt>
      <trkpt lat="28.3580430" lon="-16.5019170">
        <ele>1168.9</ele>
        <time>2020-11-11T15:06:27Z</time>
      </trkpt>
      <trkpt lat="28.3580430" lon="-16.5019170">
        <ele>1168.9</ele>
        <time>2020-11-11T15:06:28Z</time>
      </trkpt>
      <trkpt lat="28.3580280" lon="-16.5019620">
        <ele>1168.9</ele>
        <time>2020-11-11T15:06:29Z</time>
      </trkpt>
      <trkpt lat="28.3580280" lon="-16.5019620">
        <ele>1168.9</ele>
        <time>2020-11-11T15:06:30Z</time>
      </trkpt>
      <trkpt lat="28.3580130" lon="-16.5020170">
        <ele>1168.9</ele>
        <time>2020-11-11T15:06:31Z</time>
      </trkpt>
      <trkpt lat="28.3580130" lon="-16.5020170">
        <ele>1168.9</ele>
        <time>2020-11-11T15:06:32Z</time>
      </trkpt>
      <trkpt lat="28.3579970" lon="-16.5020670">
        <ele>1168.9</ele>
        <time>2020-11-11T15:06:33Z</time>
      </trkpt>
      <trkpt lat="28.3579970" lon="-16.5020670">
        <ele>1168.9</ele>
        <time>2020-11-11T15:06:34Z</time>
      </trkpt>
      <trkpt lat="28.3580000" lon="-16.5021130">
        <ele>1168.9</ele>
        <time>2020-11-11T15:06:35Z</time>
      </trkpt>
      <trkpt lat="28.3580130" lon="-16.5021350">
        <ele>1168.9</ele>
        <time>2020-11-11T15:06:36Z</time>
      </trkpt>
      <trkpt lat="28.3580270" lon="-16.5021500">
        <ele>1168.9</ele>
        <time>2020-11-11T15:06:37Z</time>
      </trkpt>
      <trkpt lat="28.3580270" lon="-16.5021500">
        <ele>1168.9</ele>
        <time>2020-11-11T15:06:38Z</time>
      </trkpt>
      <trkpt lat="28.3580770" lon="-16.5021430">
        <ele>1168.9</ele>
        <time>2020-11-11T15:06:39Z</time>
      </trkpt>
      <trkpt lat="28.3580770" lon="-16.5021430">
        <ele>1168.9</ele>
        <time>2020-11-11T15:06:40Z</time>
      </trkpt>
      <trkpt lat="28.3581150" lon="-16.5021100">
        <ele>1168.9</ele>
        <time>2020-11-11T15:06:41Z</time>
      </trkpt>
      <trkpt lat="28.3581350" lon="-16.5020920">
        <ele>1168.9</ele>
        <time>2020-11-11T15:06:42Z</time>
      </trkpt>
      <trkpt lat="28.3581350" lon="-16.5020920">
        <ele>1168.9</ele>
        <time>2020-11-11T15:06:43Z</time>
      </trkpt>
      <trkpt lat="28.3581720" lon="-16.5020530">
        <ele>1168.9</ele>
        <time>2020-11-11T15:06:44Z</time>
      </trkpt>
      <trkpt lat="28.3581720" lon="-16.5020530">
        <ele>1167.9</ele>
        <time>2020-11-11T15:06:45Z</time>
      </trkpt>
      <trkpt lat="28.3582230" lon="-16.5020370">
        <ele>1167.9</ele>
        <time>2020-11-11T15:06:46Z</time>
      </trkpt>
      <trkpt lat="28.3582450" lon="-16.5020330">
        <ele>1167.9</ele>
        <time>2020-11-11T15:06:47Z</time>
      </trkpt>
      <trkpt lat="28.3582450" lon="-16.5020330">
        <ele>1167.9</ele>
        <time>2020-11-11T15:06:48Z</time>
      </trkpt>
      <trkpt lat="28.3582550" lon="-16.5020330">
        <ele>1167.9</ele>
        <time>2020-11-11T15:06:49Z</time>
      </trkpt>
      <trkpt lat="28.3582550" lon="-16.5020330">
        <ele>1166.9</ele>
        <time>2020-11-11T15:06:50Z</time>
      </trkpt>
      <trkpt lat="28.3582550" lon="-16.5020300">
        <ele>1166.9</ele>
        <time>2020-11-11T15:06:51Z</time>
      </trkpt>
      <trkpt lat="28.3582550" lon="-16.5020300">
        <ele>1166.9</ele>
        <time>2020-11-11T15:11:57Z</time>
      </trkpt>
      <trkpt lat="28.3582750" lon="-16.5019620">
        <ele>1166.9</ele>
        <time>2020-11-11T15:11:58Z</time>
      </trkpt>
      <trkpt lat="28.3582750" lon="-16.5019620">
        <ele>1166.9</ele>
        <time>2020-11-11T15:11:59Z</time>
      </trkpt>
      <trkpt lat="28.3582830" lon="-16.5019050">
        <ele>1165.9</ele>
        <time>2020-11-11T15:12:00Z</time>
      </trkpt>
      <trkpt lat="28.3582920" lon="-16.5018700">
        <ele>1165.9</ele>
        <time>2020-11-11T15:12:01Z</time>
      </trkpt>
      <trkpt lat="28.3582920" lon="-16.5018700">
        <ele>1165.9</ele>
        <time>2020-11-11T15:12:02Z</time>
      </trkpt>
      <trkpt lat="28.3583130" lon="-16.5017870">
        <ele>1165.9</ele>
        <time>2020-11-11T15:12:03Z</time>
      </trkpt>
      <trkpt lat="28.3583250" lon="-16.5017370">
        <ele>1165.9</ele>
        <time>2020-11-11T15:12:04Z</time>
      </trkpt>
      <trkpt lat="28.3583250" lon="-16.5017370">
        <ele>1164.9</ele>
        <time>2020-11-11T15:12:05Z</time>
      </trkpt>
      <trkpt lat="28.3583420" lon="-16.5016270">
        <ele>1164.9</ele>
        <time>2020-11-11T15:12:06Z</time>
      </trkpt>
      <trkpt lat="28.3583470" lon="-16.5015620">
        <ele>1164.9</ele>
        <time>2020-11-11T15:12:07Z</time>
      </trkpt>
      <trkpt lat="28.3583470" lon="-16.5015620">
        <ele>1164.9</ele>
        <time>2020-11-11T15:12:08Z</time>
      </trkpt>
      <trkpt lat="28.3583600" lon="-16.5014150">
        <ele>1163.9</ele>
        <time>2020-11-11T15:12:09Z</time>
      </trkpt>
      <trkpt lat="28.3583600" lon="-16.5014150">
        <ele>1163.9</ele>
        <time>2020-11-11T15:12:10Z</time>
      </trkpt>
      <trkpt lat="28.3583700" lon="-16.5012480">
        <ele>1163.9</ele>
        <time>2020-11-11T15:12:11Z</time>
      </trkpt>
      <trkpt lat="28.3583700" lon="-16.5012480">
        <ele>1163.9</ele>
        <time>2020-11-11T15:12:12Z</time>
      </trkpt>
      <trkpt lat="28.3583620" lon="-16.5010750">
        <ele>1161.9</ele>
        <time>2020-11-11T15:12:13Z</time>
      </trkpt>
      <trkpt lat="28.3583620" lon="-16.5010750">
        <ele>1161.9</ele>
        <time>2020-11-11T15:12:14Z</time>
      </trkpt>
      <trkpt lat="28.3583280" lon="-16.5009000">
        <ele>1160.9</ele>
        <time>2020-11-11T15:12:15Z</time>
      </trkpt>
      <trkpt lat="28.3583280" lon="-16.5009000">
        <ele>1160.9</ele>
        <time>2020-11-11T15:12:16Z</time>
      </trkpt>
      <trkpt lat="28.3582520" lon="-16.5007330">
        <ele>1159.9</ele>
        <time>2020-11-11T15:12:17Z</time>
      </trkpt>
      <trkpt lat="28.3582520" lon="-16.5007330">
        <ele>1159.9</ele>
        <time>2020-11-11T15:12:18Z</time>
      </trkpt>
      <trkpt lat="28.3581350" lon="-16.5005750">
        <ele>1158.9</ele>
        <time>2020-11-11T15:12:19Z</time>
      </trkpt>
      <trkpt lat="28.3581350" lon="-16.5005750">
        <ele>1158.9</ele>
        <time>2020-11-11T15:12:20Z</time>
      </trkpt>
      <trkpt lat="28.3580080" lon="-16.5004200">
        <ele>1157.9</ele>
        <time>2020-11-11T15:12:21Z</time>
      </trkpt>
      <trkpt lat="28.3580080" lon="-16.5004200">
        <ele>1157.9</ele>
        <time>2020-11-11T15:12:22Z</time>
      </trkpt>
      <trkpt lat="28.3578870" lon="-16.5002370">
        <ele>1156.9</ele>
        <time>2020-11-11T15:12:23Z</time>
      </trkpt>
      <trkpt lat="28.3578870" lon="-16.5002370">
        <ele>1156.9</ele>
        <time>2020-11-11T15:12:24Z</time>
      </trkpt>
      <trkpt lat="28.3578220" lon="-16.5000100">
        <ele>1155.9</ele>
        <time>2020-11-11T15:12:25Z</time>
      </trkpt>
      <trkpt lat="28.3578220" lon="-16.5000100">
        <ele>1155.9</ele>
        <time>2020-11-11T15:12:26Z</time>
      </trkpt>
      <trkpt lat="28.3577970" lon="-16.4997670">
        <ele>1154.9</ele>
        <time>2020-11-11T15:12:27Z</time>
      </trkpt>
      <trkpt lat="28.3577780" lon="-16.4996480">
        <ele>1154.9</ele>
        <time>2020-11-11T15:12:28Z</time>
      </trkpt>
      <trkpt lat="28.3577780" lon="-16.4996480">
        <ele>1152.9</ele>
        <time>2020-11-11T15:12:29Z</time>
      </trkpt>
      <trkpt lat="28.3577180" lon="-16.4994400">
        <ele>1152.9</ele>
        <time>2020-11-11T15:12:30Z</time>
      </trkpt>
      <trkpt lat="28.3576880" lon="-16.4993470">
        <ele>1150.9</ele>
        <time>2020-11-11T15:12:31Z</time>
      </trkpt>
      <trkpt lat="28.3576880" lon="-16.4993470">
        <ele>1150.9</ele>
        <time>2020-11-11T15:12:32Z</time>
      </trkpt>
      <trkpt lat="28.3576700" lon="-16.4991880">
        <ele>1148.9</ele>
        <time>2020-11-11T15:12:33Z</time>
      </trkpt>
      <trkpt lat="28.3576700" lon="-16.4991880">
        <ele>1148.9</ele>
        <time>2020-11-11T15:12:34Z</time>
      </trkpt>
      <trkpt lat="28.3577530" lon="-16.4991100">
        <ele>1145.9</ele>
        <time>2020-11-11T15:12:35Z</time>
      </trkpt>
      <trkpt lat="28.3578170" lon="-16.4991180">
        <ele>1145.9</ele>
        <time>2020-11-11T15:12:36Z</time>
      </trkpt>
      <trkpt lat="28.3578750" lon="-16.4991480">
        <ele>1144.9</ele>
        <time>2020-11-11T15:12:37Z</time>
      </trkpt>
      <trkpt lat="28.3578750" lon="-16.4991480">
        <ele>1144.9</ele>
        <time>2020-11-11T15:12:38Z</time>
      </trkpt>
      <trkpt lat="28.3579630" lon="-16.4992970">
        <ele>1142.9</ele>
        <time>2020-11-11T15:12:39Z</time>
      </trkpt>
      <trkpt lat="28.3579630" lon="-16.4992970">
        <ele>1142.9</ele>
        <time>2020-11-11T15:12:40Z</time>
      </trkpt>
      <trkpt lat="28.3580480" lon="-16.4994930">
        <ele>1140.9</ele>
        <time>2020-11-11T15:12:41Z</time>
      </trkpt>
      <trkpt lat="28.3580980" lon="-16.4995970">
        <ele>1139.9</ele>
        <time>2020-11-11T15:12:42Z</time>
      </trkpt>
      <trkpt lat="28.3581470" lon="-16.4997000">
        <ele>1139.9</ele>
        <time>2020-11-11T15:12:43Z</time>
      </trkpt>
      <trkpt lat="28.3581470" lon="-16.4997000">
        <ele>1137.9</ele>
        <time>2020-11-11T15:12:44Z</time>
      </trkpt>
      <trkpt lat="28.3582480" lon="-16.4998920">
        <ele>1137.9</ele>
        <time>2020-11-11T15:12:45Z</time>
      </trkpt>
      <trkpt lat="28.3583120" lon="-16.4999580">
        <ele>1135.9</ele>
        <time>2020-11-11T15:12:46Z</time>
      </trkpt>
      <trkpt lat="28.3583120" lon="-16.4999580">
        <ele>1135.9</ele>
        <time>2020-11-11T15:12:47Z</time>
      </trkpt>
      <trkpt lat="28.3584570" lon="-16.5000800">
        <ele>1133.9</ele>
        <time>2020-11-11T15:12:48Z</time>
      </trkpt>
      <trkpt lat="28.3584570" lon="-16.5000800">
        <ele>1133.9</ele>
        <time>2020-11-11T15:12:49Z</time>
      </trkpt>
      <trkpt lat="28.3586270" lon="-16.5002130">
        <ele>1131.9</ele>
        <time>2020-11-11T15:12:50Z</time>
      </trkpt>
      <trkpt lat="28.3586270" lon="-16.5002130">
        <ele>1131.9</ele>
        <time>2020-11-11T15:12:51Z</time>
      </trkpt>
      <trkpt lat="28.3587970" lon="-16.5003700">
        <ele>1130.9</ele>
        <time>2020-11-11T15:12:52Z</time>
      </trkpt>
      <trkpt lat="28.3588750" lon="-16.5004470">
        <ele>1130.9</ele>
        <time>2020-11-11T15:12:53Z</time>
      </trkpt>
      <trkpt lat="28.3588750" lon="-16.5004470">
        <ele>1127.9</ele>
        <time>2020-11-11T15:12:54Z</time>
      </trkpt>
      <trkpt lat="28.3589920" lon="-16.5006250">
        <ele>1127.9</ele>
        <time>2020-11-11T15:12:55Z</time>
      </trkpt>
      <trkpt lat="28.3589920" lon="-16.5006250">
        <ele>1126.9</ele>
        <time>2020-11-11T15:12:56Z</time>
      </trkpt>
      <trkpt lat="28.3591020" lon="-16.5008080">
        <ele>1126.9</ele>
        <time>2020-11-11T15:12:57Z</time>
      </trkpt>
      <trkpt lat="28.3591020" lon="-16.5008080">
        <ele>1124.9</ele>
        <time>2020-11-11T15:12:58Z</time>
      </trkpt>
      <trkpt lat="28.3591720" lon="-16.5010170">
        <ele>1124.9</ele>
        <time>2020-11-11T15:12:59Z</time>
      </trkpt>
      <trkpt lat="28.3591720" lon="-16.5010170">
        <ele>1123.9</ele>
        <time>2020-11-11T15:13:00Z</time>
      </trkpt>
      <trkpt lat="28.3592250" lon="-16.5012330">
        <ele>1123.9</ele>
        <time>2020-11-11T15:13:01Z</time>
      </trkpt>
      <trkpt lat="28.3592250" lon="-16.5012330">
        <ele>1122.9</ele>
        <time>2020-11-11T15:13:02Z</time>
      </trkpt>
      <trkpt lat="28.3592680" lon="-16.5014570">
        <ele>1122.9</ele>
        <time>2020-11-11T15:13:03Z</time>
      </trkpt>
      <trkpt lat="28.3592680" lon="-16.5014570">
        <ele>1120.9</ele>
        <time>2020-11-11T15:13:04Z</time>
      </trkpt>
      <trkpt lat="28.3592730" lon="-16.5017070">
        <ele>1120.9</ele>
        <time>2020-11-11T15:13:05Z</time>
      </trkpt>
      <trkpt lat="28.3592730" lon="-16.5017070">
        <ele>1119.9</ele>
        <time>2020-11-11T15:13:06Z</time>
      </trkpt>
      <trkpt lat="28.3592600" lon="-16.5019680">
        <ele>1119.9</ele>
        <time>2020-11-11T15:13:07Z</time>
      </trkpt>
      <trkpt lat="28.3592600" lon="-16.5019680">
        <ele>1117.9</ele>
        <time>2020-11-11T15:13:08Z</time>
      </trkpt>
      <trkpt lat="28.3592730" lon="-16.5022000">
        <ele>1117.9</ele>
        <time>2020-11-11T15:13:09Z</time>
      </trkpt>
      <trkpt lat="28.3592730" lon="-16.5022000">
        <ele>1115.9</ele>
        <time>2020-11-11T15:13:10Z</time>
      </trkpt>
      <trkpt lat="28.3593350" lon="-16.5024100">
        <ele>1115.9</ele>
        <time>2020-11-11T15:13:11Z</time>
      </trkpt>
      <trkpt lat="28.3593350" lon="-16.5024100">
        <ele>1113.9</ele>
        <time>2020-11-11T15:13:12Z</time>
      </trkpt>
      <trkpt lat="28.3594580" lon="-16.5026230">
        <ele>1113.9</ele>
        <time>2020-11-11T15:13:13Z</time>
      </trkpt>
      <trkpt lat="28.3594580" lon="-16.5026230">
        <ele>1111.9</ele>
        <time>2020-11-11T15:13:14Z</time>
      </trkpt>
      <trkpt lat="28.3596030" lon="-16.5028000">
        <ele>1111.9</ele>
        <time>2020-11-11T15:13:15Z</time>
      </trkpt>
      <trkpt lat="28.3596030" lon="-16.5028000">
        <ele>1109.9</ele>
        <time>2020-11-11T15:13:16Z</time>
      </trkpt>
      <trkpt lat="28.3597220" lon="-16.5029670">
        <ele>1109.9</ele>
        <time>2020-11-11T15:13:17Z</time>
      </trkpt>
      <trkpt lat="28.3597220" lon="-16.5029670">
        <ele>1107.9</ele>
        <time>2020-11-11T15:13:18Z</time>
      </trkpt>
      <trkpt lat="28.3598170" lon="-16.5031000">
        <ele>1105.9</ele>
        <time>2020-11-11T15:13:19Z</time>
      </trkpt>
      <trkpt lat="28.3598170" lon="-16.5031000">
        <ele>1105.9</ele>
        <time>2020-11-11T15:13:20Z</time>
      </trkpt>
      <trkpt lat="28.3599270" lon="-16.5032150">
        <ele>1103.9</ele>
        <time>2020-11-11T15:13:21Z</time>
      </trkpt>
      <trkpt lat="28.3599270" lon="-16.5032150">
        <ele>1103.9</ele>
        <time>2020-11-11T15:13:22Z</time>
      </trkpt>
      <trkpt lat="28.3600080" lon="-16.5032930">
        <ele>1101.9</ele>
        <time>2020-11-11T15:13:23Z</time>
      </trkpt>
      <trkpt lat="28.3600080" lon="-16.5032930">
        <ele>1101.9</ele>
        <time>2020-11-11T15:13:24Z</time>
      </trkpt>
      <trkpt lat="28.3600250" lon="-16.5033620">
        <ele>1099.9</ele>
        <time>2020-11-11T15:13:25Z</time>
      </trkpt>
      <trkpt lat="28.3600280" lon="-16.5033920">
        <ele>1099.9</ele>
        <time>2020-11-11T15:13:26Z</time>
      </trkpt>
      <trkpt lat="28.3600280" lon="-16.5033920">
        <ele>1098.9</ele>
        <time>2020-11-11T15:13:27Z</time>
      </trkpt>
      <trkpt lat="28.3600330" lon="-16.5034480">
        <ele>1098.9</ele>
        <time>2020-11-11T15:13:28Z</time>
      </trkpt>
      <trkpt lat="28.3600280" lon="-16.5034770">
        <ele>1098.9</ele>
        <time>2020-11-11T15:13:29Z</time>
      </trkpt>
      <trkpt lat="28.3600280" lon="-16.5034770">
        <ele>1098.9</ele>
        <time>2020-11-11T15:13:30Z</time>
      </trkpt>
      <trkpt lat="28.3600070" lon="-16.5035380">
        <ele>1098.9</ele>
        <time>2020-11-11T15:13:31Z</time>
      </trkpt>
      <trkpt lat="28.3600070" lon="-16.5035380">
        <ele>1098.9</ele>
        <time>2020-11-11T15:13:32Z</time>
      </trkpt>
      <trkpt lat="28.3599670" lon="-16.5035980">
        <ele>1098.9</ele>
        <time>2020-11-11T15:13:33Z</time>
      </trkpt>
      <trkpt lat="28.3599430" lon="-16.5036230">
        <ele>1098.9</ele>
        <time>2020-11-11T15:13:34Z</time>
      </trkpt>
      <trkpt lat="28.3599430" lon="-16.5036230">
        <ele>1098.9</ele>
        <time>2020-11-11T15:13:35Z</time>
      </trkpt>
      <trkpt lat="28.3598970" lon="-16.5036650">
        <ele>1098.9</ele>
        <time>2020-11-11T15:13:36Z</time>
      </trkpt>
      <trkpt lat="28.3598970" lon="-16.5036650">
        <ele>1098.9</ele>
        <time>2020-11-11T15:13:37Z</time>
      </trkpt>
      <trkpt lat="28.3598500" lon="-16.5037080">
        <ele>1098.9</ele>
        <time>2020-11-11T15:13:38Z</time>
      </trkpt>
      <trkpt lat="28.3598500" lon="-16.5037080">
        <ele>1098.9</ele>
        <time>2020-11-11T15:13:39Z</time>
      </trkpt>
      <trkpt lat="28.3598100" lon="-16.5037680">
        <ele>1098.9</ele>
        <time>2020-11-11T15:13:40Z</time>
      </trkpt>
      <trkpt lat="28.3598100" lon="-16.5037680">
        <ele>1099.9</ele>
        <time>2020-11-11T15:13:41Z</time>
      </trkpt>
      <trkpt lat="28.3597720" lon="-16.5038250">
        <ele>1099.9</ele>
        <time>2020-11-11T15:13:42Z</time>
      </trkpt>
      <trkpt lat="28.3597570" lon="-16.5038570">
        <ele>1099.9</ele>
        <time>2020-11-11T15:13:43Z</time>
      </trkpt>
      <trkpt lat="28.3597570" lon="-16.5038570">
        <ele>1099.9</ele>
        <time>2020-11-11T15:13:44Z</time>
      </trkpt>
      <trkpt lat="28.3597300" lon="-16.5039180">
        <ele>1100.9</ele>
        <time>2020-11-11T15:13:45Z</time>
      </trkpt>
      <trkpt lat="28.3597300" lon="-16.5039180">
        <ele>1100.9</ele>
        <time>2020-11-11T15:13:46Z</time>
      </trkpt>
      <trkpt lat="28.3597050" lon="-16.5039770">
        <ele>1100.9</ele>
        <time>2020-11-11T15:13:47Z</time>
      </trkpt>
      <trkpt lat="28.3596930" lon="-16.5040080">
        <ele>1100.9</ele>
        <time>2020-11-11T15:13:48Z</time>
      </trkpt>
      <trkpt lat="28.3596930" lon="-16.5040080">
        <ele>1100.9</ele>
        <time>2020-11-11T15:13:49Z</time>
      </trkpt>
      <trkpt lat="28.3596630" lon="-16.5040680">
        <ele>1100.9</ele>
        <time>2020-11-11T15:13:50Z</time>
      </trkpt>
      <trkpt lat="28.3596630" lon="-16.5040680">
        <ele>1101.9</ele>
        <time>2020-11-11T15:13:51Z</time>
      </trkpt>
      <trkpt lat="28.3596250" lon="-16.5041330">
        <ele>1101.9</ele>
        <time>2020-11-11T15:13:52Z</time>
      </trkpt>
      <trkpt lat="28.3596050" lon="-16.5041650">
        <ele>1101.9</ele>
        <time>2020-11-11T15:13:53Z</time>
      </trkpt>
      <trkpt lat="28.3596050" lon="-16.5041650">
        <ele>1101.9</ele>
        <time>2020-11-11T15:13:54Z</time>
      </trkpt>
      <trkpt lat="28.3595750" lon="-16.5042230">
        <ele>1102.9</ele>
        <time>2020-11-11T15:13:55Z</time>
      </trkpt>
      <trkpt lat="28.3595750" lon="-16.5042230">
        <ele>1102.9</ele>
        <time>2020-11-11T15:13:56Z</time>
      </trkpt>
      <trkpt lat="28.3595420" lon="-16.5042770">
        <ele>1102.9</ele>
        <time>2020-11-11T15:13:57Z</time>
      </trkpt>
      <trkpt lat="28.3595420" lon="-16.5042770">
        <ele>1103.9</ele>
        <time>2020-11-11T15:13:58Z</time>
      </trkpt>
      <trkpt lat="28.3595030" lon="-16.5043320">
        <ele>1103.9</ele>
        <time>2020-11-11T15:13:59Z</time>
      </trkpt>
      <trkpt lat="28.3595030" lon="-16.5043320">
        <ele>1103.9</ele>
        <time>2020-11-11T15:14:00Z</time>
      </trkpt>
      <trkpt lat="28.3594670" lon="-16.5043850">
        <ele>1103.9</ele>
        <time>2020-11-11T15:14:01Z</time>
      </trkpt>
      <trkpt lat="28.3594670" lon="-16.5043850">
        <ele>1104.9</ele>
        <time>2020-11-11T15:14:02Z</time>
      </trkpt>
      <trkpt lat="28.3594300" lon="-16.5044370">
        <ele>1104.9</ele>
        <time>2020-11-11T15:14:03Z</time>
      </trkpt>
      <trkpt lat="28.3594300" lon="-16.5044370">
        <ele>1104.9</ele>
        <time>2020-11-11T15:14:04Z</time>
      </trkpt>
      <trkpt lat="28.3593930" lon="-16.5044870">
        <ele>1104.9</ele>
        <time>2020-11-11T15:14:05Z</time>
      </trkpt>
      <trkpt lat="28.3593930" lon="-16.5044870">
        <ele>1104.9</ele>
        <time>2020-11-11T15:14:06Z</time>
      </trkpt>
      <trkpt lat="28.3593500" lon="-16.5045280">
        <ele>1104.9</ele>
        <time>2020-11-11T15:14:07Z</time>
      </trkpt>
      <trkpt lat="28.3593500" lon="-16.5045280">
        <ele>1104.9</ele>
        <time>2020-11-11T15:14:08Z</time>
      </trkpt>
      <trkpt lat="28.3593120" lon="-16.5045700">
        <ele>1104.9</ele>
        <time>2020-11-11T15:14:09Z</time>
      </trkpt>
      <trkpt lat="28.3593120" lon="-16.5045700">
        <ele>1104.9</ele>
        <time>2020-11-11T15:14:10Z</time>
      </trkpt>
      <trkpt lat="28.3592750" lon="-16.5046150">
        <ele>1104.9</ele>
        <time>2020-11-11T15:14:11Z</time>
      </trkpt>
      <trkpt lat="28.3592750" lon="-16.5046150">
        <ele>1105.9</ele>
        <time>2020-11-11T15:14:12Z</time>
      </trkpt>
      <trkpt lat="28.3592420" lon="-16.5046670">
        <ele>1105.9</ele>
        <time>2020-11-11T15:14:13Z</time>
      </trkpt>
      <trkpt lat="28.3592420" lon="-16.5046670">
        <ele>1105.9</ele>
        <time>2020-11-11T15:14:14Z</time>
      </trkpt>
      <trkpt lat="28.3592030" lon="-16.5047080">
        <ele>1105.9</ele>
        <time>2020-11-11T15:14:15Z</time>
      </trkpt>
      <trkpt lat="28.3592030" lon="-16.5047080">
        <ele>1105.9</ele>
        <time>2020-11-11T15:14:16Z</time>
      </trkpt>
      <trkpt lat="28.3591730" lon="-16.5047450">
        <ele>1105.9</ele>
        <time>2020-11-11T15:14:17Z</time>
      </trkpt>
      <trkpt lat="28.3591730" lon="-16.5047450">
        <ele>1105.9</ele>
        <time>2020-11-11T15:14:18Z</time>
      </trkpt>
      <trkpt lat="28.3591450" lon="-16.5047850">
        <ele>1105.9</ele>
        <time>2020-11-11T15:14:19Z</time>
      </trkpt>
      <trkpt lat="28.3591450" lon="-16.5047850">
        <ele>1105.9</ele>
        <time>2020-11-11T15:14:20Z</time>
      </trkpt>
      <trkpt lat="28.3591100" lon="-16.5048230">
        <ele>1105.9</ele>
        <time>2020-11-11T15:14:21Z</time>
      </trkpt>
      <trkpt lat="28.3590880" lon="-16.5048400">
        <ele>1106.9</ele>
        <time>2020-11-11T15:14:22Z</time>
      </trkpt>
      <trkpt lat="28.3590880" lon="-16.5048400">
        <ele>1106.9</ele>
        <time>2020-11-11T15:14:23Z</time>
      </trkpt>
      <trkpt lat="28.3590580" lon="-16.5048680">
        <ele>1106.9</ele>
        <time>2020-11-11T15:14:24Z</time>
      </trkpt>
      <trkpt lat="28.3590580" lon="-16.5048680">
        <ele>1106.9</ele>
        <time>2020-11-11T15:14:25Z</time>
      </trkpt>
      <trkpt lat="28.3590200" lon="-16.5048970">
        <ele>1106.9</ele>
        <time>2020-11-11T15:14:26Z</time>
      </trkpt>
      <trkpt lat="28.3590020" lon="-16.5049100">
        <ele>1106.9</ele>
        <time>2020-11-11T15:14:27Z</time>
      </trkpt>
      <trkpt lat="28.3590020" lon="-16.5049100">
        <ele>1106.9</ele>
        <time>2020-11-11T15:14:28Z</time>
      </trkpt>
      <trkpt lat="28.3589600" lon="-16.5049400">
        <ele>1106.9</ele>
        <time>2020-11-11T15:14:29Z</time>
      </trkpt>
      <trkpt lat="28.3589430" lon="-16.5049580">
        <ele>1107.9</ele>
        <time>2020-11-11T15:14:30Z</time>
      </trkpt>
      <trkpt lat="28.3589430" lon="-16.5049580">
        <ele>1107.9</ele>
        <time>2020-11-11T15:14:31Z</time>
      </trkpt>
      <trkpt lat="28.3589100" lon="-16.5049880">
        <ele>1107.9</ele>
        <time>2020-11-11T15:14:32Z</time>
      </trkpt>
      <trkpt lat="28.3588950" lon="-16.5050000">
        <ele>1107.9</ele>
        <time>2020-11-11T15:14:33Z</time>
      </trkpt>
      <trkpt lat="28.3588950" lon="-16.5050000">
        <ele>1107.9</ele>
        <time>2020-11-11T15:14:34Z</time>
      </trkpt>
      <trkpt lat="28.3588620" lon="-16.5050300">
        <ele>1107.9</ele>
        <time>2020-11-11T15:14:35Z</time>
      </trkpt>
      <trkpt lat="28.3588620" lon="-16.5050300">
        <ele>1107.9</ele>
        <time>2020-11-11T15:14:36Z</time>
      </trkpt>
      <trkpt lat="28.3588170" lon="-16.5050550">
        <ele>1108.9</ele>
        <time>2020-11-11T15:14:37Z</time>
      </trkpt>
      <trkpt lat="28.3587970" lon="-16.5050670">
        <ele>1108.9</ele>
        <time>2020-11-11T15:14:38Z</time>
      </trkpt>
      <trkpt lat="28.3587970" lon="-16.5050670">
        <ele>1108.9</ele>
        <time>2020-11-11T15:14:39Z</time>
      </trkpt>
      <trkpt lat="28.3587600" lon="-16.5050950">
        <ele>1108.9</ele>
        <time>2020-11-11T15:14:40Z</time>
      </trkpt>
      <trkpt lat="28.3587600" lon="-16.5050950">
        <ele>1109.9</ele>
        <time>2020-11-11T15:14:41Z</time>
      </trkpt>
      <trkpt lat="28.3587180" lon="-16.5051330">
        <ele>1109.9</ele>
        <time>2020-11-11T15:14:42Z</time>
      </trkpt>
      <trkpt lat="28.3586980" lon="-16.5051530">
        <ele>1109.9</ele>
        <time>2020-11-11T15:14:43Z</time>
      </trkpt>
      <trkpt lat="28.3586980" lon="-16.5051530">
        <ele>1109.9</ele>
        <time>2020-11-11T15:14:44Z</time>
      </trkpt>
      <trkpt lat="28.3586620" lon="-16.5051930">
        <ele>1109.9</ele>
        <time>2020-11-11T15:14:45Z</time>
      </trkpt>
      <trkpt lat="28.3586620" lon="-16.5051930">
        <ele>1109.9</ele>
        <time>2020-11-11T15:14:46Z</time>
      </trkpt>
      <trkpt lat="28.3586320" lon="-16.5052320">
        <ele>1109.9</ele>
        <time>2020-11-11T15:14:47Z</time>
      </trkpt>
      <trkpt lat="28.3586320" lon="-16.5052320">
        <ele>1109.9</ele>
        <time>2020-11-11T15:14:48Z</time>
      </trkpt>
      <trkpt lat="28.3586050" lon="-16.5052730">
        <ele>1109.9</ele>
        <time>2020-11-11T15:14:49Z</time>
      </trkpt>
      <trkpt lat="28.3586050" lon="-16.5052730">
        <ele>1109.9</ele>
        <time>2020-11-11T15:14:50Z</time>
      </trkpt>
      <trkpt lat="28.3585850" lon="-16.5053170">
        <ele>1109.9</ele>
        <time>2020-11-11T15:14:51Z</time>
      </trkpt>
      <trkpt lat="28.3585730" lon="-16.5053380">
        <ele>1110.9</ele>
        <time>2020-11-11T15:14:52Z</time>
      </trkpt>
      <trkpt lat="28.3585730" lon="-16.5053380">
        <ele>1110.9</ele>
        <time>2020-11-11T15:14:53Z</time>
      </trkpt>
      <trkpt lat="28.3585520" lon="-16.5053880">
        <ele>1110.9</ele>
        <time>2020-11-11T15:14:54Z</time>
      </trkpt>
      <trkpt lat="28.3585520" lon="-16.5053880">
        <ele>1110.9</ele>
        <time>2020-11-11T15:14:55Z</time>
      </trkpt>
      <trkpt lat="28.3585330" lon="-16.5054330">
        <ele>1110.9</ele>
        <time>2020-11-11T15:14:56Z</time>
      </trkpt>
      <trkpt lat="28.3585330" lon="-16.5054330">
        <ele>1110.9</ele>
        <time>2020-11-11T15:14:57Z</time>
      </trkpt>
      <trkpt lat="28.3585130" lon="-16.5054730">
        <ele>1110.9</ele>
        <time>2020-11-11T15:14:58Z</time>
      </trkpt>
      <trkpt lat="28.3584980" lon="-16.5054920">
        <ele>1111.9</ele>
        <time>2020-11-11T15:14:59Z</time>
      </trkpt>
      <trkpt lat="28.3584980" lon="-16.5054920">
        <ele>1111.9</ele>
        <time>2020-11-11T15:15:00Z</time>
      </trkpt>
      <trkpt lat="28.3584750" lon="-16.5055300">
        <ele>1111.9</ele>
        <time>2020-11-11T15:15:01Z</time>
      </trkpt>
      <trkpt lat="28.3584750" lon="-16.5055300">
        <ele>1111.9</ele>
        <time>2020-11-11T15:15:02Z</time>
      </trkpt>
      <trkpt lat="28.3584480" lon="-16.5055680">
        <ele>1111.9</ele>
        <time>2020-11-11T15:15:03Z</time>
      </trkpt>
      <trkpt lat="28.3584480" lon="-16.5055680">
        <ele>1111.9</ele>
        <time>2020-11-11T15:15:04Z</time>
      </trkpt>
      <trkpt lat="28.3584200" lon="-16.5056050">
        <ele>1111.9</ele>
        <time>2020-11-11T15:15:05Z</time>
      </trkpt>
      <trkpt lat="28.3584200" lon="-16.5056050">
        <ele>1111.9</ele>
        <time>2020-11-11T15:15:06Z</time>
      </trkpt>
      <trkpt lat="28.3583880" lon="-16.5056380">
        <ele>1112.9</ele>
        <time>2020-11-11T15:15:07Z</time>
      </trkpt>
      <trkpt lat="28.3583880" lon="-16.5056380">
        <ele>1112.9</ele>
        <time>2020-11-11T15:15:08Z</time>
      </trkpt>
      <trkpt lat="28.3583520" lon="-16.5056650">
        <ele>1112.9</ele>
        <time>2020-11-11T15:15:09Z</time>
      </trkpt>
      <trkpt lat="28.3583330" lon="-16.5056780">
        <ele>1112.9</ele>
        <time>2020-11-11T15:15:10Z</time>
      </trkpt>
      <trkpt lat="28.3583120" lon="-16.5056930">
        <ele>1112.9</ele>
        <time>2020-11-11T15:15:11Z</time>
      </trkpt>
      <trkpt lat="28.3582920" lon="-16.5057070">
        <ele>1112.9</ele>
        <time>2020-11-11T15:15:12Z</time>
      </trkpt>
      <trkpt lat="28.3582730" lon="-16.5057230">
        <ele>1113.9</ele>
        <time>2020-11-11T15:15:13Z</time>
      </trkpt>
      <trkpt lat="28.3582730" lon="-16.5057230">
        <ele>1113.9</ele>
        <time>2020-11-11T15:15:14Z</time>
      </trkpt>
      <trkpt lat="28.3582350" lon="-16.5057480">
        <ele>1113.9</ele>
        <time>2020-11-11T15:15:15Z</time>
      </trkpt>
      <trkpt lat="28.3582350" lon="-16.5057480">
        <ele>1113.9</ele>
        <time>2020-11-11T15:15:16Z</time>
      </trkpt>
      <trkpt lat="28.3581950" lon="-16.5057720">
        <ele>1113.9</ele>
        <time>2020-11-11T15:15:17Z</time>
      </trkpt>
      <trkpt lat="28.3581950" lon="-16.5057720">
        <ele>1113.9</ele>
        <time>2020-11-11T15:15:18Z</time>
      </trkpt>
      <trkpt lat="28.3581530" lon="-16.5057930">
        <ele>1113.9</ele>
        <time>2020-11-11T15:15:19Z</time>
      </trkpt>
      <trkpt lat="28.3581530" lon="-16.5057930">
        <ele>1114.9</ele>
        <time>2020-11-11T15:15:20Z</time>
      </trkpt>
      <trkpt lat="28.3581170" lon="-16.5058130">
        <ele>1114.9</ele>
        <time>2020-11-11T15:15:21Z</time>
      </trkpt>
      <trkpt lat="28.3581170" lon="-16.5058130">
        <ele>1114.9</ele>
        <time>2020-11-11T15:15:22Z</time>
      </trkpt>
      <trkpt lat="28.3580780" lon="-16.5058350">
        <ele>1114.9</ele>
        <time>2020-11-11T15:15:23Z</time>
      </trkpt>
      <trkpt lat="28.3580780" lon="-16.5058350">
        <ele>1114.9</ele>
        <time>2020-11-11T15:15:24Z</time>
      </trkpt>
      <trkpt lat="28.3580150" lon="-16.5058670">
        <ele>1114.9</ele>
        <time>2020-11-11T15:15:25Z</time>
      </trkpt>
      <trkpt lat="28.3580150" lon="-16.5058670">
        <ele>1114.9</ele>
        <time>2020-11-11T15:15:26Z</time>
      </trkpt>
      <trkpt lat="28.3579780" lon="-16.5058920">
        <ele>1114.9</ele>
        <time>2020-11-11T15:15:27Z</time>
      </trkpt>
      <trkpt lat="28.3579580" lon="-16.5059080">
        <ele>1114.9</ele>
        <time>2020-11-11T15:15:28Z</time>
      </trkpt>
      <trkpt lat="28.3579430" lon="-16.5059220">
        <ele>1114.9</ele>
        <time>2020-11-11T15:15:29Z</time>
      </trkpt>
      <trkpt lat="28.3579430" lon="-16.5059220">
        <ele>1114.9</ele>
        <time>2020-11-11T15:15:30Z</time>
      </trkpt>
      <trkpt lat="28.3578970" lon="-16.5059530">
        <ele>1114.9</ele>
        <time>2020-11-11T15:15:31Z</time>
      </trkpt>
      <trkpt lat="28.3578970" lon="-16.5059530">
        <ele>1114.9</ele>
        <time>2020-11-11T15:15:32Z</time>
      </trkpt>
      <trkpt lat="28.3578620" lon="-16.5059830">
        <ele>1114.9</ele>
        <time>2020-11-11T15:15:33Z</time>
      </trkpt>
      <trkpt lat="28.3578620" lon="-16.5059830">
        <ele>1114.9</ele>
        <time>2020-11-11T15:15:34Z</time>
      </trkpt>
      <trkpt lat="28.3578270" lon="-16.5060120">
        <ele>1114.9</ele>
        <time>2020-11-11T15:15:35Z</time>
      </trkpt>
      <trkpt lat="28.3578270" lon="-16.5060120">
        <ele>1115.9</ele>
        <time>2020-11-11T15:15:36Z</time>
      </trkpt>
      <trkpt lat="28.3577900" lon="-16.5060370">
        <ele>1115.9</ele>
        <time>2020-11-11T15:15:37Z</time>
      </trkpt>
      <trkpt lat="28.3577900" lon="-16.5060370">
        <ele>1115.9</ele>
        <time>2020-11-11T15:15:38Z</time>
      </trkpt>
      <trkpt lat="28.3577500" lon="-16.5060620">
        <ele>1115.9</ele>
        <time>2020-11-11T15:15:39Z</time>
      </trkpt>
      <trkpt lat="28.3577330" lon="-16.5060820">
        <ele>1115.9</ele>
        <time>2020-11-11T15:15:40Z</time>
      </trkpt>
      <trkpt lat="28.3577330" lon="-16.5060820">
        <ele>1116.9</ele>
        <time>2020-11-11T15:15:41Z</time>
      </trkpt>
      <trkpt lat="28.3576950" lon="-16.5061170">
        <ele>1116.9</ele>
        <time>2020-11-11T15:15:42Z</time>
      </trkpt>
      <trkpt lat="28.3576950" lon="-16.5061170">
        <ele>1117.9</ele>
        <time>2020-11-11T15:15:43Z</time>
      </trkpt>
      <trkpt lat="28.3576570" lon="-16.5061480">
        <ele>1117.9</ele>
        <time>2020-11-11T15:15:44Z</time>
      </trkpt>
      <trkpt lat="28.3576570" lon="-16.5061480">
        <ele>1117.9</ele>
        <time>2020-11-11T15:15:45Z</time>
      </trkpt>
      <trkpt lat="28.3576170" lon="-16.5061950">
        <ele>1117.9</ele>
        <time>2020-11-11T15:15:46Z</time>
      </trkpt>
      <trkpt lat="28.3575970" lon="-16.5062180">
        <ele>1117.9</ele>
        <time>2020-11-11T15:15:47Z</time>
      </trkpt>
      <trkpt lat="28.3575800" lon="-16.5062420">
        <ele>1117.9</ele>
        <time>2020-11-11T15:15:48Z</time>
      </trkpt>
      <trkpt lat="28.3575580" lon="-16.5062520">
        <ele>1117.9</ele>
        <time>2020-11-11T15:15:49Z</time>
      </trkpt>
      <trkpt lat="28.3575580" lon="-16.5062520">
        <ele>1118.9</ele>
        <time>2020-11-11T15:15:50Z</time>
      </trkpt>
      <trkpt lat="28.3575220" lon="-16.5062920">
        <ele>1118.9</ele>
        <time>2020-11-11T15:15:51Z</time>
      </trkpt>
      <trkpt lat="28.3575220" lon="-16.5062920">
        <ele>1118.9</ele>
        <time>2020-11-11T15:15:52Z</time>
      </trkpt>
      <trkpt lat="28.3574950" lon="-16.5063300">
        <ele>1118.9</ele>
        <time>2020-11-11T15:15:53Z</time>
      </trkpt>
      <trkpt lat="28.3574950" lon="-16.5063300">
        <ele>1119.9</ele>
        <time>2020-11-11T15:15:54Z</time>
      </trkpt>
      <trkpt lat="28.3574750" lon="-16.5063750">
        <ele>1119.9</ele>
        <time>2020-11-11T15:15:55Z</time>
      </trkpt>
      <trkpt lat="28.3574750" lon="-16.5063750">
        <ele>1119.9</ele>
        <time>2020-11-11T15:15:56Z</time>
      </trkpt>
      <trkpt lat="28.3574530" lon="-16.5064130">
        <ele>1119.9</ele>
        <time>2020-11-11T15:15:57Z</time>
      </trkpt>
      <trkpt lat="28.3574530" lon="-16.5064130">
        <ele>1119.9</ele>
        <time>2020-11-11T15:15:58Z</time>
      </trkpt>
      <trkpt lat="28.3574250" lon="-16.5064500">
        <ele>1119.9</ele>
        <time>2020-11-11T15:15:59Z</time>
      </trkpt>
      <trkpt lat="28.3574100" lon="-16.5064700">
        <ele>1120.9</ele>
        <time>2020-11-11T15:16:00Z</time>
      </trkpt>
      <trkpt lat="28.3574100" lon="-16.5064700">
        <ele>1120.9</ele>
        <time>2020-11-11T15:16:01Z</time>
      </trkpt>
      <trkpt lat="28.3573800" lon="-16.5065100">
        <ele>1120.9</ele>
        <time>2020-11-11T15:16:02Z</time>
      </trkpt>
      <trkpt lat="28.3573800" lon="-16.5065100">
        <ele>1120.9</ele>
        <time>2020-11-11T15:16:03Z</time>
      </trkpt>
      <trkpt lat="28.3573430" lon="-16.5065720">
        <ele>1120.9</ele>
        <time>2020-11-11T15:16:04Z</time>
      </trkpt>
      <trkpt lat="28.3573330" lon="-16.5066050">
        <ele>1120.9</ele>
        <time>2020-11-11T15:16:05Z</time>
      </trkpt>
      <trkpt lat="28.3573330" lon="-16.5066050">
        <ele>1121.9</ele>
        <time>2020-11-11T15:16:06Z</time>
      </trkpt>
      <trkpt lat="28.3573200" lon="-16.5066630">
        <ele>1121.9</ele>
        <time>2020-11-11T15:16:07Z</time>
      </trkpt>
      <trkpt lat="28.3573200" lon="-16.5066630">
        <ele>1121.9</ele>
        <time>2020-11-11T15:16:08Z</time>
      </trkpt>
      <trkpt lat="28.3573200" lon="-16.5067230">
        <ele>1121.9</ele>
        <time>2020-11-11T15:16:09Z</time>
      </trkpt>
      <trkpt lat="28.3573230" lon="-16.5067530">
        <ele>1121.9</ele>
        <time>2020-11-11T15:16:10Z</time>
      </trkpt>
      <trkpt lat="28.3573230" lon="-16.5067530">
        <ele>1121.9</ele>
        <time>2020-11-11T15:16:11Z</time>
      </trkpt>
      <trkpt lat="28.3573250" lon="-16.5068150">
        <ele>1121.9</ele>
        <time>2020-11-11T15:16:12Z</time>
      </trkpt>
      <trkpt lat="28.3573270" lon="-16.5068450">
        <ele>1121.9</ele>
        <time>2020-11-11T15:16:13Z</time>
      </trkpt>
      <trkpt lat="28.3573270" lon="-16.5068450">
        <ele>1121.9</ele>
        <time>2020-11-11T15:16:14Z</time>
      </trkpt>
      <trkpt lat="28.3573320" lon="-16.5069070">
        <ele>1121.9</ele>
        <time>2020-11-11T15:16:15Z</time>
      </trkpt>
      <trkpt lat="28.3573320" lon="-16.5069370">
        <ele>1121.9</ele>
        <time>2020-11-11T15:16:16Z</time>
      </trkpt>
      <trkpt lat="28.3573320" lon="-16.5069370">
        <ele>1121.9</ele>
        <time>2020-11-11T15:16:17Z</time>
      </trkpt>
      <trkpt lat="28.3573330" lon="-16.5069950">
        <ele>1123.9</ele>
        <time>2020-11-11T15:16:18Z</time>
      </trkpt>
      <trkpt lat="28.3573330" lon="-16.5069950">
        <ele>1123.9</ele>
        <time>2020-11-11T15:16:19Z</time>
      </trkpt>
      <trkpt lat="28.3573350" lon="-16.5070500">
        <ele>1123.9</ele>
        <time>2020-11-11T15:16:20Z</time>
      </trkpt>
      <trkpt lat="28.3573370" lon="-16.5070770">
        <ele>1123.9</ele>
        <time>2020-11-11T15:16:21Z</time>
      </trkpt>
      <trkpt lat="28.3573370" lon="-16.5070770">
        <ele>1124.9</ele>
        <time>2020-11-11T15:16:22Z</time>
      </trkpt>
      <trkpt lat="28.3573350" lon="-16.5071280">
        <ele>1124.9</ele>
        <time>2020-11-11T15:16:23Z</time>
      </trkpt>
      <trkpt lat="28.3573320" lon="-16.5071570">
        <ele>1124.9</ele>
        <time>2020-11-11T15:16:24Z</time>
      </trkpt>
      <trkpt lat="28.3573320" lon="-16.5071570">
        <ele>1124.9</ele>
        <time>2020-11-11T15:16:25Z</time>
      </trkpt>
      <trkpt lat="28.3573250" lon="-16.5072120">
        <ele>1124.9</ele>
        <time>2020-11-11T15:16:26Z</time>
      </trkpt>
      <trkpt lat="28.3573250" lon="-16.5072120">
        <ele>1125.9</ele>
        <time>2020-11-11T15:16:27Z</time>
      </trkpt>
      <trkpt lat="28.3573030" lon="-16.5072570">
        <ele>1125.9</ele>
        <time>2020-11-11T15:16:28Z</time>
      </trkpt>
      <trkpt lat="28.3573030" lon="-16.5072570">
        <ele>1125.9</ele>
        <time>2020-11-11T15:16:29Z</time>
      </trkpt>
      <trkpt lat="28.3572780" lon="-16.5073030">
        <ele>1125.9</ele>
        <time>2020-11-11T15:16:30Z</time>
      </trkpt>
      <trkpt lat="28.3572780" lon="-16.5073030">
        <ele>1125.9</ele>
        <time>2020-11-11T15:16:31Z</time>
      </trkpt>
      <trkpt lat="28.3572570" lon="-16.5073450">
        <ele>1125.9</ele>
        <time>2020-11-11T15:16:32Z</time>
      </trkpt>
      <trkpt lat="28.3572570" lon="-16.5073450">
        <ele>1126.9</ele>
        <time>2020-11-11T15:16:33Z</time>
      </trkpt>
      <trkpt lat="28.3572330" lon="-16.5073820">
        <ele>1126.9</ele>
        <time>2020-11-11T15:16:34Z</time>
      </trkpt>
      <trkpt lat="28.3572330" lon="-16.5073820">
        <ele>1126.9</ele>
        <time>2020-11-11T15:16:35Z</time>
      </trkpt>
      <trkpt lat="28.3571980" lon="-16.5074150">
        <ele>1126.9</ele>
        <time>2020-11-11T15:16:36Z</time>
      </trkpt>
      <trkpt lat="28.3571830" lon="-16.5074320">
        <ele>1126.9</ele>
        <time>2020-11-11T15:16:37Z</time>
      </trkpt>
      <trkpt lat="28.3571830" lon="-16.5074320">
        <ele>1126.9</ele>
        <time>2020-11-11T15:16:38Z</time>
      </trkpt>
      <trkpt lat="28.3571550" lon="-16.5074750">
        <ele>1127.9</ele>
        <time>2020-11-11T15:16:39Z</time>
      </trkpt>
      <trkpt lat="28.3571550" lon="-16.5074750">
        <ele>1127.9</ele>
        <time>2020-11-11T15:16:40Z</time>
      </trkpt>
      <trkpt lat="28.3571280" lon="-16.5075130">
        <ele>1127.9</ele>
        <time>2020-11-11T15:16:41Z</time>
      </trkpt>
      <trkpt lat="28.3571280" lon="-16.5075130">
        <ele>1127.9</ele>
        <time>2020-11-11T15:16:42Z</time>
      </trkpt>
      <trkpt lat="28.3571000" lon="-16.5075570">
        <ele>1127.9</ele>
        <time>2020-11-11T15:16:43Z</time>
      </trkpt>
      <trkpt lat="28.3571000" lon="-16.5075570">
        <ele>1127.9</ele>
        <time>2020-11-11T15:16:44Z</time>
      </trkpt>
      <trkpt lat="28.3570730" lon="-16.5076030">
        <ele>1127.9</ele>
        <time>2020-11-11T15:16:45Z</time>
      </trkpt>
      <trkpt lat="28.3570600" lon="-16.5076280">
        <ele>1127.9</ele>
        <time>2020-11-11T15:16:46Z</time>
      </trkpt>
      <trkpt lat="28.3570600" lon="-16.5076280">
        <ele>1127.9</ele>
        <time>2020-11-11T15:16:47Z</time>
      </trkpt>
      <trkpt lat="28.3570380" lon="-16.5076770">
        <ele>1127.9</ele>
        <time>2020-11-11T15:16:48Z</time>
      </trkpt>
      <trkpt lat="28.3570380" lon="-16.5076770">
        <ele>1127.9</ele>
        <time>2020-11-11T15:16:49Z</time>
      </trkpt>
      <trkpt lat="28.3570120" lon="-16.5077200">
        <ele>1127.9</ele>
        <time>2020-11-11T15:16:50Z</time>
      </trkpt>
      <trkpt lat="28.3570000" lon="-16.5077430">
        <ele>1127.9</ele>
        <time>2020-11-11T15:16:51Z</time>
      </trkpt>
      <trkpt lat="28.3570000" lon="-16.5077430">
        <ele>1127.9</ele>
        <time>2020-11-11T15:16:52Z</time>
      </trkpt>
      <trkpt lat="28.3569880" lon="-16.5077920">
        <ele>1128.9</ele>
        <time>2020-11-11T15:16:53Z</time>
      </trkpt>
      <trkpt lat="28.3569880" lon="-16.5077920">
        <ele>1128.9</ele>
        <time>2020-11-11T15:16:54Z</time>
      </trkpt>
      <trkpt lat="28.3569700" lon="-16.5078380">
        <ele>1128.9</ele>
        <time>2020-11-11T15:16:55Z</time>
      </trkpt>
      <trkpt lat="28.3569700" lon="-16.5078380">
        <ele>1128.9</ele>
        <time>2020-11-11T15:16:56Z</time>
      </trkpt>
      <trkpt lat="28.3569400" lon="-16.5078820">
        <ele>1128.9</ele>
        <time>2020-11-11T15:16:57Z</time>
      </trkpt>
      <trkpt lat="28.3569200" lon="-16.5079070">
        <ele>1128.9</ele>
        <time>2020-11-11T15:16:58Z</time>
      </trkpt>
      <trkpt lat="28.3569030" lon="-16.5079320">
        <ele>1129.9</ele>
        <time>2020-11-11T15:16:59Z</time>
      </trkpt>
      <trkpt lat="28.3569030" lon="-16.5079320">
        <ele>1129.9</ele>
        <time>2020-11-11T15:17:00Z</time>
      </trkpt>
      <trkpt lat="28.3568780" lon="-16.5079830">
        <ele>1129.9</ele>
        <time>2020-11-11T15:17:01Z</time>
      </trkpt>
      <trkpt lat="28.3568780" lon="-16.5079830">
        <ele>1130.9</ele>
        <time>2020-11-11T15:17:02Z</time>
      </trkpt>
      <trkpt lat="28.3568600" lon="-16.5080350">
        <ele>1130.9</ele>
        <time>2020-11-11T15:17:03Z</time>
      </trkpt>
      <trkpt lat="28.3568600" lon="-16.5080350">
        <ele>1130.9</ele>
        <time>2020-11-11T15:17:04Z</time>
      </trkpt>
      <trkpt lat="28.3568520" lon="-16.5080870">
        <ele>1130.9</ele>
        <time>2020-11-11T15:17:05Z</time>
      </trkpt>
      <trkpt lat="28.3568520" lon="-16.5080870">
        <ele>1130.9</ele>
        <time>2020-11-11T15:17:06Z</time>
      </trkpt>
      <trkpt lat="28.3568470" lon="-16.5081420">
        <ele>1130.9</ele>
        <time>2020-11-11T15:17:07Z</time>
      </trkpt>
      <trkpt lat="28.3568470" lon="-16.5081420">
        <ele>1130.9</ele>
        <time>2020-11-11T15:17:08Z</time>
      </trkpt>
      <trkpt lat="28.3568500" lon="-16.5081920">
        <ele>1130.9</ele>
        <time>2020-11-11T15:17:09Z</time>
      </trkpt>
      <trkpt lat="28.3568500" lon="-16.5081920">
        <ele>1130.9</ele>
        <time>2020-11-11T15:17:10Z</time>
      </trkpt>
      <trkpt lat="28.3568530" lon="-16.5082500">
        <ele>1130.9</ele>
        <time>2020-11-11T15:17:11Z</time>
      </trkpt>
      <trkpt lat="28.3568530" lon="-16.5082500">
        <ele>1130.9</ele>
        <time>2020-11-11T15:17:12Z</time>
      </trkpt>
      <trkpt lat="28.3568550" lon="-16.5083030">
        <ele>1130.9</ele>
        <time>2020-11-11T15:17:13Z</time>
      </trkpt>
      <trkpt lat="28.3568550" lon="-16.5083030">
        <ele>1131.9</ele>
        <time>2020-11-11T15:17:14Z</time>
      </trkpt>
      <trkpt lat="28.3568580" lon="-16.5083600">
        <ele>1131.9</ele>
        <time>2020-11-11T15:17:15Z</time>
      </trkpt>
      <trkpt lat="28.3568580" lon="-16.5083600">
        <ele>1131.9</ele>
        <time>2020-11-11T15:17:16Z</time>
      </trkpt>
      <trkpt lat="28.3568580" lon="-16.5084130">
        <ele>1131.9</ele>
        <time>2020-11-11T15:17:17Z</time>
      </trkpt>
      <trkpt lat="28.3568580" lon="-16.5084130">
        <ele>1132.9</ele>
        <time>2020-11-11T15:17:18Z</time>
      </trkpt>
      <trkpt lat="28.3568520" lon="-16.5084680">
        <ele>1132.9</ele>
        <time>2020-11-11T15:17:19Z</time>
      </trkpt>
      <trkpt lat="28.3568520" lon="-16.5084680">
        <ele>1132.9</ele>
        <time>2020-11-11T15:17:20Z</time>
      </trkpt>
      <trkpt lat="28.3568430" lon="-16.5085220">
        <ele>1132.9</ele>
        <time>2020-11-11T15:17:21Z</time>
      </trkpt>
      <trkpt lat="28.3568400" lon="-16.5085480">
        <ele>1133.9</ele>
        <time>2020-11-11T15:17:22Z</time>
      </trkpt>
      <trkpt lat="28.3568400" lon="-16.5085480">
        <ele>1133.9</ele>
        <time>2020-11-11T15:17:23Z</time>
      </trkpt>
      <trkpt lat="28.3568370" lon="-16.5086020">
        <ele>1133.9</ele>
        <time>2020-11-11T15:17:24Z</time>
      </trkpt>
      <trkpt lat="28.3568330" lon="-16.5086300">
        <ele>1134.9</ele>
        <time>2020-11-11T15:17:25Z</time>
      </trkpt>
      <trkpt lat="28.3568330" lon="-16.5086300">
        <ele>1134.9</ele>
        <time>2020-11-11T15:17:26Z</time>
      </trkpt>
      <trkpt lat="28.3568230" lon="-16.5086870">
        <ele>1134.9</ele>
        <time>2020-11-11T15:17:27Z</time>
      </trkpt>
      <trkpt lat="28.3568230" lon="-16.5086870">
        <ele>1134.9</ele>
        <time>2020-11-11T15:17:28Z</time>
      </trkpt>
      <trkpt lat="28.3567920" lon="-16.5087400">
        <ele>1134.9</ele>
        <time>2020-11-11T15:17:29Z</time>
      </trkpt>
      <trkpt lat="28.3567830" lon="-16.5087700">
        <ele>1134.9</ele>
        <time>2020-11-11T15:17:30Z</time>
      </trkpt>
      <trkpt lat="28.3567830" lon="-16.5087700">
        <ele>1134.9</ele>
        <time>2020-11-11T15:17:31Z</time>
      </trkpt>
      <trkpt lat="28.3567730" lon="-16.5088270">
        <ele>1135.9</ele>
        <time>2020-11-11T15:17:32Z</time>
      </trkpt>
      <trkpt lat="28.3567730" lon="-16.5088270">
        <ele>1135.9</ele>
        <time>2020-11-11T15:17:33Z</time>
      </trkpt>
      <trkpt lat="28.3567680" lon="-16.5088780">
        <ele>1135.9</ele>
        <time>2020-11-11T15:17:34Z</time>
      </trkpt>
      <trkpt lat="28.3567680" lon="-16.5088780">
        <ele>1135.9</ele>
        <time>2020-11-11T15:17:35Z</time>
      </trkpt>
      <trkpt lat="28.3567650" lon="-16.5089300">
        <ele>1135.9</ele>
        <time>2020-11-11T15:17:36Z</time>
      </trkpt>
      <trkpt lat="28.3567650" lon="-16.5089300">
        <ele>1136.9</ele>
        <time>2020-11-11T15:17:37Z</time>
      </trkpt>
      <trkpt lat="28.3567570" lon="-16.5089830">
        <ele>1136.9</ele>
        <time>2020-11-11T15:17:38Z</time>
      </trkpt>
      <trkpt lat="28.3567570" lon="-16.5089830">
        <ele>1136.9</ele>
        <time>2020-11-11T15:17:39Z</time>
      </trkpt>
      <trkpt lat="28.3567530" lon="-16.5090350">
        <ele>1136.9</ele>
        <time>2020-11-11T15:17:40Z</time>
      </trkpt>
      <trkpt lat="28.3567530" lon="-16.5090350">
        <ele>1136.9</ele>
        <time>2020-11-11T15:17:41Z</time>
      </trkpt>
      <trkpt lat="28.3567530" lon="-16.5090820">
        <ele>1136.9</ele>
        <time>2020-11-11T15:17:42Z</time>
      </trkpt>
      <trkpt lat="28.3567530" lon="-16.5091030">
        <ele>1137.9</ele>
        <time>2020-11-11T15:17:43Z</time>
      </trkpt>
      <trkpt lat="28.3567530" lon="-16.5091030">
        <ele>1137.9</ele>
        <time>2020-11-11T15:17:44Z</time>
      </trkpt>
      <trkpt lat="28.3567700" lon="-16.5091530">
        <ele>1137.9</ele>
        <time>2020-11-11T15:17:45Z</time>
      </trkpt>
      <trkpt lat="28.3567750" lon="-16.5091770">
        <ele>1137.9</ele>
        <time>2020-11-11T15:17:46Z</time>
      </trkpt>
      <trkpt lat="28.3567750" lon="-16.5091770">
        <ele>1138.9</ele>
        <time>2020-11-11T15:17:47Z</time>
      </trkpt>
      <trkpt lat="28.3567800" lon="-16.5092280">
        <ele>1138.9</ele>
        <time>2020-11-11T15:17:48Z</time>
      </trkpt>
      <trkpt lat="28.3567800" lon="-16.5092280">
        <ele>1138.9</ele>
        <time>2020-11-11T15:17:49Z</time>
      </trkpt>
      <trkpt lat="28.3567870" lon="-16.5092830">
        <ele>1138.9</ele>
        <time>2020-11-11T15:17:50Z</time>
      </trkpt>
      <trkpt lat="28.3567870" lon="-16.5092830">
        <ele>1138.9</ele>
        <time>2020-11-11T15:17:51Z</time>
      </trkpt>
      <trkpt lat="28.3567970" lon="-16.5093370">
        <ele>1138.9</ele>
        <time>2020-11-11T15:17:52Z</time>
      </trkpt>
      <trkpt lat="28.3567970" lon="-16.5093370">
        <ele>1139.9</ele>
        <time>2020-11-11T15:17:53Z</time>
      </trkpt>
      <trkpt lat="28.3568020" lon="-16.5093920">
        <ele>1139.9</ele>
        <time>2020-11-11T15:17:54Z</time>
      </trkpt>
      <trkpt lat="28.3568030" lon="-16.5094200">
        <ele>1139.9</ele>
        <time>2020-11-11T15:17:55Z</time>
      </trkpt>
      <trkpt lat="28.3568030" lon="-16.5094200">
        <ele>1139.9</ele>
        <time>2020-11-11T15:17:56Z</time>
      </trkpt>
      <trkpt lat="28.3568100" lon="-16.5094720">
        <ele>1139.9</ele>
        <time>2020-11-11T15:17:57Z</time>
      </trkpt>
      <trkpt lat="28.3568100" lon="-16.5094720">
        <ele>1139.9</ele>
        <time>2020-11-11T15:17:58Z</time>
      </trkpt>
      <trkpt lat="28.3568070" lon="-16.5095280">
        <ele>1139.9</ele>
        <time>2020-11-11T15:17:59Z</time>
      </trkpt>
      <trkpt lat="28.3568070" lon="-16.5095280">
        <ele>1140.9</ele>
        <time>2020-11-11T15:18:00Z</time>
      </trkpt>
      <trkpt lat="28.3568020" lon="-16.5095850">
        <ele>1140.9</ele>
        <time>2020-11-11T15:18:01Z</time>
      </trkpt>
      <trkpt lat="28.3568020" lon="-16.5095850">
        <ele>1140.9</ele>
        <time>2020-11-11T15:18:02Z</time>
      </trkpt>
      <trkpt lat="28.3568000" lon="-16.5096420">
        <ele>1140.9</ele>
        <time>2020-11-11T15:18:03Z</time>
      </trkpt>
      <trkpt lat="28.3568000" lon="-16.5096420">
        <ele>1140.9</ele>
        <time>2020-11-11T15:18:04Z</time>
      </trkpt>
      <trkpt lat="28.3568000" lon="-16.5096870">
        <ele>1140.9</ele>
        <time>2020-11-11T15:18:05Z</time>
      </trkpt>
      <trkpt lat="28.3568050" lon="-16.5097120">
        <ele>1140.9</ele>
        <time>2020-11-11T15:18:06Z</time>
      </trkpt>
      <trkpt lat="28.3568130" lon="-16.5097380">
        <ele>1140.9</ele>
        <time>2020-11-11T15:18:07Z</time>
      </trkpt>
      <trkpt lat="28.3568130" lon="-16.5097380">
        <ele>1141.9</ele>
        <time>2020-11-11T15:18:08Z</time>
      </trkpt>
      <trkpt lat="28.3568270" lon="-16.5097950">
        <ele>1141.9</ele>
        <time>2020-11-11T15:18:09Z</time>
      </trkpt>
      <trkpt lat="28.3568270" lon="-16.5097950">
        <ele>1141.9</ele>
        <time>2020-11-11T15:18:10Z</time>
      </trkpt>
      <trkpt lat="28.3568450" lon="-16.5098500">
        <ele>1141.9</ele>
        <time>2020-11-11T15:18:11Z</time>
      </trkpt>
      <trkpt lat="28.3568530" lon="-16.5098720">
        <ele>1141.9</ele>
        <time>2020-11-11T15:18:12Z</time>
      </trkpt>
      <trkpt lat="28.3568600" lon="-16.5098930">
        <ele>1142.9</ele>
        <time>2020-11-11T15:18:13Z</time>
      </trkpt>
      <trkpt lat="28.3568600" lon="-16.5098930">
        <ele>1142.9</ele>
        <time>2020-11-11T15:18:14Z</time>
      </trkpt>
      <trkpt lat="28.3568630" lon="-16.5099420">
        <ele>1142.9</ele>
        <time>2020-11-11T15:18:15Z</time>
      </trkpt>
      <trkpt lat="28.3568630" lon="-16.5099420">
        <ele>1142.9</ele>
        <time>2020-11-11T15:18:16Z</time>
      </trkpt>
      <trkpt lat="28.3568600" lon="-16.5099900">
        <ele>1142.9</ele>
        <time>2020-11-11T15:18:17Z</time>
      </trkpt>
      <trkpt lat="28.3568570" lon="-16.5100150">
        <ele>1142.9</ele>
        <time>2020-11-11T15:18:18Z</time>
      </trkpt>
      <trkpt lat="28.3568570" lon="-16.5100150">
        <ele>1142.9</ele>
        <time>2020-11-11T15:18:19Z</time>
      </trkpt>
      <trkpt lat="28.3568550" lon="-16.5100720">
        <ele>1142.9</ele>
        <time>2020-11-11T15:18:20Z</time>
      </trkpt>
      <trkpt lat="28.3568550" lon="-16.5100720">
        <ele>1142.9</ele>
        <time>2020-11-11T15:18:21Z</time>
      </trkpt>
      <trkpt lat="28.3568550" lon="-16.5101200">
        <ele>1142.9</ele>
        <time>2020-11-11T15:18:22Z</time>
      </trkpt>
      <trkpt lat="28.3568550" lon="-16.5101200">
        <ele>1143.9</ele>
        <time>2020-11-11T15:18:23Z</time>
      </trkpt>
      <trkpt lat="28.3568520" lon="-16.5101780">
        <ele>1143.9</ele>
        <time>2020-11-11T15:18:24Z</time>
      </trkpt>
      <trkpt lat="28.3568470" lon="-16.5102050">
        <ele>1143.9</ele>
        <time>2020-11-11T15:18:25Z</time>
      </trkpt>
      <trkpt lat="28.3568470" lon="-16.5102050">
        <ele>1143.9</ele>
        <time>2020-11-11T15:18:26Z</time>
      </trkpt>
      <trkpt lat="28.3568300" lon="-16.5102550">
        <ele>1143.9</ele>
        <time>2020-11-11T15:18:27Z</time>
      </trkpt>
      <trkpt lat="28.3568200" lon="-16.5102800">
        <ele>1143.9</ele>
        <time>2020-11-11T15:18:28Z</time>
      </trkpt>
      <trkpt lat="28.3568080" lon="-16.5103070">
        <ele>1143.9</ele>
        <time>2020-11-11T15:18:29Z</time>
      </trkpt>
      <trkpt lat="28.3568080" lon="-16.5103070">
        <ele>1143.9</ele>
        <time>2020-11-11T15:18:30Z</time>
      </trkpt>
      <trkpt lat="28.3567750" lon="-16.5103550">
        <ele>1144.9</ele>
        <time>2020-11-11T15:18:31Z</time>
      </trkpt>
      <trkpt lat="28.3567750" lon="-16.5103550">
        <ele>1144.9</ele>
        <time>2020-11-11T15:18:32Z</time>
      </trkpt>
      <trkpt lat="28.3567700" lon="-16.5104070">
        <ele>1144.9</ele>
        <time>2020-11-11T15:18:33Z</time>
      </trkpt>
      <trkpt lat="28.3567700" lon="-16.5104070">
        <ele>1144.9</ele>
        <time>2020-11-11T15:18:34Z</time>
      </trkpt>
      <trkpt lat="28.3567580" lon="-16.5104600">
        <ele>1144.9</ele>
        <time>2020-11-11T15:18:35Z</time>
      </trkpt>
      <trkpt lat="28.3567530" lon="-16.5104850">
        <ele>1144.9</ele>
        <time>2020-11-11T15:18:36Z</time>
      </trkpt>
      <trkpt lat="28.3567530" lon="-16.5104850">
        <ele>1144.9</ele>
        <time>2020-11-11T15:18:37Z</time>
      </trkpt>
      <trkpt lat="28.3567400" lon="-16.5105330">
        <ele>1144.9</ele>
        <time>2020-11-11T15:18:38Z</time>
      </trkpt>
      <trkpt lat="28.3567400" lon="-16.5105330">
        <ele>1145.9</ele>
        <time>2020-11-11T15:18:39Z</time>
      </trkpt>
      <trkpt lat="28.3567280" lon="-16.5105820">
        <ele>1145.9</ele>
        <time>2020-11-11T15:18:40Z</time>
      </trkpt>
      <trkpt lat="28.3567280" lon="-16.5105820">
        <ele>1145.9</ele>
        <time>2020-11-11T15:18:41Z</time>
      </trkpt>
      <trkpt lat="28.3567180" lon="-16.5106320">
        <ele>1145.9</ele>
        <time>2020-11-11T15:18:42Z</time>
      </trkpt>
      <trkpt lat="28.3567120" lon="-16.5106580">
        <ele>1145.9</ele>
        <time>2020-11-11T15:18:43Z</time>
      </trkpt>
      <trkpt lat="28.3567120" lon="-16.5106580">
        <ele>1145.9</ele>
        <time>2020-11-11T15:18:44Z</time>
      </trkpt>
      <trkpt lat="28.3566920" lon="-16.5107080">
        <ele>1146.9</ele>
        <time>2020-11-11T15:18:45Z</time>
      </trkpt>
      <trkpt lat="28.3566920" lon="-16.5107080">
        <ele>1146.9</ele>
        <time>2020-11-11T15:18:46Z</time>
      </trkpt>
      <trkpt lat="28.3566630" lon="-16.5107550">
        <ele>1146.9</ele>
        <time>2020-11-11T15:18:47Z</time>
      </trkpt>
      <trkpt lat="28.3566630" lon="-16.5107550">
        <ele>1146.9</ele>
        <time>2020-11-11T15:18:48Z</time>
      </trkpt>
      <trkpt lat="28.3566450" lon="-16.5108050">
        <ele>1146.9</ele>
        <time>2020-11-11T15:18:49Z</time>
      </trkpt>
      <trkpt lat="28.3566450" lon="-16.5108050">
        <ele>1146.9</ele>
        <time>2020-11-11T15:18:50Z</time>
      </trkpt>
      <trkpt lat="28.3566350" lon="-16.5108550">
        <ele>1146.9</ele>
        <time>2020-11-11T15:18:51Z</time>
      </trkpt>
      <trkpt lat="28.3566350" lon="-16.5108550">
        <ele>1147.9</ele>
        <time>2020-11-11T15:18:52Z</time>
      </trkpt>
      <trkpt lat="28.3566180" lon="-16.5109020">
        <ele>1147.9</ele>
        <time>2020-11-11T15:18:53Z</time>
      </trkpt>
      <trkpt lat="28.3566180" lon="-16.5109020">
        <ele>1147.9</ele>
        <time>2020-11-11T15:18:54Z</time>
      </trkpt>
      <trkpt lat="28.3565950" lon="-16.5109470">
        <ele>1147.9</ele>
        <time>2020-11-11T15:18:55Z</time>
      </trkpt>
      <trkpt lat="28.3565820" lon="-16.5109650">
        <ele>1147.9</ele>
        <time>2020-11-11T15:18:56Z</time>
      </trkpt>
      <trkpt lat="28.3565820" lon="-16.5109650">
        <ele>1147.9</ele>
        <time>2020-11-11T15:18:57Z</time>
      </trkpt>
      <trkpt lat="28.3565650" lon="-16.5110130">
        <ele>1147.9</ele>
        <time>2020-11-11T15:18:58Z</time>
      </trkpt>
      <trkpt lat="28.3565650" lon="-16.5110130">
        <ele>1147.9</ele>
        <time>2020-11-11T15:18:59Z</time>
      </trkpt>
      <trkpt lat="28.3565570" lon="-16.5110650">
        <ele>1147.9</ele>
        <time>2020-11-11T15:19:00Z</time>
      </trkpt>
      <trkpt lat="28.3565500" lon="-16.5110920">
        <ele>1147.9</ele>
        <time>2020-11-11T15:19:01Z</time>
      </trkpt>
      <trkpt lat="28.3565500" lon="-16.5110920">
        <ele>1147.9</ele>
        <time>2020-11-11T15:19:02Z</time>
      </trkpt>
      <trkpt lat="28.3565200" lon="-16.5111300">
        <ele>1147.9</ele>
        <time>2020-11-11T15:19:03Z</time>
      </trkpt>
      <trkpt lat="28.3565200" lon="-16.5111300">
        <ele>1147.9</ele>
        <time>2020-11-11T15:19:04Z</time>
      </trkpt>
      <trkpt lat="28.3564880" lon="-16.5111650">
        <ele>1148.9</ele>
        <time>2020-11-11T15:19:05Z</time>
      </trkpt>
      <trkpt lat="28.3564720" lon="-16.5111850">
        <ele>1148.9</ele>
        <time>2020-11-11T15:19:06Z</time>
      </trkpt>
      <trkpt lat="28.3564720" lon="-16.5111850">
        <ele>1148.9</ele>
        <time>2020-11-11T15:19:07Z</time>
      </trkpt>
      <trkpt lat="28.3564430" lon="-16.5112320">
        <ele>1148.9</ele>
        <time>2020-11-11T15:19:08Z</time>
      </trkpt>
      <trkpt lat="28.3564430" lon="-16.5112320">
        <ele>1148.9</ele>
        <time>2020-11-11T15:19:09Z</time>
      </trkpt>
      <trkpt lat="28.3564170" lon="-16.5112750">
        <ele>1148.9</ele>
        <time>2020-11-11T15:19:10Z</time>
      </trkpt>
      <trkpt lat="28.3564170" lon="-16.5112750">
        <ele>1149.9</ele>
        <time>2020-11-11T15:19:11Z</time>
      </trkpt>
      <trkpt lat="28.3563950" lon="-16.5113120">
        <ele>1149.9</ele>
        <time>2020-11-11T15:19:12Z</time>
      </trkpt>
      <trkpt lat="28.3563950" lon="-16.5113120">
        <ele>1149.9</ele>
        <time>2020-11-11T15:19:13Z</time>
      </trkpt>
      <trkpt lat="28.3563720" lon="-16.5113500">
        <ele>1149.9</ele>
        <time>2020-11-11T15:19:14Z</time>
      </trkpt>
      <trkpt lat="28.3563720" lon="-16.5113500">
        <ele>1149.9</ele>
        <time>2020-11-11T15:19:15Z</time>
      </trkpt>
      <trkpt lat="28.3563570" lon="-16.5113980">
        <ele>1149.9</ele>
        <time>2020-11-11T15:19:16Z</time>
      </trkpt>
      <trkpt lat="28.3563570" lon="-16.5113980">
        <ele>1150.9</ele>
        <time>2020-11-11T15:19:17Z</time>
      </trkpt>
      <trkpt lat="28.3563330" lon="-16.5114450">
        <ele>1150.9</ele>
        <time>2020-11-11T15:19:18Z</time>
      </trkpt>
      <trkpt lat="28.3563330" lon="-16.5114450">
        <ele>1150.9</ele>
        <time>2020-11-11T15:19:19Z</time>
      </trkpt>
      <trkpt lat="28.3563050" lon="-16.5114900">
        <ele>1150.9</ele>
        <time>2020-11-11T15:19:20Z</time>
      </trkpt>
      <trkpt lat="28.3563050" lon="-16.5114900">
        <ele>1150.9</ele>
        <time>2020-11-11T15:19:21Z</time>
      </trkpt>
      <trkpt lat="28.3562700" lon="-16.5115280">
        <ele>1150.9</ele>
        <time>2020-11-11T15:19:22Z</time>
      </trkpt>
      <trkpt lat="28.3562700" lon="-16.5115280">
        <ele>1151.9</ele>
        <time>2020-11-11T15:19:23Z</time>
      </trkpt>
      <trkpt lat="28.3562420" lon="-16.5115680">
        <ele>1151.9</ele>
        <time>2020-11-11T15:19:24Z</time>
      </trkpt>
      <trkpt lat="28.3562420" lon="-16.5115680">
        <ele>1151.9</ele>
        <time>2020-11-11T15:19:25Z</time>
      </trkpt>
      <trkpt lat="28.3562080" lon="-16.5116100">
        <ele>1151.9</ele>
        <time>2020-11-11T15:19:26Z</time>
      </trkpt>
      <trkpt lat="28.3562080" lon="-16.5116100">
        <ele>1151.9</ele>
        <time>2020-11-11T15:19:27Z</time>
      </trkpt>
      <trkpt lat="28.3561830" lon="-16.5116580">
        <ele>1152.9</ele>
        <time>2020-11-11T15:19:28Z</time>
      </trkpt>
      <trkpt lat="28.3561700" lon="-16.5116800">
        <ele>1152.9</ele>
        <time>2020-11-11T15:19:29Z</time>
      </trkpt>
      <trkpt lat="28.3561700" lon="-16.5116800">
        <ele>1152.9</ele>
        <time>2020-11-11T15:19:30Z</time>
      </trkpt>
      <trkpt lat="28.3561500" lon="-16.5117220">
        <ele>1152.9</ele>
        <time>2020-11-11T15:19:31Z</time>
      </trkpt>
      <trkpt lat="28.3561500" lon="-16.5117220">
        <ele>1152.9</ele>
        <time>2020-11-11T15:19:32Z</time>
      </trkpt>
      <trkpt lat="28.3561270" lon="-16.5117730">
        <ele>1152.9</ele>
        <time>2020-11-11T15:19:33Z</time>
      </trkpt>
      <trkpt lat="28.3561270" lon="-16.5117730">
        <ele>1152.9</ele>
        <time>2020-11-11T15:19:34Z</time>
      </trkpt>
      <trkpt lat="28.3561030" lon="-16.5118150">
        <ele>1152.9</ele>
        <time>2020-11-11T15:19:35Z</time>
      </trkpt>
      <trkpt lat="28.3561030" lon="-16.5118150">
        <ele>1152.9</ele>
        <time>2020-11-11T15:19:36Z</time>
      </trkpt>
      <trkpt lat="28.3560750" lon="-16.5118630">
        <ele>1152.9</ele>
        <time>2020-11-11T15:19:37Z</time>
      </trkpt>
      <trkpt lat="28.3560750" lon="-16.5118630">
        <ele>1152.9</ele>
        <time>2020-11-11T15:19:38Z</time>
      </trkpt>
      <trkpt lat="28.3560450" lon="-16.5119120">
        <ele>1152.9</ele>
        <time>2020-11-11T15:19:39Z</time>
      </trkpt>
      <trkpt lat="28.3560270" lon="-16.5119350">
        <ele>1152.9</ele>
        <time>2020-11-11T15:19:40Z</time>
      </trkpt>
      <trkpt lat="28.3560270" lon="-16.5119350">
        <ele>1152.9</ele>
        <time>2020-11-11T15:19:41Z</time>
      </trkpt>
      <trkpt lat="28.3559970" lon="-16.5119730">
        <ele>1154.9</ele>
        <time>2020-11-11T15:19:42Z</time>
      </trkpt>
      <trkpt lat="28.3559850" lon="-16.5119930">
        <ele>1154.9</ele>
        <time>2020-11-11T15:19:43Z</time>
      </trkpt>
      <trkpt lat="28.3559850" lon="-16.5119930">
        <ele>1154.9</ele>
        <time>2020-11-11T15:19:44Z</time>
      </trkpt>
      <trkpt lat="28.3559630" lon="-16.5120300">
        <ele>1154.9</ele>
        <time>2020-11-11T15:19:45Z</time>
      </trkpt>
      <trkpt lat="28.3559630" lon="-16.5120300">
        <ele>1154.9</ele>
        <time>2020-11-11T15:19:46Z</time>
      </trkpt>
      <trkpt lat="28.3559430" lon="-16.5120630">
        <ele>1154.9</ele>
        <time>2020-11-11T15:19:47Z</time>
      </trkpt>
      <trkpt lat="28.3559300" lon="-16.5120800">
        <ele>1154.9</ele>
        <time>2020-11-11T15:19:48Z</time>
      </trkpt>
      <trkpt lat="28.3559150" lon="-16.5120970">
        <ele>1154.9</ele>
        <time>2020-11-11T15:19:49Z</time>
      </trkpt>
      <trkpt lat="28.3559150" lon="-16.5120970">
        <ele>1154.9</ele>
        <time>2020-11-11T15:19:50Z</time>
      </trkpt>
      <trkpt lat="28.3558920" lon="-16.5121380">
        <ele>1154.9</ele>
        <time>2020-11-11T15:19:51Z</time>
      </trkpt>
      <trkpt lat="28.3558920" lon="-16.5121380">
        <ele>1154.9</ele>
        <time>2020-11-11T15:19:52Z</time>
      </trkpt>
      <trkpt lat="28.3558650" lon="-16.5121820">
        <ele>1154.9</ele>
        <time>2020-11-11T15:19:53Z</time>
      </trkpt>
      <trkpt lat="28.3558530" lon="-16.5122020">
        <ele>1155.9</ele>
        <time>2020-11-11T15:19:54Z</time>
      </trkpt>
      <trkpt lat="28.3558530" lon="-16.5122020">
        <ele>1155.9</ele>
        <time>2020-11-11T15:19:55Z</time>
      </trkpt>
      <trkpt lat="28.3558250" lon="-16.5122400">
        <ele>1155.9</ele>
        <time>2020-11-11T15:19:56Z</time>
      </trkpt>
      <trkpt lat="28.3558250" lon="-16.5122400">
        <ele>1155.9</ele>
        <time>2020-11-11T15:19:57Z</time>
      </trkpt>
      <trkpt lat="28.3557970" lon="-16.5122780">
        <ele>1155.9</ele>
        <time>2020-11-11T15:19:58Z</time>
      </trkpt>
      <trkpt lat="28.3557970" lon="-16.5122780">
        <ele>1155.9</ele>
        <time>2020-11-11T15:19:59Z</time>
      </trkpt>
      <trkpt lat="28.3557680" lon="-16.5123120">
        <ele>1157.9</ele>
        <time>2020-11-11T15:20:00Z</time>
      </trkpt>
      <trkpt lat="28.3557680" lon="-16.5123120">
        <ele>1157.9</ele>
        <time>2020-11-11T15:20:01Z</time>
      </trkpt>
      <trkpt lat="28.3557480" lon="-16.5123480">
        <ele>1157.9</ele>
        <time>2020-11-11T15:20:02Z</time>
      </trkpt>
      <trkpt lat="28.3557480" lon="-16.5123480">
        <ele>1157.9</ele>
        <time>2020-11-11T15:20:03Z</time>
      </trkpt>
      <trkpt lat="28.3557380" lon="-16.5123880">
        <ele>1157.9</ele>
        <time>2020-11-11T15:20:04Z</time>
      </trkpt>
      <trkpt lat="28.3557300" lon="-16.5124130">
        <ele>1157.9</ele>
        <time>2020-11-11T15:20:05Z</time>
      </trkpt>
      <trkpt lat="28.3557300" lon="-16.5124130">
        <ele>1157.9</ele>
        <time>2020-11-11T15:20:06Z</time>
      </trkpt>
      <trkpt lat="28.3557180" lon="-16.5124620">
        <ele>1157.9</ele>
        <time>2020-11-11T15:20:07Z</time>
      </trkpt>
      <trkpt lat="28.3557180" lon="-16.5124620">
        <ele>1157.9</ele>
        <time>2020-11-11T15:20:08Z</time>
      </trkpt>
      <trkpt lat="28.3557050" lon="-16.5125100">
        <ele>1157.9</ele>
        <time>2020-11-11T15:20:09Z</time>
      </trkpt>
      <trkpt lat="28.3556970" lon="-16.5125370">
        <ele>1159.9</ele>
        <time>2020-11-11T15:20:10Z</time>
      </trkpt>
      <trkpt lat="28.3556970" lon="-16.5125370">
        <ele>1159.9</ele>
        <time>2020-11-11T15:20:11Z</time>
      </trkpt>
      <trkpt lat="28.3556780" lon="-16.5125880">
        <ele>1159.9</ele>
        <time>2020-11-11T15:20:12Z</time>
      </trkpt>
      <trkpt lat="28.3556730" lon="-16.5126130">
        <ele>1159.9</ele>
        <time>2020-11-11T15:20:13Z</time>
      </trkpt>
      <trkpt lat="28.3556700" lon="-16.5126380">
        <ele>1159.9</ele>
        <time>2020-11-11T15:20:14Z</time>
      </trkpt>
      <trkpt lat="28.3556700" lon="-16.5126380">
        <ele>1159.9</ele>
        <time>2020-11-11T15:20:15Z</time>
      </trkpt>
      <trkpt lat="28.3556650" lon="-16.5126820">
        <ele>1160.9</ele>
        <time>2020-11-11T15:20:16Z</time>
      </trkpt>
      <trkpt lat="28.3556650" lon="-16.5126820">
        <ele>1160.9</ele>
        <time>2020-11-11T15:20:17Z</time>
      </trkpt>
      <trkpt lat="28.3556620" lon="-16.5127280">
        <ele>1160.9</ele>
        <time>2020-11-11T15:20:18Z</time>
      </trkpt>
      <trkpt lat="28.3556600" lon="-16.5127550">
        <ele>1160.9</ele>
        <time>2020-11-11T15:20:19Z</time>
      </trkpt>
      <trkpt lat="28.3556600" lon="-16.5127550">
        <ele>1160.9</ele>
        <time>2020-11-11T15:20:20Z</time>
      </trkpt>
      <trkpt lat="28.3556570" lon="-16.5128100">
        <ele>1160.9</ele>
        <time>2020-11-11T15:20:21Z</time>
      </trkpt>
      <trkpt lat="28.3556570" lon="-16.5128100">
        <ele>1160.9</ele>
        <time>2020-11-11T15:20:22Z</time>
      </trkpt>
      <trkpt lat="28.3556520" lon="-16.5128670">
        <ele>1160.9</ele>
        <time>2020-11-11T15:20:23Z</time>
      </trkpt>
      <trkpt lat="28.3556520" lon="-16.5128670">
        <ele>1160.9</ele>
        <time>2020-11-11T15:20:24Z</time>
      </trkpt>
      <trkpt lat="28.3556470" lon="-16.5129220">
        <ele>1160.9</ele>
        <time>2020-11-11T15:20:25Z</time>
      </trkpt>
      <trkpt lat="28.3556470" lon="-16.5129220">
        <ele>1160.9</ele>
        <time>2020-11-11T15:20:26Z</time>
      </trkpt>
      <trkpt lat="28.3556320" lon="-16.5129770">
        <ele>1160.9</ele>
        <time>2020-11-11T15:20:27Z</time>
      </trkpt>
      <trkpt lat="28.3556250" lon="-16.5130030">
        <ele>1160.9</ele>
        <time>2020-11-11T15:20:28Z</time>
      </trkpt>
      <trkpt lat="28.3556250" lon="-16.5130030">
        <ele>1160.9</ele>
        <time>2020-11-11T15:20:29Z</time>
      </trkpt>
      <trkpt lat="28.3556170" lon="-16.5130570">
        <ele>1160.9</ele>
        <time>2020-11-11T15:20:30Z</time>
      </trkpt>
      <trkpt lat="28.3556130" lon="-16.5130780">
        <ele>1160.9</ele>
        <time>2020-11-11T15:20:31Z</time>
      </trkpt>
      <trkpt lat="28.3556130" lon="-16.5130780">
        <ele>1160.9</ele>
        <time>2020-11-11T15:20:32Z</time>
      </trkpt>
      <trkpt lat="28.3556100" lon="-16.5131100">
        <ele>1160.9</ele>
        <time>2020-11-11T15:20:33Z</time>
      </trkpt>
      <trkpt lat="28.3556120" lon="-16.5131170">
        <ele>1160.9</ele>
        <time>2020-11-11T15:20:34Z</time>
      </trkpt>
      <trkpt lat="28.3556120" lon="-16.5131170">
        <ele>1160.9</ele>
        <time>2020-11-11T15:20:35Z</time>
      </trkpt>
      <trkpt lat="28.3556150" lon="-16.5131200">
        <ele>1161.9</ele>
        <time>2020-11-11T15:20:36Z</time>
      </trkpt>
      <trkpt lat="28.3556150" lon="-16.5131200">
        <ele>1161.9</ele>
        <time>2020-11-11T15:21:57Z</time>
      </trkpt>
      <trkpt lat="28.3556030" lon="-16.5131520">
        <ele>1161.9</ele>
        <time>2020-11-11T15:21:58Z</time>
      </trkpt>
      <trkpt lat="28.3556030" lon="-16.5131520">
        <ele>1161.9</ele>
        <time>2020-11-11T15:25:14Z</time>
      </trkpt>
      <trkpt lat="28.3556030" lon="-16.5131520">
        <ele>1161.9</ele>
        <time>2020-11-11T15:25:15Z</time>
      </trkpt>
      <trkpt lat="28.3555550" lon="-16.5132220">
        <ele>1161.9</ele>
        <time>2020-11-11T15:25:16Z</time>
      </trkpt>
      <trkpt lat="28.3555500" lon="-16.5132530">
        <ele>1161.9</ele>
        <time>2020-11-11T15:25:17Z</time>
      </trkpt>
      <trkpt lat="28.3555500" lon="-16.5132530">
        <ele>1161.9</ele>
        <time>2020-11-11T15:25:18Z</time>
      </trkpt>
      <trkpt lat="28.3555500" lon="-16.5133130">
        <ele>1161.9</ele>
        <time>2020-11-11T15:25:19Z</time>
      </trkpt>
      <trkpt lat="28.3555430" lon="-16.5133450">
        <ele>1161.9</ele>
        <time>2020-11-11T15:25:20Z</time>
      </trkpt>
      <trkpt lat="28.3555430" lon="-16.5133450">
        <ele>1162.9</ele>
        <time>2020-11-11T15:25:21Z</time>
      </trkpt>
      <trkpt lat="28.3555330" lon="-16.5134000">
        <ele>1162.9</ele>
        <time>2020-11-11T15:25:22Z</time>
      </trkpt>
      <trkpt lat="28.3555330" lon="-16.5134000">
        <ele>1162.9</ele>
        <time>2020-11-11T15:25:23Z</time>
      </trkpt>
      <trkpt lat="28.3555220" lon="-16.5134570">
        <ele>1162.9</ele>
        <time>2020-11-11T15:25:24Z</time>
      </trkpt>
      <trkpt lat="28.3555220" lon="-16.5134570">
        <ele>1162.9</ele>
        <time>2020-11-11T15:25:25Z</time>
      </trkpt>
      <trkpt lat="28.3555180" lon="-16.5135100">
        <ele>1162.9</ele>
        <time>2020-11-11T15:25:26Z</time>
      </trkpt>
      <trkpt lat="28.3555180" lon="-16.5135100">
        <ele>1162.9</ele>
        <time>2020-11-11T15:25:27Z</time>
      </trkpt>
      <trkpt lat="28.3555150" lon="-16.5135630">
        <ele>1162.9</ele>
        <time>2020-11-11T15:25:28Z</time>
      </trkpt>
      <trkpt lat="28.3555150" lon="-16.5135630">
        <ele>1163.9</ele>
        <time>2020-11-11T15:25:29Z</time>
      </trkpt>
      <trkpt lat="28.3555070" lon="-16.5136100">
        <ele>1163.9</ele>
        <time>2020-11-11T15:25:30Z</time>
      </trkpt>
      <trkpt lat="28.3555070" lon="-16.5136100">
        <ele>1163.9</ele>
        <time>2020-11-11T15:25:31Z</time>
      </trkpt>
      <trkpt lat="28.3554980" lon="-16.5136580">
        <ele>1163.9</ele>
        <time>2020-11-11T15:25:32Z</time>
      </trkpt>
      <trkpt lat="28.3554930" lon="-16.5136850">
        <ele>1164.9</ele>
        <time>2020-11-11T15:25:33Z</time>
      </trkpt>
      <trkpt lat="28.3554930" lon="-16.5136850">
        <ele>1164.9</ele>
        <time>2020-11-11T15:25:34Z</time>
      </trkpt>
      <trkpt lat="28.3554800" lon="-16.5137280">
        <ele>1164.9</ele>
        <time>2020-11-11T15:25:35Z</time>
      </trkpt>
      <trkpt lat="28.3554800" lon="-16.5137280">
        <ele>1164.9</ele>
        <time>2020-11-11T15:25:36Z</time>
      </trkpt>
      <trkpt lat="28.3554580" lon="-16.5137720">
        <ele>1164.9</ele>
        <time>2020-11-11T15:25:37Z</time>
      </trkpt>
      <trkpt lat="28.3554450" lon="-16.5137920">
        <ele>1164.9</ele>
        <time>2020-11-11T15:25:38Z</time>
      </trkpt>
      <trkpt lat="28.3554450" lon="-16.5137920">
        <ele>1164.9</ele>
        <time>2020-11-11T15:25:39Z</time>
      </trkpt>
      <trkpt lat="28.3554150" lon="-16.5138280">
        <ele>1164.9</ele>
        <time>2020-11-11T15:25:40Z</time>
      </trkpt>
      <trkpt lat="28.3554150" lon="-16.5138280">
        <ele>1165.9</ele>
        <time>2020-11-11T15:25:41Z</time>
      </trkpt>
      <trkpt lat="28.3553700" lon="-16.5138730">
        <ele>1165.9</ele>
        <time>2020-11-11T15:25:42Z</time>
      </trkpt>
      <trkpt lat="28.3553700" lon="-16.5138730">
        <ele>1165.9</ele>
        <time>2020-11-11T15:25:43Z</time>
      </trkpt>
      <trkpt lat="28.3553180" lon="-16.5139170">
        <ele>1165.9</ele>
        <time>2020-11-11T15:25:44Z</time>
      </trkpt>
      <trkpt lat="28.3553180" lon="-16.5139170">
        <ele>1165.9</ele>
        <time>2020-11-11T15:25:45Z</time>
      </trkpt>
      <trkpt lat="28.3552820" lon="-16.5139720">
        <ele>1165.9</ele>
        <time>2020-11-11T15:25:46Z</time>
      </trkpt>
      <trkpt lat="28.3552820" lon="-16.5139720">
        <ele>1165.9</ele>
        <time>2020-11-11T15:25:47Z</time>
      </trkpt>
      <trkpt lat="28.3552730" lon="-16.5140670">
        <ele>1165.9</ele>
        <time>2020-11-11T15:25:48Z</time>
      </trkpt>
      <trkpt lat="28.3552730" lon="-16.5140670">
        <ele>1165.9</ele>
        <time>2020-11-11T15:25:49Z</time>
      </trkpt>
      <trkpt lat="28.3552750" lon="-16.5141430">
        <ele>1165.9</ele>
        <time>2020-11-11T15:25:50Z</time>
      </trkpt>
      <trkpt lat="28.3552750" lon="-16.5141430">
        <ele>1165.9</ele>
        <time>2020-11-11T15:25:51Z</time>
      </trkpt>
      <trkpt lat="28.3552930" lon="-16.5142120">
        <ele>1165.9</ele>
        <time>2020-11-11T15:25:52Z</time>
      </trkpt>
      <trkpt lat="28.3553020" lon="-16.5142400">
        <ele>1165.9</ele>
        <time>2020-11-11T15:25:53Z</time>
      </trkpt>
      <trkpt lat="28.3553020" lon="-16.5142400">
        <ele>1166.9</ele>
        <time>2020-11-11T15:25:54Z</time>
      </trkpt>
      <trkpt lat="28.3553250" lon="-16.5143030">
        <ele>1166.9</ele>
        <time>2020-11-11T15:25:55Z</time>
      </trkpt>
      <trkpt lat="28.3553250" lon="-16.5143030">
        <ele>1165.9</ele>
        <time>2020-11-11T15:25:56Z</time>
      </trkpt>
      <trkpt lat="28.3553500" lon="-16.5143750">
        <ele>1165.9</ele>
        <time>2020-11-11T15:25:57Z</time>
      </trkpt>
      <trkpt lat="28.3553620" lon="-16.5144130">
        <ele>1166.9</ele>
        <time>2020-11-11T15:25:58Z</time>
      </trkpt>
      <trkpt lat="28.3553620" lon="-16.5144130">
        <ele>1166.9</ele>
        <time>2020-11-11T15:25:59Z</time>
      </trkpt>
      <trkpt lat="28.3553800" lon="-16.5144830">
        <ele>1167.9</ele>
        <time>2020-11-11T15:26:00Z</time>
      </trkpt>
      <trkpt lat="28.3553800" lon="-16.5144830">
        <ele>1167.9</ele>
        <time>2020-11-11T15:26:01Z</time>
      </trkpt>
      <trkpt lat="28.3553870" lon="-16.5145480">
        <ele>1167.9</ele>
        <time>2020-11-11T15:26:02Z</time>
      </trkpt>
      <trkpt lat="28.3553870" lon="-16.5145480">
        <ele>1167.9</ele>
        <time>2020-11-11T15:26:03Z</time>
      </trkpt>
      <trkpt lat="28.3553820" lon="-16.5146180">
        <ele>1167.9</ele>
        <time>2020-11-11T15:26:04Z</time>
      </trkpt>
      <trkpt lat="28.3553800" lon="-16.5146520">
        <ele>1167.9</ele>
        <time>2020-11-11T15:26:05Z</time>
      </trkpt>
      <trkpt lat="28.3553800" lon="-16.5146520">
        <ele>1167.9</ele>
        <time>2020-11-11T15:26:06Z</time>
      </trkpt>
      <trkpt lat="28.3553700" lon="-16.5147170">
        <ele>1167.9</ele>
        <time>2020-11-11T15:26:07Z</time>
      </trkpt>
      <trkpt lat="28.3553700" lon="-16.5147170">
        <ele>1167.9</ele>
        <time>2020-11-11T15:26:08Z</time>
      </trkpt>
      <trkpt lat="28.3553550" lon="-16.5147850">
        <ele>1167.9</ele>
        <time>2020-11-11T15:26:09Z</time>
      </trkpt>
      <trkpt lat="28.3553550" lon="-16.5147850">
        <ele>1168.9</ele>
        <time>2020-11-11T15:26:10Z</time>
      </trkpt>
      <trkpt lat="28.3553420" lon="-16.5148520">
        <ele>1168.9</ele>
        <time>2020-11-11T15:26:11Z</time>
      </trkpt>
      <trkpt lat="28.3553420" lon="-16.5148520">
        <ele>1168.9</ele>
        <time>2020-11-11T15:26:12Z</time>
      </trkpt>
      <trkpt lat="28.3553220" lon="-16.5149080">
        <ele>1168.9</ele>
        <time>2020-11-11T15:26:13Z</time>
      </trkpt>
      <trkpt lat="28.3553080" lon="-16.5149350">
        <ele>1168.9</ele>
        <time>2020-11-11T15:26:14Z</time>
      </trkpt>
      <trkpt lat="28.3553080" lon="-16.5149350">
        <ele>1168.9</ele>
        <time>2020-11-11T15:26:15Z</time>
      </trkpt>
      <trkpt lat="28.3552830" lon="-16.5149830">
        <ele>1168.9</ele>
        <time>2020-11-11T15:26:16Z</time>
      </trkpt>
      <trkpt lat="28.3552830" lon="-16.5149830">
        <ele>1168.9</ele>
        <time>2020-11-11T15:26:17Z</time>
      </trkpt>
      <trkpt lat="28.3552480" lon="-16.5150400">
        <ele>1169.9</ele>
        <time>2020-11-11T15:26:18Z</time>
      </trkpt>
      <trkpt lat="28.3552480" lon="-16.5150400">
        <ele>1169.9</ele>
        <time>2020-11-11T15:26:19Z</time>
      </trkpt>
      <trkpt lat="28.3552220" lon="-16.5150900">
        <ele>1169.9</ele>
        <time>2020-11-11T15:26:20Z</time>
      </trkpt>
      <trkpt lat="28.3552220" lon="-16.5150900">
        <ele>1169.9</ele>
        <time>2020-11-11T15:26:21Z</time>
      </trkpt>
      <trkpt lat="28.3551880" lon="-16.5151530">
        <ele>1169.9</ele>
        <time>2020-11-11T15:26:22Z</time>
      </trkpt>
      <trkpt lat="28.3551880" lon="-16.5151530">
        <ele>1169.9</ele>
        <time>2020-11-11T15:26:23Z</time>
      </trkpt>
      <trkpt lat="28.3551520" lon="-16.5152120">
        <ele>1169.9</ele>
        <time>2020-11-11T15:26:24Z</time>
      </trkpt>
      <trkpt lat="28.3551320" lon="-16.5152320">
        <ele>1170.9</ele>
        <time>2020-11-11T15:26:25Z</time>
      </trkpt>
      <trkpt lat="28.3551320" lon="-16.5152320">
        <ele>1170.9</ele>
        <time>2020-11-11T15:26:26Z</time>
      </trkpt>
      <trkpt lat="28.3550900" lon="-16.5152730">
        <ele>1170.9</ele>
        <time>2020-11-11T15:26:27Z</time>
      </trkpt>
      <trkpt lat="28.3550680" lon="-16.5153000">
        <ele>1170.9</ele>
        <time>2020-11-11T15:26:28Z</time>
      </trkpt>
      <trkpt lat="28.3550680" lon="-16.5153000">
        <ele>1170.9</ele>
        <time>2020-11-11T15:26:29Z</time>
      </trkpt>
      <trkpt lat="28.3550200" lon="-16.5153450">
        <ele>1170.9</ele>
        <time>2020-11-11T15:26:30Z</time>
      </trkpt>
      <trkpt lat="28.3550200" lon="-16.5153450">
        <ele>1171.9</ele>
        <time>2020-11-11T15:26:31Z</time>
      </trkpt>
      <trkpt lat="28.3549830" lon="-16.5153880">
        <ele>1171.9</ele>
        <time>2020-11-11T15:26:32Z</time>
      </trkpt>
      <trkpt lat="28.3549830" lon="-16.5153880">
        <ele>1171.9</ele>
        <time>2020-11-11T15:26:33Z</time>
      </trkpt>
      <trkpt lat="28.3549480" lon="-16.5154350">
        <ele>1171.9</ele>
        <time>2020-11-11T15:26:34Z</time>
      </trkpt>
      <trkpt lat="28.3549480" lon="-16.5154350">
        <ele>1171.9</ele>
        <time>2020-11-11T15:26:35Z</time>
      </trkpt>
      <trkpt lat="28.3549130" lon="-16.5154870">
        <ele>1171.9</ele>
        <time>2020-11-11T15:26:36Z</time>
      </trkpt>
      <trkpt lat="28.3549130" lon="-16.5154870">
        <ele>1172.9</ele>
        <time>2020-11-11T15:26:37Z</time>
      </trkpt>
      <trkpt lat="28.3548730" lon="-16.5155380">
        <ele>1172.9</ele>
        <time>2020-11-11T15:26:38Z</time>
      </trkpt>
      <trkpt lat="28.3548730" lon="-16.5155380">
        <ele>1172.9</ele>
        <time>2020-11-11T15:26:39Z</time>
      </trkpt>
      <trkpt lat="28.3548330" lon="-16.5155830">
        <ele>1172.9</ele>
        <time>2020-11-11T15:26:40Z</time>
      </trkpt>
      <trkpt lat="28.3548330" lon="-16.5155830">
        <ele>1172.9</ele>
        <time>2020-11-11T15:26:41Z</time>
      </trkpt>
      <trkpt lat="28.3547900" lon="-16.5156320">
        <ele>1172.9</ele>
        <time>2020-11-11T15:26:42Z</time>
      </trkpt>
      <trkpt lat="28.3547900" lon="-16.5156320">
        <ele>1173.9</ele>
        <time>2020-11-11T15:26:43Z</time>
      </trkpt>
      <trkpt lat="28.3547580" lon="-16.5156820">
        <ele>1173.9</ele>
        <time>2020-11-11T15:26:44Z</time>
      </trkpt>
      <trkpt lat="28.3547580" lon="-16.5156820">
        <ele>1173.9</ele>
        <time>2020-11-11T15:26:45Z</time>
      </trkpt>
      <trkpt lat="28.3547300" lon="-16.5157380">
        <ele>1173.9</ele>
        <time>2020-11-11T15:26:46Z</time>
      </trkpt>
      <trkpt lat="28.3547300" lon="-16.5157380">
        <ele>1173.9</ele>
        <time>2020-11-11T15:26:47Z</time>
      </trkpt>
      <trkpt lat="28.3547030" lon="-16.5157900">
        <ele>1173.9</ele>
        <time>2020-11-11T15:26:48Z</time>
      </trkpt>
      <trkpt lat="28.3547030" lon="-16.5157900">
        <ele>1173.9</ele>
        <time>2020-11-11T15:26:49Z</time>
      </trkpt>
      <trkpt lat="28.3546970" lon="-16.5158700">
        <ele>1173.9</ele>
        <time>2020-11-11T15:26:50Z</time>
      </trkpt>
      <trkpt lat="28.3546970" lon="-16.5158700">
        <ele>1175.9</ele>
        <time>2020-11-11T15:26:51Z</time>
      </trkpt>
      <trkpt lat="28.3546830" lon="-16.5159350">
        <ele>1175.9</ele>
        <time>2020-11-11T15:26:52Z</time>
      </trkpt>
      <trkpt lat="28.3546830" lon="-16.5159350">
        <ele>1175.9</ele>
        <time>2020-11-11T15:26:53Z</time>
      </trkpt>
      <trkpt lat="28.3546630" lon="-16.5159930">
        <ele>1175.9</ele>
        <time>2020-11-11T15:26:54Z</time>
      </trkpt>
      <trkpt lat="28.3546550" lon="-16.5160180">
        <ele>1175.9</ele>
        <time>2020-11-11T15:26:55Z</time>
      </trkpt>
      <trkpt lat="28.3546550" lon="-16.5160180">
        <ele>1175.9</ele>
        <time>2020-11-11T15:26:56Z</time>
      </trkpt>
      <trkpt lat="28.3546370" lon="-16.5160700">
        <ele>1175.9</ele>
        <time>2020-11-11T15:26:57Z</time>
      </trkpt>
      <trkpt lat="28.3546370" lon="-16.5160700">
        <ele>1175.9</ele>
        <time>2020-11-11T15:26:58Z</time>
      </trkpt>
      <trkpt lat="28.3546180" lon="-16.5161230">
        <ele>1175.9</ele>
        <time>2020-11-11T15:26:59Z</time>
      </trkpt>
      <trkpt lat="28.3546180" lon="-16.5161230">
        <ele>1175.9</ele>
        <time>2020-11-11T15:27:00Z</time>
      </trkpt>
      <trkpt lat="28.3546020" lon="-16.5161720">
        <ele>1176.9</ele>
        <time>2020-11-11T15:27:01Z</time>
      </trkpt>
      <trkpt lat="28.3545970" lon="-16.5161950">
        <ele>1176.9</ele>
        <time>2020-11-11T15:27:02Z</time>
      </trkpt>
      <trkpt lat="28.3545970" lon="-16.5161950">
        <ele>1176.9</ele>
        <time>2020-11-11T15:27:03Z</time>
      </trkpt>
      <trkpt lat="28.3545950" lon="-16.5162330">
        <ele>1176.9</ele>
        <time>2020-11-11T15:27:04Z</time>
      </trkpt>
      <trkpt lat="28.3545950" lon="-16.5162330">
        <ele>1177.9</ele>
        <time>2020-11-11T15:27:05Z</time>
      </trkpt>
      <trkpt lat="28.3545930" lon="-16.5162730">
        <ele>1177.9</ele>
        <time>2020-11-11T15:27:06Z</time>
      </trkpt>
      <trkpt lat="28.3545930" lon="-16.5162730">
        <ele>1177.9</ele>
        <time>2020-11-11T15:27:07Z</time>
      </trkpt>
      <trkpt lat="28.3545870" lon="-16.5163220">
        <ele>1177.9</ele>
        <time>2020-11-11T15:27:08Z</time>
      </trkpt>
      <trkpt lat="28.3545870" lon="-16.5163220">
        <ele>1178.9</ele>
        <time>2020-11-11T15:27:09Z</time>
      </trkpt>
      <trkpt lat="28.3545830" lon="-16.5163750">
        <ele>1178.9</ele>
        <time>2020-11-11T15:27:10Z</time>
      </trkpt>
      <trkpt lat="28.3545830" lon="-16.5163750">
        <ele>1178.9</ele>
        <time>2020-11-11T15:27:11Z</time>
      </trkpt>
      <trkpt lat="28.3545800" lon="-16.5164270">
        <ele>1178.9</ele>
        <time>2020-11-11T15:27:12Z</time>
      </trkpt>
      <trkpt lat="28.3545800" lon="-16.5164270">
        <ele>1178.9</ele>
        <time>2020-11-11T15:27:13Z</time>
      </trkpt>
      <trkpt lat="28.3545680" lon="-16.5164750">
        <ele>1178.9</ele>
        <time>2020-11-11T15:27:14Z</time>
      </trkpt>
      <trkpt lat="28.3545680" lon="-16.5164750">
        <ele>1179.9</ele>
        <time>2020-11-11T15:27:15Z</time>
      </trkpt>
      <trkpt lat="28.3545500" lon="-16.5165220">
        <ele>1179.9</ele>
        <time>2020-11-11T15:27:16Z</time>
      </trkpt>
      <trkpt lat="28.3545500" lon="-16.5165220">
        <ele>1179.9</ele>
        <time>2020-11-11T15:27:17Z</time>
      </trkpt>
      <trkpt lat="28.3545320" lon="-16.5165630">
        <ele>1179.9</ele>
        <time>2020-11-11T15:27:18Z</time>
      </trkpt>
      <trkpt lat="28.3545320" lon="-16.5165630">
        <ele>1179.9</ele>
        <time>2020-11-11T15:27:19Z</time>
      </trkpt>
      <trkpt lat="28.3544930" lon="-16.5166130">
        <ele>1179.9</ele>
        <time>2020-11-11T15:27:20Z</time>
      </trkpt>
      <trkpt lat="28.3544930" lon="-16.5166130">
        <ele>1179.9</ele>
        <time>2020-11-11T15:27:21Z</time>
      </trkpt>
      <trkpt lat="28.3544670" lon="-16.5166620">
        <ele>1179.9</ele>
        <time>2020-11-11T15:27:22Z</time>
      </trkpt>
      <trkpt lat="28.3544670" lon="-16.5166620">
        <ele>1180.9</ele>
        <time>2020-11-11T15:27:23Z</time>
      </trkpt>
      <trkpt lat="28.3544500" lon="-16.5167080">
        <ele>1180.9</ele>
        <time>2020-11-11T15:27:24Z</time>
      </trkpt>
      <trkpt lat="28.3544500" lon="-16.5167080">
        <ele>1180.9</ele>
        <time>2020-11-11T15:27:25Z</time>
      </trkpt>
      <trkpt lat="28.3544300" lon="-16.5167530">
        <ele>1180.9</ele>
        <time>2020-11-11T15:27:26Z</time>
      </trkpt>
      <trkpt lat="28.3544300" lon="-16.5167530">
        <ele>1180.9</ele>
        <time>2020-11-11T15:27:27Z</time>
      </trkpt>
      <trkpt lat="28.3544070" lon="-16.5167920">
        <ele>1180.9</ele>
        <time>2020-11-11T15:27:28Z</time>
      </trkpt>
      <trkpt lat="28.3543950" lon="-16.5168100">
        <ele>1180.9</ele>
        <time>2020-11-11T15:27:29Z</time>
      </trkpt>
      <trkpt lat="28.3543950" lon="-16.5168100">
        <ele>1181.9</ele>
        <time>2020-11-11T15:27:30Z</time>
      </trkpt>
      <trkpt lat="28.3543770" lon="-16.5168420">
        <ele>1181.9</ele>
        <time>2020-11-11T15:27:31Z</time>
      </trkpt>
      <trkpt lat="28.3543770" lon="-16.5168420">
        <ele>1181.9</ele>
        <time>2020-11-11T15:27:32Z</time>
      </trkpt>
      <trkpt lat="28.3543530" lon="-16.5168900">
        <ele>1181.9</ele>
        <time>2020-11-11T15:27:33Z</time>
      </trkpt>
      <trkpt lat="28.3543530" lon="-16.5168900">
        <ele>1181.9</ele>
        <time>2020-11-11T15:27:34Z</time>
      </trkpt>
      <trkpt lat="28.3543380" lon="-16.5169400">
        <ele>1181.9</ele>
        <time>2020-11-11T15:27:35Z</time>
      </trkpt>
      <trkpt lat="28.3543330" lon="-16.5169650">
        <ele>1181.9</ele>
        <time>2020-11-11T15:27:36Z</time>
      </trkpt>
      <trkpt lat="28.3543330" lon="-16.5169650">
        <ele>1181.9</ele>
        <time>2020-11-11T15:27:37Z</time>
      </trkpt>
      <trkpt lat="28.3543280" lon="-16.5170020">
        <ele>1182.9</ele>
        <time>2020-11-11T15:27:38Z</time>
      </trkpt>
      <trkpt lat="28.3543280" lon="-16.5170020">
        <ele>1182.9</ele>
        <time>2020-11-11T15:27:39Z</time>
      </trkpt>
      <trkpt lat="28.3543280" lon="-16.5170470">
        <ele>1182.9</ele>
        <time>2020-11-11T15:27:40Z</time>
      </trkpt>
      <trkpt lat="28.3543280" lon="-16.5170470">
        <ele>1182.9</ele>
        <time>2020-11-11T15:27:41Z</time>
      </trkpt>
      <trkpt lat="28.3543250" lon="-16.5171000">
        <ele>1182.9</ele>
        <time>2020-11-11T15:27:42Z</time>
      </trkpt>
      <trkpt lat="28.3543250" lon="-16.5171000">
        <ele>1182.9</ele>
        <time>2020-11-11T15:27:43Z</time>
      </trkpt>
      <trkpt lat="28.3543220" lon="-16.5171530">
        <ele>1182.9</ele>
        <time>2020-11-11T15:27:44Z</time>
      </trkpt>
      <trkpt lat="28.3543220" lon="-16.5171530">
        <ele>1182.9</ele>
        <time>2020-11-11T15:27:45Z</time>
      </trkpt>
      <trkpt lat="28.3543150" lon="-16.5172070">
        <ele>1182.9</ele>
        <time>2020-11-11T15:27:46Z</time>
      </trkpt>
      <trkpt lat="28.3543120" lon="-16.5172350">
        <ele>1182.9</ele>
        <time>2020-11-11T15:27:47Z</time>
      </trkpt>
      <trkpt lat="28.3543120" lon="-16.5172350">
        <ele>1183.9</ele>
        <time>2020-11-11T15:27:48Z</time>
      </trkpt>
      <trkpt lat="28.3543050" lon="-16.5172920">
        <ele>1183.9</ele>
        <time>2020-11-11T15:27:49Z</time>
      </trkpt>
      <trkpt lat="28.3543050" lon="-16.5172920">
        <ele>1183.9</ele>
        <time>2020-11-11T15:27:50Z</time>
      </trkpt>
      <trkpt lat="28.3542920" lon="-16.5173420">
        <ele>1183.9</ele>
        <time>2020-11-11T15:27:51Z</time>
      </trkpt>
      <trkpt lat="28.3542920" lon="-16.5173420">
        <ele>1183.9</ele>
        <time>2020-11-11T15:27:52Z</time>
      </trkpt>
      <trkpt lat="28.3542780" lon="-16.5173880">
        <ele>1183.9</ele>
        <time>2020-11-11T15:27:53Z</time>
      </trkpt>
      <trkpt lat="28.3542750" lon="-16.5174150">
        <ele>1183.9</ele>
        <time>2020-11-11T15:27:54Z</time>
      </trkpt>
      <trkpt lat="28.3542750" lon="-16.5174150">
        <ele>1183.9</ele>
        <time>2020-11-11T15:27:55Z</time>
      </trkpt>
      <trkpt lat="28.3542630" lon="-16.5174670">
        <ele>1184.9</ele>
        <time>2020-11-11T15:27:56Z</time>
      </trkpt>
      <trkpt lat="28.3542630" lon="-16.5174670">
        <ele>1184.9</ele>
        <time>2020-11-11T15:27:57Z</time>
      </trkpt>
      <trkpt lat="28.3542430" lon="-16.5175120">
        <ele>1184.9</ele>
        <time>2020-11-11T15:27:58Z</time>
      </trkpt>
      <trkpt lat="28.3542330" lon="-16.5175320">
        <ele>1184.9</ele>
        <time>2020-11-11T15:27:59Z</time>
      </trkpt>
      <trkpt lat="28.3542250" lon="-16.5175820">
        <ele>1184.9</ele>
        <time>2020-11-11T15:28:00Z</time>
      </trkpt>
      <trkpt lat="28.3542250" lon="-16.5175820">
        <ele>1184.9</ele>
        <time>2020-11-11T15:28:01Z</time>
      </trkpt>
      <trkpt lat="28.3542250" lon="-16.5176070">
        <ele>1184.9</ele>
        <time>2020-11-11T15:28:02Z</time>
      </trkpt>
      <trkpt lat="28.3542250" lon="-16.5176070">
        <ele>1184.9</ele>
        <time>2020-11-11T15:28:03Z</time>
      </trkpt>
      <trkpt lat="28.3542270" lon="-16.5176530">
        <ele>1184.9</ele>
        <time>2020-11-11T15:28:04Z</time>
      </trkpt>
      <trkpt lat="28.3542270" lon="-16.5176530">
        <ele>1185.9</ele>
        <time>2020-11-11T15:28:05Z</time>
      </trkpt>
      <trkpt lat="28.3542330" lon="-16.5176970">
        <ele>1185.9</ele>
        <time>2020-11-11T15:28:06Z</time>
      </trkpt>
      <trkpt lat="28.3542330" lon="-16.5176970">
        <ele>1185.9</ele>
        <time>2020-11-11T15:28:07Z</time>
      </trkpt>
      <trkpt lat="28.3542480" lon="-16.5177420">
        <ele>1185.9</ele>
        <time>2020-11-11T15:28:08Z</time>
      </trkpt>
      <trkpt lat="28.3542480" lon="-16.5177420">
        <ele>1186.9</ele>
        <time>2020-11-11T15:28:09Z</time>
      </trkpt>
      <trkpt lat="28.3542620" lon="-16.5177920">
        <ele>1186.9</ele>
        <time>2020-11-11T15:28:10Z</time>
      </trkpt>
      <trkpt lat="28.3542620" lon="-16.5177920">
        <ele>1186.9</ele>
        <time>2020-11-11T15:28:11Z</time>
      </trkpt>
      <trkpt lat="28.3542700" lon="-16.5178450">
        <ele>1186.9</ele>
        <time>2020-11-11T15:28:12Z</time>
      </trkpt>
      <trkpt lat="28.3542700" lon="-16.5178450">
        <ele>1186.9</ele>
        <time>2020-11-11T15:28:13Z</time>
      </trkpt>
      <trkpt lat="28.3542670" lon="-16.5178930">
        <ele>1187.9</ele>
        <time>2020-11-11T15:28:14Z</time>
      </trkpt>
      <trkpt lat="28.3542670" lon="-16.5178930">
        <ele>1187.9</ele>
        <time>2020-11-11T15:28:15Z</time>
      </trkpt>
      <trkpt lat="28.3542570" lon="-16.5179380">
        <ele>1187.9</ele>
        <time>2020-11-11T15:28:16Z</time>
      </trkpt>
      <trkpt lat="28.3542570" lon="-16.5179380">
        <ele>1187.9</ele>
        <time>2020-11-11T15:28:17Z</time>
      </trkpt>
      <trkpt lat="28.3542420" lon="-16.5179880">
        <ele>1187.9</ele>
        <time>2020-11-11T15:28:18Z</time>
      </trkpt>
      <trkpt lat="28.3542420" lon="-16.5179880">
        <ele>1187.9</ele>
        <time>2020-11-11T15:28:19Z</time>
      </trkpt>
      <trkpt lat="28.3542170" lon="-16.5180280">
        <ele>1187.9</ele>
        <time>2020-11-11T15:28:20Z</time>
      </trkpt>
      <trkpt lat="28.3542170" lon="-16.5180280">
        <ele>1187.9</ele>
        <time>2020-11-11T15:28:21Z</time>
      </trkpt>
      <trkpt lat="28.3541800" lon="-16.5180700">
        <ele>1187.9</ele>
        <time>2020-11-11T15:28:22Z</time>
      </trkpt>
      <trkpt lat="28.3541620" lon="-16.5180900">
        <ele>1187.9</ele>
        <time>2020-11-11T15:28:23Z</time>
      </trkpt>
      <trkpt lat="28.3541620" lon="-16.5180900">
        <ele>1187.9</ele>
        <time>2020-11-11T15:28:24Z</time>
      </trkpt>
      <trkpt lat="28.3541320" lon="-16.5181230">
        <ele>1187.9</ele>
        <time>2020-11-11T15:28:25Z</time>
      </trkpt>
      <trkpt lat="28.3541170" lon="-16.5181350">
        <ele>1187.9</ele>
        <time>2020-11-11T15:28:26Z</time>
      </trkpt>
      <trkpt lat="28.3541170" lon="-16.5181350">
        <ele>1187.9</ele>
        <time>2020-11-11T15:28:27Z</time>
      </trkpt>
      <trkpt lat="28.3540820" lon="-16.5181570">
        <ele>1188.9</ele>
        <time>2020-11-11T15:28:28Z</time>
      </trkpt>
      <trkpt lat="28.3540600" lon="-16.5181680">
        <ele>1188.9</ele>
        <time>2020-11-11T15:28:29Z</time>
      </trkpt>
      <trkpt lat="28.3540450" lon="-16.5181800">
        <ele>1188.9</ele>
        <time>2020-11-11T15:28:30Z</time>
      </trkpt>
      <trkpt lat="28.3540450" lon="-16.5181800">
        <ele>1188.9</ele>
        <time>2020-11-11T15:28:31Z</time>
      </trkpt>
      <trkpt lat="28.3540070" lon="-16.5181970">
        <ele>1188.9</ele>
        <time>2020-11-11T15:28:32Z</time>
      </trkpt>
      <trkpt lat="28.3540070" lon="-16.5181970">
        <ele>1188.9</ele>
        <time>2020-11-11T15:28:33Z</time>
      </trkpt>
      <trkpt lat="28.3539600" lon="-16.5182130">
        <ele>1188.9</ele>
        <time>2020-11-11T15:28:34Z</time>
      </trkpt>
      <trkpt lat="28.3539400" lon="-16.5182200">
        <ele>1188.9</ele>
        <time>2020-11-11T15:28:35Z</time>
      </trkpt>
      <trkpt lat="28.3539400" lon="-16.5182200">
        <ele>1189.9</ele>
        <time>2020-11-11T15:28:36Z</time>
      </trkpt>
      <trkpt lat="28.3539000" lon="-16.5182320">
        <ele>1189.9</ele>
        <time>2020-11-11T15:28:37Z</time>
      </trkpt>
      <trkpt lat="28.3538780" lon="-16.5182380">
        <ele>1189.9</ele>
        <time>2020-11-11T15:28:38Z</time>
      </trkpt>
      <trkpt lat="28.3538780" lon="-16.5182380">
        <ele>1189.9</ele>
        <time>2020-11-11T15:28:39Z</time>
      </trkpt>
      <trkpt lat="28.3538350" lon="-16.5182500">
        <ele>1189.9</ele>
        <time>2020-11-11T15:28:40Z</time>
      </trkpt>
      <trkpt lat="28.3538350" lon="-16.5182500">
        <ele>1189.9</ele>
        <time>2020-11-11T15:28:41Z</time>
      </trkpt>
      <trkpt lat="28.3537930" lon="-16.5182530">
        <ele>1189.9</ele>
        <time>2020-11-11T15:28:42Z</time>
      </trkpt>
      <trkpt lat="28.3537930" lon="-16.5182530">
        <ele>1189.9</ele>
        <time>2020-11-11T15:28:43Z</time>
      </trkpt>
      <trkpt lat="28.3537530" lon="-16.5182620">
        <ele>1189.9</ele>
        <time>2020-11-11T15:28:44Z</time>
      </trkpt>
      <trkpt lat="28.3537530" lon="-16.5182620">
        <ele>1190.9</ele>
        <time>2020-11-11T15:28:45Z</time>
      </trkpt>
      <trkpt lat="28.3537150" lon="-16.5182770">
        <ele>1190.9</ele>
        <time>2020-11-11T15:28:46Z</time>
      </trkpt>
      <trkpt lat="28.3537150" lon="-16.5182770">
        <ele>1190.9</ele>
        <time>2020-11-11T15:28:47Z</time>
      </trkpt>
      <trkpt lat="28.3536720" lon="-16.5182920">
        <ele>1190.9</ele>
        <time>2020-11-11T15:28:48Z</time>
      </trkpt>
      <trkpt lat="28.3536480" lon="-16.5182980">
        <ele>1190.9</ele>
        <time>2020-11-11T15:28:49Z</time>
      </trkpt>
      <trkpt lat="28.3536480" lon="-16.5182980">
        <ele>1191.9</ele>
        <time>2020-11-11T15:28:50Z</time>
      </trkpt>
      <trkpt lat="28.3536000" lon="-16.5183080">
        <ele>1191.9</ele>
        <time>2020-11-11T15:28:51Z</time>
      </trkpt>
      <trkpt lat="28.3536000" lon="-16.5183080">
        <ele>1191.9</ele>
        <time>2020-11-11T15:28:52Z</time>
      </trkpt>
      <trkpt lat="28.3535530" lon="-16.5183300">
        <ele>1191.9</ele>
        <time>2020-11-11T15:28:53Z</time>
      </trkpt>
      <trkpt lat="28.3535530" lon="-16.5183300">
        <ele>1191.9</ele>
        <time>2020-11-11T15:28:54Z</time>
      </trkpt>
      <trkpt lat="28.3535050" lon="-16.5183480">
        <ele>1191.9</ele>
        <time>2020-11-11T15:28:55Z</time>
      </trkpt>
      <trkpt lat="28.3534820" lon="-16.5183570">
        <ele>1191.9</ele>
        <time>2020-11-11T15:28:56Z</time>
      </trkpt>
      <trkpt lat="28.3534820" lon="-16.5183570">
        <ele>1191.9</ele>
        <time>2020-11-11T15:28:57Z</time>
      </trkpt>
      <trkpt lat="28.3534380" lon="-16.5183720">
        <ele>1192.9</ele>
        <time>2020-11-11T15:28:58Z</time>
      </trkpt>
      <trkpt lat="28.3534380" lon="-16.5183720">
        <ele>1192.9</ele>
        <time>2020-11-11T15:28:59Z</time>
      </trkpt>
      <trkpt lat="28.3533950" lon="-16.5183900">
        <ele>1192.9</ele>
        <time>2020-11-11T15:29:00Z</time>
      </trkpt>
      <trkpt lat="28.3533730" lon="-16.5184000">
        <ele>1192.9</ele>
        <time>2020-11-11T15:29:01Z</time>
      </trkpt>
      <trkpt lat="28.3533730" lon="-16.5184000">
        <ele>1192.9</ele>
        <time>2020-11-11T15:29:02Z</time>
      </trkpt>
      <trkpt lat="28.3533280" lon="-16.5184250">
        <ele>1192.9</ele>
        <time>2020-11-11T15:29:03Z</time>
      </trkpt>
      <trkpt lat="28.3533280" lon="-16.5184250">
        <ele>1193.9</ele>
        <time>2020-11-11T15:29:04Z</time>
      </trkpt>
      <trkpt lat="28.3532950" lon="-16.5184500">
        <ele>1193.9</ele>
        <time>2020-11-11T15:29:05Z</time>
      </trkpt>
      <trkpt lat="28.3532950" lon="-16.5184500">
        <ele>1193.9</ele>
        <time>2020-11-11T15:29:06Z</time>
      </trkpt>
      <trkpt lat="28.3532670" lon="-16.5184820">
        <ele>1193.9</ele>
        <time>2020-11-11T15:29:07Z</time>
      </trkpt>
      <trkpt lat="28.3532570" lon="-16.5185000">
        <ele>1193.9</ele>
        <time>2020-11-11T15:29:08Z</time>
      </trkpt>
      <trkpt lat="28.3532570" lon="-16.5185000">
        <ele>1193.9</ele>
        <time>2020-11-11T15:29:09Z</time>
      </trkpt>
      <trkpt lat="28.3532370" lon="-16.5185330">
        <ele>1193.9</ele>
        <time>2020-11-11T15:29:10Z</time>
      </trkpt>
      <trkpt lat="28.3532370" lon="-16.5185330">
        <ele>1193.9</ele>
        <time>2020-11-11T15:29:11Z</time>
      </trkpt>
      <trkpt lat="28.3532180" lon="-16.5185780">
        <ele>1193.9</ele>
        <time>2020-11-11T15:29:12Z</time>
      </trkpt>
      <trkpt lat="28.3532180" lon="-16.5185780">
        <ele>1193.9</ele>
        <time>2020-11-11T15:29:13Z</time>
      </trkpt>
      <trkpt lat="28.3531980" lon="-16.5186380">
        <ele>1194.9</ele>
        <time>2020-11-11T15:29:14Z</time>
      </trkpt>
      <trkpt lat="28.3531980" lon="-16.5186380">
        <ele>1194.9</ele>
        <time>2020-11-11T15:29:15Z</time>
      </trkpt>
      <trkpt lat="28.3531920" lon="-16.5186970">
        <ele>1194.9</ele>
        <time>2020-11-11T15:29:16Z</time>
      </trkpt>
      <trkpt lat="28.3531920" lon="-16.5186970">
        <ele>1194.9</ele>
        <time>2020-11-11T15:29:17Z</time>
      </trkpt>
      <trkpt lat="28.3531770" lon="-16.5187500">
        <ele>1194.9</ele>
        <time>2020-11-11T15:29:18Z</time>
      </trkpt>
      <trkpt lat="28.3531670" lon="-16.5187730">
        <ele>1194.9</ele>
        <time>2020-11-11T15:29:19Z</time>
      </trkpt>
      <trkpt lat="28.3531670" lon="-16.5187730">
        <ele>1195.9</ele>
        <time>2020-11-11T15:29:20Z</time>
      </trkpt>
      <trkpt lat="28.3531550" lon="-16.5188250">
        <ele>1195.9</ele>
        <time>2020-11-11T15:29:21Z</time>
      </trkpt>
      <trkpt lat="28.3531450" lon="-16.5188520">
        <ele>1195.9</ele>
        <time>2020-11-11T15:29:22Z</time>
      </trkpt>
      <trkpt lat="28.3531450" lon="-16.5188520">
        <ele>1195.9</ele>
        <time>2020-11-11T15:29:23Z</time>
      </trkpt>
      <trkpt lat="28.3531200" lon="-16.5189030">
        <ele>1195.9</ele>
        <time>2020-11-11T15:29:24Z</time>
      </trkpt>
      <trkpt lat="28.3531130" lon="-16.5189300">
        <ele>1195.9</ele>
        <time>2020-11-11T15:29:25Z</time>
      </trkpt>
      <trkpt lat="28.3531030" lon="-16.5189530">
        <ele>1196.9</ele>
        <time>2020-11-11T15:29:26Z</time>
      </trkpt>
      <trkpt lat="28.3531030" lon="-16.5189530">
        <ele>1196.9</ele>
        <time>2020-11-11T15:29:27Z</time>
      </trkpt>
      <trkpt lat="28.3530700" lon="-16.5190070">
        <ele>1196.9</ele>
        <time>2020-11-11T15:29:28Z</time>
      </trkpt>
      <trkpt lat="28.3530700" lon="-16.5190070">
        <ele>1196.9</ele>
        <time>2020-11-11T15:29:29Z</time>
      </trkpt>
      <trkpt lat="28.3530330" lon="-16.5190600">
        <ele>1196.9</ele>
        <time>2020-11-11T15:29:30Z</time>
      </trkpt>
      <trkpt lat="28.3530330" lon="-16.5190600">
        <ele>1196.9</ele>
        <time>2020-11-11T15:29:31Z</time>
      </trkpt>
      <trkpt lat="28.3530020" lon="-16.5191170">
        <ele>1196.9</ele>
        <time>2020-11-11T15:29:32Z</time>
      </trkpt>
      <trkpt lat="28.3529850" lon="-16.5191420">
        <ele>1197.9</ele>
        <time>2020-11-11T15:29:33Z</time>
      </trkpt>
      <trkpt lat="28.3529850" lon="-16.5191420">
        <ele>1197.9</ele>
        <time>2020-11-11T15:29:34Z</time>
      </trkpt>
      <trkpt lat="28.3529500" lon="-16.5191870">
        <ele>1197.9</ele>
        <time>2020-11-11T15:29:35Z</time>
      </trkpt>
      <trkpt lat="28.3529500" lon="-16.5191870">
        <ele>1197.9</ele>
        <time>2020-11-11T15:29:36Z</time>
      </trkpt>
      <trkpt lat="28.3529230" lon="-16.5192370">
        <ele>1197.9</ele>
        <time>2020-11-11T15:29:37Z</time>
      </trkpt>
      <trkpt lat="28.3529230" lon="-16.5192370">
        <ele>1197.9</ele>
        <time>2020-11-11T15:29:38Z</time>
      </trkpt>
      <trkpt lat="28.3528920" lon="-16.5192820">
        <ele>1197.9</ele>
        <time>2020-11-11T15:29:39Z</time>
      </trkpt>
      <trkpt lat="28.3528920" lon="-16.5192820">
        <ele>1197.9</ele>
        <time>2020-11-11T15:29:40Z</time>
      </trkpt>
      <trkpt lat="28.3528580" lon="-16.5193230">
        <ele>1198.9</ele>
        <time>2020-11-11T15:29:41Z</time>
      </trkpt>
      <trkpt lat="28.3528430" lon="-16.5193450">
        <ele>1198.9</ele>
        <time>2020-11-11T15:29:42Z</time>
      </trkpt>
      <trkpt lat="28.3528430" lon="-16.5193450">
        <ele>1198.9</ele>
        <time>2020-11-11T15:29:43Z</time>
      </trkpt>
      <trkpt lat="28.3528100" lon="-16.5193930">
        <ele>1198.9</ele>
        <time>2020-11-11T15:29:44Z</time>
      </trkpt>
      <trkpt lat="28.3528100" lon="-16.5193930">
        <ele>1198.9</ele>
        <time>2020-11-11T15:29:45Z</time>
      </trkpt>
      <trkpt lat="28.3527730" lon="-16.5194370">
        <ele>1198.9</ele>
        <time>2020-11-11T15:29:46Z</time>
      </trkpt>
      <trkpt lat="28.3527550" lon="-16.5194600">
        <ele>1198.9</ele>
        <time>2020-11-11T15:29:47Z</time>
      </trkpt>
      <trkpt lat="28.3527550" lon="-16.5194600">
        <ele>1198.9</ele>
        <time>2020-11-11T15:29:48Z</time>
      </trkpt>
      <trkpt lat="28.3527300" lon="-16.5195130">
        <ele>1198.9</ele>
        <time>2020-11-11T15:29:49Z</time>
      </trkpt>
      <trkpt lat="28.3527200" lon="-16.5195400">
        <ele>1198.9</ele>
        <time>2020-11-11T15:29:50Z</time>
      </trkpt>
      <trkpt lat="28.3527200" lon="-16.5195400">
        <ele>1198.9</ele>
        <time>2020-11-11T15:29:51Z</time>
      </trkpt>
      <trkpt lat="28.3527050" lon="-16.5195970">
        <ele>1198.9</ele>
        <time>2020-11-11T15:29:52Z</time>
      </trkpt>
      <trkpt lat="28.3527050" lon="-16.5195970">
        <ele>1198.9</ele>
        <time>2020-11-11T15:29:53Z</time>
      </trkpt>
      <trkpt lat="28.3526930" lon="-16.5196550">
        <ele>1198.9</ele>
        <time>2020-11-11T15:29:54Z</time>
      </trkpt>
      <trkpt lat="28.3526800" lon="-16.5196980">
        <ele>1199.9</ele>
        <time>2020-11-11T15:29:55Z</time>
      </trkpt>
      <trkpt lat="28.3526800" lon="-16.5196980">
        <ele>1199.9</ele>
        <time>2020-11-11T15:29:56Z</time>
      </trkpt>
      <trkpt lat="28.3526800" lon="-16.5197650">
        <ele>1199.9</ele>
        <time>2020-11-11T15:29:57Z</time>
      </trkpt>
      <trkpt lat="28.3526880" lon="-16.5197970">
        <ele>1199.9</ele>
        <time>2020-11-11T15:29:58Z</time>
      </trkpt>
      <trkpt lat="28.3526880" lon="-16.5197970">
        <ele>1200.9</ele>
        <time>2020-11-11T15:29:59Z</time>
      </trkpt>
      <trkpt lat="28.3526920" lon="-16.5198530">
        <ele>1200.9</ele>
        <time>2020-11-11T15:30:00Z</time>
      </trkpt>
      <trkpt lat="28.3526920" lon="-16.5198530">
        <ele>1200.9</ele>
        <time>2020-11-11T15:30:01Z</time>
      </trkpt>
      <trkpt lat="28.3526850" lon="-16.5199120">
        <ele>1200.9</ele>
        <time>2020-11-11T15:30:02Z</time>
      </trkpt>
      <trkpt lat="28.3526850" lon="-16.5199120">
        <ele>1200.9</ele>
        <time>2020-11-11T15:30:03Z</time>
      </trkpt>
      <trkpt lat="28.3526850" lon="-16.5199670">
        <ele>1201.9</ele>
        <time>2020-11-11T15:30:04Z</time>
      </trkpt>
      <trkpt lat="28.3526850" lon="-16.5199670">
        <ele>1201.9</ele>
        <time>2020-11-11T15:30:05Z</time>
      </trkpt>
      <trkpt lat="28.3526770" lon="-16.5200170">
        <ele>1201.9</ele>
        <time>2020-11-11T15:30:06Z</time>
      </trkpt>
      <trkpt lat="28.3526770" lon="-16.5200170">
        <ele>1201.9</ele>
        <time>2020-11-11T15:30:07Z</time>
      </trkpt>
      <trkpt lat="28.3526600" lon="-16.5200680">
        <ele>1201.9</ele>
        <time>2020-11-11T15:30:08Z</time>
      </trkpt>
      <trkpt lat="28.3526600" lon="-16.5200680">
        <ele>1201.9</ele>
        <time>2020-11-11T15:30:09Z</time>
      </trkpt>
      <trkpt lat="28.3526450" lon="-16.5201180">
        <ele>1202.9</ele>
        <time>2020-11-11T15:30:10Z</time>
      </trkpt>
      <trkpt lat="28.3526350" lon="-16.5201430">
        <ele>1202.9</ele>
        <time>2020-11-11T15:30:11Z</time>
      </trkpt>
      <trkpt lat="28.3526350" lon="-16.5201430">
        <ele>1202.9</ele>
        <time>2020-11-11T15:30:12Z</time>
      </trkpt>
      <trkpt lat="28.3526170" lon="-16.5201880">
        <ele>1202.9</ele>
        <time>2020-11-11T15:30:13Z</time>
      </trkpt>
      <trkpt lat="28.3526080" lon="-16.5202100">
        <ele>1202.9</ele>
        <time>2020-11-11T15:30:14Z</time>
      </trkpt>
      <trkpt lat="28.3526080" lon="-16.5202100">
        <ele>1202.9</ele>
        <time>2020-11-11T15:30:15Z</time>
      </trkpt>
      <trkpt lat="28.3525880" lon="-16.5202600">
        <ele>1203.9</ele>
        <time>2020-11-11T15:30:16Z</time>
      </trkpt>
      <trkpt lat="28.3525880" lon="-16.5202600">
        <ele>1203.9</ele>
        <time>2020-11-11T15:30:17Z</time>
      </trkpt>
      <trkpt lat="28.3525650" lon="-16.5203100">
        <ele>1203.9</ele>
        <time>2020-11-11T15:30:18Z</time>
      </trkpt>
      <trkpt lat="28.3525650" lon="-16.5203100">
        <ele>1203.9</ele>
        <time>2020-11-11T15:30:19Z</time>
      </trkpt>
      <trkpt lat="28.3525430" lon="-16.5203600">
        <ele>1203.9</ele>
        <time>2020-11-11T15:30:20Z</time>
      </trkpt>
      <trkpt lat="28.3525330" lon="-16.5203870">
        <ele>1203.9</ele>
        <time>2020-11-11T15:30:21Z</time>
      </trkpt>
      <trkpt lat="28.3525330" lon="-16.5203870">
        <ele>1204.9</ele>
        <time>2020-11-11T15:30:22Z</time>
      </trkpt>
      <trkpt lat="28.3525150" lon="-16.5204380">
        <ele>1204.9</ele>
        <time>2020-11-11T15:30:23Z</time>
      </trkpt>
      <trkpt lat="28.3525150" lon="-16.5204380">
        <ele>1204.9</ele>
        <time>2020-11-11T15:30:24Z</time>
      </trkpt>
      <trkpt lat="28.3525000" lon="-16.5204900">
        <ele>1204.9</ele>
        <time>2020-11-11T15:30:25Z</time>
      </trkpt>
      <trkpt lat="28.3524880" lon="-16.5205200">
        <ele>1205.9</ele>
        <time>2020-11-11T15:30:26Z</time>
      </trkpt>
      <trkpt lat="28.3524880" lon="-16.5205200">
        <ele>1205.9</ele>
        <time>2020-11-11T15:30:27Z</time>
      </trkpt>
      <trkpt lat="28.3524720" lon="-16.5205720">
        <ele>1205.9</ele>
        <time>2020-11-11T15:30:28Z</time>
      </trkpt>
      <trkpt lat="28.3524600" lon="-16.5205950">
        <ele>1205.9</ele>
        <time>2020-11-11T15:30:29Z</time>
      </trkpt>
      <trkpt lat="28.3524600" lon="-16.5205950">
        <ele>1205.9</ele>
        <time>2020-11-11T15:30:30Z</time>
      </trkpt>
      <trkpt lat="28.3524380" lon="-16.5206400">
        <ele>1205.9</ele>
        <time>2020-11-11T15:30:31Z</time>
      </trkpt>
      <trkpt lat="28.3524250" lon="-16.5206600">
        <ele>1205.9</ele>
        <time>2020-11-11T15:30:32Z</time>
      </trkpt>
      <trkpt lat="28.3524250" lon="-16.5206600">
        <ele>1205.9</ele>
        <time>2020-11-11T15:30:33Z</time>
      </trkpt>
      <trkpt lat="28.3524050" lon="-16.5207030">
        <ele>1205.9</ele>
        <time>2020-11-11T15:30:34Z</time>
      </trkpt>
      <trkpt lat="28.3524050" lon="-16.5207030">
        <ele>1205.9</ele>
        <time>2020-11-11T15:30:35Z</time>
      </trkpt>
      <trkpt lat="28.3523870" lon="-16.5207520">
        <ele>1205.9</ele>
        <time>2020-11-11T15:30:36Z</time>
      </trkpt>
      <trkpt lat="28.3523770" lon="-16.5207750">
        <ele>1205.9</ele>
        <time>2020-11-11T15:30:37Z</time>
      </trkpt>
      <trkpt lat="28.3523770" lon="-16.5207750">
        <ele>1206.9</ele>
        <time>2020-11-11T15:30:38Z</time>
      </trkpt>
      <trkpt lat="28.3523520" lon="-16.5208270">
        <ele>1206.9</ele>
        <time>2020-11-11T15:30:39Z</time>
      </trkpt>
      <trkpt lat="28.3523520" lon="-16.5208270">
        <ele>1206.9</ele>
        <time>2020-11-11T15:30:40Z</time>
      </trkpt>
      <trkpt lat="28.3523250" lon="-16.5208750">
        <ele>1206.9</ele>
        <time>2020-11-11T15:30:41Z</time>
      </trkpt>
      <trkpt lat="28.3523250" lon="-16.5208750">
        <ele>1206.9</ele>
        <time>2020-11-11T15:30:42Z</time>
      </trkpt>
      <trkpt lat="28.3522970" lon="-16.5209200">
        <ele>1206.9</ele>
        <time>2020-11-11T15:30:43Z</time>
      </trkpt>
      <trkpt lat="28.3522970" lon="-16.5209200">
        <ele>1206.9</ele>
        <time>2020-11-11T15:30:44Z</time>
      </trkpt>
      <trkpt lat="28.3522720" lon="-16.5209650">
        <ele>1207.9</ele>
        <time>2020-11-11T15:30:45Z</time>
      </trkpt>
      <trkpt lat="28.3522570" lon="-16.5209850">
        <ele>1207.9</ele>
        <time>2020-11-11T15:30:46Z</time>
      </trkpt>
      <trkpt lat="28.3522570" lon="-16.5209850">
        <ele>1207.9</ele>
        <time>2020-11-11T15:30:47Z</time>
      </trkpt>
      <trkpt lat="28.3522430" lon="-16.5210300">
        <ele>1207.9</ele>
        <time>2020-11-11T15:30:48Z</time>
      </trkpt>
      <trkpt lat="28.3522430" lon="-16.5210300">
        <ele>1207.9</ele>
        <time>2020-11-11T15:30:49Z</time>
      </trkpt>
      <trkpt lat="28.3522350" lon="-16.5210820">
        <ele>1207.9</ele>
        <time>2020-11-11T15:30:50Z</time>
      </trkpt>
      <trkpt lat="28.3522350" lon="-16.5210820">
        <ele>1208.9</ele>
        <time>2020-11-11T15:30:51Z</time>
      </trkpt>
      <trkpt lat="28.3522230" lon="-16.5211270">
        <ele>1208.9</ele>
        <time>2020-11-11T15:30:52Z</time>
      </trkpt>
      <trkpt lat="28.3522200" lon="-16.5211480">
        <ele>1208.9</ele>
        <time>2020-11-11T15:30:53Z</time>
      </trkpt>
      <trkpt lat="28.3522200" lon="-16.5211480">
        <ele>1208.9</ele>
        <time>2020-11-11T15:30:54Z</time>
      </trkpt>
      <trkpt lat="28.3522150" lon="-16.5211900">
        <ele>1208.9</ele>
        <time>2020-11-11T15:30:55Z</time>
      </trkpt>
      <trkpt lat="28.3522150" lon="-16.5211900">
        <ele>1208.9</ele>
        <time>2020-11-11T15:30:56Z</time>
      </trkpt>
      <trkpt lat="28.3522070" lon="-16.5212320">
        <ele>1209.9</ele>
        <time>2020-11-11T15:30:57Z</time>
      </trkpt>
      <trkpt lat="28.3522030" lon="-16.5212570">
        <ele>1209.9</ele>
        <time>2020-11-11T15:30:58Z</time>
      </trkpt>
      <trkpt lat="28.3522030" lon="-16.5212570">
        <ele>1209.9</ele>
        <time>2020-11-11T15:30:59Z</time>
      </trkpt>
      <trkpt lat="28.3522000" lon="-16.5213030">
        <ele>1209.9</ele>
        <time>2020-11-11T15:31:00Z</time>
      </trkpt>
      <trkpt lat="28.3522000" lon="-16.5213030">
        <ele>1210.9</ele>
        <time>2020-11-11T15:31:01Z</time>
      </trkpt>
      <trkpt lat="28.3521880" lon="-16.5213480">
        <ele>1210.9</ele>
        <time>2020-11-11T15:31:02Z</time>
      </trkpt>
      <trkpt lat="28.3521880" lon="-16.5213480">
        <ele>1210.9</ele>
        <time>2020-11-11T15:31:03Z</time>
      </trkpt>
      <trkpt lat="28.3521680" lon="-16.5213850">
        <ele>1210.9</ele>
        <time>2020-11-11T15:31:04Z</time>
      </trkpt>
      <trkpt lat="28.3521680" lon="-16.5213850">
        <ele>1210.9</ele>
        <time>2020-11-11T15:31:05Z</time>
      </trkpt>
      <trkpt lat="28.3521530" lon="-16.5214250">
        <ele>1210.9</ele>
        <time>2020-11-11T15:31:06Z</time>
      </trkpt>
      <trkpt lat="28.3521530" lon="-16.5214250">
        <ele>1211.9</ele>
        <time>2020-11-11T15:31:07Z</time>
      </trkpt>
      <trkpt lat="28.3521330" lon="-16.5214650">
        <ele>1211.9</ele>
        <time>2020-11-11T15:31:08Z</time>
      </trkpt>
      <trkpt lat="28.3521200" lon="-16.5214800">
        <ele>1211.9</ele>
        <time>2020-11-11T15:31:09Z</time>
      </trkpt>
      <trkpt lat="28.3521200" lon="-16.5214800">
        <ele>1211.9</ele>
        <time>2020-11-11T15:31:10Z</time>
      </trkpt>
      <trkpt lat="28.3520950" lon="-16.5215170">
        <ele>1212.9</ele>
        <time>2020-11-11T15:31:11Z</time>
      </trkpt>
      <trkpt lat="28.3520950" lon="-16.5215170">
        <ele>1212.9</ele>
        <time>2020-11-11T15:31:12Z</time>
      </trkpt>
      <trkpt lat="28.3520730" lon="-16.5215580">
        <ele>1212.9</ele>
        <time>2020-11-11T15:31:13Z</time>
      </trkpt>
      <trkpt lat="28.3520600" lon="-16.5215770">
        <ele>1212.9</ele>
        <time>2020-11-11T15:31:14Z</time>
      </trkpt>
      <trkpt lat="28.3520450" lon="-16.5215930">
        <ele>1212.9</ele>
        <time>2020-11-11T15:31:15Z</time>
      </trkpt>
      <trkpt lat="28.3520450" lon="-16.5215930">
        <ele>1212.9</ele>
        <time>2020-11-11T15:31:16Z</time>
      </trkpt>
      <trkpt lat="28.3520150" lon="-16.5216250">
        <ele>1212.9</ele>
        <time>2020-11-11T15:31:17Z</time>
      </trkpt>
      <trkpt lat="28.3519980" lon="-16.5216420">
        <ele>1213.9</ele>
        <time>2020-11-11T15:31:18Z</time>
      </trkpt>
      <trkpt lat="28.3519980" lon="-16.5216420">
        <ele>1213.9</ele>
        <time>2020-11-11T15:31:19Z</time>
      </trkpt>
      <trkpt lat="28.3519730" lon="-16.5216750">
        <ele>1213.9</ele>
        <time>2020-11-11T15:31:20Z</time>
      </trkpt>
      <trkpt lat="28.3519730" lon="-16.5216750">
        <ele>1213.9</ele>
        <time>2020-11-11T15:31:21Z</time>
      </trkpt>
      <trkpt lat="28.3519420" lon="-16.5216980">
        <ele>1214.9</ele>
        <time>2020-11-11T15:31:22Z</time>
      </trkpt>
      <trkpt lat="28.3519420" lon="-16.5216980">
        <ele>1214.9</ele>
        <time>2020-11-11T15:31:23Z</time>
      </trkpt>
      <trkpt lat="28.3519030" lon="-16.5217250">
        <ele>1214.9</ele>
        <time>2020-11-11T15:31:24Z</time>
      </trkpt>
      <trkpt lat="28.3518830" lon="-16.5217380">
        <ele>1214.9</ele>
        <time>2020-11-11T15:31:25Z</time>
      </trkpt>
      <trkpt lat="28.3518620" lon="-16.5217500">
        <ele>1214.9</ele>
        <time>2020-11-11T15:31:26Z</time>
      </trkpt>
      <trkpt lat="28.3518620" lon="-16.5217500">
        <ele>1214.9</ele>
        <time>2020-11-11T15:31:27Z</time>
      </trkpt>
      <trkpt lat="28.3518270" lon="-16.5217820">
        <ele>1214.9</ele>
        <time>2020-11-11T15:31:28Z</time>
      </trkpt>
      <trkpt lat="28.3518080" lon="-16.5217980">
        <ele>1214.9</ele>
        <time>2020-11-11T15:31:29Z</time>
      </trkpt>
      <trkpt lat="28.3518080" lon="-16.5217980">
        <ele>1214.9</ele>
        <time>2020-11-11T15:31:30Z</time>
      </trkpt>
      <trkpt lat="28.3517700" lon="-16.5218220">
        <ele>1214.9</ele>
        <time>2020-11-11T15:31:31Z</time>
      </trkpt>
      <trkpt lat="28.3517530" lon="-16.5218320">
        <ele>1215.9</ele>
        <time>2020-11-11T15:31:32Z</time>
      </trkpt>
      <trkpt lat="28.3517530" lon="-16.5218320">
        <ele>1215.9</ele>
        <time>2020-11-11T15:31:33Z</time>
      </trkpt>
      <trkpt lat="28.3517280" lon="-16.5218530">
        <ele>1215.9</ele>
        <time>2020-11-11T15:31:34Z</time>
      </trkpt>
      <trkpt lat="28.3517280" lon="-16.5218530">
        <ele>1215.9</ele>
        <time>2020-11-11T15:31:35Z</time>
      </trkpt>
      <trkpt lat="28.3517020" lon="-16.5218770">
        <ele>1216.9</ele>
        <time>2020-11-11T15:31:36Z</time>
      </trkpt>
      <trkpt lat="28.3517020" lon="-16.5218770">
        <ele>1216.9</ele>
        <time>2020-11-11T15:31:37Z</time>
      </trkpt>
      <trkpt lat="28.3516720" lon="-16.5219070">
        <ele>1216.9</ele>
        <time>2020-11-11T15:31:38Z</time>
      </trkpt>
      <trkpt lat="28.3516720" lon="-16.5219070">
        <ele>1216.9</ele>
        <time>2020-11-11T15:31:39Z</time>
      </trkpt>
      <trkpt lat="28.3516430" lon="-16.5219370">
        <ele>1216.9</ele>
        <time>2020-11-11T15:31:40Z</time>
      </trkpt>
      <trkpt lat="28.3516280" lon="-16.5219530">
        <ele>1216.9</ele>
        <time>2020-11-11T15:31:41Z</time>
      </trkpt>
      <trkpt lat="28.3516280" lon="-16.5219530">
        <ele>1216.9</ele>
        <time>2020-11-11T15:31:42Z</time>
      </trkpt>
      <trkpt lat="28.3516030" lon="-16.5219880">
        <ele>1216.9</ele>
        <time>2020-11-11T15:31:43Z</time>
      </trkpt>
      <trkpt lat="28.3516030" lon="-16.5219880">
        <ele>1217.9</ele>
        <time>2020-11-11T15:31:44Z</time>
      </trkpt>
      <trkpt lat="28.3515800" lon="-16.5220220">
        <ele>1217.9</ele>
        <time>2020-11-11T15:31:45Z</time>
      </trkpt>
      <trkpt lat="28.3515800" lon="-16.5220220">
        <ele>1217.9</ele>
        <time>2020-11-11T15:31:46Z</time>
      </trkpt>
      <trkpt lat="28.3515630" lon="-16.5220530">
        <ele>1217.9</ele>
        <time>2020-11-11T15:31:47Z</time>
      </trkpt>
      <trkpt lat="28.3515630" lon="-16.5220530">
        <ele>1218.9</ele>
        <time>2020-11-11T15:31:48Z</time>
      </trkpt>
      <trkpt lat="28.3515500" lon="-16.5220870">
        <ele>1218.9</ele>
        <time>2020-11-11T15:31:49Z</time>
      </trkpt>
      <trkpt lat="28.3515400" lon="-16.5221020">
        <ele>1218.9</ele>
        <time>2020-11-11T15:31:50Z</time>
      </trkpt>
      <trkpt lat="28.3515400" lon="-16.5221020">
        <ele>1218.9</ele>
        <time>2020-11-11T15:31:51Z</time>
      </trkpt>
      <trkpt lat="28.3515120" lon="-16.5221300">
        <ele>1218.9</ele>
        <time>2020-11-11T15:31:52Z</time>
      </trkpt>
      <trkpt lat="28.3515120" lon="-16.5221300">
        <ele>1218.9</ele>
        <time>2020-11-11T15:31:53Z</time>
      </trkpt>
      <trkpt lat="28.3514920" lon="-16.5221620">
        <ele>1218.9</ele>
        <time>2020-11-11T15:31:54Z</time>
      </trkpt>
      <trkpt lat="28.3514780" lon="-16.5221770">
        <ele>1219.9</ele>
        <time>2020-11-11T15:31:55Z</time>
      </trkpt>
      <trkpt lat="28.3514780" lon="-16.5221770">
        <ele>1219.9</ele>
        <time>2020-11-11T15:31:56Z</time>
      </trkpt>
      <trkpt lat="28.3514530" lon="-16.5222030">
        <ele>1219.9</ele>
        <time>2020-11-11T15:31:57Z</time>
      </trkpt>
      <trkpt lat="28.3514420" lon="-16.5222130">
        <ele>1219.9</ele>
        <time>2020-11-11T15:31:58Z</time>
      </trkpt>
      <trkpt lat="28.3514420" lon="-16.5222130">
        <ele>1219.9</ele>
        <time>2020-11-11T15:31:59Z</time>
      </trkpt>
      <trkpt lat="28.3514120" lon="-16.5222500">
        <ele>1219.9</ele>
        <time>2020-11-11T15:32:00Z</time>
      </trkpt>
      <trkpt lat="28.3514120" lon="-16.5222500">
        <ele>1220.9</ele>
        <time>2020-11-11T15:32:01Z</time>
      </trkpt>
      <trkpt lat="28.3513750" lon="-16.5222720">
        <ele>1220.9</ele>
        <time>2020-11-11T15:32:02Z</time>
      </trkpt>
      <trkpt lat="28.3513750" lon="-16.5222720">
        <ele>1220.9</ele>
        <time>2020-11-11T15:32:03Z</time>
      </trkpt>
      <trkpt lat="28.3513450" lon="-16.5222920">
        <ele>1220.9</ele>
        <time>2020-11-11T15:32:04Z</time>
      </trkpt>
      <trkpt lat="28.3513450" lon="-16.5222920">
        <ele>1220.9</ele>
        <time>2020-11-11T15:32:05Z</time>
      </trkpt>
      <trkpt lat="28.3513180" lon="-16.5223120">
        <ele>1220.9</ele>
        <time>2020-11-11T15:32:06Z</time>
      </trkpt>
      <trkpt lat="28.3513180" lon="-16.5223120">
        <ele>1220.9</ele>
        <time>2020-11-11T15:32:07Z</time>
      </trkpt>
      <trkpt lat="28.3512900" lon="-16.5223350">
        <ele>1220.9</ele>
        <time>2020-11-11T15:32:08Z</time>
      </trkpt>
      <trkpt lat="28.3512900" lon="-16.5223350">
        <ele>1220.9</ele>
        <time>2020-11-11T15:32:09Z</time>
      </trkpt>
      <trkpt lat="28.3512520" lon="-16.5223470">
        <ele>1220.9</ele>
        <time>2020-11-11T15:32:10Z</time>
      </trkpt>
      <trkpt lat="28.3512520" lon="-16.5223470">
        <ele>1220.9</ele>
        <time>2020-11-11T15:32:11Z</time>
      </trkpt>
      <trkpt lat="28.3512200" lon="-16.5223620">
        <ele>1220.9</ele>
        <time>2020-11-11T15:32:12Z</time>
      </trkpt>
      <trkpt lat="28.3512050" lon="-16.5223650">
        <ele>1220.9</ele>
        <time>2020-11-11T15:32:13Z</time>
      </trkpt>
      <trkpt lat="28.3512050" lon="-16.5223650">
        <ele>1220.9</ele>
        <time>2020-11-11T15:32:14Z</time>
      </trkpt>
      <trkpt lat="28.3511700" lon="-16.5223720">
        <ele>1220.9</ele>
        <time>2020-11-11T15:32:15Z</time>
      </trkpt>
      <trkpt lat="28.3511700" lon="-16.5223720">
        <ele>1220.9</ele>
        <time>2020-11-11T15:32:16Z</time>
      </trkpt>
      <trkpt lat="28.3511370" lon="-16.5223780">
        <ele>1221.9</ele>
        <time>2020-11-11T15:32:17Z</time>
      </trkpt>
      <trkpt lat="28.3511170" lon="-16.5223780">
        <ele>1221.9</ele>
        <time>2020-11-11T15:32:18Z</time>
      </trkpt>
      <trkpt lat="28.3511170" lon="-16.5223780">
        <ele>1221.9</ele>
        <time>2020-11-11T15:32:19Z</time>
      </trkpt>
      <trkpt lat="28.3510750" lon="-16.5223770">
        <ele>1221.9</ele>
        <time>2020-11-11T15:32:20Z</time>
      </trkpt>
      <trkpt lat="28.3510750" lon="-16.5223770">
        <ele>1221.9</ele>
        <time>2020-11-11T15:32:21Z</time>
      </trkpt>
      <trkpt lat="28.3510420" lon="-16.5223830">
        <ele>1221.9</ele>
        <time>2020-11-11T15:32:22Z</time>
      </trkpt>
      <trkpt lat="28.3510250" lon="-16.5223880">
        <ele>1222.9</ele>
        <time>2020-11-11T15:32:23Z</time>
      </trkpt>
      <trkpt lat="28.3510250" lon="-16.5223880">
        <ele>1222.9</ele>
        <time>2020-11-11T15:32:24Z</time>
      </trkpt>
      <trkpt lat="28.3509900" lon="-16.5223870">
        <ele>1222.9</ele>
        <time>2020-11-11T15:32:25Z</time>
      </trkpt>
      <trkpt lat="28.3509730" lon="-16.5223850">
        <ele>1222.9</ele>
        <time>2020-11-11T15:32:26Z</time>
      </trkpt>
      <trkpt lat="28.3509570" lon="-16.5223850">
        <ele>1222.9</ele>
        <time>2020-11-11T15:32:27Z</time>
      </trkpt>
      <trkpt lat="28.3509570" lon="-16.5223850">
        <ele>1222.9</ele>
        <time>2020-11-11T15:32:28Z</time>
      </trkpt>
      <trkpt lat="28.3509230" lon="-16.5223930">
        <ele>1222.9</ele>
        <time>2020-11-11T15:32:29Z</time>
      </trkpt>
      <trkpt lat="28.3509230" lon="-16.5223930">
        <ele>1222.9</ele>
        <time>2020-11-11T15:32:30Z</time>
      </trkpt>
      <trkpt lat="28.3508780" lon="-16.5223980">
        <ele>1222.9</ele>
        <time>2020-11-11T15:32:31Z</time>
      </trkpt>
      <trkpt lat="28.3508780" lon="-16.5223980">
        <ele>1223.9</ele>
        <time>2020-11-11T15:32:32Z</time>
      </trkpt>
      <trkpt lat="28.3508370" lon="-16.5224030">
        <ele>1223.9</ele>
        <time>2020-11-11T15:32:33Z</time>
      </trkpt>
      <trkpt lat="28.3508370" lon="-16.5224030">
        <ele>1223.9</ele>
        <time>2020-11-11T15:32:34Z</time>
      </trkpt>
      <trkpt lat="28.3507970" lon="-16.5224150">
        <ele>1223.9</ele>
        <time>2020-11-11T15:32:35Z</time>
      </trkpt>
      <trkpt lat="28.3507970" lon="-16.5224150">
        <ele>1224.9</ele>
        <time>2020-11-11T15:32:36Z</time>
      </trkpt>
      <trkpt lat="28.3507550" lon="-16.5224320">
        <ele>1224.9</ele>
        <time>2020-11-11T15:32:37Z</time>
      </trkpt>
      <trkpt lat="28.3507550" lon="-16.5224320">
        <ele>1224.9</ele>
        <time>2020-11-11T15:32:38Z</time>
      </trkpt>
      <trkpt lat="28.3507170" lon="-16.5224370">
        <ele>1224.9</ele>
        <time>2020-11-11T15:32:39Z</time>
      </trkpt>
      <trkpt lat="28.3507170" lon="-16.5224370">
        <ele>1224.9</ele>
        <time>2020-11-11T15:32:40Z</time>
      </trkpt>
      <trkpt lat="28.3506800" lon="-16.5224450">
        <ele>1224.9</ele>
        <time>2020-11-11T15:32:41Z</time>
      </trkpt>
      <trkpt lat="28.3506800" lon="-16.5224450">
        <ele>1224.9</ele>
        <time>2020-11-11T15:32:42Z</time>
      </trkpt>
      <trkpt lat="28.3506380" lon="-16.5224550">
        <ele>1224.9</ele>
        <time>2020-11-11T15:32:43Z</time>
      </trkpt>
      <trkpt lat="28.3506380" lon="-16.5224550">
        <ele>1224.9</ele>
        <time>2020-11-11T15:32:44Z</time>
      </trkpt>
      <trkpt lat="28.3506030" lon="-16.5224650">
        <ele>1224.9</ele>
        <time>2020-11-11T15:32:45Z</time>
      </trkpt>
      <trkpt lat="28.3506030" lon="-16.5224650">
        <ele>1224.9</ele>
        <time>2020-11-11T15:32:46Z</time>
      </trkpt>
      <trkpt lat="28.3505670" lon="-16.5224750">
        <ele>1224.9</ele>
        <time>2020-11-11T15:32:47Z</time>
      </trkpt>
      <trkpt lat="28.3505670" lon="-16.5224750">
        <ele>1224.9</ele>
        <time>2020-11-11T15:32:48Z</time>
      </trkpt>
      <trkpt lat="28.3505330" lon="-16.5224880">
        <ele>1224.9</ele>
        <time>2020-11-11T15:32:49Z</time>
      </trkpt>
      <trkpt lat="28.3505200" lon="-16.5224980">
        <ele>1225.9</ele>
        <time>2020-11-11T15:32:50Z</time>
      </trkpt>
      <trkpt lat="28.3505200" lon="-16.5224980">
        <ele>1225.9</ele>
        <time>2020-11-11T15:32:51Z</time>
      </trkpt>
      <trkpt lat="28.3504900" lon="-16.5225250">
        <ele>1225.9</ele>
        <time>2020-11-11T15:32:52Z</time>
      </trkpt>
      <trkpt lat="28.3504900" lon="-16.5225250">
        <ele>1225.9</ele>
        <time>2020-11-11T15:32:53Z</time>
      </trkpt>
      <trkpt lat="28.3504700" lon="-16.5225550">
        <ele>1225.9</ele>
        <time>2020-11-11T15:32:54Z</time>
      </trkpt>
      <trkpt lat="28.3504700" lon="-16.5225550">
        <ele>1225.9</ele>
        <time>2020-11-11T15:32:55Z</time>
      </trkpt>
      <trkpt lat="28.3504500" lon="-16.5225930">
        <ele>1225.9</ele>
        <time>2020-11-11T15:32:56Z</time>
      </trkpt>
      <trkpt lat="28.3504500" lon="-16.5225930">
        <ele>1226.9</ele>
        <time>2020-11-11T15:32:57Z</time>
      </trkpt>
      <trkpt lat="28.3504330" lon="-16.5226330">
        <ele>1226.9</ele>
        <time>2020-11-11T15:32:58Z</time>
      </trkpt>
      <trkpt lat="28.3504330" lon="-16.5226330">
        <ele>1226.9</ele>
        <time>2020-11-11T15:32:59Z</time>
      </trkpt>
      <trkpt lat="28.3504170" lon="-16.5226720">
        <ele>1226.9</ele>
        <time>2020-11-11T15:33:00Z</time>
      </trkpt>
      <trkpt lat="28.3504170" lon="-16.5226720">
        <ele>1226.9</ele>
        <time>2020-11-11T15:33:01Z</time>
      </trkpt>
      <trkpt lat="28.3504020" lon="-16.5227150">
        <ele>1226.9</ele>
        <time>2020-11-11T15:33:02Z</time>
      </trkpt>
      <trkpt lat="28.3504020" lon="-16.5227150">
        <ele>1227.9</ele>
        <time>2020-11-11T15:33:03Z</time>
      </trkpt>
      <trkpt lat="28.3503870" lon="-16.5227580">
        <ele>1227.9</ele>
        <time>2020-11-11T15:33:04Z</time>
      </trkpt>
      <trkpt lat="28.3503870" lon="-16.5227580">
        <ele>1227.9</ele>
        <time>2020-11-11T15:33:05Z</time>
      </trkpt>
      <trkpt lat="28.3503780" lon="-16.5228030">
        <ele>1227.9</ele>
        <time>2020-11-11T15:33:06Z</time>
      </trkpt>
      <trkpt lat="28.3503750" lon="-16.5228250">
        <ele>1227.9</ele>
        <time>2020-11-11T15:33:07Z</time>
      </trkpt>
      <trkpt lat="28.3503750" lon="-16.5228250">
        <ele>1227.9</ele>
        <time>2020-11-11T15:33:08Z</time>
      </trkpt>
      <trkpt lat="28.3503770" lon="-16.5228680">
        <ele>1228.9</ele>
        <time>2020-11-11T15:33:09Z</time>
      </trkpt>
      <trkpt lat="28.3503770" lon="-16.5228680">
        <ele>1228.9</ele>
        <time>2020-11-11T15:33:10Z</time>
      </trkpt>
      <trkpt lat="28.3503730" lon="-16.5229120">
        <ele>1228.9</ele>
        <time>2020-11-11T15:33:11Z</time>
      </trkpt>
      <trkpt lat="28.3503730" lon="-16.5229120">
        <ele>1228.9</ele>
        <time>2020-11-11T15:33:12Z</time>
      </trkpt>
      <trkpt lat="28.3503720" lon="-16.5229550">
        <ele>1228.9</ele>
        <time>2020-11-11T15:33:13Z</time>
      </trkpt>
      <trkpt lat="28.3503720" lon="-16.5229550">
        <ele>1228.9</ele>
        <time>2020-11-11T15:33:14Z</time>
      </trkpt>
      <trkpt lat="28.3503730" lon="-16.5229980">
        <ele>1228.9</ele>
        <time>2020-11-11T15:33:15Z</time>
      </trkpt>
      <trkpt lat="28.3503730" lon="-16.5229980">
        <ele>1228.9</ele>
        <time>2020-11-11T15:33:16Z</time>
      </trkpt>
      <trkpt lat="28.3503730" lon="-16.5230430">
        <ele>1229.9</ele>
        <time>2020-11-11T15:33:17Z</time>
      </trkpt>
      <trkpt lat="28.3503730" lon="-16.5230430">
        <ele>1229.9</ele>
        <time>2020-11-11T15:33:18Z</time>
      </trkpt>
      <trkpt lat="28.3503700" lon="-16.5230880">
        <ele>1229.9</ele>
        <time>2020-11-11T15:33:19Z</time>
      </trkpt>
      <trkpt lat="28.3503680" lon="-16.5231070">
        <ele>1229.9</ele>
        <time>2020-11-11T15:33:20Z</time>
      </trkpt>
      <trkpt lat="28.3503680" lon="-16.5231070">
        <ele>1229.9</ele>
        <time>2020-11-11T15:33:21Z</time>
      </trkpt>
      <trkpt lat="28.3503630" lon="-16.5231480">
        <ele>1229.9</ele>
        <time>2020-11-11T15:33:22Z</time>
      </trkpt>
      <trkpt lat="28.3503650" lon="-16.5231720">
        <ele>1230.9</ele>
        <time>2020-11-11T15:33:23Z</time>
      </trkpt>
      <trkpt lat="28.3503650" lon="-16.5231720">
        <ele>1230.9</ele>
        <time>2020-11-11T15:33:24Z</time>
      </trkpt>
      <trkpt lat="28.3503650" lon="-16.5232220">
        <ele>1230.9</ele>
        <time>2020-11-11T15:33:25Z</time>
      </trkpt>
      <trkpt lat="28.3503680" lon="-16.5232430">
        <ele>1230.9</ele>
        <time>2020-11-11T15:33:26Z</time>
      </trkpt>
      <trkpt lat="28.3503680" lon="-16.5232430">
        <ele>1230.9</ele>
        <time>2020-11-11T15:33:27Z</time>
      </trkpt>
      <trkpt lat="28.3503780" lon="-16.5232880">
        <ele>1230.9</ele>
        <time>2020-11-11T15:33:28Z</time>
      </trkpt>
      <trkpt lat="28.3503780" lon="-16.5232880">
        <ele>1230.9</ele>
        <time>2020-11-11T15:33:29Z</time>
      </trkpt>
      <trkpt lat="28.3503780" lon="-16.5233300">
        <ele>1231.9</ele>
        <time>2020-11-11T15:33:30Z</time>
      </trkpt>
      <trkpt lat="28.3503780" lon="-16.5233480">
        <ele>1231.9</ele>
        <time>2020-11-11T15:33:31Z</time>
      </trkpt>
      <trkpt lat="28.3503750" lon="-16.5233700">
        <ele>1231.9</ele>
        <time>2020-11-11T15:33:32Z</time>
      </trkpt>
      <trkpt lat="28.3503750" lon="-16.5233700">
        <ele>1231.9</ele>
        <time>2020-11-11T15:33:33Z</time>
      </trkpt>
      <trkpt lat="28.3503720" lon="-16.5234100">
        <ele>1231.9</ele>
        <time>2020-11-11T15:33:34Z</time>
      </trkpt>
      <trkpt lat="28.3503720" lon="-16.5234320">
        <ele>1231.9</ele>
        <time>2020-11-11T15:33:35Z</time>
      </trkpt>
      <trkpt lat="28.3503720" lon="-16.5234320">
        <ele>1231.9</ele>
        <time>2020-11-11T15:33:36Z</time>
      </trkpt>
      <trkpt lat="28.3503800" lon="-16.5234780">
        <ele>1231.9</ele>
        <time>2020-11-11T15:33:37Z</time>
      </trkpt>
      <trkpt lat="28.3503800" lon="-16.5235000">
        <ele>1232.9</ele>
        <time>2020-11-11T15:33:38Z</time>
      </trkpt>
      <trkpt lat="28.3503800" lon="-16.5235000">
        <ele>1232.9</ele>
        <time>2020-11-11T15:33:39Z</time>
      </trkpt>
      <trkpt lat="28.3503880" lon="-16.5235450">
        <ele>1232.9</ele>
        <time>2020-11-11T15:33:40Z</time>
      </trkpt>
      <trkpt lat="28.3503880" lon="-16.5235450">
        <ele>1232.9</ele>
        <time>2020-11-11T15:33:41Z</time>
      </trkpt>
      <trkpt lat="28.3503850" lon="-16.5235930">
        <ele>1232.9</ele>
        <time>2020-11-11T15:33:42Z</time>
      </trkpt>
      <trkpt lat="28.3503850" lon="-16.5235930">
        <ele>1233.9</ele>
        <time>2020-11-11T15:33:43Z</time>
      </trkpt>
      <trkpt lat="28.3503750" lon="-16.5236400">
        <ele>1233.9</ele>
        <time>2020-11-11T15:33:44Z</time>
      </trkpt>
      <trkpt lat="28.3503750" lon="-16.5236400">
        <ele>1233.9</ele>
        <time>2020-11-11T15:33:45Z</time>
      </trkpt>
      <trkpt lat="28.3503650" lon="-16.5236830">
        <ele>1233.9</ele>
        <time>2020-11-11T15:33:46Z</time>
      </trkpt>
      <trkpt lat="28.3503650" lon="-16.5236830">
        <ele>1233.9</ele>
        <time>2020-11-11T15:33:47Z</time>
      </trkpt>
      <trkpt lat="28.3503530" lon="-16.5237270">
        <ele>1233.9</ele>
        <time>2020-11-11T15:33:48Z</time>
      </trkpt>
      <trkpt lat="28.3503530" lon="-16.5237270">
        <ele>1233.9</ele>
        <time>2020-11-11T15:33:49Z</time>
      </trkpt>
      <trkpt lat="28.3503450" lon="-16.5237720">
        <ele>1234.9</ele>
        <time>2020-11-11T15:33:50Z</time>
      </trkpt>
      <trkpt lat="28.3503450" lon="-16.5237720">
        <ele>1234.9</ele>
        <time>2020-11-11T15:33:51Z</time>
      </trkpt>
      <trkpt lat="28.3503300" lon="-16.5238080">
        <ele>1234.9</ele>
        <time>2020-11-11T15:33:52Z</time>
      </trkpt>
      <trkpt lat="28.3503300" lon="-16.5238080">
        <ele>1234.9</ele>
        <time>2020-11-11T15:33:53Z</time>
      </trkpt>
      <trkpt lat="28.3503100" lon="-16.5238450">
        <ele>1234.9</ele>
        <time>2020-11-11T15:33:54Z</time>
      </trkpt>
      <trkpt lat="28.3502980" lon="-16.5238620">
        <ele>1234.9</ele>
        <time>2020-11-11T15:33:55Z</time>
      </trkpt>
      <trkpt lat="28.3502980" lon="-16.5238620">
        <ele>1235.9</ele>
        <time>2020-11-11T15:33:56Z</time>
      </trkpt>
      <trkpt lat="28.3502750" lon="-16.5238970">
        <ele>1235.9</ele>
        <time>2020-11-11T15:33:57Z</time>
      </trkpt>
      <trkpt lat="28.3502630" lon="-16.5239130">
        <ele>1235.9</ele>
        <time>2020-11-11T15:33:58Z</time>
      </trkpt>
      <trkpt lat="28.3502630" lon="-16.5239130">
        <ele>1235.9</ele>
        <time>2020-11-11T15:33:59Z</time>
      </trkpt>
      <trkpt lat="28.3502430" lon="-16.5239480">
        <ele>1235.9</ele>
        <time>2020-11-11T15:34:00Z</time>
      </trkpt>
      <trkpt lat="28.3502430" lon="-16.5239480">
        <ele>1235.9</ele>
        <time>2020-11-11T15:34:01Z</time>
      </trkpt>
      <trkpt lat="28.3502230" lon="-16.5239870">
        <ele>1236.9</ele>
        <time>2020-11-11T15:34:02Z</time>
      </trkpt>
      <trkpt lat="28.3502230" lon="-16.5239870">
        <ele>1236.9</ele>
        <time>2020-11-11T15:34:03Z</time>
      </trkpt>
      <trkpt lat="28.3502020" lon="-16.5240300">
        <ele>1236.9</ele>
        <time>2020-11-11T15:34:04Z</time>
      </trkpt>
      <trkpt lat="28.3501930" lon="-16.5240500">
        <ele>1236.9</ele>
        <time>2020-11-11T15:34:05Z</time>
      </trkpt>
      <trkpt lat="28.3501920" lon="-16.5240720">
        <ele>1236.9</ele>
        <time>2020-11-11T15:34:06Z</time>
      </trkpt>
      <trkpt lat="28.3501920" lon="-16.5240720">
        <ele>1236.9</ele>
        <time>2020-11-11T15:34:07Z</time>
      </trkpt>
      <trkpt lat="28.3501830" lon="-16.5241130">
        <ele>1236.9</ele>
        <time>2020-11-11T15:34:08Z</time>
      </trkpt>
      <trkpt lat="28.3501830" lon="-16.5241130">
        <ele>1236.9</ele>
        <time>2020-11-11T15:34:09Z</time>
      </trkpt>
      <trkpt lat="28.3501800" lon="-16.5241620">
        <ele>1236.9</ele>
        <time>2020-11-11T15:34:10Z</time>
      </trkpt>
      <trkpt lat="28.3501820" lon="-16.5241870">
        <ele>1236.9</ele>
        <time>2020-11-11T15:34:11Z</time>
      </trkpt>
      <trkpt lat="28.3501820" lon="-16.5241870">
        <ele>1236.9</ele>
        <time>2020-11-11T15:34:12Z</time>
      </trkpt>
      <trkpt lat="28.3501830" lon="-16.5242330">
        <ele>1236.9</ele>
        <time>2020-11-11T15:34:13Z</time>
      </trkpt>
      <trkpt lat="28.3501830" lon="-16.5242330">
        <ele>1237.9</ele>
        <time>2020-11-11T15:34:14Z</time>
      </trkpt>
      <trkpt lat="28.3501830" lon="-16.5242850">
        <ele>1237.9</ele>
        <time>2020-11-11T15:34:15Z</time>
      </trkpt>
      <trkpt lat="28.3501830" lon="-16.5242850">
        <ele>1237.9</ele>
        <time>2020-11-11T15:34:16Z</time>
      </trkpt>
      <trkpt lat="28.3501830" lon="-16.5243380">
        <ele>1238.9</ele>
        <time>2020-11-11T15:34:17Z</time>
      </trkpt>
      <trkpt lat="28.3501830" lon="-16.5243620">
        <ele>1238.9</ele>
        <time>2020-11-11T15:34:18Z</time>
      </trkpt>
      <trkpt lat="28.3501800" lon="-16.5243870">
        <ele>1238.9</ele>
        <time>2020-11-11T15:34:19Z</time>
      </trkpt>
      <trkpt lat="28.3501800" lon="-16.5243870">
        <ele>1238.9</ele>
        <time>2020-11-11T15:34:20Z</time>
      </trkpt>
      <trkpt lat="28.3501680" lon="-16.5244420">
        <ele>1238.9</ele>
        <time>2020-11-11T15:34:21Z</time>
      </trkpt>
      <trkpt lat="28.3501680" lon="-16.5244420">
        <ele>1238.9</ele>
        <time>2020-11-11T15:34:22Z</time>
      </trkpt>
      <trkpt lat="28.3501550" lon="-16.5244900">
        <ele>1239.9</ele>
        <time>2020-11-11T15:34:23Z</time>
      </trkpt>
      <trkpt lat="28.3501550" lon="-16.5244900">
        <ele>1239.9</ele>
        <time>2020-11-11T15:34:24Z</time>
      </trkpt>
      <trkpt lat="28.3501450" lon="-16.5245300">
        <ele>1239.9</ele>
        <time>2020-11-11T15:34:25Z</time>
      </trkpt>
      <trkpt lat="28.3501420" lon="-16.5245500">
        <ele>1239.9</ele>
        <time>2020-11-11T15:34:26Z</time>
      </trkpt>
      <trkpt lat="28.3501370" lon="-16.5245700">
        <ele>1239.9</ele>
        <time>2020-11-11T15:34:27Z</time>
      </trkpt>
      <trkpt lat="28.3501370" lon="-16.5245700">
        <ele>1239.9</ele>
        <time>2020-11-11T15:34:28Z</time>
      </trkpt>
      <trkpt lat="28.3501200" lon="-16.5246120">
        <ele>1240.9</ele>
        <time>2020-11-11T15:34:29Z</time>
      </trkpt>
      <trkpt lat="28.3501200" lon="-16.5246120">
        <ele>1240.9</ele>
        <time>2020-11-11T15:34:30Z</time>
      </trkpt>
      <trkpt lat="28.3501070" lon="-16.5246520">
        <ele>1240.9</ele>
        <time>2020-11-11T15:34:31Z</time>
      </trkpt>
      <trkpt lat="28.3500980" lon="-16.5246670">
        <ele>1240.9</ele>
        <time>2020-11-11T15:34:32Z</time>
      </trkpt>
      <trkpt lat="28.3500980" lon="-16.5246670">
        <ele>1240.9</ele>
        <time>2020-11-11T15:34:33Z</time>
      </trkpt>
      <trkpt lat="28.3500750" lon="-16.5247000">
        <ele>1240.9</ele>
        <time>2020-11-11T15:34:34Z</time>
      </trkpt>
      <trkpt lat="28.3500600" lon="-16.5247170">
        <ele>1241.9</ele>
        <time>2020-11-11T15:34:35Z</time>
      </trkpt>
      <trkpt lat="28.3500600" lon="-16.5247170">
        <ele>1241.9</ele>
        <time>2020-11-11T15:34:36Z</time>
      </trkpt>
      <trkpt lat="28.3500330" lon="-16.5247530">
        <ele>1241.9</ele>
        <time>2020-11-11T15:34:37Z</time>
      </trkpt>
      <trkpt lat="28.3500230" lon="-16.5247730">
        <ele>1241.9</ele>
        <time>2020-11-11T15:34:38Z</time>
      </trkpt>
      <trkpt lat="28.3500230" lon="-16.5247730">
        <ele>1241.9</ele>
        <time>2020-11-11T15:34:39Z</time>
      </trkpt>
      <trkpt lat="28.3499950" lon="-16.5248070">
        <ele>1241.9</ele>
        <time>2020-11-11T15:34:40Z</time>
      </trkpt>
      <trkpt lat="28.3499950" lon="-16.5248070">
        <ele>1241.9</ele>
        <time>2020-11-11T15:34:41Z</time>
      </trkpt>
      <trkpt lat="28.3499680" lon="-16.5248400">
        <ele>1241.9</ele>
        <time>2020-11-11T15:34:42Z</time>
      </trkpt>
      <trkpt lat="28.3499680" lon="-16.5248400">
        <ele>1242.9</ele>
        <time>2020-11-11T15:34:43Z</time>
      </trkpt>
      <trkpt lat="28.3499430" lon="-16.5248750">
        <ele>1242.9</ele>
        <time>2020-11-11T15:34:44Z</time>
      </trkpt>
      <trkpt lat="28.3499430" lon="-16.5248750">
        <ele>1242.9</ele>
        <time>2020-11-11T15:34:45Z</time>
      </trkpt>
      <trkpt lat="28.3499150" lon="-16.5249080">
        <ele>1242.9</ele>
        <time>2020-11-11T15:34:46Z</time>
      </trkpt>
      <trkpt lat="28.3499150" lon="-16.5249080">
        <ele>1242.9</ele>
        <time>2020-11-11T15:34:47Z</time>
      </trkpt>
      <trkpt lat="28.3498870" lon="-16.5249380">
        <ele>1242.9</ele>
        <time>2020-11-11T15:34:48Z</time>
      </trkpt>
      <trkpt lat="28.3498870" lon="-16.5249380">
        <ele>1242.9</ele>
        <time>2020-11-11T15:34:49Z</time>
      </trkpt>
      <trkpt lat="28.3498570" lon="-16.5249680">
        <ele>1242.9</ele>
        <time>2020-11-11T15:34:50Z</time>
      </trkpt>
      <trkpt lat="28.3498570" lon="-16.5249680">
        <ele>1242.9</ele>
        <time>2020-11-11T15:34:51Z</time>
      </trkpt>
      <trkpt lat="28.3498330" lon="-16.5250000">
        <ele>1242.9</ele>
        <time>2020-11-11T15:34:52Z</time>
      </trkpt>
      <trkpt lat="28.3498280" lon="-16.5250200">
        <ele>1242.9</ele>
        <time>2020-11-11T15:34:53Z</time>
      </trkpt>
      <trkpt lat="28.3498280" lon="-16.5250200">
        <ele>1242.9</ele>
        <time>2020-11-11T15:34:54Z</time>
      </trkpt>
      <trkpt lat="28.3498280" lon="-16.5250530">
        <ele>1242.9</ele>
        <time>2020-11-11T15:34:55Z</time>
      </trkpt>
      <trkpt lat="28.3498280" lon="-16.5250530">
        <ele>1242.9</ele>
        <time>2020-11-11T15:34:56Z</time>
      </trkpt>
      <trkpt lat="28.3498270" lon="-16.5250850">
        <ele>1242.9</ele>
        <time>2020-11-11T15:34:57Z</time>
      </trkpt>
      <trkpt lat="28.3498150" lon="-16.5251020">
        <ele>1243.9</ele>
        <time>2020-11-11T15:34:58Z</time>
      </trkpt>
      <trkpt lat="28.3498030" lon="-16.5251180">
        <ele>1243.9</ele>
        <time>2020-11-11T15:34:59Z</time>
      </trkpt>
      <trkpt lat="28.3498030" lon="-16.5251180">
        <ele>1243.9</ele>
        <time>2020-11-11T15:35:00Z</time>
      </trkpt>
      <trkpt lat="28.3497830" lon="-16.5251550">
        <ele>1243.9</ele>
        <time>2020-11-11T15:35:01Z</time>
      </trkpt>
      <trkpt lat="28.3497700" lon="-16.5251730">
        <ele>1243.9</ele>
        <time>2020-11-11T15:35:02Z</time>
      </trkpt>
      <trkpt lat="28.3497700" lon="-16.5251730">
        <ele>1243.9</ele>
        <time>2020-11-11T15:35:03Z</time>
      </trkpt>
      <trkpt lat="28.3497430" lon="-16.5252070">
        <ele>1243.9</ele>
        <time>2020-11-11T15:35:04Z</time>
      </trkpt>
      <trkpt lat="28.3497430" lon="-16.5252070">
        <ele>1243.9</ele>
        <time>2020-11-11T15:35:05Z</time>
      </trkpt>
      <trkpt lat="28.3497180" lon="-16.5252500">
        <ele>1244.9</ele>
        <time>2020-11-11T15:35:06Z</time>
      </trkpt>
      <trkpt lat="28.3497070" lon="-16.5252670">
        <ele>1244.9</ele>
        <time>2020-11-11T15:35:07Z</time>
      </trkpt>
      <trkpt lat="28.3497070" lon="-16.5252670">
        <ele>1244.9</ele>
        <time>2020-11-11T15:35:08Z</time>
      </trkpt>
      <trkpt lat="28.3496880" lon="-16.5253000">
        <ele>1244.9</ele>
        <time>2020-11-11T15:35:09Z</time>
      </trkpt>
      <trkpt lat="28.3496880" lon="-16.5253000">
        <ele>1244.9</ele>
        <time>2020-11-11T15:35:10Z</time>
      </trkpt>
      <trkpt lat="28.3496980" lon="-16.5253400">
        <ele>1244.9</ele>
        <time>2020-11-11T15:35:11Z</time>
      </trkpt>
      <trkpt lat="28.3496980" lon="-16.5253400">
        <ele>1244.9</ele>
        <time>2020-11-11T15:35:12Z</time>
      </trkpt>
      <trkpt lat="28.3497220" lon="-16.5253800">
        <ele>1244.9</ele>
        <time>2020-11-11T15:35:13Z</time>
      </trkpt>
      <trkpt lat="28.3497350" lon="-16.5253930">
        <ele>1244.9</ele>
        <time>2020-11-11T15:35:14Z</time>
      </trkpt>
      <trkpt lat="28.3497350" lon="-16.5253930">
        <ele>1244.9</ele>
        <time>2020-11-11T15:35:15Z</time>
      </trkpt>
      <trkpt lat="28.3497570" lon="-16.5254120">
        <ele>1244.9</ele>
        <time>2020-11-11T15:35:16Z</time>
      </trkpt>
      <trkpt lat="28.3497570" lon="-16.5254120">
        <ele>1244.9</ele>
        <time>2020-11-11T15:35:17Z</time>
      </trkpt>
      <trkpt lat="28.3497670" lon="-16.5254250">
        <ele>1244.9</ele>
        <time>2020-11-11T15:35:18Z</time>
      </trkpt>
      <trkpt lat="28.3497670" lon="-16.5254250">
        <ele>1244.9</ele>
        <time>2020-11-11T15:35:19Z</time>
      </trkpt>
      <trkpt lat="28.3497700" lon="-16.5254250">
        <ele>1244.9</ele>
        <time>2020-11-11T15:35:20Z</time>
      </trkpt>
      <trkpt lat="28.3497700" lon="-16.5254250">
        <ele>1244.9</ele>
        <time>2020-11-11T15:35:21Z</time>
      </trkpt>
      <trkpt lat="28.3497450" lon="-16.5254370">
        <ele>1244.9</ele>
        <time>2020-11-11T15:39:17Z</time>
      </trkpt>
      <trkpt lat="28.3497450" lon="-16.5254370">
        <ele>1244.9</ele>
        <time>2020-11-11T15:39:18Z</time>
      </trkpt>
      <trkpt lat="28.3497330" lon="-16.5254330">
        <ele>1245.9</ele>
        <time>2020-11-11T15:39:19Z</time>
      </trkpt>
      <trkpt lat="28.3497330" lon="-16.5254330">
        <ele>1245.9</ele>
        <time>2020-11-11T15:39:20Z</time>
      </trkpt>
      <trkpt lat="28.3497300" lon="-16.5254350">
        <ele>1245.9</ele>
        <time>2020-11-11T15:39:21Z</time>
      </trkpt>
      <trkpt lat="28.3497300" lon="-16.5254350">
        <ele>1245.9</ele>
        <time>2020-11-11T15:39:22Z</time>
      </trkpt>
      <trkpt lat="28.3497200" lon="-16.5254250">
        <ele>1245.9</ele>
        <time>2020-11-11T15:39:23Z</time>
      </trkpt>
      <trkpt lat="28.3497120" lon="-16.5254180">
        <ele>1245.9</ele>
        <time>2020-11-11T15:39:24Z</time>
      </trkpt>
      <trkpt lat="28.3497120" lon="-16.5254180">
        <ele>1245.9</ele>
        <time>2020-11-11T15:39:25Z</time>
      </trkpt>
      <trkpt lat="28.3496850" lon="-16.5254050">
        <ele>1245.9</ele>
        <time>2020-11-11T15:39:26Z</time>
      </trkpt>
      <trkpt lat="28.3496850" lon="-16.5254050">
        <ele>1245.9</ele>
        <time>2020-11-11T15:39:27Z</time>
      </trkpt>
      <trkpt lat="28.3496530" lon="-16.5254050">
        <ele>1245.9</ele>
        <time>2020-11-11T15:39:28Z</time>
      </trkpt>
      <trkpt lat="28.3496530" lon="-16.5254050">
        <ele>1245.9</ele>
        <time>2020-11-11T15:39:29Z</time>
      </trkpt>
      <trkpt lat="28.3496150" lon="-16.5254120">
        <ele>1245.9</ele>
        <time>2020-11-11T15:39:30Z</time>
      </trkpt>
      <trkpt lat="28.3496150" lon="-16.5254120">
        <ele>1245.9</ele>
        <time>2020-11-11T15:39:31Z</time>
      </trkpt>
      <trkpt lat="28.3495720" lon="-16.5254330">
        <ele>1245.9</ele>
        <time>2020-11-11T15:39:32Z</time>
      </trkpt>
      <trkpt lat="28.3495720" lon="-16.5254330">
        <ele>1245.9</ele>
        <time>2020-11-11T15:39:33Z</time>
      </trkpt>
      <trkpt lat="28.3495330" lon="-16.5254550">
        <ele>1245.9</ele>
        <time>2020-11-11T15:39:34Z</time>
      </trkpt>
      <trkpt lat="28.3495330" lon="-16.5254550">
        <ele>1245.9</ele>
        <time>2020-11-11T15:39:35Z</time>
      </trkpt>
      <trkpt lat="28.3494930" lon="-16.5254770">
        <ele>1245.9</ele>
        <time>2020-11-11T15:39:36Z</time>
      </trkpt>
      <trkpt lat="28.3494720" lon="-16.5254870">
        <ele>1245.9</ele>
        <time>2020-11-11T15:39:37Z</time>
      </trkpt>
      <trkpt lat="28.3494720" lon="-16.5254870">
        <ele>1245.9</ele>
        <time>2020-11-11T15:39:38Z</time>
      </trkpt>
      <trkpt lat="28.3494300" lon="-16.5255030">
        <ele>1246.9</ele>
        <time>2020-11-11T15:39:39Z</time>
      </trkpt>
      <trkpt lat="28.3494300" lon="-16.5255030">
        <ele>1246.9</ele>
        <time>2020-11-11T15:39:40Z</time>
      </trkpt>
      <trkpt lat="28.3493850" lon="-16.5255100">
        <ele>1246.9</ele>
        <time>2020-11-11T15:39:41Z</time>
      </trkpt>
      <trkpt lat="28.3493850" lon="-16.5255100">
        <ele>1246.9</ele>
        <time>2020-11-11T15:39:42Z</time>
      </trkpt>
      <trkpt lat="28.3493420" lon="-16.5255180">
        <ele>1246.9</ele>
        <time>2020-11-11T15:39:43Z</time>
      </trkpt>
      <trkpt lat="28.3493420" lon="-16.5255180">
        <ele>1246.9</ele>
        <time>2020-11-11T15:39:44Z</time>
      </trkpt>
      <trkpt lat="28.3493020" lon="-16.5255300">
        <ele>1246.9</ele>
        <time>2020-11-11T15:39:45Z</time>
      </trkpt>
      <trkpt lat="28.3493020" lon="-16.5255300">
        <ele>1246.9</ele>
        <time>2020-11-11T15:39:46Z</time>
      </trkpt>
      <trkpt lat="28.3492650" lon="-16.5255400">
        <ele>1246.9</ele>
        <time>2020-11-11T15:39:47Z</time>
      </trkpt>
      <trkpt lat="28.3492480" lon="-16.5255520">
        <ele>1246.9</ele>
        <time>2020-11-11T15:39:48Z</time>
      </trkpt>
      <trkpt lat="28.3492300" lon="-16.5255630">
        <ele>1246.9</ele>
        <time>2020-11-11T15:39:49Z</time>
      </trkpt>
      <trkpt lat="28.3492300" lon="-16.5255630">
        <ele>1247.9</ele>
        <time>2020-11-11T15:39:50Z</time>
      </trkpt>
      <trkpt lat="28.3491930" lon="-16.5255850">
        <ele>1247.9</ele>
        <time>2020-11-11T15:39:51Z</time>
      </trkpt>
      <trkpt lat="28.3491930" lon="-16.5255850">
        <ele>1247.9</ele>
        <time>2020-11-11T15:39:52Z</time>
      </trkpt>
      <trkpt lat="28.3491580" lon="-16.5256080">
        <ele>1247.9</ele>
        <time>2020-11-11T15:39:53Z</time>
      </trkpt>
      <trkpt lat="28.3491580" lon="-16.5256080">
        <ele>1247.9</ele>
        <time>2020-11-11T15:39:54Z</time>
      </trkpt>
      <trkpt lat="28.3491270" lon="-16.5256300">
        <ele>1247.9</ele>
        <time>2020-11-11T15:39:55Z</time>
      </trkpt>
      <trkpt lat="28.3491150" lon="-16.5256430">
        <ele>1247.9</ele>
        <time>2020-11-11T15:39:56Z</time>
      </trkpt>
      <trkpt lat="28.3491150" lon="-16.5256430">
        <ele>1247.9</ele>
        <time>2020-11-11T15:39:57Z</time>
      </trkpt>
      <trkpt lat="28.3490870" lon="-16.5256770">
        <ele>1247.9</ele>
        <time>2020-11-11T15:39:58Z</time>
      </trkpt>
      <trkpt lat="28.3490870" lon="-16.5256770">
        <ele>1247.9</ele>
        <time>2020-11-11T15:39:59Z</time>
      </trkpt>
      <trkpt lat="28.3490600" lon="-16.5257120">
        <ele>1247.9</ele>
        <time>2020-11-11T15:40:00Z</time>
      </trkpt>
      <trkpt lat="28.3490530" lon="-16.5257280">
        <ele>1247.9</ele>
        <time>2020-11-11T15:40:01Z</time>
      </trkpt>
      <trkpt lat="28.3490530" lon="-16.5257280">
        <ele>1247.9</ele>
        <time>2020-11-11T15:40:02Z</time>
      </trkpt>
      <trkpt lat="28.3490350" lon="-16.5257680">
        <ele>1248.9</ele>
        <time>2020-11-11T15:40:03Z</time>
      </trkpt>
      <trkpt lat="28.3490350" lon="-16.5257680">
        <ele>1248.9</ele>
        <time>2020-11-11T15:40:04Z</time>
      </trkpt>
      <trkpt lat="28.3490080" lon="-16.5258070">
        <ele>1248.9</ele>
        <time>2020-11-11T15:40:05Z</time>
      </trkpt>
      <trkpt lat="28.3490080" lon="-16.5258070">
        <ele>1248.9</ele>
        <time>2020-11-11T15:40:06Z</time>
      </trkpt>
      <trkpt lat="28.3489850" lon="-16.5258450">
        <ele>1248.9</ele>
        <time>2020-11-11T15:40:07Z</time>
      </trkpt>
      <trkpt lat="28.3489850" lon="-16.5258450">
        <ele>1248.9</ele>
        <time>2020-11-11T15:40:08Z</time>
      </trkpt>
      <trkpt lat="28.3489670" lon="-16.5258870">
        <ele>1249.9</ele>
        <time>2020-11-11T15:40:09Z</time>
      </trkpt>
      <trkpt lat="28.3489670" lon="-16.5258870">
        <ele>1249.9</ele>
        <time>2020-11-11T15:40:10Z</time>
      </trkpt>
      <trkpt lat="28.3489420" lon="-16.5259230">
        <ele>1249.9</ele>
        <time>2020-11-11T15:40:11Z</time>
      </trkpt>
      <trkpt lat="28.3489420" lon="-16.5259230">
        <ele>1249.9</ele>
        <time>2020-11-11T15:40:12Z</time>
      </trkpt>
      <trkpt lat="28.3489170" lon="-16.5259620">
        <ele>1249.9</ele>
        <time>2020-11-11T15:40:13Z</time>
      </trkpt>
      <trkpt lat="28.3489030" lon="-16.5259830">
        <ele>1249.9</ele>
        <time>2020-11-11T15:40:14Z</time>
      </trkpt>
      <trkpt lat="28.3489030" lon="-16.5259830">
        <ele>1249.9</ele>
        <time>2020-11-11T15:40:15Z</time>
      </trkpt>
      <trkpt lat="28.3488730" lon="-16.5260280">
        <ele>1249.9</ele>
        <time>2020-11-11T15:40:16Z</time>
      </trkpt>
      <trkpt lat="28.3488730" lon="-16.5260280">
        <ele>1250.9</ele>
        <time>2020-11-11T15:40:17Z</time>
      </trkpt>
      <trkpt lat="28.3488470" lon="-16.5260770">
        <ele>1250.9</ele>
        <time>2020-11-11T15:40:18Z</time>
      </trkpt>
      <trkpt lat="28.3488300" lon="-16.5261020">
        <ele>1250.9</ele>
        <time>2020-11-11T15:40:19Z</time>
      </trkpt>
      <trkpt lat="28.3488300" lon="-16.5261020">
        <ele>1250.9</ele>
        <time>2020-11-11T15:40:20Z</time>
      </trkpt>
      <trkpt lat="28.3487950" lon="-16.5261480">
        <ele>1250.9</ele>
        <time>2020-11-11T15:40:21Z</time>
      </trkpt>
      <trkpt lat="28.3487950" lon="-16.5261480">
        <ele>1250.9</ele>
        <time>2020-11-11T15:40:22Z</time>
      </trkpt>
      <trkpt lat="28.3487520" lon="-16.5261930">
        <ele>1250.9</ele>
        <time>2020-11-11T15:40:23Z</time>
      </trkpt>
      <trkpt lat="28.3487520" lon="-16.5261930">
        <ele>1250.9</ele>
        <time>2020-11-11T15:40:24Z</time>
      </trkpt>
      <trkpt lat="28.3487080" lon="-16.5262420">
        <ele>1250.9</ele>
        <time>2020-11-11T15:40:25Z</time>
      </trkpt>
      <trkpt lat="28.3487080" lon="-16.5262420">
        <ele>1250.9</ele>
        <time>2020-11-11T15:40:26Z</time>
      </trkpt>
      <trkpt lat="28.3486650" lon="-16.5262880">
        <ele>1250.9</ele>
        <time>2020-11-11T15:40:27Z</time>
      </trkpt>
      <trkpt lat="28.3486650" lon="-16.5262880">
        <ele>1250.9</ele>
        <time>2020-11-11T15:40:28Z</time>
      </trkpt>
      <trkpt lat="28.3486330" lon="-16.5263430">
        <ele>1251.9</ele>
        <time>2020-11-11T15:40:29Z</time>
      </trkpt>
      <trkpt lat="28.3486230" lon="-16.5263700">
        <ele>1251.9</ele>
        <time>2020-11-11T15:40:30Z</time>
      </trkpt>
      <trkpt lat="28.3486230" lon="-16.5263700">
        <ele>1251.9</ele>
        <time>2020-11-11T15:40:31Z</time>
      </trkpt>
      <trkpt lat="28.3485950" lon="-16.5264200">
        <ele>1252.9</ele>
        <time>2020-11-11T15:40:32Z</time>
      </trkpt>
      <trkpt lat="28.3485950" lon="-16.5264200">
        <ele>1252.9</ele>
        <time>2020-11-11T15:40:33Z</time>
      </trkpt>
      <trkpt lat="28.3485500" lon="-16.5264570">
        <ele>1252.9</ele>
        <time>2020-11-11T15:40:34Z</time>
      </trkpt>
      <trkpt lat="28.3485500" lon="-16.5264570">
        <ele>1252.9</ele>
        <time>2020-11-11T15:40:35Z</time>
      </trkpt>
      <trkpt lat="28.3485000" lon="-16.5264750">
        <ele>1252.9</ele>
        <time>2020-11-11T15:40:36Z</time>
      </trkpt>
      <trkpt lat="28.3484800" lon="-16.5264800">
        <ele>1252.9</ele>
        <time>2020-11-11T15:40:37Z</time>
      </trkpt>
      <trkpt lat="28.3484800" lon="-16.5264800">
        <ele>1253.9</ele>
        <time>2020-11-11T15:40:38Z</time>
      </trkpt>
      <trkpt lat="28.3484400" lon="-16.5264850">
        <ele>1253.9</ele>
        <time>2020-11-11T15:40:39Z</time>
      </trkpt>
      <trkpt lat="28.3484400" lon="-16.5264850">
        <ele>1253.9</ele>
        <time>2020-11-11T15:40:40Z</time>
      </trkpt>
      <trkpt lat="28.3484020" lon="-16.5264670">
        <ele>1253.9</ele>
        <time>2020-11-11T15:40:41Z</time>
      </trkpt>
      <trkpt lat="28.3484020" lon="-16.5264670">
        <ele>1254.9</ele>
        <time>2020-11-11T15:40:42Z</time>
      </trkpt>
      <trkpt lat="28.3483700" lon="-16.5264370">
        <ele>1254.9</ele>
        <time>2020-11-11T15:40:43Z</time>
      </trkpt>
      <trkpt lat="28.3483570" lon="-16.5264170">
        <ele>1254.9</ele>
        <time>2020-11-11T15:40:44Z</time>
      </trkpt>
      <trkpt lat="28.3483470" lon="-16.5263970">
        <ele>1254.9</ele>
        <time>2020-11-11T15:40:45Z</time>
      </trkpt>
      <trkpt lat="28.3483470" lon="-16.5263970">
        <ele>1255.9</ele>
        <time>2020-11-11T15:40:46Z</time>
      </trkpt>
      <trkpt lat="28.3483300" lon="-16.5263520">
        <ele>1255.9</ele>
        <time>2020-11-11T15:40:47Z</time>
      </trkpt>
      <trkpt lat="28.3483300" lon="-16.5263520">
        <ele>1255.9</ele>
        <time>2020-11-11T15:40:48Z</time>
      </trkpt>
      <trkpt lat="28.3483250" lon="-16.5263000">
        <ele>1255.9</ele>
        <time>2020-11-11T15:40:49Z</time>
      </trkpt>
      <trkpt lat="28.3483250" lon="-16.5263000">
        <ele>1255.9</ele>
        <time>2020-11-11T15:40:50Z</time>
      </trkpt>
      <trkpt lat="28.3483350" lon="-16.5262530">
        <ele>1255.9</ele>
        <time>2020-11-11T15:40:51Z</time>
      </trkpt>
      <trkpt lat="28.3483350" lon="-16.5262530">
        <ele>1255.9</ele>
        <time>2020-11-11T15:40:52Z</time>
      </trkpt>
      <trkpt lat="28.3483550" lon="-16.5262100">
        <ele>1255.9</ele>
        <time>2020-11-11T15:40:53Z</time>
      </trkpt>
      <trkpt lat="28.3483550" lon="-16.5262100">
        <ele>1256.9</ele>
        <time>2020-11-11T15:40:54Z</time>
      </trkpt>
      <trkpt lat="28.3483800" lon="-16.5261730">
        <ele>1256.9</ele>
        <time>2020-11-11T15:40:55Z</time>
      </trkpt>
      <trkpt lat="28.3483800" lon="-16.5261730">
        <ele>1256.9</ele>
        <time>2020-11-11T15:40:56Z</time>
      </trkpt>
      <trkpt lat="28.3484000" lon="-16.5261280">
        <ele>1256.9</ele>
        <time>2020-11-11T15:40:57Z</time>
      </trkpt>
      <trkpt lat="28.3484000" lon="-16.5261280">
        <ele>1256.9</ele>
        <time>2020-11-11T15:40:58Z</time>
      </trkpt>
      <trkpt lat="28.3484280" lon="-16.5260930">
        <ele>1256.9</ele>
        <time>2020-11-11T15:40:59Z</time>
      </trkpt>
      <trkpt lat="28.3484280" lon="-16.5260930">
        <ele>1256.9</ele>
        <time>2020-11-11T15:41:00Z</time>
      </trkpt>
      <trkpt lat="28.3484580" lon="-16.5260650">
        <ele>1256.9</ele>
        <time>2020-11-11T15:41:01Z</time>
      </trkpt>
      <trkpt lat="28.3484750" lon="-16.5260530">
        <ele>1256.9</ele>
        <time>2020-11-11T15:41:02Z</time>
      </trkpt>
      <trkpt lat="28.3484920" lon="-16.5260380">
        <ele>1256.9</ele>
        <time>2020-11-11T15:41:03Z</time>
      </trkpt>
      <trkpt lat="28.3484920" lon="-16.5260380">
        <ele>1256.9</ele>
        <time>2020-11-11T15:41:04Z</time>
      </trkpt>
      <trkpt lat="28.3485230" lon="-16.5260080">
        <ele>1256.9</ele>
        <time>2020-11-11T15:41:05Z</time>
      </trkpt>
      <trkpt lat="28.3485230" lon="-16.5260080">
        <ele>1257.9</ele>
        <time>2020-11-11T15:41:06Z</time>
      </trkpt>
      <trkpt lat="28.3485500" lon="-16.5259680">
        <ele>1257.9</ele>
        <time>2020-11-11T15:41:07Z</time>
      </trkpt>
      <trkpt lat="28.3485500" lon="-16.5259680">
        <ele>1257.9</ele>
        <time>2020-11-11T15:41:08Z</time>
      </trkpt>
      <trkpt lat="28.3485730" lon="-16.5259300">
        <ele>1258.9</ele>
        <time>2020-11-11T15:41:09Z</time>
      </trkpt>
      <trkpt lat="28.3485730" lon="-16.5259300">
        <ele>1258.9</ele>
        <time>2020-11-11T15:41:10Z</time>
      </trkpt>
      <trkpt lat="28.3485880" lon="-16.5258820">
        <ele>1258.9</ele>
        <time>2020-11-11T15:41:11Z</time>
      </trkpt>
      <trkpt lat="28.3485880" lon="-16.5258820">
        <ele>1258.9</ele>
        <time>2020-11-11T15:41:12Z</time>
      </trkpt>
      <trkpt lat="28.3485930" lon="-16.5258330">
        <ele>1258.9</ele>
        <time>2020-11-11T15:41:13Z</time>
      </trkpt>
      <trkpt lat="28.3485930" lon="-16.5258330">
        <ele>1258.9</ele>
        <time>2020-11-11T15:41:14Z</time>
      </trkpt>
      <trkpt lat="28.3486050" lon="-16.5257850">
        <ele>1259.9</ele>
        <time>2020-11-11T15:41:15Z</time>
      </trkpt>
      <trkpt lat="28.3486050" lon="-16.5257850">
        <ele>1259.9</ele>
        <time>2020-11-11T15:41:16Z</time>
      </trkpt>
      <trkpt lat="28.3486150" lon="-16.5257320">
        <ele>1259.9</ele>
        <time>2020-11-11T15:41:17Z</time>
      </trkpt>
      <trkpt lat="28.3486150" lon="-16.5257320">
        <ele>1259.9</ele>
        <time>2020-11-11T15:41:18Z</time>
      </trkpt>
      <trkpt lat="28.3486200" lon="-16.5256780">
        <ele>1259.9</ele>
        <time>2020-11-11T15:41:19Z</time>
      </trkpt>
      <trkpt lat="28.3486200" lon="-16.5256780">
        <ele>1259.9</ele>
        <time>2020-11-11T15:41:20Z</time>
      </trkpt>
      <trkpt lat="28.3486220" lon="-16.5256230">
        <ele>1260.9</ele>
        <time>2020-11-11T15:41:21Z</time>
      </trkpt>
      <trkpt lat="28.3486220" lon="-16.5256230">
        <ele>1260.9</ele>
        <time>2020-11-11T15:41:22Z</time>
      </trkpt>
      <trkpt lat="28.3486270" lon="-16.5255700">
        <ele>1260.9</ele>
        <time>2020-11-11T15:41:23Z</time>
      </trkpt>
      <trkpt lat="28.3486270" lon="-16.5255700">
        <ele>1260.9</ele>
        <time>2020-11-11T15:41:24Z</time>
      </trkpt>
      <trkpt lat="28.3486370" lon="-16.5255170">
        <ele>1260.9</ele>
        <time>2020-11-11T15:41:25Z</time>
      </trkpt>
      <trkpt lat="28.3486370" lon="-16.5255170">
        <ele>1260.9</ele>
        <time>2020-11-11T15:41:26Z</time>
      </trkpt>
      <trkpt lat="28.3486470" lon="-16.5254630">
        <ele>1260.9</ele>
        <time>2020-11-11T15:41:27Z</time>
      </trkpt>
      <trkpt lat="28.3486470" lon="-16.5254630">
        <ele>1260.9</ele>
        <time>2020-11-11T15:41:28Z</time>
      </trkpt>
      <trkpt lat="28.3486580" lon="-16.5254100">
        <ele>1260.9</ele>
        <time>2020-11-11T15:41:29Z</time>
      </trkpt>
      <trkpt lat="28.3486580" lon="-16.5254100">
        <ele>1260.9</ele>
        <time>2020-11-11T15:41:30Z</time>
      </trkpt>
      <trkpt lat="28.3486750" lon="-16.5253570">
        <ele>1260.9</ele>
        <time>2020-11-11T15:41:31Z</time>
      </trkpt>
      <trkpt lat="28.3486750" lon="-16.5253570">
        <ele>1260.9</ele>
        <time>2020-11-11T15:41:32Z</time>
      </trkpt>
      <trkpt lat="28.3486980" lon="-16.5253100">
        <ele>1260.9</ele>
        <time>2020-11-11T15:41:33Z</time>
      </trkpt>
      <trkpt lat="28.3487080" lon="-16.5252850">
        <ele>1260.9</ele>
        <time>2020-11-11T15:41:34Z</time>
      </trkpt>
      <trkpt lat="28.3487080" lon="-16.5252850">
        <ele>1261.9</ele>
        <time>2020-11-11T15:41:35Z</time>
      </trkpt>
      <trkpt lat="28.3487350" lon="-16.5252380">
        <ele>1261.9</ele>
        <time>2020-11-11T15:41:36Z</time>
      </trkpt>
      <trkpt lat="28.3487350" lon="-16.5252380">
        <ele>1261.9</ele>
        <time>2020-11-11T15:41:37Z</time>
      </trkpt>
      <trkpt lat="28.3487650" lon="-16.5251930">
        <ele>1261.9</ele>
        <time>2020-11-11T15:41:38Z</time>
      </trkpt>
      <trkpt lat="28.3487650" lon="-16.5251930">
        <ele>1261.9</ele>
        <time>2020-11-11T15:41:39Z</time>
      </trkpt>
      <trkpt lat="28.3487930" lon="-16.5251500">
        <ele>1261.9</ele>
        <time>2020-11-11T15:41:40Z</time>
      </trkpt>
      <trkpt lat="28.3487930" lon="-16.5251500">
        <ele>1262.9</ele>
        <time>2020-11-11T15:41:41Z</time>
      </trkpt>
      <trkpt lat="28.3488230" lon="-16.5251030">
        <ele>1262.9</ele>
        <time>2020-11-11T15:41:42Z</time>
      </trkpt>
      <trkpt lat="28.3488370" lon="-16.5250800">
        <ele>1262.9</ele>
        <time>2020-11-11T15:41:43Z</time>
      </trkpt>
      <trkpt lat="28.3488370" lon="-16.5250800">
        <ele>1262.9</ele>
        <time>2020-11-11T15:41:44Z</time>
      </trkpt>
      <trkpt lat="28.3488550" lon="-16.5250280">
        <ele>1262.9</ele>
        <time>2020-11-11T15:41:45Z</time>
      </trkpt>
      <trkpt lat="28.3488550" lon="-16.5250280">
        <ele>1263.9</ele>
        <time>2020-11-11T15:41:46Z</time>
      </trkpt>
      <trkpt lat="28.3488670" lon="-16.5249720">
        <ele>1263.9</ele>
        <time>2020-11-11T15:41:47Z</time>
      </trkpt>
      <trkpt lat="28.3488680" lon="-16.5249450">
        <ele>1263.9</ele>
        <time>2020-11-11T15:41:48Z</time>
      </trkpt>
      <trkpt lat="28.3488680" lon="-16.5249450">
        <ele>1263.9</ele>
        <time>2020-11-11T15:41:49Z</time>
      </trkpt>
      <trkpt lat="28.3488650" lon="-16.5248930">
        <ele>1263.9</ele>
        <time>2020-11-11T15:41:50Z</time>
      </trkpt>
      <trkpt lat="28.3488650" lon="-16.5248930">
        <ele>1263.9</ele>
        <time>2020-11-11T15:41:51Z</time>
      </trkpt>
      <trkpt lat="28.3488550" lon="-16.5248430">
        <ele>1263.9</ele>
        <time>2020-11-11T15:41:52Z</time>
      </trkpt>
      <trkpt lat="28.3488480" lon="-16.5248180">
        <ele>1263.9</ele>
        <time>2020-11-11T15:41:53Z</time>
      </trkpt>
      <trkpt lat="28.3488480" lon="-16.5248180">
        <ele>1264.9</ele>
        <time>2020-11-11T15:41:54Z</time>
      </trkpt>
      <trkpt lat="28.3488350" lon="-16.5247680">
        <ele>1264.9</ele>
        <time>2020-11-11T15:41:55Z</time>
      </trkpt>
      <trkpt lat="28.3488350" lon="-16.5247680">
        <ele>1264.9</ele>
        <time>2020-11-11T15:41:56Z</time>
      </trkpt>
      <trkpt lat="28.3488250" lon="-16.5247180">
        <ele>1264.9</ele>
        <time>2020-11-11T15:41:57Z</time>
      </trkpt>
      <trkpt lat="28.3488250" lon="-16.5247180">
        <ele>1264.9</ele>
        <time>2020-11-11T15:41:58Z</time>
      </trkpt>
      <trkpt lat="28.3488130" lon="-16.5246700">
        <ele>1264.9</ele>
        <time>2020-11-11T15:41:59Z</time>
      </trkpt>
      <trkpt lat="28.3488100" lon="-16.5246450">
        <ele>1265.9</ele>
        <time>2020-11-11T15:42:00Z</time>
      </trkpt>
      <trkpt lat="28.3488100" lon="-16.5246450">
        <ele>1265.9</ele>
        <time>2020-11-11T15:42:01Z</time>
      </trkpt>
      <trkpt lat="28.3488030" lon="-16.5245950">
        <ele>1265.9</ele>
        <time>2020-11-11T15:42:02Z</time>
      </trkpt>
      <trkpt lat="28.3487980" lon="-16.5245720">
        <ele>1265.9</ele>
        <time>2020-11-11T15:42:03Z</time>
      </trkpt>
      <trkpt lat="28.3487980" lon="-16.5245720">
        <ele>1265.9</ele>
        <time>2020-11-11T15:42:04Z</time>
      </trkpt>
      <trkpt lat="28.3487880" lon="-16.5245230">
        <ele>1265.9</ele>
        <time>2020-11-11T15:42:05Z</time>
      </trkpt>
      <trkpt lat="28.3487830" lon="-16.5245000">
        <ele>1265.9</ele>
        <time>2020-11-11T15:42:06Z</time>
      </trkpt>
      <trkpt lat="28.3487830" lon="-16.5245000">
        <ele>1265.9</ele>
        <time>2020-11-11T15:42:07Z</time>
      </trkpt>
      <trkpt lat="28.3487770" lon="-16.5244500">
        <ele>1265.9</ele>
        <time>2020-11-11T15:42:08Z</time>
      </trkpt>
      <trkpt lat="28.3487770" lon="-16.5244500">
        <ele>1265.9</ele>
        <time>2020-11-11T15:42:09Z</time>
      </trkpt>
      <trkpt lat="28.3487680" lon="-16.5244030">
        <ele>1266.9</ele>
        <time>2020-11-11T15:42:10Z</time>
      </trkpt>
      <trkpt lat="28.3487630" lon="-16.5243780">
        <ele>1266.9</ele>
        <time>2020-11-11T15:42:11Z</time>
      </trkpt>
      <trkpt lat="28.3487620" lon="-16.5243530">
        <ele>1266.9</ele>
        <time>2020-11-11T15:42:12Z</time>
      </trkpt>
      <trkpt lat="28.3487580" lon="-16.5243280">
        <ele>1266.9</ele>
        <time>2020-11-11T15:42:13Z</time>
      </trkpt>
      <trkpt lat="28.3487580" lon="-16.5243280">
        <ele>1266.9</ele>
        <time>2020-11-11T15:42:14Z</time>
      </trkpt>
      <trkpt lat="28.3487520" lon="-16.5242800">
        <ele>1266.9</ele>
        <time>2020-11-11T15:42:15Z</time>
      </trkpt>
      <trkpt lat="28.3487520" lon="-16.5242800">
        <ele>1266.9</ele>
        <time>2020-11-11T15:42:16Z</time>
      </trkpt>
      <trkpt lat="28.3487430" lon="-16.5242330">
        <ele>1266.9</ele>
        <time>2020-11-11T15:42:17Z</time>
      </trkpt>
      <trkpt lat="28.3487370" lon="-16.5242100">
        <ele>1266.9</ele>
        <time>2020-11-11T15:42:18Z</time>
      </trkpt>
      <trkpt lat="28.3487370" lon="-16.5242100">
        <ele>1266.9</ele>
        <time>2020-11-11T15:42:19Z</time>
      </trkpt>
      <trkpt lat="28.3487270" lon="-16.5241620">
        <ele>1266.9</ele>
        <time>2020-11-11T15:42:20Z</time>
      </trkpt>
      <trkpt lat="28.3487250" lon="-16.5241380">
        <ele>1266.9</ele>
        <time>2020-11-11T15:42:21Z</time>
      </trkpt>
      <trkpt lat="28.3487250" lon="-16.5241380">
        <ele>1267.9</ele>
        <time>2020-11-11T15:42:22Z</time>
      </trkpt>
      <trkpt lat="28.3487180" lon="-16.5240900">
        <ele>1267.9</ele>
        <time>2020-11-11T15:42:23Z</time>
      </trkpt>
      <trkpt lat="28.3487180" lon="-16.5240900">
        <ele>1267.9</ele>
        <time>2020-11-11T15:42:24Z</time>
      </trkpt>
      <trkpt lat="28.3487120" lon="-16.5240450">
        <ele>1267.9</ele>
        <time>2020-11-11T15:42:25Z</time>
      </trkpt>
      <trkpt lat="28.3487120" lon="-16.5240450">
        <ele>1267.9</ele>
        <time>2020-11-11T15:42:26Z</time>
      </trkpt>
      <trkpt lat="28.3487070" lon="-16.5239980">
        <ele>1267.9</ele>
        <time>2020-11-11T15:42:27Z</time>
      </trkpt>
      <trkpt lat="28.3487050" lon="-16.5239750">
        <ele>1268.9</ele>
        <time>2020-11-11T15:42:28Z</time>
      </trkpt>
      <trkpt lat="28.3487050" lon="-16.5239750">
        <ele>1268.9</ele>
        <time>2020-11-11T15:42:29Z</time>
      </trkpt>
      <trkpt lat="28.3487030" lon="-16.5239270">
        <ele>1268.9</ele>
        <time>2020-11-11T15:42:30Z</time>
      </trkpt>
      <trkpt lat="28.3487000" lon="-16.5239030">
        <ele>1268.9</ele>
        <time>2020-11-11T15:42:31Z</time>
      </trkpt>
      <trkpt lat="28.3487000" lon="-16.5239030">
        <ele>1268.9</ele>
        <time>2020-11-11T15:42:32Z</time>
      </trkpt>
      <trkpt lat="28.3486970" lon="-16.5238570">
        <ele>1268.9</ele>
        <time>2020-11-11T15:42:33Z</time>
      </trkpt>
      <trkpt lat="28.3486970" lon="-16.5238570">
        <ele>1269.9</ele>
        <time>2020-11-11T15:42:34Z</time>
      </trkpt>
      <trkpt lat="28.3486950" lon="-16.5238120">
        <ele>1269.9</ele>
        <time>2020-11-11T15:42:35Z</time>
      </trkpt>
      <trkpt lat="28.3486950" lon="-16.5238120">
        <ele>1269.9</ele>
        <time>2020-11-11T15:42:36Z</time>
      </trkpt>
      <trkpt lat="28.3486970" lon="-16.5237670">
        <ele>1269.9</ele>
        <time>2020-11-11T15:42:37Z</time>
      </trkpt>
      <trkpt lat="28.3486970" lon="-16.5237670">
        <ele>1269.9</ele>
        <time>2020-11-11T15:42:38Z</time>
      </trkpt>
      <trkpt lat="28.3486950" lon="-16.5237220">
        <ele>1269.9</ele>
        <time>2020-11-11T15:42:39Z</time>
      </trkpt>
      <trkpt lat="28.3486950" lon="-16.5237220">
        <ele>1269.9</ele>
        <time>2020-11-11T15:42:40Z</time>
      </trkpt>
      <trkpt lat="28.3486920" lon="-16.5236780">
        <ele>1269.9</ele>
        <time>2020-11-11T15:42:41Z</time>
      </trkpt>
      <trkpt lat="28.3486880" lon="-16.5236550">
        <ele>1270.9</ele>
        <time>2020-11-11T15:42:42Z</time>
      </trkpt>
      <trkpt lat="28.3486880" lon="-16.5236330">
        <ele>1270.9</ele>
        <time>2020-11-11T15:42:43Z</time>
      </trkpt>
      <trkpt lat="28.3486880" lon="-16.5236330">
        <ele>1270.9</ele>
        <time>2020-11-11T15:42:44Z</time>
      </trkpt>
      <trkpt lat="28.3486950" lon="-16.5235880">
        <ele>1270.9</ele>
        <time>2020-11-11T15:42:45Z</time>
      </trkpt>
      <trkpt lat="28.3486950" lon="-16.5235880">
        <ele>1271.9</ele>
        <time>2020-11-11T15:42:46Z</time>
      </trkpt>
      <trkpt lat="28.3487030" lon="-16.5235420">
        <ele>1271.9</ele>
        <time>2020-11-11T15:42:47Z</time>
      </trkpt>
      <trkpt lat="28.3487030" lon="-16.5235420">
        <ele>1271.9</ele>
        <time>2020-11-11T15:42:48Z</time>
      </trkpt>
      <trkpt lat="28.3487100" lon="-16.5234950">
        <ele>1271.9</ele>
        <time>2020-11-11T15:42:49Z</time>
      </trkpt>
      <trkpt lat="28.3487120" lon="-16.5234720">
        <ele>1271.9</ele>
        <time>2020-11-11T15:42:50Z</time>
      </trkpt>
      <trkpt lat="28.3487120" lon="-16.5234720">
        <ele>1271.9</ele>
        <time>2020-11-11T15:42:51Z</time>
      </trkpt>
      <trkpt lat="28.3487130" lon="-16.5234230">
        <ele>1270.9</ele>
        <time>2020-11-11T15:42:52Z</time>
      </trkpt>
      <trkpt lat="28.3487170" lon="-16.5233980">
        <ele>1270.9</ele>
        <time>2020-11-11T15:42:53Z</time>
      </trkpt>
      <trkpt lat="28.3487170" lon="-16.5233980">
        <ele>1270.9</ele>
        <time>2020-11-11T15:42:54Z</time>
      </trkpt>
      <trkpt lat="28.3487220" lon="-16.5233500">
        <ele>1271.9</ele>
        <time>2020-11-11T15:42:55Z</time>
      </trkpt>
      <trkpt lat="28.3487220" lon="-16.5233500">
        <ele>1271.9</ele>
        <time>2020-11-11T15:42:56Z</time>
      </trkpt>
      <trkpt lat="28.3487270" lon="-16.5233030">
        <ele>1272.9</ele>
        <time>2020-11-11T15:42:57Z</time>
      </trkpt>
      <trkpt lat="28.3487300" lon="-16.5232820">
        <ele>1272.9</ele>
        <time>2020-11-11T15:42:58Z</time>
      </trkpt>
      <trkpt lat="28.3487350" lon="-16.5232600">
        <ele>1272.9</ele>
        <time>2020-11-11T15:42:59Z</time>
      </trkpt>
      <trkpt lat="28.3487350" lon="-16.5232600">
        <ele>1273.9</ele>
        <time>2020-11-11T15:43:00Z</time>
      </trkpt>
      <trkpt lat="28.3487450" lon="-16.5232170">
        <ele>1273.9</ele>
        <time>2020-11-11T15:43:01Z</time>
      </trkpt>
      <trkpt lat="28.3487450" lon="-16.5232170">
        <ele>1273.9</ele>
        <time>2020-11-11T15:43:02Z</time>
      </trkpt>
      <trkpt lat="28.3487500" lon="-16.5231700">
        <ele>1273.9</ele>
        <time>2020-11-11T15:43:03Z</time>
      </trkpt>
      <trkpt lat="28.3487500" lon="-16.5231700">
        <ele>1274.9</ele>
        <time>2020-11-11T15:43:04Z</time>
      </trkpt>
      <trkpt lat="28.3487570" lon="-16.5231250">
        <ele>1274.9</ele>
        <time>2020-11-11T15:43:05Z</time>
      </trkpt>
      <trkpt lat="28.3487600" lon="-16.5231020">
        <ele>1274.9</ele>
        <time>2020-11-11T15:43:06Z</time>
      </trkpt>
      <trkpt lat="28.3487600" lon="-16.5231020">
        <ele>1274.9</ele>
        <time>2020-11-11T15:43:07Z</time>
      </trkpt>
      <trkpt lat="28.3487680" lon="-16.5230570">
        <ele>1275.9</ele>
        <time>2020-11-11T15:43:08Z</time>
      </trkpt>
      <trkpt lat="28.3487680" lon="-16.5230570">
        <ele>1275.9</ele>
        <time>2020-11-11T15:43:09Z</time>
      </trkpt>
      <trkpt lat="28.3487720" lon="-16.5230120">
        <ele>1275.9</ele>
        <time>2020-11-11T15:43:10Z</time>
      </trkpt>
      <trkpt lat="28.3487720" lon="-16.5230120">
        <ele>1275.9</ele>
        <time>2020-11-11T15:43:11Z</time>
      </trkpt>
      <trkpt lat="28.3487770" lon="-16.5229650">
        <ele>1275.9</ele>
        <time>2020-11-11T15:43:12Z</time>
      </trkpt>
      <trkpt lat="28.3487820" lon="-16.5229430">
        <ele>1275.9</ele>
        <time>2020-11-11T15:43:13Z</time>
      </trkpt>
      <trkpt lat="28.3487820" lon="-16.5229430">
        <ele>1275.9</ele>
        <time>2020-11-11T15:43:14Z</time>
      </trkpt>
      <trkpt lat="28.3487900" lon="-16.5228980">
        <ele>1275.9</ele>
        <time>2020-11-11T15:43:15Z</time>
      </trkpt>
      <trkpt lat="28.3487900" lon="-16.5228980">
        <ele>1275.9</ele>
        <time>2020-11-11T15:43:16Z</time>
      </trkpt>
      <trkpt lat="28.3487950" lon="-16.5228520">
        <ele>1275.9</ele>
        <time>2020-11-11T15:43:17Z</time>
      </trkpt>
      <trkpt lat="28.3487950" lon="-16.5228520">
        <ele>1275.9</ele>
        <time>2020-11-11T15:43:18Z</time>
      </trkpt>
      <trkpt lat="28.3487950" lon="-16.5228050">
        <ele>1275.9</ele>
        <time>2020-11-11T15:43:19Z</time>
      </trkpt>
      <trkpt lat="28.3487950" lon="-16.5228050">
        <ele>1276.9</ele>
        <time>2020-11-11T15:43:20Z</time>
      </trkpt>
      <trkpt lat="28.3488000" lon="-16.5227580">
        <ele>1276.9</ele>
        <time>2020-11-11T15:43:21Z</time>
      </trkpt>
      <trkpt lat="28.3488050" lon="-16.5227350">
        <ele>1276.9</ele>
        <time>2020-11-11T15:43:22Z</time>
      </trkpt>
      <trkpt lat="28.3488050" lon="-16.5227350">
        <ele>1276.9</ele>
        <time>2020-11-11T15:43:23Z</time>
      </trkpt>
      <trkpt lat="28.3488080" lon="-16.5226900">
        <ele>1276.9</ele>
        <time>2020-11-11T15:43:24Z</time>
      </trkpt>
      <trkpt lat="28.3488080" lon="-16.5226900">
        <ele>1276.9</ele>
        <time>2020-11-11T15:43:25Z</time>
      </trkpt>
      <trkpt lat="28.3488120" lon="-16.5226420">
        <ele>1277.9</ele>
        <time>2020-11-11T15:43:26Z</time>
      </trkpt>
      <trkpt lat="28.3488120" lon="-16.5226420">
        <ele>1277.9</ele>
        <time>2020-11-11T15:43:27Z</time>
      </trkpt>
      <trkpt lat="28.3488150" lon="-16.5225930">
        <ele>1277.9</ele>
        <time>2020-11-11T15:43:28Z</time>
      </trkpt>
      <trkpt lat="28.3488150" lon="-16.5225930">
        <ele>1277.9</ele>
        <time>2020-11-11T15:43:29Z</time>
      </trkpt>
      <trkpt lat="28.3488200" lon="-16.5225470">
        <ele>1278.9</ele>
        <time>2020-11-11T15:43:30Z</time>
      </trkpt>
      <trkpt lat="28.3488180" lon="-16.5225230">
        <ele>1278.9</ele>
        <time>2020-11-11T15:43:31Z</time>
      </trkpt>
      <trkpt lat="28.3488180" lon="-16.5225230">
        <ele>1278.9</ele>
        <time>2020-11-11T15:43:32Z</time>
      </trkpt>
      <trkpt lat="28.3488100" lon="-16.5224750">
        <ele>1278.9</ele>
        <time>2020-11-11T15:43:33Z</time>
      </trkpt>
      <trkpt lat="28.3488100" lon="-16.5224750">
        <ele>1278.9</ele>
        <time>2020-11-11T15:43:34Z</time>
      </trkpt>
      <trkpt lat="28.3487950" lon="-16.5224280">
        <ele>1278.9</ele>
        <time>2020-11-11T15:43:35Z</time>
      </trkpt>
      <trkpt lat="28.3487950" lon="-16.5224280">
        <ele>1278.9</ele>
        <time>2020-11-11T15:43:36Z</time>
      </trkpt>
      <trkpt lat="28.3487770" lon="-16.5223870">
        <ele>1278.9</ele>
        <time>2020-11-11T15:43:37Z</time>
      </trkpt>
      <trkpt lat="28.3487650" lon="-16.5223670">
        <ele>1279.9</ele>
        <time>2020-11-11T15:43:38Z</time>
      </trkpt>
      <trkpt lat="28.3487650" lon="-16.5223670">
        <ele>1279.9</ele>
        <time>2020-11-11T15:43:39Z</time>
      </trkpt>
      <trkpt lat="28.3487350" lon="-16.5223280">
        <ele>1279.9</ele>
        <time>2020-11-11T15:43:40Z</time>
      </trkpt>
      <trkpt lat="28.3487350" lon="-16.5223280">
        <ele>1279.9</ele>
        <time>2020-11-11T15:43:41Z</time>
      </trkpt>
      <trkpt lat="28.3487150" lon="-16.5222850">
        <ele>1280.9</ele>
        <time>2020-11-11T15:43:42Z</time>
      </trkpt>
      <trkpt lat="28.3487050" lon="-16.5222650">
        <ele>1280.9</ele>
        <time>2020-11-11T15:43:43Z</time>
      </trkpt>
      <trkpt lat="28.3487050" lon="-16.5222650">
        <ele>1280.9</ele>
        <time>2020-11-11T15:43:44Z</time>
      </trkpt>
      <trkpt lat="28.3486850" lon="-16.5222200">
        <ele>1280.9</ele>
        <time>2020-11-11T15:43:45Z</time>
      </trkpt>
      <trkpt lat="28.3486850" lon="-16.5222200">
        <ele>1280.9</ele>
        <time>2020-11-11T15:43:46Z</time>
      </trkpt>
      <trkpt lat="28.3486620" lon="-16.5221800">
        <ele>1280.9</ele>
        <time>2020-11-11T15:43:47Z</time>
      </trkpt>
      <trkpt lat="28.3486620" lon="-16.5221800">
        <ele>1281.9</ele>
        <time>2020-11-11T15:43:48Z</time>
      </trkpt>
      <trkpt lat="28.3486370" lon="-16.5221420">
        <ele>1281.9</ele>
        <time>2020-11-11T15:43:49Z</time>
      </trkpt>
      <trkpt lat="28.3486370" lon="-16.5221420">
        <ele>1281.9</ele>
        <time>2020-11-11T15:43:50Z</time>
      </trkpt>
      <trkpt lat="28.3486120" lon="-16.5221030">
        <ele>1281.9</ele>
        <time>2020-11-11T15:43:51Z</time>
      </trkpt>
      <trkpt lat="28.3486120" lon="-16.5221030">
        <ele>1281.9</ele>
        <time>2020-11-11T15:43:52Z</time>
      </trkpt>
      <trkpt lat="28.3485920" lon="-16.5220600">
        <ele>1281.9</ele>
        <time>2020-11-11T15:43:53Z</time>
      </trkpt>
      <trkpt lat="28.3485920" lon="-16.5220600">
        <ele>1281.9</ele>
        <time>2020-11-11T15:43:54Z</time>
      </trkpt>
      <trkpt lat="28.3485780" lon="-16.5220120">
        <ele>1281.9</ele>
        <time>2020-11-11T15:43:55Z</time>
      </trkpt>
      <trkpt lat="28.3485780" lon="-16.5220120">
        <ele>1281.9</ele>
        <time>2020-11-11T15:43:56Z</time>
      </trkpt>
      <trkpt lat="28.3485530" lon="-16.5219630">
        <ele>1281.9</ele>
        <time>2020-11-11T15:43:57Z</time>
      </trkpt>
      <trkpt lat="28.3485430" lon="-16.5219400">
        <ele>1281.9</ele>
        <time>2020-11-11T15:43:58Z</time>
      </trkpt>
      <trkpt lat="28.3485430" lon="-16.5219400">
        <ele>1281.9</ele>
        <time>2020-11-11T15:43:59Z</time>
      </trkpt>
      <trkpt lat="28.3485230" lon="-16.5218950">
        <ele>1282.9</ele>
        <time>2020-11-11T15:44:00Z</time>
      </trkpt>
      <trkpt lat="28.3485230" lon="-16.5218950">
        <ele>1282.9</ele>
        <time>2020-11-11T15:44:01Z</time>
      </trkpt>
      <trkpt lat="28.3485100" lon="-16.5218520">
        <ele>1282.9</ele>
        <time>2020-11-11T15:44:02Z</time>
      </trkpt>
      <trkpt lat="28.3485100" lon="-16.5218300">
        <ele>1282.9</ele>
        <time>2020-11-11T15:44:03Z</time>
      </trkpt>
      <trkpt lat="28.3485100" lon="-16.5218300">
        <ele>1283.9</ele>
        <time>2020-11-11T15:44:04Z</time>
      </trkpt>
      <trkpt lat="28.3485020" lon="-16.5217880">
        <ele>1283.9</ele>
        <time>2020-11-11T15:44:05Z</time>
      </trkpt>
      <trkpt lat="28.3484980" lon="-16.5217650">
        <ele>1283.9</ele>
        <time>2020-11-11T15:44:06Z</time>
      </trkpt>
      <trkpt lat="28.3484980" lon="-16.5217650">
        <ele>1283.9</ele>
        <time>2020-11-11T15:44:07Z</time>
      </trkpt>
      <trkpt lat="28.3484950" lon="-16.5217150">
        <ele>1283.9</ele>
        <time>2020-11-11T15:44:08Z</time>
      </trkpt>
      <trkpt lat="28.3484950" lon="-16.5217150">
        <ele>1284.9</ele>
        <time>2020-11-11T15:44:09Z</time>
      </trkpt>
      <trkpt lat="28.3484920" lon="-16.5216620">
        <ele>1284.9</ele>
        <time>2020-11-11T15:44:10Z</time>
      </trkpt>
      <trkpt lat="28.3484920" lon="-16.5216620">
        <ele>1284.9</ele>
        <time>2020-11-11T15:44:11Z</time>
      </trkpt>
      <trkpt lat="28.3485020" lon="-16.5216130">
        <ele>1284.9</ele>
        <time>2020-11-11T15:44:12Z</time>
      </trkpt>
      <trkpt lat="28.3485020" lon="-16.5216130">
        <ele>1284.9</ele>
        <time>2020-11-11T15:44:13Z</time>
      </trkpt>
      <trkpt lat="28.3485200" lon="-16.5215700">
        <ele>1284.9</ele>
        <time>2020-11-11T15:44:14Z</time>
      </trkpt>
      <trkpt lat="28.3485200" lon="-16.5215700">
        <ele>1285.9</ele>
        <time>2020-11-11T15:44:15Z</time>
      </trkpt>
      <trkpt lat="28.3485530" lon="-16.5215320">
        <ele>1285.9</ele>
        <time>2020-11-11T15:44:16Z</time>
      </trkpt>
      <trkpt lat="28.3485530" lon="-16.5215320">
        <ele>1285.9</ele>
        <time>2020-11-11T15:44:17Z</time>
      </trkpt>
      <trkpt lat="28.3485930" lon="-16.5214970">
        <ele>1285.9</ele>
        <time>2020-11-11T15:44:18Z</time>
      </trkpt>
      <trkpt lat="28.3485930" lon="-16.5214970">
        <ele>1285.9</ele>
        <time>2020-11-11T15:44:19Z</time>
      </trkpt>
      <trkpt lat="28.3486300" lon="-16.5214650">
        <ele>1285.9</ele>
        <time>2020-11-11T15:44:20Z</time>
      </trkpt>
      <trkpt lat="28.3486300" lon="-16.5214650">
        <ele>1286.9</ele>
        <time>2020-11-11T15:44:21Z</time>
      </trkpt>
      <trkpt lat="28.3486750" lon="-16.5214430">
        <ele>1286.9</ele>
        <time>2020-11-11T15:44:22Z</time>
      </trkpt>
      <trkpt lat="28.3486750" lon="-16.5214430">
        <ele>1286.9</ele>
        <time>2020-11-11T15:44:23Z</time>
      </trkpt>
      <trkpt lat="28.3487200" lon="-16.5214250">
        <ele>1286.9</ele>
        <time>2020-11-11T15:44:24Z</time>
      </trkpt>
      <trkpt lat="28.3487420" lon="-16.5214130">
        <ele>1286.9</ele>
        <time>2020-11-11T15:44:25Z</time>
      </trkpt>
      <trkpt lat="28.3487420" lon="-16.5214130">
        <ele>1286.9</ele>
        <time>2020-11-11T15:44:26Z</time>
      </trkpt>
      <trkpt lat="28.3487780" lon="-16.5213850">
        <ele>1286.9</ele>
        <time>2020-11-11T15:44:27Z</time>
      </trkpt>
      <trkpt lat="28.3487780" lon="-16.5213850">
        <ele>1286.9</ele>
        <time>2020-11-11T15:44:28Z</time>
      </trkpt>
      <trkpt lat="28.3488230" lon="-16.5213530">
        <ele>1287.9</ele>
        <time>2020-11-11T15:44:29Z</time>
      </trkpt>
      <trkpt lat="28.3488420" lon="-16.5213300">
        <ele>1287.9</ele>
        <time>2020-11-11T15:44:30Z</time>
      </trkpt>
      <trkpt lat="28.3488420" lon="-16.5213300">
        <ele>1287.9</ele>
        <time>2020-11-11T15:44:31Z</time>
      </trkpt>
      <trkpt lat="28.3488720" lon="-16.5212850">
        <ele>1287.9</ele>
        <time>2020-11-11T15:44:32Z</time>
      </trkpt>
      <trkpt lat="28.3488720" lon="-16.5212850">
        <ele>1287.9</ele>
        <time>2020-11-11T15:44:33Z</time>
      </trkpt>
      <trkpt lat="28.3489000" lon="-16.5212370">
        <ele>1287.9</ele>
        <time>2020-11-11T15:44:34Z</time>
      </trkpt>
      <trkpt lat="28.3489000" lon="-16.5212370">
        <ele>1287.9</ele>
        <time>2020-11-11T15:44:35Z</time>
      </trkpt>
      <trkpt lat="28.3489150" lon="-16.5211800">
        <ele>1287.9</ele>
        <time>2020-11-11T15:44:36Z</time>
      </trkpt>
      <trkpt lat="28.3489230" lon="-16.5211520">
        <ele>1287.9</ele>
        <time>2020-11-11T15:44:37Z</time>
      </trkpt>
      <trkpt lat="28.3489230" lon="-16.5211520">
        <ele>1287.9</ele>
        <time>2020-11-11T15:44:38Z</time>
      </trkpt>
      <trkpt lat="28.3489370" lon="-16.5210930">
        <ele>1287.9</ele>
        <time>2020-11-11T15:44:39Z</time>
      </trkpt>
      <trkpt lat="28.3489420" lon="-16.5210630">
        <ele>1287.9</ele>
        <time>2020-11-11T15:44:40Z</time>
      </trkpt>
      <trkpt lat="28.3489420" lon="-16.5210630">
        <ele>1287.9</ele>
        <time>2020-11-11T15:44:41Z</time>
      </trkpt>
      <trkpt lat="28.3489580" lon="-16.5210050">
        <ele>1287.9</ele>
        <time>2020-11-11T15:44:42Z</time>
      </trkpt>
      <trkpt lat="28.3489680" lon="-16.5209750">
        <ele>1287.9</ele>
        <time>2020-11-11T15:44:43Z</time>
      </trkpt>
      <trkpt lat="28.3489680" lon="-16.5209750">
        <ele>1287.9</ele>
        <time>2020-11-11T15:44:44Z</time>
      </trkpt>
      <trkpt lat="28.3489900" lon="-16.5209180">
        <ele>1287.9</ele>
        <time>2020-11-11T15:44:45Z</time>
      </trkpt>
      <trkpt lat="28.3490000" lon="-16.5208870">
        <ele>1288.9</ele>
        <time>2020-11-11T15:44:46Z</time>
      </trkpt>
      <trkpt lat="28.3490000" lon="-16.5208870">
        <ele>1288.9</ele>
        <time>2020-11-11T15:44:47Z</time>
      </trkpt>
      <trkpt lat="28.3490170" lon="-16.5208200">
        <ele>1288.9</ele>
        <time>2020-11-11T15:44:48Z</time>
      </trkpt>
      <trkpt lat="28.3490170" lon="-16.5208200">
        <ele>1288.9</ele>
        <time>2020-11-11T15:44:49Z</time>
      </trkpt>
      <trkpt lat="28.3490300" lon="-16.5207520">
        <ele>1288.9</ele>
        <time>2020-11-11T15:44:50Z</time>
      </trkpt>
      <trkpt lat="28.3490300" lon="-16.5207520">
        <ele>1289.9</ele>
        <time>2020-11-11T15:44:51Z</time>
      </trkpt>
      <trkpt lat="28.3490480" lon="-16.5206870">
        <ele>1289.9</ele>
        <time>2020-11-11T15:44:52Z</time>
      </trkpt>
      <trkpt lat="28.3490600" lon="-16.5206550">
        <ele>1289.9</ele>
        <time>2020-11-11T15:44:53Z</time>
      </trkpt>
      <trkpt lat="28.3490600" lon="-16.5206550">
        <ele>1289.9</ele>
        <time>2020-11-11T15:44:54Z</time>
      </trkpt>
      <trkpt lat="28.3490830" lon="-16.5205880">
        <ele>1289.9</ele>
        <time>2020-11-11T15:44:55Z</time>
      </trkpt>
      <trkpt lat="28.3490830" lon="-16.5205880">
        <ele>1289.9</ele>
        <time>2020-11-11T15:44:56Z</time>
      </trkpt>
      <trkpt lat="28.3490970" lon="-16.5205200">
        <ele>1290.9</ele>
        <time>2020-11-11T15:44:57Z</time>
      </trkpt>
      <trkpt lat="28.3490970" lon="-16.5205200">
        <ele>1290.9</ele>
        <time>2020-11-11T15:44:58Z</time>
      </trkpt>
      <trkpt lat="28.3491080" lon="-16.5204520">
        <ele>1290.9</ele>
        <time>2020-11-11T15:44:59Z</time>
      </trkpt>
      <trkpt lat="28.3491080" lon="-16.5204520">
        <ele>1290.9</ele>
        <time>2020-11-11T15:45:00Z</time>
      </trkpt>
      <trkpt lat="28.3491220" lon="-16.5203850">
        <ele>1290.9</ele>
        <time>2020-11-11T15:45:01Z</time>
      </trkpt>
      <trkpt lat="28.3491220" lon="-16.5203850">
        <ele>1290.9</ele>
        <time>2020-11-11T15:45:02Z</time>
      </trkpt>
      <trkpt lat="28.3491300" lon="-16.5203220">
        <ele>1291.9</ele>
        <time>2020-11-11T15:45:03Z</time>
      </trkpt>
      <trkpt lat="28.3491350" lon="-16.5202930">
        <ele>1291.9</ele>
        <time>2020-11-11T15:45:04Z</time>
      </trkpt>
      <trkpt lat="28.3491350" lon="-16.5202930">
        <ele>1291.9</ele>
        <time>2020-11-11T15:45:05Z</time>
      </trkpt>
      <trkpt lat="28.3491430" lon="-16.5202320">
        <ele>1291.9</ele>
        <time>2020-11-11T15:45:06Z</time>
      </trkpt>
      <trkpt lat="28.3491450" lon="-16.5202020">
        <ele>1291.9</ele>
        <time>2020-11-11T15:45:07Z</time>
      </trkpt>
      <trkpt lat="28.3491450" lon="-16.5202020">
        <ele>1291.9</ele>
        <time>2020-11-11T15:45:08Z</time>
      </trkpt>
      <trkpt lat="28.3491430" lon="-16.5201450">
        <ele>1292.9</ele>
        <time>2020-11-11T15:45:09Z</time>
      </trkpt>
      <trkpt lat="28.3491430" lon="-16.5201450">
        <ele>1292.9</ele>
        <time>2020-11-11T15:45:10Z</time>
      </trkpt>
      <trkpt lat="28.3491380" lon="-16.5200880">
        <ele>1292.9</ele>
        <time>2020-11-11T15:45:11Z</time>
      </trkpt>
      <trkpt lat="28.3491320" lon="-16.5200650">
        <ele>1292.9</ele>
        <time>2020-11-11T15:45:12Z</time>
      </trkpt>
      <trkpt lat="28.3491320" lon="-16.5200650">
        <ele>1292.9</ele>
        <time>2020-11-11T15:45:13Z</time>
      </trkpt>
      <trkpt lat="28.3491170" lon="-16.5200120">
        <ele>1292.9</ele>
        <time>2020-11-11T15:45:14Z</time>
      </trkpt>
      <trkpt lat="28.3491170" lon="-16.5200120">
        <ele>1292.9</ele>
        <time>2020-11-11T15:45:15Z</time>
      </trkpt>
      <trkpt lat="28.3491030" lon="-16.5199570">
        <ele>1293.9</ele>
        <time>2020-11-11T15:45:16Z</time>
      </trkpt>
      <trkpt lat="28.3491030" lon="-16.5199570">
        <ele>1293.9</ele>
        <time>2020-11-11T15:45:17Z</time>
      </trkpt>
      <trkpt lat="28.3490870" lon="-16.5199050">
        <ele>1293.9</ele>
        <time>2020-11-11T15:45:18Z</time>
      </trkpt>
      <trkpt lat="28.3490870" lon="-16.5199050">
        <ele>1293.9</ele>
        <time>2020-11-11T15:45:19Z</time>
      </trkpt>
      <trkpt lat="28.3490680" lon="-16.5198520">
        <ele>1294.9</ele>
        <time>2020-11-11T15:45:20Z</time>
      </trkpt>
      <trkpt lat="28.3490680" lon="-16.5198520">
        <ele>1294.9</ele>
        <time>2020-11-11T15:45:21Z</time>
      </trkpt>
      <trkpt lat="28.3490550" lon="-16.5198020">
        <ele>1294.9</ele>
        <time>2020-11-11T15:45:22Z</time>
      </trkpt>
      <trkpt lat="28.3490550" lon="-16.5198020">
        <ele>1294.9</ele>
        <time>2020-11-11T15:45:23Z</time>
      </trkpt>
      <trkpt lat="28.3490430" lon="-16.5197530">
        <ele>1294.9</ele>
        <time>2020-11-11T15:45:24Z</time>
      </trkpt>
      <trkpt lat="28.3490400" lon="-16.5197300">
        <ele>1294.9</ele>
        <time>2020-11-11T15:45:25Z</time>
      </trkpt>
      <trkpt lat="28.3490400" lon="-16.5197300">
        <ele>1294.9</ele>
        <time>2020-11-11T15:45:26Z</time>
      </trkpt>
      <trkpt lat="28.3490380" lon="-16.5196820">
        <ele>1294.9</ele>
        <time>2020-11-11T15:45:27Z</time>
      </trkpt>
      <trkpt lat="28.3490350" lon="-16.5196550">
        <ele>1294.9</ele>
        <time>2020-11-11T15:45:28Z</time>
      </trkpt>
      <trkpt lat="28.3490350" lon="-16.5196550">
        <ele>1294.9</ele>
        <time>2020-11-11T15:45:29Z</time>
      </trkpt>
      <trkpt lat="28.3490330" lon="-16.5196070">
        <ele>1294.9</ele>
        <time>2020-11-11T15:45:30Z</time>
      </trkpt>
      <trkpt lat="28.3490330" lon="-16.5196070">
        <ele>1295.9</ele>
        <time>2020-11-11T15:45:31Z</time>
      </trkpt>
      <trkpt lat="28.3490320" lon="-16.5195600">
        <ele>1295.9</ele>
        <time>2020-11-11T15:45:32Z</time>
      </trkpt>
      <trkpt lat="28.3490330" lon="-16.5195370">
        <ele>1295.9</ele>
        <time>2020-11-11T15:45:33Z</time>
      </trkpt>
      <trkpt lat="28.3490330" lon="-16.5195370">
        <ele>1295.9</ele>
        <time>2020-11-11T15:45:34Z</time>
      </trkpt>
      <trkpt lat="28.3490350" lon="-16.5194880">
        <ele>1295.9</ele>
        <time>2020-11-11T15:45:35Z</time>
      </trkpt>
      <trkpt lat="28.3490350" lon="-16.5194880">
        <ele>1295.9</ele>
        <time>2020-11-11T15:45:36Z</time>
      </trkpt>
      <trkpt lat="28.3490320" lon="-16.5194400">
        <ele>1295.9</ele>
        <time>2020-11-11T15:45:37Z</time>
      </trkpt>
      <trkpt lat="28.3490320" lon="-16.5194400">
        <ele>1296.9</ele>
        <time>2020-11-11T15:45:38Z</time>
      </trkpt>
      <trkpt lat="28.3490300" lon="-16.5193920">
        <ele>1296.9</ele>
        <time>2020-11-11T15:45:39Z</time>
      </trkpt>
      <trkpt lat="28.3490300" lon="-16.5193920">
        <ele>1296.9</ele>
        <time>2020-11-11T15:45:40Z</time>
      </trkpt>
      <trkpt lat="28.3490330" lon="-16.5193430">
        <ele>1296.9</ele>
        <time>2020-11-11T15:45:41Z</time>
      </trkpt>
      <trkpt lat="28.3490330" lon="-16.5193430">
        <ele>1296.9</ele>
        <time>2020-11-11T15:45:42Z</time>
      </trkpt>
      <trkpt lat="28.3490370" lon="-16.5192980">
        <ele>1296.9</ele>
        <time>2020-11-11T15:45:43Z</time>
      </trkpt>
      <trkpt lat="28.3490370" lon="-16.5192980">
        <ele>1296.9</ele>
        <time>2020-11-11T15:45:44Z</time>
      </trkpt>
      <trkpt lat="28.3490430" lon="-16.5192520">
        <ele>1296.9</ele>
        <time>2020-11-11T15:45:45Z</time>
      </trkpt>
      <trkpt lat="28.3490430" lon="-16.5192520">
        <ele>1297.9</ele>
        <time>2020-11-11T15:45:46Z</time>
      </trkpt>
      <trkpt lat="28.3490470" lon="-16.5192050">
        <ele>1297.9</ele>
        <time>2020-11-11T15:45:47Z</time>
      </trkpt>
      <trkpt lat="28.3490470" lon="-16.5192050">
        <ele>1297.9</ele>
        <time>2020-11-11T15:45:48Z</time>
      </trkpt>
      <trkpt lat="28.3490470" lon="-16.5191620">
        <ele>1297.9</ele>
        <time>2020-11-11T15:45:49Z</time>
      </trkpt>
      <trkpt lat="28.3490470" lon="-16.5191620">
        <ele>1297.9</ele>
        <time>2020-11-11T15:45:50Z</time>
      </trkpt>
      <trkpt lat="28.3490420" lon="-16.5191220">
        <ele>1297.9</ele>
        <time>2020-11-11T15:45:51Z</time>
      </trkpt>
      <trkpt lat="28.3490450" lon="-16.5191030">
        <ele>1298.9</ele>
        <time>2020-11-11T15:45:52Z</time>
      </trkpt>
      <trkpt lat="28.3490450" lon="-16.5191030">
        <ele>1298.9</ele>
        <time>2020-11-11T15:45:53Z</time>
      </trkpt>
      <trkpt lat="28.3490630" lon="-16.5190680">
        <ele>1298.9</ele>
        <time>2020-11-11T15:45:54Z</time>
      </trkpt>
      <trkpt lat="28.3490700" lon="-16.5190450">
        <ele>1298.9</ele>
        <time>2020-11-11T15:45:55Z</time>
      </trkpt>
      <trkpt lat="28.3490700" lon="-16.5190450">
        <ele>1298.9</ele>
        <time>2020-11-11T15:45:56Z</time>
      </trkpt>
      <trkpt lat="28.3490800" lon="-16.5190020">
        <ele>1298.9</ele>
        <time>2020-11-11T15:45:57Z</time>
      </trkpt>
      <trkpt lat="28.3490800" lon="-16.5190020">
        <ele>1299.9</ele>
        <time>2020-11-11T15:45:58Z</time>
      </trkpt>
      <trkpt lat="28.3490820" lon="-16.5189620">
        <ele>1299.9</ele>
        <time>2020-11-11T15:45:59Z</time>
      </trkpt>
      <trkpt lat="28.3490820" lon="-16.5189620">
        <ele>1299.9</ele>
        <time>2020-11-11T15:46:00Z</time>
      </trkpt>
      <trkpt lat="28.3490830" lon="-16.5189220">
        <ele>1299.9</ele>
        <time>2020-11-11T15:46:01Z</time>
      </trkpt>
      <trkpt lat="28.3490830" lon="-16.5189220">
        <ele>1299.9</ele>
        <time>2020-11-11T15:46:02Z</time>
      </trkpt>
      <trkpt lat="28.3490920" lon="-16.5188750">
        <ele>1300.9</ele>
        <time>2020-11-11T15:46:03Z</time>
      </trkpt>
      <trkpt lat="28.3490920" lon="-16.5188750">
        <ele>1300.9</ele>
        <time>2020-11-11T15:46:04Z</time>
      </trkpt>
      <trkpt lat="28.3491000" lon="-16.5188300">
        <ele>1300.9</ele>
        <time>2020-11-11T15:46:05Z</time>
      </trkpt>
      <trkpt lat="28.3491000" lon="-16.5188300">
        <ele>1300.9</ele>
        <time>2020-11-11T15:46:06Z</time>
      </trkpt>
      <trkpt lat="28.3491070" lon="-16.5187850">
        <ele>1300.9</ele>
        <time>2020-11-11T15:46:07Z</time>
      </trkpt>
      <trkpt lat="28.3491070" lon="-16.5187850">
        <ele>1300.9</ele>
        <time>2020-11-11T15:46:08Z</time>
      </trkpt>
      <trkpt lat="28.3491180" lon="-16.5187400">
        <ele>1301.9</ele>
        <time>2020-11-11T15:46:09Z</time>
      </trkpt>
      <trkpt lat="28.3491220" lon="-16.5187180">
        <ele>1301.9</ele>
        <time>2020-11-11T15:46:10Z</time>
      </trkpt>
      <trkpt lat="28.3491220" lon="-16.5187180">
        <ele>1301.9</ele>
        <time>2020-11-11T15:46:11Z</time>
      </trkpt>
      <trkpt lat="28.3491250" lon="-16.5186770">
        <ele>1301.9</ele>
        <time>2020-11-11T15:46:12Z</time>
      </trkpt>
      <trkpt lat="28.3491300" lon="-16.5186570">
        <ele>1301.9</ele>
        <time>2020-11-11T15:46:13Z</time>
      </trkpt>
      <trkpt lat="28.3491300" lon="-16.5186570">
        <ele>1301.9</ele>
        <time>2020-11-11T15:46:14Z</time>
      </trkpt>
      <trkpt lat="28.3491430" lon="-16.5186220">
        <ele>1301.9</ele>
        <time>2020-11-11T15:46:15Z</time>
      </trkpt>
      <trkpt lat="28.3491430" lon="-16.5186220">
        <ele>1301.9</ele>
        <time>2020-11-11T15:46:16Z</time>
      </trkpt>
      <trkpt lat="28.3491580" lon="-16.5185830">
        <ele>1301.9</ele>
        <time>2020-11-11T15:46:17Z</time>
      </trkpt>
      <trkpt lat="28.3491620" lon="-16.5185620">
        <ele>1301.9</ele>
        <time>2020-11-11T15:46:18Z</time>
      </trkpt>
      <trkpt lat="28.3491620" lon="-16.5185620">
        <ele>1301.9</ele>
        <time>2020-11-11T15:46:19Z</time>
      </trkpt>
      <trkpt lat="28.3491720" lon="-16.5185230">
        <ele>1301.9</ele>
        <time>2020-11-11T15:46:20Z</time>
      </trkpt>
      <trkpt lat="28.3491720" lon="-16.5185230">
        <ele>1301.9</ele>
        <time>2020-11-11T15:46:21Z</time>
      </trkpt>
      <trkpt lat="28.3491670" lon="-16.5184830">
        <ele>1302.9</ele>
        <time>2020-11-11T15:46:22Z</time>
      </trkpt>
      <trkpt lat="28.3491670" lon="-16.5184830">
        <ele>1302.9</ele>
        <time>2020-11-11T15:46:23Z</time>
      </trkpt>
      <trkpt lat="28.3491770" lon="-16.5184450">
        <ele>1302.9</ele>
        <time>2020-11-11T15:46:24Z</time>
      </trkpt>
      <trkpt lat="28.3491770" lon="-16.5184450">
        <ele>1302.9</ele>
        <time>2020-11-11T15:46:25Z</time>
      </trkpt>
      <trkpt lat="28.3491950" lon="-16.5184130">
        <ele>1302.9</ele>
        <time>2020-11-11T15:46:26Z</time>
      </trkpt>
      <trkpt lat="28.3491950" lon="-16.5184130">
        <ele>1302.9</ele>
        <time>2020-11-11T15:46:27Z</time>
      </trkpt>
      <trkpt lat="28.3492070" lon="-16.5183750">
        <ele>1302.9</ele>
        <time>2020-11-11T15:46:28Z</time>
      </trkpt>
      <trkpt lat="28.3492100" lon="-16.5183550">
        <ele>1302.9</ele>
        <time>2020-11-11T15:46:29Z</time>
      </trkpt>
      <trkpt lat="28.3492100" lon="-16.5183550">
        <ele>1303.9</ele>
        <time>2020-11-11T15:46:30Z</time>
      </trkpt>
      <trkpt lat="28.3492130" lon="-16.5183150">
        <ele>1303.9</ele>
        <time>2020-11-11T15:46:31Z</time>
      </trkpt>
      <trkpt lat="28.3492130" lon="-16.5183150">
        <ele>1303.9</ele>
        <time>2020-11-11T15:46:32Z</time>
      </trkpt>
      <trkpt lat="28.3492180" lon="-16.5182750">
        <ele>1303.9</ele>
        <time>2020-11-11T15:46:33Z</time>
      </trkpt>
      <trkpt lat="28.3492220" lon="-16.5182550">
        <ele>1304.9</ele>
        <time>2020-11-11T15:46:34Z</time>
      </trkpt>
      <trkpt lat="28.3492220" lon="-16.5182550">
        <ele>1304.9</ele>
        <time>2020-11-11T15:46:35Z</time>
      </trkpt>
      <trkpt lat="28.3492230" lon="-16.5182120">
        <ele>1304.9</ele>
        <time>2020-11-11T15:46:36Z</time>
      </trkpt>
      <trkpt lat="28.3492230" lon="-16.5181900">
        <ele>1304.9</ele>
        <time>2020-11-11T15:46:37Z</time>
      </trkpt>
      <trkpt lat="28.3492230" lon="-16.5181680">
        <ele>1304.9</ele>
        <time>2020-11-11T15:46:38Z</time>
      </trkpt>
      <trkpt lat="28.3492230" lon="-16.5181680">
        <ele>1305.9</ele>
        <time>2020-11-11T15:46:39Z</time>
      </trkpt>
      <trkpt lat="28.3492280" lon="-16.5181230">
        <ele>1305.9</ele>
        <time>2020-11-11T15:46:40Z</time>
      </trkpt>
      <trkpt lat="28.3492280" lon="-16.5181020">
        <ele>1305.9</ele>
        <time>2020-11-11T15:46:41Z</time>
      </trkpt>
      <trkpt lat="28.3492280" lon="-16.5181020">
        <ele>1305.9</ele>
        <time>2020-11-11T15:46:42Z</time>
      </trkpt>
      <trkpt lat="28.3492250" lon="-16.5180580">
        <ele>1305.9</ele>
        <time>2020-11-11T15:46:43Z</time>
      </trkpt>
      <trkpt lat="28.3492230" lon="-16.5180370">
        <ele>1305.9</ele>
        <time>2020-11-11T15:46:44Z</time>
      </trkpt>
      <trkpt lat="28.3492230" lon="-16.5180370">
        <ele>1305.9</ele>
        <time>2020-11-11T15:46:45Z</time>
      </trkpt>
      <trkpt lat="28.3492150" lon="-16.5179950">
        <ele>1305.9</ele>
        <time>2020-11-11T15:46:46Z</time>
      </trkpt>
      <trkpt lat="28.3492120" lon="-16.5179720">
        <ele>1305.9</ele>
        <time>2020-11-11T15:46:47Z</time>
      </trkpt>
      <trkpt lat="28.3492120" lon="-16.5179720">
        <ele>1305.9</ele>
        <time>2020-11-11T15:46:48Z</time>
      </trkpt>
      <trkpt lat="28.3492050" lon="-16.5179270">
        <ele>1306.9</ele>
        <time>2020-11-11T15:46:49Z</time>
      </trkpt>
      <trkpt lat="28.3492050" lon="-16.5179270">
        <ele>1306.9</ele>
        <time>2020-11-11T15:46:50Z</time>
      </trkpt>
      <trkpt lat="28.3491950" lon="-16.5178820">
        <ele>1306.9</ele>
        <time>2020-11-11T15:46:51Z</time>
      </trkpt>
      <trkpt lat="28.3491950" lon="-16.5178820">
        <ele>1306.9</ele>
        <time>2020-11-11T15:46:52Z</time>
      </trkpt>
      <trkpt lat="28.3491820" lon="-16.5178400">
        <ele>1306.9</ele>
        <time>2020-11-11T15:46:53Z</time>
      </trkpt>
      <trkpt lat="28.3491730" lon="-16.5178200">
        <ele>1306.9</ele>
        <time>2020-11-11T15:46:54Z</time>
      </trkpt>
      <trkpt lat="28.3491730" lon="-16.5178200">
        <ele>1306.9</ele>
        <time>2020-11-11T15:46:55Z</time>
      </trkpt>
      <trkpt lat="28.3491530" lon="-16.5177770">
        <ele>1306.9</ele>
        <time>2020-11-11T15:46:56Z</time>
      </trkpt>
      <trkpt lat="28.3491470" lon="-16.5177530">
        <ele>1306.9</ele>
        <time>2020-11-11T15:46:57Z</time>
      </trkpt>
      <trkpt lat="28.3491470" lon="-16.5177530">
        <ele>1306.9</ele>
        <time>2020-11-11T15:46:58Z</time>
      </trkpt>
      <trkpt lat="28.3491370" lon="-16.5177080">
        <ele>1306.9</ele>
        <time>2020-11-11T15:46:59Z</time>
      </trkpt>
      <trkpt lat="28.3491300" lon="-16.5176870">
        <ele>1306.9</ele>
        <time>2020-11-11T15:47:00Z</time>
      </trkpt>
      <trkpt lat="28.3491220" lon="-16.5176650">
        <ele>1306.9</ele>
        <time>2020-11-11T15:47:01Z</time>
      </trkpt>
      <trkpt lat="28.3491220" lon="-16.5176650">
        <ele>1306.9</ele>
        <time>2020-11-11T15:47:02Z</time>
      </trkpt>
      <trkpt lat="28.3491080" lon="-16.5176200">
        <ele>1306.9</ele>
        <time>2020-11-11T15:47:03Z</time>
      </trkpt>
      <trkpt lat="28.3491080" lon="-16.5176200">
        <ele>1306.9</ele>
        <time>2020-11-11T15:47:04Z</time>
      </trkpt>
      <trkpt lat="28.3490950" lon="-16.5175730">
        <ele>1306.9</ele>
        <time>2020-11-11T15:47:05Z</time>
      </trkpt>
      <trkpt lat="28.3490950" lon="-16.5175730">
        <ele>1307.9</ele>
        <time>2020-11-11T15:47:06Z</time>
      </trkpt>
      <trkpt lat="28.3490820" lon="-16.5175270">
        <ele>1307.9</ele>
        <time>2020-11-11T15:47:07Z</time>
      </trkpt>
      <trkpt lat="28.3490750" lon="-16.5175030">
        <ele>1307.9</ele>
        <time>2020-11-11T15:47:08Z</time>
      </trkpt>
      <trkpt lat="28.3490750" lon="-16.5175030">
        <ele>1307.9</ele>
        <time>2020-11-11T15:47:09Z</time>
      </trkpt>
      <trkpt lat="28.3490600" lon="-16.5174620">
        <ele>1307.9</ele>
        <time>2020-11-11T15:47:10Z</time>
      </trkpt>
      <trkpt lat="28.3490600" lon="-16.5174620">
        <ele>1307.9</ele>
        <time>2020-11-11T15:47:11Z</time>
      </trkpt>
      <trkpt lat="28.3490520" lon="-16.5174170">
        <ele>1307.9</ele>
        <time>2020-11-11T15:47:12Z</time>
      </trkpt>
      <trkpt lat="28.3490520" lon="-16.5174170">
        <ele>1308.9</ele>
        <time>2020-11-11T15:47:13Z</time>
      </trkpt>
      <trkpt lat="28.3490450" lon="-16.5173700">
        <ele>1308.9</ele>
        <time>2020-11-11T15:47:14Z</time>
      </trkpt>
      <trkpt lat="28.3490450" lon="-16.5173700">
        <ele>1308.9</ele>
        <time>2020-11-11T15:47:15Z</time>
      </trkpt>
      <trkpt lat="28.3490350" lon="-16.5173230">
        <ele>1308.9</ele>
        <time>2020-11-11T15:47:16Z</time>
      </trkpt>
      <trkpt lat="28.3490350" lon="-16.5173230">
        <ele>1308.9</ele>
        <time>2020-11-11T15:47:17Z</time>
      </trkpt>
      <trkpt lat="28.3490230" lon="-16.5172800">
        <ele>1308.9</ele>
        <time>2020-11-11T15:47:18Z</time>
      </trkpt>
      <trkpt lat="28.3490230" lon="-16.5172800">
        <ele>1308.9</ele>
        <time>2020-11-11T15:47:19Z</time>
      </trkpt>
      <trkpt lat="28.3490150" lon="-16.5172320">
        <ele>1309.9</ele>
        <time>2020-11-11T15:47:20Z</time>
      </trkpt>
      <trkpt lat="28.3490150" lon="-16.5172320">
        <ele>1309.9</ele>
        <time>2020-11-11T15:47:21Z</time>
      </trkpt>
      <trkpt lat="28.3490130" lon="-16.5171830">
        <ele>1309.9</ele>
        <time>2020-11-11T15:47:22Z</time>
      </trkpt>
      <trkpt lat="28.3490130" lon="-16.5171830">
        <ele>1309.9</ele>
        <time>2020-11-11T15:47:23Z</time>
      </trkpt>
      <trkpt lat="28.3490200" lon="-16.5171320">
        <ele>1309.9</ele>
        <time>2020-11-11T15:47:24Z</time>
      </trkpt>
      <trkpt lat="28.3490200" lon="-16.5171320">
        <ele>1309.9</ele>
        <time>2020-11-11T15:47:25Z</time>
      </trkpt>
      <trkpt lat="28.3490220" lon="-16.5170730">
        <ele>1309.9</ele>
        <time>2020-11-11T15:47:26Z</time>
      </trkpt>
      <trkpt lat="28.3490220" lon="-16.5170730">
        <ele>1309.9</ele>
        <time>2020-11-11T15:47:27Z</time>
      </trkpt>
      <trkpt lat="28.3490270" lon="-16.5170180">
        <ele>1309.9</ele>
        <time>2020-11-11T15:47:28Z</time>
      </trkpt>
      <trkpt lat="28.3490270" lon="-16.5170180">
        <ele>1309.9</ele>
        <time>2020-11-11T15:47:29Z</time>
      </trkpt>
      <trkpt lat="28.3490350" lon="-16.5169670">
        <ele>1309.9</ele>
        <time>2020-11-11T15:47:30Z</time>
      </trkpt>
      <trkpt lat="28.3490350" lon="-16.5169670">
        <ele>1309.9</ele>
        <time>2020-11-11T15:47:31Z</time>
      </trkpt>
      <trkpt lat="28.3490430" lon="-16.5169150">
        <ele>1309.9</ele>
        <time>2020-11-11T15:47:32Z</time>
      </trkpt>
      <trkpt lat="28.3490430" lon="-16.5169150">
        <ele>1310.9</ele>
        <time>2020-11-11T15:47:33Z</time>
      </trkpt>
      <trkpt lat="28.3490520" lon="-16.5168620">
        <ele>1310.9</ele>
        <time>2020-11-11T15:47:34Z</time>
      </trkpt>
      <trkpt lat="28.3490520" lon="-16.5168620">
        <ele>1310.9</ele>
        <time>2020-11-11T15:47:35Z</time>
      </trkpt>
      <trkpt lat="28.3490630" lon="-16.5168100">
        <ele>1310.9</ele>
        <time>2020-11-11T15:47:36Z</time>
      </trkpt>
      <trkpt lat="28.3490630" lon="-16.5168100">
        <ele>1310.9</ele>
        <time>2020-11-11T15:47:37Z</time>
      </trkpt>
      <trkpt lat="28.3490850" lon="-16.5167580">
        <ele>1310.9</ele>
        <time>2020-11-11T15:47:38Z</time>
      </trkpt>
      <trkpt lat="28.3490850" lon="-16.5167580">
        <ele>1310.9</ele>
        <time>2020-11-11T15:47:39Z</time>
      </trkpt>
      <trkpt lat="28.3491080" lon="-16.5167100">
        <ele>1310.9</ele>
        <time>2020-11-11T15:47:40Z</time>
      </trkpt>
      <trkpt lat="28.3491080" lon="-16.5167100">
        <ele>1310.9</ele>
        <time>2020-11-11T15:47:41Z</time>
      </trkpt>
      <trkpt lat="28.3491320" lon="-16.5166650">
        <ele>1310.9</ele>
        <time>2020-11-11T15:47:42Z</time>
      </trkpt>
      <trkpt lat="28.3491430" lon="-16.5166420">
        <ele>1310.9</ele>
        <time>2020-11-11T15:47:43Z</time>
      </trkpt>
      <trkpt lat="28.3491430" lon="-16.5166420">
        <ele>1310.9</ele>
        <time>2020-11-11T15:47:44Z</time>
      </trkpt>
      <trkpt lat="28.3491680" lon="-16.5165930">
        <ele>1311.9</ele>
        <time>2020-11-11T15:47:45Z</time>
      </trkpt>
      <trkpt lat="28.3491680" lon="-16.5165930">
        <ele>1311.9</ele>
        <time>2020-11-11T15:47:46Z</time>
      </trkpt>
      <trkpt lat="28.3491900" lon="-16.5165450">
        <ele>1311.9</ele>
        <time>2020-11-11T15:47:47Z</time>
      </trkpt>
      <trkpt lat="28.3492000" lon="-16.5165200">
        <ele>1311.9</ele>
        <time>2020-11-11T15:47:48Z</time>
      </trkpt>
      <trkpt lat="28.3492000" lon="-16.5165200">
        <ele>1311.9</ele>
        <time>2020-11-11T15:47:49Z</time>
      </trkpt>
      <trkpt lat="28.3492220" lon="-16.5164680">
        <ele>1311.9</ele>
        <time>2020-11-11T15:47:50Z</time>
      </trkpt>
      <trkpt lat="28.3492220" lon="-16.5164680">
        <ele>1311.9</ele>
        <time>2020-11-11T15:47:51Z</time>
      </trkpt>
      <trkpt lat="28.3492430" lon="-16.5164180">
        <ele>1312.9</ele>
        <time>2020-11-11T15:47:52Z</time>
      </trkpt>
      <trkpt lat="28.3492520" lon="-16.5163920">
        <ele>1312.9</ele>
        <time>2020-11-11T15:47:53Z</time>
      </trkpt>
      <trkpt lat="28.3492520" lon="-16.5163920">
        <ele>1312.9</ele>
        <time>2020-11-11T15:47:54Z</time>
      </trkpt>
      <trkpt lat="28.3492620" lon="-16.5163370">
        <ele>1312.9</ele>
        <time>2020-11-11T15:47:55Z</time>
      </trkpt>
      <trkpt lat="28.3492670" lon="-16.5163100">
        <ele>1312.9</ele>
        <time>2020-11-11T15:47:56Z</time>
      </trkpt>
      <trkpt lat="28.3492670" lon="-16.5163100">
        <ele>1312.9</ele>
        <time>2020-11-11T15:47:57Z</time>
      </trkpt>
      <trkpt lat="28.3492700" lon="-16.5162580">
        <ele>1312.9</ele>
        <time>2020-11-11T15:47:58Z</time>
      </trkpt>
      <trkpt lat="28.3492700" lon="-16.5162580">
        <ele>1312.9</ele>
        <time>2020-11-11T15:47:59Z</time>
      </trkpt>
      <trkpt lat="28.3492800" lon="-16.5162050">
        <ele>1313.9</ele>
        <time>2020-11-11T15:48:00Z</time>
      </trkpt>
      <trkpt lat="28.3492900" lon="-16.5161800">
        <ele>1313.9</ele>
        <time>2020-11-11T15:48:01Z</time>
      </trkpt>
      <trkpt lat="28.3492900" lon="-16.5161800">
        <ele>1313.9</ele>
        <time>2020-11-11T15:48:02Z</time>
      </trkpt>
      <trkpt lat="28.3493100" lon="-16.5161270">
        <ele>1313.9</ele>
        <time>2020-11-11T15:48:03Z</time>
      </trkpt>
      <trkpt lat="28.3493100" lon="-16.5161270">
        <ele>1313.9</ele>
        <time>2020-11-11T15:48:04Z</time>
      </trkpt>
      <trkpt lat="28.3493370" lon="-16.5160780">
        <ele>1313.9</ele>
        <time>2020-11-11T15:48:05Z</time>
      </trkpt>
      <trkpt lat="28.3493370" lon="-16.5160780">
        <ele>1314.9</ele>
        <time>2020-11-11T15:48:06Z</time>
      </trkpt>
      <trkpt lat="28.3493770" lon="-16.5160270">
        <ele>1314.9</ele>
        <time>2020-11-11T15:48:07Z</time>
      </trkpt>
      <trkpt lat="28.3493770" lon="-16.5160270">
        <ele>1314.9</ele>
        <time>2020-11-11T15:48:08Z</time>
      </trkpt>
      <trkpt lat="28.3494220" lon="-16.5159770">
        <ele>1314.9</ele>
        <time>2020-11-11T15:48:09Z</time>
      </trkpt>
      <trkpt lat="28.3494220" lon="-16.5159770">
        <ele>1314.9</ele>
        <time>2020-11-11T15:48:10Z</time>
      </trkpt>
      <trkpt lat="28.3494630" lon="-16.5159250">
        <ele>1314.9</ele>
        <time>2020-11-11T15:48:11Z</time>
      </trkpt>
      <trkpt lat="28.3494870" lon="-16.5159020">
        <ele>1314.9</ele>
        <time>2020-11-11T15:48:12Z</time>
      </trkpt>
      <trkpt lat="28.3494870" lon="-16.5159020">
        <ele>1314.9</ele>
        <time>2020-11-11T15:48:13Z</time>
      </trkpt>
      <trkpt lat="28.3495480" lon="-16.5158570">
        <ele>1314.9</ele>
        <time>2020-11-11T15:48:14Z</time>
      </trkpt>
      <trkpt lat="28.3495480" lon="-16.5158570">
        <ele>1314.9</ele>
        <time>2020-11-11T15:48:15Z</time>
      </trkpt>
      <trkpt lat="28.3496080" lon="-16.5158200">
        <ele>1314.9</ele>
        <time>2020-11-11T15:48:16Z</time>
      </trkpt>
      <trkpt lat="28.3496080" lon="-16.5158200">
        <ele>1314.9</ele>
        <time>2020-11-11T15:48:17Z</time>
      </trkpt>
      <trkpt lat="28.3496720" lon="-16.5157830">
        <ele>1314.9</ele>
        <time>2020-11-11T15:48:18Z</time>
      </trkpt>
      <trkpt lat="28.3497030" lon="-16.5157670">
        <ele>1314.9</ele>
        <time>2020-11-11T15:48:19Z</time>
      </trkpt>
      <trkpt lat="28.3497030" lon="-16.5157670">
        <ele>1314.9</ele>
        <time>2020-11-11T15:48:20Z</time>
      </trkpt>
      <trkpt lat="28.3497650" lon="-16.5157300">
        <ele>1314.9</ele>
        <time>2020-11-11T15:48:21Z</time>
      </trkpt>
      <trkpt lat="28.3497650" lon="-16.5157300">
        <ele>1315.9</ele>
        <time>2020-11-11T15:48:22Z</time>
      </trkpt>
      <trkpt lat="28.3498230" lon="-16.5156870">
        <ele>1315.9</ele>
        <time>2020-11-11T15:48:23Z</time>
      </trkpt>
      <trkpt lat="28.3498230" lon="-16.5156870">
        <ele>1315.9</ele>
        <time>2020-11-11T15:48:24Z</time>
      </trkpt>
      <trkpt lat="28.3498920" lon="-16.5156430">
        <ele>1315.9</ele>
        <time>2020-11-11T15:48:25Z</time>
      </trkpt>
      <trkpt lat="28.3499270" lon="-16.5156180">
        <ele>1315.9</ele>
        <time>2020-11-11T15:48:26Z</time>
      </trkpt>
      <trkpt lat="28.3499270" lon="-16.5156180">
        <ele>1315.9</ele>
        <time>2020-11-11T15:48:27Z</time>
      </trkpt>
      <trkpt lat="28.3499930" lon="-16.5155680">
        <ele>1315.9</ele>
        <time>2020-11-11T15:48:28Z</time>
      </trkpt>
      <trkpt lat="28.3499930" lon="-16.5155680">
        <ele>1315.9</ele>
        <time>2020-11-11T15:48:29Z</time>
      </trkpt>
      <trkpt lat="28.3500470" lon="-16.5155070">
        <ele>1315.9</ele>
        <time>2020-11-11T15:48:30Z</time>
      </trkpt>
      <trkpt lat="28.3500470" lon="-16.5155070">
        <ele>1315.9</ele>
        <time>2020-11-11T15:48:31Z</time>
      </trkpt>
      <trkpt lat="28.3500770" lon="-16.5154230">
        <ele>1316.9</ele>
        <time>2020-11-11T15:48:32Z</time>
      </trkpt>
      <trkpt lat="28.3500820" lon="-16.5153780">
        <ele>1316.9</ele>
        <time>2020-11-11T15:48:33Z</time>
      </trkpt>
      <trkpt lat="28.3500820" lon="-16.5153780">
        <ele>1316.9</ele>
        <time>2020-11-11T15:48:34Z</time>
      </trkpt>
      <trkpt lat="28.3500770" lon="-16.5152930">
        <ele>1316.9</ele>
        <time>2020-11-11T15:48:35Z</time>
      </trkpt>
      <trkpt lat="28.3500770" lon="-16.5152930">
        <ele>1316.9</ele>
        <time>2020-11-11T15:48:36Z</time>
      </trkpt>
      <trkpt lat="28.3500600" lon="-16.5152130">
        <ele>1316.9</ele>
        <time>2020-11-11T15:48:37Z</time>
      </trkpt>
      <trkpt lat="28.3500600" lon="-16.5152130">
        <ele>1316.9</ele>
        <time>2020-11-11T15:48:38Z</time>
      </trkpt>
      <trkpt lat="28.3500420" lon="-16.5151330">
        <ele>1316.9</ele>
        <time>2020-11-11T15:48:39Z</time>
      </trkpt>
      <trkpt lat="28.3500420" lon="-16.5151330">
        <ele>1317.9</ele>
        <time>2020-11-11T15:48:40Z</time>
      </trkpt>
      <trkpt lat="28.3500250" lon="-16.5150550">
        <ele>1317.9</ele>
        <time>2020-11-11T15:48:41Z</time>
      </trkpt>
      <trkpt lat="28.3500250" lon="-16.5150550">
        <ele>1317.9</ele>
        <time>2020-11-11T15:48:42Z</time>
      </trkpt>
      <trkpt lat="28.3500000" lon="-16.5149730">
        <ele>1317.9</ele>
        <time>2020-11-11T15:48:43Z</time>
      </trkpt>
      <trkpt lat="28.3500000" lon="-16.5149730">
        <ele>1317.9</ele>
        <time>2020-11-11T15:48:44Z</time>
      </trkpt>
      <trkpt lat="28.3499720" lon="-16.5148950">
        <ele>1317.9</ele>
        <time>2020-11-11T15:48:45Z</time>
      </trkpt>
      <trkpt lat="28.3499720" lon="-16.5148950">
        <ele>1317.9</ele>
        <time>2020-11-11T15:48:46Z</time>
      </trkpt>
      <trkpt lat="28.3499400" lon="-16.5148200">
        <ele>1317.9</ele>
        <time>2020-11-11T15:48:47Z</time>
      </trkpt>
      <trkpt lat="28.3499250" lon="-16.5147800">
        <ele>1317.9</ele>
        <time>2020-11-11T15:48:48Z</time>
      </trkpt>
      <trkpt lat="28.3499130" lon="-16.5147400">
        <ele>1317.9</ele>
        <time>2020-11-11T15:48:49Z</time>
      </trkpt>
      <trkpt lat="28.3499130" lon="-16.5147400">
        <ele>1317.9</ele>
        <time>2020-11-11T15:48:50Z</time>
      </trkpt>
      <trkpt lat="28.3498950" lon="-16.5146580">
        <ele>1317.9</ele>
        <time>2020-11-11T15:48:51Z</time>
      </trkpt>
      <trkpt lat="28.3498950" lon="-16.5146580">
        <ele>1317.9</ele>
        <time>2020-11-11T15:48:52Z</time>
      </trkpt>
      <trkpt lat="28.3498700" lon="-16.5145830">
        <ele>1318.9</ele>
        <time>2020-11-11T15:48:53Z</time>
      </trkpt>
      <trkpt lat="28.3498700" lon="-16.5145830">
        <ele>1318.9</ele>
        <time>2020-11-11T15:48:54Z</time>
      </trkpt>
      <trkpt lat="28.3498330" lon="-16.5145100">
        <ele>1318.9</ele>
        <time>2020-11-11T15:48:55Z</time>
      </trkpt>
      <trkpt lat="28.3498330" lon="-16.5145100">
        <ele>1318.9</ele>
        <time>2020-11-11T15:48:56Z</time>
      </trkpt>
      <trkpt lat="28.3497850" lon="-16.5144480">
        <ele>1318.9</ele>
        <time>2020-11-11T15:48:57Z</time>
      </trkpt>
      <trkpt lat="28.3497850" lon="-16.5144480">
        <ele>1318.9</ele>
        <time>2020-11-11T15:48:58Z</time>
      </trkpt>
      <trkpt lat="28.3497320" lon="-16.5143930">
        <ele>1318.9</ele>
        <time>2020-11-11T15:48:59Z</time>
      </trkpt>
      <trkpt lat="28.3497320" lon="-16.5143930">
        <ele>1318.9</ele>
        <time>2020-11-11T15:49:00Z</time>
      </trkpt>
      <trkpt lat="28.3496830" lon="-16.5143320">
        <ele>1318.9</ele>
        <time>2020-11-11T15:49:01Z</time>
      </trkpt>
      <trkpt lat="28.3496830" lon="-16.5143320">
        <ele>1318.9</ele>
        <time>2020-11-11T15:49:02Z</time>
      </trkpt>
      <trkpt lat="28.3496400" lon="-16.5142650">
        <ele>1318.9</ele>
        <time>2020-11-11T15:49:03Z</time>
      </trkpt>
      <trkpt lat="28.3496400" lon="-16.5142650">
        <ele>1318.9</ele>
        <time>2020-11-11T15:49:04Z</time>
      </trkpt>
      <trkpt lat="28.3496050" lon="-16.5141930">
        <ele>1319.9</ele>
        <time>2020-11-11T15:49:05Z</time>
      </trkpt>
      <trkpt lat="28.3496050" lon="-16.5141930">
        <ele>1319.9</ele>
        <time>2020-11-11T15:49:06Z</time>
      </trkpt>
      <trkpt lat="28.3495780" lon="-16.5141180">
        <ele>1319.9</ele>
        <time>2020-11-11T15:49:07Z</time>
      </trkpt>
      <trkpt lat="28.3495780" lon="-16.5141180">
        <ele>1319.9</ele>
        <time>2020-11-11T15:49:08Z</time>
      </trkpt>
      <trkpt lat="28.3495530" lon="-16.5140370">
        <ele>1319.9</ele>
        <time>2020-11-11T15:49:09Z</time>
      </trkpt>
      <trkpt lat="28.3495530" lon="-16.5140370">
        <ele>1319.9</ele>
        <time>2020-11-11T15:49:10Z</time>
      </trkpt>
      <trkpt lat="28.3495450" lon="-16.5139630">
        <ele>1319.9</ele>
        <time>2020-11-11T15:49:11Z</time>
      </trkpt>
      <trkpt lat="28.3495450" lon="-16.5139630">
        <ele>1319.9</ele>
        <time>2020-11-11T15:49:12Z</time>
      </trkpt>
      <trkpt lat="28.3495530" lon="-16.5138970">
        <ele>1320.9</ele>
        <time>2020-11-11T15:49:13Z</time>
      </trkpt>
      <trkpt lat="28.3495530" lon="-16.5138970">
        <ele>1320.9</ele>
        <time>2020-11-11T15:49:14Z</time>
      </trkpt>
      <trkpt lat="28.3495730" lon="-16.5138280">
        <ele>1320.9</ele>
        <time>2020-11-11T15:49:15Z</time>
      </trkpt>
      <trkpt lat="28.3495850" lon="-16.5137950">
        <ele>1320.9</ele>
        <time>2020-11-11T15:49:16Z</time>
      </trkpt>
      <trkpt lat="28.3495850" lon="-16.5137950">
        <ele>1320.9</ele>
        <time>2020-11-11T15:49:17Z</time>
      </trkpt>
      <trkpt lat="28.3496150" lon="-16.5137380">
        <ele>1320.9</ele>
        <time>2020-11-11T15:49:18Z</time>
      </trkpt>
      <trkpt lat="28.3496150" lon="-16.5137380">
        <ele>1321.9</ele>
        <time>2020-11-11T15:49:19Z</time>
      </trkpt>
      <trkpt lat="28.3496400" lon="-16.5136830">
        <ele>1321.9</ele>
        <time>2020-11-11T15:49:20Z</time>
      </trkpt>
      <trkpt lat="28.3496400" lon="-16.5136830">
        <ele>1321.9</ele>
        <time>2020-11-11T15:49:21Z</time>
      </trkpt>
      <trkpt lat="28.3496700" lon="-16.5136330">
        <ele>1321.9</ele>
        <time>2020-11-11T15:49:22Z</time>
      </trkpt>
      <trkpt lat="28.3496700" lon="-16.5136330">
        <ele>1321.9</ele>
        <time>2020-11-11T15:49:23Z</time>
      </trkpt>
      <trkpt lat="28.3497020" lon="-16.5135880">
        <ele>1321.9</ele>
        <time>2020-11-11T15:49:24Z</time>
      </trkpt>
      <trkpt lat="28.3497020" lon="-16.5135880">
        <ele>1322.9</ele>
        <time>2020-11-11T15:49:25Z</time>
      </trkpt>
      <trkpt lat="28.3497330" lon="-16.5135430">
        <ele>1322.9</ele>
        <time>2020-11-11T15:49:26Z</time>
      </trkpt>
      <trkpt lat="28.3497330" lon="-16.5135430">
        <ele>1322.9</ele>
        <time>2020-11-11T15:49:27Z</time>
      </trkpt>
      <trkpt lat="28.3497570" lon="-16.5134900">
        <ele>1322.9</ele>
        <time>2020-11-11T15:49:28Z</time>
      </trkpt>
      <trkpt lat="28.3497630" lon="-16.5134620">
        <ele>1322.9</ele>
        <time>2020-11-11T15:49:29Z</time>
      </trkpt>
      <trkpt lat="28.3497630" lon="-16.5134620">
        <ele>1322.9</ele>
        <time>2020-11-11T15:49:30Z</time>
      </trkpt>
      <trkpt lat="28.3497670" lon="-16.5134030">
        <ele>1323.9</ele>
        <time>2020-11-11T15:49:31Z</time>
      </trkpt>
      <trkpt lat="28.3497670" lon="-16.5134030">
        <ele>1323.9</ele>
        <time>2020-11-11T15:49:32Z</time>
      </trkpt>
      <trkpt lat="28.3497600" lon="-16.5133530">
        <ele>1323.9</ele>
        <time>2020-11-11T15:49:33Z</time>
      </trkpt>
      <trkpt lat="28.3497600" lon="-16.5133530">
        <ele>1323.9</ele>
        <time>2020-11-11T15:49:34Z</time>
      </trkpt>
      <trkpt lat="28.3497380" lon="-16.5133100">
        <ele>1324.9</ele>
        <time>2020-11-11T15:49:35Z</time>
      </trkpt>
      <trkpt lat="28.3497380" lon="-16.5133100">
        <ele>1324.9</ele>
        <time>2020-11-11T15:49:36Z</time>
      </trkpt>
      <trkpt lat="28.3497050" lon="-16.5132770">
        <ele>1324.9</ele>
        <time>2020-11-11T15:49:37Z</time>
      </trkpt>
      <trkpt lat="28.3497050" lon="-16.5132770">
        <ele>1324.9</ele>
        <time>2020-11-11T15:49:38Z</time>
      </trkpt>
      <trkpt lat="28.3496730" lon="-16.5132430">
        <ele>1324.9</ele>
        <time>2020-11-11T15:49:39Z</time>
      </trkpt>
      <trkpt lat="28.3496730" lon="-16.5132430">
        <ele>1324.9</ele>
        <time>2020-11-11T15:49:40Z</time>
      </trkpt>
      <trkpt lat="28.3496480" lon="-16.5132080">
        <ele>1325.9</ele>
        <time>2020-11-11T15:49:41Z</time>
      </trkpt>
      <trkpt lat="28.3496270" lon="-16.5131980">
        <ele>1325.9</ele>
        <time>2020-11-11T15:49:42Z</time>
      </trkpt>
      <trkpt lat="28.3496080" lon="-16.5131900">
        <ele>1325.9</ele>
        <time>2020-11-11T15:49:43Z</time>
      </trkpt>
      <trkpt lat="28.3496080" lon="-16.5131900">
        <ele>1325.9</ele>
        <time>2020-11-11T15:49:44Z</time>
      </trkpt>
      <trkpt lat="28.3495720" lon="-16.5131630">
        <ele>1326.9</ele>
        <time>2020-11-11T15:49:45Z</time>
      </trkpt>
      <trkpt lat="28.3495720" lon="-16.5131630">
        <ele>1326.9</ele>
        <time>2020-11-11T15:49:46Z</time>
      </trkpt>
      <trkpt lat="28.3495380" lon="-16.5131370">
        <ele>1326.9</ele>
        <time>2020-11-11T15:49:47Z</time>
      </trkpt>
      <trkpt lat="28.3495380" lon="-16.5131370">
        <ele>1326.9</ele>
        <time>2020-11-11T15:49:48Z</time>
      </trkpt>
      <trkpt lat="28.3495050" lon="-16.5131170">
        <ele>1326.9</ele>
        <time>2020-11-11T15:49:49Z</time>
      </trkpt>
      <trkpt lat="28.3495050" lon="-16.5131170">
        <ele>1326.9</ele>
        <time>2020-11-11T15:49:50Z</time>
      </trkpt>
      <trkpt lat="28.3494730" lon="-16.5130950">
        <ele>1326.9</ele>
        <time>2020-11-11T15:49:51Z</time>
      </trkpt>
      <trkpt lat="28.3494730" lon="-16.5130950">
        <ele>1326.9</ele>
        <time>2020-11-11T15:49:52Z</time>
      </trkpt>
      <trkpt lat="28.3494380" lon="-16.5130770">
        <ele>1326.9</ele>
        <time>2020-11-11T15:49:53Z</time>
      </trkpt>
      <trkpt lat="28.3494380" lon="-16.5130770">
        <ele>1326.9</ele>
        <time>2020-11-11T15:49:54Z</time>
      </trkpt>
      <trkpt lat="28.3494020" lon="-16.5130600">
        <ele>1326.9</ele>
        <time>2020-11-11T15:49:55Z</time>
      </trkpt>
      <trkpt lat="28.3494020" lon="-16.5130600">
        <ele>1326.9</ele>
        <time>2020-11-11T15:49:56Z</time>
      </trkpt>
      <trkpt lat="28.3493630" lon="-16.5130450">
        <ele>1327.9</ele>
        <time>2020-11-11T15:49:57Z</time>
      </trkpt>
      <trkpt lat="28.3493630" lon="-16.5130450">
        <ele>1327.9</ele>
        <time>2020-11-11T15:49:58Z</time>
      </trkpt>
      <trkpt lat="28.3493280" lon="-16.5130150">
        <ele>1327.9</ele>
        <time>2020-11-11T15:49:59Z</time>
      </trkpt>
      <trkpt lat="28.3493100" lon="-16.5130000">
        <ele>1327.9</ele>
        <time>2020-11-11T15:50:00Z</time>
      </trkpt>
      <trkpt lat="28.3492920" lon="-16.5129880">
        <ele>1328.9</ele>
        <time>2020-11-11T15:50:01Z</time>
      </trkpt>
      <trkpt lat="28.3492920" lon="-16.5129880">
        <ele>1328.9</ele>
        <time>2020-11-11T15:50:02Z</time>
      </trkpt>
      <trkpt lat="28.3492630" lon="-16.5129580">
        <ele>1328.9</ele>
        <time>2020-11-11T15:50:03Z</time>
      </trkpt>
      <trkpt lat="28.3492630" lon="-16.5129580">
        <ele>1328.9</ele>
        <time>2020-11-11T15:50:04Z</time>
      </trkpt>
      <trkpt lat="28.3492350" lon="-16.5129200">
        <ele>1328.9</ele>
        <time>2020-11-11T15:50:05Z</time>
      </trkpt>
      <trkpt lat="28.3492350" lon="-16.5129200">
        <ele>1328.9</ele>
        <time>2020-11-11T15:50:06Z</time>
      </trkpt>
      <trkpt lat="28.3492120" lon="-16.5128800">
        <ele>1329.9</ele>
        <time>2020-11-11T15:50:07Z</time>
      </trkpt>
      <trkpt lat="28.3492120" lon="-16.5128800">
        <ele>1329.9</ele>
        <time>2020-11-11T15:50:08Z</time>
      </trkpt>
      <trkpt lat="28.3491920" lon="-16.5128350">
        <ele>1329.9</ele>
        <time>2020-11-11T15:50:09Z</time>
      </trkpt>
      <trkpt lat="28.3491920" lon="-16.5128350">
        <ele>1329.9</ele>
        <time>2020-11-11T15:50:10Z</time>
      </trkpt>
      <trkpt lat="28.3491750" lon="-16.5127930">
        <ele>1329.9</ele>
        <time>2020-11-11T15:50:11Z</time>
      </trkpt>
      <trkpt lat="28.3491750" lon="-16.5127930">
        <ele>1330.9</ele>
        <time>2020-11-11T15:50:12Z</time>
      </trkpt>
      <trkpt lat="28.3491650" lon="-16.5127450">
        <ele>1330.9</ele>
        <time>2020-11-11T15:50:13Z</time>
      </trkpt>
      <trkpt lat="28.3491650" lon="-16.5127450">
        <ele>1330.9</ele>
        <time>2020-11-11T15:50:14Z</time>
      </trkpt>
      <trkpt lat="28.3491570" lon="-16.5126930">
        <ele>1330.9</ele>
        <time>2020-11-11T15:50:15Z</time>
      </trkpt>
      <trkpt lat="28.3491570" lon="-16.5126930">
        <ele>1330.9</ele>
        <time>2020-11-11T15:50:16Z</time>
      </trkpt>
      <trkpt lat="28.3491550" lon="-16.5126420">
        <ele>1330.9</ele>
        <time>2020-11-11T15:50:17Z</time>
      </trkpt>
      <trkpt lat="28.3491550" lon="-16.5126420">
        <ele>1330.9</ele>
        <time>2020-11-11T15:50:18Z</time>
      </trkpt>
      <trkpt lat="28.3491480" lon="-16.5125920">
        <ele>1331.9</ele>
        <time>2020-11-11T15:50:19Z</time>
      </trkpt>
      <trkpt lat="28.3491480" lon="-16.5125920">
        <ele>1331.9</ele>
        <time>2020-11-11T15:50:20Z</time>
      </trkpt>
      <trkpt lat="28.3491450" lon="-16.5125450">
        <ele>1331.9</ele>
        <time>2020-11-11T15:50:21Z</time>
      </trkpt>
      <trkpt lat="28.3491480" lon="-16.5125200">
        <ele>1331.9</ele>
        <time>2020-11-11T15:50:22Z</time>
      </trkpt>
      <trkpt lat="28.3491480" lon="-16.5125200">
        <ele>1331.9</ele>
        <time>2020-11-11T15:50:23Z</time>
      </trkpt>
      <trkpt lat="28.3491570" lon="-16.5124700">
        <ele>1331.9</ele>
        <time>2020-11-11T15:50:24Z</time>
      </trkpt>
      <trkpt lat="28.3491570" lon="-16.5124700">
        <ele>1331.9</ele>
        <time>2020-11-11T15:50:25Z</time>
      </trkpt>
      <trkpt lat="28.3491770" lon="-16.5124230">
        <ele>1331.9</ele>
        <time>2020-11-11T15:50:26Z</time>
      </trkpt>
      <trkpt lat="28.3491850" lon="-16.5124020">
        <ele>1331.9</ele>
        <time>2020-11-11T15:50:27Z</time>
      </trkpt>
      <trkpt lat="28.3491850" lon="-16.5124020">
        <ele>1331.9</ele>
        <time>2020-11-11T15:50:28Z</time>
      </trkpt>
      <trkpt lat="28.3492020" lon="-16.5123550">
        <ele>1333.9</ele>
        <time>2020-11-11T15:50:29Z</time>
      </trkpt>
      <trkpt lat="28.3492020" lon="-16.5123550">
        <ele>1333.9</ele>
        <time>2020-11-11T15:50:30Z</time>
      </trkpt>
      <trkpt lat="28.3492270" lon="-16.5123120">
        <ele>1333.9</ele>
        <time>2020-11-11T15:50:31Z</time>
      </trkpt>
      <trkpt lat="28.3492270" lon="-16.5123120">
        <ele>1333.9</ele>
        <time>2020-11-11T15:50:32Z</time>
      </trkpt>
      <trkpt lat="28.3492450" lon="-16.5122670">
        <ele>1333.9</ele>
        <time>2020-11-11T15:50:33Z</time>
      </trkpt>
      <trkpt lat="28.3492450" lon="-16.5122670">
        <ele>1333.9</ele>
        <time>2020-11-11T15:50:34Z</time>
      </trkpt>
      <trkpt lat="28.3492570" lon="-16.5122200">
        <ele>1333.9</ele>
        <time>2020-11-11T15:50:35Z</time>
      </trkpt>
      <trkpt lat="28.3492570" lon="-16.5122200">
        <ele>1333.9</ele>
        <time>2020-11-11T15:50:36Z</time>
      </trkpt>
      <trkpt lat="28.3492570" lon="-16.5121730">
        <ele>1333.9</ele>
        <time>2020-11-11T15:50:37Z</time>
      </trkpt>
      <trkpt lat="28.3492570" lon="-16.5121730">
        <ele>1333.9</ele>
        <time>2020-11-11T15:50:38Z</time>
      </trkpt>
      <trkpt lat="28.3492520" lon="-16.5121270">
        <ele>1333.9</ele>
        <time>2020-11-11T15:50:39Z</time>
      </trkpt>
      <trkpt lat="28.3492500" lon="-16.5121030">
        <ele>1333.9</ele>
        <time>2020-11-11T15:50:40Z</time>
      </trkpt>
      <trkpt lat="28.3492500" lon="-16.5121030">
        <ele>1333.9</ele>
        <time>2020-11-11T15:50:41Z</time>
      </trkpt>
      <trkpt lat="28.3492430" lon="-16.5120550">
        <ele>1333.9</ele>
        <time>2020-11-11T15:50:42Z</time>
      </trkpt>
      <trkpt lat="28.3492420" lon="-16.5120320">
        <ele>1334.9</ele>
        <time>2020-11-11T15:50:43Z</time>
      </trkpt>
      <trkpt lat="28.3492420" lon="-16.5120320">
        <ele>1334.9</ele>
        <time>2020-11-11T15:50:44Z</time>
      </trkpt>
      <trkpt lat="28.3492430" lon="-16.5119820">
        <ele>1334.9</ele>
        <time>2020-11-11T15:50:45Z</time>
      </trkpt>
      <trkpt lat="28.3492430" lon="-16.5119820">
        <ele>1334.9</ele>
        <time>2020-11-11T15:50:46Z</time>
      </trkpt>
      <trkpt lat="28.3492450" lon="-16.5119330">
        <ele>1334.9</ele>
        <time>2020-11-11T15:50:47Z</time>
      </trkpt>
      <trkpt lat="28.3492450" lon="-16.5119330">
        <ele>1335.9</ele>
        <time>2020-11-11T15:50:48Z</time>
      </trkpt>
      <trkpt lat="28.3492500" lon="-16.5118830">
        <ele>1335.9</ele>
        <time>2020-11-11T15:50:49Z</time>
      </trkpt>
      <trkpt lat="28.3492500" lon="-16.5118830">
        <ele>1335.9</ele>
        <time>2020-11-11T15:50:50Z</time>
      </trkpt>
      <trkpt lat="28.3492500" lon="-16.5118330">
        <ele>1335.9</ele>
        <time>2020-11-11T15:50:51Z</time>
      </trkpt>
      <trkpt lat="28.3492500" lon="-16.5118330">
        <ele>1335.9</ele>
        <time>2020-11-11T15:50:52Z</time>
      </trkpt>
      <trkpt lat="28.3492450" lon="-16.5117870">
        <ele>1336.9</ele>
        <time>2020-11-11T15:50:53Z</time>
      </trkpt>
      <trkpt lat="28.3492450" lon="-16.5117870">
        <ele>1336.9</ele>
        <time>2020-11-11T15:50:54Z</time>
      </trkpt>
      <trkpt lat="28.3492420" lon="-16.5117330">
        <ele>1336.9</ele>
        <time>2020-11-11T15:50:55Z</time>
      </trkpt>
      <trkpt lat="28.3492400" lon="-16.5117080">
        <ele>1336.9</ele>
        <time>2020-11-11T15:50:56Z</time>
      </trkpt>
      <trkpt lat="28.3492400" lon="-16.5117080">
        <ele>1336.9</ele>
        <time>2020-11-11T15:50:57Z</time>
      </trkpt>
      <trkpt lat="28.3492350" lon="-16.5116620">
        <ele>1336.9</ele>
        <time>2020-11-11T15:50:58Z</time>
      </trkpt>
      <trkpt lat="28.3492350" lon="-16.5116370">
        <ele>1336.9</ele>
        <time>2020-11-11T15:50:59Z</time>
      </trkpt>
      <trkpt lat="28.3492350" lon="-16.5116370">
        <ele>1336.9</ele>
        <time>2020-11-11T15:51:00Z</time>
      </trkpt>
      <trkpt lat="28.3492350" lon="-16.5115870">
        <ele>1336.9</ele>
        <time>2020-11-11T15:51:01Z</time>
      </trkpt>
      <trkpt lat="28.3492350" lon="-16.5115870">
        <ele>1337.9</ele>
        <time>2020-11-11T15:51:02Z</time>
      </trkpt>
      <trkpt lat="28.3492300" lon="-16.5115380">
        <ele>1337.9</ele>
        <time>2020-11-11T15:51:03Z</time>
      </trkpt>
      <trkpt lat="28.3492300" lon="-16.5115380">
        <ele>1337.9</ele>
        <time>2020-11-11T15:51:04Z</time>
      </trkpt>
      <trkpt lat="28.3492230" lon="-16.5114880">
        <ele>1337.9</ele>
        <time>2020-11-11T15:51:05Z</time>
      </trkpt>
      <trkpt lat="28.3492230" lon="-16.5114880">
        <ele>1338.9</ele>
        <time>2020-11-11T15:51:06Z</time>
      </trkpt>
      <trkpt lat="28.3492030" lon="-16.5114470">
        <ele>1338.9</ele>
        <time>2020-11-11T15:51:07Z</time>
      </trkpt>
      <trkpt lat="28.3492030" lon="-16.5114470">
        <ele>1338.9</ele>
        <time>2020-11-11T15:51:08Z</time>
      </trkpt>
      <trkpt lat="28.3491770" lon="-16.5114150">
        <ele>1338.9</ele>
        <time>2020-11-11T15:51:09Z</time>
      </trkpt>
      <trkpt lat="28.3491600" lon="-16.5114050">
        <ele>1339.9</ele>
        <time>2020-11-11T15:51:10Z</time>
      </trkpt>
      <trkpt lat="28.3491600" lon="-16.5114050">
        <ele>1339.9</ele>
        <time>2020-11-11T15:51:11Z</time>
      </trkpt>
      <trkpt lat="28.3491200" lon="-16.5113900">
        <ele>1339.9</ele>
        <time>2020-11-11T15:51:12Z</time>
      </trkpt>
      <trkpt lat="28.3491200" lon="-16.5113900">
        <ele>1339.9</ele>
        <time>2020-11-11T15:51:13Z</time>
      </trkpt>
      <trkpt lat="28.3490770" lon="-16.5113900">
        <ele>1340.9</ele>
        <time>2020-11-11T15:51:14Z</time>
      </trkpt>
      <trkpt lat="28.3490550" lon="-16.5113980">
        <ele>1340.9</ele>
        <time>2020-11-11T15:51:15Z</time>
      </trkpt>
      <trkpt lat="28.3490550" lon="-16.5113980">
        <ele>1340.9</ele>
        <time>2020-11-11T15:51:16Z</time>
      </trkpt>
      <trkpt lat="28.3490270" lon="-16.5114280">
        <ele>1340.9</ele>
        <time>2020-11-11T15:51:17Z</time>
      </trkpt>
      <trkpt lat="28.3490270" lon="-16.5114280">
        <ele>1340.9</ele>
        <time>2020-11-11T15:51:18Z</time>
      </trkpt>
      <trkpt lat="28.3490070" lon="-16.5114680">
        <ele>1340.9</ele>
        <time>2020-11-11T15:51:19Z</time>
      </trkpt>
      <trkpt lat="28.3490070" lon="-16.5114680">
        <ele>1341.9</ele>
        <time>2020-11-11T15:51:20Z</time>
      </trkpt>
      <trkpt lat="28.3489870" lon="-16.5115120">
        <ele>1341.9</ele>
        <time>2020-11-11T15:51:21Z</time>
      </trkpt>
      <trkpt lat="28.3489870" lon="-16.5115120">
        <ele>1341.9</ele>
        <time>2020-11-11T15:51:22Z</time>
      </trkpt>
      <trkpt lat="28.3489700" lon="-16.5115550">
        <ele>1341.9</ele>
        <time>2020-11-11T15:51:23Z</time>
      </trkpt>
      <trkpt lat="28.3489700" lon="-16.5115550">
        <ele>1341.9</ele>
        <time>2020-11-11T15:51:24Z</time>
      </trkpt>
      <trkpt lat="28.3489600" lon="-16.5115980">
        <ele>1341.9</ele>
        <time>2020-11-11T15:51:25Z</time>
      </trkpt>
      <trkpt lat="28.3489530" lon="-16.5116180">
        <ele>1341.9</ele>
        <time>2020-11-11T15:51:26Z</time>
      </trkpt>
      <trkpt lat="28.3489530" lon="-16.5116180">
        <ele>1341.9</ele>
        <time>2020-11-11T15:51:27Z</time>
      </trkpt>
      <trkpt lat="28.3489350" lon="-16.5116580">
        <ele>1341.9</ele>
        <time>2020-11-11T15:51:28Z</time>
      </trkpt>
      <trkpt lat="28.3489350" lon="-16.5116580">
        <ele>1341.9</ele>
        <time>2020-11-11T15:51:29Z</time>
      </trkpt>
      <trkpt lat="28.3489120" lon="-16.5117080">
        <ele>1342.9</ele>
        <time>2020-11-11T15:51:30Z</time>
      </trkpt>
      <trkpt lat="28.3489120" lon="-16.5117080">
        <ele>1342.9</ele>
        <time>2020-11-11T15:51:31Z</time>
      </trkpt>
      <trkpt lat="28.3488930" lon="-16.5117520">
        <ele>1342.9</ele>
        <time>2020-11-11T15:51:32Z</time>
      </trkpt>
      <trkpt lat="28.3488930" lon="-16.5117520">
        <ele>1342.9</ele>
        <time>2020-11-11T15:51:33Z</time>
      </trkpt>
      <trkpt lat="28.3488770" lon="-16.5117950">
        <ele>1343.9</ele>
        <time>2020-11-11T15:51:34Z</time>
      </trkpt>
      <trkpt lat="28.3488770" lon="-16.5117950">
        <ele>1343.9</ele>
        <time>2020-11-11T15:51:35Z</time>
      </trkpt>
      <trkpt lat="28.3488600" lon="-16.5118380">
        <ele>1343.9</ele>
        <time>2020-11-11T15:51:36Z</time>
      </trkpt>
      <trkpt lat="28.3488600" lon="-16.5118380">
        <ele>1343.9</ele>
        <time>2020-11-11T15:51:37Z</time>
      </trkpt>
      <trkpt lat="28.3488500" lon="-16.5118850">
        <ele>1343.9</ele>
        <time>2020-11-11T15:51:38Z</time>
      </trkpt>
      <trkpt lat="28.3488430" lon="-16.5119070">
        <ele>1343.9</ele>
        <time>2020-11-11T15:51:39Z</time>
      </trkpt>
      <trkpt lat="28.3488430" lon="-16.5119070">
        <ele>1344.9</ele>
        <time>2020-11-11T15:51:40Z</time>
      </trkpt>
      <trkpt lat="28.3488320" lon="-16.5119520">
        <ele>1344.9</ele>
        <time>2020-11-11T15:51:41Z</time>
      </trkpt>
      <trkpt lat="28.3488230" lon="-16.5119750">
        <ele>1344.9</ele>
        <time>2020-11-11T15:51:42Z</time>
      </trkpt>
      <trkpt lat="28.3488150" lon="-16.5119950">
        <ele>1344.9</ele>
        <time>2020-11-11T15:51:43Z</time>
      </trkpt>
      <trkpt lat="28.3488150" lon="-16.5119950">
        <ele>1344.9</ele>
        <time>2020-11-11T15:51:44Z</time>
      </trkpt>
      <trkpt lat="28.3487980" lon="-16.5120350">
        <ele>1344.9</ele>
        <time>2020-11-11T15:51:45Z</time>
      </trkpt>
      <trkpt lat="28.3487980" lon="-16.5120350">
        <ele>1345.9</ele>
        <time>2020-11-11T15:51:46Z</time>
      </trkpt>
      <trkpt lat="28.3487880" lon="-16.5120820">
        <ele>1345.9</ele>
        <time>2020-11-11T15:51:47Z</time>
      </trkpt>
      <trkpt lat="28.3487880" lon="-16.5120820">
        <ele>1345.9</ele>
        <time>2020-11-11T15:51:48Z</time>
      </trkpt>
      <trkpt lat="28.3487770" lon="-16.5121250">
        <ele>1345.9</ele>
        <time>2020-11-11T15:51:49Z</time>
      </trkpt>
      <trkpt lat="28.3487770" lon="-16.5121250">
        <ele>1345.9</ele>
        <time>2020-11-11T15:51:50Z</time>
      </trkpt>
      <trkpt lat="28.3487600" lon="-16.5121750">
        <ele>1345.9</ele>
        <time>2020-11-11T15:51:51Z</time>
      </trkpt>
      <trkpt lat="28.3487600" lon="-16.5121750">
        <ele>1346.9</ele>
        <time>2020-11-11T15:51:52Z</time>
      </trkpt>
      <trkpt lat="28.3487380" lon="-16.5122180">
        <ele>1346.9</ele>
        <time>2020-11-11T15:51:53Z</time>
      </trkpt>
      <trkpt lat="28.3487380" lon="-16.5122180">
        <ele>1346.9</ele>
        <time>2020-11-11T15:51:54Z</time>
      </trkpt>
      <trkpt lat="28.3487170" lon="-16.5122620">
        <ele>1346.9</ele>
        <time>2020-11-11T15:51:55Z</time>
      </trkpt>
      <trkpt lat="28.3487170" lon="-16.5122620">
        <ele>1346.9</ele>
        <time>2020-11-11T15:51:56Z</time>
      </trkpt>
      <trkpt lat="28.3486900" lon="-16.5123000">
        <ele>1346.9</ele>
        <time>2020-11-11T15:51:57Z</time>
      </trkpt>
      <trkpt lat="28.3486900" lon="-16.5123000">
        <ele>1347.9</ele>
        <time>2020-11-11T15:51:58Z</time>
      </trkpt>
      <trkpt lat="28.3486630" lon="-16.5123420">
        <ele>1347.9</ele>
        <time>2020-11-11T15:51:59Z</time>
      </trkpt>
      <trkpt lat="28.3486450" lon="-16.5123630">
        <ele>1347.9</ele>
        <time>2020-11-11T15:52:00Z</time>
      </trkpt>
      <trkpt lat="28.3486450" lon="-16.5123630">
        <ele>1347.9</ele>
        <time>2020-11-11T15:52:01Z</time>
      </trkpt>
      <trkpt lat="28.3486050" lon="-16.5124100">
        <ele>1347.9</ele>
        <time>2020-11-11T15:52:02Z</time>
      </trkpt>
      <trkpt lat="28.3485880" lon="-16.5124320">
        <ele>1347.9</ele>
        <time>2020-11-11T15:52:03Z</time>
      </trkpt>
      <trkpt lat="28.3485880" lon="-16.5124320">
        <ele>1348.9</ele>
        <time>2020-11-11T15:52:04Z</time>
      </trkpt>
      <trkpt lat="28.3485470" lon="-16.5124620">
        <ele>1348.9</ele>
        <time>2020-11-11T15:52:05Z</time>
      </trkpt>
      <trkpt lat="28.3485470" lon="-16.5124620">
        <ele>1348.9</ele>
        <time>2020-11-11T15:52:06Z</time>
      </trkpt>
      <trkpt lat="28.3485080" lon="-16.5124980">
        <ele>1348.9</ele>
        <time>2020-11-11T15:52:07Z</time>
      </trkpt>
      <trkpt lat="28.3485080" lon="-16.5124980">
        <ele>1348.9</ele>
        <time>2020-11-11T15:52:08Z</time>
      </trkpt>
      <trkpt lat="28.3484800" lon="-16.5125330">
        <ele>1348.9</ele>
        <time>2020-11-11T15:52:09Z</time>
      </trkpt>
      <trkpt lat="28.3484800" lon="-16.5125330">
        <ele>1348.9</ele>
        <time>2020-11-11T15:52:10Z</time>
      </trkpt>
      <trkpt lat="28.3484500" lon="-16.5125650">
        <ele>1348.9</ele>
        <time>2020-11-11T15:52:11Z</time>
      </trkpt>
      <trkpt lat="28.3484500" lon="-16.5125650">
        <ele>1348.9</ele>
        <time>2020-11-11T15:52:12Z</time>
      </trkpt>
      <trkpt lat="28.3484200" lon="-16.5126070">
        <ele>1348.9</ele>
        <time>2020-11-11T15:52:13Z</time>
      </trkpt>
      <trkpt lat="28.3484200" lon="-16.5126070">
        <ele>1348.9</ele>
        <time>2020-11-11T15:52:14Z</time>
      </trkpt>
      <trkpt lat="28.3483930" lon="-16.5126600">
        <ele>1349.9</ele>
        <time>2020-11-11T15:52:15Z</time>
      </trkpt>
      <trkpt lat="28.3483880" lon="-16.5126880">
        <ele>1349.9</ele>
        <time>2020-11-11T15:52:16Z</time>
      </trkpt>
      <trkpt lat="28.3483880" lon="-16.5126880">
        <ele>1349.9</ele>
        <time>2020-11-11T15:52:17Z</time>
      </trkpt>
      <trkpt lat="28.3483930" lon="-16.5127570">
        <ele>1349.9</ele>
        <time>2020-11-11T15:52:18Z</time>
      </trkpt>
      <trkpt lat="28.3484000" lon="-16.5127920">
        <ele>1349.9</ele>
        <time>2020-11-11T15:52:19Z</time>
      </trkpt>
      <trkpt lat="28.3484000" lon="-16.5127920">
        <ele>1349.9</ele>
        <time>2020-11-11T15:52:20Z</time>
      </trkpt>
      <trkpt lat="28.3484250" lon="-16.5128630">
        <ele>1349.9</ele>
        <time>2020-11-11T15:52:21Z</time>
      </trkpt>
      <trkpt lat="28.3484250" lon="-16.5128630">
        <ele>1349.9</ele>
        <time>2020-11-11T15:52:22Z</time>
      </trkpt>
      <trkpt lat="28.3484620" lon="-16.5129350">
        <ele>1349.9</ele>
        <time>2020-11-11T15:52:23Z</time>
      </trkpt>
      <trkpt lat="28.3484620" lon="-16.5129350">
        <ele>1349.9</ele>
        <time>2020-11-11T15:52:24Z</time>
      </trkpt>
      <trkpt lat="28.3485050" lon="-16.5130100">
        <ele>1349.9</ele>
        <time>2020-11-11T15:52:25Z</time>
      </trkpt>
      <trkpt lat="28.3485050" lon="-16.5130100">
        <ele>1349.9</ele>
        <time>2020-11-11T15:52:26Z</time>
      </trkpt>
      <trkpt lat="28.3485420" lon="-16.5130830">
        <ele>1350.9</ele>
        <time>2020-11-11T15:52:27Z</time>
      </trkpt>
      <trkpt lat="28.3485420" lon="-16.5130830">
        <ele>1350.9</ele>
        <time>2020-11-11T15:52:28Z</time>
      </trkpt>
      <trkpt lat="28.3485620" lon="-16.5131600">
        <ele>1350.9</ele>
        <time>2020-11-11T15:52:29Z</time>
      </trkpt>
      <trkpt lat="28.3485620" lon="-16.5131600">
        <ele>1350.9</ele>
        <time>2020-11-11T15:52:30Z</time>
      </trkpt>
      <trkpt lat="28.3485770" lon="-16.5132430">
        <ele>1350.9</ele>
        <time>2020-11-11T15:52:31Z</time>
      </trkpt>
      <trkpt lat="28.3485770" lon="-16.5132430">
        <ele>1350.9</ele>
        <time>2020-11-11T15:52:32Z</time>
      </trkpt>
      <trkpt lat="28.3485920" lon="-16.5133250">
        <ele>1350.9</ele>
        <time>2020-11-11T15:52:33Z</time>
      </trkpt>
      <trkpt lat="28.3485950" lon="-16.5133670">
        <ele>1350.9</ele>
        <time>2020-11-11T15:52:34Z</time>
      </trkpt>
      <trkpt lat="28.3485950" lon="-16.5133670">
        <ele>1350.9</ele>
        <time>2020-11-11T15:52:35Z</time>
      </trkpt>
      <trkpt lat="28.3485920" lon="-16.5134550">
        <ele>1350.9</ele>
        <time>2020-11-11T15:52:36Z</time>
      </trkpt>
      <trkpt lat="28.3485830" lon="-16.5134980">
        <ele>1350.9</ele>
        <time>2020-11-11T15:52:37Z</time>
      </trkpt>
      <trkpt lat="28.3485830" lon="-16.5134980">
        <ele>1351.9</ele>
        <time>2020-11-11T15:52:38Z</time>
      </trkpt>
      <trkpt lat="28.3485670" lon="-16.5135830">
        <ele>1351.9</ele>
        <time>2020-11-11T15:52:39Z</time>
      </trkpt>
      <trkpt lat="28.3485670" lon="-16.5135830">
        <ele>1351.9</ele>
        <time>2020-11-11T15:52:40Z</time>
      </trkpt>
      <trkpt lat="28.3485480" lon="-16.5136570">
        <ele>1351.9</ele>
        <time>2020-11-11T15:52:41Z</time>
      </trkpt>
      <trkpt lat="28.3485400" lon="-16.5136870">
        <ele>1351.9</ele>
        <time>2020-11-11T15:52:42Z</time>
      </trkpt>
      <trkpt lat="28.3485330" lon="-16.5137170">
        <ele>1351.9</ele>
        <time>2020-11-11T15:52:43Z</time>
      </trkpt>
      <trkpt lat="28.3485330" lon="-16.5137170">
        <ele>1351.9</ele>
        <time>2020-11-11T15:52:44Z</time>
      </trkpt>
      <trkpt lat="28.3485220" lon="-16.5137800">
        <ele>1351.9</ele>
        <time>2020-11-11T15:52:45Z</time>
      </trkpt>
      <trkpt lat="28.3485170" lon="-16.5138120">
        <ele>1351.9</ele>
        <time>2020-11-11T15:52:46Z</time>
      </trkpt>
      <trkpt lat="28.3485170" lon="-16.5138120">
        <ele>1351.9</ele>
        <time>2020-11-11T15:52:47Z</time>
      </trkpt>
      <trkpt lat="28.3485030" lon="-16.5138780">
        <ele>1351.9</ele>
        <time>2020-11-11T15:52:48Z</time>
      </trkpt>
      <trkpt lat="28.3485030" lon="-16.5138780">
        <ele>1351.9</ele>
        <time>2020-11-11T15:52:49Z</time>
      </trkpt>
      <trkpt lat="28.3484920" lon="-16.5139380">
        <ele>1351.9</ele>
        <time>2020-11-11T15:52:50Z</time>
      </trkpt>
      <trkpt lat="28.3484920" lon="-16.5139380">
        <ele>1351.9</ele>
        <time>2020-11-11T15:52:51Z</time>
      </trkpt>
      <trkpt lat="28.3484770" lon="-16.5139930">
        <ele>1351.9</ele>
        <time>2020-11-11T15:52:52Z</time>
      </trkpt>
      <trkpt lat="28.3484770" lon="-16.5139930">
        <ele>1351.9</ele>
        <time>2020-11-11T15:52:53Z</time>
      </trkpt>
      <trkpt lat="28.3484600" lon="-16.5140500">
        <ele>1352.9</ele>
        <time>2020-11-11T15:52:54Z</time>
      </trkpt>
      <trkpt lat="28.3484600" lon="-16.5140500">
        <ele>1352.9</ele>
        <time>2020-11-11T15:52:55Z</time>
      </trkpt>
      <trkpt lat="28.3484470" lon="-16.5141030">
        <ele>1352.9</ele>
        <time>2020-11-11T15:52:56Z</time>
      </trkpt>
      <trkpt lat="28.3484470" lon="-16.5141030">
        <ele>1352.9</ele>
        <time>2020-11-11T15:52:57Z</time>
      </trkpt>
      <trkpt lat="28.3484330" lon="-16.5141600">
        <ele>1353.9</ele>
        <time>2020-11-11T15:52:58Z</time>
      </trkpt>
      <trkpt lat="28.3484330" lon="-16.5141600">
        <ele>1353.9</ele>
        <time>2020-11-11T15:52:59Z</time>
      </trkpt>
      <trkpt lat="28.3484180" lon="-16.5142120">
        <ele>1353.9</ele>
        <time>2020-11-11T15:53:00Z</time>
      </trkpt>
      <trkpt lat="28.3484180" lon="-16.5142120">
        <ele>1353.9</ele>
        <time>2020-11-11T15:53:01Z</time>
      </trkpt>
      <trkpt lat="28.3484080" lon="-16.5142620">
        <ele>1353.9</ele>
        <time>2020-11-11T15:53:02Z</time>
      </trkpt>
      <trkpt lat="28.3484080" lon="-16.5142620">
        <ele>1353.9</ele>
        <time>2020-11-11T15:53:03Z</time>
      </trkpt>
      <trkpt lat="28.3483930" lon="-16.5143220">
        <ele>1353.9</ele>
        <time>2020-11-11T15:53:04Z</time>
      </trkpt>
      <trkpt lat="28.3483930" lon="-16.5143220">
        <ele>1353.9</ele>
        <time>2020-11-11T15:53:05Z</time>
      </trkpt>
      <trkpt lat="28.3483750" lon="-16.5143650">
        <ele>1353.9</ele>
        <time>2020-11-11T15:53:06Z</time>
      </trkpt>
      <trkpt lat="28.3483650" lon="-16.5143920">
        <ele>1353.9</ele>
        <time>2020-11-11T15:53:07Z</time>
      </trkpt>
      <trkpt lat="28.3483650" lon="-16.5143920">
        <ele>1354.9</ele>
        <time>2020-11-11T15:53:08Z</time>
      </trkpt>
      <trkpt lat="28.3483470" lon="-16.5144430">
        <ele>1354.9</ele>
        <time>2020-11-11T15:53:09Z</time>
      </trkpt>
      <trkpt lat="28.3483470" lon="-16.5144430">
        <ele>1354.9</ele>
        <time>2020-11-11T15:53:10Z</time>
      </trkpt>
      <trkpt lat="28.3483300" lon="-16.5144900">
        <ele>1354.9</ele>
        <time>2020-11-11T15:53:11Z</time>
      </trkpt>
      <trkpt lat="28.3483200" lon="-16.5145130">
        <ele>1354.9</ele>
        <time>2020-11-11T15:53:12Z</time>
      </trkpt>
      <trkpt lat="28.3483200" lon="-16.5145130">
        <ele>1355.9</ele>
        <time>2020-11-11T15:53:13Z</time>
      </trkpt>
      <trkpt lat="28.3482970" lon="-16.5145570">
        <ele>1355.9</ele>
        <time>2020-11-11T15:53:14Z</time>
      </trkpt>
      <trkpt lat="28.3482970" lon="-16.5145570">
        <ele>1355.9</ele>
        <time>2020-11-11T15:53:15Z</time>
      </trkpt>
      <trkpt lat="28.3482750" lon="-16.5145980">
        <ele>1355.9</ele>
        <time>2020-11-11T15:53:16Z</time>
      </trkpt>
      <trkpt lat="28.3482750" lon="-16.5145980">
        <ele>1355.9</ele>
        <time>2020-11-11T15:53:17Z</time>
      </trkpt>
      <trkpt lat="28.3482520" lon="-16.5146350">
        <ele>1355.9</ele>
        <time>2020-11-11T15:53:18Z</time>
      </trkpt>
      <trkpt lat="28.3482520" lon="-16.5146350">
        <ele>1355.9</ele>
        <time>2020-11-11T15:53:19Z</time>
      </trkpt>
      <trkpt lat="28.3482250" lon="-16.5146720">
        <ele>1356.9</ele>
        <time>2020-11-11T15:53:20Z</time>
      </trkpt>
      <trkpt lat="28.3482250" lon="-16.5146720">
        <ele>1356.9</ele>
        <time>2020-11-11T15:53:21Z</time>
      </trkpt>
      <trkpt lat="28.3481980" lon="-16.5147080">
        <ele>1356.9</ele>
        <time>2020-11-11T15:53:22Z</time>
      </trkpt>
      <trkpt lat="28.3481980" lon="-16.5147080">
        <ele>1356.9</ele>
        <time>2020-11-11T15:53:23Z</time>
      </trkpt>
      <trkpt lat="28.3481700" lon="-16.5147420">
        <ele>1356.9</ele>
        <time>2020-11-11T15:53:24Z</time>
      </trkpt>
      <trkpt lat="28.3481700" lon="-16.5147420">
        <ele>1356.9</ele>
        <time>2020-11-11T15:53:25Z</time>
      </trkpt>
      <trkpt lat="28.3481380" lon="-16.5147750">
        <ele>1356.9</ele>
        <time>2020-11-11T15:53:26Z</time>
      </trkpt>
      <trkpt lat="28.3481220" lon="-16.5147920">
        <ele>1356.9</ele>
        <time>2020-11-11T15:53:27Z</time>
      </trkpt>
      <trkpt lat="28.3481220" lon="-16.5147920">
        <ele>1357.9</ele>
        <time>2020-11-11T15:53:28Z</time>
      </trkpt>
      <trkpt lat="28.3480920" lon="-16.5148280">
        <ele>1357.9</ele>
        <time>2020-11-11T15:53:29Z</time>
      </trkpt>
      <trkpt lat="28.3480920" lon="-16.5148280">
        <ele>1357.9</ele>
        <time>2020-11-11T15:53:30Z</time>
      </trkpt>
      <trkpt lat="28.3480620" lon="-16.5148650">
        <ele>1357.9</ele>
        <time>2020-11-11T15:53:31Z</time>
      </trkpt>
      <trkpt lat="28.3480620" lon="-16.5148650">
        <ele>1357.9</ele>
        <time>2020-11-11T15:53:32Z</time>
      </trkpt>
      <trkpt lat="28.3480350" lon="-16.5149000">
        <ele>1357.9</ele>
        <time>2020-11-11T15:53:33Z</time>
      </trkpt>
      <trkpt lat="28.3480230" lon="-16.5149220">
        <ele>1357.9</ele>
        <time>2020-11-11T15:53:34Z</time>
      </trkpt>
      <trkpt lat="28.3480230" lon="-16.5149220">
        <ele>1357.9</ele>
        <time>2020-11-11T15:53:35Z</time>
      </trkpt>
      <trkpt lat="28.3479900" lon="-16.5149550">
        <ele>1357.9</ele>
        <time>2020-11-11T15:53:36Z</time>
      </trkpt>
      <trkpt lat="28.3479730" lon="-16.5149730">
        <ele>1357.9</ele>
        <time>2020-11-11T15:53:37Z</time>
      </trkpt>
      <trkpt lat="28.3479730" lon="-16.5149730">
        <ele>1358.9</ele>
        <time>2020-11-11T15:53:38Z</time>
      </trkpt>
      <trkpt lat="28.3479470" lon="-16.5150070">
        <ele>1358.9</ele>
        <time>2020-11-11T15:53:39Z</time>
      </trkpt>
      <trkpt lat="28.3479470" lon="-16.5150070">
        <ele>1358.9</ele>
        <time>2020-11-11T15:53:40Z</time>
      </trkpt>
      <trkpt lat="28.3479150" lon="-16.5150420">
        <ele>1358.9</ele>
        <time>2020-11-11T15:53:41Z</time>
      </trkpt>
      <trkpt lat="28.3479150" lon="-16.5150420">
        <ele>1359.9</ele>
        <time>2020-11-11T15:53:42Z</time>
      </trkpt>
      <trkpt lat="28.3478880" lon="-16.5150750">
        <ele>1359.9</ele>
        <time>2020-11-11T15:53:43Z</time>
      </trkpt>
      <trkpt lat="28.3478750" lon="-16.5150900">
        <ele>1359.9</ele>
        <time>2020-11-11T15:53:44Z</time>
      </trkpt>
      <trkpt lat="28.3478750" lon="-16.5150900">
        <ele>1359.9</ele>
        <time>2020-11-11T15:53:45Z</time>
      </trkpt>
      <trkpt lat="28.3478450" lon="-16.5151200">
        <ele>1360.9</ele>
        <time>2020-11-11T15:53:46Z</time>
      </trkpt>
      <trkpt lat="28.3478280" lon="-16.5151350">
        <ele>1360.9</ele>
        <time>2020-11-11T15:53:47Z</time>
      </trkpt>
      <trkpt lat="28.3478280" lon="-16.5151350">
        <ele>1360.9</ele>
        <time>2020-11-11T15:53:48Z</time>
      </trkpt>
      <trkpt lat="28.3478020" lon="-16.5151650">
        <ele>1361.9</ele>
        <time>2020-11-11T15:53:49Z</time>
      </trkpt>
      <trkpt lat="28.3478020" lon="-16.5151650">
        <ele>1361.9</ele>
        <time>2020-11-11T15:53:50Z</time>
      </trkpt>
      <trkpt lat="28.3477780" lon="-16.5151950">
        <ele>1361.9</ele>
        <time>2020-11-11T15:53:51Z</time>
      </trkpt>
      <trkpt lat="28.3477780" lon="-16.5151950">
        <ele>1361.9</ele>
        <time>2020-11-11T15:53:52Z</time>
      </trkpt>
      <trkpt lat="28.3477520" lon="-16.5152230">
        <ele>1361.9</ele>
        <time>2020-11-11T15:53:53Z</time>
      </trkpt>
      <trkpt lat="28.3477520" lon="-16.5152230">
        <ele>1361.9</ele>
        <time>2020-11-11T15:53:54Z</time>
      </trkpt>
      <trkpt lat="28.3477250" lon="-16.5152520">
        <ele>1361.9</ele>
        <time>2020-11-11T15:53:55Z</time>
      </trkpt>
      <trkpt lat="28.3477250" lon="-16.5152520">
        <ele>1361.9</ele>
        <time>2020-11-11T15:53:56Z</time>
      </trkpt>
      <trkpt lat="28.3477000" lon="-16.5152870">
        <ele>1362.9</ele>
        <time>2020-11-11T15:53:57Z</time>
      </trkpt>
      <trkpt lat="28.3477000" lon="-16.5152870">
        <ele>1362.9</ele>
        <time>2020-11-11T15:53:58Z</time>
      </trkpt>
      <trkpt lat="28.3476780" lon="-16.5153180">
        <ele>1362.9</ele>
        <time>2020-11-11T15:53:59Z</time>
      </trkpt>
      <trkpt lat="28.3476780" lon="-16.5153180">
        <ele>1362.9</ele>
        <time>2020-11-11T15:54:00Z</time>
      </trkpt>
      <trkpt lat="28.3476470" lon="-16.5153520">
        <ele>1363.9</ele>
        <time>2020-11-11T15:54:01Z</time>
      </trkpt>
      <trkpt lat="28.3476470" lon="-16.5153520">
        <ele>1363.9</ele>
        <time>2020-11-11T15:54:02Z</time>
      </trkpt>
      <trkpt lat="28.3476250" lon="-16.5153820">
        <ele>1363.9</ele>
        <time>2020-11-11T15:54:03Z</time>
      </trkpt>
      <trkpt lat="28.3476250" lon="-16.5153820">
        <ele>1363.9</ele>
        <time>2020-11-11T15:54:04Z</time>
      </trkpt>
      <trkpt lat="28.3475980" lon="-16.5154130">
        <ele>1363.9</ele>
        <time>2020-11-11T15:54:05Z</time>
      </trkpt>
      <trkpt lat="28.3475980" lon="-16.5154130">
        <ele>1363.9</ele>
        <time>2020-11-11T15:54:06Z</time>
      </trkpt>
      <trkpt lat="28.3475730" lon="-16.5154450">
        <ele>1364.9</ele>
        <time>2020-11-11T15:54:07Z</time>
      </trkpt>
      <trkpt lat="28.3475600" lon="-16.5154600">
        <ele>1364.9</ele>
        <time>2020-11-11T15:54:08Z</time>
      </trkpt>
      <trkpt lat="28.3475600" lon="-16.5154600">
        <ele>1364.9</ele>
        <time>2020-11-11T15:54:09Z</time>
      </trkpt>
      <trkpt lat="28.3475320" lon="-16.5154880">
        <ele>1364.9</ele>
        <time>2020-11-11T15:54:10Z</time>
      </trkpt>
      <trkpt lat="28.3475170" lon="-16.5155000">
        <ele>1364.9</ele>
        <time>2020-11-11T15:54:11Z</time>
      </trkpt>
      <trkpt lat="28.3475170" lon="-16.5155000">
        <ele>1364.9</ele>
        <time>2020-11-11T15:54:12Z</time>
      </trkpt>
      <trkpt lat="28.3474880" lon="-16.5155330">
        <ele>1365.9</ele>
        <time>2020-11-11T15:54:13Z</time>
      </trkpt>
      <trkpt lat="28.3474880" lon="-16.5155330">
        <ele>1365.9</ele>
        <time>2020-11-11T15:54:14Z</time>
      </trkpt>
      <trkpt lat="28.3474620" lon="-16.5155630">
        <ele>1365.9</ele>
        <time>2020-11-11T15:54:15Z</time>
      </trkpt>
      <trkpt lat="28.3474620" lon="-16.5155630">
        <ele>1365.9</ele>
        <time>2020-11-11T15:54:16Z</time>
      </trkpt>
      <trkpt lat="28.3474320" lon="-16.5155950">
        <ele>1365.9</ele>
        <time>2020-11-11T15:54:17Z</time>
      </trkpt>
      <trkpt lat="28.3474320" lon="-16.5155950">
        <ele>1365.9</ele>
        <time>2020-11-11T15:54:18Z</time>
      </trkpt>
      <trkpt lat="28.3474050" lon="-16.5156320">
        <ele>1365.9</ele>
        <time>2020-11-11T15:54:19Z</time>
      </trkpt>
      <trkpt lat="28.3474050" lon="-16.5156320">
        <ele>1365.9</ele>
        <time>2020-11-11T15:54:20Z</time>
      </trkpt>
      <trkpt lat="28.3473700" lon="-16.5156630">
        <ele>1365.9</ele>
        <time>2020-11-11T15:54:21Z</time>
      </trkpt>
      <trkpt lat="28.3473580" lon="-16.5156780">
        <ele>1365.9</ele>
        <time>2020-11-11T15:54:22Z</time>
      </trkpt>
      <trkpt lat="28.3473580" lon="-16.5156780">
        <ele>1365.9</ele>
        <time>2020-11-11T15:54:23Z</time>
      </trkpt>
      <trkpt lat="28.3473400" lon="-16.5157120">
        <ele>1365.9</ele>
        <time>2020-11-11T15:54:24Z</time>
      </trkpt>
      <trkpt lat="28.3473400" lon="-16.5157120">
        <ele>1366.9</ele>
        <time>2020-11-11T15:54:25Z</time>
      </trkpt>
      <trkpt lat="28.3473200" lon="-16.5157420">
        <ele>1366.9</ele>
        <time>2020-11-11T15:54:26Z</time>
      </trkpt>
      <trkpt lat="28.3473200" lon="-16.5157420">
        <ele>1366.9</ele>
        <time>2020-11-11T15:54:27Z</time>
      </trkpt>
      <trkpt lat="28.3472930" lon="-16.5157730">
        <ele>1366.9</ele>
        <time>2020-11-11T15:54:28Z</time>
      </trkpt>
      <trkpt lat="28.3472930" lon="-16.5157730">
        <ele>1366.9</ele>
        <time>2020-11-11T15:54:29Z</time>
      </trkpt>
      <trkpt lat="28.3472680" lon="-16.5158030">
        <ele>1367.9</ele>
        <time>2020-11-11T15:54:30Z</time>
      </trkpt>
      <trkpt lat="28.3472570" lon="-16.5158200">
        <ele>1367.9</ele>
        <time>2020-11-11T15:54:31Z</time>
      </trkpt>
      <trkpt lat="28.3472570" lon="-16.5158200">
        <ele>1367.9</ele>
        <time>2020-11-11T15:54:32Z</time>
      </trkpt>
      <trkpt lat="28.3472370" lon="-16.5158500">
        <ele>1367.9</ele>
        <time>2020-11-11T15:54:33Z</time>
      </trkpt>
      <trkpt lat="28.3472370" lon="-16.5158500">
        <ele>1367.9</ele>
        <time>2020-11-11T15:54:34Z</time>
      </trkpt>
      <trkpt lat="28.3472130" lon="-16.5158780">
        <ele>1367.9</ele>
        <time>2020-11-11T15:54:35Z</time>
      </trkpt>
      <trkpt lat="28.3472130" lon="-16.5158780">
        <ele>1368.9</ele>
        <time>2020-11-11T15:54:36Z</time>
      </trkpt>
      <trkpt lat="28.3471870" lon="-16.5159070">
        <ele>1368.9</ele>
        <time>2020-11-11T15:54:37Z</time>
      </trkpt>
      <trkpt lat="28.3471870" lon="-16.5159070">
        <ele>1368.9</ele>
        <time>2020-11-11T15:54:38Z</time>
      </trkpt>
      <trkpt lat="28.3471620" lon="-16.5159380">
        <ele>1368.9</ele>
        <time>2020-11-11T15:54:39Z</time>
      </trkpt>
      <trkpt lat="28.3471620" lon="-16.5159380">
        <ele>1368.9</ele>
        <time>2020-11-11T15:54:40Z</time>
      </trkpt>
      <trkpt lat="28.3471280" lon="-16.5159650">
        <ele>1368.9</ele>
        <time>2020-11-11T15:54:41Z</time>
      </trkpt>
      <trkpt lat="28.3471280" lon="-16.5159650">
        <ele>1369.9</ele>
        <time>2020-11-11T15:54:42Z</time>
      </trkpt>
      <trkpt lat="28.3471070" lon="-16.5159970">
        <ele>1369.9</ele>
        <time>2020-11-11T15:54:43Z</time>
      </trkpt>
      <trkpt lat="28.3471070" lon="-16.5159970">
        <ele>1369.9</ele>
        <time>2020-11-11T15:54:44Z</time>
      </trkpt>
      <trkpt lat="28.3470830" lon="-16.5160280">
        <ele>1369.9</ele>
        <time>2020-11-11T15:54:45Z</time>
      </trkpt>
      <trkpt lat="28.3470830" lon="-16.5160280">
        <ele>1369.9</ele>
        <time>2020-11-11T15:54:46Z</time>
      </trkpt>
      <trkpt lat="28.3470600" lon="-16.5160620">
        <ele>1369.9</ele>
        <time>2020-11-11T15:54:47Z</time>
      </trkpt>
      <trkpt lat="28.3470600" lon="-16.5160620">
        <ele>1370.9</ele>
        <time>2020-11-11T15:54:48Z</time>
      </trkpt>
      <trkpt lat="28.3470330" lon="-16.5160980">
        <ele>1370.9</ele>
        <time>2020-11-11T15:54:49Z</time>
      </trkpt>
      <trkpt lat="28.3470200" lon="-16.5161150">
        <ele>1370.9</ele>
        <time>2020-11-11T15:54:50Z</time>
      </trkpt>
      <trkpt lat="28.3470080" lon="-16.5161350">
        <ele>1370.9</ele>
        <time>2020-11-11T15:54:51Z</time>
      </trkpt>
      <trkpt lat="28.3470080" lon="-16.5161350">
        <ele>1370.9</ele>
        <time>2020-11-11T15:54:52Z</time>
      </trkpt>
      <trkpt lat="28.3469830" lon="-16.5161680">
        <ele>1370.9</ele>
        <time>2020-11-11T15:54:53Z</time>
      </trkpt>
      <trkpt lat="28.3469830" lon="-16.5161680">
        <ele>1371.9</ele>
        <time>2020-11-11T15:54:54Z</time>
      </trkpt>
      <trkpt lat="28.3469570" lon="-16.5161970">
        <ele>1371.9</ele>
        <time>2020-11-11T15:54:55Z</time>
      </trkpt>
      <trkpt lat="28.3469420" lon="-16.5162150">
        <ele>1371.9</ele>
        <time>2020-11-11T15:54:56Z</time>
      </trkpt>
      <trkpt lat="28.3469420" lon="-16.5162150">
        <ele>1371.9</ele>
        <time>2020-11-11T15:54:57Z</time>
      </trkpt>
      <trkpt lat="28.3469100" lon="-16.5162470">
        <ele>1371.9</ele>
        <time>2020-11-11T15:54:58Z</time>
      </trkpt>
      <trkpt lat="28.3468950" lon="-16.5162630">
        <ele>1371.9</ele>
        <time>2020-11-11T15:54:59Z</time>
      </trkpt>
      <trkpt lat="28.3468950" lon="-16.5162630">
        <ele>1371.9</ele>
        <time>2020-11-11T15:55:00Z</time>
      </trkpt>
      <trkpt lat="28.3468680" lon="-16.5162980">
        <ele>1371.9</ele>
        <time>2020-11-11T15:55:01Z</time>
      </trkpt>
      <trkpt lat="28.3468680" lon="-16.5162980">
        <ele>1372.9</ele>
        <time>2020-11-11T15:55:02Z</time>
      </trkpt>
      <trkpt lat="28.3468380" lon="-16.5163400">
        <ele>1372.9</ele>
        <time>2020-11-11T15:55:03Z</time>
      </trkpt>
      <trkpt lat="28.3468380" lon="-16.5163400">
        <ele>1372.9</ele>
        <time>2020-11-11T15:55:04Z</time>
      </trkpt>
      <trkpt lat="28.3468120" lon="-16.5163770">
        <ele>1373.9</ele>
        <time>2020-11-11T15:55:05Z</time>
      </trkpt>
      <trkpt lat="28.3468120" lon="-16.5163770">
        <ele>1373.9</ele>
        <time>2020-11-11T15:55:06Z</time>
      </trkpt>
      <trkpt lat="28.3467830" lon="-16.5164170">
        <ele>1373.9</ele>
        <time>2020-11-11T15:55:07Z</time>
      </trkpt>
      <trkpt lat="28.3467830" lon="-16.5164170">
        <ele>1373.9</ele>
        <time>2020-11-11T15:55:08Z</time>
      </trkpt>
      <trkpt lat="28.3467620" lon="-16.5164570">
        <ele>1374.9</ele>
        <time>2020-11-11T15:55:09Z</time>
      </trkpt>
      <trkpt lat="28.3467620" lon="-16.5164570">
        <ele>1374.9</ele>
        <time>2020-11-11T15:55:10Z</time>
      </trkpt>
      <trkpt lat="28.3467350" lon="-16.5164870">
        <ele>1374.9</ele>
        <time>2020-11-11T15:55:11Z</time>
      </trkpt>
      <trkpt lat="28.3467350" lon="-16.5164870">
        <ele>1374.9</ele>
        <time>2020-11-11T15:55:12Z</time>
      </trkpt>
      <trkpt lat="28.3467200" lon="-16.5165270">
        <ele>1374.9</ele>
        <time>2020-11-11T15:55:13Z</time>
      </trkpt>
      <trkpt lat="28.3467200" lon="-16.5165270">
        <ele>1374.9</ele>
        <time>2020-11-11T15:55:14Z</time>
      </trkpt>
      <trkpt lat="28.3467050" lon="-16.5165630">
        <ele>1374.9</ele>
        <time>2020-11-11T15:55:15Z</time>
      </trkpt>
      <trkpt lat="28.3467050" lon="-16.5165630">
        <ele>1374.9</ele>
        <time>2020-11-11T15:55:16Z</time>
      </trkpt>
      <trkpt lat="28.3467000" lon="-16.5166030">
        <ele>1374.9</ele>
        <time>2020-11-11T15:55:17Z</time>
      </trkpt>
      <trkpt lat="28.3467000" lon="-16.5166030">
        <ele>1374.9</ele>
        <time>2020-11-11T15:55:18Z</time>
      </trkpt>
      <trkpt lat="28.3466900" lon="-16.5166450">
        <ele>1374.9</ele>
        <time>2020-11-11T15:55:19Z</time>
      </trkpt>
      <trkpt lat="28.3466900" lon="-16.5166450">
        <ele>1374.9</ele>
        <time>2020-11-11T15:55:20Z</time>
      </trkpt>
      <trkpt lat="28.3466780" lon="-16.5166820">
        <ele>1375.9</ele>
        <time>2020-11-11T15:55:21Z</time>
      </trkpt>
      <trkpt lat="28.3466770" lon="-16.5167030">
        <ele>1375.9</ele>
        <time>2020-11-11T15:55:22Z</time>
      </trkpt>
      <trkpt lat="28.3466770" lon="-16.5167030">
        <ele>1375.9</ele>
        <time>2020-11-11T15:55:23Z</time>
      </trkpt>
      <trkpt lat="28.3466680" lon="-16.5167480">
        <ele>1375.9</ele>
        <time>2020-11-11T15:55:24Z</time>
      </trkpt>
      <trkpt lat="28.3466650" lon="-16.5167680">
        <ele>1375.9</ele>
        <time>2020-11-11T15:55:25Z</time>
      </trkpt>
      <trkpt lat="28.3466650" lon="-16.5167680">
        <ele>1375.9</ele>
        <time>2020-11-11T15:55:26Z</time>
      </trkpt>
      <trkpt lat="28.3466600" lon="-16.5168120">
        <ele>1376.9</ele>
        <time>2020-11-11T15:55:27Z</time>
      </trkpt>
      <trkpt lat="28.3466550" lon="-16.5168330">
        <ele>1376.9</ele>
        <time>2020-11-11T15:55:28Z</time>
      </trkpt>
      <trkpt lat="28.3466550" lon="-16.5168330">
        <ele>1376.9</ele>
        <time>2020-11-11T15:55:29Z</time>
      </trkpt>
      <trkpt lat="28.3466480" lon="-16.5168770">
        <ele>1376.9</ele>
        <time>2020-11-11T15:55:30Z</time>
      </trkpt>
      <trkpt lat="28.3466480" lon="-16.5169000">
        <ele>1376.9</ele>
        <time>2020-11-11T15:55:31Z</time>
      </trkpt>
      <trkpt lat="28.3466480" lon="-16.5169000">
        <ele>1376.9</ele>
        <time>2020-11-11T15:55:32Z</time>
      </trkpt>
      <trkpt lat="28.3466450" lon="-16.5169420">
        <ele>1376.9</ele>
        <time>2020-11-11T15:55:33Z</time>
      </trkpt>
      <trkpt lat="28.3466450" lon="-16.5169420">
        <ele>1376.9</ele>
        <time>2020-11-11T15:55:34Z</time>
      </trkpt>
      <trkpt lat="28.3466370" lon="-16.5169850">
        <ele>1377.9</ele>
        <time>2020-11-11T15:55:35Z</time>
      </trkpt>
      <trkpt lat="28.3466370" lon="-16.5169850">
        <ele>1377.9</ele>
        <time>2020-11-11T15:55:36Z</time>
      </trkpt>
      <trkpt lat="28.3466330" lon="-16.5170320">
        <ele>1377.9</ele>
        <time>2020-11-11T15:55:37Z</time>
      </trkpt>
      <trkpt lat="28.3466330" lon="-16.5170320">
        <ele>1377.9</ele>
        <time>2020-11-11T15:55:38Z</time>
      </trkpt>
      <trkpt lat="28.3466320" lon="-16.5170780">
        <ele>1377.9</ele>
        <time>2020-11-11T15:55:39Z</time>
      </trkpt>
      <trkpt lat="28.3466320" lon="-16.5170780">
        <ele>1377.9</ele>
        <time>2020-11-11T15:55:40Z</time>
      </trkpt>
      <trkpt lat="28.3466220" lon="-16.5171250">
        <ele>1378.9</ele>
        <time>2020-11-11T15:55:41Z</time>
      </trkpt>
      <trkpt lat="28.3466180" lon="-16.5171500">
        <ele>1378.9</ele>
        <time>2020-11-11T15:55:42Z</time>
      </trkpt>
      <trkpt lat="28.3466130" lon="-16.5171730">
        <ele>1378.9</ele>
        <time>2020-11-11T15:55:43Z</time>
      </trkpt>
      <trkpt lat="28.3466130" lon="-16.5171730">
        <ele>1378.9</ele>
        <time>2020-11-11T15:55:44Z</time>
      </trkpt>
      <trkpt lat="28.3466070" lon="-16.5172180">
        <ele>1378.9</ele>
        <time>2020-11-11T15:55:45Z</time>
      </trkpt>
      <trkpt lat="28.3466000" lon="-16.5172400">
        <ele>1378.9</ele>
        <time>2020-11-11T15:55:46Z</time>
      </trkpt>
      <trkpt lat="28.3466000" lon="-16.5172400">
        <ele>1378.9</ele>
        <time>2020-11-11T15:55:47Z</time>
      </trkpt>
      <trkpt lat="28.3465920" lon="-16.5172830">
        <ele>1378.9</ele>
        <time>2020-11-11T15:55:48Z</time>
      </trkpt>
      <trkpt lat="28.3465920" lon="-16.5172830">
        <ele>1378.9</ele>
        <time>2020-11-11T15:55:49Z</time>
      </trkpt>
      <trkpt lat="28.3465820" lon="-16.5173250">
        <ele>1379.9</ele>
        <time>2020-11-11T15:55:50Z</time>
      </trkpt>
      <trkpt lat="28.3465820" lon="-16.5173250">
        <ele>1379.9</ele>
        <time>2020-11-11T15:55:51Z</time>
      </trkpt>
      <trkpt lat="28.3465730" lon="-16.5173700">
        <ele>1379.9</ele>
        <time>2020-11-11T15:55:52Z</time>
      </trkpt>
      <trkpt lat="28.3465730" lon="-16.5173700">
        <ele>1379.9</ele>
        <time>2020-11-11T15:55:53Z</time>
      </trkpt>
      <trkpt lat="28.3465650" lon="-16.5174150">
        <ele>1379.9</ele>
        <time>2020-11-11T15:55:54Z</time>
      </trkpt>
      <trkpt lat="28.3465650" lon="-16.5174150">
        <ele>1379.9</ele>
        <time>2020-11-11T15:55:55Z</time>
      </trkpt>
      <trkpt lat="28.3465580" lon="-16.5174580">
        <ele>1380.9</ele>
        <time>2020-11-11T15:55:56Z</time>
      </trkpt>
      <trkpt lat="28.3465550" lon="-16.5174800">
        <ele>1380.9</ele>
        <time>2020-11-11T15:55:57Z</time>
      </trkpt>
      <trkpt lat="28.3465550" lon="-16.5174800">
        <ele>1380.9</ele>
        <time>2020-11-11T15:55:58Z</time>
      </trkpt>
      <trkpt lat="28.3465450" lon="-16.5175250">
        <ele>1380.9</ele>
        <time>2020-11-11T15:55:59Z</time>
      </trkpt>
      <trkpt lat="28.3465450" lon="-16.5175250">
        <ele>1380.9</ele>
        <time>2020-11-11T15:56:00Z</time>
      </trkpt>
      <trkpt lat="28.3465350" lon="-16.5175700">
        <ele>1380.9</ele>
        <time>2020-11-11T15:56:01Z</time>
      </trkpt>
      <trkpt lat="28.3465300" lon="-16.5175900">
        <ele>1381.9</ele>
        <time>2020-11-11T15:56:02Z</time>
      </trkpt>
      <trkpt lat="28.3465300" lon="-16.5175900">
        <ele>1381.9</ele>
        <time>2020-11-11T15:56:03Z</time>
      </trkpt>
      <trkpt lat="28.3465200" lon="-16.5176370">
        <ele>1381.9</ele>
        <time>2020-11-11T15:56:04Z</time>
      </trkpt>
      <trkpt lat="28.3465200" lon="-16.5176370">
        <ele>1381.9</ele>
        <time>2020-11-11T15:56:05Z</time>
      </trkpt>
      <trkpt lat="28.3465120" lon="-16.5176750">
        <ele>1382.9</ele>
        <time>2020-11-11T15:56:06Z</time>
      </trkpt>
      <trkpt lat="28.3465150" lon="-16.5176980">
        <ele>1382.9</ele>
        <time>2020-11-11T15:56:07Z</time>
      </trkpt>
      <trkpt lat="28.3465150" lon="-16.5176980">
        <ele>1382.9</ele>
        <time>2020-11-11T15:56:08Z</time>
      </trkpt>
      <trkpt lat="28.3465100" lon="-16.5177450">
        <ele>1382.9</ele>
        <time>2020-11-11T15:56:09Z</time>
      </trkpt>
      <trkpt lat="28.3465100" lon="-16.5177450">
        <ele>1382.9</ele>
        <time>2020-11-11T15:56:10Z</time>
      </trkpt>
      <trkpt lat="28.3464970" lon="-16.5177920">
        <ele>1382.9</ele>
        <time>2020-11-11T15:56:11Z</time>
      </trkpt>
      <trkpt lat="28.3464920" lon="-16.5178120">
        <ele>1382.9</ele>
        <time>2020-11-11T15:56:12Z</time>
      </trkpt>
      <trkpt lat="28.3464870" lon="-16.5178320">
        <ele>1382.9</ele>
        <time>2020-11-11T15:56:13Z</time>
      </trkpt>
      <trkpt lat="28.3464870" lon="-16.5178320">
        <ele>1383.9</ele>
        <time>2020-11-11T15:56:14Z</time>
      </trkpt>
      <trkpt lat="28.3464730" lon="-16.5178680">
        <ele>1383.9</ele>
        <time>2020-11-11T15:56:15Z</time>
      </trkpt>
      <trkpt lat="28.3464670" lon="-16.5178870">
        <ele>1383.9</ele>
        <time>2020-11-11T15:56:16Z</time>
      </trkpt>
      <trkpt lat="28.3464670" lon="-16.5178870">
        <ele>1383.9</ele>
        <time>2020-11-11T15:56:17Z</time>
      </trkpt>
      <trkpt lat="28.3464550" lon="-16.5179250">
        <ele>1383.9</ele>
        <time>2020-11-11T15:56:18Z</time>
      </trkpt>
      <trkpt lat="28.3464550" lon="-16.5179250">
        <ele>1383.9</ele>
        <time>2020-11-11T15:56:19Z</time>
      </trkpt>
      <trkpt lat="28.3464420" lon="-16.5179620">
        <ele>1383.9</ele>
        <time>2020-11-11T15:56:20Z</time>
      </trkpt>
      <trkpt lat="28.3464320" lon="-16.5179770">
        <ele>1384.9</ele>
        <time>2020-11-11T15:56:21Z</time>
      </trkpt>
      <trkpt lat="28.3464320" lon="-16.5179770">
        <ele>1384.9</ele>
        <time>2020-11-11T15:56:22Z</time>
      </trkpt>
      <trkpt lat="28.3464180" lon="-16.5180150">
        <ele>1384.9</ele>
        <time>2020-11-11T15:56:23Z</time>
      </trkpt>
      <trkpt lat="28.3464180" lon="-16.5180150">
        <ele>1384.9</ele>
        <time>2020-11-11T15:56:24Z</time>
      </trkpt>
      <trkpt lat="28.3464000" lon="-16.5180500">
        <ele>1384.9</ele>
        <time>2020-11-11T15:56:25Z</time>
      </trkpt>
      <trkpt lat="28.3464000" lon="-16.5180500">
        <ele>1384.9</ele>
        <time>2020-11-11T15:56:26Z</time>
      </trkpt>
      <trkpt lat="28.3463780" lon="-16.5180870">
        <ele>1385.9</ele>
        <time>2020-11-11T15:56:27Z</time>
      </trkpt>
      <trkpt lat="28.3463780" lon="-16.5180870">
        <ele>1385.9</ele>
        <time>2020-11-11T15:56:28Z</time>
      </trkpt>
      <trkpt lat="28.3463550" lon="-16.5181250">
        <ele>1385.9</ele>
        <time>2020-11-11T15:56:29Z</time>
      </trkpt>
      <trkpt lat="28.3463420" lon="-16.5181400">
        <ele>1385.9</ele>
        <time>2020-11-11T15:56:30Z</time>
      </trkpt>
      <trkpt lat="28.3463420" lon="-16.5181400">
        <ele>1385.9</ele>
        <time>2020-11-11T15:56:31Z</time>
      </trkpt>
      <trkpt lat="28.3463180" lon="-16.5181730">
        <ele>1385.9</ele>
        <time>2020-11-11T15:56:32Z</time>
      </trkpt>
      <trkpt lat="28.3463180" lon="-16.5181730">
        <ele>1385.9</ele>
        <time>2020-11-11T15:56:33Z</time>
      </trkpt>
      <trkpt lat="28.3462930" lon="-16.5182030">
        <ele>1385.9</ele>
        <time>2020-11-11T15:56:34Z</time>
      </trkpt>
      <trkpt lat="28.3462930" lon="-16.5182030">
        <ele>1386.9</ele>
        <time>2020-11-11T15:56:35Z</time>
      </trkpt>
      <trkpt lat="28.3462680" lon="-16.5182380">
        <ele>1386.9</ele>
        <time>2020-11-11T15:56:36Z</time>
      </trkpt>
      <trkpt lat="28.3462550" lon="-16.5182550">
        <ele>1386.9</ele>
        <time>2020-11-11T15:56:37Z</time>
      </trkpt>
      <trkpt lat="28.3462550" lon="-16.5182550">
        <ele>1386.9</ele>
        <time>2020-11-11T15:56:38Z</time>
      </trkpt>
      <trkpt lat="28.3462250" lon="-16.5182880">
        <ele>1387.9</ele>
        <time>2020-11-11T15:56:39Z</time>
      </trkpt>
      <trkpt lat="28.3462250" lon="-16.5182880">
        <ele>1387.9</ele>
        <time>2020-11-11T15:56:40Z</time>
      </trkpt>
      <trkpt lat="28.3461920" lon="-16.5183220">
        <ele>1387.9</ele>
        <time>2020-11-11T15:56:41Z</time>
      </trkpt>
      <trkpt lat="28.3461920" lon="-16.5183220">
        <ele>1387.9</ele>
        <time>2020-11-11T15:56:42Z</time>
      </trkpt>
      <trkpt lat="28.3461630" lon="-16.5183520">
        <ele>1387.9</ele>
        <time>2020-11-11T15:56:43Z</time>
      </trkpt>
      <trkpt lat="28.3461630" lon="-16.5183520">
        <ele>1387.9</ele>
        <time>2020-11-11T15:56:44Z</time>
      </trkpt>
      <trkpt lat="28.3461320" lon="-16.5183870">
        <ele>1387.9</ele>
        <time>2020-11-11T15:56:45Z</time>
      </trkpt>
      <trkpt lat="28.3461180" lon="-16.5184050">
        <ele>1387.9</ele>
        <time>2020-11-11T15:56:46Z</time>
      </trkpt>
      <trkpt lat="28.3461180" lon="-16.5184050">
        <ele>1387.9</ele>
        <time>2020-11-11T15:56:47Z</time>
      </trkpt>
      <trkpt lat="28.3460930" lon="-16.5184370">
        <ele>1387.9</ele>
        <time>2020-11-11T15:56:48Z</time>
      </trkpt>
      <trkpt lat="28.3460930" lon="-16.5184370">
        <ele>1387.9</ele>
        <time>2020-11-11T15:56:49Z</time>
      </trkpt>
      <trkpt lat="28.3460600" lon="-16.5184650">
        <ele>1387.9</ele>
        <time>2020-11-11T15:56:50Z</time>
      </trkpt>
      <trkpt lat="28.3460600" lon="-16.5184650">
        <ele>1388.9</ele>
        <time>2020-11-11T15:56:51Z</time>
      </trkpt>
      <trkpt lat="28.3460350" lon="-16.5184950">
        <ele>1388.9</ele>
        <time>2020-11-11T15:56:52Z</time>
      </trkpt>
      <trkpt lat="28.3460350" lon="-16.5184950">
        <ele>1388.9</ele>
        <time>2020-11-11T15:56:53Z</time>
      </trkpt>
      <trkpt lat="28.3460080" lon="-16.5185270">
        <ele>1388.9</ele>
        <time>2020-11-11T15:56:54Z</time>
      </trkpt>
      <trkpt lat="28.3460080" lon="-16.5185270">
        <ele>1388.9</ele>
        <time>2020-11-11T15:56:55Z</time>
      </trkpt>
      <trkpt lat="28.3459850" lon="-16.5185580">
        <ele>1388.9</ele>
        <time>2020-11-11T15:56:56Z</time>
      </trkpt>
      <trkpt lat="28.3459850" lon="-16.5185580">
        <ele>1388.9</ele>
        <time>2020-11-11T15:56:57Z</time>
      </trkpt>
      <trkpt lat="28.3459580" lon="-16.5185930">
        <ele>1389.9</ele>
        <time>2020-11-11T15:56:58Z</time>
      </trkpt>
      <trkpt lat="28.3459580" lon="-16.5185930">
        <ele>1389.9</ele>
        <time>2020-11-11T15:56:59Z</time>
      </trkpt>
      <trkpt lat="28.3459330" lon="-16.5186280">
        <ele>1389.9</ele>
        <time>2020-11-11T15:57:00Z</time>
      </trkpt>
      <trkpt lat="28.3459220" lon="-16.5186430">
        <ele>1389.9</ele>
        <time>2020-11-11T15:57:01Z</time>
      </trkpt>
      <trkpt lat="28.3459220" lon="-16.5186430">
        <ele>1389.9</ele>
        <time>2020-11-11T15:57:02Z</time>
      </trkpt>
      <trkpt lat="28.3458930" lon="-16.5186800">
        <ele>1389.9</ele>
        <time>2020-11-11T15:57:03Z</time>
      </trkpt>
      <trkpt lat="28.3458820" lon="-16.5186950">
        <ele>1390.9</ele>
        <time>2020-11-11T15:57:04Z</time>
      </trkpt>
      <trkpt lat="28.3458820" lon="-16.5186950">
        <ele>1390.9</ele>
        <time>2020-11-11T15:57:05Z</time>
      </trkpt>
      <trkpt lat="28.3458600" lon="-16.5187250">
        <ele>1390.9</ele>
        <time>2020-11-11T15:57:06Z</time>
      </trkpt>
      <trkpt lat="28.3458600" lon="-16.5187250">
        <ele>1390.9</ele>
        <time>2020-11-11T15:57:07Z</time>
      </trkpt>
      <trkpt lat="28.3458320" lon="-16.5187600">
        <ele>1391.9</ele>
        <time>2020-11-11T15:57:08Z</time>
      </trkpt>
      <trkpt lat="28.3458170" lon="-16.5187800">
        <ele>1391.9</ele>
        <time>2020-11-11T15:57:09Z</time>
      </trkpt>
      <trkpt lat="28.3458170" lon="-16.5187800">
        <ele>1391.9</ele>
        <time>2020-11-11T15:57:10Z</time>
      </trkpt>
      <trkpt lat="28.3457930" lon="-16.5188080">
        <ele>1391.9</ele>
        <time>2020-11-11T15:57:11Z</time>
      </trkpt>
      <trkpt lat="28.3457930" lon="-16.5188080">
        <ele>1391.9</ele>
        <time>2020-11-11T15:57:12Z</time>
      </trkpt>
      <trkpt lat="28.3457720" lon="-16.5188420">
        <ele>1391.9</ele>
        <time>2020-11-11T15:57:13Z</time>
      </trkpt>
      <trkpt lat="28.3457720" lon="-16.5188420">
        <ele>1391.9</ele>
        <time>2020-11-11T15:57:14Z</time>
      </trkpt>
      <trkpt lat="28.3457450" lon="-16.5188800">
        <ele>1392.9</ele>
        <time>2020-11-11T15:57:15Z</time>
      </trkpt>
      <trkpt lat="28.3457280" lon="-16.5188980">
        <ele>1392.9</ele>
        <time>2020-11-11T15:57:16Z</time>
      </trkpt>
      <trkpt lat="28.3457280" lon="-16.5188980">
        <ele>1392.9</ele>
        <time>2020-11-11T15:57:17Z</time>
      </trkpt>
      <trkpt lat="28.3457030" lon="-16.5189230">
        <ele>1392.9</ele>
        <time>2020-11-11T15:57:18Z</time>
      </trkpt>
      <trkpt lat="28.3457030" lon="-16.5189230">
        <ele>1392.9</ele>
        <time>2020-11-11T15:57:19Z</time>
      </trkpt>
      <trkpt lat="28.3456820" lon="-16.5189530">
        <ele>1392.9</ele>
        <time>2020-11-11T15:57:20Z</time>
      </trkpt>
      <trkpt lat="28.3456820" lon="-16.5189530">
        <ele>1392.9</ele>
        <time>2020-11-11T15:57:21Z</time>
      </trkpt>
      <trkpt lat="28.3456600" lon="-16.5189830">
        <ele>1392.9</ele>
        <time>2020-11-11T15:57:22Z</time>
      </trkpt>
      <trkpt lat="28.3456600" lon="-16.5189830">
        <ele>1392.9</ele>
        <time>2020-11-11T15:57:23Z</time>
      </trkpt>
      <trkpt lat="28.3456400" lon="-16.5190170">
        <ele>1392.9</ele>
        <time>2020-11-11T15:57:24Z</time>
      </trkpt>
      <trkpt lat="28.3456330" lon="-16.5190330">
        <ele>1392.9</ele>
        <time>2020-11-11T15:57:25Z</time>
      </trkpt>
      <trkpt lat="28.3456330" lon="-16.5190330">
        <ele>1392.9</ele>
        <time>2020-11-11T15:57:26Z</time>
      </trkpt>
      <trkpt lat="28.3456180" lon="-16.5190720">
        <ele>1393.9</ele>
        <time>2020-11-11T15:57:27Z</time>
      </trkpt>
      <trkpt lat="28.3456130" lon="-16.5190930">
        <ele>1393.9</ele>
        <time>2020-11-11T15:57:28Z</time>
      </trkpt>
      <trkpt lat="28.3456130" lon="-16.5190930">
        <ele>1393.9</ele>
        <time>2020-11-11T15:57:29Z</time>
      </trkpt>
      <trkpt lat="28.3456030" lon="-16.5191280">
        <ele>1393.9</ele>
        <time>2020-11-11T15:57:30Z</time>
      </trkpt>
      <trkpt lat="28.3456030" lon="-16.5191280">
        <ele>1393.9</ele>
        <time>2020-11-11T15:57:31Z</time>
      </trkpt>
      <trkpt lat="28.3455870" lon="-16.5191650">
        <ele>1394.9</ele>
        <time>2020-11-11T15:57:32Z</time>
      </trkpt>
      <trkpt lat="28.3455870" lon="-16.5191650">
        <ele>1394.9</ele>
        <time>2020-11-11T15:57:33Z</time>
      </trkpt>
      <trkpt lat="28.3455700" lon="-16.5192000">
        <ele>1394.9</ele>
        <time>2020-11-11T15:57:34Z</time>
      </trkpt>
      <trkpt lat="28.3455700" lon="-16.5192000">
        <ele>1394.9</ele>
        <time>2020-11-11T15:57:35Z</time>
      </trkpt>
      <trkpt lat="28.3455580" lon="-16.5192370">
        <ele>1394.9</ele>
        <time>2020-11-11T15:57:36Z</time>
      </trkpt>
      <trkpt lat="28.3455580" lon="-16.5192370">
        <ele>1394.9</ele>
        <time>2020-11-11T15:57:37Z</time>
      </trkpt>
      <trkpt lat="28.3455420" lon="-16.5192730">
        <ele>1395.9</ele>
        <time>2020-11-11T15:57:38Z</time>
      </trkpt>
      <trkpt lat="28.3455420" lon="-16.5192730">
        <ele>1395.9</ele>
        <time>2020-11-11T15:57:39Z</time>
      </trkpt>
      <trkpt lat="28.3455220" lon="-16.5193070">
        <ele>1395.9</ele>
        <time>2020-11-11T15:57:40Z</time>
      </trkpt>
      <trkpt lat="28.3455220" lon="-16.5193070">
        <ele>1395.9</ele>
        <time>2020-11-11T15:57:41Z</time>
      </trkpt>
      <trkpt lat="28.3454970" lon="-16.5193430">
        <ele>1395.9</ele>
        <time>2020-11-11T15:57:42Z</time>
      </trkpt>
      <trkpt lat="28.3454870" lon="-16.5193650">
        <ele>1395.9</ele>
        <time>2020-11-11T15:57:43Z</time>
      </trkpt>
      <trkpt lat="28.3454870" lon="-16.5193650">
        <ele>1396.9</ele>
        <time>2020-11-11T15:57:44Z</time>
      </trkpt>
      <trkpt lat="28.3454720" lon="-16.5194030">
        <ele>1396.9</ele>
        <time>2020-11-11T15:57:45Z</time>
      </trkpt>
      <trkpt lat="28.3454720" lon="-16.5194030">
        <ele>1396.9</ele>
        <time>2020-11-11T15:57:46Z</time>
      </trkpt>
      <trkpt lat="28.3454600" lon="-16.5194420">
        <ele>1396.9</ele>
        <time>2020-11-11T15:57:47Z</time>
      </trkpt>
      <trkpt lat="28.3454600" lon="-16.5194420">
        <ele>1396.9</ele>
        <time>2020-11-11T15:57:48Z</time>
      </trkpt>
      <trkpt lat="28.3454470" lon="-16.5194820">
        <ele>1396.9</ele>
        <time>2020-11-11T15:57:49Z</time>
      </trkpt>
      <trkpt lat="28.3454470" lon="-16.5194820">
        <ele>1396.9</ele>
        <time>2020-11-11T15:57:50Z</time>
      </trkpt>
      <trkpt lat="28.3454280" lon="-16.5195220">
        <ele>1396.9</ele>
        <time>2020-11-11T15:57:51Z</time>
      </trkpt>
      <trkpt lat="28.3454180" lon="-16.5195420">
        <ele>1397.9</ele>
        <time>2020-11-11T15:57:52Z</time>
      </trkpt>
      <trkpt lat="28.3454180" lon="-16.5195420">
        <ele>1397.9</ele>
        <time>2020-11-11T15:57:53Z</time>
      </trkpt>
      <trkpt lat="28.3454020" lon="-16.5195780">
        <ele>1397.9</ele>
        <time>2020-11-11T15:57:54Z</time>
      </trkpt>
      <trkpt lat="28.3453900" lon="-16.5195950">
        <ele>1397.9</ele>
        <time>2020-11-11T15:57:55Z</time>
      </trkpt>
      <trkpt lat="28.3453900" lon="-16.5195950">
        <ele>1398.9</ele>
        <time>2020-11-11T15:57:56Z</time>
      </trkpt>
      <trkpt lat="28.3453680" lon="-16.5196320">
        <ele>1398.9</ele>
        <time>2020-11-11T15:57:57Z</time>
      </trkpt>
      <trkpt lat="28.3453680" lon="-16.5196320">
        <ele>1398.9</ele>
        <time>2020-11-11T15:57:58Z</time>
      </trkpt>
      <trkpt lat="28.3453570" lon="-16.5196700">
        <ele>1398.9</ele>
        <time>2020-11-11T15:57:59Z</time>
      </trkpt>
      <trkpt lat="28.3453570" lon="-16.5196700">
        <ele>1398.9</ele>
        <time>2020-11-11T15:58:00Z</time>
      </trkpt>
      <trkpt lat="28.3453380" lon="-16.5197100">
        <ele>1398.9</ele>
        <time>2020-11-11T15:58:01Z</time>
      </trkpt>
      <trkpt lat="28.3453300" lon="-16.5197280">
        <ele>1398.9</ele>
        <time>2020-11-11T15:58:02Z</time>
      </trkpt>
      <trkpt lat="28.3453300" lon="-16.5197280">
        <ele>1398.9</ele>
        <time>2020-11-11T15:58:03Z</time>
      </trkpt>
      <trkpt lat="28.3453130" lon="-16.5197600">
        <ele>1399.9</ele>
        <time>2020-11-11T15:58:04Z</time>
      </trkpt>
      <trkpt lat="28.3453130" lon="-16.5197600">
        <ele>1399.9</ele>
        <time>2020-11-11T15:58:05Z</time>
      </trkpt>
      <trkpt lat="28.3452920" lon="-16.5198000">
        <ele>1399.9</ele>
        <time>2020-11-11T15:58:06Z</time>
      </trkpt>
      <trkpt lat="28.3452920" lon="-16.5198000">
        <ele>1399.9</ele>
        <time>2020-11-11T15:58:07Z</time>
      </trkpt>
      <trkpt lat="28.3452680" lon="-16.5198420">
        <ele>1399.9</ele>
        <time>2020-11-11T15:58:08Z</time>
      </trkpt>
      <trkpt lat="28.3452680" lon="-16.5198420">
        <ele>1399.9</ele>
        <time>2020-11-11T15:58:09Z</time>
      </trkpt>
      <trkpt lat="28.3452450" lon="-16.5198820">
        <ele>1400.9</ele>
        <time>2020-11-11T15:58:10Z</time>
      </trkpt>
      <trkpt lat="28.3452450" lon="-16.5198820">
        <ele>1400.9</ele>
        <time>2020-11-11T15:58:11Z</time>
      </trkpt>
      <trkpt lat="28.3452220" lon="-16.5199180">
        <ele>1400.9</ele>
        <time>2020-11-11T15:58:12Z</time>
      </trkpt>
      <trkpt lat="28.3452120" lon="-16.5199450">
        <ele>1400.9</ele>
        <time>2020-11-11T15:58:13Z</time>
      </trkpt>
      <trkpt lat="28.3452120" lon="-16.5199450">
        <ele>1400.9</ele>
        <time>2020-11-11T15:58:14Z</time>
      </trkpt>
      <trkpt lat="28.3451880" lon="-16.5199770">
        <ele>1400.9</ele>
        <time>2020-11-11T15:58:15Z</time>
      </trkpt>
      <trkpt lat="28.3451880" lon="-16.5199770">
        <ele>1400.9</ele>
        <time>2020-11-11T15:58:16Z</time>
      </trkpt>
      <trkpt lat="28.3451630" lon="-16.5200150">
        <ele>1400.9</ele>
        <time>2020-11-11T15:58:17Z</time>
      </trkpt>
      <trkpt lat="28.3451630" lon="-16.5200150">
        <ele>1400.9</ele>
        <time>2020-11-11T15:58:18Z</time>
      </trkpt>
      <trkpt lat="28.3451430" lon="-16.5200550">
        <ele>1400.9</ele>
        <time>2020-11-11T15:58:19Z</time>
      </trkpt>
      <trkpt lat="28.3451430" lon="-16.5200550">
        <ele>1400.9</ele>
        <time>2020-11-11T15:58:20Z</time>
      </trkpt>
      <trkpt lat="28.3451180" lon="-16.5200930">
        <ele>1400.9</ele>
        <time>2020-11-11T15:58:21Z</time>
      </trkpt>
      <trkpt lat="28.3451080" lon="-16.5201130">
        <ele>1400.9</ele>
        <time>2020-11-11T15:58:22Z</time>
      </trkpt>
      <trkpt lat="28.3451080" lon="-16.5201130">
        <ele>1400.9</ele>
        <time>2020-11-11T15:58:23Z</time>
      </trkpt>
      <trkpt lat="28.3450800" lon="-16.5201530">
        <ele>1400.9</ele>
        <time>2020-11-11T15:58:24Z</time>
      </trkpt>
      <trkpt lat="28.3450800" lon="-16.5201530">
        <ele>1401.9</ele>
        <time>2020-11-11T15:58:25Z</time>
      </trkpt>
      <trkpt lat="28.3450580" lon="-16.5201900">
        <ele>1401.9</ele>
        <time>2020-11-11T15:58:26Z</time>
      </trkpt>
      <trkpt lat="28.3450450" lon="-16.5202080">
        <ele>1401.9</ele>
        <time>2020-11-11T15:58:27Z</time>
      </trkpt>
      <trkpt lat="28.3450450" lon="-16.5202080">
        <ele>1401.9</ele>
        <time>2020-11-11T15:58:28Z</time>
      </trkpt>
      <trkpt lat="28.3450170" lon="-16.5202470">
        <ele>1401.9</ele>
        <time>2020-11-11T15:58:29Z</time>
      </trkpt>
      <trkpt lat="28.3450170" lon="-16.5202470">
        <ele>1401.9</ele>
        <time>2020-11-11T15:58:30Z</time>
      </trkpt>
      <trkpt lat="28.3449870" lon="-16.5202850">
        <ele>1402.9</ele>
        <time>2020-11-11T15:58:31Z</time>
      </trkpt>
      <trkpt lat="28.3449870" lon="-16.5202850">
        <ele>1402.9</ele>
        <time>2020-11-11T15:58:32Z</time>
      </trkpt>
      <trkpt lat="28.3449550" lon="-16.5203250">
        <ele>1402.9</ele>
        <time>2020-11-11T15:58:33Z</time>
      </trkpt>
      <trkpt lat="28.3449550" lon="-16.5203250">
        <ele>1402.9</ele>
        <time>2020-11-11T15:58:34Z</time>
      </trkpt>
      <trkpt lat="28.3449270" lon="-16.5203680">
        <ele>1402.9</ele>
        <time>2020-11-11T15:58:35Z</time>
      </trkpt>
      <trkpt lat="28.3449270" lon="-16.5203680">
        <ele>1402.9</ele>
        <time>2020-11-11T15:58:36Z</time>
      </trkpt>
      <trkpt lat="28.3448970" lon="-16.5204030">
        <ele>1403.9</ele>
        <time>2020-11-11T15:58:37Z</time>
      </trkpt>
      <trkpt lat="28.3448800" lon="-16.5204200">
        <ele>1403.9</ele>
        <time>2020-11-11T15:58:38Z</time>
      </trkpt>
      <trkpt lat="28.3448800" lon="-16.5204200">
        <ele>1403.9</ele>
        <time>2020-11-11T15:58:39Z</time>
      </trkpt>
      <trkpt lat="28.3448470" lon="-16.5204500">
        <ele>1403.9</ele>
        <time>2020-11-11T15:58:40Z</time>
      </trkpt>
      <trkpt lat="28.3448470" lon="-16.5204500">
        <ele>1403.9</ele>
        <time>2020-11-11T15:58:41Z</time>
      </trkpt>
      <trkpt lat="28.3448130" lon="-16.5204820">
        <ele>1404.9</ele>
        <time>2020-11-11T15:58:42Z</time>
      </trkpt>
      <trkpt lat="28.3448130" lon="-16.5204820">
        <ele>1404.9</ele>
        <time>2020-11-11T15:58:43Z</time>
      </trkpt>
      <trkpt lat="28.3447750" lon="-16.5205130">
        <ele>1404.9</ele>
        <time>2020-11-11T15:58:44Z</time>
      </trkpt>
      <trkpt lat="28.3447750" lon="-16.5205130">
        <ele>1404.9</ele>
        <time>2020-11-11T15:58:45Z</time>
      </trkpt>
      <trkpt lat="28.3447380" lon="-16.5205470">
        <ele>1404.9</ele>
        <time>2020-11-11T15:58:46Z</time>
      </trkpt>
      <trkpt lat="28.3447380" lon="-16.5205470">
        <ele>1404.9</ele>
        <time>2020-11-11T15:58:47Z</time>
      </trkpt>
      <trkpt lat="28.3447170" lon="-16.5205770">
        <ele>1404.9</ele>
        <time>2020-11-11T15:58:48Z</time>
      </trkpt>
      <trkpt lat="28.3447170" lon="-16.5205770">
        <ele>1404.9</ele>
        <time>2020-11-11T15:58:49Z</time>
      </trkpt>
      <trkpt lat="28.3446880" lon="-16.5206030">
        <ele>1404.9</ele>
        <time>2020-11-11T15:58:50Z</time>
      </trkpt>
      <trkpt lat="28.3446880" lon="-16.5206030">
        <ele>1404.9</ele>
        <time>2020-11-11T15:58:51Z</time>
      </trkpt>
      <trkpt lat="28.3446550" lon="-16.5206320">
        <ele>1405.9</ele>
        <time>2020-11-11T15:58:52Z</time>
      </trkpt>
      <trkpt lat="28.3446550" lon="-16.5206320">
        <ele>1405.9</ele>
        <time>2020-11-11T15:58:53Z</time>
      </trkpt>
      <trkpt lat="28.3446200" lon="-16.5206530">
        <ele>1405.9</ele>
        <time>2020-11-11T15:58:54Z</time>
      </trkpt>
      <trkpt lat="28.3446200" lon="-16.5206530">
        <ele>1405.9</ele>
        <time>2020-11-11T15:58:55Z</time>
      </trkpt>
      <trkpt lat="28.3445900" lon="-16.5206770">
        <ele>1405.9</ele>
        <time>2020-11-11T15:58:56Z</time>
      </trkpt>
      <trkpt lat="28.3445900" lon="-16.5206770">
        <ele>1405.9</ele>
        <time>2020-11-11T15:58:57Z</time>
      </trkpt>
      <trkpt lat="28.3445600" lon="-16.5207000">
        <ele>1406.9</ele>
        <time>2020-11-11T15:58:58Z</time>
      </trkpt>
      <trkpt lat="28.3445450" lon="-16.5207100">
        <ele>1406.9</ele>
        <time>2020-11-11T15:58:59Z</time>
      </trkpt>
      <trkpt lat="28.3445450" lon="-16.5207100">
        <ele>1406.9</ele>
        <time>2020-11-11T15:59:00Z</time>
      </trkpt>
      <trkpt lat="28.3445120" lon="-16.5207320">
        <ele>1406.9</ele>
        <time>2020-11-11T15:59:01Z</time>
      </trkpt>
      <trkpt lat="28.3445120" lon="-16.5207320">
        <ele>1406.9</ele>
        <time>2020-11-11T15:59:02Z</time>
      </trkpt>
      <trkpt lat="28.3444680" lon="-16.5207580">
        <ele>1406.9</ele>
        <time>2020-11-11T15:59:03Z</time>
      </trkpt>
      <trkpt lat="28.3444680" lon="-16.5207580">
        <ele>1406.9</ele>
        <time>2020-11-11T15:59:04Z</time>
      </trkpt>
      <trkpt lat="28.3444280" lon="-16.5207780">
        <ele>1406.9</ele>
        <time>2020-11-11T15:59:05Z</time>
      </trkpt>
      <trkpt lat="28.3444100" lon="-16.5207900">
        <ele>1406.9</ele>
        <time>2020-11-11T15:59:06Z</time>
      </trkpt>
      <trkpt lat="28.3444100" lon="-16.5207900">
        <ele>1406.9</ele>
        <time>2020-11-11T15:59:07Z</time>
      </trkpt>
      <trkpt lat="28.3443750" lon="-16.5208170">
        <ele>1406.9</ele>
        <time>2020-11-11T15:59:08Z</time>
      </trkpt>
      <trkpt lat="28.3443750" lon="-16.5208170">
        <ele>1406.9</ele>
        <time>2020-11-11T15:59:09Z</time>
      </trkpt>
      <trkpt lat="28.3443380" lon="-16.5208470">
        <ele>1406.9</ele>
        <time>2020-11-11T15:59:10Z</time>
      </trkpt>
      <trkpt lat="28.3443380" lon="-16.5208470">
        <ele>1406.9</ele>
        <time>2020-11-11T15:59:11Z</time>
      </trkpt>
      <trkpt lat="28.3443020" lon="-16.5208800">
        <ele>1407.9</ele>
        <time>2020-11-11T15:59:12Z</time>
      </trkpt>
      <trkpt lat="28.3443020" lon="-16.5208800">
        <ele>1407.9</ele>
        <time>2020-11-11T15:59:13Z</time>
      </trkpt>
      <trkpt lat="28.3442670" lon="-16.5209120">
        <ele>1407.9</ele>
        <time>2020-11-11T15:59:14Z</time>
      </trkpt>
      <trkpt lat="28.3442670" lon="-16.5209120">
        <ele>1407.9</ele>
        <time>2020-11-11T15:59:15Z</time>
      </trkpt>
      <trkpt lat="28.3442200" lon="-16.5209470">
        <ele>1407.9</ele>
        <time>2020-11-11T15:59:16Z</time>
      </trkpt>
      <trkpt lat="28.3442070" lon="-16.5209620">
        <ele>1407.9</ele>
        <time>2020-11-11T15:59:17Z</time>
      </trkpt>
      <trkpt lat="28.3442070" lon="-16.5209620">
        <ele>1407.9</ele>
        <time>2020-11-11T15:59:18Z</time>
      </trkpt>
      <trkpt lat="28.3441880" lon="-16.5209980">
        <ele>1407.9</ele>
        <time>2020-11-11T15:59:19Z</time>
      </trkpt>
      <trkpt lat="28.3441880" lon="-16.5209980">
        <ele>1407.9</ele>
        <time>2020-11-11T15:59:20Z</time>
      </trkpt>
      <trkpt lat="28.3441730" lon="-16.5210420">
        <ele>1408.9</ele>
        <time>2020-11-11T15:59:21Z</time>
      </trkpt>
      <trkpt lat="28.3441730" lon="-16.5210420">
        <ele>1408.9</ele>
        <time>2020-11-11T15:59:22Z</time>
      </trkpt>
      <trkpt lat="28.3441670" lon="-16.5210900">
        <ele>1408.9</ele>
        <time>2020-11-11T15:59:23Z</time>
      </trkpt>
      <trkpt lat="28.3441670" lon="-16.5211150">
        <ele>1408.9</ele>
        <time>2020-11-11T15:59:24Z</time>
      </trkpt>
      <trkpt lat="28.3441650" lon="-16.5211420">
        <ele>1408.9</ele>
        <time>2020-11-11T15:59:25Z</time>
      </trkpt>
      <trkpt lat="28.3441650" lon="-16.5211650">
        <ele>1408.9</ele>
        <time>2020-11-11T15:59:26Z</time>
      </trkpt>
      <trkpt lat="28.3441650" lon="-16.5211650">
        <ele>1409.9</ele>
        <time>2020-11-11T15:59:27Z</time>
      </trkpt>
      <trkpt lat="28.3441630" lon="-16.5212130">
        <ele>1409.9</ele>
        <time>2020-11-11T15:59:28Z</time>
      </trkpt>
      <trkpt lat="28.3441630" lon="-16.5212130">
        <ele>1409.9</ele>
        <time>2020-11-11T15:59:29Z</time>
      </trkpt>
      <trkpt lat="28.3441600" lon="-16.5212630">
        <ele>1409.9</ele>
        <time>2020-11-11T15:59:30Z</time>
      </trkpt>
      <trkpt lat="28.3441580" lon="-16.5212900">
        <ele>1410.9</ele>
        <time>2020-11-11T15:59:31Z</time>
      </trkpt>
      <trkpt lat="28.3441580" lon="-16.5212900">
        <ele>1410.9</ele>
        <time>2020-11-11T15:59:32Z</time>
      </trkpt>
      <trkpt lat="28.3441520" lon="-16.5213380">
        <ele>1410.9</ele>
        <time>2020-11-11T15:59:33Z</time>
      </trkpt>
      <trkpt lat="28.3441520" lon="-16.5213380">
        <ele>1410.9</ele>
        <time>2020-11-11T15:59:34Z</time>
      </trkpt>
      <trkpt lat="28.3441400" lon="-16.5213850">
        <ele>1411.9</ele>
        <time>2020-11-11T15:59:35Z</time>
      </trkpt>
      <trkpt lat="28.3441400" lon="-16.5213850">
        <ele>1411.9</ele>
        <time>2020-11-11T15:59:36Z</time>
      </trkpt>
      <trkpt lat="28.3441230" lon="-16.5214320">
        <ele>1411.9</ele>
        <time>2020-11-11T15:59:37Z</time>
      </trkpt>
      <trkpt lat="28.3441230" lon="-16.5214320">
        <ele>1411.9</ele>
        <time>2020-11-11T15:59:38Z</time>
      </trkpt>
      <trkpt lat="28.3441030" lon="-16.5214770">
        <ele>1411.9</ele>
        <time>2020-11-11T15:59:39Z</time>
      </trkpt>
      <trkpt lat="28.3440950" lon="-16.5215000">
        <ele>1411.9</ele>
        <time>2020-11-11T15:59:40Z</time>
      </trkpt>
      <trkpt lat="28.3440950" lon="-16.5215000">
        <ele>1411.9</ele>
        <time>2020-11-11T15:59:41Z</time>
      </trkpt>
      <trkpt lat="28.3440750" lon="-16.5215420">
        <ele>1411.9</ele>
        <time>2020-11-11T15:59:42Z</time>
      </trkpt>
      <trkpt lat="28.3440630" lon="-16.5215670">
        <ele>1412.9</ele>
        <time>2020-11-11T15:59:43Z</time>
      </trkpt>
      <trkpt lat="28.3440530" lon="-16.5215900">
        <ele>1412.9</ele>
        <time>2020-11-11T15:59:44Z</time>
      </trkpt>
      <trkpt lat="28.3440530" lon="-16.5215900">
        <ele>1412.9</ele>
        <time>2020-11-11T15:59:45Z</time>
      </trkpt>
      <trkpt lat="28.3440300" lon="-16.5216330">
        <ele>1412.9</ele>
        <time>2020-11-11T15:59:46Z</time>
      </trkpt>
      <trkpt lat="28.3440170" lon="-16.5216530">
        <ele>1412.9</ele>
        <time>2020-11-11T15:59:47Z</time>
      </trkpt>
      <trkpt lat="28.3440170" lon="-16.5216530">
        <ele>1412.9</ele>
        <time>2020-11-11T15:59:48Z</time>
      </trkpt>
      <trkpt lat="28.3439980" lon="-16.5216900">
        <ele>1412.9</ele>
        <time>2020-11-11T15:59:49Z</time>
      </trkpt>
      <trkpt lat="28.3439980" lon="-16.5216900">
        <ele>1412.9</ele>
        <time>2020-11-11T15:59:50Z</time>
      </trkpt>
      <trkpt lat="28.3439800" lon="-16.5217280">
        <ele>1413.9</ele>
        <time>2020-11-11T15:59:51Z</time>
      </trkpt>
      <trkpt lat="28.3439800" lon="-16.5217280">
        <ele>1413.9</ele>
        <time>2020-11-11T15:59:52Z</time>
      </trkpt>
      <trkpt lat="28.3439500" lon="-16.5217670">
        <ele>1413.9</ele>
        <time>2020-11-11T15:59:53Z</time>
      </trkpt>
      <trkpt lat="28.3439500" lon="-16.5217670">
        <ele>1414.9</ele>
        <time>2020-11-11T15:59:54Z</time>
      </trkpt>
      <trkpt lat="28.3439250" lon="-16.5218050">
        <ele>1414.9</ele>
        <time>2020-11-11T15:59:55Z</time>
      </trkpt>
      <trkpt lat="28.3439250" lon="-16.5218050">
        <ele>1414.9</ele>
        <time>2020-11-11T15:59:56Z</time>
      </trkpt>
      <trkpt lat="28.3439020" lon="-16.5218420">
        <ele>1414.9</ele>
        <time>2020-11-11T15:59:57Z</time>
      </trkpt>
      <trkpt lat="28.3438880" lon="-16.5218580">
        <ele>1414.9</ele>
        <time>2020-11-11T15:59:58Z</time>
      </trkpt>
      <trkpt lat="28.3438880" lon="-16.5218580">
        <ele>1415.9</ele>
        <time>2020-11-11T15:59:59Z</time>
      </trkpt>
      <trkpt lat="28.3438600" lon="-16.5218950">
        <ele>1415.9</ele>
        <time>2020-11-11T16:00:00Z</time>
      </trkpt>
      <trkpt lat="28.3438600" lon="-16.5218950">
        <ele>1415.9</ele>
        <time>2020-11-11T16:00:01Z</time>
      </trkpt>
      <trkpt lat="28.3438300" lon="-16.5219280">
        <ele>1416.9</ele>
        <time>2020-11-11T16:00:02Z</time>
      </trkpt>
      <trkpt lat="28.3438100" lon="-16.5219380">
        <ele>1416.9</ele>
        <time>2020-11-11T16:00:03Z</time>
      </trkpt>
      <trkpt lat="28.3438100" lon="-16.5219380">
        <ele>1416.9</ele>
        <time>2020-11-11T16:00:04Z</time>
      </trkpt>
      <trkpt lat="28.3437730" lon="-16.5219550">
        <ele>1416.9</ele>
        <time>2020-11-11T16:00:05Z</time>
      </trkpt>
      <trkpt lat="28.3437730" lon="-16.5219550">
        <ele>1417.9</ele>
        <time>2020-11-11T16:00:06Z</time>
      </trkpt>
      <trkpt lat="28.3437330" lon="-16.5219700">
        <ele>1417.9</ele>
        <time>2020-11-11T16:00:07Z</time>
      </trkpt>
      <trkpt lat="28.3437130" lon="-16.5219780">
        <ele>1417.9</ele>
        <time>2020-11-11T16:00:08Z</time>
      </trkpt>
      <trkpt lat="28.3437130" lon="-16.5219780">
        <ele>1417.9</ele>
        <time>2020-11-11T16:00:09Z</time>
      </trkpt>
      <trkpt lat="28.3436770" lon="-16.5219950">
        <ele>1417.9</ele>
        <time>2020-11-11T16:00:10Z</time>
      </trkpt>
      <trkpt lat="28.3436770" lon="-16.5219950">
        <ele>1417.9</ele>
        <time>2020-11-11T16:00:11Z</time>
      </trkpt>
      <trkpt lat="28.3436380" lon="-16.5220120">
        <ele>1417.9</ele>
        <time>2020-11-11T16:00:12Z</time>
      </trkpt>
      <trkpt lat="28.3436380" lon="-16.5220120">
        <ele>1417.9</ele>
        <time>2020-11-11T16:00:13Z</time>
      </trkpt>
      <trkpt lat="28.3436000" lon="-16.5220250">
        <ele>1418.9</ele>
        <time>2020-11-11T16:00:14Z</time>
      </trkpt>
      <trkpt lat="28.3436000" lon="-16.5220250">
        <ele>1418.9</ele>
        <time>2020-11-11T16:00:15Z</time>
      </trkpt>
      <trkpt lat="28.3435620" lon="-16.5220370">
        <ele>1418.9</ele>
        <time>2020-11-11T16:00:16Z</time>
      </trkpt>
      <trkpt lat="28.3435620" lon="-16.5220370">
        <ele>1418.9</ele>
        <time>2020-11-11T16:00:17Z</time>
      </trkpt>
      <trkpt lat="28.3435270" lon="-16.5220500">
        <ele>1418.9</ele>
        <time>2020-11-11T16:00:18Z</time>
      </trkpt>
      <trkpt lat="28.3435070" lon="-16.5220600">
        <ele>1418.9</ele>
        <time>2020-11-11T16:00:19Z</time>
      </trkpt>
      <trkpt lat="28.3435070" lon="-16.5220600">
        <ele>1418.9</ele>
        <time>2020-11-11T16:00:20Z</time>
      </trkpt>
      <trkpt lat="28.3434650" lon="-16.5220730">
        <ele>1419.9</ele>
        <time>2020-11-11T16:00:21Z</time>
      </trkpt>
      <trkpt lat="28.3434650" lon="-16.5220730">
        <ele>1419.9</ele>
        <time>2020-11-11T16:00:22Z</time>
      </trkpt>
      <trkpt lat="28.3434270" lon="-16.5220800">
        <ele>1419.9</ele>
        <time>2020-11-11T16:00:23Z</time>
      </trkpt>
      <trkpt lat="28.3434270" lon="-16.5220800">
        <ele>1419.9</ele>
        <time>2020-11-11T16:00:24Z</time>
      </trkpt>
      <trkpt lat="28.3433800" lon="-16.5220930">
        <ele>1419.9</ele>
        <time>2020-11-11T16:00:25Z</time>
      </trkpt>
      <trkpt lat="28.3433800" lon="-16.5220930">
        <ele>1419.9</ele>
        <time>2020-11-11T16:00:26Z</time>
      </trkpt>
      <trkpt lat="28.3433420" lon="-16.5221020">
        <ele>1419.9</ele>
        <time>2020-11-11T16:00:27Z</time>
      </trkpt>
      <trkpt lat="28.3433420" lon="-16.5221020">
        <ele>1419.9</ele>
        <time>2020-11-11T16:00:28Z</time>
      </trkpt>
      <trkpt lat="28.3433000" lon="-16.5221070">
        <ele>1420.9</ele>
        <time>2020-11-11T16:00:29Z</time>
      </trkpt>
      <trkpt lat="28.3433000" lon="-16.5221070">
        <ele>1420.9</ele>
        <time>2020-11-11T16:00:30Z</time>
      </trkpt>
      <trkpt lat="28.3432570" lon="-16.5221150">
        <ele>1422.9</ele>
        <time>2020-11-11T16:00:31Z</time>
      </trkpt>
      <trkpt lat="28.3432570" lon="-16.5221150">
        <ele>1422.9</ele>
        <time>2020-11-11T16:00:32Z</time>
      </trkpt>
      <trkpt lat="28.3432180" lon="-16.5221250">
        <ele>1422.9</ele>
        <time>2020-11-11T16:00:33Z</time>
      </trkpt>
      <trkpt lat="28.3432180" lon="-16.5221250">
        <ele>1422.9</ele>
        <time>2020-11-11T16:00:34Z</time>
      </trkpt>
      <trkpt lat="28.3431770" lon="-16.5221420">
        <ele>1422.9</ele>
        <time>2020-11-11T16:00:35Z</time>
      </trkpt>
      <trkpt lat="28.3431770" lon="-16.5221420">
        <ele>1422.9</ele>
        <time>2020-11-11T16:00:36Z</time>
      </trkpt>
      <trkpt lat="28.3431380" lon="-16.5221520">
        <ele>1422.9</ele>
        <time>2020-11-11T16:00:37Z</time>
      </trkpt>
      <trkpt lat="28.3431380" lon="-16.5221520">
        <ele>1422.9</ele>
        <time>2020-11-11T16:00:38Z</time>
      </trkpt>
      <trkpt lat="28.3431000" lon="-16.5221580">
        <ele>1422.9</ele>
        <time>2020-11-11T16:00:39Z</time>
      </trkpt>
      <trkpt lat="28.3431000" lon="-16.5221580">
        <ele>1422.9</ele>
        <time>2020-11-11T16:00:40Z</time>
      </trkpt>
      <trkpt lat="28.3430530" lon="-16.5221670">
        <ele>1422.9</ele>
        <time>2020-11-11T16:00:41Z</time>
      </trkpt>
      <trkpt lat="28.3430530" lon="-16.5221670">
        <ele>1422.9</ele>
        <time>2020-11-11T16:00:42Z</time>
      </trkpt>
      <trkpt lat="28.3430100" lon="-16.5221700">
        <ele>1422.9</ele>
        <time>2020-11-11T16:00:43Z</time>
      </trkpt>
      <trkpt lat="28.3430100" lon="-16.5221700">
        <ele>1422.9</ele>
        <time>2020-11-11T16:00:44Z</time>
      </trkpt>
      <trkpt lat="28.3429620" lon="-16.5221870">
        <ele>1422.9</ele>
        <time>2020-11-11T16:00:45Z</time>
      </trkpt>
      <trkpt lat="28.3429620" lon="-16.5221870">
        <ele>1422.9</ele>
        <time>2020-11-11T16:00:46Z</time>
      </trkpt>
      <trkpt lat="28.3429180" lon="-16.5222070">
        <ele>1422.9</ele>
        <time>2020-11-11T16:00:47Z</time>
      </trkpt>
      <trkpt lat="28.3429180" lon="-16.5222070">
        <ele>1422.9</ele>
        <time>2020-11-11T16:00:48Z</time>
      </trkpt>
      <trkpt lat="28.3428820" lon="-16.5222270">
        <ele>1422.9</ele>
        <time>2020-11-11T16:00:49Z</time>
      </trkpt>
      <trkpt lat="28.3428820" lon="-16.5222270">
        <ele>1424.9</ele>
        <time>2020-11-11T16:00:50Z</time>
      </trkpt>
      <trkpt lat="28.3428420" lon="-16.5222380">
        <ele>1424.9</ele>
        <time>2020-11-11T16:00:51Z</time>
      </trkpt>
      <trkpt lat="28.3428420" lon="-16.5222380">
        <ele>1424.9</ele>
        <time>2020-11-11T16:00:52Z</time>
      </trkpt>
      <trkpt lat="28.3428030" lon="-16.5222430">
        <ele>1424.9</ele>
        <time>2020-11-11T16:00:53Z</time>
      </trkpt>
      <trkpt lat="28.3427820" lon="-16.5222470">
        <ele>1424.9</ele>
        <time>2020-11-11T16:00:54Z</time>
      </trkpt>
      <trkpt lat="28.3427820" lon="-16.5222470">
        <ele>1424.9</ele>
        <time>2020-11-11T16:00:55Z</time>
      </trkpt>
      <trkpt lat="28.3427370" lon="-16.5222550">
        <ele>1420.9</ele>
        <time>2020-11-11T16:00:56Z</time>
      </trkpt>
      <trkpt lat="28.3427170" lon="-16.5222620">
        <ele>1420.9</ele>
        <time>2020-11-11T16:00:57Z</time>
      </trkpt>
      <trkpt lat="28.3427170" lon="-16.5222620">
        <ele>1422.9</ele>
        <time>2020-11-11T16:00:58Z</time>
      </trkpt>
      <trkpt lat="28.3426780" lon="-16.5222800">
        <ele>1422.9</ele>
        <time>2020-11-11T16:00:59Z</time>
      </trkpt>
      <trkpt lat="28.3426780" lon="-16.5222800">
        <ele>1422.9</ele>
        <time>2020-11-11T16:01:00Z</time>
      </trkpt>
      <trkpt lat="28.3426380" lon="-16.5222880">
        <ele>1424.9</ele>
        <time>2020-11-11T16:01:01Z</time>
      </trkpt>
      <trkpt lat="28.3426380" lon="-16.5222880">
        <ele>1424.9</ele>
        <time>2020-11-11T16:01:02Z</time>
      </trkpt>
      <trkpt lat="28.3425920" lon="-16.5223130">
        <ele>1425.9</ele>
        <time>2020-11-11T16:01:03Z</time>
      </trkpt>
      <trkpt lat="28.3425920" lon="-16.5223130">
        <ele>1425.9</ele>
        <time>2020-11-11T16:01:04Z</time>
      </trkpt>
      <trkpt lat="28.3425480" lon="-16.5223420">
        <ele>1425.9</ele>
        <time>2020-11-11T16:01:05Z</time>
      </trkpt>
      <trkpt lat="28.3425480" lon="-16.5223420">
        <ele>1425.9</ele>
        <time>2020-11-11T16:01:06Z</time>
      </trkpt>
      <trkpt lat="28.3425030" lon="-16.5223580">
        <ele>1426.9</ele>
        <time>2020-11-11T16:01:07Z</time>
      </trkpt>
      <trkpt lat="28.3425030" lon="-16.5223580">
        <ele>1426.9</ele>
        <time>2020-11-11T16:01:08Z</time>
      </trkpt>
      <trkpt lat="28.3424600" lon="-16.5223730">
        <ele>1426.9</ele>
        <time>2020-11-11T16:01:09Z</time>
      </trkpt>
      <trkpt lat="28.3424600" lon="-16.5223730">
        <ele>1426.9</ele>
        <time>2020-11-11T16:01:10Z</time>
      </trkpt>
      <trkpt lat="28.3424180" lon="-16.5223870">
        <ele>1426.9</ele>
        <time>2020-11-11T16:01:11Z</time>
      </trkpt>
      <trkpt lat="28.3424180" lon="-16.5223870">
        <ele>1426.9</ele>
        <time>2020-11-11T16:01:12Z</time>
      </trkpt>
      <trkpt lat="28.3423750" lon="-16.5223980">
        <ele>1426.9</ele>
        <time>2020-11-11T16:01:13Z</time>
      </trkpt>
      <trkpt lat="28.3423750" lon="-16.5223980">
        <ele>1426.9</ele>
        <time>2020-11-11T16:01:14Z</time>
      </trkpt>
      <trkpt lat="28.3423330" lon="-16.5224120">
        <ele>1426.9</ele>
        <time>2020-11-11T16:01:15Z</time>
      </trkpt>
      <trkpt lat="28.3423330" lon="-16.5224120">
        <ele>1426.9</ele>
        <time>2020-11-11T16:01:16Z</time>
      </trkpt>
      <trkpt lat="28.3422900" lon="-16.5224250">
        <ele>1426.9</ele>
        <time>2020-11-11T16:01:17Z</time>
      </trkpt>
      <trkpt lat="28.3422900" lon="-16.5224250">
        <ele>1428.9</ele>
        <time>2020-11-11T16:01:18Z</time>
      </trkpt>
      <trkpt lat="28.3422470" lon="-16.5224320">
        <ele>1428.9</ele>
        <time>2020-11-11T16:01:19Z</time>
      </trkpt>
      <trkpt lat="28.3422470" lon="-16.5224320">
        <ele>1428.9</ele>
        <time>2020-11-11T16:01:20Z</time>
      </trkpt>
      <trkpt lat="28.3422050" lon="-16.5224430">
        <ele>1428.9</ele>
        <time>2020-11-11T16:01:21Z</time>
      </trkpt>
      <trkpt lat="28.3422050" lon="-16.5224430">
        <ele>1428.9</ele>
        <time>2020-11-11T16:01:22Z</time>
      </trkpt>
      <trkpt lat="28.3421670" lon="-16.5224630">
        <ele>1428.9</ele>
        <time>2020-11-11T16:01:23Z</time>
      </trkpt>
      <trkpt lat="28.3421670" lon="-16.5224630">
        <ele>1428.9</ele>
        <time>2020-11-11T16:01:24Z</time>
      </trkpt>
      <trkpt lat="28.3421280" lon="-16.5224750">
        <ele>1428.9</ele>
        <time>2020-11-11T16:01:25Z</time>
      </trkpt>
      <trkpt lat="28.3421280" lon="-16.5224750">
        <ele>1428.9</ele>
        <time>2020-11-11T16:01:26Z</time>
      </trkpt>
      <trkpt lat="28.3420930" lon="-16.5224930">
        <ele>1428.9</ele>
        <time>2020-11-11T16:01:27Z</time>
      </trkpt>
      <trkpt lat="28.3420930" lon="-16.5224930">
        <ele>1428.9</ele>
        <time>2020-11-11T16:01:28Z</time>
      </trkpt>
      <trkpt lat="28.3420570" lon="-16.5225150">
        <ele>1428.9</ele>
        <time>2020-11-11T16:01:29Z</time>
      </trkpt>
      <trkpt lat="28.3420570" lon="-16.5225150">
        <ele>1428.9</ele>
        <time>2020-11-11T16:01:30Z</time>
      </trkpt>
      <trkpt lat="28.3420230" lon="-16.5225380">
        <ele>1428.9</ele>
        <time>2020-11-11T16:01:31Z</time>
      </trkpt>
      <trkpt lat="28.3420230" lon="-16.5225380">
        <ele>1428.9</ele>
        <time>2020-11-11T16:01:32Z</time>
      </trkpt>
      <trkpt lat="28.3419970" lon="-16.5225670">
        <ele>1429.9</ele>
        <time>2020-11-11T16:01:33Z</time>
      </trkpt>
      <trkpt lat="28.3419970" lon="-16.5225670">
        <ele>1429.9</ele>
        <time>2020-11-11T16:01:34Z</time>
      </trkpt>
      <trkpt lat="28.3419720" lon="-16.5226000">
        <ele>1429.9</ele>
        <time>2020-11-11T16:01:35Z</time>
      </trkpt>
      <trkpt lat="28.3419630" lon="-16.5226200">
        <ele>1429.9</ele>
        <time>2020-11-11T16:01:36Z</time>
      </trkpt>
      <trkpt lat="28.3419500" lon="-16.5226430">
        <ele>1429.9</ele>
        <time>2020-11-11T16:01:37Z</time>
      </trkpt>
      <trkpt lat="28.3419500" lon="-16.5226430">
        <ele>1429.9</ele>
        <time>2020-11-11T16:01:38Z</time>
      </trkpt>
      <trkpt lat="28.3419270" lon="-16.5226870">
        <ele>1430.9</ele>
        <time>2020-11-11T16:01:39Z</time>
      </trkpt>
      <trkpt lat="28.3419270" lon="-16.5226870">
        <ele>1430.9</ele>
        <time>2020-11-11T16:01:40Z</time>
      </trkpt>
      <trkpt lat="28.3419130" lon="-16.5227280">
        <ele>1430.9</ele>
        <time>2020-11-11T16:01:41Z</time>
      </trkpt>
      <trkpt lat="28.3419130" lon="-16.5227280">
        <ele>1430.9</ele>
        <time>2020-11-11T16:01:42Z</time>
      </trkpt>
      <trkpt lat="28.3419000" lon="-16.5227750">
        <ele>1430.9</ele>
        <time>2020-11-11T16:01:43Z</time>
      </trkpt>
      <trkpt lat="28.3419000" lon="-16.5227750">
        <ele>1431.9</ele>
        <time>2020-11-11T16:01:44Z</time>
      </trkpt>
      <trkpt lat="28.3419020" lon="-16.5228230">
        <ele>1431.9</ele>
        <time>2020-11-11T16:01:45Z</time>
      </trkpt>
      <trkpt lat="28.3419020" lon="-16.5228230">
        <ele>1431.9</ele>
        <time>2020-11-11T16:01:46Z</time>
      </trkpt>
      <trkpt lat="28.3419080" lon="-16.5228720">
        <ele>1431.9</ele>
        <time>2020-11-11T16:01:47Z</time>
      </trkpt>
      <trkpt lat="28.3419130" lon="-16.5228950">
        <ele>1431.9</ele>
        <time>2020-11-11T16:01:48Z</time>
      </trkpt>
      <trkpt lat="28.3419130" lon="-16.5228950">
        <ele>1431.9</ele>
        <time>2020-11-11T16:01:49Z</time>
      </trkpt>
      <trkpt lat="28.3419150" lon="-16.5229380">
        <ele>1431.9</ele>
        <time>2020-11-11T16:01:50Z</time>
      </trkpt>
      <trkpt lat="28.3419150" lon="-16.5229380">
        <ele>1432.9</ele>
        <time>2020-11-11T16:01:51Z</time>
      </trkpt>
      <trkpt lat="28.3419270" lon="-16.5229780">
        <ele>1432.9</ele>
        <time>2020-11-11T16:01:52Z</time>
      </trkpt>
      <trkpt lat="28.3419270" lon="-16.5229780">
        <ele>1432.9</ele>
        <time>2020-11-11T16:01:53Z</time>
      </trkpt>
      <trkpt lat="28.3419350" lon="-16.5230170">
        <ele>1432.9</ele>
        <time>2020-11-11T16:01:54Z</time>
      </trkpt>
      <trkpt lat="28.3419350" lon="-16.5230170">
        <ele>1433.9</ele>
        <time>2020-11-11T16:01:55Z</time>
      </trkpt>
      <trkpt lat="28.3419450" lon="-16.5230600">
        <ele>1433.9</ele>
        <time>2020-11-11T16:01:56Z</time>
      </trkpt>
      <trkpt lat="28.3419500" lon="-16.5230820">
        <ele>1433.9</ele>
        <time>2020-11-11T16:01:57Z</time>
      </trkpt>
      <trkpt lat="28.3419500" lon="-16.5230820">
        <ele>1433.9</ele>
        <time>2020-11-11T16:01:58Z</time>
      </trkpt>
      <trkpt lat="28.3419550" lon="-16.5231250">
        <ele>1433.9</ele>
        <time>2020-11-11T16:01:59Z</time>
      </trkpt>
      <trkpt lat="28.3419550" lon="-16.5231250">
        <ele>1433.9</ele>
        <time>2020-11-11T16:02:00Z</time>
      </trkpt>
      <trkpt lat="28.3419570" lon="-16.5231720">
        <ele>1434.9</ele>
        <time>2020-11-11T16:02:01Z</time>
      </trkpt>
      <trkpt lat="28.3419570" lon="-16.5231720">
        <ele>1434.9</ele>
        <time>2020-11-11T16:02:02Z</time>
      </trkpt>
      <trkpt lat="28.3419530" lon="-16.5232150">
        <ele>1434.9</ele>
        <time>2020-11-11T16:02:03Z</time>
      </trkpt>
      <trkpt lat="28.3419500" lon="-16.5232380">
        <ele>1434.9</ele>
        <time>2020-11-11T16:02:04Z</time>
      </trkpt>
      <trkpt lat="28.3419500" lon="-16.5232380">
        <ele>1434.9</ele>
        <time>2020-11-11T16:02:05Z</time>
      </trkpt>
      <trkpt lat="28.3419450" lon="-16.5232830">
        <ele>1434.9</ele>
        <time>2020-11-11T16:02:06Z</time>
      </trkpt>
      <trkpt lat="28.3419450" lon="-16.5232830">
        <ele>1434.9</ele>
        <time>2020-11-11T16:02:07Z</time>
      </trkpt>
      <trkpt lat="28.3419330" lon="-16.5233230">
        <ele>1434.9</ele>
        <time>2020-11-11T16:02:08Z</time>
      </trkpt>
      <trkpt lat="28.3419330" lon="-16.5233230">
        <ele>1435.9</ele>
        <time>2020-11-11T16:02:09Z</time>
      </trkpt>
      <trkpt lat="28.3419130" lon="-16.5233600">
        <ele>1435.9</ele>
        <time>2020-11-11T16:02:10Z</time>
      </trkpt>
      <trkpt lat="28.3419130" lon="-16.5233600">
        <ele>1435.9</ele>
        <time>2020-11-11T16:02:11Z</time>
      </trkpt>
      <trkpt lat="28.3418930" lon="-16.5234000">
        <ele>1435.9</ele>
        <time>2020-11-11T16:02:12Z</time>
      </trkpt>
      <trkpt lat="28.3418820" lon="-16.5234180">
        <ele>1435.9</ele>
        <time>2020-11-11T16:02:13Z</time>
      </trkpt>
      <trkpt lat="28.3418820" lon="-16.5234180">
        <ele>1435.9</ele>
        <time>2020-11-11T16:02:14Z</time>
      </trkpt>
      <trkpt lat="28.3418580" lon="-16.5234530">
        <ele>1436.9</ele>
        <time>2020-11-11T16:02:15Z</time>
      </trkpt>
      <trkpt lat="28.3418470" lon="-16.5234680">
        <ele>1436.9</ele>
        <time>2020-11-11T16:02:16Z</time>
      </trkpt>
      <trkpt lat="28.3418350" lon="-16.5234850">
        <ele>1436.9</ele>
        <time>2020-11-11T16:02:17Z</time>
      </trkpt>
      <trkpt lat="28.3418350" lon="-16.5234850">
        <ele>1436.9</ele>
        <time>2020-11-11T16:02:18Z</time>
      </trkpt>
      <trkpt lat="28.3418070" lon="-16.5235180">
        <ele>1436.9</ele>
        <time>2020-11-11T16:02:19Z</time>
      </trkpt>
      <trkpt lat="28.3418070" lon="-16.5235180">
        <ele>1436.9</ele>
        <time>2020-11-11T16:02:20Z</time>
      </trkpt>
      <trkpt lat="28.3417880" lon="-16.5235500">
        <ele>1436.9</ele>
        <time>2020-11-11T16:02:21Z</time>
      </trkpt>
      <trkpt lat="28.3417880" lon="-16.5235500">
        <ele>1436.9</ele>
        <time>2020-11-11T16:02:22Z</time>
      </trkpt>
      <trkpt lat="28.3417620" lon="-16.5235850">
        <ele>1436.9</ele>
        <time>2020-11-11T16:02:23Z</time>
      </trkpt>
      <trkpt lat="28.3417620" lon="-16.5235850">
        <ele>1436.9</ele>
        <time>2020-11-11T16:02:24Z</time>
      </trkpt>
      <trkpt lat="28.3417350" lon="-16.5236230">
        <ele>1436.9</ele>
        <time>2020-11-11T16:02:25Z</time>
      </trkpt>
      <trkpt lat="28.3417350" lon="-16.5236230">
        <ele>1437.9</ele>
        <time>2020-11-11T16:02:26Z</time>
      </trkpt>
      <trkpt lat="28.3417070" lon="-16.5236650">
        <ele>1437.9</ele>
        <time>2020-11-11T16:02:27Z</time>
      </trkpt>
      <trkpt lat="28.3417070" lon="-16.5236650">
        <ele>1437.9</ele>
        <time>2020-11-11T16:02:28Z</time>
      </trkpt>
      <trkpt lat="28.3416780" lon="-16.5237030">
        <ele>1437.9</ele>
        <time>2020-11-11T16:02:29Z</time>
      </trkpt>
      <trkpt lat="28.3416780" lon="-16.5237030">
        <ele>1437.9</ele>
        <time>2020-11-11T16:02:30Z</time>
      </trkpt>
      <trkpt lat="28.3416450" lon="-16.5237280">
        <ele>1437.9</ele>
        <time>2020-11-11T16:02:31Z</time>
      </trkpt>
      <trkpt lat="28.3416450" lon="-16.5237280">
        <ele>1438.9</ele>
        <time>2020-11-11T16:02:32Z</time>
      </trkpt>
      <trkpt lat="28.3416180" lon="-16.5237580">
        <ele>1438.9</ele>
        <time>2020-11-11T16:02:33Z</time>
      </trkpt>
      <trkpt lat="28.3416180" lon="-16.5237580">
        <ele>1438.9</ele>
        <time>2020-11-11T16:02:34Z</time>
      </trkpt>
      <trkpt lat="28.3416000" lon="-16.5237920">
        <ele>1438.9</ele>
        <time>2020-11-11T16:02:35Z</time>
      </trkpt>
      <trkpt lat="28.3416000" lon="-16.5237920">
        <ele>1438.9</ele>
        <time>2020-11-11T16:02:36Z</time>
      </trkpt>
      <trkpt lat="28.3415730" lon="-16.5238200">
        <ele>1438.9</ele>
        <time>2020-11-11T16:02:37Z</time>
      </trkpt>
      <trkpt lat="28.3415730" lon="-16.5238200">
        <ele>1439.9</ele>
        <time>2020-11-11T16:02:38Z</time>
      </trkpt>
      <trkpt lat="28.3415470" lon="-16.5238480">
        <ele>1439.9</ele>
        <time>2020-11-11T16:02:39Z</time>
      </trkpt>
      <trkpt lat="28.3415320" lon="-16.5238630">
        <ele>1439.9</ele>
        <time>2020-11-11T16:02:40Z</time>
      </trkpt>
      <trkpt lat="28.3415320" lon="-16.5238630">
        <ele>1439.9</ele>
        <time>2020-11-11T16:02:41Z</time>
      </trkpt>
      <trkpt lat="28.3415030" lon="-16.5238930">
        <ele>1439.9</ele>
        <time>2020-11-11T16:02:42Z</time>
      </trkpt>
      <trkpt lat="28.3415030" lon="-16.5238930">
        <ele>1439.9</ele>
        <time>2020-11-11T16:02:43Z</time>
      </trkpt>
      <trkpt lat="28.3414720" lon="-16.5239200">
        <ele>1439.9</ele>
        <time>2020-11-11T16:02:44Z</time>
      </trkpt>
      <trkpt lat="28.3414720" lon="-16.5239200">
        <ele>1439.9</ele>
        <time>2020-11-11T16:02:45Z</time>
      </trkpt>
      <trkpt lat="28.3414480" lon="-16.5239530">
        <ele>1440.9</ele>
        <time>2020-11-11T16:02:46Z</time>
      </trkpt>
      <trkpt lat="28.3414480" lon="-16.5239530">
        <ele>1440.9</ele>
        <time>2020-11-11T16:02:47Z</time>
      </trkpt>
      <trkpt lat="28.3414130" lon="-16.5239900">
        <ele>1440.9</ele>
        <time>2020-11-11T16:02:48Z</time>
      </trkpt>
      <trkpt lat="28.3414130" lon="-16.5239900">
        <ele>1440.9</ele>
        <time>2020-11-11T16:02:49Z</time>
      </trkpt>
      <trkpt lat="28.3413780" lon="-16.5240220">
        <ele>1440.9</ele>
        <time>2020-11-11T16:02:50Z</time>
      </trkpt>
      <trkpt lat="28.3413780" lon="-16.5240220">
        <ele>1440.9</ele>
        <time>2020-11-11T16:02:51Z</time>
      </trkpt>
      <trkpt lat="28.3413500" lon="-16.5240700">
        <ele>1441.9</ele>
        <time>2020-11-11T16:02:52Z</time>
      </trkpt>
      <trkpt lat="28.3413500" lon="-16.5240700">
        <ele>1441.9</ele>
        <time>2020-11-11T16:02:53Z</time>
      </trkpt>
      <trkpt lat="28.3413200" lon="-16.5241170">
        <ele>1441.9</ele>
        <time>2020-11-11T16:02:54Z</time>
      </trkpt>
      <trkpt lat="28.3413200" lon="-16.5241170">
        <ele>1441.9</ele>
        <time>2020-11-11T16:02:55Z</time>
      </trkpt>
      <trkpt lat="28.3412980" lon="-16.5241350">
        <ele>1441.9</ele>
        <time>2020-11-11T16:02:56Z</time>
      </trkpt>
      <trkpt lat="28.3412980" lon="-16.5241350">
        <ele>1442.9</ele>
        <time>2020-11-11T16:02:57Z</time>
      </trkpt>
      <trkpt lat="28.3412650" lon="-16.5241550">
        <ele>1442.9</ele>
        <time>2020-11-11T16:02:58Z</time>
      </trkpt>
      <trkpt lat="28.3412650" lon="-16.5241550">
        <ele>1442.9</ele>
        <time>2020-11-11T16:02:59Z</time>
      </trkpt>
      <trkpt lat="28.3412330" lon="-16.5241750">
        <ele>1442.9</ele>
        <time>2020-11-11T16:03:00Z</time>
      </trkpt>
      <trkpt lat="28.3412170" lon="-16.5241850">
        <ele>1442.9</ele>
        <time>2020-11-11T16:03:01Z</time>
      </trkpt>
      <trkpt lat="28.3412170" lon="-16.5241850">
        <ele>1442.9</ele>
        <time>2020-11-11T16:03:02Z</time>
      </trkpt>
      <trkpt lat="28.3411770" lon="-16.5242100">
        <ele>1443.9</ele>
        <time>2020-11-11T16:03:03Z</time>
      </trkpt>
      <trkpt lat="28.3411770" lon="-16.5242100">
        <ele>1443.9</ele>
        <time>2020-11-11T16:03:04Z</time>
      </trkpt>
      <trkpt lat="28.3411350" lon="-16.5242270">
        <ele>1443.9</ele>
        <time>2020-11-11T16:03:05Z</time>
      </trkpt>
      <trkpt lat="28.3411350" lon="-16.5242270">
        <ele>1443.9</ele>
        <time>2020-11-11T16:03:06Z</time>
      </trkpt>
      <trkpt lat="28.3410970" lon="-16.5242430">
        <ele>1443.9</ele>
        <time>2020-11-11T16:03:07Z</time>
      </trkpt>
      <trkpt lat="28.3410970" lon="-16.5242430">
        <ele>1443.9</ele>
        <time>2020-11-11T16:03:08Z</time>
      </trkpt>
      <trkpt lat="28.3410550" lon="-16.5242570">
        <ele>1444.9</ele>
        <time>2020-11-11T16:03:09Z</time>
      </trkpt>
      <trkpt lat="28.3410550" lon="-16.5242570">
        <ele>1444.9</ele>
        <time>2020-11-11T16:03:10Z</time>
      </trkpt>
      <trkpt lat="28.3410130" lon="-16.5242750">
        <ele>1444.9</ele>
        <time>2020-11-11T16:03:11Z</time>
      </trkpt>
      <trkpt lat="28.3410130" lon="-16.5242750">
        <ele>1444.9</ele>
        <time>2020-11-11T16:03:12Z</time>
      </trkpt>
      <trkpt lat="28.3409720" lon="-16.5242920">
        <ele>1444.9</ele>
        <time>2020-11-11T16:03:13Z</time>
      </trkpt>
      <trkpt lat="28.3409720" lon="-16.5242920">
        <ele>1444.9</ele>
        <time>2020-11-11T16:03:14Z</time>
      </trkpt>
      <trkpt lat="28.3409280" lon="-16.5243100">
        <ele>1444.9</ele>
        <time>2020-11-11T16:03:15Z</time>
      </trkpt>
      <trkpt lat="28.3409070" lon="-16.5243230">
        <ele>1444.9</ele>
        <time>2020-11-11T16:03:16Z</time>
      </trkpt>
      <trkpt lat="28.3409070" lon="-16.5243230">
        <ele>1444.9</ele>
        <time>2020-11-11T16:03:17Z</time>
      </trkpt>
      <trkpt lat="28.3408670" lon="-16.5243470">
        <ele>1444.9</ele>
        <time>2020-11-11T16:03:18Z</time>
      </trkpt>
      <trkpt lat="28.3408670" lon="-16.5243470">
        <ele>1444.9</ele>
        <time>2020-11-11T16:03:19Z</time>
      </trkpt>
      <trkpt lat="28.3408300" lon="-16.5243670">
        <ele>1444.9</ele>
        <time>2020-11-11T16:03:20Z</time>
      </trkpt>
      <trkpt lat="28.3408300" lon="-16.5243670">
        <ele>1444.9</ele>
        <time>2020-11-11T16:03:21Z</time>
      </trkpt>
      <trkpt lat="28.3407970" lon="-16.5243980">
        <ele>1444.9</ele>
        <time>2020-11-11T16:03:22Z</time>
      </trkpt>
      <trkpt lat="28.3407970" lon="-16.5243980">
        <ele>1444.9</ele>
        <time>2020-11-11T16:03:23Z</time>
      </trkpt>
      <trkpt lat="28.3407620" lon="-16.5244370">
        <ele>1444.9</ele>
        <time>2020-11-11T16:03:24Z</time>
      </trkpt>
      <trkpt lat="28.3407620" lon="-16.5244370">
        <ele>1445.9</ele>
        <time>2020-11-11T16:03:25Z</time>
      </trkpt>
      <trkpt lat="28.3407430" lon="-16.5244950">
        <ele>1445.9</ele>
        <time>2020-11-11T16:03:26Z</time>
      </trkpt>
      <trkpt lat="28.3407430" lon="-16.5244950">
        <ele>1445.9</ele>
        <time>2020-11-11T16:03:27Z</time>
      </trkpt>
      <trkpt lat="28.3407370" lon="-16.5245670">
        <ele>1445.9</ele>
        <time>2020-11-11T16:03:28Z</time>
      </trkpt>
      <trkpt lat="28.3407370" lon="-16.5245670">
        <ele>1445.9</ele>
        <time>2020-11-11T16:03:29Z</time>
      </trkpt>
      <trkpt lat="28.3407380" lon="-16.5246100">
        <ele>1445.9</ele>
        <time>2020-11-11T16:03:30Z</time>
      </trkpt>
      <trkpt lat="28.3407400" lon="-16.5246370">
        <ele>1445.9</ele>
        <time>2020-11-11T16:03:31Z</time>
      </trkpt>
      <trkpt lat="28.3407400" lon="-16.5246370">
        <ele>1445.9</ele>
        <time>2020-11-11T16:03:32Z</time>
      </trkpt>
      <trkpt lat="28.3407380" lon="-16.5246920">
        <ele>1445.9</ele>
        <time>2020-11-11T16:03:33Z</time>
      </trkpt>
      <trkpt lat="28.3407380" lon="-16.5246920">
        <ele>1445.9</ele>
        <time>2020-11-11T16:03:34Z</time>
      </trkpt>
      <trkpt lat="28.3407350" lon="-16.5247470">
        <ele>1445.9</ele>
        <time>2020-11-11T16:03:35Z</time>
      </trkpt>
      <trkpt lat="28.3407350" lon="-16.5247470">
        <ele>1445.9</ele>
        <time>2020-11-11T16:03:36Z</time>
      </trkpt>
      <trkpt lat="28.3407400" lon="-16.5248120">
        <ele>1445.9</ele>
        <time>2020-11-11T16:03:37Z</time>
      </trkpt>
      <trkpt lat="28.3407400" lon="-16.5248120">
        <ele>1445.9</ele>
        <time>2020-11-11T16:03:38Z</time>
      </trkpt>
      <trkpt lat="28.3407520" lon="-16.5248770">
        <ele>1445.9</ele>
        <time>2020-11-11T16:03:39Z</time>
      </trkpt>
      <trkpt lat="28.3407520" lon="-16.5248770">
        <ele>1445.9</ele>
        <time>2020-11-11T16:03:40Z</time>
      </trkpt>
      <trkpt lat="28.3407570" lon="-16.5249470">
        <ele>1445.9</ele>
        <time>2020-11-11T16:03:41Z</time>
      </trkpt>
      <trkpt lat="28.3407570" lon="-16.5249470">
        <ele>1445.9</ele>
        <time>2020-11-11T16:03:42Z</time>
      </trkpt>
      <trkpt lat="28.3407530" lon="-16.5250080">
        <ele>1446.9</ele>
        <time>2020-11-11T16:03:43Z</time>
      </trkpt>
      <trkpt lat="28.3407530" lon="-16.5250420">
        <ele>1446.9</ele>
        <time>2020-11-11T16:03:44Z</time>
      </trkpt>
      <trkpt lat="28.3407530" lon="-16.5250420">
        <ele>1446.9</ele>
        <time>2020-11-11T16:03:45Z</time>
      </trkpt>
      <trkpt lat="28.3407520" lon="-16.5251080">
        <ele>1446.9</ele>
        <time>2020-11-11T16:03:46Z</time>
      </trkpt>
      <trkpt lat="28.3407480" lon="-16.5251420">
        <ele>1446.9</ele>
        <time>2020-11-11T16:03:47Z</time>
      </trkpt>
      <trkpt lat="28.3407480" lon="-16.5251420">
        <ele>1446.9</ele>
        <time>2020-11-11T16:03:48Z</time>
      </trkpt>
      <trkpt lat="28.3407330" lon="-16.5251930">
        <ele>1446.9</ele>
        <time>2020-11-11T16:03:49Z</time>
      </trkpt>
      <trkpt lat="28.3407330" lon="-16.5251930">
        <ele>1446.9</ele>
        <time>2020-11-11T16:03:50Z</time>
      </trkpt>
      <trkpt lat="28.3407250" lon="-16.5252550">
        <ele>1447.9</ele>
        <time>2020-11-11T16:03:51Z</time>
      </trkpt>
      <trkpt lat="28.3407250" lon="-16.5252550">
        <ele>1447.9</ele>
        <time>2020-11-11T16:03:52Z</time>
      </trkpt>
      <trkpt lat="28.3407130" lon="-16.5253150">
        <ele>1447.9</ele>
        <time>2020-11-11T16:03:53Z</time>
      </trkpt>
      <trkpt lat="28.3407130" lon="-16.5253150">
        <ele>1447.9</ele>
        <time>2020-11-11T16:03:54Z</time>
      </trkpt>
      <trkpt lat="28.3407130" lon="-16.5253880">
        <ele>1447.9</ele>
        <time>2020-11-11T16:03:55Z</time>
      </trkpt>
      <trkpt lat="28.3407130" lon="-16.5253880">
        <ele>1447.9</ele>
        <time>2020-11-11T16:03:56Z</time>
      </trkpt>
      <trkpt lat="28.3407170" lon="-16.5254230">
        <ele>1447.9</ele>
        <time>2020-11-11T16:03:57Z</time>
      </trkpt>
      <trkpt lat="28.3407170" lon="-16.5254230">
        <ele>1447.9</ele>
        <time>2020-11-11T16:03:58Z</time>
      </trkpt>
      <trkpt lat="28.3407270" lon="-16.5254380">
        <ele>1447.9</ele>
        <time>2020-11-11T16:03:59Z</time>
      </trkpt>
      <trkpt lat="28.3407270" lon="-16.5254380">
        <ele>1447.9</ele>
        <time>2020-11-11T16:04:00Z</time>
      </trkpt>
      <trkpt lat="28.3407270" lon="-16.5254430">
        <ele>1447.9</ele>
        <time>2020-11-11T16:04:01Z</time>
      </trkpt>
      <trkpt lat="28.3407270" lon="-16.5254430">
        <ele>1447.9</ele>
        <time>2020-11-11T16:04:02Z</time>
      </trkpt>
      <trkpt lat="28.3407250" lon="-16.5254380">
        <ele>1447.9</ele>
        <time>2020-11-11T16:04:03Z</time>
      </trkpt>
      <trkpt lat="28.3407250" lon="-16.5254380">
        <ele>1447.9</ele>
        <time>2020-11-11T16:04:04Z</time>
      </trkpt>
      <trkpt lat="28.3407250" lon="-16.5254380">
        <ele>1447.9</ele>
        <time>2020-11-11T16:04:05Z</time>
      </trkpt>
      <trkpt lat="28.3407250" lon="-16.5254380">
        <ele>1447.9</ele>
        <time>2020-11-11T16:04:06Z</time>
      </trkpt>
      <trkpt lat="28.3407250" lon="-16.5254380">
        <ele>1447.9</ele>
        <time>2020-11-11T16:09:33Z</time>
      </trkpt>
      <trkpt lat="28.3407250" lon="-16.5254380">
        <ele>1447.9</ele>
        <time>2020-11-11T16:09:34Z</time>
      </trkpt>
      <trkpt lat="28.3407330" lon="-16.5254280">
        <ele>1447.9</ele>
        <time>2020-11-11T16:09:35Z</time>
      </trkpt>
      <trkpt lat="28.3407350" lon="-16.5254280">
        <ele>1447.9</ele>
        <time>2020-11-11T16:09:36Z</time>
      </trkpt>
      <trkpt lat="28.3407350" lon="-16.5254280">
        <ele>1447.9</ele>
        <time>2020-11-11T16:09:37Z</time>
      </trkpt>
      <trkpt lat="28.3407130" lon="-16.5254200">
        <ele>1447.9</ele>
        <time>2020-11-11T16:09:38Z</time>
      </trkpt>
      <trkpt lat="28.3407130" lon="-16.5254200">
        <ele>1447.9</ele>
        <time>2020-11-11T16:09:39Z</time>
      </trkpt>
      <trkpt lat="28.3406900" lon="-16.5254100">
        <ele>1447.9</ele>
        <time>2020-11-11T16:09:40Z</time>
      </trkpt>
      <trkpt lat="28.3406900" lon="-16.5254100">
        <ele>1447.9</ele>
        <time>2020-11-11T16:09:41Z</time>
      </trkpt>
      <trkpt lat="28.3406530" lon="-16.5254200">
        <ele>1447.9</ele>
        <time>2020-11-11T16:09:42Z</time>
      </trkpt>
      <trkpt lat="28.3406530" lon="-16.5254200">
        <ele>1447.9</ele>
        <time>2020-11-11T16:09:43Z</time>
      </trkpt>
      <trkpt lat="28.3406120" lon="-16.5254420">
        <ele>1447.9</ele>
        <time>2020-11-11T16:09:44Z</time>
      </trkpt>
      <trkpt lat="28.3406120" lon="-16.5254420">
        <ele>1447.9</ele>
        <time>2020-11-11T16:09:45Z</time>
      </trkpt>
      <trkpt lat="28.3405770" lon="-16.5254680">
        <ele>1447.9</ele>
        <time>2020-11-11T16:09:46Z</time>
      </trkpt>
      <trkpt lat="28.3405770" lon="-16.5254680">
        <ele>1447.9</ele>
        <time>2020-11-11T16:09:47Z</time>
      </trkpt>
      <trkpt lat="28.3405430" lon="-16.5254950">
        <ele>1448.9</ele>
        <time>2020-11-11T16:09:48Z</time>
      </trkpt>
      <trkpt lat="28.3405430" lon="-16.5254950">
        <ele>1448.9</ele>
        <time>2020-11-11T16:09:49Z</time>
      </trkpt>
      <trkpt lat="28.3405130" lon="-16.5255220">
        <ele>1448.9</ele>
        <time>2020-11-11T16:09:50Z</time>
      </trkpt>
      <trkpt lat="28.3405130" lon="-16.5255220">
        <ele>1448.9</ele>
        <time>2020-11-11T16:09:51Z</time>
      </trkpt>
      <trkpt lat="28.3404900" lon="-16.5255480">
        <ele>1448.9</ele>
        <time>2020-11-11T16:09:52Z</time>
      </trkpt>
      <trkpt lat="28.3404770" lon="-16.5255600">
        <ele>1448.9</ele>
        <time>2020-11-11T16:09:53Z</time>
      </trkpt>
      <trkpt lat="28.3404770" lon="-16.5255600">
        <ele>1448.9</ele>
        <time>2020-11-11T16:09:54Z</time>
      </trkpt>
      <trkpt lat="28.3404480" lon="-16.5255830">
        <ele>1448.9</ele>
        <time>2020-11-11T16:09:55Z</time>
      </trkpt>
      <trkpt lat="28.3404480" lon="-16.5255830">
        <ele>1448.9</ele>
        <time>2020-11-11T16:09:56Z</time>
      </trkpt>
      <trkpt lat="28.3404220" lon="-16.5256030">
        <ele>1448.9</ele>
        <time>2020-11-11T16:09:57Z</time>
      </trkpt>
      <trkpt lat="28.3404080" lon="-16.5256150">
        <ele>1448.9</ele>
        <time>2020-11-11T16:09:58Z</time>
      </trkpt>
      <trkpt lat="28.3404080" lon="-16.5256150">
        <ele>1448.9</ele>
        <time>2020-11-11T16:09:59Z</time>
      </trkpt>
      <trkpt lat="28.3403730" lon="-16.5256370">
        <ele>1448.9</ele>
        <time>2020-11-11T16:10:00Z</time>
      </trkpt>
      <trkpt lat="28.3403730" lon="-16.5256370">
        <ele>1449.9</ele>
        <time>2020-11-11T16:10:01Z</time>
      </trkpt>
      <trkpt lat="28.3403480" lon="-16.5256620">
        <ele>1449.9</ele>
        <time>2020-11-11T16:10:02Z</time>
      </trkpt>
      <trkpt lat="28.3403480" lon="-16.5256620">
        <ele>1449.9</ele>
        <time>2020-11-11T16:10:03Z</time>
      </trkpt>
      <trkpt lat="28.3403230" lon="-16.5256880">
        <ele>1449.9</ele>
        <time>2020-11-11T16:10:04Z</time>
      </trkpt>
      <trkpt lat="28.3403130" lon="-16.5257000">
        <ele>1449.9</ele>
        <time>2020-11-11T16:10:05Z</time>
      </trkpt>
      <trkpt lat="28.3403130" lon="-16.5257000">
        <ele>1450.9</ele>
        <time>2020-11-11T16:10:06Z</time>
      </trkpt>
      <trkpt lat="28.3402920" lon="-16.5257220">
        <ele>1450.9</ele>
        <time>2020-11-11T16:10:07Z</time>
      </trkpt>
      <trkpt lat="28.3402770" lon="-16.5257280">
        <ele>1450.9</ele>
        <time>2020-11-11T16:10:08Z</time>
      </trkpt>
      <trkpt lat="28.3402770" lon="-16.5257280">
        <ele>1450.9</ele>
        <time>2020-11-11T16:10:09Z</time>
      </trkpt>
      <trkpt lat="28.3402470" lon="-16.5257520">
        <ele>1450.9</ele>
        <time>2020-11-11T16:10:10Z</time>
      </trkpt>
      <trkpt lat="28.3402470" lon="-16.5257520">
        <ele>1450.9</ele>
        <time>2020-11-11T16:10:11Z</time>
      </trkpt>
      <trkpt lat="28.3402180" lon="-16.5257800">
        <ele>1451.9</ele>
        <time>2020-11-11T16:10:12Z</time>
      </trkpt>
      <trkpt lat="28.3402180" lon="-16.5257800">
        <ele>1451.9</ele>
        <time>2020-11-11T16:10:13Z</time>
      </trkpt>
      <trkpt lat="28.3401900" lon="-16.5258080">
        <ele>1451.9</ele>
        <time>2020-11-11T16:10:14Z</time>
      </trkpt>
      <trkpt lat="28.3401900" lon="-16.5258080">
        <ele>1451.9</ele>
        <time>2020-11-11T16:10:15Z</time>
      </trkpt>
      <trkpt lat="28.3401680" lon="-16.5258420">
        <ele>1452.9</ele>
        <time>2020-11-11T16:10:16Z</time>
      </trkpt>
      <trkpt lat="28.3401680" lon="-16.5258420">
        <ele>1452.9</ele>
        <time>2020-11-11T16:10:17Z</time>
      </trkpt>
      <trkpt lat="28.3401470" lon="-16.5258700">
        <ele>1452.9</ele>
        <time>2020-11-11T16:10:18Z</time>
      </trkpt>
      <trkpt lat="28.3401470" lon="-16.5258700">
        <ele>1452.9</ele>
        <time>2020-11-11T16:10:19Z</time>
      </trkpt>
      <trkpt lat="28.3401170" lon="-16.5258920">
        <ele>1452.9</ele>
        <time>2020-11-11T16:10:20Z</time>
      </trkpt>
      <trkpt lat="28.3401170" lon="-16.5258920">
        <ele>1452.9</ele>
        <time>2020-11-11T16:10:21Z</time>
      </trkpt>
      <trkpt lat="28.3400900" lon="-16.5259200">
        <ele>1452.9</ele>
        <time>2020-11-11T16:10:22Z</time>
      </trkpt>
      <trkpt lat="28.3400730" lon="-16.5259320">
        <ele>1452.9</ele>
        <time>2020-11-11T16:10:23Z</time>
      </trkpt>
      <trkpt lat="28.3400570" lon="-16.5259520">
        <ele>1452.9</ele>
        <time>2020-11-11T16:10:24Z</time>
      </trkpt>
      <trkpt lat="28.3400430" lon="-16.5259680">
        <ele>1452.9</ele>
        <time>2020-11-11T16:10:25Z</time>
      </trkpt>
      <trkpt lat="28.3400220" lon="-16.5259830">
        <ele>1452.9</ele>
        <time>2020-11-11T16:10:26Z</time>
      </trkpt>
      <trkpt lat="28.3400220" lon="-16.5259830">
        <ele>1452.9</ele>
        <time>2020-11-11T16:10:27Z</time>
      </trkpt>
      <trkpt lat="28.3399830" lon="-16.5260130">
        <ele>1452.9</ele>
        <time>2020-11-11T16:10:28Z</time>
      </trkpt>
      <trkpt lat="28.3399830" lon="-16.5260130">
        <ele>1453.9</ele>
        <time>2020-11-11T16:10:29Z</time>
      </trkpt>
      <trkpt lat="28.3399480" lon="-16.5260350">
        <ele>1453.9</ele>
        <time>2020-11-11T16:10:30Z</time>
      </trkpt>
      <trkpt lat="28.3399480" lon="-16.5260350">
        <ele>1453.9</ele>
        <time>2020-11-11T16:10:31Z</time>
      </trkpt>
      <trkpt lat="28.3399120" lon="-16.5260600">
        <ele>1453.9</ele>
        <time>2020-11-11T16:10:32Z</time>
      </trkpt>
      <trkpt lat="28.3398950" lon="-16.5260730">
        <ele>1453.9</ele>
        <time>2020-11-11T16:10:33Z</time>
      </trkpt>
      <trkpt lat="28.3398950" lon="-16.5260730">
        <ele>1454.9</ele>
        <time>2020-11-11T16:10:34Z</time>
      </trkpt>
      <trkpt lat="28.3398650" lon="-16.5261020">
        <ele>1454.9</ele>
        <time>2020-11-11T16:10:35Z</time>
      </trkpt>
      <trkpt lat="28.3398650" lon="-16.5261020">
        <ele>1454.9</ele>
        <time>2020-11-11T16:10:36Z</time>
      </trkpt>
      <trkpt lat="28.3398480" lon="-16.5261370">
        <ele>1454.9</ele>
        <time>2020-11-11T16:10:37Z</time>
      </trkpt>
      <trkpt lat="28.3398480" lon="-16.5261370">
        <ele>1454.9</ele>
        <time>2020-11-11T16:10:38Z</time>
      </trkpt>
      <trkpt lat="28.3398250" lon="-16.5261630">
        <ele>1455.9</ele>
        <time>2020-11-11T16:10:39Z</time>
      </trkpt>
      <trkpt lat="28.3398250" lon="-16.5261630">
        <ele>1455.9</ele>
        <time>2020-11-11T16:10:40Z</time>
      </trkpt>
      <trkpt lat="28.3397970" lon="-16.5261820">
        <ele>1455.9</ele>
        <time>2020-11-11T16:10:41Z</time>
      </trkpt>
      <trkpt lat="28.3397970" lon="-16.5261820">
        <ele>1455.9</ele>
        <time>2020-11-11T16:10:42Z</time>
      </trkpt>
      <trkpt lat="28.3397680" lon="-16.5261980">
        <ele>1455.9</ele>
        <time>2020-11-11T16:10:43Z</time>
      </trkpt>
      <trkpt lat="28.3397530" lon="-16.5262080">
        <ele>1455.9</ele>
        <time>2020-11-11T16:10:44Z</time>
      </trkpt>
      <trkpt lat="28.3397530" lon="-16.5262080">
        <ele>1455.9</ele>
        <time>2020-11-11T16:10:45Z</time>
      </trkpt>
      <trkpt lat="28.3397170" lon="-16.5262250">
        <ele>1456.9</ele>
        <time>2020-11-11T16:10:46Z</time>
      </trkpt>
      <trkpt lat="28.3396980" lon="-16.5262330">
        <ele>1456.9</ele>
        <time>2020-11-11T16:10:47Z</time>
      </trkpt>
      <trkpt lat="28.3396830" lon="-16.5262420">
        <ele>1456.9</ele>
        <time>2020-11-11T16:10:48Z</time>
      </trkpt>
      <trkpt lat="28.3396830" lon="-16.5262420">
        <ele>1456.9</ele>
        <time>2020-11-11T16:10:49Z</time>
      </trkpt>
      <trkpt lat="28.3396500" lon="-16.5262530">
        <ele>1456.9</ele>
        <time>2020-11-11T16:10:50Z</time>
      </trkpt>
      <trkpt lat="28.3396500" lon="-16.5262530">
        <ele>1456.9</ele>
        <time>2020-11-11T16:10:51Z</time>
      </trkpt>
      <trkpt lat="28.3396130" lon="-16.5262720">
        <ele>1456.9</ele>
        <time>2020-11-11T16:10:52Z</time>
      </trkpt>
      <trkpt lat="28.3395970" lon="-16.5262830">
        <ele>1456.9</ele>
        <time>2020-11-11T16:10:53Z</time>
      </trkpt>
      <trkpt lat="28.3395970" lon="-16.5262830">
        <ele>1456.9</ele>
        <time>2020-11-11T16:10:54Z</time>
      </trkpt>
      <trkpt lat="28.3395650" lon="-16.5262930">
        <ele>1456.9</ele>
        <time>2020-11-11T16:10:55Z</time>
      </trkpt>
      <trkpt lat="28.3395520" lon="-16.5263000">
        <ele>1456.9</ele>
        <time>2020-11-11T16:10:56Z</time>
      </trkpt>
      <trkpt lat="28.3395520" lon="-16.5263000">
        <ele>1456.9</ele>
        <time>2020-11-11T16:10:57Z</time>
      </trkpt>
      <trkpt lat="28.3395170" lon="-16.5263070">
        <ele>1456.9</ele>
        <time>2020-11-11T16:10:58Z</time>
      </trkpt>
      <trkpt lat="28.3395000" lon="-16.5263130">
        <ele>1456.9</ele>
        <time>2020-11-11T16:10:59Z</time>
      </trkpt>
      <trkpt lat="28.3395000" lon="-16.5263130">
        <ele>1457.9</ele>
        <time>2020-11-11T16:11:00Z</time>
      </trkpt>
      <trkpt lat="28.3394680" lon="-16.5263220">
        <ele>1457.9</ele>
        <time>2020-11-11T16:11:01Z</time>
      </trkpt>
      <trkpt lat="28.3394520" lon="-16.5263400">
        <ele>1457.9</ele>
        <time>2020-11-11T16:11:02Z</time>
      </trkpt>
      <trkpt lat="28.3394520" lon="-16.5263400">
        <ele>1457.9</ele>
        <time>2020-11-11T16:11:03Z</time>
      </trkpt>
      <trkpt lat="28.3394200" lon="-16.5263630">
        <ele>1457.9</ele>
        <time>2020-11-11T16:11:04Z</time>
      </trkpt>
      <trkpt lat="28.3394200" lon="-16.5263630">
        <ele>1457.9</ele>
        <time>2020-11-11T16:11:05Z</time>
      </trkpt>
      <trkpt lat="28.3393730" lon="-16.5263800">
        <ele>1457.9</ele>
        <time>2020-11-11T16:11:06Z</time>
      </trkpt>
      <trkpt lat="28.3393550" lon="-16.5263870">
        <ele>1458.9</ele>
        <time>2020-11-11T16:11:07Z</time>
      </trkpt>
      <trkpt lat="28.3393550" lon="-16.5263870">
        <ele>1458.9</ele>
        <time>2020-11-11T16:11:08Z</time>
      </trkpt>
      <trkpt lat="28.3393180" lon="-16.5263950">
        <ele>1458.9</ele>
        <time>2020-11-11T16:11:09Z</time>
      </trkpt>
      <trkpt lat="28.3393180" lon="-16.5263950">
        <ele>1458.9</ele>
        <time>2020-11-11T16:11:10Z</time>
      </trkpt>
      <trkpt lat="28.3392930" lon="-16.5264030">
        <ele>1458.9</ele>
        <time>2020-11-11T16:11:11Z</time>
      </trkpt>
      <trkpt lat="28.3392930" lon="-16.5264030">
        <ele>1458.9</ele>
        <time>2020-11-11T16:11:12Z</time>
      </trkpt>
      <trkpt lat="28.3392630" lon="-16.5264280">
        <ele>1459.9</ele>
        <time>2020-11-11T16:11:13Z</time>
      </trkpt>
      <trkpt lat="28.3392630" lon="-16.5264280">
        <ele>1459.9</ele>
        <time>2020-11-11T16:11:14Z</time>
      </trkpt>
      <trkpt lat="28.3392050" lon="-16.5264470">
        <ele>1459.9</ele>
        <time>2020-11-11T16:11:15Z</time>
      </trkpt>
      <trkpt lat="28.3392050" lon="-16.5264470">
        <ele>1459.9</ele>
        <time>2020-11-11T16:11:16Z</time>
      </trkpt>
      <trkpt lat="28.3391520" lon="-16.5264720">
        <ele>1459.9</ele>
        <time>2020-11-11T16:11:17Z</time>
      </trkpt>
      <trkpt lat="28.3391350" lon="-16.5264780">
        <ele>1459.9</ele>
        <time>2020-11-11T16:11:18Z</time>
      </trkpt>
      <trkpt lat="28.3391350" lon="-16.5264780">
        <ele>1459.9</ele>
        <time>2020-11-11T16:11:19Z</time>
      </trkpt>
      <trkpt lat="28.3391030" lon="-16.5264880">
        <ele>1460.9</ele>
        <time>2020-11-11T16:11:20Z</time>
      </trkpt>
      <trkpt lat="28.3390600" lon="-16.5265070">
        <ele>1460.9</ele>
        <time>2020-11-11T16:11:21Z</time>
      </trkpt>
      <trkpt lat="28.3390600" lon="-16.5265070">
        <ele>1460.9</ele>
        <time>2020-11-11T16:11:22Z</time>
      </trkpt>
      <trkpt lat="28.3390600" lon="-16.5265070">
        <ele>1460.9</ele>
        <time>2020-11-11T16:11:23Z</time>
      </trkpt>
      <trkpt lat="28.3390250" lon="-16.5265170">
        <ele>1460.9</ele>
        <time>2020-11-11T16:11:24Z</time>
      </trkpt>
      <trkpt lat="28.3390250" lon="-16.5265170">
        <ele>1460.9</ele>
        <time>2020-11-11T16:11:25Z</time>
      </trkpt>
      <trkpt lat="28.3389800" lon="-16.5265330">
        <ele>1460.9</ele>
        <time>2020-11-11T16:11:26Z</time>
      </trkpt>
      <trkpt lat="28.3389800" lon="-16.5265330">
        <ele>1460.9</ele>
        <time>2020-11-11T16:11:27Z</time>
      </trkpt>
      <trkpt lat="28.3389430" lon="-16.5265430">
        <ele>1460.9</ele>
        <time>2020-11-11T16:11:28Z</time>
      </trkpt>
      <trkpt lat="28.3389280" lon="-16.5265500">
        <ele>1460.9</ele>
        <time>2020-11-11T16:11:29Z</time>
      </trkpt>
      <trkpt lat="28.3389280" lon="-16.5265500">
        <ele>1461.9</ele>
        <time>2020-11-11T16:11:30Z</time>
      </trkpt>
      <trkpt lat="28.3388930" lon="-16.5265620">
        <ele>1461.9</ele>
        <time>2020-11-11T16:11:31Z</time>
      </trkpt>
      <trkpt lat="28.3388930" lon="-16.5265620">
        <ele>1461.9</ele>
        <time>2020-11-11T16:11:32Z</time>
      </trkpt>
      <trkpt lat="28.3388580" lon="-16.5265820">
        <ele>1461.9</ele>
        <time>2020-11-11T16:11:33Z</time>
      </trkpt>
      <trkpt lat="28.3388580" lon="-16.5265820">
        <ele>1461.9</ele>
        <time>2020-11-11T16:11:34Z</time>
      </trkpt>
      <trkpt lat="28.3388300" lon="-16.5265880">
        <ele>1461.9</ele>
        <time>2020-11-11T16:11:35Z</time>
      </trkpt>
      <trkpt lat="28.3388300" lon="-16.5265880">
        <ele>1462.9</ele>
        <time>2020-11-11T16:11:36Z</time>
      </trkpt>
      <trkpt lat="28.3387920" lon="-16.5265900">
        <ele>1462.9</ele>
        <time>2020-11-11T16:11:37Z</time>
      </trkpt>
      <trkpt lat="28.3387600" lon="-16.5266030">
        <ele>1462.9</ele>
        <time>2020-11-11T16:11:38Z</time>
      </trkpt>
      <trkpt lat="28.3387600" lon="-16.5266030">
        <ele>1462.9</ele>
        <time>2020-11-11T16:11:39Z</time>
      </trkpt>
      <trkpt lat="28.3387250" lon="-16.5266180">
        <ele>1462.9</ele>
        <time>2020-11-11T16:11:40Z</time>
      </trkpt>
      <trkpt lat="28.3387250" lon="-16.5266180">
        <ele>1462.9</ele>
        <time>2020-11-11T16:11:41Z</time>
      </trkpt>
      <trkpt lat="28.3386970" lon="-16.5266330">
        <ele>1462.9</ele>
        <time>2020-11-11T16:11:42Z</time>
      </trkpt>
      <trkpt lat="28.3386970" lon="-16.5266330">
        <ele>1462.9</ele>
        <time>2020-11-11T16:11:43Z</time>
      </trkpt>
      <trkpt lat="28.3386620" lon="-16.5266570">
        <ele>1462.9</ele>
        <time>2020-11-11T16:11:44Z</time>
      </trkpt>
      <trkpt lat="28.3386620" lon="-16.5266570">
        <ele>1462.9</ele>
        <time>2020-11-11T16:11:45Z</time>
      </trkpt>
      <trkpt lat="28.3386330" lon="-16.5266820">
        <ele>1462.9</ele>
        <time>2020-11-11T16:11:46Z</time>
      </trkpt>
      <trkpt lat="28.3386180" lon="-16.5266920">
        <ele>1462.9</ele>
        <time>2020-11-11T16:11:47Z</time>
      </trkpt>
      <trkpt lat="28.3386180" lon="-16.5266920">
        <ele>1463.9</ele>
        <time>2020-11-11T16:11:48Z</time>
      </trkpt>
      <trkpt lat="28.3385870" lon="-16.5267070">
        <ele>1463.9</ele>
        <time>2020-11-11T16:11:49Z</time>
      </trkpt>
      <trkpt lat="28.3385700" lon="-16.5267120">
        <ele>1463.9</ele>
        <time>2020-11-11T16:11:50Z</time>
      </trkpt>
      <trkpt lat="28.3385700" lon="-16.5267120">
        <ele>1463.9</ele>
        <time>2020-11-11T16:11:51Z</time>
      </trkpt>
      <trkpt lat="28.3385380" lon="-16.5267180">
        <ele>1463.9</ele>
        <time>2020-11-11T16:11:52Z</time>
      </trkpt>
      <trkpt lat="28.3385380" lon="-16.5267180">
        <ele>1463.9</ele>
        <time>2020-11-11T16:11:53Z</time>
      </trkpt>
      <trkpt lat="28.3385020" lon="-16.5267300">
        <ele>1463.9</ele>
        <time>2020-11-11T16:11:54Z</time>
      </trkpt>
      <trkpt lat="28.3385020" lon="-16.5267300">
        <ele>1463.9</ele>
        <time>2020-11-11T16:11:55Z</time>
      </trkpt>
      <trkpt lat="28.3384750" lon="-16.5267480">
        <ele>1463.9</ele>
        <time>2020-11-11T16:11:56Z</time>
      </trkpt>
      <trkpt lat="28.3384750" lon="-16.5267480">
        <ele>1464.9</ele>
        <time>2020-11-11T16:11:57Z</time>
      </trkpt>
      <trkpt lat="28.3384350" lon="-16.5267630">
        <ele>1464.9</ele>
        <time>2020-11-11T16:11:58Z</time>
      </trkpt>
      <trkpt lat="28.3384080" lon="-16.5267730">
        <ele>1464.9</ele>
        <time>2020-11-11T16:11:59Z</time>
      </trkpt>
      <trkpt lat="28.3384080" lon="-16.5267730">
        <ele>1464.9</ele>
        <time>2020-11-11T16:12:00Z</time>
      </trkpt>
      <trkpt lat="28.3383670" lon="-16.5267950">
        <ele>1464.9</ele>
        <time>2020-11-11T16:12:01Z</time>
      </trkpt>
      <trkpt lat="28.3383670" lon="-16.5267950">
        <ele>1464.9</ele>
        <time>2020-11-11T16:12:02Z</time>
      </trkpt>
      <trkpt lat="28.3383300" lon="-16.5268180">
        <ele>1465.9</ele>
        <time>2020-11-11T16:12:03Z</time>
      </trkpt>
      <trkpt lat="28.3383300" lon="-16.5268180">
        <ele>1465.9</ele>
        <time>2020-11-11T16:12:04Z</time>
      </trkpt>
      <trkpt lat="28.3383050" lon="-16.5268470">
        <ele>1465.9</ele>
        <time>2020-11-11T16:12:05Z</time>
      </trkpt>
      <trkpt lat="28.3382950" lon="-16.5268600">
        <ele>1465.9</ele>
        <time>2020-11-11T16:12:06Z</time>
      </trkpt>
      <trkpt lat="28.3382850" lon="-16.5268730">
        <ele>1465.9</ele>
        <time>2020-11-11T16:12:07Z</time>
      </trkpt>
      <trkpt lat="28.3382730" lon="-16.5268880">
        <ele>1465.9</ele>
        <time>2020-11-11T16:12:08Z</time>
      </trkpt>
      <trkpt lat="28.3382730" lon="-16.5268880">
        <ele>1465.9</ele>
        <time>2020-11-11T16:12:09Z</time>
      </trkpt>
      <trkpt lat="28.3382530" lon="-16.5269270">
        <ele>1466.9</ele>
        <time>2020-11-11T16:12:10Z</time>
      </trkpt>
      <trkpt lat="28.3382450" lon="-16.5269470">
        <ele>1466.9</ele>
        <time>2020-11-11T16:12:11Z</time>
      </trkpt>
      <trkpt lat="28.3382450" lon="-16.5269470">
        <ele>1466.9</ele>
        <time>2020-11-11T16:12:12Z</time>
      </trkpt>
      <trkpt lat="28.3382230" lon="-16.5269980">
        <ele>1466.9</ele>
        <time>2020-11-11T16:12:13Z</time>
      </trkpt>
      <trkpt lat="28.3382230" lon="-16.5269980">
        <ele>1466.9</ele>
        <time>2020-11-11T16:12:14Z</time>
      </trkpt>
      <trkpt lat="28.3381870" lon="-16.5270500">
        <ele>1466.9</ele>
        <time>2020-11-11T16:12:15Z</time>
      </trkpt>
      <trkpt lat="28.3381870" lon="-16.5270500">
        <ele>1466.9</ele>
        <time>2020-11-11T16:12:16Z</time>
      </trkpt>
      <trkpt lat="28.3381530" lon="-16.5270900">
        <ele>1466.9</ele>
        <time>2020-11-11T16:12:17Z</time>
      </trkpt>
      <trkpt lat="28.3381530" lon="-16.5270900">
        <ele>1466.9</ele>
        <time>2020-11-11T16:12:18Z</time>
      </trkpt>
      <trkpt lat="28.3381430" lon="-16.5271330">
        <ele>1466.9</ele>
        <time>2020-11-11T16:12:19Z</time>
      </trkpt>
      <trkpt lat="28.3381430" lon="-16.5271330">
        <ele>1467.9</ele>
        <time>2020-11-11T16:12:20Z</time>
      </trkpt>
      <trkpt lat="28.3381370" lon="-16.5271680">
        <ele>1467.9</ele>
        <time>2020-11-11T16:12:21Z</time>
      </trkpt>
      <trkpt lat="28.3381320" lon="-16.5271900">
        <ele>1467.9</ele>
        <time>2020-11-11T16:12:22Z</time>
      </trkpt>
      <trkpt lat="28.3381320" lon="-16.5271900">
        <ele>1467.9</ele>
        <time>2020-11-11T16:12:23Z</time>
      </trkpt>
      <trkpt lat="28.3381280" lon="-16.5272320">
        <ele>1467.9</ele>
        <time>2020-11-11T16:12:24Z</time>
      </trkpt>
      <trkpt lat="28.3381280" lon="-16.5272320">
        <ele>1467.9</ele>
        <time>2020-11-11T16:12:25Z</time>
      </trkpt>
      <trkpt lat="28.3381230" lon="-16.5272830">
        <ele>1467.9</ele>
        <time>2020-11-11T16:12:26Z</time>
      </trkpt>
      <trkpt lat="28.3381230" lon="-16.5272830">
        <ele>1467.9</ele>
        <time>2020-11-11T16:12:27Z</time>
      </trkpt>
      <trkpt lat="28.3381150" lon="-16.5273330">
        <ele>1467.9</ele>
        <time>2020-11-11T16:12:28Z</time>
      </trkpt>
      <trkpt lat="28.3381130" lon="-16.5273500">
        <ele>1467.9</ele>
        <time>2020-11-11T16:12:29Z</time>
      </trkpt>
      <trkpt lat="28.3381130" lon="-16.5273500">
        <ele>1467.9</ele>
        <time>2020-11-11T16:12:30Z</time>
      </trkpt>
      <trkpt lat="28.3381030" lon="-16.5273870">
        <ele>1467.9</ele>
        <time>2020-11-11T16:12:31Z</time>
      </trkpt>
      <trkpt lat="28.3381020" lon="-16.5274000">
        <ele>1467.9</ele>
        <time>2020-11-11T16:12:32Z</time>
      </trkpt>
      <trkpt lat="28.3381020" lon="-16.5274000">
        <ele>1468.9</ele>
        <time>2020-11-11T16:12:33Z</time>
      </trkpt>
      <trkpt lat="28.3381030" lon="-16.5274170">
        <ele>1468.9</ele>
        <time>2020-11-11T16:12:34Z</time>
      </trkpt>
      <trkpt lat="28.3381030" lon="-16.5274170">
        <ele>1468.9</ele>
        <time>2020-11-11T16:12:35Z</time>
      </trkpt>
      <trkpt lat="28.3381030" lon="-16.5274270">
        <ele>1468.9</ele>
        <time>2020-11-11T16:12:36Z</time>
      </trkpt>
      <trkpt lat="28.3381030" lon="-16.5274270">
        <ele>1468.9</ele>
        <time>2020-11-11T16:12:37Z</time>
      </trkpt>
      <trkpt lat="28.3381080" lon="-16.5274320">
        <ele>1468.9</ele>
        <time>2020-11-11T16:12:38Z</time>
      </trkpt>
      <trkpt lat="28.3381080" lon="-16.5274320">
        <ele>1468.9</ele>
        <time>2020-11-11T16:13:13Z</time>
      </trkpt>
      <trkpt lat="28.3380750" lon="-16.5274970">
        <ele>1468.9</ele>
        <time>2020-11-11T16:13:14Z</time>
      </trkpt>
      <trkpt lat="28.3380720" lon="-16.5275150">
        <ele>1468.9</ele>
        <time>2020-11-11T16:13:15Z</time>
      </trkpt>
      <trkpt lat="28.3380720" lon="-16.5275150">
        <ele>1468.9</ele>
        <time>2020-11-11T16:13:16Z</time>
      </trkpt>
      <trkpt lat="28.3380680" lon="-16.5275520">
        <ele>1468.9</ele>
        <time>2020-11-11T16:13:17Z</time>
      </trkpt>
      <trkpt lat="28.3380630" lon="-16.5275770">
        <ele>1468.9</ele>
        <time>2020-11-11T16:13:18Z</time>
      </trkpt>
      <trkpt lat="28.3380630" lon="-16.5275770">
        <ele>1468.9</ele>
        <time>2020-11-11T16:13:19Z</time>
      </trkpt>
      <trkpt lat="28.3380520" lon="-16.5276220">
        <ele>1468.9</ele>
        <time>2020-11-11T16:13:20Z</time>
      </trkpt>
      <trkpt lat="28.3380520" lon="-16.5276220">
        <ele>1469.9</ele>
        <time>2020-11-11T16:13:21Z</time>
      </trkpt>
      <trkpt lat="28.3380220" lon="-16.5276480">
        <ele>1469.9</ele>
        <time>2020-11-11T16:13:22Z</time>
      </trkpt>
      <trkpt lat="28.3380170" lon="-16.5276620">
        <ele>1469.9</ele>
        <time>2020-11-11T16:13:23Z</time>
      </trkpt>
      <trkpt lat="28.3380170" lon="-16.5276620">
        <ele>1469.9</ele>
        <time>2020-11-11T16:13:24Z</time>
      </trkpt>
      <trkpt lat="28.3380100" lon="-16.5276830">
        <ele>1469.9</ele>
        <time>2020-11-11T16:13:25Z</time>
      </trkpt>
      <trkpt lat="28.3380100" lon="-16.5276830">
        <ele>1470.9</ele>
        <time>2020-11-11T16:13:26Z</time>
      </trkpt>
      <trkpt lat="28.3380020" lon="-16.5276980">
        <ele>1470.9</ele>
        <time>2020-11-11T16:13:27Z</time>
      </trkpt>
      <trkpt lat="28.3379970" lon="-16.5277120">
        <ele>1470.9</ele>
        <time>2020-11-11T16:13:28Z</time>
      </trkpt>
      <trkpt lat="28.3379970" lon="-16.5277120">
        <ele>1470.9</ele>
        <time>2020-11-11T16:13:29Z</time>
      </trkpt>
      <trkpt lat="28.3379970" lon="-16.5277400">
        <ele>1470.9</ele>
        <time>2020-11-11T16:13:30Z</time>
      </trkpt>
      <trkpt lat="28.3379970" lon="-16.5277400">
        <ele>1470.9</ele>
        <time>2020-11-11T16:13:31Z</time>
      </trkpt>
      <trkpt lat="28.3379920" lon="-16.5277720">
        <ele>1470.9</ele>
        <time>2020-11-11T16:13:32Z</time>
      </trkpt>
      <trkpt lat="28.3379920" lon="-16.5277720">
        <ele>1470.9</ele>
        <time>2020-11-11T16:13:33Z</time>
      </trkpt>
      <trkpt lat="28.3379850" lon="-16.5278020">
        <ele>1470.9</ele>
        <time>2020-11-11T16:13:34Z</time>
      </trkpt>
      <trkpt lat="28.3379850" lon="-16.5278020">
        <ele>1470.9</ele>
        <time>2020-11-11T16:13:35Z</time>
      </trkpt>
      <trkpt lat="28.3379680" lon="-16.5278380">
        <ele>1470.9</ele>
        <time>2020-11-11T16:13:36Z</time>
      </trkpt>
      <trkpt lat="28.3379680" lon="-16.5278380">
        <ele>1470.9</ele>
        <time>2020-11-11T16:13:37Z</time>
      </trkpt>
      <trkpt lat="28.3379480" lon="-16.5278880">
        <ele>1470.9</ele>
        <time>2020-11-11T16:13:38Z</time>
      </trkpt>
      <trkpt lat="28.3379480" lon="-16.5278880">
        <ele>1470.9</ele>
        <time>2020-11-11T16:13:39Z</time>
      </trkpt>
      <trkpt lat="28.3379350" lon="-16.5279280">
        <ele>1471.9</ele>
        <time>2020-11-11T16:13:40Z</time>
      </trkpt>
      <trkpt lat="28.3379350" lon="-16.5279280">
        <ele>1471.9</ele>
        <time>2020-11-11T16:13:41Z</time>
      </trkpt>
      <trkpt lat="28.3379250" lon="-16.5279570">
        <ele>1471.9</ele>
        <time>2020-11-11T16:13:42Z</time>
      </trkpt>
      <trkpt lat="28.3379250" lon="-16.5279570">
        <ele>1471.9</ele>
        <time>2020-11-11T16:13:43Z</time>
      </trkpt>
      <trkpt lat="28.3379050" lon="-16.5279820">
        <ele>1471.9</ele>
        <time>2020-11-11T16:13:44Z</time>
      </trkpt>
      <trkpt lat="28.3379050" lon="-16.5279820">
        <ele>1471.9</ele>
        <time>2020-11-11T16:13:45Z</time>
      </trkpt>
      <trkpt lat="28.3378780" lon="-16.5280130">
        <ele>1472.9</ele>
        <time>2020-11-11T16:13:46Z</time>
      </trkpt>
      <trkpt lat="28.3378780" lon="-16.5280130">
        <ele>1472.9</ele>
        <time>2020-11-11T16:13:47Z</time>
      </trkpt>
      <trkpt lat="28.3378450" lon="-16.5281020">
        <ele>1472.9</ele>
        <time>2020-11-11T16:13:48Z</time>
      </trkpt>
      <trkpt lat="28.3378450" lon="-16.5281020">
        <ele>1472.9</ele>
        <time>2020-11-11T16:13:49Z</time>
      </trkpt>
      <trkpt lat="28.3378150" lon="-16.5281500">
        <ele>1472.9</ele>
        <time>2020-11-11T16:13:50Z</time>
      </trkpt>
      <trkpt lat="28.3378150" lon="-16.5281500">
        <ele>1472.9</ele>
        <time>2020-11-11T16:13:51Z</time>
      </trkpt>
      <trkpt lat="28.3377850" lon="-16.5281870">
        <ele>1473.9</ele>
        <time>2020-11-11T16:13:52Z</time>
      </trkpt>
      <trkpt lat="28.3377850" lon="-16.5281870">
        <ele>1473.9</ele>
        <time>2020-11-11T16:13:53Z</time>
      </trkpt>
      <trkpt lat="28.3377530" lon="-16.5282170">
        <ele>1473.9</ele>
        <time>2020-11-11T16:13:54Z</time>
      </trkpt>
      <trkpt lat="28.3377350" lon="-16.5282320">
        <ele>1473.9</ele>
        <time>2020-11-11T16:13:55Z</time>
      </trkpt>
      <trkpt lat="28.3377350" lon="-16.5282320">
        <ele>1473.9</ele>
        <time>2020-11-11T16:13:56Z</time>
      </trkpt>
      <trkpt lat="28.3377000" lon="-16.5282630">
        <ele>1473.9</ele>
        <time>2020-11-11T16:13:57Z</time>
      </trkpt>
      <trkpt lat="28.3377000" lon="-16.5282630">
        <ele>1474.9</ele>
        <time>2020-11-11T16:13:58Z</time>
      </trkpt>
      <trkpt lat="28.3376600" lon="-16.5282950">
        <ele>1474.9</ele>
        <time>2020-11-11T16:13:59Z</time>
      </trkpt>
      <trkpt lat="28.3376400" lon="-16.5283070">
        <ele>1474.9</ele>
        <time>2020-11-11T16:14:00Z</time>
      </trkpt>
      <trkpt lat="28.3376200" lon="-16.5283180">
        <ele>1474.9</ele>
        <time>2020-11-11T16:14:01Z</time>
      </trkpt>
      <trkpt lat="28.3376200" lon="-16.5283180">
        <ele>1474.9</ele>
        <time>2020-11-11T16:14:02Z</time>
      </trkpt>
      <trkpt lat="28.3375870" lon="-16.5283330">
        <ele>1474.9</ele>
        <time>2020-11-11T16:14:03Z</time>
      </trkpt>
      <trkpt lat="28.3375750" lon="-16.5283520">
        <ele>1475.9</ele>
        <time>2020-11-11T16:14:04Z</time>
      </trkpt>
      <trkpt lat="28.3375750" lon="-16.5283520">
        <ele>1475.9</ele>
        <time>2020-11-11T16:14:05Z</time>
      </trkpt>
      <trkpt lat="28.3375450" lon="-16.5283720">
        <ele>1475.9</ele>
        <time>2020-11-11T16:14:06Z</time>
      </trkpt>
      <trkpt lat="28.3375450" lon="-16.5283720">
        <ele>1475.9</ele>
        <time>2020-11-11T16:14:07Z</time>
      </trkpt>
      <trkpt lat="28.3375180" lon="-16.5283900">
        <ele>1475.9</ele>
        <time>2020-11-11T16:14:08Z</time>
      </trkpt>
      <trkpt lat="28.3375180" lon="-16.5283900">
        <ele>1475.9</ele>
        <time>2020-11-11T16:14:09Z</time>
      </trkpt>
      <trkpt lat="28.3374800" lon="-16.5284170">
        <ele>1475.9</ele>
        <time>2020-11-11T16:14:10Z</time>
      </trkpt>
      <trkpt lat="28.3374800" lon="-16.5284170">
        <ele>1475.9</ele>
        <time>2020-11-11T16:14:11Z</time>
      </trkpt>
      <trkpt lat="28.3374480" lon="-16.5284350">
        <ele>1475.9</ele>
        <time>2020-11-11T16:14:12Z</time>
      </trkpt>
      <trkpt lat="28.3374350" lon="-16.5284430">
        <ele>1476.9</ele>
        <time>2020-11-11T16:14:13Z</time>
      </trkpt>
      <trkpt lat="28.3374350" lon="-16.5284430">
        <ele>1476.9</ele>
        <time>2020-11-11T16:14:14Z</time>
      </trkpt>
      <trkpt lat="28.3373970" lon="-16.5284620">
        <ele>1476.9</ele>
        <time>2020-11-11T16:14:15Z</time>
      </trkpt>
      <trkpt lat="28.3373970" lon="-16.5284620">
        <ele>1476.9</ele>
        <time>2020-11-11T16:14:16Z</time>
      </trkpt>
      <trkpt lat="28.3373580" lon="-16.5284850">
        <ele>1476.9</ele>
        <time>2020-11-11T16:14:17Z</time>
      </trkpt>
      <trkpt lat="28.3373580" lon="-16.5284850">
        <ele>1476.9</ele>
        <time>2020-11-11T16:14:18Z</time>
      </trkpt>
      <trkpt lat="28.3373200" lon="-16.5285130">
        <ele>1476.9</ele>
        <time>2020-11-11T16:14:19Z</time>
      </trkpt>
      <trkpt lat="28.3373200" lon="-16.5285130">
        <ele>1476.9</ele>
        <time>2020-11-11T16:14:20Z</time>
      </trkpt>
      <trkpt lat="28.3372970" lon="-16.5285530">
        <ele>1476.9</ele>
        <time>2020-11-11T16:14:21Z</time>
      </trkpt>
      <trkpt lat="28.3372870" lon="-16.5285720">
        <ele>1476.9</ele>
        <time>2020-11-11T16:14:22Z</time>
      </trkpt>
      <trkpt lat="28.3372870" lon="-16.5285720">
        <ele>1476.9</ele>
        <time>2020-11-11T16:14:23Z</time>
      </trkpt>
      <trkpt lat="28.3372620" lon="-16.5285830">
        <ele>1476.9</ele>
        <time>2020-11-11T16:14:24Z</time>
      </trkpt>
      <trkpt lat="28.3372620" lon="-16.5285830">
        <ele>1476.9</ele>
        <time>2020-11-11T16:14:25Z</time>
      </trkpt>
      <trkpt lat="28.3372380" lon="-16.5286030">
        <ele>1476.9</ele>
        <time>2020-11-11T16:14:26Z</time>
      </trkpt>
      <trkpt lat="28.3372230" lon="-16.5286150">
        <ele>1476.9</ele>
        <time>2020-11-11T16:14:27Z</time>
      </trkpt>
      <trkpt lat="28.3372230" lon="-16.5286150">
        <ele>1476.9</ele>
        <time>2020-11-11T16:14:28Z</time>
      </trkpt>
      <trkpt lat="28.3371780" lon="-16.5286320">
        <ele>1476.9</ele>
        <time>2020-11-11T16:14:29Z</time>
      </trkpt>
      <trkpt lat="28.3371780" lon="-16.5286320">
        <ele>1477.9</ele>
        <time>2020-11-11T16:14:30Z</time>
      </trkpt>
      <trkpt lat="28.3371350" lon="-16.5286430">
        <ele>1477.9</ele>
        <time>2020-11-11T16:14:31Z</time>
      </trkpt>
      <trkpt lat="28.3371350" lon="-16.5286430">
        <ele>1477.9</ele>
        <time>2020-11-11T16:14:32Z</time>
      </trkpt>
      <trkpt lat="28.3371070" lon="-16.5286550">
        <ele>1477.9</ele>
        <time>2020-11-11T16:14:33Z</time>
      </trkpt>
      <trkpt lat="28.3371070" lon="-16.5286550">
        <ele>1477.9</ele>
        <time>2020-11-11T16:14:34Z</time>
      </trkpt>
      <trkpt lat="28.3370720" lon="-16.5286680">
        <ele>1477.9</ele>
        <time>2020-11-11T16:14:35Z</time>
      </trkpt>
      <trkpt lat="28.3370520" lon="-16.5286730">
        <ele>1478.9</ele>
        <time>2020-11-11T16:14:36Z</time>
      </trkpt>
      <trkpt lat="28.3370520" lon="-16.5286730">
        <ele>1478.9</ele>
        <time>2020-11-11T16:14:37Z</time>
      </trkpt>
      <trkpt lat="28.3370200" lon="-16.5286770">
        <ele>1478.9</ele>
        <time>2020-11-11T16:14:38Z</time>
      </trkpt>
      <trkpt lat="28.3370200" lon="-16.5286770">
        <ele>1478.9</ele>
        <time>2020-11-11T16:14:39Z</time>
      </trkpt>
      <trkpt lat="28.3369880" lon="-16.5286880">
        <ele>1478.9</ele>
        <time>2020-11-11T16:14:40Z</time>
      </trkpt>
      <trkpt lat="28.3369880" lon="-16.5286880">
        <ele>1478.9</ele>
        <time>2020-11-11T16:14:41Z</time>
      </trkpt>
      <trkpt lat="28.3369520" lon="-16.5287020">
        <ele>1478.9</ele>
        <time>2020-11-11T16:14:42Z</time>
      </trkpt>
      <trkpt lat="28.3369320" lon="-16.5287100">
        <ele>1479.9</ele>
        <time>2020-11-11T16:14:43Z</time>
      </trkpt>
      <trkpt lat="28.3369320" lon="-16.5287100">
        <ele>1479.9</ele>
        <time>2020-11-11T16:14:44Z</time>
      </trkpt>
      <trkpt lat="28.3368950" lon="-16.5287280">
        <ele>1479.9</ele>
        <time>2020-11-11T16:14:45Z</time>
      </trkpt>
      <trkpt lat="28.3368950" lon="-16.5287280">
        <ele>1479.9</ele>
        <time>2020-11-11T16:14:46Z</time>
      </trkpt>
      <trkpt lat="28.3368570" lon="-16.5287600">
        <ele>1479.9</ele>
        <time>2020-11-11T16:14:47Z</time>
      </trkpt>
      <trkpt lat="28.3368320" lon="-16.5287730">
        <ele>1479.9</ele>
        <time>2020-11-11T16:14:48Z</time>
      </trkpt>
      <trkpt lat="28.3367970" lon="-16.5287850">
        <ele>1479.9</ele>
        <time>2020-11-11T16:14:49Z</time>
      </trkpt>
      <trkpt lat="28.3367970" lon="-16.5287850">
        <ele>1479.9</ele>
        <time>2020-11-11T16:14:50Z</time>
      </trkpt>
      <trkpt lat="28.3367430" lon="-16.5288000">
        <ele>1479.9</ele>
        <time>2020-11-11T16:14:51Z</time>
      </trkpt>
      <trkpt lat="28.3367430" lon="-16.5288000">
        <ele>1479.9</ele>
        <time>2020-11-11T16:14:52Z</time>
      </trkpt>
      <trkpt lat="28.3367130" lon="-16.5288180">
        <ele>1479.9</ele>
        <time>2020-11-11T16:14:53Z</time>
      </trkpt>
      <trkpt lat="28.3367130" lon="-16.5288180">
        <ele>1479.9</ele>
        <time>2020-11-11T16:14:54Z</time>
      </trkpt>
      <trkpt lat="28.3366820" lon="-16.5288400">
        <ele>1479.9</ele>
        <time>2020-11-11T16:14:55Z</time>
      </trkpt>
      <trkpt lat="28.3366670" lon="-16.5288520">
        <ele>1479.9</ele>
        <time>2020-11-11T16:14:56Z</time>
      </trkpt>
      <trkpt lat="28.3366670" lon="-16.5288520">
        <ele>1480.9</ele>
        <time>2020-11-11T16:14:57Z</time>
      </trkpt>
      <trkpt lat="28.3366470" lon="-16.5288770">
        <ele>1480.9</ele>
        <time>2020-11-11T16:14:58Z</time>
      </trkpt>
      <trkpt lat="28.3366470" lon="-16.5288770">
        <ele>1480.9</ele>
        <time>2020-11-11T16:14:59Z</time>
      </trkpt>
      <trkpt lat="28.3366250" lon="-16.5289030">
        <ele>1480.9</ele>
        <time>2020-11-11T16:15:00Z</time>
      </trkpt>
      <trkpt lat="28.3366200" lon="-16.5289180">
        <ele>1480.9</ele>
        <time>2020-11-11T16:15:01Z</time>
      </trkpt>
      <trkpt lat="28.3366200" lon="-16.5289180">
        <ele>1480.9</ele>
        <time>2020-11-11T16:15:02Z</time>
      </trkpt>
      <trkpt lat="28.3366070" lon="-16.5289470">
        <ele>1481.9</ele>
        <time>2020-11-11T16:15:03Z</time>
      </trkpt>
      <trkpt lat="28.3366070" lon="-16.5289470">
        <ele>1481.9</ele>
        <time>2020-11-11T16:15:04Z</time>
      </trkpt>
      <trkpt lat="28.3365950" lon="-16.5289770">
        <ele>1481.9</ele>
        <time>2020-11-11T16:15:05Z</time>
      </trkpt>
      <trkpt lat="28.3365950" lon="-16.5289770">
        <ele>1481.9</ele>
        <time>2020-11-11T16:15:06Z</time>
      </trkpt>
      <trkpt lat="28.3365720" lon="-16.5290100">
        <ele>1481.9</ele>
        <time>2020-11-11T16:15:07Z</time>
      </trkpt>
      <trkpt lat="28.3365720" lon="-16.5290100">
        <ele>1481.9</ele>
        <time>2020-11-11T16:15:08Z</time>
      </trkpt>
      <trkpt lat="28.3365570" lon="-16.5290430">
        <ele>1481.9</ele>
        <time>2020-11-11T16:15:09Z</time>
      </trkpt>
      <trkpt lat="28.3365570" lon="-16.5290430">
        <ele>1482.9</ele>
        <time>2020-11-11T16:15:10Z</time>
      </trkpt>
      <trkpt lat="28.3365320" lon="-16.5290780">
        <ele>1482.9</ele>
        <time>2020-11-11T16:15:11Z</time>
      </trkpt>
      <trkpt lat="28.3365170" lon="-16.5291000">
        <ele>1482.9</ele>
        <time>2020-11-11T16:15:12Z</time>
      </trkpt>
      <trkpt lat="28.3365170" lon="-16.5291000">
        <ele>1482.9</ele>
        <time>2020-11-11T16:15:13Z</time>
      </trkpt>
      <trkpt lat="28.3364920" lon="-16.5291370">
        <ele>1482.9</ele>
        <time>2020-11-11T16:15:14Z</time>
      </trkpt>
      <trkpt lat="28.3364920" lon="-16.5291370">
        <ele>1483.9</ele>
        <time>2020-11-11T16:15:15Z</time>
      </trkpt>
      <trkpt lat="28.3364650" lon="-16.5291720">
        <ele>1483.9</ele>
        <time>2020-11-11T16:15:16Z</time>
      </trkpt>
      <trkpt lat="28.3364650" lon="-16.5291720">
        <ele>1483.9</ele>
        <time>2020-11-11T16:15:17Z</time>
      </trkpt>
      <trkpt lat="28.3364350" lon="-16.5292050">
        <ele>1483.9</ele>
        <time>2020-11-11T16:15:18Z</time>
      </trkpt>
      <trkpt lat="28.3364350" lon="-16.5292050">
        <ele>1483.9</ele>
        <time>2020-11-11T16:15:19Z</time>
      </trkpt>
      <trkpt lat="28.3363820" lon="-16.5292480">
        <ele>1483.9</ele>
        <time>2020-11-11T16:15:20Z</time>
      </trkpt>
      <trkpt lat="28.3363820" lon="-16.5292480">
        <ele>1483.9</ele>
        <time>2020-11-11T16:15:21Z</time>
      </trkpt>
      <trkpt lat="28.3363470" lon="-16.5292980">
        <ele>1484.9</ele>
        <time>2020-11-11T16:15:22Z</time>
      </trkpt>
      <trkpt lat="28.3363470" lon="-16.5292980">
        <ele>1484.9</ele>
        <time>2020-11-11T16:15:23Z</time>
      </trkpt>
      <trkpt lat="28.3363130" lon="-16.5293280">
        <ele>1484.9</ele>
        <time>2020-11-11T16:15:24Z</time>
      </trkpt>
      <trkpt lat="28.3363130" lon="-16.5293280">
        <ele>1484.9</ele>
        <time>2020-11-11T16:15:25Z</time>
      </trkpt>
      <trkpt lat="28.3362870" lon="-16.5293580">
        <ele>1484.9</ele>
        <time>2020-11-11T16:15:26Z</time>
      </trkpt>
      <trkpt lat="28.3362870" lon="-16.5293580">
        <ele>1484.9</ele>
        <time>2020-11-11T16:15:27Z</time>
      </trkpt>
      <trkpt lat="28.3362700" lon="-16.5293770">
        <ele>1485.9</ele>
        <time>2020-11-11T16:15:28Z</time>
      </trkpt>
      <trkpt lat="28.3362700" lon="-16.5293770">
        <ele>1485.9</ele>
        <time>2020-11-11T16:15:29Z</time>
      </trkpt>
      <trkpt lat="28.3362500" lon="-16.5293970">
        <ele>1485.9</ele>
        <time>2020-11-11T16:15:30Z</time>
      </trkpt>
      <trkpt lat="28.3362500" lon="-16.5293970">
        <ele>1485.9</ele>
        <time>2020-11-11T16:15:31Z</time>
      </trkpt>
      <trkpt lat="28.3362200" lon="-16.5294180">
        <ele>1485.9</ele>
        <time>2020-11-11T16:15:32Z</time>
      </trkpt>
      <trkpt lat="28.3362200" lon="-16.5294180">
        <ele>1485.9</ele>
        <time>2020-11-11T16:15:33Z</time>
      </trkpt>
      <trkpt lat="28.3361900" lon="-16.5294350">
        <ele>1485.9</ele>
        <time>2020-11-11T16:15:34Z</time>
      </trkpt>
      <trkpt lat="28.3361900" lon="-16.5294350">
        <ele>1485.9</ele>
        <time>2020-11-11T16:15:35Z</time>
      </trkpt>
      <trkpt lat="28.3361520" lon="-16.5294580">
        <ele>1485.9</ele>
        <time>2020-11-11T16:15:36Z</time>
      </trkpt>
      <trkpt lat="28.3361350" lon="-16.5294670">
        <ele>1486.9</ele>
        <time>2020-11-11T16:15:37Z</time>
      </trkpt>
      <trkpt lat="28.3361350" lon="-16.5294670">
        <ele>1486.9</ele>
        <time>2020-11-11T16:15:38Z</time>
      </trkpt>
      <trkpt lat="28.3361030" lon="-16.5294820">
        <ele>1486.9</ele>
        <time>2020-11-11T16:15:39Z</time>
      </trkpt>
      <trkpt lat="28.3361030" lon="-16.5294820">
        <ele>1486.9</ele>
        <time>2020-11-11T16:15:40Z</time>
      </trkpt>
      <trkpt lat="28.3360680" lon="-16.5295020">
        <ele>1486.9</ele>
        <time>2020-11-11T16:15:41Z</time>
      </trkpt>
      <trkpt lat="28.3360680" lon="-16.5295020">
        <ele>1486.9</ele>
        <time>2020-11-11T16:15:42Z</time>
      </trkpt>
      <trkpt lat="28.3360370" lon="-16.5295280">
        <ele>1486.9</ele>
        <time>2020-11-11T16:15:43Z</time>
      </trkpt>
      <trkpt lat="28.3360370" lon="-16.5295280">
        <ele>1486.9</ele>
        <time>2020-11-11T16:15:44Z</time>
      </trkpt>
      <trkpt lat="28.3360020" lon="-16.5295500">
        <ele>1487.9</ele>
        <time>2020-11-11T16:15:45Z</time>
      </trkpt>
      <trkpt lat="28.3360020" lon="-16.5295500">
        <ele>1487.9</ele>
        <time>2020-11-11T16:15:46Z</time>
      </trkpt>
      <trkpt lat="28.3359670" lon="-16.5295680">
        <ele>1487.9</ele>
        <time>2020-11-11T16:15:47Z</time>
      </trkpt>
      <trkpt lat="28.3359670" lon="-16.5295680">
        <ele>1487.9</ele>
        <time>2020-11-11T16:15:48Z</time>
      </trkpt>
      <trkpt lat="28.3359330" lon="-16.5295930">
        <ele>1487.9</ele>
        <time>2020-11-11T16:15:49Z</time>
      </trkpt>
      <trkpt lat="28.3359330" lon="-16.5295930">
        <ele>1487.9</ele>
        <time>2020-11-11T16:15:50Z</time>
      </trkpt>
      <trkpt lat="28.3358950" lon="-16.5296200">
        <ele>1487.9</ele>
        <time>2020-11-11T16:15:51Z</time>
      </trkpt>
      <trkpt lat="28.3358950" lon="-16.5296200">
        <ele>1488.9</ele>
        <time>2020-11-11T16:15:52Z</time>
      </trkpt>
      <trkpt lat="28.3358570" lon="-16.5296520">
        <ele>1488.9</ele>
        <time>2020-11-11T16:15:53Z</time>
      </trkpt>
      <trkpt lat="28.3358570" lon="-16.5296520">
        <ele>1488.9</ele>
        <time>2020-11-11T16:15:54Z</time>
      </trkpt>
      <trkpt lat="28.3358180" lon="-16.5296820">
        <ele>1488.9</ele>
        <time>2020-11-11T16:15:55Z</time>
      </trkpt>
      <trkpt lat="28.3358180" lon="-16.5296820">
        <ele>1488.9</ele>
        <time>2020-11-11T16:15:56Z</time>
      </trkpt>
      <trkpt lat="28.3357850" lon="-16.5297020">
        <ele>1488.9</ele>
        <time>2020-11-11T16:15:57Z</time>
      </trkpt>
      <trkpt lat="28.3357630" lon="-16.5297130">
        <ele>1489.9</ele>
        <time>2020-11-11T16:15:58Z</time>
      </trkpt>
      <trkpt lat="28.3357630" lon="-16.5297130">
        <ele>1489.9</ele>
        <time>2020-11-11T16:15:59Z</time>
      </trkpt>
      <trkpt lat="28.3357230" lon="-16.5297300">
        <ele>1489.9</ele>
        <time>2020-11-11T16:16:00Z</time>
      </trkpt>
      <trkpt lat="28.3357230" lon="-16.5297300">
        <ele>1489.9</ele>
        <time>2020-11-11T16:16:01Z</time>
      </trkpt>
      <trkpt lat="28.3356920" lon="-16.5297420">
        <ele>1489.9</ele>
        <time>2020-11-11T16:16:02Z</time>
      </trkpt>
      <trkpt lat="28.3356720" lon="-16.5297480">
        <ele>1489.9</ele>
        <time>2020-11-11T16:16:03Z</time>
      </trkpt>
      <trkpt lat="28.3356720" lon="-16.5297480">
        <ele>1490.9</ele>
        <time>2020-11-11T16:16:04Z</time>
      </trkpt>
      <trkpt lat="28.3356330" lon="-16.5297620">
        <ele>1490.9</ele>
        <time>2020-11-11T16:16:05Z</time>
      </trkpt>
      <trkpt lat="28.3356330" lon="-16.5297620">
        <ele>1490.9</ele>
        <time>2020-11-11T16:16:06Z</time>
      </trkpt>
      <trkpt lat="28.3355970" lon="-16.5297720">
        <ele>1490.9</ele>
        <time>2020-11-11T16:16:07Z</time>
      </trkpt>
      <trkpt lat="28.3355970" lon="-16.5297720">
        <ele>1490.9</ele>
        <time>2020-11-11T16:16:08Z</time>
      </trkpt>
      <trkpt lat="28.3355630" lon="-16.5297930">
        <ele>1490.9</ele>
        <time>2020-11-11T16:16:09Z</time>
      </trkpt>
      <trkpt lat="28.3355630" lon="-16.5297930">
        <ele>1490.9</ele>
        <time>2020-11-11T16:16:10Z</time>
      </trkpt>
      <trkpt lat="28.3355220" lon="-16.5298200">
        <ele>1490.9</ele>
        <time>2020-11-11T16:16:11Z</time>
      </trkpt>
      <trkpt lat="28.3355220" lon="-16.5298200">
        <ele>1491.9</ele>
        <time>2020-11-11T16:16:12Z</time>
      </trkpt>
      <trkpt lat="28.3354870" lon="-16.5298520">
        <ele>1491.9</ele>
        <time>2020-11-11T16:16:13Z</time>
      </trkpt>
      <trkpt lat="28.3354870" lon="-16.5298520">
        <ele>1491.9</ele>
        <time>2020-11-11T16:16:14Z</time>
      </trkpt>
      <trkpt lat="28.3354480" lon="-16.5298800">
        <ele>1491.9</ele>
        <time>2020-11-11T16:16:15Z</time>
      </trkpt>
      <trkpt lat="28.3354480" lon="-16.5298800">
        <ele>1492.9</ele>
        <time>2020-11-11T16:16:16Z</time>
      </trkpt>
      <trkpt lat="28.3354070" lon="-16.5298930">
        <ele>1492.9</ele>
        <time>2020-11-11T16:16:17Z</time>
      </trkpt>
      <trkpt lat="28.3354070" lon="-16.5298930">
        <ele>1492.9</ele>
        <time>2020-11-11T16:16:18Z</time>
      </trkpt>
      <trkpt lat="28.3353730" lon="-16.5299070">
        <ele>1492.9</ele>
        <time>2020-11-11T16:16:19Z</time>
      </trkpt>
      <trkpt lat="28.3353730" lon="-16.5299070">
        <ele>1493.9</ele>
        <time>2020-11-11T16:16:20Z</time>
      </trkpt>
      <trkpt lat="28.3353380" lon="-16.5299280">
        <ele>1493.9</ele>
        <time>2020-11-11T16:16:21Z</time>
      </trkpt>
      <trkpt lat="28.3353380" lon="-16.5299280">
        <ele>1493.9</ele>
        <time>2020-11-11T16:16:22Z</time>
      </trkpt>
      <trkpt lat="28.3352950" lon="-16.5299830">
        <ele>1493.9</ele>
        <time>2020-11-11T16:16:23Z</time>
      </trkpt>
      <trkpt lat="28.3352950" lon="-16.5299830">
        <ele>1493.9</ele>
        <time>2020-11-11T16:16:24Z</time>
      </trkpt>
      <trkpt lat="28.3352480" lon="-16.5300170">
        <ele>1493.9</ele>
        <time>2020-11-11T16:16:25Z</time>
      </trkpt>
      <trkpt lat="28.3352480" lon="-16.5300170">
        <ele>1494.9</ele>
        <time>2020-11-11T16:16:26Z</time>
      </trkpt>
      <trkpt lat="28.3352150" lon="-16.5300400">
        <ele>1494.9</ele>
        <time>2020-11-11T16:16:27Z</time>
      </trkpt>
      <trkpt lat="28.3352150" lon="-16.5300400">
        <ele>1494.9</ele>
        <time>2020-11-11T16:16:28Z</time>
      </trkpt>
      <trkpt lat="28.3351920" lon="-16.5300430">
        <ele>1494.9</ele>
        <time>2020-11-11T16:16:29Z</time>
      </trkpt>
      <trkpt lat="28.3351920" lon="-16.5300430">
        <ele>1494.9</ele>
        <time>2020-11-11T16:16:30Z</time>
      </trkpt>
      <trkpt lat="28.3351530" lon="-16.5300720">
        <ele>1495.9</ele>
        <time>2020-11-11T16:16:31Z</time>
      </trkpt>
      <trkpt lat="28.3351530" lon="-16.5300720">
        <ele>1495.9</ele>
        <time>2020-11-11T16:16:32Z</time>
      </trkpt>
      <trkpt lat="28.3351130" lon="-16.5300920">
        <ele>1495.9</ele>
        <time>2020-11-11T16:16:33Z</time>
      </trkpt>
      <trkpt lat="28.3351130" lon="-16.5300920">
        <ele>1495.9</ele>
        <time>2020-11-11T16:16:34Z</time>
      </trkpt>
      <trkpt lat="28.3350700" lon="-16.5301080">
        <ele>1495.9</ele>
        <time>2020-11-11T16:16:35Z</time>
      </trkpt>
      <trkpt lat="28.3350700" lon="-16.5301080">
        <ele>1495.9</ele>
        <time>2020-11-11T16:16:36Z</time>
      </trkpt>
      <trkpt lat="28.3350270" lon="-16.5301230">
        <ele>1496.9</ele>
        <time>2020-11-11T16:16:37Z</time>
      </trkpt>
      <trkpt lat="28.3350270" lon="-16.5301230">
        <ele>1496.9</ele>
        <time>2020-11-11T16:16:38Z</time>
      </trkpt>
      <trkpt lat="28.3349830" lon="-16.5301420">
        <ele>1496.9</ele>
        <time>2020-11-11T16:16:39Z</time>
      </trkpt>
      <trkpt lat="28.3349650" lon="-16.5301520">
        <ele>1496.9</ele>
        <time>2020-11-11T16:16:40Z</time>
      </trkpt>
      <trkpt lat="28.3349650" lon="-16.5301520">
        <ele>1496.9</ele>
        <time>2020-11-11T16:16:41Z</time>
      </trkpt>
      <trkpt lat="28.3349330" lon="-16.5301730">
        <ele>1496.9</ele>
        <time>2020-11-11T16:16:42Z</time>
      </trkpt>
      <trkpt lat="28.3349120" lon="-16.5301880">
        <ele>1496.9</ele>
        <time>2020-11-11T16:16:43Z</time>
      </trkpt>
      <trkpt lat="28.3349120" lon="-16.5301880">
        <ele>1496.9</ele>
        <time>2020-11-11T16:16:44Z</time>
      </trkpt>
      <trkpt lat="28.3348730" lon="-16.5302220">
        <ele>1496.9</ele>
        <time>2020-11-11T16:16:45Z</time>
      </trkpt>
      <trkpt lat="28.3348530" lon="-16.5302380">
        <ele>1496.9</ele>
        <time>2020-11-11T16:16:46Z</time>
      </trkpt>
      <trkpt lat="28.3348530" lon="-16.5302380">
        <ele>1496.9</ele>
        <time>2020-11-11T16:16:47Z</time>
      </trkpt>
      <trkpt lat="28.3348200" lon="-16.5302630">
        <ele>1496.9</ele>
        <time>2020-11-11T16:16:48Z</time>
      </trkpt>
      <trkpt lat="28.3348200" lon="-16.5302630">
        <ele>1496.9</ele>
        <time>2020-11-11T16:16:49Z</time>
      </trkpt>
      <trkpt lat="28.3347930" lon="-16.5302920">
        <ele>1496.9</ele>
        <time>2020-11-11T16:16:50Z</time>
      </trkpt>
      <trkpt lat="28.3347820" lon="-16.5303070">
        <ele>1496.9</ele>
        <time>2020-11-11T16:16:51Z</time>
      </trkpt>
      <trkpt lat="28.3347820" lon="-16.5303070">
        <ele>1497.9</ele>
        <time>2020-11-11T16:16:52Z</time>
      </trkpt>
      <trkpt lat="28.3347350" lon="-16.5303320">
        <ele>1497.9</ele>
        <time>2020-11-11T16:16:53Z</time>
      </trkpt>
      <trkpt lat="28.3347350" lon="-16.5303320">
        <ele>1497.9</ele>
        <time>2020-11-11T16:16:54Z</time>
      </trkpt>
      <trkpt lat="28.3346980" lon="-16.5303500">
        <ele>1497.9</ele>
        <time>2020-11-11T16:16:55Z</time>
      </trkpt>
      <trkpt lat="28.3346980" lon="-16.5303500">
        <ele>1497.9</ele>
        <time>2020-11-11T16:16:56Z</time>
      </trkpt>
      <trkpt lat="28.3346600" lon="-16.5303650">
        <ele>1498.9</ele>
        <time>2020-11-11T16:16:57Z</time>
      </trkpt>
      <trkpt lat="28.3346600" lon="-16.5303650">
        <ele>1498.9</ele>
        <time>2020-11-11T16:16:58Z</time>
      </trkpt>
      <trkpt lat="28.3346270" lon="-16.5303820">
        <ele>1498.9</ele>
        <time>2020-11-11T16:16:59Z</time>
      </trkpt>
      <trkpt lat="28.3346270" lon="-16.5303820">
        <ele>1498.9</ele>
        <time>2020-11-11T16:17:00Z</time>
      </trkpt>
      <trkpt lat="28.3345920" lon="-16.5303930">
        <ele>1498.9</ele>
        <time>2020-11-11T16:17:01Z</time>
      </trkpt>
      <trkpt lat="28.3345920" lon="-16.5303930">
        <ele>1498.9</ele>
        <time>2020-11-11T16:17:02Z</time>
      </trkpt>
      <trkpt lat="28.3345600" lon="-16.5304130">
        <ele>1498.9</ele>
        <time>2020-11-11T16:17:03Z</time>
      </trkpt>
      <trkpt lat="28.3345470" lon="-16.5304270">
        <ele>1499.9</ele>
        <time>2020-11-11T16:17:04Z</time>
      </trkpt>
      <trkpt lat="28.3345470" lon="-16.5304270">
        <ele>1499.9</ele>
        <time>2020-11-11T16:17:05Z</time>
      </trkpt>
      <trkpt lat="28.3345170" lon="-16.5304450">
        <ele>1499.9</ele>
        <time>2020-11-11T16:17:06Z</time>
      </trkpt>
      <trkpt lat="28.3345030" lon="-16.5304580">
        <ele>1499.9</ele>
        <time>2020-11-11T16:17:07Z</time>
      </trkpt>
      <trkpt lat="28.3345030" lon="-16.5304580">
        <ele>1500.9</ele>
        <time>2020-11-11T16:17:08Z</time>
      </trkpt>
      <trkpt lat="28.3344700" lon="-16.5304820">
        <ele>1500.9</ele>
        <time>2020-11-11T16:17:09Z</time>
      </trkpt>
      <trkpt lat="28.3344700" lon="-16.5304820">
        <ele>1500.9</ele>
        <time>2020-11-11T16:17:10Z</time>
      </trkpt>
      <trkpt lat="28.3344330" lon="-16.5305050">
        <ele>1500.9</ele>
        <time>2020-11-11T16:17:11Z</time>
      </trkpt>
      <trkpt lat="28.3344150" lon="-16.5305170">
        <ele>1500.9</ele>
        <time>2020-11-11T16:17:12Z</time>
      </trkpt>
      <trkpt lat="28.3344150" lon="-16.5305170">
        <ele>1500.9</ele>
        <time>2020-11-11T16:17:13Z</time>
      </trkpt>
      <trkpt lat="28.3343820" lon="-16.5305420">
        <ele>1500.9</ele>
        <time>2020-11-11T16:17:14Z</time>
      </trkpt>
      <trkpt lat="28.3343820" lon="-16.5305420">
        <ele>1500.9</ele>
        <time>2020-11-11T16:17:15Z</time>
      </trkpt>
      <trkpt lat="28.3343420" lon="-16.5305550">
        <ele>1501.9</ele>
        <time>2020-11-11T16:17:16Z</time>
      </trkpt>
      <trkpt lat="28.3343420" lon="-16.5305550">
        <ele>1501.9</ele>
        <time>2020-11-11T16:17:17Z</time>
      </trkpt>
      <trkpt lat="28.3343080" lon="-16.5305720">
        <ele>1501.9</ele>
        <time>2020-11-11T16:17:18Z</time>
      </trkpt>
      <trkpt lat="28.3343080" lon="-16.5305720">
        <ele>1501.9</ele>
        <time>2020-11-11T16:17:19Z</time>
      </trkpt>
      <trkpt lat="28.3342770" lon="-16.5305980">
        <ele>1501.9</ele>
        <time>2020-11-11T16:17:20Z</time>
      </trkpt>
      <trkpt lat="28.3342770" lon="-16.5305980">
        <ele>1501.9</ele>
        <time>2020-11-11T16:17:21Z</time>
      </trkpt>
      <trkpt lat="28.3342500" lon="-16.5306300">
        <ele>1501.9</ele>
        <time>2020-11-11T16:17:22Z</time>
      </trkpt>
      <trkpt lat="28.3342500" lon="-16.5306300">
        <ele>1501.9</ele>
        <time>2020-11-11T16:17:23Z</time>
      </trkpt>
      <trkpt lat="28.3342170" lon="-16.5306650">
        <ele>1501.9</ele>
        <time>2020-11-11T16:17:24Z</time>
      </trkpt>
      <trkpt lat="28.3341980" lon="-16.5306800">
        <ele>1501.9</ele>
        <time>2020-11-11T16:17:25Z</time>
      </trkpt>
      <trkpt lat="28.3341980" lon="-16.5306800">
        <ele>1501.9</ele>
        <time>2020-11-11T16:17:26Z</time>
      </trkpt>
      <trkpt lat="28.3341570" lon="-16.5307050">
        <ele>1501.9</ele>
        <time>2020-11-11T16:17:27Z</time>
      </trkpt>
      <trkpt lat="28.3341380" lon="-16.5307130">
        <ele>1502.9</ele>
        <time>2020-11-11T16:17:28Z</time>
      </trkpt>
      <trkpt lat="28.3341380" lon="-16.5307130">
        <ele>1502.9</ele>
        <time>2020-11-11T16:17:29Z</time>
      </trkpt>
      <trkpt lat="28.3341030" lon="-16.5307330">
        <ele>1502.9</ele>
        <time>2020-11-11T16:17:30Z</time>
      </trkpt>
      <trkpt lat="28.3340830" lon="-16.5307420">
        <ele>1502.9</ele>
        <time>2020-11-11T16:17:31Z</time>
      </trkpt>
      <trkpt lat="28.3340830" lon="-16.5307420">
        <ele>1502.9</ele>
        <time>2020-11-11T16:17:32Z</time>
      </trkpt>
      <trkpt lat="28.3340450" lon="-16.5307600">
        <ele>1502.9</ele>
        <time>2020-11-11T16:17:33Z</time>
      </trkpt>
      <trkpt lat="28.3340280" lon="-16.5307680">
        <ele>1503.9</ele>
        <time>2020-11-11T16:17:34Z</time>
      </trkpt>
      <trkpt lat="28.3340280" lon="-16.5307680">
        <ele>1503.9</ele>
        <time>2020-11-11T16:17:35Z</time>
      </trkpt>
      <trkpt lat="28.3339970" lon="-16.5307920">
        <ele>1503.9</ele>
        <time>2020-11-11T16:17:36Z</time>
      </trkpt>
      <trkpt lat="28.3339970" lon="-16.5307920">
        <ele>1503.9</ele>
        <time>2020-11-11T16:17:37Z</time>
      </trkpt>
      <trkpt lat="28.3339620" lon="-16.5308100">
        <ele>1503.9</ele>
        <time>2020-11-11T16:17:38Z</time>
      </trkpt>
      <trkpt lat="28.3339420" lon="-16.5308230">
        <ele>1503.9</ele>
        <time>2020-11-11T16:17:39Z</time>
      </trkpt>
      <trkpt lat="28.3339420" lon="-16.5308230">
        <ele>1503.9</ele>
        <time>2020-11-11T16:17:40Z</time>
      </trkpt>
      <trkpt lat="28.3339030" lon="-16.5308430">
        <ele>1504.9</ele>
        <time>2020-11-11T16:17:41Z</time>
      </trkpt>
      <trkpt lat="28.3339030" lon="-16.5308430">
        <ele>1504.9</ele>
        <time>2020-11-11T16:17:42Z</time>
      </trkpt>
      <trkpt lat="28.3338700" lon="-16.5308600">
        <ele>1504.9</ele>
        <time>2020-11-11T16:17:43Z</time>
      </trkpt>
      <trkpt lat="28.3338700" lon="-16.5308600">
        <ele>1504.9</ele>
        <time>2020-11-11T16:17:44Z</time>
      </trkpt>
      <trkpt lat="28.3338370" lon="-16.5308730">
        <ele>1504.9</ele>
        <time>2020-11-11T16:17:45Z</time>
      </trkpt>
      <trkpt lat="28.3338370" lon="-16.5308730">
        <ele>1505.9</ele>
        <time>2020-11-11T16:17:46Z</time>
      </trkpt>
      <trkpt lat="28.3338020" lon="-16.5308930">
        <ele>1505.9</ele>
        <time>2020-11-11T16:17:47Z</time>
      </trkpt>
      <trkpt lat="28.3338020" lon="-16.5308930">
        <ele>1505.9</ele>
        <time>2020-11-11T16:17:48Z</time>
      </trkpt>
      <trkpt lat="28.3337730" lon="-16.5309170">
        <ele>1505.9</ele>
        <time>2020-11-11T16:17:49Z</time>
      </trkpt>
      <trkpt lat="28.3337730" lon="-16.5309170">
        <ele>1505.9</ele>
        <time>2020-11-11T16:17:50Z</time>
      </trkpt>
      <trkpt lat="28.3337430" lon="-16.5309350">
        <ele>1505.9</ele>
        <time>2020-11-11T16:17:51Z</time>
      </trkpt>
      <trkpt lat="28.3337270" lon="-16.5309480">
        <ele>1505.9</ele>
        <time>2020-11-11T16:17:52Z</time>
      </trkpt>
      <trkpt lat="28.3337270" lon="-16.5309480">
        <ele>1505.9</ele>
        <time>2020-11-11T16:17:53Z</time>
      </trkpt>
      <trkpt lat="28.3336900" lon="-16.5309720">
        <ele>1505.9</ele>
        <time>2020-11-11T16:17:54Z</time>
      </trkpt>
      <trkpt lat="28.3336900" lon="-16.5309720">
        <ele>1505.9</ele>
        <time>2020-11-11T16:17:55Z</time>
      </trkpt>
      <trkpt lat="28.3336530" lon="-16.5310080">
        <ele>1505.9</ele>
        <time>2020-11-11T16:17:56Z</time>
      </trkpt>
      <trkpt lat="28.3336370" lon="-16.5310180">
        <ele>1505.9</ele>
        <time>2020-11-11T16:17:57Z</time>
      </trkpt>
      <trkpt lat="28.3336370" lon="-16.5310180">
        <ele>1505.9</ele>
        <time>2020-11-11T16:17:58Z</time>
      </trkpt>
      <trkpt lat="28.3336070" lon="-16.5310380">
        <ele>1505.9</ele>
        <time>2020-11-11T16:17:59Z</time>
      </trkpt>
      <trkpt lat="28.3336070" lon="-16.5310380">
        <ele>1505.9</ele>
        <time>2020-11-11T16:18:00Z</time>
      </trkpt>
      <trkpt lat="28.3335700" lon="-16.5310670">
        <ele>1506.9</ele>
        <time>2020-11-11T16:18:01Z</time>
      </trkpt>
      <trkpt lat="28.3335700" lon="-16.5310670">
        <ele>1506.9</ele>
        <time>2020-11-11T16:18:02Z</time>
      </trkpt>
      <trkpt lat="28.3335330" lon="-16.5310730">
        <ele>1506.9</ele>
        <time>2020-11-11T16:18:03Z</time>
      </trkpt>
      <trkpt lat="28.3335150" lon="-16.5310750">
        <ele>1506.9</ele>
        <time>2020-11-11T16:18:04Z</time>
      </trkpt>
      <trkpt lat="28.3335150" lon="-16.5310750">
        <ele>1507.9</ele>
        <time>2020-11-11T16:18:05Z</time>
      </trkpt>
      <trkpt lat="28.3334820" lon="-16.5310900">
        <ele>1507.9</ele>
        <time>2020-11-11T16:18:06Z</time>
      </trkpt>
      <trkpt lat="28.3334820" lon="-16.5310900">
        <ele>1507.9</ele>
        <time>2020-11-11T16:18:07Z</time>
      </trkpt>
      <trkpt lat="28.3334430" lon="-16.5311080">
        <ele>1507.9</ele>
        <time>2020-11-11T16:18:08Z</time>
      </trkpt>
      <trkpt lat="28.3334430" lon="-16.5311080">
        <ele>1507.9</ele>
        <time>2020-11-11T16:18:09Z</time>
      </trkpt>
      <trkpt lat="28.3334030" lon="-16.5311320">
        <ele>1507.9</ele>
        <time>2020-11-11T16:18:10Z</time>
      </trkpt>
      <trkpt lat="28.3334030" lon="-16.5311320">
        <ele>1507.9</ele>
        <time>2020-11-11T16:18:11Z</time>
      </trkpt>
      <trkpt lat="28.3333670" lon="-16.5311470">
        <ele>1507.9</ele>
        <time>2020-11-11T16:18:12Z</time>
      </trkpt>
      <trkpt lat="28.3333670" lon="-16.5311470">
        <ele>1508.9</ele>
        <time>2020-11-11T16:18:13Z</time>
      </trkpt>
      <trkpt lat="28.3333350" lon="-16.5311580">
        <ele>1508.9</ele>
        <time>2020-11-11T16:18:14Z</time>
      </trkpt>
      <trkpt lat="28.3333350" lon="-16.5311580">
        <ele>1508.9</ele>
        <time>2020-11-11T16:18:15Z</time>
      </trkpt>
      <trkpt lat="28.3333050" lon="-16.5311780">
        <ele>1508.9</ele>
        <time>2020-11-11T16:18:16Z</time>
      </trkpt>
      <trkpt lat="28.3333050" lon="-16.5311780">
        <ele>1508.9</ele>
        <time>2020-11-11T16:18:17Z</time>
      </trkpt>
      <trkpt lat="28.3332830" lon="-16.5312080">
        <ele>1509.9</ele>
        <time>2020-11-11T16:18:18Z</time>
      </trkpt>
      <trkpt lat="28.3332680" lon="-16.5312200">
        <ele>1509.9</ele>
        <time>2020-11-11T16:18:19Z</time>
      </trkpt>
      <trkpt lat="28.3332680" lon="-16.5312200">
        <ele>1509.9</ele>
        <time>2020-11-11T16:18:20Z</time>
      </trkpt>
      <trkpt lat="28.3332350" lon="-16.5312370">
        <ele>1509.9</ele>
        <time>2020-11-11T16:18:21Z</time>
      </trkpt>
      <trkpt lat="28.3332130" lon="-16.5312420">
        <ele>1509.9</ele>
        <time>2020-11-11T16:18:22Z</time>
      </trkpt>
      <trkpt lat="28.3332130" lon="-16.5312420">
        <ele>1509.9</ele>
        <time>2020-11-11T16:18:23Z</time>
      </trkpt>
      <trkpt lat="28.3331770" lon="-16.5312620">
        <ele>1509.9</ele>
        <time>2020-11-11T16:18:24Z</time>
      </trkpt>
      <trkpt lat="28.3331770" lon="-16.5312620">
        <ele>1509.9</ele>
        <time>2020-11-11T16:18:25Z</time>
      </trkpt>
      <trkpt lat="28.3331280" lon="-16.5312800">
        <ele>1510.9</ele>
        <time>2020-11-11T16:18:26Z</time>
      </trkpt>
      <trkpt lat="28.3331280" lon="-16.5312800">
        <ele>1510.9</ele>
        <time>2020-11-11T16:18:27Z</time>
      </trkpt>
      <trkpt lat="28.3330820" lon="-16.5313030">
        <ele>1510.9</ele>
        <time>2020-11-11T16:18:28Z</time>
      </trkpt>
      <trkpt lat="28.3330570" lon="-16.5313120">
        <ele>1510.9</ele>
        <time>2020-11-11T16:18:29Z</time>
      </trkpt>
      <trkpt lat="28.3330570" lon="-16.5313120">
        <ele>1510.9</ele>
        <time>2020-11-11T16:18:30Z</time>
      </trkpt>
      <trkpt lat="28.3330120" lon="-16.5313200">
        <ele>1510.9</ele>
        <time>2020-11-11T16:18:31Z</time>
      </trkpt>
      <trkpt lat="28.3329900" lon="-16.5313200">
        <ele>1510.9</ele>
        <time>2020-11-11T16:18:32Z</time>
      </trkpt>
      <trkpt lat="28.3329900" lon="-16.5313200">
        <ele>1510.9</ele>
        <time>2020-11-11T16:18:33Z</time>
      </trkpt>
      <trkpt lat="28.3329450" lon="-16.5313320">
        <ele>1510.9</ele>
        <time>2020-11-11T16:18:34Z</time>
      </trkpt>
      <trkpt lat="28.3329450" lon="-16.5313320">
        <ele>1510.9</ele>
        <time>2020-11-11T16:18:35Z</time>
      </trkpt>
      <trkpt lat="28.3329070" lon="-16.5313330">
        <ele>1511.9</ele>
        <time>2020-11-11T16:18:36Z</time>
      </trkpt>
      <trkpt lat="28.3328880" lon="-16.5313280">
        <ele>1511.9</ele>
        <time>2020-11-11T16:18:37Z</time>
      </trkpt>
      <trkpt lat="28.3328880" lon="-16.5313280">
        <ele>1511.9</ele>
        <time>2020-11-11T16:18:38Z</time>
      </trkpt>
      <trkpt lat="28.3328500" lon="-16.5313300">
        <ele>1511.9</ele>
        <time>2020-11-11T16:18:39Z</time>
      </trkpt>
      <trkpt lat="28.3328280" lon="-16.5313350">
        <ele>1511.9</ele>
        <time>2020-11-11T16:18:40Z</time>
      </trkpt>
      <trkpt lat="28.3328280" lon="-16.5313350">
        <ele>1511.9</ele>
        <time>2020-11-11T16:18:41Z</time>
      </trkpt>
      <trkpt lat="28.3327850" lon="-16.5313380">
        <ele>1511.9</ele>
        <time>2020-11-11T16:18:42Z</time>
      </trkpt>
      <trkpt lat="28.3327620" lon="-16.5313380">
        <ele>1511.9</ele>
        <time>2020-11-11T16:18:43Z</time>
      </trkpt>
      <trkpt lat="28.3327620" lon="-16.5313380">
        <ele>1511.9</ele>
        <time>2020-11-11T16:18:44Z</time>
      </trkpt>
      <trkpt lat="28.3327130" lon="-16.5313430">
        <ele>1511.9</ele>
        <time>2020-11-11T16:18:45Z</time>
      </trkpt>
      <trkpt lat="28.3327130" lon="-16.5313430">
        <ele>1511.9</ele>
        <time>2020-11-11T16:18:46Z</time>
      </trkpt>
      <trkpt lat="28.3326630" lon="-16.5313550">
        <ele>1511.9</ele>
        <time>2020-11-11T16:18:47Z</time>
      </trkpt>
      <trkpt lat="28.3326400" lon="-16.5313570">
        <ele>1512.9</ele>
        <time>2020-11-11T16:18:48Z</time>
      </trkpt>
      <trkpt lat="28.3326170" lon="-16.5313570">
        <ele>1512.9</ele>
        <time>2020-11-11T16:18:49Z</time>
      </trkpt>
      <trkpt lat="28.3326170" lon="-16.5313570">
        <ele>1512.9</ele>
        <time>2020-11-11T16:18:50Z</time>
      </trkpt>
      <trkpt lat="28.3325770" lon="-16.5313520">
        <ele>1512.9</ele>
        <time>2020-11-11T16:18:51Z</time>
      </trkpt>
      <trkpt lat="28.3325770" lon="-16.5313520">
        <ele>1512.9</ele>
        <time>2020-11-11T16:18:52Z</time>
      </trkpt>
      <trkpt lat="28.3325280" lon="-16.5313520">
        <ele>1512.9</ele>
        <time>2020-11-11T16:18:53Z</time>
      </trkpt>
      <trkpt lat="28.3325280" lon="-16.5313520">
        <ele>1512.9</ele>
        <time>2020-11-11T16:18:54Z</time>
      </trkpt>
      <trkpt lat="28.3324780" lon="-16.5313470">
        <ele>1512.9</ele>
        <time>2020-11-11T16:18:55Z</time>
      </trkpt>
      <trkpt lat="28.3324780" lon="-16.5313470">
        <ele>1512.9</ele>
        <time>2020-11-11T16:18:56Z</time>
      </trkpt>
      <trkpt lat="28.3324180" lon="-16.5313670">
        <ele>1512.9</ele>
        <time>2020-11-11T16:18:57Z</time>
      </trkpt>
      <trkpt lat="28.3324180" lon="-16.5313670">
        <ele>1512.9</ele>
        <time>2020-11-11T16:18:58Z</time>
      </trkpt>
      <trkpt lat="28.3323580" lon="-16.5313850">
        <ele>1513.9</ele>
        <time>2020-11-11T16:18:59Z</time>
      </trkpt>
      <trkpt lat="28.3323580" lon="-16.5313850">
        <ele>1513.9</ele>
        <time>2020-11-11T16:19:00Z</time>
      </trkpt>
      <trkpt lat="28.3323050" lon="-16.5313950">
        <ele>1513.9</ele>
        <time>2020-11-11T16:19:01Z</time>
      </trkpt>
      <trkpt lat="28.3323050" lon="-16.5313950">
        <ele>1513.9</ele>
        <time>2020-11-11T16:19:02Z</time>
      </trkpt>
      <trkpt lat="28.3322570" lon="-16.5313970">
        <ele>1513.9</ele>
        <time>2020-11-11T16:19:03Z</time>
      </trkpt>
      <trkpt lat="28.3322570" lon="-16.5313970">
        <ele>1513.9</ele>
        <time>2020-11-11T16:19:04Z</time>
      </trkpt>
      <trkpt lat="28.3322070" lon="-16.5313980">
        <ele>1513.9</ele>
        <time>2020-11-11T16:19:05Z</time>
      </trkpt>
      <trkpt lat="28.3322070" lon="-16.5313980">
        <ele>1513.9</ele>
        <time>2020-11-11T16:19:06Z</time>
      </trkpt>
      <trkpt lat="28.3321570" lon="-16.5313900">
        <ele>1513.9</ele>
        <time>2020-11-11T16:19:07Z</time>
      </trkpt>
      <trkpt lat="28.3321570" lon="-16.5313900">
        <ele>1513.9</ele>
        <time>2020-11-11T16:19:08Z</time>
      </trkpt>
      <trkpt lat="28.3320970" lon="-16.5314020">
        <ele>1513.9</ele>
        <time>2020-11-11T16:19:09Z</time>
      </trkpt>
      <trkpt lat="28.3320970" lon="-16.5314020">
        <ele>1513.9</ele>
        <time>2020-11-11T16:19:10Z</time>
      </trkpt>
      <trkpt lat="28.3320250" lon="-16.5314100">
        <ele>1513.9</ele>
        <time>2020-11-11T16:19:11Z</time>
      </trkpt>
      <trkpt lat="28.3319900" lon="-16.5314120">
        <ele>1513.9</ele>
        <time>2020-11-11T16:19:12Z</time>
      </trkpt>
      <trkpt lat="28.3319900" lon="-16.5314120">
        <ele>1513.9</ele>
        <time>2020-11-11T16:19:13Z</time>
      </trkpt>
      <trkpt lat="28.3319300" lon="-16.5314120">
        <ele>1514.9</ele>
        <time>2020-11-11T16:19:14Z</time>
      </trkpt>
      <trkpt lat="28.3319050" lon="-16.5314070">
        <ele>1514.9</ele>
        <time>2020-11-11T16:19:15Z</time>
      </trkpt>
      <trkpt lat="28.3319050" lon="-16.5314070">
        <ele>1514.9</ele>
        <time>2020-11-11T16:19:16Z</time>
      </trkpt>
      <trkpt lat="28.3318480" lon="-16.5314070">
        <ele>1514.9</ele>
        <time>2020-11-11T16:19:17Z</time>
      </trkpt>
      <trkpt lat="28.3318480" lon="-16.5314070">
        <ele>1514.9</ele>
        <time>2020-11-11T16:19:18Z</time>
      </trkpt>
      <trkpt lat="28.3317930" lon="-16.5314070">
        <ele>1514.9</ele>
        <time>2020-11-11T16:19:19Z</time>
      </trkpt>
      <trkpt lat="28.3317930" lon="-16.5314070">
        <ele>1515.9</ele>
        <time>2020-11-11T16:19:20Z</time>
      </trkpt>
      <trkpt lat="28.3317370" lon="-16.5314220">
        <ele>1515.9</ele>
        <time>2020-11-11T16:19:21Z</time>
      </trkpt>
      <trkpt lat="28.3317370" lon="-16.5314220">
        <ele>1515.9</ele>
        <time>2020-11-11T16:19:22Z</time>
      </trkpt>
      <trkpt lat="28.3316820" lon="-16.5314330">
        <ele>1515.9</ele>
        <time>2020-11-11T16:19:23Z</time>
      </trkpt>
      <trkpt lat="28.3316820" lon="-16.5314330">
        <ele>1515.9</ele>
        <time>2020-11-11T16:19:24Z</time>
      </trkpt>
      <trkpt lat="28.3316330" lon="-16.5314420">
        <ele>1515.9</ele>
        <time>2020-11-11T16:19:25Z</time>
      </trkpt>
      <trkpt lat="28.3316330" lon="-16.5314420">
        <ele>1515.9</ele>
        <time>2020-11-11T16:19:26Z</time>
      </trkpt>
      <trkpt lat="28.3315930" lon="-16.5314700">
        <ele>1515.9</ele>
        <time>2020-11-11T16:19:27Z</time>
      </trkpt>
      <trkpt lat="28.3315930" lon="-16.5314700">
        <ele>1516.9</ele>
        <time>2020-11-11T16:19:28Z</time>
      </trkpt>
      <trkpt lat="28.3315370" lon="-16.5315080">
        <ele>1516.9</ele>
        <time>2020-11-11T16:19:29Z</time>
      </trkpt>
      <trkpt lat="28.3315370" lon="-16.5315080">
        <ele>1516.9</ele>
        <time>2020-11-11T16:19:30Z</time>
      </trkpt>
      <trkpt lat="28.3314930" lon="-16.5315350">
        <ele>1516.9</ele>
        <time>2020-11-11T16:19:31Z</time>
      </trkpt>
      <trkpt lat="28.3314930" lon="-16.5315350">
        <ele>1516.9</ele>
        <time>2020-11-11T16:19:32Z</time>
      </trkpt>
      <trkpt lat="28.3314650" lon="-16.5315630">
        <ele>1516.9</ele>
        <time>2020-11-11T16:19:33Z</time>
      </trkpt>
      <trkpt lat="28.3314650" lon="-16.5315630">
        <ele>1517.9</ele>
        <time>2020-11-11T16:19:34Z</time>
      </trkpt>
      <trkpt lat="28.3314380" lon="-16.5316070">
        <ele>1517.9</ele>
        <time>2020-11-11T16:19:35Z</time>
      </trkpt>
      <trkpt lat="28.3314380" lon="-16.5316070">
        <ele>1517.9</ele>
        <time>2020-11-11T16:19:36Z</time>
      </trkpt>
      <trkpt lat="28.3314130" lon="-16.5316700">
        <ele>1517.9</ele>
        <time>2020-11-11T16:19:37Z</time>
      </trkpt>
      <trkpt lat="28.3314130" lon="-16.5316700">
        <ele>1518.9</ele>
        <time>2020-11-11T16:19:38Z</time>
      </trkpt>
      <trkpt lat="28.3313850" lon="-16.5317370">
        <ele>1518.9</ele>
        <time>2020-11-11T16:19:39Z</time>
      </trkpt>
      <trkpt lat="28.3313730" lon="-16.5317680">
        <ele>1518.9</ele>
        <time>2020-11-11T16:19:40Z</time>
      </trkpt>
      <trkpt lat="28.3313730" lon="-16.5317680">
        <ele>1518.9</ele>
        <time>2020-11-11T16:19:41Z</time>
      </trkpt>
      <trkpt lat="28.3313550" lon="-16.5318300">
        <ele>1519.9</ele>
        <time>2020-11-11T16:19:42Z</time>
      </trkpt>
      <trkpt lat="28.3313520" lon="-16.5318570">
        <ele>1519.9</ele>
        <time>2020-11-11T16:19:43Z</time>
      </trkpt>
      <trkpt lat="28.3313520" lon="-16.5318570">
        <ele>1519.9</ele>
        <time>2020-11-11T16:19:44Z</time>
      </trkpt>
      <trkpt lat="28.3313230" lon="-16.5319080">
        <ele>1519.9</ele>
        <time>2020-11-11T16:19:45Z</time>
      </trkpt>
      <trkpt lat="28.3313230" lon="-16.5319080">
        <ele>1520.9</ele>
        <time>2020-11-11T16:19:46Z</time>
      </trkpt>
      <trkpt lat="28.3312980" lon="-16.5319700">
        <ele>1520.9</ele>
        <time>2020-11-11T16:19:47Z</time>
      </trkpt>
      <trkpt lat="28.3312980" lon="-16.5319700">
        <ele>1520.9</ele>
        <time>2020-11-11T16:19:48Z</time>
      </trkpt>
      <trkpt lat="28.3312720" lon="-16.5320470">
        <ele>1520.9</ele>
        <time>2020-11-11T16:19:49Z</time>
      </trkpt>
      <trkpt lat="28.3312720" lon="-16.5320470">
        <ele>1520.9</ele>
        <time>2020-11-11T16:19:50Z</time>
      </trkpt>
      <trkpt lat="28.3312470" lon="-16.5321070">
        <ele>1520.9</ele>
        <time>2020-11-11T16:19:51Z</time>
      </trkpt>
      <trkpt lat="28.3312470" lon="-16.5321070">
        <ele>1520.9</ele>
        <time>2020-11-11T16:19:52Z</time>
      </trkpt>
      <trkpt lat="28.3312250" lon="-16.5321730">
        <ele>1520.9</ele>
        <time>2020-11-11T16:19:53Z</time>
      </trkpt>
      <trkpt lat="28.3312150" lon="-16.5322070">
        <ele>1521.9</ele>
        <time>2020-11-11T16:19:54Z</time>
      </trkpt>
      <trkpt lat="28.3312150" lon="-16.5322070">
        <ele>1521.9</ele>
        <time>2020-11-11T16:19:55Z</time>
      </trkpt>
      <trkpt lat="28.3311980" lon="-16.5322680">
        <ele>1521.9</ele>
        <time>2020-11-11T16:19:56Z</time>
      </trkpt>
      <trkpt lat="28.3311980" lon="-16.5322680">
        <ele>1521.9</ele>
        <time>2020-11-11T16:19:57Z</time>
      </trkpt>
      <trkpt lat="28.3311770" lon="-16.5323330">
        <ele>1521.9</ele>
        <time>2020-11-11T16:19:58Z</time>
      </trkpt>
      <trkpt lat="28.3311770" lon="-16.5323330">
        <ele>1521.9</ele>
        <time>2020-11-11T16:19:59Z</time>
      </trkpt>
      <trkpt lat="28.3311330" lon="-16.5324270">
        <ele>1522.9</ele>
        <time>2020-11-11T16:20:00Z</time>
      </trkpt>
      <trkpt lat="28.3311330" lon="-16.5324270">
        <ele>1522.9</ele>
        <time>2020-11-11T16:20:01Z</time>
      </trkpt>
      <trkpt lat="28.3310830" lon="-16.5324800">
        <ele>1522.9</ele>
        <time>2020-11-11T16:20:02Z</time>
      </trkpt>
      <trkpt lat="28.3310830" lon="-16.5324800">
        <ele>1522.9</ele>
        <time>2020-11-11T16:20:03Z</time>
      </trkpt>
      <trkpt lat="28.3310300" lon="-16.5325150">
        <ele>1522.9</ele>
        <time>2020-11-11T16:20:04Z</time>
      </trkpt>
      <trkpt lat="28.3310000" lon="-16.5325270">
        <ele>1522.9</ele>
        <time>2020-11-11T16:20:05Z</time>
      </trkpt>
      <trkpt lat="28.3310000" lon="-16.5325270">
        <ele>1523.9</ele>
        <time>2020-11-11T16:20:06Z</time>
      </trkpt>
      <trkpt lat="28.3309430" lon="-16.5325330">
        <ele>1523.9</ele>
        <time>2020-11-11T16:20:07Z</time>
      </trkpt>
      <trkpt lat="28.3309130" lon="-16.5325300">
        <ele>1523.9</ele>
        <time>2020-11-11T16:20:08Z</time>
      </trkpt>
      <trkpt lat="28.3309130" lon="-16.5325300">
        <ele>1523.9</ele>
        <time>2020-11-11T16:20:09Z</time>
      </trkpt>
      <trkpt lat="28.3308580" lon="-16.5325280">
        <ele>1523.9</ele>
        <time>2020-11-11T16:20:10Z</time>
      </trkpt>
      <trkpt lat="28.3308580" lon="-16.5325280">
        <ele>1523.9</ele>
        <time>2020-11-11T16:20:11Z</time>
      </trkpt>
      <trkpt lat="28.3308080" lon="-16.5325150">
        <ele>1523.9</ele>
        <time>2020-11-11T16:20:12Z</time>
      </trkpt>
      <trkpt lat="28.3307850" lon="-16.5325170">
        <ele>1523.9</ele>
        <time>2020-11-11T16:20:13Z</time>
      </trkpt>
      <trkpt lat="28.3307850" lon="-16.5325170">
        <ele>1523.9</ele>
        <time>2020-11-11T16:20:14Z</time>
      </trkpt>
      <trkpt lat="28.3307400" lon="-16.5325150">
        <ele>1524.9</ele>
        <time>2020-11-11T16:20:15Z</time>
      </trkpt>
      <trkpt lat="28.3307400" lon="-16.5325150">
        <ele>1524.9</ele>
        <time>2020-11-11T16:20:16Z</time>
      </trkpt>
      <trkpt lat="28.3306920" lon="-16.5325150">
        <ele>1524.9</ele>
        <time>2020-11-11T16:20:17Z</time>
      </trkpt>
      <trkpt lat="28.3306920" lon="-16.5325150">
        <ele>1524.9</ele>
        <time>2020-11-11T16:20:18Z</time>
      </trkpt>
      <trkpt lat="28.3306470" lon="-16.5325120">
        <ele>1524.9</ele>
        <time>2020-11-11T16:20:19Z</time>
      </trkpt>
      <trkpt lat="28.3306220" lon="-16.5325080">
        <ele>1524.9</ele>
        <time>2020-11-11T16:20:20Z</time>
      </trkpt>
      <trkpt lat="28.3306220" lon="-16.5325080">
        <ele>1524.9</ele>
        <time>2020-11-11T16:20:21Z</time>
      </trkpt>
      <trkpt lat="28.3305720" lon="-16.5325020">
        <ele>1524.9</ele>
        <time>2020-11-11T16:20:22Z</time>
      </trkpt>
      <trkpt lat="28.3305720" lon="-16.5325020">
        <ele>1524.9</ele>
        <time>2020-11-11T16:20:23Z</time>
      </trkpt>
      <trkpt lat="28.3305230" lon="-16.5324950">
        <ele>1524.9</ele>
        <time>2020-11-11T16:20:24Z</time>
      </trkpt>
      <trkpt lat="28.3304980" lon="-16.5324950">
        <ele>1524.9</ele>
        <time>2020-11-11T16:20:25Z</time>
      </trkpt>
      <trkpt lat="28.3304980" lon="-16.5324950">
        <ele>1524.9</ele>
        <time>2020-11-11T16:20:26Z</time>
      </trkpt>
      <trkpt lat="28.3304570" lon="-16.5324800">
        <ele>1525.9</ele>
        <time>2020-11-11T16:20:27Z</time>
      </trkpt>
      <trkpt lat="28.3304320" lon="-16.5324770">
        <ele>1525.9</ele>
        <time>2020-11-11T16:20:28Z</time>
      </trkpt>
      <trkpt lat="28.3304080" lon="-16.5324680">
        <ele>1525.9</ele>
        <time>2020-11-11T16:20:29Z</time>
      </trkpt>
      <trkpt lat="28.3304080" lon="-16.5324680">
        <ele>1525.9</ele>
        <time>2020-11-11T16:20:30Z</time>
      </trkpt>
      <trkpt lat="28.3303470" lon="-16.5324730">
        <ele>1525.9</ele>
        <time>2020-11-11T16:20:31Z</time>
      </trkpt>
      <trkpt lat="28.3303470" lon="-16.5324730">
        <ele>1525.9</ele>
        <time>2020-11-11T16:20:32Z</time>
      </trkpt>
      <trkpt lat="28.3302970" lon="-16.5324670">
        <ele>1525.9</ele>
        <time>2020-11-11T16:20:33Z</time>
      </trkpt>
      <trkpt lat="28.3302970" lon="-16.5324670">
        <ele>1525.9</ele>
        <time>2020-11-11T16:20:34Z</time>
      </trkpt>
      <trkpt lat="28.3302570" lon="-16.5324630">
        <ele>1525.9</ele>
        <time>2020-11-11T16:20:35Z</time>
      </trkpt>
      <trkpt lat="28.3302570" lon="-16.5324630">
        <ele>1525.9</ele>
        <time>2020-11-11T16:20:36Z</time>
      </trkpt>
      <trkpt lat="28.3302200" lon="-16.5324530">
        <ele>1526.9</ele>
        <time>2020-11-11T16:20:37Z</time>
      </trkpt>
      <trkpt lat="28.3302200" lon="-16.5324530">
        <ele>1526.9</ele>
        <time>2020-11-11T16:20:38Z</time>
      </trkpt>
      <trkpt lat="28.3301780" lon="-16.5324550">
        <ele>1526.9</ele>
        <time>2020-11-11T16:20:39Z</time>
      </trkpt>
      <trkpt lat="28.3301780" lon="-16.5324550">
        <ele>1526.9</ele>
        <time>2020-11-11T16:20:40Z</time>
      </trkpt>
      <trkpt lat="28.3301370" lon="-16.5324570">
        <ele>1526.9</ele>
        <time>2020-11-11T16:20:41Z</time>
      </trkpt>
      <trkpt lat="28.3301370" lon="-16.5324570">
        <ele>1526.9</ele>
        <time>2020-11-11T16:20:42Z</time>
      </trkpt>
      <trkpt lat="28.3300950" lon="-16.5324480">
        <ele>1526.9</ele>
        <time>2020-11-11T16:20:43Z</time>
      </trkpt>
      <trkpt lat="28.3300730" lon="-16.5324480">
        <ele>1526.9</ele>
        <time>2020-11-11T16:20:44Z</time>
      </trkpt>
      <trkpt lat="28.3300730" lon="-16.5324480">
        <ele>1526.9</ele>
        <time>2020-11-11T16:20:45Z</time>
      </trkpt>
      <trkpt lat="28.3300330" lon="-16.5324430">
        <ele>1527.9</ele>
        <time>2020-11-11T16:20:46Z</time>
      </trkpt>
      <trkpt lat="28.3300330" lon="-16.5324430">
        <ele>1527.9</ele>
        <time>2020-11-11T16:20:47Z</time>
      </trkpt>
      <trkpt lat="28.3299950" lon="-16.5324370">
        <ele>1527.9</ele>
        <time>2020-11-11T16:20:48Z</time>
      </trkpt>
      <trkpt lat="28.3299770" lon="-16.5324330">
        <ele>1527.9</ele>
        <time>2020-11-11T16:20:49Z</time>
      </trkpt>
      <trkpt lat="28.3299770" lon="-16.5324330">
        <ele>1527.9</ele>
        <time>2020-11-11T16:20:50Z</time>
      </trkpt>
      <trkpt lat="28.3299370" lon="-16.5324400">
        <ele>1527.9</ele>
        <time>2020-11-11T16:20:51Z</time>
      </trkpt>
      <trkpt lat="28.3299200" lon="-16.5324300">
        <ele>1527.9</ele>
        <time>2020-11-11T16:20:52Z</time>
      </trkpt>
      <trkpt lat="28.3299200" lon="-16.5324300">
        <ele>1528.9</ele>
        <time>2020-11-11T16:20:53Z</time>
      </trkpt>
      <trkpt lat="28.3298850" lon="-16.5324170">
        <ele>1528.9</ele>
        <time>2020-11-11T16:20:54Z</time>
      </trkpt>
      <trkpt lat="28.3298850" lon="-16.5324170">
        <ele>1528.9</ele>
        <time>2020-11-11T16:20:55Z</time>
      </trkpt>
      <trkpt lat="28.3298620" lon="-16.5323830">
        <ele>1528.9</ele>
        <time>2020-11-11T16:20:56Z</time>
      </trkpt>
      <trkpt lat="28.3298570" lon="-16.5323620">
        <ele>1528.9</ele>
        <time>2020-11-11T16:20:57Z</time>
      </trkpt>
      <trkpt lat="28.3298570" lon="-16.5323620">
        <ele>1528.9</ele>
        <time>2020-11-11T16:20:58Z</time>
      </trkpt>
      <trkpt lat="28.3298430" lon="-16.5323130">
        <ele>1529.9</ele>
        <time>2020-11-11T16:20:59Z</time>
      </trkpt>
      <trkpt lat="28.3298430" lon="-16.5323130">
        <ele>1529.9</ele>
        <time>2020-11-11T16:21:00Z</time>
      </trkpt>
      <trkpt lat="28.3298380" lon="-16.5322670">
        <ele>1529.9</ele>
        <time>2020-11-11T16:21:01Z</time>
      </trkpt>
      <trkpt lat="28.3298380" lon="-16.5322670">
        <ele>1529.9</ele>
        <time>2020-11-11T16:21:02Z</time>
      </trkpt>
      <trkpt lat="28.3298280" lon="-16.5322030">
        <ele>1529.9</ele>
        <time>2020-11-11T16:21:03Z</time>
      </trkpt>
      <trkpt lat="28.3298280" lon="-16.5322030">
        <ele>1529.9</ele>
        <time>2020-11-11T16:21:04Z</time>
      </trkpt>
      <trkpt lat="28.3298450" lon="-16.5321480">
        <ele>1529.9</ele>
        <time>2020-11-11T16:21:05Z</time>
      </trkpt>
      <trkpt lat="28.3298450" lon="-16.5321480">
        <ele>1529.9</ele>
        <time>2020-11-11T16:21:06Z</time>
      </trkpt>
      <trkpt lat="28.3298630" lon="-16.5320950">
        <ele>1529.9</ele>
        <time>2020-11-11T16:21:07Z</time>
      </trkpt>
      <trkpt lat="28.3298630" lon="-16.5320950">
        <ele>1529.9</ele>
        <time>2020-11-11T16:21:08Z</time>
      </trkpt>
      <trkpt lat="28.3298830" lon="-16.5320580">
        <ele>1529.9</ele>
        <time>2020-11-11T16:21:09Z</time>
      </trkpt>
      <trkpt lat="28.3298830" lon="-16.5320580">
        <ele>1529.9</ele>
        <time>2020-11-11T16:21:10Z</time>
      </trkpt>
      <trkpt lat="28.3299120" lon="-16.5320280">
        <ele>1529.9</ele>
        <time>2020-11-11T16:21:11Z</time>
      </trkpt>
      <trkpt lat="28.3299120" lon="-16.5320280">
        <ele>1529.9</ele>
        <time>2020-11-11T16:21:12Z</time>
      </trkpt>
      <trkpt lat="28.3299300" lon="-16.5320030">
        <ele>1530.9</ele>
        <time>2020-11-11T16:21:13Z</time>
      </trkpt>
      <trkpt lat="28.3299300" lon="-16.5320030">
        <ele>1530.9</ele>
        <time>2020-11-11T16:21:14Z</time>
      </trkpt>
      <trkpt lat="28.3299530" lon="-16.5319870">
        <ele>1530.9</ele>
        <time>2020-11-11T16:21:15Z</time>
      </trkpt>
      <trkpt lat="28.3299680" lon="-16.5319780">
        <ele>1530.9</ele>
        <time>2020-11-11T16:21:16Z</time>
      </trkpt>
      <trkpt lat="28.3299870" lon="-16.5319720">
        <ele>1530.9</ele>
        <time>2020-11-11T16:21:17Z</time>
      </trkpt>
      <trkpt lat="28.3299870" lon="-16.5319720">
        <ele>1530.9</ele>
        <time>2020-11-11T16:21:18Z</time>
      </trkpt>
      <trkpt lat="28.3300170" lon="-16.5319550">
        <ele>1531.9</ele>
        <time>2020-11-11T16:21:19Z</time>
      </trkpt>
      <trkpt lat="28.3300170" lon="-16.5319550">
        <ele>1531.9</ele>
        <time>2020-11-11T16:21:20Z</time>
      </trkpt>
      <trkpt lat="28.3300480" lon="-16.5319480">
        <ele>1531.9</ele>
        <time>2020-11-11T16:21:21Z</time>
      </trkpt>
      <trkpt lat="28.3300480" lon="-16.5319480">
        <ele>1531.9</ele>
        <time>2020-11-11T16:21:22Z</time>
      </trkpt>
      <trkpt lat="28.3300780" lon="-16.5319420">
        <ele>1531.9</ele>
        <time>2020-11-11T16:21:23Z</time>
      </trkpt>
      <trkpt lat="28.3300780" lon="-16.5319420">
        <ele>1532.9</ele>
        <time>2020-11-11T16:21:24Z</time>
      </trkpt>
      <trkpt lat="28.3301150" lon="-16.5319350">
        <ele>1532.9</ele>
        <time>2020-11-11T16:21:25Z</time>
      </trkpt>
      <trkpt lat="28.3301150" lon="-16.5319350">
        <ele>1532.9</ele>
        <time>2020-11-11T16:21:26Z</time>
      </trkpt>
      <trkpt lat="28.3301530" lon="-16.5319300">
        <ele>1532.9</ele>
        <time>2020-11-11T16:21:27Z</time>
      </trkpt>
      <trkpt lat="28.3301530" lon="-16.5319300">
        <ele>1533.9</ele>
        <time>2020-11-11T16:21:28Z</time>
      </trkpt>
      <trkpt lat="28.3301820" lon="-16.5319200">
        <ele>1533.9</ele>
        <time>2020-11-11T16:21:29Z</time>
      </trkpt>
      <trkpt lat="28.3301820" lon="-16.5319200">
        <ele>1533.9</ele>
        <time>2020-11-11T16:21:30Z</time>
      </trkpt>
      <trkpt lat="28.3302030" lon="-16.5318970">
        <ele>1533.9</ele>
        <time>2020-11-11T16:21:31Z</time>
      </trkpt>
      <trkpt lat="28.3302030" lon="-16.5318970">
        <ele>1533.9</ele>
        <time>2020-11-11T16:21:32Z</time>
      </trkpt>
      <trkpt lat="28.3302120" lon="-16.5318900">
        <ele>1533.9</ele>
        <time>2020-11-11T16:21:33Z</time>
      </trkpt>
      <trkpt lat="28.3302100" lon="-16.5318630">
        <ele>1534.9</ele>
        <time>2020-11-11T16:21:34Z</time>
      </trkpt>
      <trkpt lat="28.3302100" lon="-16.5318630">
        <ele>1534.9</ele>
        <time>2020-11-11T16:21:35Z</time>
      </trkpt>
      <trkpt lat="28.3302230" lon="-16.5318170">
        <ele>1534.9</ele>
        <time>2020-11-11T16:21:36Z</time>
      </trkpt>
      <trkpt lat="28.3302230" lon="-16.5318170">
        <ele>1534.9</ele>
        <time>2020-11-11T16:21:37Z</time>
      </trkpt>
      <trkpt lat="28.3302170" lon="-16.5317780">
        <ele>1535.9</ele>
        <time>2020-11-11T16:21:38Z</time>
      </trkpt>
      <trkpt lat="28.3302170" lon="-16.5317780">
        <ele>1535.9</ele>
        <time>2020-11-11T16:21:39Z</time>
      </trkpt>
      <trkpt lat="28.3301950" lon="-16.5317530">
        <ele>1535.9</ele>
        <time>2020-11-11T16:21:40Z</time>
      </trkpt>
      <trkpt lat="28.3301750" lon="-16.5317420">
        <ele>1535.9</ele>
        <time>2020-11-11T16:21:41Z</time>
      </trkpt>
      <trkpt lat="28.3301750" lon="-16.5317420">
        <ele>1535.9</ele>
        <time>2020-11-11T16:21:42Z</time>
      </trkpt>
      <trkpt lat="28.3301230" lon="-16.5317220">
        <ele>1535.9</ele>
        <time>2020-11-11T16:21:43Z</time>
      </trkpt>
      <trkpt lat="28.3301230" lon="-16.5317220">
        <ele>1536.9</ele>
        <time>2020-11-11T16:21:44Z</time>
      </trkpt>
      <trkpt lat="28.3300880" lon="-16.5317020">
        <ele>1536.9</ele>
        <time>2020-11-11T16:21:45Z</time>
      </trkpt>
      <trkpt lat="28.3300880" lon="-16.5317020">
        <ele>1536.9</ele>
        <time>2020-11-11T16:21:46Z</time>
      </trkpt>
      <trkpt lat="28.3300530" lon="-16.5316930">
        <ele>1536.9</ele>
        <time>2020-11-11T16:21:47Z</time>
      </trkpt>
      <trkpt lat="28.3300530" lon="-16.5316930">
        <ele>1536.9</ele>
        <time>2020-11-11T16:21:48Z</time>
      </trkpt>
      <trkpt lat="28.3300170" lon="-16.5316950">
        <ele>1536.9</ele>
        <time>2020-11-11T16:21:49Z</time>
      </trkpt>
      <trkpt lat="28.3300170" lon="-16.5316950">
        <ele>1537.9</ele>
        <time>2020-11-11T16:21:50Z</time>
      </trkpt>
      <trkpt lat="28.3299880" lon="-16.5316920">
        <ele>1537.9</ele>
        <time>2020-11-11T16:21:51Z</time>
      </trkpt>
      <trkpt lat="28.3299880" lon="-16.5316920">
        <ele>1537.9</ele>
        <time>2020-11-11T16:21:52Z</time>
      </trkpt>
      <trkpt lat="28.3299470" lon="-16.5317020">
        <ele>1537.9</ele>
        <time>2020-11-11T16:21:53Z</time>
      </trkpt>
      <trkpt lat="28.3299470" lon="-16.5317020">
        <ele>1537.9</ele>
        <time>2020-11-11T16:21:54Z</time>
      </trkpt>
      <trkpt lat="28.3299120" lon="-16.5317080">
        <ele>1537.9</ele>
        <time>2020-11-11T16:21:55Z</time>
      </trkpt>
      <trkpt lat="28.3299120" lon="-16.5317080">
        <ele>1538.9</ele>
        <time>2020-11-11T16:21:56Z</time>
      </trkpt>
      <trkpt lat="28.3298730" lon="-16.5317180">
        <ele>1538.9</ele>
        <time>2020-11-11T16:21:57Z</time>
      </trkpt>
      <trkpt lat="28.3298730" lon="-16.5317180">
        <ele>1538.9</ele>
        <time>2020-11-11T16:21:58Z</time>
      </trkpt>
      <trkpt lat="28.3298320" lon="-16.5317180">
        <ele>1538.9</ele>
        <time>2020-11-11T16:21:59Z</time>
      </trkpt>
      <trkpt lat="28.3298320" lon="-16.5317180">
        <ele>1538.9</ele>
        <time>2020-11-11T16:22:00Z</time>
      </trkpt>
      <trkpt lat="28.3297900" lon="-16.5317120">
        <ele>1538.9</ele>
        <time>2020-11-11T16:22:01Z</time>
      </trkpt>
      <trkpt lat="28.3297900" lon="-16.5317120">
        <ele>1539.9</ele>
        <time>2020-11-11T16:22:02Z</time>
      </trkpt>
      <trkpt lat="28.3297570" lon="-16.5317020">
        <ele>1539.9</ele>
        <time>2020-11-11T16:22:03Z</time>
      </trkpt>
      <trkpt lat="28.3297570" lon="-16.5317020">
        <ele>1539.9</ele>
        <time>2020-11-11T16:22:04Z</time>
      </trkpt>
      <trkpt lat="28.3297100" lon="-16.5316730">
        <ele>1539.9</ele>
        <time>2020-11-11T16:22:05Z</time>
      </trkpt>
      <trkpt lat="28.3296950" lon="-16.5316630">
        <ele>1539.9</ele>
        <time>2020-11-11T16:22:06Z</time>
      </trkpt>
      <trkpt lat="28.3296950" lon="-16.5316630">
        <ele>1539.9</ele>
        <time>2020-11-11T16:22:07Z</time>
      </trkpt>
      <trkpt lat="28.3296680" lon="-16.5316470">
        <ele>1539.9</ele>
        <time>2020-11-11T16:22:08Z</time>
      </trkpt>
      <trkpt lat="28.3296680" lon="-16.5316470">
        <ele>1539.9</ele>
        <time>2020-11-11T16:22:09Z</time>
      </trkpt>
      <trkpt lat="28.3296280" lon="-16.5316350">
        <ele>1540.9</ele>
        <time>2020-11-11T16:22:10Z</time>
      </trkpt>
      <trkpt lat="28.3296280" lon="-16.5316350">
        <ele>1540.9</ele>
        <time>2020-11-11T16:22:11Z</time>
      </trkpt>
      <trkpt lat="28.3295980" lon="-16.5316270">
        <ele>1540.9</ele>
        <time>2020-11-11T16:22:12Z</time>
      </trkpt>
      <trkpt lat="28.3295980" lon="-16.5316270">
        <ele>1540.9</ele>
        <time>2020-11-11T16:22:13Z</time>
      </trkpt>
      <trkpt lat="28.3295750" lon="-16.5316180">
        <ele>1540.9</ele>
        <time>2020-11-11T16:22:14Z</time>
      </trkpt>
      <trkpt lat="28.3295750" lon="-16.5316180">
        <ele>1540.9</ele>
        <time>2020-11-11T16:22:15Z</time>
      </trkpt>
      <trkpt lat="28.3295470" lon="-16.5316020">
        <ele>1540.9</ele>
        <time>2020-11-11T16:22:16Z</time>
      </trkpt>
      <trkpt lat="28.3295300" lon="-16.5315950">
        <ele>1540.9</ele>
        <time>2020-11-11T16:22:17Z</time>
      </trkpt>
      <trkpt lat="28.3295300" lon="-16.5315950">
        <ele>1540.9</ele>
        <time>2020-11-11T16:22:18Z</time>
      </trkpt>
      <trkpt lat="28.3295100" lon="-16.5315800">
        <ele>1540.9</ele>
        <time>2020-11-11T16:22:19Z</time>
      </trkpt>
      <trkpt lat="28.3295100" lon="-16.5315800">
        <ele>1540.9</ele>
        <time>2020-11-11T16:22:20Z</time>
      </trkpt>
      <trkpt lat="28.3294850" lon="-16.5315630">
        <ele>1540.9</ele>
        <time>2020-11-11T16:22:21Z</time>
      </trkpt>
      <trkpt lat="28.3294850" lon="-16.5315630">
        <ele>1541.9</ele>
        <time>2020-11-11T16:22:22Z</time>
      </trkpt>
      <trkpt lat="28.3294670" lon="-16.5315380">
        <ele>1541.9</ele>
        <time>2020-11-11T16:22:23Z</time>
      </trkpt>
      <trkpt lat="28.3294670" lon="-16.5315380">
        <ele>1541.9</ele>
        <time>2020-11-11T16:22:24Z</time>
      </trkpt>
      <trkpt lat="28.3294400" lon="-16.5315170">
        <ele>1541.9</ele>
        <time>2020-11-11T16:22:25Z</time>
      </trkpt>
      <trkpt lat="28.3294400" lon="-16.5315170">
        <ele>1541.9</ele>
        <time>2020-11-11T16:22:26Z</time>
      </trkpt>
      <trkpt lat="28.3294080" lon="-16.5314970">
        <ele>1541.9</ele>
        <time>2020-11-11T16:22:27Z</time>
      </trkpt>
      <trkpt lat="28.3294080" lon="-16.5314970">
        <ele>1542.9</ele>
        <time>2020-11-11T16:22:28Z</time>
      </trkpt>
      <trkpt lat="28.3293730" lon="-16.5314900">
        <ele>1542.9</ele>
        <time>2020-11-11T16:22:29Z</time>
      </trkpt>
      <trkpt lat="28.3293730" lon="-16.5314900">
        <ele>1542.9</ele>
        <time>2020-11-11T16:22:30Z</time>
      </trkpt>
      <trkpt lat="28.3293320" lon="-16.5314720">
        <ele>1542.9</ele>
        <time>2020-11-11T16:22:31Z</time>
      </trkpt>
      <trkpt lat="28.3293320" lon="-16.5314720">
        <ele>1542.9</ele>
        <time>2020-11-11T16:22:32Z</time>
      </trkpt>
      <trkpt lat="28.3292980" lon="-16.5314670">
        <ele>1542.9</ele>
        <time>2020-11-11T16:22:33Z</time>
      </trkpt>
      <trkpt lat="28.3292980" lon="-16.5314670">
        <ele>1543.9</ele>
        <time>2020-11-11T16:22:34Z</time>
      </trkpt>
      <trkpt lat="28.3292400" lon="-16.5314650">
        <ele>1543.9</ele>
        <time>2020-11-11T16:22:35Z</time>
      </trkpt>
      <trkpt lat="28.3292400" lon="-16.5314650">
        <ele>1543.9</ele>
        <time>2020-11-11T16:22:36Z</time>
      </trkpt>
      <trkpt lat="28.3291870" lon="-16.5314470">
        <ele>1544.9</ele>
        <time>2020-11-11T16:22:37Z</time>
      </trkpt>
      <trkpt lat="28.3291870" lon="-16.5314470">
        <ele>1544.9</ele>
        <time>2020-11-11T16:22:38Z</time>
      </trkpt>
      <trkpt lat="28.3291350" lon="-16.5314520">
        <ele>1544.9</ele>
        <time>2020-11-11T16:22:39Z</time>
      </trkpt>
      <trkpt lat="28.3291350" lon="-16.5314520">
        <ele>1544.9</ele>
        <time>2020-11-11T16:22:40Z</time>
      </trkpt>
      <trkpt lat="28.3291000" lon="-16.5314570">
        <ele>1544.9</ele>
        <time>2020-11-11T16:22:41Z</time>
      </trkpt>
      <trkpt lat="28.3291000" lon="-16.5314570">
        <ele>1544.9</ele>
        <time>2020-11-11T16:22:42Z</time>
      </trkpt>
      <trkpt lat="28.3290620" lon="-16.5314650">
        <ele>1544.9</ele>
        <time>2020-11-11T16:22:43Z</time>
      </trkpt>
      <trkpt lat="28.3290620" lon="-16.5314650">
        <ele>1544.9</ele>
        <time>2020-11-11T16:22:44Z</time>
      </trkpt>
      <trkpt lat="28.3290280" lon="-16.5314630">
        <ele>1544.9</ele>
        <time>2020-11-11T16:22:45Z</time>
      </trkpt>
      <trkpt lat="28.3290280" lon="-16.5314630">
        <ele>1544.9</ele>
        <time>2020-11-11T16:22:46Z</time>
      </trkpt>
      <trkpt lat="28.3289980" lon="-16.5314620">
        <ele>1544.9</ele>
        <time>2020-11-11T16:22:47Z</time>
      </trkpt>
      <trkpt lat="28.3289980" lon="-16.5314620">
        <ele>1544.9</ele>
        <time>2020-11-11T16:22:48Z</time>
      </trkpt>
      <trkpt lat="28.3289720" lon="-16.5314570">
        <ele>1545.9</ele>
        <time>2020-11-11T16:22:49Z</time>
      </trkpt>
      <trkpt lat="28.3289720" lon="-16.5314570">
        <ele>1545.9</ele>
        <time>2020-11-11T16:22:50Z</time>
      </trkpt>
      <trkpt lat="28.3289400" lon="-16.5314620">
        <ele>1545.9</ele>
        <time>2020-11-11T16:22:51Z</time>
      </trkpt>
      <trkpt lat="28.3289400" lon="-16.5314620">
        <ele>1545.9</ele>
        <time>2020-11-11T16:22:52Z</time>
      </trkpt>
      <trkpt lat="28.3289000" lon="-16.5314570">
        <ele>1545.9</ele>
        <time>2020-11-11T16:22:53Z</time>
      </trkpt>
      <trkpt lat="28.3288800" lon="-16.5314500">
        <ele>1545.9</ele>
        <time>2020-11-11T16:22:54Z</time>
      </trkpt>
      <trkpt lat="28.3288800" lon="-16.5314500">
        <ele>1545.9</ele>
        <time>2020-11-11T16:22:55Z</time>
      </trkpt>
      <trkpt lat="28.3288420" lon="-16.5314530">
        <ele>1545.9</ele>
        <time>2020-11-11T16:22:56Z</time>
      </trkpt>
      <trkpt lat="28.3288270" lon="-16.5314550">
        <ele>1545.9</ele>
        <time>2020-11-11T16:22:57Z</time>
      </trkpt>
      <trkpt lat="28.3288270" lon="-16.5314550">
        <ele>1546.9</ele>
        <time>2020-11-11T16:22:58Z</time>
      </trkpt>
      <trkpt lat="28.3287930" lon="-16.5314580">
        <ele>1546.9</ele>
        <time>2020-11-11T16:22:59Z</time>
      </trkpt>
      <trkpt lat="28.3287930" lon="-16.5314580">
        <ele>1546.9</ele>
        <time>2020-11-11T16:23:00Z</time>
      </trkpt>
      <trkpt lat="28.3287630" lon="-16.5314650">
        <ele>1546.9</ele>
        <time>2020-11-11T16:23:01Z</time>
      </trkpt>
      <trkpt lat="28.3287630" lon="-16.5314650">
        <ele>1547.9</ele>
        <time>2020-11-11T16:23:02Z</time>
      </trkpt>
      <trkpt lat="28.3287270" lon="-16.5314830">
        <ele>1547.9</ele>
        <time>2020-11-11T16:23:03Z</time>
      </trkpt>
      <trkpt lat="28.3287270" lon="-16.5314830">
        <ele>1547.9</ele>
        <time>2020-11-11T16:23:04Z</time>
      </trkpt>
      <trkpt lat="28.3286900" lon="-16.5315000">
        <ele>1547.9</ele>
        <time>2020-11-11T16:23:05Z</time>
      </trkpt>
      <trkpt lat="28.3286900" lon="-16.5315000">
        <ele>1547.9</ele>
        <time>2020-11-11T16:23:06Z</time>
      </trkpt>
      <trkpt lat="28.3286400" lon="-16.5315050">
        <ele>1547.9</ele>
        <time>2020-11-11T16:23:07Z</time>
      </trkpt>
      <trkpt lat="28.3286400" lon="-16.5315050">
        <ele>1548.9</ele>
        <time>2020-11-11T16:23:08Z</time>
      </trkpt>
      <trkpt lat="28.3286070" lon="-16.5315030">
        <ele>1548.9</ele>
        <time>2020-11-11T16:23:09Z</time>
      </trkpt>
      <trkpt lat="28.3286070" lon="-16.5315030">
        <ele>1548.9</ele>
        <time>2020-11-11T16:23:10Z</time>
      </trkpt>
      <trkpt lat="28.3285670" lon="-16.5315080">
        <ele>1548.9</ele>
        <time>2020-11-11T16:23:11Z</time>
      </trkpt>
      <trkpt lat="28.3285470" lon="-16.5315030">
        <ele>1548.9</ele>
        <time>2020-11-11T16:23:12Z</time>
      </trkpt>
      <trkpt lat="28.3285470" lon="-16.5315030">
        <ele>1548.9</ele>
        <time>2020-11-11T16:23:13Z</time>
      </trkpt>
      <trkpt lat="28.3285150" lon="-16.5314970">
        <ele>1549.9</ele>
        <time>2020-11-11T16:23:14Z</time>
      </trkpt>
      <trkpt lat="28.3285150" lon="-16.5314970">
        <ele>1549.9</ele>
        <time>2020-11-11T16:23:15Z</time>
      </trkpt>
      <trkpt lat="28.3284920" lon="-16.5314750">
        <ele>1549.9</ele>
        <time>2020-11-11T16:23:16Z</time>
      </trkpt>
      <trkpt lat="28.3284920" lon="-16.5314750">
        <ele>1550.9</ele>
        <time>2020-11-11T16:23:17Z</time>
      </trkpt>
      <trkpt lat="28.3284680" lon="-16.5314620">
        <ele>1550.9</ele>
        <time>2020-11-11T16:23:18Z</time>
      </trkpt>
      <trkpt lat="28.3284600" lon="-16.5314530">
        <ele>1550.9</ele>
        <time>2020-11-11T16:23:19Z</time>
      </trkpt>
      <trkpt lat="28.3284600" lon="-16.5314530">
        <ele>1550.9</ele>
        <time>2020-11-11T16:23:20Z</time>
      </trkpt>
      <trkpt lat="28.3284420" lon="-16.5314330">
        <ele>1550.9</ele>
        <time>2020-11-11T16:23:21Z</time>
      </trkpt>
      <trkpt lat="28.3284420" lon="-16.5314330">
        <ele>1550.9</ele>
        <time>2020-11-11T16:23:22Z</time>
      </trkpt>
      <trkpt lat="28.3284250" lon="-16.5314230">
        <ele>1550.9</ele>
        <time>2020-11-11T16:23:23Z</time>
      </trkpt>
      <trkpt lat="28.3284250" lon="-16.5314230">
        <ele>1550.9</ele>
        <time>2020-11-11T16:23:24Z</time>
      </trkpt>
      <trkpt lat="28.3284080" lon="-16.5314000">
        <ele>1550.9</ele>
        <time>2020-11-11T16:23:25Z</time>
      </trkpt>
      <trkpt lat="28.3283970" lon="-16.5313830">
        <ele>1550.9</ele>
        <time>2020-11-11T16:23:26Z</time>
      </trkpt>
      <trkpt lat="28.3283970" lon="-16.5313830">
        <ele>1550.9</ele>
        <time>2020-11-11T16:23:27Z</time>
      </trkpt>
      <trkpt lat="28.3283770" lon="-16.5313400">
        <ele>1551.9</ele>
        <time>2020-11-11T16:23:28Z</time>
      </trkpt>
      <trkpt lat="28.3283770" lon="-16.5313400">
        <ele>1551.9</ele>
        <time>2020-11-11T16:23:29Z</time>
      </trkpt>
      <trkpt lat="28.3283870" lon="-16.5313000">
        <ele>1551.9</ele>
        <time>2020-11-11T16:23:30Z</time>
      </trkpt>
      <trkpt lat="28.3283870" lon="-16.5313000">
        <ele>1551.9</ele>
        <time>2020-11-11T16:23:31Z</time>
      </trkpt>
      <trkpt lat="28.3283930" lon="-16.5312730">
        <ele>1551.9</ele>
        <time>2020-11-11T16:23:32Z</time>
      </trkpt>
      <trkpt lat="28.3283930" lon="-16.5312730">
        <ele>1551.9</ele>
        <time>2020-11-11T16:23:33Z</time>
      </trkpt>
      <trkpt lat="28.3284100" lon="-16.5312520">
        <ele>1551.9</ele>
        <time>2020-11-11T16:23:34Z</time>
      </trkpt>
      <trkpt lat="28.3284100" lon="-16.5312520">
        <ele>1551.9</ele>
        <time>2020-11-11T16:23:35Z</time>
      </trkpt>
      <trkpt lat="28.3284250" lon="-16.5312250">
        <ele>1552.9</ele>
        <time>2020-11-11T16:23:36Z</time>
      </trkpt>
      <trkpt lat="28.3284320" lon="-16.5312070">
        <ele>1552.9</ele>
        <time>2020-11-11T16:23:37Z</time>
      </trkpt>
      <trkpt lat="28.3284320" lon="-16.5312070">
        <ele>1552.9</ele>
        <time>2020-11-11T16:23:38Z</time>
      </trkpt>
      <trkpt lat="28.3284320" lon="-16.5311550">
        <ele>1552.9</ele>
        <time>2020-11-11T16:23:39Z</time>
      </trkpt>
      <trkpt lat="28.3284320" lon="-16.5311550">
        <ele>1552.9</ele>
        <time>2020-11-11T16:23:40Z</time>
      </trkpt>
      <trkpt lat="28.3284600" lon="-16.5311230">
        <ele>1552.9</ele>
        <time>2020-11-11T16:23:41Z</time>
      </trkpt>
      <trkpt lat="28.3284600" lon="-16.5311230">
        <ele>1552.9</ele>
        <time>2020-11-11T16:23:42Z</time>
      </trkpt>
      <trkpt lat="28.3284850" lon="-16.5310980">
        <ele>1552.9</ele>
        <time>2020-11-11T16:23:43Z</time>
      </trkpt>
      <trkpt lat="28.3284930" lon="-16.5310830">
        <ele>1552.9</ele>
        <time>2020-11-11T16:23:44Z</time>
      </trkpt>
      <trkpt lat="28.3284930" lon="-16.5310830">
        <ele>1553.9</ele>
        <time>2020-11-11T16:23:45Z</time>
      </trkpt>
      <trkpt lat="28.3284980" lon="-16.5310550">
        <ele>1553.9</ele>
        <time>2020-11-11T16:23:46Z</time>
      </trkpt>
      <trkpt lat="28.3284980" lon="-16.5310550">
        <ele>1553.9</ele>
        <time>2020-11-11T16:23:47Z</time>
      </trkpt>
      <trkpt lat="28.3285080" lon="-16.5310320">
        <ele>1553.9</ele>
        <time>2020-11-11T16:23:48Z</time>
      </trkpt>
      <trkpt lat="28.3285080" lon="-16.5310320">
        <ele>1554.9</ele>
        <time>2020-11-11T16:23:49Z</time>
      </trkpt>
      <trkpt lat="28.3285170" lon="-16.5310020">
        <ele>1554.9</ele>
        <time>2020-11-11T16:23:50Z</time>
      </trkpt>
      <trkpt lat="28.3285170" lon="-16.5310020">
        <ele>1554.9</ele>
        <time>2020-11-11T16:23:51Z</time>
      </trkpt>
      <trkpt lat="28.3285250" lon="-16.5309580">
        <ele>1554.9</ele>
        <time>2020-11-11T16:23:52Z</time>
      </trkpt>
      <trkpt lat="28.3285250" lon="-16.5309580">
        <ele>1554.9</ele>
        <time>2020-11-11T16:23:53Z</time>
      </trkpt>
      <trkpt lat="28.3285430" lon="-16.5309200">
        <ele>1554.9</ele>
        <time>2020-11-11T16:23:54Z</time>
      </trkpt>
      <trkpt lat="28.3285430" lon="-16.5309200">
        <ele>1554.9</ele>
        <time>2020-11-11T16:23:55Z</time>
      </trkpt>
      <trkpt lat="28.3285550" lon="-16.5308880">
        <ele>1555.9</ele>
        <time>2020-11-11T16:23:56Z</time>
      </trkpt>
      <trkpt lat="28.3285550" lon="-16.5308880">
        <ele>1555.9</ele>
        <time>2020-11-11T16:23:57Z</time>
      </trkpt>
      <trkpt lat="28.3285620" lon="-16.5308500">
        <ele>1555.9</ele>
        <time>2020-11-11T16:23:58Z</time>
      </trkpt>
      <trkpt lat="28.3285620" lon="-16.5308500">
        <ele>1555.9</ele>
        <time>2020-11-11T16:23:59Z</time>
      </trkpt>
      <trkpt lat="28.3285680" lon="-16.5308250">
        <ele>1555.9</ele>
        <time>2020-11-11T16:24:00Z</time>
      </trkpt>
      <trkpt lat="28.3285680" lon="-16.5308250">
        <ele>1555.9</ele>
        <time>2020-11-11T16:24:01Z</time>
      </trkpt>
      <trkpt lat="28.3285770" lon="-16.5307820">
        <ele>1556.9</ele>
        <time>2020-11-11T16:24:02Z</time>
      </trkpt>
      <trkpt lat="28.3285770" lon="-16.5307820">
        <ele>1556.9</ele>
        <time>2020-11-11T16:24:03Z</time>
      </trkpt>
      <trkpt lat="28.3285720" lon="-16.5307400">
        <ele>1556.9</ele>
        <time>2020-11-11T16:24:04Z</time>
      </trkpt>
      <trkpt lat="28.3285720" lon="-16.5307400">
        <ele>1556.9</ele>
        <time>2020-11-11T16:24:05Z</time>
      </trkpt>
      <trkpt lat="28.3285520" lon="-16.5307120">
        <ele>1557.9</ele>
        <time>2020-11-11T16:24:06Z</time>
      </trkpt>
      <trkpt lat="28.3285480" lon="-16.5306970">
        <ele>1557.9</ele>
        <time>2020-11-11T16:24:07Z</time>
      </trkpt>
      <trkpt lat="28.3285480" lon="-16.5306970">
        <ele>1557.9</ele>
        <time>2020-11-11T16:24:08Z</time>
      </trkpt>
      <trkpt lat="28.3285300" lon="-16.5306780">
        <ele>1557.9</ele>
        <time>2020-11-11T16:24:09Z</time>
      </trkpt>
      <trkpt lat="28.3285300" lon="-16.5306780">
        <ele>1558.9</ele>
        <time>2020-11-11T16:24:10Z</time>
      </trkpt>
      <trkpt lat="28.3284780" lon="-16.5306500">
        <ele>1558.9</ele>
        <time>2020-11-11T16:24:11Z</time>
      </trkpt>
      <trkpt lat="28.3284780" lon="-16.5306500">
        <ele>1558.9</ele>
        <time>2020-11-11T16:24:12Z</time>
      </trkpt>
      <trkpt lat="28.3284420" lon="-16.5306430">
        <ele>1558.9</ele>
        <time>2020-11-11T16:24:13Z</time>
      </trkpt>
      <trkpt lat="28.3284420" lon="-16.5306430">
        <ele>1558.9</ele>
        <time>2020-11-11T16:24:14Z</time>
      </trkpt>
      <trkpt lat="28.3283980" lon="-16.5306530">
        <ele>1558.9</ele>
        <time>2020-11-11T16:24:15Z</time>
      </trkpt>
      <trkpt lat="28.3283720" lon="-16.5306600">
        <ele>1558.9</ele>
        <time>2020-11-11T16:24:16Z</time>
      </trkpt>
      <trkpt lat="28.3283720" lon="-16.5306600">
        <ele>1558.9</ele>
        <time>2020-11-11T16:24:17Z</time>
      </trkpt>
      <trkpt lat="28.3283470" lon="-16.5306670">
        <ele>1558.9</ele>
        <time>2020-11-11T16:24:18Z</time>
      </trkpt>
      <trkpt lat="28.3283370" lon="-16.5306730">
        <ele>1559.9</ele>
        <time>2020-11-11T16:24:19Z</time>
      </trkpt>
      <trkpt lat="28.3283370" lon="-16.5306730">
        <ele>1559.9</ele>
        <time>2020-11-11T16:24:20Z</time>
      </trkpt>
      <trkpt lat="28.3283150" lon="-16.5306850">
        <ele>1559.9</ele>
        <time>2020-11-11T16:24:21Z</time>
      </trkpt>
      <trkpt lat="28.3283150" lon="-16.5306850">
        <ele>1559.9</ele>
        <time>2020-11-11T16:24:22Z</time>
      </trkpt>
      <trkpt lat="28.3282880" lon="-16.5307000">
        <ele>1559.9</ele>
        <time>2020-11-11T16:24:23Z</time>
      </trkpt>
      <trkpt lat="28.3282880" lon="-16.5307000">
        <ele>1559.9</ele>
        <time>2020-11-11T16:24:24Z</time>
      </trkpt>
      <trkpt lat="28.3282620" lon="-16.5307030">
        <ele>1559.9</ele>
        <time>2020-11-11T16:24:25Z</time>
      </trkpt>
      <trkpt lat="28.3282620" lon="-16.5307030">
        <ele>1559.9</ele>
        <time>2020-11-11T16:24:26Z</time>
      </trkpt>
      <trkpt lat="28.3282300" lon="-16.5307180">
        <ele>1559.9</ele>
        <time>2020-11-11T16:24:27Z</time>
      </trkpt>
      <trkpt lat="28.3282300" lon="-16.5307180">
        <ele>1560.9</ele>
        <time>2020-11-11T16:24:28Z</time>
      </trkpt>
      <trkpt lat="28.3281920" lon="-16.5307380">
        <ele>1560.9</ele>
        <time>2020-11-11T16:24:29Z</time>
      </trkpt>
      <trkpt lat="28.3281920" lon="-16.5307380">
        <ele>1560.9</ele>
        <time>2020-11-11T16:24:30Z</time>
      </trkpt>
      <trkpt lat="28.3281550" lon="-16.5307550">
        <ele>1560.9</ele>
        <time>2020-11-11T16:24:31Z</time>
      </trkpt>
      <trkpt lat="28.3281550" lon="-16.5307550">
        <ele>1560.9</ele>
        <time>2020-11-11T16:24:32Z</time>
      </trkpt>
      <trkpt lat="28.3281280" lon="-16.5307600">
        <ele>1561.9</ele>
        <time>2020-11-11T16:24:33Z</time>
      </trkpt>
      <trkpt lat="28.3281280" lon="-16.5307600">
        <ele>1561.9</ele>
        <time>2020-11-11T16:24:34Z</time>
      </trkpt>
      <trkpt lat="28.3280970" lon="-16.5307570">
        <ele>1561.9</ele>
        <time>2020-11-11T16:24:35Z</time>
      </trkpt>
      <trkpt lat="28.3280970" lon="-16.5307570">
        <ele>1561.9</ele>
        <time>2020-11-11T16:24:36Z</time>
      </trkpt>
      <trkpt lat="28.3280680" lon="-16.5307620">
        <ele>1562.9</ele>
        <time>2020-11-11T16:24:37Z</time>
      </trkpt>
      <trkpt lat="28.3280680" lon="-16.5307620">
        <ele>1562.9</ele>
        <time>2020-11-11T16:24:38Z</time>
      </trkpt>
      <trkpt lat="28.3280370" lon="-16.5307700">
        <ele>1562.9</ele>
        <time>2020-11-11T16:24:39Z</time>
      </trkpt>
      <trkpt lat="28.3280370" lon="-16.5307700">
        <ele>1562.9</ele>
        <time>2020-11-11T16:24:40Z</time>
      </trkpt>
      <trkpt lat="28.3280130" lon="-16.5307620">
        <ele>1562.9</ele>
        <time>2020-11-11T16:24:41Z</time>
      </trkpt>
      <trkpt lat="28.3280130" lon="-16.5307620">
        <ele>1562.9</ele>
        <time>2020-11-11T16:24:42Z</time>
      </trkpt>
      <trkpt lat="28.3279770" lon="-16.5307730">
        <ele>1562.9</ele>
        <time>2020-11-11T16:24:43Z</time>
      </trkpt>
      <trkpt lat="28.3279770" lon="-16.5307730">
        <ele>1562.9</ele>
        <time>2020-11-11T16:24:44Z</time>
      </trkpt>
      <trkpt lat="28.3279620" lon="-16.5307620">
        <ele>1563.9</ele>
        <time>2020-11-11T16:24:45Z</time>
      </trkpt>
      <trkpt lat="28.3279620" lon="-16.5307620">
        <ele>1563.9</ele>
        <time>2020-11-11T16:24:46Z</time>
      </trkpt>
      <trkpt lat="28.3279550" lon="-16.5307380">
        <ele>1563.9</ele>
        <time>2020-11-11T16:24:47Z</time>
      </trkpt>
      <trkpt lat="28.3279650" lon="-16.5307300">
        <ele>1563.9</ele>
        <time>2020-11-11T16:24:48Z</time>
      </trkpt>
      <trkpt lat="28.3279650" lon="-16.5307300">
        <ele>1563.9</ele>
        <time>2020-11-11T16:24:49Z</time>
      </trkpt>
      <trkpt lat="28.3279880" lon="-16.5307050">
        <ele>1563.9</ele>
        <time>2020-11-11T16:24:50Z</time>
      </trkpt>
      <trkpt lat="28.3279880" lon="-16.5307050">
        <ele>1563.9</ele>
        <time>2020-11-11T16:24:51Z</time>
      </trkpt>
      <trkpt lat="28.3280100" lon="-16.5306800">
        <ele>1563.9</ele>
        <time>2020-11-11T16:24:52Z</time>
      </trkpt>
      <trkpt lat="28.3280230" lon="-16.5306680">
        <ele>1563.9</ele>
        <time>2020-11-11T16:24:53Z</time>
      </trkpt>
      <trkpt lat="28.3280230" lon="-16.5306680">
        <ele>1563.9</ele>
        <time>2020-11-11T16:24:54Z</time>
      </trkpt>
      <trkpt lat="28.3280400" lon="-16.5306450">
        <ele>1563.9</ele>
        <time>2020-11-11T16:24:55Z</time>
      </trkpt>
      <trkpt lat="28.3280400" lon="-16.5306450">
        <ele>1563.9</ele>
        <time>2020-11-11T16:24:56Z</time>
      </trkpt>
      <trkpt lat="28.3280550" lon="-16.5306330">
        <ele>1563.9</ele>
        <time>2020-11-11T16:24:57Z</time>
      </trkpt>
      <trkpt lat="28.3280550" lon="-16.5306330">
        <ele>1563.9</ele>
        <time>2020-11-11T16:24:58Z</time>
      </trkpt>
      <trkpt lat="28.3280830" lon="-16.5306120">
        <ele>1563.9</ele>
        <time>2020-11-11T16:24:59Z</time>
      </trkpt>
      <trkpt lat="28.3280830" lon="-16.5306120">
        <ele>1564.9</ele>
        <time>2020-11-11T16:25:00Z</time>
      </trkpt>
      <trkpt lat="28.3281070" lon="-16.5305970">
        <ele>1564.9</ele>
        <time>2020-11-11T16:25:01Z</time>
      </trkpt>
      <trkpt lat="28.3281230" lon="-16.5305850">
        <ele>1564.9</ele>
        <time>2020-11-11T16:25:02Z</time>
      </trkpt>
      <trkpt lat="28.3281230" lon="-16.5305850">
        <ele>1564.9</ele>
        <time>2020-11-11T16:25:03Z</time>
      </trkpt>
      <trkpt lat="28.3281480" lon="-16.5305620">
        <ele>1564.9</ele>
        <time>2020-11-11T16:25:04Z</time>
      </trkpt>
      <trkpt lat="28.3281480" lon="-16.5305620">
        <ele>1564.9</ele>
        <time>2020-11-11T16:25:05Z</time>
      </trkpt>
      <trkpt lat="28.3281680" lon="-16.5305420">
        <ele>1565.9</ele>
        <time>2020-11-11T16:25:06Z</time>
      </trkpt>
      <trkpt lat="28.3281850" lon="-16.5305270">
        <ele>1565.9</ele>
        <time>2020-11-11T16:25:07Z</time>
      </trkpt>
      <trkpt lat="28.3281850" lon="-16.5305270">
        <ele>1565.9</ele>
        <time>2020-11-11T16:25:08Z</time>
      </trkpt>
      <trkpt lat="28.3282170" lon="-16.5304900">
        <ele>1565.9</ele>
        <time>2020-11-11T16:25:09Z</time>
      </trkpt>
      <trkpt lat="28.3282170" lon="-16.5304900">
        <ele>1565.9</ele>
        <time>2020-11-11T16:25:10Z</time>
      </trkpt>
      <trkpt lat="28.3282380" lon="-16.5304500">
        <ele>1565.9</ele>
        <time>2020-11-11T16:25:11Z</time>
      </trkpt>
      <trkpt lat="28.3282380" lon="-16.5304500">
        <ele>1565.9</ele>
        <time>2020-11-11T16:25:12Z</time>
      </trkpt>
      <trkpt lat="28.3282730" lon="-16.5304080">
        <ele>1566.9</ele>
        <time>2020-11-11T16:25:13Z</time>
      </trkpt>
      <trkpt lat="28.3282730" lon="-16.5304080">
        <ele>1566.9</ele>
        <time>2020-11-11T16:25:14Z</time>
      </trkpt>
      <trkpt lat="28.3283000" lon="-16.5303720">
        <ele>1566.9</ele>
        <time>2020-11-11T16:25:15Z</time>
      </trkpt>
      <trkpt lat="28.3283000" lon="-16.5303720">
        <ele>1566.9</ele>
        <time>2020-11-11T16:25:16Z</time>
      </trkpt>
      <trkpt lat="28.3283180" lon="-16.5303400">
        <ele>1566.9</ele>
        <time>2020-11-11T16:25:17Z</time>
      </trkpt>
      <trkpt lat="28.3283300" lon="-16.5303230">
        <ele>1566.9</ele>
        <time>2020-11-11T16:25:18Z</time>
      </trkpt>
      <trkpt lat="28.3283300" lon="-16.5303230">
        <ele>1566.9</ele>
        <time>2020-11-11T16:25:19Z</time>
      </trkpt>
      <trkpt lat="28.3283400" lon="-16.5302880">
        <ele>1566.9</ele>
        <time>2020-11-11T16:25:20Z</time>
      </trkpt>
      <trkpt lat="28.3283400" lon="-16.5302880">
        <ele>1567.9</ele>
        <time>2020-11-11T16:25:21Z</time>
      </trkpt>
      <trkpt lat="28.3283420" lon="-16.5302530">
        <ele>1567.9</ele>
        <time>2020-11-11T16:25:22Z</time>
      </trkpt>
      <trkpt lat="28.3283470" lon="-16.5302270">
        <ele>1567.9</ele>
        <time>2020-11-11T16:25:23Z</time>
      </trkpt>
      <trkpt lat="28.3283470" lon="-16.5302270">
        <ele>1567.9</ele>
        <time>2020-11-11T16:25:24Z</time>
      </trkpt>
      <trkpt lat="28.3283570" lon="-16.5301850">
        <ele>1567.9</ele>
        <time>2020-11-11T16:25:25Z</time>
      </trkpt>
      <trkpt lat="28.3283570" lon="-16.5301850">
        <ele>1567.9</ele>
        <time>2020-11-11T16:25:26Z</time>
      </trkpt>
      <trkpt lat="28.3283670" lon="-16.5301400">
        <ele>1567.9</ele>
        <time>2020-11-11T16:25:27Z</time>
      </trkpt>
      <trkpt lat="28.3283670" lon="-16.5301400">
        <ele>1567.9</ele>
        <time>2020-11-11T16:25:28Z</time>
      </trkpt>
      <trkpt lat="28.3283800" lon="-16.5300880">
        <ele>1567.9</ele>
        <time>2020-11-11T16:25:29Z</time>
      </trkpt>
      <trkpt lat="28.3283800" lon="-16.5300880">
        <ele>1567.9</ele>
        <time>2020-11-11T16:25:30Z</time>
      </trkpt>
      <trkpt lat="28.3283950" lon="-16.5300520">
        <ele>1568.9</ele>
        <time>2020-11-11T16:25:31Z</time>
      </trkpt>
      <trkpt lat="28.3283950" lon="-16.5300520">
        <ele>1568.9</ele>
        <time>2020-11-11T16:25:32Z</time>
      </trkpt>
      <trkpt lat="28.3284030" lon="-16.5299900">
        <ele>1568.9</ele>
        <time>2020-11-11T16:25:33Z</time>
      </trkpt>
      <trkpt lat="28.3284030" lon="-16.5299900">
        <ele>1568.9</ele>
        <time>2020-11-11T16:25:34Z</time>
      </trkpt>
      <trkpt lat="28.3284080" lon="-16.5299470">
        <ele>1569.9</ele>
        <time>2020-11-11T16:25:35Z</time>
      </trkpt>
      <trkpt lat="28.3284120" lon="-16.5299330">
        <ele>1569.9</ele>
        <time>2020-11-11T16:25:36Z</time>
      </trkpt>
      <trkpt lat="28.3284120" lon="-16.5299330">
        <ele>1569.9</ele>
        <time>2020-11-11T16:25:37Z</time>
      </trkpt>
      <trkpt lat="28.3284220" lon="-16.5298980">
        <ele>1569.9</ele>
        <time>2020-11-11T16:25:38Z</time>
      </trkpt>
      <trkpt lat="28.3284220" lon="-16.5298980">
        <ele>1569.9</ele>
        <time>2020-11-11T16:25:39Z</time>
      </trkpt>
      <trkpt lat="28.3284330" lon="-16.5298750">
        <ele>1569.9</ele>
        <time>2020-11-11T16:25:40Z</time>
      </trkpt>
      <trkpt lat="28.3284330" lon="-16.5298750">
        <ele>1569.9</ele>
        <time>2020-11-11T16:25:41Z</time>
      </trkpt>
      <trkpt lat="28.3284680" lon="-16.5298530">
        <ele>1569.9</ele>
        <time>2020-11-11T16:25:42Z</time>
      </trkpt>
      <trkpt lat="28.3284770" lon="-16.5298230">
        <ele>1570.9</ele>
        <time>2020-11-11T16:25:43Z</time>
      </trkpt>
      <trkpt lat="28.3284770" lon="-16.5298230">
        <ele>1571.9</ele>
        <time>2020-11-11T16:25:44Z</time>
      </trkpt>
      <trkpt lat="28.3285130" lon="-16.5297780">
        <ele>1571.9</ele>
        <time>2020-11-11T16:25:45Z</time>
      </trkpt>
      <trkpt lat="28.3285130" lon="-16.5297780">
        <ele>1571.9</ele>
        <time>2020-11-11T16:25:46Z</time>
      </trkpt>
      <trkpt lat="28.3285330" lon="-16.5297720">
        <ele>1571.9</ele>
        <time>2020-11-11T16:25:47Z</time>
      </trkpt>
      <trkpt lat="28.3285450" lon="-16.5297720">
        <ele>1571.9</ele>
        <time>2020-11-11T16:25:48Z</time>
      </trkpt>
      <trkpt lat="28.3285450" lon="-16.5297720">
        <ele>1571.9</ele>
        <time>2020-11-11T16:25:49Z</time>
      </trkpt>
      <trkpt lat="28.3285680" lon="-16.5297670">
        <ele>1572.9</ele>
        <time>2020-11-11T16:25:50Z</time>
      </trkpt>
      <trkpt lat="28.3285830" lon="-16.5297580">
        <ele>1572.9</ele>
        <time>2020-11-11T16:25:51Z</time>
      </trkpt>
      <trkpt lat="28.3285830" lon="-16.5297580">
        <ele>1572.9</ele>
        <time>2020-11-11T16:25:52Z</time>
      </trkpt>
      <trkpt lat="28.3286230" lon="-16.5297430">
        <ele>1572.9</ele>
        <time>2020-11-11T16:25:53Z</time>
      </trkpt>
      <trkpt lat="28.3286230" lon="-16.5297430">
        <ele>1572.9</ele>
        <time>2020-11-11T16:25:54Z</time>
      </trkpt>
      <trkpt lat="28.3286530" lon="-16.5297350">
        <ele>1572.9</ele>
        <time>2020-11-11T16:25:55Z</time>
      </trkpt>
      <trkpt lat="28.3286530" lon="-16.5297350">
        <ele>1572.9</ele>
        <time>2020-11-11T16:25:56Z</time>
      </trkpt>
      <trkpt lat="28.3286800" lon="-16.5297300">
        <ele>1572.9</ele>
        <time>2020-11-11T16:25:57Z</time>
      </trkpt>
      <trkpt lat="28.3286800" lon="-16.5297300">
        <ele>1572.9</ele>
        <time>2020-11-11T16:25:58Z</time>
      </trkpt>
      <trkpt lat="28.3287120" lon="-16.5297320">
        <ele>1572.9</ele>
        <time>2020-11-11T16:25:59Z</time>
      </trkpt>
      <trkpt lat="28.3287120" lon="-16.5297320">
        <ele>1573.9</ele>
        <time>2020-11-11T16:26:00Z</time>
      </trkpt>
      <trkpt lat="28.3287470" lon="-16.5297230">
        <ele>1573.9</ele>
        <time>2020-11-11T16:26:01Z</time>
      </trkpt>
      <trkpt lat="28.3287470" lon="-16.5297230">
        <ele>1573.9</ele>
        <time>2020-11-11T16:26:02Z</time>
      </trkpt>
      <trkpt lat="28.3287800" lon="-16.5297200">
        <ele>1573.9</ele>
        <time>2020-11-11T16:26:03Z</time>
      </trkpt>
      <trkpt lat="28.3287800" lon="-16.5297200">
        <ele>1573.9</ele>
        <time>2020-11-11T16:26:04Z</time>
      </trkpt>
      <trkpt lat="28.3288200" lon="-16.5297150">
        <ele>1573.9</ele>
        <time>2020-11-11T16:26:05Z</time>
      </trkpt>
      <trkpt lat="28.3288430" lon="-16.5297070">
        <ele>1574.9</ele>
        <time>2020-11-11T16:26:06Z</time>
      </trkpt>
      <trkpt lat="28.3288670" lon="-16.5296980">
        <ele>1574.9</ele>
        <time>2020-11-11T16:26:07Z</time>
      </trkpt>
      <trkpt lat="28.3288670" lon="-16.5296980">
        <ele>1574.9</ele>
        <time>2020-11-11T16:26:08Z</time>
      </trkpt>
      <trkpt lat="28.3289020" lon="-16.5296780">
        <ele>1574.9</ele>
        <time>2020-11-11T16:26:09Z</time>
      </trkpt>
      <trkpt lat="28.3289020" lon="-16.5296780">
        <ele>1574.9</ele>
        <time>2020-11-11T16:26:10Z</time>
      </trkpt>
      <trkpt lat="28.3289300" lon="-16.5296470">
        <ele>1574.9</ele>
        <time>2020-11-11T16:26:11Z</time>
      </trkpt>
      <trkpt lat="28.3289300" lon="-16.5296470">
        <ele>1574.9</ele>
        <time>2020-11-11T16:26:12Z</time>
      </trkpt>
      <trkpt lat="28.3289570" lon="-16.5296080">
        <ele>1575.9</ele>
        <time>2020-11-11T16:26:13Z</time>
      </trkpt>
      <trkpt lat="28.3289570" lon="-16.5296080">
        <ele>1575.9</ele>
        <time>2020-11-11T16:26:14Z</time>
      </trkpt>
      <trkpt lat="28.3289830" lon="-16.5295830">
        <ele>1575.9</ele>
        <time>2020-11-11T16:26:15Z</time>
      </trkpt>
      <trkpt lat="28.3289830" lon="-16.5295830">
        <ele>1575.9</ele>
        <time>2020-11-11T16:26:16Z</time>
      </trkpt>
      <trkpt lat="28.3289980" lon="-16.5295500">
        <ele>1575.9</ele>
        <time>2020-11-11T16:26:17Z</time>
      </trkpt>
      <trkpt lat="28.3290100" lon="-16.5295320">
        <ele>1575.9</ele>
        <time>2020-11-11T16:26:18Z</time>
      </trkpt>
      <trkpt lat="28.3290100" lon="-16.5295320">
        <ele>1575.9</ele>
        <time>2020-11-11T16:26:19Z</time>
      </trkpt>
      <trkpt lat="28.3290270" lon="-16.5294870">
        <ele>1576.9</ele>
        <time>2020-11-11T16:26:20Z</time>
      </trkpt>
      <trkpt lat="28.3290270" lon="-16.5294870">
        <ele>1576.9</ele>
        <time>2020-11-11T16:26:21Z</time>
      </trkpt>
      <trkpt lat="28.3290380" lon="-16.5294550">
        <ele>1576.9</ele>
        <time>2020-11-11T16:26:22Z</time>
      </trkpt>
      <trkpt lat="28.3290380" lon="-16.5294550">
        <ele>1576.9</ele>
        <time>2020-11-11T16:26:23Z</time>
      </trkpt>
      <trkpt lat="28.3290470" lon="-16.5294130">
        <ele>1576.9</ele>
        <time>2020-11-11T16:26:24Z</time>
      </trkpt>
      <trkpt lat="28.3290470" lon="-16.5294130">
        <ele>1576.9</ele>
        <time>2020-11-11T16:26:25Z</time>
      </trkpt>
      <trkpt lat="28.3290520" lon="-16.5293970">
        <ele>1576.9</ele>
        <time>2020-11-11T16:26:26Z</time>
      </trkpt>
      <trkpt lat="28.3290520" lon="-16.5293980">
        <ele>1576.9</ele>
        <time>2020-11-11T16:26:27Z</time>
      </trkpt>
      <trkpt lat="28.3290520" lon="-16.5293980">
        <ele>1576.9</ele>
        <time>2020-11-11T16:26:28Z</time>
      </trkpt>
      <trkpt lat="28.3290480" lon="-16.5293980">
        <ele>1576.9</ele>
        <time>2020-11-11T16:27:29Z</time>
      </trkpt>
      <trkpt lat="28.3290480" lon="-16.5293980">
        <ele>1576.9</ele>
        <time>2020-11-11T16:27:30Z</time>
      </trkpt>
      <trkpt lat="28.3291050" lon="-16.5292480">
        <ele>1576.9</ele>
        <time>2020-11-11T16:27:31Z</time>
      </trkpt>
      <trkpt lat="28.3291050" lon="-16.5292480">
        <ele>1577.9</ele>
        <time>2020-11-11T16:27:32Z</time>
      </trkpt>
      <trkpt lat="28.3291230" lon="-16.5292200">
        <ele>1577.9</ele>
        <time>2020-11-11T16:27:33Z</time>
      </trkpt>
      <trkpt lat="28.3291230" lon="-16.5292200">
        <ele>1577.9</ele>
        <time>2020-11-11T16:27:34Z</time>
      </trkpt>
      <trkpt lat="28.3291400" lon="-16.5291870">
        <ele>1577.9</ele>
        <time>2020-11-11T16:27:35Z</time>
      </trkpt>
      <trkpt lat="28.3291400" lon="-16.5291870">
        <ele>1577.9</ele>
        <time>2020-11-11T16:27:36Z</time>
      </trkpt>
      <trkpt lat="28.3291630" lon="-16.5291550">
        <ele>1577.9</ele>
        <time>2020-11-11T16:27:37Z</time>
      </trkpt>
      <trkpt lat="28.3291770" lon="-16.5291420">
        <ele>1577.9</ele>
        <time>2020-11-11T16:27:38Z</time>
      </trkpt>
      <trkpt lat="28.3291770" lon="-16.5291420">
        <ele>1578.9</ele>
        <time>2020-11-11T16:27:39Z</time>
      </trkpt>
      <trkpt lat="28.3292000" lon="-16.5291120">
        <ele>1578.9</ele>
        <time>2020-11-11T16:27:40Z</time>
      </trkpt>
      <trkpt lat="28.3292000" lon="-16.5291120">
        <ele>1578.9</ele>
        <time>2020-11-11T16:27:41Z</time>
      </trkpt>
      <trkpt lat="28.3292200" lon="-16.5290920">
        <ele>1578.9</ele>
        <time>2020-11-11T16:27:42Z</time>
      </trkpt>
      <trkpt lat="28.3292200" lon="-16.5290920">
        <ele>1578.9</ele>
        <time>2020-11-11T16:27:43Z</time>
      </trkpt>
      <trkpt lat="28.3292450" lon="-16.5290670">
        <ele>1578.9</ele>
        <time>2020-11-11T16:27:44Z</time>
      </trkpt>
      <trkpt lat="28.3292450" lon="-16.5290670">
        <ele>1579.9</ele>
        <time>2020-11-11T16:27:45Z</time>
      </trkpt>
      <trkpt lat="28.3292770" lon="-16.5290470">
        <ele>1579.9</ele>
        <time>2020-11-11T16:27:46Z</time>
      </trkpt>
      <trkpt lat="28.3292770" lon="-16.5290470">
        <ele>1579.9</ele>
        <time>2020-11-11T16:27:47Z</time>
      </trkpt>
      <trkpt lat="28.3293020" lon="-16.5290250">
        <ele>1579.9</ele>
        <time>2020-11-11T16:27:48Z</time>
      </trkpt>
      <trkpt lat="28.3293130" lon="-16.5290120">
        <ele>1580.9</ele>
        <time>2020-11-11T16:27:49Z</time>
      </trkpt>
      <trkpt lat="28.3293130" lon="-16.5290120">
        <ele>1580.9</ele>
        <time>2020-11-11T16:27:50Z</time>
      </trkpt>
      <trkpt lat="28.3293300" lon="-16.5289920">
        <ele>1580.9</ele>
        <time>2020-11-11T16:27:51Z</time>
      </trkpt>
      <trkpt lat="28.3293300" lon="-16.5289920">
        <ele>1580.9</ele>
        <time>2020-11-11T16:27:52Z</time>
      </trkpt>
      <trkpt lat="28.3293550" lon="-16.5289800">
        <ele>1580.9</ele>
        <time>2020-11-11T16:27:53Z</time>
      </trkpt>
      <trkpt lat="28.3293550" lon="-16.5289800">
        <ele>1580.9</ele>
        <time>2020-11-11T16:27:54Z</time>
      </trkpt>
      <trkpt lat="28.3293880" lon="-16.5289630">
        <ele>1581.9</ele>
        <time>2020-11-11T16:27:55Z</time>
      </trkpt>
      <trkpt lat="28.3293880" lon="-16.5289630">
        <ele>1581.9</ele>
        <time>2020-11-11T16:27:56Z</time>
      </trkpt>
      <trkpt lat="28.3294250" lon="-16.5289480">
        <ele>1581.9</ele>
        <time>2020-11-11T16:27:57Z</time>
      </trkpt>
      <trkpt lat="28.3294250" lon="-16.5289480">
        <ele>1581.9</ele>
        <time>2020-11-11T16:27:58Z</time>
      </trkpt>
      <trkpt lat="28.3294600" lon="-16.5289430">
        <ele>1581.9</ele>
        <time>2020-11-11T16:27:59Z</time>
      </trkpt>
      <trkpt lat="28.3294600" lon="-16.5289430">
        <ele>1581.9</ele>
        <time>2020-11-11T16:28:00Z</time>
      </trkpt>
      <trkpt lat="28.3294900" lon="-16.5289330">
        <ele>1581.9</ele>
        <time>2020-11-11T16:28:01Z</time>
      </trkpt>
      <trkpt lat="28.3294900" lon="-16.5289330">
        <ele>1582.9</ele>
        <time>2020-11-11T16:28:02Z</time>
      </trkpt>
      <trkpt lat="28.3295280" lon="-16.5289170">
        <ele>1582.9</ele>
        <time>2020-11-11T16:28:03Z</time>
      </trkpt>
      <trkpt lat="28.3295280" lon="-16.5289170">
        <ele>1582.9</ele>
        <time>2020-11-11T16:28:04Z</time>
      </trkpt>
      <trkpt lat="28.3295630" lon="-16.5289150">
        <ele>1582.9</ele>
        <time>2020-11-11T16:28:05Z</time>
      </trkpt>
      <trkpt lat="28.3295630" lon="-16.5289150">
        <ele>1582.9</ele>
        <time>2020-11-11T16:28:06Z</time>
      </trkpt>
      <trkpt lat="28.3295930" lon="-16.5289120">
        <ele>1582.9</ele>
        <time>2020-11-11T16:28:07Z</time>
      </trkpt>
      <trkpt lat="28.3295930" lon="-16.5289120">
        <ele>1582.9</ele>
        <time>2020-11-11T16:28:08Z</time>
      </trkpt>
      <trkpt lat="28.3296180" lon="-16.5289100">
        <ele>1582.9</ele>
        <time>2020-11-11T16:28:09Z</time>
      </trkpt>
      <trkpt lat="28.3296180" lon="-16.5289100">
        <ele>1583.9</ele>
        <time>2020-11-11T16:28:10Z</time>
      </trkpt>
      <trkpt lat="28.3296450" lon="-16.5289070">
        <ele>1583.9</ele>
        <time>2020-11-11T16:28:11Z</time>
      </trkpt>
      <trkpt lat="28.3296450" lon="-16.5289070">
        <ele>1583.9</ele>
        <time>2020-11-11T16:28:12Z</time>
      </trkpt>
      <trkpt lat="28.3296750" lon="-16.5289020">
        <ele>1583.9</ele>
        <time>2020-11-11T16:28:13Z</time>
      </trkpt>
      <trkpt lat="28.3296750" lon="-16.5289020">
        <ele>1583.9</ele>
        <time>2020-11-11T16:28:14Z</time>
      </trkpt>
      <trkpt lat="28.3297220" lon="-16.5288880">
        <ele>1583.9</ele>
        <time>2020-11-11T16:28:15Z</time>
      </trkpt>
      <trkpt lat="28.3297220" lon="-16.5288880">
        <ele>1584.9</ele>
        <time>2020-11-11T16:28:16Z</time>
      </trkpt>
      <trkpt lat="28.3297580" lon="-16.5288680">
        <ele>1584.9</ele>
        <time>2020-11-11T16:28:17Z</time>
      </trkpt>
      <trkpt lat="28.3297730" lon="-16.5288570">
        <ele>1584.9</ele>
        <time>2020-11-11T16:28:18Z</time>
      </trkpt>
      <trkpt lat="28.3297730" lon="-16.5288570">
        <ele>1584.9</ele>
        <time>2020-11-11T16:28:19Z</time>
      </trkpt>
      <trkpt lat="28.3298050" lon="-16.5288420">
        <ele>1584.9</ele>
        <time>2020-11-11T16:28:20Z</time>
      </trkpt>
      <trkpt lat="28.3298050" lon="-16.5288420">
        <ele>1585.9</ele>
        <time>2020-11-11T16:28:21Z</time>
      </trkpt>
      <trkpt lat="28.3298300" lon="-16.5288180">
        <ele>1585.9</ele>
        <time>2020-11-11T16:28:22Z</time>
      </trkpt>
      <trkpt lat="28.3298300" lon="-16.5288180">
        <ele>1585.9</ele>
        <time>2020-11-11T16:28:23Z</time>
      </trkpt>
      <trkpt lat="28.3298580" lon="-16.5287830">
        <ele>1585.9</ele>
        <time>2020-11-11T16:28:24Z</time>
      </trkpt>
      <trkpt lat="28.3298580" lon="-16.5287830">
        <ele>1585.9</ele>
        <time>2020-11-11T16:28:25Z</time>
      </trkpt>
      <trkpt lat="28.3298700" lon="-16.5287530">
        <ele>1585.9</ele>
        <time>2020-11-11T16:28:26Z</time>
      </trkpt>
      <trkpt lat="28.3298750" lon="-16.5287330">
        <ele>1585.9</ele>
        <time>2020-11-11T16:28:27Z</time>
      </trkpt>
      <trkpt lat="28.3298780" lon="-16.5287170">
        <ele>1585.9</ele>
        <time>2020-11-11T16:28:28Z</time>
      </trkpt>
      <trkpt lat="28.3298780" lon="-16.5287170">
        <ele>1585.9</ele>
        <time>2020-11-11T16:28:29Z</time>
      </trkpt>
      <trkpt lat="28.3298830" lon="-16.5286870">
        <ele>1585.9</ele>
        <time>2020-11-11T16:28:30Z</time>
      </trkpt>
      <trkpt lat="28.3298830" lon="-16.5286870">
        <ele>1586.9</ele>
        <time>2020-11-11T16:28:31Z</time>
      </trkpt>
      <trkpt lat="28.3298820" lon="-16.5286330">
        <ele>1586.9</ele>
        <time>2020-11-11T16:28:32Z</time>
      </trkpt>
      <trkpt lat="28.3298820" lon="-16.5286330">
        <ele>1586.9</ele>
        <time>2020-11-11T16:28:33Z</time>
      </trkpt>
      <trkpt lat="28.3298920" lon="-16.5285900">
        <ele>1586.9</ele>
        <time>2020-11-11T16:28:34Z</time>
      </trkpt>
      <trkpt lat="28.3298920" lon="-16.5285900">
        <ele>1586.9</ele>
        <time>2020-11-11T16:28:35Z</time>
      </trkpt>
      <trkpt lat="28.3298780" lon="-16.5285650">
        <ele>1586.9</ele>
        <time>2020-11-11T16:28:36Z</time>
      </trkpt>
      <trkpt lat="28.3298780" lon="-16.5285470">
        <ele>1586.9</ele>
        <time>2020-11-11T16:28:37Z</time>
      </trkpt>
      <trkpt lat="28.3298780" lon="-16.5285470">
        <ele>1586.9</ele>
        <time>2020-11-11T16:28:38Z</time>
      </trkpt>
      <trkpt lat="28.3298650" lon="-16.5285020">
        <ele>1586.9</ele>
        <time>2020-11-11T16:28:39Z</time>
      </trkpt>
      <trkpt lat="28.3298650" lon="-16.5285020">
        <ele>1586.9</ele>
        <time>2020-11-11T16:28:40Z</time>
      </trkpt>
      <trkpt lat="28.3298450" lon="-16.5284720">
        <ele>1587.9</ele>
        <time>2020-11-11T16:28:41Z</time>
      </trkpt>
      <trkpt lat="28.3298450" lon="-16.5284720">
        <ele>1587.9</ele>
        <time>2020-11-11T16:28:42Z</time>
      </trkpt>
      <trkpt lat="28.3298300" lon="-16.5284270">
        <ele>1587.9</ele>
        <time>2020-11-11T16:28:43Z</time>
      </trkpt>
      <trkpt lat="28.3298300" lon="-16.5284270">
        <ele>1587.9</ele>
        <time>2020-11-11T16:28:44Z</time>
      </trkpt>
      <trkpt lat="28.3298230" lon="-16.5283730">
        <ele>1587.9</ele>
        <time>2020-11-11T16:28:45Z</time>
      </trkpt>
      <trkpt lat="28.3298230" lon="-16.5283730">
        <ele>1587.9</ele>
        <time>2020-11-11T16:28:46Z</time>
      </trkpt>
      <trkpt lat="28.3298420" lon="-16.5283150">
        <ele>1587.9</ele>
        <time>2020-11-11T16:28:47Z</time>
      </trkpt>
      <trkpt lat="28.3298420" lon="-16.5283150">
        <ele>1587.9</ele>
        <time>2020-11-11T16:28:48Z</time>
      </trkpt>
      <trkpt lat="28.3298580" lon="-16.5282730">
        <ele>1587.9</ele>
        <time>2020-11-11T16:28:49Z</time>
      </trkpt>
      <trkpt lat="28.3298580" lon="-16.5282730">
        <ele>1587.9</ele>
        <time>2020-11-11T16:28:50Z</time>
      </trkpt>
      <trkpt lat="28.3298780" lon="-16.5282350">
        <ele>1587.9</ele>
        <time>2020-11-11T16:28:51Z</time>
      </trkpt>
      <trkpt lat="28.3298780" lon="-16.5282350">
        <ele>1587.9</ele>
        <time>2020-11-11T16:28:52Z</time>
      </trkpt>
      <trkpt lat="28.3299000" lon="-16.5282020">
        <ele>1587.9</ele>
        <time>2020-11-11T16:28:53Z</time>
      </trkpt>
      <trkpt lat="28.3299000" lon="-16.5282020">
        <ele>1587.9</ele>
        <time>2020-11-11T16:28:54Z</time>
      </trkpt>
      <trkpt lat="28.3299230" lon="-16.5281750">
        <ele>1587.9</ele>
        <time>2020-11-11T16:28:55Z</time>
      </trkpt>
      <trkpt lat="28.3299230" lon="-16.5281750">
        <ele>1587.9</ele>
        <time>2020-11-11T16:28:56Z</time>
      </trkpt>
      <trkpt lat="28.3299500" lon="-16.5281500">
        <ele>1587.9</ele>
        <time>2020-11-11T16:28:57Z</time>
      </trkpt>
      <trkpt lat="28.3299500" lon="-16.5281500">
        <ele>1588.9</ele>
        <time>2020-11-11T16:28:58Z</time>
      </trkpt>
      <trkpt lat="28.3299700" lon="-16.5281350">
        <ele>1588.9</ele>
        <time>2020-11-11T16:28:59Z</time>
      </trkpt>
      <trkpt lat="28.3299820" lon="-16.5281280">
        <ele>1588.9</ele>
        <time>2020-11-11T16:29:00Z</time>
      </trkpt>
      <trkpt lat="28.3299820" lon="-16.5281280">
        <ele>1588.9</ele>
        <time>2020-11-11T16:29:01Z</time>
      </trkpt>
      <trkpt lat="28.3299800" lon="-16.5281270">
        <ele>1588.9</ele>
        <time>2020-11-11T16:29:02Z</time>
      </trkpt>
      <trkpt lat="28.3299800" lon="-16.5281270">
        <ele>1588.9</ele>
        <time>2020-11-11T16:29:03Z</time>
      </trkpt>
      <trkpt lat="28.3299780" lon="-16.5281320">
        <ele>1588.9</ele>
        <time>2020-11-11T16:29:04Z</time>
      </trkpt>
      <trkpt lat="28.3299780" lon="-16.5281320">
        <ele>1588.9</ele>
        <time>2020-11-11T16:29:05Z</time>
      </trkpt>
      <trkpt lat="28.3299780" lon="-16.5281320">
        <ele>1588.9</ele>
        <time>2020-11-11T16:29:06Z</time>
      </trkpt>
      <trkpt lat="28.3299780" lon="-16.5281320">
        <ele>1589.9</ele>
        <time>2020-11-11T16:29:07Z</time>
      </trkpt>
      <trkpt lat="28.3299780" lon="-16.5281320">
        <ele>1589.9</ele>
        <time>2020-11-11T16:29:20Z</time>
      </trkpt>
      <trkpt lat="28.3300600" lon="-16.5280820">
        <ele>1589.9</ele>
        <time>2020-11-11T16:29:21Z</time>
      </trkpt>
      <trkpt lat="28.3300700" lon="-16.5280630">
        <ele>1589.9</ele>
        <time>2020-11-11T16:29:22Z</time>
      </trkpt>
      <trkpt lat="28.3300700" lon="-16.5280630">
        <ele>1590.9</ele>
        <time>2020-11-11T16:29:23Z</time>
      </trkpt>
      <trkpt lat="28.3301080" lon="-16.5280350">
        <ele>1590.9</ele>
        <time>2020-11-11T16:29:24Z</time>
      </trkpt>
      <trkpt lat="28.3301270" lon="-16.5280250">
        <ele>1590.9</ele>
        <time>2020-11-11T16:29:25Z</time>
      </trkpt>
      <trkpt lat="28.3301270" lon="-16.5280250">
        <ele>1590.9</ele>
        <time>2020-11-11T16:29:26Z</time>
      </trkpt>
      <trkpt lat="28.3301480" lon="-16.5279900">
        <ele>1590.9</ele>
        <time>2020-11-11T16:29:27Z</time>
      </trkpt>
      <trkpt lat="28.3301480" lon="-16.5279900">
        <ele>1591.9</ele>
        <time>2020-11-11T16:29:28Z</time>
      </trkpt>
      <trkpt lat="28.3301530" lon="-16.5279550">
        <ele>1591.9</ele>
        <time>2020-11-11T16:29:29Z</time>
      </trkpt>
      <trkpt lat="28.3301520" lon="-16.5279350">
        <ele>1591.9</ele>
        <time>2020-11-11T16:29:30Z</time>
      </trkpt>
      <trkpt lat="28.3301520" lon="-16.5279350">
        <ele>1591.9</ele>
        <time>2020-11-11T16:29:31Z</time>
      </trkpt>
      <trkpt lat="28.3301480" lon="-16.5278950">
        <ele>1591.9</ele>
        <time>2020-11-11T16:29:32Z</time>
      </trkpt>
      <trkpt lat="28.3301480" lon="-16.5278950">
        <ele>1591.9</ele>
        <time>2020-11-11T16:29:33Z</time>
      </trkpt>
      <trkpt lat="28.3301300" lon="-16.5278570">
        <ele>1591.9</ele>
        <time>2020-11-11T16:29:34Z</time>
      </trkpt>
      <trkpt lat="28.3301300" lon="-16.5278570">
        <ele>1591.9</ele>
        <time>2020-11-11T16:29:35Z</time>
      </trkpt>
      <trkpt lat="28.3301180" lon="-16.5278330">
        <ele>1591.9</ele>
        <time>2020-11-11T16:29:36Z</time>
      </trkpt>
      <trkpt lat="28.3301180" lon="-16.5278330">
        <ele>1591.9</ele>
        <time>2020-11-11T16:29:37Z</time>
      </trkpt>
      <trkpt lat="28.3301130" lon="-16.5278000">
        <ele>1592.9</ele>
        <time>2020-11-11T16:29:38Z</time>
      </trkpt>
      <trkpt lat="28.3301130" lon="-16.5278000">
        <ele>1592.9</ele>
        <time>2020-11-11T16:29:39Z</time>
      </trkpt>
      <trkpt lat="28.3301070" lon="-16.5277620">
        <ele>1592.9</ele>
        <time>2020-11-11T16:29:40Z</time>
      </trkpt>
      <trkpt lat="28.3301070" lon="-16.5277620">
        <ele>1592.9</ele>
        <time>2020-11-11T16:29:41Z</time>
      </trkpt>
      <trkpt lat="28.3300920" lon="-16.5277300">
        <ele>1592.9</ele>
        <time>2020-11-11T16:29:42Z</time>
      </trkpt>
      <trkpt lat="28.3300920" lon="-16.5277300">
        <ele>1592.9</ele>
        <time>2020-11-11T16:29:43Z</time>
      </trkpt>
      <trkpt lat="28.3300880" lon="-16.5276930">
        <ele>1593.9</ele>
        <time>2020-11-11T16:29:44Z</time>
      </trkpt>
      <trkpt lat="28.3300880" lon="-16.5276930">
        <ele>1593.9</ele>
        <time>2020-11-11T16:29:45Z</time>
      </trkpt>
      <trkpt lat="28.3300780" lon="-16.5276480">
        <ele>1593.9</ele>
        <time>2020-11-11T16:29:46Z</time>
      </trkpt>
      <trkpt lat="28.3300780" lon="-16.5276480">
        <ele>1593.9</ele>
        <time>2020-11-11T16:29:47Z</time>
      </trkpt>
      <trkpt lat="28.3300720" lon="-16.5276050">
        <ele>1593.9</ele>
        <time>2020-11-11T16:29:48Z</time>
      </trkpt>
      <trkpt lat="28.3300720" lon="-16.5276050">
        <ele>1593.9</ele>
        <time>2020-11-11T16:29:49Z</time>
      </trkpt>
      <trkpt lat="28.3300670" lon="-16.5275680">
        <ele>1594.9</ele>
        <time>2020-11-11T16:29:50Z</time>
      </trkpt>
      <trkpt lat="28.3300670" lon="-16.5275680">
        <ele>1594.9</ele>
        <time>2020-11-11T16:29:51Z</time>
      </trkpt>
      <trkpt lat="28.3300670" lon="-16.5275380">
        <ele>1594.9</ele>
        <time>2020-11-11T16:29:52Z</time>
      </trkpt>
      <trkpt lat="28.3300670" lon="-16.5275380">
        <ele>1594.9</ele>
        <time>2020-11-11T16:29:53Z</time>
      </trkpt>
      <trkpt lat="28.3300550" lon="-16.5274950">
        <ele>1594.9</ele>
        <time>2020-11-11T16:29:54Z</time>
      </trkpt>
      <trkpt lat="28.3300550" lon="-16.5274950">
        <ele>1594.9</ele>
        <time>2020-11-11T16:29:55Z</time>
      </trkpt>
      <trkpt lat="28.3300650" lon="-16.5274580">
        <ele>1595.9</ele>
        <time>2020-11-11T16:29:56Z</time>
      </trkpt>
      <trkpt lat="28.3300650" lon="-16.5274580">
        <ele>1595.9</ele>
        <time>2020-11-11T16:29:57Z</time>
      </trkpt>
      <trkpt lat="28.3300770" lon="-16.5274220">
        <ele>1595.9</ele>
        <time>2020-11-11T16:29:58Z</time>
      </trkpt>
      <trkpt lat="28.3300770" lon="-16.5274220">
        <ele>1595.9</ele>
        <time>2020-11-11T16:29:59Z</time>
      </trkpt>
      <trkpt lat="28.3300850" lon="-16.5273830">
        <ele>1596.9</ele>
        <time>2020-11-11T16:30:00Z</time>
      </trkpt>
      <trkpt lat="28.3300850" lon="-16.5273830">
        <ele>1596.9</ele>
        <time>2020-11-11T16:30:01Z</time>
      </trkpt>
      <trkpt lat="28.3301020" lon="-16.5273370">
        <ele>1596.9</ele>
        <time>2020-11-11T16:30:02Z</time>
      </trkpt>
      <trkpt lat="28.3301020" lon="-16.5273370">
        <ele>1596.9</ele>
        <time>2020-11-11T16:30:03Z</time>
      </trkpt>
      <trkpt lat="28.3301200" lon="-16.5272980">
        <ele>1596.9</ele>
        <time>2020-11-11T16:30:04Z</time>
      </trkpt>
      <trkpt lat="28.3301200" lon="-16.5272980">
        <ele>1597.9</ele>
        <time>2020-11-11T16:30:05Z</time>
      </trkpt>
      <trkpt lat="28.3301370" lon="-16.5272580">
        <ele>1597.9</ele>
        <time>2020-11-11T16:30:06Z</time>
      </trkpt>
      <trkpt lat="28.3301370" lon="-16.5272580">
        <ele>1597.9</ele>
        <time>2020-11-11T16:30:07Z</time>
      </trkpt>
      <trkpt lat="28.3301570" lon="-16.5272230">
        <ele>1597.9</ele>
        <time>2020-11-11T16:30:08Z</time>
      </trkpt>
      <trkpt lat="28.3301570" lon="-16.5272230">
        <ele>1597.9</ele>
        <time>2020-11-11T16:30:09Z</time>
      </trkpt>
      <trkpt lat="28.3301780" lon="-16.5271920">
        <ele>1597.9</ele>
        <time>2020-11-11T16:30:10Z</time>
      </trkpt>
      <trkpt lat="28.3301780" lon="-16.5271920">
        <ele>1598.9</ele>
        <time>2020-11-11T16:30:11Z</time>
      </trkpt>
      <trkpt lat="28.3302000" lon="-16.5271530">
        <ele>1598.9</ele>
        <time>2020-11-11T16:30:12Z</time>
      </trkpt>
      <trkpt lat="28.3302080" lon="-16.5271370">
        <ele>1598.9</ele>
        <time>2020-11-11T16:30:13Z</time>
      </trkpt>
      <trkpt lat="28.3302080" lon="-16.5271370">
        <ele>1598.9</ele>
        <time>2020-11-11T16:30:14Z</time>
      </trkpt>
      <trkpt lat="28.3302250" lon="-16.5271070">
        <ele>1598.9</ele>
        <time>2020-11-11T16:30:15Z</time>
      </trkpt>
      <trkpt lat="28.3302250" lon="-16.5271070">
        <ele>1598.9</ele>
        <time>2020-11-11T16:30:16Z</time>
      </trkpt>
      <trkpt lat="28.3302300" lon="-16.5270680">
        <ele>1598.9</ele>
        <time>2020-11-11T16:30:17Z</time>
      </trkpt>
      <trkpt lat="28.3302300" lon="-16.5270680">
        <ele>1598.9</ele>
        <time>2020-11-11T16:30:18Z</time>
      </trkpt>
      <trkpt lat="28.3302380" lon="-16.5270350">
        <ele>1598.9</ele>
        <time>2020-11-11T16:30:19Z</time>
      </trkpt>
      <trkpt lat="28.3302380" lon="-16.5270350">
        <ele>1598.9</ele>
        <time>2020-11-11T16:30:20Z</time>
      </trkpt>
      <trkpt lat="28.3302530" lon="-16.5270050">
        <ele>1598.9</ele>
        <time>2020-11-11T16:30:21Z</time>
      </trkpt>
      <trkpt lat="28.3302530" lon="-16.5270050">
        <ele>1598.9</ele>
        <time>2020-11-11T16:30:22Z</time>
      </trkpt>
      <trkpt lat="28.3302670" lon="-16.5269670">
        <ele>1599.9</ele>
        <time>2020-11-11T16:30:23Z</time>
      </trkpt>
      <trkpt lat="28.3302670" lon="-16.5269670">
        <ele>1599.9</ele>
        <time>2020-11-11T16:30:24Z</time>
      </trkpt>
      <trkpt lat="28.3302820" lon="-16.5269180">
        <ele>1599.9</ele>
        <time>2020-11-11T16:30:25Z</time>
      </trkpt>
      <trkpt lat="28.3302820" lon="-16.5269180">
        <ele>1599.9</ele>
        <time>2020-11-11T16:30:26Z</time>
      </trkpt>
      <trkpt lat="28.3302980" lon="-16.5268880">
        <ele>1599.9</ele>
        <time>2020-11-11T16:30:27Z</time>
      </trkpt>
      <trkpt lat="28.3302980" lon="-16.5268880">
        <ele>1599.9</ele>
        <time>2020-11-11T16:30:28Z</time>
      </trkpt>
      <trkpt lat="28.3303050" lon="-16.5268430">
        <ele>1599.9</ele>
        <time>2020-11-11T16:30:29Z</time>
      </trkpt>
      <trkpt lat="28.3303050" lon="-16.5268430">
        <ele>1599.9</ele>
        <time>2020-11-11T16:30:30Z</time>
      </trkpt>
      <trkpt lat="28.3303120" lon="-16.5267970">
        <ele>1600.9</ele>
        <time>2020-11-11T16:30:31Z</time>
      </trkpt>
      <trkpt lat="28.3303120" lon="-16.5267970">
        <ele>1600.9</ele>
        <time>2020-11-11T16:30:32Z</time>
      </trkpt>
      <trkpt lat="28.3303320" lon="-16.5267470">
        <ele>1600.9</ele>
        <time>2020-11-11T16:30:33Z</time>
      </trkpt>
      <trkpt lat="28.3303320" lon="-16.5267470">
        <ele>1600.9</ele>
        <time>2020-11-11T16:30:34Z</time>
      </trkpt>
      <trkpt lat="28.3303380" lon="-16.5267030">
        <ele>1600.9</ele>
        <time>2020-11-11T16:30:35Z</time>
      </trkpt>
      <trkpt lat="28.3303380" lon="-16.5267030">
        <ele>1600.9</ele>
        <time>2020-11-11T16:30:36Z</time>
      </trkpt>
      <trkpt lat="28.3303470" lon="-16.5266630">
        <ele>1600.9</ele>
        <time>2020-11-11T16:30:37Z</time>
      </trkpt>
      <trkpt lat="28.3303470" lon="-16.5266630">
        <ele>1600.9</ele>
        <time>2020-11-11T16:30:38Z</time>
      </trkpt>
      <trkpt lat="28.3303520" lon="-16.5266200">
        <ele>1600.9</ele>
        <time>2020-11-11T16:30:39Z</time>
      </trkpt>
      <trkpt lat="28.3303520" lon="-16.5266000">
        <ele>1600.9</ele>
        <time>2020-11-11T16:30:40Z</time>
      </trkpt>
      <trkpt lat="28.3303520" lon="-16.5266000">
        <ele>1600.9</ele>
        <time>2020-11-11T16:30:41Z</time>
      </trkpt>
      <trkpt lat="28.3303370" lon="-16.5265580">
        <ele>1601.9</ele>
        <time>2020-11-11T16:30:42Z</time>
      </trkpt>
      <trkpt lat="28.3303370" lon="-16.5265580">
        <ele>1601.9</ele>
        <time>2020-11-11T16:30:43Z</time>
      </trkpt>
      <trkpt lat="28.3303370" lon="-16.5265130">
        <ele>1601.9</ele>
        <time>2020-11-11T16:30:44Z</time>
      </trkpt>
      <trkpt lat="28.3303370" lon="-16.5265130">
        <ele>1602.9</ele>
        <time>2020-11-11T16:30:45Z</time>
      </trkpt>
      <trkpt lat="28.3303350" lon="-16.5264700">
        <ele>1602.9</ele>
        <time>2020-11-11T16:30:46Z</time>
      </trkpt>
      <trkpt lat="28.3303270" lon="-16.5264450">
        <ele>1602.9</ele>
        <time>2020-11-11T16:30:47Z</time>
      </trkpt>
      <trkpt lat="28.3303270" lon="-16.5264450">
        <ele>1602.9</ele>
        <time>2020-11-11T16:30:48Z</time>
      </trkpt>
      <trkpt lat="28.3303050" lon="-16.5264030">
        <ele>1602.9</ele>
        <time>2020-11-11T16:30:49Z</time>
      </trkpt>
      <trkpt lat="28.3303050" lon="-16.5264030">
        <ele>1602.9</ele>
        <time>2020-11-11T16:30:50Z</time>
      </trkpt>
      <trkpt lat="28.3302930" lon="-16.5263670">
        <ele>1603.9</ele>
        <time>2020-11-11T16:30:51Z</time>
      </trkpt>
      <trkpt lat="28.3302930" lon="-16.5263670">
        <ele>1603.9</ele>
        <time>2020-11-11T16:30:52Z</time>
      </trkpt>
      <trkpt lat="28.3302870" lon="-16.5263330">
        <ele>1603.9</ele>
        <time>2020-11-11T16:30:53Z</time>
      </trkpt>
      <trkpt lat="28.3302870" lon="-16.5263330">
        <ele>1603.9</ele>
        <time>2020-11-11T16:30:54Z</time>
      </trkpt>
      <trkpt lat="28.3302700" lon="-16.5262780">
        <ele>1603.9</ele>
        <time>2020-11-11T16:30:55Z</time>
      </trkpt>
      <trkpt lat="28.3302700" lon="-16.5262780">
        <ele>1603.9</ele>
        <time>2020-11-11T16:30:56Z</time>
      </trkpt>
      <trkpt lat="28.3302600" lon="-16.5262320">
        <ele>1603.9</ele>
        <time>2020-11-11T16:30:57Z</time>
      </trkpt>
      <trkpt lat="28.3302630" lon="-16.5262130">
        <ele>1603.9</ele>
        <time>2020-11-11T16:30:58Z</time>
      </trkpt>
      <trkpt lat="28.3302630" lon="-16.5262130">
        <ele>1603.9</ele>
        <time>2020-11-11T16:30:59Z</time>
      </trkpt>
      <trkpt lat="28.3302600" lon="-16.5261750">
        <ele>1603.9</ele>
        <time>2020-11-11T16:31:00Z</time>
      </trkpt>
      <trkpt lat="28.3302650" lon="-16.5261520">
        <ele>1603.9</ele>
        <time>2020-11-11T16:31:01Z</time>
      </trkpt>
      <trkpt lat="28.3302650" lon="-16.5261520">
        <ele>1603.9</ele>
        <time>2020-11-11T16:31:02Z</time>
      </trkpt>
      <trkpt lat="28.3302780" lon="-16.5261200">
        <ele>1603.9</ele>
        <time>2020-11-11T16:31:03Z</time>
      </trkpt>
      <trkpt lat="28.3302780" lon="-16.5261200">
        <ele>1603.9</ele>
        <time>2020-11-11T16:31:04Z</time>
      </trkpt>
      <trkpt lat="28.3302870" lon="-16.5260830">
        <ele>1603.9</ele>
        <time>2020-11-11T16:31:05Z</time>
      </trkpt>
      <trkpt lat="28.3302870" lon="-16.5260830">
        <ele>1604.9</ele>
        <time>2020-11-11T16:31:06Z</time>
      </trkpt>
      <trkpt lat="28.3302970" lon="-16.5260450">
        <ele>1604.9</ele>
        <time>2020-11-11T16:31:07Z</time>
      </trkpt>
      <trkpt lat="28.3303000" lon="-16.5260270">
        <ele>1604.9</ele>
        <time>2020-11-11T16:31:08Z</time>
      </trkpt>
      <trkpt lat="28.3303000" lon="-16.5260270">
        <ele>1604.9</ele>
        <time>2020-11-11T16:31:09Z</time>
      </trkpt>
      <trkpt lat="28.3303030" lon="-16.5259930">
        <ele>1604.9</ele>
        <time>2020-11-11T16:31:10Z</time>
      </trkpt>
      <trkpt lat="28.3303030" lon="-16.5259930">
        <ele>1604.9</ele>
        <time>2020-11-11T16:31:11Z</time>
      </trkpt>
      <trkpt lat="28.3303100" lon="-16.5259600">
        <ele>1605.9</ele>
        <time>2020-11-11T16:31:12Z</time>
      </trkpt>
      <trkpt lat="28.3303170" lon="-16.5259450">
        <ele>1605.9</ele>
        <time>2020-11-11T16:31:13Z</time>
      </trkpt>
      <trkpt lat="28.3303170" lon="-16.5259450">
        <ele>1605.9</ele>
        <time>2020-11-11T16:31:14Z</time>
      </trkpt>
      <trkpt lat="28.3303500" lon="-16.5259000">
        <ele>1605.9</ele>
        <time>2020-11-11T16:31:15Z</time>
      </trkpt>
      <trkpt lat="28.3303500" lon="-16.5259000">
        <ele>1605.9</ele>
        <time>2020-11-11T16:31:16Z</time>
      </trkpt>
      <trkpt lat="28.3303650" lon="-16.5258570">
        <ele>1605.9</ele>
        <time>2020-11-11T16:31:17Z</time>
      </trkpt>
      <trkpt lat="28.3303650" lon="-16.5258570">
        <ele>1605.9</ele>
        <time>2020-11-11T16:31:18Z</time>
      </trkpt>
      <trkpt lat="28.3303780" lon="-16.5258080">
        <ele>1605.9</ele>
        <time>2020-11-11T16:31:19Z</time>
      </trkpt>
      <trkpt lat="28.3303780" lon="-16.5258080">
        <ele>1606.9</ele>
        <time>2020-11-11T16:31:20Z</time>
      </trkpt>
      <trkpt lat="28.3303970" lon="-16.5257680">
        <ele>1606.9</ele>
        <time>2020-11-11T16:31:21Z</time>
      </trkpt>
      <trkpt lat="28.3303970" lon="-16.5257680">
        <ele>1606.9</ele>
        <time>2020-11-11T16:31:22Z</time>
      </trkpt>
      <trkpt lat="28.3304170" lon="-16.5257330">
        <ele>1606.9</ele>
        <time>2020-11-11T16:31:23Z</time>
      </trkpt>
      <trkpt lat="28.3304170" lon="-16.5257330">
        <ele>1606.9</ele>
        <time>2020-11-11T16:31:24Z</time>
      </trkpt>
      <trkpt lat="28.3304330" lon="-16.5257080">
        <ele>1606.9</ele>
        <time>2020-11-11T16:31:25Z</time>
      </trkpt>
      <trkpt lat="28.3304330" lon="-16.5257080">
        <ele>1606.9</ele>
        <time>2020-11-11T16:31:26Z</time>
      </trkpt>
      <trkpt lat="28.3304580" lon="-16.5256630">
        <ele>1607.9</ele>
        <time>2020-11-11T16:31:27Z</time>
      </trkpt>
      <trkpt lat="28.3304580" lon="-16.5256630">
        <ele>1607.9</ele>
        <time>2020-11-11T16:31:28Z</time>
      </trkpt>
      <trkpt lat="28.3304780" lon="-16.5256480">
        <ele>1607.9</ele>
        <time>2020-11-11T16:31:29Z</time>
      </trkpt>
      <trkpt lat="28.3304900" lon="-16.5256450">
        <ele>1607.9</ele>
        <time>2020-11-11T16:31:30Z</time>
      </trkpt>
      <trkpt lat="28.3304900" lon="-16.5256450">
        <ele>1607.9</ele>
        <time>2020-11-11T16:31:31Z</time>
      </trkpt>
      <trkpt lat="28.3305180" lon="-16.5256220">
        <ele>1607.9</ele>
        <time>2020-11-11T16:31:32Z</time>
      </trkpt>
      <trkpt lat="28.3305330" lon="-16.5256070">
        <ele>1607.9</ele>
        <time>2020-11-11T16:31:33Z</time>
      </trkpt>
      <trkpt lat="28.3305330" lon="-16.5256070">
        <ele>1607.9</ele>
        <time>2020-11-11T16:31:34Z</time>
      </trkpt>
      <trkpt lat="28.3305620" lon="-16.5255800">
        <ele>1607.9</ele>
        <time>2020-11-11T16:31:35Z</time>
      </trkpt>
      <trkpt lat="28.3305620" lon="-16.5255800">
        <ele>1607.9</ele>
        <time>2020-11-11T16:31:36Z</time>
      </trkpt>
      <trkpt lat="28.3305900" lon="-16.5255570">
        <ele>1607.9</ele>
        <time>2020-11-11T16:31:37Z</time>
      </trkpt>
      <trkpt lat="28.3305900" lon="-16.5255570">
        <ele>1607.9</ele>
        <time>2020-11-11T16:31:38Z</time>
      </trkpt>
      <trkpt lat="28.3306130" lon="-16.5255350">
        <ele>1609.9</ele>
        <time>2020-11-11T16:31:39Z</time>
      </trkpt>
      <trkpt lat="28.3306130" lon="-16.5255350">
        <ele>1609.9</ele>
        <time>2020-11-11T16:31:40Z</time>
      </trkpt>
      <trkpt lat="28.3306370" lon="-16.5255080">
        <ele>1609.9</ele>
        <time>2020-11-11T16:31:41Z</time>
      </trkpt>
      <trkpt lat="28.3306370" lon="-16.5255080">
        <ele>1609.9</ele>
        <time>2020-11-11T16:31:42Z</time>
      </trkpt>
      <trkpt lat="28.3306570" lon="-16.5254720">
        <ele>1609.9</ele>
        <time>2020-11-11T16:31:43Z</time>
      </trkpt>
      <trkpt lat="28.3306570" lon="-16.5254720">
        <ele>1609.9</ele>
        <time>2020-11-11T16:31:44Z</time>
      </trkpt>
      <trkpt lat="28.3306650" lon="-16.5254400">
        <ele>1609.9</ele>
        <time>2020-11-11T16:31:45Z</time>
      </trkpt>
      <trkpt lat="28.3306650" lon="-16.5254400">
        <ele>1609.9</ele>
        <time>2020-11-11T16:31:46Z</time>
      </trkpt>
      <trkpt lat="28.3306850" lon="-16.5254170">
        <ele>1609.9</ele>
        <time>2020-11-11T16:31:47Z</time>
      </trkpt>
      <trkpt lat="28.3306850" lon="-16.5254170">
        <ele>1609.9</ele>
        <time>2020-11-11T16:31:48Z</time>
      </trkpt>
      <trkpt lat="28.3307020" lon="-16.5253920">
        <ele>1609.9</ele>
        <time>2020-11-11T16:31:49Z</time>
      </trkpt>
      <trkpt lat="28.3307020" lon="-16.5253920">
        <ele>1609.9</ele>
        <time>2020-11-11T16:31:50Z</time>
      </trkpt>
      <trkpt lat="28.3307170" lon="-16.5253620">
        <ele>1611.9</ele>
        <time>2020-11-11T16:31:51Z</time>
      </trkpt>
      <trkpt lat="28.3307170" lon="-16.5253620">
        <ele>1611.9</ele>
        <time>2020-11-11T16:31:52Z</time>
      </trkpt>
      <trkpt lat="28.3307400" lon="-16.5253330">
        <ele>1611.9</ele>
        <time>2020-11-11T16:31:53Z</time>
      </trkpt>
      <trkpt lat="28.3307400" lon="-16.5253330">
        <ele>1611.9</ele>
        <time>2020-11-11T16:31:54Z</time>
      </trkpt>
      <trkpt lat="28.3307470" lon="-16.5253070">
        <ele>1611.9</ele>
        <time>2020-11-11T16:31:55Z</time>
      </trkpt>
      <trkpt lat="28.3307470" lon="-16.5253070">
        <ele>1611.9</ele>
        <time>2020-11-11T16:31:56Z</time>
      </trkpt>
      <trkpt lat="28.3307580" lon="-16.5252500">
        <ele>1611.9</ele>
        <time>2020-11-11T16:31:57Z</time>
      </trkpt>
      <trkpt lat="28.3307650" lon="-16.5252320">
        <ele>1612.9</ele>
        <time>2020-11-11T16:31:58Z</time>
      </trkpt>
      <trkpt lat="28.3307650" lon="-16.5252320">
        <ele>1612.9</ele>
        <time>2020-11-11T16:31:59Z</time>
      </trkpt>
      <trkpt lat="28.3307670" lon="-16.5251750">
        <ele>1612.9</ele>
        <time>2020-11-11T16:32:00Z</time>
      </trkpt>
      <trkpt lat="28.3307670" lon="-16.5251750">
        <ele>1612.9</ele>
        <time>2020-11-11T16:32:01Z</time>
      </trkpt>
      <trkpt lat="28.3307620" lon="-16.5251270">
        <ele>1612.9</ele>
        <time>2020-11-11T16:32:02Z</time>
      </trkpt>
      <trkpt lat="28.3307620" lon="-16.5251270">
        <ele>1612.9</ele>
        <time>2020-11-11T16:32:03Z</time>
      </trkpt>
      <trkpt lat="28.3307620" lon="-16.5250970">
        <ele>1612.9</ele>
        <time>2020-11-11T16:32:04Z</time>
      </trkpt>
      <trkpt lat="28.3307620" lon="-16.5250970">
        <ele>1612.9</ele>
        <time>2020-11-11T16:32:05Z</time>
      </trkpt>
      <trkpt lat="28.3307680" lon="-16.5250600">
        <ele>1612.9</ele>
        <time>2020-11-11T16:32:06Z</time>
      </trkpt>
      <trkpt lat="28.3307620" lon="-16.5250450">
        <ele>1612.9</ele>
        <time>2020-11-11T16:32:07Z</time>
      </trkpt>
      <trkpt lat="28.3307620" lon="-16.5250450">
        <ele>1613.9</ele>
        <time>2020-11-11T16:32:08Z</time>
      </trkpt>
      <trkpt lat="28.3307580" lon="-16.5250100">
        <ele>1613.9</ele>
        <time>2020-11-11T16:32:09Z</time>
      </trkpt>
      <trkpt lat="28.3307550" lon="-16.5249950">
        <ele>1613.9</ele>
        <time>2020-11-11T16:32:10Z</time>
      </trkpt>
      <trkpt lat="28.3307550" lon="-16.5249950">
        <ele>1613.9</ele>
        <time>2020-11-11T16:32:11Z</time>
      </trkpt>
      <trkpt lat="28.3307550" lon="-16.5249750">
        <ele>1613.9</ele>
        <time>2020-11-11T16:32:12Z</time>
      </trkpt>
      <trkpt lat="28.3307500" lon="-16.5249550">
        <ele>1613.9</ele>
        <time>2020-11-11T16:32:13Z</time>
      </trkpt>
      <trkpt lat="28.3307500" lon="-16.5249550">
        <ele>1613.9</ele>
        <time>2020-11-11T16:32:14Z</time>
      </trkpt>
      <trkpt lat="28.3307330" lon="-16.5249080">
        <ele>1613.9</ele>
        <time>2020-11-11T16:32:15Z</time>
      </trkpt>
      <trkpt lat="28.3307270" lon="-16.5248850">
        <ele>1613.9</ele>
        <time>2020-11-11T16:32:16Z</time>
      </trkpt>
      <trkpt lat="28.3307270" lon="-16.5248850">
        <ele>1613.9</ele>
        <time>2020-11-11T16:32:17Z</time>
      </trkpt>
      <trkpt lat="28.3307250" lon="-16.5248550">
        <ele>1613.9</ele>
        <time>2020-11-11T16:32:18Z</time>
      </trkpt>
      <trkpt lat="28.3307250" lon="-16.5248550">
        <ele>1613.9</ele>
        <time>2020-11-11T16:32:19Z</time>
      </trkpt>
      <trkpt lat="28.3307300" lon="-16.5248150">
        <ele>1613.9</ele>
        <time>2020-11-11T16:32:20Z</time>
      </trkpt>
      <trkpt lat="28.3307380" lon="-16.5247980">
        <ele>1613.9</ele>
        <time>2020-11-11T16:32:21Z</time>
      </trkpt>
      <trkpt lat="28.3307380" lon="-16.5247980">
        <ele>1613.9</ele>
        <time>2020-11-11T16:32:22Z</time>
      </trkpt>
      <trkpt lat="28.3307370" lon="-16.5247720">
        <ele>1613.9</ele>
        <time>2020-11-11T16:32:23Z</time>
      </trkpt>
      <trkpt lat="28.3307370" lon="-16.5247720">
        <ele>1614.9</ele>
        <time>2020-11-11T16:32:24Z</time>
      </trkpt>
      <trkpt lat="28.3307470" lon="-16.5247300">
        <ele>1614.9</ele>
        <time>2020-11-11T16:32:25Z</time>
      </trkpt>
      <trkpt lat="28.3307470" lon="-16.5247300">
        <ele>1614.9</ele>
        <time>2020-11-11T16:32:26Z</time>
      </trkpt>
      <trkpt lat="28.3307620" lon="-16.5246920">
        <ele>1614.9</ele>
        <time>2020-11-11T16:32:27Z</time>
      </trkpt>
      <trkpt lat="28.3307480" lon="-16.5246530">
        <ele>1614.9</ele>
        <time>2020-11-11T16:32:28Z</time>
      </trkpt>
      <trkpt lat="28.3307480" lon="-16.5246530">
        <ele>1614.9</ele>
        <time>2020-11-11T16:32:29Z</time>
      </trkpt>
      <trkpt lat="28.3307650" lon="-16.5246030">
        <ele>1614.9</ele>
        <time>2020-11-11T16:32:30Z</time>
      </trkpt>
      <trkpt lat="28.3307630" lon="-16.5245850">
        <ele>1614.9</ele>
        <time>2020-11-11T16:32:31Z</time>
      </trkpt>
      <trkpt lat="28.3307630" lon="-16.5245850">
        <ele>1614.9</ele>
        <time>2020-11-11T16:32:32Z</time>
      </trkpt>
      <trkpt lat="28.3307730" lon="-16.5245500">
        <ele>1614.9</ele>
        <time>2020-11-11T16:32:33Z</time>
      </trkpt>
      <trkpt lat="28.3307730" lon="-16.5245500">
        <ele>1615.9</ele>
        <time>2020-11-11T16:32:34Z</time>
      </trkpt>
      <trkpt lat="28.3307800" lon="-16.5245080">
        <ele>1615.9</ele>
        <time>2020-11-11T16:32:35Z</time>
      </trkpt>
      <trkpt lat="28.3307800" lon="-16.5245080">
        <ele>1615.9</ele>
        <time>2020-11-11T16:32:36Z</time>
      </trkpt>
      <trkpt lat="28.3307850" lon="-16.5244550">
        <ele>1615.9</ele>
        <time>2020-11-11T16:32:37Z</time>
      </trkpt>
      <trkpt lat="28.3307850" lon="-16.5244550">
        <ele>1615.9</ele>
        <time>2020-11-11T16:32:38Z</time>
      </trkpt>
      <trkpt lat="28.3307850" lon="-16.5244000">
        <ele>1615.9</ele>
        <time>2020-11-11T16:32:39Z</time>
      </trkpt>
      <trkpt lat="28.3307850" lon="-16.5244000">
        <ele>1615.9</ele>
        <time>2020-11-11T16:32:40Z</time>
      </trkpt>
      <trkpt lat="28.3307930" lon="-16.5243530">
        <ele>1616.9</ele>
        <time>2020-11-11T16:32:41Z</time>
      </trkpt>
      <trkpt lat="28.3307930" lon="-16.5243530">
        <ele>1616.9</ele>
        <time>2020-11-11T16:32:42Z</time>
      </trkpt>
      <trkpt lat="28.3308080" lon="-16.5243200">
        <ele>1615.9</ele>
        <time>2020-11-11T16:32:43Z</time>
      </trkpt>
      <trkpt lat="28.3308080" lon="-16.5243200">
        <ele>1615.9</ele>
        <time>2020-11-11T16:32:44Z</time>
      </trkpt>
      <trkpt lat="28.3308300" lon="-16.5242930">
        <ele>1617.9</ele>
        <time>2020-11-11T16:32:45Z</time>
      </trkpt>
      <trkpt lat="28.3308300" lon="-16.5242930">
        <ele>1617.9</ele>
        <time>2020-11-11T16:32:46Z</time>
      </trkpt>
      <trkpt lat="28.3308650" lon="-16.5242580">
        <ele>1617.9</ele>
        <time>2020-11-11T16:32:47Z</time>
      </trkpt>
      <trkpt lat="28.3308750" lon="-16.5242430">
        <ele>1617.9</ele>
        <time>2020-11-11T16:32:48Z</time>
      </trkpt>
      <trkpt lat="28.3308800" lon="-16.5242270">
        <ele>1617.9</ele>
        <time>2020-11-11T16:32:49Z</time>
      </trkpt>
      <trkpt lat="28.3308800" lon="-16.5242270">
        <ele>1617.9</ele>
        <time>2020-11-11T16:32:50Z</time>
      </trkpt>
      <trkpt lat="28.3308980" lon="-16.5241930">
        <ele>1617.9</ele>
        <time>2020-11-11T16:32:51Z</time>
      </trkpt>
      <trkpt lat="28.3309120" lon="-16.5241770">
        <ele>1617.9</ele>
        <time>2020-11-11T16:32:52Z</time>
      </trkpt>
      <trkpt lat="28.3309120" lon="-16.5241770">
        <ele>1617.9</ele>
        <time>2020-11-11T16:32:53Z</time>
      </trkpt>
      <trkpt lat="28.3309450" lon="-16.5241420">
        <ele>1617.9</ele>
        <time>2020-11-11T16:32:54Z</time>
      </trkpt>
      <trkpt lat="28.3309600" lon="-16.5241200">
        <ele>1617.9</ele>
        <time>2020-11-11T16:32:55Z</time>
      </trkpt>
      <trkpt lat="28.3309600" lon="-16.5241200">
        <ele>1617.9</ele>
        <time>2020-11-11T16:32:56Z</time>
      </trkpt>
      <trkpt lat="28.3309830" lon="-16.5240770">
        <ele>1617.9</ele>
        <time>2020-11-11T16:32:57Z</time>
      </trkpt>
      <trkpt lat="28.3309830" lon="-16.5240770">
        <ele>1617.9</ele>
        <time>2020-11-11T16:32:58Z</time>
      </trkpt>
      <trkpt lat="28.3309930" lon="-16.5240230">
        <ele>1617.9</ele>
        <time>2020-11-11T16:32:59Z</time>
      </trkpt>
      <trkpt lat="28.3310120" lon="-16.5240050">
        <ele>1617.9</ele>
        <time>2020-11-11T16:33:00Z</time>
      </trkpt>
      <trkpt lat="28.3310120" lon="-16.5240050">
        <ele>1617.9</ele>
        <time>2020-11-11T16:33:01Z</time>
      </trkpt>
      <trkpt lat="28.3310380" lon="-16.5239730">
        <ele>1617.9</ele>
        <time>2020-11-11T16:33:02Z</time>
      </trkpt>
      <trkpt lat="28.3310380" lon="-16.5239730">
        <ele>1617.9</ele>
        <time>2020-11-11T16:33:03Z</time>
      </trkpt>
      <trkpt lat="28.3310670" lon="-16.5239450">
        <ele>1617.9</ele>
        <time>2020-11-11T16:33:04Z</time>
      </trkpt>
      <trkpt lat="28.3310670" lon="-16.5239450">
        <ele>1618.9</ele>
        <time>2020-11-11T16:33:05Z</time>
      </trkpt>
      <trkpt lat="28.3310930" lon="-16.5239200">
        <ele>1618.9</ele>
        <time>2020-11-11T16:33:06Z</time>
      </trkpt>
      <trkpt lat="28.3310930" lon="-16.5239200">
        <ele>1618.9</ele>
        <time>2020-11-11T16:33:07Z</time>
      </trkpt>
      <trkpt lat="28.3311230" lon="-16.5238920">
        <ele>1618.9</ele>
        <time>2020-11-11T16:33:08Z</time>
      </trkpt>
      <trkpt lat="28.3311230" lon="-16.5238920">
        <ele>1618.9</ele>
        <time>2020-11-11T16:33:09Z</time>
      </trkpt>
      <trkpt lat="28.3311430" lon="-16.5238620">
        <ele>1618.9</ele>
        <time>2020-11-11T16:33:10Z</time>
      </trkpt>
      <trkpt lat="28.3311430" lon="-16.5238620">
        <ele>1619.9</ele>
        <time>2020-11-11T16:33:11Z</time>
      </trkpt>
      <trkpt lat="28.3311480" lon="-16.5238280">
        <ele>1619.9</ele>
        <time>2020-11-11T16:33:12Z</time>
      </trkpt>
      <trkpt lat="28.3311530" lon="-16.5238120">
        <ele>1619.9</ele>
        <time>2020-11-11T16:33:13Z</time>
      </trkpt>
      <trkpt lat="28.3311530" lon="-16.5238120">
        <ele>1619.9</ele>
        <time>2020-11-11T16:33:14Z</time>
      </trkpt>
      <trkpt lat="28.3311580" lon="-16.5237670">
        <ele>1619.9</ele>
        <time>2020-11-11T16:33:15Z</time>
      </trkpt>
      <trkpt lat="28.3311580" lon="-16.5237670">
        <ele>1619.9</ele>
        <time>2020-11-11T16:33:16Z</time>
      </trkpt>
      <trkpt lat="28.3311600" lon="-16.5237220">
        <ele>1619.9</ele>
        <time>2020-11-11T16:33:17Z</time>
      </trkpt>
      <trkpt lat="28.3311600" lon="-16.5237220">
        <ele>1619.9</ele>
        <time>2020-11-11T16:33:18Z</time>
      </trkpt>
      <trkpt lat="28.3311500" lon="-16.5236780">
        <ele>1619.9</ele>
        <time>2020-11-11T16:33:19Z</time>
      </trkpt>
      <trkpt lat="28.3311450" lon="-16.5236620">
        <ele>1619.9</ele>
        <time>2020-11-11T16:33:20Z</time>
      </trkpt>
      <trkpt lat="28.3311450" lon="-16.5236620">
        <ele>1619.9</ele>
        <time>2020-11-11T16:33:21Z</time>
      </trkpt>
      <trkpt lat="28.3311300" lon="-16.5236250">
        <ele>1619.9</ele>
        <time>2020-11-11T16:33:22Z</time>
      </trkpt>
      <trkpt lat="28.3311300" lon="-16.5236250">
        <ele>1619.9</ele>
        <time>2020-11-11T16:33:23Z</time>
      </trkpt>
      <trkpt lat="28.3311050" lon="-16.5235950">
        <ele>1619.9</ele>
        <time>2020-11-11T16:33:24Z</time>
      </trkpt>
      <trkpt lat="28.3311050" lon="-16.5235950">
        <ele>1619.9</ele>
        <time>2020-11-11T16:33:25Z</time>
      </trkpt>
      <trkpt lat="28.3310800" lon="-16.5235620">
        <ele>1619.9</ele>
        <time>2020-11-11T16:33:26Z</time>
      </trkpt>
      <trkpt lat="28.3310800" lon="-16.5235620">
        <ele>1619.9</ele>
        <time>2020-11-11T16:33:27Z</time>
      </trkpt>
      <trkpt lat="28.3310750" lon="-16.5235320">
        <ele>1619.9</ele>
        <time>2020-11-11T16:33:28Z</time>
      </trkpt>
      <trkpt lat="28.3310750" lon="-16.5235320">
        <ele>1619.9</ele>
        <time>2020-11-11T16:33:29Z</time>
      </trkpt>
      <trkpt lat="28.3310720" lon="-16.5235020">
        <ele>1619.9</ele>
        <time>2020-11-11T16:33:30Z</time>
      </trkpt>
      <trkpt lat="28.3310720" lon="-16.5235020">
        <ele>1619.9</ele>
        <time>2020-11-11T16:33:31Z</time>
      </trkpt>
      <trkpt lat="28.3310650" lon="-16.5234670">
        <ele>1619.9</ele>
        <time>2020-11-11T16:33:32Z</time>
      </trkpt>
      <trkpt lat="28.3310650" lon="-16.5234670">
        <ele>1619.9</ele>
        <time>2020-11-11T16:33:33Z</time>
      </trkpt>
      <trkpt lat="28.3310570" lon="-16.5234180">
        <ele>1619.9</ele>
        <time>2020-11-11T16:33:34Z</time>
      </trkpt>
      <trkpt lat="28.3310570" lon="-16.5234180">
        <ele>1619.9</ele>
        <time>2020-11-11T16:33:35Z</time>
      </trkpt>
      <trkpt lat="28.3310500" lon="-16.5233700">
        <ele>1619.9</ele>
        <time>2020-11-11T16:33:36Z</time>
      </trkpt>
      <trkpt lat="28.3310500" lon="-16.5233700">
        <ele>1619.9</ele>
        <time>2020-11-11T16:33:37Z</time>
      </trkpt>
      <trkpt lat="28.3310530" lon="-16.5233330">
        <ele>1620.9</ele>
        <time>2020-11-11T16:33:38Z</time>
      </trkpt>
      <trkpt lat="28.3310600" lon="-16.5233100">
        <ele>1620.9</ele>
        <time>2020-11-11T16:33:39Z</time>
      </trkpt>
      <trkpt lat="28.3310600" lon="-16.5233100">
        <ele>1620.9</ele>
        <time>2020-11-11T16:33:40Z</time>
      </trkpt>
      <trkpt lat="28.3310670" lon="-16.5232680">
        <ele>1620.9</ele>
        <time>2020-11-11T16:33:41Z</time>
      </trkpt>
      <trkpt lat="28.3310670" lon="-16.5232680">
        <ele>1620.9</ele>
        <time>2020-11-11T16:33:42Z</time>
      </trkpt>
      <trkpt lat="28.3310730" lon="-16.5232200">
        <ele>1620.9</ele>
        <time>2020-11-11T16:33:43Z</time>
      </trkpt>
      <trkpt lat="28.3310730" lon="-16.5232200">
        <ele>1620.9</ele>
        <time>2020-11-11T16:33:44Z</time>
      </trkpt>
      <trkpt lat="28.3310880" lon="-16.5231750">
        <ele>1620.9</ele>
        <time>2020-11-11T16:33:45Z</time>
      </trkpt>
      <trkpt lat="28.3310880" lon="-16.5231750">
        <ele>1620.9</ele>
        <time>2020-11-11T16:33:46Z</time>
      </trkpt>
      <trkpt lat="28.3311050" lon="-16.5231220">
        <ele>1621.9</ele>
        <time>2020-11-11T16:33:47Z</time>
      </trkpt>
      <trkpt lat="28.3311050" lon="-16.5231220">
        <ele>1621.9</ele>
        <time>2020-11-11T16:33:48Z</time>
      </trkpt>
      <trkpt lat="28.3311320" lon="-16.5230750">
        <ele>1621.9</ele>
        <time>2020-11-11T16:33:49Z</time>
      </trkpt>
      <trkpt lat="28.3311320" lon="-16.5230750">
        <ele>1621.9</ele>
        <time>2020-11-11T16:33:50Z</time>
      </trkpt>
      <trkpt lat="28.3311520" lon="-16.5230330">
        <ele>1621.9</ele>
        <time>2020-11-11T16:33:51Z</time>
      </trkpt>
      <trkpt lat="28.3311670" lon="-16.5230080">
        <ele>1621.9</ele>
        <time>2020-11-11T16:33:52Z</time>
      </trkpt>
      <trkpt lat="28.3311670" lon="-16.5230080">
        <ele>1621.9</ele>
        <time>2020-11-11T16:33:53Z</time>
      </trkpt>
      <trkpt lat="28.3312050" lon="-16.5229530">
        <ele>1621.9</ele>
        <time>2020-11-11T16:33:54Z</time>
      </trkpt>
      <trkpt lat="28.3312230" lon="-16.5229270">
        <ele>1621.9</ele>
        <time>2020-11-11T16:33:55Z</time>
      </trkpt>
      <trkpt lat="28.3312230" lon="-16.5229270">
        <ele>1621.9</ele>
        <time>2020-11-11T16:33:56Z</time>
      </trkpt>
      <trkpt lat="28.3312620" lon="-16.5228770">
        <ele>1621.9</ele>
        <time>2020-11-11T16:33:57Z</time>
      </trkpt>
      <trkpt lat="28.3312620" lon="-16.5228770">
        <ele>1621.9</ele>
        <time>2020-11-11T16:33:58Z</time>
      </trkpt>
      <trkpt lat="28.3313080" lon="-16.5228300">
        <ele>1621.9</ele>
        <time>2020-11-11T16:33:59Z</time>
      </trkpt>
      <trkpt lat="28.3313080" lon="-16.5228300">
        <ele>1620.9</ele>
        <time>2020-11-11T16:34:00Z</time>
      </trkpt>
      <trkpt lat="28.3313300" lon="-16.5227730">
        <ele>1620.9</ele>
        <time>2020-11-11T16:34:01Z</time>
      </trkpt>
      <trkpt lat="28.3313300" lon="-16.5227730">
        <ele>1620.9</ele>
        <time>2020-11-11T16:34:02Z</time>
      </trkpt>
      <trkpt lat="28.3313730" lon="-16.5227300">
        <ele>1620.9</ele>
        <time>2020-11-11T16:34:03Z</time>
      </trkpt>
      <trkpt lat="28.3313730" lon="-16.5227300">
        <ele>1620.9</ele>
        <time>2020-11-11T16:34:04Z</time>
      </trkpt>
      <trkpt lat="28.3314100" lon="-16.5226780">
        <ele>1620.9</ele>
        <time>2020-11-11T16:34:05Z</time>
      </trkpt>
      <trkpt lat="28.3314130" lon="-16.5226480">
        <ele>1620.9</ele>
        <time>2020-11-11T16:34:06Z</time>
      </trkpt>
      <trkpt lat="28.3314130" lon="-16.5226480">
        <ele>1620.9</ele>
        <time>2020-11-11T16:34:07Z</time>
      </trkpt>
      <trkpt lat="28.3314200" lon="-16.5225800">
        <ele>1620.9</ele>
        <time>2020-11-11T16:34:08Z</time>
      </trkpt>
      <trkpt lat="28.3314200" lon="-16.5225800">
        <ele>1620.9</ele>
        <time>2020-11-11T16:34:09Z</time>
      </trkpt>
      <trkpt lat="28.3314270" lon="-16.5225250">
        <ele>1620.9</ele>
        <time>2020-11-11T16:34:10Z</time>
      </trkpt>
      <trkpt lat="28.3314170" lon="-16.5225030">
        <ele>1619.9</ele>
        <time>2020-11-11T16:34:11Z</time>
      </trkpt>
      <trkpt lat="28.3314170" lon="-16.5225030">
        <ele>1619.9</ele>
        <time>2020-11-11T16:34:12Z</time>
      </trkpt>
      <trkpt lat="28.3314170" lon="-16.5224370">
        <ele>1619.9</ele>
        <time>2020-11-11T16:34:13Z</time>
      </trkpt>
      <trkpt lat="28.3314170" lon="-16.5224370">
        <ele>1619.9</ele>
        <time>2020-11-11T16:34:14Z</time>
      </trkpt>
      <trkpt lat="28.3314370" lon="-16.5223730">
        <ele>1619.9</ele>
        <time>2020-11-11T16:34:15Z</time>
      </trkpt>
      <trkpt lat="28.3314370" lon="-16.5223730">
        <ele>1619.9</ele>
        <time>2020-11-11T16:34:16Z</time>
      </trkpt>
      <trkpt lat="28.3314350" lon="-16.5223080">
        <ele>1619.9</ele>
        <time>2020-11-11T16:34:17Z</time>
      </trkpt>
      <trkpt lat="28.3314350" lon="-16.5223080">
        <ele>1619.9</ele>
        <time>2020-11-11T16:34:18Z</time>
      </trkpt>
      <trkpt lat="28.3314450" lon="-16.5222380">
        <ele>1619.9</ele>
        <time>2020-11-11T16:34:19Z</time>
      </trkpt>
      <trkpt lat="28.3314450" lon="-16.5222380">
        <ele>1619.9</ele>
        <time>2020-11-11T16:34:20Z</time>
      </trkpt>
      <trkpt lat="28.3314230" lon="-16.5221770">
        <ele>1619.9</ele>
        <time>2020-11-11T16:34:21Z</time>
      </trkpt>
      <trkpt lat="28.3314130" lon="-16.5221480">
        <ele>1619.9</ele>
        <time>2020-11-11T16:34:22Z</time>
      </trkpt>
      <trkpt lat="28.3314130" lon="-16.5221480">
        <ele>1619.9</ele>
        <time>2020-11-11T16:34:23Z</time>
      </trkpt>
      <trkpt lat="28.3314130" lon="-16.5220720">
        <ele>1619.9</ele>
        <time>2020-11-11T16:34:24Z</time>
      </trkpt>
      <trkpt lat="28.3314130" lon="-16.5220720">
        <ele>1618.9</ele>
        <time>2020-11-11T16:34:25Z</time>
      </trkpt>
      <trkpt lat="28.3314500" lon="-16.5220070">
        <ele>1618.9</ele>
        <time>2020-11-11T16:34:26Z</time>
      </trkpt>
      <trkpt lat="28.3314500" lon="-16.5220070">
        <ele>1618.9</ele>
        <time>2020-11-11T16:34:27Z</time>
      </trkpt>
      <trkpt lat="28.3315230" lon="-16.5219700">
        <ele>1618.9</ele>
        <time>2020-11-11T16:34:28Z</time>
      </trkpt>
      <trkpt lat="28.3315630" lon="-16.5219670">
        <ele>1618.9</ele>
        <time>2020-11-11T16:34:29Z</time>
      </trkpt>
      <trkpt lat="28.3315630" lon="-16.5219670">
        <ele>1618.9</ele>
        <time>2020-11-11T16:34:30Z</time>
      </trkpt>
      <trkpt lat="28.3316420" lon="-16.5219730">
        <ele>1618.9</ele>
        <time>2020-11-11T16:34:31Z</time>
      </trkpt>
      <trkpt lat="28.3316420" lon="-16.5219730">
        <ele>1618.9</ele>
        <time>2020-11-11T16:34:32Z</time>
      </trkpt>
      <trkpt lat="28.3317130" lon="-16.5219720">
        <ele>1618.9</ele>
        <time>2020-11-11T16:34:33Z</time>
      </trkpt>
      <trkpt lat="28.3317130" lon="-16.5219720">
        <ele>1618.9</ele>
        <time>2020-11-11T16:34:34Z</time>
      </trkpt>
      <trkpt lat="28.3317650" lon="-16.5219730">
        <ele>1618.9</ele>
        <time>2020-11-11T16:34:35Z</time>
      </trkpt>
      <trkpt lat="28.3317650" lon="-16.5219730">
        <ele>1618.9</ele>
        <time>2020-11-11T16:34:36Z</time>
      </trkpt>
      <trkpt lat="28.3318070" lon="-16.5219700">
        <ele>1618.9</ele>
        <time>2020-11-11T16:34:37Z</time>
      </trkpt>
      <trkpt lat="28.3318320" lon="-16.5219620">
        <ele>1618.9</ele>
        <time>2020-11-11T16:34:38Z</time>
      </trkpt>
      <trkpt lat="28.3318320" lon="-16.5219620">
        <ele>1618.9</ele>
        <time>2020-11-11T16:34:39Z</time>
      </trkpt>
      <trkpt lat="28.3318800" lon="-16.5219280">
        <ele>1618.9</ele>
        <time>2020-11-11T16:34:40Z</time>
      </trkpt>
      <trkpt lat="28.3318800" lon="-16.5219280">
        <ele>1618.9</ele>
        <time>2020-11-11T16:34:41Z</time>
      </trkpt>
      <trkpt lat="28.3319230" lon="-16.5218850">
        <ele>1618.9</ele>
        <time>2020-11-11T16:34:42Z</time>
      </trkpt>
      <trkpt lat="28.3319400" lon="-16.5218620">
        <ele>1618.9</ele>
        <time>2020-11-11T16:34:43Z</time>
      </trkpt>
      <trkpt lat="28.3319400" lon="-16.5218620">
        <ele>1618.9</ele>
        <time>2020-11-11T16:34:44Z</time>
      </trkpt>
      <trkpt lat="28.3319670" lon="-16.5218170">
        <ele>1618.9</ele>
        <time>2020-11-11T16:34:45Z</time>
      </trkpt>
      <trkpt lat="28.3319670" lon="-16.5218170">
        <ele>1618.9</ele>
        <time>2020-11-11T16:34:46Z</time>
      </trkpt>
      <trkpt lat="28.3319880" lon="-16.5217720">
        <ele>1618.9</ele>
        <time>2020-11-11T16:34:47Z</time>
      </trkpt>
      <trkpt lat="28.3320000" lon="-16.5217520">
        <ele>1618.9</ele>
        <time>2020-11-11T16:34:48Z</time>
      </trkpt>
      <trkpt lat="28.3320020" lon="-16.5217330">
        <ele>1618.9</ele>
        <time>2020-11-11T16:34:49Z</time>
      </trkpt>
      <trkpt lat="28.3320020" lon="-16.5217330">
        <ele>1618.9</ele>
        <time>2020-11-11T16:34:50Z</time>
      </trkpt>
      <trkpt lat="28.3320130" lon="-16.5216870">
        <ele>1618.9</ele>
        <time>2020-11-11T16:34:51Z</time>
      </trkpt>
      <trkpt lat="28.3320130" lon="-16.5216870">
        <ele>1618.9</ele>
        <time>2020-11-11T16:34:52Z</time>
      </trkpt>
      <trkpt lat="28.3320200" lon="-16.5216350">
        <ele>1618.9</ele>
        <time>2020-11-11T16:34:53Z</time>
      </trkpt>
      <trkpt lat="28.3320200" lon="-16.5216350">
        <ele>1618.9</ele>
        <time>2020-11-11T16:34:54Z</time>
      </trkpt>
      <trkpt lat="28.3320380" lon="-16.5215880">
        <ele>1618.9</ele>
        <time>2020-11-11T16:34:55Z</time>
      </trkpt>
      <trkpt lat="28.3320380" lon="-16.5215880">
        <ele>1618.9</ele>
        <time>2020-11-11T16:34:56Z</time>
      </trkpt>
      <trkpt lat="28.3320480" lon="-16.5215320">
        <ele>1619.9</ele>
        <time>2020-11-11T16:34:57Z</time>
      </trkpt>
      <trkpt lat="28.3320480" lon="-16.5215320">
        <ele>1619.9</ele>
        <time>2020-11-11T16:34:58Z</time>
      </trkpt>
      <trkpt lat="28.3320580" lon="-16.5214670">
        <ele>1619.9</ele>
        <time>2020-11-11T16:34:59Z</time>
      </trkpt>
      <trkpt lat="28.3320580" lon="-16.5214670">
        <ele>1619.9</ele>
        <time>2020-11-11T16:35:00Z</time>
      </trkpt>
      <trkpt lat="28.3320770" lon="-16.5214070">
        <ele>1620.9</ele>
        <time>2020-11-11T16:35:01Z</time>
      </trkpt>
      <trkpt lat="28.3320770" lon="-16.5214070">
        <ele>1620.9</ele>
        <time>2020-11-11T16:35:02Z</time>
      </trkpt>
      <trkpt lat="28.3320820" lon="-16.5213230">
        <ele>1620.9</ele>
        <time>2020-11-11T16:35:03Z</time>
      </trkpt>
      <trkpt lat="28.3320820" lon="-16.5213230">
        <ele>1620.9</ele>
        <time>2020-11-11T16:35:04Z</time>
      </trkpt>
      <trkpt lat="28.3320930" lon="-16.5212600">
        <ele>1620.9</ele>
        <time>2020-11-11T16:35:05Z</time>
      </trkpt>
      <trkpt lat="28.3320930" lon="-16.5212600">
        <ele>1620.9</ele>
        <time>2020-11-11T16:35:06Z</time>
      </trkpt>
      <trkpt lat="28.3321030" lon="-16.5212050">
        <ele>1620.9</ele>
        <time>2020-11-11T16:35:07Z</time>
      </trkpt>
      <trkpt lat="28.3321030" lon="-16.5212050">
        <ele>1620.9</ele>
        <time>2020-11-11T16:35:08Z</time>
      </trkpt>
      <trkpt lat="28.3321320" lon="-16.5211520">
        <ele>1620.9</ele>
        <time>2020-11-11T16:35:09Z</time>
      </trkpt>
      <trkpt lat="28.3321530" lon="-16.5211330">
        <ele>1620.9</ele>
        <time>2020-11-11T16:35:10Z</time>
      </trkpt>
      <trkpt lat="28.3321530" lon="-16.5211330">
        <ele>1620.9</ele>
        <time>2020-11-11T16:35:11Z</time>
      </trkpt>
      <trkpt lat="28.3321870" lon="-16.5211020">
        <ele>1620.9</ele>
        <time>2020-11-11T16:35:12Z</time>
      </trkpt>
      <trkpt lat="28.3321870" lon="-16.5211020">
        <ele>1620.9</ele>
        <time>2020-11-11T16:35:13Z</time>
      </trkpt>
      <trkpt lat="28.3322230" lon="-16.5210780">
        <ele>1620.9</ele>
        <time>2020-11-11T16:35:14Z</time>
      </trkpt>
      <trkpt lat="28.3322230" lon="-16.5210780">
        <ele>1620.9</ele>
        <time>2020-11-11T16:35:15Z</time>
      </trkpt>
      <trkpt lat="28.3322550" lon="-16.5210480">
        <ele>1620.9</ele>
        <time>2020-11-11T16:35:16Z</time>
      </trkpt>
      <trkpt lat="28.3322750" lon="-16.5210350">
        <ele>1620.9</ele>
        <time>2020-11-11T16:35:17Z</time>
      </trkpt>
      <trkpt lat="28.3322750" lon="-16.5210350">
        <ele>1620.9</ele>
        <time>2020-11-11T16:35:18Z</time>
      </trkpt>
      <trkpt lat="28.3323100" lon="-16.5210170">
        <ele>1620.9</ele>
        <time>2020-11-11T16:35:19Z</time>
      </trkpt>
      <trkpt lat="28.3323100" lon="-16.5210170">
        <ele>1620.9</ele>
        <time>2020-11-11T16:35:20Z</time>
      </trkpt>
      <trkpt lat="28.3323400" lon="-16.5209950">
        <ele>1620.9</ele>
        <time>2020-11-11T16:35:21Z</time>
      </trkpt>
      <trkpt lat="28.3323400" lon="-16.5209950">
        <ele>1622.9</ele>
        <time>2020-11-11T16:35:22Z</time>
      </trkpt>
      <trkpt lat="28.3323680" lon="-16.5209680">
        <ele>1622.9</ele>
        <time>2020-11-11T16:35:23Z</time>
      </trkpt>
      <trkpt lat="28.3323680" lon="-16.5209680">
        <ele>1622.9</ele>
        <time>2020-11-11T16:35:24Z</time>
      </trkpt>
      <trkpt lat="28.3324030" lon="-16.5209450">
        <ele>1622.9</ele>
        <time>2020-11-11T16:35:25Z</time>
      </trkpt>
      <trkpt lat="28.3324030" lon="-16.5209450">
        <ele>1622.9</ele>
        <time>2020-11-11T16:35:26Z</time>
      </trkpt>
      <trkpt lat="28.3324270" lon="-16.5209230">
        <ele>1622.9</ele>
        <time>2020-11-11T16:35:27Z</time>
      </trkpt>
      <trkpt lat="28.3324270" lon="-16.5209230">
        <ele>1622.9</ele>
        <time>2020-11-11T16:35:28Z</time>
      </trkpt>
      <trkpt lat="28.3324550" lon="-16.5209050">
        <ele>1622.9</ele>
        <time>2020-11-11T16:35:29Z</time>
      </trkpt>
      <trkpt lat="28.3324550" lon="-16.5209050">
        <ele>1622.9</ele>
        <time>2020-11-11T16:35:30Z</time>
      </trkpt>
      <trkpt lat="28.3324750" lon="-16.5208770">
        <ele>1622.9</ele>
        <time>2020-11-11T16:35:31Z</time>
      </trkpt>
      <trkpt lat="28.3324750" lon="-16.5208770">
        <ele>1622.9</ele>
        <time>2020-11-11T16:35:32Z</time>
      </trkpt>
      <trkpt lat="28.3325030" lon="-16.5208520">
        <ele>1622.9</ele>
        <time>2020-11-11T16:35:33Z</time>
      </trkpt>
      <trkpt lat="28.3325030" lon="-16.5208520">
        <ele>1623.9</ele>
        <time>2020-11-11T16:35:34Z</time>
      </trkpt>
      <trkpt lat="28.3325380" lon="-16.5208150">
        <ele>1623.9</ele>
        <time>2020-11-11T16:35:35Z</time>
      </trkpt>
      <trkpt lat="28.3325380" lon="-16.5208150">
        <ele>1623.9</ele>
        <time>2020-11-11T16:35:36Z</time>
      </trkpt>
      <trkpt lat="28.3325520" lon="-16.5208100">
        <ele>1623.9</ele>
        <time>2020-11-11T16:35:37Z</time>
      </trkpt>
      <trkpt lat="28.3325520" lon="-16.5208100">
        <ele>1623.9</ele>
        <time>2020-11-11T16:35:38Z</time>
      </trkpt>
      <trkpt lat="28.3325820" lon="-16.5207950">
        <ele>1623.9</ele>
        <time>2020-11-11T16:35:39Z</time>
      </trkpt>
      <trkpt lat="28.3325820" lon="-16.5207950">
        <ele>1624.9</ele>
        <time>2020-11-11T16:35:40Z</time>
      </trkpt>
      <trkpt lat="28.3326130" lon="-16.5207930">
        <ele>1624.9</ele>
        <time>2020-11-11T16:35:41Z</time>
      </trkpt>
      <trkpt lat="28.3326320" lon="-16.5207950">
        <ele>1624.9</ele>
        <time>2020-11-11T16:35:42Z</time>
      </trkpt>
      <trkpt lat="28.3326500" lon="-16.5207920">
        <ele>1624.9</ele>
        <time>2020-11-11T16:35:43Z</time>
      </trkpt>
      <trkpt lat="28.3326500" lon="-16.5207920">
        <ele>1625.9</ele>
        <time>2020-11-11T16:35:44Z</time>
      </trkpt>
      <trkpt lat="28.3326930" lon="-16.5207780">
        <ele>1625.9</ele>
        <time>2020-11-11T16:35:45Z</time>
      </trkpt>
      <trkpt lat="28.3326930" lon="-16.5207780">
        <ele>1625.9</ele>
        <time>2020-11-11T16:35:46Z</time>
      </trkpt>
      <trkpt lat="28.3327300" lon="-16.5207600">
        <ele>1625.9</ele>
        <time>2020-11-11T16:35:47Z</time>
      </trkpt>
      <trkpt lat="28.3327300" lon="-16.5207600">
        <ele>1625.9</ele>
        <time>2020-11-11T16:35:48Z</time>
      </trkpt>
      <trkpt lat="28.3327770" lon="-16.5207380">
        <ele>1626.9</ele>
        <time>2020-11-11T16:35:49Z</time>
      </trkpt>
      <trkpt lat="28.3327770" lon="-16.5207380">
        <ele>1626.9</ele>
        <time>2020-11-11T16:35:50Z</time>
      </trkpt>
      <trkpt lat="28.3328130" lon="-16.5207180">
        <ele>1626.9</ele>
        <time>2020-11-11T16:35:51Z</time>
      </trkpt>
      <trkpt lat="28.3328130" lon="-16.5207180">
        <ele>1626.9</ele>
        <time>2020-11-11T16:35:52Z</time>
      </trkpt>
      <trkpt lat="28.3328550" lon="-16.5207020">
        <ele>1626.9</ele>
        <time>2020-11-11T16:35:53Z</time>
      </trkpt>
      <trkpt lat="28.3328550" lon="-16.5207020">
        <ele>1626.9</ele>
        <time>2020-11-11T16:35:54Z</time>
      </trkpt>
      <trkpt lat="28.3328970" lon="-16.5206730">
        <ele>1627.9</ele>
        <time>2020-11-11T16:35:55Z</time>
      </trkpt>
      <trkpt lat="28.3328970" lon="-16.5206730">
        <ele>1627.9</ele>
        <time>2020-11-11T16:35:56Z</time>
      </trkpt>
      <trkpt lat="28.3329300" lon="-16.5206400">
        <ele>1627.9</ele>
        <time>2020-11-11T16:35:57Z</time>
      </trkpt>
      <trkpt lat="28.3329450" lon="-16.5206270">
        <ele>1627.9</ele>
        <time>2020-11-11T16:35:58Z</time>
      </trkpt>
      <trkpt lat="28.3329450" lon="-16.5206270">
        <ele>1627.9</ele>
        <time>2020-11-11T16:35:59Z</time>
      </trkpt>
      <trkpt lat="28.3329780" lon="-16.5206080">
        <ele>1627.9</ele>
        <time>2020-11-11T16:36:00Z</time>
      </trkpt>
      <trkpt lat="28.3329780" lon="-16.5206080">
        <ele>1627.9</ele>
        <time>2020-11-11T16:36:01Z</time>
      </trkpt>
      <trkpt lat="28.3330100" lon="-16.5205900">
        <ele>1627.9</ele>
        <time>2020-11-11T16:36:02Z</time>
      </trkpt>
      <trkpt lat="28.3330100" lon="-16.5205900">
        <ele>1628.9</ele>
        <time>2020-11-11T16:36:03Z</time>
      </trkpt>
      <trkpt lat="28.3330450" lon="-16.5205680">
        <ele>1628.9</ele>
        <time>2020-11-11T16:36:04Z</time>
      </trkpt>
      <trkpt lat="28.3330450" lon="-16.5205680">
        <ele>1628.9</ele>
        <time>2020-11-11T16:36:05Z</time>
      </trkpt>
      <trkpt lat="28.3330880" lon="-16.5205480">
        <ele>1628.9</ele>
        <time>2020-11-11T16:36:06Z</time>
      </trkpt>
      <trkpt lat="28.3330880" lon="-16.5205480">
        <ele>1628.9</ele>
        <time>2020-11-11T16:36:07Z</time>
      </trkpt>
      <trkpt lat="28.3331320" lon="-16.5205220">
        <ele>1628.9</ele>
        <time>2020-11-11T16:36:08Z</time>
      </trkpt>
      <trkpt lat="28.3331520" lon="-16.5205180">
        <ele>1628.9</ele>
        <time>2020-11-11T16:36:09Z</time>
      </trkpt>
      <trkpt lat="28.3331520" lon="-16.5205180">
        <ele>1628.9</ele>
        <time>2020-11-11T16:36:10Z</time>
      </trkpt>
      <trkpt lat="28.3331830" lon="-16.5205030">
        <ele>1629.9</ele>
        <time>2020-11-11T16:36:11Z</time>
      </trkpt>
      <trkpt lat="28.3331830" lon="-16.5205030">
        <ele>1629.9</ele>
        <time>2020-11-11T16:36:12Z</time>
      </trkpt>
      <trkpt lat="28.3332250" lon="-16.5204820">
        <ele>1630.9</ele>
        <time>2020-11-11T16:36:13Z</time>
      </trkpt>
      <trkpt lat="28.3332250" lon="-16.5204820">
        <ele>1630.9</ele>
        <time>2020-11-11T16:36:14Z</time>
      </trkpt>
      <trkpt lat="28.3332530" lon="-16.5204680">
        <ele>1630.9</ele>
        <time>2020-11-11T16:36:15Z</time>
      </trkpt>
      <trkpt lat="28.3332530" lon="-16.5204680">
        <ele>1630.9</ele>
        <time>2020-11-11T16:36:16Z</time>
      </trkpt>
      <trkpt lat="28.3332870" lon="-16.5204480">
        <ele>1631.9</ele>
        <time>2020-11-11T16:36:17Z</time>
      </trkpt>
      <trkpt lat="28.3332870" lon="-16.5204480">
        <ele>1631.9</ele>
        <time>2020-11-11T16:36:18Z</time>
      </trkpt>
      <trkpt lat="28.3333270" lon="-16.5204450">
        <ele>1631.9</ele>
        <time>2020-11-11T16:36:19Z</time>
      </trkpt>
      <trkpt lat="28.3333270" lon="-16.5204450">
        <ele>1631.9</ele>
        <time>2020-11-11T16:36:20Z</time>
      </trkpt>
      <trkpt lat="28.3333530" lon="-16.5204370">
        <ele>1631.9</ele>
        <time>2020-11-11T16:36:21Z</time>
      </trkpt>
      <trkpt lat="28.3333530" lon="-16.5204370">
        <ele>1631.9</ele>
        <time>2020-11-11T16:36:22Z</time>
      </trkpt>
      <trkpt lat="28.3333870" lon="-16.5204350">
        <ele>1631.9</ele>
        <time>2020-11-11T16:36:23Z</time>
      </trkpt>
      <trkpt lat="28.3333870" lon="-16.5204350">
        <ele>1632.9</ele>
        <time>2020-11-11T16:36:24Z</time>
      </trkpt>
      <trkpt lat="28.3334230" lon="-16.5204250">
        <ele>1632.9</ele>
        <time>2020-11-11T16:36:25Z</time>
      </trkpt>
      <trkpt lat="28.3334230" lon="-16.5204250">
        <ele>1632.9</ele>
        <time>2020-11-11T16:36:26Z</time>
      </trkpt>
      <trkpt lat="28.3334530" lon="-16.5204050">
        <ele>1632.9</ele>
        <time>2020-11-11T16:36:27Z</time>
      </trkpt>
      <trkpt lat="28.3334680" lon="-16.5203930">
        <ele>1632.9</ele>
        <time>2020-11-11T16:36:28Z</time>
      </trkpt>
      <trkpt lat="28.3334680" lon="-16.5203930">
        <ele>1632.9</ele>
        <time>2020-11-11T16:36:29Z</time>
      </trkpt>
      <trkpt lat="28.3334980" lon="-16.5203620">
        <ele>1633.9</ele>
        <time>2020-11-11T16:36:30Z</time>
      </trkpt>
      <trkpt lat="28.3334980" lon="-16.5203620">
        <ele>1633.9</ele>
        <time>2020-11-11T16:36:31Z</time>
      </trkpt>
      <trkpt lat="28.3335250" lon="-16.5203280">
        <ele>1633.9</ele>
        <time>2020-11-11T16:36:32Z</time>
      </trkpt>
      <trkpt lat="28.3335250" lon="-16.5203280">
        <ele>1633.9</ele>
        <time>2020-11-11T16:36:33Z</time>
      </trkpt>
      <trkpt lat="28.3335500" lon="-16.5202930">
        <ele>1633.9</ele>
        <time>2020-11-11T16:36:34Z</time>
      </trkpt>
      <trkpt lat="28.3335500" lon="-16.5202930">
        <ele>1633.9</ele>
        <time>2020-11-11T16:36:35Z</time>
      </trkpt>
      <trkpt lat="28.3335780" lon="-16.5202580">
        <ele>1631.9</ele>
        <time>2020-11-11T16:36:36Z</time>
      </trkpt>
      <trkpt lat="28.3335920" lon="-16.5202430">
        <ele>1631.9</ele>
        <time>2020-11-11T16:36:37Z</time>
      </trkpt>
      <trkpt lat="28.3335920" lon="-16.5202430">
        <ele>1633.9</ele>
        <time>2020-11-11T16:36:38Z</time>
      </trkpt>
      <trkpt lat="28.3336100" lon="-16.5202020">
        <ele>1633.9</ele>
        <time>2020-11-11T16:36:39Z</time>
      </trkpt>
      <trkpt lat="28.3336100" lon="-16.5202020">
        <ele>1634.9</ele>
        <time>2020-11-11T16:36:40Z</time>
      </trkpt>
      <trkpt lat="28.3336430" lon="-16.5201580">
        <ele>1634.9</ele>
        <time>2020-11-11T16:36:41Z</time>
      </trkpt>
      <trkpt lat="28.3336430" lon="-16.5201580">
        <ele>1634.9</ele>
        <time>2020-11-11T16:36:42Z</time>
      </trkpt>
      <trkpt lat="28.3336830" lon="-16.5201120">
        <ele>1634.9</ele>
        <time>2020-11-11T16:36:43Z</time>
      </trkpt>
      <trkpt lat="28.3336830" lon="-16.5201120">
        <ele>1632.9</ele>
        <time>2020-11-11T16:36:44Z</time>
      </trkpt>
      <trkpt lat="28.3337080" lon="-16.5200670">
        <ele>1632.9</ele>
        <time>2020-11-11T16:36:45Z</time>
      </trkpt>
      <trkpt lat="28.3337080" lon="-16.5200670">
        <ele>1634.9</ele>
        <time>2020-11-11T16:36:46Z</time>
      </trkpt>
      <trkpt lat="28.3337230" lon="-16.5200180">
        <ele>1634.9</ele>
        <time>2020-11-11T16:36:47Z</time>
      </trkpt>
      <trkpt lat="28.3337330" lon="-16.5199930">
        <ele>1635.9</ele>
        <time>2020-11-11T16:36:48Z</time>
      </trkpt>
      <trkpt lat="28.3337430" lon="-16.5199670">
        <ele>1635.9</ele>
        <time>2020-11-11T16:36:49Z</time>
      </trkpt>
      <trkpt lat="28.3337430" lon="-16.5199670">
        <ele>1635.9</ele>
        <time>2020-11-11T16:36:50Z</time>
      </trkpt>
      <trkpt lat="28.3337670" lon="-16.5199280">
        <ele>1635.9</ele>
        <time>2020-11-11T16:36:51Z</time>
      </trkpt>
      <trkpt lat="28.3337670" lon="-16.5199280">
        <ele>1635.9</ele>
        <time>2020-11-11T16:36:52Z</time>
      </trkpt>
      <trkpt lat="28.3337880" lon="-16.5198920">
        <ele>1635.9</ele>
        <time>2020-11-11T16:36:53Z</time>
      </trkpt>
      <trkpt lat="28.3337880" lon="-16.5198920">
        <ele>1636.9</ele>
        <time>2020-11-11T16:36:54Z</time>
      </trkpt>
      <trkpt lat="28.3338020" lon="-16.5198620">
        <ele>1636.9</ele>
        <time>2020-11-11T16:36:55Z</time>
      </trkpt>
      <trkpt lat="28.3338020" lon="-16.5198620">
        <ele>1636.9</ele>
        <time>2020-11-11T16:36:56Z</time>
      </trkpt>
      <trkpt lat="28.3338150" lon="-16.5198320">
        <ele>1636.9</ele>
        <time>2020-11-11T16:36:57Z</time>
      </trkpt>
      <trkpt lat="28.3338150" lon="-16.5198320">
        <ele>1636.9</ele>
        <time>2020-11-11T16:36:58Z</time>
      </trkpt>
      <trkpt lat="28.3338450" lon="-16.5197930">
        <ele>1636.9</ele>
        <time>2020-11-11T16:36:59Z</time>
      </trkpt>
      <trkpt lat="28.3338450" lon="-16.5197930">
        <ele>1637.9</ele>
        <time>2020-11-11T16:37:00Z</time>
      </trkpt>
      <trkpt lat="28.3338650" lon="-16.5197620">
        <ele>1637.9</ele>
        <time>2020-11-11T16:37:01Z</time>
      </trkpt>
      <trkpt lat="28.3338650" lon="-16.5197620">
        <ele>1637.9</ele>
        <time>2020-11-11T16:37:02Z</time>
      </trkpt>
      <trkpt lat="28.3338870" lon="-16.5197300">
        <ele>1637.9</ele>
        <time>2020-11-11T16:37:03Z</time>
      </trkpt>
      <trkpt lat="28.3338970" lon="-16.5197130">
        <ele>1637.9</ele>
        <time>2020-11-11T16:37:04Z</time>
      </trkpt>
      <trkpt lat="28.3338970" lon="-16.5197130">
        <ele>1637.9</ele>
        <time>2020-11-11T16:37:05Z</time>
      </trkpt>
      <trkpt lat="28.3339120" lon="-16.5196830">
        <ele>1637.9</ele>
        <time>2020-11-11T16:37:06Z</time>
      </trkpt>
      <trkpt lat="28.3339120" lon="-16.5196830">
        <ele>1637.9</ele>
        <time>2020-11-11T16:37:07Z</time>
      </trkpt>
      <trkpt lat="28.3339220" lon="-16.5196450">
        <ele>1638.9</ele>
        <time>2020-11-11T16:37:08Z</time>
      </trkpt>
      <trkpt lat="28.3339220" lon="-16.5196450">
        <ele>1638.9</ele>
        <time>2020-11-11T16:37:09Z</time>
      </trkpt>
      <trkpt lat="28.3339270" lon="-16.5196070">
        <ele>1638.9</ele>
        <time>2020-11-11T16:37:10Z</time>
      </trkpt>
      <trkpt lat="28.3339270" lon="-16.5196070">
        <ele>1638.9</ele>
        <time>2020-11-11T16:37:11Z</time>
      </trkpt>
      <trkpt lat="28.3339370" lon="-16.5195650">
        <ele>1638.9</ele>
        <time>2020-11-11T16:37:12Z</time>
      </trkpt>
      <trkpt lat="28.3339420" lon="-16.5195450">
        <ele>1638.9</ele>
        <time>2020-11-11T16:37:13Z</time>
      </trkpt>
      <trkpt lat="28.3339420" lon="-16.5195450">
        <ele>1639.9</ele>
        <time>2020-11-11T16:37:14Z</time>
      </trkpt>
      <trkpt lat="28.3339520" lon="-16.5195020">
        <ele>1639.9</ele>
        <time>2020-11-11T16:37:15Z</time>
      </trkpt>
      <trkpt lat="28.3339520" lon="-16.5195020">
        <ele>1639.9</ele>
        <time>2020-11-11T16:37:16Z</time>
      </trkpt>
      <trkpt lat="28.3339620" lon="-16.5194580">
        <ele>1639.9</ele>
        <time>2020-11-11T16:37:17Z</time>
      </trkpt>
      <trkpt lat="28.3339750" lon="-16.5194400">
        <ele>1639.9</ele>
        <time>2020-11-11T16:37:18Z</time>
      </trkpt>
      <trkpt lat="28.3339750" lon="-16.5194400">
        <ele>1639.9</ele>
        <time>2020-11-11T16:37:19Z</time>
      </trkpt>
      <trkpt lat="28.3340020" lon="-16.5194000">
        <ele>1639.9</ele>
        <time>2020-11-11T16:37:20Z</time>
      </trkpt>
      <trkpt lat="28.3340020" lon="-16.5194000">
        <ele>1639.9</ele>
        <time>2020-11-11T16:37:21Z</time>
      </trkpt>
      <trkpt lat="28.3340220" lon="-16.5193570">
        <ele>1639.9</ele>
        <time>2020-11-11T16:37:22Z</time>
      </trkpt>
      <trkpt lat="28.3340220" lon="-16.5193570">
        <ele>1639.9</ele>
        <time>2020-11-11T16:37:23Z</time>
      </trkpt>
      <trkpt lat="28.3340370" lon="-16.5193220">
        <ele>1639.9</ele>
        <time>2020-11-11T16:37:24Z</time>
      </trkpt>
      <trkpt lat="28.3340520" lon="-16.5193030">
        <ele>1639.9</ele>
        <time>2020-11-11T16:37:25Z</time>
      </trkpt>
      <trkpt lat="28.3340520" lon="-16.5193030">
        <ele>1639.9</ele>
        <time>2020-11-11T16:37:26Z</time>
      </trkpt>
      <trkpt lat="28.3340750" lon="-16.5192750">
        <ele>1639.9</ele>
        <time>2020-11-11T16:37:27Z</time>
      </trkpt>
      <trkpt lat="28.3340750" lon="-16.5192750">
        <ele>1639.9</ele>
        <time>2020-11-11T16:37:28Z</time>
      </trkpt>
      <trkpt lat="28.3340970" lon="-16.5192430">
        <ele>1639.9</ele>
        <time>2020-11-11T16:37:29Z</time>
      </trkpt>
      <trkpt lat="28.3340970" lon="-16.5192430">
        <ele>1639.9</ele>
        <time>2020-11-11T16:37:30Z</time>
      </trkpt>
      <trkpt lat="28.3341220" lon="-16.5192130">
        <ele>1639.9</ele>
        <time>2020-11-11T16:37:31Z</time>
      </trkpt>
      <trkpt lat="28.3341220" lon="-16.5192130">
        <ele>1640.9</ele>
        <time>2020-11-11T16:37:32Z</time>
      </trkpt>
      <trkpt lat="28.3341400" lon="-16.5191820">
        <ele>1640.9</ele>
        <time>2020-11-11T16:37:33Z</time>
      </trkpt>
      <trkpt lat="28.3341400" lon="-16.5191820">
        <ele>1640.9</ele>
        <time>2020-11-11T16:37:34Z</time>
      </trkpt>
      <trkpt lat="28.3341550" lon="-16.5191450">
        <ele>1640.9</ele>
        <time>2020-11-11T16:37:35Z</time>
      </trkpt>
      <trkpt lat="28.3341600" lon="-16.5191250">
        <ele>1640.9</ele>
        <time>2020-11-11T16:37:36Z</time>
      </trkpt>
      <trkpt lat="28.3341680" lon="-16.5191080">
        <ele>1640.9</ele>
        <time>2020-11-11T16:37:37Z</time>
      </trkpt>
      <trkpt lat="28.3341680" lon="-16.5191080">
        <ele>1641.9</ele>
        <time>2020-11-11T16:37:38Z</time>
      </trkpt>
      <trkpt lat="28.3341770" lon="-16.5190630">
        <ele>1641.9</ele>
        <time>2020-11-11T16:37:39Z</time>
      </trkpt>
      <trkpt lat="28.3341770" lon="-16.5190630">
        <ele>1641.9</ele>
        <time>2020-11-11T16:37:40Z</time>
      </trkpt>
      <trkpt lat="28.3341900" lon="-16.5190300">
        <ele>1641.9</ele>
        <time>2020-11-11T16:37:41Z</time>
      </trkpt>
      <trkpt lat="28.3341900" lon="-16.5190300">
        <ele>1641.9</ele>
        <time>2020-11-11T16:37:42Z</time>
      </trkpt>
      <trkpt lat="28.3342030" lon="-16.5190020">
        <ele>1641.9</ele>
        <time>2020-11-11T16:37:43Z</time>
      </trkpt>
      <trkpt lat="28.3342030" lon="-16.5190020">
        <ele>1641.9</ele>
        <time>2020-11-11T16:37:44Z</time>
      </trkpt>
      <trkpt lat="28.3342230" lon="-16.5189700">
        <ele>1641.9</ele>
        <time>2020-11-11T16:37:45Z</time>
      </trkpt>
      <trkpt lat="28.3342230" lon="-16.5189700">
        <ele>1641.9</ele>
        <time>2020-11-11T16:37:46Z</time>
      </trkpt>
      <trkpt lat="28.3342470" lon="-16.5189370">
        <ele>1642.9</ele>
        <time>2020-11-11T16:37:47Z</time>
      </trkpt>
      <trkpt lat="28.3342470" lon="-16.5189370">
        <ele>1642.9</ele>
        <time>2020-11-11T16:37:48Z</time>
      </trkpt>
      <trkpt lat="28.3342680" lon="-16.5189020">
        <ele>1642.9</ele>
        <time>2020-11-11T16:37:49Z</time>
      </trkpt>
      <trkpt lat="28.3342680" lon="-16.5189020">
        <ele>1642.9</ele>
        <time>2020-11-11T16:37:50Z</time>
      </trkpt>
      <trkpt lat="28.3342920" lon="-16.5188580">
        <ele>1642.9</ele>
        <time>2020-11-11T16:37:51Z</time>
      </trkpt>
      <trkpt lat="28.3343130" lon="-16.5188400">
        <ele>1642.9</ele>
        <time>2020-11-11T16:37:52Z</time>
      </trkpt>
      <trkpt lat="28.3343130" lon="-16.5188400">
        <ele>1643.9</ele>
        <time>2020-11-11T16:37:53Z</time>
      </trkpt>
      <trkpt lat="28.3343470" lon="-16.5187970">
        <ele>1643.9</ele>
        <time>2020-11-11T16:37:54Z</time>
      </trkpt>
      <trkpt lat="28.3343470" lon="-16.5187970">
        <ele>1643.9</ele>
        <time>2020-11-11T16:37:55Z</time>
      </trkpt>
      <trkpt lat="28.3343650" lon="-16.5187570">
        <ele>1643.9</ele>
        <time>2020-11-11T16:37:56Z</time>
      </trkpt>
      <trkpt lat="28.3343750" lon="-16.5187350">
        <ele>1643.9</ele>
        <time>2020-11-11T16:37:57Z</time>
      </trkpt>
      <trkpt lat="28.3343750" lon="-16.5187350">
        <ele>1643.9</ele>
        <time>2020-11-11T16:37:58Z</time>
      </trkpt>
      <trkpt lat="28.3343970" lon="-16.5186930">
        <ele>1643.9</ele>
        <time>2020-11-11T16:37:59Z</time>
      </trkpt>
      <trkpt lat="28.3343970" lon="-16.5186930">
        <ele>1643.9</ele>
        <time>2020-11-11T16:38:00Z</time>
      </trkpt>
      <trkpt lat="28.3344120" lon="-16.5186470">
        <ele>1643.9</ele>
        <time>2020-11-11T16:38:01Z</time>
      </trkpt>
      <trkpt lat="28.3344120" lon="-16.5186470">
        <ele>1643.9</ele>
        <time>2020-11-11T16:38:02Z</time>
      </trkpt>
      <trkpt lat="28.3344150" lon="-16.5186020">
        <ele>1643.9</ele>
        <time>2020-11-11T16:38:03Z</time>
      </trkpt>
      <trkpt lat="28.3344130" lon="-16.5185800">
        <ele>1643.9</ele>
        <time>2020-11-11T16:38:04Z</time>
      </trkpt>
      <trkpt lat="28.3344130" lon="-16.5185800">
        <ele>1643.9</ele>
        <time>2020-11-11T16:38:05Z</time>
      </trkpt>
      <trkpt lat="28.3344080" lon="-16.5185280">
        <ele>1643.9</ele>
        <time>2020-11-11T16:38:06Z</time>
      </trkpt>
      <trkpt lat="28.3344080" lon="-16.5185280">
        <ele>1643.9</ele>
        <time>2020-11-11T16:38:07Z</time>
      </trkpt>
      <trkpt lat="28.3344200" lon="-16.5184850">
        <ele>1643.9</ele>
        <time>2020-11-11T16:38:08Z</time>
      </trkpt>
      <trkpt lat="28.3344200" lon="-16.5184850">
        <ele>1643.9</ele>
        <time>2020-11-11T16:38:09Z</time>
      </trkpt>
      <trkpt lat="28.3344150" lon="-16.5184150">
        <ele>1643.9</ele>
        <time>2020-11-11T16:38:10Z</time>
      </trkpt>
      <trkpt lat="28.3344150" lon="-16.5184150">
        <ele>1643.9</ele>
        <time>2020-11-11T16:38:11Z</time>
      </trkpt>
      <trkpt lat="28.3344050" lon="-16.5183630">
        <ele>1644.9</ele>
        <time>2020-11-11T16:38:12Z</time>
      </trkpt>
      <trkpt lat="28.3344000" lon="-16.5183420">
        <ele>1644.9</ele>
        <time>2020-11-11T16:38:13Z</time>
      </trkpt>
      <trkpt lat="28.3344000" lon="-16.5183420">
        <ele>1644.9</ele>
        <time>2020-11-11T16:38:14Z</time>
      </trkpt>
      <trkpt lat="28.3343930" lon="-16.5183070">
        <ele>1644.9</ele>
        <time>2020-11-11T16:38:15Z</time>
      </trkpt>
      <trkpt lat="28.3343930" lon="-16.5183070">
        <ele>1644.9</ele>
        <time>2020-11-11T16:38:16Z</time>
      </trkpt>
      <trkpt lat="28.3343870" lon="-16.5182680">
        <ele>1644.9</ele>
        <time>2020-11-11T16:38:17Z</time>
      </trkpt>
      <trkpt lat="28.3343870" lon="-16.5182680">
        <ele>1644.9</ele>
        <time>2020-11-11T16:38:18Z</time>
      </trkpt>
      <trkpt lat="28.3343770" lon="-16.5182300">
        <ele>1645.9</ele>
        <time>2020-11-11T16:38:19Z</time>
      </trkpt>
      <trkpt lat="28.3343770" lon="-16.5182300">
        <ele>1645.9</ele>
        <time>2020-11-11T16:38:20Z</time>
      </trkpt>
      <trkpt lat="28.3343700" lon="-16.5181950">
        <ele>1645.9</ele>
        <time>2020-11-11T16:38:21Z</time>
      </trkpt>
      <trkpt lat="28.3343620" lon="-16.5181770">
        <ele>1645.9</ele>
        <time>2020-11-11T16:38:22Z</time>
      </trkpt>
      <trkpt lat="28.3343620" lon="-16.5181770">
        <ele>1645.9</ele>
        <time>2020-11-11T16:38:23Z</time>
      </trkpt>
      <trkpt lat="28.3343430" lon="-16.5181400">
        <ele>1645.9</ele>
        <time>2020-11-11T16:38:24Z</time>
      </trkpt>
      <trkpt lat="28.3343430" lon="-16.5181400">
        <ele>1646.9</ele>
        <time>2020-11-11T16:38:25Z</time>
      </trkpt>
      <trkpt lat="28.3343200" lon="-16.5180970">
        <ele>1646.9</ele>
        <time>2020-11-11T16:38:26Z</time>
      </trkpt>
      <trkpt lat="28.3343200" lon="-16.5180970">
        <ele>1646.9</ele>
        <time>2020-11-11T16:38:27Z</time>
      </trkpt>
      <trkpt lat="28.3343100" lon="-16.5180530">
        <ele>1646.9</ele>
        <time>2020-11-11T16:38:28Z</time>
      </trkpt>
      <trkpt lat="28.3343070" lon="-16.5180320">
        <ele>1646.9</ele>
        <time>2020-11-11T16:38:29Z</time>
      </trkpt>
      <trkpt lat="28.3343070" lon="-16.5180320">
        <ele>1646.9</ele>
        <time>2020-11-11T16:38:30Z</time>
      </trkpt>
      <trkpt lat="28.3343120" lon="-16.5179870">
        <ele>1647.9</ele>
        <time>2020-11-11T16:38:31Z</time>
      </trkpt>
      <trkpt lat="28.3343120" lon="-16.5179870">
        <ele>1647.9</ele>
        <time>2020-11-11T16:38:32Z</time>
      </trkpt>
      <trkpt lat="28.3343420" lon="-16.5179450">
        <ele>1647.9</ele>
        <time>2020-11-11T16:38:33Z</time>
      </trkpt>
      <trkpt lat="28.3343420" lon="-16.5179450">
        <ele>1647.9</ele>
        <time>2020-11-11T16:38:34Z</time>
      </trkpt>
      <trkpt lat="28.3343670" lon="-16.5179130">
        <ele>1647.9</ele>
        <time>2020-11-11T16:38:35Z</time>
      </trkpt>
      <trkpt lat="28.3343800" lon="-16.5178950">
        <ele>1647.9</ele>
        <time>2020-11-11T16:38:36Z</time>
      </trkpt>
      <trkpt lat="28.3343800" lon="-16.5178950">
        <ele>1647.9</ele>
        <time>2020-11-11T16:38:37Z</time>
      </trkpt>
      <trkpt lat="28.3344030" lon="-16.5178720">
        <ele>1647.9</ele>
        <time>2020-11-11T16:38:38Z</time>
      </trkpt>
      <trkpt lat="28.3344030" lon="-16.5178720">
        <ele>1647.9</ele>
        <time>2020-11-11T16:38:39Z</time>
      </trkpt>
      <trkpt lat="28.3344200" lon="-16.5178530">
        <ele>1647.9</ele>
        <time>2020-11-11T16:38:40Z</time>
      </trkpt>
      <trkpt lat="28.3344200" lon="-16.5178530">
        <ele>1647.9</ele>
        <time>2020-11-11T16:38:41Z</time>
      </trkpt>
      <trkpt lat="28.3344280" lon="-16.5178330">
        <ele>1647.9</ele>
        <time>2020-11-11T16:38:42Z</time>
      </trkpt>
      <trkpt lat="28.3344330" lon="-16.5178270">
        <ele>1647.9</ele>
        <time>2020-11-11T16:38:43Z</time>
      </trkpt>
      <trkpt lat="28.3344330" lon="-16.5178270">
        <ele>1647.9</ele>
        <time>2020-11-11T16:38:44Z</time>
      </trkpt>
      <trkpt lat="28.3344570" lon="-16.5178050">
        <ele>1647.9</ele>
        <time>2020-11-11T16:38:45Z</time>
      </trkpt>
      <trkpt lat="28.3344570" lon="-16.5178050">
        <ele>1647.9</ele>
        <time>2020-11-11T16:38:46Z</time>
      </trkpt>
      <trkpt lat="28.3344830" lon="-16.5177870">
        <ele>1647.9</ele>
        <time>2020-11-11T16:38:47Z</time>
      </trkpt>
      <trkpt lat="28.3344830" lon="-16.5177870">
        <ele>1648.9</ele>
        <time>2020-11-11T16:38:48Z</time>
      </trkpt>
      <trkpt lat="28.3345130" lon="-16.5177680">
        <ele>1648.9</ele>
        <time>2020-11-11T16:38:49Z</time>
      </trkpt>
      <trkpt lat="28.3345130" lon="-16.5177680">
        <ele>1648.9</ele>
        <time>2020-11-11T16:38:50Z</time>
      </trkpt>
      <trkpt lat="28.3345470" lon="-16.5177380">
        <ele>1648.9</ele>
        <time>2020-11-11T16:38:51Z</time>
      </trkpt>
      <trkpt lat="28.3345470" lon="-16.5177380">
        <ele>1648.9</ele>
        <time>2020-11-11T16:38:52Z</time>
      </trkpt>
      <trkpt lat="28.3345850" lon="-16.5177070">
        <ele>1648.9</ele>
        <time>2020-11-11T16:38:53Z</time>
      </trkpt>
      <trkpt lat="28.3346070" lon="-16.5176850">
        <ele>1649.9</ele>
        <time>2020-11-11T16:38:54Z</time>
      </trkpt>
      <trkpt lat="28.3346070" lon="-16.5176850">
        <ele>1649.9</ele>
        <time>2020-11-11T16:38:55Z</time>
      </trkpt>
      <trkpt lat="28.3346370" lon="-16.5176530">
        <ele>1649.9</ele>
        <time>2020-11-11T16:38:56Z</time>
      </trkpt>
      <trkpt lat="28.3346370" lon="-16.5176530">
        <ele>1649.9</ele>
        <time>2020-11-11T16:38:57Z</time>
      </trkpt>
      <trkpt lat="28.3346630" lon="-16.5176150">
        <ele>1649.9</ele>
        <time>2020-11-11T16:38:58Z</time>
      </trkpt>
      <trkpt lat="28.3346630" lon="-16.5176150">
        <ele>1649.9</ele>
        <time>2020-11-11T16:38:59Z</time>
      </trkpt>
      <trkpt lat="28.3346820" lon="-16.5175750">
        <ele>1649.9</ele>
        <time>2020-11-11T16:39:00Z</time>
      </trkpt>
      <trkpt lat="28.3346970" lon="-16.5175580">
        <ele>1649.9</ele>
        <time>2020-11-11T16:39:01Z</time>
      </trkpt>
      <trkpt lat="28.3346970" lon="-16.5175580">
        <ele>1650.9</ele>
        <time>2020-11-11T16:39:02Z</time>
      </trkpt>
      <trkpt lat="28.3347170" lon="-16.5175230">
        <ele>1650.9</ele>
        <time>2020-11-11T16:39:03Z</time>
      </trkpt>
      <trkpt lat="28.3347170" lon="-16.5175230">
        <ele>1650.9</ele>
        <time>2020-11-11T16:39:04Z</time>
      </trkpt>
      <trkpt lat="28.3347380" lon="-16.5174900">
        <ele>1650.9</ele>
        <time>2020-11-11T16:39:05Z</time>
      </trkpt>
      <trkpt lat="28.3347380" lon="-16.5174900">
        <ele>1650.9</ele>
        <time>2020-11-11T16:39:06Z</time>
      </trkpt>
      <trkpt lat="28.3347550" lon="-16.5174550">
        <ele>1650.9</ele>
        <time>2020-11-11T16:39:07Z</time>
      </trkpt>
      <trkpt lat="28.3347780" lon="-16.5174330">
        <ele>1650.9</ele>
        <time>2020-11-11T16:39:08Z</time>
      </trkpt>
      <trkpt lat="28.3347780" lon="-16.5174330">
        <ele>1650.9</ele>
        <time>2020-11-11T16:39:09Z</time>
      </trkpt>
      <trkpt lat="28.3348150" lon="-16.5173930">
        <ele>1650.9</ele>
        <time>2020-11-11T16:39:10Z</time>
      </trkpt>
      <trkpt lat="28.3348150" lon="-16.5173930">
        <ele>1650.9</ele>
        <time>2020-11-11T16:39:11Z</time>
      </trkpt>
      <trkpt lat="28.3348600" lon="-16.5173430">
        <ele>1651.9</ele>
        <time>2020-11-11T16:39:12Z</time>
      </trkpt>
      <trkpt lat="28.3348600" lon="-16.5173430">
        <ele>1651.9</ele>
        <time>2020-11-11T16:39:13Z</time>
      </trkpt>
      <trkpt lat="28.3349000" lon="-16.5173030">
        <ele>1651.9</ele>
        <time>2020-11-11T16:39:14Z</time>
      </trkpt>
      <trkpt lat="28.3349000" lon="-16.5173030">
        <ele>1651.9</ele>
        <time>2020-11-11T16:39:15Z</time>
      </trkpt>
      <trkpt lat="28.3349320" lon="-16.5172700">
        <ele>1651.9</ele>
        <time>2020-11-11T16:39:16Z</time>
      </trkpt>
      <trkpt lat="28.3349320" lon="-16.5172700">
        <ele>1651.9</ele>
        <time>2020-11-11T16:39:17Z</time>
      </trkpt>
      <trkpt lat="28.3349650" lon="-16.5172280">
        <ele>1651.9</ele>
        <time>2020-11-11T16:39:18Z</time>
      </trkpt>
      <trkpt lat="28.3349850" lon="-16.5172100">
        <ele>1651.9</ele>
        <time>2020-11-11T16:39:19Z</time>
      </trkpt>
      <trkpt lat="28.3349850" lon="-16.5172100">
        <ele>1651.9</ele>
        <time>2020-11-11T16:39:20Z</time>
      </trkpt>
      <trkpt lat="28.3350080" lon="-16.5171630">
        <ele>1651.9</ele>
        <time>2020-11-11T16:39:21Z</time>
      </trkpt>
      <trkpt lat="28.3350080" lon="-16.5171630">
        <ele>1651.9</ele>
        <time>2020-11-11T16:39:22Z</time>
      </trkpt>
      <trkpt lat="28.3350080" lon="-16.5171050">
        <ele>1651.9</ele>
        <time>2020-11-11T16:39:23Z</time>
      </trkpt>
      <trkpt lat="28.3350080" lon="-16.5171050">
        <ele>1651.9</ele>
        <time>2020-11-11T16:39:24Z</time>
      </trkpt>
      <trkpt lat="28.3349870" lon="-16.5170500">
        <ele>1652.9</ele>
        <time>2020-11-11T16:39:25Z</time>
      </trkpt>
      <trkpt lat="28.3349870" lon="-16.5170500">
        <ele>1652.9</ele>
        <time>2020-11-11T16:39:26Z</time>
      </trkpt>
      <trkpt lat="28.3349600" lon="-16.5170030">
        <ele>1652.9</ele>
        <time>2020-11-11T16:39:27Z</time>
      </trkpt>
      <trkpt lat="28.3349520" lon="-16.5169870">
        <ele>1652.9</ele>
        <time>2020-11-11T16:39:28Z</time>
      </trkpt>
      <trkpt lat="28.3349520" lon="-16.5169870">
        <ele>1652.9</ele>
        <time>2020-11-11T16:39:29Z</time>
      </trkpt>
      <trkpt lat="28.3349350" lon="-16.5169480">
        <ele>1652.9</ele>
        <time>2020-11-11T16:39:30Z</time>
      </trkpt>
      <trkpt lat="28.3349350" lon="-16.5169480">
        <ele>1652.9</ele>
        <time>2020-11-11T16:39:31Z</time>
      </trkpt>
      <trkpt lat="28.3349170" lon="-16.5169070">
        <ele>1652.9</ele>
        <time>2020-11-11T16:39:32Z</time>
      </trkpt>
      <trkpt lat="28.3349170" lon="-16.5169070">
        <ele>1652.9</ele>
        <time>2020-11-11T16:39:33Z</time>
      </trkpt>
      <trkpt lat="28.3348920" lon="-16.5168630">
        <ele>1652.9</ele>
        <time>2020-11-11T16:39:34Z</time>
      </trkpt>
      <trkpt lat="28.3348920" lon="-16.5168630">
        <ele>1652.9</ele>
        <time>2020-11-11T16:39:35Z</time>
      </trkpt>
      <trkpt lat="28.3348620" lon="-16.5168150">
        <ele>1652.9</ele>
        <time>2020-11-11T16:39:36Z</time>
      </trkpt>
      <trkpt lat="28.3348450" lon="-16.5167880">
        <ele>1652.9</ele>
        <time>2020-11-11T16:39:37Z</time>
      </trkpt>
      <trkpt lat="28.3348450" lon="-16.5167880">
        <ele>1653.9</ele>
        <time>2020-11-11T16:39:38Z</time>
      </trkpt>
      <trkpt lat="28.3348180" lon="-16.5167430">
        <ele>1653.9</ele>
        <time>2020-11-11T16:39:39Z</time>
      </trkpt>
      <trkpt lat="28.3348180" lon="-16.5167430">
        <ele>1653.9</ele>
        <time>2020-11-11T16:39:40Z</time>
      </trkpt>
      <trkpt lat="28.3348050" lon="-16.5166950">
        <ele>1653.9</ele>
        <time>2020-11-11T16:39:41Z</time>
      </trkpt>
      <trkpt lat="28.3348050" lon="-16.5166950">
        <ele>1653.9</ele>
        <time>2020-11-11T16:39:42Z</time>
      </trkpt>
      <trkpt lat="28.3347580" lon="-16.5166450">
        <ele>1653.9</ele>
        <time>2020-11-11T16:39:43Z</time>
      </trkpt>
      <trkpt lat="28.3347580" lon="-16.5166450">
        <ele>1653.9</ele>
        <time>2020-11-11T16:39:44Z</time>
      </trkpt>
      <trkpt lat="28.3347270" lon="-16.5165930">
        <ele>1653.9</ele>
        <time>2020-11-11T16:39:45Z</time>
      </trkpt>
      <trkpt lat="28.3347270" lon="-16.5165930">
        <ele>1654.9</ele>
        <time>2020-11-11T16:39:46Z</time>
      </trkpt>
      <trkpt lat="28.3346980" lon="-16.5165470">
        <ele>1654.9</ele>
        <time>2020-11-11T16:39:47Z</time>
      </trkpt>
      <trkpt lat="28.3346980" lon="-16.5165470">
        <ele>1654.9</ele>
        <time>2020-11-11T16:39:48Z</time>
      </trkpt>
      <trkpt lat="28.3346850" lon="-16.5165000">
        <ele>1654.9</ele>
        <time>2020-11-11T16:39:49Z</time>
      </trkpt>
      <trkpt lat="28.3346850" lon="-16.5165000">
        <ele>1654.9</ele>
        <time>2020-11-11T16:39:50Z</time>
      </trkpt>
      <trkpt lat="28.3346870" lon="-16.5164400">
        <ele>1654.9</ele>
        <time>2020-11-11T16:39:51Z</time>
      </trkpt>
      <trkpt lat="28.3346870" lon="-16.5164400">
        <ele>1654.9</ele>
        <time>2020-11-11T16:39:52Z</time>
      </trkpt>
      <trkpt lat="28.3346830" lon="-16.5163830">
        <ele>1654.9</ele>
        <time>2020-11-11T16:39:53Z</time>
      </trkpt>
      <trkpt lat="28.3346830" lon="-16.5163830">
        <ele>1654.9</ele>
        <time>2020-11-11T16:39:54Z</time>
      </trkpt>
      <trkpt lat="28.3346820" lon="-16.5163270">
        <ele>1654.9</ele>
        <time>2020-11-11T16:39:55Z</time>
      </trkpt>
      <trkpt lat="28.3346780" lon="-16.5162920">
        <ele>1654.9</ele>
        <time>2020-11-11T16:39:56Z</time>
      </trkpt>
      <trkpt lat="28.3346780" lon="-16.5162920">
        <ele>1654.9</ele>
        <time>2020-11-11T16:39:57Z</time>
      </trkpt>
      <trkpt lat="28.3346820" lon="-16.5162230">
        <ele>1654.9</ele>
        <time>2020-11-11T16:39:58Z</time>
      </trkpt>
      <trkpt lat="28.3346830" lon="-16.5161880">
        <ele>1654.9</ele>
        <time>2020-11-11T16:39:59Z</time>
      </trkpt>
      <trkpt lat="28.3346870" lon="-16.5161570">
        <ele>1654.9</ele>
        <time>2020-11-11T16:40:00Z</time>
      </trkpt>
      <trkpt lat="28.3346870" lon="-16.5161570">
        <ele>1654.9</ele>
        <time>2020-11-11T16:40:01Z</time>
      </trkpt>
      <trkpt lat="28.3347120" lon="-16.5160980">
        <ele>1654.9</ele>
        <time>2020-11-11T16:40:02Z</time>
      </trkpt>
      <trkpt lat="28.3347120" lon="-16.5160980">
        <ele>1654.9</ele>
        <time>2020-11-11T16:40:03Z</time>
      </trkpt>
      <trkpt lat="28.3347420" lon="-16.5160580">
        <ele>1654.9</ele>
        <time>2020-11-11T16:40:04Z</time>
      </trkpt>
      <trkpt lat="28.3347420" lon="-16.5160580">
        <ele>1654.9</ele>
        <time>2020-11-11T16:40:05Z</time>
      </trkpt>
      <trkpt lat="28.3347650" lon="-16.5160180">
        <ele>1654.9</ele>
        <time>2020-11-11T16:40:06Z</time>
      </trkpt>
      <trkpt lat="28.3347750" lon="-16.5159930">
        <ele>1654.9</ele>
        <time>2020-11-11T16:40:07Z</time>
      </trkpt>
      <trkpt lat="28.3347750" lon="-16.5159930">
        <ele>1654.9</ele>
        <time>2020-11-11T16:40:08Z</time>
      </trkpt>
      <trkpt lat="28.3347870" lon="-16.5159480">
        <ele>1654.9</ele>
        <time>2020-11-11T16:40:09Z</time>
      </trkpt>
      <trkpt lat="28.3347870" lon="-16.5159480">
        <ele>1654.9</ele>
        <time>2020-11-11T16:40:10Z</time>
      </trkpt>
      <trkpt lat="28.3348150" lon="-16.5159030">
        <ele>1654.9</ele>
        <time>2020-11-11T16:40:11Z</time>
      </trkpt>
      <trkpt lat="28.3348150" lon="-16.5159030">
        <ele>1654.9</ele>
        <time>2020-11-11T16:40:12Z</time>
      </trkpt>
      <trkpt lat="28.3348370" lon="-16.5158500">
        <ele>1654.9</ele>
        <time>2020-11-11T16:40:13Z</time>
      </trkpt>
      <trkpt lat="28.3348370" lon="-16.5158500">
        <ele>1654.9</ele>
        <time>2020-11-11T16:40:14Z</time>
      </trkpt>
      <trkpt lat="28.3348520" lon="-16.5157920">
        <ele>1655.9</ele>
        <time>2020-11-11T16:40:15Z</time>
      </trkpt>
      <trkpt lat="28.3348650" lon="-16.5157620">
        <ele>1655.9</ele>
        <time>2020-11-11T16:40:16Z</time>
      </trkpt>
      <trkpt lat="28.3348650" lon="-16.5157620">
        <ele>1655.9</ele>
        <time>2020-11-11T16:40:17Z</time>
      </trkpt>
      <trkpt lat="28.3349030" lon="-16.5157200">
        <ele>1655.9</ele>
        <time>2020-11-11T16:40:18Z</time>
      </trkpt>
      <trkpt lat="28.3349030" lon="-16.5157200">
        <ele>1655.9</ele>
        <time>2020-11-11T16:40:19Z</time>
      </trkpt>
      <trkpt lat="28.3349320" lon="-16.5156870">
        <ele>1655.9</ele>
        <time>2020-11-11T16:40:20Z</time>
      </trkpt>
      <trkpt lat="28.3349320" lon="-16.5156870">
        <ele>1655.9</ele>
        <time>2020-11-11T16:40:21Z</time>
      </trkpt>
      <trkpt lat="28.3349680" lon="-16.5156470">
        <ele>1655.9</ele>
        <time>2020-11-11T16:40:22Z</time>
      </trkpt>
      <trkpt lat="28.3349680" lon="-16.5156470">
        <ele>1656.9</ele>
        <time>2020-11-11T16:40:23Z</time>
      </trkpt>
      <trkpt lat="28.3350050" lon="-16.5156120">
        <ele>1656.9</ele>
        <time>2020-11-11T16:40:24Z</time>
      </trkpt>
      <trkpt lat="28.3350230" lon="-16.5155920">
        <ele>1656.9</ele>
        <time>2020-11-11T16:40:25Z</time>
      </trkpt>
      <trkpt lat="28.3350230" lon="-16.5155920">
        <ele>1656.9</ele>
        <time>2020-11-11T16:40:26Z</time>
      </trkpt>
      <trkpt lat="28.3350550" lon="-16.5155580">
        <ele>1656.9</ele>
        <time>2020-11-11T16:40:27Z</time>
      </trkpt>
      <trkpt lat="28.3350550" lon="-16.5155580">
        <ele>1656.9</ele>
        <time>2020-11-11T16:40:28Z</time>
      </trkpt>
      <trkpt lat="28.3350930" lon="-16.5155300">
        <ele>1656.9</ele>
        <time>2020-11-11T16:40:29Z</time>
      </trkpt>
      <trkpt lat="28.3350930" lon="-16.5155300">
        <ele>1657.9</ele>
        <time>2020-11-11T16:40:30Z</time>
      </trkpt>
      <trkpt lat="28.3351280" lon="-16.5155020">
        <ele>1657.9</ele>
        <time>2020-11-11T16:40:31Z</time>
      </trkpt>
      <trkpt lat="28.3351280" lon="-16.5155020">
        <ele>1657.9</ele>
        <time>2020-11-11T16:40:32Z</time>
      </trkpt>
      <trkpt lat="28.3351670" lon="-16.5154630">
        <ele>1657.9</ele>
        <time>2020-11-11T16:40:33Z</time>
      </trkpt>
      <trkpt lat="28.3351670" lon="-16.5154630">
        <ele>1657.9</ele>
        <time>2020-11-11T16:40:34Z</time>
      </trkpt>
      <trkpt lat="28.3352020" lon="-16.5154180">
        <ele>1657.9</ele>
        <time>2020-11-11T16:40:35Z</time>
      </trkpt>
      <trkpt lat="28.3352020" lon="-16.5154180">
        <ele>1657.9</ele>
        <time>2020-11-11T16:40:36Z</time>
      </trkpt>
      <trkpt lat="28.3352320" lon="-16.5153720">
        <ele>1657.9</ele>
        <time>2020-11-11T16:40:37Z</time>
      </trkpt>
      <trkpt lat="28.3352450" lon="-16.5153470">
        <ele>1657.9</ele>
        <time>2020-11-11T16:40:38Z</time>
      </trkpt>
      <trkpt lat="28.3352550" lon="-16.5153220">
        <ele>1657.9</ele>
        <time>2020-11-11T16:40:39Z</time>
      </trkpt>
      <trkpt lat="28.3352550" lon="-16.5153220">
        <ele>1657.9</ele>
        <time>2020-11-11T16:40:40Z</time>
      </trkpt>
      <trkpt lat="28.3352620" lon="-16.5152670">
        <ele>1657.9</ele>
        <time>2020-11-11T16:40:41Z</time>
      </trkpt>
      <trkpt lat="28.3352630" lon="-16.5152370">
        <ele>1657.9</ele>
        <time>2020-11-11T16:40:42Z</time>
      </trkpt>
      <trkpt lat="28.3352600" lon="-16.5152100">
        <ele>1657.9</ele>
        <time>2020-11-11T16:40:43Z</time>
      </trkpt>
      <trkpt lat="28.3352600" lon="-16.5152100">
        <ele>1657.9</ele>
        <time>2020-11-11T16:40:44Z</time>
      </trkpt>
      <trkpt lat="28.3352600" lon="-16.5151550">
        <ele>1657.9</ele>
        <time>2020-11-11T16:40:45Z</time>
      </trkpt>
      <trkpt lat="28.3352450" lon="-16.5151400">
        <ele>1657.9</ele>
        <time>2020-11-11T16:40:46Z</time>
      </trkpt>
      <trkpt lat="28.3352450" lon="-16.5151400">
        <ele>1658.9</ele>
        <time>2020-11-11T16:40:47Z</time>
      </trkpt>
      <trkpt lat="28.3352230" lon="-16.5151030">
        <ele>1658.9</ele>
        <time>2020-11-11T16:40:48Z</time>
      </trkpt>
      <trkpt lat="28.3352230" lon="-16.5151030">
        <ele>1658.9</ele>
        <time>2020-11-11T16:40:49Z</time>
      </trkpt>
      <trkpt lat="28.3351970" lon="-16.5150530">
        <ele>1658.9</ele>
        <time>2020-11-11T16:40:50Z</time>
      </trkpt>
      <trkpt lat="28.3351850" lon="-16.5150250">
        <ele>1658.9</ele>
        <time>2020-11-11T16:40:51Z</time>
      </trkpt>
      <trkpt lat="28.3351850" lon="-16.5150250">
        <ele>1658.9</ele>
        <time>2020-11-11T16:40:52Z</time>
      </trkpt>
      <trkpt lat="28.3351720" lon="-16.5149730">
        <ele>1658.9</ele>
        <time>2020-11-11T16:40:53Z</time>
      </trkpt>
      <trkpt lat="28.3351720" lon="-16.5149730">
        <ele>1658.9</ele>
        <time>2020-11-11T16:40:54Z</time>
      </trkpt>
      <trkpt lat="28.3351600" lon="-16.5149270">
        <ele>1658.9</ele>
        <time>2020-11-11T16:40:55Z</time>
      </trkpt>
      <trkpt lat="28.3351600" lon="-16.5149270">
        <ele>1659.9</ele>
        <time>2020-11-11T16:40:56Z</time>
      </trkpt>
      <trkpt lat="28.3351620" lon="-16.5148920">
        <ele>1659.9</ele>
        <time>2020-11-11T16:40:57Z</time>
      </trkpt>
      <trkpt lat="28.3351620" lon="-16.5148920">
        <ele>1659.9</ele>
        <time>2020-11-11T16:40:58Z</time>
      </trkpt>
      <trkpt lat="28.3351880" lon="-16.5148570">
        <ele>1659.9</ele>
        <time>2020-11-11T16:40:59Z</time>
      </trkpt>
      <trkpt lat="28.3351880" lon="-16.5148570">
        <ele>1659.9</ele>
        <time>2020-11-11T16:41:00Z</time>
      </trkpt>
      <trkpt lat="28.3352270" lon="-16.5148150">
        <ele>1659.9</ele>
        <time>2020-11-11T16:41:01Z</time>
      </trkpt>
      <trkpt lat="28.3352270" lon="-16.5148150">
        <ele>1659.9</ele>
        <time>2020-11-11T16:41:02Z</time>
      </trkpt>
      <trkpt lat="28.3352600" lon="-16.5147870">
        <ele>1659.9</ele>
        <time>2020-11-11T16:41:03Z</time>
      </trkpt>
      <trkpt lat="28.3352800" lon="-16.5147700">
        <ele>1659.9</ele>
        <time>2020-11-11T16:41:04Z</time>
      </trkpt>
      <trkpt lat="28.3352800" lon="-16.5147700">
        <ele>1659.9</ele>
        <time>2020-11-11T16:41:05Z</time>
      </trkpt>
      <trkpt lat="28.3353120" lon="-16.5147430">
        <ele>1659.9</ele>
        <time>2020-11-11T16:41:06Z</time>
      </trkpt>
      <trkpt lat="28.3353120" lon="-16.5147430">
        <ele>1659.9</ele>
        <time>2020-11-11T16:41:07Z</time>
      </trkpt>
      <trkpt lat="28.3353370" lon="-16.5147070">
        <ele>1659.9</ele>
        <time>2020-11-11T16:41:08Z</time>
      </trkpt>
      <trkpt lat="28.3353500" lon="-16.5146870">
        <ele>1660.9</ele>
        <time>2020-11-11T16:41:09Z</time>
      </trkpt>
      <trkpt lat="28.3353500" lon="-16.5146870">
        <ele>1660.9</ele>
        <time>2020-11-11T16:41:10Z</time>
      </trkpt>
      <trkpt lat="28.3353780" lon="-16.5146520">
        <ele>1660.9</ele>
        <time>2020-11-11T16:41:11Z</time>
      </trkpt>
      <trkpt lat="28.3353780" lon="-16.5146520">
        <ele>1660.9</ele>
        <time>2020-11-11T16:41:12Z</time>
      </trkpt>
      <trkpt lat="28.3354100" lon="-16.5146080">
        <ele>1660.9</ele>
        <time>2020-11-11T16:41:13Z</time>
      </trkpt>
      <trkpt lat="28.3354100" lon="-16.5146080">
        <ele>1660.9</ele>
        <time>2020-11-11T16:41:14Z</time>
      </trkpt>
      <trkpt lat="28.3354330" lon="-16.5145580">
        <ele>1660.9</ele>
        <time>2020-11-11T16:41:15Z</time>
      </trkpt>
      <trkpt lat="28.3354330" lon="-16.5145580">
        <ele>1660.9</ele>
        <time>2020-11-11T16:41:16Z</time>
      </trkpt>
      <trkpt lat="28.3354570" lon="-16.5145100">
        <ele>1661.9</ele>
        <time>2020-11-11T16:41:17Z</time>
      </trkpt>
      <trkpt lat="28.3354570" lon="-16.5145100">
        <ele>1661.9</ele>
        <time>2020-11-11T16:41:18Z</time>
      </trkpt>
      <trkpt lat="28.3354850" lon="-16.5144650">
        <ele>1661.9</ele>
        <time>2020-11-11T16:41:19Z</time>
      </trkpt>
      <trkpt lat="28.3354970" lon="-16.5144420">
        <ele>1661.9</ele>
        <time>2020-11-11T16:41:20Z</time>
      </trkpt>
      <trkpt lat="28.3354970" lon="-16.5144420">
        <ele>1661.9</ele>
        <time>2020-11-11T16:41:21Z</time>
      </trkpt>
      <trkpt lat="28.3355120" lon="-16.5143930">
        <ele>1661.9</ele>
        <time>2020-11-11T16:41:22Z</time>
      </trkpt>
      <trkpt lat="28.3355170" lon="-16.5143680">
        <ele>1661.9</ele>
        <time>2020-11-11T16:41:23Z</time>
      </trkpt>
      <trkpt lat="28.3355170" lon="-16.5143680">
        <ele>1661.9</ele>
        <time>2020-11-11T16:41:24Z</time>
      </trkpt>
      <trkpt lat="28.3355250" lon="-16.5143130">
        <ele>1661.9</ele>
        <time>2020-11-11T16:41:25Z</time>
      </trkpt>
      <trkpt lat="28.3355250" lon="-16.5143130">
        <ele>1661.9</ele>
        <time>2020-11-11T16:41:26Z</time>
      </trkpt>
      <trkpt lat="28.3355400" lon="-16.5142630">
        <ele>1661.9</ele>
        <time>2020-11-11T16:41:27Z</time>
      </trkpt>
      <trkpt lat="28.3355400" lon="-16.5142630">
        <ele>1661.9</ele>
        <time>2020-11-11T16:41:28Z</time>
      </trkpt>
      <trkpt lat="28.3355450" lon="-16.5142150">
        <ele>1661.9</ele>
        <time>2020-11-11T16:41:29Z</time>
      </trkpt>
      <trkpt lat="28.3355450" lon="-16.5142150">
        <ele>1661.9</ele>
        <time>2020-11-11T16:41:30Z</time>
      </trkpt>
      <trkpt lat="28.3355530" lon="-16.5141630">
        <ele>1661.9</ele>
        <time>2020-11-11T16:41:31Z</time>
      </trkpt>
      <trkpt lat="28.3355530" lon="-16.5141630">
        <ele>1661.9</ele>
        <time>2020-11-11T16:41:32Z</time>
      </trkpt>
      <trkpt lat="28.3355530" lon="-16.5141120">
        <ele>1661.9</ele>
        <time>2020-11-11T16:41:33Z</time>
      </trkpt>
      <trkpt lat="28.3355550" lon="-16.5140870">
        <ele>1661.9</ele>
        <time>2020-11-11T16:41:34Z</time>
      </trkpt>
      <trkpt lat="28.3355550" lon="-16.5140870">
        <ele>1661.9</ele>
        <time>2020-11-11T16:41:35Z</time>
      </trkpt>
      <trkpt lat="28.3355500" lon="-16.5140330">
        <ele>1662.9</ele>
        <time>2020-11-11T16:41:36Z</time>
      </trkpt>
      <trkpt lat="28.3355500" lon="-16.5140330">
        <ele>1662.9</ele>
        <time>2020-11-11T16:41:37Z</time>
      </trkpt>
      <trkpt lat="28.3355380" lon="-16.5139850">
        <ele>1662.9</ele>
        <time>2020-11-11T16:41:38Z</time>
      </trkpt>
      <trkpt lat="28.3355380" lon="-16.5139850">
        <ele>1662.9</ele>
        <time>2020-11-11T16:41:39Z</time>
      </trkpt>
      <trkpt lat="28.3355380" lon="-16.5139330">
        <ele>1662.9</ele>
        <time>2020-11-11T16:41:40Z</time>
      </trkpt>
      <trkpt lat="28.3355380" lon="-16.5139330">
        <ele>1662.9</ele>
        <time>2020-11-11T16:41:41Z</time>
      </trkpt>
      <trkpt lat="28.3355420" lon="-16.5138920">
        <ele>1663.9</ele>
        <time>2020-11-11T16:41:42Z</time>
      </trkpt>
      <trkpt lat="28.3355370" lon="-16.5138680">
        <ele>1663.9</ele>
        <time>2020-11-11T16:41:43Z</time>
      </trkpt>
      <trkpt lat="28.3355370" lon="-16.5138680">
        <ele>1663.9</ele>
        <time>2020-11-11T16:41:44Z</time>
      </trkpt>
      <trkpt lat="28.3355300" lon="-16.5138230">
        <ele>1663.9</ele>
        <time>2020-11-11T16:41:45Z</time>
      </trkpt>
      <trkpt lat="28.3355300" lon="-16.5138230">
        <ele>1663.9</ele>
        <time>2020-11-11T16:41:46Z</time>
      </trkpt>
      <trkpt lat="28.3355050" lon="-16.5137770">
        <ele>1664.9</ele>
        <time>2020-11-11T16:41:47Z</time>
      </trkpt>
      <trkpt lat="28.3355050" lon="-16.5137770">
        <ele>1664.9</ele>
        <time>2020-11-11T16:41:48Z</time>
      </trkpt>
      <trkpt lat="28.3354800" lon="-16.5137330">
        <ele>1664.9</ele>
        <time>2020-11-11T16:41:49Z</time>
      </trkpt>
      <trkpt lat="28.3354800" lon="-16.5137330">
        <ele>1664.9</ele>
        <time>2020-11-11T16:41:50Z</time>
      </trkpt>
      <trkpt lat="28.3354700" lon="-16.5137030">
        <ele>1665.9</ele>
        <time>2020-11-11T16:41:51Z</time>
      </trkpt>
      <trkpt lat="28.3354700" lon="-16.5137030">
        <ele>1665.9</ele>
        <time>2020-11-11T16:41:52Z</time>
      </trkpt>
      <trkpt lat="28.3354650" lon="-16.5136730">
        <ele>1665.9</ele>
        <time>2020-11-11T16:41:53Z</time>
      </trkpt>
      <trkpt lat="28.3354670" lon="-16.5136520">
        <ele>1666.9</ele>
        <time>2020-11-11T16:41:54Z</time>
      </trkpt>
      <trkpt lat="28.3354670" lon="-16.5136520">
        <ele>1666.9</ele>
        <time>2020-11-11T16:41:55Z</time>
      </trkpt>
      <trkpt lat="28.3354530" lon="-16.5136100">
        <ele>1666.9</ele>
        <time>2020-11-11T16:41:56Z</time>
      </trkpt>
      <trkpt lat="28.3354470" lon="-16.5135800">
        <ele>1666.9</ele>
        <time>2020-11-11T16:41:57Z</time>
      </trkpt>
      <trkpt lat="28.3354470" lon="-16.5135800">
        <ele>1666.9</ele>
        <time>2020-11-11T16:41:58Z</time>
      </trkpt>
      <trkpt lat="28.3354250" lon="-16.5135170">
        <ele>1666.9</ele>
        <time>2020-11-11T16:41:59Z</time>
      </trkpt>
      <trkpt lat="28.3354250" lon="-16.5135170">
        <ele>1666.9</ele>
        <time>2020-11-11T16:42:00Z</time>
      </trkpt>
      <trkpt lat="28.3354380" lon="-16.5134700">
        <ele>1666.9</ele>
        <time>2020-11-11T16:42:01Z</time>
      </trkpt>
      <trkpt lat="28.3354380" lon="-16.5134700">
        <ele>1666.9</ele>
        <time>2020-11-11T16:42:02Z</time>
      </trkpt>
      <trkpt lat="28.3354570" lon="-16.5134220">
        <ele>1666.9</ele>
        <time>2020-11-11T16:42:03Z</time>
      </trkpt>
      <trkpt lat="28.3354570" lon="-16.5134220">
        <ele>1666.9</ele>
        <time>2020-11-11T16:42:04Z</time>
      </trkpt>
      <trkpt lat="28.3354780" lon="-16.5133850">
        <ele>1667.9</ele>
        <time>2020-11-11T16:42:05Z</time>
      </trkpt>
      <trkpt lat="28.3354780" lon="-16.5133850">
        <ele>1667.9</ele>
        <time>2020-11-11T16:42:06Z</time>
      </trkpt>
      <trkpt lat="28.3355050" lon="-16.5133470">
        <ele>1667.9</ele>
        <time>2020-11-11T16:42:07Z</time>
      </trkpt>
      <trkpt lat="28.3355200" lon="-16.5133280">
        <ele>1667.9</ele>
        <time>2020-11-11T16:42:08Z</time>
      </trkpt>
      <trkpt lat="28.3355200" lon="-16.5133280">
        <ele>1667.9</ele>
        <time>2020-11-11T16:42:09Z</time>
      </trkpt>
      <trkpt lat="28.3355450" lon="-16.5132920">
        <ele>1667.9</ele>
        <time>2020-11-11T16:42:10Z</time>
      </trkpt>
      <trkpt lat="28.3355450" lon="-16.5132920">
        <ele>1667.9</ele>
        <time>2020-11-11T16:42:11Z</time>
      </trkpt>
      <trkpt lat="28.3355600" lon="-16.5132530">
        <ele>1667.9</ele>
        <time>2020-11-11T16:42:12Z</time>
      </trkpt>
      <trkpt lat="28.3355720" lon="-16.5132330">
        <ele>1668.9</ele>
        <time>2020-11-11T16:42:13Z</time>
      </trkpt>
      <trkpt lat="28.3355720" lon="-16.5132330">
        <ele>1668.9</ele>
        <time>2020-11-11T16:42:14Z</time>
      </trkpt>
      <trkpt lat="28.3355920" lon="-16.5131950">
        <ele>1668.9</ele>
        <time>2020-11-11T16:42:15Z</time>
      </trkpt>
      <trkpt lat="28.3355920" lon="-16.5131950">
        <ele>1668.9</ele>
        <time>2020-11-11T16:42:16Z</time>
      </trkpt>
      <trkpt lat="28.3355880" lon="-16.5131430">
        <ele>1668.9</ele>
        <time>2020-11-11T16:42:17Z</time>
      </trkpt>
      <trkpt lat="28.3355880" lon="-16.5131430">
        <ele>1668.9</ele>
        <time>2020-11-11T16:42:18Z</time>
      </trkpt>
      <trkpt lat="28.3355980" lon="-16.5130900">
        <ele>1668.9</ele>
        <time>2020-11-11T16:42:19Z</time>
      </trkpt>
      <trkpt lat="28.3355980" lon="-16.5130900">
        <ele>1668.9</ele>
        <time>2020-11-11T16:42:20Z</time>
      </trkpt>
      <trkpt lat="28.3355970" lon="-16.5130420">
        <ele>1666.9</ele>
        <time>2020-11-11T16:42:21Z</time>
      </trkpt>
      <trkpt lat="28.3355930" lon="-16.5130220">
        <ele>1666.9</ele>
        <time>2020-11-11T16:42:22Z</time>
      </trkpt>
      <trkpt lat="28.3355930" lon="-16.5130220">
        <ele>1668.9</ele>
        <time>2020-11-11T16:42:23Z</time>
      </trkpt>
      <trkpt lat="28.3355970" lon="-16.5129770">
        <ele>1668.9</ele>
        <time>2020-11-11T16:42:24Z</time>
      </trkpt>
      <trkpt lat="28.3355970" lon="-16.5129770">
        <ele>1669.9</ele>
        <time>2020-11-11T16:42:25Z</time>
      </trkpt>
      <trkpt lat="28.3355970" lon="-16.5129170">
        <ele>1669.9</ele>
        <time>2020-11-11T16:42:26Z</time>
      </trkpt>
      <trkpt lat="28.3355970" lon="-16.5129170">
        <ele>1669.9</ele>
        <time>2020-11-11T16:42:27Z</time>
      </trkpt>
      <trkpt lat="28.3355870" lon="-16.5128680">
        <ele>1669.9</ele>
        <time>2020-11-11T16:42:28Z</time>
      </trkpt>
      <trkpt lat="28.3355870" lon="-16.5128680">
        <ele>1669.9</ele>
        <time>2020-11-11T16:42:29Z</time>
      </trkpt>
      <trkpt lat="28.3355820" lon="-16.5128220">
        <ele>1669.9</ele>
        <time>2020-11-11T16:42:30Z</time>
      </trkpt>
      <trkpt lat="28.3355770" lon="-16.5127950">
        <ele>1670.9</ele>
        <time>2020-11-11T16:42:31Z</time>
      </trkpt>
      <trkpt lat="28.3355770" lon="-16.5127950">
        <ele>1670.9</ele>
        <time>2020-11-11T16:42:32Z</time>
      </trkpt>
      <trkpt lat="28.3355650" lon="-16.5127400">
        <ele>1670.9</ele>
        <time>2020-11-11T16:42:33Z</time>
      </trkpt>
      <trkpt lat="28.3355650" lon="-16.5127400">
        <ele>1670.9</ele>
        <time>2020-11-11T16:42:34Z</time>
      </trkpt>
      <trkpt lat="28.3355670" lon="-16.5126920">
        <ele>1670.9</ele>
        <time>2020-11-11T16:42:35Z</time>
      </trkpt>
      <trkpt lat="28.3355670" lon="-16.5126920">
        <ele>1670.9</ele>
        <time>2020-11-11T16:42:36Z</time>
      </trkpt>
      <trkpt lat="28.3355800" lon="-16.5126500">
        <ele>1670.9</ele>
        <time>2020-11-11T16:42:37Z</time>
      </trkpt>
      <trkpt lat="28.3355800" lon="-16.5126500">
        <ele>1670.9</ele>
        <time>2020-11-11T16:42:38Z</time>
      </trkpt>
      <trkpt lat="28.3355800" lon="-16.5126150">
        <ele>1670.9</ele>
        <time>2020-11-11T16:42:39Z</time>
      </trkpt>
      <trkpt lat="28.3355800" lon="-16.5126150">
        <ele>1670.9</ele>
        <time>2020-11-11T16:42:40Z</time>
      </trkpt>
      <trkpt lat="28.3355770" lon="-16.5125650">
        <ele>1670.9</ele>
        <time>2020-11-11T16:42:41Z</time>
      </trkpt>
      <trkpt lat="28.3355770" lon="-16.5125650">
        <ele>1670.9</ele>
        <time>2020-11-11T16:42:42Z</time>
      </trkpt>
      <trkpt lat="28.3355950" lon="-16.5125150">
        <ele>1670.9</ele>
        <time>2020-11-11T16:42:43Z</time>
      </trkpt>
      <trkpt lat="28.3355950" lon="-16.5125150">
        <ele>1670.9</ele>
        <time>2020-11-11T16:42:44Z</time>
      </trkpt>
      <trkpt lat="28.3355930" lon="-16.5124700">
        <ele>1670.9</ele>
        <time>2020-11-11T16:42:45Z</time>
      </trkpt>
      <trkpt lat="28.3355930" lon="-16.5124700">
        <ele>1671.9</ele>
        <time>2020-11-11T16:42:46Z</time>
      </trkpt>
      <trkpt lat="28.3356130" lon="-16.5124230">
        <ele>1671.9</ele>
        <time>2020-11-11T16:42:47Z</time>
      </trkpt>
      <trkpt lat="28.3356130" lon="-16.5124230">
        <ele>1671.9</ele>
        <time>2020-11-11T16:42:48Z</time>
      </trkpt>
      <trkpt lat="28.3356170" lon="-16.5123820">
        <ele>1671.9</ele>
        <time>2020-11-11T16:42:49Z</time>
      </trkpt>
      <trkpt lat="28.3356170" lon="-16.5123820">
        <ele>1671.9</ele>
        <time>2020-11-11T16:42:50Z</time>
      </trkpt>
      <trkpt lat="28.3356280" lon="-16.5123430">
        <ele>1671.9</ele>
        <time>2020-11-11T16:42:51Z</time>
      </trkpt>
      <trkpt lat="28.3356280" lon="-16.5123430">
        <ele>1672.9</ele>
        <time>2020-11-11T16:42:52Z</time>
      </trkpt>
      <trkpt lat="28.3356370" lon="-16.5123000">
        <ele>1672.9</ele>
        <time>2020-11-11T16:42:53Z</time>
      </trkpt>
      <trkpt lat="28.3356370" lon="-16.5123000">
        <ele>1672.9</ele>
        <time>2020-11-11T16:42:54Z</time>
      </trkpt>
      <trkpt lat="28.3356400" lon="-16.5122730">
        <ele>1672.9</ele>
        <time>2020-11-11T16:42:55Z</time>
      </trkpt>
      <trkpt lat="28.3356400" lon="-16.5122730">
        <ele>1672.9</ele>
        <time>2020-11-11T16:42:56Z</time>
      </trkpt>
      <trkpt lat="28.3356520" lon="-16.5122400">
        <ele>1672.9</ele>
        <time>2020-11-11T16:42:57Z</time>
      </trkpt>
      <trkpt lat="28.3356520" lon="-16.5122400">
        <ele>1672.9</ele>
        <time>2020-11-11T16:42:58Z</time>
      </trkpt>
      <trkpt lat="28.3356470" lon="-16.5121980">
        <ele>1673.9</ele>
        <time>2020-11-11T16:42:59Z</time>
      </trkpt>
      <trkpt lat="28.3356470" lon="-16.5121980">
        <ele>1673.9</ele>
        <time>2020-11-11T16:43:00Z</time>
      </trkpt>
      <trkpt lat="28.3356530" lon="-16.5121580">
        <ele>1673.9</ele>
        <time>2020-11-11T16:43:01Z</time>
      </trkpt>
      <trkpt lat="28.3356530" lon="-16.5121580">
        <ele>1673.9</ele>
        <time>2020-11-11T16:43:02Z</time>
      </trkpt>
      <trkpt lat="28.3356470" lon="-16.5121150">
        <ele>1673.9</ele>
        <time>2020-11-11T16:43:03Z</time>
      </trkpt>
      <trkpt lat="28.3356470" lon="-16.5121150">
        <ele>1673.9</ele>
        <time>2020-11-11T16:43:04Z</time>
      </trkpt>
      <trkpt lat="28.3356430" lon="-16.5120750">
        <ele>1673.9</ele>
        <time>2020-11-11T16:43:05Z</time>
      </trkpt>
      <trkpt lat="28.3356430" lon="-16.5120750">
        <ele>1673.9</ele>
        <time>2020-11-11T16:43:06Z</time>
      </trkpt>
      <trkpt lat="28.3356430" lon="-16.5120320">
        <ele>1673.9</ele>
        <time>2020-11-11T16:43:07Z</time>
      </trkpt>
      <trkpt lat="28.3356430" lon="-16.5120320">
        <ele>1673.9</ele>
        <time>2020-11-11T16:43:08Z</time>
      </trkpt>
      <trkpt lat="28.3356420" lon="-16.5119930">
        <ele>1673.9</ele>
        <time>2020-11-11T16:43:09Z</time>
      </trkpt>
      <trkpt lat="28.3356420" lon="-16.5119720">
        <ele>1673.9</ele>
        <time>2020-11-11T16:43:10Z</time>
      </trkpt>
      <trkpt lat="28.3356420" lon="-16.5119720">
        <ele>1673.9</ele>
        <time>2020-11-11T16:43:11Z</time>
      </trkpt>
      <trkpt lat="28.3356450" lon="-16.5119300">
        <ele>1673.9</ele>
        <time>2020-11-11T16:43:12Z</time>
      </trkpt>
      <trkpt lat="28.3356450" lon="-16.5119300">
        <ele>1674.9</ele>
        <time>2020-11-11T16:43:13Z</time>
      </trkpt>
      <trkpt lat="28.3356650" lon="-16.5118800">
        <ele>1674.9</ele>
        <time>2020-11-11T16:43:14Z</time>
      </trkpt>
      <trkpt lat="28.3356700" lon="-16.5118550">
        <ele>1674.9</ele>
        <time>2020-11-11T16:43:15Z</time>
      </trkpt>
      <trkpt lat="28.3356700" lon="-16.5118550">
        <ele>1674.9</ele>
        <time>2020-11-11T16:43:16Z</time>
      </trkpt>
      <trkpt lat="28.3356820" lon="-16.5118070">
        <ele>1674.9</ele>
        <time>2020-11-11T16:43:17Z</time>
      </trkpt>
      <trkpt lat="28.3356820" lon="-16.5118070">
        <ele>1674.9</ele>
        <time>2020-11-11T16:43:18Z</time>
      </trkpt>
      <trkpt lat="28.3356750" lon="-16.5117630">
        <ele>1675.9</ele>
        <time>2020-11-11T16:43:19Z</time>
      </trkpt>
      <trkpt lat="28.3356750" lon="-16.5117630">
        <ele>1675.9</ele>
        <time>2020-11-11T16:43:20Z</time>
      </trkpt>
      <trkpt lat="28.3356930" lon="-16.5117150">
        <ele>1675.9</ele>
        <time>2020-11-11T16:43:21Z</time>
      </trkpt>
      <trkpt lat="28.3356930" lon="-16.5117150">
        <ele>1675.9</ele>
        <time>2020-11-11T16:43:22Z</time>
      </trkpt>
      <trkpt lat="28.3357020" lon="-16.5116700">
        <ele>1675.9</ele>
        <time>2020-11-11T16:43:23Z</time>
      </trkpt>
      <trkpt lat="28.3357020" lon="-16.5116700">
        <ele>1675.9</ele>
        <time>2020-11-11T16:43:24Z</time>
      </trkpt>
      <trkpt lat="28.3357270" lon="-16.5116230">
        <ele>1676.9</ele>
        <time>2020-11-11T16:43:25Z</time>
      </trkpt>
      <trkpt lat="28.3357270" lon="-16.5116230">
        <ele>1676.9</ele>
        <time>2020-11-11T16:43:26Z</time>
      </trkpt>
      <trkpt lat="28.3357480" lon="-16.5115730">
        <ele>1676.9</ele>
        <time>2020-11-11T16:43:27Z</time>
      </trkpt>
      <trkpt lat="28.3357480" lon="-16.5115730">
        <ele>1676.9</ele>
        <time>2020-11-11T16:43:28Z</time>
      </trkpt>
      <trkpt lat="28.3357730" lon="-16.5115280">
        <ele>1676.9</ele>
        <time>2020-11-11T16:43:29Z</time>
      </trkpt>
      <trkpt lat="28.3357730" lon="-16.5115280">
        <ele>1676.9</ele>
        <time>2020-11-11T16:43:30Z</time>
      </trkpt>
      <trkpt lat="28.3358020" lon="-16.5114830">
        <ele>1676.9</ele>
        <time>2020-11-11T16:43:31Z</time>
      </trkpt>
      <trkpt lat="28.3358020" lon="-16.5114830">
        <ele>1676.9</ele>
        <time>2020-11-11T16:43:32Z</time>
      </trkpt>
      <trkpt lat="28.3358470" lon="-16.5114420">
        <ele>1677.9</ele>
        <time>2020-11-11T16:43:33Z</time>
      </trkpt>
      <trkpt lat="28.3358470" lon="-16.5114420">
        <ele>1677.9</ele>
        <time>2020-11-11T16:43:34Z</time>
      </trkpt>
      <trkpt lat="28.3358880" lon="-16.5114050">
        <ele>1677.9</ele>
        <time>2020-11-11T16:43:35Z</time>
      </trkpt>
      <trkpt lat="28.3358880" lon="-16.5114050">
        <ele>1677.9</ele>
        <time>2020-11-11T16:43:36Z</time>
      </trkpt>
      <trkpt lat="28.3359320" lon="-16.5113870">
        <ele>1677.9</ele>
        <time>2020-11-11T16:43:37Z</time>
      </trkpt>
      <trkpt lat="28.3359480" lon="-16.5113820">
        <ele>1677.9</ele>
        <time>2020-11-11T16:43:38Z</time>
      </trkpt>
      <trkpt lat="28.3359480" lon="-16.5113820">
        <ele>1677.9</ele>
        <time>2020-11-11T16:43:39Z</time>
      </trkpt>
      <trkpt lat="28.3359900" lon="-16.5113730">
        <ele>1677.9</ele>
        <time>2020-11-11T16:43:40Z</time>
      </trkpt>
      <trkpt lat="28.3359900" lon="-16.5113730">
        <ele>1677.9</ele>
        <time>2020-11-11T16:43:41Z</time>
      </trkpt>
      <trkpt lat="28.3360380" lon="-16.5113580">
        <ele>1677.9</ele>
        <time>2020-11-11T16:43:42Z</time>
      </trkpt>
      <trkpt lat="28.3360380" lon="-16.5113580">
        <ele>1677.9</ele>
        <time>2020-11-11T16:43:43Z</time>
      </trkpt>
      <trkpt lat="28.3360850" lon="-16.5113420">
        <ele>1677.9</ele>
        <time>2020-11-11T16:43:44Z</time>
      </trkpt>
      <trkpt lat="28.3360850" lon="-16.5113420">
        <ele>1677.9</ele>
        <time>2020-11-11T16:43:45Z</time>
      </trkpt>
      <trkpt lat="28.3361250" lon="-16.5113220">
        <ele>1677.9</ele>
        <time>2020-11-11T16:43:46Z</time>
      </trkpt>
      <trkpt lat="28.3361250" lon="-16.5113220">
        <ele>1677.9</ele>
        <time>2020-11-11T16:43:47Z</time>
      </trkpt>
      <trkpt lat="28.3361580" lon="-16.5112980">
        <ele>1677.9</ele>
        <time>2020-11-11T16:43:48Z</time>
      </trkpt>
      <trkpt lat="28.3361730" lon="-16.5112820">
        <ele>1677.9</ele>
        <time>2020-11-11T16:43:49Z</time>
      </trkpt>
      <trkpt lat="28.3361730" lon="-16.5112820">
        <ele>1677.9</ele>
        <time>2020-11-11T16:43:50Z</time>
      </trkpt>
      <trkpt lat="28.3361930" lon="-16.5112350">
        <ele>1677.9</ele>
        <time>2020-11-11T16:43:51Z</time>
      </trkpt>
      <trkpt lat="28.3362050" lon="-16.5112120">
        <ele>1677.9</ele>
        <time>2020-11-11T16:43:52Z</time>
      </trkpt>
      <trkpt lat="28.3362050" lon="-16.5112120">
        <ele>1678.9</ele>
        <time>2020-11-11T16:43:53Z</time>
      </trkpt>
      <trkpt lat="28.3362350" lon="-16.5111600">
        <ele>1678.9</ele>
        <time>2020-11-11T16:43:54Z</time>
      </trkpt>
      <trkpt lat="28.3362350" lon="-16.5111600">
        <ele>1678.9</ele>
        <time>2020-11-11T16:43:55Z</time>
      </trkpt>
      <trkpt lat="28.3362670" lon="-16.5111120">
        <ele>1678.9</ele>
        <time>2020-11-11T16:43:56Z</time>
      </trkpt>
      <trkpt lat="28.3362670" lon="-16.5111120">
        <ele>1678.9</ele>
        <time>2020-11-11T16:43:57Z</time>
      </trkpt>
      <trkpt lat="28.3362930" lon="-16.5110620">
        <ele>1678.9</ele>
        <time>2020-11-11T16:43:58Z</time>
      </trkpt>
      <trkpt lat="28.3363070" lon="-16.5110370">
        <ele>1678.9</ele>
        <time>2020-11-11T16:43:59Z</time>
      </trkpt>
      <trkpt lat="28.3363070" lon="-16.5110370">
        <ele>1679.9</ele>
        <time>2020-11-11T16:44:00Z</time>
      </trkpt>
      <trkpt lat="28.3363380" lon="-16.5109980">
        <ele>1679.9</ele>
        <time>2020-11-11T16:44:01Z</time>
      </trkpt>
      <trkpt lat="28.3363380" lon="-16.5109980">
        <ele>1679.9</ele>
        <time>2020-11-11T16:44:02Z</time>
      </trkpt>
      <trkpt lat="28.3363630" lon="-16.5109620">
        <ele>1679.9</ele>
        <time>2020-11-11T16:44:03Z</time>
      </trkpt>
      <trkpt lat="28.3363750" lon="-16.5109430">
        <ele>1679.9</ele>
        <time>2020-11-11T16:44:04Z</time>
      </trkpt>
      <trkpt lat="28.3363750" lon="-16.5109430">
        <ele>1679.9</ele>
        <time>2020-11-11T16:44:05Z</time>
      </trkpt>
      <trkpt lat="28.3364050" lon="-16.5109080">
        <ele>1680.9</ele>
        <time>2020-11-11T16:44:06Z</time>
      </trkpt>
      <trkpt lat="28.3364220" lon="-16.5108920">
        <ele>1680.9</ele>
        <time>2020-11-11T16:44:07Z</time>
      </trkpt>
      <trkpt lat="28.3364220" lon="-16.5108920">
        <ele>1680.9</ele>
        <time>2020-11-11T16:44:08Z</time>
      </trkpt>
      <trkpt lat="28.3364450" lon="-16.5108580">
        <ele>1680.9</ele>
        <time>2020-11-11T16:44:09Z</time>
      </trkpt>
      <trkpt lat="28.3364680" lon="-16.5108450">
        <ele>1680.9</ele>
        <time>2020-11-11T16:44:10Z</time>
      </trkpt>
      <trkpt lat="28.3364680" lon="-16.5108450">
        <ele>1680.9</ele>
        <time>2020-11-11T16:44:11Z</time>
      </trkpt>
      <trkpt lat="28.3365070" lon="-16.5108130">
        <ele>1680.9</ele>
        <time>2020-11-11T16:44:12Z</time>
      </trkpt>
      <trkpt lat="28.3365070" lon="-16.5108130">
        <ele>1680.9</ele>
        <time>2020-11-11T16:44:13Z</time>
      </trkpt>
      <trkpt lat="28.3365380" lon="-16.5107700">
        <ele>1680.9</ele>
        <time>2020-11-11T16:44:14Z</time>
      </trkpt>
      <trkpt lat="28.3365380" lon="-16.5107700">
        <ele>1680.9</ele>
        <time>2020-11-11T16:44:15Z</time>
      </trkpt>
      <trkpt lat="28.3365650" lon="-16.5107270">
        <ele>1680.9</ele>
        <time>2020-11-11T16:44:16Z</time>
      </trkpt>
      <trkpt lat="28.3365650" lon="-16.5107270">
        <ele>1680.9</ele>
        <time>2020-11-11T16:44:17Z</time>
      </trkpt>
      <trkpt lat="28.3365770" lon="-16.5106820">
        <ele>1681.9</ele>
        <time>2020-11-11T16:44:18Z</time>
      </trkpt>
      <trkpt lat="28.3365770" lon="-16.5106820">
        <ele>1681.9</ele>
        <time>2020-11-11T16:44:19Z</time>
      </trkpt>
      <trkpt lat="28.3365820" lon="-16.5106420">
        <ele>1681.9</ele>
        <time>2020-11-11T16:44:20Z</time>
      </trkpt>
      <trkpt lat="28.3365820" lon="-16.5106420">
        <ele>1681.9</ele>
        <time>2020-11-11T16:44:21Z</time>
      </trkpt>
      <trkpt lat="28.3366020" lon="-16.5106070">
        <ele>1681.9</ele>
        <time>2020-11-11T16:44:22Z</time>
      </trkpt>
      <trkpt lat="28.3366020" lon="-16.5106070">
        <ele>1681.9</ele>
        <time>2020-11-11T16:44:23Z</time>
      </trkpt>
      <trkpt lat="28.3365900" lon="-16.5105570">
        <ele>1681.9</ele>
        <time>2020-11-11T16:44:24Z</time>
      </trkpt>
      <trkpt lat="28.3365830" lon="-16.5105320">
        <ele>1681.9</ele>
        <time>2020-11-11T16:44:25Z</time>
      </trkpt>
      <trkpt lat="28.3365830" lon="-16.5105320">
        <ele>1682.9</ele>
        <time>2020-11-11T16:44:26Z</time>
      </trkpt>
      <trkpt lat="28.3365730" lon="-16.5104870">
        <ele>1682.9</ele>
        <time>2020-11-11T16:44:27Z</time>
      </trkpt>
      <trkpt lat="28.3365730" lon="-16.5104870">
        <ele>1682.9</ele>
        <time>2020-11-11T16:44:28Z</time>
      </trkpt>
      <trkpt lat="28.3365630" lon="-16.5104450">
        <ele>1682.9</ele>
        <time>2020-11-11T16:44:29Z</time>
      </trkpt>
      <trkpt lat="28.3365580" lon="-16.5104230">
        <ele>1682.9</ele>
        <time>2020-11-11T16:44:30Z</time>
      </trkpt>
      <trkpt lat="28.3365580" lon="-16.5104230">
        <ele>1682.9</ele>
        <time>2020-11-11T16:44:31Z</time>
      </trkpt>
      <trkpt lat="28.3365430" lon="-16.5103830">
        <ele>1682.9</ele>
        <time>2020-11-11T16:44:32Z</time>
      </trkpt>
      <trkpt lat="28.3365430" lon="-16.5103830">
        <ele>1683.9</ele>
        <time>2020-11-11T16:44:33Z</time>
      </trkpt>
      <trkpt lat="28.3365280" lon="-16.5103380">
        <ele>1683.9</ele>
        <time>2020-11-11T16:44:34Z</time>
      </trkpt>
      <trkpt lat="28.3365280" lon="-16.5103380">
        <ele>1683.9</ele>
        <time>2020-11-11T16:44:35Z</time>
      </trkpt>
      <trkpt lat="28.3365170" lon="-16.5102980">
        <ele>1683.9</ele>
        <time>2020-11-11T16:44:36Z</time>
      </trkpt>
      <trkpt lat="28.3365150" lon="-16.5102780">
        <ele>1684.9</ele>
        <time>2020-11-11T16:44:37Z</time>
      </trkpt>
      <trkpt lat="28.3365150" lon="-16.5102780">
        <ele>1684.9</ele>
        <time>2020-11-11T16:44:38Z</time>
      </trkpt>
      <trkpt lat="28.3365100" lon="-16.5102430">
        <ele>1684.9</ele>
        <time>2020-11-11T16:44:39Z</time>
      </trkpt>
      <trkpt lat="28.3365100" lon="-16.5102430">
        <ele>1684.9</ele>
        <time>2020-11-11T16:44:40Z</time>
      </trkpt>
      <trkpt lat="28.3365020" lon="-16.5102050">
        <ele>1685.9</ele>
        <time>2020-11-11T16:44:41Z</time>
      </trkpt>
      <trkpt lat="28.3365020" lon="-16.5102050">
        <ele>1685.9</ele>
        <time>2020-11-11T16:44:42Z</time>
      </trkpt>
      <trkpt lat="28.3364950" lon="-16.5101600">
        <ele>1685.9</ele>
        <time>2020-11-11T16:44:43Z</time>
      </trkpt>
      <trkpt lat="28.3364950" lon="-16.5101600">
        <ele>1685.9</ele>
        <time>2020-11-11T16:44:44Z</time>
      </trkpt>
      <trkpt lat="28.3364950" lon="-16.5101100">
        <ele>1685.9</ele>
        <time>2020-11-11T16:44:45Z</time>
      </trkpt>
      <trkpt lat="28.3364950" lon="-16.5101100">
        <ele>1685.9</ele>
        <time>2020-11-11T16:44:46Z</time>
      </trkpt>
      <trkpt lat="28.3365020" lon="-16.5100620">
        <ele>1685.9</ele>
        <time>2020-11-11T16:44:47Z</time>
      </trkpt>
      <trkpt lat="28.3365030" lon="-16.5100400">
        <ele>1685.9</ele>
        <time>2020-11-11T16:44:48Z</time>
      </trkpt>
      <trkpt lat="28.3365030" lon="-16.5100400">
        <ele>1685.9</ele>
        <time>2020-11-11T16:44:49Z</time>
      </trkpt>
      <trkpt lat="28.3365070" lon="-16.5099950">
        <ele>1685.9</ele>
        <time>2020-11-11T16:44:50Z</time>
      </trkpt>
      <trkpt lat="28.3365070" lon="-16.5099950">
        <ele>1685.9</ele>
        <time>2020-11-11T16:44:51Z</time>
      </trkpt>
      <trkpt lat="28.3365050" lon="-16.5099550">
        <ele>1685.9</ele>
        <time>2020-11-11T16:44:52Z</time>
      </trkpt>
      <trkpt lat="28.3365050" lon="-16.5099550">
        <ele>1686.9</ele>
        <time>2020-11-11T16:44:53Z</time>
      </trkpt>
      <trkpt lat="28.3365170" lon="-16.5099120">
        <ele>1686.9</ele>
        <time>2020-11-11T16:44:54Z</time>
      </trkpt>
      <trkpt lat="28.3365300" lon="-16.5098970">
        <ele>1686.9</ele>
        <time>2020-11-11T16:44:55Z</time>
      </trkpt>
      <trkpt lat="28.3365300" lon="-16.5098970">
        <ele>1686.9</ele>
        <time>2020-11-11T16:44:56Z</time>
      </trkpt>
      <trkpt lat="28.3365600" lon="-16.5098670">
        <ele>1686.9</ele>
        <time>2020-11-11T16:44:57Z</time>
      </trkpt>
      <trkpt lat="28.3365600" lon="-16.5098670">
        <ele>1686.9</ele>
        <time>2020-11-11T16:44:58Z</time>
      </trkpt>
      <trkpt lat="28.3365920" lon="-16.5098330">
        <ele>1686.9</ele>
        <time>2020-11-11T16:44:59Z</time>
      </trkpt>
      <trkpt lat="28.3365920" lon="-16.5098330">
        <ele>1686.9</ele>
        <time>2020-11-11T16:45:00Z</time>
      </trkpt>
      <trkpt lat="28.3366230" lon="-16.5098050">
        <ele>1687.9</ele>
        <time>2020-11-11T16:45:01Z</time>
      </trkpt>
      <trkpt lat="28.3366230" lon="-16.5098050">
        <ele>1687.9</ele>
        <time>2020-11-11T16:45:02Z</time>
      </trkpt>
      <trkpt lat="28.3366520" lon="-16.5097850">
        <ele>1687.9</ele>
        <time>2020-11-11T16:45:03Z</time>
      </trkpt>
      <trkpt lat="28.3366520" lon="-16.5097850">
        <ele>1687.9</ele>
        <time>2020-11-11T16:45:04Z</time>
      </trkpt>
      <trkpt lat="28.3366950" lon="-16.5097620">
        <ele>1687.9</ele>
        <time>2020-11-11T16:45:05Z</time>
      </trkpt>
      <trkpt lat="28.3366950" lon="-16.5097620">
        <ele>1688.9</ele>
        <time>2020-11-11T16:45:06Z</time>
      </trkpt>
      <trkpt lat="28.3367320" lon="-16.5097400">
        <ele>1688.9</ele>
        <time>2020-11-11T16:45:07Z</time>
      </trkpt>
      <trkpt lat="28.3367320" lon="-16.5097400">
        <ele>1688.9</ele>
        <time>2020-11-11T16:45:08Z</time>
      </trkpt>
      <trkpt lat="28.3367480" lon="-16.5097200">
        <ele>1688.9</ele>
        <time>2020-11-11T16:45:09Z</time>
      </trkpt>
      <trkpt lat="28.3367480" lon="-16.5097200">
        <ele>1688.9</ele>
        <time>2020-11-11T16:45:10Z</time>
      </trkpt>
      <trkpt lat="28.3367770" lon="-16.5096970">
        <ele>1688.9</ele>
        <time>2020-11-11T16:45:11Z</time>
      </trkpt>
      <trkpt lat="28.3367770" lon="-16.5096970">
        <ele>1688.9</ele>
        <time>2020-11-11T16:45:12Z</time>
      </trkpt>
      <trkpt lat="28.3368200" lon="-16.5096720">
        <ele>1689.9</ele>
        <time>2020-11-11T16:45:13Z</time>
      </trkpt>
      <trkpt lat="28.3368420" lon="-16.5096600">
        <ele>1689.9</ele>
        <time>2020-11-11T16:45:14Z</time>
      </trkpt>
      <trkpt lat="28.3368420" lon="-16.5096600">
        <ele>1689.9</ele>
        <time>2020-11-11T16:45:15Z</time>
      </trkpt>
      <trkpt lat="28.3368780" lon="-16.5096270">
        <ele>1689.9</ele>
        <time>2020-11-11T16:45:16Z</time>
      </trkpt>
      <trkpt lat="28.3368780" lon="-16.5096270">
        <ele>1689.9</ele>
        <time>2020-11-11T16:45:17Z</time>
      </trkpt>
      <trkpt lat="28.3369070" lon="-16.5095870">
        <ele>1689.9</ele>
        <time>2020-11-11T16:45:18Z</time>
      </trkpt>
      <trkpt lat="28.3369070" lon="-16.5095870">
        <ele>1689.9</ele>
        <time>2020-11-11T16:45:19Z</time>
      </trkpt>
      <trkpt lat="28.3369320" lon="-16.5095430">
        <ele>1689.9</ele>
        <time>2020-11-11T16:45:20Z</time>
      </trkpt>
      <trkpt lat="28.3369320" lon="-16.5095430">
        <ele>1690.9</ele>
        <time>2020-11-11T16:45:21Z</time>
      </trkpt>
      <trkpt lat="28.3369400" lon="-16.5094980">
        <ele>1690.9</ele>
        <time>2020-11-11T16:45:22Z</time>
      </trkpt>
      <trkpt lat="28.3369400" lon="-16.5094980">
        <ele>1690.9</ele>
        <time>2020-11-11T16:45:23Z</time>
      </trkpt>
      <trkpt lat="28.3369230" lon="-16.5094670">
        <ele>1690.9</ele>
        <time>2020-11-11T16:45:24Z</time>
      </trkpt>
      <trkpt lat="28.3369230" lon="-16.5094670">
        <ele>1690.9</ele>
        <time>2020-11-11T16:45:25Z</time>
      </trkpt>
      <trkpt lat="28.3369080" lon="-16.5094330">
        <ele>1690.9</ele>
        <time>2020-11-11T16:45:26Z</time>
      </trkpt>
      <trkpt lat="28.3368970" lon="-16.5094150">
        <ele>1690.9</ele>
        <time>2020-11-11T16:45:27Z</time>
      </trkpt>
      <trkpt lat="28.3368970" lon="-16.5094150">
        <ele>1691.9</ele>
        <time>2020-11-11T16:45:28Z</time>
      </trkpt>
      <trkpt lat="28.3368880" lon="-16.5093800">
        <ele>1691.9</ele>
        <time>2020-11-11T16:45:29Z</time>
      </trkpt>
      <trkpt lat="28.3368880" lon="-16.5093800">
        <ele>1691.9</ele>
        <time>2020-11-11T16:45:30Z</time>
      </trkpt>
      <trkpt lat="28.3368700" lon="-16.5093470">
        <ele>1691.9</ele>
        <time>2020-11-11T16:45:31Z</time>
      </trkpt>
      <trkpt lat="28.3368700" lon="-16.5093470">
        <ele>1691.9</ele>
        <time>2020-11-11T16:45:32Z</time>
      </trkpt>
      <trkpt lat="28.3368530" lon="-16.5093070">
        <ele>1691.9</ele>
        <time>2020-11-11T16:45:33Z</time>
      </trkpt>
      <trkpt lat="28.3368530" lon="-16.5093070">
        <ele>1691.9</ele>
        <time>2020-11-11T16:45:34Z</time>
      </trkpt>
      <trkpt lat="28.3368380" lon="-16.5092650">
        <ele>1691.9</ele>
        <time>2020-11-11T16:45:35Z</time>
      </trkpt>
      <trkpt lat="28.3368330" lon="-16.5092420">
        <ele>1691.9</ele>
        <time>2020-11-11T16:45:36Z</time>
      </trkpt>
      <trkpt lat="28.3368320" lon="-16.5092220">
        <ele>1691.9</ele>
        <time>2020-11-11T16:45:37Z</time>
      </trkpt>
      <trkpt lat="28.3368320" lon="-16.5092220">
        <ele>1692.9</ele>
        <time>2020-11-11T16:45:38Z</time>
      </trkpt>
      <trkpt lat="28.3368280" lon="-16.5091820">
        <ele>1692.9</ele>
        <time>2020-11-11T16:45:39Z</time>
      </trkpt>
      <trkpt lat="28.3368280" lon="-16.5091820">
        <ele>1692.9</ele>
        <time>2020-11-11T16:45:40Z</time>
      </trkpt>
      <trkpt lat="28.3368270" lon="-16.5091400">
        <ele>1692.9</ele>
        <time>2020-11-11T16:45:41Z</time>
      </trkpt>
      <trkpt lat="28.3368270" lon="-16.5091400">
        <ele>1692.9</ele>
        <time>2020-11-11T16:45:42Z</time>
      </trkpt>
      <trkpt lat="28.3368230" lon="-16.5091000">
        <ele>1692.9</ele>
        <time>2020-11-11T16:45:43Z</time>
      </trkpt>
      <trkpt lat="28.3368230" lon="-16.5091000">
        <ele>1693.9</ele>
        <time>2020-11-11T16:45:44Z</time>
      </trkpt>
      <trkpt lat="28.3368170" lon="-16.5090670">
        <ele>1693.9</ele>
        <time>2020-11-11T16:45:45Z</time>
      </trkpt>
      <trkpt lat="28.3368170" lon="-16.5090670">
        <ele>1693.9</ele>
        <time>2020-11-11T16:45:46Z</time>
      </trkpt>
      <trkpt lat="28.3368180" lon="-16.5090270">
        <ele>1693.9</ele>
        <time>2020-11-11T16:45:47Z</time>
      </trkpt>
      <trkpt lat="28.3368180" lon="-16.5090270">
        <ele>1693.9</ele>
        <time>2020-11-11T16:45:48Z</time>
      </trkpt>
      <trkpt lat="28.3368100" lon="-16.5089880">
        <ele>1694.9</ele>
        <time>2020-11-11T16:45:49Z</time>
      </trkpt>
      <trkpt lat="28.3368100" lon="-16.5089880">
        <ele>1694.9</ele>
        <time>2020-11-11T16:45:50Z</time>
      </trkpt>
      <trkpt lat="28.3368050" lon="-16.5089480">
        <ele>1694.9</ele>
        <time>2020-11-11T16:45:51Z</time>
      </trkpt>
      <trkpt lat="28.3368120" lon="-16.5089250">
        <ele>1694.9</ele>
        <time>2020-11-11T16:45:52Z</time>
      </trkpt>
      <trkpt lat="28.3368120" lon="-16.5089250">
        <ele>1694.9</ele>
        <time>2020-11-11T16:45:53Z</time>
      </trkpt>
      <trkpt lat="28.3367880" lon="-16.5088770">
        <ele>1694.9</ele>
        <time>2020-11-11T16:45:54Z</time>
      </trkpt>
      <trkpt lat="28.3367880" lon="-16.5088770">
        <ele>1695.9</ele>
        <time>2020-11-11T16:45:55Z</time>
      </trkpt>
      <trkpt lat="28.3367950" lon="-16.5088220">
        <ele>1695.9</ele>
        <time>2020-11-11T16:45:56Z</time>
      </trkpt>
      <trkpt lat="28.3367980" lon="-16.5087930">
        <ele>1695.9</ele>
        <time>2020-11-11T16:45:57Z</time>
      </trkpt>
      <trkpt lat="28.3367980" lon="-16.5087930">
        <ele>1695.9</ele>
        <time>2020-11-11T16:45:58Z</time>
      </trkpt>
      <trkpt lat="28.3368000" lon="-16.5087600">
        <ele>1695.9</ele>
        <time>2020-11-11T16:45:59Z</time>
      </trkpt>
      <trkpt lat="28.3368000" lon="-16.5087600">
        <ele>1695.9</ele>
        <time>2020-11-11T16:46:00Z</time>
      </trkpt>
      <trkpt lat="28.3368020" lon="-16.5087150">
        <ele>1695.9</ele>
        <time>2020-11-11T16:46:01Z</time>
      </trkpt>
      <trkpt lat="28.3368020" lon="-16.5087150">
        <ele>1695.9</ele>
        <time>2020-11-11T16:46:02Z</time>
      </trkpt>
      <trkpt lat="28.3367980" lon="-16.5086670">
        <ele>1695.9</ele>
        <time>2020-11-11T16:46:03Z</time>
      </trkpt>
      <trkpt lat="28.3367980" lon="-16.5086670">
        <ele>1695.9</ele>
        <time>2020-11-11T16:46:04Z</time>
      </trkpt>
      <trkpt lat="28.3367850" lon="-16.5086330">
        <ele>1695.9</ele>
        <time>2020-11-11T16:46:05Z</time>
      </trkpt>
      <trkpt lat="28.3367780" lon="-16.5086170">
        <ele>1695.9</ele>
        <time>2020-11-11T16:46:06Z</time>
      </trkpt>
      <trkpt lat="28.3367780" lon="-16.5086170">
        <ele>1696.9</ele>
        <time>2020-11-11T16:46:07Z</time>
      </trkpt>
      <trkpt lat="28.3367700" lon="-16.5085850">
        <ele>1696.9</ele>
        <time>2020-11-11T16:46:08Z</time>
      </trkpt>
      <trkpt lat="28.3367700" lon="-16.5085850">
        <ele>1696.9</ele>
        <time>2020-11-11T16:46:09Z</time>
      </trkpt>
      <trkpt lat="28.3367630" lon="-16.5085500">
        <ele>1696.9</ele>
        <time>2020-11-11T16:46:10Z</time>
      </trkpt>
      <trkpt lat="28.3367630" lon="-16.5085500">
        <ele>1697.9</ele>
        <time>2020-11-11T16:46:11Z</time>
      </trkpt>
      <trkpt lat="28.3367570" lon="-16.5085100">
        <ele>1697.9</ele>
        <time>2020-11-11T16:46:12Z</time>
      </trkpt>
      <trkpt lat="28.3367570" lon="-16.5085100">
        <ele>1698.9</ele>
        <time>2020-11-11T16:46:13Z</time>
      </trkpt>
      <trkpt lat="28.3367420" lon="-16.5084700">
        <ele>1698.9</ele>
        <time>2020-11-11T16:46:14Z</time>
      </trkpt>
      <trkpt lat="28.3367420" lon="-16.5084700">
        <ele>1698.9</ele>
        <time>2020-11-11T16:46:15Z</time>
      </trkpt>
      <trkpt lat="28.3367250" lon="-16.5084300">
        <ele>1698.9</ele>
        <time>2020-11-11T16:46:16Z</time>
      </trkpt>
      <trkpt lat="28.3367230" lon="-16.5084100">
        <ele>1698.9</ele>
        <time>2020-11-11T16:46:17Z</time>
      </trkpt>
      <trkpt lat="28.3367230" lon="-16.5084100">
        <ele>1698.9</ele>
        <time>2020-11-11T16:46:18Z</time>
      </trkpt>
      <trkpt lat="28.3367270" lon="-16.5083700">
        <ele>1698.9</ele>
        <time>2020-11-11T16:46:19Z</time>
      </trkpt>
      <trkpt lat="28.3367270" lon="-16.5083700">
        <ele>1698.9</ele>
        <time>2020-11-11T16:46:20Z</time>
      </trkpt>
      <trkpt lat="28.3367280" lon="-16.5083350">
        <ele>1698.9</ele>
        <time>2020-11-11T16:46:21Z</time>
      </trkpt>
      <trkpt lat="28.3367320" lon="-16.5083180">
        <ele>1698.9</ele>
        <time>2020-11-11T16:46:22Z</time>
      </trkpt>
      <trkpt lat="28.3367320" lon="-16.5083180">
        <ele>1697.9</ele>
        <time>2020-11-11T16:46:23Z</time>
      </trkpt>
      <trkpt lat="28.3367400" lon="-16.5082830">
        <ele>1697.9</ele>
        <time>2020-11-11T16:46:24Z</time>
      </trkpt>
      <trkpt lat="28.3367400" lon="-16.5082830">
        <ele>1699.9</ele>
        <time>2020-11-11T16:46:25Z</time>
      </trkpt>
      <trkpt lat="28.3367400" lon="-16.5082400">
        <ele>1699.9</ele>
        <time>2020-11-11T16:46:26Z</time>
      </trkpt>
      <trkpt lat="28.3367420" lon="-16.5082200">
        <ele>1699.9</ele>
        <time>2020-11-11T16:46:27Z</time>
      </trkpt>
      <trkpt lat="28.3367420" lon="-16.5082200">
        <ele>1699.9</ele>
        <time>2020-11-11T16:46:28Z</time>
      </trkpt>
      <trkpt lat="28.3367470" lon="-16.5081770">
        <ele>1699.9</ele>
        <time>2020-11-11T16:46:29Z</time>
      </trkpt>
      <trkpt lat="28.3367470" lon="-16.5081770">
        <ele>1699.9</ele>
        <time>2020-11-11T16:46:30Z</time>
      </trkpt>
      <trkpt lat="28.3367430" lon="-16.5081400">
        <ele>1699.9</ele>
        <time>2020-11-11T16:46:31Z</time>
      </trkpt>
      <trkpt lat="28.3367450" lon="-16.5081150">
        <ele>1699.9</ele>
        <time>2020-11-11T16:46:32Z</time>
      </trkpt>
      <trkpt lat="28.3367450" lon="-16.5081150">
        <ele>1699.9</ele>
        <time>2020-11-11T16:46:33Z</time>
      </trkpt>
      <trkpt lat="28.3367450" lon="-16.5080570">
        <ele>1700.9</ele>
        <time>2020-11-11T16:46:34Z</time>
      </trkpt>
      <trkpt lat="28.3367450" lon="-16.5080570">
        <ele>1700.9</ele>
        <time>2020-11-11T16:46:35Z</time>
      </trkpt>
      <trkpt lat="28.3367470" lon="-16.5080080">
        <ele>1700.9</ele>
        <time>2020-11-11T16:46:36Z</time>
      </trkpt>
      <trkpt lat="28.3367480" lon="-16.5079880">
        <ele>1700.9</ele>
        <time>2020-11-11T16:46:37Z</time>
      </trkpt>
      <trkpt lat="28.3367480" lon="-16.5079880">
        <ele>1700.9</ele>
        <time>2020-11-11T16:46:38Z</time>
      </trkpt>
      <trkpt lat="28.3367480" lon="-16.5079470">
        <ele>1700.9</ele>
        <time>2020-11-11T16:46:39Z</time>
      </trkpt>
      <trkpt lat="28.3367520" lon="-16.5079220">
        <ele>1700.9</ele>
        <time>2020-11-11T16:46:40Z</time>
      </trkpt>
      <trkpt lat="28.3367520" lon="-16.5079220">
        <ele>1700.9</ele>
        <time>2020-11-11T16:46:41Z</time>
      </trkpt>
      <trkpt lat="28.3367620" lon="-16.5078780">
        <ele>1701.9</ele>
        <time>2020-11-11T16:46:42Z</time>
      </trkpt>
      <trkpt lat="28.3367620" lon="-16.5078780">
        <ele>1701.9</ele>
        <time>2020-11-11T16:46:43Z</time>
      </trkpt>
      <trkpt lat="28.3367820" lon="-16.5078330">
        <ele>1701.9</ele>
        <time>2020-11-11T16:46:44Z</time>
      </trkpt>
      <trkpt lat="28.3367820" lon="-16.5078330">
        <ele>1701.9</ele>
        <time>2020-11-11T16:46:45Z</time>
      </trkpt>
      <trkpt lat="28.3367920" lon="-16.5077950">
        <ele>1701.9</ele>
        <time>2020-11-11T16:46:46Z</time>
      </trkpt>
      <trkpt lat="28.3367920" lon="-16.5077950">
        <ele>1701.9</ele>
        <time>2020-11-11T16:46:47Z</time>
      </trkpt>
      <trkpt lat="28.3368030" lon="-16.5077520">
        <ele>1702.9</ele>
        <time>2020-11-11T16:46:48Z</time>
      </trkpt>
      <trkpt lat="28.3368030" lon="-16.5077520">
        <ele>1702.9</ele>
        <time>2020-11-11T16:46:49Z</time>
      </trkpt>
      <trkpt lat="28.3368100" lon="-16.5077070">
        <ele>1702.9</ele>
        <time>2020-11-11T16:46:50Z</time>
      </trkpt>
      <trkpt lat="28.3368100" lon="-16.5077070">
        <ele>1702.9</ele>
        <time>2020-11-11T16:46:51Z</time>
      </trkpt>
      <trkpt lat="28.3368080" lon="-16.5076630">
        <ele>1702.9</ele>
        <time>2020-11-11T16:46:52Z</time>
      </trkpt>
      <trkpt lat="28.3368080" lon="-16.5076630">
        <ele>1703.9</ele>
        <time>2020-11-11T16:46:53Z</time>
      </trkpt>
      <trkpt lat="28.3368000" lon="-16.5076250">
        <ele>1703.9</ele>
        <time>2020-11-11T16:46:54Z</time>
      </trkpt>
      <trkpt lat="28.3368000" lon="-16.5076250">
        <ele>1703.9</ele>
        <time>2020-11-11T16:46:55Z</time>
      </trkpt>
      <trkpt lat="28.3367870" lon="-16.5075580">
        <ele>1703.9</ele>
        <time>2020-11-11T16:46:56Z</time>
      </trkpt>
      <trkpt lat="28.3367870" lon="-16.5075580">
        <ele>1703.9</ele>
        <time>2020-11-11T16:46:57Z</time>
      </trkpt>
      <trkpt lat="28.3367800" lon="-16.5075050">
        <ele>1703.9</ele>
        <time>2020-11-11T16:46:58Z</time>
      </trkpt>
      <trkpt lat="28.3367800" lon="-16.5075050">
        <ele>1704.9</ele>
        <time>2020-11-11T16:46:59Z</time>
      </trkpt>
      <trkpt lat="28.3367730" lon="-16.5074480">
        <ele>1704.9</ele>
        <time>2020-11-11T16:47:00Z</time>
      </trkpt>
      <trkpt lat="28.3367680" lon="-16.5074250">
        <ele>1704.9</ele>
        <time>2020-11-11T16:47:01Z</time>
      </trkpt>
      <trkpt lat="28.3367680" lon="-16.5074250">
        <ele>1704.9</ele>
        <time>2020-11-11T16:47:02Z</time>
      </trkpt>
      <trkpt lat="28.3367680" lon="-16.5073800">
        <ele>1704.9</ele>
        <time>2020-11-11T16:47:03Z</time>
      </trkpt>
      <trkpt lat="28.3367680" lon="-16.5073800">
        <ele>1704.9</ele>
        <time>2020-11-11T16:47:04Z</time>
      </trkpt>
      <trkpt lat="28.3367650" lon="-16.5073370">
        <ele>1704.9</ele>
        <time>2020-11-11T16:47:05Z</time>
      </trkpt>
      <trkpt lat="28.3367650" lon="-16.5073370">
        <ele>1704.9</ele>
        <time>2020-11-11T16:47:06Z</time>
      </trkpt>
      <trkpt lat="28.3367780" lon="-16.5072880">
        <ele>1704.9</ele>
        <time>2020-11-11T16:47:07Z</time>
      </trkpt>
      <trkpt lat="28.3367780" lon="-16.5072880">
        <ele>1704.9</ele>
        <time>2020-11-11T16:47:08Z</time>
      </trkpt>
      <trkpt lat="28.3367680" lon="-16.5072450">
        <ele>1704.9</ele>
        <time>2020-11-11T16:47:09Z</time>
      </trkpt>
      <trkpt lat="28.3367750" lon="-16.5072250">
        <ele>1704.9</ele>
        <time>2020-11-11T16:47:10Z</time>
      </trkpt>
      <trkpt lat="28.3367750" lon="-16.5072250">
        <ele>1704.9</ele>
        <time>2020-11-11T16:47:11Z</time>
      </trkpt>
      <trkpt lat="28.3367870" lon="-16.5071800">
        <ele>1704.9</ele>
        <time>2020-11-11T16:47:12Z</time>
      </trkpt>
      <trkpt lat="28.3367870" lon="-16.5071800">
        <ele>1704.9</ele>
        <time>2020-11-11T16:47:13Z</time>
      </trkpt>
      <trkpt lat="28.3367970" lon="-16.5071320">
        <ele>1704.9</ele>
        <time>2020-11-11T16:47:14Z</time>
      </trkpt>
      <trkpt lat="28.3367970" lon="-16.5071320">
        <ele>1705.9</ele>
        <time>2020-11-11T16:47:15Z</time>
      </trkpt>
      <trkpt lat="28.3367980" lon="-16.5070900">
        <ele>1705.9</ele>
        <time>2020-11-11T16:47:16Z</time>
      </trkpt>
      <trkpt lat="28.3367980" lon="-16.5070900">
        <ele>1705.9</ele>
        <time>2020-11-11T16:47:17Z</time>
      </trkpt>
      <trkpt lat="28.3368030" lon="-16.5070380">
        <ele>1705.9</ele>
        <time>2020-11-11T16:47:18Z</time>
      </trkpt>
      <trkpt lat="28.3368030" lon="-16.5070380">
        <ele>1705.9</ele>
        <time>2020-11-11T16:47:19Z</time>
      </trkpt>
      <trkpt lat="28.3368120" lon="-16.5069930">
        <ele>1705.9</ele>
        <time>2020-11-11T16:47:20Z</time>
      </trkpt>
      <trkpt lat="28.3368120" lon="-16.5069930">
        <ele>1705.9</ele>
        <time>2020-11-11T16:47:21Z</time>
      </trkpt>
      <trkpt lat="28.3368200" lon="-16.5069520">
        <ele>1705.9</ele>
        <time>2020-11-11T16:47:22Z</time>
      </trkpt>
      <trkpt lat="28.3368270" lon="-16.5069280">
        <ele>1705.9</ele>
        <time>2020-11-11T16:47:23Z</time>
      </trkpt>
      <trkpt lat="28.3368270" lon="-16.5069280">
        <ele>1705.9</ele>
        <time>2020-11-11T16:47:24Z</time>
      </trkpt>
      <trkpt lat="28.3368370" lon="-16.5068880">
        <ele>1706.9</ele>
        <time>2020-11-11T16:47:25Z</time>
      </trkpt>
      <trkpt lat="28.3368370" lon="-16.5068880">
        <ele>1706.9</ele>
        <time>2020-11-11T16:47:26Z</time>
      </trkpt>
      <trkpt lat="28.3368400" lon="-16.5068470">
        <ele>1706.9</ele>
        <time>2020-11-11T16:47:27Z</time>
      </trkpt>
      <trkpt lat="28.3368350" lon="-16.5068200">
        <ele>1706.9</ele>
        <time>2020-11-11T16:47:28Z</time>
      </trkpt>
      <trkpt lat="28.3368350" lon="-16.5068200">
        <ele>1706.9</ele>
        <time>2020-11-11T16:47:29Z</time>
      </trkpt>
      <trkpt lat="28.3368330" lon="-16.5067820">
        <ele>1706.9</ele>
        <time>2020-11-11T16:47:30Z</time>
      </trkpt>
      <trkpt lat="28.3368370" lon="-16.5067550">
        <ele>1706.9</ele>
        <time>2020-11-11T16:47:31Z</time>
      </trkpt>
      <trkpt lat="28.3368370" lon="-16.5067550">
        <ele>1706.9</ele>
        <time>2020-11-11T16:47:32Z</time>
      </trkpt>
      <trkpt lat="28.3368580" lon="-16.5067070">
        <ele>1707.9</ele>
        <time>2020-11-11T16:47:33Z</time>
      </trkpt>
      <trkpt lat="28.3368650" lon="-16.5066820">
        <ele>1707.9</ele>
        <time>2020-11-11T16:47:34Z</time>
      </trkpt>
      <trkpt lat="28.3368650" lon="-16.5066820">
        <ele>1707.9</ele>
        <time>2020-11-11T16:47:35Z</time>
      </trkpt>
      <trkpt lat="28.3368730" lon="-16.5066330">
        <ele>1707.9</ele>
        <time>2020-11-11T16:47:36Z</time>
      </trkpt>
      <trkpt lat="28.3368730" lon="-16.5066100">
        <ele>1707.9</ele>
        <time>2020-11-11T16:47:37Z</time>
      </trkpt>
      <trkpt lat="28.3368730" lon="-16.5066100">
        <ele>1707.9</ele>
        <time>2020-11-11T16:47:38Z</time>
      </trkpt>
      <trkpt lat="28.3368750" lon="-16.5065700">
        <ele>1708.9</ele>
        <time>2020-11-11T16:47:39Z</time>
      </trkpt>
      <trkpt lat="28.3368750" lon="-16.5065470">
        <ele>1708.9</ele>
        <time>2020-11-11T16:47:40Z</time>
      </trkpt>
      <trkpt lat="28.3368750" lon="-16.5065470">
        <ele>1708.9</ele>
        <time>2020-11-11T16:47:41Z</time>
      </trkpt>
      <trkpt lat="28.3368700" lon="-16.5064980">
        <ele>1708.9</ele>
        <time>2020-11-11T16:47:42Z</time>
      </trkpt>
      <trkpt lat="28.3368700" lon="-16.5064980">
        <ele>1708.9</ele>
        <time>2020-11-11T16:47:43Z</time>
      </trkpt>
      <trkpt lat="28.3368720" lon="-16.5064580">
        <ele>1708.9</ele>
        <time>2020-11-11T16:47:44Z</time>
      </trkpt>
      <trkpt lat="28.3368720" lon="-16.5064580">
        <ele>1708.9</ele>
        <time>2020-11-11T16:47:45Z</time>
      </trkpt>
      <trkpt lat="28.3368680" lon="-16.5064120">
        <ele>1708.9</ele>
        <time>2020-11-11T16:47:46Z</time>
      </trkpt>
      <trkpt lat="28.3368680" lon="-16.5064120">
        <ele>1708.9</ele>
        <time>2020-11-11T16:47:47Z</time>
      </trkpt>
      <trkpt lat="28.3368670" lon="-16.5063650">
        <ele>1709.9</ele>
        <time>2020-11-11T16:47:48Z</time>
      </trkpt>
      <trkpt lat="28.3368670" lon="-16.5063650">
        <ele>1709.9</ele>
        <time>2020-11-11T16:47:49Z</time>
      </trkpt>
      <trkpt lat="28.3368530" lon="-16.5063250">
        <ele>1709.9</ele>
        <time>2020-11-11T16:47:50Z</time>
      </trkpt>
      <trkpt lat="28.3368530" lon="-16.5063250">
        <ele>1709.9</ele>
        <time>2020-11-11T16:47:51Z</time>
      </trkpt>
      <trkpt lat="28.3368480" lon="-16.5062830">
        <ele>1709.9</ele>
        <time>2020-11-11T16:47:52Z</time>
      </trkpt>
      <trkpt lat="28.3368480" lon="-16.5062830">
        <ele>1709.9</ele>
        <time>2020-11-11T16:47:53Z</time>
      </trkpt>
      <trkpt lat="28.3368420" lon="-16.5062420">
        <ele>1710.9</ele>
        <time>2020-11-11T16:47:54Z</time>
      </trkpt>
      <trkpt lat="28.3368430" lon="-16.5062170">
        <ele>1710.9</ele>
        <time>2020-11-11T16:47:55Z</time>
      </trkpt>
      <trkpt lat="28.3368430" lon="-16.5062170">
        <ele>1710.9</ele>
        <time>2020-11-11T16:47:56Z</time>
      </trkpt>
      <trkpt lat="28.3368330" lon="-16.5061680">
        <ele>1710.9</ele>
        <time>2020-11-11T16:47:57Z</time>
      </trkpt>
      <trkpt lat="28.3368100" lon="-16.5061420">
        <ele>1711.9</ele>
        <time>2020-11-11T16:47:58Z</time>
      </trkpt>
      <trkpt lat="28.3368100" lon="-16.5061420">
        <ele>1711.9</ele>
        <time>2020-11-11T16:47:59Z</time>
      </trkpt>
      <trkpt lat="28.3367900" lon="-16.5060920">
        <ele>1711.9</ele>
        <time>2020-11-11T16:48:00Z</time>
      </trkpt>
      <trkpt lat="28.3367900" lon="-16.5060920">
        <ele>1711.9</ele>
        <time>2020-11-11T16:48:01Z</time>
      </trkpt>
      <trkpt lat="28.3367850" lon="-16.5060430">
        <ele>1712.9</ele>
        <time>2020-11-11T16:48:02Z</time>
      </trkpt>
      <trkpt lat="28.3367850" lon="-16.5060430">
        <ele>1712.9</ele>
        <time>2020-11-11T16:48:03Z</time>
      </trkpt>
      <trkpt lat="28.3367880" lon="-16.5059880">
        <ele>1712.9</ele>
        <time>2020-11-11T16:48:04Z</time>
      </trkpt>
      <trkpt lat="28.3367880" lon="-16.5059880">
        <ele>1712.9</ele>
        <time>2020-11-11T16:48:05Z</time>
      </trkpt>
      <trkpt lat="28.3368050" lon="-16.5059420">
        <ele>1713.9</ele>
        <time>2020-11-11T16:48:06Z</time>
      </trkpt>
      <trkpt lat="28.3368050" lon="-16.5059420">
        <ele>1713.9</ele>
        <time>2020-11-11T16:48:07Z</time>
      </trkpt>
      <trkpt lat="28.3368350" lon="-16.5058950">
        <ele>1713.9</ele>
        <time>2020-11-11T16:48:08Z</time>
      </trkpt>
      <trkpt lat="28.3368470" lon="-16.5058750">
        <ele>1713.9</ele>
        <time>2020-11-11T16:48:09Z</time>
      </trkpt>
      <trkpt lat="28.3368470" lon="-16.5058750">
        <ele>1713.9</ele>
        <time>2020-11-11T16:48:10Z</time>
      </trkpt>
      <trkpt lat="28.3368650" lon="-16.5058370">
        <ele>1713.9</ele>
        <time>2020-11-11T16:48:11Z</time>
      </trkpt>
      <trkpt lat="28.3368650" lon="-16.5058370">
        <ele>1714.9</ele>
        <time>2020-11-11T16:48:12Z</time>
      </trkpt>
      <trkpt lat="28.3368880" lon="-16.5057920">
        <ele>1714.9</ele>
        <time>2020-11-11T16:48:13Z</time>
      </trkpt>
      <trkpt lat="28.3368880" lon="-16.5057920">
        <ele>1714.9</ele>
        <time>2020-11-11T16:48:14Z</time>
      </trkpt>
      <trkpt lat="28.3368980" lon="-16.5057480">
        <ele>1714.9</ele>
        <time>2020-11-11T16:48:15Z</time>
      </trkpt>
      <trkpt lat="28.3368980" lon="-16.5057480">
        <ele>1714.9</ele>
        <time>2020-11-11T16:48:16Z</time>
      </trkpt>
      <trkpt lat="28.3369000" lon="-16.5057020">
        <ele>1714.9</ele>
        <time>2020-11-11T16:48:17Z</time>
      </trkpt>
      <trkpt lat="28.3369000" lon="-16.5057020">
        <ele>1714.9</ele>
        <time>2020-11-11T16:48:18Z</time>
      </trkpt>
      <trkpt lat="28.3368820" lon="-16.5056630">
        <ele>1714.9</ele>
        <time>2020-11-11T16:48:19Z</time>
      </trkpt>
      <trkpt lat="28.3368820" lon="-16.5056630">
        <ele>1714.9</ele>
        <time>2020-11-11T16:48:20Z</time>
      </trkpt>
      <trkpt lat="28.3368530" lon="-16.5056330">
        <ele>1714.9</ele>
        <time>2020-11-11T16:48:21Z</time>
      </trkpt>
      <trkpt lat="28.3368530" lon="-16.5056330">
        <ele>1715.9</ele>
        <time>2020-11-11T16:48:22Z</time>
      </trkpt>
      <trkpt lat="28.3368220" lon="-16.5056120">
        <ele>1715.9</ele>
        <time>2020-11-11T16:48:23Z</time>
      </trkpt>
      <trkpt lat="28.3368220" lon="-16.5056120">
        <ele>1715.9</ele>
        <time>2020-11-11T16:48:24Z</time>
      </trkpt>
      <trkpt lat="28.3367880" lon="-16.5056020">
        <ele>1715.9</ele>
        <time>2020-11-11T16:48:25Z</time>
      </trkpt>
      <trkpt lat="28.3367880" lon="-16.5056020">
        <ele>1716.9</ele>
        <time>2020-11-11T16:48:26Z</time>
      </trkpt>
      <trkpt lat="28.3367620" lon="-16.5056000">
        <ele>1716.9</ele>
        <time>2020-11-11T16:48:27Z</time>
      </trkpt>
      <trkpt lat="28.3367620" lon="-16.5056000">
        <ele>1716.9</ele>
        <time>2020-11-11T16:48:28Z</time>
      </trkpt>
      <trkpt lat="28.3367250" lon="-16.5056050">
        <ele>1716.9</ele>
        <time>2020-11-11T16:48:29Z</time>
      </trkpt>
      <trkpt lat="28.3367250" lon="-16.5056050">
        <ele>1716.9</ele>
        <time>2020-11-11T16:48:30Z</time>
      </trkpt>
      <trkpt lat="28.3366930" lon="-16.5056250">
        <ele>1716.9</ele>
        <time>2020-11-11T16:48:31Z</time>
      </trkpt>
      <trkpt lat="28.3366930" lon="-16.5056250">
        <ele>1717.9</ele>
        <time>2020-11-11T16:48:32Z</time>
      </trkpt>
      <trkpt lat="28.3366650" lon="-16.5056550">
        <ele>1717.9</ele>
        <time>2020-11-11T16:48:33Z</time>
      </trkpt>
      <trkpt lat="28.3366520" lon="-16.5056700">
        <ele>1717.9</ele>
        <time>2020-11-11T16:48:34Z</time>
      </trkpt>
      <trkpt lat="28.3366520" lon="-16.5056700">
        <ele>1717.9</ele>
        <time>2020-11-11T16:48:35Z</time>
      </trkpt>
      <trkpt lat="28.3366130" lon="-16.5057030">
        <ele>1717.9</ele>
        <time>2020-11-11T16:48:36Z</time>
      </trkpt>
      <trkpt lat="28.3365950" lon="-16.5057180">
        <ele>1717.9</ele>
        <time>2020-11-11T16:48:37Z</time>
      </trkpt>
      <trkpt lat="28.3365950" lon="-16.5057180">
        <ele>1718.9</ele>
        <time>2020-11-11T16:48:38Z</time>
      </trkpt>
      <trkpt lat="28.3365650" lon="-16.5057470">
        <ele>1718.9</ele>
        <time>2020-11-11T16:48:39Z</time>
      </trkpt>
      <trkpt lat="28.3365650" lon="-16.5057470">
        <ele>1718.9</ele>
        <time>2020-11-11T16:48:40Z</time>
      </trkpt>
      <trkpt lat="28.3365230" lon="-16.5057820">
        <ele>1718.9</ele>
        <time>2020-11-11T16:48:41Z</time>
      </trkpt>
      <trkpt lat="28.3365230" lon="-16.5057820">
        <ele>1718.9</ele>
        <time>2020-11-11T16:48:42Z</time>
      </trkpt>
      <trkpt lat="28.3364930" lon="-16.5058270">
        <ele>1718.9</ele>
        <time>2020-11-11T16:48:43Z</time>
      </trkpt>
      <trkpt lat="28.3364930" lon="-16.5058270">
        <ele>1718.9</ele>
        <time>2020-11-11T16:48:44Z</time>
      </trkpt>
      <trkpt lat="28.3364870" lon="-16.5058750">
        <ele>1718.9</ele>
        <time>2020-11-11T16:48:45Z</time>
      </trkpt>
      <trkpt lat="28.3364870" lon="-16.5058750">
        <ele>1719.9</ele>
        <time>2020-11-11T16:48:46Z</time>
      </trkpt>
      <trkpt lat="28.3364930" lon="-16.5059170">
        <ele>1719.9</ele>
        <time>2020-11-11T16:48:47Z</time>
      </trkpt>
      <trkpt lat="28.3364930" lon="-16.5059170">
        <ele>1719.9</ele>
        <time>2020-11-11T16:48:48Z</time>
      </trkpt>
      <trkpt lat="28.3364950" lon="-16.5059270">
        <ele>1719.9</ele>
        <time>2020-11-11T16:48:49Z</time>
      </trkpt>
      <trkpt lat="28.3364950" lon="-16.5059270">
        <ele>1719.9</ele>
        <time>2020-11-11T16:48:50Z</time>
      </trkpt>
      <trkpt lat="28.3364950" lon="-16.5059300">
        <ele>1719.9</ele>
        <time>2020-11-11T16:48:51Z</time>
      </trkpt>
      <trkpt lat="28.3364950" lon="-16.5059300">
        <ele>1719.9</ele>
        <time>2020-11-11T16:48:52Z</time>
      </trkpt>
      <trkpt lat="28.3364950" lon="-16.5059300">
        <ele>1719.9</ele>
        <time>2020-11-11T16:48:53Z</time>
      </trkpt>
      <trkpt lat="28.3364950" lon="-16.5059300">
        <ele>1719.9</ele>
        <time>2020-11-11T16:48:54Z</time>
      </trkpt>
      <trkpt lat="28.3364950" lon="-16.5059300">
        <ele>1719.9</ele>
        <time>2020-11-11T16:54:12Z</time>
      </trkpt>
      <trkpt lat="28.3364700" lon="-16.5060100">
        <ele>1719.9</ele>
        <time>2020-11-11T16:54:13Z</time>
      </trkpt>
      <trkpt lat="28.3364700" lon="-16.5060100">
        <ele>1719.9</ele>
        <time>2020-11-11T16:54:14Z</time>
      </trkpt>
      <trkpt lat="28.3364670" lon="-16.5060530">
        <ele>1719.9</ele>
        <time>2020-11-11T16:54:15Z</time>
      </trkpt>
      <trkpt lat="28.3364670" lon="-16.5060530">
        <ele>1719.9</ele>
        <time>2020-11-11T16:54:16Z</time>
      </trkpt>
      <trkpt lat="28.3364580" lon="-16.5060950">
        <ele>1719.9</ele>
        <time>2020-11-11T16:54:17Z</time>
      </trkpt>
      <trkpt lat="28.3364580" lon="-16.5060950">
        <ele>1719.9</ele>
        <time>2020-11-11T16:54:18Z</time>
      </trkpt>
      <trkpt lat="28.3364500" lon="-16.5061330">
        <ele>1719.9</ele>
        <time>2020-11-11T16:54:19Z</time>
      </trkpt>
      <trkpt lat="28.3364500" lon="-16.5061330">
        <ele>1719.9</ele>
        <time>2020-11-11T16:54:20Z</time>
      </trkpt>
      <trkpt lat="28.3364350" lon="-16.5061650">
        <ele>1719.9</ele>
        <time>2020-11-11T16:54:21Z</time>
      </trkpt>
      <trkpt lat="28.3364270" lon="-16.5061780">
        <ele>1719.9</ele>
        <time>2020-11-11T16:54:22Z</time>
      </trkpt>
      <trkpt lat="28.3364270" lon="-16.5061780">
        <ele>1720.9</ele>
        <time>2020-11-11T16:54:23Z</time>
      </trkpt>
      <trkpt lat="28.3364170" lon="-16.5062020">
        <ele>1720.9</ele>
        <time>2020-11-11T16:54:24Z</time>
      </trkpt>
      <trkpt lat="28.3364170" lon="-16.5062020">
        <ele>1720.9</ele>
        <time>2020-11-11T16:54:25Z</time>
      </trkpt>
      <trkpt lat="28.3364170" lon="-16.5062020">
        <ele>1720.9</ele>
        <time>2020-11-11T16:54:26Z</time>
      </trkpt>
      <trkpt lat="28.3364070" lon="-16.5062380">
        <ele>1720.9</ele>
        <time>2020-11-11T16:54:27Z</time>
      </trkpt>
      <trkpt lat="28.3364070" lon="-16.5062380">
        <ele>1720.9</ele>
        <time>2020-11-11T16:54:28Z</time>
      </trkpt>
      <trkpt lat="28.3364020" lon="-16.5062770">
        <ele>1720.9</ele>
        <time>2020-11-11T16:54:29Z</time>
      </trkpt>
      <trkpt lat="28.3364020" lon="-16.5062770">
        <ele>1720.9</ele>
        <time>2020-11-11T16:54:30Z</time>
      </trkpt>
      <trkpt lat="28.3363920" lon="-16.5063220">
        <ele>1720.9</ele>
        <time>2020-11-11T16:54:31Z</time>
      </trkpt>
      <trkpt lat="28.3363920" lon="-16.5063220">
        <ele>1721.9</ele>
        <time>2020-11-11T16:54:32Z</time>
      </trkpt>
      <trkpt lat="28.3363800" lon="-16.5063630">
        <ele>1721.9</ele>
        <time>2020-11-11T16:54:33Z</time>
      </trkpt>
      <trkpt lat="28.3363800" lon="-16.5063630">
        <ele>1721.9</ele>
        <time>2020-11-11T16:54:34Z</time>
      </trkpt>
      <trkpt lat="28.3363680" lon="-16.5064120">
        <ele>1721.9</ele>
        <time>2020-11-11T16:54:35Z</time>
      </trkpt>
      <trkpt lat="28.3363580" lon="-16.5064300">
        <ele>1721.9</ele>
        <time>2020-11-11T16:54:36Z</time>
      </trkpt>
      <trkpt lat="28.3363470" lon="-16.5064430">
        <ele>1721.9</ele>
        <time>2020-11-11T16:54:37Z</time>
      </trkpt>
      <trkpt lat="28.3363470" lon="-16.5064430">
        <ele>1722.9</ele>
        <time>2020-11-11T16:54:38Z</time>
      </trkpt>
      <trkpt lat="28.3363270" lon="-16.5064800">
        <ele>1722.9</ele>
        <time>2020-11-11T16:54:39Z</time>
      </trkpt>
      <trkpt lat="28.3363270" lon="-16.5064800">
        <ele>1722.9</ele>
        <time>2020-11-11T16:54:40Z</time>
      </trkpt>
      <trkpt lat="28.3363270" lon="-16.5064800">
        <ele>1722.9</ele>
        <time>2020-11-11T16:54:41Z</time>
      </trkpt>
      <trkpt lat="28.3363100" lon="-16.5065230">
        <ele>1722.9</ele>
        <time>2020-11-11T16:54:42Z</time>
      </trkpt>
      <trkpt lat="28.3362930" lon="-16.5065600">
        <ele>1722.9</ele>
        <time>2020-11-11T16:54:43Z</time>
      </trkpt>
      <trkpt lat="28.3362930" lon="-16.5065600">
        <ele>1722.9</ele>
        <time>2020-11-11T16:54:44Z</time>
      </trkpt>
      <trkpt lat="28.3362730" lon="-16.5065970">
        <ele>1722.9</ele>
        <time>2020-11-11T16:54:45Z</time>
      </trkpt>
      <trkpt lat="28.3362730" lon="-16.5065970">
        <ele>1722.9</ele>
        <time>2020-11-11T16:54:46Z</time>
      </trkpt>
      <trkpt lat="28.3362450" lon="-16.5066380">
        <ele>1722.9</ele>
        <time>2020-11-11T16:54:47Z</time>
      </trkpt>
      <trkpt lat="28.3362450" lon="-16.5066380">
        <ele>1723.9</ele>
        <time>2020-11-11T16:54:48Z</time>
      </trkpt>
      <trkpt lat="28.3362170" lon="-16.5066870">
        <ele>1723.9</ele>
        <time>2020-11-11T16:54:49Z</time>
      </trkpt>
      <trkpt lat="28.3362170" lon="-16.5066870">
        <ele>1723.9</ele>
        <time>2020-11-11T16:54:50Z</time>
      </trkpt>
      <trkpt lat="28.3361950" lon="-16.5067200">
        <ele>1723.9</ele>
        <time>2020-11-11T16:54:51Z</time>
      </trkpt>
      <trkpt lat="28.3361830" lon="-16.5067380">
        <ele>1723.9</ele>
        <time>2020-11-11T16:54:52Z</time>
      </trkpt>
      <trkpt lat="28.3361830" lon="-16.5067380">
        <ele>1724.9</ele>
        <time>2020-11-11T16:54:53Z</time>
      </trkpt>
      <trkpt lat="28.3361630" lon="-16.5067800">
        <ele>1724.9</ele>
        <time>2020-11-11T16:54:54Z</time>
      </trkpt>
      <trkpt lat="28.3361630" lon="-16.5067800">
        <ele>1724.9</ele>
        <time>2020-11-11T16:54:55Z</time>
      </trkpt>
      <trkpt lat="28.3361570" lon="-16.5068170">
        <ele>1724.9</ele>
        <time>2020-11-11T16:54:56Z</time>
      </trkpt>
      <trkpt lat="28.3361570" lon="-16.5068170">
        <ele>1724.9</ele>
        <time>2020-11-11T16:54:57Z</time>
      </trkpt>
      <trkpt lat="28.3361400" lon="-16.5068450">
        <ele>1724.9</ele>
        <time>2020-11-11T16:54:58Z</time>
      </trkpt>
      <trkpt lat="28.3361400" lon="-16.5068450">
        <ele>1724.9</ele>
        <time>2020-11-11T16:54:59Z</time>
      </trkpt>
      <trkpt lat="28.3361280" lon="-16.5068770">
        <ele>1724.9</ele>
        <time>2020-11-11T16:55:00Z</time>
      </trkpt>
      <trkpt lat="28.3361300" lon="-16.5069000">
        <ele>1724.9</ele>
        <time>2020-11-11T16:55:01Z</time>
      </trkpt>
      <trkpt lat="28.3361300" lon="-16.5069000">
        <ele>1724.9</ele>
        <time>2020-11-11T16:55:02Z</time>
      </trkpt>
      <trkpt lat="28.3361220" lon="-16.5069400">
        <ele>1724.9</ele>
        <time>2020-11-11T16:55:03Z</time>
      </trkpt>
      <trkpt lat="28.3361220" lon="-16.5069400">
        <ele>1724.9</ele>
        <time>2020-11-11T16:55:04Z</time>
      </trkpt>
      <trkpt lat="28.3361030" lon="-16.5069750">
        <ele>1725.9</ele>
        <time>2020-11-11T16:55:05Z</time>
      </trkpt>
      <trkpt lat="28.3361030" lon="-16.5069750">
        <ele>1725.9</ele>
        <time>2020-11-11T16:55:06Z</time>
      </trkpt>
      <trkpt lat="28.3360880" lon="-16.5070220">
        <ele>1725.9</ele>
        <time>2020-11-11T16:55:07Z</time>
      </trkpt>
      <trkpt lat="28.3360880" lon="-16.5070220">
        <ele>1725.9</ele>
        <time>2020-11-11T16:55:08Z</time>
      </trkpt>
      <trkpt lat="28.3360770" lon="-16.5070620">
        <ele>1725.9</ele>
        <time>2020-11-11T16:55:09Z</time>
      </trkpt>
      <trkpt lat="28.3360700" lon="-16.5070820">
        <ele>1725.9</ele>
        <time>2020-11-11T16:55:10Z</time>
      </trkpt>
      <trkpt lat="28.3360700" lon="-16.5070820">
        <ele>1725.9</ele>
        <time>2020-11-11T16:55:11Z</time>
      </trkpt>
      <trkpt lat="28.3360700" lon="-16.5070820">
        <ele>1725.9</ele>
        <time>2020-11-11T16:55:12Z</time>
      </trkpt>
      <trkpt lat="28.3360600" lon="-16.5071170">
        <ele>1725.9</ele>
        <time>2020-11-11T16:55:13Z</time>
      </trkpt>
      <trkpt lat="28.3360520" lon="-16.5071600">
        <ele>1725.9</ele>
        <time>2020-11-11T16:55:14Z</time>
      </trkpt>
      <trkpt lat="28.3360520" lon="-16.5071600">
        <ele>1726.9</ele>
        <time>2020-11-11T16:55:15Z</time>
      </trkpt>
      <trkpt lat="28.3360260" lon="-16.5072230">
        <ele>1726.9</ele>
        <time>2020-11-11T16:55:16Z</time>
      </trkpt>
      <trkpt lat="28.3360180" lon="-16.5072350">
        <ele>1726.9</ele>
        <time>2020-11-11T16:55:17Z</time>
      </trkpt>
      <trkpt lat="28.3360180" lon="-16.5072350">
        <ele>1726.9</ele>
        <time>2020-11-11T16:55:18Z</time>
      </trkpt>
      <trkpt lat="28.3360180" lon="-16.5072350">
        <ele>1726.9</ele>
        <time>2020-11-11T16:55:19Z</time>
      </trkpt>
      <trkpt lat="28.3360020" lon="-16.5072730">
        <ele>1726.9</ele>
        <time>2020-11-11T16:55:20Z</time>
      </trkpt>
      <trkpt lat="28.3359850" lon="-16.5073220">
        <ele>1726.9</ele>
        <time>2020-11-11T16:55:21Z</time>
      </trkpt>
      <trkpt lat="28.3359850" lon="-16.5073220">
        <ele>1726.9</ele>
        <time>2020-11-11T16:55:22Z</time>
      </trkpt>
      <trkpt lat="28.3359670" lon="-16.5073730">
        <ele>1727.9</ele>
        <time>2020-11-11T16:55:23Z</time>
      </trkpt>
      <trkpt lat="28.3359670" lon="-16.5073730">
        <ele>1727.9</ele>
        <time>2020-11-11T16:55:24Z</time>
      </trkpt>
      <trkpt lat="28.3359530" lon="-16.5074130">
        <ele>1727.9</ele>
        <time>2020-11-11T16:55:25Z</time>
      </trkpt>
      <trkpt lat="28.3359470" lon="-16.5074400">
        <ele>1727.9</ele>
        <time>2020-11-11T16:55:26Z</time>
      </trkpt>
      <trkpt lat="28.3359470" lon="-16.5074400">
        <ele>1727.9</ele>
        <time>2020-11-11T16:55:27Z</time>
      </trkpt>
      <trkpt lat="28.3359350" lon="-16.5074720">
        <ele>1727.9</ele>
        <time>2020-11-11T16:55:28Z</time>
      </trkpt>
      <trkpt lat="28.3359350" lon="-16.5074720">
        <ele>1727.9</ele>
        <time>2020-11-11T16:55:29Z</time>
      </trkpt>
      <trkpt lat="28.3359170" lon="-16.5075100">
        <ele>1727.9</ele>
        <time>2020-11-11T16:55:30Z</time>
      </trkpt>
      <trkpt lat="28.3359070" lon="-16.5075220">
        <ele>1727.9</ele>
        <time>2020-11-11T16:55:31Z</time>
      </trkpt>
      <trkpt lat="28.3359070" lon="-16.5075220">
        <ele>1727.9</ele>
        <time>2020-11-11T16:55:32Z</time>
      </trkpt>
      <trkpt lat="28.3358920" lon="-16.5075500">
        <ele>1727.9</ele>
        <time>2020-11-11T16:55:33Z</time>
      </trkpt>
      <trkpt lat="28.3358920" lon="-16.5075500">
        <ele>1728.9</ele>
        <time>2020-11-11T16:55:34Z</time>
      </trkpt>
      <trkpt lat="28.3358770" lon="-16.5075850">
        <ele>1728.9</ele>
        <time>2020-11-11T16:55:35Z</time>
      </trkpt>
      <trkpt lat="28.3358680" lon="-16.5076080">
        <ele>1728.9</ele>
        <time>2020-11-11T16:55:36Z</time>
      </trkpt>
      <trkpt lat="28.3358680" lon="-16.5076080">
        <ele>1728.9</ele>
        <time>2020-11-11T16:55:37Z</time>
      </trkpt>
      <trkpt lat="28.3358520" lon="-16.5076450">
        <ele>1728.9</ele>
        <time>2020-11-11T16:55:38Z</time>
      </trkpt>
      <trkpt lat="28.3358520" lon="-16.5076450">
        <ele>1728.9</ele>
        <time>2020-11-11T16:55:39Z</time>
      </trkpt>
      <trkpt lat="28.3358420" lon="-16.5076780">
        <ele>1728.9</ele>
        <time>2020-11-11T16:55:40Z</time>
      </trkpt>
      <trkpt lat="28.3358370" lon="-16.5077000">
        <ele>1728.9</ele>
        <time>2020-11-11T16:55:41Z</time>
      </trkpt>
      <trkpt lat="28.3358370" lon="-16.5077000">
        <ele>1728.9</ele>
        <time>2020-11-11T16:55:42Z</time>
      </trkpt>
      <trkpt lat="28.3358230" lon="-16.5077480">
        <ele>1728.9</ele>
        <time>2020-11-11T16:55:43Z</time>
      </trkpt>
      <trkpt lat="28.3358230" lon="-16.5077480">
        <ele>1728.9</ele>
        <time>2020-11-11T16:55:44Z</time>
      </trkpt>
      <trkpt lat="28.3358100" lon="-16.5078000">
        <ele>1728.9</ele>
        <time>2020-11-11T16:55:45Z</time>
      </trkpt>
      <trkpt lat="28.3358050" lon="-16.5078280">
        <ele>1728.9</ele>
        <time>2020-11-11T16:55:46Z</time>
      </trkpt>
      <trkpt lat="28.3358050" lon="-16.5078280">
        <ele>1729.9</ele>
        <time>2020-11-11T16:55:47Z</time>
      </trkpt>
      <trkpt lat="28.3357950" lon="-16.5079070">
        <ele>1729.9</ele>
        <time>2020-11-11T16:55:48Z</time>
      </trkpt>
      <trkpt lat="28.3357950" lon="-16.5079070">
        <ele>1729.9</ele>
        <time>2020-11-11T16:55:49Z</time>
      </trkpt>
      <trkpt lat="28.3357780" lon="-16.5079650">
        <ele>1729.9</ele>
        <time>2020-11-11T16:55:50Z</time>
      </trkpt>
      <trkpt lat="28.3357780" lon="-16.5079650">
        <ele>1729.9</ele>
        <time>2020-11-11T16:55:51Z</time>
      </trkpt>
      <trkpt lat="28.3357680" lon="-16.5079920">
        <ele>1729.9</ele>
        <time>2020-11-11T16:55:52Z</time>
      </trkpt>
      <trkpt lat="28.3357450" lon="-16.5080400">
        <ele>1730.9</ele>
        <time>2020-11-11T16:55:53Z</time>
      </trkpt>
      <trkpt lat="28.3357450" lon="-16.5080400">
        <ele>1730.9</ele>
        <time>2020-11-11T16:55:54Z</time>
      </trkpt>
      <trkpt lat="28.3357330" lon="-16.5080620">
        <ele>1730.9</ele>
        <time>2020-11-11T16:55:55Z</time>
      </trkpt>
      <trkpt lat="28.3357120" lon="-16.5080900">
        <ele>1730.9</ele>
        <time>2020-11-11T16:55:56Z</time>
      </trkpt>
      <trkpt lat="28.3357120" lon="-16.5080900">
        <ele>1730.9</ele>
        <time>2020-11-11T16:55:57Z</time>
      </trkpt>
      <trkpt lat="28.3356950" lon="-16.5081350">
        <ele>1731.9</ele>
        <time>2020-11-11T16:55:58Z</time>
      </trkpt>
      <trkpt lat="28.3356950" lon="-16.5081350">
        <ele>1731.9</ele>
        <time>2020-11-11T16:55:59Z</time>
      </trkpt>
      <trkpt lat="28.3356800" lon="-16.5081770">
        <ele>1731.9</ele>
        <time>2020-11-11T16:56:00Z</time>
      </trkpt>
      <trkpt lat="28.3356800" lon="-16.5081770">
        <ele>1731.9</ele>
        <time>2020-11-11T16:56:01Z</time>
      </trkpt>
      <trkpt lat="28.3356680" lon="-16.5082130">
        <ele>1731.9</ele>
        <time>2020-11-11T16:56:02Z</time>
      </trkpt>
      <trkpt lat="28.3356600" lon="-16.5082320">
        <ele>1732.9</ele>
        <time>2020-11-11T16:56:03Z</time>
      </trkpt>
      <trkpt lat="28.3356600" lon="-16.5082320">
        <ele>1732.9</ele>
        <time>2020-11-11T16:56:04Z</time>
      </trkpt>
      <trkpt lat="28.3356380" lon="-16.5082720">
        <ele>1732.9</ele>
        <time>2020-11-11T16:56:05Z</time>
      </trkpt>
      <trkpt lat="28.3356380" lon="-16.5082720">
        <ele>1732.9</ele>
        <time>2020-11-11T16:56:06Z</time>
      </trkpt>
      <trkpt lat="28.3356180" lon="-16.5083100">
        <ele>1732.9</ele>
        <time>2020-11-11T16:56:07Z</time>
      </trkpt>
      <trkpt lat="28.3356180" lon="-16.5083100">
        <ele>1733.9</ele>
        <time>2020-11-11T16:56:08Z</time>
      </trkpt>
      <trkpt lat="28.3356020" lon="-16.5083520">
        <ele>1733.9</ele>
        <time>2020-11-11T16:56:09Z</time>
      </trkpt>
      <trkpt lat="28.3356020" lon="-16.5083520">
        <ele>1733.9</ele>
        <time>2020-11-11T16:56:10Z</time>
      </trkpt>
      <trkpt lat="28.3355820" lon="-16.5083830">
        <ele>1733.9</ele>
        <time>2020-11-11T16:56:11Z</time>
      </trkpt>
      <trkpt lat="28.3355820" lon="-16.5083830">
        <ele>1734.9</ele>
        <time>2020-11-11T16:56:12Z</time>
      </trkpt>
      <trkpt lat="28.3355670" lon="-16.5084100">
        <ele>1734.9</ele>
        <time>2020-11-11T16:56:13Z</time>
      </trkpt>
      <trkpt lat="28.3355650" lon="-16.5084230">
        <ele>1734.9</ele>
        <time>2020-11-11T16:56:14Z</time>
      </trkpt>
      <trkpt lat="28.3355650" lon="-16.5084230">
        <ele>1734.9</ele>
        <time>2020-11-11T16:56:15Z</time>
      </trkpt>
      <trkpt lat="28.3355480" lon="-16.5084580">
        <ele>1734.9</ele>
        <time>2020-11-11T16:56:16Z</time>
      </trkpt>
      <trkpt lat="28.3355480" lon="-16.5084580">
        <ele>1734.9</ele>
        <time>2020-11-11T16:56:17Z</time>
      </trkpt>
      <trkpt lat="28.3355230" lon="-16.5085030">
        <ele>1734.9</ele>
        <time>2020-11-11T16:56:18Z</time>
      </trkpt>
      <trkpt lat="28.3355230" lon="-16.5085030">
        <ele>1734.9</ele>
        <time>2020-11-11T16:56:19Z</time>
      </trkpt>
      <trkpt lat="28.3354950" lon="-16.5085380">
        <ele>1734.9</ele>
        <time>2020-11-11T16:56:20Z</time>
      </trkpt>
      <trkpt lat="28.3354950" lon="-16.5085380">
        <ele>1734.9</ele>
        <time>2020-11-11T16:56:21Z</time>
      </trkpt>
      <trkpt lat="28.3354600" lon="-16.5085730">
        <ele>1736.9</ele>
        <time>2020-11-11T16:56:22Z</time>
      </trkpt>
      <trkpt lat="28.3354600" lon="-16.5085730">
        <ele>1736.9</ele>
        <time>2020-11-11T16:56:23Z</time>
      </trkpt>
      <trkpt lat="28.3354270" lon="-16.5085980">
        <ele>1736.9</ele>
        <time>2020-11-11T16:56:24Z</time>
      </trkpt>
      <trkpt lat="28.3354270" lon="-16.5085980">
        <ele>1736.9</ele>
        <time>2020-11-11T16:56:25Z</time>
      </trkpt>
      <trkpt lat="28.3354130" lon="-16.5086150">
        <ele>1736.9</ele>
        <time>2020-11-11T16:56:26Z</time>
      </trkpt>
      <trkpt lat="28.3353770" lon="-16.5086480">
        <ele>1736.9</ele>
        <time>2020-11-11T16:56:27Z</time>
      </trkpt>
      <trkpt lat="28.3353770" lon="-16.5086480">
        <ele>1736.9</ele>
        <time>2020-11-11T16:56:28Z</time>
      </trkpt>
      <trkpt lat="28.3353400" lon="-16.5086720">
        <ele>1736.9</ele>
        <time>2020-11-11T16:56:29Z</time>
      </trkpt>
      <trkpt lat="28.3353200" lon="-16.5086880">
        <ele>1736.9</ele>
        <time>2020-11-11T16:56:30Z</time>
      </trkpt>
      <trkpt lat="28.3353200" lon="-16.5086880">
        <ele>1736.9</ele>
        <time>2020-11-11T16:56:31Z</time>
      </trkpt>
      <trkpt lat="28.3352820" lon="-16.5087080">
        <ele>1737.9</ele>
        <time>2020-11-11T16:56:32Z</time>
      </trkpt>
      <trkpt lat="28.3352820" lon="-16.5087080">
        <ele>1737.9</ele>
        <time>2020-11-11T16:56:33Z</time>
      </trkpt>
      <trkpt lat="28.3352430" lon="-16.5087320">
        <ele>1737.9</ele>
        <time>2020-11-11T16:56:34Z</time>
      </trkpt>
      <trkpt lat="28.3352220" lon="-16.5087450">
        <ele>1737.9</ele>
        <time>2020-11-11T16:56:35Z</time>
      </trkpt>
      <trkpt lat="28.3352020" lon="-16.5087580">
        <ele>1738.9</ele>
        <time>2020-11-11T16:56:36Z</time>
      </trkpt>
      <trkpt lat="28.3351820" lon="-16.5087720">
        <ele>1738.9</ele>
        <time>2020-11-11T16:56:37Z</time>
      </trkpt>
      <trkpt lat="28.3351820" lon="-16.5087720">
        <ele>1738.9</ele>
        <time>2020-11-11T16:56:38Z</time>
      </trkpt>
      <trkpt lat="28.3351430" lon="-16.5087850">
        <ele>1738.9</ele>
        <time>2020-11-11T16:56:39Z</time>
      </trkpt>
      <trkpt lat="28.3351430" lon="-16.5087850">
        <ele>1738.9</ele>
        <time>2020-11-11T16:56:40Z</time>
      </trkpt>
      <trkpt lat="28.3351020" lon="-16.5088000">
        <ele>1738.9</ele>
        <time>2020-11-11T16:56:41Z</time>
      </trkpt>
      <trkpt lat="28.3351020" lon="-16.5088000">
        <ele>1738.9</ele>
        <time>2020-11-11T16:56:42Z</time>
      </trkpt>
      <trkpt lat="28.3350700" lon="-16.5088180">
        <ele>1738.9</ele>
        <time>2020-11-11T16:56:43Z</time>
      </trkpt>
      <trkpt lat="28.3350700" lon="-16.5088180">
        <ele>1738.9</ele>
        <time>2020-11-11T16:56:44Z</time>
      </trkpt>
      <trkpt lat="28.3350330" lon="-16.5088320">
        <ele>1739.9</ele>
        <time>2020-11-11T16:56:45Z</time>
      </trkpt>
      <trkpt lat="28.3350100" lon="-16.5088380">
        <ele>1739.9</ele>
        <time>2020-11-11T16:56:46Z</time>
      </trkpt>
      <trkpt lat="28.3350100" lon="-16.5088380">
        <ele>1739.9</ele>
        <time>2020-11-11T16:56:47Z</time>
      </trkpt>
      <trkpt lat="28.3349680" lon="-16.5088470">
        <ele>1739.9</ele>
        <time>2020-11-11T16:56:48Z</time>
      </trkpt>
      <trkpt lat="28.3349680" lon="-16.5088470">
        <ele>1739.9</ele>
        <time>2020-11-11T16:56:49Z</time>
      </trkpt>
      <trkpt lat="28.3349220" lon="-16.5088600">
        <ele>1739.9</ele>
        <time>2020-11-11T16:56:50Z</time>
      </trkpt>
      <trkpt lat="28.3349220" lon="-16.5088600">
        <ele>1739.9</ele>
        <time>2020-11-11T16:56:51Z</time>
      </trkpt>
      <trkpt lat="28.3348830" lon="-16.5088670">
        <ele>1739.9</ele>
        <time>2020-11-11T16:56:52Z</time>
      </trkpt>
      <trkpt lat="28.3348830" lon="-16.5088670">
        <ele>1740.9</ele>
        <time>2020-11-11T16:56:53Z</time>
      </trkpt>
      <trkpt lat="28.3348570" lon="-16.5088700">
        <ele>1740.9</ele>
        <time>2020-11-11T16:56:54Z</time>
      </trkpt>
      <trkpt lat="28.3348570" lon="-16.5088700">
        <ele>1740.9</ele>
        <time>2020-11-11T16:56:55Z</time>
      </trkpt>
      <trkpt lat="28.3348270" lon="-16.5088680">
        <ele>1740.9</ele>
        <time>2020-11-11T16:56:56Z</time>
      </trkpt>
      <trkpt lat="28.3348080" lon="-16.5088680">
        <ele>1740.9</ele>
        <time>2020-11-11T16:56:57Z</time>
      </trkpt>
      <trkpt lat="28.3348080" lon="-16.5088680">
        <ele>1741.9</ele>
        <time>2020-11-11T16:56:58Z</time>
      </trkpt>
      <trkpt lat="28.3347750" lon="-16.5088630">
        <ele>1741.9</ele>
        <time>2020-11-11T16:56:59Z</time>
      </trkpt>
      <trkpt lat="28.3347620" lon="-16.5088620">
        <ele>1741.9</ele>
        <time>2020-11-11T16:57:00Z</time>
      </trkpt>
      <trkpt lat="28.3347620" lon="-16.5088620">
        <ele>1741.9</ele>
        <time>2020-11-11T16:57:01Z</time>
      </trkpt>
      <trkpt lat="28.3347370" lon="-16.5088570">
        <ele>1741.9</ele>
        <time>2020-11-11T16:57:02Z</time>
      </trkpt>
      <trkpt lat="28.3347370" lon="-16.5088570">
        <ele>1741.9</ele>
        <time>2020-11-11T16:57:03Z</time>
      </trkpt>
      <trkpt lat="28.3347150" lon="-16.5088480">
        <ele>1741.9</ele>
        <time>2020-11-11T16:57:04Z</time>
      </trkpt>
      <trkpt lat="28.3347150" lon="-16.5088480">
        <ele>1741.9</ele>
        <time>2020-11-11T16:57:05Z</time>
      </trkpt>
      <trkpt lat="28.3346870" lon="-16.5088350">
        <ele>1741.9</ele>
        <time>2020-11-11T16:57:06Z</time>
      </trkpt>
      <trkpt lat="28.3346680" lon="-16.5088350">
        <ele>1741.9</ele>
        <time>2020-11-11T16:57:07Z</time>
      </trkpt>
      <trkpt lat="28.3346680" lon="-16.5088350">
        <ele>1741.9</ele>
        <time>2020-11-11T16:57:08Z</time>
      </trkpt>
      <trkpt lat="28.3346280" lon="-16.5088430">
        <ele>1741.9</ele>
        <time>2020-11-11T16:57:09Z</time>
      </trkpt>
      <trkpt lat="28.3346280" lon="-16.5088430">
        <ele>1742.9</ele>
        <time>2020-11-11T16:57:10Z</time>
      </trkpt>
      <trkpt lat="28.3345820" lon="-16.5088450">
        <ele>1742.9</ele>
        <time>2020-11-11T16:57:11Z</time>
      </trkpt>
      <trkpt lat="28.3345820" lon="-16.5088450">
        <ele>1742.9</ele>
        <time>2020-11-11T16:57:12Z</time>
      </trkpt>
      <trkpt lat="28.3345330" lon="-16.5088470">
        <ele>1742.9</ele>
        <time>2020-11-11T16:57:13Z</time>
      </trkpt>
      <trkpt lat="28.3345330" lon="-16.5088470">
        <ele>1742.9</ele>
        <time>2020-11-11T16:57:14Z</time>
      </trkpt>
      <trkpt lat="28.3344930" lon="-16.5088450">
        <ele>1742.9</ele>
        <time>2020-11-11T16:57:15Z</time>
      </trkpt>
      <trkpt lat="28.3344930" lon="-16.5088450">
        <ele>1743.9</ele>
        <time>2020-11-11T16:57:16Z</time>
      </trkpt>
      <trkpt lat="28.3344600" lon="-16.5088520">
        <ele>1743.9</ele>
        <time>2020-11-11T16:57:17Z</time>
      </trkpt>
      <trkpt lat="28.3344400" lon="-16.5088580">
        <ele>1743.9</ele>
        <time>2020-11-11T16:57:18Z</time>
      </trkpt>
      <trkpt lat="28.3344400" lon="-16.5088580">
        <ele>1744.9</ele>
        <time>2020-11-11T16:57:19Z</time>
      </trkpt>
      <trkpt lat="28.3343800" lon="-16.5088670">
        <ele>1744.9</ele>
        <time>2020-11-11T16:57:20Z</time>
      </trkpt>
      <trkpt lat="28.3343800" lon="-16.5088670">
        <ele>1744.9</ele>
        <time>2020-11-11T16:57:21Z</time>
      </trkpt>
      <trkpt lat="28.3343330" lon="-16.5088750">
        <ele>1744.9</ele>
        <time>2020-11-11T16:57:22Z</time>
      </trkpt>
      <trkpt lat="28.3343130" lon="-16.5088800">
        <ele>1744.9</ele>
        <time>2020-11-11T16:57:23Z</time>
      </trkpt>
      <trkpt lat="28.3343130" lon="-16.5088800">
        <ele>1744.9</ele>
        <time>2020-11-11T16:57:24Z</time>
      </trkpt>
      <trkpt lat="28.3342700" lon="-16.5088880">
        <ele>1744.9</ele>
        <time>2020-11-11T16:57:25Z</time>
      </trkpt>
      <trkpt lat="28.3342700" lon="-16.5088880">
        <ele>1745.9</ele>
        <time>2020-11-11T16:57:26Z</time>
      </trkpt>
      <trkpt lat="28.3342300" lon="-16.5089030">
        <ele>1745.9</ele>
        <time>2020-11-11T16:57:27Z</time>
      </trkpt>
      <trkpt lat="28.3342300" lon="-16.5089030">
        <ele>1745.9</ele>
        <time>2020-11-11T16:57:28Z</time>
      </trkpt>
      <trkpt lat="28.3341970" lon="-16.5089130">
        <ele>1745.9</ele>
        <time>2020-11-11T16:57:29Z</time>
      </trkpt>
      <trkpt lat="28.3341970" lon="-16.5089130">
        <ele>1745.9</ele>
        <time>2020-11-11T16:57:30Z</time>
      </trkpt>
      <trkpt lat="28.3341650" lon="-16.5089200">
        <ele>1745.9</ele>
        <time>2020-11-11T16:57:31Z</time>
      </trkpt>
      <trkpt lat="28.3341650" lon="-16.5089200">
        <ele>1746.9</ele>
        <time>2020-11-11T16:57:32Z</time>
      </trkpt>
      <trkpt lat="28.3341280" lon="-16.5089320">
        <ele>1746.9</ele>
        <time>2020-11-11T16:57:33Z</time>
      </trkpt>
      <trkpt lat="28.3341280" lon="-16.5089320">
        <ele>1746.9</ele>
        <time>2020-11-11T16:57:34Z</time>
      </trkpt>
      <trkpt lat="28.3340950" lon="-16.5089500">
        <ele>1746.9</ele>
        <time>2020-11-11T16:57:35Z</time>
      </trkpt>
      <trkpt lat="28.3340950" lon="-16.5089500">
        <ele>1746.9</ele>
        <time>2020-11-11T16:57:36Z</time>
      </trkpt>
      <trkpt lat="28.3340630" lon="-16.5089830">
        <ele>1746.9</ele>
        <time>2020-11-11T16:57:37Z</time>
      </trkpt>
      <trkpt lat="28.3340630" lon="-16.5089830">
        <ele>1746.9</ele>
        <time>2020-11-11T16:57:38Z</time>
      </trkpt>
      <trkpt lat="28.3340280" lon="-16.5090250">
        <ele>1746.9</ele>
        <time>2020-11-11T16:57:39Z</time>
      </trkpt>
      <trkpt lat="28.3340280" lon="-16.5090250">
        <ele>1746.9</ele>
        <time>2020-11-11T16:57:40Z</time>
      </trkpt>
      <trkpt lat="28.3340050" lon="-16.5090700">
        <ele>1746.9</ele>
        <time>2020-11-11T16:57:41Z</time>
      </trkpt>
      <trkpt lat="28.3340050" lon="-16.5090700">
        <ele>1746.9</ele>
        <time>2020-11-11T16:57:42Z</time>
      </trkpt>
      <trkpt lat="28.3340000" lon="-16.5091200">
        <ele>1746.9</ele>
        <time>2020-11-11T16:57:43Z</time>
      </trkpt>
      <trkpt lat="28.3340000" lon="-16.5091200">
        <ele>1746.9</ele>
        <time>2020-11-11T16:57:44Z</time>
      </trkpt>
      <trkpt lat="28.3339920" lon="-16.5091700">
        <ele>1746.9</ele>
        <time>2020-11-11T16:57:45Z</time>
      </trkpt>
      <trkpt lat="28.3339920" lon="-16.5091700">
        <ele>1746.9</ele>
        <time>2020-11-11T16:57:46Z</time>
      </trkpt>
      <trkpt lat="28.3339720" lon="-16.5092070">
        <ele>1746.9</ele>
        <time>2020-11-11T16:57:47Z</time>
      </trkpt>
      <trkpt lat="28.3339720" lon="-16.5092070">
        <ele>1746.9</ele>
        <time>2020-11-11T16:57:48Z</time>
      </trkpt>
      <trkpt lat="28.3339720" lon="-16.5092070">
        <ele>1746.9</ele>
        <time>2020-11-11T16:57:49Z</time>
      </trkpt>
      <trkpt lat="28.3339430" lon="-16.5092420">
        <ele>1746.9</ele>
        <time>2020-11-11T16:57:50Z</time>
      </trkpt>
      <trkpt lat="28.3339120" lon="-16.5092720">
        <ele>1746.9</ele>
        <time>2020-11-11T16:57:51Z</time>
      </trkpt>
      <trkpt lat="28.3339120" lon="-16.5092720">
        <ele>1747.9</ele>
        <time>2020-11-11T16:57:52Z</time>
      </trkpt>
      <trkpt lat="28.3338780" lon="-16.5093020">
        <ele>1747.9</ele>
        <time>2020-11-11T16:57:53Z</time>
      </trkpt>
      <trkpt lat="28.3338780" lon="-16.5093020">
        <ele>1747.9</ele>
        <time>2020-11-11T16:57:54Z</time>
      </trkpt>
      <trkpt lat="28.3338530" lon="-16.5093250">
        <ele>1747.9</ele>
        <time>2020-11-11T16:57:55Z</time>
      </trkpt>
      <trkpt lat="28.3338530" lon="-16.5093250">
        <ele>1747.9</ele>
        <time>2020-11-11T16:57:56Z</time>
      </trkpt>
      <trkpt lat="28.3338230" lon="-16.5093380">
        <ele>1748.9</ele>
        <time>2020-11-11T16:57:57Z</time>
      </trkpt>
      <trkpt lat="28.3338230" lon="-16.5093380">
        <ele>1748.9</ele>
        <time>2020-11-11T16:57:58Z</time>
      </trkpt>
      <trkpt lat="28.3337920" lon="-16.5093520">
        <ele>1748.9</ele>
        <time>2020-11-11T16:57:59Z</time>
      </trkpt>
      <trkpt lat="28.3337920" lon="-16.5093520">
        <ele>1748.9</ele>
        <time>2020-11-11T16:58:00Z</time>
      </trkpt>
      <trkpt lat="28.3337570" lon="-16.5093680">
        <ele>1749.9</ele>
        <time>2020-11-11T16:58:01Z</time>
      </trkpt>
      <trkpt lat="28.3337570" lon="-16.5093680">
        <ele>1749.9</ele>
        <time>2020-11-11T16:58:02Z</time>
      </trkpt>
      <trkpt lat="28.3337220" lon="-16.5093780">
        <ele>1749.9</ele>
        <time>2020-11-11T16:58:03Z</time>
      </trkpt>
      <trkpt lat="28.3337220" lon="-16.5093780">
        <ele>1749.9</ele>
        <time>2020-11-11T16:58:04Z</time>
      </trkpt>
      <trkpt lat="28.3336830" lon="-16.5093880">
        <ele>1749.9</ele>
        <time>2020-11-11T16:58:05Z</time>
      </trkpt>
      <trkpt lat="28.3336830" lon="-16.5093880">
        <ele>1749.9</ele>
        <time>2020-11-11T16:58:06Z</time>
      </trkpt>
      <trkpt lat="28.3336500" lon="-16.5093980">
        <ele>1749.9</ele>
        <time>2020-11-11T16:58:07Z</time>
      </trkpt>
      <trkpt lat="28.3336500" lon="-16.5093980">
        <ele>1749.9</ele>
        <time>2020-11-11T16:58:08Z</time>
      </trkpt>
      <trkpt lat="28.3336150" lon="-16.5094050">
        <ele>1750.9</ele>
        <time>2020-11-11T16:58:09Z</time>
      </trkpt>
      <trkpt lat="28.3336150" lon="-16.5094050">
        <ele>1750.9</ele>
        <time>2020-11-11T16:58:10Z</time>
      </trkpt>
      <trkpt lat="28.3335830" lon="-16.5094180">
        <ele>1750.9</ele>
        <time>2020-11-11T16:58:11Z</time>
      </trkpt>
      <trkpt lat="28.3335830" lon="-16.5094180">
        <ele>1750.9</ele>
        <time>2020-11-11T16:58:12Z</time>
      </trkpt>
      <trkpt lat="28.3335700" lon="-16.5094320">
        <ele>1750.9</ele>
        <time>2020-11-11T16:58:13Z</time>
      </trkpt>
      <trkpt lat="28.3335380" lon="-16.5094720">
        <ele>1750.9</ele>
        <time>2020-11-11T16:58:14Z</time>
      </trkpt>
      <trkpt lat="28.3335380" lon="-16.5094720">
        <ele>1750.9</ele>
        <time>2020-11-11T16:58:15Z</time>
      </trkpt>
      <trkpt lat="28.3335170" lon="-16.5095170">
        <ele>1750.9</ele>
        <time>2020-11-11T16:58:16Z</time>
      </trkpt>
      <trkpt lat="28.3335120" lon="-16.5095380">
        <ele>1750.9</ele>
        <time>2020-11-11T16:58:17Z</time>
      </trkpt>
      <trkpt lat="28.3335120" lon="-16.5095380">
        <ele>1750.9</ele>
        <time>2020-11-11T16:58:18Z</time>
      </trkpt>
      <trkpt lat="28.3335050" lon="-16.5095870">
        <ele>1750.9</ele>
        <time>2020-11-11T16:58:19Z</time>
      </trkpt>
      <trkpt lat="28.3335050" lon="-16.5095870">
        <ele>1750.9</ele>
        <time>2020-11-11T16:58:20Z</time>
      </trkpt>
      <trkpt lat="28.3334950" lon="-16.5096320">
        <ele>1750.9</ele>
        <time>2020-11-11T16:58:21Z</time>
      </trkpt>
      <trkpt lat="28.3334800" lon="-16.5096480">
        <ele>1750.9</ele>
        <time>2020-11-11T16:58:22Z</time>
      </trkpt>
      <trkpt lat="28.3334800" lon="-16.5096480">
        <ele>1751.9</ele>
        <time>2020-11-11T16:58:23Z</time>
      </trkpt>
      <trkpt lat="28.3334620" lon="-16.5096780">
        <ele>1751.9</ele>
        <time>2020-11-11T16:58:24Z</time>
      </trkpt>
      <trkpt lat="28.3334620" lon="-16.5096780">
        <ele>1751.9</ele>
        <time>2020-11-11T16:58:25Z</time>
      </trkpt>
      <trkpt lat="28.3334480" lon="-16.5097230">
        <ele>1751.9</ele>
        <time>2020-11-11T16:58:26Z</time>
      </trkpt>
      <trkpt lat="28.3334480" lon="-16.5097230">
        <ele>1752.9</ele>
        <time>2020-11-11T16:58:27Z</time>
      </trkpt>
      <trkpt lat="28.3334300" lon="-16.5097620">
        <ele>1752.9</ele>
        <time>2020-11-11T16:58:28Z</time>
      </trkpt>
      <trkpt lat="28.3334300" lon="-16.5097620">
        <ele>1752.9</ele>
        <time>2020-11-11T16:58:29Z</time>
      </trkpt>
      <trkpt lat="28.3334030" lon="-16.5098030">
        <ele>1752.9</ele>
        <time>2020-11-11T16:58:30Z</time>
      </trkpt>
      <trkpt lat="28.3334030" lon="-16.5098030">
        <ele>1752.9</ele>
        <time>2020-11-11T16:58:31Z</time>
      </trkpt>
      <trkpt lat="28.3333820" lon="-16.5098330">
        <ele>1752.9</ele>
        <time>2020-11-11T16:58:32Z</time>
      </trkpt>
      <trkpt lat="28.3333820" lon="-16.5098330">
        <ele>1752.9</ele>
        <time>2020-11-11T16:58:33Z</time>
      </trkpt>
      <trkpt lat="28.3333700" lon="-16.5098630">
        <ele>1753.9</ele>
        <time>2020-11-11T16:58:34Z</time>
      </trkpt>
      <trkpt lat="28.3333700" lon="-16.5098630">
        <ele>1753.9</ele>
        <time>2020-11-11T16:58:35Z</time>
      </trkpt>
      <trkpt lat="28.3333630" lon="-16.5098970">
        <ele>1753.9</ele>
        <time>2020-11-11T16:58:36Z</time>
      </trkpt>
      <trkpt lat="28.3333520" lon="-16.5099170">
        <ele>1753.9</ele>
        <time>2020-11-11T16:58:37Z</time>
      </trkpt>
      <trkpt lat="28.3333420" lon="-16.5099370">
        <ele>1753.9</ele>
        <time>2020-11-11T16:58:38Z</time>
      </trkpt>
      <trkpt lat="28.3333420" lon="-16.5099370">
        <ele>1753.9</ele>
        <time>2020-11-11T16:58:39Z</time>
      </trkpt>
      <trkpt lat="28.3333220" lon="-16.5099730">
        <ele>1753.9</ele>
        <time>2020-11-11T16:58:40Z</time>
      </trkpt>
      <trkpt lat="28.3333220" lon="-16.5099730">
        <ele>1753.9</ele>
        <time>2020-11-11T16:58:41Z</time>
      </trkpt>
      <trkpt lat="28.3332980" lon="-16.5100030">
        <ele>1753.9</ele>
        <time>2020-11-11T16:58:42Z</time>
      </trkpt>
      <trkpt lat="28.3332980" lon="-16.5100030">
        <ele>1753.9</ele>
        <time>2020-11-11T16:58:43Z</time>
      </trkpt>
      <trkpt lat="28.3332780" lon="-16.5100350">
        <ele>1754.9</ele>
        <time>2020-11-11T16:58:44Z</time>
      </trkpt>
      <trkpt lat="28.3332780" lon="-16.5100350">
        <ele>1754.9</ele>
        <time>2020-11-11T16:58:45Z</time>
      </trkpt>
      <trkpt lat="28.3332780" lon="-16.5100350">
        <ele>1754.9</ele>
        <time>2020-11-11T16:58:46Z</time>
      </trkpt>
      <trkpt lat="28.3332500" lon="-16.5100530">
        <ele>1754.9</ele>
        <time>2020-11-11T16:58:47Z</time>
      </trkpt>
      <trkpt lat="28.3332150" lon="-16.5100750">
        <ele>1755.9</ele>
        <time>2020-11-11T16:58:48Z</time>
      </trkpt>
      <trkpt lat="28.3332150" lon="-16.5100750">
        <ele>1755.9</ele>
        <time>2020-11-11T16:58:49Z</time>
      </trkpt>
      <trkpt lat="28.3331780" lon="-16.5100970">
        <ele>1755.9</ele>
        <time>2020-11-11T16:58:50Z</time>
      </trkpt>
      <trkpt lat="28.3331780" lon="-16.5100970">
        <ele>1755.9</ele>
        <time>2020-11-11T16:58:51Z</time>
      </trkpt>
      <trkpt lat="28.3331480" lon="-16.5101230">
        <ele>1756.9</ele>
        <time>2020-11-11T16:58:52Z</time>
      </trkpt>
      <trkpt lat="28.3331480" lon="-16.5101230">
        <ele>1756.9</ele>
        <time>2020-11-11T16:58:53Z</time>
      </trkpt>
      <trkpt lat="28.3331300" lon="-16.5101530">
        <ele>1756.9</ele>
        <time>2020-11-11T16:58:54Z</time>
      </trkpt>
      <trkpt lat="28.3331130" lon="-16.5101730">
        <ele>1756.9</ele>
        <time>2020-11-11T16:58:55Z</time>
      </trkpt>
      <trkpt lat="28.3331050" lon="-16.5101830">
        <ele>1756.9</ele>
        <time>2020-11-11T16:58:56Z</time>
      </trkpt>
      <trkpt lat="28.3331050" lon="-16.5101830">
        <ele>1756.9</ele>
        <time>2020-11-11T16:58:57Z</time>
      </trkpt>
      <trkpt lat="28.3330830" lon="-16.5102070">
        <ele>1756.9</ele>
        <time>2020-11-11T16:58:58Z</time>
      </trkpt>
      <trkpt lat="28.3330830" lon="-16.5102070">
        <ele>1756.9</ele>
        <time>2020-11-11T16:58:59Z</time>
      </trkpt>
      <trkpt lat="28.3330470" lon="-16.5102380">
        <ele>1756.9</ele>
        <time>2020-11-11T16:59:00Z</time>
      </trkpt>
      <trkpt lat="28.3330320" lon="-16.5102570">
        <ele>1756.9</ele>
        <time>2020-11-11T16:59:01Z</time>
      </trkpt>
      <trkpt lat="28.3330320" lon="-16.5102570">
        <ele>1756.9</ele>
        <time>2020-11-11T16:59:02Z</time>
      </trkpt>
      <trkpt lat="28.3330000" lon="-16.5102820">
        <ele>1756.9</ele>
        <time>2020-11-11T16:59:03Z</time>
      </trkpt>
      <trkpt lat="28.3330000" lon="-16.5102820">
        <ele>1758.9</ele>
        <time>2020-11-11T16:59:04Z</time>
      </trkpt>
      <trkpt lat="28.3329700" lon="-16.5102980">
        <ele>1758.9</ele>
        <time>2020-11-11T16:59:05Z</time>
      </trkpt>
      <trkpt lat="28.3329700" lon="-16.5102980">
        <ele>1758.9</ele>
        <time>2020-11-11T16:59:06Z</time>
      </trkpt>
      <trkpt lat="28.3329370" lon="-16.5103130">
        <ele>1758.9</ele>
        <time>2020-11-11T16:59:07Z</time>
      </trkpt>
      <trkpt lat="28.3329370" lon="-16.5103130">
        <ele>1758.9</ele>
        <time>2020-11-11T16:59:08Z</time>
      </trkpt>
      <trkpt lat="28.3329000" lon="-16.5103300">
        <ele>1758.9</ele>
        <time>2020-11-11T16:59:09Z</time>
      </trkpt>
      <trkpt lat="28.3328800" lon="-16.5103330">
        <ele>1758.9</ele>
        <time>2020-11-11T16:59:10Z</time>
      </trkpt>
      <trkpt lat="28.3328800" lon="-16.5103330">
        <ele>1758.9</ele>
        <time>2020-11-11T16:59:11Z</time>
      </trkpt>
      <trkpt lat="28.3328400" lon="-16.5103500">
        <ele>1758.9</ele>
        <time>2020-11-11T16:59:12Z</time>
      </trkpt>
      <trkpt lat="28.3328400" lon="-16.5103500">
        <ele>1758.9</ele>
        <time>2020-11-11T16:59:13Z</time>
      </trkpt>
      <trkpt lat="28.3328050" lon="-16.5103600">
        <ele>1758.9</ele>
        <time>2020-11-11T16:59:14Z</time>
      </trkpt>
      <trkpt lat="28.3328050" lon="-16.5103600">
        <ele>1758.9</ele>
        <time>2020-11-11T16:59:15Z</time>
      </trkpt>
      <trkpt lat="28.3327650" lon="-16.5103680">
        <ele>1758.9</ele>
        <time>2020-11-11T16:59:16Z</time>
      </trkpt>
      <trkpt lat="28.3327450" lon="-16.5103730">
        <ele>1759.9</ele>
        <time>2020-11-11T16:59:17Z</time>
      </trkpt>
      <trkpt lat="28.3327450" lon="-16.5103730">
        <ele>1759.9</ele>
        <time>2020-11-11T16:59:18Z</time>
      </trkpt>
      <trkpt lat="28.3327070" lon="-16.5103770">
        <ele>1759.9</ele>
        <time>2020-11-11T16:59:19Z</time>
      </trkpt>
      <trkpt lat="28.3327070" lon="-16.5103770">
        <ele>1759.9</ele>
        <time>2020-11-11T16:59:20Z</time>
      </trkpt>
      <trkpt lat="28.3326630" lon="-16.5103820">
        <ele>1759.9</ele>
        <time>2020-11-11T16:59:21Z</time>
      </trkpt>
      <trkpt lat="28.3326630" lon="-16.5103820">
        <ele>1759.9</ele>
        <time>2020-11-11T16:59:22Z</time>
      </trkpt>
      <trkpt lat="28.3326230" lon="-16.5103880">
        <ele>1760.9</ele>
        <time>2020-11-11T16:59:23Z</time>
      </trkpt>
      <trkpt lat="28.3326230" lon="-16.5103880">
        <ele>1760.9</ele>
        <time>2020-11-11T16:59:24Z</time>
      </trkpt>
      <trkpt lat="28.3325820" lon="-16.5104020">
        <ele>1760.9</ele>
        <time>2020-11-11T16:59:25Z</time>
      </trkpt>
      <trkpt lat="28.3325820" lon="-16.5104020">
        <ele>1760.9</ele>
        <time>2020-11-11T16:59:26Z</time>
      </trkpt>
      <trkpt lat="28.3325480" lon="-16.5104150">
        <ele>1760.9</ele>
        <time>2020-11-11T16:59:27Z</time>
      </trkpt>
      <trkpt lat="28.3325280" lon="-16.5104230">
        <ele>1760.9</ele>
        <time>2020-11-11T16:59:28Z</time>
      </trkpt>
      <trkpt lat="28.3325280" lon="-16.5104230">
        <ele>1761.9</ele>
        <time>2020-11-11T16:59:29Z</time>
      </trkpt>
      <trkpt lat="28.3324870" lon="-16.5104520">
        <ele>1761.9</ele>
        <time>2020-11-11T16:59:30Z</time>
      </trkpt>
      <trkpt lat="28.3324650" lon="-16.5104680">
        <ele>1761.9</ele>
        <time>2020-11-11T16:59:31Z</time>
      </trkpt>
      <trkpt lat="28.3324650" lon="-16.5104680">
        <ele>1761.9</ele>
        <time>2020-11-11T16:59:32Z</time>
      </trkpt>
      <trkpt lat="28.3324320" lon="-16.5105000">
        <ele>1761.9</ele>
        <time>2020-11-11T16:59:33Z</time>
      </trkpt>
      <trkpt lat="28.3324320" lon="-16.5105000">
        <ele>1761.9</ele>
        <time>2020-11-11T16:59:34Z</time>
      </trkpt>
      <trkpt lat="28.3324320" lon="-16.5105000">
        <ele>1761.9</ele>
        <time>2020-11-11T16:59:35Z</time>
      </trkpt>
      <trkpt lat="28.3324030" lon="-16.5105350">
        <ele>1761.9</ele>
        <time>2020-11-11T16:59:36Z</time>
      </trkpt>
      <trkpt lat="28.3323730" lon="-16.5105670">
        <ele>1762.9</ele>
        <time>2020-11-11T16:59:37Z</time>
      </trkpt>
      <trkpt lat="28.3323730" lon="-16.5105670">
        <ele>1762.9</ele>
        <time>2020-11-11T16:59:38Z</time>
      </trkpt>
      <trkpt lat="28.3323450" lon="-16.5106050">
        <ele>1762.9</ele>
        <time>2020-11-11T16:59:39Z</time>
      </trkpt>
      <trkpt lat="28.3323330" lon="-16.5106250">
        <ele>1762.9</ele>
        <time>2020-11-11T16:59:40Z</time>
      </trkpt>
      <trkpt lat="28.3323330" lon="-16.5106250">
        <ele>1762.9</ele>
        <time>2020-11-11T16:59:41Z</time>
      </trkpt>
      <trkpt lat="28.3323080" lon="-16.5106650">
        <ele>1762.9</ele>
        <time>2020-11-11T16:59:42Z</time>
      </trkpt>
      <trkpt lat="28.3323080" lon="-16.5106650">
        <ele>1762.9</ele>
        <time>2020-11-11T16:59:43Z</time>
      </trkpt>
      <trkpt lat="28.3322880" lon="-16.5107120">
        <ele>1762.9</ele>
        <time>2020-11-11T16:59:44Z</time>
      </trkpt>
      <trkpt lat="28.3322880" lon="-16.5107120">
        <ele>1762.9</ele>
        <time>2020-11-11T16:59:45Z</time>
      </trkpt>
      <trkpt lat="28.3322780" lon="-16.5107550">
        <ele>1762.9</ele>
        <time>2020-11-11T16:59:46Z</time>
      </trkpt>
      <trkpt lat="28.3322780" lon="-16.5107550">
        <ele>1762.9</ele>
        <time>2020-11-11T16:59:47Z</time>
      </trkpt>
      <trkpt lat="28.3322680" lon="-16.5107980">
        <ele>1762.9</ele>
        <time>2020-11-11T16:59:48Z</time>
      </trkpt>
      <trkpt lat="28.3322620" lon="-16.5108220">
        <ele>1762.9</ele>
        <time>2020-11-11T16:59:49Z</time>
      </trkpt>
      <trkpt lat="28.3322620" lon="-16.5108220">
        <ele>1763.9</ele>
        <time>2020-11-11T16:59:50Z</time>
      </trkpt>
      <trkpt lat="28.3322470" lon="-16.5108650">
        <ele>1763.9</ele>
        <time>2020-11-11T16:59:51Z</time>
      </trkpt>
      <trkpt lat="28.3322470" lon="-16.5108650">
        <ele>1763.9</ele>
        <time>2020-11-11T16:59:52Z</time>
      </trkpt>
      <trkpt lat="28.3322270" lon="-16.5108930">
        <ele>1763.9</ele>
        <time>2020-11-11T16:59:53Z</time>
      </trkpt>
      <trkpt lat="28.3322150" lon="-16.5109070">
        <ele>1763.9</ele>
        <time>2020-11-11T16:59:54Z</time>
      </trkpt>
      <trkpt lat="28.3322150" lon="-16.5109070">
        <ele>1763.9</ele>
        <time>2020-11-11T16:59:55Z</time>
      </trkpt>
      <trkpt lat="28.3321820" lon="-16.5109250">
        <ele>1763.9</ele>
        <time>2020-11-11T16:59:56Z</time>
      </trkpt>
      <trkpt lat="28.3321820" lon="-16.5109250">
        <ele>1763.9</ele>
        <time>2020-11-11T16:59:57Z</time>
      </trkpt>
      <trkpt lat="28.3321550" lon="-16.5109280">
        <ele>1764.9</ele>
        <time>2020-11-11T16:59:58Z</time>
      </trkpt>
      <trkpt lat="28.3321550" lon="-16.5109280">
        <ele>1764.9</ele>
        <time>2020-11-11T16:59:59Z</time>
      </trkpt>
      <trkpt lat="28.3321550" lon="-16.5109250">
        <ele>1764.9</ele>
        <time>2020-11-11T17:00:00Z</time>
      </trkpt>
      <trkpt lat="28.3321530" lon="-16.5109280">
        <ele>1764.9</ele>
        <time>2020-11-11T17:00:01Z</time>
      </trkpt>
      <trkpt lat="28.3321530" lon="-16.5109280">
        <ele>1764.9</ele>
        <time>2020-11-11T17:00:02Z</time>
      </trkpt>
      <trkpt lat="28.3321530" lon="-16.5109280">
        <ele>1764.9</ele>
        <time>2020-11-11T17:00:03Z</time>
      </trkpt>
      <trkpt lat="28.3321500" lon="-16.5109320">
        <ele>1764.9</ele>
        <time>2020-11-11T17:01:38Z</time>
      </trkpt>
      <trkpt lat="28.3322100" lon="-16.5109370">
        <ele>1764.9</ele>
        <time>2020-11-11T17:01:39Z</time>
      </trkpt>
      <trkpt lat="28.3322100" lon="-16.5109370">
        <ele>1764.9</ele>
        <time>2020-11-11T17:01:40Z</time>
      </trkpt>
      <trkpt lat="28.3321500" lon="-16.5108980">
        <ele>1764.9</ele>
        <time>2020-11-11T17:01:41Z</time>
      </trkpt>
      <trkpt lat="28.3321500" lon="-16.5108980">
        <ele>1765.9</ele>
        <time>2020-11-11T17:01:42Z</time>
      </trkpt>
      <trkpt lat="28.3321270" lon="-16.5108580">
        <ele>1765.9</ele>
        <time>2020-11-11T17:01:43Z</time>
      </trkpt>
      <trkpt lat="28.3321270" lon="-16.5108580">
        <ele>1765.9</ele>
        <time>2020-11-11T17:01:44Z</time>
      </trkpt>
      <trkpt lat="28.3321130" lon="-16.5108230">
        <ele>1765.9</ele>
        <time>2020-11-11T17:01:45Z</time>
      </trkpt>
      <trkpt lat="28.3321130" lon="-16.5108230">
        <ele>1766.9</ele>
        <time>2020-11-11T17:01:46Z</time>
      </trkpt>
      <trkpt lat="28.3320980" lon="-16.5107900">
        <ele>1766.9</ele>
        <time>2020-11-11T17:01:47Z</time>
      </trkpt>
      <trkpt lat="28.3320980" lon="-16.5107900">
        <ele>1766.9</ele>
        <time>2020-11-11T17:01:48Z</time>
      </trkpt>
      <trkpt lat="28.3320950" lon="-16.5107570">
        <ele>1766.9</ele>
        <time>2020-11-11T17:01:49Z</time>
      </trkpt>
      <trkpt lat="28.3320950" lon="-16.5107570">
        <ele>1766.9</ele>
        <time>2020-11-11T17:01:50Z</time>
      </trkpt>
      <trkpt lat="28.3320980" lon="-16.5107230">
        <ele>1766.9</ele>
        <time>2020-11-11T17:01:51Z</time>
      </trkpt>
      <trkpt lat="28.3320980" lon="-16.5107050">
        <ele>1767.9</ele>
        <time>2020-11-11T17:01:52Z</time>
      </trkpt>
      <trkpt lat="28.3320980" lon="-16.5107050">
        <ele>1767.9</ele>
        <time>2020-11-11T17:01:53Z</time>
      </trkpt>
      <trkpt lat="28.3320980" lon="-16.5106700">
        <ele>1767.9</ele>
        <time>2020-11-11T17:01:54Z</time>
      </trkpt>
      <trkpt lat="28.3320980" lon="-16.5106700">
        <ele>1767.9</ele>
        <time>2020-11-11T17:01:55Z</time>
      </trkpt>
      <trkpt lat="28.3321100" lon="-16.5106280">
        <ele>1768.9</ele>
        <time>2020-11-11T17:01:56Z</time>
      </trkpt>
      <trkpt lat="28.3321150" lon="-16.5106020">
        <ele>1768.9</ele>
        <time>2020-11-11T17:01:57Z</time>
      </trkpt>
      <trkpt lat="28.3321150" lon="-16.5106020">
        <ele>1768.9</ele>
        <time>2020-11-11T17:01:58Z</time>
      </trkpt>
      <trkpt lat="28.3321180" lon="-16.5105530">
        <ele>1768.9</ele>
        <time>2020-11-11T17:01:59Z</time>
      </trkpt>
      <trkpt lat="28.3321180" lon="-16.5105530">
        <ele>1768.9</ele>
        <time>2020-11-11T17:02:00Z</time>
      </trkpt>
      <trkpt lat="28.3321420" lon="-16.5105130">
        <ele>1769.9</ele>
        <time>2020-11-11T17:02:01Z</time>
      </trkpt>
      <trkpt lat="28.3321420" lon="-16.5105130">
        <ele>1769.9</ele>
        <time>2020-11-11T17:02:02Z</time>
      </trkpt>
      <trkpt lat="28.3321570" lon="-16.5104750">
        <ele>1769.9</ele>
        <time>2020-11-11T17:02:03Z</time>
      </trkpt>
      <trkpt lat="28.3321570" lon="-16.5104750">
        <ele>1769.9</ele>
        <time>2020-11-11T17:02:04Z</time>
      </trkpt>
      <trkpt lat="28.3321780" lon="-16.5104380">
        <ele>1769.9</ele>
        <time>2020-11-11T17:02:05Z</time>
      </trkpt>
      <trkpt lat="28.3321780" lon="-16.5104380">
        <ele>1769.9</ele>
        <time>2020-11-11T17:02:06Z</time>
      </trkpt>
      <trkpt lat="28.3321980" lon="-16.5104030">
        <ele>1769.9</ele>
        <time>2020-11-11T17:02:07Z</time>
      </trkpt>
      <trkpt lat="28.3322100" lon="-16.5103850">
        <ele>1769.9</ele>
        <time>2020-11-11T17:02:08Z</time>
      </trkpt>
      <trkpt lat="28.3322100" lon="-16.5103850">
        <ele>1769.9</ele>
        <time>2020-11-11T17:02:09Z</time>
      </trkpt>
      <trkpt lat="28.3322250" lon="-16.5103480">
        <ele>1769.9</ele>
        <time>2020-11-11T17:02:10Z</time>
      </trkpt>
      <trkpt lat="28.3322250" lon="-16.5103480">
        <ele>1769.9</ele>
        <time>2020-11-11T17:02:11Z</time>
      </trkpt>
      <trkpt lat="28.3322280" lon="-16.5103000">
        <ele>1769.9</ele>
        <time>2020-11-11T17:02:12Z</time>
      </trkpt>
      <trkpt lat="28.3322280" lon="-16.5103000">
        <ele>1769.9</ele>
        <time>2020-11-11T17:02:13Z</time>
      </trkpt>
      <trkpt lat="28.3322470" lon="-16.5102420">
        <ele>1770.9</ele>
        <time>2020-11-11T17:02:14Z</time>
      </trkpt>
      <trkpt lat="28.3322530" lon="-16.5102150">
        <ele>1770.9</ele>
        <time>2020-11-11T17:02:15Z</time>
      </trkpt>
      <trkpt lat="28.3322530" lon="-16.5102150">
        <ele>1770.9</ele>
        <time>2020-11-11T17:02:16Z</time>
      </trkpt>
      <trkpt lat="28.3322680" lon="-16.5101650">
        <ele>1770.9</ele>
        <time>2020-11-11T17:02:17Z</time>
      </trkpt>
      <trkpt lat="28.3322770" lon="-16.5101420">
        <ele>1770.9</ele>
        <time>2020-11-11T17:02:18Z</time>
      </trkpt>
      <trkpt lat="28.3322770" lon="-16.5101420">
        <ele>1770.9</ele>
        <time>2020-11-11T17:02:19Z</time>
      </trkpt>
      <trkpt lat="28.3322950" lon="-16.5101000">
        <ele>1770.9</ele>
        <time>2020-11-11T17:02:20Z</time>
      </trkpt>
      <trkpt lat="28.3322950" lon="-16.5101000">
        <ele>1771.9</ele>
        <time>2020-11-11T17:02:21Z</time>
      </trkpt>
      <trkpt lat="28.3323200" lon="-16.5100650">
        <ele>1771.9</ele>
        <time>2020-11-11T17:02:22Z</time>
      </trkpt>
      <trkpt lat="28.3323200" lon="-16.5100650">
        <ele>1771.9</ele>
        <time>2020-11-11T17:02:23Z</time>
      </trkpt>
      <trkpt lat="28.3323420" lon="-16.5100280">
        <ele>1771.9</ele>
        <time>2020-11-11T17:02:24Z</time>
      </trkpt>
      <trkpt lat="28.3323420" lon="-16.5100280">
        <ele>1771.9</ele>
        <time>2020-11-11T17:02:25Z</time>
      </trkpt>
      <trkpt lat="28.3323570" lon="-16.5099850">
        <ele>1771.9</ele>
        <time>2020-11-11T17:02:26Z</time>
      </trkpt>
      <trkpt lat="28.3323570" lon="-16.5099850">
        <ele>1771.9</ele>
        <time>2020-11-11T17:02:27Z</time>
      </trkpt>
      <trkpt lat="28.3323630" lon="-16.5099400">
        <ele>1771.9</ele>
        <time>2020-11-11T17:02:28Z</time>
      </trkpt>
      <trkpt lat="28.3323630" lon="-16.5099400">
        <ele>1772.9</ele>
        <time>2020-11-11T17:02:29Z</time>
      </trkpt>
      <trkpt lat="28.3323600" lon="-16.5098900">
        <ele>1772.9</ele>
        <time>2020-11-11T17:02:30Z</time>
      </trkpt>
      <trkpt lat="28.3323550" lon="-16.5098680">
        <ele>1772.9</ele>
        <time>2020-11-11T17:02:31Z</time>
      </trkpt>
      <trkpt lat="28.3323550" lon="-16.5098680">
        <ele>1772.9</ele>
        <time>2020-11-11T17:02:32Z</time>
      </trkpt>
      <trkpt lat="28.3323520" lon="-16.5098280">
        <ele>1772.9</ele>
        <time>2020-11-11T17:02:33Z</time>
      </trkpt>
      <trkpt lat="28.3323520" lon="-16.5098280">
        <ele>1772.9</ele>
        <time>2020-11-11T17:02:34Z</time>
      </trkpt>
      <trkpt lat="28.3323520" lon="-16.5097950">
        <ele>1773.9</ele>
        <time>2020-11-11T17:02:35Z</time>
      </trkpt>
      <trkpt lat="28.3323520" lon="-16.5097950">
        <ele>1773.9</ele>
        <time>2020-11-11T17:02:36Z</time>
      </trkpt>
      <trkpt lat="28.3323470" lon="-16.5097600">
        <ele>1773.9</ele>
        <time>2020-11-11T17:02:37Z</time>
      </trkpt>
      <trkpt lat="28.3323470" lon="-16.5097600">
        <ele>1773.9</ele>
        <time>2020-11-11T17:02:38Z</time>
      </trkpt>
      <trkpt lat="28.3323380" lon="-16.5097200">
        <ele>1774.9</ele>
        <time>2020-11-11T17:02:39Z</time>
      </trkpt>
      <trkpt lat="28.3323320" lon="-16.5097020">
        <ele>1774.9</ele>
        <time>2020-11-11T17:02:40Z</time>
      </trkpt>
      <trkpt lat="28.3323320" lon="-16.5097020">
        <ele>1774.9</ele>
        <time>2020-11-11T17:02:41Z</time>
      </trkpt>
      <trkpt lat="28.3323250" lon="-16.5096650">
        <ele>1774.9</ele>
        <time>2020-11-11T17:02:42Z</time>
      </trkpt>
      <trkpt lat="28.3323250" lon="-16.5096650">
        <ele>1774.9</ele>
        <time>2020-11-11T17:02:43Z</time>
      </trkpt>
      <trkpt lat="28.3323180" lon="-16.5096250">
        <ele>1774.9</ele>
        <time>2020-11-11T17:02:44Z</time>
      </trkpt>
      <trkpt lat="28.3323130" lon="-16.5096050">
        <ele>1775.9</ele>
        <time>2020-11-11T17:02:45Z</time>
      </trkpt>
      <trkpt lat="28.3323130" lon="-16.5096050">
        <ele>1775.9</ele>
        <time>2020-11-11T17:02:46Z</time>
      </trkpt>
      <trkpt lat="28.3322950" lon="-16.5095650">
        <ele>1775.9</ele>
        <time>2020-11-11T17:02:47Z</time>
      </trkpt>
      <trkpt lat="28.3322900" lon="-16.5095500">
        <ele>1775.9</ele>
        <time>2020-11-11T17:02:48Z</time>
      </trkpt>
      <trkpt lat="28.3322900" lon="-16.5095500">
        <ele>1776.9</ele>
        <time>2020-11-11T17:02:49Z</time>
      </trkpt>
      <trkpt lat="28.3322780" lon="-16.5095170">
        <ele>1776.9</ele>
        <time>2020-11-11T17:02:50Z</time>
      </trkpt>
      <trkpt lat="28.3322780" lon="-16.5095170">
        <ele>1776.9</ele>
        <time>2020-11-11T17:02:51Z</time>
      </trkpt>
      <trkpt lat="28.3322630" lon="-16.5094680">
        <ele>1776.9</ele>
        <time>2020-11-11T17:02:52Z</time>
      </trkpt>
      <trkpt lat="28.3322630" lon="-16.5094680">
        <ele>1776.9</ele>
        <time>2020-11-11T17:02:53Z</time>
      </trkpt>
      <trkpt lat="28.3322670" lon="-16.5094320">
        <ele>1776.9</ele>
        <time>2020-11-11T17:02:54Z</time>
      </trkpt>
      <trkpt lat="28.3322670" lon="-16.5094320">
        <ele>1777.9</ele>
        <time>2020-11-11T17:02:55Z</time>
      </trkpt>
      <trkpt lat="28.3322670" lon="-16.5093880">
        <ele>1777.9</ele>
        <time>2020-11-11T17:02:56Z</time>
      </trkpt>
      <trkpt lat="28.3322670" lon="-16.5093880">
        <ele>1777.9</ele>
        <time>2020-11-11T17:02:57Z</time>
      </trkpt>
      <trkpt lat="28.3322800" lon="-16.5093330">
        <ele>1777.9</ele>
        <time>2020-11-11T17:02:58Z</time>
      </trkpt>
      <trkpt lat="28.3322850" lon="-16.5093080">
        <ele>1777.9</ele>
        <time>2020-11-11T17:02:59Z</time>
      </trkpt>
      <trkpt lat="28.3322850" lon="-16.5093080">
        <ele>1777.9</ele>
        <time>2020-11-11T17:03:00Z</time>
      </trkpt>
      <trkpt lat="28.3322980" lon="-16.5092630">
        <ele>1777.9</ele>
        <time>2020-11-11T17:03:01Z</time>
      </trkpt>
      <trkpt lat="28.3322980" lon="-16.5092630">
        <ele>1777.9</ele>
        <time>2020-11-11T17:03:02Z</time>
      </trkpt>
      <trkpt lat="28.3323150" lon="-16.5092230">
        <ele>1777.9</ele>
        <time>2020-11-11T17:03:03Z</time>
      </trkpt>
      <trkpt lat="28.3323150" lon="-16.5092230">
        <ele>1777.9</ele>
        <time>2020-11-11T17:03:04Z</time>
      </trkpt>
      <trkpt lat="28.3323280" lon="-16.5091830">
        <ele>1777.9</ele>
        <time>2020-11-11T17:03:05Z</time>
      </trkpt>
      <trkpt lat="28.3323280" lon="-16.5091830">
        <ele>1777.9</ele>
        <time>2020-11-11T17:03:06Z</time>
      </trkpt>
      <trkpt lat="28.3323330" lon="-16.5091470">
        <ele>1777.9</ele>
        <time>2020-11-11T17:03:07Z</time>
      </trkpt>
      <trkpt lat="28.3323330" lon="-16.5091470">
        <ele>1777.9</ele>
        <time>2020-11-11T17:03:08Z</time>
      </trkpt>
      <trkpt lat="28.3323470" lon="-16.5091050">
        <ele>1777.9</ele>
        <time>2020-11-11T17:03:09Z</time>
      </trkpt>
      <trkpt lat="28.3323530" lon="-16.5090830">
        <ele>1777.9</ele>
        <time>2020-11-11T17:03:10Z</time>
      </trkpt>
      <trkpt lat="28.3323530" lon="-16.5090830">
        <ele>1777.9</ele>
        <time>2020-11-11T17:03:11Z</time>
      </trkpt>
      <trkpt lat="28.3323600" lon="-16.5090450">
        <ele>1778.9</ele>
        <time>2020-11-11T17:03:12Z</time>
      </trkpt>
      <trkpt lat="28.3323600" lon="-16.5090450">
        <ele>1778.9</ele>
        <time>2020-11-11T17:03:13Z</time>
      </trkpt>
      <trkpt lat="28.3323700" lon="-16.5090020">
        <ele>1778.9</ele>
        <time>2020-11-11T17:03:14Z</time>
      </trkpt>
      <trkpt lat="28.3323700" lon="-16.5090020">
        <ele>1778.9</ele>
        <time>2020-11-11T17:03:15Z</time>
      </trkpt>
      <trkpt lat="28.3323830" lon="-16.5089520">
        <ele>1778.9</ele>
        <time>2020-11-11T17:03:16Z</time>
      </trkpt>
      <trkpt lat="28.3323830" lon="-16.5089520">
        <ele>1778.9</ele>
        <time>2020-11-11T17:03:17Z</time>
      </trkpt>
      <trkpt lat="28.3323900" lon="-16.5089020">
        <ele>1778.9</ele>
        <time>2020-11-11T17:03:18Z</time>
      </trkpt>
      <trkpt lat="28.3323930" lon="-16.5088780">
        <ele>1778.9</ele>
        <time>2020-11-11T17:03:19Z</time>
      </trkpt>
      <trkpt lat="28.3323930" lon="-16.5088780">
        <ele>1779.9</ele>
        <time>2020-11-11T17:03:20Z</time>
      </trkpt>
      <trkpt lat="28.3323980" lon="-16.5088250">
        <ele>1779.9</ele>
        <time>2020-11-11T17:03:21Z</time>
      </trkpt>
      <trkpt lat="28.3323950" lon="-16.5087970">
        <ele>1779.9</ele>
        <time>2020-11-11T17:03:22Z</time>
      </trkpt>
      <trkpt lat="28.3323950" lon="-16.5087970">
        <ele>1779.9</ele>
        <time>2020-11-11T17:03:23Z</time>
      </trkpt>
      <trkpt lat="28.3323970" lon="-16.5087520">
        <ele>1779.9</ele>
        <time>2020-11-11T17:03:24Z</time>
      </trkpt>
      <trkpt lat="28.3323930" lon="-16.5087280">
        <ele>1779.9</ele>
        <time>2020-11-11T17:03:25Z</time>
      </trkpt>
      <trkpt lat="28.3323930" lon="-16.5087280">
        <ele>1779.9</ele>
        <time>2020-11-11T17:03:26Z</time>
      </trkpt>
      <trkpt lat="28.3323930" lon="-16.5086870">
        <ele>1779.9</ele>
        <time>2020-11-11T17:03:27Z</time>
      </trkpt>
      <trkpt lat="28.3323930" lon="-16.5086870">
        <ele>1780.9</ele>
        <time>2020-11-11T17:03:28Z</time>
      </trkpt>
      <trkpt lat="28.3323970" lon="-16.5086500">
        <ele>1780.9</ele>
        <time>2020-11-11T17:03:29Z</time>
      </trkpt>
      <trkpt lat="28.3323970" lon="-16.5086500">
        <ele>1780.9</ele>
        <time>2020-11-11T17:03:30Z</time>
      </trkpt>
      <trkpt lat="28.3323970" lon="-16.5086120">
        <ele>1780.9</ele>
        <time>2020-11-11T17:03:31Z</time>
      </trkpt>
      <trkpt lat="28.3323970" lon="-16.5086120">
        <ele>1780.9</ele>
        <time>2020-11-11T17:03:32Z</time>
      </trkpt>
      <trkpt lat="28.3323980" lon="-16.5085720">
        <ele>1780.9</ele>
        <time>2020-11-11T17:03:33Z</time>
      </trkpt>
      <trkpt lat="28.3323980" lon="-16.5085720">
        <ele>1780.9</ele>
        <time>2020-11-11T17:03:34Z</time>
      </trkpt>
      <trkpt lat="28.3324050" lon="-16.5085300">
        <ele>1780.9</ele>
        <time>2020-11-11T17:03:35Z</time>
      </trkpt>
      <trkpt lat="28.3324050" lon="-16.5085300">
        <ele>1781.9</ele>
        <time>2020-11-11T17:03:36Z</time>
      </trkpt>
      <trkpt lat="28.3324080" lon="-16.5084930">
        <ele>1781.9</ele>
        <time>2020-11-11T17:03:37Z</time>
      </trkpt>
      <trkpt lat="28.3324080" lon="-16.5084930">
        <ele>1781.9</ele>
        <time>2020-11-11T17:03:38Z</time>
      </trkpt>
      <trkpt lat="28.3324120" lon="-16.5084580">
        <ele>1781.9</ele>
        <time>2020-11-11T17:03:39Z</time>
      </trkpt>
      <trkpt lat="28.3324120" lon="-16.5084580">
        <ele>1781.9</ele>
        <time>2020-11-11T17:03:40Z</time>
      </trkpt>
      <trkpt lat="28.3324150" lon="-16.5084270">
        <ele>1781.9</ele>
        <time>2020-11-11T17:03:41Z</time>
      </trkpt>
      <trkpt lat="28.3324150" lon="-16.5084270">
        <ele>1782.9</ele>
        <time>2020-11-11T17:03:42Z</time>
      </trkpt>
      <trkpt lat="28.3324230" lon="-16.5083930">
        <ele>1782.9</ele>
        <time>2020-11-11T17:03:43Z</time>
      </trkpt>
      <trkpt lat="28.3324230" lon="-16.5083930">
        <ele>1782.9</ele>
        <time>2020-11-11T17:03:44Z</time>
      </trkpt>
      <trkpt lat="28.3324320" lon="-16.5083620">
        <ele>1782.9</ele>
        <time>2020-11-11T17:03:45Z</time>
      </trkpt>
      <trkpt lat="28.3324320" lon="-16.5083620">
        <ele>1783.9</ele>
        <time>2020-11-11T17:03:46Z</time>
      </trkpt>
      <trkpt lat="28.3324330" lon="-16.5083400">
        <ele>1783.9</ele>
        <time>2020-11-11T17:03:47Z</time>
      </trkpt>
      <trkpt lat="28.3324330" lon="-16.5083400">
        <ele>1783.9</ele>
        <time>2020-11-11T17:03:48Z</time>
      </trkpt>
      <trkpt lat="28.3324370" lon="-16.5083070">
        <ele>1783.9</ele>
        <time>2020-11-11T17:03:49Z</time>
      </trkpt>
      <trkpt lat="28.3324370" lon="-16.5083070">
        <ele>1783.9</ele>
        <time>2020-11-11T17:03:50Z</time>
      </trkpt>
      <trkpt lat="28.3324500" lon="-16.5082600">
        <ele>1783.9</ele>
        <time>2020-11-11T17:03:51Z</time>
      </trkpt>
      <trkpt lat="28.3324500" lon="-16.5082600">
        <ele>1783.9</ele>
        <time>2020-11-11T17:03:52Z</time>
      </trkpt>
      <trkpt lat="28.3324520" lon="-16.5082150">
        <ele>1783.9</ele>
        <time>2020-11-11T17:03:53Z</time>
      </trkpt>
      <trkpt lat="28.3324520" lon="-16.5082150">
        <ele>1783.9</ele>
        <time>2020-11-11T17:03:54Z</time>
      </trkpt>
      <trkpt lat="28.3324630" lon="-16.5081730">
        <ele>1783.9</ele>
        <time>2020-11-11T17:03:55Z</time>
      </trkpt>
      <trkpt lat="28.3324630" lon="-16.5081730">
        <ele>1783.9</ele>
        <time>2020-11-11T17:03:56Z</time>
      </trkpt>
      <trkpt lat="28.3324730" lon="-16.5081520">
        <ele>1784.9</ele>
        <time>2020-11-11T17:03:57Z</time>
      </trkpt>
      <trkpt lat="28.3324730" lon="-16.5081520">
        <ele>1784.9</ele>
        <time>2020-11-11T17:03:58Z</time>
      </trkpt>
      <trkpt lat="28.3324930" lon="-16.5081250">
        <ele>1784.9</ele>
        <time>2020-11-11T17:03:59Z</time>
      </trkpt>
      <trkpt lat="28.3325050" lon="-16.5081080">
        <ele>1784.9</ele>
        <time>2020-11-11T17:04:00Z</time>
      </trkpt>
      <trkpt lat="28.3325150" lon="-16.5080880">
        <ele>1784.9</ele>
        <time>2020-11-11T17:04:01Z</time>
      </trkpt>
      <trkpt lat="28.3325250" lon="-16.5080700">
        <ele>1784.9</ele>
        <time>2020-11-11T17:04:02Z</time>
      </trkpt>
      <trkpt lat="28.3325250" lon="-16.5080700">
        <ele>1784.9</ele>
        <time>2020-11-11T17:04:03Z</time>
      </trkpt>
      <trkpt lat="28.3325520" lon="-16.5080400">
        <ele>1784.9</ele>
        <time>2020-11-11T17:04:04Z</time>
      </trkpt>
      <trkpt lat="28.3325650" lon="-16.5080250">
        <ele>1784.9</ele>
        <time>2020-11-11T17:04:05Z</time>
      </trkpt>
      <trkpt lat="28.3325650" lon="-16.5080250">
        <ele>1785.9</ele>
        <time>2020-11-11T17:04:06Z</time>
      </trkpt>
      <trkpt lat="28.3325900" lon="-16.5080000">
        <ele>1785.9</ele>
        <time>2020-11-11T17:04:07Z</time>
      </trkpt>
      <trkpt lat="28.3325900" lon="-16.5080000">
        <ele>1785.9</ele>
        <time>2020-11-11T17:04:08Z</time>
      </trkpt>
      <trkpt lat="28.3326120" lon="-16.5079820">
        <ele>1785.9</ele>
        <time>2020-11-11T17:04:09Z</time>
      </trkpt>
      <trkpt lat="28.3326120" lon="-16.5079820">
        <ele>1786.9</ele>
        <time>2020-11-11T17:04:10Z</time>
      </trkpt>
      <trkpt lat="28.3326370" lon="-16.5079620">
        <ele>1786.9</ele>
        <time>2020-11-11T17:04:11Z</time>
      </trkpt>
      <trkpt lat="28.3326500" lon="-16.5079520">
        <ele>1786.9</ele>
        <time>2020-11-11T17:04:12Z</time>
      </trkpt>
      <trkpt lat="28.3326500" lon="-16.5079520">
        <ele>1786.9</ele>
        <time>2020-11-11T17:04:13Z</time>
      </trkpt>
      <trkpt lat="28.3326800" lon="-16.5079300">
        <ele>1786.9</ele>
        <time>2020-11-11T17:04:14Z</time>
      </trkpt>
      <trkpt lat="28.3326800" lon="-16.5079300">
        <ele>1786.9</ele>
        <time>2020-11-11T17:04:15Z</time>
      </trkpt>
      <trkpt lat="28.3327100" lon="-16.5079170">
        <ele>1787.9</ele>
        <time>2020-11-11T17:04:16Z</time>
      </trkpt>
      <trkpt lat="28.3327100" lon="-16.5079170">
        <ele>1787.9</ele>
        <time>2020-11-11T17:04:17Z</time>
      </trkpt>
      <trkpt lat="28.3327420" lon="-16.5078980">
        <ele>1787.9</ele>
        <time>2020-11-11T17:04:18Z</time>
      </trkpt>
      <trkpt lat="28.3327420" lon="-16.5078980">
        <ele>1787.9</ele>
        <time>2020-11-11T17:04:19Z</time>
      </trkpt>
      <trkpt lat="28.3327750" lon="-16.5078780">
        <ele>1787.9</ele>
        <time>2020-11-11T17:04:20Z</time>
      </trkpt>
      <trkpt lat="28.3327750" lon="-16.5078780">
        <ele>1787.9</ele>
        <time>2020-11-11T17:04:21Z</time>
      </trkpt>
      <trkpt lat="28.3328080" lon="-16.5078700">
        <ele>1787.9</ele>
        <time>2020-11-11T17:04:22Z</time>
      </trkpt>
      <trkpt lat="28.3328080" lon="-16.5078700">
        <ele>1787.9</ele>
        <time>2020-11-11T17:04:23Z</time>
      </trkpt>
      <trkpt lat="28.3328420" lon="-16.5078450">
        <ele>1787.9</ele>
        <time>2020-11-11T17:04:24Z</time>
      </trkpt>
      <trkpt lat="28.3328570" lon="-16.5078300">
        <ele>1787.9</ele>
        <time>2020-11-11T17:04:25Z</time>
      </trkpt>
      <trkpt lat="28.3328570" lon="-16.5078300">
        <ele>1787.9</ele>
        <time>2020-11-11T17:04:26Z</time>
      </trkpt>
      <trkpt lat="28.3328880" lon="-16.5078080">
        <ele>1787.9</ele>
        <time>2020-11-11T17:04:27Z</time>
      </trkpt>
      <trkpt lat="28.3328880" lon="-16.5078080">
        <ele>1787.9</ele>
        <time>2020-11-11T17:04:28Z</time>
      </trkpt>
      <trkpt lat="28.3329200" lon="-16.5077800">
        <ele>1787.9</ele>
        <time>2020-11-11T17:04:29Z</time>
      </trkpt>
      <trkpt lat="28.3329200" lon="-16.5077800">
        <ele>1787.9</ele>
        <time>2020-11-11T17:04:30Z</time>
      </trkpt>
      <trkpt lat="28.3329520" lon="-16.5077500">
        <ele>1787.9</ele>
        <time>2020-11-11T17:04:31Z</time>
      </trkpt>
      <trkpt lat="28.3329520" lon="-16.5077500">
        <ele>1789.9</ele>
        <time>2020-11-11T17:04:32Z</time>
      </trkpt>
      <trkpt lat="28.3329820" lon="-16.5077130">
        <ele>1789.9</ele>
        <time>2020-11-11T17:04:33Z</time>
      </trkpt>
      <trkpt lat="28.3329930" lon="-16.5076930">
        <ele>1789.9</ele>
        <time>2020-11-11T17:04:34Z</time>
      </trkpt>
      <trkpt lat="28.3329930" lon="-16.5076930">
        <ele>1789.9</ele>
        <time>2020-11-11T17:04:35Z</time>
      </trkpt>
      <trkpt lat="28.3330170" lon="-16.5076580">
        <ele>1789.9</ele>
        <time>2020-11-11T17:04:36Z</time>
      </trkpt>
      <trkpt lat="28.3330170" lon="-16.5076580">
        <ele>1789.9</ele>
        <time>2020-11-11T17:04:37Z</time>
      </trkpt>
      <trkpt lat="28.3330450" lon="-16.5076270">
        <ele>1789.9</ele>
        <time>2020-11-11T17:04:38Z</time>
      </trkpt>
      <trkpt lat="28.3330450" lon="-16.5076270">
        <ele>1789.9</ele>
        <time>2020-11-11T17:04:39Z</time>
      </trkpt>
      <trkpt lat="28.3330650" lon="-16.5075980">
        <ele>1789.9</ele>
        <time>2020-11-11T17:04:40Z</time>
      </trkpt>
      <trkpt lat="28.3330770" lon="-16.5075830">
        <ele>1789.9</ele>
        <time>2020-11-11T17:04:41Z</time>
      </trkpt>
      <trkpt lat="28.3330770" lon="-16.5075830">
        <ele>1789.9</ele>
        <time>2020-11-11T17:04:42Z</time>
      </trkpt>
      <trkpt lat="28.3331000" lon="-16.5075500">
        <ele>1789.9</ele>
        <time>2020-11-11T17:04:43Z</time>
      </trkpt>
      <trkpt lat="28.3331000" lon="-16.5075500">
        <ele>1790.9</ele>
        <time>2020-11-11T17:04:44Z</time>
      </trkpt>
      <trkpt lat="28.3331120" lon="-16.5075150">
        <ele>1790.9</ele>
        <time>2020-11-11T17:04:45Z</time>
      </trkpt>
      <trkpt lat="28.3331120" lon="-16.5075150">
        <ele>1790.9</ele>
        <time>2020-11-11T17:04:46Z</time>
      </trkpt>
      <trkpt lat="28.3331250" lon="-16.5074780">
        <ele>1790.9</ele>
        <time>2020-11-11T17:04:47Z</time>
      </trkpt>
      <trkpt lat="28.3331320" lon="-16.5074600">
        <ele>1791.9</ele>
        <time>2020-11-11T17:04:48Z</time>
      </trkpt>
      <trkpt lat="28.3331320" lon="-16.5074600">
        <ele>1791.9</ele>
        <time>2020-11-11T17:04:49Z</time>
      </trkpt>
      <trkpt lat="28.3331470" lon="-16.5074250">
        <ele>1791.9</ele>
        <time>2020-11-11T17:04:50Z</time>
      </trkpt>
      <trkpt lat="28.3331470" lon="-16.5074250">
        <ele>1791.9</ele>
        <time>2020-11-11T17:04:51Z</time>
      </trkpt>
      <trkpt lat="28.3331600" lon="-16.5073880">
        <ele>1791.9</ele>
        <time>2020-11-11T17:04:52Z</time>
      </trkpt>
      <trkpt lat="28.3331670" lon="-16.5073670">
        <ele>1791.9</ele>
        <time>2020-11-11T17:04:53Z</time>
      </trkpt>
      <trkpt lat="28.3331670" lon="-16.5073670">
        <ele>1791.9</ele>
        <time>2020-11-11T17:04:54Z</time>
      </trkpt>
      <trkpt lat="28.3331720" lon="-16.5073150">
        <ele>1791.9</ele>
        <time>2020-11-11T17:04:55Z</time>
      </trkpt>
      <trkpt lat="28.3331720" lon="-16.5073150">
        <ele>1791.9</ele>
        <time>2020-11-11T17:04:56Z</time>
      </trkpt>
      <trkpt lat="28.3331600" lon="-16.5072770">
        <ele>1792.9</ele>
        <time>2020-11-11T17:04:57Z</time>
      </trkpt>
      <trkpt lat="28.3331600" lon="-16.5072770">
        <ele>1792.9</ele>
        <time>2020-11-11T17:04:58Z</time>
      </trkpt>
      <trkpt lat="28.3331450" lon="-16.5072530">
        <ele>1792.9</ele>
        <time>2020-11-11T17:04:59Z</time>
      </trkpt>
      <trkpt lat="28.3331330" lon="-16.5072470">
        <ele>1792.9</ele>
        <time>2020-11-11T17:05:00Z</time>
      </trkpt>
      <trkpt lat="28.3331170" lon="-16.5072400">
        <ele>1792.9</ele>
        <time>2020-11-11T17:05:01Z</time>
      </trkpt>
      <trkpt lat="28.3331170" lon="-16.5072400">
        <ele>1792.9</ele>
        <time>2020-11-11T17:05:02Z</time>
      </trkpt>
      <trkpt lat="28.3330920" lon="-16.5072370">
        <ele>1793.9</ele>
        <time>2020-11-11T17:05:03Z</time>
      </trkpt>
      <trkpt lat="28.3330820" lon="-16.5072420">
        <ele>1793.9</ele>
        <time>2020-11-11T17:05:04Z</time>
      </trkpt>
      <trkpt lat="28.3330820" lon="-16.5072420">
        <ele>1793.9</ele>
        <time>2020-11-11T17:05:05Z</time>
      </trkpt>
      <trkpt lat="28.3330620" lon="-16.5072530">
        <ele>1793.9</ele>
        <time>2020-11-11T17:05:06Z</time>
      </trkpt>
      <trkpt lat="28.3330520" lon="-16.5072620">
        <ele>1793.9</ele>
        <time>2020-11-11T17:05:07Z</time>
      </trkpt>
      <trkpt lat="28.3330520" lon="-16.5072620">
        <ele>1794.9</ele>
        <time>2020-11-11T17:05:08Z</time>
      </trkpt>
      <trkpt lat="28.3330330" lon="-16.5072800">
        <ele>1794.9</ele>
        <time>2020-11-11T17:05:09Z</time>
      </trkpt>
      <trkpt lat="28.3330330" lon="-16.5072800">
        <ele>1794.9</ele>
        <time>2020-11-11T17:05:10Z</time>
      </trkpt>
      <trkpt lat="28.3330170" lon="-16.5072950">
        <ele>1794.9</ele>
        <time>2020-11-11T17:05:11Z</time>
      </trkpt>
      <trkpt lat="28.3330170" lon="-16.5072950">
        <ele>1795.9</ele>
        <time>2020-11-11T17:05:12Z</time>
      </trkpt>
      <trkpt lat="28.3329870" lon="-16.5073150">
        <ele>1795.9</ele>
        <time>2020-11-11T17:05:13Z</time>
      </trkpt>
      <trkpt lat="28.3329870" lon="-16.5073150">
        <ele>1795.9</ele>
        <time>2020-11-11T17:05:14Z</time>
      </trkpt>
      <trkpt lat="28.3329580" lon="-16.5073430">
        <ele>1795.9</ele>
        <time>2020-11-11T17:05:15Z</time>
      </trkpt>
      <trkpt lat="28.3329580" lon="-16.5073430">
        <ele>1796.9</ele>
        <time>2020-11-11T17:05:16Z</time>
      </trkpt>
      <trkpt lat="28.3329270" lon="-16.5073700">
        <ele>1796.9</ele>
        <time>2020-11-11T17:05:17Z</time>
      </trkpt>
      <trkpt lat="28.3329270" lon="-16.5073700">
        <ele>1796.9</ele>
        <time>2020-11-11T17:05:18Z</time>
      </trkpt>
      <trkpt lat="28.3329020" lon="-16.5073980">
        <ele>1796.9</ele>
        <time>2020-11-11T17:05:19Z</time>
      </trkpt>
      <trkpt lat="28.3329020" lon="-16.5073980">
        <ele>1796.9</ele>
        <time>2020-11-11T17:05:20Z</time>
      </trkpt>
      <trkpt lat="28.3328780" lon="-16.5074170">
        <ele>1796.9</ele>
        <time>2020-11-11T17:05:21Z</time>
      </trkpt>
      <trkpt lat="28.3328780" lon="-16.5074170">
        <ele>1796.9</ele>
        <time>2020-11-11T17:05:22Z</time>
      </trkpt>
      <trkpt lat="28.3328570" lon="-16.5074400">
        <ele>1796.9</ele>
        <time>2020-11-11T17:05:23Z</time>
      </trkpt>
      <trkpt lat="28.3328570" lon="-16.5074400">
        <ele>1796.9</ele>
        <time>2020-11-11T17:05:24Z</time>
      </trkpt>
      <trkpt lat="28.3328270" lon="-16.5074650">
        <ele>1796.9</ele>
        <time>2020-11-11T17:05:25Z</time>
      </trkpt>
      <trkpt lat="28.3328270" lon="-16.5074650">
        <ele>1797.9</ele>
        <time>2020-11-11T17:05:26Z</time>
      </trkpt>
      <trkpt lat="28.3327900" lon="-16.5075020">
        <ele>1797.9</ele>
        <time>2020-11-11T17:05:27Z</time>
      </trkpt>
      <trkpt lat="28.3327900" lon="-16.5075020">
        <ele>1797.9</ele>
        <time>2020-11-11T17:05:28Z</time>
      </trkpt>
      <trkpt lat="28.3327630" lon="-16.5075400">
        <ele>1797.9</ele>
        <time>2020-11-11T17:05:29Z</time>
      </trkpt>
      <trkpt lat="28.3327630" lon="-16.5075400">
        <ele>1797.9</ele>
        <time>2020-11-11T17:05:30Z</time>
      </trkpt>
      <trkpt lat="28.3327170" lon="-16.5075700">
        <ele>1797.9</ele>
        <time>2020-11-11T17:05:31Z</time>
      </trkpt>
      <trkpt lat="28.3327170" lon="-16.5075700">
        <ele>1798.9</ele>
        <time>2020-11-11T17:05:32Z</time>
      </trkpt>
      <trkpt lat="28.3326770" lon="-16.5075970">
        <ele>1798.9</ele>
        <time>2020-11-11T17:05:33Z</time>
      </trkpt>
      <trkpt lat="28.3326770" lon="-16.5075970">
        <ele>1799.9</ele>
        <time>2020-11-11T17:05:34Z</time>
      </trkpt>
      <trkpt lat="28.3326320" lon="-16.5076130">
        <ele>1799.9</ele>
        <time>2020-11-11T17:05:35Z</time>
      </trkpt>
      <trkpt lat="28.3326130" lon="-16.5076230">
        <ele>1799.9</ele>
        <time>2020-11-11T17:05:36Z</time>
      </trkpt>
      <trkpt lat="28.3325970" lon="-16.5076320">
        <ele>1799.9</ele>
        <time>2020-11-11T17:05:37Z</time>
      </trkpt>
      <trkpt lat="28.3325970" lon="-16.5076320">
        <ele>1799.9</ele>
        <time>2020-11-11T17:05:38Z</time>
      </trkpt>
      <trkpt lat="28.3325570" lon="-16.5076370">
        <ele>1799.9</ele>
        <time>2020-11-11T17:05:39Z</time>
      </trkpt>
      <trkpt lat="28.3325570" lon="-16.5076370">
        <ele>1799.9</ele>
        <time>2020-11-11T17:05:40Z</time>
      </trkpt>
      <trkpt lat="28.3325220" lon="-16.5076480">
        <ele>1800.9</ele>
        <time>2020-11-11T17:05:41Z</time>
      </trkpt>
      <trkpt lat="28.3325220" lon="-16.5076480">
        <ele>1800.9</ele>
        <time>2020-11-11T17:05:42Z</time>
      </trkpt>
      <trkpt lat="28.3324870" lon="-16.5076600">
        <ele>1800.9</ele>
        <time>2020-11-11T17:05:43Z</time>
      </trkpt>
      <trkpt lat="28.3324870" lon="-16.5076600">
        <ele>1800.9</ele>
        <time>2020-11-11T17:05:44Z</time>
      </trkpt>
      <trkpt lat="28.3324520" lon="-16.5076670">
        <ele>1800.9</ele>
        <time>2020-11-11T17:05:45Z</time>
      </trkpt>
      <trkpt lat="28.3324520" lon="-16.5076670">
        <ele>1800.9</ele>
        <time>2020-11-11T17:05:46Z</time>
      </trkpt>
      <trkpt lat="28.3324150" lon="-16.5076720">
        <ele>1800.9</ele>
        <time>2020-11-11T17:05:47Z</time>
      </trkpt>
      <trkpt lat="28.3323950" lon="-16.5076730">
        <ele>1800.9</ele>
        <time>2020-11-11T17:05:48Z</time>
      </trkpt>
      <trkpt lat="28.3323950" lon="-16.5076730">
        <ele>1800.9</ele>
        <time>2020-11-11T17:05:49Z</time>
      </trkpt>
      <trkpt lat="28.3323600" lon="-16.5076800">
        <ele>1800.9</ele>
        <time>2020-11-11T17:05:50Z</time>
      </trkpt>
      <trkpt lat="28.3323600" lon="-16.5076800">
        <ele>1800.9</ele>
        <time>2020-11-11T17:05:51Z</time>
      </trkpt>
      <trkpt lat="28.3323300" lon="-16.5076850">
        <ele>1800.9</ele>
        <time>2020-11-11T17:05:52Z</time>
      </trkpt>
      <trkpt lat="28.3323300" lon="-16.5076850">
        <ele>1800.9</ele>
        <time>2020-11-11T17:05:53Z</time>
      </trkpt>
      <trkpt lat="28.3323100" lon="-16.5076930">
        <ele>1801.9</ele>
        <time>2020-11-11T17:05:54Z</time>
      </trkpt>
      <trkpt lat="28.3323100" lon="-16.5076930">
        <ele>1801.9</ele>
        <time>2020-11-11T17:05:55Z</time>
      </trkpt>
      <trkpt lat="28.3322950" lon="-16.5077120">
        <ele>1801.9</ele>
        <time>2020-11-11T17:05:56Z</time>
      </trkpt>
      <trkpt lat="28.3322950" lon="-16.5077120">
        <ele>1801.9</ele>
        <time>2020-11-11T17:05:57Z</time>
      </trkpt>
      <trkpt lat="28.3322430" lon="-16.5077480">
        <ele>1801.9</ele>
        <time>2020-11-11T17:05:58Z</time>
      </trkpt>
      <trkpt lat="28.3322430" lon="-16.5077480">
        <ele>1801.9</ele>
        <time>2020-11-11T17:05:59Z</time>
      </trkpt>
      <trkpt lat="28.3322430" lon="-16.5077480">
        <ele>1801.9</ele>
        <time>2020-11-11T17:06:00Z</time>
      </trkpt>
      <trkpt lat="28.3322200" lon="-16.5077780">
        <ele>1801.9</ele>
        <time>2020-11-11T17:06:01Z</time>
      </trkpt>
      <trkpt lat="28.3322200" lon="-16.5077780">
        <ele>1802.9</ele>
        <time>2020-11-11T17:06:02Z</time>
      </trkpt>
      <trkpt lat="28.3321970" lon="-16.5078130">
        <ele>1802.9</ele>
        <time>2020-11-11T17:06:03Z</time>
      </trkpt>
      <trkpt lat="28.3321970" lon="-16.5078130">
        <ele>1802.9</ele>
        <time>2020-11-11T17:06:04Z</time>
      </trkpt>
      <trkpt lat="28.3321670" lon="-16.5078400">
        <ele>1802.9</ele>
        <time>2020-11-11T17:06:05Z</time>
      </trkpt>
      <trkpt lat="28.3321670" lon="-16.5078400">
        <ele>1802.9</ele>
        <time>2020-11-11T17:06:06Z</time>
      </trkpt>
      <trkpt lat="28.3321400" lon="-16.5078670">
        <ele>1802.9</ele>
        <time>2020-11-11T17:06:07Z</time>
      </trkpt>
      <trkpt lat="28.3321400" lon="-16.5078670">
        <ele>1803.9</ele>
        <time>2020-11-11T17:06:08Z</time>
      </trkpt>
      <trkpt lat="28.3321080" lon="-16.5078880">
        <ele>1803.9</ele>
        <time>2020-11-11T17:06:09Z</time>
      </trkpt>
      <trkpt lat="28.3320880" lon="-16.5079020">
        <ele>1803.9</ele>
        <time>2020-11-11T17:06:10Z</time>
      </trkpt>
      <trkpt lat="28.3320880" lon="-16.5079020">
        <ele>1803.9</ele>
        <time>2020-11-11T17:06:11Z</time>
      </trkpt>
      <trkpt lat="28.3320650" lon="-16.5079320">
        <ele>1803.9</ele>
        <time>2020-11-11T17:06:12Z</time>
      </trkpt>
      <trkpt lat="28.3320500" lon="-16.5079480">
        <ele>1803.9</ele>
        <time>2020-11-11T17:06:13Z</time>
      </trkpt>
      <trkpt lat="28.3320500" lon="-16.5079480">
        <ele>1804.9</ele>
        <time>2020-11-11T17:06:14Z</time>
      </trkpt>
      <trkpt lat="28.3320170" lon="-16.5079730">
        <ele>1804.9</ele>
        <time>2020-11-11T17:06:15Z</time>
      </trkpt>
      <trkpt lat="28.3320000" lon="-16.5079870">
        <ele>1804.9</ele>
        <time>2020-11-11T17:06:16Z</time>
      </trkpt>
      <trkpt lat="28.3320000" lon="-16.5079870">
        <ele>1804.9</ele>
        <time>2020-11-11T17:06:17Z</time>
      </trkpt>
      <trkpt lat="28.3319630" lon="-16.5080150">
        <ele>1804.9</ele>
        <time>2020-11-11T17:06:18Z</time>
      </trkpt>
      <trkpt lat="28.3319630" lon="-16.5080150">
        <ele>1804.9</ele>
        <time>2020-11-11T17:06:19Z</time>
      </trkpt>
      <trkpt lat="28.3319430" lon="-16.5080430">
        <ele>1804.9</ele>
        <time>2020-11-11T17:06:20Z</time>
      </trkpt>
      <trkpt lat="28.3319430" lon="-16.5080430">
        <ele>1805.9</ele>
        <time>2020-11-11T17:06:21Z</time>
      </trkpt>
      <trkpt lat="28.3319150" lon="-16.5080700">
        <ele>1805.9</ele>
        <time>2020-11-11T17:06:22Z</time>
      </trkpt>
      <trkpt lat="28.3319150" lon="-16.5080700">
        <ele>1805.9</ele>
        <time>2020-11-11T17:06:23Z</time>
      </trkpt>
      <trkpt lat="28.3318830" lon="-16.5080900">
        <ele>1805.9</ele>
        <time>2020-11-11T17:06:24Z</time>
      </trkpt>
      <trkpt lat="28.3318700" lon="-16.5081000">
        <ele>1805.9</ele>
        <time>2020-11-11T17:06:25Z</time>
      </trkpt>
      <trkpt lat="28.3318700" lon="-16.5081000">
        <ele>1805.9</ele>
        <time>2020-11-11T17:06:26Z</time>
      </trkpt>
      <trkpt lat="28.3318430" lon="-16.5081170">
        <ele>1806.9</ele>
        <time>2020-11-11T17:06:27Z</time>
      </trkpt>
      <trkpt lat="28.3318430" lon="-16.5081170">
        <ele>1806.9</ele>
        <time>2020-11-11T17:06:28Z</time>
      </trkpt>
      <trkpt lat="28.3318020" lon="-16.5081370">
        <ele>1806.9</ele>
        <time>2020-11-11T17:06:29Z</time>
      </trkpt>
      <trkpt lat="28.3318020" lon="-16.5081370">
        <ele>1806.9</ele>
        <time>2020-11-11T17:06:30Z</time>
      </trkpt>
      <trkpt lat="28.3317700" lon="-16.5081580">
        <ele>1807.9</ele>
        <time>2020-11-11T17:06:31Z</time>
      </trkpt>
      <trkpt lat="28.3317700" lon="-16.5081580">
        <ele>1807.9</ele>
        <time>2020-11-11T17:06:32Z</time>
      </trkpt>
      <trkpt lat="28.3317330" lon="-16.5081820">
        <ele>1807.9</ele>
        <time>2020-11-11T17:06:33Z</time>
      </trkpt>
      <trkpt lat="28.3317330" lon="-16.5081820">
        <ele>1807.9</ele>
        <time>2020-11-11T17:06:34Z</time>
      </trkpt>
      <trkpt lat="28.3317100" lon="-16.5081950">
        <ele>1807.9</ele>
        <time>2020-11-11T17:06:35Z</time>
      </trkpt>
      <trkpt lat="28.3317100" lon="-16.5081950">
        <ele>1807.9</ele>
        <time>2020-11-11T17:06:36Z</time>
      </trkpt>
      <trkpt lat="28.3316830" lon="-16.5082030">
        <ele>1808.9</ele>
        <time>2020-11-11T17:06:37Z</time>
      </trkpt>
      <trkpt lat="28.3316830" lon="-16.5082030">
        <ele>1808.9</ele>
        <time>2020-11-11T17:06:38Z</time>
      </trkpt>
      <trkpt lat="28.3316550" lon="-16.5082170">
        <ele>1808.9</ele>
        <time>2020-11-11T17:06:39Z</time>
      </trkpt>
      <trkpt lat="28.3316550" lon="-16.5082170">
        <ele>1808.9</ele>
        <time>2020-11-11T17:06:40Z</time>
      </trkpt>
      <trkpt lat="28.3316350" lon="-16.5082370">
        <ele>1808.9</ele>
        <time>2020-11-11T17:06:41Z</time>
      </trkpt>
      <trkpt lat="28.3316350" lon="-16.5082370">
        <ele>1808.9</ele>
        <time>2020-11-11T17:06:42Z</time>
      </trkpt>
      <trkpt lat="28.3316180" lon="-16.5082530">
        <ele>1809.9</ele>
        <time>2020-11-11T17:06:43Z</time>
      </trkpt>
      <trkpt lat="28.3316180" lon="-16.5082530">
        <ele>1809.9</ele>
        <time>2020-11-11T17:06:44Z</time>
      </trkpt>
      <trkpt lat="28.3315920" lon="-16.5082650">
        <ele>1809.9</ele>
        <time>2020-11-11T17:06:45Z</time>
      </trkpt>
      <trkpt lat="28.3315920" lon="-16.5082650">
        <ele>1809.9</ele>
        <time>2020-11-11T17:06:46Z</time>
      </trkpt>
      <trkpt lat="28.3315620" lon="-16.5082730">
        <ele>1809.9</ele>
        <time>2020-11-11T17:06:47Z</time>
      </trkpt>
      <trkpt lat="28.3315620" lon="-16.5082730">
        <ele>1809.9</ele>
        <time>2020-11-11T17:06:48Z</time>
      </trkpt>
      <trkpt lat="28.3315300" lon="-16.5082830">
        <ele>1809.9</ele>
        <time>2020-11-11T17:06:49Z</time>
      </trkpt>
      <trkpt lat="28.3315300" lon="-16.5082830">
        <ele>1809.9</ele>
        <time>2020-11-11T17:06:50Z</time>
      </trkpt>
      <trkpt lat="28.3314930" lon="-16.5082980">
        <ele>1810.9</ele>
        <time>2020-11-11T17:06:51Z</time>
      </trkpt>
      <trkpt lat="28.3314930" lon="-16.5082980">
        <ele>1810.9</ele>
        <time>2020-11-11T17:06:52Z</time>
      </trkpt>
      <trkpt lat="28.3314530" lon="-16.5083120">
        <ele>1810.9</ele>
        <time>2020-11-11T17:06:53Z</time>
      </trkpt>
      <trkpt lat="28.3314330" lon="-16.5083220">
        <ele>1810.9</ele>
        <time>2020-11-11T17:06:54Z</time>
      </trkpt>
      <trkpt lat="28.3314330" lon="-16.5083220">
        <ele>1810.9</ele>
        <time>2020-11-11T17:06:55Z</time>
      </trkpt>
      <trkpt lat="28.3313930" lon="-16.5083330">
        <ele>1810.9</ele>
        <time>2020-11-11T17:06:56Z</time>
      </trkpt>
      <trkpt lat="28.3313930" lon="-16.5083330">
        <ele>1811.9</ele>
        <time>2020-11-11T17:06:57Z</time>
      </trkpt>
      <trkpt lat="28.3313580" lon="-16.5083480">
        <ele>1811.9</ele>
        <time>2020-11-11T17:06:58Z</time>
      </trkpt>
      <trkpt lat="28.3313580" lon="-16.5083480">
        <ele>1811.9</ele>
        <time>2020-11-11T17:06:59Z</time>
      </trkpt>
      <trkpt lat="28.3313150" lon="-16.5083700">
        <ele>1811.9</ele>
        <time>2020-11-11T17:07:00Z</time>
      </trkpt>
      <trkpt lat="28.3313150" lon="-16.5083700">
        <ele>1811.9</ele>
        <time>2020-11-11T17:07:01Z</time>
      </trkpt>
      <trkpt lat="28.3312750" lon="-16.5083950">
        <ele>1811.9</ele>
        <time>2020-11-11T17:07:02Z</time>
      </trkpt>
      <trkpt lat="28.3312750" lon="-16.5083950">
        <ele>1811.9</ele>
        <time>2020-11-11T17:07:03Z</time>
      </trkpt>
      <trkpt lat="28.3312400" lon="-16.5084180">
        <ele>1811.9</ele>
        <time>2020-11-11T17:07:04Z</time>
      </trkpt>
      <trkpt lat="28.3312200" lon="-16.5084250">
        <ele>1811.9</ele>
        <time>2020-11-11T17:07:05Z</time>
      </trkpt>
      <trkpt lat="28.3312200" lon="-16.5084250">
        <ele>1812.9</ele>
        <time>2020-11-11T17:07:06Z</time>
      </trkpt>
      <trkpt lat="28.3311850" lon="-16.5084470">
        <ele>1812.9</ele>
        <time>2020-11-11T17:07:07Z</time>
      </trkpt>
      <trkpt lat="28.3311850" lon="-16.5084470">
        <ele>1812.9</ele>
        <time>2020-11-11T17:07:08Z</time>
      </trkpt>
      <trkpt lat="28.3311470" lon="-16.5084620">
        <ele>1812.9</ele>
        <time>2020-11-11T17:07:09Z</time>
      </trkpt>
      <trkpt lat="28.3311470" lon="-16.5084620">
        <ele>1812.9</ele>
        <time>2020-11-11T17:07:10Z</time>
      </trkpt>
      <trkpt lat="28.3311100" lon="-16.5084800">
        <ele>1812.9</ele>
        <time>2020-11-11T17:07:11Z</time>
      </trkpt>
      <trkpt lat="28.3311100" lon="-16.5084800">
        <ele>1812.9</ele>
        <time>2020-11-11T17:07:12Z</time>
      </trkpt>
      <trkpt lat="28.3310820" lon="-16.5085000">
        <ele>1813.9</ele>
        <time>2020-11-11T17:07:13Z</time>
      </trkpt>
      <trkpt lat="28.3310820" lon="-16.5085000">
        <ele>1813.9</ele>
        <time>2020-11-11T17:07:14Z</time>
      </trkpt>
      <trkpt lat="28.3310550" lon="-16.5085180">
        <ele>1813.9</ele>
        <time>2020-11-11T17:07:15Z</time>
      </trkpt>
      <trkpt lat="28.3310550" lon="-16.5085180">
        <ele>1813.9</ele>
        <time>2020-11-11T17:07:16Z</time>
      </trkpt>
      <trkpt lat="28.3310300" lon="-16.5085370">
        <ele>1814.9</ele>
        <time>2020-11-11T17:07:17Z</time>
      </trkpt>
      <trkpt lat="28.3310300" lon="-16.5085370">
        <ele>1814.9</ele>
        <time>2020-11-11T17:07:18Z</time>
      </trkpt>
      <trkpt lat="28.3310070" lon="-16.5085600">
        <ele>1814.9</ele>
        <time>2020-11-11T17:07:19Z</time>
      </trkpt>
      <trkpt lat="28.3310070" lon="-16.5085600">
        <ele>1814.9</ele>
        <time>2020-11-11T17:07:20Z</time>
      </trkpt>
      <trkpt lat="28.3309800" lon="-16.5085830">
        <ele>1814.9</ele>
        <time>2020-11-11T17:07:21Z</time>
      </trkpt>
      <trkpt lat="28.3309800" lon="-16.5085830">
        <ele>1814.9</ele>
        <time>2020-11-11T17:07:22Z</time>
      </trkpt>
      <trkpt lat="28.3309470" lon="-16.5086020">
        <ele>1814.9</ele>
        <time>2020-11-11T17:07:23Z</time>
      </trkpt>
      <trkpt lat="28.3309470" lon="-16.5086020">
        <ele>1814.9</ele>
        <time>2020-11-11T17:07:24Z</time>
      </trkpt>
      <trkpt lat="28.3309170" lon="-16.5086280">
        <ele>1815.9</ele>
        <time>2020-11-11T17:07:25Z</time>
      </trkpt>
      <trkpt lat="28.3309170" lon="-16.5086280">
        <ele>1815.9</ele>
        <time>2020-11-11T17:07:26Z</time>
      </trkpt>
      <trkpt lat="28.3308930" lon="-16.5086420">
        <ele>1815.9</ele>
        <time>2020-11-11T17:07:27Z</time>
      </trkpt>
      <trkpt lat="28.3308830" lon="-16.5086480">
        <ele>1815.9</ele>
        <time>2020-11-11T17:07:28Z</time>
      </trkpt>
      <trkpt lat="28.3308830" lon="-16.5086480">
        <ele>1815.9</ele>
        <time>2020-11-11T17:07:29Z</time>
      </trkpt>
      <trkpt lat="28.3308330" lon="-16.5086820">
        <ele>1815.9</ele>
        <time>2020-11-11T17:07:30Z</time>
      </trkpt>
      <trkpt lat="28.3308330" lon="-16.5086820">
        <ele>1815.9</ele>
        <time>2020-11-11T17:07:31Z</time>
      </trkpt>
      <trkpt lat="28.3307920" lon="-16.5087070">
        <ele>1815.9</ele>
        <time>2020-11-11T17:07:32Z</time>
      </trkpt>
      <trkpt lat="28.3307700" lon="-16.5087220">
        <ele>1816.9</ele>
        <time>2020-11-11T17:07:33Z</time>
      </trkpt>
      <trkpt lat="28.3307700" lon="-16.5087220">
        <ele>1816.9</ele>
        <time>2020-11-11T17:07:34Z</time>
      </trkpt>
      <trkpt lat="28.3307280" lon="-16.5087450">
        <ele>1816.9</ele>
        <time>2020-11-11T17:07:35Z</time>
      </trkpt>
      <trkpt lat="28.3307280" lon="-16.5087450">
        <ele>1816.9</ele>
        <time>2020-11-11T17:07:36Z</time>
      </trkpt>
      <trkpt lat="28.3306830" lon="-16.5087630">
        <ele>1816.9</ele>
        <time>2020-11-11T17:07:37Z</time>
      </trkpt>
      <trkpt lat="28.3306830" lon="-16.5087630">
        <ele>1817.9</ele>
        <time>2020-11-11T17:07:38Z</time>
      </trkpt>
      <trkpt lat="28.3306520" lon="-16.5087700">
        <ele>1817.9</ele>
        <time>2020-11-11T17:07:39Z</time>
      </trkpt>
      <trkpt lat="28.3306520" lon="-16.5087700">
        <ele>1817.9</ele>
        <time>2020-11-11T17:07:40Z</time>
      </trkpt>
      <trkpt lat="28.3306300" lon="-16.5087920">
        <ele>1817.9</ele>
        <time>2020-11-11T17:07:41Z</time>
      </trkpt>
      <trkpt lat="28.3306180" lon="-16.5088030">
        <ele>1817.9</ele>
        <time>2020-11-11T17:07:42Z</time>
      </trkpt>
      <trkpt lat="28.3306180" lon="-16.5088030">
        <ele>1817.9</ele>
        <time>2020-11-11T17:07:43Z</time>
      </trkpt>
      <trkpt lat="28.3306030" lon="-16.5088250">
        <ele>1817.9</ele>
        <time>2020-11-11T17:07:44Z</time>
      </trkpt>
      <trkpt lat="28.3306030" lon="-16.5088250">
        <ele>1817.9</ele>
        <time>2020-11-11T17:07:45Z</time>
      </trkpt>
      <trkpt lat="28.3305830" lon="-16.5088430">
        <ele>1818.9</ele>
        <time>2020-11-11T17:07:46Z</time>
      </trkpt>
      <trkpt lat="28.3305830" lon="-16.5088430">
        <ele>1818.9</ele>
        <time>2020-11-11T17:07:47Z</time>
      </trkpt>
      <trkpt lat="28.3305620" lon="-16.5088680">
        <ele>1818.9</ele>
        <time>2020-11-11T17:07:48Z</time>
      </trkpt>
      <trkpt lat="28.3305520" lon="-16.5088830">
        <ele>1818.9</ele>
        <time>2020-11-11T17:07:49Z</time>
      </trkpt>
      <trkpt lat="28.3305520" lon="-16.5088830">
        <ele>1818.9</ele>
        <time>2020-11-11T17:07:50Z</time>
      </trkpt>
      <trkpt lat="28.3305170" lon="-16.5089030">
        <ele>1818.9</ele>
        <time>2020-11-11T17:07:51Z</time>
      </trkpt>
      <trkpt lat="28.3305020" lon="-16.5089130">
        <ele>1818.9</ele>
        <time>2020-11-11T17:07:52Z</time>
      </trkpt>
      <trkpt lat="28.3305020" lon="-16.5089130">
        <ele>1818.9</ele>
        <time>2020-11-11T17:07:53Z</time>
      </trkpt>
      <trkpt lat="28.3304650" lon="-16.5089370">
        <ele>1818.9</ele>
        <time>2020-11-11T17:07:54Z</time>
      </trkpt>
      <trkpt lat="28.3304420" lon="-16.5089420">
        <ele>1818.9</ele>
        <time>2020-11-11T17:07:55Z</time>
      </trkpt>
      <trkpt lat="28.3304420" lon="-16.5089420">
        <ele>1818.9</ele>
        <time>2020-11-11T17:07:56Z</time>
      </trkpt>
      <trkpt lat="28.3303930" lon="-16.5089600">
        <ele>1818.9</ele>
        <time>2020-11-11T17:07:57Z</time>
      </trkpt>
      <trkpt lat="28.3303930" lon="-16.5089600">
        <ele>1819.9</ele>
        <time>2020-11-11T17:07:58Z</time>
      </trkpt>
      <trkpt lat="28.3303520" lon="-16.5089770">
        <ele>1819.9</ele>
        <time>2020-11-11T17:07:59Z</time>
      </trkpt>
      <trkpt lat="28.3303350" lon="-16.5089850">
        <ele>1819.9</ele>
        <time>2020-11-11T17:08:00Z</time>
      </trkpt>
      <trkpt lat="28.3303350" lon="-16.5089850">
        <ele>1819.9</ele>
        <time>2020-11-11T17:08:01Z</time>
      </trkpt>
      <trkpt lat="28.3302870" lon="-16.5090030">
        <ele>1819.9</ele>
        <time>2020-11-11T17:08:02Z</time>
      </trkpt>
      <trkpt lat="28.3302870" lon="-16.5090030">
        <ele>1819.9</ele>
        <time>2020-11-11T17:08:03Z</time>
      </trkpt>
      <trkpt lat="28.3302550" lon="-16.5090280">
        <ele>1820.9</ele>
        <time>2020-11-11T17:08:04Z</time>
      </trkpt>
      <trkpt lat="28.3302550" lon="-16.5090280">
        <ele>1820.9</ele>
        <time>2020-11-11T17:08:05Z</time>
      </trkpt>
      <trkpt lat="28.3302350" lon="-16.5090530">
        <ele>1820.9</ele>
        <time>2020-11-11T17:08:06Z</time>
      </trkpt>
      <trkpt lat="28.3302220" lon="-16.5090650">
        <ele>1820.9</ele>
        <time>2020-11-11T17:08:07Z</time>
      </trkpt>
      <trkpt lat="28.3302220" lon="-16.5090650">
        <ele>1820.9</ele>
        <time>2020-11-11T17:08:08Z</time>
      </trkpt>
      <trkpt lat="28.3302000" lon="-16.5090970">
        <ele>1820.9</ele>
        <time>2020-11-11T17:08:09Z</time>
      </trkpt>
      <trkpt lat="28.3302000" lon="-16.5090970">
        <ele>1820.9</ele>
        <time>2020-11-11T17:08:10Z</time>
      </trkpt>
      <trkpt lat="28.3301770" lon="-16.5091170">
        <ele>1821.9</ele>
        <time>2020-11-11T17:08:11Z</time>
      </trkpt>
      <trkpt lat="28.3301770" lon="-16.5091170">
        <ele>1821.9</ele>
        <time>2020-11-11T17:08:12Z</time>
      </trkpt>
      <trkpt lat="28.3301430" lon="-16.5091400">
        <ele>1821.9</ele>
        <time>2020-11-11T17:08:13Z</time>
      </trkpt>
      <trkpt lat="28.3301430" lon="-16.5091400">
        <ele>1821.9</ele>
        <time>2020-11-11T17:08:14Z</time>
      </trkpt>
      <trkpt lat="28.3301030" lon="-16.5091700">
        <ele>1821.9</ele>
        <time>2020-11-11T17:08:15Z</time>
      </trkpt>
      <trkpt lat="28.3301030" lon="-16.5091700">
        <ele>1821.9</ele>
        <time>2020-11-11T17:08:16Z</time>
      </trkpt>
      <trkpt lat="28.3300700" lon="-16.5091880">
        <ele>1821.9</ele>
        <time>2020-11-11T17:08:17Z</time>
      </trkpt>
      <trkpt lat="28.3300700" lon="-16.5091880">
        <ele>1822.9</ele>
        <time>2020-11-11T17:08:18Z</time>
      </trkpt>
      <trkpt lat="28.3300380" lon="-16.5092020">
        <ele>1822.9</ele>
        <time>2020-11-11T17:08:19Z</time>
      </trkpt>
      <trkpt lat="28.3300380" lon="-16.5092020">
        <ele>1822.9</ele>
        <time>2020-11-11T17:08:20Z</time>
      </trkpt>
      <trkpt lat="28.3299980" lon="-16.5092200">
        <ele>1822.9</ele>
        <time>2020-11-11T17:08:21Z</time>
      </trkpt>
      <trkpt lat="28.3299980" lon="-16.5092200">
        <ele>1822.9</ele>
        <time>2020-11-11T17:08:22Z</time>
      </trkpt>
      <trkpt lat="28.3299630" lon="-16.5092420">
        <ele>1822.9</ele>
        <time>2020-11-11T17:08:23Z</time>
      </trkpt>
      <trkpt lat="28.3299630" lon="-16.5092420">
        <ele>1823.9</ele>
        <time>2020-11-11T17:08:24Z</time>
      </trkpt>
      <trkpt lat="28.3299280" lon="-16.5092600">
        <ele>1823.9</ele>
        <time>2020-11-11T17:08:25Z</time>
      </trkpt>
      <trkpt lat="28.3299280" lon="-16.5092600">
        <ele>1823.9</ele>
        <time>2020-11-11T17:08:26Z</time>
      </trkpt>
      <trkpt lat="28.3298950" lon="-16.5092800">
        <ele>1823.9</ele>
        <time>2020-11-11T17:08:27Z</time>
      </trkpt>
      <trkpt lat="28.3298950" lon="-16.5092800">
        <ele>1823.9</ele>
        <time>2020-11-11T17:08:28Z</time>
      </trkpt>
      <trkpt lat="28.3298600" lon="-16.5093050">
        <ele>1823.9</ele>
        <time>2020-11-11T17:08:29Z</time>
      </trkpt>
      <trkpt lat="28.3298420" lon="-16.5093200">
        <ele>1823.9</ele>
        <time>2020-11-11T17:08:30Z</time>
      </trkpt>
      <trkpt lat="28.3298250" lon="-16.5093370">
        <ele>1823.9</ele>
        <time>2020-11-11T17:08:31Z</time>
      </trkpt>
      <trkpt lat="28.3298250" lon="-16.5093370">
        <ele>1823.9</ele>
        <time>2020-11-11T17:08:32Z</time>
      </trkpt>
      <trkpt lat="28.3297880" lon="-16.5093830">
        <ele>1823.9</ele>
        <time>2020-11-11T17:08:33Z</time>
      </trkpt>
      <trkpt lat="28.3297880" lon="-16.5093830">
        <ele>1823.9</ele>
        <time>2020-11-11T17:08:34Z</time>
      </trkpt>
      <trkpt lat="28.3297620" lon="-16.5094230">
        <ele>1823.9</ele>
        <time>2020-11-11T17:08:35Z</time>
      </trkpt>
      <trkpt lat="28.3297620" lon="-16.5094230">
        <ele>1823.9</ele>
        <time>2020-11-11T17:08:36Z</time>
      </trkpt>
      <trkpt lat="28.3297380" lon="-16.5094480">
        <ele>1823.9</ele>
        <time>2020-11-11T17:08:37Z</time>
      </trkpt>
      <trkpt lat="28.3297380" lon="-16.5094480">
        <ele>1825.9</ele>
        <time>2020-11-11T17:08:38Z</time>
      </trkpt>
      <trkpt lat="28.3297170" lon="-16.5094800">
        <ele>1825.9</ele>
        <time>2020-11-11T17:08:39Z</time>
      </trkpt>
      <trkpt lat="28.3297030" lon="-16.5094950">
        <ele>1825.9</ele>
        <time>2020-11-11T17:08:40Z</time>
      </trkpt>
      <trkpt lat="28.3297030" lon="-16.5094950">
        <ele>1825.9</ele>
        <time>2020-11-11T17:08:41Z</time>
      </trkpt>
      <trkpt lat="28.3296780" lon="-16.5095300">
        <ele>1825.9</ele>
        <time>2020-11-11T17:08:42Z</time>
      </trkpt>
      <trkpt lat="28.3296650" lon="-16.5095470">
        <ele>1825.9</ele>
        <time>2020-11-11T17:08:43Z</time>
      </trkpt>
      <trkpt lat="28.3296650" lon="-16.5095470">
        <ele>1825.9</ele>
        <time>2020-11-11T17:08:44Z</time>
      </trkpt>
      <trkpt lat="28.3296520" lon="-16.5095880">
        <ele>1825.9</ele>
        <time>2020-11-11T17:08:45Z</time>
      </trkpt>
      <trkpt lat="28.3296500" lon="-16.5096120">
        <ele>1825.9</ele>
        <time>2020-11-11T17:08:46Z</time>
      </trkpt>
      <trkpt lat="28.3296500" lon="-16.5096120">
        <ele>1825.9</ele>
        <time>2020-11-11T17:08:47Z</time>
      </trkpt>
      <trkpt lat="28.3296550" lon="-16.5096530">
        <ele>1825.9</ele>
        <time>2020-11-11T17:08:48Z</time>
      </trkpt>
      <trkpt lat="28.3296600" lon="-16.5096720">
        <ele>1825.9</ele>
        <time>2020-11-11T17:08:49Z</time>
      </trkpt>
      <trkpt lat="28.3296600" lon="-16.5096720">
        <ele>1825.9</ele>
        <time>2020-11-11T17:08:50Z</time>
      </trkpt>
      <trkpt lat="28.3296800" lon="-16.5097080">
        <ele>1825.9</ele>
        <time>2020-11-11T17:08:51Z</time>
      </trkpt>
      <trkpt lat="28.3296800" lon="-16.5097080">
        <ele>1825.9</ele>
        <time>2020-11-11T17:08:52Z</time>
      </trkpt>
      <trkpt lat="28.3296950" lon="-16.5097420">
        <ele>1825.9</ele>
        <time>2020-11-11T17:08:53Z</time>
      </trkpt>
      <trkpt lat="28.3296950" lon="-16.5097420">
        <ele>1825.9</ele>
        <time>2020-11-11T17:08:54Z</time>
      </trkpt>
      <trkpt lat="28.3297030" lon="-16.5097770">
        <ele>1826.9</ele>
        <time>2020-11-11T17:08:55Z</time>
      </trkpt>
      <trkpt lat="28.3297030" lon="-16.5097770">
        <ele>1826.9</ele>
        <time>2020-11-11T17:08:56Z</time>
      </trkpt>
      <trkpt lat="28.3297020" lon="-16.5098170">
        <ele>1826.9</ele>
        <time>2020-11-11T17:08:57Z</time>
      </trkpt>
      <trkpt lat="28.3297020" lon="-16.5098170">
        <ele>1826.9</ele>
        <time>2020-11-11T17:08:58Z</time>
      </trkpt>
      <trkpt lat="28.3296950" lon="-16.5098580">
        <ele>1826.9</ele>
        <time>2020-11-11T17:08:59Z</time>
      </trkpt>
      <trkpt lat="28.3296950" lon="-16.5098580">
        <ele>1826.9</ele>
        <time>2020-11-11T17:09:00Z</time>
      </trkpt>
      <trkpt lat="28.3296850" lon="-16.5098970">
        <ele>1826.9</ele>
        <time>2020-11-11T17:09:01Z</time>
      </trkpt>
      <trkpt lat="28.3296850" lon="-16.5098970">
        <ele>1826.9</ele>
        <time>2020-11-11T17:09:02Z</time>
      </trkpt>
      <trkpt lat="28.3296750" lon="-16.5099320">
        <ele>1827.9</ele>
        <time>2020-11-11T17:09:03Z</time>
      </trkpt>
      <trkpt lat="28.3296700" lon="-16.5099530">
        <ele>1827.9</ele>
        <time>2020-11-11T17:09:04Z</time>
      </trkpt>
      <trkpt lat="28.3296700" lon="-16.5099530">
        <ele>1827.9</ele>
        <time>2020-11-11T17:09:05Z</time>
      </trkpt>
      <trkpt lat="28.3296530" lon="-16.5099880">
        <ele>1827.9</ele>
        <time>2020-11-11T17:09:06Z</time>
      </trkpt>
      <trkpt lat="28.3296430" lon="-16.5100050">
        <ele>1827.9</ele>
        <time>2020-11-11T17:09:07Z</time>
      </trkpt>
      <trkpt lat="28.3296430" lon="-16.5100050">
        <ele>1827.9</ele>
        <time>2020-11-11T17:09:08Z</time>
      </trkpt>
      <trkpt lat="28.3296230" lon="-16.5100420">
        <ele>1827.9</ele>
        <time>2020-11-11T17:09:09Z</time>
      </trkpt>
      <trkpt lat="28.3296230" lon="-16.5100420">
        <ele>1827.9</ele>
        <time>2020-11-11T17:09:10Z</time>
      </trkpt>
      <trkpt lat="28.3296030" lon="-16.5100880">
        <ele>1828.9</ele>
        <time>2020-11-11T17:09:11Z</time>
      </trkpt>
      <trkpt lat="28.3296030" lon="-16.5100880">
        <ele>1828.9</ele>
        <time>2020-11-11T17:09:12Z</time>
      </trkpt>
      <trkpt lat="28.3295770" lon="-16.5101230">
        <ele>1828.9</ele>
        <time>2020-11-11T17:09:13Z</time>
      </trkpt>
      <trkpt lat="28.3295770" lon="-16.5101230">
        <ele>1828.9</ele>
        <time>2020-11-11T17:09:14Z</time>
      </trkpt>
      <trkpt lat="28.3295520" lon="-16.5101580">
        <ele>1829.9</ele>
        <time>2020-11-11T17:09:15Z</time>
      </trkpt>
      <trkpt lat="28.3295520" lon="-16.5101580">
        <ele>1829.9</ele>
        <time>2020-11-11T17:09:16Z</time>
      </trkpt>
      <trkpt lat="28.3295270" lon="-16.5101900">
        <ele>1829.9</ele>
        <time>2020-11-11T17:09:17Z</time>
      </trkpt>
      <trkpt lat="28.3295270" lon="-16.5101900">
        <ele>1829.9</ele>
        <time>2020-11-11T17:09:18Z</time>
      </trkpt>
      <trkpt lat="28.3294950" lon="-16.5102180">
        <ele>1829.9</ele>
        <time>2020-11-11T17:09:19Z</time>
      </trkpt>
      <trkpt lat="28.3294950" lon="-16.5102180">
        <ele>1829.9</ele>
        <time>2020-11-11T17:09:20Z</time>
      </trkpt>
      <trkpt lat="28.3294670" lon="-16.5102530">
        <ele>1830.9</ele>
        <time>2020-11-11T17:09:21Z</time>
      </trkpt>
      <trkpt lat="28.3294520" lon="-16.5102730">
        <ele>1830.9</ele>
        <time>2020-11-11T17:09:22Z</time>
      </trkpt>
      <trkpt lat="28.3294520" lon="-16.5102730">
        <ele>1830.9</ele>
        <time>2020-11-11T17:09:23Z</time>
      </trkpt>
      <trkpt lat="28.3294270" lon="-16.5103050">
        <ele>1830.9</ele>
        <time>2020-11-11T17:09:24Z</time>
      </trkpt>
      <trkpt lat="28.3294150" lon="-16.5103230">
        <ele>1830.9</ele>
        <time>2020-11-11T17:09:25Z</time>
      </trkpt>
      <trkpt lat="28.3294150" lon="-16.5103230">
        <ele>1830.9</ele>
        <time>2020-11-11T17:09:26Z</time>
      </trkpt>
      <trkpt lat="28.3294070" lon="-16.5103570">
        <ele>1830.9</ele>
        <time>2020-11-11T17:09:27Z</time>
      </trkpt>
      <trkpt lat="28.3294070" lon="-16.5103570">
        <ele>1830.9</ele>
        <time>2020-11-11T17:09:28Z</time>
      </trkpt>
      <trkpt lat="28.3294070" lon="-16.5103970">
        <ele>1830.9</ele>
        <time>2020-11-11T17:09:29Z</time>
      </trkpt>
      <trkpt lat="28.3294070" lon="-16.5103970">
        <ele>1831.9</ele>
        <time>2020-11-11T17:09:30Z</time>
      </trkpt>
      <trkpt lat="28.3294050" lon="-16.5104350">
        <ele>1831.9</ele>
        <time>2020-11-11T17:09:31Z</time>
      </trkpt>
      <trkpt lat="28.3294050" lon="-16.5104350">
        <ele>1831.9</ele>
        <time>2020-11-11T17:09:32Z</time>
      </trkpt>
      <trkpt lat="28.3294050" lon="-16.5104680">
        <ele>1831.9</ele>
        <time>2020-11-11T17:09:33Z</time>
      </trkpt>
      <trkpt lat="28.3294050" lon="-16.5104680">
        <ele>1831.9</ele>
        <time>2020-11-11T17:09:34Z</time>
      </trkpt>
      <trkpt lat="28.3293970" lon="-16.5105100">
        <ele>1831.9</ele>
        <time>2020-11-11T17:09:35Z</time>
      </trkpt>
      <trkpt lat="28.3293970" lon="-16.5105100">
        <ele>1831.9</ele>
        <time>2020-11-11T17:09:36Z</time>
      </trkpt>
      <trkpt lat="28.3293930" lon="-16.5105570">
        <ele>1832.9</ele>
        <time>2020-11-11T17:09:37Z</time>
      </trkpt>
      <trkpt lat="28.3293930" lon="-16.5105570">
        <ele>1832.9</ele>
        <time>2020-11-11T17:09:38Z</time>
      </trkpt>
      <trkpt lat="28.3293830" lon="-16.5105980">
        <ele>1832.9</ele>
        <time>2020-11-11T17:09:39Z</time>
      </trkpt>
      <trkpt lat="28.3293750" lon="-16.5106150">
        <ele>1832.9</ele>
        <time>2020-11-11T17:09:40Z</time>
      </trkpt>
      <trkpt lat="28.3293750" lon="-16.5106150">
        <ele>1832.9</ele>
        <time>2020-11-11T17:09:41Z</time>
      </trkpt>
      <trkpt lat="28.3293520" lon="-16.5106570">
        <ele>1832.9</ele>
        <time>2020-11-11T17:09:42Z</time>
      </trkpt>
      <trkpt lat="28.3293380" lon="-16.5106800">
        <ele>1832.9</ele>
        <time>2020-11-11T17:09:43Z</time>
      </trkpt>
      <trkpt lat="28.3293380" lon="-16.5106800">
        <ele>1832.9</ele>
        <time>2020-11-11T17:09:44Z</time>
      </trkpt>
      <trkpt lat="28.3293150" lon="-16.5107220">
        <ele>1832.9</ele>
        <time>2020-11-11T17:09:45Z</time>
      </trkpt>
      <trkpt lat="28.3293150" lon="-16.5107220">
        <ele>1832.9</ele>
        <time>2020-11-11T17:09:46Z</time>
      </trkpt>
      <trkpt lat="28.3292970" lon="-16.5107630">
        <ele>1832.9</ele>
        <time>2020-11-11T17:09:47Z</time>
      </trkpt>
      <trkpt lat="28.3292970" lon="-16.5107630">
        <ele>1832.9</ele>
        <time>2020-11-11T17:09:48Z</time>
      </trkpt>
      <trkpt lat="28.3292770" lon="-16.5108070">
        <ele>1832.9</ele>
        <time>2020-11-11T17:09:49Z</time>
      </trkpt>
      <trkpt lat="28.3292770" lon="-16.5108070">
        <ele>1832.9</ele>
        <time>2020-11-11T17:09:50Z</time>
      </trkpt>
      <trkpt lat="28.3292600" lon="-16.5108420">
        <ele>1832.9</ele>
        <time>2020-11-11T17:09:51Z</time>
      </trkpt>
      <trkpt lat="28.3292600" lon="-16.5108420">
        <ele>1833.9</ele>
        <time>2020-11-11T17:09:52Z</time>
      </trkpt>
      <trkpt lat="28.3292450" lon="-16.5108780">
        <ele>1833.9</ele>
        <time>2020-11-11T17:09:53Z</time>
      </trkpt>
      <trkpt lat="28.3292370" lon="-16.5109000">
        <ele>1833.9</ele>
        <time>2020-11-11T17:09:54Z</time>
      </trkpt>
      <trkpt lat="28.3292270" lon="-16.5109200">
        <ele>1833.9</ele>
        <time>2020-11-11T17:09:55Z</time>
      </trkpt>
      <trkpt lat="28.3292270" lon="-16.5109200">
        <ele>1834.9</ele>
        <time>2020-11-11T17:09:56Z</time>
      </trkpt>
      <trkpt lat="28.3292150" lon="-16.5109570">
        <ele>1834.9</ele>
        <time>2020-11-11T17:09:57Z</time>
      </trkpt>
      <trkpt lat="28.3292150" lon="-16.5109570">
        <ele>1834.9</ele>
        <time>2020-11-11T17:09:58Z</time>
      </trkpt>
      <trkpt lat="28.3291980" lon="-16.5109950">
        <ele>1834.9</ele>
        <time>2020-11-11T17:09:59Z</time>
      </trkpt>
      <trkpt lat="28.3291850" lon="-16.5110120">
        <ele>1834.9</ele>
        <time>2020-11-11T17:10:00Z</time>
      </trkpt>
      <trkpt lat="28.3291850" lon="-16.5110120">
        <ele>1834.9</ele>
        <time>2020-11-11T17:10:01Z</time>
      </trkpt>
      <trkpt lat="28.3291620" lon="-16.5110450">
        <ele>1835.9</ele>
        <time>2020-11-11T17:10:02Z</time>
      </trkpt>
      <trkpt lat="28.3291500" lon="-16.5110600">
        <ele>1835.9</ele>
        <time>2020-11-11T17:10:03Z</time>
      </trkpt>
      <trkpt lat="28.3291500" lon="-16.5110600">
        <ele>1835.9</ele>
        <time>2020-11-11T17:10:04Z</time>
      </trkpt>
      <trkpt lat="28.3291030" lon="-16.5110980">
        <ele>1835.9</ele>
        <time>2020-11-11T17:10:05Z</time>
      </trkpt>
      <trkpt lat="28.3291030" lon="-16.5110980">
        <ele>1835.9</ele>
        <time>2020-11-11T17:10:06Z</time>
      </trkpt>
      <trkpt lat="28.3290680" lon="-16.5111270">
        <ele>1835.9</ele>
        <time>2020-11-11T17:10:07Z</time>
      </trkpt>
      <trkpt lat="28.3290680" lon="-16.5111270">
        <ele>1835.9</ele>
        <time>2020-11-11T17:10:08Z</time>
      </trkpt>
      <trkpt lat="28.3290480" lon="-16.5111470">
        <ele>1835.9</ele>
        <time>2020-11-11T17:10:09Z</time>
      </trkpt>
      <trkpt lat="28.3290480" lon="-16.5111470">
        <ele>1835.9</ele>
        <time>2020-11-11T17:10:10Z</time>
      </trkpt>
      <trkpt lat="28.3290150" lon="-16.5111600">
        <ele>1835.9</ele>
        <time>2020-11-11T17:10:11Z</time>
      </trkpt>
      <trkpt lat="28.3289970" lon="-16.5111650">
        <ele>1835.9</ele>
        <time>2020-11-11T17:10:12Z</time>
      </trkpt>
      <trkpt lat="28.3289800" lon="-16.5111650">
        <ele>1835.9</ele>
        <time>2020-11-11T17:10:13Z</time>
      </trkpt>
      <trkpt lat="28.3289800" lon="-16.5111650">
        <ele>1835.9</ele>
        <time>2020-11-11T17:10:14Z</time>
      </trkpt>
      <trkpt lat="28.3289470" lon="-16.5111650">
        <ele>1836.9</ele>
        <time>2020-11-11T17:10:15Z</time>
      </trkpt>
      <trkpt lat="28.3289470" lon="-16.5111650">
        <ele>1836.9</ele>
        <time>2020-11-11T17:10:16Z</time>
      </trkpt>
      <trkpt lat="28.3289100" lon="-16.5111570">
        <ele>1836.9</ele>
        <time>2020-11-11T17:10:17Z</time>
      </trkpt>
      <trkpt lat="28.3289100" lon="-16.5111570">
        <ele>1836.9</ele>
        <time>2020-11-11T17:10:18Z</time>
      </trkpt>
      <trkpt lat="28.3288750" lon="-16.5111480">
        <ele>1836.9</ele>
        <time>2020-11-11T17:10:19Z</time>
      </trkpt>
      <trkpt lat="28.3288750" lon="-16.5111480">
        <ele>1836.9</ele>
        <time>2020-11-11T17:10:20Z</time>
      </trkpt>
      <trkpt lat="28.3288400" lon="-16.5111400">
        <ele>1837.9</ele>
        <time>2020-11-11T17:10:21Z</time>
      </trkpt>
      <trkpt lat="28.3288220" lon="-16.5111370">
        <ele>1837.9</ele>
        <time>2020-11-11T17:10:22Z</time>
      </trkpt>
      <trkpt lat="28.3288220" lon="-16.5111370">
        <ele>1837.9</ele>
        <time>2020-11-11T17:10:23Z</time>
      </trkpt>
      <trkpt lat="28.3287850" lon="-16.5111250">
        <ele>1837.9</ele>
        <time>2020-11-11T17:10:24Z</time>
      </trkpt>
      <trkpt lat="28.3287850" lon="-16.5111250">
        <ele>1837.9</ele>
        <time>2020-11-11T17:10:25Z</time>
      </trkpt>
      <trkpt lat="28.3287520" lon="-16.5111170">
        <ele>1837.9</ele>
        <time>2020-11-11T17:10:26Z</time>
      </trkpt>
      <trkpt lat="28.3287520" lon="-16.5111170">
        <ele>1837.9</ele>
        <time>2020-11-11T17:10:27Z</time>
      </trkpt>
      <trkpt lat="28.3287180" lon="-16.5111100">
        <ele>1837.9</ele>
        <time>2020-11-11T17:10:28Z</time>
      </trkpt>
      <trkpt lat="28.3287180" lon="-16.5111100">
        <ele>1838.9</ele>
        <time>2020-11-11T17:10:29Z</time>
      </trkpt>
      <trkpt lat="28.3286820" lon="-16.5111100">
        <ele>1838.9</ele>
        <time>2020-11-11T17:10:30Z</time>
      </trkpt>
      <trkpt lat="28.3286630" lon="-16.5111050">
        <ele>1838.9</ele>
        <time>2020-11-11T17:10:31Z</time>
      </trkpt>
      <trkpt lat="28.3286630" lon="-16.5111050">
        <ele>1838.9</ele>
        <time>2020-11-11T17:10:32Z</time>
      </trkpt>
      <trkpt lat="28.3286280" lon="-16.5110930">
        <ele>1839.9</ele>
        <time>2020-11-11T17:10:33Z</time>
      </trkpt>
      <trkpt lat="28.3286120" lon="-16.5110870">
        <ele>1839.9</ele>
        <time>2020-11-11T17:10:34Z</time>
      </trkpt>
      <trkpt lat="28.3286120" lon="-16.5110870">
        <ele>1839.9</ele>
        <time>2020-11-11T17:10:35Z</time>
      </trkpt>
      <trkpt lat="28.3285770" lon="-16.5110780">
        <ele>1839.9</ele>
        <time>2020-11-11T17:10:36Z</time>
      </trkpt>
      <trkpt lat="28.3285770" lon="-16.5110780">
        <ele>1839.9</ele>
        <time>2020-11-11T17:10:37Z</time>
      </trkpt>
      <trkpt lat="28.3285520" lon="-16.5110670">
        <ele>1839.9</ele>
        <time>2020-11-11T17:10:38Z</time>
      </trkpt>
      <trkpt lat="28.3285520" lon="-16.5110670">
        <ele>1839.9</ele>
        <time>2020-11-11T17:10:39Z</time>
      </trkpt>
      <trkpt lat="28.3285220" lon="-16.5110500">
        <ele>1839.9</ele>
        <time>2020-11-11T17:10:40Z</time>
      </trkpt>
      <trkpt lat="28.3285220" lon="-16.5110500">
        <ele>1839.9</ele>
        <time>2020-11-11T17:10:41Z</time>
      </trkpt>
      <trkpt lat="28.3284920" lon="-16.5110280">
        <ele>1839.9</ele>
        <time>2020-11-11T17:10:42Z</time>
      </trkpt>
      <trkpt lat="28.3284770" lon="-16.5110180">
        <ele>1840.9</ele>
        <time>2020-11-11T17:10:43Z</time>
      </trkpt>
      <trkpt lat="28.3284770" lon="-16.5110180">
        <ele>1840.9</ele>
        <time>2020-11-11T17:10:44Z</time>
      </trkpt>
      <trkpt lat="28.3284520" lon="-16.5109970">
        <ele>1840.9</ele>
        <time>2020-11-11T17:10:45Z</time>
      </trkpt>
      <trkpt lat="28.3284520" lon="-16.5109970">
        <ele>1840.9</ele>
        <time>2020-11-11T17:10:46Z</time>
      </trkpt>
      <trkpt lat="28.3284200" lon="-16.5109780">
        <ele>1840.9</ele>
        <time>2020-11-11T17:10:47Z</time>
      </trkpt>
      <trkpt lat="28.3284200" lon="-16.5109780">
        <ele>1840.9</ele>
        <time>2020-11-11T17:10:48Z</time>
      </trkpt>
      <trkpt lat="28.3283950" lon="-16.5109520">
        <ele>1840.9</ele>
        <time>2020-11-11T17:10:49Z</time>
      </trkpt>
      <trkpt lat="28.3283950" lon="-16.5109520">
        <ele>1840.9</ele>
        <time>2020-11-11T17:10:50Z</time>
      </trkpt>
      <trkpt lat="28.3283750" lon="-16.5109230">
        <ele>1840.9</ele>
        <time>2020-11-11T17:10:51Z</time>
      </trkpt>
      <trkpt lat="28.3283750" lon="-16.5109230">
        <ele>1840.9</ele>
        <time>2020-11-11T17:10:52Z</time>
      </trkpt>
      <trkpt lat="28.3283520" lon="-16.5109050">
        <ele>1840.9</ele>
        <time>2020-11-11T17:10:53Z</time>
      </trkpt>
      <trkpt lat="28.3283520" lon="-16.5109050">
        <ele>1840.9</ele>
        <time>2020-11-11T17:10:54Z</time>
      </trkpt>
      <trkpt lat="28.3283280" lon="-16.5108820">
        <ele>1840.9</ele>
        <time>2020-11-11T17:10:55Z</time>
      </trkpt>
      <trkpt lat="28.3283280" lon="-16.5108820">
        <ele>1840.9</ele>
        <time>2020-11-11T17:10:56Z</time>
      </trkpt>
      <trkpt lat="28.3283080" lon="-16.5108570">
        <ele>1840.9</ele>
        <time>2020-11-11T17:10:57Z</time>
      </trkpt>
      <trkpt lat="28.3283000" lon="-16.5108430">
        <ele>1840.9</ele>
        <time>2020-11-11T17:10:58Z</time>
      </trkpt>
      <trkpt lat="28.3283000" lon="-16.5108430">
        <ele>1841.9</ele>
        <time>2020-11-11T17:10:59Z</time>
      </trkpt>
      <trkpt lat="28.3282850" lon="-16.5108180">
        <ele>1841.9</ele>
        <time>2020-11-11T17:11:00Z</time>
      </trkpt>
      <trkpt lat="28.3282800" lon="-16.5108050">
        <ele>1841.9</ele>
        <time>2020-11-11T17:11:01Z</time>
      </trkpt>
      <trkpt lat="28.3282800" lon="-16.5108050">
        <ele>1841.9</ele>
        <time>2020-11-11T17:11:02Z</time>
      </trkpt>
      <trkpt lat="28.3282580" lon="-16.5107830">
        <ele>1841.9</ele>
        <time>2020-11-11T17:11:03Z</time>
      </trkpt>
      <trkpt lat="28.3282580" lon="-16.5107830">
        <ele>1841.9</ele>
        <time>2020-11-11T17:11:04Z</time>
      </trkpt>
      <trkpt lat="28.3282380" lon="-16.5107580">
        <ele>1841.9</ele>
        <time>2020-11-11T17:11:05Z</time>
      </trkpt>
      <trkpt lat="28.3282380" lon="-16.5107580">
        <ele>1841.9</ele>
        <time>2020-11-11T17:11:06Z</time>
      </trkpt>
      <trkpt lat="28.3282100" lon="-16.5107350">
        <ele>1841.9</ele>
        <time>2020-11-11T17:11:07Z</time>
      </trkpt>
      <trkpt lat="28.3282100" lon="-16.5107350">
        <ele>1841.9</ele>
        <time>2020-11-11T17:11:08Z</time>
      </trkpt>
      <trkpt lat="28.3281770" lon="-16.5107080">
        <ele>1841.9</ele>
        <time>2020-11-11T17:11:09Z</time>
      </trkpt>
      <trkpt lat="28.3281770" lon="-16.5107080">
        <ele>1841.9</ele>
        <time>2020-11-11T17:11:10Z</time>
      </trkpt>
      <trkpt lat="28.3281450" lon="-16.5106850">
        <ele>1842.9</ele>
        <time>2020-11-11T17:11:11Z</time>
      </trkpt>
      <trkpt lat="28.3281450" lon="-16.5106850">
        <ele>1842.9</ele>
        <time>2020-11-11T17:11:12Z</time>
      </trkpt>
      <trkpt lat="28.3281150" lon="-16.5106650">
        <ele>1842.9</ele>
        <time>2020-11-11T17:11:13Z</time>
      </trkpt>
      <trkpt lat="28.3281150" lon="-16.5106650">
        <ele>1842.9</ele>
        <time>2020-11-11T17:11:14Z</time>
      </trkpt>
      <trkpt lat="28.3280820" lon="-16.5106500">
        <ele>1842.9</ele>
        <time>2020-11-11T17:11:15Z</time>
      </trkpt>
      <trkpt lat="28.3280820" lon="-16.5106500">
        <ele>1842.9</ele>
        <time>2020-11-11T17:11:16Z</time>
      </trkpt>
      <trkpt lat="28.3280400" lon="-16.5106430">
        <ele>1842.9</ele>
        <time>2020-11-11T17:11:17Z</time>
      </trkpt>
      <trkpt lat="28.3280400" lon="-16.5106430">
        <ele>1842.9</ele>
        <time>2020-11-11T17:11:18Z</time>
      </trkpt>
      <trkpt lat="28.3279930" lon="-16.5106400">
        <ele>1842.9</ele>
        <time>2020-11-11T17:11:19Z</time>
      </trkpt>
      <trkpt lat="28.3279930" lon="-16.5106400">
        <ele>1842.9</ele>
        <time>2020-11-11T17:11:20Z</time>
      </trkpt>
      <trkpt lat="28.3279520" lon="-16.5106380">
        <ele>1843.9</ele>
        <time>2020-11-11T17:11:21Z</time>
      </trkpt>
      <trkpt lat="28.3279520" lon="-16.5106380">
        <ele>1843.9</ele>
        <time>2020-11-11T17:11:22Z</time>
      </trkpt>
      <trkpt lat="28.3279100" lon="-16.5106400">
        <ele>1843.9</ele>
        <time>2020-11-11T17:11:23Z</time>
      </trkpt>
      <trkpt lat="28.3279100" lon="-16.5106400">
        <ele>1843.9</ele>
        <time>2020-11-11T17:11:24Z</time>
      </trkpt>
      <trkpt lat="28.3278750" lon="-16.5106420">
        <ele>1843.9</ele>
        <time>2020-11-11T17:11:25Z</time>
      </trkpt>
      <trkpt lat="28.3278750" lon="-16.5106420">
        <ele>1844.9</ele>
        <time>2020-11-11T17:11:26Z</time>
      </trkpt>
      <trkpt lat="28.3278370" lon="-16.5106370">
        <ele>1844.9</ele>
        <time>2020-11-11T17:11:27Z</time>
      </trkpt>
      <trkpt lat="28.3278370" lon="-16.5106370">
        <ele>1844.9</ele>
        <time>2020-11-11T17:11:28Z</time>
      </trkpt>
      <trkpt lat="28.3277900" lon="-16.5106230">
        <ele>1844.9</ele>
        <time>2020-11-11T17:11:29Z</time>
      </trkpt>
      <trkpt lat="28.3277900" lon="-16.5106230">
        <ele>1844.9</ele>
        <time>2020-11-11T17:11:30Z</time>
      </trkpt>
      <trkpt lat="28.3277430" lon="-16.5106200">
        <ele>1844.9</ele>
        <time>2020-11-11T17:11:31Z</time>
      </trkpt>
      <trkpt lat="28.3277430" lon="-16.5106200">
        <ele>1845.9</ele>
        <time>2020-11-11T17:11:32Z</time>
      </trkpt>
      <trkpt lat="28.3277000" lon="-16.5106030">
        <ele>1845.9</ele>
        <time>2020-11-11T17:11:33Z</time>
      </trkpt>
      <trkpt lat="28.3277000" lon="-16.5106030">
        <ele>1845.9</ele>
        <time>2020-11-11T17:11:34Z</time>
      </trkpt>
      <trkpt lat="28.3276600" lon="-16.5105870">
        <ele>1845.9</ele>
        <time>2020-11-11T17:11:35Z</time>
      </trkpt>
      <trkpt lat="28.3276600" lon="-16.5105870">
        <ele>1845.9</ele>
        <time>2020-11-11T17:11:36Z</time>
      </trkpt>
      <trkpt lat="28.3276120" lon="-16.5105670">
        <ele>1845.9</ele>
        <time>2020-11-11T17:11:37Z</time>
      </trkpt>
      <trkpt lat="28.3276120" lon="-16.5105670">
        <ele>1845.9</ele>
        <time>2020-11-11T17:11:38Z</time>
      </trkpt>
      <trkpt lat="28.3275500" lon="-16.5105420">
        <ele>1845.9</ele>
        <time>2020-11-11T17:11:39Z</time>
      </trkpt>
      <trkpt lat="28.3275500" lon="-16.5105420">
        <ele>1845.9</ele>
        <time>2020-11-11T17:11:40Z</time>
      </trkpt>
      <trkpt lat="28.3274930" lon="-16.5105170">
        <ele>1845.9</ele>
        <time>2020-11-11T17:11:41Z</time>
      </trkpt>
      <trkpt lat="28.3274670" lon="-16.5105020">
        <ele>1845.9</ele>
        <time>2020-11-11T17:11:42Z</time>
      </trkpt>
      <trkpt lat="28.3274370" lon="-16.5104900">
        <ele>1845.9</ele>
        <time>2020-11-11T17:11:43Z</time>
      </trkpt>
      <trkpt lat="28.3274370" lon="-16.5104900">
        <ele>1846.9</ele>
        <time>2020-11-11T17:11:44Z</time>
      </trkpt>
      <trkpt lat="28.3273730" lon="-16.5104650">
        <ele>1846.9</ele>
        <time>2020-11-11T17:11:45Z</time>
      </trkpt>
      <trkpt lat="28.3273450" lon="-16.5104500">
        <ele>1846.9</ele>
        <time>2020-11-11T17:11:46Z</time>
      </trkpt>
      <trkpt lat="28.3273450" lon="-16.5104500">
        <ele>1846.9</ele>
        <time>2020-11-11T17:11:47Z</time>
      </trkpt>
      <trkpt lat="28.3272730" lon="-16.5104350">
        <ele>1846.9</ele>
        <time>2020-11-11T17:11:48Z</time>
      </trkpt>
      <trkpt lat="28.3272370" lon="-16.5104320">
        <ele>1846.9</ele>
        <time>2020-11-11T17:11:49Z</time>
      </trkpt>
      <trkpt lat="28.3272370" lon="-16.5104320">
        <ele>1846.9</ele>
        <time>2020-11-11T17:11:50Z</time>
      </trkpt>
      <trkpt lat="28.3271680" lon="-16.5104280">
        <ele>1846.9</ele>
        <time>2020-11-11T17:11:51Z</time>
      </trkpt>
      <trkpt lat="28.3271680" lon="-16.5104280">
        <ele>1846.9</ele>
        <time>2020-11-11T17:11:52Z</time>
      </trkpt>
      <trkpt lat="28.3271070" lon="-16.5104320">
        <ele>1846.9</ele>
        <time>2020-11-11T17:11:53Z</time>
      </trkpt>
      <trkpt lat="28.3271070" lon="-16.5104320">
        <ele>1846.9</ele>
        <time>2020-11-11T17:11:54Z</time>
      </trkpt>
      <trkpt lat="28.3270450" lon="-16.5104330">
        <ele>1846.9</ele>
        <time>2020-11-11T17:11:55Z</time>
      </trkpt>
      <trkpt lat="28.3270450" lon="-16.5104330">
        <ele>1846.9</ele>
        <time>2020-11-11T17:11:56Z</time>
      </trkpt>
      <trkpt lat="28.3269920" lon="-16.5104330">
        <ele>1846.9</ele>
        <time>2020-11-11T17:11:57Z</time>
      </trkpt>
      <trkpt lat="28.3269920" lon="-16.5104330">
        <ele>1846.9</ele>
        <time>2020-11-11T17:11:58Z</time>
      </trkpt>
      <trkpt lat="28.3269300" lon="-16.5104350">
        <ele>1846.9</ele>
        <time>2020-11-11T17:11:59Z</time>
      </trkpt>
      <trkpt lat="28.3268980" lon="-16.5104300">
        <ele>1846.9</ele>
        <time>2020-11-11T17:12:00Z</time>
      </trkpt>
      <trkpt lat="28.3268680" lon="-16.5104300">
        <ele>1848.9</ele>
        <time>2020-11-11T17:12:01Z</time>
      </trkpt>
      <trkpt lat="28.3268680" lon="-16.5104300">
        <ele>1848.9</ele>
        <time>2020-11-11T17:12:02Z</time>
      </trkpt>
      <trkpt lat="28.3268350" lon="-16.5104350">
        <ele>1848.9</ele>
        <time>2020-11-11T17:12:03Z</time>
      </trkpt>
      <trkpt lat="28.3268350" lon="-16.5104350">
        <ele>1848.9</ele>
        <time>2020-11-11T17:12:04Z</time>
      </trkpt>
      <trkpt lat="28.3268280" lon="-16.5104400">
        <ele>1848.9</ele>
        <time>2020-11-11T17:12:05Z</time>
      </trkpt>
      <trkpt lat="28.3268280" lon="-16.5104400">
        <ele>1848.9</ele>
        <time>2020-11-11T17:12:27Z</time>
      </trkpt>
      <trkpt lat="28.3267780" lon="-16.5104280">
        <ele>1848.9</ele>
        <time>2020-11-11T17:12:28Z</time>
      </trkpt>
      <trkpt lat="28.3267780" lon="-16.5104280">
        <ele>1848.9</ele>
        <time>2020-11-11T17:12:29Z</time>
      </trkpt>
      <trkpt lat="28.3267100" lon="-16.5104470">
        <ele>1848.9</ele>
        <time>2020-11-11T17:12:30Z</time>
      </trkpt>
      <trkpt lat="28.3267100" lon="-16.5104470">
        <ele>1848.9</ele>
        <time>2020-11-11T17:12:31Z</time>
      </trkpt>
      <trkpt lat="28.3266450" lon="-16.5104670">
        <ele>1848.9</ele>
        <time>2020-11-11T17:12:32Z</time>
      </trkpt>
      <trkpt lat="28.3266450" lon="-16.5104670">
        <ele>1848.9</ele>
        <time>2020-11-11T17:12:33Z</time>
      </trkpt>
      <trkpt lat="28.3265780" lon="-16.5104770">
        <ele>1848.9</ele>
        <time>2020-11-11T17:12:34Z</time>
      </trkpt>
      <trkpt lat="28.3265780" lon="-16.5104770">
        <ele>1848.9</ele>
        <time>2020-11-11T17:12:35Z</time>
      </trkpt>
      <trkpt lat="28.3265130" lon="-16.5104770">
        <ele>1848.9</ele>
        <time>2020-11-11T17:12:36Z</time>
      </trkpt>
      <trkpt lat="28.3264800" lon="-16.5104720">
        <ele>1848.9</ele>
        <time>2020-11-11T17:12:37Z</time>
      </trkpt>
      <trkpt lat="28.3264800" lon="-16.5104720">
        <ele>1848.9</ele>
        <time>2020-11-11T17:12:38Z</time>
      </trkpt>
      <trkpt lat="28.3264120" lon="-16.5104620">
        <ele>1848.9</ele>
        <time>2020-11-11T17:12:39Z</time>
      </trkpt>
      <trkpt lat="28.3264120" lon="-16.5104620">
        <ele>1848.9</ele>
        <time>2020-11-11T17:12:40Z</time>
      </trkpt>
      <trkpt lat="28.3263420" lon="-16.5104520">
        <ele>1848.9</ele>
        <time>2020-11-11T17:12:41Z</time>
      </trkpt>
      <trkpt lat="28.3263070" lon="-16.5104450">
        <ele>1848.9</ele>
        <time>2020-11-11T17:12:42Z</time>
      </trkpt>
      <trkpt lat="28.3262720" lon="-16.5104380">
        <ele>1848.9</ele>
        <time>2020-11-11T17:12:43Z</time>
      </trkpt>
      <trkpt lat="28.3262720" lon="-16.5104380">
        <ele>1848.9</ele>
        <time>2020-11-11T17:12:44Z</time>
      </trkpt>
      <trkpt lat="28.3261980" lon="-16.5104380">
        <ele>1848.9</ele>
        <time>2020-11-11T17:12:45Z</time>
      </trkpt>
      <trkpt lat="28.3261980" lon="-16.5104380">
        <ele>1848.9</ele>
        <time>2020-11-11T17:12:46Z</time>
      </trkpt>
      <trkpt lat="28.3261230" lon="-16.5104420">
        <ele>1848.9</ele>
        <time>2020-11-11T17:12:47Z</time>
      </trkpt>
      <trkpt lat="28.3261230" lon="-16.5104420">
        <ele>1848.9</ele>
        <time>2020-11-11T17:12:48Z</time>
      </trkpt>
      <trkpt lat="28.3260570" lon="-16.5104500">
        <ele>1848.9</ele>
        <time>2020-11-11T17:12:49Z</time>
      </trkpt>
      <trkpt lat="28.3260570" lon="-16.5104500">
        <ele>1849.9</ele>
        <time>2020-11-11T17:12:50Z</time>
      </trkpt>
      <trkpt lat="28.3259900" lon="-16.5104550">
        <ele>1849.9</ele>
        <time>2020-11-11T17:12:51Z</time>
      </trkpt>
      <trkpt lat="28.3259900" lon="-16.5104550">
        <ele>1849.9</ele>
        <time>2020-11-11T17:12:52Z</time>
      </trkpt>
      <trkpt lat="28.3259250" lon="-16.5104620">
        <ele>1849.9</ele>
        <time>2020-11-11T17:12:53Z</time>
      </trkpt>
      <trkpt lat="28.3259250" lon="-16.5104620">
        <ele>1849.9</ele>
        <time>2020-11-11T17:12:54Z</time>
      </trkpt>
      <trkpt lat="28.3258670" lon="-16.5104930">
        <ele>1849.9</ele>
        <time>2020-11-11T17:12:55Z</time>
      </trkpt>
      <trkpt lat="28.3258670" lon="-16.5104930">
        <ele>1850.9</ele>
        <time>2020-11-11T17:12:56Z</time>
      </trkpt>
      <trkpt lat="28.3258100" lon="-16.5105420">
        <ele>1850.9</ele>
        <time>2020-11-11T17:12:57Z</time>
      </trkpt>
      <trkpt lat="28.3257800" lon="-16.5105630">
        <ele>1850.9</ele>
        <time>2020-11-11T17:12:58Z</time>
      </trkpt>
      <trkpt lat="28.3257800" lon="-16.5105630">
        <ele>1850.9</ele>
        <time>2020-11-11T17:12:59Z</time>
      </trkpt>
      <trkpt lat="28.3257130" lon="-16.5106000">
        <ele>1851.9</ele>
        <time>2020-11-11T17:13:00Z</time>
      </trkpt>
      <trkpt lat="28.3256870" lon="-16.5106150">
        <ele>1851.9</ele>
        <time>2020-11-11T17:13:01Z</time>
      </trkpt>
      <trkpt lat="28.3256870" lon="-16.5106150">
        <ele>1851.9</ele>
        <time>2020-11-11T17:13:02Z</time>
      </trkpt>
      <trkpt lat="28.3256420" lon="-16.5106530">
        <ele>1851.9</ele>
        <time>2020-11-11T17:13:03Z</time>
      </trkpt>
      <trkpt lat="28.3256220" lon="-16.5106700">
        <ele>1851.9</ele>
        <time>2020-11-11T17:13:04Z</time>
      </trkpt>
      <trkpt lat="28.3256220" lon="-16.5106700">
        <ele>1851.9</ele>
        <time>2020-11-11T17:13:05Z</time>
      </trkpt>
      <trkpt lat="28.3255700" lon="-16.5107100">
        <ele>1851.9</ele>
        <time>2020-11-11T17:13:06Z</time>
      </trkpt>
      <trkpt lat="28.3255700" lon="-16.5107100">
        <ele>1851.9</ele>
        <time>2020-11-11T17:13:07Z</time>
      </trkpt>
      <trkpt lat="28.3255170" lon="-16.5107470">
        <ele>1851.9</ele>
        <time>2020-11-11T17:13:08Z</time>
      </trkpt>
      <trkpt lat="28.3255170" lon="-16.5107470">
        <ele>1851.9</ele>
        <time>2020-11-11T17:13:09Z</time>
      </trkpt>
      <trkpt lat="28.3254570" lon="-16.5107850">
        <ele>1852.9</ele>
        <time>2020-11-11T17:13:10Z</time>
      </trkpt>
      <trkpt lat="28.3254250" lon="-16.5108020">
        <ele>1852.9</ele>
        <time>2020-11-11T17:13:11Z</time>
      </trkpt>
      <trkpt lat="28.3254250" lon="-16.5108020">
        <ele>1852.9</ele>
        <time>2020-11-11T17:13:12Z</time>
      </trkpt>
      <trkpt lat="28.3253700" lon="-16.5108350">
        <ele>1852.9</ele>
        <time>2020-11-11T17:13:13Z</time>
      </trkpt>
      <trkpt lat="28.3253700" lon="-16.5108350">
        <ele>1852.9</ele>
        <time>2020-11-11T17:13:14Z</time>
      </trkpt>
      <trkpt lat="28.3253130" lon="-16.5108670">
        <ele>1852.9</ele>
        <time>2020-11-11T17:13:15Z</time>
      </trkpt>
      <trkpt lat="28.3253130" lon="-16.5108670">
        <ele>1852.9</ele>
        <time>2020-11-11T17:13:16Z</time>
      </trkpt>
      <trkpt lat="28.3252550" lon="-16.5108880">
        <ele>1852.9</ele>
        <time>2020-11-11T17:13:17Z</time>
      </trkpt>
      <trkpt lat="28.3252550" lon="-16.5108880">
        <ele>1852.9</ele>
        <time>2020-11-11T17:13:18Z</time>
      </trkpt>
      <trkpt lat="28.3251970" lon="-16.5109120">
        <ele>1853.9</ele>
        <time>2020-11-11T17:13:19Z</time>
      </trkpt>
      <trkpt lat="28.3251620" lon="-16.5109230">
        <ele>1853.9</ele>
        <time>2020-11-11T17:13:20Z</time>
      </trkpt>
      <trkpt lat="28.3251620" lon="-16.5109230">
        <ele>1853.9</ele>
        <time>2020-11-11T17:13:21Z</time>
      </trkpt>
      <trkpt lat="28.3251000" lon="-16.5109530">
        <ele>1853.9</ele>
        <time>2020-11-11T17:13:22Z</time>
      </trkpt>
      <trkpt lat="28.3251000" lon="-16.5109530">
        <ele>1853.9</ele>
        <time>2020-11-11T17:13:23Z</time>
      </trkpt>
      <trkpt lat="28.3250480" lon="-16.5109780">
        <ele>1853.9</ele>
        <time>2020-11-11T17:13:24Z</time>
      </trkpt>
      <trkpt lat="28.3250230" lon="-16.5109900">
        <ele>1853.9</ele>
        <time>2020-11-11T17:13:25Z</time>
      </trkpt>
      <trkpt lat="28.3250230" lon="-16.5109900">
        <ele>1853.9</ele>
        <time>2020-11-11T17:13:26Z</time>
      </trkpt>
      <trkpt lat="28.3249720" lon="-16.5110220">
        <ele>1854.9</ele>
        <time>2020-11-11T17:13:27Z</time>
      </trkpt>
      <trkpt lat="28.3249720" lon="-16.5110220">
        <ele>1854.9</ele>
        <time>2020-11-11T17:13:28Z</time>
      </trkpt>
      <trkpt lat="28.3249230" lon="-16.5110530">
        <ele>1854.9</ele>
        <time>2020-11-11T17:13:29Z</time>
      </trkpt>
      <trkpt lat="28.3249030" lon="-16.5110680">
        <ele>1854.9</ele>
        <time>2020-11-11T17:13:30Z</time>
      </trkpt>
      <trkpt lat="28.3249030" lon="-16.5110680">
        <ele>1854.9</ele>
        <time>2020-11-11T17:13:31Z</time>
      </trkpt>
      <trkpt lat="28.3248470" lon="-16.5111030">
        <ele>1854.9</ele>
        <time>2020-11-11T17:13:32Z</time>
      </trkpt>
      <trkpt lat="28.3248470" lon="-16.5111030">
        <ele>1855.9</ele>
        <time>2020-11-11T17:13:33Z</time>
      </trkpt>
      <trkpt lat="28.3248070" lon="-16.5111280">
        <ele>1855.9</ele>
        <time>2020-11-11T17:13:34Z</time>
      </trkpt>
      <trkpt lat="28.3248070" lon="-16.5111280">
        <ele>1855.9</ele>
        <time>2020-11-11T17:13:35Z</time>
      </trkpt>
      <trkpt lat="28.3247570" lon="-16.5111600">
        <ele>1855.9</ele>
        <time>2020-11-11T17:13:36Z</time>
      </trkpt>
      <trkpt lat="28.3247570" lon="-16.5111600">
        <ele>1855.9</ele>
        <time>2020-11-11T17:13:37Z</time>
      </trkpt>
      <trkpt lat="28.3247070" lon="-16.5111900">
        <ele>1855.9</ele>
        <time>2020-11-11T17:13:38Z</time>
      </trkpt>
      <trkpt lat="28.3247070" lon="-16.5111900">
        <ele>1856.9</ele>
        <time>2020-11-11T17:13:39Z</time>
      </trkpt>
      <trkpt lat="28.3246620" lon="-16.5112100">
        <ele>1856.9</ele>
        <time>2020-11-11T17:13:40Z</time>
      </trkpt>
      <trkpt lat="28.3246620" lon="-16.5112100">
        <ele>1856.9</ele>
        <time>2020-11-11T17:13:41Z</time>
      </trkpt>
      <trkpt lat="28.3246170" lon="-16.5112270">
        <ele>1856.9</ele>
        <time>2020-11-11T17:13:42Z</time>
      </trkpt>
      <trkpt lat="28.3245920" lon="-16.5112400">
        <ele>1857.9</ele>
        <time>2020-11-11T17:13:43Z</time>
      </trkpt>
      <trkpt lat="28.3245920" lon="-16.5112400">
        <ele>1857.9</ele>
        <time>2020-11-11T17:13:44Z</time>
      </trkpt>
      <trkpt lat="28.3245500" lon="-16.5112550">
        <ele>1857.9</ele>
        <time>2020-11-11T17:13:45Z</time>
      </trkpt>
      <trkpt lat="28.3245500" lon="-16.5112550">
        <ele>1857.9</ele>
        <time>2020-11-11T17:13:46Z</time>
      </trkpt>
      <trkpt lat="28.3245050" lon="-16.5112630">
        <ele>1857.9</ele>
        <time>2020-11-11T17:13:47Z</time>
      </trkpt>
      <trkpt lat="28.3245050" lon="-16.5112630">
        <ele>1857.9</ele>
        <time>2020-11-11T17:13:48Z</time>
      </trkpt>
      <trkpt lat="28.3244600" lon="-16.5112700">
        <ele>1858.9</ele>
        <time>2020-11-11T17:13:49Z</time>
      </trkpt>
      <trkpt lat="28.3244600" lon="-16.5112700">
        <ele>1858.9</ele>
        <time>2020-11-11T17:13:50Z</time>
      </trkpt>
      <trkpt lat="28.3244100" lon="-16.5112780">
        <ele>1858.9</ele>
        <time>2020-11-11T17:13:51Z</time>
      </trkpt>
      <trkpt lat="28.3244100" lon="-16.5112780">
        <ele>1858.9</ele>
        <time>2020-11-11T17:13:52Z</time>
      </trkpt>
      <trkpt lat="28.3243630" lon="-16.5112870">
        <ele>1858.9</ele>
        <time>2020-11-11T17:13:53Z</time>
      </trkpt>
      <trkpt lat="28.3243380" lon="-16.5112850">
        <ele>1858.9</ele>
        <time>2020-11-11T17:13:54Z</time>
      </trkpt>
      <trkpt lat="28.3243380" lon="-16.5112850">
        <ele>1859.9</ele>
        <time>2020-11-11T17:13:55Z</time>
      </trkpt>
      <trkpt lat="28.3242970" lon="-16.5112850">
        <ele>1859.9</ele>
        <time>2020-11-11T17:13:56Z</time>
      </trkpt>
      <trkpt lat="28.3242970" lon="-16.5112850">
        <ele>1859.9</ele>
        <time>2020-11-11T17:13:57Z</time>
      </trkpt>
      <trkpt lat="28.3242700" lon="-16.5112970">
        <ele>1859.9</ele>
        <time>2020-11-11T17:13:58Z</time>
      </trkpt>
      <trkpt lat="28.3242530" lon="-16.5113080">
        <ele>1859.9</ele>
        <time>2020-11-11T17:13:59Z</time>
      </trkpt>
      <trkpt lat="28.3242530" lon="-16.5113080">
        <ele>1859.9</ele>
        <time>2020-11-11T17:14:00Z</time>
      </trkpt>
      <trkpt lat="28.3242270" lon="-16.5113180">
        <ele>1860.9</ele>
        <time>2020-11-11T17:14:01Z</time>
      </trkpt>
      <trkpt lat="28.3241920" lon="-16.5113220">
        <ele>1860.9</ele>
        <time>2020-11-11T17:14:02Z</time>
      </trkpt>
      <trkpt lat="28.3241920" lon="-16.5113220">
        <ele>1860.9</ele>
        <time>2020-11-11T17:14:03Z</time>
      </trkpt>
      <trkpt lat="28.3241420" lon="-16.5113420">
        <ele>1860.9</ele>
        <time>2020-11-11T17:14:04Z</time>
      </trkpt>
      <trkpt lat="28.3241420" lon="-16.5113420">
        <ele>1860.9</ele>
        <time>2020-11-11T17:14:05Z</time>
      </trkpt>
      <trkpt lat="28.3241000" lon="-16.5113630">
        <ele>1860.9</ele>
        <time>2020-11-11T17:14:06Z</time>
      </trkpt>
      <trkpt lat="28.3241000" lon="-16.5113630">
        <ele>1861.9</ele>
        <time>2020-11-11T17:14:07Z</time>
      </trkpt>
      <trkpt lat="28.3240780" lon="-16.5113880">
        <ele>1861.9</ele>
        <time>2020-11-11T17:14:08Z</time>
      </trkpt>
      <trkpt lat="28.3240780" lon="-16.5113880">
        <ele>1861.9</ele>
        <time>2020-11-11T17:14:09Z</time>
      </trkpt>
      <trkpt lat="28.3240520" lon="-16.5114100">
        <ele>1861.9</ele>
        <time>2020-11-11T17:14:10Z</time>
      </trkpt>
      <trkpt lat="28.3240520" lon="-16.5114100">
        <ele>1861.9</ele>
        <time>2020-11-11T17:14:11Z</time>
      </trkpt>
      <trkpt lat="28.3240180" lon="-16.5114380">
        <ele>1861.9</ele>
        <time>2020-11-11T17:14:12Z</time>
      </trkpt>
      <trkpt lat="28.3240030" lon="-16.5114530">
        <ele>1861.9</ele>
        <time>2020-11-11T17:14:13Z</time>
      </trkpt>
      <trkpt lat="28.3240030" lon="-16.5114530">
        <ele>1861.9</ele>
        <time>2020-11-11T17:14:14Z</time>
      </trkpt>
      <trkpt lat="28.3239670" lon="-16.5114850">
        <ele>1861.9</ele>
        <time>2020-11-11T17:14:15Z</time>
      </trkpt>
      <trkpt lat="28.3239670" lon="-16.5114850">
        <ele>1861.9</ele>
        <time>2020-11-11T17:14:16Z</time>
      </trkpt>
      <trkpt lat="28.3239230" lon="-16.5115180">
        <ele>1861.9</ele>
        <time>2020-11-11T17:14:17Z</time>
      </trkpt>
      <trkpt lat="28.3239230" lon="-16.5115180">
        <ele>1861.9</ele>
        <time>2020-11-11T17:14:18Z</time>
      </trkpt>
      <trkpt lat="28.3238870" lon="-16.5115570">
        <ele>1862.9</ele>
        <time>2020-11-11T17:14:19Z</time>
      </trkpt>
      <trkpt lat="28.3238870" lon="-16.5115570">
        <ele>1862.9</ele>
        <time>2020-11-11T17:14:20Z</time>
      </trkpt>
      <trkpt lat="28.3238470" lon="-16.5115930">
        <ele>1862.9</ele>
        <time>2020-11-11T17:14:21Z</time>
      </trkpt>
      <trkpt lat="28.3238270" lon="-16.5116120">
        <ele>1862.9</ele>
        <time>2020-11-11T17:14:22Z</time>
      </trkpt>
      <trkpt lat="28.3238270" lon="-16.5116120">
        <ele>1862.9</ele>
        <time>2020-11-11T17:14:23Z</time>
      </trkpt>
      <trkpt lat="28.3237880" lon="-16.5116580">
        <ele>1862.9</ele>
        <time>2020-11-11T17:14:24Z</time>
      </trkpt>
      <trkpt lat="28.3237720" lon="-16.5116780">
        <ele>1863.9</ele>
        <time>2020-11-11T17:14:25Z</time>
      </trkpt>
      <trkpt lat="28.3237530" lon="-16.5116980">
        <ele>1863.9</ele>
        <time>2020-11-11T17:14:26Z</time>
      </trkpt>
      <trkpt lat="28.3237530" lon="-16.5116980">
        <ele>1863.9</ele>
        <time>2020-11-11T17:14:27Z</time>
      </trkpt>
      <trkpt lat="28.3237180" lon="-16.5117370">
        <ele>1863.9</ele>
        <time>2020-11-11T17:14:28Z</time>
      </trkpt>
      <trkpt lat="28.3237030" lon="-16.5117570">
        <ele>1863.9</ele>
        <time>2020-11-11T17:14:29Z</time>
      </trkpt>
      <trkpt lat="28.3237030" lon="-16.5117570">
        <ele>1863.9</ele>
        <time>2020-11-11T17:14:30Z</time>
      </trkpt>
      <trkpt lat="28.3236720" lon="-16.5117920">
        <ele>1863.9</ele>
        <time>2020-11-11T17:14:31Z</time>
      </trkpt>
      <trkpt lat="28.3236720" lon="-16.5117920">
        <ele>1863.9</ele>
        <time>2020-11-11T17:14:32Z</time>
      </trkpt>
      <trkpt lat="28.3236350" lon="-16.5118300">
        <ele>1864.9</ele>
        <time>2020-11-11T17:14:33Z</time>
      </trkpt>
      <trkpt lat="28.3236130" lon="-16.5118470">
        <ele>1864.9</ele>
        <time>2020-11-11T17:14:34Z</time>
      </trkpt>
      <trkpt lat="28.3236130" lon="-16.5118470">
        <ele>1864.9</ele>
        <time>2020-11-11T17:14:35Z</time>
      </trkpt>
      <trkpt lat="28.3235750" lon="-16.5118730">
        <ele>1864.9</ele>
        <time>2020-11-11T17:14:36Z</time>
      </trkpt>
      <trkpt lat="28.3235750" lon="-16.5118730">
        <ele>1864.9</ele>
        <time>2020-11-11T17:14:37Z</time>
      </trkpt>
      <trkpt lat="28.3235400" lon="-16.5118980">
        <ele>1865.9</ele>
        <time>2020-11-11T17:14:38Z</time>
      </trkpt>
      <trkpt lat="28.3235400" lon="-16.5118980">
        <ele>1865.9</ele>
        <time>2020-11-11T17:14:39Z</time>
      </trkpt>
      <trkpt lat="28.3235080" lon="-16.5119300">
        <ele>1865.9</ele>
        <time>2020-11-11T17:14:40Z</time>
      </trkpt>
      <trkpt lat="28.3235080" lon="-16.5119300">
        <ele>1865.9</ele>
        <time>2020-11-11T17:14:41Z</time>
      </trkpt>
      <trkpt lat="28.3234850" lon="-16.5119620">
        <ele>1865.9</ele>
        <time>2020-11-11T17:14:42Z</time>
      </trkpt>
      <trkpt lat="28.3234850" lon="-16.5119620">
        <ele>1865.9</ele>
        <time>2020-11-11T17:14:43Z</time>
      </trkpt>
      <trkpt lat="28.3234570" lon="-16.5119850">
        <ele>1866.9</ele>
        <time>2020-11-11T17:14:44Z</time>
      </trkpt>
      <trkpt lat="28.3234380" lon="-16.5119980">
        <ele>1866.9</ele>
        <time>2020-11-11T17:14:45Z</time>
      </trkpt>
      <trkpt lat="28.3234380" lon="-16.5119980">
        <ele>1866.9</ele>
        <time>2020-11-11T17:14:46Z</time>
      </trkpt>
      <trkpt lat="28.3234050" lon="-16.5120270">
        <ele>1866.9</ele>
        <time>2020-11-11T17:14:47Z</time>
      </trkpt>
      <trkpt lat="28.3234050" lon="-16.5120270">
        <ele>1866.9</ele>
        <time>2020-11-11T17:14:48Z</time>
      </trkpt>
      <trkpt lat="28.3233720" lon="-16.5120480">
        <ele>1866.9</ele>
        <time>2020-11-11T17:14:49Z</time>
      </trkpt>
      <trkpt lat="28.3233720" lon="-16.5120480">
        <ele>1867.9</ele>
        <time>2020-11-11T17:14:50Z</time>
      </trkpt>
      <trkpt lat="28.3233320" lon="-16.5120700">
        <ele>1867.9</ele>
        <time>2020-11-11T17:14:51Z</time>
      </trkpt>
      <trkpt lat="28.3233320" lon="-16.5120700">
        <ele>1867.9</ele>
        <time>2020-11-11T17:14:52Z</time>
      </trkpt>
      <trkpt lat="28.3232950" lon="-16.5120950">
        <ele>1867.9</ele>
        <time>2020-11-11T17:14:53Z</time>
      </trkpt>
      <trkpt lat="28.3232950" lon="-16.5120950">
        <ele>1867.9</ele>
        <time>2020-11-11T17:14:54Z</time>
      </trkpt>
      <trkpt lat="28.3232650" lon="-16.5121120">
        <ele>1867.9</ele>
        <time>2020-11-11T17:14:55Z</time>
      </trkpt>
      <trkpt lat="28.3232650" lon="-16.5121120">
        <ele>1868.9</ele>
        <time>2020-11-11T17:14:56Z</time>
      </trkpt>
      <trkpt lat="28.3232520" lon="-16.5121270">
        <ele>1868.9</ele>
        <time>2020-11-11T17:14:57Z</time>
      </trkpt>
      <trkpt lat="28.3232500" lon="-16.5121320">
        <ele>1868.9</ele>
        <time>2020-11-11T17:14:58Z</time>
      </trkpt>
      <trkpt lat="28.3232500" lon="-16.5121320">
        <ele>1868.9</ele>
        <time>2020-11-11T17:16:26Z</time>
      </trkpt>
      <trkpt lat="28.3232300" lon="-16.5121420">
        <ele>1868.9</ele>
        <time>2020-11-11T17:16:27Z</time>
      </trkpt>
      <trkpt lat="28.3232300" lon="-16.5121420">
        <ele>1868.9</ele>
        <time>2020-11-11T17:16:28Z</time>
      </trkpt>
      <trkpt lat="28.3232120" lon="-16.5121330">
        <ele>1868.9</ele>
        <time>2020-11-11T17:16:29Z</time>
      </trkpt>
      <trkpt lat="28.3232120" lon="-16.5121330">
        <ele>1868.9</ele>
        <time>2020-11-11T17:16:30Z</time>
      </trkpt>
      <trkpt lat="28.3231850" lon="-16.5121320">
        <ele>1868.9</ele>
        <time>2020-11-11T17:16:31Z</time>
      </trkpt>
      <trkpt lat="28.3231850" lon="-16.5121320">
        <ele>1868.9</ele>
        <time>2020-11-11T17:16:32Z</time>
      </trkpt>
      <trkpt lat="28.3231480" lon="-16.5121280">
        <ele>1868.9</ele>
        <time>2020-11-11T17:16:33Z</time>
      </trkpt>
      <trkpt lat="28.3231480" lon="-16.5121280">
        <ele>1869.9</ele>
        <time>2020-11-11T17:16:34Z</time>
      </trkpt>
      <trkpt lat="28.3231120" lon="-16.5121170">
        <ele>1869.9</ele>
        <time>2020-11-11T17:16:35Z</time>
      </trkpt>
      <trkpt lat="28.3231120" lon="-16.5121170">
        <ele>1869.9</ele>
        <time>2020-11-11T17:16:36Z</time>
      </trkpt>
      <trkpt lat="28.3230750" lon="-16.5120920">
        <ele>1869.9</ele>
        <time>2020-11-11T17:16:37Z</time>
      </trkpt>
      <trkpt lat="28.3230750" lon="-16.5120920">
        <ele>1869.9</ele>
        <time>2020-11-11T17:16:38Z</time>
      </trkpt>
      <trkpt lat="28.3230380" lon="-16.5120630">
        <ele>1869.9</ele>
        <time>2020-11-11T17:16:39Z</time>
      </trkpt>
      <trkpt lat="28.3230380" lon="-16.5120630">
        <ele>1869.9</ele>
        <time>2020-11-11T17:16:40Z</time>
      </trkpt>
      <trkpt lat="28.3230030" lon="-16.5120350">
        <ele>1869.9</ele>
        <time>2020-11-11T17:16:41Z</time>
      </trkpt>
      <trkpt lat="28.3230030" lon="-16.5120350">
        <ele>1869.9</ele>
        <time>2020-11-11T17:16:42Z</time>
      </trkpt>
      <trkpt lat="28.3229700" lon="-16.5120120">
        <ele>1870.9</ele>
        <time>2020-11-11T17:16:43Z</time>
      </trkpt>
      <trkpt lat="28.3229500" lon="-16.5119980">
        <ele>1870.9</ele>
        <time>2020-11-11T17:16:44Z</time>
      </trkpt>
      <trkpt lat="28.3229500" lon="-16.5119980">
        <ele>1870.9</ele>
        <time>2020-11-11T17:16:45Z</time>
      </trkpt>
      <trkpt lat="28.3229080" lon="-16.5119770">
        <ele>1870.9</ele>
        <time>2020-11-11T17:16:46Z</time>
      </trkpt>
      <trkpt lat="28.3229080" lon="-16.5119770">
        <ele>1870.9</ele>
        <time>2020-11-11T17:16:47Z</time>
      </trkpt>
      <trkpt lat="28.3228670" lon="-16.5119830">
        <ele>1870.9</ele>
        <time>2020-11-11T17:16:48Z</time>
      </trkpt>
      <trkpt lat="28.3228670" lon="-16.5119830">
        <ele>1870.9</ele>
        <time>2020-11-11T17:16:49Z</time>
      </trkpt>
      <trkpt lat="28.3228300" lon="-16.5120100">
        <ele>1870.9</ele>
        <time>2020-11-11T17:16:50Z</time>
      </trkpt>
      <trkpt lat="28.3228300" lon="-16.5120100">
        <ele>1870.9</ele>
        <time>2020-11-11T17:16:51Z</time>
      </trkpt>
      <trkpt lat="28.3227980" lon="-16.5120380">
        <ele>1870.9</ele>
        <time>2020-11-11T17:16:52Z</time>
      </trkpt>
      <trkpt lat="28.3227980" lon="-16.5120380">
        <ele>1870.9</ele>
        <time>2020-11-11T17:16:53Z</time>
      </trkpt>
      <trkpt lat="28.3227720" lon="-16.5120730">
        <ele>1870.9</ele>
        <time>2020-11-11T17:16:54Z</time>
      </trkpt>
      <trkpt lat="28.3227630" lon="-16.5120930">
        <ele>1870.9</ele>
        <time>2020-11-11T17:16:55Z</time>
      </trkpt>
      <trkpt lat="28.3227630" lon="-16.5120930">
        <ele>1870.9</ele>
        <time>2020-11-11T17:16:56Z</time>
      </trkpt>
      <trkpt lat="28.3227520" lon="-16.5121350">
        <ele>1870.9</ele>
        <time>2020-11-11T17:16:57Z</time>
      </trkpt>
      <trkpt lat="28.3227520" lon="-16.5121350">
        <ele>1870.9</ele>
        <time>2020-11-11T17:16:58Z</time>
      </trkpt>
      <trkpt lat="28.3227370" lon="-16.5121720">
        <ele>1870.9</ele>
        <time>2020-11-11T17:16:59Z</time>
      </trkpt>
      <trkpt lat="28.3227370" lon="-16.5121720">
        <ele>1870.9</ele>
        <time>2020-11-11T17:17:00Z</time>
      </trkpt>
      <trkpt lat="28.3227220" lon="-16.5122050">
        <ele>1871.9</ele>
        <time>2020-11-11T17:17:01Z</time>
      </trkpt>
      <trkpt lat="28.3227220" lon="-16.5122050">
        <ele>1871.9</ele>
        <time>2020-11-11T17:17:02Z</time>
      </trkpt>
      <trkpt lat="28.3227030" lon="-16.5122380">
        <ele>1871.9</ele>
        <time>2020-11-11T17:17:03Z</time>
      </trkpt>
      <trkpt lat="28.3227030" lon="-16.5122380">
        <ele>1871.9</ele>
        <time>2020-11-11T17:17:04Z</time>
      </trkpt>
      <trkpt lat="28.3226780" lon="-16.5122730">
        <ele>1871.9</ele>
        <time>2020-11-11T17:17:05Z</time>
      </trkpt>
      <trkpt lat="28.3226650" lon="-16.5122950">
        <ele>1871.9</ele>
        <time>2020-11-11T17:17:06Z</time>
      </trkpt>
      <trkpt lat="28.3226650" lon="-16.5122950">
        <ele>1872.9</ele>
        <time>2020-11-11T17:17:07Z</time>
      </trkpt>
      <trkpt lat="28.3226330" lon="-16.5123320">
        <ele>1872.9</ele>
        <time>2020-11-11T17:17:08Z</time>
      </trkpt>
      <trkpt lat="28.3226330" lon="-16.5123320">
        <ele>1872.9</ele>
        <time>2020-11-11T17:17:09Z</time>
      </trkpt>
      <trkpt lat="28.3226030" lon="-16.5123670">
        <ele>1872.9</ele>
        <time>2020-11-11T17:17:10Z</time>
      </trkpt>
      <trkpt lat="28.3226030" lon="-16.5123670">
        <ele>1872.9</ele>
        <time>2020-11-11T17:17:11Z</time>
      </trkpt>
      <trkpt lat="28.3225750" lon="-16.5124020">
        <ele>1873.9</ele>
        <time>2020-11-11T17:17:12Z</time>
      </trkpt>
      <trkpt lat="28.3225750" lon="-16.5124020">
        <ele>1873.9</ele>
        <time>2020-11-11T17:17:13Z</time>
      </trkpt>
      <trkpt lat="28.3225430" lon="-16.5124370">
        <ele>1873.9</ele>
        <time>2020-11-11T17:17:14Z</time>
      </trkpt>
      <trkpt lat="28.3225430" lon="-16.5124370">
        <ele>1873.9</ele>
        <time>2020-11-11T17:17:15Z</time>
      </trkpt>
      <trkpt lat="28.3225180" lon="-16.5124770">
        <ele>1873.9</ele>
        <time>2020-11-11T17:17:16Z</time>
      </trkpt>
      <trkpt lat="28.3225180" lon="-16.5124770">
        <ele>1873.9</ele>
        <time>2020-11-11T17:17:17Z</time>
      </trkpt>
      <trkpt lat="28.3224930" lon="-16.5125130">
        <ele>1873.9</ele>
        <time>2020-11-11T17:17:18Z</time>
      </trkpt>
      <trkpt lat="28.3224820" lon="-16.5125320">
        <ele>1873.9</ele>
        <time>2020-11-11T17:17:19Z</time>
      </trkpt>
      <trkpt lat="28.3224820" lon="-16.5125320">
        <ele>1873.9</ele>
        <time>2020-11-11T17:17:20Z</time>
      </trkpt>
      <trkpt lat="28.3224580" lon="-16.5125630">
        <ele>1874.9</ele>
        <time>2020-11-11T17:17:21Z</time>
      </trkpt>
      <trkpt lat="28.3224500" lon="-16.5125800">
        <ele>1874.9</ele>
        <time>2020-11-11T17:17:22Z</time>
      </trkpt>
      <trkpt lat="28.3224500" lon="-16.5125800">
        <ele>1874.9</ele>
        <time>2020-11-11T17:17:23Z</time>
      </trkpt>
      <trkpt lat="28.3224280" lon="-16.5126130">
        <ele>1874.9</ele>
        <time>2020-11-11T17:17:24Z</time>
      </trkpt>
      <trkpt lat="28.3224280" lon="-16.5126130">
        <ele>1874.9</ele>
        <time>2020-11-11T17:17:25Z</time>
      </trkpt>
      <trkpt lat="28.3224070" lon="-16.5126520">
        <ele>1874.9</ele>
        <time>2020-11-11T17:17:26Z</time>
      </trkpt>
      <trkpt lat="28.3224070" lon="-16.5126520">
        <ele>1874.9</ele>
        <time>2020-11-11T17:17:27Z</time>
      </trkpt>
      <trkpt lat="28.3223850" lon="-16.5126880">
        <ele>1874.9</ele>
        <time>2020-11-11T17:17:28Z</time>
      </trkpt>
      <trkpt lat="28.3223850" lon="-16.5126880">
        <ele>1875.9</ele>
        <time>2020-11-11T17:17:29Z</time>
      </trkpt>
      <trkpt lat="28.3223600" lon="-16.5127230">
        <ele>1875.9</ele>
        <time>2020-11-11T17:17:30Z</time>
      </trkpt>
      <trkpt lat="28.3223470" lon="-16.5127420">
        <ele>1875.9</ele>
        <time>2020-11-11T17:17:31Z</time>
      </trkpt>
      <trkpt lat="28.3223470" lon="-16.5127420">
        <ele>1875.9</ele>
        <time>2020-11-11T17:17:32Z</time>
      </trkpt>
      <trkpt lat="28.3223220" lon="-16.5127720">
        <ele>1875.9</ele>
        <time>2020-11-11T17:17:33Z</time>
      </trkpt>
      <trkpt lat="28.3223220" lon="-16.5127720">
        <ele>1876.9</ele>
        <time>2020-11-11T17:17:34Z</time>
      </trkpt>
      <trkpt lat="28.3222980" lon="-16.5127980">
        <ele>1876.9</ele>
        <time>2020-11-11T17:17:35Z</time>
      </trkpt>
      <trkpt lat="28.3222980" lon="-16.5127980">
        <ele>1876.9</ele>
        <time>2020-11-11T17:17:36Z</time>
      </trkpt>
      <trkpt lat="28.3222820" lon="-16.5128250">
        <ele>1876.9</ele>
        <time>2020-11-11T17:17:37Z</time>
      </trkpt>
      <trkpt lat="28.3222820" lon="-16.5128250">
        <ele>1876.9</ele>
        <time>2020-11-11T17:17:38Z</time>
      </trkpt>
      <trkpt lat="28.3222600" lon="-16.5128570">
        <ele>1876.9</ele>
        <time>2020-11-11T17:17:39Z</time>
      </trkpt>
      <trkpt lat="28.3222480" lon="-16.5128720">
        <ele>1876.9</ele>
        <time>2020-11-11T17:17:40Z</time>
      </trkpt>
      <trkpt lat="28.3222480" lon="-16.5128720">
        <ele>1876.9</ele>
        <time>2020-11-11T17:17:41Z</time>
      </trkpt>
      <trkpt lat="28.3222370" lon="-16.5129050">
        <ele>1876.9</ele>
        <time>2020-11-11T17:17:42Z</time>
      </trkpt>
      <trkpt lat="28.3222230" lon="-16.5129220">
        <ele>1877.9</ele>
        <time>2020-11-11T17:17:43Z</time>
      </trkpt>
      <trkpt lat="28.3222230" lon="-16.5129220">
        <ele>1877.9</ele>
        <time>2020-11-11T17:17:44Z</time>
      </trkpt>
      <trkpt lat="28.3221970" lon="-16.5129500">
        <ele>1877.9</ele>
        <time>2020-11-11T17:17:45Z</time>
      </trkpt>
      <trkpt lat="28.3221850" lon="-16.5129650">
        <ele>1877.9</ele>
        <time>2020-11-11T17:17:46Z</time>
      </trkpt>
      <trkpt lat="28.3221850" lon="-16.5129650">
        <ele>1877.9</ele>
        <time>2020-11-11T17:17:47Z</time>
      </trkpt>
      <trkpt lat="28.3221580" lon="-16.5129970">
        <ele>1877.9</ele>
        <time>2020-11-11T17:17:48Z</time>
      </trkpt>
      <trkpt lat="28.3221450" lon="-16.5130100">
        <ele>1877.9</ele>
        <time>2020-11-11T17:17:49Z</time>
      </trkpt>
      <trkpt lat="28.3221450" lon="-16.5130100">
        <ele>1877.9</ele>
        <time>2020-11-11T17:17:50Z</time>
      </trkpt>
      <trkpt lat="28.3221150" lon="-16.5130300">
        <ele>1878.9</ele>
        <time>2020-11-11T17:17:51Z</time>
      </trkpt>
      <trkpt lat="28.3221000" lon="-16.5130400">
        <ele>1878.9</ele>
        <time>2020-11-11T17:17:52Z</time>
      </trkpt>
      <trkpt lat="28.3221000" lon="-16.5130400">
        <ele>1878.9</ele>
        <time>2020-11-11T17:17:53Z</time>
      </trkpt>
      <trkpt lat="28.3220720" lon="-16.5130600">
        <ele>1878.9</ele>
        <time>2020-11-11T17:17:54Z</time>
      </trkpt>
      <trkpt lat="28.3220720" lon="-16.5130600">
        <ele>1879.9</ele>
        <time>2020-11-11T17:17:55Z</time>
      </trkpt>
      <trkpt lat="28.3220420" lon="-16.5130780">
        <ele>1879.9</ele>
        <time>2020-11-11T17:17:56Z</time>
      </trkpt>
      <trkpt lat="28.3220280" lon="-16.5130870">
        <ele>1879.9</ele>
        <time>2020-11-11T17:17:57Z</time>
      </trkpt>
      <trkpt lat="28.3220280" lon="-16.5130870">
        <ele>1879.9</ele>
        <time>2020-11-11T17:17:58Z</time>
      </trkpt>
      <trkpt lat="28.3220030" lon="-16.5131000">
        <ele>1879.9</ele>
        <time>2020-11-11T17:17:59Z</time>
      </trkpt>
      <trkpt lat="28.3220030" lon="-16.5131000">
        <ele>1879.9</ele>
        <time>2020-11-11T17:18:00Z</time>
      </trkpt>
      <trkpt lat="28.3219720" lon="-16.5131130">
        <ele>1879.9</ele>
        <time>2020-11-11T17:18:01Z</time>
      </trkpt>
      <trkpt lat="28.3219720" lon="-16.5131130">
        <ele>1880.9</ele>
        <time>2020-11-11T17:18:02Z</time>
      </trkpt>
      <trkpt lat="28.3219470" lon="-16.5131230">
        <ele>1880.9</ele>
        <time>2020-11-11T17:18:03Z</time>
      </trkpt>
      <trkpt lat="28.3219470" lon="-16.5131230">
        <ele>1880.9</ele>
        <time>2020-11-11T17:18:04Z</time>
      </trkpt>
      <trkpt lat="28.3219130" lon="-16.5131280">
        <ele>1880.9</ele>
        <time>2020-11-11T17:18:05Z</time>
      </trkpt>
      <trkpt lat="28.3219130" lon="-16.5131280">
        <ele>1881.9</ele>
        <time>2020-11-11T17:18:06Z</time>
      </trkpt>
      <trkpt lat="28.3218720" lon="-16.5131420">
        <ele>1881.9</ele>
        <time>2020-11-11T17:18:07Z</time>
      </trkpt>
      <trkpt lat="28.3218720" lon="-16.5131420">
        <ele>1881.9</ele>
        <time>2020-11-11T17:18:08Z</time>
      </trkpt>
      <trkpt lat="28.3218330" lon="-16.5131500">
        <ele>1881.9</ele>
        <time>2020-11-11T17:18:09Z</time>
      </trkpt>
      <trkpt lat="28.3218330" lon="-16.5131500">
        <ele>1881.9</ele>
        <time>2020-11-11T17:18:10Z</time>
      </trkpt>
      <trkpt lat="28.3218100" lon="-16.5131570">
        <ele>1881.9</ele>
        <time>2020-11-11T17:18:11Z</time>
      </trkpt>
      <trkpt lat="28.3217920" lon="-16.5131570">
        <ele>1882.9</ele>
        <time>2020-11-11T17:18:12Z</time>
      </trkpt>
      <trkpt lat="28.3217750" lon="-16.5131550">
        <ele>1882.9</ele>
        <time>2020-11-11T17:18:13Z</time>
      </trkpt>
      <trkpt lat="28.3217750" lon="-16.5131550">
        <ele>1882.9</ele>
        <time>2020-11-11T17:18:14Z</time>
      </trkpt>
      <trkpt lat="28.3217470" lon="-16.5131550">
        <ele>1882.9</ele>
        <time>2020-11-11T17:18:15Z</time>
      </trkpt>
      <trkpt lat="28.3217470" lon="-16.5131550">
        <ele>1882.9</ele>
        <time>2020-11-11T17:18:16Z</time>
      </trkpt>
      <trkpt lat="28.3217170" lon="-16.5131530">
        <ele>1882.9</ele>
        <time>2020-11-11T17:18:17Z</time>
      </trkpt>
      <trkpt lat="28.3217170" lon="-16.5131530">
        <ele>1882.9</ele>
        <time>2020-11-11T17:18:18Z</time>
      </trkpt>
      <trkpt lat="28.3216830" lon="-16.5131570">
        <ele>1882.9</ele>
        <time>2020-11-11T17:18:19Z</time>
      </trkpt>
      <trkpt lat="28.3216830" lon="-16.5131570">
        <ele>1883.9</ele>
        <time>2020-11-11T17:18:20Z</time>
      </trkpt>
      <trkpt lat="28.3216520" lon="-16.5131680">
        <ele>1883.9</ele>
        <time>2020-11-11T17:18:21Z</time>
      </trkpt>
      <trkpt lat="28.3216380" lon="-16.5131800">
        <ele>1883.9</ele>
        <time>2020-11-11T17:18:22Z</time>
      </trkpt>
      <trkpt lat="28.3216380" lon="-16.5131800">
        <ele>1883.9</ele>
        <time>2020-11-11T17:18:23Z</time>
      </trkpt>
      <trkpt lat="28.3216170" lon="-16.5132080">
        <ele>1883.9</ele>
        <time>2020-11-11T17:18:24Z</time>
      </trkpt>
      <trkpt lat="28.3216170" lon="-16.5132080">
        <ele>1883.9</ele>
        <time>2020-11-11T17:18:25Z</time>
      </trkpt>
      <trkpt lat="28.3215930" lon="-16.5132350">
        <ele>1883.9</ele>
        <time>2020-11-11T17:18:26Z</time>
      </trkpt>
      <trkpt lat="28.3215850" lon="-16.5132530">
        <ele>1883.9</ele>
        <time>2020-11-11T17:18:27Z</time>
      </trkpt>
      <trkpt lat="28.3215850" lon="-16.5132530">
        <ele>1883.9</ele>
        <time>2020-11-11T17:18:28Z</time>
      </trkpt>
      <trkpt lat="28.3215680" lon="-16.5132850">
        <ele>1884.9</ele>
        <time>2020-11-11T17:18:29Z</time>
      </trkpt>
      <trkpt lat="28.3215680" lon="-16.5132850">
        <ele>1884.9</ele>
        <time>2020-11-11T17:18:30Z</time>
      </trkpt>
      <trkpt lat="28.3215520" lon="-16.5133200">
        <ele>1885.9</ele>
        <time>2020-11-11T17:18:31Z</time>
      </trkpt>
      <trkpt lat="28.3215520" lon="-16.5133200">
        <ele>1885.9</ele>
        <time>2020-11-11T17:18:32Z</time>
      </trkpt>
      <trkpt lat="28.3215300" lon="-16.5133480">
        <ele>1885.9</ele>
        <time>2020-11-11T17:18:33Z</time>
      </trkpt>
      <trkpt lat="28.3215300" lon="-16.5133480">
        <ele>1885.9</ele>
        <time>2020-11-11T17:18:34Z</time>
      </trkpt>
      <trkpt lat="28.3215050" lon="-16.5133770">
        <ele>1885.9</ele>
        <time>2020-11-11T17:18:35Z</time>
      </trkpt>
      <trkpt lat="28.3214900" lon="-16.5133920">
        <ele>1885.9</ele>
        <time>2020-11-11T17:18:36Z</time>
      </trkpt>
      <trkpt lat="28.3214900" lon="-16.5133920">
        <ele>1885.9</ele>
        <time>2020-11-11T17:18:37Z</time>
      </trkpt>
      <trkpt lat="28.3214600" lon="-16.5134330">
        <ele>1885.9</ele>
        <time>2020-11-11T17:18:38Z</time>
      </trkpt>
      <trkpt lat="28.3214600" lon="-16.5134330">
        <ele>1884.9</ele>
        <time>2020-11-11T17:18:39Z</time>
      </trkpt>
      <trkpt lat="28.3214250" lon="-16.5134900">
        <ele>1884.9</ele>
        <time>2020-11-11T17:18:40Z</time>
      </trkpt>
      <trkpt lat="28.3214250" lon="-16.5134900">
        <ele>1884.9</ele>
        <time>2020-11-11T17:18:41Z</time>
      </trkpt>
      <trkpt lat="28.3213880" lon="-16.5135380">
        <ele>1885.9</ele>
        <time>2020-11-11T17:18:42Z</time>
      </trkpt>
      <trkpt lat="28.3213880" lon="-16.5135380">
        <ele>1885.9</ele>
        <time>2020-11-11T17:18:43Z</time>
      </trkpt>
      <trkpt lat="28.3213600" lon="-16.5135750">
        <ele>1885.9</ele>
        <time>2020-11-11T17:18:44Z</time>
      </trkpt>
      <trkpt lat="28.3213600" lon="-16.5135750">
        <ele>1885.9</ele>
        <time>2020-11-11T17:18:45Z</time>
      </trkpt>
      <trkpt lat="28.3213270" lon="-16.5136020">
        <ele>1885.9</ele>
        <time>2020-11-11T17:18:46Z</time>
      </trkpt>
      <trkpt lat="28.3213270" lon="-16.5136020">
        <ele>1885.9</ele>
        <time>2020-11-11T17:18:47Z</time>
      </trkpt>
      <trkpt lat="28.3212920" lon="-16.5136170">
        <ele>1886.9</ele>
        <time>2020-11-11T17:18:48Z</time>
      </trkpt>
      <trkpt lat="28.3212750" lon="-16.5136230">
        <ele>1886.9</ele>
        <time>2020-11-11T17:18:49Z</time>
      </trkpt>
      <trkpt lat="28.3212750" lon="-16.5136230">
        <ele>1886.9</ele>
        <time>2020-11-11T17:18:50Z</time>
      </trkpt>
      <trkpt lat="28.3212450" lon="-16.5136330">
        <ele>1886.9</ele>
        <time>2020-11-11T17:18:51Z</time>
      </trkpt>
      <trkpt lat="28.3212450" lon="-16.5136330">
        <ele>1886.9</ele>
        <time>2020-11-11T17:18:52Z</time>
      </trkpt>
      <trkpt lat="28.3212170" lon="-16.5136320">
        <ele>1886.9</ele>
        <time>2020-11-11T17:18:53Z</time>
      </trkpt>
      <trkpt lat="28.3211980" lon="-16.5136250">
        <ele>1886.9</ele>
        <time>2020-11-11T17:18:54Z</time>
      </trkpt>
      <trkpt lat="28.3211980" lon="-16.5136250">
        <ele>1886.9</ele>
        <time>2020-11-11T17:18:55Z</time>
      </trkpt>
      <trkpt lat="28.3211600" lon="-16.5136150">
        <ele>1887.9</ele>
        <time>2020-11-11T17:18:56Z</time>
      </trkpt>
      <trkpt lat="28.3211600" lon="-16.5136150">
        <ele>1887.9</ele>
        <time>2020-11-11T17:18:57Z</time>
      </trkpt>
      <trkpt lat="28.3211230" lon="-16.5136080">
        <ele>1887.9</ele>
        <time>2020-11-11T17:18:58Z</time>
      </trkpt>
      <trkpt lat="28.3211230" lon="-16.5136080">
        <ele>1887.9</ele>
        <time>2020-11-11T17:18:59Z</time>
      </trkpt>
      <trkpt lat="28.3210870" lon="-16.5135970">
        <ele>1887.9</ele>
        <time>2020-11-11T17:19:00Z</time>
      </trkpt>
      <trkpt lat="28.3210700" lon="-16.5135920">
        <ele>1887.9</ele>
        <time>2020-11-11T17:19:01Z</time>
      </trkpt>
      <trkpt lat="28.3210700" lon="-16.5135920">
        <ele>1887.9</ele>
        <time>2020-11-11T17:19:02Z</time>
      </trkpt>
      <trkpt lat="28.3210350" lon="-16.5135830">
        <ele>1887.9</ele>
        <time>2020-11-11T17:19:03Z</time>
      </trkpt>
      <trkpt lat="28.3210350" lon="-16.5135830">
        <ele>1888.9</ele>
        <time>2020-11-11T17:19:04Z</time>
      </trkpt>
      <trkpt lat="28.3209970" lon="-16.5135820">
        <ele>1888.9</ele>
        <time>2020-11-11T17:19:05Z</time>
      </trkpt>
      <trkpt lat="28.3209970" lon="-16.5135820">
        <ele>1888.9</ele>
        <time>2020-11-11T17:19:06Z</time>
      </trkpt>
      <trkpt lat="28.3209580" lon="-16.5135800">
        <ele>1888.9</ele>
        <time>2020-11-11T17:19:07Z</time>
      </trkpt>
      <trkpt lat="28.3209580" lon="-16.5135800">
        <ele>1888.9</ele>
        <time>2020-11-11T17:19:08Z</time>
      </trkpt>
      <trkpt lat="28.3209230" lon="-16.5135850">
        <ele>1889.9</ele>
        <time>2020-11-11T17:19:09Z</time>
      </trkpt>
      <trkpt lat="28.3209230" lon="-16.5135850">
        <ele>1889.9</ele>
        <time>2020-11-11T17:19:10Z</time>
      </trkpt>
      <trkpt lat="28.3208830" lon="-16.5136000">
        <ele>1889.9</ele>
        <time>2020-11-11T17:19:11Z</time>
      </trkpt>
      <trkpt lat="28.3208830" lon="-16.5136000">
        <ele>1889.9</ele>
        <time>2020-11-11T17:19:12Z</time>
      </trkpt>
      <trkpt lat="28.3208430" lon="-16.5136170">
        <ele>1889.9</ele>
        <time>2020-11-11T17:19:13Z</time>
      </trkpt>
      <trkpt lat="28.3208430" lon="-16.5136170">
        <ele>1889.9</ele>
        <time>2020-11-11T17:19:14Z</time>
      </trkpt>
      <trkpt lat="28.3208030" lon="-16.5136270">
        <ele>1889.9</ele>
        <time>2020-11-11T17:19:15Z</time>
      </trkpt>
      <trkpt lat="28.3208030" lon="-16.5136270">
        <ele>1889.9</ele>
        <time>2020-11-11T17:19:16Z</time>
      </trkpt>
      <trkpt lat="28.3207720" lon="-16.5136380">
        <ele>1889.9</ele>
        <time>2020-11-11T17:19:17Z</time>
      </trkpt>
      <trkpt lat="28.3207720" lon="-16.5136380">
        <ele>1889.9</ele>
        <time>2020-11-11T17:19:18Z</time>
      </trkpt>
      <trkpt lat="28.3207420" lon="-16.5136480">
        <ele>1890.9</ele>
        <time>2020-11-11T17:19:19Z</time>
      </trkpt>
      <trkpt lat="28.3207420" lon="-16.5136480">
        <ele>1890.9</ele>
        <time>2020-11-11T17:19:20Z</time>
      </trkpt>
      <trkpt lat="28.3207100" lon="-16.5136620">
        <ele>1890.9</ele>
        <time>2020-11-11T17:19:21Z</time>
      </trkpt>
      <trkpt lat="28.3207100" lon="-16.5136620">
        <ele>1890.9</ele>
        <time>2020-11-11T17:19:22Z</time>
      </trkpt>
      <trkpt lat="28.3206730" lon="-16.5136700">
        <ele>1891.9</ele>
        <time>2020-11-11T17:19:23Z</time>
      </trkpt>
      <trkpt lat="28.3206570" lon="-16.5136730">
        <ele>1891.9</ele>
        <time>2020-11-11T17:19:24Z</time>
      </trkpt>
      <trkpt lat="28.3206570" lon="-16.5136730">
        <ele>1891.9</ele>
        <time>2020-11-11T17:19:25Z</time>
      </trkpt>
      <trkpt lat="28.3206230" lon="-16.5136770">
        <ele>1891.9</ele>
        <time>2020-11-11T17:19:26Z</time>
      </trkpt>
      <trkpt lat="28.3206230" lon="-16.5136770">
        <ele>1892.9</ele>
        <time>2020-11-11T17:19:27Z</time>
      </trkpt>
      <trkpt lat="28.3205850" lon="-16.5136830">
        <ele>1892.9</ele>
        <time>2020-11-11T17:19:28Z</time>
      </trkpt>
      <trkpt lat="28.3205850" lon="-16.5136830">
        <ele>1892.9</ele>
        <time>2020-11-11T17:19:29Z</time>
      </trkpt>
      <trkpt lat="28.3205430" lon="-16.5136920">
        <ele>1892.9</ele>
        <time>2020-11-11T17:19:30Z</time>
      </trkpt>
      <trkpt lat="28.3205430" lon="-16.5136920">
        <ele>1892.9</ele>
        <time>2020-11-11T17:19:31Z</time>
      </trkpt>
      <trkpt lat="28.3205050" lon="-16.5136980">
        <ele>1892.9</ele>
        <time>2020-11-11T17:19:32Z</time>
      </trkpt>
      <trkpt lat="28.3204870" lon="-16.5137020">
        <ele>1892.9</ele>
        <time>2020-11-11T17:19:33Z</time>
      </trkpt>
      <trkpt lat="28.3204870" lon="-16.5137020">
        <ele>1892.9</ele>
        <time>2020-11-11T17:19:34Z</time>
      </trkpt>
      <trkpt lat="28.3204480" lon="-16.5137070">
        <ele>1893.9</ele>
        <time>2020-11-11T17:19:35Z</time>
      </trkpt>
      <trkpt lat="28.3204480" lon="-16.5137070">
        <ele>1893.9</ele>
        <time>2020-11-11T17:19:36Z</time>
      </trkpt>
      <trkpt lat="28.3204100" lon="-16.5137130">
        <ele>1893.9</ele>
        <time>2020-11-11T17:19:37Z</time>
      </trkpt>
      <trkpt lat="28.3204100" lon="-16.5137130">
        <ele>1893.9</ele>
        <time>2020-11-11T17:19:38Z</time>
      </trkpt>
      <trkpt lat="28.3203620" lon="-16.5137230">
        <ele>1893.9</ele>
        <time>2020-11-11T17:19:39Z</time>
      </trkpt>
      <trkpt lat="28.3203620" lon="-16.5137230">
        <ele>1893.9</ele>
        <time>2020-11-11T17:19:40Z</time>
      </trkpt>
      <trkpt lat="28.3203120" lon="-16.5137350">
        <ele>1893.9</ele>
        <time>2020-11-11T17:19:41Z</time>
      </trkpt>
      <trkpt lat="28.3203120" lon="-16.5137350">
        <ele>1894.9</ele>
        <time>2020-11-11T17:19:42Z</time>
      </trkpt>
      <trkpt lat="28.3202670" lon="-16.5137500">
        <ele>1894.9</ele>
        <time>2020-11-11T17:19:43Z</time>
      </trkpt>
      <trkpt lat="28.3202670" lon="-16.5137500">
        <ele>1894.9</ele>
        <time>2020-11-11T17:19:44Z</time>
      </trkpt>
      <trkpt lat="28.3202230" lon="-16.5137630">
        <ele>1894.9</ele>
        <time>2020-11-11T17:19:45Z</time>
      </trkpt>
      <trkpt lat="28.3202230" lon="-16.5137630">
        <ele>1894.9</ele>
        <time>2020-11-11T17:19:46Z</time>
      </trkpt>
      <trkpt lat="28.3201880" lon="-16.5137730">
        <ele>1894.9</ele>
        <time>2020-11-11T17:19:47Z</time>
      </trkpt>
      <trkpt lat="28.3201880" lon="-16.5137730">
        <ele>1894.9</ele>
        <time>2020-11-11T17:19:48Z</time>
      </trkpt>
      <trkpt lat="28.3201530" lon="-16.5137880">
        <ele>1894.9</ele>
        <time>2020-11-11T17:19:49Z</time>
      </trkpt>
      <trkpt lat="28.3201530" lon="-16.5137880">
        <ele>1895.9</ele>
        <time>2020-11-11T17:19:50Z</time>
      </trkpt>
      <trkpt lat="28.3201170" lon="-16.5137970">
        <ele>1895.9</ele>
        <time>2020-11-11T17:19:51Z</time>
      </trkpt>
      <trkpt lat="28.3201170" lon="-16.5137970">
        <ele>1895.9</ele>
        <time>2020-11-11T17:19:52Z</time>
      </trkpt>
      <trkpt lat="28.3200820" lon="-16.5137980">
        <ele>1895.9</ele>
        <time>2020-11-11T17:19:53Z</time>
      </trkpt>
      <trkpt lat="28.3200820" lon="-16.5137980">
        <ele>1895.9</ele>
        <time>2020-11-11T17:19:54Z</time>
      </trkpt>
      <trkpt lat="28.3200470" lon="-16.5137900">
        <ele>1895.9</ele>
        <time>2020-11-11T17:19:55Z</time>
      </trkpt>
      <trkpt lat="28.3200470" lon="-16.5137900">
        <ele>1896.9</ele>
        <time>2020-11-11T17:19:56Z</time>
      </trkpt>
      <trkpt lat="28.3200170" lon="-16.5137700">
        <ele>1896.9</ele>
        <time>2020-11-11T17:19:57Z</time>
      </trkpt>
      <trkpt lat="28.3200170" lon="-16.5137700">
        <ele>1896.9</ele>
        <time>2020-11-11T17:19:58Z</time>
      </trkpt>
      <trkpt lat="28.3199880" lon="-16.5137530">
        <ele>1896.9</ele>
        <time>2020-11-11T17:19:59Z</time>
      </trkpt>
      <trkpt lat="28.3199880" lon="-16.5137530">
        <ele>1896.9</ele>
        <time>2020-11-11T17:20:00Z</time>
      </trkpt>
      <trkpt lat="28.3199550" lon="-16.5137430">
        <ele>1896.9</ele>
        <time>2020-11-11T17:20:01Z</time>
      </trkpt>
      <trkpt lat="28.3199550" lon="-16.5137430">
        <ele>1897.9</ele>
        <time>2020-11-11T17:20:02Z</time>
      </trkpt>
      <trkpt lat="28.3199200" lon="-16.5137300">
        <ele>1897.9</ele>
        <time>2020-11-11T17:20:03Z</time>
      </trkpt>
      <trkpt lat="28.3199200" lon="-16.5137300">
        <ele>1897.9</ele>
        <time>2020-11-11T17:20:04Z</time>
      </trkpt>
      <trkpt lat="28.3198870" lon="-16.5137130">
        <ele>1897.9</ele>
        <time>2020-11-11T17:20:05Z</time>
      </trkpt>
      <trkpt lat="28.3198870" lon="-16.5137130">
        <ele>1898.9</ele>
        <time>2020-11-11T17:20:06Z</time>
      </trkpt>
      <trkpt lat="28.3198530" lon="-16.5136780">
        <ele>1898.9</ele>
        <time>2020-11-11T17:20:07Z</time>
      </trkpt>
      <trkpt lat="28.3198530" lon="-16.5136780">
        <ele>1898.9</ele>
        <time>2020-11-11T17:20:08Z</time>
      </trkpt>
      <trkpt lat="28.3198270" lon="-16.5136450">
        <ele>1898.9</ele>
        <time>2020-11-11T17:20:09Z</time>
      </trkpt>
      <trkpt lat="28.3198170" lon="-16.5136270">
        <ele>1899.9</ele>
        <time>2020-11-11T17:20:10Z</time>
      </trkpt>
      <trkpt lat="28.3198130" lon="-16.5136050">
        <ele>1899.9</ele>
        <time>2020-11-11T17:20:11Z</time>
      </trkpt>
      <trkpt lat="28.3198130" lon="-16.5136050">
        <ele>1899.9</ele>
        <time>2020-11-11T17:20:12Z</time>
      </trkpt>
      <trkpt lat="28.3198030" lon="-16.5135650">
        <ele>1899.9</ele>
        <time>2020-11-11T17:20:13Z</time>
      </trkpt>
      <trkpt lat="28.3198030" lon="-16.5135650">
        <ele>1899.9</ele>
        <time>2020-11-11T17:20:14Z</time>
      </trkpt>
      <trkpt lat="28.3198000" lon="-16.5135320">
        <ele>1899.9</ele>
        <time>2020-11-11T17:20:15Z</time>
      </trkpt>
      <trkpt lat="28.3198000" lon="-16.5135320">
        <ele>1900.9</ele>
        <time>2020-11-11T17:20:16Z</time>
      </trkpt>
      <trkpt lat="28.3198070" lon="-16.5134970">
        <ele>1900.9</ele>
        <time>2020-11-11T17:20:17Z</time>
      </trkpt>
      <trkpt lat="28.3198150" lon="-16.5134830">
        <ele>1900.9</ele>
        <time>2020-11-11T17:20:18Z</time>
      </trkpt>
      <trkpt lat="28.3198220" lon="-16.5134650">
        <ele>1900.9</ele>
        <time>2020-11-11T17:20:19Z</time>
      </trkpt>
      <trkpt lat="28.3198220" lon="-16.5134650">
        <ele>1901.9</ele>
        <time>2020-11-11T17:20:20Z</time>
      </trkpt>
      <trkpt lat="28.3198300" lon="-16.5134330">
        <ele>1901.9</ele>
        <time>2020-11-11T17:20:21Z</time>
      </trkpt>
      <trkpt lat="28.3198300" lon="-16.5134330">
        <ele>1901.9</ele>
        <time>2020-11-11T17:20:22Z</time>
      </trkpt>
      <trkpt lat="28.3198420" lon="-16.5134020">
        <ele>1901.9</ele>
        <time>2020-11-11T17:20:23Z</time>
      </trkpt>
      <trkpt lat="28.3198420" lon="-16.5134020">
        <ele>1901.9</ele>
        <time>2020-11-11T17:20:24Z</time>
      </trkpt>
      <trkpt lat="28.3198480" lon="-16.5133620">
        <ele>1901.9</ele>
        <time>2020-11-11T17:20:25Z</time>
      </trkpt>
      <trkpt lat="28.3198480" lon="-16.5133620">
        <ele>1901.9</ele>
        <time>2020-11-11T17:20:26Z</time>
      </trkpt>
      <trkpt lat="28.3198580" lon="-16.5133250">
        <ele>1902.9</ele>
        <time>2020-11-11T17:20:27Z</time>
      </trkpt>
      <trkpt lat="28.3198580" lon="-16.5133250">
        <ele>1902.9</ele>
        <time>2020-11-11T17:20:28Z</time>
      </trkpt>
      <trkpt lat="28.3198700" lon="-16.5132870">
        <ele>1902.9</ele>
        <time>2020-11-11T17:20:29Z</time>
      </trkpt>
      <trkpt lat="28.3198750" lon="-16.5132680">
        <ele>1902.9</ele>
        <time>2020-11-11T17:20:30Z</time>
      </trkpt>
      <trkpt lat="28.3198750" lon="-16.5132680">
        <ele>1903.9</ele>
        <time>2020-11-11T17:20:31Z</time>
      </trkpt>
      <trkpt lat="28.3198780" lon="-16.5132350">
        <ele>1903.9</ele>
        <time>2020-11-11T17:20:32Z</time>
      </trkpt>
      <trkpt lat="28.3198780" lon="-16.5132350">
        <ele>1903.9</ele>
        <time>2020-11-11T17:20:33Z</time>
      </trkpt>
      <trkpt lat="28.3198850" lon="-16.5131980">
        <ele>1903.9</ele>
        <time>2020-11-11T17:20:34Z</time>
      </trkpt>
      <trkpt lat="28.3198850" lon="-16.5131980">
        <ele>1903.9</ele>
        <time>2020-11-11T17:20:35Z</time>
      </trkpt>
      <trkpt lat="28.3198950" lon="-16.5131670">
        <ele>1903.9</ele>
        <time>2020-11-11T17:20:36Z</time>
      </trkpt>
      <trkpt lat="28.3199000" lon="-16.5131500">
        <ele>1903.9</ele>
        <time>2020-11-11T17:20:37Z</time>
      </trkpt>
      <trkpt lat="28.3199000" lon="-16.5131500">
        <ele>1903.9</ele>
        <time>2020-11-11T17:20:38Z</time>
      </trkpt>
      <trkpt lat="28.3199130" lon="-16.5131120">
        <ele>1903.9</ele>
        <time>2020-11-11T17:20:39Z</time>
      </trkpt>
      <trkpt lat="28.3199130" lon="-16.5131120">
        <ele>1903.9</ele>
        <time>2020-11-11T17:20:40Z</time>
      </trkpt>
      <trkpt lat="28.3199220" lon="-16.5130720">
        <ele>1904.9</ele>
        <time>2020-11-11T17:20:41Z</time>
      </trkpt>
      <trkpt lat="28.3199220" lon="-16.5130720">
        <ele>1904.9</ele>
        <time>2020-11-11T17:20:42Z</time>
      </trkpt>
      <trkpt lat="28.3199350" lon="-16.5130270">
        <ele>1904.9</ele>
        <time>2020-11-11T17:20:43Z</time>
      </trkpt>
      <trkpt lat="28.3199350" lon="-16.5130270">
        <ele>1904.9</ele>
        <time>2020-11-11T17:20:44Z</time>
      </trkpt>
      <trkpt lat="28.3199330" lon="-16.5129820">
        <ele>1904.9</ele>
        <time>2020-11-11T17:20:45Z</time>
      </trkpt>
      <trkpt lat="28.3199370" lon="-16.5129620">
        <ele>1905.9</ele>
        <time>2020-11-11T17:20:46Z</time>
      </trkpt>
      <trkpt lat="28.3199370" lon="-16.5129620">
        <ele>1905.9</ele>
        <time>2020-11-11T17:20:47Z</time>
      </trkpt>
      <trkpt lat="28.3199450" lon="-16.5129200">
        <ele>1905.9</ele>
        <time>2020-11-11T17:20:48Z</time>
      </trkpt>
      <trkpt lat="28.3199520" lon="-16.5128980">
        <ele>1905.9</ele>
        <time>2020-11-11T17:20:49Z</time>
      </trkpt>
      <trkpt lat="28.3199600" lon="-16.5128770">
        <ele>1905.9</ele>
        <time>2020-11-11T17:20:50Z</time>
      </trkpt>
      <trkpt lat="28.3199600" lon="-16.5128770">
        <ele>1905.9</ele>
        <time>2020-11-11T17:20:51Z</time>
      </trkpt>
      <trkpt lat="28.3199830" lon="-16.5128330">
        <ele>1905.9</ele>
        <time>2020-11-11T17:20:52Z</time>
      </trkpt>
      <trkpt lat="28.3199930" lon="-16.5128080">
        <ele>1905.9</ele>
        <time>2020-11-11T17:20:53Z</time>
      </trkpt>
      <trkpt lat="28.3199930" lon="-16.5128080">
        <ele>1905.9</ele>
        <time>2020-11-11T17:20:54Z</time>
      </trkpt>
      <trkpt lat="28.3200180" lon="-16.5127680">
        <ele>1905.9</ele>
        <time>2020-11-11T17:20:55Z</time>
      </trkpt>
      <trkpt lat="28.3200180" lon="-16.5127680">
        <ele>1905.9</ele>
        <time>2020-11-11T17:20:56Z</time>
      </trkpt>
      <trkpt lat="28.3200430" lon="-16.5127330">
        <ele>1905.9</ele>
        <time>2020-11-11T17:20:57Z</time>
      </trkpt>
      <trkpt lat="28.3200530" lon="-16.5127170">
        <ele>1905.9</ele>
        <time>2020-11-11T17:20:58Z</time>
      </trkpt>
      <trkpt lat="28.3200630" lon="-16.5127000">
        <ele>1905.9</ele>
        <time>2020-11-11T17:20:59Z</time>
      </trkpt>
      <trkpt lat="28.3200630" lon="-16.5127000">
        <ele>1905.9</ele>
        <time>2020-11-11T17:21:00Z</time>
      </trkpt>
      <trkpt lat="28.3200830" lon="-16.5126700">
        <ele>1905.9</ele>
        <time>2020-11-11T17:21:01Z</time>
      </trkpt>
      <trkpt lat="28.3200830" lon="-16.5126700">
        <ele>1905.9</ele>
        <time>2020-11-11T17:21:02Z</time>
      </trkpt>
      <trkpt lat="28.3201050" lon="-16.5126420">
        <ele>1905.9</ele>
        <time>2020-11-11T17:21:03Z</time>
      </trkpt>
      <trkpt lat="28.3201150" lon="-16.5126280">
        <ele>1906.9</ele>
        <time>2020-11-11T17:21:04Z</time>
      </trkpt>
      <trkpt lat="28.3201150" lon="-16.5126280">
        <ele>1906.9</ele>
        <time>2020-11-11T17:21:05Z</time>
      </trkpt>
      <trkpt lat="28.3201370" lon="-16.5126050">
        <ele>1906.9</ele>
        <time>2020-11-11T17:21:06Z</time>
      </trkpt>
      <trkpt lat="28.3201370" lon="-16.5126050">
        <ele>1906.9</ele>
        <time>2020-11-11T17:21:07Z</time>
      </trkpt>
      <trkpt lat="28.3201520" lon="-16.5125670">
        <ele>1906.9</ele>
        <time>2020-11-11T17:21:08Z</time>
      </trkpt>
      <trkpt lat="28.3201520" lon="-16.5125670">
        <ele>1906.9</ele>
        <time>2020-11-11T17:21:09Z</time>
      </trkpt>
      <trkpt lat="28.3201700" lon="-16.5125270">
        <ele>1906.9</ele>
        <time>2020-11-11T17:21:10Z</time>
      </trkpt>
      <trkpt lat="28.3201700" lon="-16.5125270">
        <ele>1906.9</ele>
        <time>2020-11-11T17:21:11Z</time>
      </trkpt>
      <trkpt lat="28.3201750" lon="-16.5124800">
        <ele>1906.9</ele>
        <time>2020-11-11T17:21:12Z</time>
      </trkpt>
      <trkpt lat="28.3201750" lon="-16.5124580">
        <ele>1906.9</ele>
        <time>2020-11-11T17:21:13Z</time>
      </trkpt>
      <trkpt lat="28.3201750" lon="-16.5124580">
        <ele>1907.9</ele>
        <time>2020-11-11T17:21:14Z</time>
      </trkpt>
      <trkpt lat="28.3201670" lon="-16.5124120">
        <ele>1907.9</ele>
        <time>2020-11-11T17:21:15Z</time>
      </trkpt>
      <trkpt lat="28.3201670" lon="-16.5124120">
        <ele>1907.9</ele>
        <time>2020-11-11T17:21:16Z</time>
      </trkpt>
      <trkpt lat="28.3201570" lon="-16.5123630">
        <ele>1907.9</ele>
        <time>2020-11-11T17:21:17Z</time>
      </trkpt>
      <trkpt lat="28.3201630" lon="-16.5123380">
        <ele>1907.9</ele>
        <time>2020-11-11T17:21:18Z</time>
      </trkpt>
      <trkpt lat="28.3201680" lon="-16.5123130">
        <ele>1907.9</ele>
        <time>2020-11-11T17:21:19Z</time>
      </trkpt>
      <trkpt lat="28.3201680" lon="-16.5123130">
        <ele>1908.9</ele>
        <time>2020-11-11T17:21:20Z</time>
      </trkpt>
      <trkpt lat="28.3201700" lon="-16.5122770">
        <ele>1908.9</ele>
        <time>2020-11-11T17:21:21Z</time>
      </trkpt>
      <trkpt lat="28.3201700" lon="-16.5122770">
        <ele>1908.9</ele>
        <time>2020-11-11T17:21:22Z</time>
      </trkpt>
      <trkpt lat="28.3201700" lon="-16.5122320">
        <ele>1908.9</ele>
        <time>2020-11-11T17:21:23Z</time>
      </trkpt>
      <trkpt lat="28.3201720" lon="-16.5122080">
        <ele>1908.9</ele>
        <time>2020-11-11T17:21:24Z</time>
      </trkpt>
      <trkpt lat="28.3201700" lon="-16.5121870">
        <ele>1908.9</ele>
        <time>2020-11-11T17:21:25Z</time>
      </trkpt>
      <trkpt lat="28.3201700" lon="-16.5121870">
        <ele>1909.9</ele>
        <time>2020-11-11T17:21:26Z</time>
      </trkpt>
      <trkpt lat="28.3201680" lon="-16.5121450">
        <ele>1909.9</ele>
        <time>2020-11-11T17:21:27Z</time>
      </trkpt>
      <trkpt lat="28.3201680" lon="-16.5121230">
        <ele>1909.9</ele>
        <time>2020-11-11T17:21:28Z</time>
      </trkpt>
      <trkpt lat="28.3201680" lon="-16.5121230">
        <ele>1909.9</ele>
        <time>2020-11-11T17:21:29Z</time>
      </trkpt>
      <trkpt lat="28.3201670" lon="-16.5120770">
        <ele>1909.9</ele>
        <time>2020-11-11T17:21:30Z</time>
      </trkpt>
      <trkpt lat="28.3201670" lon="-16.5120570">
        <ele>1909.9</ele>
        <time>2020-11-11T17:21:31Z</time>
      </trkpt>
      <trkpt lat="28.3201670" lon="-16.5120570">
        <ele>1910.9</ele>
        <time>2020-11-11T17:21:32Z</time>
      </trkpt>
      <trkpt lat="28.3201700" lon="-16.5120170">
        <ele>1910.9</ele>
        <time>2020-11-11T17:21:33Z</time>
      </trkpt>
      <trkpt lat="28.3201700" lon="-16.5120170">
        <ele>1910.9</ele>
        <time>2020-11-11T17:21:34Z</time>
      </trkpt>
      <trkpt lat="28.3201720" lon="-16.5119750">
        <ele>1910.9</ele>
        <time>2020-11-11T17:21:35Z</time>
      </trkpt>
      <trkpt lat="28.3201720" lon="-16.5119750">
        <ele>1910.9</ele>
        <time>2020-11-11T17:21:36Z</time>
      </trkpt>
      <trkpt lat="28.3201780" lon="-16.5119380">
        <ele>1910.9</ele>
        <time>2020-11-11T17:21:37Z</time>
      </trkpt>
      <trkpt lat="28.3201780" lon="-16.5119380">
        <ele>1910.9</ele>
        <time>2020-11-11T17:21:38Z</time>
      </trkpt>
      <trkpt lat="28.3201720" lon="-16.5119000">
        <ele>1910.9</ele>
        <time>2020-11-11T17:21:39Z</time>
      </trkpt>
      <trkpt lat="28.3201680" lon="-16.5118820">
        <ele>1910.9</ele>
        <time>2020-11-11T17:21:40Z</time>
      </trkpt>
      <trkpt lat="28.3201680" lon="-16.5118600">
        <ele>1910.9</ele>
        <time>2020-11-11T17:21:41Z</time>
      </trkpt>
      <trkpt lat="28.3201680" lon="-16.5118600">
        <ele>1910.9</ele>
        <time>2020-11-11T17:21:42Z</time>
      </trkpt>
      <trkpt lat="28.3201700" lon="-16.5118170">
        <ele>1910.9</ele>
        <time>2020-11-11T17:21:43Z</time>
      </trkpt>
      <trkpt lat="28.3201700" lon="-16.5118170">
        <ele>1910.9</ele>
        <time>2020-11-11T17:21:44Z</time>
      </trkpt>
      <trkpt lat="28.3201700" lon="-16.5117750">
        <ele>1910.9</ele>
        <time>2020-11-11T17:21:45Z</time>
      </trkpt>
      <trkpt lat="28.3201700" lon="-16.5117750">
        <ele>1910.9</ele>
        <time>2020-11-11T17:21:46Z</time>
      </trkpt>
      <trkpt lat="28.3201670" lon="-16.5117230">
        <ele>1911.9</ele>
        <time>2020-11-11T17:21:47Z</time>
      </trkpt>
      <trkpt lat="28.3201670" lon="-16.5117230">
        <ele>1911.9</ele>
        <time>2020-11-11T17:21:48Z</time>
      </trkpt>
      <trkpt lat="28.3201650" lon="-16.5116820">
        <ele>1911.9</ele>
        <time>2020-11-11T17:21:49Z</time>
      </trkpt>
      <trkpt lat="28.3201670" lon="-16.5116630">
        <ele>1911.9</ele>
        <time>2020-11-11T17:21:50Z</time>
      </trkpt>
      <trkpt lat="28.3201670" lon="-16.5116630">
        <ele>1911.9</ele>
        <time>2020-11-11T17:21:51Z</time>
      </trkpt>
      <trkpt lat="28.3201770" lon="-16.5116300">
        <ele>1911.9</ele>
        <time>2020-11-11T17:21:52Z</time>
      </trkpt>
      <trkpt lat="28.3201820" lon="-16.5116120">
        <ele>1911.9</ele>
        <time>2020-11-11T17:21:53Z</time>
      </trkpt>
      <trkpt lat="28.3201820" lon="-16.5116120">
        <ele>1911.9</ele>
        <time>2020-11-11T17:21:54Z</time>
      </trkpt>
      <trkpt lat="28.3201980" lon="-16.5115750">
        <ele>1912.9</ele>
        <time>2020-11-11T17:21:55Z</time>
      </trkpt>
      <trkpt lat="28.3201980" lon="-16.5115750">
        <ele>1912.9</ele>
        <time>2020-11-11T17:21:56Z</time>
      </trkpt>
      <trkpt lat="28.3202180" lon="-16.5115400">
        <ele>1912.9</ele>
        <time>2020-11-11T17:21:57Z</time>
      </trkpt>
      <trkpt lat="28.3202180" lon="-16.5115400">
        <ele>1912.9</ele>
        <time>2020-11-11T17:21:58Z</time>
      </trkpt>
      <trkpt lat="28.3202430" lon="-16.5115130">
        <ele>1912.9</ele>
        <time>2020-11-11T17:21:59Z</time>
      </trkpt>
      <trkpt lat="28.3202430" lon="-16.5115130">
        <ele>1912.9</ele>
        <time>2020-11-11T17:22:00Z</time>
      </trkpt>
      <trkpt lat="28.3202680" lon="-16.5114930">
        <ele>1912.9</ele>
        <time>2020-11-11T17:22:01Z</time>
      </trkpt>
      <trkpt lat="28.3202680" lon="-16.5114930">
        <ele>1912.9</ele>
        <time>2020-11-11T17:22:02Z</time>
      </trkpt>
      <trkpt lat="28.3202880" lon="-16.5114670">
        <ele>1913.9</ele>
        <time>2020-11-11T17:22:03Z</time>
      </trkpt>
      <trkpt lat="28.3202880" lon="-16.5114670">
        <ele>1913.9</ele>
        <time>2020-11-11T17:22:04Z</time>
      </trkpt>
      <trkpt lat="28.3203030" lon="-16.5114370">
        <ele>1913.9</ele>
        <time>2020-11-11T17:22:05Z</time>
      </trkpt>
      <trkpt lat="28.3203030" lon="-16.5114370">
        <ele>1913.9</ele>
        <time>2020-11-11T17:22:06Z</time>
      </trkpt>
      <trkpt lat="28.3203230" lon="-16.5114130">
        <ele>1913.9</ele>
        <time>2020-11-11T17:22:07Z</time>
      </trkpt>
      <trkpt lat="28.3203230" lon="-16.5114130">
        <ele>1914.9</ele>
        <time>2020-11-11T17:22:08Z</time>
      </trkpt>
      <trkpt lat="28.3203430" lon="-16.5113850">
        <ele>1914.9</ele>
        <time>2020-11-11T17:22:09Z</time>
      </trkpt>
      <trkpt lat="28.3203520" lon="-16.5113700">
        <ele>1914.9</ele>
        <time>2020-11-11T17:22:10Z</time>
      </trkpt>
      <trkpt lat="28.3203520" lon="-16.5113700">
        <ele>1914.9</ele>
        <time>2020-11-11T17:22:11Z</time>
      </trkpt>
      <trkpt lat="28.3203630" lon="-16.5113400">
        <ele>1914.9</ele>
        <time>2020-11-11T17:22:12Z</time>
      </trkpt>
      <trkpt lat="28.3203680" lon="-16.5113250">
        <ele>1914.9</ele>
        <time>2020-11-11T17:22:13Z</time>
      </trkpt>
      <trkpt lat="28.3203680" lon="-16.5113250">
        <ele>1914.9</ele>
        <time>2020-11-11T17:22:14Z</time>
      </trkpt>
      <trkpt lat="28.3203770" lon="-16.5112880">
        <ele>1914.9</ele>
        <time>2020-11-11T17:22:15Z</time>
      </trkpt>
      <trkpt lat="28.3203770" lon="-16.5112880">
        <ele>1914.9</ele>
        <time>2020-11-11T17:22:16Z</time>
      </trkpt>
      <trkpt lat="28.3203730" lon="-16.5112530">
        <ele>1914.9</ele>
        <time>2020-11-11T17:22:17Z</time>
      </trkpt>
      <trkpt lat="28.3203730" lon="-16.5112530">
        <ele>1915.9</ele>
        <time>2020-11-11T17:22:18Z</time>
      </trkpt>
      <trkpt lat="28.3203580" lon="-16.5112250">
        <ele>1915.9</ele>
        <time>2020-11-11T17:22:19Z</time>
      </trkpt>
      <trkpt lat="28.3203580" lon="-16.5112250">
        <ele>1915.9</ele>
        <time>2020-11-11T17:22:20Z</time>
      </trkpt>
      <trkpt lat="28.3203480" lon="-16.5111930">
        <ele>1915.9</ele>
        <time>2020-11-11T17:22:21Z</time>
      </trkpt>
      <trkpt lat="28.3203480" lon="-16.5111930">
        <ele>1915.9</ele>
        <time>2020-11-11T17:22:22Z</time>
      </trkpt>
      <trkpt lat="28.3203270" lon="-16.5111720">
        <ele>1915.9</ele>
        <time>2020-11-11T17:22:23Z</time>
      </trkpt>
      <trkpt lat="28.3203270" lon="-16.5111720">
        <ele>1916.9</ele>
        <time>2020-11-11T17:22:24Z</time>
      </trkpt>
      <trkpt lat="28.3202980" lon="-16.5111580">
        <ele>1916.9</ele>
        <time>2020-11-11T17:22:25Z</time>
      </trkpt>
      <trkpt lat="28.3202980" lon="-16.5111580">
        <ele>1916.9</ele>
        <time>2020-11-11T17:22:26Z</time>
      </trkpt>
      <trkpt lat="28.3202600" lon="-16.5111580">
        <ele>1916.9</ele>
        <time>2020-11-11T17:22:27Z</time>
      </trkpt>
      <trkpt lat="28.3202600" lon="-16.5111580">
        <ele>1916.9</ele>
        <time>2020-11-11T17:22:28Z</time>
      </trkpt>
      <trkpt lat="28.3202280" lon="-16.5111700">
        <ele>1916.9</ele>
        <time>2020-11-11T17:22:29Z</time>
      </trkpt>
      <trkpt lat="28.3202280" lon="-16.5111700">
        <ele>1916.9</ele>
        <time>2020-11-11T17:22:30Z</time>
      </trkpt>
      <trkpt lat="28.3201950" lon="-16.5111780">
        <ele>1916.9</ele>
        <time>2020-11-11T17:22:31Z</time>
      </trkpt>
      <trkpt lat="28.3201950" lon="-16.5111780">
        <ele>1917.9</ele>
        <time>2020-11-11T17:22:32Z</time>
      </trkpt>
      <trkpt lat="28.3201630" lon="-16.5111920">
        <ele>1917.9</ele>
        <time>2020-11-11T17:22:33Z</time>
      </trkpt>
      <trkpt lat="28.3201630" lon="-16.5111920">
        <ele>1917.9</ele>
        <time>2020-11-11T17:22:34Z</time>
      </trkpt>
      <trkpt lat="28.3201280" lon="-16.5112070">
        <ele>1917.9</ele>
        <time>2020-11-11T17:22:35Z</time>
      </trkpt>
      <trkpt lat="28.3201280" lon="-16.5112070">
        <ele>1917.9</ele>
        <time>2020-11-11T17:22:36Z</time>
      </trkpt>
      <trkpt lat="28.3200950" lon="-16.5112200">
        <ele>1917.9</ele>
        <time>2020-11-11T17:22:37Z</time>
      </trkpt>
      <trkpt lat="28.3200950" lon="-16.5112200">
        <ele>1918.9</ele>
        <time>2020-11-11T17:22:38Z</time>
      </trkpt>
      <trkpt lat="28.3200600" lon="-16.5112300">
        <ele>1918.9</ele>
        <time>2020-11-11T17:22:39Z</time>
      </trkpt>
      <trkpt lat="28.3200430" lon="-16.5112370">
        <ele>1918.9</ele>
        <time>2020-11-11T17:22:40Z</time>
      </trkpt>
      <trkpt lat="28.3200430" lon="-16.5112370">
        <ele>1918.9</ele>
        <time>2020-11-11T17:22:41Z</time>
      </trkpt>
      <trkpt lat="28.3200120" lon="-16.5112530">
        <ele>1918.9</ele>
        <time>2020-11-11T17:22:42Z</time>
      </trkpt>
      <trkpt lat="28.3199950" lon="-16.5112580">
        <ele>1918.9</ele>
        <time>2020-11-11T17:22:43Z</time>
      </trkpt>
      <trkpt lat="28.3199950" lon="-16.5112580">
        <ele>1918.9</ele>
        <time>2020-11-11T17:22:44Z</time>
      </trkpt>
      <trkpt lat="28.3199650" lon="-16.5112670">
        <ele>1918.9</ele>
        <time>2020-11-11T17:22:45Z</time>
      </trkpt>
      <trkpt lat="28.3199650" lon="-16.5112670">
        <ele>1919.9</ele>
        <time>2020-11-11T17:22:46Z</time>
      </trkpt>
      <trkpt lat="28.3199280" lon="-16.5112780">
        <ele>1919.9</ele>
        <time>2020-11-11T17:22:47Z</time>
      </trkpt>
      <trkpt lat="28.3199070" lon="-16.5112820">
        <ele>1919.9</ele>
        <time>2020-11-11T17:22:48Z</time>
      </trkpt>
      <trkpt lat="28.3198830" lon="-16.5112820">
        <ele>1919.9</ele>
        <time>2020-11-11T17:22:49Z</time>
      </trkpt>
      <trkpt lat="28.3198830" lon="-16.5112820">
        <ele>1919.9</ele>
        <time>2020-11-11T17:22:50Z</time>
      </trkpt>
      <trkpt lat="28.3198450" lon="-16.5112800">
        <ele>1919.9</ele>
        <time>2020-11-11T17:22:51Z</time>
      </trkpt>
      <trkpt lat="28.3198450" lon="-16.5112800">
        <ele>1919.9</ele>
        <time>2020-11-11T17:22:52Z</time>
      </trkpt>
      <trkpt lat="28.3198070" lon="-16.5112900">
        <ele>1919.9</ele>
        <time>2020-11-11T17:22:53Z</time>
      </trkpt>
      <trkpt lat="28.3198070" lon="-16.5112900">
        <ele>1919.9</ele>
        <time>2020-11-11T17:22:54Z</time>
      </trkpt>
      <trkpt lat="28.3197770" lon="-16.5113050">
        <ele>1919.9</ele>
        <time>2020-11-11T17:22:55Z</time>
      </trkpt>
      <trkpt lat="28.3197770" lon="-16.5113050">
        <ele>1919.9</ele>
        <time>2020-11-11T17:22:56Z</time>
      </trkpt>
      <trkpt lat="28.3197430" lon="-16.5113200">
        <ele>1919.9</ele>
        <time>2020-11-11T17:22:57Z</time>
      </trkpt>
      <trkpt lat="28.3197270" lon="-16.5113250">
        <ele>1919.9</ele>
        <time>2020-11-11T17:22:58Z</time>
      </trkpt>
      <trkpt lat="28.3197270" lon="-16.5113250">
        <ele>1919.9</ele>
        <time>2020-11-11T17:22:59Z</time>
      </trkpt>
      <trkpt lat="28.3196920" lon="-16.5113370">
        <ele>1921.9</ele>
        <time>2020-11-11T17:23:00Z</time>
      </trkpt>
      <trkpt lat="28.3196770" lon="-16.5113420">
        <ele>1921.9</ele>
        <time>2020-11-11T17:23:01Z</time>
      </trkpt>
      <trkpt lat="28.3196770" lon="-16.5113420">
        <ele>1921.9</ele>
        <time>2020-11-11T17:23:02Z</time>
      </trkpt>
      <trkpt lat="28.3196430" lon="-16.5113480">
        <ele>1921.9</ele>
        <time>2020-11-11T17:23:03Z</time>
      </trkpt>
      <trkpt lat="28.3196280" lon="-16.5113530">
        <ele>1921.9</ele>
        <time>2020-11-11T17:23:04Z</time>
      </trkpt>
      <trkpt lat="28.3196280" lon="-16.5113530">
        <ele>1921.9</ele>
        <time>2020-11-11T17:23:05Z</time>
      </trkpt>
      <trkpt lat="28.3195970" lon="-16.5113630">
        <ele>1922.9</ele>
        <time>2020-11-11T17:23:06Z</time>
      </trkpt>
      <trkpt lat="28.3195800" lon="-16.5113720">
        <ele>1922.9</ele>
        <time>2020-11-11T17:23:07Z</time>
      </trkpt>
      <trkpt lat="28.3195800" lon="-16.5113720">
        <ele>1922.9</ele>
        <time>2020-11-11T17:23:08Z</time>
      </trkpt>
      <trkpt lat="28.3195380" lon="-16.5113820">
        <ele>1922.9</ele>
        <time>2020-11-11T17:23:09Z</time>
      </trkpt>
      <trkpt lat="28.3195380" lon="-16.5113820">
        <ele>1922.9</ele>
        <time>2020-11-11T17:23:10Z</time>
      </trkpt>
      <trkpt lat="28.3195000" lon="-16.5113970">
        <ele>1922.9</ele>
        <time>2020-11-11T17:23:11Z</time>
      </trkpt>
      <trkpt lat="28.3195000" lon="-16.5113970">
        <ele>1922.9</ele>
        <time>2020-11-11T17:23:12Z</time>
      </trkpt>
      <trkpt lat="28.3194650" lon="-16.5114100">
        <ele>1922.9</ele>
        <time>2020-11-11T17:23:13Z</time>
      </trkpt>
      <trkpt lat="28.3194650" lon="-16.5114100">
        <ele>1922.9</ele>
        <time>2020-11-11T17:23:14Z</time>
      </trkpt>
      <trkpt lat="28.3194320" lon="-16.5114220">
        <ele>1922.9</ele>
        <time>2020-11-11T17:23:15Z</time>
      </trkpt>
      <trkpt lat="28.3194120" lon="-16.5114300">
        <ele>1922.9</ele>
        <time>2020-11-11T17:23:16Z</time>
      </trkpt>
      <trkpt lat="28.3193930" lon="-16.5114380">
        <ele>1922.9</ele>
        <time>2020-11-11T17:23:17Z</time>
      </trkpt>
      <trkpt lat="28.3193930" lon="-16.5114380">
        <ele>1922.9</ele>
        <time>2020-11-11T17:23:18Z</time>
      </trkpt>
      <trkpt lat="28.3193620" lon="-16.5114580">
        <ele>1922.9</ele>
        <time>2020-11-11T17:23:19Z</time>
      </trkpt>
      <trkpt lat="28.3193620" lon="-16.5114580">
        <ele>1923.9</ele>
        <time>2020-11-11T17:23:20Z</time>
      </trkpt>
      <trkpt lat="28.3193320" lon="-16.5114730">
        <ele>1923.9</ele>
        <time>2020-11-11T17:23:21Z</time>
      </trkpt>
      <trkpt lat="28.3193320" lon="-16.5114730">
        <ele>1923.9</ele>
        <time>2020-11-11T17:23:22Z</time>
      </trkpt>
      <trkpt lat="28.3192920" lon="-16.5114900">
        <ele>1923.9</ele>
        <time>2020-11-11T17:23:23Z</time>
      </trkpt>
      <trkpt lat="28.3192920" lon="-16.5114900">
        <ele>1923.9</ele>
        <time>2020-11-11T17:23:24Z</time>
      </trkpt>
      <trkpt lat="28.3192570" lon="-16.5115130">
        <ele>1923.9</ele>
        <time>2020-11-11T17:23:25Z</time>
      </trkpt>
      <trkpt lat="28.3192570" lon="-16.5115130">
        <ele>1923.9</ele>
        <time>2020-11-11T17:23:26Z</time>
      </trkpt>
      <trkpt lat="28.3192230" lon="-16.5115400">
        <ele>1924.9</ele>
        <time>2020-11-11T17:23:27Z</time>
      </trkpt>
      <trkpt lat="28.3192080" lon="-16.5115530">
        <ele>1924.9</ele>
        <time>2020-11-11T17:23:28Z</time>
      </trkpt>
      <trkpt lat="28.3191930" lon="-16.5115650">
        <ele>1924.9</ele>
        <time>2020-11-11T17:23:29Z</time>
      </trkpt>
      <trkpt lat="28.3191930" lon="-16.5115650">
        <ele>1924.9</ele>
        <time>2020-11-11T17:23:30Z</time>
      </trkpt>
      <trkpt lat="28.3191630" lon="-16.5115950">
        <ele>1924.9</ele>
        <time>2020-11-11T17:23:31Z</time>
      </trkpt>
      <trkpt lat="28.3191630" lon="-16.5115950">
        <ele>1924.9</ele>
        <time>2020-11-11T17:23:32Z</time>
      </trkpt>
      <trkpt lat="28.3191380" lon="-16.5116280">
        <ele>1925.9</ele>
        <time>2020-11-11T17:23:33Z</time>
      </trkpt>
      <trkpt lat="28.3191380" lon="-16.5116280">
        <ele>1925.9</ele>
        <time>2020-11-11T17:23:34Z</time>
      </trkpt>
      <trkpt lat="28.3191170" lon="-16.5116630">
        <ele>1925.9</ele>
        <time>2020-11-11T17:23:35Z</time>
      </trkpt>
      <trkpt lat="28.3191050" lon="-16.5116820">
        <ele>1925.9</ele>
        <time>2020-11-11T17:23:36Z</time>
      </trkpt>
      <trkpt lat="28.3190930" lon="-16.5116980">
        <ele>1925.9</ele>
        <time>2020-11-11T17:23:37Z</time>
      </trkpt>
      <trkpt lat="28.3190930" lon="-16.5116980">
        <ele>1925.9</ele>
        <time>2020-11-11T17:23:38Z</time>
      </trkpt>
      <trkpt lat="28.3190750" lon="-16.5117370">
        <ele>1925.9</ele>
        <time>2020-11-11T17:23:39Z</time>
      </trkpt>
      <trkpt lat="28.3190750" lon="-16.5117370">
        <ele>1925.9</ele>
        <time>2020-11-11T17:23:40Z</time>
      </trkpt>
      <trkpt lat="28.3190530" lon="-16.5117730">
        <ele>1925.9</ele>
        <time>2020-11-11T17:23:41Z</time>
      </trkpt>
      <trkpt lat="28.3190530" lon="-16.5117730">
        <ele>1925.9</ele>
        <time>2020-11-11T17:23:42Z</time>
      </trkpt>
      <trkpt lat="28.3190330" lon="-16.5118130">
        <ele>1926.9</ele>
        <time>2020-11-11T17:23:43Z</time>
      </trkpt>
      <trkpt lat="28.3190230" lon="-16.5118320">
        <ele>1926.9</ele>
        <time>2020-11-11T17:23:44Z</time>
      </trkpt>
      <trkpt lat="28.3190230" lon="-16.5118320">
        <ele>1926.9</ele>
        <time>2020-11-11T17:23:45Z</time>
      </trkpt>
      <trkpt lat="28.3190050" lon="-16.5118630">
        <ele>1926.9</ele>
        <time>2020-11-11T17:23:46Z</time>
      </trkpt>
      <trkpt lat="28.3189980" lon="-16.5118800">
        <ele>1926.9</ele>
        <time>2020-11-11T17:23:47Z</time>
      </trkpt>
      <trkpt lat="28.3189980" lon="-16.5118800">
        <ele>1926.9</ele>
        <time>2020-11-11T17:23:48Z</time>
      </trkpt>
      <trkpt lat="28.3189850" lon="-16.5119200">
        <ele>1926.9</ele>
        <time>2020-11-11T17:23:49Z</time>
      </trkpt>
      <trkpt lat="28.3189850" lon="-16.5119200">
        <ele>1926.9</ele>
        <time>2020-11-11T17:23:50Z</time>
      </trkpt>
      <trkpt lat="28.3189630" lon="-16.5119620">
        <ele>1927.9</ele>
        <time>2020-11-11T17:23:51Z</time>
      </trkpt>
      <trkpt lat="28.3189630" lon="-16.5119620">
        <ele>1927.9</ele>
        <time>2020-11-11T17:23:52Z</time>
      </trkpt>
      <trkpt lat="28.3189370" lon="-16.5119950">
        <ele>1927.9</ele>
        <time>2020-11-11T17:23:53Z</time>
      </trkpt>
      <trkpt lat="28.3189370" lon="-16.5119950">
        <ele>1927.9</ele>
        <time>2020-11-11T17:23:54Z</time>
      </trkpt>
      <trkpt lat="28.3189030" lon="-16.5120220">
        <ele>1927.9</ele>
        <time>2020-11-11T17:23:55Z</time>
      </trkpt>
      <trkpt lat="28.3189030" lon="-16.5120220">
        <ele>1927.9</ele>
        <time>2020-11-11T17:23:56Z</time>
      </trkpt>
      <trkpt lat="28.3188730" lon="-16.5120500">
        <ele>1927.9</ele>
        <time>2020-11-11T17:23:57Z</time>
      </trkpt>
      <trkpt lat="28.3188580" lon="-16.5120630">
        <ele>1928.9</ele>
        <time>2020-11-11T17:23:58Z</time>
      </trkpt>
      <trkpt lat="28.3188580" lon="-16.5120630">
        <ele>1928.9</ele>
        <time>2020-11-11T17:23:59Z</time>
      </trkpt>
      <trkpt lat="28.3188280" lon="-16.5120920">
        <ele>1928.9</ele>
        <time>2020-11-11T17:24:00Z</time>
      </trkpt>
      <trkpt lat="28.3188120" lon="-16.5121080">
        <ele>1929.9</ele>
        <time>2020-11-11T17:24:01Z</time>
      </trkpt>
      <trkpt lat="28.3188120" lon="-16.5121080">
        <ele>1929.9</ele>
        <time>2020-11-11T17:24:02Z</time>
      </trkpt>
      <trkpt lat="28.3187820" lon="-16.5121420">
        <ele>1929.9</ele>
        <time>2020-11-11T17:24:03Z</time>
      </trkpt>
      <trkpt lat="28.3187820" lon="-16.5121420">
        <ele>1929.9</ele>
        <time>2020-11-11T17:24:04Z</time>
      </trkpt>
      <trkpt lat="28.3187530" lon="-16.5121680">
        <ele>1929.9</ele>
        <time>2020-11-11T17:24:05Z</time>
      </trkpt>
      <trkpt lat="28.3187380" lon="-16.5121820">
        <ele>1929.9</ele>
        <time>2020-11-11T17:24:06Z</time>
      </trkpt>
      <trkpt lat="28.3187230" lon="-16.5121970">
        <ele>1929.9</ele>
        <time>2020-11-11T17:24:07Z</time>
      </trkpt>
      <trkpt lat="28.3187230" lon="-16.5121970">
        <ele>1929.9</ele>
        <time>2020-11-11T17:24:08Z</time>
      </trkpt>
      <trkpt lat="28.3186930" lon="-16.5122250">
        <ele>1929.9</ele>
        <time>2020-11-11T17:24:09Z</time>
      </trkpt>
      <trkpt lat="28.3186930" lon="-16.5122250">
        <ele>1929.9</ele>
        <time>2020-11-11T17:24:10Z</time>
      </trkpt>
      <trkpt lat="28.3186650" lon="-16.5122500">
        <ele>1929.9</ele>
        <time>2020-11-11T17:24:11Z</time>
      </trkpt>
      <trkpt lat="28.3186650" lon="-16.5122500">
        <ele>1929.9</ele>
        <time>2020-11-11T17:24:12Z</time>
      </trkpt>
      <trkpt lat="28.3186380" lon="-16.5122750">
        <ele>1930.9</ele>
        <time>2020-11-11T17:24:13Z</time>
      </trkpt>
      <trkpt lat="28.3186380" lon="-16.5122750">
        <ele>1930.9</ele>
        <time>2020-11-11T17:24:14Z</time>
      </trkpt>
      <trkpt lat="28.3186070" lon="-16.5122980">
        <ele>1930.9</ele>
        <time>2020-11-11T17:24:15Z</time>
      </trkpt>
      <trkpt lat="28.3185870" lon="-16.5123120">
        <ele>1930.9</ele>
        <time>2020-11-11T17:24:16Z</time>
      </trkpt>
      <trkpt lat="28.3185870" lon="-16.5123120">
        <ele>1930.9</ele>
        <time>2020-11-11T17:24:17Z</time>
      </trkpt>
      <trkpt lat="28.3185420" lon="-16.5123330">
        <ele>1930.9</ele>
        <time>2020-11-11T17:24:18Z</time>
      </trkpt>
      <trkpt lat="28.3185200" lon="-16.5123420">
        <ele>1930.9</ele>
        <time>2020-11-11T17:24:19Z</time>
      </trkpt>
      <trkpt lat="28.3185200" lon="-16.5123420">
        <ele>1930.9</ele>
        <time>2020-11-11T17:24:20Z</time>
      </trkpt>
      <trkpt lat="28.3184750" lon="-16.5123520">
        <ele>1930.9</ele>
        <time>2020-11-11T17:24:21Z</time>
      </trkpt>
      <trkpt lat="28.3184570" lon="-16.5123550">
        <ele>1930.9</ele>
        <time>2020-11-11T17:24:22Z</time>
      </trkpt>
      <trkpt lat="28.3184380" lon="-16.5123570">
        <ele>1930.9</ele>
        <time>2020-11-11T17:24:23Z</time>
      </trkpt>
      <trkpt lat="28.3184380" lon="-16.5123570">
        <ele>1930.9</ele>
        <time>2020-11-11T17:24:24Z</time>
      </trkpt>
      <trkpt lat="28.3184020" lon="-16.5123630">
        <ele>1930.9</ele>
        <time>2020-11-11T17:24:25Z</time>
      </trkpt>
      <trkpt lat="28.3184020" lon="-16.5123630">
        <ele>1931.9</ele>
        <time>2020-11-11T17:24:26Z</time>
      </trkpt>
      <trkpt lat="28.3183700" lon="-16.5123630">
        <ele>1931.9</ele>
        <time>2020-11-11T17:24:27Z</time>
      </trkpt>
      <trkpt lat="28.3183700" lon="-16.5123630">
        <ele>1931.9</ele>
        <time>2020-11-11T17:24:28Z</time>
      </trkpt>
      <trkpt lat="28.3183370" lon="-16.5123450">
        <ele>1931.9</ele>
        <time>2020-11-11T17:24:29Z</time>
      </trkpt>
      <trkpt lat="28.3183180" lon="-16.5123330">
        <ele>1931.9</ele>
        <time>2020-11-11T17:24:30Z</time>
      </trkpt>
      <trkpt lat="28.3183180" lon="-16.5123330">
        <ele>1932.9</ele>
        <time>2020-11-11T17:24:31Z</time>
      </trkpt>
      <trkpt lat="28.3182850" lon="-16.5123070">
        <ele>1932.9</ele>
        <time>2020-11-11T17:24:32Z</time>
      </trkpt>
      <trkpt lat="28.3182720" lon="-16.5122920">
        <ele>1932.9</ele>
        <time>2020-11-11T17:24:33Z</time>
      </trkpt>
      <trkpt lat="28.3182720" lon="-16.5122920">
        <ele>1932.9</ele>
        <time>2020-11-11T17:24:34Z</time>
      </trkpt>
      <trkpt lat="28.3182580" lon="-16.5122600">
        <ele>1932.9</ele>
        <time>2020-11-11T17:24:35Z</time>
      </trkpt>
      <trkpt lat="28.3182580" lon="-16.5122600">
        <ele>1932.9</ele>
        <time>2020-11-11T17:24:36Z</time>
      </trkpt>
      <trkpt lat="28.3182530" lon="-16.5122230">
        <ele>1932.9</ele>
        <time>2020-11-11T17:24:37Z</time>
      </trkpt>
      <trkpt lat="28.3182530" lon="-16.5122230">
        <ele>1932.9</ele>
        <time>2020-11-11T17:24:38Z</time>
      </trkpt>
      <trkpt lat="28.3182520" lon="-16.5121800">
        <ele>1933.9</ele>
        <time>2020-11-11T17:24:39Z</time>
      </trkpt>
      <trkpt lat="28.3182520" lon="-16.5121800">
        <ele>1933.9</ele>
        <time>2020-11-11T17:24:40Z</time>
      </trkpt>
      <trkpt lat="28.3182600" lon="-16.5121420">
        <ele>1933.9</ele>
        <time>2020-11-11T17:24:41Z</time>
      </trkpt>
      <trkpt lat="28.3182600" lon="-16.5121420">
        <ele>1933.9</ele>
        <time>2020-11-11T17:24:42Z</time>
      </trkpt>
      <trkpt lat="28.3182650" lon="-16.5121000">
        <ele>1933.9</ele>
        <time>2020-11-11T17:24:43Z</time>
      </trkpt>
      <trkpt lat="28.3182650" lon="-16.5121000">
        <ele>1933.9</ele>
        <time>2020-11-11T17:24:44Z</time>
      </trkpt>
      <trkpt lat="28.3182680" lon="-16.5120650">
        <ele>1933.9</ele>
        <time>2020-11-11T17:24:45Z</time>
      </trkpt>
      <trkpt lat="28.3182680" lon="-16.5120650">
        <ele>1933.9</ele>
        <time>2020-11-11T17:24:46Z</time>
      </trkpt>
      <trkpt lat="28.3182850" lon="-16.5120300">
        <ele>1933.9</ele>
        <time>2020-11-11T17:24:47Z</time>
      </trkpt>
      <trkpt lat="28.3182850" lon="-16.5120300">
        <ele>1933.9</ele>
        <time>2020-11-11T17:24:48Z</time>
      </trkpt>
      <trkpt lat="28.3183020" lon="-16.5119930">
        <ele>1933.9</ele>
        <time>2020-11-11T17:24:49Z</time>
      </trkpt>
      <trkpt lat="28.3183020" lon="-16.5119930">
        <ele>1933.9</ele>
        <time>2020-11-11T17:24:50Z</time>
      </trkpt>
      <trkpt lat="28.3183070" lon="-16.5119700">
        <ele>1933.9</ele>
        <time>2020-11-11T17:24:51Z</time>
      </trkpt>
      <trkpt lat="28.3183070" lon="-16.5119700">
        <ele>1933.9</ele>
        <time>2020-11-11T17:24:52Z</time>
      </trkpt>
      <trkpt lat="28.3183070" lon="-16.5119670">
        <ele>1933.9</ele>
        <time>2020-11-11T17:24:53Z</time>
      </trkpt>
      <trkpt lat="28.3183070" lon="-16.5119670">
        <ele>1933.9</ele>
        <time>2020-11-11T17:24:54Z</time>
      </trkpt>
      <trkpt lat="28.3183070" lon="-16.5119670">
        <ele>1933.9</ele>
        <time>2020-11-11T17:24:55Z</time>
      </trkpt>
      <trkpt lat="28.3183070" lon="-16.5119670">
        <ele>1933.9</ele>
        <time>2020-11-11T17:24:56Z</time>
      </trkpt>
      <trkpt lat="28.3183020" lon="-16.5119420">
        <ele>1933.9</ele>
        <time>2020-11-11T17:26:15Z</time>
      </trkpt>
      <trkpt lat="28.3183020" lon="-16.5119420">
        <ele>1933.9</ele>
        <time>2020-11-11T17:26:16Z</time>
      </trkpt>
      <trkpt lat="28.3183100" lon="-16.5119280">
        <ele>1933.9</ele>
        <time>2020-11-11T17:26:17Z</time>
      </trkpt>
      <trkpt lat="28.3183120" lon="-16.5119300">
        <ele>1934.9</ele>
        <time>2020-11-11T17:26:18Z</time>
      </trkpt>
      <trkpt lat="28.3183120" lon="-16.5119300">
        <ele>1934.9</ele>
        <time>2020-11-11T17:26:19Z</time>
      </trkpt>
      <trkpt lat="28.3183070" lon="-16.5119280">
        <ele>1934.9</ele>
        <time>2020-11-11T17:26:20Z</time>
      </trkpt>
      <trkpt lat="28.3183070" lon="-16.5119280">
        <ele>1934.9</ele>
        <time>2020-11-11T17:26:56Z</time>
      </trkpt>
      <trkpt lat="28.3182930" lon="-16.5119430">
        <ele>1934.9</ele>
        <time>2020-11-11T17:26:57Z</time>
      </trkpt>
      <trkpt lat="28.3182930" lon="-16.5119430">
        <ele>1934.9</ele>
        <time>2020-11-11T17:26:58Z</time>
      </trkpt>
      <trkpt lat="28.3182970" lon="-16.5119630">
        <ele>1934.9</ele>
        <time>2020-11-11T17:26:59Z</time>
      </trkpt>
      <trkpt lat="28.3182970" lon="-16.5119630">
        <ele>1934.9</ele>
        <time>2020-11-11T17:27:00Z</time>
      </trkpt>
      <trkpt lat="28.3182980" lon="-16.5119920">
        <ele>1934.9</ele>
        <time>2020-11-11T17:27:01Z</time>
      </trkpt>
      <trkpt lat="28.3182980" lon="-16.5119920">
        <ele>1934.9</ele>
        <time>2020-11-11T17:27:02Z</time>
      </trkpt>
      <trkpt lat="28.3182920" lon="-16.5120180">
        <ele>1934.9</ele>
        <time>2020-11-11T17:27:03Z</time>
      </trkpt>
      <trkpt lat="28.3182920" lon="-16.5120180">
        <ele>1934.9</ele>
        <time>2020-11-11T17:27:04Z</time>
      </trkpt>
      <trkpt lat="28.3182920" lon="-16.5120270">
        <ele>1934.9</ele>
        <time>2020-11-11T17:27:05Z</time>
      </trkpt>
      <trkpt lat="28.3182920" lon="-16.5120270">
        <ele>1934.9</ele>
        <time>2020-11-11T17:27:06Z</time>
      </trkpt>
      <trkpt lat="28.3182920" lon="-16.5120280">
        <ele>1934.9</ele>
        <time>2020-11-11T17:27:07Z</time>
      </trkpt>
      <trkpt lat="28.3182920" lon="-16.5120280">
        <ele>1934.9</ele>
        <time>2020-11-11T17:27:11Z</time>
      </trkpt>
      <trkpt lat="28.3183050" lon="-16.5119770">
        <ele>1934.9</ele>
        <time>2020-11-11T17:27:12Z</time>
      </trkpt>
      <trkpt lat="28.3183050" lon="-16.5119770">
        <ele>1934.9</ele>
        <time>2020-11-11T17:27:13Z</time>
      </trkpt>
      <trkpt lat="28.3183180" lon="-16.5119600">
        <ele>1934.9</ele>
        <time>2020-11-11T17:27:14Z</time>
      </trkpt>
      <trkpt lat="28.3183180" lon="-16.5119600">
        <ele>1934.9</ele>
        <time>2020-11-11T17:27:15Z</time>
      </trkpt>
      <trkpt lat="28.3183180" lon="-16.5119520">
        <ele>1934.9</ele>
        <time>2020-11-11T17:27:16Z</time>
      </trkpt>
      <trkpt lat="28.3183170" lon="-16.5119450">
        <ele>1934.9</ele>
        <time>2020-11-11T17:27:17Z</time>
      </trkpt>
      <trkpt lat="28.3183170" lon="-16.5119450">
        <ele>1934.9</ele>
        <time>2020-11-11T17:27:18Z</time>
      </trkpt>
      <trkpt lat="28.3183150" lon="-16.5119430">
        <ele>1934.9</ele>
        <time>2020-11-11T17:27:19Z</time>
      </trkpt>
      <trkpt lat="28.3183150" lon="-16.5119430">
        <ele>1934.9</ele>
        <time>2020-11-11T17:27:20Z</time>
      </trkpt>
      <trkpt lat="28.3183150" lon="-16.5119430">
        <ele>1934.9</ele>
        <time>2020-11-11T17:27:28Z</time>
      </trkpt>
      <trkpt lat="28.3183150" lon="-16.5119430">
        <ele>1934.9</ele>
        <time>2020-11-11T17:27:29Z</time>
      </trkpt>
      <trkpt lat="28.3183130" lon="-16.5119600">
        <ele>1934.9</ele>
        <time>2020-11-11T17:27:30Z</time>
      </trkpt>
      <trkpt lat="28.3183130" lon="-16.5119600">
        <ele>1934.9</ele>
        <time>2020-11-11T17:27:31Z</time>
      </trkpt>
      <trkpt lat="28.3183150" lon="-16.5119550">
        <ele>1934.9</ele>
        <time>2020-11-11T17:27:32Z</time>
      </trkpt>
      <trkpt lat="28.3183150" lon="-16.5119550">
        <ele>1934.9</ele>
        <time>2020-11-11T17:27:36Z</time>
      </trkpt>
      <trkpt lat="28.3183270" lon="-16.5119350">
        <ele>1934.9</ele>
        <time>2020-11-11T17:27:37Z</time>
      </trkpt>
      <trkpt lat="28.3183270" lon="-16.5119350">
        <ele>1934.9</ele>
        <time>2020-11-11T17:27:38Z</time>
      </trkpt>
      <trkpt lat="28.3183270" lon="-16.5119350">
        <ele>1934.9</ele>
        <time>2020-11-11T17:28:18Z</time>
      </trkpt>
      <trkpt lat="28.3183270" lon="-16.5119350">
        <ele>1934.9</ele>
        <time>2020-11-11T17:28:19Z</time>
      </trkpt>
      <trkpt lat="28.3183030" lon="-16.5118830">
        <ele>1934.9</ele>
        <time>2020-11-11T17:28:20Z</time>
      </trkpt>
      <trkpt lat="28.3183030" lon="-16.5118830">
        <ele>1935.9</ele>
        <time>2020-11-11T17:28:21Z</time>
      </trkpt>
      <trkpt lat="28.3183030" lon="-16.5118430">
        <ele>1935.9</ele>
        <time>2020-11-11T17:28:22Z</time>
      </trkpt>
      <trkpt lat="28.3183020" lon="-16.5118230">
        <ele>1935.9</ele>
        <time>2020-11-11T17:28:23Z</time>
      </trkpt>
      <trkpt lat="28.3183020" lon="-16.5118230">
        <ele>1935.9</ele>
        <time>2020-11-11T17:28:24Z</time>
      </trkpt>
      <trkpt lat="28.3183000" lon="-16.5117820">
        <ele>1935.9</ele>
        <time>2020-11-11T17:28:25Z</time>
      </trkpt>
      <trkpt lat="28.3183000" lon="-16.5117820">
        <ele>1935.9</ele>
        <time>2020-11-11T17:28:26Z</time>
      </trkpt>
      <trkpt lat="28.3182950" lon="-16.5117430">
        <ele>1935.9</ele>
        <time>2020-11-11T17:28:27Z</time>
      </trkpt>
      <trkpt lat="28.3182950" lon="-16.5117430">
        <ele>1935.9</ele>
        <time>2020-11-11T17:28:28Z</time>
      </trkpt>
      <trkpt lat="28.3182830" lon="-16.5117000">
        <ele>1935.9</ele>
        <time>2020-11-11T17:28:29Z</time>
      </trkpt>
      <trkpt lat="28.3182830" lon="-16.5117000">
        <ele>1936.9</ele>
        <time>2020-11-11T17:28:30Z</time>
      </trkpt>
      <trkpt lat="28.3182670" lon="-16.5116530">
        <ele>1936.9</ele>
        <time>2020-11-11T17:28:31Z</time>
      </trkpt>
      <trkpt lat="28.3182670" lon="-16.5116530">
        <ele>1936.9</ele>
        <time>2020-11-11T17:28:32Z</time>
      </trkpt>
      <trkpt lat="28.3182470" lon="-16.5116130">
        <ele>1936.9</ele>
        <time>2020-11-11T17:28:33Z</time>
      </trkpt>
      <trkpt lat="28.3182370" lon="-16.5115950">
        <ele>1936.9</ele>
        <time>2020-11-11T17:28:34Z</time>
      </trkpt>
      <trkpt lat="28.3182370" lon="-16.5115950">
        <ele>1936.9</ele>
        <time>2020-11-11T17:28:35Z</time>
      </trkpt>
      <trkpt lat="28.3182200" lon="-16.5115600">
        <ele>1937.9</ele>
        <time>2020-11-11T17:28:36Z</time>
      </trkpt>
      <trkpt lat="28.3182100" lon="-16.5115400">
        <ele>1937.9</ele>
        <time>2020-11-11T17:28:37Z</time>
      </trkpt>
      <trkpt lat="28.3182100" lon="-16.5115400">
        <ele>1937.9</ele>
        <time>2020-11-11T17:28:38Z</time>
      </trkpt>
      <trkpt lat="28.3181900" lon="-16.5115070">
        <ele>1937.9</ele>
        <time>2020-11-11T17:28:39Z</time>
      </trkpt>
      <trkpt lat="28.3181900" lon="-16.5115070">
        <ele>1937.9</ele>
        <time>2020-11-11T17:28:40Z</time>
      </trkpt>
      <trkpt lat="28.3181650" lon="-16.5114730">
        <ele>1937.9</ele>
        <time>2020-11-11T17:28:41Z</time>
      </trkpt>
      <trkpt lat="28.3181650" lon="-16.5114730">
        <ele>1937.9</ele>
        <time>2020-11-11T17:28:42Z</time>
      </trkpt>
      <trkpt lat="28.3181430" lon="-16.5114400">
        <ele>1937.9</ele>
        <time>2020-11-11T17:28:43Z</time>
      </trkpt>
      <trkpt lat="28.3181430" lon="-16.5114400">
        <ele>1937.9</ele>
        <time>2020-11-11T17:28:44Z</time>
      </trkpt>
      <trkpt lat="28.3181220" lon="-16.5114100">
        <ele>1937.9</ele>
        <time>2020-11-11T17:28:45Z</time>
      </trkpt>
      <trkpt lat="28.3181220" lon="-16.5114100">
        <ele>1937.9</ele>
        <time>2020-11-11T17:28:46Z</time>
      </trkpt>
      <trkpt lat="28.3181030" lon="-16.5113780">
        <ele>1939.9</ele>
        <time>2020-11-11T17:28:47Z</time>
      </trkpt>
      <trkpt lat="28.3181030" lon="-16.5113780">
        <ele>1939.9</ele>
        <time>2020-11-11T17:28:48Z</time>
      </trkpt>
      <trkpt lat="28.3180820" lon="-16.5113500">
        <ele>1939.9</ele>
        <time>2020-11-11T17:28:49Z</time>
      </trkpt>
      <trkpt lat="28.3180820" lon="-16.5113500">
        <ele>1939.9</ele>
        <time>2020-11-11T17:28:50Z</time>
      </trkpt>
      <trkpt lat="28.3180530" lon="-16.5113200">
        <ele>1939.9</ele>
        <time>2020-11-11T17:28:51Z</time>
      </trkpt>
      <trkpt lat="28.3180530" lon="-16.5113200">
        <ele>1939.9</ele>
        <time>2020-11-11T17:28:52Z</time>
      </trkpt>
      <trkpt lat="28.3180280" lon="-16.5112920">
        <ele>1939.9</ele>
        <time>2020-11-11T17:28:53Z</time>
      </trkpt>
      <trkpt lat="28.3180280" lon="-16.5112920">
        <ele>1939.9</ele>
        <time>2020-11-11T17:28:54Z</time>
      </trkpt>
      <trkpt lat="28.3180070" lon="-16.5112630">
        <ele>1939.9</ele>
        <time>2020-11-11T17:28:55Z</time>
      </trkpt>
      <trkpt lat="28.3180070" lon="-16.5112630">
        <ele>1939.9</ele>
        <time>2020-11-11T17:28:56Z</time>
      </trkpt>
      <trkpt lat="28.3179920" lon="-16.5112230">
        <ele>1939.9</ele>
        <time>2020-11-11T17:28:57Z</time>
      </trkpt>
      <trkpt lat="28.3179920" lon="-16.5112230">
        <ele>1939.9</ele>
        <time>2020-11-11T17:28:58Z</time>
      </trkpt>
      <trkpt lat="28.3179600" lon="-16.5111750">
        <ele>1939.9</ele>
        <time>2020-11-11T17:28:59Z</time>
      </trkpt>
      <trkpt lat="28.3179600" lon="-16.5111750">
        <ele>1940.9</ele>
        <time>2020-11-11T17:29:00Z</time>
      </trkpt>
      <trkpt lat="28.3179480" lon="-16.5111320">
        <ele>1940.9</ele>
        <time>2020-11-11T17:29:01Z</time>
      </trkpt>
      <trkpt lat="28.3179480" lon="-16.5111320">
        <ele>1940.9</ele>
        <time>2020-11-11T17:29:02Z</time>
      </trkpt>
      <trkpt lat="28.3179520" lon="-16.5110900">
        <ele>1940.9</ele>
        <time>2020-11-11T17:29:03Z</time>
      </trkpt>
      <trkpt lat="28.3179530" lon="-16.5110680">
        <ele>1941.9</ele>
        <time>2020-11-11T17:29:04Z</time>
      </trkpt>
      <trkpt lat="28.3179530" lon="-16.5110680">
        <ele>1941.9</ele>
        <time>2020-11-11T17:29:05Z</time>
      </trkpt>
      <trkpt lat="28.3179530" lon="-16.5110300">
        <ele>1941.9</ele>
        <time>2020-11-11T17:29:06Z</time>
      </trkpt>
      <trkpt lat="28.3179520" lon="-16.5110120">
        <ele>1941.9</ele>
        <time>2020-11-11T17:29:07Z</time>
      </trkpt>
      <trkpt lat="28.3179520" lon="-16.5110120">
        <ele>1941.9</ele>
        <time>2020-11-11T17:29:08Z</time>
      </trkpt>
      <trkpt lat="28.3179470" lon="-16.5109730">
        <ele>1941.9</ele>
        <time>2020-11-11T17:29:09Z</time>
      </trkpt>
      <trkpt lat="28.3179470" lon="-16.5109730">
        <ele>1941.9</ele>
        <time>2020-11-11T17:29:10Z</time>
      </trkpt>
      <trkpt lat="28.3179430" lon="-16.5109320">
        <ele>1941.9</ele>
        <time>2020-11-11T17:29:11Z</time>
      </trkpt>
      <trkpt lat="28.3179430" lon="-16.5109320">
        <ele>1941.9</ele>
        <time>2020-11-11T17:29:12Z</time>
      </trkpt>
      <trkpt lat="28.3179300" lon="-16.5108920">
        <ele>1942.9</ele>
        <time>2020-11-11T17:29:13Z</time>
      </trkpt>
      <trkpt lat="28.3179300" lon="-16.5108920">
        <ele>1942.9</ele>
        <time>2020-11-11T17:29:14Z</time>
      </trkpt>
      <trkpt lat="28.3179200" lon="-16.5108530">
        <ele>1942.9</ele>
        <time>2020-11-11T17:29:15Z</time>
      </trkpt>
      <trkpt lat="28.3179200" lon="-16.5108530">
        <ele>1942.9</ele>
        <time>2020-11-11T17:29:16Z</time>
      </trkpt>
      <trkpt lat="28.3179130" lon="-16.5108170">
        <ele>1942.9</ele>
        <time>2020-11-11T17:29:17Z</time>
      </trkpt>
      <trkpt lat="28.3179100" lon="-16.5108000">
        <ele>1942.9</ele>
        <time>2020-11-11T17:29:18Z</time>
      </trkpt>
      <trkpt lat="28.3179100" lon="-16.5108000">
        <ele>1942.9</ele>
        <time>2020-11-11T17:29:19Z</time>
      </trkpt>
      <trkpt lat="28.3179030" lon="-16.5107630">
        <ele>1942.9</ele>
        <time>2020-11-11T17:29:20Z</time>
      </trkpt>
      <trkpt lat="28.3179030" lon="-16.5107630">
        <ele>1942.9</ele>
        <time>2020-11-11T17:29:21Z</time>
      </trkpt>
      <trkpt lat="28.3178980" lon="-16.5107270">
        <ele>1942.9</ele>
        <time>2020-11-11T17:29:22Z</time>
      </trkpt>
      <trkpt lat="28.3178980" lon="-16.5107270">
        <ele>1942.9</ele>
        <time>2020-11-11T17:29:23Z</time>
      </trkpt>
      <trkpt lat="28.3178920" lon="-16.5106920">
        <ele>1942.9</ele>
        <time>2020-11-11T17:29:24Z</time>
      </trkpt>
      <trkpt lat="28.3178920" lon="-16.5106920">
        <ele>1943.9</ele>
        <time>2020-11-11T17:29:25Z</time>
      </trkpt>
      <trkpt lat="28.3178880" lon="-16.5106580">
        <ele>1943.9</ele>
        <time>2020-11-11T17:29:26Z</time>
      </trkpt>
      <trkpt lat="28.3178880" lon="-16.5106400">
        <ele>1943.9</ele>
        <time>2020-11-11T17:29:27Z</time>
      </trkpt>
      <trkpt lat="28.3178880" lon="-16.5106400">
        <ele>1943.9</ele>
        <time>2020-11-11T17:29:28Z</time>
      </trkpt>
      <trkpt lat="28.3178850" lon="-16.5106030">
        <ele>1943.9</ele>
        <time>2020-11-11T17:29:29Z</time>
      </trkpt>
      <trkpt lat="28.3178850" lon="-16.5106030">
        <ele>1943.9</ele>
        <time>2020-11-11T17:29:30Z</time>
      </trkpt>
      <trkpt lat="28.3178800" lon="-16.5105720">
        <ele>1944.9</ele>
        <time>2020-11-11T17:29:31Z</time>
      </trkpt>
      <trkpt lat="28.3178830" lon="-16.5105580">
        <ele>1944.9</ele>
        <time>2020-11-11T17:29:32Z</time>
      </trkpt>
      <trkpt lat="28.3178830" lon="-16.5105580">
        <ele>1944.9</ele>
        <time>2020-11-11T17:29:33Z</time>
      </trkpt>
      <trkpt lat="28.3178850" lon="-16.5105430">
        <ele>1944.9</ele>
        <time>2020-11-11T17:29:34Z</time>
      </trkpt>
      <trkpt lat="28.3178850" lon="-16.5105430">
        <ele>1944.9</ele>
        <time>2020-11-11T17:29:35Z</time>
      </trkpt>
      <trkpt lat="28.3178830" lon="-16.5105430">
        <ele>1944.9</ele>
        <time>2020-11-11T17:29:36Z</time>
      </trkpt>
      <trkpt lat="28.3178830" lon="-16.5105430">
        <ele>1945.9</ele>
        <time>2020-11-11T17:29:37Z</time>
      </trkpt>
      <trkpt lat="28.3179020" lon="-16.5105150">
        <ele>1945.9</ele>
        <time>2020-11-11T17:30:01Z</time>
      </trkpt>
      <trkpt lat="28.3179020" lon="-16.5105150">
        <ele>1945.9</ele>
        <time>2020-11-11T17:30:02Z</time>
      </trkpt>
      <trkpt lat="28.3179180" lon="-16.5104750">
        <ele>1945.9</ele>
        <time>2020-11-11T17:30:03Z</time>
      </trkpt>
      <trkpt lat="28.3179180" lon="-16.5104750">
        <ele>1945.9</ele>
        <time>2020-11-11T17:30:04Z</time>
      </trkpt>
      <trkpt lat="28.3179300" lon="-16.5104280">
        <ele>1945.9</ele>
        <time>2020-11-11T17:30:05Z</time>
      </trkpt>
      <trkpt lat="28.3179300" lon="-16.5104280">
        <ele>1945.9</ele>
        <time>2020-11-11T17:30:06Z</time>
      </trkpt>
      <trkpt lat="28.3179380" lon="-16.5103800">
        <ele>1945.9</ele>
        <time>2020-11-11T17:30:07Z</time>
      </trkpt>
      <trkpt lat="28.3179380" lon="-16.5103800">
        <ele>1945.9</ele>
        <time>2020-11-11T17:30:08Z</time>
      </trkpt>
      <trkpt lat="28.3179480" lon="-16.5103330">
        <ele>1945.9</ele>
        <time>2020-11-11T17:30:09Z</time>
      </trkpt>
      <trkpt lat="28.3179480" lon="-16.5103330">
        <ele>1945.9</ele>
        <time>2020-11-11T17:30:10Z</time>
      </trkpt>
      <trkpt lat="28.3179600" lon="-16.5102880">
        <ele>1946.9</ele>
        <time>2020-11-11T17:30:11Z</time>
      </trkpt>
      <trkpt lat="28.3179600" lon="-16.5102880">
        <ele>1946.9</ele>
        <time>2020-11-11T17:30:12Z</time>
      </trkpt>
      <trkpt lat="28.3179820" lon="-16.5102570">
        <ele>1946.9</ele>
        <time>2020-11-11T17:30:13Z</time>
      </trkpt>
      <trkpt lat="28.3179820" lon="-16.5102570">
        <ele>1946.9</ele>
        <time>2020-11-11T17:30:14Z</time>
      </trkpt>
      <trkpt lat="28.3180120" lon="-16.5102280">
        <ele>1947.9</ele>
        <time>2020-11-11T17:30:15Z</time>
      </trkpt>
      <trkpt lat="28.3180120" lon="-16.5102280">
        <ele>1947.9</ele>
        <time>2020-11-11T17:30:16Z</time>
      </trkpt>
      <trkpt lat="28.3180420" lon="-16.5101920">
        <ele>1947.9</ele>
        <time>2020-11-11T17:30:17Z</time>
      </trkpt>
      <trkpt lat="28.3180420" lon="-16.5101920">
        <ele>1947.9</ele>
        <time>2020-11-11T17:30:18Z</time>
      </trkpt>
      <trkpt lat="28.3180720" lon="-16.5101620">
        <ele>1947.9</ele>
        <time>2020-11-11T17:30:19Z</time>
      </trkpt>
      <trkpt lat="28.3180720" lon="-16.5101620">
        <ele>1947.9</ele>
        <time>2020-11-11T17:30:20Z</time>
      </trkpt>
      <trkpt lat="28.3181000" lon="-16.5101330">
        <ele>1947.9</ele>
        <time>2020-11-11T17:30:21Z</time>
      </trkpt>
      <trkpt lat="28.3181000" lon="-16.5101330">
        <ele>1948.9</ele>
        <time>2020-11-11T17:30:22Z</time>
      </trkpt>
      <trkpt lat="28.3181270" lon="-16.5101030">
        <ele>1948.9</ele>
        <time>2020-11-11T17:30:23Z</time>
      </trkpt>
      <trkpt lat="28.3181270" lon="-16.5101030">
        <ele>1948.9</ele>
        <time>2020-11-11T17:30:24Z</time>
      </trkpt>
      <trkpt lat="28.3181570" lon="-16.5100620">
        <ele>1948.9</ele>
        <time>2020-11-11T17:30:25Z</time>
      </trkpt>
      <trkpt lat="28.3181570" lon="-16.5100620">
        <ele>1949.9</ele>
        <time>2020-11-11T17:30:26Z</time>
      </trkpt>
      <trkpt lat="28.3181770" lon="-16.5100180">
        <ele>1949.9</ele>
        <time>2020-11-11T17:30:27Z</time>
      </trkpt>
      <trkpt lat="28.3181770" lon="-16.5100180">
        <ele>1949.9</ele>
        <time>2020-11-11T17:30:28Z</time>
      </trkpt>
      <trkpt lat="28.3181870" lon="-16.5099720">
        <ele>1949.9</ele>
        <time>2020-11-11T17:30:29Z</time>
      </trkpt>
      <trkpt lat="28.3181870" lon="-16.5099720">
        <ele>1950.9</ele>
        <time>2020-11-11T17:30:30Z</time>
      </trkpt>
      <trkpt lat="28.3181870" lon="-16.5099720">
        <ele>1950.9</ele>
        <time>2020-11-11T17:30:31Z</time>
      </trkpt>
      <trkpt lat="28.3181930" lon="-16.5099230">
        <ele>1950.9</ele>
        <time>2020-11-11T17:30:32Z</time>
      </trkpt>
      <trkpt lat="28.3182000" lon="-16.5098750">
        <ele>1950.9</ele>
        <time>2020-11-11T17:30:33Z</time>
      </trkpt>
      <trkpt lat="28.3182000" lon="-16.5098750">
        <ele>1950.9</ele>
        <time>2020-11-11T17:30:34Z</time>
      </trkpt>
      <trkpt lat="28.3182020" lon="-16.5098270">
        <ele>1950.9</ele>
        <time>2020-11-11T17:30:35Z</time>
      </trkpt>
      <trkpt lat="28.3182020" lon="-16.5098270">
        <ele>1951.9</ele>
        <time>2020-11-11T17:30:36Z</time>
      </trkpt>
      <trkpt lat="28.3181980" lon="-16.5097780">
        <ele>1951.9</ele>
        <time>2020-11-11T17:30:37Z</time>
      </trkpt>
      <trkpt lat="28.3181980" lon="-16.5097780">
        <ele>1951.9</ele>
        <time>2020-11-11T17:30:38Z</time>
      </trkpt>
      <trkpt lat="28.3181950" lon="-16.5097320">
        <ele>1951.9</ele>
        <time>2020-11-11T17:30:39Z</time>
      </trkpt>
      <trkpt lat="28.3181950" lon="-16.5097320">
        <ele>1951.9</ele>
        <time>2020-11-11T17:30:40Z</time>
      </trkpt>
      <trkpt lat="28.3181950" lon="-16.5096850">
        <ele>1951.9</ele>
        <time>2020-11-11T17:30:41Z</time>
      </trkpt>
      <trkpt lat="28.3181950" lon="-16.5096620">
        <ele>1952.9</ele>
        <time>2020-11-11T17:30:42Z</time>
      </trkpt>
      <trkpt lat="28.3181950" lon="-16.5096620">
        <ele>1952.9</ele>
        <time>2020-11-11T17:30:43Z</time>
      </trkpt>
      <trkpt lat="28.3181930" lon="-16.5096120">
        <ele>1952.9</ele>
        <time>2020-11-11T17:30:44Z</time>
      </trkpt>
      <trkpt lat="28.3181930" lon="-16.5096120">
        <ele>1952.9</ele>
        <time>2020-11-11T17:30:45Z</time>
      </trkpt>
      <trkpt lat="28.3181950" lon="-16.5095630">
        <ele>1952.9</ele>
        <time>2020-11-11T17:30:46Z</time>
      </trkpt>
      <trkpt lat="28.3181950" lon="-16.5095630">
        <ele>1953.9</ele>
        <time>2020-11-11T17:30:47Z</time>
      </trkpt>
      <trkpt lat="28.3181930" lon="-16.5095180">
        <ele>1953.9</ele>
        <time>2020-11-11T17:30:48Z</time>
      </trkpt>
      <trkpt lat="28.3181900" lon="-16.5094950">
        <ele>1953.9</ele>
        <time>2020-11-11T17:30:49Z</time>
      </trkpt>
      <trkpt lat="28.3181900" lon="-16.5094950">
        <ele>1953.9</ele>
        <time>2020-11-11T17:30:50Z</time>
      </trkpt>
      <trkpt lat="28.3181800" lon="-16.5094420">
        <ele>1953.9</ele>
        <time>2020-11-11T17:30:51Z</time>
      </trkpt>
      <trkpt lat="28.3181770" lon="-16.5094130">
        <ele>1953.9</ele>
        <time>2020-11-11T17:30:52Z</time>
      </trkpt>
      <trkpt lat="28.3181770" lon="-16.5094130">
        <ele>1953.9</ele>
        <time>2020-11-11T17:30:53Z</time>
      </trkpt>
      <trkpt lat="28.3181630" lon="-16.5093600">
        <ele>1953.9</ele>
        <time>2020-11-11T17:30:54Z</time>
      </trkpt>
      <trkpt lat="28.3181600" lon="-16.5093330">
        <ele>1954.9</ele>
        <time>2020-11-11T17:30:55Z</time>
      </trkpt>
      <trkpt lat="28.3181600" lon="-16.5093330">
        <ele>1954.9</ele>
        <time>2020-11-11T17:30:56Z</time>
      </trkpt>
      <trkpt lat="28.3181500" lon="-16.5092800">
        <ele>1954.9</ele>
        <time>2020-11-11T17:30:57Z</time>
      </trkpt>
      <trkpt lat="28.3181500" lon="-16.5092800">
        <ele>1954.9</ele>
        <time>2020-11-11T17:30:58Z</time>
      </trkpt>
      <trkpt lat="28.3181400" lon="-16.5092230">
        <ele>1954.9</ele>
        <time>2020-11-11T17:30:59Z</time>
      </trkpt>
      <trkpt lat="28.3181400" lon="-16.5092230">
        <ele>1954.9</ele>
        <time>2020-11-11T17:31:00Z</time>
      </trkpt>
      <trkpt lat="28.3181350" lon="-16.5091720">
        <ele>1954.9</ele>
        <time>2020-11-11T17:31:01Z</time>
      </trkpt>
      <trkpt lat="28.3181350" lon="-16.5091720">
        <ele>1954.9</ele>
        <time>2020-11-11T17:31:02Z</time>
      </trkpt>
      <trkpt lat="28.3181280" lon="-16.5091250">
        <ele>1955.9</ele>
        <time>2020-11-11T17:31:03Z</time>
      </trkpt>
      <trkpt lat="28.3181280" lon="-16.5091250">
        <ele>1955.9</ele>
        <time>2020-11-11T17:31:04Z</time>
      </trkpt>
      <trkpt lat="28.3181180" lon="-16.5090870">
        <ele>1955.9</ele>
        <time>2020-11-11T17:31:05Z</time>
      </trkpt>
      <trkpt lat="28.3181180" lon="-16.5090870">
        <ele>1955.9</ele>
        <time>2020-11-11T17:31:06Z</time>
      </trkpt>
      <trkpt lat="28.3181120" lon="-16.5090470">
        <ele>1956.9</ele>
        <time>2020-11-11T17:31:07Z</time>
      </trkpt>
      <trkpt lat="28.3181120" lon="-16.5090470">
        <ele>1956.9</ele>
        <time>2020-11-11T17:31:08Z</time>
      </trkpt>
      <trkpt lat="28.3181030" lon="-16.5090030">
        <ele>1956.9</ele>
        <time>2020-11-11T17:31:09Z</time>
      </trkpt>
      <trkpt lat="28.3181030" lon="-16.5090030">
        <ele>1956.9</ele>
        <time>2020-11-11T17:31:10Z</time>
      </trkpt>
      <trkpt lat="28.3180970" lon="-16.5089580">
        <ele>1956.9</ele>
        <time>2020-11-11T17:31:11Z</time>
      </trkpt>
      <trkpt lat="28.3180930" lon="-16.5089370">
        <ele>1956.9</ele>
        <time>2020-11-11T17:31:12Z</time>
      </trkpt>
      <trkpt lat="28.3180930" lon="-16.5089370">
        <ele>1957.9</ele>
        <time>2020-11-11T17:31:13Z</time>
      </trkpt>
      <trkpt lat="28.3180830" lon="-16.5088970">
        <ele>1957.9</ele>
        <time>2020-11-11T17:31:14Z</time>
      </trkpt>
      <trkpt lat="28.3180830" lon="-16.5088970">
        <ele>1957.9</ele>
        <time>2020-11-11T17:31:15Z</time>
      </trkpt>
      <trkpt lat="28.3180770" lon="-16.5088550">
        <ele>1957.9</ele>
        <time>2020-11-11T17:31:16Z</time>
      </trkpt>
      <trkpt lat="28.3180730" lon="-16.5088330">
        <ele>1957.9</ele>
        <time>2020-11-11T17:31:17Z</time>
      </trkpt>
      <trkpt lat="28.3180730" lon="-16.5088330">
        <ele>1957.9</ele>
        <time>2020-11-11T17:31:18Z</time>
      </trkpt>
      <trkpt lat="28.3180530" lon="-16.5087950">
        <ele>1957.9</ele>
        <time>2020-11-11T17:31:19Z</time>
      </trkpt>
      <trkpt lat="28.3180530" lon="-16.5087950">
        <ele>1957.9</ele>
        <time>2020-11-11T17:31:20Z</time>
      </trkpt>
      <trkpt lat="28.3180430" lon="-16.5087530">
        <ele>1958.9</ele>
        <time>2020-11-11T17:31:21Z</time>
      </trkpt>
      <trkpt lat="28.3180430" lon="-16.5087530">
        <ele>1958.9</ele>
        <time>2020-11-11T17:31:22Z</time>
      </trkpt>
      <trkpt lat="28.3180370" lon="-16.5087120">
        <ele>1958.9</ele>
        <time>2020-11-11T17:31:23Z</time>
      </trkpt>
      <trkpt lat="28.3180370" lon="-16.5087120">
        <ele>1958.9</ele>
        <time>2020-11-11T17:31:24Z</time>
      </trkpt>
      <trkpt lat="28.3180250" lon="-16.5086620">
        <ele>1958.9</ele>
        <time>2020-11-11T17:31:25Z</time>
      </trkpt>
      <trkpt lat="28.3180250" lon="-16.5086620">
        <ele>1958.9</ele>
        <time>2020-11-11T17:31:26Z</time>
      </trkpt>
      <trkpt lat="28.3180170" lon="-16.5086150">
        <ele>1958.9</ele>
        <time>2020-11-11T17:31:27Z</time>
      </trkpt>
      <trkpt lat="28.3180170" lon="-16.5086150">
        <ele>1958.9</ele>
        <time>2020-11-11T17:31:28Z</time>
      </trkpt>
      <trkpt lat="28.3180070" lon="-16.5085750">
        <ele>1958.9</ele>
        <time>2020-11-11T17:31:29Z</time>
      </trkpt>
      <trkpt lat="28.3180070" lon="-16.5085750">
        <ele>1958.9</ele>
        <time>2020-11-11T17:31:30Z</time>
      </trkpt>
      <trkpt lat="28.3179950" lon="-16.5085300">
        <ele>1958.9</ele>
        <time>2020-11-11T17:31:31Z</time>
      </trkpt>
      <trkpt lat="28.3179950" lon="-16.5085300">
        <ele>1958.9</ele>
        <time>2020-11-11T17:31:32Z</time>
      </trkpt>
      <trkpt lat="28.3179820" lon="-16.5084880">
        <ele>1958.9</ele>
        <time>2020-11-11T17:31:33Z</time>
      </trkpt>
      <trkpt lat="28.3179820" lon="-16.5084880">
        <ele>1959.9</ele>
        <time>2020-11-11T17:31:34Z</time>
      </trkpt>
      <trkpt lat="28.3179570" lon="-16.5084520">
        <ele>1959.9</ele>
        <time>2020-11-11T17:31:35Z</time>
      </trkpt>
      <trkpt lat="28.3179570" lon="-16.5084520">
        <ele>1959.9</ele>
        <time>2020-11-11T17:31:36Z</time>
      </trkpt>
      <trkpt lat="28.3179280" lon="-16.5084220">
        <ele>1959.9</ele>
        <time>2020-11-11T17:31:37Z</time>
      </trkpt>
      <trkpt lat="28.3179280" lon="-16.5084220">
        <ele>1959.9</ele>
        <time>2020-11-11T17:31:38Z</time>
      </trkpt>
      <trkpt lat="28.3178950" lon="-16.5083920">
        <ele>1959.9</ele>
        <time>2020-11-11T17:31:39Z</time>
      </trkpt>
      <trkpt lat="28.3178770" lon="-16.5083770">
        <ele>1960.9</ele>
        <time>2020-11-11T17:31:40Z</time>
      </trkpt>
      <trkpt lat="28.3178570" lon="-16.5083630">
        <ele>1960.9</ele>
        <time>2020-11-11T17:31:41Z</time>
      </trkpt>
      <trkpt lat="28.3178570" lon="-16.5083630">
        <ele>1960.9</ele>
        <time>2020-11-11T17:31:42Z</time>
      </trkpt>
      <trkpt lat="28.3178170" lon="-16.5083400">
        <ele>1960.9</ele>
        <time>2020-11-11T17:31:43Z</time>
      </trkpt>
      <trkpt lat="28.3177980" lon="-16.5083270">
        <ele>1960.9</ele>
        <time>2020-11-11T17:31:44Z</time>
      </trkpt>
      <trkpt lat="28.3177980" lon="-16.5083270">
        <ele>1960.9</ele>
        <time>2020-11-11T17:31:45Z</time>
      </trkpt>
      <trkpt lat="28.3177620" lon="-16.5083000">
        <ele>1961.9</ele>
        <time>2020-11-11T17:31:46Z</time>
      </trkpt>
      <trkpt lat="28.3177620" lon="-16.5083000">
        <ele>1961.9</ele>
        <time>2020-11-11T17:31:47Z</time>
      </trkpt>
      <trkpt lat="28.3177280" lon="-16.5082730">
        <ele>1961.9</ele>
        <time>2020-11-11T17:31:48Z</time>
      </trkpt>
      <trkpt lat="28.3177020" lon="-16.5082580">
        <ele>1961.9</ele>
        <time>2020-11-11T17:31:49Z</time>
      </trkpt>
      <trkpt lat="28.3177020" lon="-16.5082580">
        <ele>1961.9</ele>
        <time>2020-11-11T17:31:50Z</time>
      </trkpt>
      <trkpt lat="28.3176600" lon="-16.5082350">
        <ele>1961.9</ele>
        <time>2020-11-11T17:31:51Z</time>
      </trkpt>
      <trkpt lat="28.3176600" lon="-16.5082350">
        <ele>1961.9</ele>
        <time>2020-11-11T17:31:52Z</time>
      </trkpt>
      <trkpt lat="28.3176250" lon="-16.5082130">
        <ele>1961.9</ele>
        <time>2020-11-11T17:31:53Z</time>
      </trkpt>
      <trkpt lat="28.3176250" lon="-16.5082130">
        <ele>1961.9</ele>
        <time>2020-11-11T17:31:54Z</time>
      </trkpt>
      <trkpt lat="28.3175880" lon="-16.5081970">
        <ele>1961.9</ele>
        <time>2020-11-11T17:31:55Z</time>
      </trkpt>
      <trkpt lat="28.3175880" lon="-16.5081970">
        <ele>1962.9</ele>
        <time>2020-11-11T17:31:56Z</time>
      </trkpt>
      <trkpt lat="28.3175580" lon="-16.5081770">
        <ele>1962.9</ele>
        <time>2020-11-11T17:31:57Z</time>
      </trkpt>
      <trkpt lat="28.3175580" lon="-16.5081770">
        <ele>1962.9</ele>
        <time>2020-11-11T17:31:58Z</time>
      </trkpt>
      <trkpt lat="28.3175520" lon="-16.5081700">
        <ele>1962.9</ele>
        <time>2020-11-11T17:31:59Z</time>
      </trkpt>
      <trkpt lat="28.3175520" lon="-16.5081700">
        <ele>1962.9</ele>
        <time>2020-11-11T17:32:00Z</time>
      </trkpt>
      <trkpt lat="28.3175530" lon="-16.5081730">
        <ele>1962.9</ele>
        <time>2020-11-11T17:32:01Z</time>
      </trkpt>
      <trkpt lat="28.3175530" lon="-16.5081730">
        <ele>1962.9</ele>
        <time>2020-11-11T17:32:02Z</time>
      </trkpt>
      <trkpt lat="28.3175530" lon="-16.5081730">
        <ele>1962.9</ele>
        <time>2020-11-11T17:32:25Z</time>
      </trkpt>
      <trkpt lat="28.3175220" lon="-16.5081650">
        <ele>1962.9</ele>
        <time>2020-11-11T17:32:26Z</time>
      </trkpt>
      <trkpt lat="28.3175220" lon="-16.5081650">
        <ele>1962.9</ele>
        <time>2020-11-11T17:32:27Z</time>
      </trkpt>
      <trkpt lat="28.3174880" lon="-16.5081500">
        <ele>1962.9</ele>
        <time>2020-11-11T17:32:28Z</time>
      </trkpt>
      <trkpt lat="28.3174880" lon="-16.5081500">
        <ele>1963.9</ele>
        <time>2020-11-11T17:32:29Z</time>
      </trkpt>
      <trkpt lat="28.3174530" lon="-16.5081270">
        <ele>1963.9</ele>
        <time>2020-11-11T17:32:30Z</time>
      </trkpt>
      <trkpt lat="28.3174530" lon="-16.5081270">
        <ele>1963.9</ele>
        <time>2020-11-11T17:32:31Z</time>
      </trkpt>
      <trkpt lat="28.3174150" lon="-16.5081030">
        <ele>1963.9</ele>
        <time>2020-11-11T17:32:32Z</time>
      </trkpt>
      <trkpt lat="28.3173970" lon="-16.5080900">
        <ele>1963.9</ele>
        <time>2020-11-11T17:32:33Z</time>
      </trkpt>
      <trkpt lat="28.3173780" lon="-16.5080770">
        <ele>1963.9</ele>
        <time>2020-11-11T17:32:34Z</time>
      </trkpt>
      <trkpt lat="28.3173780" lon="-16.5080770">
        <ele>1963.9</ele>
        <time>2020-11-11T17:32:35Z</time>
      </trkpt>
      <trkpt lat="28.3173380" lon="-16.5080470">
        <ele>1963.9</ele>
        <time>2020-11-11T17:32:36Z</time>
      </trkpt>
      <trkpt lat="28.3173200" lon="-16.5080300">
        <ele>1963.9</ele>
        <time>2020-11-11T17:32:37Z</time>
      </trkpt>
      <trkpt lat="28.3173200" lon="-16.5080300">
        <ele>1963.9</ele>
        <time>2020-11-11T17:32:38Z</time>
      </trkpt>
      <trkpt lat="28.3172830" lon="-16.5079950">
        <ele>1963.9</ele>
        <time>2020-11-11T17:32:39Z</time>
      </trkpt>
      <trkpt lat="28.3172830" lon="-16.5079950">
        <ele>1963.9</ele>
        <time>2020-11-11T17:32:40Z</time>
      </trkpt>
      <trkpt lat="28.3172450" lon="-16.5079570">
        <ele>1963.9</ele>
        <time>2020-11-11T17:32:41Z</time>
      </trkpt>
      <trkpt lat="28.3172450" lon="-16.5079570">
        <ele>1963.9</ele>
        <time>2020-11-11T17:32:42Z</time>
      </trkpt>
      <trkpt lat="28.3172120" lon="-16.5079170">
        <ele>1963.9</ele>
        <time>2020-11-11T17:32:43Z</time>
      </trkpt>
      <trkpt lat="28.3172120" lon="-16.5079170">
        <ele>1963.9</ele>
        <time>2020-11-11T17:32:44Z</time>
      </trkpt>
      <trkpt lat="28.3171770" lon="-16.5078770">
        <ele>1963.9</ele>
        <time>2020-11-11T17:32:45Z</time>
      </trkpt>
      <trkpt lat="28.3171580" lon="-16.5078570">
        <ele>1963.9</ele>
        <time>2020-11-11T17:32:46Z</time>
      </trkpt>
      <trkpt lat="28.3171430" lon="-16.5078380">
        <ele>1963.9</ele>
        <time>2020-11-11T17:32:47Z</time>
      </trkpt>
      <trkpt lat="28.3171430" lon="-16.5078380">
        <ele>1963.9</ele>
        <time>2020-11-11T17:32:48Z</time>
      </trkpt>
      <trkpt lat="28.3171100" lon="-16.5077970">
        <ele>1963.9</ele>
        <time>2020-11-11T17:32:49Z</time>
      </trkpt>
      <trkpt lat="28.3171100" lon="-16.5077970">
        <ele>1963.9</ele>
        <time>2020-11-11T17:32:50Z</time>
      </trkpt>
      <trkpt lat="28.3170800" lon="-16.5077550">
        <ele>1963.9</ele>
        <time>2020-11-11T17:32:51Z</time>
      </trkpt>
      <trkpt lat="28.3170800" lon="-16.5077550">
        <ele>1963.9</ele>
        <time>2020-11-11T17:32:52Z</time>
      </trkpt>
      <trkpt lat="28.3170500" lon="-16.5077130">
        <ele>1963.9</ele>
        <time>2020-11-11T17:32:53Z</time>
      </trkpt>
      <trkpt lat="28.3170500" lon="-16.5077130">
        <ele>1963.9</ele>
        <time>2020-11-11T17:32:54Z</time>
      </trkpt>
      <trkpt lat="28.3170220" lon="-16.5076630">
        <ele>1963.9</ele>
        <time>2020-11-11T17:32:55Z</time>
      </trkpt>
      <trkpt lat="28.3170220" lon="-16.5076630">
        <ele>1963.9</ele>
        <time>2020-11-11T17:32:56Z</time>
      </trkpt>
      <trkpt lat="28.3170030" lon="-16.5076020">
        <ele>1963.9</ele>
        <time>2020-11-11T17:32:57Z</time>
      </trkpt>
      <trkpt lat="28.3170070" lon="-16.5075630">
        <ele>1963.9</ele>
        <time>2020-11-11T17:32:58Z</time>
      </trkpt>
      <trkpt lat="28.3170070" lon="-16.5075630">
        <ele>1963.9</ele>
        <time>2020-11-11T17:32:59Z</time>
      </trkpt>
      <trkpt lat="28.3170200" lon="-16.5075020">
        <ele>1963.9</ele>
        <time>2020-11-11T17:33:00Z</time>
      </trkpt>
      <trkpt lat="28.3170200" lon="-16.5075020">
        <ele>1963.9</ele>
        <time>2020-11-11T17:33:01Z</time>
      </trkpt>
      <trkpt lat="28.3170570" lon="-16.5074580">
        <ele>1964.9</ele>
        <time>2020-11-11T17:33:02Z</time>
      </trkpt>
      <trkpt lat="28.3170570" lon="-16.5074580">
        <ele>1964.9</ele>
        <time>2020-11-11T17:33:03Z</time>
      </trkpt>
      <trkpt lat="28.3171030" lon="-16.5074330">
        <ele>1964.9</ele>
        <time>2020-11-11T17:33:04Z</time>
      </trkpt>
      <trkpt lat="28.3171030" lon="-16.5074330">
        <ele>1964.9</ele>
        <time>2020-11-11T17:33:05Z</time>
      </trkpt>
      <trkpt lat="28.3171530" lon="-16.5074320">
        <ele>1964.9</ele>
        <time>2020-11-11T17:33:06Z</time>
      </trkpt>
      <trkpt lat="28.3171530" lon="-16.5074320">
        <ele>1964.9</ele>
        <time>2020-11-11T17:33:07Z</time>
      </trkpt>
      <trkpt lat="28.3172070" lon="-16.5074480">
        <ele>1964.9</ele>
        <time>2020-11-11T17:33:08Z</time>
      </trkpt>
      <trkpt lat="28.3172350" lon="-16.5074620">
        <ele>1964.9</ele>
        <time>2020-11-11T17:33:09Z</time>
      </trkpt>
      <trkpt lat="28.3172350" lon="-16.5074620">
        <ele>1964.9</ele>
        <time>2020-11-11T17:33:10Z</time>
      </trkpt>
      <trkpt lat="28.3172830" lon="-16.5074880">
        <ele>1965.9</ele>
        <time>2020-11-11T17:33:11Z</time>
      </trkpt>
      <trkpt lat="28.3172830" lon="-16.5074880">
        <ele>1965.9</ele>
        <time>2020-11-11T17:33:12Z</time>
      </trkpt>
      <trkpt lat="28.3173270" lon="-16.5075130">
        <ele>1965.9</ele>
        <time>2020-11-11T17:33:13Z</time>
      </trkpt>
      <trkpt lat="28.3173270" lon="-16.5075130">
        <ele>1965.9</ele>
        <time>2020-11-11T17:33:14Z</time>
      </trkpt>
      <trkpt lat="28.3173720" lon="-16.5075270">
        <ele>1966.9</ele>
        <time>2020-11-11T17:33:15Z</time>
      </trkpt>
      <trkpt lat="28.3173720" lon="-16.5075270">
        <ele>1966.9</ele>
        <time>2020-11-11T17:33:16Z</time>
      </trkpt>
      <trkpt lat="28.3174250" lon="-16.5075280">
        <ele>1966.9</ele>
        <time>2020-11-11T17:33:17Z</time>
      </trkpt>
      <trkpt lat="28.3174250" lon="-16.5075280">
        <ele>1966.9</ele>
        <time>2020-11-11T17:33:18Z</time>
      </trkpt>
      <trkpt lat="28.3174750" lon="-16.5075180">
        <ele>1967.9</ele>
        <time>2020-11-11T17:33:19Z</time>
      </trkpt>
      <trkpt lat="28.3174750" lon="-16.5075180">
        <ele>1967.9</ele>
        <time>2020-11-11T17:33:20Z</time>
      </trkpt>
      <trkpt lat="28.3175270" lon="-16.5075030">
        <ele>1967.9</ele>
        <time>2020-11-11T17:33:21Z</time>
      </trkpt>
      <trkpt lat="28.3175550" lon="-16.5074900">
        <ele>1967.9</ele>
        <time>2020-11-11T17:33:22Z</time>
      </trkpt>
      <trkpt lat="28.3175550" lon="-16.5074900">
        <ele>1967.9</ele>
        <time>2020-11-11T17:33:23Z</time>
      </trkpt>
      <trkpt lat="28.3176070" lon="-16.5074630">
        <ele>1967.9</ele>
        <time>2020-11-11T17:33:24Z</time>
      </trkpt>
      <trkpt lat="28.3176070" lon="-16.5074630">
        <ele>1967.9</ele>
        <time>2020-11-11T17:33:25Z</time>
      </trkpt>
      <trkpt lat="28.3176580" lon="-16.5074380">
        <ele>1967.9</ele>
        <time>2020-11-11T17:33:26Z</time>
      </trkpt>
      <trkpt lat="28.3176580" lon="-16.5074380">
        <ele>1967.9</ele>
        <time>2020-11-11T17:33:27Z</time>
      </trkpt>
      <trkpt lat="28.3177000" lon="-16.5074180">
        <ele>1967.9</ele>
        <time>2020-11-11T17:33:28Z</time>
      </trkpt>
      <trkpt lat="28.3177000" lon="-16.5074180">
        <ele>1968.9</ele>
        <time>2020-11-11T17:33:29Z</time>
      </trkpt>
      <trkpt lat="28.3177400" lon="-16.5074000">
        <ele>1968.9</ele>
        <time>2020-11-11T17:33:30Z</time>
      </trkpt>
      <trkpt lat="28.3177400" lon="-16.5074000">
        <ele>1968.9</ele>
        <time>2020-11-11T17:33:31Z</time>
      </trkpt>
      <trkpt lat="28.3177870" lon="-16.5073870">
        <ele>1968.9</ele>
        <time>2020-11-11T17:33:32Z</time>
      </trkpt>
      <trkpt lat="28.3177870" lon="-16.5073870">
        <ele>1968.9</ele>
        <time>2020-11-11T17:33:33Z</time>
      </trkpt>
      <trkpt lat="28.3178320" lon="-16.5073750">
        <ele>1968.9</ele>
        <time>2020-11-11T17:33:34Z</time>
      </trkpt>
      <trkpt lat="28.3178320" lon="-16.5073750">
        <ele>1968.9</ele>
        <time>2020-11-11T17:33:35Z</time>
      </trkpt>
      <trkpt lat="28.3178830" lon="-16.5073620">
        <ele>1968.9</ele>
        <time>2020-11-11T17:33:36Z</time>
      </trkpt>
      <trkpt lat="28.3178830" lon="-16.5073620">
        <ele>1968.9</ele>
        <time>2020-11-11T17:33:37Z</time>
      </trkpt>
      <trkpt lat="28.3179270" lon="-16.5073470">
        <ele>1968.9</ele>
        <time>2020-11-11T17:33:38Z</time>
      </trkpt>
      <trkpt lat="28.3179270" lon="-16.5073470">
        <ele>1968.9</ele>
        <time>2020-11-11T17:33:39Z</time>
      </trkpt>
      <trkpt lat="28.3179670" lon="-16.5073300">
        <ele>1969.9</ele>
        <time>2020-11-11T17:33:40Z</time>
      </trkpt>
      <trkpt lat="28.3179670" lon="-16.5073300">
        <ele>1969.9</ele>
        <time>2020-11-11T17:33:41Z</time>
      </trkpt>
      <trkpt lat="28.3180050" lon="-16.5073120">
        <ele>1969.9</ele>
        <time>2020-11-11T17:33:42Z</time>
      </trkpt>
      <trkpt lat="28.3180220" lon="-16.5073030">
        <ele>1969.9</ele>
        <time>2020-11-11T17:33:43Z</time>
      </trkpt>
      <trkpt lat="28.3180220" lon="-16.5073030">
        <ele>1969.9</ele>
        <time>2020-11-11T17:33:44Z</time>
      </trkpt>
      <trkpt lat="28.3180600" lon="-16.5072800">
        <ele>1969.9</ele>
        <time>2020-11-11T17:33:45Z</time>
      </trkpt>
      <trkpt lat="28.3180600" lon="-16.5072800">
        <ele>1969.9</ele>
        <time>2020-11-11T17:33:46Z</time>
      </trkpt>
      <trkpt lat="28.3180950" lon="-16.5072600">
        <ele>1970.9</ele>
        <time>2020-11-11T17:33:47Z</time>
      </trkpt>
      <trkpt lat="28.3180950" lon="-16.5072600">
        <ele>1970.9</ele>
        <time>2020-11-11T17:33:48Z</time>
      </trkpt>
      <trkpt lat="28.3181280" lon="-16.5072320">
        <ele>1970.9</ele>
        <time>2020-11-11T17:33:49Z</time>
      </trkpt>
      <trkpt lat="28.3181280" lon="-16.5072320">
        <ele>1970.9</ele>
        <time>2020-11-11T17:33:50Z</time>
      </trkpt>
      <trkpt lat="28.3181530" lon="-16.5071970">
        <ele>1970.9</ele>
        <time>2020-11-11T17:33:51Z</time>
      </trkpt>
      <trkpt lat="28.3181530" lon="-16.5071970">
        <ele>1970.9</ele>
        <time>2020-11-11T17:33:52Z</time>
      </trkpt>
      <trkpt lat="28.3181820" lon="-16.5071700">
        <ele>1971.9</ele>
        <time>2020-11-11T17:33:53Z</time>
      </trkpt>
      <trkpt lat="28.3181820" lon="-16.5071700">
        <ele>1971.9</ele>
        <time>2020-11-11T17:33:54Z</time>
      </trkpt>
      <trkpt lat="28.3182150" lon="-16.5071430">
        <ele>1971.9</ele>
        <time>2020-11-11T17:33:55Z</time>
      </trkpt>
      <trkpt lat="28.3182150" lon="-16.5071430">
        <ele>1971.9</ele>
        <time>2020-11-11T17:33:56Z</time>
      </trkpt>
      <trkpt lat="28.3182530" lon="-16.5071170">
        <ele>1971.9</ele>
        <time>2020-11-11T17:33:57Z</time>
      </trkpt>
      <trkpt lat="28.3182730" lon="-16.5071020">
        <ele>1971.9</ele>
        <time>2020-11-11T17:33:58Z</time>
      </trkpt>
      <trkpt lat="28.3182730" lon="-16.5071020">
        <ele>1972.9</ele>
        <time>2020-11-11T17:33:59Z</time>
      </trkpt>
      <trkpt lat="28.3183120" lon="-16.5070730">
        <ele>1972.9</ele>
        <time>2020-11-11T17:34:00Z</time>
      </trkpt>
      <trkpt lat="28.3183300" lon="-16.5070630">
        <ele>1972.9</ele>
        <time>2020-11-11T17:34:01Z</time>
      </trkpt>
      <trkpt lat="28.3183300" lon="-16.5070630">
        <ele>1972.9</ele>
        <time>2020-11-11T17:34:02Z</time>
      </trkpt>
      <trkpt lat="28.3183650" lon="-16.5070370">
        <ele>1972.9</ele>
        <time>2020-11-11T17:34:03Z</time>
      </trkpt>
      <trkpt lat="28.3183820" lon="-16.5070220">
        <ele>1973.9</ele>
        <time>2020-11-11T17:34:04Z</time>
      </trkpt>
      <trkpt lat="28.3183820" lon="-16.5070220">
        <ele>1973.9</ele>
        <time>2020-11-11T17:34:05Z</time>
      </trkpt>
      <trkpt lat="28.3184180" lon="-16.5069970">
        <ele>1973.9</ele>
        <time>2020-11-11T17:34:06Z</time>
      </trkpt>
      <trkpt lat="28.3184350" lon="-16.5069830">
        <ele>1973.9</ele>
        <time>2020-11-11T17:34:07Z</time>
      </trkpt>
      <trkpt lat="28.3184350" lon="-16.5069830">
        <ele>1973.9</ele>
        <time>2020-11-11T17:34:08Z</time>
      </trkpt>
      <trkpt lat="28.3184700" lon="-16.5069570">
        <ele>1973.9</ele>
        <time>2020-11-11T17:34:09Z</time>
      </trkpt>
      <trkpt lat="28.3184850" lon="-16.5069420">
        <ele>1973.9</ele>
        <time>2020-11-11T17:34:10Z</time>
      </trkpt>
      <trkpt lat="28.3184850" lon="-16.5069420">
        <ele>1973.9</ele>
        <time>2020-11-11T17:34:11Z</time>
      </trkpt>
      <trkpt lat="28.3185170" lon="-16.5069150">
        <ele>1973.9</ele>
        <time>2020-11-11T17:34:12Z</time>
      </trkpt>
      <trkpt lat="28.3185170" lon="-16.5069150">
        <ele>1974.9</ele>
        <time>2020-11-11T17:34:13Z</time>
      </trkpt>
      <trkpt lat="28.3185500" lon="-16.5068920">
        <ele>1974.9</ele>
        <time>2020-11-11T17:34:14Z</time>
      </trkpt>
      <trkpt lat="28.3185500" lon="-16.5068920">
        <ele>1974.9</ele>
        <time>2020-11-11T17:34:15Z</time>
      </trkpt>
      <trkpt lat="28.3185800" lon="-16.5068670">
        <ele>1974.9</ele>
        <time>2020-11-11T17:34:16Z</time>
      </trkpt>
      <trkpt lat="28.3185950" lon="-16.5068520">
        <ele>1975.9</ele>
        <time>2020-11-11T17:34:17Z</time>
      </trkpt>
      <trkpt lat="28.3185950" lon="-16.5068520">
        <ele>1975.9</ele>
        <time>2020-11-11T17:34:18Z</time>
      </trkpt>
      <trkpt lat="28.3186250" lon="-16.5068280">
        <ele>1975.9</ele>
        <time>2020-11-11T17:34:19Z</time>
      </trkpt>
      <trkpt lat="28.3186250" lon="-16.5068280">
        <ele>1975.9</ele>
        <time>2020-11-11T17:34:20Z</time>
      </trkpt>
      <trkpt lat="28.3186550" lon="-16.5068000">
        <ele>1975.9</ele>
        <time>2020-11-11T17:34:21Z</time>
      </trkpt>
      <trkpt lat="28.3186720" lon="-16.5067880">
        <ele>1975.9</ele>
        <time>2020-11-11T17:34:22Z</time>
      </trkpt>
      <trkpt lat="28.3186720" lon="-16.5067880">
        <ele>1975.9</ele>
        <time>2020-11-11T17:34:23Z</time>
      </trkpt>
      <trkpt lat="28.3187020" lon="-16.5067570">
        <ele>1975.9</ele>
        <time>2020-11-11T17:34:24Z</time>
      </trkpt>
      <trkpt lat="28.3187020" lon="-16.5067570">
        <ele>1976.9</ele>
        <time>2020-11-11T17:34:25Z</time>
      </trkpt>
      <trkpt lat="28.3187330" lon="-16.5067280">
        <ele>1976.9</ele>
        <time>2020-11-11T17:34:26Z</time>
      </trkpt>
      <trkpt lat="28.3187330" lon="-16.5067280">
        <ele>1976.9</ele>
        <time>2020-11-11T17:34:27Z</time>
      </trkpt>
      <trkpt lat="28.3187550" lon="-16.5066950">
        <ele>1976.9</ele>
        <time>2020-11-11T17:34:28Z</time>
      </trkpt>
      <trkpt lat="28.3187550" lon="-16.5066950">
        <ele>1977.9</ele>
        <time>2020-11-11T17:34:29Z</time>
      </trkpt>
      <trkpt lat="28.3187770" lon="-16.5066600">
        <ele>1977.9</ele>
        <time>2020-11-11T17:34:30Z</time>
      </trkpt>
      <trkpt lat="28.3187870" lon="-16.5066430">
        <ele>1977.9</ele>
        <time>2020-11-11T17:34:31Z</time>
      </trkpt>
      <trkpt lat="28.3187870" lon="-16.5066430">
        <ele>1977.9</ele>
        <time>2020-11-11T17:34:32Z</time>
      </trkpt>
      <trkpt lat="28.3188000" lon="-16.5066220">
        <ele>1977.9</ele>
        <time>2020-11-11T17:34:33Z</time>
      </trkpt>
      <trkpt lat="28.3188000" lon="-16.5066220">
        <ele>1977.9</ele>
        <time>2020-11-11T17:34:34Z</time>
      </trkpt>
      <trkpt lat="28.3188000" lon="-16.5066200">
        <ele>1977.9</ele>
        <time>2020-11-11T17:35:50Z</time>
      </trkpt>
      <trkpt lat="28.3188050" lon="-16.5065770">
        <ele>1977.9</ele>
        <time>2020-11-11T17:35:51Z</time>
      </trkpt>
      <trkpt lat="28.3188050" lon="-16.5065770">
        <ele>1978.9</ele>
        <time>2020-11-11T17:35:52Z</time>
      </trkpt>
      <trkpt lat="28.3188130" lon="-16.5065250">
        <ele>1978.9</ele>
        <time>2020-11-11T17:35:53Z</time>
      </trkpt>
      <trkpt lat="28.3188130" lon="-16.5065250">
        <ele>1978.9</ele>
        <time>2020-11-11T17:35:54Z</time>
      </trkpt>
      <trkpt lat="28.3188230" lon="-16.5064770">
        <ele>1978.9</ele>
        <time>2020-11-11T17:35:55Z</time>
      </trkpt>
      <trkpt lat="28.3188230" lon="-16.5064770">
        <ele>1978.9</ele>
        <time>2020-11-11T17:35:56Z</time>
      </trkpt>
      <trkpt lat="28.3188420" lon="-16.5064320">
        <ele>1978.9</ele>
        <time>2020-11-11T17:35:57Z</time>
      </trkpt>
      <trkpt lat="28.3188420" lon="-16.5064320">
        <ele>1978.9</ele>
        <time>2020-11-11T17:35:58Z</time>
      </trkpt>
      <trkpt lat="28.3188630" lon="-16.5063930">
        <ele>1978.9</ele>
        <time>2020-11-11T17:35:59Z</time>
      </trkpt>
      <trkpt lat="28.3188630" lon="-16.5063930">
        <ele>1978.9</ele>
        <time>2020-11-11T17:36:00Z</time>
      </trkpt>
      <trkpt lat="28.3188920" lon="-16.5063670">
        <ele>1978.9</ele>
        <time>2020-11-11T17:36:01Z</time>
      </trkpt>
      <trkpt lat="28.3188920" lon="-16.5063670">
        <ele>1978.9</ele>
        <time>2020-11-11T17:36:02Z</time>
      </trkpt>
      <trkpt lat="28.3189330" lon="-16.5063530">
        <ele>1978.9</ele>
        <time>2020-11-11T17:36:03Z</time>
      </trkpt>
      <trkpt lat="28.3189330" lon="-16.5063530">
        <ele>1978.9</ele>
        <time>2020-11-11T17:36:04Z</time>
      </trkpt>
      <trkpt lat="28.3189680" lon="-16.5063400">
        <ele>1978.9</ele>
        <time>2020-11-11T17:36:05Z</time>
      </trkpt>
      <trkpt lat="28.3189680" lon="-16.5063400">
        <ele>1979.9</ele>
        <time>2020-11-11T17:36:06Z</time>
      </trkpt>
      <trkpt lat="28.3190030" lon="-16.5063220">
        <ele>1979.9</ele>
        <time>2020-11-11T17:36:07Z</time>
      </trkpt>
      <trkpt lat="28.3190030" lon="-16.5063220">
        <ele>1979.9</ele>
        <time>2020-11-11T17:36:08Z</time>
      </trkpt>
      <trkpt lat="28.3190380" lon="-16.5063080">
        <ele>1979.9</ele>
        <time>2020-11-11T17:36:09Z</time>
      </trkpt>
      <trkpt lat="28.3190380" lon="-16.5063080">
        <ele>1979.9</ele>
        <time>2020-11-11T17:36:10Z</time>
      </trkpt>
      <trkpt lat="28.3190730" lon="-16.5062850">
        <ele>1980.9</ele>
        <time>2020-11-11T17:36:11Z</time>
      </trkpt>
      <trkpt lat="28.3190730" lon="-16.5062850">
        <ele>1980.9</ele>
        <time>2020-11-11T17:36:12Z</time>
      </trkpt>
      <trkpt lat="28.3191050" lon="-16.5062630">
        <ele>1980.9</ele>
        <time>2020-11-11T17:36:13Z</time>
      </trkpt>
      <trkpt lat="28.3191050" lon="-16.5062630">
        <ele>1980.9</ele>
        <time>2020-11-11T17:36:14Z</time>
      </trkpt>
      <trkpt lat="28.3191370" lon="-16.5062320">
        <ele>1980.9</ele>
        <time>2020-11-11T17:36:15Z</time>
      </trkpt>
      <trkpt lat="28.3191370" lon="-16.5062320">
        <ele>1980.9</ele>
        <time>2020-11-11T17:36:16Z</time>
      </trkpt>
      <trkpt lat="28.3191630" lon="-16.5062050">
        <ele>1981.9</ele>
        <time>2020-11-11T17:36:17Z</time>
      </trkpt>
      <trkpt lat="28.3191630" lon="-16.5062050">
        <ele>1981.9</ele>
        <time>2020-11-11T17:36:18Z</time>
      </trkpt>
      <trkpt lat="28.3191900" lon="-16.5061720">
        <ele>1981.9</ele>
        <time>2020-11-11T17:36:19Z</time>
      </trkpt>
      <trkpt lat="28.3191900" lon="-16.5061720">
        <ele>1981.9</ele>
        <time>2020-11-11T17:36:20Z</time>
      </trkpt>
      <trkpt lat="28.3192170" lon="-16.5061400">
        <ele>1981.9</ele>
        <time>2020-11-11T17:36:21Z</time>
      </trkpt>
      <trkpt lat="28.3192270" lon="-16.5061220">
        <ele>1981.9</ele>
        <time>2020-11-11T17:36:22Z</time>
      </trkpt>
      <trkpt lat="28.3192270" lon="-16.5061220">
        <ele>1981.9</ele>
        <time>2020-11-11T17:36:23Z</time>
      </trkpt>
      <trkpt lat="28.3192430" lon="-16.5060830">
        <ele>1981.9</ele>
        <time>2020-11-11T17:36:24Z</time>
      </trkpt>
      <trkpt lat="28.3192530" lon="-16.5060650">
        <ele>1982.9</ele>
        <time>2020-11-11T17:36:25Z</time>
      </trkpt>
      <trkpt lat="28.3192530" lon="-16.5060650">
        <ele>1982.9</ele>
        <time>2020-11-11T17:36:26Z</time>
      </trkpt>
      <trkpt lat="28.3192720" lon="-16.5060230">
        <ele>1982.9</ele>
        <time>2020-11-11T17:36:27Z</time>
      </trkpt>
      <trkpt lat="28.3192820" lon="-16.5060030">
        <ele>1982.9</ele>
        <time>2020-11-11T17:36:28Z</time>
      </trkpt>
      <trkpt lat="28.3192820" lon="-16.5060030">
        <ele>1983.9</ele>
        <time>2020-11-11T17:36:29Z</time>
      </trkpt>
      <trkpt lat="28.3193000" lon="-16.5059730">
        <ele>1983.9</ele>
        <time>2020-11-11T17:36:30Z</time>
      </trkpt>
      <trkpt lat="28.3193130" lon="-16.5059580">
        <ele>1983.9</ele>
        <time>2020-11-11T17:36:31Z</time>
      </trkpt>
      <trkpt lat="28.3193130" lon="-16.5059580">
        <ele>1983.9</ele>
        <time>2020-11-11T17:36:32Z</time>
      </trkpt>
      <trkpt lat="28.3193380" lon="-16.5059320">
        <ele>1983.9</ele>
        <time>2020-11-11T17:36:33Z</time>
      </trkpt>
      <trkpt lat="28.3193550" lon="-16.5059180">
        <ele>1983.9</ele>
        <time>2020-11-11T17:36:34Z</time>
      </trkpt>
      <trkpt lat="28.3193550" lon="-16.5059180">
        <ele>1984.9</ele>
        <time>2020-11-11T17:36:35Z</time>
      </trkpt>
      <trkpt lat="28.3193850" lon="-16.5058930">
        <ele>1984.9</ele>
        <time>2020-11-11T17:36:36Z</time>
      </trkpt>
      <trkpt lat="28.3193850" lon="-16.5058930">
        <ele>1984.9</ele>
        <time>2020-11-11T17:36:37Z</time>
      </trkpt>
      <trkpt lat="28.3194150" lon="-16.5058620">
        <ele>1984.9</ele>
        <time>2020-11-11T17:36:38Z</time>
      </trkpt>
      <trkpt lat="28.3194150" lon="-16.5058620">
        <ele>1984.9</ele>
        <time>2020-11-11T17:36:39Z</time>
      </trkpt>
      <trkpt lat="28.3194420" lon="-16.5058300">
        <ele>1984.9</ele>
        <time>2020-11-11T17:36:40Z</time>
      </trkpt>
      <trkpt lat="28.3194420" lon="-16.5058300">
        <ele>1984.9</ele>
        <time>2020-11-11T17:36:41Z</time>
      </trkpt>
      <trkpt lat="28.3194650" lon="-16.5057930">
        <ele>1984.9</ele>
        <time>2020-11-11T17:36:42Z</time>
      </trkpt>
      <trkpt lat="28.3194750" lon="-16.5057750">
        <ele>1984.9</ele>
        <time>2020-11-11T17:36:43Z</time>
      </trkpt>
      <trkpt lat="28.3194750" lon="-16.5057750">
        <ele>1984.9</ele>
        <time>2020-11-11T17:36:44Z</time>
      </trkpt>
      <trkpt lat="28.3195000" lon="-16.5057380">
        <ele>1984.9</ele>
        <time>2020-11-11T17:36:45Z</time>
      </trkpt>
      <trkpt lat="28.3195130" lon="-16.5057200">
        <ele>1984.9</ele>
        <time>2020-11-11T17:36:46Z</time>
      </trkpt>
      <trkpt lat="28.3195130" lon="-16.5057200">
        <ele>1985.9</ele>
        <time>2020-11-11T17:36:47Z</time>
      </trkpt>
      <trkpt lat="28.3195370" lon="-16.5056850">
        <ele>1985.9</ele>
        <time>2020-11-11T17:36:48Z</time>
      </trkpt>
      <trkpt lat="28.3195370" lon="-16.5056850">
        <ele>1985.9</ele>
        <time>2020-11-11T17:36:49Z</time>
      </trkpt>
      <trkpt lat="28.3195600" lon="-16.5056530">
        <ele>1985.9</ele>
        <time>2020-11-11T17:36:50Z</time>
      </trkpt>
      <trkpt lat="28.3195600" lon="-16.5056530">
        <ele>1985.9</ele>
        <time>2020-11-11T17:36:51Z</time>
      </trkpt>
      <trkpt lat="28.3195830" lon="-16.5056200">
        <ele>1986.9</ele>
        <time>2020-11-11T17:36:52Z</time>
      </trkpt>
      <trkpt lat="28.3195830" lon="-16.5056200">
        <ele>1986.9</ele>
        <time>2020-11-11T17:36:53Z</time>
      </trkpt>
      <trkpt lat="28.3196020" lon="-16.5055850">
        <ele>1986.9</ele>
        <time>2020-11-11T17:36:54Z</time>
      </trkpt>
      <trkpt lat="28.3196080" lon="-16.5055670">
        <ele>1986.9</ele>
        <time>2020-11-11T17:36:55Z</time>
      </trkpt>
      <trkpt lat="28.3196080" lon="-16.5055670">
        <ele>1986.9</ele>
        <time>2020-11-11T17:36:56Z</time>
      </trkpt>
      <trkpt lat="28.3196220" lon="-16.5055300">
        <ele>1986.9</ele>
        <time>2020-11-11T17:36:57Z</time>
      </trkpt>
      <trkpt lat="28.3196220" lon="-16.5055300">
        <ele>1986.9</ele>
        <time>2020-11-11T17:36:58Z</time>
      </trkpt>
      <trkpt lat="28.3196350" lon="-16.5054970">
        <ele>1986.9</ele>
        <time>2020-11-11T17:36:59Z</time>
      </trkpt>
      <trkpt lat="28.3196350" lon="-16.5054970">
        <ele>1986.9</ele>
        <time>2020-11-11T17:37:00Z</time>
      </trkpt>
      <trkpt lat="28.3196480" lon="-16.5054630">
        <ele>1986.9</ele>
        <time>2020-11-11T17:37:01Z</time>
      </trkpt>
      <trkpt lat="28.3196480" lon="-16.5054630">
        <ele>1986.9</ele>
        <time>2020-11-11T17:37:02Z</time>
      </trkpt>
      <trkpt lat="28.3196580" lon="-16.5054150">
        <ele>1986.9</ele>
        <time>2020-11-11T17:37:03Z</time>
      </trkpt>
      <trkpt lat="28.3196580" lon="-16.5054150">
        <ele>1986.9</ele>
        <time>2020-11-11T17:37:04Z</time>
      </trkpt>
      <trkpt lat="28.3196550" lon="-16.5053670">
        <ele>1986.9</ele>
        <time>2020-11-11T17:37:05Z</time>
      </trkpt>
      <trkpt lat="28.3196550" lon="-16.5053670">
        <ele>1987.9</ele>
        <time>2020-11-11T17:37:06Z</time>
      </trkpt>
      <trkpt lat="28.3196430" lon="-16.5053200">
        <ele>1987.9</ele>
        <time>2020-11-11T17:37:07Z</time>
      </trkpt>
      <trkpt lat="28.3196430" lon="-16.5053200">
        <ele>1987.9</ele>
        <time>2020-11-11T17:37:08Z</time>
      </trkpt>
      <trkpt lat="28.3196250" lon="-16.5052770">
        <ele>1987.9</ele>
        <time>2020-11-11T17:37:09Z</time>
      </trkpt>
      <trkpt lat="28.3196250" lon="-16.5052770">
        <ele>1987.9</ele>
        <time>2020-11-11T17:37:10Z</time>
      </trkpt>
      <trkpt lat="28.3196030" lon="-16.5052370">
        <ele>1987.9</ele>
        <time>2020-11-11T17:37:11Z</time>
      </trkpt>
      <trkpt lat="28.3196030" lon="-16.5052370">
        <ele>1988.9</ele>
        <time>2020-11-11T17:37:12Z</time>
      </trkpt>
      <trkpt lat="28.3195720" lon="-16.5052000">
        <ele>1988.9</ele>
        <time>2020-11-11T17:37:13Z</time>
      </trkpt>
      <trkpt lat="28.3195720" lon="-16.5052000">
        <ele>1988.9</ele>
        <time>2020-11-11T17:37:14Z</time>
      </trkpt>
      <trkpt lat="28.3195380" lon="-16.5051680">
        <ele>1988.9</ele>
        <time>2020-11-11T17:37:15Z</time>
      </trkpt>
      <trkpt lat="28.3195380" lon="-16.5051680">
        <ele>1989.9</ele>
        <time>2020-11-11T17:37:16Z</time>
      </trkpt>
      <trkpt lat="28.3194980" lon="-16.5051430">
        <ele>1989.9</ele>
        <time>2020-11-11T17:37:17Z</time>
      </trkpt>
      <trkpt lat="28.3194980" lon="-16.5051430">
        <ele>1989.9</ele>
        <time>2020-11-11T17:37:18Z</time>
      </trkpt>
      <trkpt lat="28.3194580" lon="-16.5051200">
        <ele>1989.9</ele>
        <time>2020-11-11T17:37:19Z</time>
      </trkpt>
      <trkpt lat="28.3194580" lon="-16.5051200">
        <ele>1989.9</ele>
        <time>2020-11-11T17:37:20Z</time>
      </trkpt>
      <trkpt lat="28.3194170" lon="-16.5051020">
        <ele>1989.9</ele>
        <time>2020-11-11T17:37:21Z</time>
      </trkpt>
      <trkpt lat="28.3194170" lon="-16.5051020">
        <ele>1989.9</ele>
        <time>2020-11-11T17:37:22Z</time>
      </trkpt>
      <trkpt lat="28.3193730" lon="-16.5050870">
        <ele>1989.9</ele>
        <time>2020-11-11T17:37:23Z</time>
      </trkpt>
      <trkpt lat="28.3193730" lon="-16.5050870">
        <ele>1989.9</ele>
        <time>2020-11-11T17:37:24Z</time>
      </trkpt>
      <trkpt lat="28.3193300" lon="-16.5050720">
        <ele>1990.9</ele>
        <time>2020-11-11T17:37:25Z</time>
      </trkpt>
      <trkpt lat="28.3193300" lon="-16.5050720">
        <ele>1990.9</ele>
        <time>2020-11-11T17:37:26Z</time>
      </trkpt>
      <trkpt lat="28.3192850" lon="-16.5050550">
        <ele>1990.9</ele>
        <time>2020-11-11T17:37:27Z</time>
      </trkpt>
      <trkpt lat="28.3192850" lon="-16.5050550">
        <ele>1990.9</ele>
        <time>2020-11-11T17:37:28Z</time>
      </trkpt>
      <trkpt lat="28.3192400" lon="-16.5050330">
        <ele>1990.9</ele>
        <time>2020-11-11T17:37:29Z</time>
      </trkpt>
      <trkpt lat="28.3192400" lon="-16.5050330">
        <ele>1990.9</ele>
        <time>2020-11-11T17:37:30Z</time>
      </trkpt>
      <trkpt lat="28.3191980" lon="-16.5050100">
        <ele>1990.9</ele>
        <time>2020-11-11T17:37:31Z</time>
      </trkpt>
      <trkpt lat="28.3191980" lon="-16.5050100">
        <ele>1990.9</ele>
        <time>2020-11-11T17:37:32Z</time>
      </trkpt>
      <trkpt lat="28.3191530" lon="-16.5049920">
        <ele>1990.9</ele>
        <time>2020-11-11T17:37:33Z</time>
      </trkpt>
      <trkpt lat="28.3191530" lon="-16.5049920">
        <ele>1990.9</ele>
        <time>2020-11-11T17:37:34Z</time>
      </trkpt>
      <trkpt lat="28.3191120" lon="-16.5049750">
        <ele>1990.9</ele>
        <time>2020-11-11T17:37:35Z</time>
      </trkpt>
      <trkpt lat="28.3191120" lon="-16.5049750">
        <ele>1990.9</ele>
        <time>2020-11-11T17:37:36Z</time>
      </trkpt>
      <trkpt lat="28.3190680" lon="-16.5049600">
        <ele>1990.9</ele>
        <time>2020-11-11T17:37:37Z</time>
      </trkpt>
      <trkpt lat="28.3190680" lon="-16.5049600">
        <ele>1990.9</ele>
        <time>2020-11-11T17:37:38Z</time>
      </trkpt>
      <trkpt lat="28.3190300" lon="-16.5049430">
        <ele>1990.9</ele>
        <time>2020-11-11T17:37:39Z</time>
      </trkpt>
      <trkpt lat="28.3190300" lon="-16.5049430">
        <ele>1990.9</ele>
        <time>2020-11-11T17:37:40Z</time>
      </trkpt>
      <trkpt lat="28.3189920" lon="-16.5049250">
        <ele>1990.9</ele>
        <time>2020-11-11T17:37:41Z</time>
      </trkpt>
      <trkpt lat="28.3189920" lon="-16.5049250">
        <ele>1990.9</ele>
        <time>2020-11-11T17:37:42Z</time>
      </trkpt>
      <trkpt lat="28.3189500" lon="-16.5049080">
        <ele>1990.9</ele>
        <time>2020-11-11T17:37:43Z</time>
      </trkpt>
      <trkpt lat="28.3189500" lon="-16.5049080">
        <ele>1990.9</ele>
        <time>2020-11-11T17:37:44Z</time>
      </trkpt>
      <trkpt lat="28.3189070" lon="-16.5048920">
        <ele>1990.9</ele>
        <time>2020-11-11T17:37:45Z</time>
      </trkpt>
      <trkpt lat="28.3189070" lon="-16.5048920">
        <ele>1990.9</ele>
        <time>2020-11-11T17:37:46Z</time>
      </trkpt>
      <trkpt lat="28.3188630" lon="-16.5048750">
        <ele>1990.9</ele>
        <time>2020-11-11T17:37:47Z</time>
      </trkpt>
      <trkpt lat="28.3188400" lon="-16.5048670">
        <ele>1990.9</ele>
        <time>2020-11-11T17:37:48Z</time>
      </trkpt>
      <trkpt lat="28.3188400" lon="-16.5048670">
        <ele>1990.9</ele>
        <time>2020-11-11T17:37:49Z</time>
      </trkpt>
      <trkpt lat="28.3187970" lon="-16.5048380">
        <ele>1990.9</ele>
        <time>2020-11-11T17:37:50Z</time>
      </trkpt>
      <trkpt lat="28.3187970" lon="-16.5048380">
        <ele>1991.9</ele>
        <time>2020-11-11T17:37:51Z</time>
      </trkpt>
      <trkpt lat="28.3187430" lon="-16.5048070">
        <ele>1991.9</ele>
        <time>2020-11-11T17:37:52Z</time>
      </trkpt>
      <trkpt lat="28.3187180" lon="-16.5047900">
        <ele>1991.9</ele>
        <time>2020-11-11T17:37:53Z</time>
      </trkpt>
      <trkpt lat="28.3186920" lon="-16.5047720">
        <ele>1991.9</ele>
        <time>2020-11-11T17:37:54Z</time>
      </trkpt>
      <trkpt lat="28.3186680" lon="-16.5047550">
        <ele>1991.9</ele>
        <time>2020-11-11T17:37:55Z</time>
      </trkpt>
      <trkpt lat="28.3186680" lon="-16.5047550">
        <ele>1991.9</ele>
        <time>2020-11-11T17:37:56Z</time>
      </trkpt>
      <trkpt lat="28.3186320" lon="-16.5047180">
        <ele>1991.9</ele>
        <time>2020-11-11T17:37:57Z</time>
      </trkpt>
      <trkpt lat="28.3186150" lon="-16.5046950">
        <ele>1991.9</ele>
        <time>2020-11-11T17:37:58Z</time>
      </trkpt>
      <trkpt lat="28.3186150" lon="-16.5046950">
        <ele>1991.9</ele>
        <time>2020-11-11T17:37:59Z</time>
      </trkpt>
      <trkpt lat="28.3185820" lon="-16.5046520">
        <ele>1991.9</ele>
        <time>2020-11-11T17:38:00Z</time>
      </trkpt>
      <trkpt lat="28.3185620" lon="-16.5046330">
        <ele>1991.9</ele>
        <time>2020-11-11T17:38:01Z</time>
      </trkpt>
      <trkpt lat="28.3185620" lon="-16.5046330">
        <ele>1991.9</ele>
        <time>2020-11-11T17:38:02Z</time>
      </trkpt>
      <trkpt lat="28.3185380" lon="-16.5046030">
        <ele>1991.9</ele>
        <time>2020-11-11T17:38:03Z</time>
      </trkpt>
      <trkpt lat="28.3185380" lon="-16.5046030">
        <ele>1991.9</ele>
        <time>2020-11-11T17:38:04Z</time>
      </trkpt>
      <trkpt lat="28.3185250" lon="-16.5045820">
        <ele>1992.9</ele>
        <time>2020-11-11T17:38:05Z</time>
      </trkpt>
      <trkpt lat="28.3185250" lon="-16.5045820">
        <ele>1992.9</ele>
        <time>2020-11-11T17:38:06Z</time>
      </trkpt>
      <trkpt lat="28.3184950" lon="-16.5045480">
        <ele>1992.9</ele>
        <time>2020-11-11T17:38:07Z</time>
      </trkpt>
      <trkpt lat="28.3184950" lon="-16.5045480">
        <ele>1992.9</ele>
        <time>2020-11-11T17:38:08Z</time>
      </trkpt>
      <trkpt lat="28.3184530" lon="-16.5045000">
        <ele>1992.9</ele>
        <time>2020-11-11T17:38:09Z</time>
      </trkpt>
      <trkpt lat="28.3184370" lon="-16.5044720">
        <ele>1992.9</ele>
        <time>2020-11-11T17:38:10Z</time>
      </trkpt>
      <trkpt lat="28.3184370" lon="-16.5044720">
        <ele>1992.9</ele>
        <time>2020-11-11T17:38:11Z</time>
      </trkpt>
      <trkpt lat="28.3184180" lon="-16.5044070">
        <ele>1992.9</ele>
        <time>2020-11-11T17:38:12Z</time>
      </trkpt>
      <trkpt lat="28.3184180" lon="-16.5044070">
        <ele>1991.9</ele>
        <time>2020-11-11T17:38:13Z</time>
      </trkpt>
      <trkpt lat="28.3184550" lon="-16.5043420">
        <ele>1991.9</ele>
        <time>2020-11-11T17:38:14Z</time>
      </trkpt>
      <trkpt lat="28.3184550" lon="-16.5043420">
        <ele>1991.9</ele>
        <time>2020-11-11T17:38:15Z</time>
      </trkpt>
      <trkpt lat="28.3185020" lon="-16.5043150">
        <ele>1991.9</ele>
        <time>2020-11-11T17:38:16Z</time>
      </trkpt>
      <trkpt lat="28.3185020" lon="-16.5043150">
        <ele>1991.9</ele>
        <time>2020-11-11T17:38:17Z</time>
      </trkpt>
      <trkpt lat="28.3185150" lon="-16.5043050">
        <ele>1991.9</ele>
        <time>2020-11-11T17:38:18Z</time>
      </trkpt>
      <trkpt lat="28.3185150" lon="-16.5043050">
        <ele>1991.9</ele>
        <time>2020-11-11T17:38:19Z</time>
      </trkpt>
      <trkpt lat="28.3185150" lon="-16.5043050">
        <ele>1991.9</ele>
        <time>2020-11-11T17:38:20Z</time>
      </trkpt>
      <trkpt lat="28.3185150" lon="-16.5043050">
        <ele>1991.9</ele>
        <time>2020-11-11T17:38:38Z</time>
      </trkpt>
      <trkpt lat="28.3185720" lon="-16.5042920">
        <ele>1991.9</ele>
        <time>2020-11-11T17:38:39Z</time>
      </trkpt>
      <trkpt lat="28.3185720" lon="-16.5042920">
        <ele>1991.9</ele>
        <time>2020-11-11T17:38:40Z</time>
      </trkpt>
      <trkpt lat="28.3186150" lon="-16.5042980">
        <ele>1991.9</ele>
        <time>2020-11-11T17:38:41Z</time>
      </trkpt>
      <trkpt lat="28.3186370" lon="-16.5043020">
        <ele>1991.9</ele>
        <time>2020-11-11T17:38:42Z</time>
      </trkpt>
      <trkpt lat="28.3186370" lon="-16.5043020">
        <ele>1991.9</ele>
        <time>2020-11-11T17:38:43Z</time>
      </trkpt>
      <trkpt lat="28.3186820" lon="-16.5043070">
        <ele>1991.9</ele>
        <time>2020-11-11T17:38:44Z</time>
      </trkpt>
      <trkpt lat="28.3186820" lon="-16.5043070">
        <ele>1991.9</ele>
        <time>2020-11-11T17:38:45Z</time>
      </trkpt>
      <trkpt lat="28.3187380" lon="-16.5043150">
        <ele>1991.9</ele>
        <time>2020-11-11T17:38:46Z</time>
      </trkpt>
      <trkpt lat="28.3187680" lon="-16.5043130">
        <ele>1991.9</ele>
        <time>2020-11-11T17:38:47Z</time>
      </trkpt>
      <trkpt lat="28.3187680" lon="-16.5043130">
        <ele>1991.9</ele>
        <time>2020-11-11T17:38:48Z</time>
      </trkpt>
      <trkpt lat="28.3188220" lon="-16.5043080">
        <ele>1992.9</ele>
        <time>2020-11-11T17:38:49Z</time>
      </trkpt>
      <trkpt lat="28.3188220" lon="-16.5043080">
        <ele>1992.9</ele>
        <time>2020-11-11T17:38:50Z</time>
      </trkpt>
      <trkpt lat="28.3188630" lon="-16.5043030">
        <ele>1992.9</ele>
        <time>2020-11-11T17:38:51Z</time>
      </trkpt>
      <trkpt lat="28.3188630" lon="-16.5043030">
        <ele>1992.9</ele>
        <time>2020-11-11T17:38:52Z</time>
      </trkpt>
      <trkpt lat="28.3189120" lon="-16.5042870">
        <ele>1992.9</ele>
        <time>2020-11-11T17:38:53Z</time>
      </trkpt>
      <trkpt lat="28.3189120" lon="-16.5042870">
        <ele>1992.9</ele>
        <time>2020-11-11T17:38:54Z</time>
      </trkpt>
      <trkpt lat="28.3189620" lon="-16.5042700">
        <ele>1992.9</ele>
        <time>2020-11-11T17:38:55Z</time>
      </trkpt>
      <trkpt lat="28.3189620" lon="-16.5042700">
        <ele>1992.9</ele>
        <time>2020-11-11T17:38:56Z</time>
      </trkpt>
      <trkpt lat="28.3190100" lon="-16.5042600">
        <ele>1992.9</ele>
        <time>2020-11-11T17:38:57Z</time>
      </trkpt>
      <trkpt lat="28.3190320" lon="-16.5042570">
        <ele>1992.9</ele>
        <time>2020-11-11T17:38:58Z</time>
      </trkpt>
      <trkpt lat="28.3190320" lon="-16.5042570">
        <ele>1993.9</ele>
        <time>2020-11-11T17:38:59Z</time>
      </trkpt>
      <trkpt lat="28.3190730" lon="-16.5042470">
        <ele>1993.9</ele>
        <time>2020-11-11T17:39:00Z</time>
      </trkpt>
      <trkpt lat="28.3190730" lon="-16.5042470">
        <ele>1993.9</ele>
        <time>2020-11-11T17:39:01Z</time>
      </trkpt>
      <trkpt lat="28.3191170" lon="-16.5042430">
        <ele>1993.9</ele>
        <time>2020-11-11T17:39:02Z</time>
      </trkpt>
      <trkpt lat="28.3191170" lon="-16.5042430">
        <ele>1993.9</ele>
        <time>2020-11-11T17:39:03Z</time>
      </trkpt>
      <trkpt lat="28.3191350" lon="-16.5042430">
        <ele>1993.9</ele>
        <time>2020-11-11T17:39:04Z</time>
      </trkpt>
      <trkpt lat="28.3191350" lon="-16.5042430">
        <ele>1993.9</ele>
        <time>2020-11-11T17:39:05Z</time>
      </trkpt>
      <trkpt lat="28.3191500" lon="-16.5042320">
        <ele>1993.9</ele>
        <time>2020-11-11T17:39:06Z</time>
      </trkpt>
      <trkpt lat="28.3191500" lon="-16.5042320">
        <ele>1993.9</ele>
        <time>2020-11-11T17:39:07Z</time>
      </trkpt>
      <trkpt lat="28.3191500" lon="-16.5042320">
        <ele>1993.9</ele>
        <time>2020-11-11T17:39:08Z</time>
      </trkpt>
      <trkpt lat="28.3191520" lon="-16.5042300">
        <ele>1993.9</ele>
        <time>2020-11-11T17:39:25Z</time>
      </trkpt>
      <trkpt lat="28.3191950" lon="-16.5042100">
        <ele>1993.9</ele>
        <time>2020-11-11T17:39:26Z</time>
      </trkpt>
      <trkpt lat="28.3191950" lon="-16.5042100">
        <ele>1993.9</ele>
        <time>2020-11-11T17:39:27Z</time>
      </trkpt>
      <trkpt lat="28.3192300" lon="-16.5042070">
        <ele>1993.9</ele>
        <time>2020-11-11T17:39:28Z</time>
      </trkpt>
      <trkpt lat="28.3192300" lon="-16.5042070">
        <ele>1993.9</ele>
        <time>2020-11-11T17:39:29Z</time>
      </trkpt>
      <trkpt lat="28.3192750" lon="-16.5042050">
        <ele>1993.9</ele>
        <time>2020-11-11T17:39:30Z</time>
      </trkpt>
      <trkpt lat="28.3192980" lon="-16.5042020">
        <ele>1993.9</ele>
        <time>2020-11-11T17:39:31Z</time>
      </trkpt>
      <trkpt lat="28.3192980" lon="-16.5042020">
        <ele>1993.9</ele>
        <time>2020-11-11T17:39:32Z</time>
      </trkpt>
      <trkpt lat="28.3193470" lon="-16.5041950">
        <ele>1993.9</ele>
        <time>2020-11-11T17:39:33Z</time>
      </trkpt>
      <trkpt lat="28.3193680" lon="-16.5041930">
        <ele>1993.9</ele>
        <time>2020-11-11T17:39:34Z</time>
      </trkpt>
      <trkpt lat="28.3193680" lon="-16.5041930">
        <ele>1993.9</ele>
        <time>2020-11-11T17:39:35Z</time>
      </trkpt>
      <trkpt lat="28.3194130" lon="-16.5041930">
        <ele>1993.9</ele>
        <time>2020-11-11T17:39:36Z</time>
      </trkpt>
      <trkpt lat="28.3194330" lon="-16.5041930">
        <ele>1993.9</ele>
        <time>2020-11-11T17:39:37Z</time>
      </trkpt>
      <trkpt lat="28.3194330" lon="-16.5041930">
        <ele>1994.9</ele>
        <time>2020-11-11T17:39:38Z</time>
      </trkpt>
      <trkpt lat="28.3194780" lon="-16.5041900">
        <ele>1994.9</ele>
        <time>2020-11-11T17:39:39Z</time>
      </trkpt>
      <trkpt lat="28.3194780" lon="-16.5041900">
        <ele>1994.9</ele>
        <time>2020-11-11T17:39:40Z</time>
      </trkpt>
      <trkpt lat="28.3195230" lon="-16.5041900">
        <ele>1994.9</ele>
        <time>2020-11-11T17:39:41Z</time>
      </trkpt>
      <trkpt lat="28.3195430" lon="-16.5041900">
        <ele>1994.9</ele>
        <time>2020-11-11T17:39:42Z</time>
      </trkpt>
      <trkpt lat="28.3195430" lon="-16.5041900">
        <ele>1994.9</ele>
        <time>2020-11-11T17:39:43Z</time>
      </trkpt>
      <trkpt lat="28.3195870" lon="-16.5041920">
        <ele>1994.9</ele>
        <time>2020-11-11T17:39:44Z</time>
      </trkpt>
      <trkpt lat="28.3195870" lon="-16.5041920">
        <ele>1994.9</ele>
        <time>2020-11-11T17:39:45Z</time>
      </trkpt>
      <trkpt lat="28.3196220" lon="-16.5041870">
        <ele>1995.9</ele>
        <time>2020-11-11T17:39:46Z</time>
      </trkpt>
      <trkpt lat="28.3196220" lon="-16.5041870">
        <ele>1995.9</ele>
        <time>2020-11-11T17:39:47Z</time>
      </trkpt>
      <trkpt lat="28.3196570" lon="-16.5041700">
        <ele>1995.9</ele>
        <time>2020-11-11T17:39:48Z</time>
      </trkpt>
      <trkpt lat="28.3196720" lon="-16.5041600">
        <ele>1995.9</ele>
        <time>2020-11-11T17:39:49Z</time>
      </trkpt>
      <trkpt lat="28.3196720" lon="-16.5041600">
        <ele>1995.9</ele>
        <time>2020-11-11T17:39:50Z</time>
      </trkpt>
      <trkpt lat="28.3197080" lon="-16.5041350">
        <ele>1995.9</ele>
        <time>2020-11-11T17:39:51Z</time>
      </trkpt>
      <trkpt lat="28.3197080" lon="-16.5041350">
        <ele>1995.9</ele>
        <time>2020-11-11T17:39:52Z</time>
      </trkpt>
      <trkpt lat="28.3197450" lon="-16.5041080">
        <ele>1996.9</ele>
        <time>2020-11-11T17:39:53Z</time>
      </trkpt>
      <trkpt lat="28.3197450" lon="-16.5041080">
        <ele>1996.9</ele>
        <time>2020-11-11T17:39:54Z</time>
      </trkpt>
      <trkpt lat="28.3197780" lon="-16.5040820">
        <ele>1996.9</ele>
        <time>2020-11-11T17:39:55Z</time>
      </trkpt>
      <trkpt lat="28.3197780" lon="-16.5040820">
        <ele>1996.9</ele>
        <time>2020-11-11T17:39:56Z</time>
      </trkpt>
      <trkpt lat="28.3198130" lon="-16.5040480">
        <ele>1996.9</ele>
        <time>2020-11-11T17:39:57Z</time>
      </trkpt>
      <trkpt lat="28.3198130" lon="-16.5040480">
        <ele>1996.9</ele>
        <time>2020-11-11T17:39:58Z</time>
      </trkpt>
      <trkpt lat="28.3198480" lon="-16.5040150">
        <ele>1997.9</ele>
        <time>2020-11-11T17:39:59Z</time>
      </trkpt>
      <trkpt lat="28.3198480" lon="-16.5040150">
        <ele>1997.9</ele>
        <time>2020-11-11T17:40:00Z</time>
      </trkpt>
      <trkpt lat="28.3198820" lon="-16.5039830">
        <ele>1997.9</ele>
        <time>2020-11-11T17:40:01Z</time>
      </trkpt>
      <trkpt lat="28.3198820" lon="-16.5039830">
        <ele>1997.9</ele>
        <time>2020-11-11T17:40:02Z</time>
      </trkpt>
      <trkpt lat="28.3199170" lon="-16.5039530">
        <ele>1997.9</ele>
        <time>2020-11-11T17:40:03Z</time>
      </trkpt>
      <trkpt lat="28.3199170" lon="-16.5039530">
        <ele>1997.9</ele>
        <time>2020-11-11T17:40:04Z</time>
      </trkpt>
      <trkpt lat="28.3199480" lon="-16.5039220">
        <ele>1997.9</ele>
        <time>2020-11-11T17:40:05Z</time>
      </trkpt>
      <trkpt lat="28.3199480" lon="-16.5039220">
        <ele>1997.9</ele>
        <time>2020-11-11T17:40:06Z</time>
      </trkpt>
      <trkpt lat="28.3199820" lon="-16.5038880">
        <ele>1998.9</ele>
        <time>2020-11-11T17:40:07Z</time>
      </trkpt>
      <trkpt lat="28.3199820" lon="-16.5038880">
        <ele>1998.9</ele>
        <time>2020-11-11T17:40:08Z</time>
      </trkpt>
      <trkpt lat="28.3200170" lon="-16.5038570">
        <ele>1998.9</ele>
        <time>2020-11-11T17:40:09Z</time>
      </trkpt>
      <trkpt lat="28.3200170" lon="-16.5038570">
        <ele>1998.9</ele>
        <time>2020-11-11T17:40:10Z</time>
      </trkpt>
      <trkpt lat="28.3200430" lon="-16.5038350">
        <ele>1998.9</ele>
        <time>2020-11-11T17:40:11Z</time>
      </trkpt>
      <trkpt lat="28.3200430" lon="-16.5038350">
        <ele>1998.9</ele>
        <time>2020-11-11T17:40:12Z</time>
      </trkpt>
      <trkpt lat="28.3200500" lon="-16.5038330">
        <ele>1998.9</ele>
        <time>2020-11-11T17:40:13Z</time>
      </trkpt>
      <trkpt lat="28.3200500" lon="-16.5038330">
        <ele>1998.9</ele>
        <time>2020-11-11T17:40:14Z</time>
      </trkpt>
      <trkpt lat="28.3200500" lon="-16.5038330">
        <ele>1998.9</ele>
        <time>2020-11-11T17:40:30Z</time>
      </trkpt>
      <trkpt lat="28.3200830" lon="-16.5037870">
        <ele>1998.9</ele>
        <time>2020-11-11T17:40:31Z</time>
      </trkpt>
      <trkpt lat="28.3200830" lon="-16.5037870">
        <ele>1999.9</ele>
        <time>2020-11-11T17:40:32Z</time>
      </trkpt>
      <trkpt lat="28.3201100" lon="-16.5037530">
        <ele>1999.9</ele>
        <time>2020-11-11T17:40:33Z</time>
      </trkpt>
      <trkpt lat="28.3201100" lon="-16.5037530">
        <ele>1999.9</ele>
        <time>2020-11-11T17:40:34Z</time>
      </trkpt>
      <trkpt lat="28.3201380" lon="-16.5037220">
        <ele>1999.9</ele>
        <time>2020-11-11T17:40:35Z</time>
      </trkpt>
      <trkpt lat="28.3201520" lon="-16.5037050">
        <ele>1999.9</ele>
        <time>2020-11-11T17:40:36Z</time>
      </trkpt>
      <trkpt lat="28.3201520" lon="-16.5037050">
        <ele>1999.9</ele>
        <time>2020-11-11T17:40:37Z</time>
      </trkpt>
      <trkpt lat="28.3201780" lon="-16.5036680">
        <ele>1999.9</ele>
        <time>2020-11-11T17:40:38Z</time>
      </trkpt>
      <trkpt lat="28.3201920" lon="-16.5036480">
        <ele>1999.9</ele>
        <time>2020-11-11T17:40:39Z</time>
      </trkpt>
      <trkpt lat="28.3201920" lon="-16.5036480">
        <ele>1999.9</ele>
        <time>2020-11-11T17:40:40Z</time>
      </trkpt>
      <trkpt lat="28.3202270" lon="-16.5036030">
        <ele>1999.9</ele>
        <time>2020-11-11T17:40:41Z</time>
      </trkpt>
      <trkpt lat="28.3202450" lon="-16.5035780">
        <ele>1999.9</ele>
        <time>2020-11-11T17:40:42Z</time>
      </trkpt>
      <trkpt lat="28.3202630" lon="-16.5035530">
        <ele>1999.9</ele>
        <time>2020-11-11T17:40:43Z</time>
      </trkpt>
      <trkpt lat="28.3202630" lon="-16.5035530">
        <ele>1999.9</ele>
        <time>2020-11-11T17:40:44Z</time>
      </trkpt>
      <trkpt lat="28.3202980" lon="-16.5035050">
        <ele>1999.9</ele>
        <time>2020-11-11T17:40:45Z</time>
      </trkpt>
      <trkpt lat="28.3203130" lon="-16.5034800">
        <ele>1999.9</ele>
        <time>2020-11-11T17:40:46Z</time>
      </trkpt>
      <trkpt lat="28.3203130" lon="-16.5034800">
        <ele>1999.9</ele>
        <time>2020-11-11T17:40:47Z</time>
      </trkpt>
      <trkpt lat="28.3203480" lon="-16.5034350">
        <ele>1999.9</ele>
        <time>2020-11-11T17:40:48Z</time>
      </trkpt>
      <trkpt lat="28.3203630" lon="-16.5034120">
        <ele>1999.9</ele>
        <time>2020-11-11T17:40:49Z</time>
      </trkpt>
      <trkpt lat="28.3203630" lon="-16.5034120">
        <ele>2000.9</ele>
        <time>2020-11-11T17:40:50Z</time>
      </trkpt>
      <trkpt lat="28.3203930" lon="-16.5033630">
        <ele>2000.9</ele>
        <time>2020-11-11T17:40:51Z</time>
      </trkpt>
      <trkpt lat="28.3204080" lon="-16.5033400">
        <ele>2000.9</ele>
        <time>2020-11-11T17:40:52Z</time>
      </trkpt>
      <trkpt lat="28.3204080" lon="-16.5033400">
        <ele>2000.9</ele>
        <time>2020-11-11T17:40:53Z</time>
      </trkpt>
      <trkpt lat="28.3204370" lon="-16.5032870">
        <ele>2000.9</ele>
        <time>2020-11-11T17:40:54Z</time>
      </trkpt>
      <trkpt lat="28.3204480" lon="-16.5032600">
        <ele>2000.9</ele>
        <time>2020-11-11T17:40:55Z</time>
      </trkpt>
      <trkpt lat="28.3204480" lon="-16.5032600">
        <ele>2001.9</ele>
        <time>2020-11-11T17:40:56Z</time>
      </trkpt>
      <trkpt lat="28.3204730" lon="-16.5032070">
        <ele>2001.9</ele>
        <time>2020-11-11T17:40:57Z</time>
      </trkpt>
      <trkpt lat="28.3204730" lon="-16.5032070">
        <ele>2001.9</ele>
        <time>2020-11-11T17:40:58Z</time>
      </trkpt>
      <trkpt lat="28.3204970" lon="-16.5031550">
        <ele>2001.9</ele>
        <time>2020-11-11T17:40:59Z</time>
      </trkpt>
      <trkpt lat="28.3204970" lon="-16.5031550">
        <ele>2001.9</ele>
        <time>2020-11-11T17:41:00Z</time>
      </trkpt>
      <trkpt lat="28.3205180" lon="-16.5031020">
        <ele>2001.9</ele>
        <time>2020-11-11T17:41:01Z</time>
      </trkpt>
      <trkpt lat="28.3205180" lon="-16.5031020">
        <ele>2002.9</ele>
        <time>2020-11-11T17:41:02Z</time>
      </trkpt>
      <trkpt lat="28.3205370" lon="-16.5030450">
        <ele>2002.9</ele>
        <time>2020-11-11T17:41:03Z</time>
      </trkpt>
      <trkpt lat="28.3205370" lon="-16.5030450">
        <ele>2002.9</ele>
        <time>2020-11-11T17:41:04Z</time>
      </trkpt>
      <trkpt lat="28.3205530" lon="-16.5029870">
        <ele>2002.9</ele>
        <time>2020-11-11T17:41:05Z</time>
      </trkpt>
      <trkpt lat="28.3205530" lon="-16.5029870">
        <ele>2002.9</ele>
        <time>2020-11-11T17:41:06Z</time>
      </trkpt>
      <trkpt lat="28.3205730" lon="-16.5029280">
        <ele>2002.9</ele>
        <time>2020-11-11T17:41:07Z</time>
      </trkpt>
      <trkpt lat="28.3205730" lon="-16.5029280">
        <ele>2002.9</ele>
        <time>2020-11-11T17:41:08Z</time>
      </trkpt>
      <trkpt lat="28.3205900" lon="-16.5028720">
        <ele>2002.9</ele>
        <time>2020-11-11T17:41:09Z</time>
      </trkpt>
      <trkpt lat="28.3205900" lon="-16.5028720">
        <ele>2003.9</ele>
        <time>2020-11-11T17:41:10Z</time>
      </trkpt>
      <trkpt lat="28.3206120" lon="-16.5028130">
        <ele>2003.9</ele>
        <time>2020-11-11T17:41:11Z</time>
      </trkpt>
      <trkpt lat="28.3206120" lon="-16.5028130">
        <ele>2003.9</ele>
        <time>2020-11-11T17:41:12Z</time>
      </trkpt>
      <trkpt lat="28.3206300" lon="-16.5027580">
        <ele>2003.9</ele>
        <time>2020-11-11T17:41:13Z</time>
      </trkpt>
      <trkpt lat="28.3206300" lon="-16.5027580">
        <ele>2003.9</ele>
        <time>2020-11-11T17:41:14Z</time>
      </trkpt>
      <trkpt lat="28.3206450" lon="-16.5027000">
        <ele>2003.9</ele>
        <time>2020-11-11T17:41:15Z</time>
      </trkpt>
      <trkpt lat="28.3206450" lon="-16.5027000">
        <ele>2003.9</ele>
        <time>2020-11-11T17:41:16Z</time>
      </trkpt>
      <trkpt lat="28.3206600" lon="-16.5026380">
        <ele>2003.9</ele>
        <time>2020-11-11T17:41:17Z</time>
      </trkpt>
      <trkpt lat="28.3206670" lon="-16.5026070">
        <ele>2003.9</ele>
        <time>2020-11-11T17:41:18Z</time>
      </trkpt>
      <trkpt lat="28.3206730" lon="-16.5025720">
        <ele>2003.9</ele>
        <time>2020-11-11T17:41:19Z</time>
      </trkpt>
      <trkpt lat="28.3206730" lon="-16.5025720">
        <ele>2003.9</ele>
        <time>2020-11-11T17:41:20Z</time>
      </trkpt>
      <trkpt lat="28.3206870" lon="-16.5024980">
        <ele>2003.9</ele>
        <time>2020-11-11T17:41:21Z</time>
      </trkpt>
      <trkpt lat="28.3206870" lon="-16.5024980">
        <ele>2003.9</ele>
        <time>2020-11-11T17:41:22Z</time>
      </trkpt>
      <trkpt lat="28.3206980" lon="-16.5024230">
        <ele>2003.9</ele>
        <time>2020-11-11T17:41:23Z</time>
      </trkpt>
      <trkpt lat="28.3206980" lon="-16.5024230">
        <ele>2003.9</ele>
        <time>2020-11-11T17:41:24Z</time>
      </trkpt>
      <trkpt lat="28.3207100" lon="-16.5023450">
        <ele>2003.9</ele>
        <time>2020-11-11T17:41:25Z</time>
      </trkpt>
      <trkpt lat="28.3207100" lon="-16.5023450">
        <ele>2003.9</ele>
        <time>2020-11-11T17:41:26Z</time>
      </trkpt>
      <trkpt lat="28.3207230" lon="-16.5022680">
        <ele>2003.9</ele>
        <time>2020-11-11T17:41:27Z</time>
      </trkpt>
      <trkpt lat="28.3207230" lon="-16.5022680">
        <ele>2003.9</ele>
        <time>2020-11-11T17:41:28Z</time>
      </trkpt>
      <trkpt lat="28.3207380" lon="-16.5021930">
        <ele>2003.9</ele>
        <time>2020-11-11T17:41:29Z</time>
      </trkpt>
      <trkpt lat="28.3207380" lon="-16.5021930">
        <ele>2003.9</ele>
        <time>2020-11-11T17:41:30Z</time>
      </trkpt>
      <trkpt lat="28.3207500" lon="-16.5021170">
        <ele>2003.9</ele>
        <time>2020-11-11T17:41:31Z</time>
      </trkpt>
      <trkpt lat="28.3207500" lon="-16.5021170">
        <ele>2003.9</ele>
        <time>2020-11-11T17:41:32Z</time>
      </trkpt>
      <trkpt lat="28.3207550" lon="-16.5020400">
        <ele>2003.9</ele>
        <time>2020-11-11T17:41:33Z</time>
      </trkpt>
      <trkpt lat="28.3207570" lon="-16.5019980">
        <ele>2003.9</ele>
        <time>2020-11-11T17:41:34Z</time>
      </trkpt>
      <trkpt lat="28.3207570" lon="-16.5019980">
        <ele>2003.9</ele>
        <time>2020-11-11T17:41:35Z</time>
      </trkpt>
      <trkpt lat="28.3207570" lon="-16.5019130">
        <ele>2003.9</ele>
        <time>2020-11-11T17:41:36Z</time>
      </trkpt>
      <trkpt lat="28.3207550" lon="-16.5018720">
        <ele>2003.9</ele>
        <time>2020-11-11T17:41:37Z</time>
      </trkpt>
      <trkpt lat="28.3207550" lon="-16.5018720">
        <ele>2003.9</ele>
        <time>2020-11-11T17:41:38Z</time>
      </trkpt>
      <trkpt lat="28.3207530" lon="-16.5017820">
        <ele>2003.9</ele>
        <time>2020-11-11T17:41:39Z</time>
      </trkpt>
      <trkpt lat="28.3207530" lon="-16.5017820">
        <ele>2003.9</ele>
        <time>2020-11-11T17:41:40Z</time>
      </trkpt>
      <trkpt lat="28.3207650" lon="-16.5016850">
        <ele>2003.9</ele>
        <time>2020-11-11T17:41:41Z</time>
      </trkpt>
      <trkpt lat="28.3207650" lon="-16.5016850">
        <ele>2003.9</ele>
        <time>2020-11-11T17:41:42Z</time>
      </trkpt>
      <trkpt lat="28.3207750" lon="-16.5015930">
        <ele>2003.9</ele>
        <time>2020-11-11T17:41:43Z</time>
      </trkpt>
      <trkpt lat="28.3207750" lon="-16.5015930">
        <ele>2003.9</ele>
        <time>2020-11-11T17:41:44Z</time>
      </trkpt>
      <trkpt lat="28.3207830" lon="-16.5015020">
        <ele>2003.9</ele>
        <time>2020-11-11T17:41:45Z</time>
      </trkpt>
      <trkpt lat="28.3207830" lon="-16.5015020">
        <ele>2003.9</ele>
        <time>2020-11-11T17:41:46Z</time>
      </trkpt>
      <trkpt lat="28.3207900" lon="-16.5014100">
        <ele>2003.9</ele>
        <time>2020-11-11T17:41:47Z</time>
      </trkpt>
      <trkpt lat="28.3207920" lon="-16.5013650">
        <ele>2003.9</ele>
        <time>2020-11-11T17:41:48Z</time>
      </trkpt>
      <trkpt lat="28.3207920" lon="-16.5013650">
        <ele>2003.9</ele>
        <time>2020-11-11T17:41:49Z</time>
      </trkpt>
      <trkpt lat="28.3207970" lon="-16.5012730">
        <ele>2003.9</ele>
        <time>2020-11-11T17:41:50Z</time>
      </trkpt>
      <trkpt lat="28.3207970" lon="-16.5012730">
        <ele>2003.9</ele>
        <time>2020-11-11T17:41:51Z</time>
      </trkpt>
      <trkpt lat="28.3207950" lon="-16.5011830">
        <ele>2003.9</ele>
        <time>2020-11-11T17:41:52Z</time>
      </trkpt>
      <trkpt lat="28.3207950" lon="-16.5011830">
        <ele>2004.9</ele>
        <time>2020-11-11T17:41:53Z</time>
      </trkpt>
      <trkpt lat="28.3207880" lon="-16.5010920">
        <ele>2004.9</ele>
        <time>2020-11-11T17:41:54Z</time>
      </trkpt>
      <trkpt lat="28.3207870" lon="-16.5010430">
        <ele>2004.9</ele>
        <time>2020-11-11T17:41:55Z</time>
      </trkpt>
      <trkpt lat="28.3207870" lon="-16.5010430">
        <ele>2004.9</ele>
        <time>2020-11-11T17:41:56Z</time>
      </trkpt>
      <trkpt lat="28.3207780" lon="-16.5009530">
        <ele>2004.9</ele>
        <time>2020-11-11T17:41:57Z</time>
      </trkpt>
      <trkpt lat="28.3207780" lon="-16.5009530">
        <ele>2004.9</ele>
        <time>2020-11-11T17:41:58Z</time>
      </trkpt>
      <trkpt lat="28.3207730" lon="-16.5008720">
        <ele>2004.9</ele>
        <time>2020-11-11T17:41:59Z</time>
      </trkpt>
      <trkpt lat="28.3207730" lon="-16.5008720">
        <ele>2004.9</ele>
        <time>2020-11-11T17:42:00Z</time>
      </trkpt>
      <trkpt lat="28.3207670" lon="-16.5007900">
        <ele>2004.9</ele>
        <time>2020-11-11T17:42:01Z</time>
      </trkpt>
      <trkpt lat="28.3207670" lon="-16.5007900">
        <ele>2004.9</ele>
        <time>2020-11-11T17:42:02Z</time>
      </trkpt>
      <trkpt lat="28.3207500" lon="-16.5007080">
        <ele>2004.9</ele>
        <time>2020-11-11T17:42:03Z</time>
      </trkpt>
      <trkpt lat="28.3207500" lon="-16.5007080">
        <ele>2004.9</ele>
        <time>2020-11-11T17:42:04Z</time>
      </trkpt>
      <trkpt lat="28.3207350" lon="-16.5006300">
        <ele>2004.9</ele>
        <time>2020-11-11T17:42:05Z</time>
      </trkpt>
      <trkpt lat="28.3207270" lon="-16.5005900">
        <ele>2004.9</ele>
        <time>2020-11-11T17:42:06Z</time>
      </trkpt>
      <trkpt lat="28.3207270" lon="-16.5005900">
        <ele>2004.9</ele>
        <time>2020-11-11T17:42:07Z</time>
      </trkpt>
      <trkpt lat="28.3207080" lon="-16.5005100">
        <ele>2004.9</ele>
        <time>2020-11-11T17:42:08Z</time>
      </trkpt>
      <trkpt lat="28.3206930" lon="-16.5004720">
        <ele>2004.9</ele>
        <time>2020-11-11T17:42:09Z</time>
      </trkpt>
      <trkpt lat="28.3206930" lon="-16.5004720">
        <ele>2004.9</ele>
        <time>2020-11-11T17:42:10Z</time>
      </trkpt>
      <trkpt lat="28.3206520" lon="-16.5003970">
        <ele>2004.9</ele>
        <time>2020-11-11T17:42:11Z</time>
      </trkpt>
      <trkpt lat="28.3206520" lon="-16.5003970">
        <ele>2004.9</ele>
        <time>2020-11-11T17:42:12Z</time>
      </trkpt>
      <trkpt lat="28.3205930" lon="-16.5003330">
        <ele>2004.9</ele>
        <time>2020-11-11T17:42:13Z</time>
      </trkpt>
      <trkpt lat="28.3205930" lon="-16.5003330">
        <ele>2004.9</ele>
        <time>2020-11-11T17:42:14Z</time>
      </trkpt>
      <trkpt lat="28.3205250" lon="-16.5002750">
        <ele>2004.9</ele>
        <time>2020-11-11T17:42:15Z</time>
      </trkpt>
      <trkpt lat="28.3205250" lon="-16.5002750">
        <ele>2004.9</ele>
        <time>2020-11-11T17:42:16Z</time>
      </trkpt>
      <trkpt lat="28.3204580" lon="-16.5002050">
        <ele>2004.9</ele>
        <time>2020-11-11T17:42:17Z</time>
      </trkpt>
      <trkpt lat="28.3204180" lon="-16.5001720">
        <ele>2004.9</ele>
        <time>2020-11-11T17:42:18Z</time>
      </trkpt>
      <trkpt lat="28.3203800" lon="-16.5001380">
        <ele>2004.9</ele>
        <time>2020-11-11T17:42:19Z</time>
      </trkpt>
      <trkpt lat="28.3203800" lon="-16.5001380">
        <ele>2004.9</ele>
        <time>2020-11-11T17:42:20Z</time>
      </trkpt>
      <trkpt lat="28.3203280" lon="-16.5000530">
        <ele>2004.9</ele>
        <time>2020-11-11T17:42:21Z</time>
      </trkpt>
      <trkpt lat="28.3203120" lon="-16.5000080">
        <ele>2004.9</ele>
        <time>2020-11-11T17:42:22Z</time>
      </trkpt>
      <trkpt lat="28.3203050" lon="-16.4999680">
        <ele>2004.9</ele>
        <time>2020-11-11T17:42:23Z</time>
      </trkpt>
      <trkpt lat="28.3203050" lon="-16.4999680">
        <ele>2004.9</ele>
        <time>2020-11-11T17:42:24Z</time>
      </trkpt>
      <trkpt lat="28.3203130" lon="-16.4998920">
        <ele>2005.9</ele>
        <time>2020-11-11T17:42:25Z</time>
      </trkpt>
      <trkpt lat="28.3203280" lon="-16.4998550">
        <ele>2005.9</ele>
        <time>2020-11-11T17:42:26Z</time>
      </trkpt>
      <trkpt lat="28.3203280" lon="-16.4998550">
        <ele>2005.9</ele>
        <time>2020-11-11T17:42:27Z</time>
      </trkpt>
      <trkpt lat="28.3203650" lon="-16.4998030">
        <ele>2005.9</ele>
        <time>2020-11-11T17:42:28Z</time>
      </trkpt>
      <trkpt lat="28.3203650" lon="-16.4998030">
        <ele>2005.9</ele>
        <time>2020-11-11T17:42:29Z</time>
      </trkpt>
      <trkpt lat="28.3204100" lon="-16.4997550">
        <ele>2006.9</ele>
        <time>2020-11-11T17:42:30Z</time>
      </trkpt>
      <trkpt lat="28.3204350" lon="-16.4997330">
        <ele>2006.9</ele>
        <time>2020-11-11T17:42:31Z</time>
      </trkpt>
      <trkpt lat="28.3204350" lon="-16.4997330">
        <ele>2006.9</ele>
        <time>2020-11-11T17:42:32Z</time>
      </trkpt>
      <trkpt lat="28.3204770" lon="-16.4996980">
        <ele>2006.9</ele>
        <time>2020-11-11T17:42:33Z</time>
      </trkpt>
      <trkpt lat="28.3204780" lon="-16.4996930">
        <ele>2006.9</ele>
        <time>2020-11-11T17:42:34Z</time>
      </trkpt>
      <trkpt lat="28.3204780" lon="-16.4996970">
        <ele>2006.9</ele>
        <time>2020-11-11T17:42:35Z</time>
      </trkpt>
      <trkpt lat="28.3204780" lon="-16.4996970">
        <ele>2006.9</ele>
        <time>2020-11-11T17:42:36Z</time>
      </trkpt>
      <trkpt lat="28.3204770" lon="-16.4996980">
        <ele>2006.9</ele>
        <time>2020-11-11T17:42:48Z</time>
      </trkpt>
      <trkpt lat="28.3205070" lon="-16.4996750">
        <ele>2006.9</ele>
        <time>2020-11-11T17:42:49Z</time>
      </trkpt>
      <trkpt lat="28.3205070" lon="-16.4996750">
        <ele>2006.9</ele>
        <time>2020-11-11T17:42:50Z</time>
      </trkpt>
      <trkpt lat="28.3205070" lon="-16.4996750">
        <ele>2006.9</ele>
        <time>2020-11-11T17:42:51Z</time>
      </trkpt>
      <trkpt lat="28.3205070" lon="-16.4996750">
        <ele>2007.9</ele>
        <time>2020-11-11T17:42:52Z</time>
      </trkpt>
      <trkpt lat="28.3205070" lon="-16.4996750">
        <ele>2007.9</ele>
        <time>2020-11-11T17:43:35Z</time>
      </trkpt>
      <trkpt lat="28.3206400" lon="-16.4995680">
        <ele>2007.9</ele>
        <time>2020-11-11T17:43:36Z</time>
      </trkpt>
      <trkpt lat="28.3206400" lon="-16.4995680">
        <ele>2007.9</ele>
        <time>2020-11-11T17:43:37Z</time>
      </trkpt>
      <trkpt lat="28.3206720" lon="-16.4995380">
        <ele>2007.9</ele>
        <time>2020-11-11T17:43:38Z</time>
      </trkpt>
      <trkpt lat="28.3206720" lon="-16.4995380">
        <ele>2007.9</ele>
        <time>2020-11-11T17:43:39Z</time>
      </trkpt>
      <trkpt lat="28.3207070" lon="-16.4995050">
        <ele>2007.9</ele>
        <time>2020-11-11T17:43:40Z</time>
      </trkpt>
      <trkpt lat="28.3207070" lon="-16.4995050">
        <ele>2007.9</ele>
        <time>2020-11-11T17:43:41Z</time>
      </trkpt>
      <trkpt lat="28.3207520" lon="-16.4994530">
        <ele>2007.9</ele>
        <time>2020-11-11T17:43:42Z</time>
      </trkpt>
      <trkpt lat="28.3207520" lon="-16.4994530">
        <ele>2007.9</ele>
        <time>2020-11-11T17:43:43Z</time>
      </trkpt>
      <trkpt lat="28.3207980" lon="-16.4994050">
        <ele>2007.9</ele>
        <time>2020-11-11T17:43:44Z</time>
      </trkpt>
      <trkpt lat="28.3207980" lon="-16.4994050">
        <ele>2007.9</ele>
        <time>2020-11-11T17:43:45Z</time>
      </trkpt>
      <trkpt lat="28.3208530" lon="-16.4993670">
        <ele>2007.9</ele>
        <time>2020-11-11T17:43:46Z</time>
      </trkpt>
      <trkpt lat="28.3208820" lon="-16.4993500">
        <ele>2007.9</ele>
        <time>2020-11-11T17:43:47Z</time>
      </trkpt>
      <trkpt lat="28.3208820" lon="-16.4993500">
        <ele>2007.9</ele>
        <time>2020-11-11T17:43:48Z</time>
      </trkpt>
      <trkpt lat="28.3209450" lon="-16.4993230">
        <ele>2007.9</ele>
        <time>2020-11-11T17:43:49Z</time>
      </trkpt>
      <trkpt lat="28.3209450" lon="-16.4993230">
        <ele>2007.9</ele>
        <time>2020-11-11T17:43:50Z</time>
      </trkpt>
      <trkpt lat="28.3210170" lon="-16.4993030">
        <ele>2007.9</ele>
        <time>2020-11-11T17:43:51Z</time>
      </trkpt>
      <trkpt lat="28.3210170" lon="-16.4993030">
        <ele>2007.9</ele>
        <time>2020-11-11T17:43:52Z</time>
      </trkpt>
      <trkpt lat="28.3211000" lon="-16.4993030">
        <ele>2007.9</ele>
        <time>2020-11-11T17:43:53Z</time>
      </trkpt>
      <trkpt lat="28.3211000" lon="-16.4993030">
        <ele>2007.9</ele>
        <time>2020-11-11T17:43:54Z</time>
      </trkpt>
      <trkpt lat="28.3211820" lon="-16.4993170">
        <ele>2007.9</ele>
        <time>2020-11-11T17:43:55Z</time>
      </trkpt>
      <trkpt lat="28.3211820" lon="-16.4993170">
        <ele>2007.9</ele>
        <time>2020-11-11T17:43:56Z</time>
      </trkpt>
      <trkpt lat="28.3212550" lon="-16.4993350">
        <ele>2007.9</ele>
        <time>2020-11-11T17:43:57Z</time>
      </trkpt>
      <trkpt lat="28.3212920" lon="-16.4993430">
        <ele>2008.9</ele>
        <time>2020-11-11T17:43:58Z</time>
      </trkpt>
      <trkpt lat="28.3212920" lon="-16.4993430">
        <ele>2008.9</ele>
        <time>2020-11-11T17:43:59Z</time>
      </trkpt>
      <trkpt lat="28.3213630" lon="-16.4993600">
        <ele>2008.9</ele>
        <time>2020-11-11T17:44:00Z</time>
      </trkpt>
      <trkpt lat="28.3213630" lon="-16.4993600">
        <ele>2008.9</ele>
        <time>2020-11-11T17:44:01Z</time>
      </trkpt>
      <trkpt lat="28.3214370" lon="-16.4993780">
        <ele>2008.9</ele>
        <time>2020-11-11T17:44:02Z</time>
      </trkpt>
      <trkpt lat="28.3214370" lon="-16.4993780">
        <ele>2008.9</ele>
        <time>2020-11-11T17:44:03Z</time>
      </trkpt>
      <trkpt lat="28.3215100" lon="-16.4993980">
        <ele>2008.9</ele>
        <time>2020-11-11T17:44:04Z</time>
      </trkpt>
      <trkpt lat="28.3215450" lon="-16.4994070">
        <ele>2008.9</ele>
        <time>2020-11-11T17:44:05Z</time>
      </trkpt>
      <trkpt lat="28.3215820" lon="-16.4994120">
        <ele>2008.9</ele>
        <time>2020-11-11T17:44:06Z</time>
      </trkpt>
      <trkpt lat="28.3215820" lon="-16.4994120">
        <ele>2009.9</ele>
        <time>2020-11-11T17:44:07Z</time>
      </trkpt>
      <trkpt lat="28.3216180" lon="-16.4994180">
        <ele>2009.9</ele>
        <time>2020-11-11T17:44:08Z</time>
      </trkpt>
      <trkpt lat="28.3216970" lon="-16.4994220">
        <ele>2009.9</ele>
        <time>2020-11-11T17:44:09Z</time>
      </trkpt>
      <trkpt lat="28.3216970" lon="-16.4994220">
        <ele>2009.9</ele>
        <time>2020-11-11T17:44:10Z</time>
      </trkpt>
      <trkpt lat="28.3217770" lon="-16.4994120">
        <ele>2009.9</ele>
        <time>2020-11-11T17:44:11Z</time>
      </trkpt>
      <trkpt lat="28.3217770" lon="-16.4994120">
        <ele>2009.9</ele>
        <time>2020-11-11T17:44:12Z</time>
      </trkpt>
      <trkpt lat="28.3218400" lon="-16.4993630">
        <ele>2009.9</ele>
        <time>2020-11-11T17:44:13Z</time>
      </trkpt>
      <trkpt lat="28.3218400" lon="-16.4993630">
        <ele>2009.9</ele>
        <time>2020-11-11T17:44:14Z</time>
      </trkpt>
      <trkpt lat="28.3218670" lon="-16.4992820">
        <ele>2009.9</ele>
        <time>2020-11-11T17:44:15Z</time>
      </trkpt>
      <trkpt lat="28.3218670" lon="-16.4992820">
        <ele>2009.9</ele>
        <time>2020-11-11T17:44:16Z</time>
      </trkpt>
      <trkpt lat="28.3218500" lon="-16.4991970">
        <ele>2009.9</ele>
        <time>2020-11-11T17:44:17Z</time>
      </trkpt>
      <trkpt lat="28.3218250" lon="-16.4991620">
        <ele>2009.9</ele>
        <time>2020-11-11T17:44:18Z</time>
      </trkpt>
      <trkpt lat="28.3218250" lon="-16.4991620">
        <ele>2010.9</ele>
        <time>2020-11-11T17:44:19Z</time>
      </trkpt>
      <trkpt lat="28.3217700" lon="-16.4991030">
        <ele>2010.9</ele>
        <time>2020-11-11T17:44:20Z</time>
      </trkpt>
      <trkpt lat="28.3217700" lon="-16.4991030">
        <ele>2010.9</ele>
        <time>2020-11-11T17:44:21Z</time>
      </trkpt>
      <trkpt lat="28.3217170" lon="-16.4990670">
        <ele>2010.9</ele>
        <time>2020-11-11T17:44:22Z</time>
      </trkpt>
      <trkpt lat="28.3216920" lon="-16.4990520">
        <ele>2011.9</ele>
        <time>2020-11-11T17:44:23Z</time>
      </trkpt>
      <trkpt lat="28.3216920" lon="-16.4990520">
        <ele>2011.9</ele>
        <time>2020-11-11T17:44:24Z</time>
      </trkpt>
      <trkpt lat="28.3216420" lon="-16.4990300">
        <ele>2011.9</ele>
        <time>2020-11-11T17:44:25Z</time>
      </trkpt>
      <trkpt lat="28.3216420" lon="-16.4990300">
        <ele>2011.9</ele>
        <time>2020-11-11T17:44:26Z</time>
      </trkpt>
      <trkpt lat="28.3215930" lon="-16.4990170">
        <ele>2011.9</ele>
        <time>2020-11-11T17:44:27Z</time>
      </trkpt>
      <trkpt lat="28.3215930" lon="-16.4990170">
        <ele>2011.9</ele>
        <time>2020-11-11T17:44:28Z</time>
      </trkpt>
      <trkpt lat="28.3215470" lon="-16.4990050">
        <ele>2012.9</ele>
        <time>2020-11-11T17:44:29Z</time>
      </trkpt>
      <trkpt lat="28.3215470" lon="-16.4990050">
        <ele>2012.9</ele>
        <time>2020-11-11T17:44:30Z</time>
      </trkpt>
      <trkpt lat="28.3214980" lon="-16.4989950">
        <ele>2012.9</ele>
        <time>2020-11-11T17:44:31Z</time>
      </trkpt>
      <trkpt lat="28.3214730" lon="-16.4989880">
        <ele>2012.9</ele>
        <time>2020-11-11T17:44:32Z</time>
      </trkpt>
      <trkpt lat="28.3214730" lon="-16.4989880">
        <ele>2012.9</ele>
        <time>2020-11-11T17:44:33Z</time>
      </trkpt>
      <trkpt lat="28.3214250" lon="-16.4989800">
        <ele>2012.9</ele>
        <time>2020-11-11T17:44:34Z</time>
      </trkpt>
      <trkpt lat="28.3214250" lon="-16.4989800">
        <ele>2012.9</ele>
        <time>2020-11-11T17:44:35Z</time>
      </trkpt>
      <trkpt lat="28.3213800" lon="-16.4989750">
        <ele>2012.9</ele>
        <time>2020-11-11T17:44:36Z</time>
      </trkpt>
      <trkpt lat="28.3213570" lon="-16.4989730">
        <ele>2012.9</ele>
        <time>2020-11-11T17:44:37Z</time>
      </trkpt>
      <trkpt lat="28.3213570" lon="-16.4989730">
        <ele>2012.9</ele>
        <time>2020-11-11T17:44:38Z</time>
      </trkpt>
      <trkpt lat="28.3213100" lon="-16.4989700">
        <ele>2012.9</ele>
        <time>2020-11-11T17:44:39Z</time>
      </trkpt>
      <trkpt lat="28.3213100" lon="-16.4989700">
        <ele>2012.9</ele>
        <time>2020-11-11T17:44:40Z</time>
      </trkpt>
      <trkpt lat="28.3212620" lon="-16.4989630">
        <ele>2013.9</ele>
        <time>2020-11-11T17:44:41Z</time>
      </trkpt>
      <trkpt lat="28.3212620" lon="-16.4989630">
        <ele>2013.9</ele>
        <time>2020-11-11T17:44:42Z</time>
      </trkpt>
      <trkpt lat="28.3212620" lon="-16.4989630">
        <ele>2013.9</ele>
        <time>2020-11-11T17:44:43Z</time>
      </trkpt>
      <trkpt lat="28.3212230" lon="-16.4989550">
        <ele>2013.9</ele>
        <time>2020-11-11T17:44:44Z</time>
      </trkpt>
      <trkpt lat="28.3211800" lon="-16.4989450">
        <ele>2013.9</ele>
        <time>2020-11-11T17:44:45Z</time>
      </trkpt>
      <trkpt lat="28.3211800" lon="-16.4989450">
        <ele>2014.9</ele>
        <time>2020-11-11T17:44:46Z</time>
      </trkpt>
      <trkpt lat="28.3211280" lon="-16.4989330">
        <ele>2014.9</ele>
        <time>2020-11-11T17:44:47Z</time>
      </trkpt>
      <trkpt lat="28.3211280" lon="-16.4989330">
        <ele>2014.9</ele>
        <time>2020-11-11T17:44:48Z</time>
      </trkpt>
      <trkpt lat="28.3210720" lon="-16.4989200">
        <ele>2014.9</ele>
        <time>2020-11-11T17:44:49Z</time>
      </trkpt>
      <trkpt lat="28.3210720" lon="-16.4989200">
        <ele>2014.9</ele>
        <time>2020-11-11T17:44:50Z</time>
      </trkpt>
      <trkpt lat="28.3210250" lon="-16.4989070">
        <ele>2014.9</ele>
        <time>2020-11-11T17:44:51Z</time>
      </trkpt>
      <trkpt lat="28.3210000" lon="-16.4989020">
        <ele>2014.9</ele>
        <time>2020-11-11T17:44:52Z</time>
      </trkpt>
      <trkpt lat="28.3210000" lon="-16.4989020">
        <ele>2014.9</ele>
        <time>2020-11-11T17:44:53Z</time>
      </trkpt>
      <trkpt lat="28.3209570" lon="-16.4988900">
        <ele>2015.9</ele>
        <time>2020-11-11T17:44:54Z</time>
      </trkpt>
      <trkpt lat="28.3209370" lon="-16.4988830">
        <ele>2015.9</ele>
        <time>2020-11-11T17:44:55Z</time>
      </trkpt>
      <trkpt lat="28.3209370" lon="-16.4988830">
        <ele>2015.9</ele>
        <time>2020-11-11T17:44:56Z</time>
      </trkpt>
      <trkpt lat="28.3208970" lon="-16.4988720">
        <ele>2015.9</ele>
        <time>2020-11-11T17:44:57Z</time>
      </trkpt>
      <trkpt lat="28.3208780" lon="-16.4988670">
        <ele>2015.9</ele>
        <time>2020-11-11T17:44:58Z</time>
      </trkpt>
      <trkpt lat="28.3208780" lon="-16.4988670">
        <ele>2015.9</ele>
        <time>2020-11-11T17:44:59Z</time>
      </trkpt>
      <trkpt lat="28.3208370" lon="-16.4988620">
        <ele>2015.9</ele>
        <time>2020-11-11T17:45:00Z</time>
      </trkpt>
      <trkpt lat="28.3208370" lon="-16.4988620">
        <ele>2015.9</ele>
        <time>2020-11-11T17:45:01Z</time>
      </trkpt>
      <trkpt lat="28.3207950" lon="-16.4988530">
        <ele>2015.9</ele>
        <time>2020-11-11T17:45:02Z</time>
      </trkpt>
      <trkpt lat="28.3207950" lon="-16.4988530">
        <ele>2015.9</ele>
        <time>2020-11-11T17:45:03Z</time>
      </trkpt>
      <trkpt lat="28.3207520" lon="-16.4988520">
        <ele>2015.9</ele>
        <time>2020-11-11T17:45:04Z</time>
      </trkpt>
      <trkpt lat="28.3207520" lon="-16.4988520">
        <ele>2015.9</ele>
        <time>2020-11-11T17:45:05Z</time>
      </trkpt>
      <trkpt lat="28.3207130" lon="-16.4988530">
        <ele>2015.9</ele>
        <time>2020-11-11T17:45:06Z</time>
      </trkpt>
      <trkpt lat="28.3207130" lon="-16.4988530">
        <ele>2015.9</ele>
        <time>2020-11-11T17:45:07Z</time>
      </trkpt>
      <trkpt lat="28.3206770" lon="-16.4988520">
        <ele>2015.9</ele>
        <time>2020-11-11T17:45:08Z</time>
      </trkpt>
      <trkpt lat="28.3206770" lon="-16.4988520">
        <ele>2015.9</ele>
        <time>2020-11-11T17:45:09Z</time>
      </trkpt>
      <trkpt lat="28.3206350" lon="-16.4988520">
        <ele>2016.9</ele>
        <time>2020-11-11T17:45:10Z</time>
      </trkpt>
      <trkpt lat="28.3206350" lon="-16.4988520">
        <ele>2016.9</ele>
        <time>2020-11-11T17:45:11Z</time>
      </trkpt>
      <trkpt lat="28.3205950" lon="-16.4988520">
        <ele>2016.9</ele>
        <time>2020-11-11T17:45:12Z</time>
      </trkpt>
      <trkpt lat="28.3205750" lon="-16.4988520">
        <ele>2016.9</ele>
        <time>2020-11-11T17:45:13Z</time>
      </trkpt>
      <trkpt lat="28.3205750" lon="-16.4988520">
        <ele>2016.9</ele>
        <time>2020-11-11T17:45:14Z</time>
      </trkpt>
      <trkpt lat="28.3205380" lon="-16.4988500">
        <ele>2016.9</ele>
        <time>2020-11-11T17:45:15Z</time>
      </trkpt>
      <trkpt lat="28.3205380" lon="-16.4988500">
        <ele>2016.9</ele>
        <time>2020-11-11T17:45:16Z</time>
      </trkpt>
      <trkpt lat="28.3205030" lon="-16.4988430">
        <ele>2016.9</ele>
        <time>2020-11-11T17:45:17Z</time>
      </trkpt>
      <trkpt lat="28.3205030" lon="-16.4988430">
        <ele>2017.9</ele>
        <time>2020-11-11T17:45:18Z</time>
      </trkpt>
      <trkpt lat="28.3204680" lon="-16.4988400">
        <ele>2017.9</ele>
        <time>2020-11-11T17:45:19Z</time>
      </trkpt>
      <trkpt lat="28.3204680" lon="-16.4988400">
        <ele>2017.9</ele>
        <time>2020-11-11T17:45:20Z</time>
      </trkpt>
      <trkpt lat="28.3204280" lon="-16.4988330">
        <ele>2017.9</ele>
        <time>2020-11-11T17:45:21Z</time>
      </trkpt>
      <trkpt lat="28.3204050" lon="-16.4988320">
        <ele>2018.9</ele>
        <time>2020-11-11T17:45:22Z</time>
      </trkpt>
      <trkpt lat="28.3204050" lon="-16.4988320">
        <ele>2018.9</ele>
        <time>2020-11-11T17:45:23Z</time>
      </trkpt>
      <trkpt lat="28.3203620" lon="-16.4988330">
        <ele>2018.9</ele>
        <time>2020-11-11T17:45:24Z</time>
      </trkpt>
      <trkpt lat="28.3203450" lon="-16.4988300">
        <ele>2018.9</ele>
        <time>2020-11-11T17:45:25Z</time>
      </trkpt>
      <trkpt lat="28.3203450" lon="-16.4988300">
        <ele>2018.9</ele>
        <time>2020-11-11T17:45:26Z</time>
      </trkpt>
      <trkpt lat="28.3203080" lon="-16.4988230">
        <ele>2018.9</ele>
        <time>2020-11-11T17:45:27Z</time>
      </trkpt>
      <trkpt lat="28.3203080" lon="-16.4988230">
        <ele>2018.9</ele>
        <time>2020-11-11T17:45:28Z</time>
      </trkpt>
      <trkpt lat="28.3202750" lon="-16.4988170">
        <ele>2018.9</ele>
        <time>2020-11-11T17:45:29Z</time>
      </trkpt>
      <trkpt lat="28.3202750" lon="-16.4988170">
        <ele>2018.9</ele>
        <time>2020-11-11T17:45:30Z</time>
      </trkpt>
      <trkpt lat="28.3202380" lon="-16.4988120">
        <ele>2019.9</ele>
        <time>2020-11-11T17:45:31Z</time>
      </trkpt>
      <trkpt lat="28.3202380" lon="-16.4988120">
        <ele>2019.9</ele>
        <time>2020-11-11T17:45:32Z</time>
      </trkpt>
      <trkpt lat="28.3202000" lon="-16.4988070">
        <ele>2019.9</ele>
        <time>2020-11-11T17:45:33Z</time>
      </trkpt>
      <trkpt lat="28.3202000" lon="-16.4988070">
        <ele>2019.9</ele>
        <time>2020-11-11T17:45:34Z</time>
      </trkpt>
      <trkpt lat="28.3201650" lon="-16.4988030">
        <ele>2019.9</ele>
        <time>2020-11-11T17:45:35Z</time>
      </trkpt>
      <trkpt lat="28.3201650" lon="-16.4988030">
        <ele>2019.9</ele>
        <time>2020-11-11T17:45:36Z</time>
      </trkpt>
      <trkpt lat="28.3201320" lon="-16.4987920">
        <ele>2020.9</ele>
        <time>2020-11-11T17:45:37Z</time>
      </trkpt>
      <trkpt lat="28.3201320" lon="-16.4987920">
        <ele>2020.9</ele>
        <time>2020-11-11T17:45:38Z</time>
      </trkpt>
      <trkpt lat="28.3200970" lon="-16.4987850">
        <ele>2020.9</ele>
        <time>2020-11-11T17:45:39Z</time>
      </trkpt>
      <trkpt lat="28.3200970" lon="-16.4987850">
        <ele>2020.9</ele>
        <time>2020-11-11T17:45:40Z</time>
      </trkpt>
      <trkpt lat="28.3200550" lon="-16.4987780">
        <ele>2020.9</ele>
        <time>2020-11-11T17:45:41Z</time>
      </trkpt>
      <trkpt lat="28.3200550" lon="-16.4987780">
        <ele>2020.9</ele>
        <time>2020-11-11T17:45:42Z</time>
      </trkpt>
      <trkpt lat="28.3200150" lon="-16.4987700">
        <ele>2020.9</ele>
        <time>2020-11-11T17:45:43Z</time>
      </trkpt>
      <trkpt lat="28.3200150" lon="-16.4987700">
        <ele>2020.9</ele>
        <time>2020-11-11T17:45:44Z</time>
      </trkpt>
      <trkpt lat="28.3199730" lon="-16.4987580">
        <ele>2021.9</ele>
        <time>2020-11-11T17:45:45Z</time>
      </trkpt>
      <trkpt lat="28.3199730" lon="-16.4987580">
        <ele>2021.9</ele>
        <time>2020-11-11T17:45:46Z</time>
      </trkpt>
      <trkpt lat="28.3199370" lon="-16.4987470">
        <ele>2021.9</ele>
        <time>2020-11-11T17:45:47Z</time>
      </trkpt>
      <trkpt lat="28.3199370" lon="-16.4987470">
        <ele>2021.9</ele>
        <time>2020-11-11T17:45:48Z</time>
      </trkpt>
      <trkpt lat="28.3199020" lon="-16.4987350">
        <ele>2021.9</ele>
        <time>2020-11-11T17:45:49Z</time>
      </trkpt>
      <trkpt lat="28.3199020" lon="-16.4987350">
        <ele>2021.9</ele>
        <time>2020-11-11T17:45:50Z</time>
      </trkpt>
      <trkpt lat="28.3198680" lon="-16.4987230">
        <ele>2021.9</ele>
        <time>2020-11-11T17:45:51Z</time>
      </trkpt>
      <trkpt lat="28.3198680" lon="-16.4987230">
        <ele>2021.9</ele>
        <time>2020-11-11T17:45:52Z</time>
      </trkpt>
      <trkpt lat="28.3198330" lon="-16.4987100">
        <ele>2022.9</ele>
        <time>2020-11-11T17:45:53Z</time>
      </trkpt>
      <trkpt lat="28.3198170" lon="-16.4987030">
        <ele>2022.9</ele>
        <time>2020-11-11T17:45:54Z</time>
      </trkpt>
      <trkpt lat="28.3198170" lon="-16.4987030">
        <ele>2022.9</ele>
        <time>2020-11-11T17:45:55Z</time>
      </trkpt>
      <trkpt lat="28.3197800" lon="-16.4986800">
        <ele>2022.9</ele>
        <time>2020-11-11T17:45:56Z</time>
      </trkpt>
      <trkpt lat="28.3197630" lon="-16.4986670">
        <ele>2025.9</ele>
        <time>2020-11-11T17:45:57Z</time>
      </trkpt>
      <trkpt lat="28.3197630" lon="-16.4986670">
        <ele>2025.9</ele>
        <time>2020-11-11T17:45:58Z</time>
      </trkpt>
      <trkpt lat="28.3197280" lon="-16.4986430">
        <ele>2025.9</ele>
        <time>2020-11-11T17:45:59Z</time>
      </trkpt>
      <trkpt lat="28.3197280" lon="-16.4986430">
        <ele>2025.9</ele>
        <time>2020-11-11T17:46:00Z</time>
      </trkpt>
      <trkpt lat="28.3197020" lon="-16.4986200">
        <ele>2023.9</ele>
        <time>2020-11-11T17:46:01Z</time>
      </trkpt>
      <trkpt lat="28.3197020" lon="-16.4986200">
        <ele>2023.9</ele>
        <time>2020-11-11T17:46:02Z</time>
      </trkpt>
      <trkpt lat="28.3196730" lon="-16.4986020">
        <ele>2023.9</ele>
        <time>2020-11-11T17:46:03Z</time>
      </trkpt>
      <trkpt lat="28.3196730" lon="-16.4986020">
        <ele>2023.9</ele>
        <time>2020-11-11T17:46:04Z</time>
      </trkpt>
      <trkpt lat="28.3196350" lon="-16.4985830">
        <ele>2023.9</ele>
        <time>2020-11-11T17:46:05Z</time>
      </trkpt>
      <trkpt lat="28.3196350" lon="-16.4985830">
        <ele>2023.9</ele>
        <time>2020-11-11T17:46:06Z</time>
      </trkpt>
      <trkpt lat="28.3196350" lon="-16.4985830">
        <ele>2023.9</ele>
        <time>2020-11-11T17:46:07Z</time>
      </trkpt>
      <trkpt lat="28.3195930" lon="-16.4985680">
        <ele>2023.9</ele>
        <time>2020-11-11T17:46:08Z</time>
      </trkpt>
      <trkpt lat="28.3195530" lon="-16.4985570">
        <ele>2023.9</ele>
        <time>2020-11-11T17:46:09Z</time>
      </trkpt>
      <trkpt lat="28.3195530" lon="-16.4985570">
        <ele>2023.9</ele>
        <time>2020-11-11T17:46:10Z</time>
      </trkpt>
      <trkpt lat="28.3195150" lon="-16.4985450">
        <ele>2023.9</ele>
        <time>2020-11-11T17:46:11Z</time>
      </trkpt>
      <trkpt lat="28.3195150" lon="-16.4985450">
        <ele>2023.9</ele>
        <time>2020-11-11T17:46:12Z</time>
      </trkpt>
      <trkpt lat="28.3194770" lon="-16.4985320">
        <ele>2023.9</ele>
        <time>2020-11-11T17:46:13Z</time>
      </trkpt>
      <trkpt lat="28.3194770" lon="-16.4985320">
        <ele>2023.9</ele>
        <time>2020-11-11T17:46:14Z</time>
      </trkpt>
      <trkpt lat="28.3194520" lon="-16.4985130">
        <ele>2023.9</ele>
        <time>2020-11-11T17:46:15Z</time>
      </trkpt>
      <trkpt lat="28.3194520" lon="-16.4985130">
        <ele>2024.9</ele>
        <time>2020-11-11T17:46:16Z</time>
      </trkpt>
      <trkpt lat="28.3194170" lon="-16.4984950">
        <ele>2024.9</ele>
        <time>2020-11-11T17:46:17Z</time>
      </trkpt>
      <trkpt lat="28.3194170" lon="-16.4984950">
        <ele>2024.9</ele>
        <time>2020-11-11T17:46:18Z</time>
      </trkpt>
      <trkpt lat="28.3193870" lon="-16.4984780">
        <ele>2024.9</ele>
        <time>2020-11-11T17:46:19Z</time>
      </trkpt>
      <trkpt lat="28.3193870" lon="-16.4984780">
        <ele>2024.9</ele>
        <time>2020-11-11T17:46:20Z</time>
      </trkpt>
      <trkpt lat="28.3193530" lon="-16.4984620">
        <ele>2024.9</ele>
        <time>2020-11-11T17:46:21Z</time>
      </trkpt>
      <trkpt lat="28.3193530" lon="-16.4984620">
        <ele>2024.9</ele>
        <time>2020-11-11T17:46:22Z</time>
      </trkpt>
      <trkpt lat="28.3193270" lon="-16.4984450">
        <ele>2024.9</ele>
        <time>2020-11-11T17:46:23Z</time>
      </trkpt>
      <trkpt lat="28.3193270" lon="-16.4984450">
        <ele>2025.9</ele>
        <time>2020-11-11T17:46:24Z</time>
      </trkpt>
      <trkpt lat="28.3192950" lon="-16.4984250">
        <ele>2025.9</ele>
        <time>2020-11-11T17:46:25Z</time>
      </trkpt>
      <trkpt lat="28.3192950" lon="-16.4984250">
        <ele>2025.9</ele>
        <time>2020-11-11T17:46:26Z</time>
      </trkpt>
      <trkpt lat="28.3192680" lon="-16.4984070">
        <ele>2025.9</ele>
        <time>2020-11-11T17:46:27Z</time>
      </trkpt>
      <trkpt lat="28.3192680" lon="-16.4984070">
        <ele>2026.9</ele>
        <time>2020-11-11T17:46:28Z</time>
      </trkpt>
      <trkpt lat="28.3192420" lon="-16.4983850">
        <ele>2026.9</ele>
        <time>2020-11-11T17:46:29Z</time>
      </trkpt>
      <trkpt lat="28.3192420" lon="-16.4983850">
        <ele>2026.9</ele>
        <time>2020-11-11T17:46:30Z</time>
      </trkpt>
      <trkpt lat="28.3192080" lon="-16.4983630">
        <ele>2026.9</ele>
        <time>2020-11-11T17:46:31Z</time>
      </trkpt>
      <trkpt lat="28.3192080" lon="-16.4983630">
        <ele>2026.9</ele>
        <time>2020-11-11T17:46:32Z</time>
      </trkpt>
      <trkpt lat="28.3191750" lon="-16.4983400">
        <ele>2026.9</ele>
        <time>2020-11-11T17:46:33Z</time>
      </trkpt>
      <trkpt lat="28.3191750" lon="-16.4983400">
        <ele>2026.9</ele>
        <time>2020-11-11T17:46:34Z</time>
      </trkpt>
      <trkpt lat="28.3191430" lon="-16.4983100">
        <ele>2026.9</ele>
        <time>2020-11-11T17:46:35Z</time>
      </trkpt>
      <trkpt lat="28.3191320" lon="-16.4982950">
        <ele>2026.9</ele>
        <time>2020-11-11T17:46:36Z</time>
      </trkpt>
      <trkpt lat="28.3191320" lon="-16.4982950">
        <ele>2026.9</ele>
        <time>2020-11-11T17:46:37Z</time>
      </trkpt>
      <trkpt lat="28.3190920" lon="-16.4982630">
        <ele>2027.9</ele>
        <time>2020-11-11T17:46:38Z</time>
      </trkpt>
      <trkpt lat="28.3190920" lon="-16.4982630">
        <ele>2027.9</ele>
        <time>2020-11-11T17:46:39Z</time>
      </trkpt>
      <trkpt lat="28.3190630" lon="-16.4982280">
        <ele>2027.9</ele>
        <time>2020-11-11T17:46:40Z</time>
      </trkpt>
      <trkpt lat="28.3190630" lon="-16.4982280">
        <ele>2027.9</ele>
        <time>2020-11-11T17:46:41Z</time>
      </trkpt>
      <trkpt lat="28.3190230" lon="-16.4982000">
        <ele>2027.9</ele>
        <time>2020-11-11T17:46:42Z</time>
      </trkpt>
      <trkpt lat="28.3190230" lon="-16.4982000">
        <ele>2027.9</ele>
        <time>2020-11-11T17:46:43Z</time>
      </trkpt>
      <trkpt lat="28.3189830" lon="-16.4981700">
        <ele>2027.9</ele>
        <time>2020-11-11T17:46:44Z</time>
      </trkpt>
      <trkpt lat="28.3189830" lon="-16.4981700">
        <ele>2027.9</ele>
        <time>2020-11-11T17:46:45Z</time>
      </trkpt>
      <trkpt lat="28.3189420" lon="-16.4981620">
        <ele>2027.9</ele>
        <time>2020-11-11T17:46:46Z</time>
      </trkpt>
      <trkpt lat="28.3189200" lon="-16.4981700">
        <ele>2027.9</ele>
        <time>2020-11-11T17:46:47Z</time>
      </trkpt>
      <trkpt lat="28.3189200" lon="-16.4981700">
        <ele>2027.9</ele>
        <time>2020-11-11T17:46:48Z</time>
      </trkpt>
      <trkpt lat="28.3188820" lon="-16.4982050">
        <ele>2027.9</ele>
        <time>2020-11-11T17:46:49Z</time>
      </trkpt>
      <trkpt lat="28.3188820" lon="-16.4982050">
        <ele>2027.9</ele>
        <time>2020-11-11T17:46:50Z</time>
      </trkpt>
      <trkpt lat="28.3188500" lon="-16.4982500">
        <ele>2027.9</ele>
        <time>2020-11-11T17:46:51Z</time>
      </trkpt>
      <trkpt lat="28.3188370" lon="-16.4982730">
        <ele>2027.9</ele>
        <time>2020-11-11T17:46:52Z</time>
      </trkpt>
      <trkpt lat="28.3188370" lon="-16.4982730">
        <ele>2027.9</ele>
        <time>2020-11-11T17:46:53Z</time>
      </trkpt>
      <trkpt lat="28.3188030" lon="-16.4983120">
        <ele>2027.9</ele>
        <time>2020-11-11T17:46:54Z</time>
      </trkpt>
      <trkpt lat="28.3188030" lon="-16.4983120">
        <ele>2027.9</ele>
        <time>2020-11-11T17:46:55Z</time>
      </trkpt>
      <trkpt lat="28.3187670" lon="-16.4983380">
        <ele>2027.9</ele>
        <time>2020-11-11T17:46:56Z</time>
      </trkpt>
      <trkpt lat="28.3187670" lon="-16.4983380">
        <ele>2027.9</ele>
        <time>2020-11-11T17:46:57Z</time>
      </trkpt>
      <trkpt lat="28.3187270" lon="-16.4983500">
        <ele>2028.9</ele>
        <time>2020-11-11T17:46:58Z</time>
      </trkpt>
      <trkpt lat="28.3187270" lon="-16.4983500">
        <ele>2028.9</ele>
        <time>2020-11-11T17:46:59Z</time>
      </trkpt>
      <trkpt lat="28.3186880" lon="-16.4983520">
        <ele>2028.9</ele>
        <time>2020-11-11T17:47:00Z</time>
      </trkpt>
      <trkpt lat="28.3186700" lon="-16.4983480">
        <ele>2028.9</ele>
        <time>2020-11-11T17:47:01Z</time>
      </trkpt>
      <trkpt lat="28.3186700" lon="-16.4983480">
        <ele>2028.9</ele>
        <time>2020-11-11T17:47:02Z</time>
      </trkpt>
      <trkpt lat="28.3186320" lon="-16.4983420">
        <ele>2028.9</ele>
        <time>2020-11-11T17:47:03Z</time>
      </trkpt>
      <trkpt lat="28.3186120" lon="-16.4983350">
        <ele>2029.9</ele>
        <time>2020-11-11T17:47:04Z</time>
      </trkpt>
      <trkpt lat="28.3186120" lon="-16.4983350">
        <ele>2029.9</ele>
        <time>2020-11-11T17:47:05Z</time>
      </trkpt>
      <trkpt lat="28.3185580" lon="-16.4983280">
        <ele>2029.9</ele>
        <time>2020-11-11T17:47:06Z</time>
      </trkpt>
      <trkpt lat="28.3185350" lon="-16.4983220">
        <ele>2029.9</ele>
        <time>2020-11-11T17:47:07Z</time>
      </trkpt>
      <trkpt lat="28.3185350" lon="-16.4983220">
        <ele>2029.9</ele>
        <time>2020-11-11T17:47:08Z</time>
      </trkpt>
      <trkpt lat="28.3184930" lon="-16.4983150">
        <ele>2029.9</ele>
        <time>2020-11-11T17:47:09Z</time>
      </trkpt>
      <trkpt lat="28.3184930" lon="-16.4983150">
        <ele>2029.9</ele>
        <time>2020-11-11T17:47:10Z</time>
      </trkpt>
      <trkpt lat="28.3184550" lon="-16.4983050">
        <ele>2029.9</ele>
        <time>2020-11-11T17:47:11Z</time>
      </trkpt>
      <trkpt lat="28.3184550" lon="-16.4983050">
        <ele>2029.9</ele>
        <time>2020-11-11T17:47:12Z</time>
      </trkpt>
      <trkpt lat="28.3184130" lon="-16.4982970">
        <ele>2029.9</ele>
        <time>2020-11-11T17:47:13Z</time>
      </trkpt>
      <trkpt lat="28.3183930" lon="-16.4982930">
        <ele>2029.9</ele>
        <time>2020-11-11T17:47:14Z</time>
      </trkpt>
      <trkpt lat="28.3183930" lon="-16.4982930">
        <ele>2029.9</ele>
        <time>2020-11-11T17:47:15Z</time>
      </trkpt>
      <trkpt lat="28.3183520" lon="-16.4982870">
        <ele>2030.9</ele>
        <time>2020-11-11T17:47:16Z</time>
      </trkpt>
      <trkpt lat="28.3183520" lon="-16.4982870">
        <ele>2030.9</ele>
        <time>2020-11-11T17:47:17Z</time>
      </trkpt>
      <trkpt lat="28.3183100" lon="-16.4982750">
        <ele>2030.9</ele>
        <time>2020-11-11T17:47:18Z</time>
      </trkpt>
      <trkpt lat="28.3183100" lon="-16.4982750">
        <ele>2030.9</ele>
        <time>2020-11-11T17:47:19Z</time>
      </trkpt>
      <trkpt lat="28.3182670" lon="-16.4982600">
        <ele>2030.9</ele>
        <time>2020-11-11T17:47:20Z</time>
      </trkpt>
      <trkpt lat="28.3182670" lon="-16.4982600">
        <ele>2031.9</ele>
        <time>2020-11-11T17:47:21Z</time>
      </trkpt>
      <trkpt lat="28.3182230" lon="-16.4982430">
        <ele>2031.9</ele>
        <time>2020-11-11T17:47:22Z</time>
      </trkpt>
      <trkpt lat="28.3182020" lon="-16.4982350">
        <ele>2031.9</ele>
        <time>2020-11-11T17:47:23Z</time>
      </trkpt>
      <trkpt lat="28.3182020" lon="-16.4982350">
        <ele>2031.9</ele>
        <time>2020-11-11T17:47:24Z</time>
      </trkpt>
      <trkpt lat="28.3181470" lon="-16.4982420">
        <ele>2031.9</ele>
        <time>2020-11-11T17:47:25Z</time>
      </trkpt>
      <trkpt lat="28.3181470" lon="-16.4982420">
        <ele>2031.9</ele>
        <time>2020-11-11T17:47:26Z</time>
      </trkpt>
      <trkpt lat="28.3180980" lon="-16.4982870">
        <ele>2031.9</ele>
        <time>2020-11-11T17:47:27Z</time>
      </trkpt>
      <trkpt lat="28.3180980" lon="-16.4982870">
        <ele>2031.9</ele>
        <time>2020-11-11T17:47:28Z</time>
      </trkpt>
      <trkpt lat="28.3180600" lon="-16.4983420">
        <ele>2031.9</ele>
        <time>2020-11-11T17:47:29Z</time>
      </trkpt>
      <trkpt lat="28.3180600" lon="-16.4983420">
        <ele>2031.9</ele>
        <time>2020-11-11T17:47:30Z</time>
      </trkpt>
      <trkpt lat="28.3180250" lon="-16.4983970">
        <ele>2031.9</ele>
        <time>2020-11-11T17:47:31Z</time>
      </trkpt>
      <trkpt lat="28.3180250" lon="-16.4983970">
        <ele>2031.9</ele>
        <time>2020-11-11T17:47:32Z</time>
      </trkpt>
      <trkpt lat="28.3179970" lon="-16.4984550">
        <ele>2032.9</ele>
        <time>2020-11-11T17:47:33Z</time>
      </trkpt>
      <trkpt lat="28.3179970" lon="-16.4984550">
        <ele>2032.9</ele>
        <time>2020-11-11T17:47:34Z</time>
      </trkpt>
      <trkpt lat="28.3179620" lon="-16.4985100">
        <ele>2032.9</ele>
        <time>2020-11-11T17:47:35Z</time>
      </trkpt>
      <trkpt lat="28.3179450" lon="-16.4985370">
        <ele>2032.9</ele>
        <time>2020-11-11T17:47:36Z</time>
      </trkpt>
      <trkpt lat="28.3179450" lon="-16.4985370">
        <ele>2032.9</ele>
        <time>2020-11-11T17:47:37Z</time>
      </trkpt>
      <trkpt lat="28.3179170" lon="-16.4985850">
        <ele>2032.9</ele>
        <time>2020-11-11T17:47:38Z</time>
      </trkpt>
      <trkpt lat="28.3179170" lon="-16.4985850">
        <ele>2032.9</ele>
        <time>2020-11-11T17:47:39Z</time>
      </trkpt>
      <trkpt lat="28.3178920" lon="-16.4986450">
        <ele>2032.9</ele>
        <time>2020-11-11T17:47:40Z</time>
      </trkpt>
      <trkpt lat="28.3178920" lon="-16.4986450">
        <ele>2028.9</ele>
        <time>2020-11-11T17:47:41Z</time>
      </trkpt>
      <trkpt lat="28.3178750" lon="-16.4987100">
        <ele>2028.9</ele>
        <time>2020-11-11T17:47:42Z</time>
      </trkpt>
      <trkpt lat="28.3178750" lon="-16.4987100">
        <ele>2028.9</ele>
        <time>2020-11-11T17:47:43Z</time>
      </trkpt>
      <trkpt lat="28.3178730" lon="-16.4987680">
        <ele>2030.9</ele>
        <time>2020-11-11T17:47:44Z</time>
      </trkpt>
      <trkpt lat="28.3178730" lon="-16.4987680">
        <ele>2030.9</ele>
        <time>2020-11-11T17:47:45Z</time>
      </trkpt>
      <trkpt lat="28.3178700" lon="-16.4988230">
        <ele>2032.9</ele>
        <time>2020-11-11T17:47:46Z</time>
      </trkpt>
      <trkpt lat="28.3178700" lon="-16.4988230">
        <ele>2032.9</ele>
        <time>2020-11-11T17:47:47Z</time>
      </trkpt>
      <trkpt lat="28.3178700" lon="-16.4988900">
        <ele>2033.9</ele>
        <time>2020-11-11T17:47:48Z</time>
      </trkpt>
      <trkpt lat="28.3178700" lon="-16.4988900">
        <ele>2033.9</ele>
        <time>2020-11-11T17:47:49Z</time>
      </trkpt>
      <trkpt lat="28.3178780" lon="-16.4989570">
        <ele>2033.9</ele>
        <time>2020-11-11T17:47:50Z</time>
      </trkpt>
      <trkpt lat="28.3178780" lon="-16.4989570">
        <ele>2033.9</ele>
        <time>2020-11-11T17:47:51Z</time>
      </trkpt>
      <trkpt lat="28.3178980" lon="-16.4990100">
        <ele>2033.9</ele>
        <time>2020-11-11T17:47:52Z</time>
      </trkpt>
      <trkpt lat="28.3178980" lon="-16.4990100">
        <ele>2033.9</ele>
        <time>2020-11-11T17:47:53Z</time>
      </trkpt>
      <trkpt lat="28.3179200" lon="-16.4990570">
        <ele>2033.9</ele>
        <time>2020-11-11T17:47:54Z</time>
      </trkpt>
      <trkpt lat="28.3179200" lon="-16.4990570">
        <ele>2033.9</ele>
        <time>2020-11-11T17:47:55Z</time>
      </trkpt>
      <trkpt lat="28.3179430" lon="-16.4991030">
        <ele>2033.9</ele>
        <time>2020-11-11T17:47:56Z</time>
      </trkpt>
      <trkpt lat="28.3179430" lon="-16.4991030">
        <ele>2033.9</ele>
        <time>2020-11-11T17:47:57Z</time>
      </trkpt>
      <trkpt lat="28.3179600" lon="-16.4991520">
        <ele>2033.9</ele>
        <time>2020-11-11T17:47:58Z</time>
      </trkpt>
      <trkpt lat="28.3179600" lon="-16.4991520">
        <ele>2034.9</ele>
        <time>2020-11-11T17:47:59Z</time>
      </trkpt>
      <trkpt lat="28.3179750" lon="-16.4991980">
        <ele>2034.9</ele>
        <time>2020-11-11T17:48:00Z</time>
      </trkpt>
      <trkpt lat="28.3179750" lon="-16.4991980">
        <ele>2034.9</ele>
        <time>2020-11-11T17:48:01Z</time>
      </trkpt>
      <trkpt lat="28.3179750" lon="-16.4991980">
        <ele>2034.9</ele>
        <time>2020-11-11T17:48:02Z</time>
      </trkpt>
      <trkpt lat="28.3179850" lon="-16.4992480">
        <ele>2034.9</ele>
        <time>2020-11-11T17:48:03Z</time>
      </trkpt>
      <trkpt lat="28.3179950" lon="-16.4992980">
        <ele>2034.9</ele>
        <time>2020-11-11T17:48:04Z</time>
      </trkpt>
      <trkpt lat="28.3179970" lon="-16.4993230">
        <ele>2034.9</ele>
        <time>2020-11-11T17:48:05Z</time>
      </trkpt>
      <trkpt lat="28.3179970" lon="-16.4993230">
        <ele>2035.9</ele>
        <time>2020-11-11T17:48:06Z</time>
      </trkpt>
      <trkpt lat="28.3180030" lon="-16.4993750">
        <ele>2035.9</ele>
        <time>2020-11-11T17:48:07Z</time>
      </trkpt>
      <trkpt lat="28.3180030" lon="-16.4993750">
        <ele>2035.9</ele>
        <time>2020-11-11T17:48:08Z</time>
      </trkpt>
      <trkpt lat="28.3180170" lon="-16.4994200">
        <ele>2035.9</ele>
        <time>2020-11-11T17:48:09Z</time>
      </trkpt>
      <trkpt lat="28.3180170" lon="-16.4994200">
        <ele>2035.9</ele>
        <time>2020-11-11T17:48:10Z</time>
      </trkpt>
      <trkpt lat="28.3180350" lon="-16.4994650">
        <ele>2035.9</ele>
        <time>2020-11-11T17:48:11Z</time>
      </trkpt>
      <trkpt lat="28.3180350" lon="-16.4994650">
        <ele>2036.9</ele>
        <time>2020-11-11T17:48:12Z</time>
      </trkpt>
      <trkpt lat="28.3180480" lon="-16.4995100">
        <ele>2036.9</ele>
        <time>2020-11-11T17:48:13Z</time>
      </trkpt>
      <trkpt lat="28.3180480" lon="-16.4995100">
        <ele>2036.9</ele>
        <time>2020-11-11T17:48:14Z</time>
      </trkpt>
      <trkpt lat="28.3180550" lon="-16.4995580">
        <ele>2036.9</ele>
        <time>2020-11-11T17:48:15Z</time>
      </trkpt>
      <trkpt lat="28.3180550" lon="-16.4995580">
        <ele>2036.9</ele>
        <time>2020-11-11T17:48:16Z</time>
      </trkpt>
      <trkpt lat="28.3180500" lon="-16.4996100">
        <ele>2036.9</ele>
        <time>2020-11-11T17:48:17Z</time>
      </trkpt>
      <trkpt lat="28.3180500" lon="-16.4996370">
        <ele>2036.9</ele>
        <time>2020-11-11T17:48:18Z</time>
      </trkpt>
      <trkpt lat="28.3180500" lon="-16.4996370">
        <ele>2036.9</ele>
        <time>2020-11-11T17:48:19Z</time>
      </trkpt>
      <trkpt lat="28.3180480" lon="-16.4996870">
        <ele>2036.9</ele>
        <time>2020-11-11T17:48:20Z</time>
      </trkpt>
      <trkpt lat="28.3180480" lon="-16.4996870">
        <ele>2037.9</ele>
        <time>2020-11-11T17:48:21Z</time>
      </trkpt>
      <trkpt lat="28.3180420" lon="-16.4997370">
        <ele>2037.9</ele>
        <time>2020-11-11T17:48:22Z</time>
      </trkpt>
      <trkpt lat="28.3180420" lon="-16.4997370">
        <ele>2037.9</ele>
        <time>2020-11-11T17:48:23Z</time>
      </trkpt>
      <trkpt lat="28.3180330" lon="-16.4997880">
        <ele>2037.9</ele>
        <time>2020-11-11T17:48:24Z</time>
      </trkpt>
      <trkpt lat="28.3180330" lon="-16.4997880">
        <ele>2037.9</ele>
        <time>2020-11-11T17:48:25Z</time>
      </trkpt>
      <trkpt lat="28.3180220" lon="-16.4998400">
        <ele>2037.9</ele>
        <time>2020-11-11T17:48:26Z</time>
      </trkpt>
      <trkpt lat="28.3180220" lon="-16.4998400">
        <ele>2037.9</ele>
        <time>2020-11-11T17:48:27Z</time>
      </trkpt>
      <trkpt lat="28.3180230" lon="-16.4999080">
        <ele>2037.9</ele>
        <time>2020-11-11T17:48:28Z</time>
      </trkpt>
      <trkpt lat="28.3180230" lon="-16.4999080">
        <ele>2037.9</ele>
        <time>2020-11-11T17:48:29Z</time>
      </trkpt>
      <trkpt lat="28.3180480" lon="-16.4999600">
        <ele>2037.9</ele>
        <time>2020-11-11T17:48:30Z</time>
      </trkpt>
      <trkpt lat="28.3180650" lon="-16.4999800">
        <ele>2037.9</ele>
        <time>2020-11-11T17:48:31Z</time>
      </trkpt>
      <trkpt lat="28.3180650" lon="-16.4999800">
        <ele>2037.9</ele>
        <time>2020-11-11T17:48:32Z</time>
      </trkpt>
      <trkpt lat="28.3180970" lon="-16.5000220">
        <ele>2038.9</ele>
        <time>2020-11-11T17:48:33Z</time>
      </trkpt>
      <trkpt lat="28.3180970" lon="-16.5000220">
        <ele>2038.9</ele>
        <time>2020-11-11T17:48:34Z</time>
      </trkpt>
      <trkpt lat="28.3181230" lon="-16.5000600">
        <ele>2038.9</ele>
        <time>2020-11-11T17:48:35Z</time>
      </trkpt>
      <trkpt lat="28.3181230" lon="-16.5000600">
        <ele>2038.9</ele>
        <time>2020-11-11T17:48:36Z</time>
      </trkpt>
      <trkpt lat="28.3181480" lon="-16.5000920">
        <ele>2038.9</ele>
        <time>2020-11-11T17:48:37Z</time>
      </trkpt>
      <trkpt lat="28.3181480" lon="-16.5000920">
        <ele>2039.9</ele>
        <time>2020-11-11T17:48:38Z</time>
      </trkpt>
      <trkpt lat="28.3181720" lon="-16.5001280">
        <ele>2039.9</ele>
        <time>2020-11-11T17:48:39Z</time>
      </trkpt>
      <trkpt lat="28.3181720" lon="-16.5001280">
        <ele>2039.9</ele>
        <time>2020-11-11T17:48:40Z</time>
      </trkpt>
      <trkpt lat="28.3181780" lon="-16.5001480">
        <ele>2039.9</ele>
        <time>2020-11-11T17:48:41Z</time>
      </trkpt>
      <trkpt lat="28.3181900" lon="-16.5001930">
        <ele>2039.9</ele>
        <time>2020-11-11T17:48:42Z</time>
      </trkpt>
      <trkpt lat="28.3181880" lon="-16.5002200">
        <ele>2039.9</ele>
        <time>2020-11-11T17:48:43Z</time>
      </trkpt>
      <trkpt lat="28.3181870" lon="-16.5002480">
        <ele>2039.9</ele>
        <time>2020-11-11T17:48:44Z</time>
      </trkpt>
      <trkpt lat="28.3181830" lon="-16.5002780">
        <ele>2039.9</ele>
        <time>2020-11-11T17:48:45Z</time>
      </trkpt>
      <trkpt lat="28.3181770" lon="-16.5003050">
        <ele>2039.9</ele>
        <time>2020-11-11T17:48:46Z</time>
      </trkpt>
      <trkpt lat="28.3181770" lon="-16.5003050">
        <ele>2039.9</ele>
        <time>2020-11-11T17:48:47Z</time>
      </trkpt>
      <trkpt lat="28.3181530" lon="-16.5003580">
        <ele>2039.9</ele>
        <time>2020-11-11T17:48:48Z</time>
      </trkpt>
      <trkpt lat="28.3181420" lon="-16.5003830">
        <ele>2039.9</ele>
        <time>2020-11-11T17:48:49Z</time>
      </trkpt>
      <trkpt lat="28.3181420" lon="-16.5003830">
        <ele>2039.9</ele>
        <time>2020-11-11T17:48:50Z</time>
      </trkpt>
      <trkpt lat="28.3181120" lon="-16.5004200">
        <ele>2039.9</ele>
        <time>2020-11-11T17:48:51Z</time>
      </trkpt>
      <trkpt lat="28.3181120" lon="-16.5004200">
        <ele>2039.9</ele>
        <time>2020-11-11T17:48:52Z</time>
      </trkpt>
      <trkpt lat="28.3180780" lon="-16.5004550">
        <ele>2039.9</ele>
        <time>2020-11-11T17:48:53Z</time>
      </trkpt>
      <trkpt lat="28.3180780" lon="-16.5004550">
        <ele>2039.9</ele>
        <time>2020-11-11T17:48:54Z</time>
      </trkpt>
      <trkpt lat="28.3180580" lon="-16.5004980">
        <ele>2039.9</ele>
        <time>2020-11-11T17:48:55Z</time>
      </trkpt>
      <trkpt lat="28.3180580" lon="-16.5004980">
        <ele>2040.9</ele>
        <time>2020-11-11T17:48:56Z</time>
      </trkpt>
      <trkpt lat="28.3180520" lon="-16.5005500">
        <ele>2040.9</ele>
        <time>2020-11-11T17:48:57Z</time>
      </trkpt>
      <trkpt lat="28.3180520" lon="-16.5005500">
        <ele>2040.9</ele>
        <time>2020-11-11T17:48:58Z</time>
      </trkpt>
      <trkpt lat="28.3180520" lon="-16.5005500">
        <ele>2040.9</ele>
        <time>2020-11-11T17:48:59Z</time>
      </trkpt>
      <trkpt lat="28.3180680" lon="-16.5006020">
        <ele>2040.9</ele>
        <time>2020-11-11T17:49:00Z</time>
      </trkpt>
      <trkpt lat="28.3180950" lon="-16.5006320">
        <ele>2040.9</ele>
        <time>2020-11-11T17:49:01Z</time>
      </trkpt>
      <trkpt lat="28.3180950" lon="-16.5006320">
        <ele>2040.9</ele>
        <time>2020-11-11T17:49:02Z</time>
      </trkpt>
      <trkpt lat="28.3181270" lon="-16.5006580">
        <ele>2040.9</ele>
        <time>2020-11-11T17:49:03Z</time>
      </trkpt>
      <trkpt lat="28.3181270" lon="-16.5006580">
        <ele>2040.9</ele>
        <time>2020-11-11T17:49:04Z</time>
      </trkpt>
      <trkpt lat="28.3181530" lon="-16.5006880">
        <ele>2040.9</ele>
        <time>2020-11-11T17:49:05Z</time>
      </trkpt>
      <trkpt lat="28.3181530" lon="-16.5006880">
        <ele>2040.9</ele>
        <time>2020-11-11T17:49:06Z</time>
      </trkpt>
      <trkpt lat="28.3181820" lon="-16.5007230">
        <ele>2040.9</ele>
        <time>2020-11-11T17:49:07Z</time>
      </trkpt>
      <trkpt lat="28.3181820" lon="-16.5007230">
        <ele>2040.9</ele>
        <time>2020-11-11T17:49:08Z</time>
      </trkpt>
      <trkpt lat="28.3182120" lon="-16.5007550">
        <ele>2041.9</ele>
        <time>2020-11-11T17:49:09Z</time>
      </trkpt>
      <trkpt lat="28.3182120" lon="-16.5007550">
        <ele>2041.9</ele>
        <time>2020-11-11T17:49:10Z</time>
      </trkpt>
      <trkpt lat="28.3182420" lon="-16.5007850">
        <ele>2041.9</ele>
        <time>2020-11-11T17:49:11Z</time>
      </trkpt>
      <trkpt lat="28.3182420" lon="-16.5007850">
        <ele>2041.9</ele>
        <time>2020-11-11T17:49:12Z</time>
      </trkpt>
      <trkpt lat="28.3182680" lon="-16.5008170">
        <ele>2041.9</ele>
        <time>2020-11-11T17:49:13Z</time>
      </trkpt>
      <trkpt lat="28.3182680" lon="-16.5008170">
        <ele>2042.9</ele>
        <time>2020-11-11T17:49:14Z</time>
      </trkpt>
      <trkpt lat="28.3182900" lon="-16.5008520">
        <ele>2042.9</ele>
        <time>2020-11-11T17:49:15Z</time>
      </trkpt>
      <trkpt lat="28.3183000" lon="-16.5008700">
        <ele>2042.9</ele>
        <time>2020-11-11T17:49:16Z</time>
      </trkpt>
      <trkpt lat="28.3183000" lon="-16.5008700">
        <ele>2042.9</ele>
        <time>2020-11-11T17:49:17Z</time>
      </trkpt>
      <trkpt lat="28.3183070" lon="-16.5008830">
        <ele>2042.9</ele>
        <time>2020-11-11T17:49:18Z</time>
      </trkpt>
      <trkpt lat="28.3183050" lon="-16.5008830">
        <ele>2042.9</ele>
        <time>2020-11-11T17:49:19Z</time>
      </trkpt>
      <trkpt lat="28.3183050" lon="-16.5008830">
        <ele>2042.9</ele>
        <time>2020-11-11T17:49:20Z</time>
      </trkpt>
      <trkpt lat="28.3183050" lon="-16.5008830">
        <ele>2042.9</ele>
        <time>2020-11-11T17:49:21Z</time>
      </trkpt>
      <trkpt lat="28.3183150" lon="-16.5009050">
        <ele>2042.9</ele>
        <time>2020-11-11T17:49:34Z</time>
      </trkpt>
      <trkpt lat="28.3183150" lon="-16.5009050">
        <ele>2042.9</ele>
        <time>2020-11-11T17:49:39Z</time>
      </trkpt>
      <trkpt lat="28.3183150" lon="-16.5009050">
        <ele>2042.9</ele>
        <time>2020-11-11T17:49:40Z</time>
      </trkpt>
      <trkpt lat="28.3183350" lon="-16.5009480">
        <ele>2042.9</ele>
        <time>2020-11-11T17:49:41Z</time>
      </trkpt>
      <trkpt lat="28.3183430" lon="-16.5009650">
        <ele>2043.9</ele>
        <time>2020-11-11T17:49:42Z</time>
      </trkpt>
      <trkpt lat="28.3183430" lon="-16.5009650">
        <ele>2043.9</ele>
        <time>2020-11-11T17:49:43Z</time>
      </trkpt>
      <trkpt lat="28.3183530" lon="-16.5010070">
        <ele>2043.9</ele>
        <time>2020-11-11T17:49:44Z</time>
      </trkpt>
      <trkpt lat="28.3183530" lon="-16.5010070">
        <ele>2043.9</ele>
        <time>2020-11-11T17:49:45Z</time>
      </trkpt>
      <trkpt lat="28.3183720" lon="-16.5010530">
        <ele>2043.9</ele>
        <time>2020-11-11T17:49:46Z</time>
      </trkpt>
      <trkpt lat="28.3183720" lon="-16.5010530">
        <ele>2043.9</ele>
        <time>2020-11-11T17:49:47Z</time>
      </trkpt>
      <trkpt lat="28.3183830" lon="-16.5010980">
        <ele>2043.9</ele>
        <time>2020-11-11T17:49:48Z</time>
      </trkpt>
      <trkpt lat="28.3183830" lon="-16.5010980">
        <ele>2043.9</ele>
        <time>2020-11-11T17:49:49Z</time>
      </trkpt>
      <trkpt lat="28.3183950" lon="-16.5011370">
        <ele>2044.9</ele>
        <time>2020-11-11T17:49:50Z</time>
      </trkpt>
      <trkpt lat="28.3183950" lon="-16.5011370">
        <ele>2044.9</ele>
        <time>2020-11-11T17:49:51Z</time>
      </trkpt>
      <trkpt lat="28.3184070" lon="-16.5011730">
        <ele>2044.9</ele>
        <time>2020-11-11T17:49:52Z</time>
      </trkpt>
      <trkpt lat="28.3184080" lon="-16.5011930">
        <ele>2044.9</ele>
        <time>2020-11-11T17:49:53Z</time>
      </trkpt>
      <trkpt lat="28.3184120" lon="-16.5012170">
        <ele>2045.9</ele>
        <time>2020-11-11T17:49:54Z</time>
      </trkpt>
      <trkpt lat="28.3184120" lon="-16.5012170">
        <ele>2045.9</ele>
        <time>2020-11-11T17:49:55Z</time>
      </trkpt>
      <trkpt lat="28.3184250" lon="-16.5012650">
        <ele>2045.9</ele>
        <time>2020-11-11T17:49:56Z</time>
      </trkpt>
      <trkpt lat="28.3184250" lon="-16.5012650">
        <ele>2045.9</ele>
        <time>2020-11-11T17:49:57Z</time>
      </trkpt>
      <trkpt lat="28.3184400" lon="-16.5013100">
        <ele>2045.9</ele>
        <time>2020-11-11T17:49:58Z</time>
      </trkpt>
      <trkpt lat="28.3184400" lon="-16.5013100">
        <ele>2045.9</ele>
        <time>2020-11-11T17:49:59Z</time>
      </trkpt>
      <trkpt lat="28.3184550" lon="-16.5013530">
        <ele>2045.9</ele>
        <time>2020-11-11T17:50:00Z</time>
      </trkpt>
      <trkpt lat="28.3184550" lon="-16.5013530">
        <ele>2045.9</ele>
        <time>2020-11-11T17:50:01Z</time>
      </trkpt>
      <trkpt lat="28.3184650" lon="-16.5014000">
        <ele>2045.9</ele>
        <time>2020-11-11T17:50:02Z</time>
      </trkpt>
      <trkpt lat="28.3184650" lon="-16.5014000">
        <ele>2045.9</ele>
        <time>2020-11-11T17:50:03Z</time>
      </trkpt>
      <trkpt lat="28.3184780" lon="-16.5014430">
        <ele>2046.9</ele>
        <time>2020-11-11T17:50:04Z</time>
      </trkpt>
      <trkpt lat="28.3184850" lon="-16.5014630">
        <ele>2046.9</ele>
        <time>2020-11-11T17:50:05Z</time>
      </trkpt>
      <trkpt lat="28.3184850" lon="-16.5014630">
        <ele>2046.9</ele>
        <time>2020-11-11T17:50:06Z</time>
      </trkpt>
      <trkpt lat="28.3184950" lon="-16.5015050">
        <ele>2046.9</ele>
        <time>2020-11-11T17:50:07Z</time>
      </trkpt>
      <trkpt lat="28.3184950" lon="-16.5015050">
        <ele>2046.9</ele>
        <time>2020-11-11T17:50:08Z</time>
      </trkpt>
      <trkpt lat="28.3185030" lon="-16.5015520">
        <ele>2046.9</ele>
        <time>2020-11-11T17:50:09Z</time>
      </trkpt>
      <trkpt lat="28.3185030" lon="-16.5015520">
        <ele>2046.9</ele>
        <time>2020-11-11T17:50:10Z</time>
      </trkpt>
      <trkpt lat="28.3185130" lon="-16.5015950">
        <ele>2047.9</ele>
        <time>2020-11-11T17:50:11Z</time>
      </trkpt>
      <trkpt lat="28.3185130" lon="-16.5015950">
        <ele>2047.9</ele>
        <time>2020-11-11T17:50:12Z</time>
      </trkpt>
      <trkpt lat="28.3185220" lon="-16.5016400">
        <ele>2047.9</ele>
        <time>2020-11-11T17:50:13Z</time>
      </trkpt>
      <trkpt lat="28.3185220" lon="-16.5016400">
        <ele>2047.9</ele>
        <time>2020-11-11T17:50:14Z</time>
      </trkpt>
      <trkpt lat="28.3185320" lon="-16.5016850">
        <ele>2047.9</ele>
        <time>2020-11-11T17:50:15Z</time>
      </trkpt>
      <trkpt lat="28.3185320" lon="-16.5016850">
        <ele>2048.9</ele>
        <time>2020-11-11T17:50:16Z</time>
      </trkpt>
      <trkpt lat="28.3185420" lon="-16.5017300">
        <ele>2048.9</ele>
        <time>2020-11-11T17:50:17Z</time>
      </trkpt>
      <trkpt lat="28.3185420" lon="-16.5017300">
        <ele>2048.9</ele>
        <time>2020-11-11T17:50:18Z</time>
      </trkpt>
      <trkpt lat="28.3185480" lon="-16.5017770">
        <ele>2048.9</ele>
        <time>2020-11-11T17:50:19Z</time>
      </trkpt>
      <trkpt lat="28.3185480" lon="-16.5017770">
        <ele>2048.9</ele>
        <time>2020-11-11T17:50:20Z</time>
      </trkpt>
      <trkpt lat="28.3185530" lon="-16.5018230">
        <ele>2048.9</ele>
        <time>2020-11-11T17:50:21Z</time>
      </trkpt>
      <trkpt lat="28.3185530" lon="-16.5018230">
        <ele>2048.9</ele>
        <time>2020-11-11T17:50:22Z</time>
      </trkpt>
      <trkpt lat="28.3185580" lon="-16.5018650">
        <ele>2048.9</ele>
        <time>2020-11-11T17:50:23Z</time>
      </trkpt>
      <trkpt lat="28.3185580" lon="-16.5018650">
        <ele>2049.9</ele>
        <time>2020-11-11T17:50:24Z</time>
      </trkpt>
      <trkpt lat="28.3185620" lon="-16.5019100">
        <ele>2049.9</ele>
        <time>2020-11-11T17:50:25Z</time>
      </trkpt>
      <trkpt lat="28.3185620" lon="-16.5019100">
        <ele>2049.9</ele>
        <time>2020-11-11T17:50:26Z</time>
      </trkpt>
      <trkpt lat="28.3185720" lon="-16.5019630">
        <ele>2049.9</ele>
        <time>2020-11-11T17:50:27Z</time>
      </trkpt>
      <trkpt lat="28.3185720" lon="-16.5019630">
        <ele>2049.9</ele>
        <time>2020-11-11T17:50:28Z</time>
      </trkpt>
      <trkpt lat="28.3185820" lon="-16.5020170">
        <ele>2049.9</ele>
        <time>2020-11-11T17:50:29Z</time>
      </trkpt>
      <trkpt lat="28.3185820" lon="-16.5020170">
        <ele>2049.9</ele>
        <time>2020-11-11T17:50:30Z</time>
      </trkpt>
      <trkpt lat="28.3185870" lon="-16.5020650">
        <ele>2049.9</ele>
        <time>2020-11-11T17:50:31Z</time>
      </trkpt>
      <trkpt lat="28.3185870" lon="-16.5020650">
        <ele>2049.9</ele>
        <time>2020-11-11T17:50:32Z</time>
      </trkpt>
      <trkpt lat="28.3185900" lon="-16.5021120">
        <ele>2049.9</ele>
        <time>2020-11-11T17:50:33Z</time>
      </trkpt>
      <trkpt lat="28.3185880" lon="-16.5021370">
        <ele>2049.9</ele>
        <time>2020-11-11T17:50:34Z</time>
      </trkpt>
      <trkpt lat="28.3185880" lon="-16.5021370">
        <ele>2049.9</ele>
        <time>2020-11-11T17:50:35Z</time>
      </trkpt>
      <trkpt lat="28.3185830" lon="-16.5021800">
        <ele>2050.9</ele>
        <time>2020-11-11T17:50:36Z</time>
      </trkpt>
      <trkpt lat="28.3185830" lon="-16.5021800">
        <ele>2050.9</ele>
        <time>2020-11-11T17:50:37Z</time>
      </trkpt>
      <trkpt lat="28.3185580" lon="-16.5022120">
        <ele>2050.9</ele>
        <time>2020-11-11T17:50:38Z</time>
      </trkpt>
      <trkpt lat="28.3185580" lon="-16.5022120">
        <ele>2050.9</ele>
        <time>2020-11-11T17:50:39Z</time>
      </trkpt>
      <trkpt lat="28.3185200" lon="-16.5022320">
        <ele>2051.9</ele>
        <time>2020-11-11T17:50:40Z</time>
      </trkpt>
      <trkpt lat="28.3185200" lon="-16.5022320">
        <ele>2051.9</ele>
        <time>2020-11-11T17:50:41Z</time>
      </trkpt>
      <trkpt lat="28.3184780" lon="-16.5022370">
        <ele>2051.9</ele>
        <time>2020-11-11T17:50:42Z</time>
      </trkpt>
      <trkpt lat="28.3184780" lon="-16.5022370">
        <ele>2051.9</ele>
        <time>2020-11-11T17:50:43Z</time>
      </trkpt>
      <trkpt lat="28.3184370" lon="-16.5022250">
        <ele>2051.9</ele>
        <time>2020-11-11T17:50:44Z</time>
      </trkpt>
      <trkpt lat="28.3184370" lon="-16.5022250">
        <ele>2051.9</ele>
        <time>2020-11-11T17:50:45Z</time>
      </trkpt>
      <trkpt lat="28.3183980" lon="-16.5022020">
        <ele>2051.9</ele>
        <time>2020-11-11T17:50:46Z</time>
      </trkpt>
      <trkpt lat="28.3183980" lon="-16.5022020">
        <ele>2051.9</ele>
        <time>2020-11-11T17:50:47Z</time>
      </trkpt>
      <trkpt lat="28.3183600" lon="-16.5021750">
        <ele>2052.9</ele>
        <time>2020-11-11T17:50:48Z</time>
      </trkpt>
      <trkpt lat="28.3183420" lon="-16.5021600">
        <ele>2052.9</ele>
        <time>2020-11-11T17:50:49Z</time>
      </trkpt>
      <trkpt lat="28.3183420" lon="-16.5021600">
        <ele>2052.9</ele>
        <time>2020-11-11T17:50:50Z</time>
      </trkpt>
      <trkpt lat="28.3183050" lon="-16.5021350">
        <ele>2052.9</ele>
        <time>2020-11-11T17:50:51Z</time>
      </trkpt>
      <trkpt lat="28.3183050" lon="-16.5021350">
        <ele>2052.9</ele>
        <time>2020-11-11T17:50:52Z</time>
      </trkpt>
      <trkpt lat="28.3182720" lon="-16.5021150">
        <ele>2052.9</ele>
        <time>2020-11-11T17:50:53Z</time>
      </trkpt>
      <trkpt lat="28.3182720" lon="-16.5021150">
        <ele>2052.9</ele>
        <time>2020-11-11T17:50:54Z</time>
      </trkpt>
      <trkpt lat="28.3182370" lon="-16.5020900">
        <ele>2053.9</ele>
        <time>2020-11-11T17:50:55Z</time>
      </trkpt>
      <trkpt lat="28.3182370" lon="-16.5020900">
        <ele>2053.9</ele>
        <time>2020-11-11T17:50:56Z</time>
      </trkpt>
      <trkpt lat="28.3182050" lon="-16.5020630">
        <ele>2053.9</ele>
        <time>2020-11-11T17:50:57Z</time>
      </trkpt>
      <trkpt lat="28.3182050" lon="-16.5020630">
        <ele>2053.9</ele>
        <time>2020-11-11T17:50:58Z</time>
      </trkpt>
      <trkpt lat="28.3181650" lon="-16.5020350">
        <ele>2053.9</ele>
        <time>2020-11-11T17:50:59Z</time>
      </trkpt>
      <trkpt lat="28.3181650" lon="-16.5020350">
        <ele>2053.9</ele>
        <time>2020-11-11T17:51:00Z</time>
      </trkpt>
      <trkpt lat="28.3181300" lon="-16.5020080">
        <ele>2053.9</ele>
        <time>2020-11-11T17:51:01Z</time>
      </trkpt>
      <trkpt lat="28.3181300" lon="-16.5020080">
        <ele>2053.9</ele>
        <time>2020-11-11T17:51:02Z</time>
      </trkpt>
      <trkpt lat="28.3180920" lon="-16.5019830">
        <ele>2053.9</ele>
        <time>2020-11-11T17:51:03Z</time>
      </trkpt>
      <trkpt lat="28.3180920" lon="-16.5019830">
        <ele>2053.9</ele>
        <time>2020-11-11T17:51:04Z</time>
      </trkpt>
      <trkpt lat="28.3180550" lon="-16.5019650">
        <ele>2053.9</ele>
        <time>2020-11-11T17:51:05Z</time>
      </trkpt>
      <trkpt lat="28.3180550" lon="-16.5019650">
        <ele>2053.9</ele>
        <time>2020-11-11T17:51:06Z</time>
      </trkpt>
      <trkpt lat="28.3180180" lon="-16.5019450">
        <ele>2053.9</ele>
        <time>2020-11-11T17:51:07Z</time>
      </trkpt>
      <trkpt lat="28.3180180" lon="-16.5019450">
        <ele>2054.9</ele>
        <time>2020-11-11T17:51:08Z</time>
      </trkpt>
      <trkpt lat="28.3179850" lon="-16.5019270">
        <ele>2054.9</ele>
        <time>2020-11-11T17:51:09Z</time>
      </trkpt>
      <trkpt lat="28.3179850" lon="-16.5019270">
        <ele>2054.9</ele>
        <time>2020-11-11T17:51:10Z</time>
      </trkpt>
      <trkpt lat="28.3179430" lon="-16.5019080">
        <ele>2054.9</ele>
        <time>2020-11-11T17:51:11Z</time>
      </trkpt>
      <trkpt lat="28.3179430" lon="-16.5019080">
        <ele>2054.9</ele>
        <time>2020-11-11T17:51:12Z</time>
      </trkpt>
      <trkpt lat="28.3179020" lon="-16.5018930">
        <ele>2054.9</ele>
        <time>2020-11-11T17:51:13Z</time>
      </trkpt>
      <trkpt lat="28.3179020" lon="-16.5018930">
        <ele>2054.9</ele>
        <time>2020-11-11T17:51:14Z</time>
      </trkpt>
      <trkpt lat="28.3178630" lon="-16.5018850">
        <ele>2054.9</ele>
        <time>2020-11-11T17:51:15Z</time>
      </trkpt>
      <trkpt lat="28.3178630" lon="-16.5018850">
        <ele>2055.9</ele>
        <time>2020-11-11T17:51:16Z</time>
      </trkpt>
      <trkpt lat="28.3178300" lon="-16.5018680">
        <ele>2055.9</ele>
        <time>2020-11-11T17:51:17Z</time>
      </trkpt>
      <trkpt lat="28.3178300" lon="-16.5018680">
        <ele>2055.9</ele>
        <time>2020-11-11T17:51:18Z</time>
      </trkpt>
      <trkpt lat="28.3177980" lon="-16.5018530">
        <ele>2055.9</ele>
        <time>2020-11-11T17:51:19Z</time>
      </trkpt>
      <trkpt lat="28.3177980" lon="-16.5018530">
        <ele>2055.9</ele>
        <time>2020-11-11T17:51:20Z</time>
      </trkpt>
      <trkpt lat="28.3177630" lon="-16.5018420">
        <ele>2055.9</ele>
        <time>2020-11-11T17:51:21Z</time>
      </trkpt>
      <trkpt lat="28.3177630" lon="-16.5018420">
        <ele>2056.9</ele>
        <time>2020-11-11T17:51:22Z</time>
      </trkpt>
      <trkpt lat="28.3177280" lon="-16.5018270">
        <ele>2056.9</ele>
        <time>2020-11-11T17:51:23Z</time>
      </trkpt>
      <trkpt lat="28.3177280" lon="-16.5018270">
        <ele>2056.9</ele>
        <time>2020-11-11T17:51:24Z</time>
      </trkpt>
      <trkpt lat="28.3176920" lon="-16.5018170">
        <ele>2056.9</ele>
        <time>2020-11-11T17:51:25Z</time>
      </trkpt>
      <trkpt lat="28.3176920" lon="-16.5018170">
        <ele>2056.9</ele>
        <time>2020-11-11T17:51:26Z</time>
      </trkpt>
      <trkpt lat="28.3176580" lon="-16.5018030">
        <ele>2056.9</ele>
        <time>2020-11-11T17:51:27Z</time>
      </trkpt>
      <trkpt lat="28.3176580" lon="-16.5018030">
        <ele>2056.9</ele>
        <time>2020-11-11T17:51:28Z</time>
      </trkpt>
      <trkpt lat="28.3176230" lon="-16.5017930">
        <ele>2056.9</ele>
        <time>2020-11-11T17:51:29Z</time>
      </trkpt>
      <trkpt lat="28.3176080" lon="-16.5017880">
        <ele>2056.9</ele>
        <time>2020-11-11T17:51:30Z</time>
      </trkpt>
      <trkpt lat="28.3176080" lon="-16.5017880">
        <ele>2056.9</ele>
        <time>2020-11-11T17:51:31Z</time>
      </trkpt>
      <trkpt lat="28.3175750" lon="-16.5017820">
        <ele>2057.9</ele>
        <time>2020-11-11T17:51:32Z</time>
      </trkpt>
      <trkpt lat="28.3175750" lon="-16.5017820">
        <ele>2057.9</ele>
        <time>2020-11-11T17:51:33Z</time>
      </trkpt>
      <trkpt lat="28.3175430" lon="-16.5017770">
        <ele>2057.9</ele>
        <time>2020-11-11T17:51:34Z</time>
      </trkpt>
      <trkpt lat="28.3175430" lon="-16.5017770">
        <ele>2057.9</ele>
        <time>2020-11-11T17:51:35Z</time>
      </trkpt>
      <trkpt lat="28.3175050" lon="-16.5017670">
        <ele>2057.9</ele>
        <time>2020-11-11T17:51:36Z</time>
      </trkpt>
      <trkpt lat="28.3175050" lon="-16.5017670">
        <ele>2058.9</ele>
        <time>2020-11-11T17:51:37Z</time>
      </trkpt>
      <trkpt lat="28.3174670" lon="-16.5017580">
        <ele>2058.9</ele>
        <time>2020-11-11T17:51:38Z</time>
      </trkpt>
      <trkpt lat="28.3174670" lon="-16.5017580">
        <ele>2058.9</ele>
        <time>2020-11-11T17:51:39Z</time>
      </trkpt>
      <trkpt lat="28.3174320" lon="-16.5017520">
        <ele>2058.9</ele>
        <time>2020-11-11T17:51:40Z</time>
      </trkpt>
      <trkpt lat="28.3174320" lon="-16.5017520">
        <ele>2058.9</ele>
        <time>2020-11-11T17:51:41Z</time>
      </trkpt>
      <trkpt lat="28.3174020" lon="-16.5017430">
        <ele>2058.9</ele>
        <time>2020-11-11T17:51:42Z</time>
      </trkpt>
      <trkpt lat="28.3174020" lon="-16.5017430">
        <ele>2058.9</ele>
        <time>2020-11-11T17:51:43Z</time>
      </trkpt>
      <trkpt lat="28.3173630" lon="-16.5017380">
        <ele>2058.9</ele>
        <time>2020-11-11T17:51:44Z</time>
      </trkpt>
      <trkpt lat="28.3173630" lon="-16.5017380">
        <ele>2058.9</ele>
        <time>2020-11-11T17:51:45Z</time>
      </trkpt>
      <trkpt lat="28.3173250" lon="-16.5017400">
        <ele>2058.9</ele>
        <time>2020-11-11T17:51:46Z</time>
      </trkpt>
      <trkpt lat="28.3173250" lon="-16.5017400">
        <ele>2059.9</ele>
        <time>2020-11-11T17:51:47Z</time>
      </trkpt>
      <trkpt lat="28.3172900" lon="-16.5017420">
        <ele>2059.9</ele>
        <time>2020-11-11T17:51:48Z</time>
      </trkpt>
      <trkpt lat="28.3172900" lon="-16.5017420">
        <ele>2059.9</ele>
        <time>2020-11-11T17:51:49Z</time>
      </trkpt>
      <trkpt lat="28.3172550" lon="-16.5017470">
        <ele>2059.9</ele>
        <time>2020-11-11T17:51:50Z</time>
      </trkpt>
      <trkpt lat="28.3172550" lon="-16.5017470">
        <ele>2059.9</ele>
        <time>2020-11-11T17:51:51Z</time>
      </trkpt>
      <trkpt lat="28.3172200" lon="-16.5017530">
        <ele>2059.9</ele>
        <time>2020-11-11T17:51:52Z</time>
      </trkpt>
      <trkpt lat="28.3172200" lon="-16.5017530">
        <ele>2060.9</ele>
        <time>2020-11-11T17:51:53Z</time>
      </trkpt>
      <trkpt lat="28.3171850" lon="-16.5017650">
        <ele>2060.9</ele>
        <time>2020-11-11T17:51:54Z</time>
      </trkpt>
      <trkpt lat="28.3171850" lon="-16.5017650">
        <ele>2060.9</ele>
        <time>2020-11-11T17:51:55Z</time>
      </trkpt>
      <trkpt lat="28.3171520" lon="-16.5017820">
        <ele>2060.9</ele>
        <time>2020-11-11T17:51:56Z</time>
      </trkpt>
      <trkpt lat="28.3171520" lon="-16.5017820">
        <ele>2060.9</ele>
        <time>2020-11-11T17:51:57Z</time>
      </trkpt>
      <trkpt lat="28.3171180" lon="-16.5018000">
        <ele>2060.9</ele>
        <time>2020-11-11T17:51:58Z</time>
      </trkpt>
      <trkpt lat="28.3171180" lon="-16.5018000">
        <ele>2060.9</ele>
        <time>2020-11-11T17:51:59Z</time>
      </trkpt>
      <trkpt lat="28.3170880" lon="-16.5018220">
        <ele>2060.9</ele>
        <time>2020-11-11T17:52:00Z</time>
      </trkpt>
      <trkpt lat="28.3170880" lon="-16.5018220">
        <ele>2060.9</ele>
        <time>2020-11-11T17:52:01Z</time>
      </trkpt>
      <trkpt lat="28.3170580" lon="-16.5018400">
        <ele>2060.9</ele>
        <time>2020-11-11T17:52:02Z</time>
      </trkpt>
      <trkpt lat="28.3170580" lon="-16.5018400">
        <ele>2060.9</ele>
        <time>2020-11-11T17:52:03Z</time>
      </trkpt>
      <trkpt lat="28.3170250" lon="-16.5018600">
        <ele>2060.9</ele>
        <time>2020-11-11T17:52:04Z</time>
      </trkpt>
      <trkpt lat="28.3170250" lon="-16.5018600">
        <ele>2060.9</ele>
        <time>2020-11-11T17:52:05Z</time>
      </trkpt>
      <trkpt lat="28.3169980" lon="-16.5018830">
        <ele>2061.9</ele>
        <time>2020-11-11T17:52:06Z</time>
      </trkpt>
      <trkpt lat="28.3169820" lon="-16.5018930">
        <ele>2061.9</ele>
        <time>2020-11-11T17:52:07Z</time>
      </trkpt>
      <trkpt lat="28.3169820" lon="-16.5018930">
        <ele>2061.9</ele>
        <time>2020-11-11T17:52:08Z</time>
      </trkpt>
      <trkpt lat="28.3169450" lon="-16.5019100">
        <ele>2061.9</ele>
        <time>2020-11-11T17:52:09Z</time>
      </trkpt>
      <trkpt lat="28.3169450" lon="-16.5019100">
        <ele>2061.9</ele>
        <time>2020-11-11T17:52:10Z</time>
      </trkpt>
      <trkpt lat="28.3169050" lon="-16.5019250">
        <ele>2061.9</ele>
        <time>2020-11-11T17:52:11Z</time>
      </trkpt>
      <trkpt lat="28.3169050" lon="-16.5019250">
        <ele>2061.9</ele>
        <time>2020-11-11T17:52:12Z</time>
      </trkpt>
      <trkpt lat="28.3168700" lon="-16.5019470">
        <ele>2061.9</ele>
        <time>2020-11-11T17:52:13Z</time>
      </trkpt>
      <trkpt lat="28.3168700" lon="-16.5019470">
        <ele>2061.9</ele>
        <time>2020-11-11T17:52:14Z</time>
      </trkpt>
      <trkpt lat="28.3168380" lon="-16.5019730">
        <ele>2061.9</ele>
        <time>2020-11-11T17:52:15Z</time>
      </trkpt>
      <trkpt lat="28.3168380" lon="-16.5019730">
        <ele>2062.9</ele>
        <time>2020-11-11T17:52:16Z</time>
      </trkpt>
      <trkpt lat="28.3167980" lon="-16.5020030">
        <ele>2062.9</ele>
        <time>2020-11-11T17:52:17Z</time>
      </trkpt>
      <trkpt lat="28.3167980" lon="-16.5020030">
        <ele>2062.9</ele>
        <time>2020-11-11T17:52:18Z</time>
      </trkpt>
      <trkpt lat="28.3167580" lon="-16.5020300">
        <ele>2062.9</ele>
        <time>2020-11-11T17:52:19Z</time>
      </trkpt>
      <trkpt lat="28.3167580" lon="-16.5020300">
        <ele>2063.9</ele>
        <time>2020-11-11T17:52:20Z</time>
      </trkpt>
      <trkpt lat="28.3167200" lon="-16.5020530">
        <ele>2063.9</ele>
        <time>2020-11-11T17:52:21Z</time>
      </trkpt>
      <trkpt lat="28.3167200" lon="-16.5020530">
        <ele>2063.9</ele>
        <time>2020-11-11T17:52:22Z</time>
      </trkpt>
      <trkpt lat="28.3166850" lon="-16.5020750">
        <ele>2063.9</ele>
        <time>2020-11-11T17:52:23Z</time>
      </trkpt>
      <trkpt lat="28.3166850" lon="-16.5020750">
        <ele>2063.9</ele>
        <time>2020-11-11T17:52:24Z</time>
      </trkpt>
      <trkpt lat="28.3166520" lon="-16.5020980">
        <ele>2063.9</ele>
        <time>2020-11-11T17:52:25Z</time>
      </trkpt>
      <trkpt lat="28.3166520" lon="-16.5020980">
        <ele>2063.9</ele>
        <time>2020-11-11T17:52:26Z</time>
      </trkpt>
      <trkpt lat="28.3166130" lon="-16.5021180">
        <ele>2063.9</ele>
        <time>2020-11-11T17:52:27Z</time>
      </trkpt>
      <trkpt lat="28.3165930" lon="-16.5021280">
        <ele>2063.9</ele>
        <time>2020-11-11T17:52:28Z</time>
      </trkpt>
      <trkpt lat="28.3165930" lon="-16.5021280">
        <ele>2063.9</ele>
        <time>2020-11-11T17:52:29Z</time>
      </trkpt>
      <trkpt lat="28.3165550" lon="-16.5021470">
        <ele>2063.9</ele>
        <time>2020-11-11T17:52:30Z</time>
      </trkpt>
      <trkpt lat="28.3165350" lon="-16.5021570">
        <ele>2063.9</ele>
        <time>2020-11-11T17:52:31Z</time>
      </trkpt>
      <trkpt lat="28.3165350" lon="-16.5021570">
        <ele>2063.9</ele>
        <time>2020-11-11T17:52:32Z</time>
      </trkpt>
      <trkpt lat="28.3164930" lon="-16.5021700">
        <ele>2063.9</ele>
        <time>2020-11-11T17:52:33Z</time>
      </trkpt>
      <trkpt lat="28.3164930" lon="-16.5021700">
        <ele>2063.9</ele>
        <time>2020-11-11T17:52:34Z</time>
      </trkpt>
      <trkpt lat="28.3164450" lon="-16.5021770">
        <ele>2063.9</ele>
        <time>2020-11-11T17:52:35Z</time>
      </trkpt>
      <trkpt lat="28.3164450" lon="-16.5021770">
        <ele>2063.9</ele>
        <time>2020-11-11T17:52:36Z</time>
      </trkpt>
      <trkpt lat="28.3163970" lon="-16.5021780">
        <ele>2063.9</ele>
        <time>2020-11-11T17:52:37Z</time>
      </trkpt>
      <trkpt lat="28.3163970" lon="-16.5021780">
        <ele>2063.9</ele>
        <time>2020-11-11T17:52:38Z</time>
      </trkpt>
      <trkpt lat="28.3163480" lon="-16.5021750">
        <ele>2063.9</ele>
        <time>2020-11-11T17:52:39Z</time>
      </trkpt>
      <trkpt lat="28.3163480" lon="-16.5021750">
        <ele>2063.9</ele>
        <time>2020-11-11T17:52:40Z</time>
      </trkpt>
      <trkpt lat="28.3163030" lon="-16.5021650">
        <ele>2063.9</ele>
        <time>2020-11-11T17:52:41Z</time>
      </trkpt>
      <trkpt lat="28.3163030" lon="-16.5021650">
        <ele>2063.9</ele>
        <time>2020-11-11T17:52:42Z</time>
      </trkpt>
      <trkpt lat="28.3162570" lon="-16.5021550">
        <ele>2064.9</ele>
        <time>2020-11-11T17:52:43Z</time>
      </trkpt>
      <trkpt lat="28.3162570" lon="-16.5021550">
        <ele>2064.9</ele>
        <time>2020-11-11T17:52:44Z</time>
      </trkpt>
      <trkpt lat="28.3162100" lon="-16.5021480">
        <ele>2064.9</ele>
        <time>2020-11-11T17:52:45Z</time>
      </trkpt>
      <trkpt lat="28.3162100" lon="-16.5021480">
        <ele>2064.9</ele>
        <time>2020-11-11T17:52:46Z</time>
      </trkpt>
      <trkpt lat="28.3161630" lon="-16.5021480">
        <ele>2064.9</ele>
        <time>2020-11-11T17:52:47Z</time>
      </trkpt>
      <trkpt lat="28.3161630" lon="-16.5021480">
        <ele>2064.9</ele>
        <time>2020-11-11T17:52:48Z</time>
      </trkpt>
      <trkpt lat="28.3161230" lon="-16.5021720">
        <ele>2064.9</ele>
        <time>2020-11-11T17:52:49Z</time>
      </trkpt>
      <trkpt lat="28.3161230" lon="-16.5021720">
        <ele>2064.9</ele>
        <time>2020-11-11T17:52:50Z</time>
      </trkpt>
      <trkpt lat="28.3160900" lon="-16.5022250">
        <ele>2064.9</ele>
        <time>2020-11-11T17:52:51Z</time>
      </trkpt>
      <trkpt lat="28.3160900" lon="-16.5022250">
        <ele>2064.9</ele>
        <time>2020-11-11T17:52:52Z</time>
      </trkpt>
      <trkpt lat="28.3160650" lon="-16.5022920">
        <ele>2064.9</ele>
        <time>2020-11-11T17:52:53Z</time>
      </trkpt>
      <trkpt lat="28.3160650" lon="-16.5022920">
        <ele>2064.9</ele>
        <time>2020-11-11T17:52:54Z</time>
      </trkpt>
      <trkpt lat="28.3160430" lon="-16.5023500">
        <ele>2064.9</ele>
        <time>2020-11-11T17:52:55Z</time>
      </trkpt>
      <trkpt lat="28.3160430" lon="-16.5023500">
        <ele>2065.9</ele>
        <time>2020-11-11T17:52:56Z</time>
      </trkpt>
      <trkpt lat="28.3160330" lon="-16.5024150">
        <ele>2065.9</ele>
        <time>2020-11-11T17:52:57Z</time>
      </trkpt>
      <trkpt lat="28.3160330" lon="-16.5024150">
        <ele>2065.9</ele>
        <time>2020-11-11T17:52:58Z</time>
      </trkpt>
      <trkpt lat="28.3160270" lon="-16.5024780">
        <ele>2065.9</ele>
        <time>2020-11-11T17:52:59Z</time>
      </trkpt>
      <trkpt lat="28.3160270" lon="-16.5024780">
        <ele>2065.9</ele>
        <time>2020-11-11T17:53:00Z</time>
      </trkpt>
      <trkpt lat="28.3160320" lon="-16.5025420">
        <ele>2065.9</ele>
        <time>2020-11-11T17:53:01Z</time>
      </trkpt>
      <trkpt lat="28.3160380" lon="-16.5025730">
        <ele>2065.9</ele>
        <time>2020-11-11T17:53:02Z</time>
      </trkpt>
      <trkpt lat="28.3160380" lon="-16.5025730">
        <ele>2065.9</ele>
        <time>2020-11-11T17:53:03Z</time>
      </trkpt>
      <trkpt lat="28.3160500" lon="-16.5026370">
        <ele>2065.9</ele>
        <time>2020-11-11T17:53:04Z</time>
      </trkpt>
      <trkpt lat="28.3160500" lon="-16.5026370">
        <ele>2065.9</ele>
        <time>2020-11-11T17:53:05Z</time>
      </trkpt>
      <trkpt lat="28.3160530" lon="-16.5027020">
        <ele>2065.9</ele>
        <time>2020-11-11T17:53:06Z</time>
      </trkpt>
      <trkpt lat="28.3160530" lon="-16.5027020">
        <ele>2065.9</ele>
        <time>2020-11-11T17:53:07Z</time>
      </trkpt>
      <trkpt lat="28.3160450" lon="-16.5027700">
        <ele>2065.9</ele>
        <time>2020-11-11T17:53:08Z</time>
      </trkpt>
      <trkpt lat="28.3160450" lon="-16.5027700">
        <ele>2066.9</ele>
        <time>2020-11-11T17:53:09Z</time>
      </trkpt>
      <trkpt lat="28.3160220" lon="-16.5028380">
        <ele>2066.9</ele>
        <time>2020-11-11T17:53:10Z</time>
      </trkpt>
      <trkpt lat="28.3160220" lon="-16.5028380">
        <ele>2066.9</ele>
        <time>2020-11-11T17:53:11Z</time>
      </trkpt>
      <trkpt lat="28.3159900" lon="-16.5029020">
        <ele>2066.9</ele>
        <time>2020-11-11T17:53:12Z</time>
      </trkpt>
      <trkpt lat="28.3159730" lon="-16.5029350">
        <ele>2066.9</ele>
        <time>2020-11-11T17:53:13Z</time>
      </trkpt>
      <trkpt lat="28.3159730" lon="-16.5029350">
        <ele>2066.9</ele>
        <time>2020-11-11T17:53:14Z</time>
      </trkpt>
      <trkpt lat="28.3159400" lon="-16.5030070">
        <ele>2066.9</ele>
        <time>2020-11-11T17:53:15Z</time>
      </trkpt>
      <trkpt lat="28.3159400" lon="-16.5030070">
        <ele>2066.9</ele>
        <time>2020-11-11T17:53:16Z</time>
      </trkpt>
      <trkpt lat="28.3159150" lon="-16.5030780">
        <ele>2066.9</ele>
        <time>2020-11-11T17:53:17Z</time>
      </trkpt>
      <trkpt lat="28.3159150" lon="-16.5030780">
        <ele>2066.9</ele>
        <time>2020-11-11T17:53:18Z</time>
      </trkpt>
      <trkpt lat="28.3159100" lon="-16.5031620">
        <ele>2066.9</ele>
        <time>2020-11-11T17:53:19Z</time>
      </trkpt>
      <trkpt lat="28.3159100" lon="-16.5031620">
        <ele>2066.9</ele>
        <time>2020-11-11T17:53:20Z</time>
      </trkpt>
      <trkpt lat="28.3159220" lon="-16.5032350">
        <ele>2065.9</ele>
        <time>2020-11-11T17:53:21Z</time>
      </trkpt>
      <trkpt lat="28.3159220" lon="-16.5032350">
        <ele>2065.9</ele>
        <time>2020-11-11T17:53:22Z</time>
      </trkpt>
      <trkpt lat="28.3159300" lon="-16.5033130">
        <ele>2065.9</ele>
        <time>2020-11-11T17:53:23Z</time>
      </trkpt>
      <trkpt lat="28.3159300" lon="-16.5033130">
        <ele>2065.9</ele>
        <time>2020-11-11T17:53:24Z</time>
      </trkpt>
      <trkpt lat="28.3159270" lon="-16.5034000">
        <ele>2065.9</ele>
        <time>2020-11-11T17:53:25Z</time>
      </trkpt>
      <trkpt lat="28.3159270" lon="-16.5034000">
        <ele>2065.9</ele>
        <time>2020-11-11T17:53:26Z</time>
      </trkpt>
      <trkpt lat="28.3159070" lon="-16.5034980">
        <ele>2065.9</ele>
        <time>2020-11-11T17:53:27Z</time>
      </trkpt>
      <trkpt lat="28.3159070" lon="-16.5034980">
        <ele>2065.9</ele>
        <time>2020-11-11T17:53:28Z</time>
      </trkpt>
      <trkpt lat="28.3158870" lon="-16.5035970">
        <ele>2065.9</ele>
        <time>2020-11-11T17:53:29Z</time>
      </trkpt>
      <trkpt lat="28.3158870" lon="-16.5035970">
        <ele>2065.9</ele>
        <time>2020-11-11T17:53:30Z</time>
      </trkpt>
      <trkpt lat="28.3158720" lon="-16.5036830">
        <ele>2065.9</ele>
        <time>2020-11-11T17:53:31Z</time>
      </trkpt>
      <trkpt lat="28.3158720" lon="-16.5036830">
        <ele>2065.9</ele>
        <time>2020-11-11T17:53:32Z</time>
      </trkpt>
      <trkpt lat="28.3158450" lon="-16.5037570">
        <ele>2065.9</ele>
        <time>2020-11-11T17:53:33Z</time>
      </trkpt>
      <trkpt lat="28.3158450" lon="-16.5037570">
        <ele>2065.9</ele>
        <time>2020-11-11T17:53:34Z</time>
      </trkpt>
      <trkpt lat="28.3158050" lon="-16.5038330">
        <ele>2065.9</ele>
        <time>2020-11-11T17:53:35Z</time>
      </trkpt>
      <trkpt lat="28.3158050" lon="-16.5038330">
        <ele>2065.9</ele>
        <time>2020-11-11T17:53:36Z</time>
      </trkpt>
      <trkpt lat="28.3157580" lon="-16.5038980">
        <ele>2065.9</ele>
        <time>2020-11-11T17:53:37Z</time>
      </trkpt>
      <trkpt lat="28.3157580" lon="-16.5038980">
        <ele>2065.9</ele>
        <time>2020-11-11T17:53:38Z</time>
      </trkpt>
      <trkpt lat="28.3157080" lon="-16.5039530">
        <ele>2065.9</ele>
        <time>2020-11-11T17:53:39Z</time>
      </trkpt>
      <trkpt lat="28.3157080" lon="-16.5039530">
        <ele>2065.9</ele>
        <time>2020-11-11T17:53:40Z</time>
      </trkpt>
      <trkpt lat="28.3156520" lon="-16.5039970">
        <ele>2065.9</ele>
        <time>2020-11-11T17:53:41Z</time>
      </trkpt>
      <trkpt lat="28.3156520" lon="-16.5039970">
        <ele>2066.9</ele>
        <time>2020-11-11T17:53:42Z</time>
      </trkpt>
      <trkpt lat="28.3155920" lon="-16.5040300">
        <ele>2066.9</ele>
        <time>2020-11-11T17:53:43Z</time>
      </trkpt>
      <trkpt lat="28.3155920" lon="-16.5040300">
        <ele>2066.9</ele>
        <time>2020-11-11T17:53:44Z</time>
      </trkpt>
      <trkpt lat="28.3155300" lon="-16.5040480">
        <ele>2066.9</ele>
        <time>2020-11-11T17:53:45Z</time>
      </trkpt>
      <trkpt lat="28.3155300" lon="-16.5040480">
        <ele>2066.9</ele>
        <time>2020-11-11T17:53:46Z</time>
      </trkpt>
      <trkpt lat="28.3154630" lon="-16.5040580">
        <ele>2066.9</ele>
        <time>2020-11-11T17:53:47Z</time>
      </trkpt>
      <trkpt lat="28.3154630" lon="-16.5040580">
        <ele>2066.9</ele>
        <time>2020-11-11T17:53:48Z</time>
      </trkpt>
      <trkpt lat="28.3153980" lon="-16.5040670">
        <ele>2066.9</ele>
        <time>2020-11-11T17:53:49Z</time>
      </trkpt>
      <trkpt lat="28.3153980" lon="-16.5040670">
        <ele>2067.9</ele>
        <time>2020-11-11T17:53:50Z</time>
      </trkpt>
      <trkpt lat="28.3153380" lon="-16.5040680">
        <ele>2067.9</ele>
        <time>2020-11-11T17:53:51Z</time>
      </trkpt>
      <trkpt lat="28.3153380" lon="-16.5040680">
        <ele>2067.9</ele>
        <time>2020-11-11T17:53:52Z</time>
      </trkpt>
      <trkpt lat="28.3152780" lon="-16.5040770">
        <ele>2067.9</ele>
        <time>2020-11-11T17:53:53Z</time>
      </trkpt>
      <trkpt lat="28.3152780" lon="-16.5040770">
        <ele>2067.9</ele>
        <time>2020-11-11T17:53:54Z</time>
      </trkpt>
      <trkpt lat="28.3152150" lon="-16.5040820">
        <ele>2067.9</ele>
        <time>2020-11-11T17:53:55Z</time>
      </trkpt>
      <trkpt lat="28.3152150" lon="-16.5040820">
        <ele>2068.9</ele>
        <time>2020-11-11T17:53:56Z</time>
      </trkpt>
      <trkpt lat="28.3151630" lon="-16.5040870">
        <ele>2068.9</ele>
        <time>2020-11-11T17:53:57Z</time>
      </trkpt>
      <trkpt lat="28.3151630" lon="-16.5040870">
        <ele>2068.9</ele>
        <time>2020-11-11T17:53:58Z</time>
      </trkpt>
      <trkpt lat="28.3151120" lon="-16.5040900">
        <ele>2069.9</ele>
        <time>2020-11-11T17:53:59Z</time>
      </trkpt>
      <trkpt lat="28.3151120" lon="-16.5040900">
        <ele>2069.9</ele>
        <time>2020-11-11T17:54:00Z</time>
      </trkpt>
      <trkpt lat="28.3150700" lon="-16.5040850">
        <ele>2069.9</ele>
        <time>2020-11-11T17:54:01Z</time>
      </trkpt>
      <trkpt lat="28.3150700" lon="-16.5040850">
        <ele>2069.9</ele>
        <time>2020-11-11T17:54:02Z</time>
      </trkpt>
      <trkpt lat="28.3150230" lon="-16.5040770">
        <ele>2069.9</ele>
        <time>2020-11-11T17:54:03Z</time>
      </trkpt>
      <trkpt lat="28.3150230" lon="-16.5040770">
        <ele>2070.9</ele>
        <time>2020-11-11T17:54:04Z</time>
      </trkpt>
      <trkpt lat="28.3149820" lon="-16.5040670">
        <ele>2070.9</ele>
        <time>2020-11-11T17:54:05Z</time>
      </trkpt>
      <trkpt lat="28.3149820" lon="-16.5040670">
        <ele>2070.9</ele>
        <time>2020-11-11T17:54:06Z</time>
      </trkpt>
      <trkpt lat="28.3149430" lon="-16.5040520">
        <ele>2070.9</ele>
        <time>2020-11-11T17:54:07Z</time>
      </trkpt>
      <trkpt lat="28.3149430" lon="-16.5040520">
        <ele>2070.9</ele>
        <time>2020-11-11T17:54:08Z</time>
      </trkpt>
      <trkpt lat="28.3149070" lon="-16.5040280">
        <ele>2070.9</ele>
        <time>2020-11-11T17:54:09Z</time>
      </trkpt>
      <trkpt lat="28.3149070" lon="-16.5040280">
        <ele>2070.9</ele>
        <time>2020-11-11T17:54:10Z</time>
      </trkpt>
      <trkpt lat="28.3148750" lon="-16.5040030">
        <ele>2070.9</ele>
        <time>2020-11-11T17:54:11Z</time>
      </trkpt>
      <trkpt lat="28.3148750" lon="-16.5040030">
        <ele>2070.9</ele>
        <time>2020-11-11T17:54:12Z</time>
      </trkpt>
      <trkpt lat="28.3148450" lon="-16.5039780">
        <ele>2070.9</ele>
        <time>2020-11-11T17:54:13Z</time>
      </trkpt>
      <trkpt lat="28.3148450" lon="-16.5039780">
        <ele>2070.9</ele>
        <time>2020-11-11T17:54:14Z</time>
      </trkpt>
      <trkpt lat="28.3148250" lon="-16.5039670">
        <ele>2070.9</ele>
        <time>2020-11-11T17:54:15Z</time>
      </trkpt>
      <trkpt lat="28.3148250" lon="-16.5039670">
        <ele>2070.9</ele>
        <time>2020-11-11T17:54:16Z</time>
      </trkpt>
      <trkpt lat="28.3148250" lon="-16.5039670">
        <ele>2070.9</ele>
        <time>2020-11-11T17:54:26Z</time>
      </trkpt>
      <trkpt lat="28.3148250" lon="-16.5039670">
        <ele>2070.9</ele>
        <time>2020-11-11T17:54:27Z</time>
      </trkpt>
      <trkpt lat="28.3147650" lon="-16.5038630">
        <ele>2072.9</ele>
        <time>2020-11-11T17:54:28Z</time>
      </trkpt>
      <trkpt lat="28.3147650" lon="-16.5038630">
        <ele>2072.9</ele>
        <time>2020-11-11T17:54:29Z</time>
      </trkpt>
      <trkpt lat="28.3147430" lon="-16.5038250">
        <ele>2072.9</ele>
        <time>2020-11-11T17:54:30Z</time>
      </trkpt>
      <trkpt lat="28.3147300" lon="-16.5038050">
        <ele>2072.9</ele>
        <time>2020-11-11T17:54:31Z</time>
      </trkpt>
      <trkpt lat="28.3147300" lon="-16.5038050">
        <ele>2072.9</ele>
        <time>2020-11-11T17:54:32Z</time>
      </trkpt>
      <trkpt lat="28.3147030" lon="-16.5037630">
        <ele>2072.9</ele>
        <time>2020-11-11T17:54:33Z</time>
      </trkpt>
      <trkpt lat="28.3147030" lon="-16.5037630">
        <ele>2072.9</ele>
        <time>2020-11-11T17:54:34Z</time>
      </trkpt>
      <trkpt lat="28.3146770" lon="-16.5037220">
        <ele>2073.9</ele>
        <time>2020-11-11T17:54:35Z</time>
      </trkpt>
      <trkpt lat="28.3146770" lon="-16.5037220">
        <ele>2073.9</ele>
        <time>2020-11-11T17:54:36Z</time>
      </trkpt>
      <trkpt lat="28.3146500" lon="-16.5036850">
        <ele>2073.9</ele>
        <time>2020-11-11T17:54:37Z</time>
      </trkpt>
      <trkpt lat="28.3146500" lon="-16.5036850">
        <ele>2072.9</ele>
        <time>2020-11-11T17:54:38Z</time>
      </trkpt>
      <trkpt lat="28.3146330" lon="-16.5036480">
        <ele>2072.9</ele>
        <time>2020-11-11T17:54:39Z</time>
      </trkpt>
      <trkpt lat="28.3146330" lon="-16.5036480">
        <ele>2072.9</ele>
        <time>2020-11-11T17:54:40Z</time>
      </trkpt>
      <trkpt lat="28.3146150" lon="-16.5036070">
        <ele>2073.9</ele>
        <time>2020-11-11T17:54:41Z</time>
      </trkpt>
      <trkpt lat="28.3146080" lon="-16.5035850">
        <ele>2073.9</ele>
        <time>2020-11-11T17:54:42Z</time>
      </trkpt>
      <trkpt lat="28.3145970" lon="-16.5035680">
        <ele>2073.9</ele>
        <time>2020-11-11T17:54:43Z</time>
      </trkpt>
      <trkpt lat="28.3145970" lon="-16.5035680">
        <ele>2073.9</ele>
        <time>2020-11-11T17:54:44Z</time>
      </trkpt>
      <trkpt lat="28.3145750" lon="-16.5035300">
        <ele>2074.9</ele>
        <time>2020-11-11T17:54:45Z</time>
      </trkpt>
      <trkpt lat="28.3145750" lon="-16.5035300">
        <ele>2074.9</ele>
        <time>2020-11-11T17:54:46Z</time>
      </trkpt>
      <trkpt lat="28.3145520" lon="-16.5034970">
        <ele>2074.9</ele>
        <time>2020-11-11T17:54:47Z</time>
      </trkpt>
      <trkpt lat="28.3145380" lon="-16.5034820">
        <ele>2074.9</ele>
        <time>2020-11-11T17:54:48Z</time>
      </trkpt>
      <trkpt lat="28.3145380" lon="-16.5034820">
        <ele>2074.9</ele>
        <time>2020-11-11T17:54:49Z</time>
      </trkpt>
      <trkpt lat="28.3145170" lon="-16.5034450">
        <ele>2074.9</ele>
        <time>2020-11-11T17:54:50Z</time>
      </trkpt>
      <trkpt lat="28.3145170" lon="-16.5034450">
        <ele>2074.9</ele>
        <time>2020-11-11T17:54:51Z</time>
      </trkpt>
      <trkpt lat="28.3144950" lon="-16.5034100">
        <ele>2074.9</ele>
        <time>2020-11-11T17:54:52Z</time>
      </trkpt>
      <trkpt lat="28.3144950" lon="-16.5034100">
        <ele>2074.9</ele>
        <time>2020-11-11T17:54:53Z</time>
      </trkpt>
      <trkpt lat="28.3144630" lon="-16.5033830">
        <ele>2074.9</ele>
        <time>2020-11-11T17:54:54Z</time>
      </trkpt>
      <trkpt lat="28.3144630" lon="-16.5033830">
        <ele>2075.9</ele>
        <time>2020-11-11T17:54:55Z</time>
      </trkpt>
      <trkpt lat="28.3144370" lon="-16.5033450">
        <ele>2075.9</ele>
        <time>2020-11-11T17:54:56Z</time>
      </trkpt>
      <trkpt lat="28.3144370" lon="-16.5033450">
        <ele>2075.9</ele>
        <time>2020-11-11T17:54:57Z</time>
      </trkpt>
      <trkpt lat="28.3143820" lon="-16.5033270">
        <ele>2075.9</ele>
        <time>2020-11-11T17:54:58Z</time>
      </trkpt>
      <trkpt lat="28.3143820" lon="-16.5033270">
        <ele>2075.9</ele>
        <time>2020-11-11T17:54:59Z</time>
      </trkpt>
      <trkpt lat="28.3143320" lon="-16.5033550">
        <ele>2075.9</ele>
        <time>2020-11-11T17:55:00Z</time>
      </trkpt>
      <trkpt lat="28.3143130" lon="-16.5033780">
        <ele>2075.9</ele>
        <time>2020-11-11T17:55:01Z</time>
      </trkpt>
      <trkpt lat="28.3143130" lon="-16.5033780">
        <ele>2075.9</ele>
        <time>2020-11-11T17:55:02Z</time>
      </trkpt>
      <trkpt lat="28.3142830" lon="-16.5034220">
        <ele>2075.9</ele>
        <time>2020-11-11T17:55:03Z</time>
      </trkpt>
      <trkpt lat="28.3142830" lon="-16.5034220">
        <ele>2076.9</ele>
        <time>2020-11-11T17:55:04Z</time>
      </trkpt>
      <trkpt lat="28.3142470" lon="-16.5034570">
        <ele>2076.9</ele>
        <time>2020-11-11T17:55:05Z</time>
      </trkpt>
      <trkpt lat="28.3142470" lon="-16.5034570">
        <ele>2076.9</ele>
        <time>2020-11-11T17:55:06Z</time>
      </trkpt>
      <trkpt lat="28.3142100" lon="-16.5034820">
        <ele>2076.9</ele>
        <time>2020-11-11T17:55:07Z</time>
      </trkpt>
      <trkpt lat="28.3142100" lon="-16.5034820">
        <ele>2076.9</ele>
        <time>2020-11-11T17:55:08Z</time>
      </trkpt>
      <trkpt lat="28.3141650" lon="-16.5034850">
        <ele>2076.9</ele>
        <time>2020-11-11T17:55:09Z</time>
      </trkpt>
      <trkpt lat="28.3141400" lon="-16.5034850">
        <ele>2076.9</ele>
        <time>2020-11-11T17:55:10Z</time>
      </trkpt>
      <trkpt lat="28.3141400" lon="-16.5034850">
        <ele>2076.9</ele>
        <time>2020-11-11T17:55:11Z</time>
      </trkpt>
      <trkpt lat="28.3140980" lon="-16.5034770">
        <ele>2076.9</ele>
        <time>2020-11-11T17:55:12Z</time>
      </trkpt>
      <trkpt lat="28.3140980" lon="-16.5034770">
        <ele>2076.9</ele>
        <time>2020-11-11T17:55:13Z</time>
      </trkpt>
      <trkpt lat="28.3140570" lon="-16.5034650">
        <ele>2076.9</ele>
        <time>2020-11-11T17:55:14Z</time>
      </trkpt>
      <trkpt lat="28.3140570" lon="-16.5034650">
        <ele>2076.9</ele>
        <time>2020-11-11T17:55:15Z</time>
      </trkpt>
      <trkpt lat="28.3140200" lon="-16.5034500">
        <ele>2076.9</ele>
        <time>2020-11-11T17:55:16Z</time>
      </trkpt>
      <trkpt lat="28.3140200" lon="-16.5034500">
        <ele>2077.9</ele>
        <time>2020-11-11T17:55:17Z</time>
      </trkpt>
      <trkpt lat="28.3139870" lon="-16.5034370">
        <ele>2077.9</ele>
        <time>2020-11-11T17:55:18Z</time>
      </trkpt>
      <trkpt lat="28.3139700" lon="-16.5034300">
        <ele>2077.9</ele>
        <time>2020-11-11T17:55:19Z</time>
      </trkpt>
      <trkpt lat="28.3139700" lon="-16.5034300">
        <ele>2077.9</ele>
        <time>2020-11-11T17:55:20Z</time>
      </trkpt>
      <trkpt lat="28.3139320" lon="-16.5034150">
        <ele>2077.9</ele>
        <time>2020-11-11T17:55:21Z</time>
      </trkpt>
      <trkpt lat="28.3139320" lon="-16.5034150">
        <ele>2077.9</ele>
        <time>2020-11-11T17:55:22Z</time>
      </trkpt>
      <trkpt lat="28.3138950" lon="-16.5034020">
        <ele>2077.9</ele>
        <time>2020-11-11T17:55:23Z</time>
      </trkpt>
      <trkpt lat="28.3138780" lon="-16.5033950">
        <ele>2078.9</ele>
        <time>2020-11-11T17:55:24Z</time>
      </trkpt>
      <trkpt lat="28.3138780" lon="-16.5033950">
        <ele>2078.9</ele>
        <time>2020-11-11T17:55:25Z</time>
      </trkpt>
      <trkpt lat="28.3138400" lon="-16.5033820">
        <ele>2078.9</ele>
        <time>2020-11-11T17:55:26Z</time>
      </trkpt>
      <trkpt lat="28.3138400" lon="-16.5033820">
        <ele>2078.9</ele>
        <time>2020-11-11T17:55:27Z</time>
      </trkpt>
      <trkpt lat="28.3137980" lon="-16.5033730">
        <ele>2078.9</ele>
        <time>2020-11-11T17:55:28Z</time>
      </trkpt>
      <trkpt lat="28.3137980" lon="-16.5033730">
        <ele>2078.9</ele>
        <time>2020-11-11T17:55:29Z</time>
      </trkpt>
      <trkpt lat="28.3137600" lon="-16.5033650">
        <ele>2078.9</ele>
        <time>2020-11-11T17:55:30Z</time>
      </trkpt>
      <trkpt lat="28.3137420" lon="-16.5033620">
        <ele>2079.9</ele>
        <time>2020-11-11T17:55:31Z</time>
      </trkpt>
      <trkpt lat="28.3137420" lon="-16.5033620">
        <ele>2079.9</ele>
        <time>2020-11-11T17:55:32Z</time>
      </trkpt>
      <trkpt lat="28.3137020" lon="-16.5033600">
        <ele>2079.9</ele>
        <time>2020-11-11T17:55:33Z</time>
      </trkpt>
      <trkpt lat="28.3137020" lon="-16.5033600">
        <ele>2079.9</ele>
        <time>2020-11-11T17:55:34Z</time>
      </trkpt>
      <trkpt lat="28.3136620" lon="-16.5033600">
        <ele>2079.9</ele>
        <time>2020-11-11T17:55:35Z</time>
      </trkpt>
      <trkpt lat="28.3136620" lon="-16.5033600">
        <ele>2079.9</ele>
        <time>2020-11-11T17:55:36Z</time>
      </trkpt>
      <trkpt lat="28.3136230" lon="-16.5033620">
        <ele>2079.9</ele>
        <time>2020-11-11T17:55:37Z</time>
      </trkpt>
      <trkpt lat="28.3136230" lon="-16.5033620">
        <ele>2079.9</ele>
        <time>2020-11-11T17:55:38Z</time>
      </trkpt>
      <trkpt lat="28.3135850" lon="-16.5033630">
        <ele>2080.9</ele>
        <time>2020-11-11T17:55:39Z</time>
      </trkpt>
      <trkpt lat="28.3135850" lon="-16.5033630">
        <ele>2080.9</ele>
        <time>2020-11-11T17:55:40Z</time>
      </trkpt>
      <trkpt lat="28.3135430" lon="-16.5033630">
        <ele>2080.9</ele>
        <time>2020-11-11T17:55:41Z</time>
      </trkpt>
      <trkpt lat="28.3135270" lon="-16.5033650">
        <ele>2080.9</ele>
        <time>2020-11-11T17:55:42Z</time>
      </trkpt>
      <trkpt lat="28.3135270" lon="-16.5033650">
        <ele>2080.9</ele>
        <time>2020-11-11T17:55:43Z</time>
      </trkpt>
      <trkpt lat="28.3134880" lon="-16.5033670">
        <ele>2080.9</ele>
        <time>2020-11-11T17:55:44Z</time>
      </trkpt>
      <trkpt lat="28.3134880" lon="-16.5033670">
        <ele>2080.9</ele>
        <time>2020-11-11T17:55:45Z</time>
      </trkpt>
      <trkpt lat="28.3134500" lon="-16.5033680">
        <ele>2080.9</ele>
        <time>2020-11-11T17:55:46Z</time>
      </trkpt>
      <trkpt lat="28.3134300" lon="-16.5033700">
        <ele>2081.9</ele>
        <time>2020-11-11T17:55:47Z</time>
      </trkpt>
      <trkpt lat="28.3134300" lon="-16.5033700">
        <ele>2081.9</ele>
        <time>2020-11-11T17:55:48Z</time>
      </trkpt>
      <trkpt lat="28.3133930" lon="-16.5033800">
        <ele>2081.9</ele>
        <time>2020-11-11T17:55:49Z</time>
      </trkpt>
      <trkpt lat="28.3133930" lon="-16.5033800">
        <ele>2081.9</ele>
        <time>2020-11-11T17:55:50Z</time>
      </trkpt>
      <trkpt lat="28.3133580" lon="-16.5034100">
        <ele>2081.9</ele>
        <time>2020-11-11T17:55:51Z</time>
      </trkpt>
      <trkpt lat="28.3133580" lon="-16.5034100">
        <ele>2081.9</ele>
        <time>2020-11-11T17:55:52Z</time>
      </trkpt>
      <trkpt lat="28.3133320" lon="-16.5034650">
        <ele>2081.9</ele>
        <time>2020-11-11T17:55:53Z</time>
      </trkpt>
      <trkpt lat="28.3133320" lon="-16.5034650">
        <ele>2081.9</ele>
        <time>2020-11-11T17:55:54Z</time>
      </trkpt>
      <trkpt lat="28.3133280" lon="-16.5035250">
        <ele>2081.9</ele>
        <time>2020-11-11T17:55:55Z</time>
      </trkpt>
      <trkpt lat="28.3133280" lon="-16.5035250">
        <ele>2081.9</ele>
        <time>2020-11-11T17:55:56Z</time>
      </trkpt>
      <trkpt lat="28.3133500" lon="-16.5035730">
        <ele>2081.9</ele>
        <time>2020-11-11T17:55:57Z</time>
      </trkpt>
      <trkpt lat="28.3133500" lon="-16.5035730">
        <ele>2081.9</ele>
        <time>2020-11-11T17:55:58Z</time>
      </trkpt>
      <trkpt lat="28.3133850" lon="-16.5036130">
        <ele>2081.9</ele>
        <time>2020-11-11T17:55:59Z</time>
      </trkpt>
      <trkpt lat="28.3133850" lon="-16.5036130">
        <ele>2081.9</ele>
        <time>2020-11-11T17:56:00Z</time>
      </trkpt>
      <trkpt lat="28.3134280" lon="-16.5036470">
        <ele>2082.9</ele>
        <time>2020-11-11T17:56:01Z</time>
      </trkpt>
      <trkpt lat="28.3134280" lon="-16.5036470">
        <ele>2082.9</ele>
        <time>2020-11-11T17:56:02Z</time>
      </trkpt>
      <trkpt lat="28.3134730" lon="-16.5036820">
        <ele>2082.9</ele>
        <time>2020-11-11T17:56:03Z</time>
      </trkpt>
      <trkpt lat="28.3134730" lon="-16.5036820">
        <ele>2082.9</ele>
        <time>2020-11-11T17:56:04Z</time>
      </trkpt>
      <trkpt lat="28.3135200" lon="-16.5037220">
        <ele>2082.9</ele>
        <time>2020-11-11T17:56:05Z</time>
      </trkpt>
      <trkpt lat="28.3135200" lon="-16.5037220">
        <ele>2082.9</ele>
        <time>2020-11-11T17:56:06Z</time>
      </trkpt>
      <trkpt lat="28.3135670" lon="-16.5037700">
        <ele>2082.9</ele>
        <time>2020-11-11T17:56:07Z</time>
      </trkpt>
      <trkpt lat="28.3135670" lon="-16.5037700">
        <ele>2082.9</ele>
        <time>2020-11-11T17:56:08Z</time>
      </trkpt>
      <trkpt lat="28.3136100" lon="-16.5038250">
        <ele>2082.9</ele>
        <time>2020-11-11T17:56:09Z</time>
      </trkpt>
      <trkpt lat="28.3136100" lon="-16.5038250">
        <ele>2082.9</ele>
        <time>2020-11-11T17:56:10Z</time>
      </trkpt>
      <trkpt lat="28.3136430" lon="-16.5038900">
        <ele>2082.9</ele>
        <time>2020-11-11T17:56:11Z</time>
      </trkpt>
      <trkpt lat="28.3136430" lon="-16.5038900">
        <ele>2082.9</ele>
        <time>2020-11-11T17:56:12Z</time>
      </trkpt>
      <trkpt lat="28.3136800" lon="-16.5039530">
        <ele>2082.9</ele>
        <time>2020-11-11T17:56:13Z</time>
      </trkpt>
      <trkpt lat="28.3136800" lon="-16.5039530">
        <ele>2082.9</ele>
        <time>2020-11-11T17:56:14Z</time>
      </trkpt>
      <trkpt lat="28.3137080" lon="-16.5040170">
        <ele>2081.9</ele>
        <time>2020-11-11T17:56:15Z</time>
      </trkpt>
      <trkpt lat="28.3137080" lon="-16.5040170">
        <ele>2081.9</ele>
        <time>2020-11-11T17:56:16Z</time>
      </trkpt>
      <trkpt lat="28.3137280" lon="-16.5040830">
        <ele>2081.9</ele>
        <time>2020-11-11T17:56:17Z</time>
      </trkpt>
      <trkpt lat="28.3137280" lon="-16.5040830">
        <ele>2081.9</ele>
        <time>2020-11-11T17:56:18Z</time>
      </trkpt>
      <trkpt lat="28.3137280" lon="-16.5041480">
        <ele>2081.9</ele>
        <time>2020-11-11T17:56:19Z</time>
      </trkpt>
      <trkpt lat="28.3137280" lon="-16.5041480">
        <ele>2081.9</ele>
        <time>2020-11-11T17:56:20Z</time>
      </trkpt>
      <trkpt lat="28.3137130" lon="-16.5042050">
        <ele>2081.9</ele>
        <time>2020-11-11T17:56:21Z</time>
      </trkpt>
      <trkpt lat="28.3137130" lon="-16.5042050">
        <ele>2081.9</ele>
        <time>2020-11-11T17:56:22Z</time>
      </trkpt>
      <trkpt lat="28.3136850" lon="-16.5042480">
        <ele>2081.9</ele>
        <time>2020-11-11T17:56:23Z</time>
      </trkpt>
      <trkpt lat="28.3136850" lon="-16.5042480">
        <ele>2081.9</ele>
        <time>2020-11-11T17:56:24Z</time>
      </trkpt>
      <trkpt lat="28.3136430" lon="-16.5042820">
        <ele>2081.9</ele>
        <time>2020-11-11T17:56:25Z</time>
      </trkpt>
      <trkpt lat="28.3136430" lon="-16.5042820">
        <ele>2081.9</ele>
        <time>2020-11-11T17:56:26Z</time>
      </trkpt>
      <trkpt lat="28.3135970" lon="-16.5043120">
        <ele>2081.9</ele>
        <time>2020-11-11T17:56:27Z</time>
      </trkpt>
      <trkpt lat="28.3135970" lon="-16.5043120">
        <ele>2081.9</ele>
        <time>2020-11-11T17:56:28Z</time>
      </trkpt>
      <trkpt lat="28.3135530" lon="-16.5043320">
        <ele>2082.9</ele>
        <time>2020-11-11T17:56:29Z</time>
      </trkpt>
      <trkpt lat="28.3135530" lon="-16.5043320">
        <ele>2082.9</ele>
        <time>2020-11-11T17:56:30Z</time>
      </trkpt>
      <trkpt lat="28.3135070" lon="-16.5043470">
        <ele>2082.9</ele>
        <time>2020-11-11T17:56:31Z</time>
      </trkpt>
      <trkpt lat="28.3135070" lon="-16.5043470">
        <ele>2082.9</ele>
        <time>2020-11-11T17:56:32Z</time>
      </trkpt>
      <trkpt lat="28.3134530" lon="-16.5043550">
        <ele>2082.9</ele>
        <time>2020-11-11T17:56:33Z</time>
      </trkpt>
      <trkpt lat="28.3134530" lon="-16.5043550">
        <ele>2082.9</ele>
        <time>2020-11-11T17:56:34Z</time>
      </trkpt>
      <trkpt lat="28.3134050" lon="-16.5043670">
        <ele>2082.9</ele>
        <time>2020-11-11T17:56:35Z</time>
      </trkpt>
      <trkpt lat="28.3134050" lon="-16.5043670">
        <ele>2082.9</ele>
        <time>2020-11-11T17:56:36Z</time>
      </trkpt>
      <trkpt lat="28.3133650" lon="-16.5043830">
        <ele>2082.9</ele>
        <time>2020-11-11T17:56:37Z</time>
      </trkpt>
      <trkpt lat="28.3133650" lon="-16.5043830">
        <ele>2082.9</ele>
        <time>2020-11-11T17:56:38Z</time>
      </trkpt>
      <trkpt lat="28.3133200" lon="-16.5044120">
        <ele>2082.9</ele>
        <time>2020-11-11T17:56:39Z</time>
      </trkpt>
      <trkpt lat="28.3133200" lon="-16.5044120">
        <ele>2082.9</ele>
        <time>2020-11-11T17:56:40Z</time>
      </trkpt>
      <trkpt lat="28.3132750" lon="-16.5044380">
        <ele>2083.9</ele>
        <time>2020-11-11T17:56:41Z</time>
      </trkpt>
      <trkpt lat="28.3132750" lon="-16.5044380">
        <ele>2083.9</ele>
        <time>2020-11-11T17:56:42Z</time>
      </trkpt>
      <trkpt lat="28.3132350" lon="-16.5044620">
        <ele>2083.9</ele>
        <time>2020-11-11T17:56:43Z</time>
      </trkpt>
      <trkpt lat="28.3132350" lon="-16.5044620">
        <ele>2083.9</ele>
        <time>2020-11-11T17:56:44Z</time>
      </trkpt>
      <trkpt lat="28.3131970" lon="-16.5044870">
        <ele>2083.9</ele>
        <time>2020-11-11T17:56:45Z</time>
      </trkpt>
      <trkpt lat="28.3131780" lon="-16.5044970">
        <ele>2084.9</ele>
        <time>2020-11-11T17:56:46Z</time>
      </trkpt>
      <trkpt lat="28.3131780" lon="-16.5044970">
        <ele>2084.9</ele>
        <time>2020-11-11T17:56:47Z</time>
      </trkpt>
      <trkpt lat="28.3131400" lon="-16.5045150">
        <ele>2084.9</ele>
        <time>2020-11-11T17:56:48Z</time>
      </trkpt>
      <trkpt lat="28.3131400" lon="-16.5045150">
        <ele>2084.9</ele>
        <time>2020-11-11T17:56:49Z</time>
      </trkpt>
      <trkpt lat="28.3130970" lon="-16.5045300">
        <ele>2084.9</ele>
        <time>2020-11-11T17:56:50Z</time>
      </trkpt>
      <trkpt lat="28.3130970" lon="-16.5045300">
        <ele>2085.9</ele>
        <time>2020-11-11T17:56:51Z</time>
      </trkpt>
      <trkpt lat="28.3130500" lon="-16.5045400">
        <ele>2085.9</ele>
        <time>2020-11-11T17:56:52Z</time>
      </trkpt>
      <trkpt lat="28.3130500" lon="-16.5045400">
        <ele>2085.9</ele>
        <time>2020-11-11T17:56:53Z</time>
      </trkpt>
      <trkpt lat="28.3130070" lon="-16.5045500">
        <ele>2085.9</ele>
        <time>2020-11-11T17:56:54Z</time>
      </trkpt>
      <trkpt lat="28.3129870" lon="-16.5045530">
        <ele>2085.9</ele>
        <time>2020-11-11T17:56:55Z</time>
      </trkpt>
      <trkpt lat="28.3129870" lon="-16.5045530">
        <ele>2085.9</ele>
        <time>2020-11-11T17:56:56Z</time>
      </trkpt>
      <trkpt lat="28.3129430" lon="-16.5045620">
        <ele>2085.9</ele>
        <time>2020-11-11T17:56:57Z</time>
      </trkpt>
      <trkpt lat="28.3129430" lon="-16.5045620">
        <ele>2085.9</ele>
        <time>2020-11-11T17:56:58Z</time>
      </trkpt>
      <trkpt lat="28.3129030" lon="-16.5045680">
        <ele>2086.9</ele>
        <time>2020-11-11T17:56:59Z</time>
      </trkpt>
      <trkpt lat="28.3129030" lon="-16.5045680">
        <ele>2086.9</ele>
        <time>2020-11-11T17:57:00Z</time>
      </trkpt>
      <trkpt lat="28.3128630" lon="-16.5045720">
        <ele>2086.9</ele>
        <time>2020-11-11T17:57:01Z</time>
      </trkpt>
      <trkpt lat="28.3128630" lon="-16.5045720">
        <ele>2086.9</ele>
        <time>2020-11-11T17:57:02Z</time>
      </trkpt>
      <trkpt lat="28.3128250" lon="-16.5045730">
        <ele>2086.9</ele>
        <time>2020-11-11T17:57:03Z</time>
      </trkpt>
      <trkpt lat="28.3128250" lon="-16.5045730">
        <ele>2086.9</ele>
        <time>2020-11-11T17:57:04Z</time>
      </trkpt>
      <trkpt lat="28.3127850" lon="-16.5045830">
        <ele>2086.9</ele>
        <time>2020-11-11T17:57:05Z</time>
      </trkpt>
      <trkpt lat="28.3127850" lon="-16.5045830">
        <ele>2086.9</ele>
        <time>2020-11-11T17:57:06Z</time>
      </trkpt>
      <trkpt lat="28.3127380" lon="-16.5045870">
        <ele>2087.9</ele>
        <time>2020-11-11T17:57:07Z</time>
      </trkpt>
      <trkpt lat="28.3127380" lon="-16.5045870">
        <ele>2087.9</ele>
        <time>2020-11-11T17:57:08Z</time>
      </trkpt>
      <trkpt lat="28.3126950" lon="-16.5045900">
        <ele>2087.9</ele>
        <time>2020-11-11T17:57:09Z</time>
      </trkpt>
      <trkpt lat="28.3126950" lon="-16.5045900">
        <ele>2087.9</ele>
        <time>2020-11-11T17:57:10Z</time>
      </trkpt>
      <trkpt lat="28.3126570" lon="-16.5045930">
        <ele>2087.9</ele>
        <time>2020-11-11T17:57:11Z</time>
      </trkpt>
      <trkpt lat="28.3126570" lon="-16.5045930">
        <ele>2087.9</ele>
        <time>2020-11-11T17:57:12Z</time>
      </trkpt>
      <trkpt lat="28.3126150" lon="-16.5045950">
        <ele>2087.9</ele>
        <time>2020-11-11T17:57:13Z</time>
      </trkpt>
      <trkpt lat="28.3126150" lon="-16.5045950">
        <ele>2088.9</ele>
        <time>2020-11-11T17:57:14Z</time>
      </trkpt>
      <trkpt lat="28.3125770" lon="-16.5045970">
        <ele>2088.9</ele>
        <time>2020-11-11T17:57:15Z</time>
      </trkpt>
      <trkpt lat="28.3125770" lon="-16.5045970">
        <ele>2088.9</ele>
        <time>2020-11-11T17:57:16Z</time>
      </trkpt>
      <trkpt lat="28.3125370" lon="-16.5045950">
        <ele>2088.9</ele>
        <time>2020-11-11T17:57:17Z</time>
      </trkpt>
      <trkpt lat="28.3125370" lon="-16.5045950">
        <ele>2088.9</ele>
        <time>2020-11-11T17:57:18Z</time>
      </trkpt>
      <trkpt lat="28.3124950" lon="-16.5045970">
        <ele>2088.9</ele>
        <time>2020-11-11T17:57:19Z</time>
      </trkpt>
      <trkpt lat="28.3124750" lon="-16.5046020">
        <ele>2088.9</ele>
        <time>2020-11-11T17:57:20Z</time>
      </trkpt>
      <trkpt lat="28.3124750" lon="-16.5046020">
        <ele>2088.9</ele>
        <time>2020-11-11T17:57:21Z</time>
      </trkpt>
      <trkpt lat="28.3124370" lon="-16.5046100">
        <ele>2088.9</ele>
        <time>2020-11-11T17:57:22Z</time>
      </trkpt>
      <trkpt lat="28.3124370" lon="-16.5046100">
        <ele>2088.9</ele>
        <time>2020-11-11T17:57:23Z</time>
      </trkpt>
      <trkpt lat="28.3124070" lon="-16.5046180">
        <ele>2088.9</ele>
        <time>2020-11-11T17:57:24Z</time>
      </trkpt>
      <trkpt lat="28.3123880" lon="-16.5046270">
        <ele>2088.9</ele>
        <time>2020-11-11T17:57:25Z</time>
      </trkpt>
      <trkpt lat="28.3123880" lon="-16.5046270">
        <ele>2088.9</ele>
        <time>2020-11-11T17:57:26Z</time>
      </trkpt>
      <trkpt lat="28.3123480" lon="-16.5046420">
        <ele>2089.9</ele>
        <time>2020-11-11T17:57:27Z</time>
      </trkpt>
      <trkpt lat="28.3123480" lon="-16.5046420">
        <ele>2089.9</ele>
        <time>2020-11-11T17:57:28Z</time>
      </trkpt>
      <trkpt lat="28.3123100" lon="-16.5046530">
        <ele>2089.9</ele>
        <time>2020-11-11T17:57:29Z</time>
      </trkpt>
      <trkpt lat="28.3123100" lon="-16.5046530">
        <ele>2089.9</ele>
        <time>2020-11-11T17:57:30Z</time>
      </trkpt>
      <trkpt lat="28.3122720" lon="-16.5046620">
        <ele>2089.9</ele>
        <time>2020-11-11T17:57:31Z</time>
      </trkpt>
      <trkpt lat="28.3122720" lon="-16.5046620">
        <ele>2089.9</ele>
        <time>2020-11-11T17:57:32Z</time>
      </trkpt>
      <trkpt lat="28.3122370" lon="-16.5046750">
        <ele>2090.9</ele>
        <time>2020-11-11T17:57:33Z</time>
      </trkpt>
      <trkpt lat="28.3122370" lon="-16.5046750">
        <ele>2090.9</ele>
        <time>2020-11-11T17:57:34Z</time>
      </trkpt>
      <trkpt lat="28.3122030" lon="-16.5046830">
        <ele>2090.9</ele>
        <time>2020-11-11T17:57:35Z</time>
      </trkpt>
      <trkpt lat="28.3122030" lon="-16.5046830">
        <ele>2090.9</ele>
        <time>2020-11-11T17:57:36Z</time>
      </trkpt>
      <trkpt lat="28.3121650" lon="-16.5046900">
        <ele>2090.9</ele>
        <time>2020-11-11T17:57:37Z</time>
      </trkpt>
      <trkpt lat="28.3121650" lon="-16.5046900">
        <ele>2090.9</ele>
        <time>2020-11-11T17:57:38Z</time>
      </trkpt>
      <trkpt lat="28.3121270" lon="-16.5046980">
        <ele>2091.9</ele>
        <time>2020-11-11T17:57:39Z</time>
      </trkpt>
      <trkpt lat="28.3121070" lon="-16.5047030">
        <ele>2091.9</ele>
        <time>2020-11-11T17:57:40Z</time>
      </trkpt>
      <trkpt lat="28.3121070" lon="-16.5047030">
        <ele>2091.9</ele>
        <time>2020-11-11T17:57:41Z</time>
      </trkpt>
      <trkpt lat="28.3120650" lon="-16.5047100">
        <ele>2091.9</ele>
        <time>2020-11-11T17:57:42Z</time>
      </trkpt>
      <trkpt lat="28.3120430" lon="-16.5047150">
        <ele>2091.9</ele>
        <time>2020-11-11T17:57:43Z</time>
      </trkpt>
      <trkpt lat="28.3120430" lon="-16.5047150">
        <ele>2091.9</ele>
        <time>2020-11-11T17:57:44Z</time>
      </trkpt>
      <trkpt lat="28.3120000" lon="-16.5047230">
        <ele>2091.9</ele>
        <time>2020-11-11T17:57:45Z</time>
      </trkpt>
      <trkpt lat="28.3120000" lon="-16.5047230">
        <ele>2091.9</ele>
        <time>2020-11-11T17:57:46Z</time>
      </trkpt>
      <trkpt lat="28.3119620" lon="-16.5047300">
        <ele>2091.9</ele>
        <time>2020-11-11T17:57:47Z</time>
      </trkpt>
      <trkpt lat="28.3119620" lon="-16.5047300">
        <ele>2092.9</ele>
        <time>2020-11-11T17:57:48Z</time>
      </trkpt>
      <trkpt lat="28.3119250" lon="-16.5047380">
        <ele>2092.9</ele>
        <time>2020-11-11T17:57:49Z</time>
      </trkpt>
      <trkpt lat="28.3119250" lon="-16.5047380">
        <ele>2092.9</ele>
        <time>2020-11-11T17:57:50Z</time>
      </trkpt>
      <trkpt lat="28.3118900" lon="-16.5047470">
        <ele>2092.9</ele>
        <time>2020-11-11T17:57:51Z</time>
      </trkpt>
      <trkpt lat="28.3118900" lon="-16.5047470">
        <ele>2092.9</ele>
        <time>2020-11-11T17:57:52Z</time>
      </trkpt>
      <trkpt lat="28.3118520" lon="-16.5047550">
        <ele>2092.9</ele>
        <time>2020-11-11T17:57:53Z</time>
      </trkpt>
      <trkpt lat="28.3118350" lon="-16.5047550">
        <ele>2092.9</ele>
        <time>2020-11-11T17:57:54Z</time>
      </trkpt>
      <trkpt lat="28.3118350" lon="-16.5047550">
        <ele>2092.9</ele>
        <time>2020-11-11T17:57:55Z</time>
      </trkpt>
      <trkpt lat="28.3117980" lon="-16.5047580">
        <ele>2092.9</ele>
        <time>2020-11-11T17:57:56Z</time>
      </trkpt>
      <trkpt lat="28.3117800" lon="-16.5047600">
        <ele>2092.9</ele>
        <time>2020-11-11T17:57:57Z</time>
      </trkpt>
      <trkpt lat="28.3117800" lon="-16.5047600">
        <ele>2092.9</ele>
        <time>2020-11-11T17:57:58Z</time>
      </trkpt>
      <trkpt lat="28.3117430" lon="-16.5047580">
        <ele>2092.9</ele>
        <time>2020-11-11T17:57:59Z</time>
      </trkpt>
      <trkpt lat="28.3117430" lon="-16.5047580">
        <ele>2092.9</ele>
        <time>2020-11-11T17:58:00Z</time>
      </trkpt>
      <trkpt lat="28.3117080" lon="-16.5047630">
        <ele>2092.9</ele>
        <time>2020-11-11T17:58:01Z</time>
      </trkpt>
      <trkpt lat="28.3117080" lon="-16.5047630">
        <ele>2092.9</ele>
        <time>2020-11-11T17:58:02Z</time>
      </trkpt>
      <trkpt lat="28.3116750" lon="-16.5047700">
        <ele>2093.9</ele>
        <time>2020-11-11T17:58:03Z</time>
      </trkpt>
      <trkpt lat="28.3116750" lon="-16.5047700">
        <ele>2093.9</ele>
        <time>2020-11-11T17:58:04Z</time>
      </trkpt>
      <trkpt lat="28.3116400" lon="-16.5047850">
        <ele>2093.9</ele>
        <time>2020-11-11T17:58:05Z</time>
      </trkpt>
      <trkpt lat="28.3116400" lon="-16.5047850">
        <ele>2093.9</ele>
        <time>2020-11-11T17:58:06Z</time>
      </trkpt>
      <trkpt lat="28.3116050" lon="-16.5048020">
        <ele>2093.9</ele>
        <time>2020-11-11T17:58:07Z</time>
      </trkpt>
      <trkpt lat="28.3115850" lon="-16.5048100">
        <ele>2093.9</ele>
        <time>2020-11-11T17:58:08Z</time>
      </trkpt>
      <trkpt lat="28.3115850" lon="-16.5048100">
        <ele>2093.9</ele>
        <time>2020-11-11T17:58:09Z</time>
      </trkpt>
      <trkpt lat="28.3115570" lon="-16.5048370">
        <ele>2093.9</ele>
        <time>2020-11-11T17:58:10Z</time>
      </trkpt>
      <trkpt lat="28.3115570" lon="-16.5048370">
        <ele>2094.9</ele>
        <time>2020-11-11T17:58:11Z</time>
      </trkpt>
      <trkpt lat="28.3115250" lon="-16.5048530">
        <ele>2094.9</ele>
        <time>2020-11-11T17:58:12Z</time>
      </trkpt>
      <trkpt lat="28.3115080" lon="-16.5048600">
        <ele>2094.9</ele>
        <time>2020-11-11T17:58:13Z</time>
      </trkpt>
      <trkpt lat="28.3115080" lon="-16.5048600">
        <ele>2094.9</ele>
        <time>2020-11-11T17:58:14Z</time>
      </trkpt>
      <trkpt lat="28.3114720" lon="-16.5048750">
        <ele>2094.9</ele>
        <time>2020-11-11T17:58:15Z</time>
      </trkpt>
      <trkpt lat="28.3114530" lon="-16.5048820">
        <ele>2094.9</ele>
        <time>2020-11-11T17:58:16Z</time>
      </trkpt>
      <trkpt lat="28.3114530" lon="-16.5048820">
        <ele>2094.9</ele>
        <time>2020-11-11T17:58:17Z</time>
      </trkpt>
      <trkpt lat="28.3114170" lon="-16.5048950">
        <ele>2094.9</ele>
        <time>2020-11-11T17:58:18Z</time>
      </trkpt>
      <trkpt lat="28.3113970" lon="-16.5049000">
        <ele>2095.9</ele>
        <time>2020-11-11T17:58:19Z</time>
      </trkpt>
      <trkpt lat="28.3113970" lon="-16.5049000">
        <ele>2095.9</ele>
        <time>2020-11-11T17:58:20Z</time>
      </trkpt>
      <trkpt lat="28.3113550" lon="-16.5049100">
        <ele>2095.9</ele>
        <time>2020-11-11T17:58:21Z</time>
      </trkpt>
      <trkpt lat="28.3113370" lon="-16.5049120">
        <ele>2095.9</ele>
        <time>2020-11-11T17:58:22Z</time>
      </trkpt>
      <trkpt lat="28.3113370" lon="-16.5049120">
        <ele>2095.9</ele>
        <time>2020-11-11T17:58:23Z</time>
      </trkpt>
      <trkpt lat="28.3112970" lon="-16.5049120">
        <ele>2095.9</ele>
        <time>2020-11-11T17:58:24Z</time>
      </trkpt>
      <trkpt lat="28.3112970" lon="-16.5049120">
        <ele>2095.9</ele>
        <time>2020-11-11T17:58:25Z</time>
      </trkpt>
      <trkpt lat="28.3112550" lon="-16.5049080">
        <ele>2095.9</ele>
        <time>2020-11-11T17:58:26Z</time>
      </trkpt>
      <trkpt lat="28.3112550" lon="-16.5049080">
        <ele>2096.9</ele>
        <time>2020-11-11T17:58:27Z</time>
      </trkpt>
      <trkpt lat="28.3112200" lon="-16.5049070">
        <ele>2096.9</ele>
        <time>2020-11-11T17:58:28Z</time>
      </trkpt>
      <trkpt lat="28.3112200" lon="-16.5049070">
        <ele>2096.9</ele>
        <time>2020-11-11T17:58:29Z</time>
      </trkpt>
      <trkpt lat="28.3111880" lon="-16.5049120">
        <ele>2096.9</ele>
        <time>2020-11-11T17:58:30Z</time>
      </trkpt>
      <trkpt lat="28.3111880" lon="-16.5049120">
        <ele>2096.9</ele>
        <time>2020-11-11T17:58:31Z</time>
      </trkpt>
      <trkpt lat="28.3111550" lon="-16.5049220">
        <ele>2097.9</ele>
        <time>2020-11-11T17:58:32Z</time>
      </trkpt>
      <trkpt lat="28.3111550" lon="-16.5049220">
        <ele>2097.9</ele>
        <time>2020-11-11T17:58:33Z</time>
      </trkpt>
      <trkpt lat="28.3111230" lon="-16.5049400">
        <ele>2097.9</ele>
        <time>2020-11-11T17:58:34Z</time>
      </trkpt>
      <trkpt lat="28.3111230" lon="-16.5049400">
        <ele>2097.9</ele>
        <time>2020-11-11T17:58:35Z</time>
      </trkpt>
      <trkpt lat="28.3110930" lon="-16.5049720">
        <ele>2097.9</ele>
        <time>2020-11-11T17:58:36Z</time>
      </trkpt>
      <trkpt lat="28.3110930" lon="-16.5049720">
        <ele>2097.9</ele>
        <time>2020-11-11T17:58:37Z</time>
      </trkpt>
      <trkpt lat="28.3110700" lon="-16.5050080">
        <ele>2097.9</ele>
        <time>2020-11-11T17:58:38Z</time>
      </trkpt>
      <trkpt lat="28.3110700" lon="-16.5050080">
        <ele>2097.9</ele>
        <time>2020-11-11T17:58:39Z</time>
      </trkpt>
      <trkpt lat="28.3110420" lon="-16.5050380">
        <ele>2097.9</ele>
        <time>2020-11-11T17:58:40Z</time>
      </trkpt>
      <trkpt lat="28.3110250" lon="-16.5050480">
        <ele>2097.9</ele>
        <time>2020-11-11T17:58:41Z</time>
      </trkpt>
      <trkpt lat="28.3110250" lon="-16.5050480">
        <ele>2097.9</ele>
        <time>2020-11-11T17:58:42Z</time>
      </trkpt>
      <trkpt lat="28.3109830" lon="-16.5050620">
        <ele>2097.9</ele>
        <time>2020-11-11T17:58:43Z</time>
      </trkpt>
      <trkpt lat="28.3109830" lon="-16.5050620">
        <ele>2097.9</ele>
        <time>2020-11-11T17:58:44Z</time>
      </trkpt>
      <trkpt lat="28.3109350" lon="-16.5050620">
        <ele>2098.9</ele>
        <time>2020-11-11T17:58:45Z</time>
      </trkpt>
      <trkpt lat="28.3109350" lon="-16.5050620">
        <ele>2098.9</ele>
        <time>2020-11-11T17:58:46Z</time>
      </trkpt>
      <trkpt lat="28.3108930" lon="-16.5050570">
        <ele>2098.9</ele>
        <time>2020-11-11T17:58:47Z</time>
      </trkpt>
      <trkpt lat="28.3108930" lon="-16.5050570">
        <ele>2098.9</ele>
        <time>2020-11-11T17:58:48Z</time>
      </trkpt>
      <trkpt lat="28.3108570" lon="-16.5050420">
        <ele>2098.9</ele>
        <time>2020-11-11T17:58:49Z</time>
      </trkpt>
      <trkpt lat="28.3108420" lon="-16.5050320">
        <ele>2098.9</ele>
        <time>2020-11-11T17:58:50Z</time>
      </trkpt>
      <trkpt lat="28.3108420" lon="-16.5050320">
        <ele>2099.9</ele>
        <time>2020-11-11T17:58:51Z</time>
      </trkpt>
      <trkpt lat="28.3108120" lon="-16.5050030">
        <ele>2099.9</ele>
        <time>2020-11-11T17:58:52Z</time>
      </trkpt>
      <trkpt lat="28.3108120" lon="-16.5050030">
        <ele>2099.9</ele>
        <time>2020-11-11T17:58:53Z</time>
      </trkpt>
      <trkpt lat="28.3107830" lon="-16.5049730">
        <ele>2099.9</ele>
        <time>2020-11-11T17:58:54Z</time>
      </trkpt>
      <trkpt lat="28.3107830" lon="-16.5049730">
        <ele>2099.9</ele>
        <time>2020-11-11T17:58:55Z</time>
      </trkpt>
      <trkpt lat="28.3107530" lon="-16.5049430">
        <ele>2099.9</ele>
        <time>2020-11-11T17:58:56Z</time>
      </trkpt>
      <trkpt lat="28.3107530" lon="-16.5049430">
        <ele>2099.9</ele>
        <time>2020-11-11T17:58:57Z</time>
      </trkpt>
      <trkpt lat="28.3107220" lon="-16.5049170">
        <ele>2099.9</ele>
        <time>2020-11-11T17:58:58Z</time>
      </trkpt>
      <trkpt lat="28.3107220" lon="-16.5049170">
        <ele>2100.9</ele>
        <time>2020-11-11T17:58:59Z</time>
      </trkpt>
      <trkpt lat="28.3106870" lon="-16.5048950">
        <ele>2100.9</ele>
        <time>2020-11-11T17:59:00Z</time>
      </trkpt>
      <trkpt lat="28.3106680" lon="-16.5048850">
        <ele>2100.9</ele>
        <time>2020-11-11T17:59:01Z</time>
      </trkpt>
      <trkpt lat="28.3106680" lon="-16.5048850">
        <ele>2100.9</ele>
        <time>2020-11-11T17:59:02Z</time>
      </trkpt>
      <trkpt lat="28.3106300" lon="-16.5048720">
        <ele>2100.9</ele>
        <time>2020-11-11T17:59:03Z</time>
      </trkpt>
      <trkpt lat="28.3106300" lon="-16.5048720">
        <ele>2100.9</ele>
        <time>2020-11-11T17:59:04Z</time>
      </trkpt>
      <trkpt lat="28.3105920" lon="-16.5048620">
        <ele>2100.9</ele>
        <time>2020-11-11T17:59:05Z</time>
      </trkpt>
      <trkpt lat="28.3105920" lon="-16.5048620">
        <ele>2100.9</ele>
        <time>2020-11-11T17:59:06Z</time>
      </trkpt>
      <trkpt lat="28.3105570" lon="-16.5048580">
        <ele>2101.9</ele>
        <time>2020-11-11T17:59:07Z</time>
      </trkpt>
      <trkpt lat="28.3105570" lon="-16.5048580">
        <ele>2101.9</ele>
        <time>2020-11-11T17:59:08Z</time>
      </trkpt>
      <trkpt lat="28.3105130" lon="-16.5048770">
        <ele>2101.9</ele>
        <time>2020-11-11T17:59:09Z</time>
      </trkpt>
      <trkpt lat="28.3105130" lon="-16.5048770">
        <ele>2101.9</ele>
        <time>2020-11-11T17:59:10Z</time>
      </trkpt>
      <trkpt lat="28.3104900" lon="-16.5049230">
        <ele>2101.9</ele>
        <time>2020-11-11T17:59:11Z</time>
      </trkpt>
      <trkpt lat="28.3104900" lon="-16.5049230">
        <ele>2101.9</ele>
        <time>2020-11-11T17:59:12Z</time>
      </trkpt>
      <trkpt lat="28.3104820" lon="-16.5049720">
        <ele>2101.9</ele>
        <time>2020-11-11T17:59:13Z</time>
      </trkpt>
      <trkpt lat="28.3104820" lon="-16.5049720">
        <ele>2101.9</ele>
        <time>2020-11-11T17:59:14Z</time>
      </trkpt>
      <trkpt lat="28.3104770" lon="-16.5050200">
        <ele>2101.9</ele>
        <time>2020-11-11T17:59:15Z</time>
      </trkpt>
      <trkpt lat="28.3104770" lon="-16.5050200">
        <ele>2101.9</ele>
        <time>2020-11-11T17:59:16Z</time>
      </trkpt>
      <trkpt lat="28.3104730" lon="-16.5050700">
        <ele>2102.9</ele>
        <time>2020-11-11T17:59:17Z</time>
      </trkpt>
      <trkpt lat="28.3104730" lon="-16.5050700">
        <ele>2102.9</ele>
        <time>2020-11-11T17:59:18Z</time>
      </trkpt>
      <trkpt lat="28.3104730" lon="-16.5051180">
        <ele>2102.9</ele>
        <time>2020-11-11T17:59:19Z</time>
      </trkpt>
      <trkpt lat="28.3104730" lon="-16.5051180">
        <ele>2102.9</ele>
        <time>2020-11-11T17:59:20Z</time>
      </trkpt>
      <trkpt lat="28.3104680" lon="-16.5051680">
        <ele>2102.9</ele>
        <time>2020-11-11T17:59:21Z</time>
      </trkpt>
      <trkpt lat="28.3104680" lon="-16.5051680">
        <ele>2102.9</ele>
        <time>2020-11-11T17:59:22Z</time>
      </trkpt>
      <trkpt lat="28.3104680" lon="-16.5052170">
        <ele>2102.9</ele>
        <time>2020-11-11T17:59:23Z</time>
      </trkpt>
      <trkpt lat="28.3104680" lon="-16.5052170">
        <ele>2103.9</ele>
        <time>2020-11-11T17:59:24Z</time>
      </trkpt>
      <trkpt lat="28.3104620" lon="-16.5052650">
        <ele>2103.9</ele>
        <time>2020-11-11T17:59:25Z</time>
      </trkpt>
      <trkpt lat="28.3104620" lon="-16.5052650">
        <ele>2103.9</ele>
        <time>2020-11-11T17:59:26Z</time>
      </trkpt>
      <trkpt lat="28.3104530" lon="-16.5053130">
        <ele>2103.9</ele>
        <time>2020-11-11T17:59:27Z</time>
      </trkpt>
      <trkpt lat="28.3104530" lon="-16.5053130">
        <ele>2103.9</ele>
        <time>2020-11-11T17:59:28Z</time>
      </trkpt>
      <trkpt lat="28.3104350" lon="-16.5053580">
        <ele>2103.9</ele>
        <time>2020-11-11T17:59:29Z</time>
      </trkpt>
      <trkpt lat="28.3104350" lon="-16.5053580">
        <ele>2103.9</ele>
        <time>2020-11-11T17:59:30Z</time>
      </trkpt>
      <trkpt lat="28.3104080" lon="-16.5054000">
        <ele>2103.9</ele>
        <time>2020-11-11T17:59:31Z</time>
      </trkpt>
      <trkpt lat="28.3104080" lon="-16.5054000">
        <ele>2103.9</ele>
        <time>2020-11-11T17:59:32Z</time>
      </trkpt>
      <trkpt lat="28.3103780" lon="-16.5054330">
        <ele>2103.9</ele>
        <time>2020-11-11T17:59:33Z</time>
      </trkpt>
      <trkpt lat="28.3103780" lon="-16.5054330">
        <ele>2103.9</ele>
        <time>2020-11-11T17:59:34Z</time>
      </trkpt>
      <trkpt lat="28.3103420" lon="-16.5054630">
        <ele>2103.9</ele>
        <time>2020-11-11T17:59:35Z</time>
      </trkpt>
      <trkpt lat="28.3103420" lon="-16.5054630">
        <ele>2103.9</ele>
        <time>2020-11-11T17:59:36Z</time>
      </trkpt>
      <trkpt lat="28.3102980" lon="-16.5055020">
        <ele>2103.9</ele>
        <time>2020-11-11T17:59:37Z</time>
      </trkpt>
      <trkpt lat="28.3102980" lon="-16.5055020">
        <ele>2103.9</ele>
        <time>2020-11-11T17:59:38Z</time>
      </trkpt>
      <trkpt lat="28.3102650" lon="-16.5055420">
        <ele>2103.9</ele>
        <time>2020-11-11T17:59:39Z</time>
      </trkpt>
      <trkpt lat="28.3102650" lon="-16.5055420">
        <ele>2103.9</ele>
        <time>2020-11-11T17:59:40Z</time>
      </trkpt>
      <trkpt lat="28.3102320" lon="-16.5055700">
        <ele>2103.9</ele>
        <time>2020-11-11T17:59:41Z</time>
      </trkpt>
      <trkpt lat="28.3102320" lon="-16.5055700">
        <ele>2103.9</ele>
        <time>2020-11-11T17:59:42Z</time>
      </trkpt>
      <trkpt lat="28.3101930" lon="-16.5055970">
        <ele>2103.9</ele>
        <time>2020-11-11T17:59:43Z</time>
      </trkpt>
      <trkpt lat="28.3101930" lon="-16.5055970">
        <ele>2103.9</ele>
        <time>2020-11-11T17:59:44Z</time>
      </trkpt>
      <trkpt lat="28.3101550" lon="-16.5056220">
        <ele>2103.9</ele>
        <time>2020-11-11T17:59:45Z</time>
      </trkpt>
      <trkpt lat="28.3101550" lon="-16.5056220">
        <ele>2104.9</ele>
        <time>2020-11-11T17:59:46Z</time>
      </trkpt>
      <trkpt lat="28.3101170" lon="-16.5056400">
        <ele>2104.9</ele>
        <time>2020-11-11T17:59:47Z</time>
      </trkpt>
      <trkpt lat="28.3100980" lon="-16.5056450">
        <ele>2104.9</ele>
        <time>2020-11-11T17:59:48Z</time>
      </trkpt>
      <trkpt lat="28.3100780" lon="-16.5056480">
        <ele>2104.9</ele>
        <time>2020-11-11T17:59:49Z</time>
      </trkpt>
      <trkpt lat="28.3100780" lon="-16.5056480">
        <ele>2105.9</ele>
        <time>2020-11-11T17:59:50Z</time>
      </trkpt>
      <trkpt lat="28.3100330" lon="-16.5056530">
        <ele>2105.9</ele>
        <time>2020-11-11T17:59:51Z</time>
      </trkpt>
      <trkpt lat="28.3100330" lon="-16.5056530">
        <ele>2105.9</ele>
        <time>2020-11-11T17:59:52Z</time>
      </trkpt>
      <trkpt lat="28.3099900" lon="-16.5056600">
        <ele>2105.9</ele>
        <time>2020-11-11T17:59:53Z</time>
      </trkpt>
      <trkpt lat="28.3099730" lon="-16.5056570">
        <ele>2105.9</ele>
        <time>2020-11-11T17:59:54Z</time>
      </trkpt>
      <trkpt lat="28.3099730" lon="-16.5056570">
        <ele>2105.9</ele>
        <time>2020-11-11T17:59:55Z</time>
      </trkpt>
      <trkpt lat="28.3099330" lon="-16.5056530">
        <ele>2106.9</ele>
        <time>2020-11-11T17:59:56Z</time>
      </trkpt>
      <trkpt lat="28.3099330" lon="-16.5056530">
        <ele>2106.9</ele>
        <time>2020-11-11T17:59:57Z</time>
      </trkpt>
      <trkpt lat="28.3098920" lon="-16.5056550">
        <ele>2106.9</ele>
        <time>2020-11-11T17:59:58Z</time>
      </trkpt>
      <trkpt lat="28.3098920" lon="-16.5056550">
        <ele>2106.9</ele>
        <time>2020-11-11T17:59:59Z</time>
      </trkpt>
      <trkpt lat="28.3098550" lon="-16.5056550">
        <ele>2106.9</ele>
        <time>2020-11-11T18:00:00Z</time>
      </trkpt>
      <trkpt lat="28.3098550" lon="-16.5056550">
        <ele>2106.9</ele>
        <time>2020-11-11T18:00:01Z</time>
      </trkpt>
      <trkpt lat="28.3098250" lon="-16.5056530">
        <ele>2106.9</ele>
        <time>2020-11-11T18:00:02Z</time>
      </trkpt>
      <trkpt lat="28.3098250" lon="-16.5056530">
        <ele>2107.9</ele>
        <time>2020-11-11T18:00:03Z</time>
      </trkpt>
      <trkpt lat="28.3097870" lon="-16.5056600">
        <ele>2107.9</ele>
        <time>2020-11-11T18:00:04Z</time>
      </trkpt>
      <trkpt lat="28.3097870" lon="-16.5056600">
        <ele>2107.9</ele>
        <time>2020-11-11T18:00:05Z</time>
      </trkpt>
      <trkpt lat="28.3097550" lon="-16.5056920">
        <ele>2107.9</ele>
        <time>2020-11-11T18:00:06Z</time>
      </trkpt>
      <trkpt lat="28.3097450" lon="-16.5057150">
        <ele>2107.9</ele>
        <time>2020-11-11T18:00:07Z</time>
      </trkpt>
      <trkpt lat="28.3097450" lon="-16.5057150">
        <ele>2107.9</ele>
        <time>2020-11-11T18:00:08Z</time>
      </trkpt>
      <trkpt lat="28.3097280" lon="-16.5057600">
        <ele>2107.9</ele>
        <time>2020-11-11T18:00:09Z</time>
      </trkpt>
      <trkpt lat="28.3097280" lon="-16.5057600">
        <ele>2107.9</ele>
        <time>2020-11-11T18:00:10Z</time>
      </trkpt>
      <trkpt lat="28.3097130" lon="-16.5058000">
        <ele>2107.9</ele>
        <time>2020-11-11T18:00:11Z</time>
      </trkpt>
      <trkpt lat="28.3097130" lon="-16.5058000">
        <ele>2107.9</ele>
        <time>2020-11-11T18:00:12Z</time>
      </trkpt>
      <trkpt lat="28.3096920" lon="-16.5058420">
        <ele>2107.9</ele>
        <time>2020-11-11T18:00:13Z</time>
      </trkpt>
      <trkpt lat="28.3096920" lon="-16.5058420">
        <ele>2107.9</ele>
        <time>2020-11-11T18:00:14Z</time>
      </trkpt>
      <trkpt lat="28.3096680" lon="-16.5058820">
        <ele>2108.9</ele>
        <time>2020-11-11T18:00:15Z</time>
      </trkpt>
      <trkpt lat="28.3096680" lon="-16.5058820">
        <ele>2108.9</ele>
        <time>2020-11-11T18:00:16Z</time>
      </trkpt>
      <trkpt lat="28.3096450" lon="-16.5059180">
        <ele>2108.9</ele>
        <time>2020-11-11T18:00:17Z</time>
      </trkpt>
      <trkpt lat="28.3096320" lon="-16.5059350">
        <ele>2108.9</ele>
        <time>2020-11-11T18:00:18Z</time>
      </trkpt>
      <trkpt lat="28.3096320" lon="-16.5059350">
        <ele>2108.9</ele>
        <time>2020-11-11T18:00:19Z</time>
      </trkpt>
      <trkpt lat="28.3095980" lon="-16.5059620">
        <ele>2108.9</ele>
        <time>2020-11-11T18:00:20Z</time>
      </trkpt>
      <trkpt lat="28.3095800" lon="-16.5059750">
        <ele>2108.9</ele>
        <time>2020-11-11T18:00:21Z</time>
      </trkpt>
      <trkpt lat="28.3095620" lon="-16.5059880">
        <ele>2108.9</ele>
        <time>2020-11-11T18:00:22Z</time>
      </trkpt>
      <trkpt lat="28.3095620" lon="-16.5059880">
        <ele>2108.9</ele>
        <time>2020-11-11T18:00:23Z</time>
      </trkpt>
      <trkpt lat="28.3095270" lon="-16.5060100">
        <ele>2108.9</ele>
        <time>2020-11-11T18:00:24Z</time>
      </trkpt>
      <trkpt lat="28.3095100" lon="-16.5060220">
        <ele>2108.9</ele>
        <time>2020-11-11T18:00:25Z</time>
      </trkpt>
      <trkpt lat="28.3095100" lon="-16.5060220">
        <ele>2108.9</ele>
        <time>2020-11-11T18:00:26Z</time>
      </trkpt>
      <trkpt lat="28.3094750" lon="-16.5060400">
        <ele>2109.9</ele>
        <time>2020-11-11T18:00:27Z</time>
      </trkpt>
      <trkpt lat="28.3094750" lon="-16.5060400">
        <ele>2109.9</ele>
        <time>2020-11-11T18:00:28Z</time>
      </trkpt>
      <trkpt lat="28.3094430" lon="-16.5060620">
        <ele>2109.9</ele>
        <time>2020-11-11T18:00:29Z</time>
      </trkpt>
      <trkpt lat="28.3094280" lon="-16.5060750">
        <ele>2109.9</ele>
        <time>2020-11-11T18:00:30Z</time>
      </trkpt>
      <trkpt lat="28.3094280" lon="-16.5060750">
        <ele>2109.9</ele>
        <time>2020-11-11T18:00:31Z</time>
      </trkpt>
      <trkpt lat="28.3093970" lon="-16.5061030">
        <ele>2110.9</ele>
        <time>2020-11-11T18:00:32Z</time>
      </trkpt>
      <trkpt lat="28.3093850" lon="-16.5061250">
        <ele>2110.9</ele>
        <time>2020-11-11T18:00:33Z</time>
      </trkpt>
      <trkpt lat="28.3093850" lon="-16.5061250">
        <ele>2110.9</ele>
        <time>2020-11-11T18:00:34Z</time>
      </trkpt>
      <trkpt lat="28.3093620" lon="-16.5061730">
        <ele>2110.9</ele>
        <time>2020-11-11T18:00:35Z</time>
      </trkpt>
      <trkpt lat="28.3093620" lon="-16.5061730">
        <ele>2110.9</ele>
        <time>2020-11-11T18:00:36Z</time>
      </trkpt>
      <trkpt lat="28.3093430" lon="-16.5062220">
        <ele>2110.9</ele>
        <time>2020-11-11T18:00:37Z</time>
      </trkpt>
      <trkpt lat="28.3093430" lon="-16.5062220">
        <ele>2110.9</ele>
        <time>2020-11-11T18:00:38Z</time>
      </trkpt>
      <trkpt lat="28.3093220" lon="-16.5062620">
        <ele>2110.9</ele>
        <time>2020-11-11T18:00:39Z</time>
      </trkpt>
      <trkpt lat="28.3093220" lon="-16.5062620">
        <ele>2110.9</ele>
        <time>2020-11-11T18:00:40Z</time>
      </trkpt>
      <trkpt lat="28.3092900" lon="-16.5062980">
        <ele>2110.9</ele>
        <time>2020-11-11T18:00:41Z</time>
      </trkpt>
      <trkpt lat="28.3092900" lon="-16.5062980">
        <ele>2111.9</ele>
        <time>2020-11-11T18:00:42Z</time>
      </trkpt>
      <trkpt lat="28.3092500" lon="-16.5063280">
        <ele>2111.9</ele>
        <time>2020-11-11T18:00:43Z</time>
      </trkpt>
      <trkpt lat="28.3092500" lon="-16.5063280">
        <ele>2111.9</ele>
        <time>2020-11-11T18:00:44Z</time>
      </trkpt>
      <trkpt lat="28.3092130" lon="-16.5063620">
        <ele>2111.9</ele>
        <time>2020-11-11T18:00:45Z</time>
      </trkpt>
      <trkpt lat="28.3091970" lon="-16.5063750">
        <ele>2111.9</ele>
        <time>2020-11-11T18:00:46Z</time>
      </trkpt>
      <trkpt lat="28.3091970" lon="-16.5063750">
        <ele>2111.9</ele>
        <time>2020-11-11T18:00:47Z</time>
      </trkpt>
      <trkpt lat="28.3091620" lon="-16.5063970">
        <ele>2112.9</ele>
        <time>2020-11-11T18:00:48Z</time>
      </trkpt>
      <trkpt lat="28.3091420" lon="-16.5064050">
        <ele>2112.9</ele>
        <time>2020-11-11T18:00:49Z</time>
      </trkpt>
      <trkpt lat="28.3091420" lon="-16.5064050">
        <ele>2112.9</ele>
        <time>2020-11-11T18:00:50Z</time>
      </trkpt>
      <trkpt lat="28.3091050" lon="-16.5064250">
        <ele>2112.9</ele>
        <time>2020-11-11T18:00:51Z</time>
      </trkpt>
      <trkpt lat="28.3091050" lon="-16.5064250">
        <ele>2112.9</ele>
        <time>2020-11-11T18:00:52Z</time>
      </trkpt>
      <trkpt lat="28.3090770" lon="-16.5064530">
        <ele>2112.9</ele>
        <time>2020-11-11T18:00:53Z</time>
      </trkpt>
      <trkpt lat="28.3090770" lon="-16.5064530">
        <ele>2112.9</ele>
        <time>2020-11-11T18:00:54Z</time>
      </trkpt>
      <trkpt lat="28.3090430" lon="-16.5064900">
        <ele>2112.9</ele>
        <time>2020-11-11T18:00:55Z</time>
      </trkpt>
      <trkpt lat="28.3090430" lon="-16.5064900">
        <ele>2113.9</ele>
        <time>2020-11-11T18:00:56Z</time>
      </trkpt>
      <trkpt lat="28.3090120" lon="-16.5065400">
        <ele>2113.9</ele>
        <time>2020-11-11T18:00:57Z</time>
      </trkpt>
      <trkpt lat="28.3090120" lon="-16.5065400">
        <ele>2113.9</ele>
        <time>2020-11-11T18:00:58Z</time>
      </trkpt>
      <trkpt lat="28.3089870" lon="-16.5065830">
        <ele>2113.9</ele>
        <time>2020-11-11T18:00:59Z</time>
      </trkpt>
      <trkpt lat="28.3089870" lon="-16.5065830">
        <ele>2113.9</ele>
        <time>2020-11-11T18:01:00Z</time>
      </trkpt>
      <trkpt lat="28.3089650" lon="-16.5066230">
        <ele>2113.9</ele>
        <time>2020-11-11T18:01:01Z</time>
      </trkpt>
      <trkpt lat="28.3089650" lon="-16.5066230">
        <ele>2114.9</ele>
        <time>2020-11-11T18:01:02Z</time>
      </trkpt>
      <trkpt lat="28.3089450" lon="-16.5066630">
        <ele>2114.9</ele>
        <time>2020-11-11T18:01:03Z</time>
      </trkpt>
      <trkpt lat="28.3089450" lon="-16.5066630">
        <ele>2114.9</ele>
        <time>2020-11-11T18:01:04Z</time>
      </trkpt>
      <trkpt lat="28.3089220" lon="-16.5067020">
        <ele>2114.9</ele>
        <time>2020-11-11T18:01:05Z</time>
      </trkpt>
      <trkpt lat="28.3089220" lon="-16.5067020">
        <ele>2115.9</ele>
        <time>2020-11-11T18:01:06Z</time>
      </trkpt>
      <trkpt lat="28.3088980" lon="-16.5067430">
        <ele>2115.9</ele>
        <time>2020-11-11T18:01:07Z</time>
      </trkpt>
      <trkpt lat="28.3088980" lon="-16.5067430">
        <ele>2115.9</ele>
        <time>2020-11-11T18:01:08Z</time>
      </trkpt>
      <trkpt lat="28.3088670" lon="-16.5067750">
        <ele>2115.9</ele>
        <time>2020-11-11T18:01:09Z</time>
      </trkpt>
      <trkpt lat="28.3088670" lon="-16.5067750">
        <ele>2115.9</ele>
        <time>2020-11-11T18:01:10Z</time>
      </trkpt>
      <trkpt lat="28.3088330" lon="-16.5068080">
        <ele>2115.9</ele>
        <time>2020-11-11T18:01:11Z</time>
      </trkpt>
      <trkpt lat="28.3088150" lon="-16.5068250">
        <ele>2115.9</ele>
        <time>2020-11-11T18:01:12Z</time>
      </trkpt>
      <trkpt lat="28.3087970" lon="-16.5068370">
        <ele>2115.9</ele>
        <time>2020-11-11T18:01:13Z</time>
      </trkpt>
      <trkpt lat="28.3087970" lon="-16.5068370">
        <ele>2115.9</ele>
        <time>2020-11-11T18:01:14Z</time>
      </trkpt>
      <trkpt lat="28.3087570" lon="-16.5068580">
        <ele>2115.9</ele>
        <time>2020-11-11T18:01:15Z</time>
      </trkpt>
      <trkpt lat="28.3087570" lon="-16.5068580">
        <ele>2115.9</ele>
        <time>2020-11-11T18:01:16Z</time>
      </trkpt>
      <trkpt lat="28.3087120" lon="-16.5068700">
        <ele>2115.9</ele>
        <time>2020-11-11T18:01:17Z</time>
      </trkpt>
      <trkpt lat="28.3087120" lon="-16.5068700">
        <ele>2115.9</ele>
        <time>2020-11-11T18:01:18Z</time>
      </trkpt>
      <trkpt lat="28.3086700" lon="-16.5068820">
        <ele>2115.9</ele>
        <time>2020-11-11T18:01:19Z</time>
      </trkpt>
      <trkpt lat="28.3086700" lon="-16.5068820">
        <ele>2115.9</ele>
        <time>2020-11-11T18:01:20Z</time>
      </trkpt>
      <trkpt lat="28.3086280" lon="-16.5068870">
        <ele>2116.9</ele>
        <time>2020-11-11T18:01:21Z</time>
      </trkpt>
      <trkpt lat="28.3086280" lon="-16.5068870">
        <ele>2116.9</ele>
        <time>2020-11-11T18:01:22Z</time>
      </trkpt>
      <trkpt lat="28.3085850" lon="-16.5069020">
        <ele>2116.9</ele>
        <time>2020-11-11T18:01:23Z</time>
      </trkpt>
      <trkpt lat="28.3085850" lon="-16.5069020">
        <ele>2116.9</ele>
        <time>2020-11-11T18:01:24Z</time>
      </trkpt>
      <trkpt lat="28.3085430" lon="-16.5069300">
        <ele>2116.9</ele>
        <time>2020-11-11T18:01:25Z</time>
      </trkpt>
      <trkpt lat="28.3085430" lon="-16.5069300">
        <ele>2116.9</ele>
        <time>2020-11-11T18:01:26Z</time>
      </trkpt>
      <trkpt lat="28.3085100" lon="-16.5069720">
        <ele>2116.9</ele>
        <time>2020-11-11T18:01:27Z</time>
      </trkpt>
      <trkpt lat="28.3085100" lon="-16.5069720">
        <ele>2116.9</ele>
        <time>2020-11-11T18:01:28Z</time>
      </trkpt>
      <trkpt lat="28.3084870" lon="-16.5070080">
        <ele>2116.9</ele>
        <time>2020-11-11T18:01:29Z</time>
      </trkpt>
      <trkpt lat="28.3084870" lon="-16.5070080">
        <ele>2116.9</ele>
        <time>2020-11-11T18:01:30Z</time>
      </trkpt>
      <trkpt lat="28.3084620" lon="-16.5070400">
        <ele>2117.9</ele>
        <time>2020-11-11T18:01:31Z</time>
      </trkpt>
      <trkpt lat="28.3084620" lon="-16.5070400">
        <ele>2117.9</ele>
        <time>2020-11-11T18:01:32Z</time>
      </trkpt>
      <trkpt lat="28.3084400" lon="-16.5070680">
        <ele>2117.9</ele>
        <time>2020-11-11T18:01:33Z</time>
      </trkpt>
      <trkpt lat="28.3084400" lon="-16.5070680">
        <ele>2117.9</ele>
        <time>2020-11-11T18:01:34Z</time>
      </trkpt>
      <trkpt lat="28.3084030" lon="-16.5070900">
        <ele>2117.9</ele>
        <time>2020-11-11T18:01:35Z</time>
      </trkpt>
      <trkpt lat="28.3084030" lon="-16.5070900">
        <ele>2117.9</ele>
        <time>2020-11-11T18:01:36Z</time>
      </trkpt>
      <trkpt lat="28.3083580" lon="-16.5071050">
        <ele>2118.9</ele>
        <time>2020-11-11T18:01:37Z</time>
      </trkpt>
      <trkpt lat="28.3083580" lon="-16.5071050">
        <ele>2118.9</ele>
        <time>2020-11-11T18:01:38Z</time>
      </trkpt>
      <trkpt lat="28.3083200" lon="-16.5071180">
        <ele>2118.9</ele>
        <time>2020-11-11T18:01:39Z</time>
      </trkpt>
      <trkpt lat="28.3083200" lon="-16.5071180">
        <ele>2118.9</ele>
        <time>2020-11-11T18:01:40Z</time>
      </trkpt>
      <trkpt lat="28.3082820" lon="-16.5071230">
        <ele>2119.9</ele>
        <time>2020-11-11T18:01:41Z</time>
      </trkpt>
      <trkpt lat="28.3082820" lon="-16.5071230">
        <ele>2119.9</ele>
        <time>2020-11-11T18:01:42Z</time>
      </trkpt>
      <trkpt lat="28.3082470" lon="-16.5071280">
        <ele>2119.9</ele>
        <time>2020-11-11T18:01:43Z</time>
      </trkpt>
      <trkpt lat="28.3082470" lon="-16.5071280">
        <ele>2119.9</ele>
        <time>2020-11-11T18:01:44Z</time>
      </trkpt>
      <trkpt lat="28.3082070" lon="-16.5071350">
        <ele>2119.9</ele>
        <time>2020-11-11T18:01:45Z</time>
      </trkpt>
      <trkpt lat="28.3082070" lon="-16.5071350">
        <ele>2119.9</ele>
        <time>2020-11-11T18:01:46Z</time>
      </trkpt>
      <trkpt lat="28.3081650" lon="-16.5071400">
        <ele>2120.9</ele>
        <time>2020-11-11T18:01:47Z</time>
      </trkpt>
      <trkpt lat="28.3081430" lon="-16.5071430">
        <ele>2120.9</ele>
        <time>2020-11-11T18:01:48Z</time>
      </trkpt>
      <trkpt lat="28.3081430" lon="-16.5071430">
        <ele>2120.9</ele>
        <time>2020-11-11T18:01:49Z</time>
      </trkpt>
      <trkpt lat="28.3081050" lon="-16.5071550">
        <ele>2120.9</ele>
        <time>2020-11-11T18:01:50Z</time>
      </trkpt>
      <trkpt lat="28.3081050" lon="-16.5071550">
        <ele>2120.9</ele>
        <time>2020-11-11T18:01:51Z</time>
      </trkpt>
      <trkpt lat="28.3080680" lon="-16.5071730">
        <ele>2120.9</ele>
        <time>2020-11-11T18:01:52Z</time>
      </trkpt>
      <trkpt lat="28.3080680" lon="-16.5071730">
        <ele>2120.9</ele>
        <time>2020-11-11T18:01:53Z</time>
      </trkpt>
      <trkpt lat="28.3080350" lon="-16.5071920">
        <ele>2120.9</ele>
        <time>2020-11-11T18:01:54Z</time>
      </trkpt>
      <trkpt lat="28.3080350" lon="-16.5071920">
        <ele>2120.9</ele>
        <time>2020-11-11T18:01:55Z</time>
      </trkpt>
      <trkpt lat="28.3080030" lon="-16.5072120">
        <ele>2120.9</ele>
        <time>2020-11-11T18:01:56Z</time>
      </trkpt>
      <trkpt lat="28.3080030" lon="-16.5072120">
        <ele>2120.9</ele>
        <time>2020-11-11T18:01:57Z</time>
      </trkpt>
      <trkpt lat="28.3079720" lon="-16.5072420">
        <ele>2120.9</ele>
        <time>2020-11-11T18:01:58Z</time>
      </trkpt>
      <trkpt lat="28.3079720" lon="-16.5072420">
        <ele>2120.9</ele>
        <time>2020-11-11T18:01:59Z</time>
      </trkpt>
      <trkpt lat="28.3079430" lon="-16.5072780">
        <ele>2120.9</ele>
        <time>2020-11-11T18:02:00Z</time>
      </trkpt>
      <trkpt lat="28.3079280" lon="-16.5073020">
        <ele>2120.9</ele>
        <time>2020-11-11T18:02:01Z</time>
      </trkpt>
      <trkpt lat="28.3079280" lon="-16.5073020">
        <ele>2121.9</ele>
        <time>2020-11-11T18:02:02Z</time>
      </trkpt>
      <trkpt lat="28.3079050" lon="-16.5073700">
        <ele>2121.9</ele>
        <time>2020-11-11T18:02:03Z</time>
      </trkpt>
      <trkpt lat="28.3079050" lon="-16.5073700">
        <ele>2121.9</ele>
        <time>2020-11-11T18:02:04Z</time>
      </trkpt>
      <trkpt lat="28.3078980" lon="-16.5074470">
        <ele>2121.9</ele>
        <time>2020-11-11T18:02:05Z</time>
      </trkpt>
      <trkpt lat="28.3078980" lon="-16.5074470">
        <ele>2121.9</ele>
        <time>2020-11-11T18:02:06Z</time>
      </trkpt>
      <trkpt lat="28.3078980" lon="-16.5075180">
        <ele>2121.9</ele>
        <time>2020-11-11T18:02:07Z</time>
      </trkpt>
      <trkpt lat="28.3078980" lon="-16.5075180">
        <ele>2121.9</ele>
        <time>2020-11-11T18:02:08Z</time>
      </trkpt>
      <trkpt lat="28.3078980" lon="-16.5075870">
        <ele>2121.9</ele>
        <time>2020-11-11T18:02:09Z</time>
      </trkpt>
      <trkpt lat="28.3078970" lon="-16.5076180">
        <ele>2121.9</ele>
        <time>2020-11-11T18:02:10Z</time>
      </trkpt>
      <trkpt lat="28.3078970" lon="-16.5076180">
        <ele>2121.9</ele>
        <time>2020-11-11T18:02:11Z</time>
      </trkpt>
      <trkpt lat="28.3078800" lon="-16.5076830">
        <ele>2121.9</ele>
        <time>2020-11-11T18:02:12Z</time>
      </trkpt>
      <trkpt lat="28.3078670" lon="-16.5077150">
        <ele>2121.9</ele>
        <time>2020-11-11T18:02:13Z</time>
      </trkpt>
      <trkpt lat="28.3078670" lon="-16.5077150">
        <ele>2121.9</ele>
        <time>2020-11-11T18:02:14Z</time>
      </trkpt>
      <trkpt lat="28.3078350" lon="-16.5077730">
        <ele>2121.9</ele>
        <time>2020-11-11T18:02:15Z</time>
      </trkpt>
      <trkpt lat="28.3078350" lon="-16.5077730">
        <ele>2122.9</ele>
        <time>2020-11-11T18:02:16Z</time>
      </trkpt>
      <trkpt lat="28.3077930" lon="-16.5078200">
        <ele>2122.9</ele>
        <time>2020-11-11T18:02:17Z</time>
      </trkpt>
      <trkpt lat="28.3077930" lon="-16.5078200">
        <ele>2122.9</ele>
        <time>2020-11-11T18:02:18Z</time>
      </trkpt>
      <trkpt lat="28.3077430" lon="-16.5078550">
        <ele>2122.9</ele>
        <time>2020-11-11T18:02:19Z</time>
      </trkpt>
      <trkpt lat="28.3077430" lon="-16.5078550">
        <ele>2122.9</ele>
        <time>2020-11-11T18:02:20Z</time>
      </trkpt>
      <trkpt lat="28.3076950" lon="-16.5078870">
        <ele>2122.9</ele>
        <time>2020-11-11T18:02:21Z</time>
      </trkpt>
      <trkpt lat="28.3076950" lon="-16.5078870">
        <ele>2122.9</ele>
        <time>2020-11-11T18:02:22Z</time>
      </trkpt>
      <trkpt lat="28.3076500" lon="-16.5079230">
        <ele>2122.9</ele>
        <time>2020-11-11T18:02:23Z</time>
      </trkpt>
      <trkpt lat="28.3076500" lon="-16.5079230">
        <ele>2122.9</ele>
        <time>2020-11-11T18:02:24Z</time>
      </trkpt>
      <trkpt lat="28.3076080" lon="-16.5079600">
        <ele>2122.9</ele>
        <time>2020-11-11T18:02:25Z</time>
      </trkpt>
      <trkpt lat="28.3076080" lon="-16.5079600">
        <ele>2123.9</ele>
        <time>2020-11-11T18:02:26Z</time>
      </trkpt>
      <trkpt lat="28.3075730" lon="-16.5079970">
        <ele>2123.9</ele>
        <time>2020-11-11T18:02:27Z</time>
      </trkpt>
      <trkpt lat="28.3075730" lon="-16.5079970">
        <ele>2123.9</ele>
        <time>2020-11-11T18:02:28Z</time>
      </trkpt>
      <trkpt lat="28.3075400" lon="-16.5080320">
        <ele>2123.9</ele>
        <time>2020-11-11T18:02:29Z</time>
      </trkpt>
      <trkpt lat="28.3075250" lon="-16.5080500">
        <ele>2123.9</ele>
        <time>2020-11-11T18:02:30Z</time>
      </trkpt>
      <trkpt lat="28.3075250" lon="-16.5080500">
        <ele>2124.9</ele>
        <time>2020-11-11T18:02:31Z</time>
      </trkpt>
      <trkpt lat="28.3074950" lon="-16.5080820">
        <ele>2124.9</ele>
        <time>2020-11-11T18:02:32Z</time>
      </trkpt>
      <trkpt lat="28.3074950" lon="-16.5080820">
        <ele>2124.9</ele>
        <time>2020-11-11T18:02:33Z</time>
      </trkpt>
      <trkpt lat="28.3074580" lon="-16.5081150">
        <ele>2124.9</ele>
        <time>2020-11-11T18:02:34Z</time>
      </trkpt>
      <trkpt lat="28.3074420" lon="-16.5081320">
        <ele>2124.9</ele>
        <time>2020-11-11T18:02:35Z</time>
      </trkpt>
      <trkpt lat="28.3074420" lon="-16.5081320">
        <ele>2124.9</ele>
        <time>2020-11-11T18:02:36Z</time>
      </trkpt>
      <trkpt lat="28.3074030" lon="-16.5081600">
        <ele>2125.9</ele>
        <time>2020-11-11T18:02:37Z</time>
      </trkpt>
      <trkpt lat="28.3074030" lon="-16.5081600">
        <ele>2125.9</ele>
        <time>2020-11-11T18:02:38Z</time>
      </trkpt>
      <trkpt lat="28.3073680" lon="-16.5081880">
        <ele>2125.9</ele>
        <time>2020-11-11T18:02:39Z</time>
      </trkpt>
      <trkpt lat="28.3073680" lon="-16.5081880">
        <ele>2125.9</ele>
        <time>2020-11-11T18:02:40Z</time>
      </trkpt>
      <trkpt lat="28.3073400" lon="-16.5082150">
        <ele>2125.9</ele>
        <time>2020-11-11T18:02:41Z</time>
      </trkpt>
      <trkpt lat="28.3073400" lon="-16.5082150">
        <ele>2125.9</ele>
        <time>2020-11-11T18:02:42Z</time>
      </trkpt>
      <trkpt lat="28.3073120" lon="-16.5082520">
        <ele>2126.9</ele>
        <time>2020-11-11T18:02:43Z</time>
      </trkpt>
      <trkpt lat="28.3073120" lon="-16.5082520">
        <ele>2126.9</ele>
        <time>2020-11-11T18:02:44Z</time>
      </trkpt>
      <trkpt lat="28.3072870" lon="-16.5082850">
        <ele>2126.9</ele>
        <time>2020-11-11T18:02:45Z</time>
      </trkpt>
      <trkpt lat="28.3072750" lon="-16.5083050">
        <ele>2126.9</ele>
        <time>2020-11-11T18:02:46Z</time>
      </trkpt>
      <trkpt lat="28.3072750" lon="-16.5083050">
        <ele>2126.9</ele>
        <time>2020-11-11T18:02:47Z</time>
      </trkpt>
      <trkpt lat="28.3072550" lon="-16.5083480">
        <ele>2126.9</ele>
        <time>2020-11-11T18:02:48Z</time>
      </trkpt>
      <trkpt lat="28.3072430" lon="-16.5083730">
        <ele>2126.9</ele>
        <time>2020-11-11T18:02:49Z</time>
      </trkpt>
      <trkpt lat="28.3072430" lon="-16.5083730">
        <ele>2126.9</ele>
        <time>2020-11-11T18:02:50Z</time>
      </trkpt>
      <trkpt lat="28.3072220" lon="-16.5084230">
        <ele>2126.9</ele>
        <time>2020-11-11T18:02:51Z</time>
      </trkpt>
      <trkpt lat="28.3072130" lon="-16.5084450">
        <ele>2126.9</ele>
        <time>2020-11-11T18:02:52Z</time>
      </trkpt>
      <trkpt lat="28.3072130" lon="-16.5084450">
        <ele>2126.9</ele>
        <time>2020-11-11T18:02:53Z</time>
      </trkpt>
      <trkpt lat="28.3071970" lon="-16.5084900">
        <ele>2126.9</ele>
        <time>2020-11-11T18:02:54Z</time>
      </trkpt>
      <trkpt lat="28.3071970" lon="-16.5084900">
        <ele>2126.9</ele>
        <time>2020-11-11T18:02:55Z</time>
      </trkpt>
      <trkpt lat="28.3071950" lon="-16.5085130">
        <ele>2126.9</ele>
        <time>2020-11-11T18:02:56Z</time>
      </trkpt>
      <trkpt lat="28.3071950" lon="-16.5085130">
        <ele>2126.9</ele>
        <time>2020-11-11T18:02:57Z</time>
      </trkpt>
      <trkpt lat="28.3071980" lon="-16.5085180">
        <ele>2126.9</ele>
        <time>2020-11-11T18:03:31Z</time>
      </trkpt>
      <trkpt lat="28.3071980" lon="-16.5085180">
        <ele>2126.9</ele>
        <time>2020-11-11T18:03:32Z</time>
      </trkpt>
      <trkpt lat="28.3071770" lon="-16.5085480">
        <ele>2126.9</ele>
        <time>2020-11-11T18:03:33Z</time>
      </trkpt>
      <trkpt lat="28.3071770" lon="-16.5085480">
        <ele>2126.9</ele>
        <time>2020-11-11T18:03:34Z</time>
      </trkpt>
      <trkpt lat="28.3071580" lon="-16.5085870">
        <ele>2126.9</ele>
        <time>2020-11-11T18:03:35Z</time>
      </trkpt>
      <trkpt lat="28.3071580" lon="-16.5085870">
        <ele>2126.9</ele>
        <time>2020-11-11T18:03:36Z</time>
      </trkpt>
      <trkpt lat="28.3071330" lon="-16.5086300">
        <ele>2126.9</ele>
        <time>2020-11-11T18:03:37Z</time>
      </trkpt>
      <trkpt lat="28.3071330" lon="-16.5086300">
        <ele>2126.9</ele>
        <time>2020-11-11T18:03:38Z</time>
      </trkpt>
      <trkpt lat="28.3071050" lon="-16.5086730">
        <ele>2126.9</ele>
        <time>2020-11-11T18:03:39Z</time>
      </trkpt>
      <trkpt lat="28.3071050" lon="-16.5086730">
        <ele>2127.9</ele>
        <time>2020-11-11T18:03:40Z</time>
      </trkpt>
      <trkpt lat="28.3070680" lon="-16.5087130">
        <ele>2127.9</ele>
        <time>2020-11-11T18:03:41Z</time>
      </trkpt>
      <trkpt lat="28.3070680" lon="-16.5087130">
        <ele>2127.9</ele>
        <time>2020-11-11T18:03:42Z</time>
      </trkpt>
      <trkpt lat="28.3070300" lon="-16.5087520">
        <ele>2127.9</ele>
        <time>2020-11-11T18:03:43Z</time>
      </trkpt>
      <trkpt lat="28.3070300" lon="-16.5087520">
        <ele>2127.9</ele>
        <time>2020-11-11T18:03:44Z</time>
      </trkpt>
      <trkpt lat="28.3069900" lon="-16.5087870">
        <ele>2127.9</ele>
        <time>2020-11-11T18:03:45Z</time>
      </trkpt>
      <trkpt lat="28.3069720" lon="-16.5088050">
        <ele>2127.9</ele>
        <time>2020-11-11T18:03:46Z</time>
      </trkpt>
      <trkpt lat="28.3069720" lon="-16.5088050">
        <ele>2127.9</ele>
        <time>2020-11-11T18:03:47Z</time>
      </trkpt>
      <trkpt lat="28.3069380" lon="-16.5088470">
        <ele>2127.9</ele>
        <time>2020-11-11T18:03:48Z</time>
      </trkpt>
      <trkpt lat="28.3069250" lon="-16.5088680">
        <ele>2128.9</ele>
        <time>2020-11-11T18:03:49Z</time>
      </trkpt>
      <trkpt lat="28.3069250" lon="-16.5088680">
        <ele>2128.9</ele>
        <time>2020-11-11T18:03:50Z</time>
      </trkpt>
      <trkpt lat="28.3069030" lon="-16.5089170">
        <ele>2128.9</ele>
        <time>2020-11-11T18:03:51Z</time>
      </trkpt>
      <trkpt lat="28.3069030" lon="-16.5089170">
        <ele>2128.9</ele>
        <time>2020-11-11T18:03:52Z</time>
      </trkpt>
      <trkpt lat="28.3068830" lon="-16.5089670">
        <ele>2128.9</ele>
        <time>2020-11-11T18:03:53Z</time>
      </trkpt>
      <trkpt lat="28.3068830" lon="-16.5089670">
        <ele>2128.9</ele>
        <time>2020-11-11T18:03:54Z</time>
      </trkpt>
      <trkpt lat="28.3068670" lon="-16.5090180">
        <ele>2128.9</ele>
        <time>2020-11-11T18:03:55Z</time>
      </trkpt>
      <trkpt lat="28.3068670" lon="-16.5090180">
        <ele>2128.9</ele>
        <time>2020-11-11T18:03:56Z</time>
      </trkpt>
      <trkpt lat="28.3068550" lon="-16.5090730">
        <ele>2129.9</ele>
        <time>2020-11-11T18:03:57Z</time>
      </trkpt>
      <trkpt lat="28.3068550" lon="-16.5090730">
        <ele>2129.9</ele>
        <time>2020-11-11T18:03:58Z</time>
      </trkpt>
      <trkpt lat="28.3068400" lon="-16.5091230">
        <ele>2129.9</ele>
        <time>2020-11-11T18:03:59Z</time>
      </trkpt>
      <trkpt lat="28.3068400" lon="-16.5091230">
        <ele>2129.9</ele>
        <time>2020-11-11T18:04:00Z</time>
      </trkpt>
      <trkpt lat="28.3068230" lon="-16.5091820">
        <ele>2129.9</ele>
        <time>2020-11-11T18:04:01Z</time>
      </trkpt>
      <trkpt lat="28.3068230" lon="-16.5091820">
        <ele>2129.9</ele>
        <time>2020-11-11T18:04:02Z</time>
      </trkpt>
      <trkpt lat="28.3068150" lon="-16.5092420">
        <ele>2129.9</ele>
        <time>2020-11-11T18:04:03Z</time>
      </trkpt>
      <trkpt lat="28.3068150" lon="-16.5092420">
        <ele>2129.9</ele>
        <time>2020-11-11T18:04:04Z</time>
      </trkpt>
      <trkpt lat="28.3068020" lon="-16.5092970">
        <ele>2129.9</ele>
        <time>2020-11-11T18:04:05Z</time>
      </trkpt>
      <trkpt lat="28.3068020" lon="-16.5092970">
        <ele>2129.9</ele>
        <time>2020-11-11T18:04:06Z</time>
      </trkpt>
      <trkpt lat="28.3067850" lon="-16.5093500">
        <ele>2129.9</ele>
        <time>2020-11-11T18:04:07Z</time>
      </trkpt>
      <trkpt lat="28.3067850" lon="-16.5093500">
        <ele>2129.9</ele>
        <time>2020-11-11T18:04:08Z</time>
      </trkpt>
      <trkpt lat="28.3067650" lon="-16.5094030">
        <ele>2129.9</ele>
        <time>2020-11-11T18:04:09Z</time>
      </trkpt>
      <trkpt lat="28.3067650" lon="-16.5094030">
        <ele>2129.9</ele>
        <time>2020-11-11T18:04:10Z</time>
      </trkpt>
      <trkpt lat="28.3067420" lon="-16.5094480">
        <ele>2130.9</ele>
        <time>2020-11-11T18:04:11Z</time>
      </trkpt>
      <trkpt lat="28.3067420" lon="-16.5094480">
        <ele>2130.9</ele>
        <time>2020-11-11T18:04:12Z</time>
      </trkpt>
      <trkpt lat="28.3067130" lon="-16.5094880">
        <ele>2130.9</ele>
        <time>2020-11-11T18:04:13Z</time>
      </trkpt>
      <trkpt lat="28.3067130" lon="-16.5094880">
        <ele>2130.9</ele>
        <time>2020-11-11T18:04:14Z</time>
      </trkpt>
      <trkpt lat="28.3066800" lon="-16.5095220">
        <ele>2130.9</ele>
        <time>2020-11-11T18:04:15Z</time>
      </trkpt>
      <trkpt lat="28.3066800" lon="-16.5095220">
        <ele>2130.9</ele>
        <time>2020-11-11T18:04:16Z</time>
      </trkpt>
      <trkpt lat="28.3066400" lon="-16.5095500">
        <ele>2131.9</ele>
        <time>2020-11-11T18:04:17Z</time>
      </trkpt>
      <trkpt lat="28.3066400" lon="-16.5095500">
        <ele>2131.9</ele>
        <time>2020-11-11T18:04:18Z</time>
      </trkpt>
      <trkpt lat="28.3065980" lon="-16.5095770">
        <ele>2131.9</ele>
        <time>2020-11-11T18:04:19Z</time>
      </trkpt>
      <trkpt lat="28.3065980" lon="-16.5095770">
        <ele>2131.9</ele>
        <time>2020-11-11T18:04:20Z</time>
      </trkpt>
      <trkpt lat="28.3065580" lon="-16.5096020">
        <ele>2131.9</ele>
        <time>2020-11-11T18:04:21Z</time>
      </trkpt>
      <trkpt lat="28.3065580" lon="-16.5096020">
        <ele>2131.9</ele>
        <time>2020-11-11T18:04:22Z</time>
      </trkpt>
      <trkpt lat="28.3065130" lon="-16.5096100">
        <ele>2132.9</ele>
        <time>2020-11-11T18:04:23Z</time>
      </trkpt>
      <trkpt lat="28.3065130" lon="-16.5096100">
        <ele>2132.9</ele>
        <time>2020-11-11T18:04:24Z</time>
      </trkpt>
      <trkpt lat="28.3064700" lon="-16.5096200">
        <ele>2132.9</ele>
        <time>2020-11-11T18:04:25Z</time>
      </trkpt>
      <trkpt lat="28.3064700" lon="-16.5096200">
        <ele>2132.9</ele>
        <time>2020-11-11T18:04:26Z</time>
      </trkpt>
      <trkpt lat="28.3064280" lon="-16.5096370">
        <ele>2132.9</ele>
        <time>2020-11-11T18:04:27Z</time>
      </trkpt>
      <trkpt lat="28.3064280" lon="-16.5096370">
        <ele>2132.9</ele>
        <time>2020-11-11T18:04:28Z</time>
      </trkpt>
      <trkpt lat="28.3063900" lon="-16.5096570">
        <ele>2132.9</ele>
        <time>2020-11-11T18:04:29Z</time>
      </trkpt>
      <trkpt lat="28.3063900" lon="-16.5096570">
        <ele>2133.9</ele>
        <time>2020-11-11T18:04:30Z</time>
      </trkpt>
      <trkpt lat="28.3063530" lon="-16.5096850">
        <ele>2133.9</ele>
        <time>2020-11-11T18:04:31Z</time>
      </trkpt>
      <trkpt lat="28.3063530" lon="-16.5096850">
        <ele>2133.9</ele>
        <time>2020-11-11T18:04:32Z</time>
      </trkpt>
      <trkpt lat="28.3063330" lon="-16.5097430">
        <ele>2133.9</ele>
        <time>2020-11-11T18:04:33Z</time>
      </trkpt>
      <trkpt lat="28.3063330" lon="-16.5097430">
        <ele>2133.9</ele>
        <time>2020-11-11T18:04:34Z</time>
      </trkpt>
      <trkpt lat="28.3063270" lon="-16.5098020">
        <ele>2133.9</ele>
        <time>2020-11-11T18:04:35Z</time>
      </trkpt>
      <trkpt lat="28.3063270" lon="-16.5098020">
        <ele>2133.9</ele>
        <time>2020-11-11T18:04:36Z</time>
      </trkpt>
      <trkpt lat="28.3063300" lon="-16.5098580">
        <ele>2133.9</ele>
        <time>2020-11-11T18:04:37Z</time>
      </trkpt>
      <trkpt lat="28.3063300" lon="-16.5098580">
        <ele>2134.9</ele>
        <time>2020-11-11T18:04:38Z</time>
      </trkpt>
      <trkpt lat="28.3063450" lon="-16.5099130">
        <ele>2134.9</ele>
        <time>2020-11-11T18:04:39Z</time>
      </trkpt>
      <trkpt lat="28.3063450" lon="-16.5099130">
        <ele>2134.9</ele>
        <time>2020-11-11T18:04:40Z</time>
      </trkpt>
      <trkpt lat="28.3063620" lon="-16.5099600">
        <ele>2134.9</ele>
        <time>2020-11-11T18:04:41Z</time>
      </trkpt>
      <trkpt lat="28.3063620" lon="-16.5099600">
        <ele>2134.9</ele>
        <time>2020-11-11T18:04:42Z</time>
      </trkpt>
      <trkpt lat="28.3063800" lon="-16.5100150">
        <ele>2134.9</ele>
        <time>2020-11-11T18:04:43Z</time>
      </trkpt>
      <trkpt lat="28.3063800" lon="-16.5100150">
        <ele>2134.9</ele>
        <time>2020-11-11T18:04:44Z</time>
      </trkpt>
      <trkpt lat="28.3063930" lon="-16.5100700">
        <ele>2134.9</ele>
        <time>2020-11-11T18:04:45Z</time>
      </trkpt>
      <trkpt lat="28.3064000" lon="-16.5100950">
        <ele>2135.9</ele>
        <time>2020-11-11T18:04:46Z</time>
      </trkpt>
      <trkpt lat="28.3064000" lon="-16.5100950">
        <ele>2135.9</ele>
        <time>2020-11-11T18:04:47Z</time>
      </trkpt>
      <trkpt lat="28.3064080" lon="-16.5101420">
        <ele>2135.9</ele>
        <time>2020-11-11T18:04:48Z</time>
      </trkpt>
      <trkpt lat="28.3064080" lon="-16.5101420">
        <ele>2135.9</ele>
        <time>2020-11-11T18:04:49Z</time>
      </trkpt>
      <trkpt lat="28.3064170" lon="-16.5101920">
        <ele>2135.9</ele>
        <time>2020-11-11T18:04:50Z</time>
      </trkpt>
      <trkpt lat="28.3064170" lon="-16.5101920">
        <ele>2135.9</ele>
        <time>2020-11-11T18:04:51Z</time>
      </trkpt>
      <trkpt lat="28.3064200" lon="-16.5102430">
        <ele>2136.9</ele>
        <time>2020-11-11T18:04:52Z</time>
      </trkpt>
      <trkpt lat="28.3064200" lon="-16.5102430">
        <ele>2136.9</ele>
        <time>2020-11-11T18:04:53Z</time>
      </trkpt>
      <trkpt lat="28.3064170" lon="-16.5102930">
        <ele>2136.9</ele>
        <time>2020-11-11T18:04:54Z</time>
      </trkpt>
      <trkpt lat="28.3064170" lon="-16.5102930">
        <ele>2136.9</ele>
        <time>2020-11-11T18:04:55Z</time>
      </trkpt>
      <trkpt lat="28.3064180" lon="-16.5103420">
        <ele>2136.9</ele>
        <time>2020-11-11T18:04:56Z</time>
      </trkpt>
      <trkpt lat="28.3064180" lon="-16.5103420">
        <ele>2136.9</ele>
        <time>2020-11-11T18:04:57Z</time>
      </trkpt>
      <trkpt lat="28.3064120" lon="-16.5103870">
        <ele>2136.9</ele>
        <time>2020-11-11T18:04:58Z</time>
      </trkpt>
      <trkpt lat="28.3064120" lon="-16.5103870">
        <ele>2136.9</ele>
        <time>2020-11-11T18:04:59Z</time>
      </trkpt>
      <trkpt lat="28.3063980" lon="-16.5104350">
        <ele>2136.9</ele>
        <time>2020-11-11T18:05:00Z</time>
      </trkpt>
      <trkpt lat="28.3063980" lon="-16.5104350">
        <ele>2137.9</ele>
        <time>2020-11-11T18:05:01Z</time>
      </trkpt>
      <trkpt lat="28.3063770" lon="-16.5104850">
        <ele>2137.9</ele>
        <time>2020-11-11T18:05:02Z</time>
      </trkpt>
      <trkpt lat="28.3063770" lon="-16.5104850">
        <ele>2137.9</ele>
        <time>2020-11-11T18:05:03Z</time>
      </trkpt>
      <trkpt lat="28.3063530" lon="-16.5105300">
        <ele>2137.9</ele>
        <time>2020-11-11T18:05:04Z</time>
      </trkpt>
      <trkpt lat="28.3063530" lon="-16.5105300">
        <ele>2137.9</ele>
        <time>2020-11-11T18:05:05Z</time>
      </trkpt>
      <trkpt lat="28.3063250" lon="-16.5105720">
        <ele>2137.9</ele>
        <time>2020-11-11T18:05:06Z</time>
      </trkpt>
      <trkpt lat="28.3063250" lon="-16.5105720">
        <ele>2137.9</ele>
        <time>2020-11-11T18:05:07Z</time>
      </trkpt>
      <trkpt lat="28.3062970" lon="-16.5106120">
        <ele>2137.9</ele>
        <time>2020-11-11T18:05:08Z</time>
      </trkpt>
      <trkpt lat="28.3062970" lon="-16.5106120">
        <ele>2137.9</ele>
        <time>2020-11-11T18:05:09Z</time>
      </trkpt>
      <trkpt lat="28.3062670" lon="-16.5106500">
        <ele>2137.9</ele>
        <time>2020-11-11T18:05:10Z</time>
      </trkpt>
      <trkpt lat="28.3062500" lon="-16.5106700">
        <ele>2137.9</ele>
        <time>2020-11-11T18:05:11Z</time>
      </trkpt>
      <trkpt lat="28.3062500" lon="-16.5106700">
        <ele>2137.9</ele>
        <time>2020-11-11T18:05:12Z</time>
      </trkpt>
      <trkpt lat="28.3062130" lon="-16.5107130">
        <ele>2137.9</ele>
        <time>2020-11-11T18:05:13Z</time>
      </trkpt>
      <trkpt lat="28.3062130" lon="-16.5107130">
        <ele>2138.9</ele>
        <time>2020-11-11T18:05:14Z</time>
      </trkpt>
      <trkpt lat="28.3061880" lon="-16.5107580">
        <ele>2138.9</ele>
        <time>2020-11-11T18:05:15Z</time>
      </trkpt>
      <trkpt lat="28.3061820" lon="-16.5107830">
        <ele>2138.9</ele>
        <time>2020-11-11T18:05:16Z</time>
      </trkpt>
      <trkpt lat="28.3061820" lon="-16.5107830">
        <ele>2138.9</ele>
        <time>2020-11-11T18:05:17Z</time>
      </trkpt>
      <trkpt lat="28.3061780" lon="-16.5108450">
        <ele>2138.9</ele>
        <time>2020-11-11T18:05:18Z</time>
      </trkpt>
      <trkpt lat="28.3061780" lon="-16.5108450">
        <ele>2138.9</ele>
        <time>2020-11-11T18:05:19Z</time>
      </trkpt>
      <trkpt lat="28.3062020" lon="-16.5109000">
        <ele>2138.9</ele>
        <time>2020-11-11T18:05:20Z</time>
      </trkpt>
      <trkpt lat="28.3062020" lon="-16.5109000">
        <ele>2138.9</ele>
        <time>2020-11-11T18:05:21Z</time>
      </trkpt>
      <trkpt lat="28.3062200" lon="-16.5109400">
        <ele>2138.9</ele>
        <time>2020-11-11T18:05:22Z</time>
      </trkpt>
      <trkpt lat="28.3062200" lon="-16.5109400">
        <ele>2138.9</ele>
        <time>2020-11-11T18:05:23Z</time>
      </trkpt>
      <trkpt lat="28.3062450" lon="-16.5109870">
        <ele>2138.9</ele>
        <time>2020-11-11T18:05:24Z</time>
      </trkpt>
      <trkpt lat="28.3062530" lon="-16.5110080">
        <ele>2138.9</ele>
        <time>2020-11-11T18:05:25Z</time>
      </trkpt>
      <trkpt lat="28.3062530" lon="-16.5110080">
        <ele>2138.9</ele>
        <time>2020-11-11T18:05:26Z</time>
      </trkpt>
      <trkpt lat="28.3062650" lon="-16.5110580">
        <ele>2138.9</ele>
        <time>2020-11-11T18:05:27Z</time>
      </trkpt>
      <trkpt lat="28.3062650" lon="-16.5110580">
        <ele>2138.9</ele>
        <time>2020-11-11T18:05:28Z</time>
      </trkpt>
      <trkpt lat="28.3062720" lon="-16.5111080">
        <ele>2138.9</ele>
        <time>2020-11-11T18:05:29Z</time>
      </trkpt>
      <trkpt lat="28.3062720" lon="-16.5111080">
        <ele>2139.9</ele>
        <time>2020-11-11T18:05:30Z</time>
      </trkpt>
      <trkpt lat="28.3062750" lon="-16.5111600">
        <ele>2139.9</ele>
        <time>2020-11-11T18:05:31Z</time>
      </trkpt>
      <trkpt lat="28.3062750" lon="-16.5111600">
        <ele>2139.9</ele>
        <time>2020-11-11T18:05:32Z</time>
      </trkpt>
      <trkpt lat="28.3062780" lon="-16.5112150">
        <ele>2139.9</ele>
        <time>2020-11-11T18:05:33Z</time>
      </trkpt>
      <trkpt lat="28.3062800" lon="-16.5112420">
        <ele>2139.9</ele>
        <time>2020-11-11T18:05:34Z</time>
      </trkpt>
      <trkpt lat="28.3062800" lon="-16.5112420">
        <ele>2139.9</ele>
        <time>2020-11-11T18:05:35Z</time>
      </trkpt>
      <trkpt lat="28.3062870" lon="-16.5112930">
        <ele>2139.9</ele>
        <time>2020-11-11T18:05:36Z</time>
      </trkpt>
      <trkpt lat="28.3062900" lon="-16.5113170">
        <ele>2139.9</ele>
        <time>2020-11-11T18:05:37Z</time>
      </trkpt>
      <trkpt lat="28.3062900" lon="-16.5113170">
        <ele>2140.9</ele>
        <time>2020-11-11T18:05:38Z</time>
      </trkpt>
      <trkpt lat="28.3062900" lon="-16.5113680">
        <ele>2140.9</ele>
        <time>2020-11-11T18:05:39Z</time>
      </trkpt>
      <trkpt lat="28.3062900" lon="-16.5113680">
        <ele>2140.9</ele>
        <time>2020-11-11T18:05:40Z</time>
      </trkpt>
      <trkpt lat="28.3062870" lon="-16.5114180">
        <ele>2140.9</ele>
        <time>2020-11-11T18:05:41Z</time>
      </trkpt>
      <trkpt lat="28.3062870" lon="-16.5114180">
        <ele>2140.9</ele>
        <time>2020-11-11T18:05:42Z</time>
      </trkpt>
      <trkpt lat="28.3062800" lon="-16.5114720">
        <ele>2140.9</ele>
        <time>2020-11-11T18:05:43Z</time>
      </trkpt>
      <trkpt lat="28.3062800" lon="-16.5114720">
        <ele>2140.9</ele>
        <time>2020-11-11T18:05:44Z</time>
      </trkpt>
      <trkpt lat="28.3062650" lon="-16.5115230">
        <ele>2140.9</ele>
        <time>2020-11-11T18:05:45Z</time>
      </trkpt>
      <trkpt lat="28.3062650" lon="-16.5115230">
        <ele>2140.9</ele>
        <time>2020-11-11T18:05:46Z</time>
      </trkpt>
      <trkpt lat="28.3062470" lon="-16.5115870">
        <ele>2140.9</ele>
        <time>2020-11-11T18:05:47Z</time>
      </trkpt>
      <trkpt lat="28.3062370" lon="-16.5116150">
        <ele>2140.9</ele>
        <time>2020-11-11T18:05:48Z</time>
      </trkpt>
      <trkpt lat="28.3062370" lon="-16.5116150">
        <ele>2140.9</ele>
        <time>2020-11-11T18:05:49Z</time>
      </trkpt>
      <trkpt lat="28.3062200" lon="-16.5116720">
        <ele>2140.9</ele>
        <time>2020-11-11T18:05:50Z</time>
      </trkpt>
      <trkpt lat="28.3062200" lon="-16.5116720">
        <ele>2140.9</ele>
        <time>2020-11-11T18:05:51Z</time>
      </trkpt>
      <trkpt lat="28.3062020" lon="-16.5117280">
        <ele>2140.9</ele>
        <time>2020-11-11T18:05:52Z</time>
      </trkpt>
      <trkpt lat="28.3062020" lon="-16.5117280">
        <ele>2140.9</ele>
        <time>2020-11-11T18:05:53Z</time>
      </trkpt>
      <trkpt lat="28.3061850" lon="-16.5117820">
        <ele>2140.9</ele>
        <time>2020-11-11T18:05:54Z</time>
      </trkpt>
      <trkpt lat="28.3061770" lon="-16.5118080">
        <ele>2140.9</ele>
        <time>2020-11-11T18:05:55Z</time>
      </trkpt>
      <trkpt lat="28.3061770" lon="-16.5118080">
        <ele>2141.9</ele>
        <time>2020-11-11T18:05:56Z</time>
      </trkpt>
      <trkpt lat="28.3061580" lon="-16.5118620">
        <ele>2141.9</ele>
        <time>2020-11-11T18:05:57Z</time>
      </trkpt>
      <trkpt lat="28.3061580" lon="-16.5118620">
        <ele>2141.9</ele>
        <time>2020-11-11T18:05:58Z</time>
      </trkpt>
      <trkpt lat="28.3061400" lon="-16.5119200">
        <ele>2141.9</ele>
        <time>2020-11-11T18:05:59Z</time>
      </trkpt>
      <trkpt lat="28.3061400" lon="-16.5119200">
        <ele>2141.9</ele>
        <time>2020-11-11T18:06:00Z</time>
      </trkpt>
      <trkpt lat="28.3061150" lon="-16.5119800">
        <ele>2141.9</ele>
        <time>2020-11-11T18:06:01Z</time>
      </trkpt>
      <trkpt lat="28.3061150" lon="-16.5119800">
        <ele>2141.9</ele>
        <time>2020-11-11T18:06:02Z</time>
      </trkpt>
      <trkpt lat="28.3060830" lon="-16.5120420">
        <ele>2141.9</ele>
        <time>2020-11-11T18:06:03Z</time>
      </trkpt>
      <trkpt lat="28.3060830" lon="-16.5120420">
        <ele>2141.9</ele>
        <time>2020-11-11T18:06:04Z</time>
      </trkpt>
      <trkpt lat="28.3060430" lon="-16.5120920">
        <ele>2141.9</ele>
        <time>2020-11-11T18:06:05Z</time>
      </trkpt>
      <trkpt lat="28.3060430" lon="-16.5120920">
        <ele>2141.9</ele>
        <time>2020-11-11T18:06:06Z</time>
      </trkpt>
      <trkpt lat="28.3060030" lon="-16.5121450">
        <ele>2141.9</ele>
        <time>2020-11-11T18:06:07Z</time>
      </trkpt>
      <trkpt lat="28.3060030" lon="-16.5121450">
        <ele>2141.9</ele>
        <time>2020-11-11T18:06:08Z</time>
      </trkpt>
      <trkpt lat="28.3059700" lon="-16.5122020">
        <ele>2141.9</ele>
        <time>2020-11-11T18:06:09Z</time>
      </trkpt>
      <trkpt lat="28.3059700" lon="-16.5122020">
        <ele>2141.9</ele>
        <time>2020-11-11T18:06:10Z</time>
      </trkpt>
      <trkpt lat="28.3059770" lon="-16.5122770">
        <ele>2141.9</ele>
        <time>2020-11-11T18:06:11Z</time>
      </trkpt>
      <trkpt lat="28.3059770" lon="-16.5122770">
        <ele>2141.9</ele>
        <time>2020-11-11T18:06:12Z</time>
      </trkpt>
      <trkpt lat="28.3060120" lon="-16.5123250">
        <ele>2141.9</ele>
        <time>2020-11-11T18:06:13Z</time>
      </trkpt>
      <trkpt lat="28.3060120" lon="-16.5123250">
        <ele>2141.9</ele>
        <time>2020-11-11T18:06:14Z</time>
      </trkpt>
      <trkpt lat="28.3060630" lon="-16.5123630">
        <ele>2141.9</ele>
        <time>2020-11-11T18:06:15Z</time>
      </trkpt>
      <trkpt lat="28.3060630" lon="-16.5123630">
        <ele>2141.9</ele>
        <time>2020-11-11T18:06:16Z</time>
      </trkpt>
      <trkpt lat="28.3061050" lon="-16.5124180">
        <ele>2141.9</ele>
        <time>2020-11-11T18:06:17Z</time>
      </trkpt>
      <trkpt lat="28.3061050" lon="-16.5124180">
        <ele>2141.9</ele>
        <time>2020-11-11T18:06:18Z</time>
      </trkpt>
      <trkpt lat="28.3061470" lon="-16.5124750">
        <ele>2141.9</ele>
        <time>2020-11-11T18:06:19Z</time>
      </trkpt>
      <trkpt lat="28.3061470" lon="-16.5124750">
        <ele>2141.9</ele>
        <time>2020-11-11T18:06:20Z</time>
      </trkpt>
      <trkpt lat="28.3061850" lon="-16.5125470">
        <ele>2141.9</ele>
        <time>2020-11-11T18:06:21Z</time>
      </trkpt>
      <trkpt lat="28.3062100" lon="-16.5125820">
        <ele>2141.9</ele>
        <time>2020-11-11T18:06:22Z</time>
      </trkpt>
      <trkpt lat="28.3062100" lon="-16.5125820">
        <ele>2141.9</ele>
        <time>2020-11-11T18:06:23Z</time>
      </trkpt>
      <trkpt lat="28.3062670" lon="-16.5126450">
        <ele>2141.9</ele>
        <time>2020-11-11T18:06:24Z</time>
      </trkpt>
      <trkpt lat="28.3062670" lon="-16.5126450">
        <ele>2141.9</ele>
        <time>2020-11-11T18:06:25Z</time>
      </trkpt>
      <trkpt lat="28.3063150" lon="-16.5127050">
        <ele>2141.9</ele>
        <time>2020-11-11T18:06:26Z</time>
      </trkpt>
      <trkpt lat="28.3063150" lon="-16.5127050">
        <ele>2141.9</ele>
        <time>2020-11-11T18:06:27Z</time>
      </trkpt>
      <trkpt lat="28.3063520" lon="-16.5127650">
        <ele>2141.9</ele>
        <time>2020-11-11T18:06:28Z</time>
      </trkpt>
      <trkpt lat="28.3063520" lon="-16.5127650">
        <ele>2141.9</ele>
        <time>2020-11-11T18:06:29Z</time>
      </trkpt>
      <trkpt lat="28.3063700" lon="-16.5128320">
        <ele>2141.9</ele>
        <time>2020-11-11T18:06:30Z</time>
      </trkpt>
      <trkpt lat="28.3063720" lon="-16.5128630">
        <ele>2141.9</ele>
        <time>2020-11-11T18:06:31Z</time>
      </trkpt>
      <trkpt lat="28.3063720" lon="-16.5128630">
        <ele>2141.9</ele>
        <time>2020-11-11T18:06:32Z</time>
      </trkpt>
      <trkpt lat="28.3063680" lon="-16.5129250">
        <ele>2141.9</ele>
        <time>2020-11-11T18:06:33Z</time>
      </trkpt>
      <trkpt lat="28.3063680" lon="-16.5129250">
        <ele>2141.9</ele>
        <time>2020-11-11T18:06:34Z</time>
      </trkpt>
      <trkpt lat="28.3063570" lon="-16.5129830">
        <ele>2141.9</ele>
        <time>2020-11-11T18:06:35Z</time>
      </trkpt>
      <trkpt lat="28.3063570" lon="-16.5129830">
        <ele>2142.9</ele>
        <time>2020-11-11T18:06:36Z</time>
      </trkpt>
      <trkpt lat="28.3063350" lon="-16.5130480">
        <ele>2142.9</ele>
        <time>2020-11-11T18:06:37Z</time>
      </trkpt>
      <trkpt lat="28.3063350" lon="-16.5130480">
        <ele>2142.9</ele>
        <time>2020-11-11T18:06:38Z</time>
      </trkpt>
      <trkpt lat="28.3063150" lon="-16.5131150">
        <ele>2142.9</ele>
        <time>2020-11-11T18:06:39Z</time>
      </trkpt>
      <trkpt lat="28.3063150" lon="-16.5131150">
        <ele>2142.9</ele>
        <time>2020-11-11T18:06:40Z</time>
      </trkpt>
      <trkpt lat="28.3062980" lon="-16.5131780">
        <ele>2142.9</ele>
        <time>2020-11-11T18:06:41Z</time>
      </trkpt>
      <trkpt lat="28.3062920" lon="-16.5132100">
        <ele>2142.9</ele>
        <time>2020-11-11T18:06:42Z</time>
      </trkpt>
      <trkpt lat="28.3062920" lon="-16.5132100">
        <ele>2142.9</ele>
        <time>2020-11-11T18:06:43Z</time>
      </trkpt>
      <trkpt lat="28.3062800" lon="-16.5132670">
        <ele>2142.9</ele>
        <time>2020-11-11T18:06:44Z</time>
      </trkpt>
      <trkpt lat="28.3062800" lon="-16.5132670">
        <ele>2142.9</ele>
        <time>2020-11-11T18:06:45Z</time>
      </trkpt>
      <trkpt lat="28.3062670" lon="-16.5133230">
        <ele>2142.9</ele>
        <time>2020-11-11T18:06:46Z</time>
      </trkpt>
      <trkpt lat="28.3062580" lon="-16.5133520">
        <ele>2142.9</ele>
        <time>2020-11-11T18:06:47Z</time>
      </trkpt>
      <trkpt lat="28.3062500" lon="-16.5133780">
        <ele>2143.9</ele>
        <time>2020-11-11T18:06:48Z</time>
      </trkpt>
      <trkpt lat="28.3062400" lon="-16.5134030">
        <ele>2143.9</ele>
        <time>2020-11-11T18:06:49Z</time>
      </trkpt>
      <trkpt lat="28.3062400" lon="-16.5134030">
        <ele>2143.9</ele>
        <time>2020-11-11T18:06:50Z</time>
      </trkpt>
      <trkpt lat="28.3062300" lon="-16.5134620">
        <ele>2143.9</ele>
        <time>2020-11-11T18:06:51Z</time>
      </trkpt>
      <trkpt lat="28.3062300" lon="-16.5134900">
        <ele>2143.9</ele>
        <time>2020-11-11T18:06:52Z</time>
      </trkpt>
      <trkpt lat="28.3062300" lon="-16.5134900">
        <ele>2143.9</ele>
        <time>2020-11-11T18:06:53Z</time>
      </trkpt>
      <trkpt lat="28.3062450" lon="-16.5135520">
        <ele>2143.9</ele>
        <time>2020-11-11T18:06:54Z</time>
      </trkpt>
      <trkpt lat="28.3062580" lon="-16.5135750">
        <ele>2143.9</ele>
        <time>2020-11-11T18:06:55Z</time>
      </trkpt>
      <trkpt lat="28.3062580" lon="-16.5135750">
        <ele>2143.9</ele>
        <time>2020-11-11T18:06:56Z</time>
      </trkpt>
      <trkpt lat="28.3062980" lon="-16.5136130">
        <ele>2143.9</ele>
        <time>2020-11-11T18:06:57Z</time>
      </trkpt>
      <trkpt lat="28.3062980" lon="-16.5136130">
        <ele>2143.9</ele>
        <time>2020-11-11T18:06:58Z</time>
      </trkpt>
      <trkpt lat="28.3063480" lon="-16.5136420">
        <ele>2143.9</ele>
        <time>2020-11-11T18:06:59Z</time>
      </trkpt>
      <trkpt lat="28.3063480" lon="-16.5136420">
        <ele>2143.9</ele>
        <time>2020-11-11T18:07:00Z</time>
      </trkpt>
      <trkpt lat="28.3064000" lon="-16.5136670">
        <ele>2143.9</ele>
        <time>2020-11-11T18:07:01Z</time>
      </trkpt>
      <trkpt lat="28.3064000" lon="-16.5136670">
        <ele>2143.9</ele>
        <time>2020-11-11T18:07:02Z</time>
      </trkpt>
      <trkpt lat="28.3064520" lon="-16.5136900">
        <ele>2143.9</ele>
        <time>2020-11-11T18:07:03Z</time>
      </trkpt>
      <trkpt lat="28.3064520" lon="-16.5136900">
        <ele>2143.9</ele>
        <time>2020-11-11T18:07:04Z</time>
      </trkpt>
      <trkpt lat="28.3064970" lon="-16.5137130">
        <ele>2144.9</ele>
        <time>2020-11-11T18:07:05Z</time>
      </trkpt>
      <trkpt lat="28.3064970" lon="-16.5137130">
        <ele>2144.9</ele>
        <time>2020-11-11T18:07:06Z</time>
      </trkpt>
      <trkpt lat="28.3065420" lon="-16.5137420">
        <ele>2144.9</ele>
        <time>2020-11-11T18:07:07Z</time>
      </trkpt>
      <trkpt lat="28.3065420" lon="-16.5137420">
        <ele>2144.9</ele>
        <time>2020-11-11T18:07:08Z</time>
      </trkpt>
      <trkpt lat="28.3065850" lon="-16.5137730">
        <ele>2144.9</ele>
        <time>2020-11-11T18:07:09Z</time>
      </trkpt>
      <trkpt lat="28.3065850" lon="-16.5137730">
        <ele>2144.9</ele>
        <time>2020-11-11T18:07:10Z</time>
      </trkpt>
      <trkpt lat="28.3066250" lon="-16.5138000">
        <ele>2145.9</ele>
        <time>2020-11-11T18:07:11Z</time>
      </trkpt>
      <trkpt lat="28.3066250" lon="-16.5138000">
        <ele>2145.9</ele>
        <time>2020-11-11T18:07:12Z</time>
      </trkpt>
      <trkpt lat="28.3066630" lon="-16.5138330">
        <ele>2145.9</ele>
        <time>2020-11-11T18:07:13Z</time>
      </trkpt>
      <trkpt lat="28.3066630" lon="-16.5138330">
        <ele>2145.9</ele>
        <time>2020-11-11T18:07:14Z</time>
      </trkpt>
      <trkpt lat="28.3067000" lon="-16.5138630">
        <ele>2145.9</ele>
        <time>2020-11-11T18:07:15Z</time>
      </trkpt>
      <trkpt lat="28.3067000" lon="-16.5138630">
        <ele>2145.9</ele>
        <time>2020-11-11T18:07:16Z</time>
      </trkpt>
      <trkpt lat="28.3067370" lon="-16.5138930">
        <ele>2146.9</ele>
        <time>2020-11-11T18:07:17Z</time>
      </trkpt>
      <trkpt lat="28.3067370" lon="-16.5138930">
        <ele>2146.9</ele>
        <time>2020-11-11T18:07:18Z</time>
      </trkpt>
      <trkpt lat="28.3067750" lon="-16.5139230">
        <ele>2146.9</ele>
        <time>2020-11-11T18:07:19Z</time>
      </trkpt>
      <trkpt lat="28.3067750" lon="-16.5139230">
        <ele>2146.9</ele>
        <time>2020-11-11T18:07:20Z</time>
      </trkpt>
      <trkpt lat="28.3068100" lon="-16.5139520">
        <ele>2146.9</ele>
        <time>2020-11-11T18:07:21Z</time>
      </trkpt>
      <trkpt lat="28.3068100" lon="-16.5139520">
        <ele>2146.9</ele>
        <time>2020-11-11T18:07:22Z</time>
      </trkpt>
      <trkpt lat="28.3068430" lon="-16.5139820">
        <ele>2147.9</ele>
        <time>2020-11-11T18:07:23Z</time>
      </trkpt>
      <trkpt lat="28.3068430" lon="-16.5139820">
        <ele>2147.9</ele>
        <time>2020-11-11T18:07:24Z</time>
      </trkpt>
      <trkpt lat="28.3068770" lon="-16.5140130">
        <ele>2147.9</ele>
        <time>2020-11-11T18:07:25Z</time>
      </trkpt>
      <trkpt lat="28.3068770" lon="-16.5140130">
        <ele>2147.9</ele>
        <time>2020-11-11T18:07:26Z</time>
      </trkpt>
      <trkpt lat="28.3069080" lon="-16.5140470">
        <ele>2147.9</ele>
        <time>2020-11-11T18:07:27Z</time>
      </trkpt>
      <trkpt lat="28.3069080" lon="-16.5140470">
        <ele>2147.9</ele>
        <time>2020-11-11T18:07:28Z</time>
      </trkpt>
      <trkpt lat="28.3069420" lon="-16.5140820">
        <ele>2148.9</ele>
        <time>2020-11-11T18:07:29Z</time>
      </trkpt>
      <trkpt lat="28.3069420" lon="-16.5140820">
        <ele>2148.9</ele>
        <time>2020-11-11T18:07:30Z</time>
      </trkpt>
      <trkpt lat="28.3069750" lon="-16.5141150">
        <ele>2148.9</ele>
        <time>2020-11-11T18:07:31Z</time>
      </trkpt>
      <trkpt lat="28.3069750" lon="-16.5141150">
        <ele>2148.9</ele>
        <time>2020-11-11T18:07:32Z</time>
      </trkpt>
      <trkpt lat="28.3070050" lon="-16.5141500">
        <ele>2149.9</ele>
        <time>2020-11-11T18:07:33Z</time>
      </trkpt>
      <trkpt lat="28.3070050" lon="-16.5141500">
        <ele>2149.9</ele>
        <time>2020-11-11T18:07:34Z</time>
      </trkpt>
      <trkpt lat="28.3070320" lon="-16.5141830">
        <ele>2149.9</ele>
        <time>2020-11-11T18:07:35Z</time>
      </trkpt>
      <trkpt lat="28.3070320" lon="-16.5141830">
        <ele>2149.9</ele>
        <time>2020-11-11T18:07:36Z</time>
      </trkpt>
      <trkpt lat="28.3070600" lon="-16.5142130">
        <ele>2149.9</ele>
        <time>2020-11-11T18:07:37Z</time>
      </trkpt>
      <trkpt lat="28.3070600" lon="-16.5142130">
        <ele>2149.9</ele>
        <time>2020-11-11T18:07:38Z</time>
      </trkpt>
      <trkpt lat="28.3070780" lon="-16.5142470">
        <ele>2149.9</ele>
        <time>2020-11-11T18:07:39Z</time>
      </trkpt>
      <trkpt lat="28.3070870" lon="-16.5142680">
        <ele>2149.9</ele>
        <time>2020-11-11T18:07:40Z</time>
      </trkpt>
      <trkpt lat="28.3070870" lon="-16.5142680">
        <ele>2150.9</ele>
        <time>2020-11-11T18:07:41Z</time>
      </trkpt>
      <trkpt lat="28.3071050" lon="-16.5143180">
        <ele>2150.9</ele>
        <time>2020-11-11T18:07:42Z</time>
      </trkpt>
      <trkpt lat="28.3071050" lon="-16.5143180">
        <ele>2150.9</ele>
        <time>2020-11-11T18:07:43Z</time>
      </trkpt>
      <trkpt lat="28.3071180" lon="-16.5143670">
        <ele>2150.9</ele>
        <time>2020-11-11T18:07:44Z</time>
      </trkpt>
      <trkpt lat="28.3071180" lon="-16.5143670">
        <ele>2150.9</ele>
        <time>2020-11-11T18:07:45Z</time>
      </trkpt>
      <trkpt lat="28.3071270" lon="-16.5144120">
        <ele>2150.9</ele>
        <time>2020-11-11T18:07:46Z</time>
      </trkpt>
      <trkpt lat="28.3071270" lon="-16.5144120">
        <ele>2150.9</ele>
        <time>2020-11-11T18:07:47Z</time>
      </trkpt>
      <trkpt lat="28.3071230" lon="-16.5144550">
        <ele>2150.9</ele>
        <time>2020-11-11T18:07:48Z</time>
      </trkpt>
      <trkpt lat="28.3071230" lon="-16.5144550">
        <ele>2150.9</ele>
        <time>2020-11-11T18:07:49Z</time>
      </trkpt>
      <trkpt lat="28.3071200" lon="-16.5145000">
        <ele>2150.9</ele>
        <time>2020-11-11T18:07:50Z</time>
      </trkpt>
      <trkpt lat="28.3071200" lon="-16.5145000">
        <ele>2150.9</ele>
        <time>2020-11-11T18:07:51Z</time>
      </trkpt>
      <trkpt lat="28.3071220" lon="-16.5145420">
        <ele>2150.9</ele>
        <time>2020-11-11T18:07:52Z</time>
      </trkpt>
      <trkpt lat="28.3071220" lon="-16.5145420">
        <ele>2150.9</ele>
        <time>2020-11-11T18:07:53Z</time>
      </trkpt>
      <trkpt lat="28.3071180" lon="-16.5145850">
        <ele>2150.9</ele>
        <time>2020-11-11T18:07:54Z</time>
      </trkpt>
      <trkpt lat="28.3071130" lon="-16.5146080">
        <ele>2150.9</ele>
        <time>2020-11-11T18:07:55Z</time>
      </trkpt>
      <trkpt lat="28.3071130" lon="-16.5146080">
        <ele>2152.9</ele>
        <time>2020-11-11T18:07:56Z</time>
      </trkpt>
      <trkpt lat="28.3071030" lon="-16.5146520">
        <ele>2152.9</ele>
        <time>2020-11-11T18:07:57Z</time>
      </trkpt>
      <trkpt lat="28.3070980" lon="-16.5146720">
        <ele>2152.9</ele>
        <time>2020-11-11T18:07:58Z</time>
      </trkpt>
      <trkpt lat="28.3070930" lon="-16.5146930">
        <ele>2152.9</ele>
        <time>2020-11-11T18:07:59Z</time>
      </trkpt>
      <trkpt lat="28.3070930" lon="-16.5146930">
        <ele>2152.9</ele>
        <time>2020-11-11T18:08:00Z</time>
      </trkpt>
      <trkpt lat="28.3070850" lon="-16.5147350">
        <ele>2152.9</ele>
        <time>2020-11-11T18:08:01Z</time>
      </trkpt>
      <trkpt lat="28.3070850" lon="-16.5147350">
        <ele>2152.9</ele>
        <time>2020-11-11T18:08:02Z</time>
      </trkpt>
      <trkpt lat="28.3070750" lon="-16.5147730">
        <ele>2152.9</ele>
        <time>2020-11-11T18:08:03Z</time>
      </trkpt>
      <trkpt lat="28.3070750" lon="-16.5147730">
        <ele>2152.9</ele>
        <time>2020-11-11T18:08:04Z</time>
      </trkpt>
      <trkpt lat="28.3070670" lon="-16.5148200">
        <ele>2152.9</ele>
        <time>2020-11-11T18:08:05Z</time>
      </trkpt>
      <trkpt lat="28.3070630" lon="-16.5148520">
        <ele>2152.9</ele>
        <time>2020-11-11T18:08:06Z</time>
      </trkpt>
      <trkpt lat="28.3070630" lon="-16.5148520">
        <ele>2152.9</ele>
        <time>2020-11-11T18:08:07Z</time>
      </trkpt>
      <trkpt lat="28.3070550" lon="-16.5149050">
        <ele>2152.9</ele>
        <time>2020-11-11T18:08:08Z</time>
      </trkpt>
      <trkpt lat="28.3070550" lon="-16.5149050">
        <ele>2152.9</ele>
        <time>2020-11-11T18:08:09Z</time>
      </trkpt>
      <trkpt lat="28.3070400" lon="-16.5149550">
        <ele>2153.9</ele>
        <time>2020-11-11T18:08:10Z</time>
      </trkpt>
      <trkpt lat="28.3070400" lon="-16.5149550">
        <ele>2153.9</ele>
        <time>2020-11-11T18:08:11Z</time>
      </trkpt>
      <trkpt lat="28.3070280" lon="-16.5150000">
        <ele>2153.9</ele>
        <time>2020-11-11T18:08:12Z</time>
      </trkpt>
      <trkpt lat="28.3070280" lon="-16.5150000">
        <ele>2153.9</ele>
        <time>2020-11-11T18:08:13Z</time>
      </trkpt>
      <trkpt lat="28.3070200" lon="-16.5150430">
        <ele>2153.9</ele>
        <time>2020-11-11T18:08:14Z</time>
      </trkpt>
      <trkpt lat="28.3070200" lon="-16.5150430">
        <ele>2153.9</ele>
        <time>2020-11-11T18:08:15Z</time>
      </trkpt>
      <trkpt lat="28.3070120" lon="-16.5150870">
        <ele>2153.9</ele>
        <time>2020-11-11T18:08:16Z</time>
      </trkpt>
      <trkpt lat="28.3070050" lon="-16.5151080">
        <ele>2153.9</ele>
        <time>2020-11-11T18:08:17Z</time>
      </trkpt>
      <trkpt lat="28.3070050" lon="-16.5151080">
        <ele>2153.9</ele>
        <time>2020-11-11T18:08:18Z</time>
      </trkpt>
      <trkpt lat="28.3069900" lon="-16.5151520">
        <ele>2153.9</ele>
        <time>2020-11-11T18:08:19Z</time>
      </trkpt>
      <trkpt lat="28.3069900" lon="-16.5151520">
        <ele>2154.9</ele>
        <time>2020-11-11T18:08:20Z</time>
      </trkpt>
      <trkpt lat="28.3069780" lon="-16.5151980">
        <ele>2154.9</ele>
        <time>2020-11-11T18:08:21Z</time>
      </trkpt>
      <trkpt lat="28.3069780" lon="-16.5151980">
        <ele>2154.9</ele>
        <time>2020-11-11T18:08:22Z</time>
      </trkpt>
      <trkpt lat="28.3069680" lon="-16.5152500">
        <ele>2154.9</ele>
        <time>2020-11-11T18:08:23Z</time>
      </trkpt>
      <trkpt lat="28.3069680" lon="-16.5152500">
        <ele>2154.9</ele>
        <time>2020-11-11T18:08:24Z</time>
      </trkpt>
      <trkpt lat="28.3069570" lon="-16.5152930">
        <ele>2154.9</ele>
        <time>2020-11-11T18:08:25Z</time>
      </trkpt>
      <trkpt lat="28.3069570" lon="-16.5152930">
        <ele>2154.9</ele>
        <time>2020-11-11T18:08:26Z</time>
      </trkpt>
      <trkpt lat="28.3069450" lon="-16.5153380">
        <ele>2154.9</ele>
        <time>2020-11-11T18:08:27Z</time>
      </trkpt>
      <trkpt lat="28.3069450" lon="-16.5153380">
        <ele>2154.9</ele>
        <time>2020-11-11T18:08:28Z</time>
      </trkpt>
      <trkpt lat="28.3069380" lon="-16.5153850">
        <ele>2154.9</ele>
        <time>2020-11-11T18:08:29Z</time>
      </trkpt>
      <trkpt lat="28.3069380" lon="-16.5153850">
        <ele>2154.9</ele>
        <time>2020-11-11T18:08:30Z</time>
      </trkpt>
      <trkpt lat="28.3069320" lon="-16.5154280">
        <ele>2155.9</ele>
        <time>2020-11-11T18:08:31Z</time>
      </trkpt>
      <trkpt lat="28.3069320" lon="-16.5154280">
        <ele>2155.9</ele>
        <time>2020-11-11T18:08:32Z</time>
      </trkpt>
      <trkpt lat="28.3069220" lon="-16.5154720">
        <ele>2155.9</ele>
        <time>2020-11-11T18:08:33Z</time>
      </trkpt>
      <trkpt lat="28.3069220" lon="-16.5154720">
        <ele>2155.9</ele>
        <time>2020-11-11T18:08:34Z</time>
      </trkpt>
      <trkpt lat="28.3069080" lon="-16.5155150">
        <ele>2155.9</ele>
        <time>2020-11-11T18:08:35Z</time>
      </trkpt>
      <trkpt lat="28.3069080" lon="-16.5155150">
        <ele>2155.9</ele>
        <time>2020-11-11T18:08:36Z</time>
      </trkpt>
      <trkpt lat="28.3068920" lon="-16.5155580">
        <ele>2156.9</ele>
        <time>2020-11-11T18:08:37Z</time>
      </trkpt>
      <trkpt lat="28.3068920" lon="-16.5155580">
        <ele>2156.9</ele>
        <time>2020-11-11T18:08:38Z</time>
      </trkpt>
      <trkpt lat="28.3068700" lon="-16.5155980">
        <ele>2156.9</ele>
        <time>2020-11-11T18:08:39Z</time>
      </trkpt>
      <trkpt lat="28.3068700" lon="-16.5155980">
        <ele>2156.9</ele>
        <time>2020-11-11T18:08:40Z</time>
      </trkpt>
      <trkpt lat="28.3068470" lon="-16.5156370">
        <ele>2156.9</ele>
        <time>2020-11-11T18:08:41Z</time>
      </trkpt>
      <trkpt lat="28.3068470" lon="-16.5156370">
        <ele>2156.9</ele>
        <time>2020-11-11T18:08:42Z</time>
      </trkpt>
      <trkpt lat="28.3068230" lon="-16.5156770">
        <ele>2156.9</ele>
        <time>2020-11-11T18:08:43Z</time>
      </trkpt>
      <trkpt lat="28.3068230" lon="-16.5156770">
        <ele>2156.9</ele>
        <time>2020-11-11T18:08:44Z</time>
      </trkpt>
      <trkpt lat="28.3067970" lon="-16.5157150">
        <ele>2156.9</ele>
        <time>2020-11-11T18:08:45Z</time>
      </trkpt>
      <trkpt lat="28.3067970" lon="-16.5157150">
        <ele>2156.9</ele>
        <time>2020-11-11T18:08:46Z</time>
      </trkpt>
      <trkpt lat="28.3067680" lon="-16.5157630">
        <ele>2156.9</ele>
        <time>2020-11-11T18:08:47Z</time>
      </trkpt>
      <trkpt lat="28.3067680" lon="-16.5157630">
        <ele>2156.9</ele>
        <time>2020-11-11T18:08:48Z</time>
      </trkpt>
      <trkpt lat="28.3067500" lon="-16.5158150">
        <ele>2156.9</ele>
        <time>2020-11-11T18:08:49Z</time>
      </trkpt>
      <trkpt lat="28.3067500" lon="-16.5158150">
        <ele>2156.9</ele>
        <time>2020-11-11T18:08:50Z</time>
      </trkpt>
      <trkpt lat="28.3067280" lon="-16.5158530">
        <ele>2157.9</ele>
        <time>2020-11-11T18:08:51Z</time>
      </trkpt>
      <trkpt lat="28.3067280" lon="-16.5158530">
        <ele>2157.9</ele>
        <time>2020-11-11T18:08:52Z</time>
      </trkpt>
      <trkpt lat="28.3067020" lon="-16.5158980">
        <ele>2157.9</ele>
        <time>2020-11-11T18:08:53Z</time>
      </trkpt>
      <trkpt lat="28.3067020" lon="-16.5158980">
        <ele>2157.9</ele>
        <time>2020-11-11T18:08:54Z</time>
      </trkpt>
      <trkpt lat="28.3066750" lon="-16.5159430">
        <ele>2157.9</ele>
        <time>2020-11-11T18:08:55Z</time>
      </trkpt>
      <trkpt lat="28.3066750" lon="-16.5159430">
        <ele>2157.9</ele>
        <time>2020-11-11T18:08:56Z</time>
      </trkpt>
      <trkpt lat="28.3066450" lon="-16.5159880">
        <ele>2157.9</ele>
        <time>2020-11-11T18:08:57Z</time>
      </trkpt>
      <trkpt lat="28.3066450" lon="-16.5159880">
        <ele>2157.9</ele>
        <time>2020-11-11T18:08:58Z</time>
      </trkpt>
      <trkpt lat="28.3066170" lon="-16.5160320">
        <ele>2158.9</ele>
        <time>2020-11-11T18:08:59Z</time>
      </trkpt>
      <trkpt lat="28.3066170" lon="-16.5160320">
        <ele>2158.9</ele>
        <time>2020-11-11T18:09:00Z</time>
      </trkpt>
      <trkpt lat="28.3065820" lon="-16.5160730">
        <ele>2158.9</ele>
        <time>2020-11-11T18:09:01Z</time>
      </trkpt>
      <trkpt lat="28.3065820" lon="-16.5160730">
        <ele>2159.9</ele>
        <time>2020-11-11T18:09:02Z</time>
      </trkpt>
      <trkpt lat="28.3065450" lon="-16.5161120">
        <ele>2159.9</ele>
        <time>2020-11-11T18:09:03Z</time>
      </trkpt>
      <trkpt lat="28.3065280" lon="-16.5161320">
        <ele>2159.9</ele>
        <time>2020-11-11T18:09:04Z</time>
      </trkpt>
      <trkpt lat="28.3065280" lon="-16.5161320">
        <ele>2159.9</ele>
        <time>2020-11-11T18:09:05Z</time>
      </trkpt>
      <trkpt lat="28.3064920" lon="-16.5161650">
        <ele>2159.9</ele>
        <time>2020-11-11T18:09:06Z</time>
      </trkpt>
      <trkpt lat="28.3064920" lon="-16.5161650">
        <ele>2159.9</ele>
        <time>2020-11-11T18:09:07Z</time>
      </trkpt>
      <trkpt lat="28.3064530" lon="-16.5161970">
        <ele>2159.9</ele>
        <time>2020-11-11T18:09:08Z</time>
      </trkpt>
      <trkpt lat="28.3064530" lon="-16.5161970">
        <ele>2159.9</ele>
        <time>2020-11-11T18:09:09Z</time>
      </trkpt>
      <trkpt lat="28.3064200" lon="-16.5162300">
        <ele>2160.9</ele>
        <time>2020-11-11T18:09:10Z</time>
      </trkpt>
      <trkpt lat="28.3064000" lon="-16.5162500">
        <ele>2160.9</ele>
        <time>2020-11-11T18:09:11Z</time>
      </trkpt>
      <trkpt lat="28.3064000" lon="-16.5162500">
        <ele>2160.9</ele>
        <time>2020-11-11T18:09:12Z</time>
      </trkpt>
      <trkpt lat="28.3063700" lon="-16.5163070">
        <ele>2160.9</ele>
        <time>2020-11-11T18:09:13Z</time>
      </trkpt>
      <trkpt lat="28.3063700" lon="-16.5163070">
        <ele>2160.9</ele>
        <time>2020-11-11T18:09:14Z</time>
      </trkpt>
      <trkpt lat="28.3063570" lon="-16.5163650">
        <ele>2160.9</ele>
        <time>2020-11-11T18:09:15Z</time>
      </trkpt>
      <trkpt lat="28.3063570" lon="-16.5163650">
        <ele>2160.9</ele>
        <time>2020-11-11T18:09:16Z</time>
      </trkpt>
      <trkpt lat="28.3063380" lon="-16.5164170">
        <ele>2160.9</ele>
        <time>2020-11-11T18:09:17Z</time>
      </trkpt>
      <trkpt lat="28.3063380" lon="-16.5164170">
        <ele>2160.9</ele>
        <time>2020-11-11T18:09:18Z</time>
      </trkpt>
      <trkpt lat="28.3063180" lon="-16.5164570">
        <ele>2160.9</ele>
        <time>2020-11-11T18:09:19Z</time>
      </trkpt>
      <trkpt lat="28.3063180" lon="-16.5164570">
        <ele>2160.9</ele>
        <time>2020-11-11T18:09:20Z</time>
      </trkpt>
      <trkpt lat="28.3063030" lon="-16.5164900">
        <ele>2160.9</ele>
        <time>2020-11-11T18:09:21Z</time>
      </trkpt>
      <trkpt lat="28.3062970" lon="-16.5165100">
        <ele>2160.9</ele>
        <time>2020-11-11T18:09:22Z</time>
      </trkpt>
      <trkpt lat="28.3062970" lon="-16.5165100">
        <ele>2160.9</ele>
        <time>2020-11-11T18:09:23Z</time>
      </trkpt>
      <trkpt lat="28.3062820" lon="-16.5165450">
        <ele>2161.9</ele>
        <time>2020-11-11T18:09:24Z</time>
      </trkpt>
      <trkpt lat="28.3062820" lon="-16.5165450">
        <ele>2161.9</ele>
        <time>2020-11-11T18:09:25Z</time>
      </trkpt>
      <trkpt lat="28.3062570" lon="-16.5165770">
        <ele>2161.9</ele>
        <time>2020-11-11T18:09:26Z</time>
      </trkpt>
      <trkpt lat="28.3062570" lon="-16.5165770">
        <ele>2161.9</ele>
        <time>2020-11-11T18:09:27Z</time>
      </trkpt>
      <trkpt lat="28.3062280" lon="-16.5166220">
        <ele>2161.9</ele>
        <time>2020-11-11T18:09:28Z</time>
      </trkpt>
      <trkpt lat="28.3062280" lon="-16.5166220">
        <ele>2161.9</ele>
        <time>2020-11-11T18:09:29Z</time>
      </trkpt>
      <trkpt lat="28.3062130" lon="-16.5166730">
        <ele>2161.9</ele>
        <time>2020-11-11T18:09:30Z</time>
      </trkpt>
      <trkpt lat="28.3062130" lon="-16.5166730">
        <ele>2161.9</ele>
        <time>2020-11-11T18:09:31Z</time>
      </trkpt>
      <trkpt lat="28.3062050" lon="-16.5167250">
        <ele>2161.9</ele>
        <time>2020-11-11T18:09:32Z</time>
      </trkpt>
      <trkpt lat="28.3062050" lon="-16.5167250">
        <ele>2161.9</ele>
        <time>2020-11-11T18:09:33Z</time>
      </trkpt>
      <trkpt lat="28.3061970" lon="-16.5167770">
        <ele>2161.9</ele>
        <time>2020-11-11T18:09:34Z</time>
      </trkpt>
      <trkpt lat="28.3061970" lon="-16.5167770">
        <ele>2161.9</ele>
        <time>2020-11-11T18:09:35Z</time>
      </trkpt>
      <trkpt lat="28.3061900" lon="-16.5168280">
        <ele>2162.9</ele>
        <time>2020-11-11T18:09:36Z</time>
      </trkpt>
      <trkpt lat="28.3061900" lon="-16.5168280">
        <ele>2162.9</ele>
        <time>2020-11-11T18:09:37Z</time>
      </trkpt>
      <trkpt lat="28.3061800" lon="-16.5168830">
        <ele>2162.9</ele>
        <time>2020-11-11T18:09:38Z</time>
      </trkpt>
      <trkpt lat="28.3061800" lon="-16.5168830">
        <ele>2162.9</ele>
        <time>2020-11-11T18:09:39Z</time>
      </trkpt>
      <trkpt lat="28.3061650" lon="-16.5169350">
        <ele>2162.9</ele>
        <time>2020-11-11T18:09:40Z</time>
      </trkpt>
      <trkpt lat="28.3061650" lon="-16.5169350">
        <ele>2163.9</ele>
        <time>2020-11-11T18:09:41Z</time>
      </trkpt>
      <trkpt lat="28.3061570" lon="-16.5169850">
        <ele>2163.9</ele>
        <time>2020-11-11T18:09:42Z</time>
      </trkpt>
      <trkpt lat="28.3061570" lon="-16.5169850">
        <ele>2163.9</ele>
        <time>2020-11-11T18:09:43Z</time>
      </trkpt>
      <trkpt lat="28.3061420" lon="-16.5170350">
        <ele>2163.9</ele>
        <time>2020-11-11T18:09:44Z</time>
      </trkpt>
      <trkpt lat="28.3061420" lon="-16.5170350">
        <ele>2163.9</ele>
        <time>2020-11-11T18:09:45Z</time>
      </trkpt>
      <trkpt lat="28.3061230" lon="-16.5170820">
        <ele>2163.9</ele>
        <time>2020-11-11T18:09:46Z</time>
      </trkpt>
      <trkpt lat="28.3061230" lon="-16.5170820">
        <ele>2163.9</ele>
        <time>2020-11-11T18:09:47Z</time>
      </trkpt>
      <trkpt lat="28.3061070" lon="-16.5171280">
        <ele>2163.9</ele>
        <time>2020-11-11T18:09:48Z</time>
      </trkpt>
      <trkpt lat="28.3061070" lon="-16.5171280">
        <ele>2164.9</ele>
        <time>2020-11-11T18:09:49Z</time>
      </trkpt>
      <trkpt lat="28.3060920" lon="-16.5171750">
        <ele>2164.9</ele>
        <time>2020-11-11T18:09:50Z</time>
      </trkpt>
      <trkpt lat="28.3060920" lon="-16.5171750">
        <ele>2164.9</ele>
        <time>2020-11-11T18:09:51Z</time>
      </trkpt>
      <trkpt lat="28.3060800" lon="-16.5172220">
        <ele>2164.9</ele>
        <time>2020-11-11T18:09:52Z</time>
      </trkpt>
      <trkpt lat="28.3060800" lon="-16.5172220">
        <ele>2164.9</ele>
        <time>2020-11-11T18:09:53Z</time>
      </trkpt>
      <trkpt lat="28.3060700" lon="-16.5172680">
        <ele>2164.9</ele>
        <time>2020-11-11T18:09:54Z</time>
      </trkpt>
      <trkpt lat="28.3060700" lon="-16.5172680">
        <ele>2164.9</ele>
        <time>2020-11-11T18:09:55Z</time>
      </trkpt>
      <trkpt lat="28.3060770" lon="-16.5173220">
        <ele>2164.9</ele>
        <time>2020-11-11T18:09:56Z</time>
      </trkpt>
      <trkpt lat="28.3060770" lon="-16.5173220">
        <ele>2164.9</ele>
        <time>2020-11-11T18:09:57Z</time>
      </trkpt>
      <trkpt lat="28.3061030" lon="-16.5173670">
        <ele>2164.9</ele>
        <time>2020-11-11T18:09:58Z</time>
      </trkpt>
      <trkpt lat="28.3061030" lon="-16.5173670">
        <ele>2165.9</ele>
        <time>2020-11-11T18:09:59Z</time>
      </trkpt>
      <trkpt lat="28.3061450" lon="-16.5173870">
        <ele>2165.9</ele>
        <time>2020-11-11T18:10:00Z</time>
      </trkpt>
      <trkpt lat="28.3061700" lon="-16.5173900">
        <ele>2165.9</ele>
        <time>2020-11-11T18:10:01Z</time>
      </trkpt>
      <trkpt lat="28.3061700" lon="-16.5173900">
        <ele>2165.9</ele>
        <time>2020-11-11T18:10:02Z</time>
      </trkpt>
      <trkpt lat="28.3062150" lon="-16.5173870">
        <ele>2165.9</ele>
        <time>2020-11-11T18:10:03Z</time>
      </trkpt>
      <trkpt lat="28.3062150" lon="-16.5173870">
        <ele>2165.9</ele>
        <time>2020-11-11T18:10:04Z</time>
      </trkpt>
      <trkpt lat="28.3062580" lon="-16.5173750">
        <ele>2165.9</ele>
        <time>2020-11-11T18:10:05Z</time>
      </trkpt>
      <trkpt lat="28.3062580" lon="-16.5173750">
        <ele>2165.9</ele>
        <time>2020-11-11T18:10:06Z</time>
      </trkpt>
      <trkpt lat="28.3063000" lon="-16.5173620">
        <ele>2165.9</ele>
        <time>2020-11-11T18:10:07Z</time>
      </trkpt>
      <trkpt lat="28.3063000" lon="-16.5173620">
        <ele>2165.9</ele>
        <time>2020-11-11T18:10:08Z</time>
      </trkpt>
      <trkpt lat="28.3063430" lon="-16.5173500">
        <ele>2165.9</ele>
        <time>2020-11-11T18:10:09Z</time>
      </trkpt>
      <trkpt lat="28.3063430" lon="-16.5173500">
        <ele>2165.9</ele>
        <time>2020-11-11T18:10:10Z</time>
      </trkpt>
      <trkpt lat="28.3063880" lon="-16.5173430">
        <ele>2166.9</ele>
        <time>2020-11-11T18:10:11Z</time>
      </trkpt>
      <trkpt lat="28.3064120" lon="-16.5173470">
        <ele>2166.9</ele>
        <time>2020-11-11T18:10:12Z</time>
      </trkpt>
      <trkpt lat="28.3064370" lon="-16.5173480">
        <ele>2166.9</ele>
        <time>2020-11-11T18:10:13Z</time>
      </trkpt>
      <trkpt lat="28.3064370" lon="-16.5173480">
        <ele>2166.9</ele>
        <time>2020-11-11T18:10:14Z</time>
      </trkpt>
      <trkpt lat="28.3064850" lon="-16.5173520">
        <ele>2167.9</ele>
        <time>2020-11-11T18:10:15Z</time>
      </trkpt>
      <trkpt lat="28.3064850" lon="-16.5173520">
        <ele>2167.9</ele>
        <time>2020-11-11T18:10:16Z</time>
      </trkpt>
      <trkpt lat="28.3065280" lon="-16.5173630">
        <ele>2167.9</ele>
        <time>2020-11-11T18:10:17Z</time>
      </trkpt>
      <trkpt lat="28.3065280" lon="-16.5173630">
        <ele>2167.9</ele>
        <time>2020-11-11T18:10:18Z</time>
      </trkpt>
      <trkpt lat="28.3065720" lon="-16.5173850">
        <ele>2167.9</ele>
        <time>2020-11-11T18:10:19Z</time>
      </trkpt>
      <trkpt lat="28.3065720" lon="-16.5173850">
        <ele>2167.9</ele>
        <time>2020-11-11T18:10:20Z</time>
      </trkpt>
      <trkpt lat="28.3066170" lon="-16.5174030">
        <ele>2167.9</ele>
        <time>2020-11-11T18:10:21Z</time>
      </trkpt>
      <trkpt lat="28.3066350" lon="-16.5174150">
        <ele>2167.9</ele>
        <time>2020-11-11T18:10:22Z</time>
      </trkpt>
      <trkpt lat="28.3066350" lon="-16.5174150">
        <ele>2167.9</ele>
        <time>2020-11-11T18:10:23Z</time>
      </trkpt>
      <trkpt lat="28.3066720" lon="-16.5174420">
        <ele>2168.9</ele>
        <time>2020-11-11T18:10:24Z</time>
      </trkpt>
      <trkpt lat="28.3066720" lon="-16.5174420">
        <ele>2168.9</ele>
        <time>2020-11-11T18:10:25Z</time>
      </trkpt>
      <trkpt lat="28.3067100" lon="-16.5174650">
        <ele>2168.9</ele>
        <time>2020-11-11T18:10:26Z</time>
      </trkpt>
      <trkpt lat="28.3067100" lon="-16.5174650">
        <ele>2168.9</ele>
        <time>2020-11-11T18:10:27Z</time>
      </trkpt>
      <trkpt lat="28.3067630" lon="-16.5174780">
        <ele>2168.9</ele>
        <time>2020-11-11T18:10:28Z</time>
      </trkpt>
      <trkpt lat="28.3067630" lon="-16.5174780">
        <ele>2168.9</ele>
        <time>2020-11-11T18:10:29Z</time>
      </trkpt>
      <trkpt lat="28.3068080" lon="-16.5174770">
        <ele>2168.9</ele>
        <time>2020-11-11T18:10:30Z</time>
      </trkpt>
      <trkpt lat="28.3068080" lon="-16.5174770">
        <ele>2168.9</ele>
        <time>2020-11-11T18:10:31Z</time>
      </trkpt>
      <trkpt lat="28.3068550" lon="-16.5174700">
        <ele>2168.9</ele>
        <time>2020-11-11T18:10:32Z</time>
      </trkpt>
      <trkpt lat="28.3068550" lon="-16.5174700">
        <ele>2168.9</ele>
        <time>2020-11-11T18:10:33Z</time>
      </trkpt>
      <trkpt lat="28.3068950" lon="-16.5174630">
        <ele>2169.9</ele>
        <time>2020-11-11T18:10:34Z</time>
      </trkpt>
      <trkpt lat="28.3069170" lon="-16.5174600">
        <ele>2169.9</ele>
        <time>2020-11-11T18:10:35Z</time>
      </trkpt>
      <trkpt lat="28.3069170" lon="-16.5174600">
        <ele>2169.9</ele>
        <time>2020-11-11T18:10:36Z</time>
      </trkpt>
      <trkpt lat="28.3069630" lon="-16.5174550">
        <ele>2169.9</ele>
        <time>2020-11-11T18:10:37Z</time>
      </trkpt>
      <trkpt lat="28.3069630" lon="-16.5174550">
        <ele>2169.9</ele>
        <time>2020-11-11T18:10:38Z</time>
      </trkpt>
      <trkpt lat="28.3070120" lon="-16.5174520">
        <ele>2169.9</ele>
        <time>2020-11-11T18:10:39Z</time>
      </trkpt>
      <trkpt lat="28.3070120" lon="-16.5174520">
        <ele>2170.9</ele>
        <time>2020-11-11T18:10:40Z</time>
      </trkpt>
      <trkpt lat="28.3070580" lon="-16.5174530">
        <ele>2170.9</ele>
        <time>2020-11-11T18:10:41Z</time>
      </trkpt>
      <trkpt lat="28.3070580" lon="-16.5174530">
        <ele>2170.9</ele>
        <time>2020-11-11T18:10:42Z</time>
      </trkpt>
      <trkpt lat="28.3071100" lon="-16.5174500">
        <ele>2170.9</ele>
        <time>2020-11-11T18:10:43Z</time>
      </trkpt>
      <trkpt lat="28.3071100" lon="-16.5174500">
        <ele>2170.9</ele>
        <time>2020-11-11T18:10:44Z</time>
      </trkpt>
      <trkpt lat="28.3071570" lon="-16.5174450">
        <ele>2170.9</ele>
        <time>2020-11-11T18:10:45Z</time>
      </trkpt>
      <trkpt lat="28.3071570" lon="-16.5174450">
        <ele>2170.9</ele>
        <time>2020-11-11T18:10:46Z</time>
      </trkpt>
      <trkpt lat="28.3072020" lon="-16.5174380">
        <ele>2170.9</ele>
        <time>2020-11-11T18:10:47Z</time>
      </trkpt>
      <trkpt lat="28.3072020" lon="-16.5174380">
        <ele>2170.9</ele>
        <time>2020-11-11T18:10:48Z</time>
      </trkpt>
      <trkpt lat="28.3072480" lon="-16.5174320">
        <ele>2170.9</ele>
        <time>2020-11-11T18:10:49Z</time>
      </trkpt>
      <trkpt lat="28.3072480" lon="-16.5174320">
        <ele>2170.9</ele>
        <time>2020-11-11T18:10:50Z</time>
      </trkpt>
      <trkpt lat="28.3072920" lon="-16.5174280">
        <ele>2170.9</ele>
        <time>2020-11-11T18:10:51Z</time>
      </trkpt>
      <trkpt lat="28.3073150" lon="-16.5174270">
        <ele>2170.9</ele>
        <time>2020-11-11T18:10:52Z</time>
      </trkpt>
      <trkpt lat="28.3073150" lon="-16.5174270">
        <ele>2170.9</ele>
        <time>2020-11-11T18:10:53Z</time>
      </trkpt>
      <trkpt lat="28.3073650" lon="-16.5174300">
        <ele>2171.9</ele>
        <time>2020-11-11T18:10:54Z</time>
      </trkpt>
      <trkpt lat="28.3073850" lon="-16.5174300">
        <ele>2171.9</ele>
        <time>2020-11-11T18:10:55Z</time>
      </trkpt>
      <trkpt lat="28.3073850" lon="-16.5174300">
        <ele>2171.9</ele>
        <time>2020-11-11T18:10:56Z</time>
      </trkpt>
      <trkpt lat="28.3074230" lon="-16.5174330">
        <ele>2171.9</ele>
        <time>2020-11-11T18:10:57Z</time>
      </trkpt>
      <trkpt lat="28.3074430" lon="-16.5174420">
        <ele>2171.9</ele>
        <time>2020-11-11T18:10:58Z</time>
      </trkpt>
      <trkpt lat="28.3074430" lon="-16.5174420">
        <ele>2171.9</ele>
        <time>2020-11-11T18:10:59Z</time>
      </trkpt>
      <trkpt lat="28.3074920" lon="-16.5174580">
        <ele>2172.9</ele>
        <time>2020-11-11T18:11:00Z</time>
      </trkpt>
      <trkpt lat="28.3074920" lon="-16.5174580">
        <ele>2172.9</ele>
        <time>2020-11-11T18:11:01Z</time>
      </trkpt>
      <trkpt lat="28.3075420" lon="-16.5174720">
        <ele>2172.9</ele>
        <time>2020-11-11T18:11:02Z</time>
      </trkpt>
      <trkpt lat="28.3075420" lon="-16.5174720">
        <ele>2172.9</ele>
        <time>2020-11-11T18:11:03Z</time>
      </trkpt>
      <trkpt lat="28.3075800" lon="-16.5174930">
        <ele>2172.9</ele>
        <time>2020-11-11T18:11:04Z</time>
      </trkpt>
      <trkpt lat="28.3075800" lon="-16.5174930">
        <ele>2172.9</ele>
        <time>2020-11-11T18:11:05Z</time>
      </trkpt>
      <trkpt lat="28.3076130" lon="-16.5175280">
        <ele>2173.9</ele>
        <time>2020-11-11T18:11:06Z</time>
      </trkpt>
      <trkpt lat="28.3076300" lon="-16.5175450">
        <ele>2173.9</ele>
        <time>2020-11-11T18:11:07Z</time>
      </trkpt>
      <trkpt lat="28.3076300" lon="-16.5175450">
        <ele>2173.9</ele>
        <time>2020-11-11T18:11:08Z</time>
      </trkpt>
      <trkpt lat="28.3076570" lon="-16.5175830">
        <ele>2173.9</ele>
        <time>2020-11-11T18:11:09Z</time>
      </trkpt>
      <trkpt lat="28.3076570" lon="-16.5175830">
        <ele>2173.9</ele>
        <time>2020-11-11T18:11:10Z</time>
      </trkpt>
      <trkpt lat="28.3076770" lon="-16.5176230">
        <ele>2173.9</ele>
        <time>2020-11-11T18:11:11Z</time>
      </trkpt>
      <trkpt lat="28.3076870" lon="-16.5176450">
        <ele>2173.9</ele>
        <time>2020-11-11T18:11:12Z</time>
      </trkpt>
      <trkpt lat="28.3076950" lon="-16.5176670">
        <ele>2173.9</ele>
        <time>2020-11-11T18:11:13Z</time>
      </trkpt>
      <trkpt lat="28.3076950" lon="-16.5176670">
        <ele>2173.9</ele>
        <time>2020-11-11T18:11:14Z</time>
      </trkpt>
      <trkpt lat="28.3077030" lon="-16.5177080">
        <ele>2173.9</ele>
        <time>2020-11-11T18:11:15Z</time>
      </trkpt>
      <trkpt lat="28.3077030" lon="-16.5177080">
        <ele>2174.9</ele>
        <time>2020-11-11T18:11:16Z</time>
      </trkpt>
      <trkpt lat="28.3077080" lon="-16.5177530">
        <ele>2174.9</ele>
        <time>2020-11-11T18:11:17Z</time>
      </trkpt>
      <trkpt lat="28.3077080" lon="-16.5177530">
        <ele>2174.9</ele>
        <time>2020-11-11T18:11:18Z</time>
      </trkpt>
      <trkpt lat="28.3077180" lon="-16.5177980">
        <ele>2174.9</ele>
        <time>2020-11-11T18:11:19Z</time>
      </trkpt>
      <trkpt lat="28.3077180" lon="-16.5177980">
        <ele>2174.9</ele>
        <time>2020-11-11T18:11:20Z</time>
      </trkpt>
      <trkpt lat="28.3077220" lon="-16.5178480">
        <ele>2174.9</ele>
        <time>2020-11-11T18:11:21Z</time>
      </trkpt>
      <trkpt lat="28.3077230" lon="-16.5178770">
        <ele>2174.9</ele>
        <time>2020-11-11T18:11:22Z</time>
      </trkpt>
      <trkpt lat="28.3077230" lon="-16.5178770">
        <ele>2174.9</ele>
        <time>2020-11-11T18:11:23Z</time>
      </trkpt>
      <trkpt lat="28.3077250" lon="-16.5179300">
        <ele>2174.9</ele>
        <time>2020-11-11T18:11:24Z</time>
      </trkpt>
      <trkpt lat="28.3077280" lon="-16.5179530">
        <ele>2174.9</ele>
        <time>2020-11-11T18:11:25Z</time>
      </trkpt>
      <trkpt lat="28.3077280" lon="-16.5179530">
        <ele>2174.9</ele>
        <time>2020-11-11T18:11:26Z</time>
      </trkpt>
      <trkpt lat="28.3077330" lon="-16.5180020">
        <ele>2174.9</ele>
        <time>2020-11-11T18:11:27Z</time>
      </trkpt>
      <trkpt lat="28.3077330" lon="-16.5180020">
        <ele>2174.9</ele>
        <time>2020-11-11T18:11:28Z</time>
      </trkpt>
      <trkpt lat="28.3077320" lon="-16.5180500">
        <ele>2174.9</ele>
        <time>2020-11-11T18:11:29Z</time>
      </trkpt>
      <trkpt lat="28.3077300" lon="-16.5180730">
        <ele>2174.9</ele>
        <time>2020-11-11T18:11:30Z</time>
      </trkpt>
      <trkpt lat="28.3077300" lon="-16.5180730">
        <ele>2174.9</ele>
        <time>2020-11-11T18:11:31Z</time>
      </trkpt>
      <trkpt lat="28.3077320" lon="-16.5181220">
        <ele>2175.9</ele>
        <time>2020-11-11T18:11:32Z</time>
      </trkpt>
      <trkpt lat="28.3077320" lon="-16.5181220">
        <ele>2175.9</ele>
        <time>2020-11-11T18:11:33Z</time>
      </trkpt>
      <trkpt lat="28.3077350" lon="-16.5181720">
        <ele>2175.9</ele>
        <time>2020-11-11T18:11:34Z</time>
      </trkpt>
      <trkpt lat="28.3077350" lon="-16.5181720">
        <ele>2175.9</ele>
        <time>2020-11-11T18:11:35Z</time>
      </trkpt>
      <trkpt lat="28.3077330" lon="-16.5182200">
        <ele>2175.9</ele>
        <time>2020-11-11T18:11:36Z</time>
      </trkpt>
      <trkpt lat="28.3077330" lon="-16.5182450">
        <ele>2175.9</ele>
        <time>2020-11-11T18:11:37Z</time>
      </trkpt>
      <trkpt lat="28.3077330" lon="-16.5182450">
        <ele>2175.9</ele>
        <time>2020-11-11T18:11:38Z</time>
      </trkpt>
      <trkpt lat="28.3077320" lon="-16.5182930">
        <ele>2175.9</ele>
        <time>2020-11-11T18:11:39Z</time>
      </trkpt>
      <trkpt lat="28.3077320" lon="-16.5182930">
        <ele>2175.9</ele>
        <time>2020-11-11T18:11:40Z</time>
      </trkpt>
      <trkpt lat="28.3077280" lon="-16.5183380">
        <ele>2177.9</ele>
        <time>2020-11-11T18:11:41Z</time>
      </trkpt>
      <trkpt lat="28.3077280" lon="-16.5183380">
        <ele>2177.9</ele>
        <time>2020-11-11T18:11:42Z</time>
      </trkpt>
      <trkpt lat="28.3077220" lon="-16.5183820">
        <ele>2177.9</ele>
        <time>2020-11-11T18:11:43Z</time>
      </trkpt>
      <trkpt lat="28.3077220" lon="-16.5183820">
        <ele>2177.9</ele>
        <time>2020-11-11T18:11:44Z</time>
      </trkpt>
      <trkpt lat="28.3077080" lon="-16.5184280">
        <ele>2177.9</ele>
        <time>2020-11-11T18:11:45Z</time>
      </trkpt>
      <trkpt lat="28.3077050" lon="-16.5184550">
        <ele>2177.9</ele>
        <time>2020-11-11T18:11:46Z</time>
      </trkpt>
      <trkpt lat="28.3077050" lon="-16.5184550">
        <ele>2177.9</ele>
        <time>2020-11-11T18:11:47Z</time>
      </trkpt>
      <trkpt lat="28.3076970" lon="-16.5185050">
        <ele>2177.9</ele>
        <time>2020-11-11T18:11:48Z</time>
      </trkpt>
      <trkpt lat="28.3076970" lon="-16.5185050">
        <ele>2177.9</ele>
        <time>2020-11-11T18:11:49Z</time>
      </trkpt>
      <trkpt lat="28.3076870" lon="-16.5185530">
        <ele>2177.9</ele>
        <time>2020-11-11T18:11:50Z</time>
      </trkpt>
      <trkpt lat="28.3076870" lon="-16.5185530">
        <ele>2177.9</ele>
        <time>2020-11-11T18:11:51Z</time>
      </trkpt>
      <trkpt lat="28.3076800" lon="-16.5186000">
        <ele>2177.9</ele>
        <time>2020-11-11T18:11:52Z</time>
      </trkpt>
      <trkpt lat="28.3076800" lon="-16.5186000">
        <ele>2177.9</ele>
        <time>2020-11-11T18:11:53Z</time>
      </trkpt>
      <trkpt lat="28.3076720" lon="-16.5186480">
        <ele>2177.9</ele>
        <time>2020-11-11T18:11:54Z</time>
      </trkpt>
      <trkpt lat="28.3076720" lon="-16.5186480">
        <ele>2177.9</ele>
        <time>2020-11-11T18:11:55Z</time>
      </trkpt>
      <trkpt lat="28.3076630" lon="-16.5186950">
        <ele>2177.9</ele>
        <time>2020-11-11T18:11:56Z</time>
      </trkpt>
      <trkpt lat="28.3076630" lon="-16.5186950">
        <ele>2177.9</ele>
        <time>2020-11-11T18:11:57Z</time>
      </trkpt>
      <trkpt lat="28.3076580" lon="-16.5187430">
        <ele>2177.9</ele>
        <time>2020-11-11T18:11:58Z</time>
      </trkpt>
      <trkpt lat="28.3076580" lon="-16.5187430">
        <ele>2177.9</ele>
        <time>2020-11-11T18:11:59Z</time>
      </trkpt>
      <trkpt lat="28.3076430" lon="-16.5187900">
        <ele>2177.9</ele>
        <time>2020-11-11T18:12:00Z</time>
      </trkpt>
      <trkpt lat="28.3076400" lon="-16.5188100">
        <ele>2178.9</ele>
        <time>2020-11-11T18:12:01Z</time>
      </trkpt>
      <trkpt lat="28.3076400" lon="-16.5188100">
        <ele>2178.9</ele>
        <time>2020-11-11T18:12:02Z</time>
      </trkpt>
      <trkpt lat="28.3076270" lon="-16.5188470">
        <ele>2178.9</ele>
        <time>2020-11-11T18:12:03Z</time>
      </trkpt>
      <trkpt lat="28.3076270" lon="-16.5188470">
        <ele>2178.9</ele>
        <time>2020-11-11T18:12:04Z</time>
      </trkpt>
      <trkpt lat="28.3076080" lon="-16.5188870">
        <ele>2178.9</ele>
        <time>2020-11-11T18:12:05Z</time>
      </trkpt>
      <trkpt lat="28.3076080" lon="-16.5188870">
        <ele>2178.9</ele>
        <time>2020-11-11T18:12:06Z</time>
      </trkpt>
      <trkpt lat="28.3075920" lon="-16.5189320">
        <ele>2178.9</ele>
        <time>2020-11-11T18:12:07Z</time>
      </trkpt>
      <trkpt lat="28.3075920" lon="-16.5189320">
        <ele>2178.9</ele>
        <time>2020-11-11T18:12:08Z</time>
      </trkpt>
      <trkpt lat="28.3075750" lon="-16.5189750">
        <ele>2178.9</ele>
        <time>2020-11-11T18:12:09Z</time>
      </trkpt>
      <trkpt lat="28.3075750" lon="-16.5189750">
        <ele>2178.9</ele>
        <time>2020-11-11T18:12:10Z</time>
      </trkpt>
      <trkpt lat="28.3075550" lon="-16.5190150">
        <ele>2178.9</ele>
        <time>2020-11-11T18:12:11Z</time>
      </trkpt>
      <trkpt lat="28.3075450" lon="-16.5190350">
        <ele>2178.9</ele>
        <time>2020-11-11T18:12:12Z</time>
      </trkpt>
      <trkpt lat="28.3075350" lon="-16.5190530">
        <ele>2179.9</ele>
        <time>2020-11-11T18:12:13Z</time>
      </trkpt>
      <trkpt lat="28.3075350" lon="-16.5190530">
        <ele>2179.9</ele>
        <time>2020-11-11T18:12:14Z</time>
      </trkpt>
      <trkpt lat="28.3075100" lon="-16.5190930">
        <ele>2179.9</ele>
        <time>2020-11-11T18:12:15Z</time>
      </trkpt>
      <trkpt lat="28.3075100" lon="-16.5190930">
        <ele>2179.9</ele>
        <time>2020-11-11T18:12:16Z</time>
      </trkpt>
      <trkpt lat="28.3074780" lon="-16.5191380">
        <ele>2179.9</ele>
        <time>2020-11-11T18:12:17Z</time>
      </trkpt>
      <trkpt lat="28.3074670" lon="-16.5191580">
        <ele>2179.9</ele>
        <time>2020-11-11T18:12:18Z</time>
      </trkpt>
      <trkpt lat="28.3074550" lon="-16.5191770">
        <ele>2179.9</ele>
        <time>2020-11-11T18:12:19Z</time>
      </trkpt>
      <trkpt lat="28.3074550" lon="-16.5191770">
        <ele>2179.9</ele>
        <time>2020-11-11T18:12:20Z</time>
      </trkpt>
      <trkpt lat="28.3074320" lon="-16.5192100">
        <ele>2179.9</ele>
        <time>2020-11-11T18:12:21Z</time>
      </trkpt>
      <trkpt lat="28.3074320" lon="-16.5192100">
        <ele>2180.9</ele>
        <time>2020-11-11T18:12:22Z</time>
      </trkpt>
      <trkpt lat="28.3074120" lon="-16.5192470">
        <ele>2180.9</ele>
        <time>2020-11-11T18:12:23Z</time>
      </trkpt>
      <trkpt lat="28.3074120" lon="-16.5192470">
        <ele>2180.9</ele>
        <time>2020-11-11T18:12:24Z</time>
      </trkpt>
      <trkpt lat="28.3073880" lon="-16.5192820">
        <ele>2180.9</ele>
        <time>2020-11-11T18:12:25Z</time>
      </trkpt>
      <trkpt lat="28.3073880" lon="-16.5192820">
        <ele>2180.9</ele>
        <time>2020-11-11T18:12:26Z</time>
      </trkpt>
      <trkpt lat="28.3073570" lon="-16.5193200">
        <ele>2180.9</ele>
        <time>2020-11-11T18:12:27Z</time>
      </trkpt>
      <trkpt lat="28.3073570" lon="-16.5193200">
        <ele>2180.9</ele>
        <time>2020-11-11T18:12:28Z</time>
      </trkpt>
      <trkpt lat="28.3073270" lon="-16.5193650">
        <ele>2180.9</ele>
        <time>2020-11-11T18:12:29Z</time>
      </trkpt>
      <trkpt lat="28.3073270" lon="-16.5193650">
        <ele>2181.9</ele>
        <time>2020-11-11T18:12:30Z</time>
      </trkpt>
      <trkpt lat="28.3073070" lon="-16.5194070">
        <ele>2181.9</ele>
        <time>2020-11-11T18:12:31Z</time>
      </trkpt>
      <trkpt lat="28.3073070" lon="-16.5194070">
        <ele>2181.9</ele>
        <time>2020-11-11T18:12:32Z</time>
      </trkpt>
      <trkpt lat="28.3072830" lon="-16.5194450">
        <ele>2181.9</ele>
        <time>2020-11-11T18:12:33Z</time>
      </trkpt>
      <trkpt lat="28.3072720" lon="-16.5194650">
        <ele>2181.9</ele>
        <time>2020-11-11T18:12:34Z</time>
      </trkpt>
      <trkpt lat="28.3072720" lon="-16.5194650">
        <ele>2181.9</ele>
        <time>2020-11-11T18:12:35Z</time>
      </trkpt>
      <trkpt lat="28.3072480" lon="-16.5195030">
        <ele>2181.9</ele>
        <time>2020-11-11T18:12:36Z</time>
      </trkpt>
      <trkpt lat="28.3072370" lon="-16.5195230">
        <ele>2181.9</ele>
        <time>2020-11-11T18:12:37Z</time>
      </trkpt>
      <trkpt lat="28.3072370" lon="-16.5195230">
        <ele>2182.9</ele>
        <time>2020-11-11T18:12:38Z</time>
      </trkpt>
      <trkpt lat="28.3072070" lon="-16.5195630">
        <ele>2182.9</ele>
        <time>2020-11-11T18:12:39Z</time>
      </trkpt>
      <trkpt lat="28.3072070" lon="-16.5195630">
        <ele>2182.9</ele>
        <time>2020-11-11T18:12:40Z</time>
      </trkpt>
      <trkpt lat="28.3071770" lon="-16.5195970">
        <ele>2182.9</ele>
        <time>2020-11-11T18:12:41Z</time>
      </trkpt>
      <trkpt lat="28.3071770" lon="-16.5195970">
        <ele>2182.9</ele>
        <time>2020-11-11T18:12:42Z</time>
      </trkpt>
      <trkpt lat="28.3071500" lon="-16.5196350">
        <ele>2182.9</ele>
        <time>2020-11-11T18:12:43Z</time>
      </trkpt>
      <trkpt lat="28.3071500" lon="-16.5196350">
        <ele>2182.9</ele>
        <time>2020-11-11T18:12:44Z</time>
      </trkpt>
      <trkpt lat="28.3071220" lon="-16.5196700">
        <ele>2182.9</ele>
        <time>2020-11-11T18:12:45Z</time>
      </trkpt>
      <trkpt lat="28.3071220" lon="-16.5196700">
        <ele>2182.9</ele>
        <time>2020-11-11T18:12:46Z</time>
      </trkpt>
      <trkpt lat="28.3070900" lon="-16.5197020">
        <ele>2183.9</ele>
        <time>2020-11-11T18:12:47Z</time>
      </trkpt>
      <trkpt lat="28.3070900" lon="-16.5197020">
        <ele>2183.9</ele>
        <time>2020-11-11T18:12:48Z</time>
      </trkpt>
      <trkpt lat="28.3070650" lon="-16.5197330">
        <ele>2183.9</ele>
        <time>2020-11-11T18:12:49Z</time>
      </trkpt>
      <trkpt lat="28.3070650" lon="-16.5197330">
        <ele>2183.9</ele>
        <time>2020-11-11T18:12:50Z</time>
      </trkpt>
      <trkpt lat="28.3070400" lon="-16.5197680">
        <ele>2183.9</ele>
        <time>2020-11-11T18:12:51Z</time>
      </trkpt>
      <trkpt lat="28.3070400" lon="-16.5197680">
        <ele>2184.9</ele>
        <time>2020-11-11T18:12:52Z</time>
      </trkpt>
      <trkpt lat="28.3070120" lon="-16.5198030">
        <ele>2184.9</ele>
        <time>2020-11-11T18:12:53Z</time>
      </trkpt>
      <trkpt lat="28.3070120" lon="-16.5198030">
        <ele>2184.9</ele>
        <time>2020-11-11T18:12:54Z</time>
      </trkpt>
      <trkpt lat="28.3069800" lon="-16.5198380">
        <ele>2184.9</ele>
        <time>2020-11-11T18:12:55Z</time>
      </trkpt>
      <trkpt lat="28.3069800" lon="-16.5198380">
        <ele>2184.9</ele>
        <time>2020-11-11T18:12:56Z</time>
      </trkpt>
      <trkpt lat="28.3069500" lon="-16.5198750">
        <ele>2184.9</ele>
        <time>2020-11-11T18:12:57Z</time>
      </trkpt>
      <trkpt lat="28.3069500" lon="-16.5198750">
        <ele>2184.9</ele>
        <time>2020-11-11T18:12:58Z</time>
      </trkpt>
      <trkpt lat="28.3069220" lon="-16.5199080">
        <ele>2184.9</ele>
        <time>2020-11-11T18:12:59Z</time>
      </trkpt>
      <trkpt lat="28.3069220" lon="-16.5199080">
        <ele>2184.9</ele>
        <time>2020-11-11T18:13:00Z</time>
      </trkpt>
      <trkpt lat="28.3068870" lon="-16.5199470">
        <ele>2184.9</ele>
        <time>2020-11-11T18:13:01Z</time>
      </trkpt>
      <trkpt lat="28.3068870" lon="-16.5199470">
        <ele>2184.9</ele>
        <time>2020-11-11T18:13:02Z</time>
      </trkpt>
      <trkpt lat="28.3068500" lon="-16.5199980">
        <ele>2184.9</ele>
        <time>2020-11-11T18:13:03Z</time>
      </trkpt>
      <trkpt lat="28.3068500" lon="-16.5199980">
        <ele>2184.9</ele>
        <time>2020-11-11T18:13:04Z</time>
      </trkpt>
      <trkpt lat="28.3068150" lon="-16.5200480">
        <ele>2184.9</ele>
        <time>2020-11-11T18:13:05Z</time>
      </trkpt>
      <trkpt lat="28.3067970" lon="-16.5200720">
        <ele>2185.9</ele>
        <time>2020-11-11T18:13:06Z</time>
      </trkpt>
      <trkpt lat="28.3067970" lon="-16.5200720">
        <ele>2185.9</ele>
        <time>2020-11-11T18:13:07Z</time>
      </trkpt>
      <trkpt lat="28.3067650" lon="-16.5201170">
        <ele>2185.9</ele>
        <time>2020-11-11T18:13:08Z</time>
      </trkpt>
      <trkpt lat="28.3067650" lon="-16.5201170">
        <ele>2185.9</ele>
        <time>2020-11-11T18:13:09Z</time>
      </trkpt>
      <trkpt lat="28.3067370" lon="-16.5201600">
        <ele>2185.9</ele>
        <time>2020-11-11T18:13:10Z</time>
      </trkpt>
      <trkpt lat="28.3067370" lon="-16.5201600">
        <ele>2185.9</ele>
        <time>2020-11-11T18:13:11Z</time>
      </trkpt>
      <trkpt lat="28.3067100" lon="-16.5202030">
        <ele>2186.9</ele>
        <time>2020-11-11T18:13:12Z</time>
      </trkpt>
      <trkpt lat="28.3066970" lon="-16.5202230">
        <ele>2186.9</ele>
        <time>2020-11-11T18:13:13Z</time>
      </trkpt>
      <trkpt lat="28.3066970" lon="-16.5202230">
        <ele>2186.9</ele>
        <time>2020-11-11T18:13:14Z</time>
      </trkpt>
      <trkpt lat="28.3066650" lon="-16.5202650">
        <ele>2186.9</ele>
        <time>2020-11-11T18:13:15Z</time>
      </trkpt>
      <trkpt lat="28.3066480" lon="-16.5202850">
        <ele>2187.9</ele>
        <time>2020-11-11T18:13:16Z</time>
      </trkpt>
      <trkpt lat="28.3066480" lon="-16.5202850">
        <ele>2187.9</ele>
        <time>2020-11-11T18:13:17Z</time>
      </trkpt>
      <trkpt lat="28.3066150" lon="-16.5203170">
        <ele>2187.9</ele>
        <time>2020-11-11T18:13:18Z</time>
      </trkpt>
      <trkpt lat="28.3066150" lon="-16.5203170">
        <ele>2187.9</ele>
        <time>2020-11-11T18:13:19Z</time>
      </trkpt>
      <trkpt lat="28.3065770" lon="-16.5203520">
        <ele>2187.9</ele>
        <time>2020-11-11T18:13:20Z</time>
      </trkpt>
      <trkpt lat="28.3065770" lon="-16.5203520">
        <ele>2187.9</ele>
        <time>2020-11-11T18:13:21Z</time>
      </trkpt>
      <trkpt lat="28.3065400" lon="-16.5203930">
        <ele>2188.9</ele>
        <time>2020-11-11T18:13:22Z</time>
      </trkpt>
      <trkpt lat="28.3065400" lon="-16.5203930">
        <ele>2188.9</ele>
        <time>2020-11-11T18:13:23Z</time>
      </trkpt>
      <trkpt lat="28.3065080" lon="-16.5204280">
        <ele>2188.9</ele>
        <time>2020-11-11T18:13:24Z</time>
      </trkpt>
      <trkpt lat="28.3064930" lon="-16.5204450">
        <ele>2188.9</ele>
        <time>2020-11-11T18:13:25Z</time>
      </trkpt>
      <trkpt lat="28.3064930" lon="-16.5204450">
        <ele>2188.9</ele>
        <time>2020-11-11T18:13:26Z</time>
      </trkpt>
      <trkpt lat="28.3064630" lon="-16.5204770">
        <ele>2188.9</ele>
        <time>2020-11-11T18:13:27Z</time>
      </trkpt>
      <trkpt lat="28.3064630" lon="-16.5204770">
        <ele>2188.9</ele>
        <time>2020-11-11T18:13:28Z</time>
      </trkpt>
      <trkpt lat="28.3064320" lon="-16.5205080">
        <ele>2188.9</ele>
        <time>2020-11-11T18:13:29Z</time>
      </trkpt>
      <trkpt lat="28.3064320" lon="-16.5205080">
        <ele>2189.9</ele>
        <time>2020-11-11T18:13:30Z</time>
      </trkpt>
      <trkpt lat="28.3064000" lon="-16.5205380">
        <ele>2189.9</ele>
        <time>2020-11-11T18:13:31Z</time>
      </trkpt>
      <trkpt lat="28.3064000" lon="-16.5205380">
        <ele>2189.9</ele>
        <time>2020-11-11T18:13:32Z</time>
      </trkpt>
      <trkpt lat="28.3063730" lon="-16.5205700">
        <ele>2189.9</ele>
        <time>2020-11-11T18:13:33Z</time>
      </trkpt>
      <trkpt lat="28.3063730" lon="-16.5205700">
        <ele>2189.9</ele>
        <time>2020-11-11T18:13:34Z</time>
      </trkpt>
      <trkpt lat="28.3063420" lon="-16.5206050">
        <ele>2189.9</ele>
        <time>2020-11-11T18:13:35Z</time>
      </trkpt>
      <trkpt lat="28.3063420" lon="-16.5206050">
        <ele>2189.9</ele>
        <time>2020-11-11T18:13:36Z</time>
      </trkpt>
      <trkpt lat="28.3063070" lon="-16.5206320">
        <ele>2190.9</ele>
        <time>2020-11-11T18:13:37Z</time>
      </trkpt>
      <trkpt lat="28.3063070" lon="-16.5206320">
        <ele>2190.9</ele>
        <time>2020-11-11T18:13:38Z</time>
      </trkpt>
      <trkpt lat="28.3062750" lon="-16.5206600">
        <ele>2190.9</ele>
        <time>2020-11-11T18:13:39Z</time>
      </trkpt>
      <trkpt lat="28.3062750" lon="-16.5206600">
        <ele>2190.9</ele>
        <time>2020-11-11T18:13:40Z</time>
      </trkpt>
      <trkpt lat="28.3062370" lon="-16.5206920">
        <ele>2190.9</ele>
        <time>2020-11-11T18:13:41Z</time>
      </trkpt>
      <trkpt lat="28.3062370" lon="-16.5206920">
        <ele>2190.9</ele>
        <time>2020-11-11T18:13:42Z</time>
      </trkpt>
      <trkpt lat="28.3062030" lon="-16.5207220">
        <ele>2190.9</ele>
        <time>2020-11-11T18:13:43Z</time>
      </trkpt>
      <trkpt lat="28.3062030" lon="-16.5207220">
        <ele>2190.9</ele>
        <time>2020-11-11T18:13:44Z</time>
      </trkpt>
      <trkpt lat="28.3061730" lon="-16.5207570">
        <ele>2190.9</ele>
        <time>2020-11-11T18:13:45Z</time>
      </trkpt>
      <trkpt lat="28.3061730" lon="-16.5207570">
        <ele>2190.9</ele>
        <time>2020-11-11T18:13:46Z</time>
      </trkpt>
      <trkpt lat="28.3061370" lon="-16.5207920">
        <ele>2190.9</ele>
        <time>2020-11-11T18:13:47Z</time>
      </trkpt>
      <trkpt lat="28.3061370" lon="-16.5207920">
        <ele>2190.9</ele>
        <time>2020-11-11T18:13:48Z</time>
      </trkpt>
      <trkpt lat="28.3061050" lon="-16.5208200">
        <ele>2190.9</ele>
        <time>2020-11-11T18:13:49Z</time>
      </trkpt>
      <trkpt lat="28.3061050" lon="-16.5208200">
        <ele>2190.9</ele>
        <time>2020-11-11T18:13:50Z</time>
      </trkpt>
      <trkpt lat="28.3060770" lon="-16.5208480">
        <ele>2191.9</ele>
        <time>2020-11-11T18:13:51Z</time>
      </trkpt>
      <trkpt lat="28.3060770" lon="-16.5208480">
        <ele>2191.9</ele>
        <time>2020-11-11T18:13:52Z</time>
      </trkpt>
      <trkpt lat="28.3060450" lon="-16.5208750">
        <ele>2191.9</ele>
        <time>2020-11-11T18:13:53Z</time>
      </trkpt>
      <trkpt lat="28.3060450" lon="-16.5208750">
        <ele>2191.9</ele>
        <time>2020-11-11T18:13:54Z</time>
      </trkpt>
      <trkpt lat="28.3060100" lon="-16.5208930">
        <ele>2192.9</ele>
        <time>2020-11-11T18:13:55Z</time>
      </trkpt>
      <trkpt lat="28.3060100" lon="-16.5208930">
        <ele>2192.9</ele>
        <time>2020-11-11T18:13:56Z</time>
      </trkpt>
      <trkpt lat="28.3059770" lon="-16.5209130">
        <ele>2192.9</ele>
        <time>2020-11-11T18:13:57Z</time>
      </trkpt>
      <trkpt lat="28.3059770" lon="-16.5209130">
        <ele>2192.9</ele>
        <time>2020-11-11T18:13:58Z</time>
      </trkpt>
      <trkpt lat="28.3059370" lon="-16.5209430">
        <ele>2192.9</ele>
        <time>2020-11-11T18:13:59Z</time>
      </trkpt>
      <trkpt lat="28.3059370" lon="-16.5209430">
        <ele>2192.9</ele>
        <time>2020-11-11T18:14:00Z</time>
      </trkpt>
      <trkpt lat="28.3059030" lon="-16.5209680">
        <ele>2192.9</ele>
        <time>2020-11-11T18:14:01Z</time>
      </trkpt>
      <trkpt lat="28.3059030" lon="-16.5209680">
        <ele>2192.9</ele>
        <time>2020-11-11T18:14:02Z</time>
      </trkpt>
      <trkpt lat="28.3058750" lon="-16.5209970">
        <ele>2193.9</ele>
        <time>2020-11-11T18:14:03Z</time>
      </trkpt>
      <trkpt lat="28.3058750" lon="-16.5209970">
        <ele>2193.9</ele>
        <time>2020-11-11T18:14:04Z</time>
      </trkpt>
      <trkpt lat="28.3058450" lon="-16.5210220">
        <ele>2193.9</ele>
        <time>2020-11-11T18:14:05Z</time>
      </trkpt>
      <trkpt lat="28.3058450" lon="-16.5210220">
        <ele>2193.9</ele>
        <time>2020-11-11T18:14:06Z</time>
      </trkpt>
      <trkpt lat="28.3058170" lon="-16.5210450">
        <ele>2193.9</ele>
        <time>2020-11-11T18:14:07Z</time>
      </trkpt>
      <trkpt lat="28.3058170" lon="-16.5210450">
        <ele>2193.9</ele>
        <time>2020-11-11T18:14:08Z</time>
      </trkpt>
      <trkpt lat="28.3057870" lon="-16.5210730">
        <ele>2194.9</ele>
        <time>2020-11-11T18:14:09Z</time>
      </trkpt>
      <trkpt lat="28.3057870" lon="-16.5210730">
        <ele>2194.9</ele>
        <time>2020-11-11T18:14:10Z</time>
      </trkpt>
      <trkpt lat="28.3057530" lon="-16.5210970">
        <ele>2194.9</ele>
        <time>2020-11-11T18:14:11Z</time>
      </trkpt>
      <trkpt lat="28.3057530" lon="-16.5210970">
        <ele>2194.9</ele>
        <time>2020-11-11T18:14:12Z</time>
      </trkpt>
      <trkpt lat="28.3057180" lon="-16.5211150">
        <ele>2194.9</ele>
        <time>2020-11-11T18:14:13Z</time>
      </trkpt>
      <trkpt lat="28.3057180" lon="-16.5211150">
        <ele>2194.9</ele>
        <time>2020-11-11T18:14:14Z</time>
      </trkpt>
      <trkpt lat="28.3056820" lon="-16.5211350">
        <ele>2195.9</ele>
        <time>2020-11-11T18:14:15Z</time>
      </trkpt>
      <trkpt lat="28.3056820" lon="-16.5211350">
        <ele>2195.9</ele>
        <time>2020-11-11T18:14:16Z</time>
      </trkpt>
      <trkpt lat="28.3056430" lon="-16.5211520">
        <ele>2195.9</ele>
        <time>2020-11-11T18:14:17Z</time>
      </trkpt>
      <trkpt lat="28.3056430" lon="-16.5211520">
        <ele>2195.9</ele>
        <time>2020-11-11T18:14:18Z</time>
      </trkpt>
      <trkpt lat="28.3056050" lon="-16.5211680">
        <ele>2195.9</ele>
        <time>2020-11-11T18:14:19Z</time>
      </trkpt>
      <trkpt lat="28.3056050" lon="-16.5211680">
        <ele>2195.9</ele>
        <time>2020-11-11T18:14:20Z</time>
      </trkpt>
      <trkpt lat="28.3055700" lon="-16.5211880">
        <ele>2195.9</ele>
        <time>2020-11-11T18:14:21Z</time>
      </trkpt>
      <trkpt lat="28.3055700" lon="-16.5211880">
        <ele>2195.9</ele>
        <time>2020-11-11T18:14:22Z</time>
      </trkpt>
      <trkpt lat="28.3055320" lon="-16.5212000">
        <ele>2195.9</ele>
        <time>2020-11-11T18:14:23Z</time>
      </trkpt>
      <trkpt lat="28.3055320" lon="-16.5212000">
        <ele>2195.9</ele>
        <time>2020-11-11T18:14:24Z</time>
      </trkpt>
      <trkpt lat="28.3054830" lon="-16.5212180">
        <ele>2195.9</ele>
        <time>2020-11-11T18:14:25Z</time>
      </trkpt>
      <trkpt lat="28.3054830" lon="-16.5212180">
        <ele>2195.9</ele>
        <time>2020-11-11T18:14:26Z</time>
      </trkpt>
      <trkpt lat="28.3054330" lon="-16.5212380">
        <ele>2195.9</ele>
        <time>2020-11-11T18:14:27Z</time>
      </trkpt>
      <trkpt lat="28.3054330" lon="-16.5212380">
        <ele>2196.9</ele>
        <time>2020-11-11T18:14:28Z</time>
      </trkpt>
      <trkpt lat="28.3053950" lon="-16.5212580">
        <ele>2196.9</ele>
        <time>2020-11-11T18:14:29Z</time>
      </trkpt>
      <trkpt lat="28.3053950" lon="-16.5212580">
        <ele>2196.9</ele>
        <time>2020-11-11T18:14:30Z</time>
      </trkpt>
      <trkpt lat="28.3053520" lon="-16.5212780">
        <ele>2196.9</ele>
        <time>2020-11-11T18:14:31Z</time>
      </trkpt>
      <trkpt lat="28.3053520" lon="-16.5212780">
        <ele>2196.9</ele>
        <time>2020-11-11T18:14:32Z</time>
      </trkpt>
      <trkpt lat="28.3053100" lon="-16.5212950">
        <ele>2196.9</ele>
        <time>2020-11-11T18:14:33Z</time>
      </trkpt>
      <trkpt lat="28.3053100" lon="-16.5212950">
        <ele>2196.9</ele>
        <time>2020-11-11T18:14:34Z</time>
      </trkpt>
      <trkpt lat="28.3052720" lon="-16.5213130">
        <ele>2196.9</ele>
        <time>2020-11-11T18:14:35Z</time>
      </trkpt>
      <trkpt lat="28.3052520" lon="-16.5213220">
        <ele>2197.9</ele>
        <time>2020-11-11T18:14:36Z</time>
      </trkpt>
      <trkpt lat="28.3052520" lon="-16.5213220">
        <ele>2197.9</ele>
        <time>2020-11-11T18:14:37Z</time>
      </trkpt>
      <trkpt lat="28.3052120" lon="-16.5213370">
        <ele>2197.9</ele>
        <time>2020-11-11T18:14:38Z</time>
      </trkpt>
      <trkpt lat="28.3052120" lon="-16.5213370">
        <ele>2197.9</ele>
        <time>2020-11-11T18:14:39Z</time>
      </trkpt>
      <trkpt lat="28.3051700" lon="-16.5213520">
        <ele>2197.9</ele>
        <time>2020-11-11T18:14:40Z</time>
      </trkpt>
      <trkpt lat="28.3051700" lon="-16.5213520">
        <ele>2197.9</ele>
        <time>2020-11-11T18:14:41Z</time>
      </trkpt>
      <trkpt lat="28.3051300" lon="-16.5213700">
        <ele>2197.9</ele>
        <time>2020-11-11T18:14:42Z</time>
      </trkpt>
      <trkpt lat="28.3051300" lon="-16.5213700">
        <ele>2197.9</ele>
        <time>2020-11-11T18:14:43Z</time>
      </trkpt>
      <trkpt lat="28.3050920" lon="-16.5213850">
        <ele>2198.9</ele>
        <time>2020-11-11T18:14:44Z</time>
      </trkpt>
      <trkpt lat="28.3050920" lon="-16.5213850">
        <ele>2198.9</ele>
        <time>2020-11-11T18:14:45Z</time>
      </trkpt>
      <trkpt lat="28.3050480" lon="-16.5213980">
        <ele>2198.9</ele>
        <time>2020-11-11T18:14:46Z</time>
      </trkpt>
      <trkpt lat="28.3050270" lon="-16.5214050">
        <ele>2198.9</ele>
        <time>2020-11-11T18:14:47Z</time>
      </trkpt>
      <trkpt lat="28.3050270" lon="-16.5214050">
        <ele>2198.9</ele>
        <time>2020-11-11T18:14:48Z</time>
      </trkpt>
      <trkpt lat="28.3049830" lon="-16.5214170">
        <ele>2198.9</ele>
        <time>2020-11-11T18:14:49Z</time>
      </trkpt>
      <trkpt lat="28.3049830" lon="-16.5214170">
        <ele>2199.9</ele>
        <time>2020-11-11T18:14:50Z</time>
      </trkpt>
      <trkpt lat="28.3049370" lon="-16.5214220">
        <ele>2199.9</ele>
        <time>2020-11-11T18:14:51Z</time>
      </trkpt>
      <trkpt lat="28.3049370" lon="-16.5214220">
        <ele>2199.9</ele>
        <time>2020-11-11T18:14:52Z</time>
      </trkpt>
      <trkpt lat="28.3048900" lon="-16.5214320">
        <ele>2199.9</ele>
        <time>2020-11-11T18:14:53Z</time>
      </trkpt>
      <trkpt lat="28.3048900" lon="-16.5214320">
        <ele>2199.9</ele>
        <time>2020-11-11T18:14:54Z</time>
      </trkpt>
      <trkpt lat="28.3048430" lon="-16.5214470">
        <ele>2199.9</ele>
        <time>2020-11-11T18:14:55Z</time>
      </trkpt>
      <trkpt lat="28.3048430" lon="-16.5214470">
        <ele>2199.9</ele>
        <time>2020-11-11T18:14:56Z</time>
      </trkpt>
      <trkpt lat="28.3048050" lon="-16.5214620">
        <ele>2199.9</ele>
        <time>2020-11-11T18:14:57Z</time>
      </trkpt>
      <trkpt lat="28.3048050" lon="-16.5214620">
        <ele>2199.9</ele>
        <time>2020-11-11T18:14:58Z</time>
      </trkpt>
      <trkpt lat="28.3047650" lon="-16.5214730">
        <ele>2200.9</ele>
        <time>2020-11-11T18:14:59Z</time>
      </trkpt>
      <trkpt lat="28.3047650" lon="-16.5214730">
        <ele>2200.9</ele>
        <time>2020-11-11T18:15:00Z</time>
      </trkpt>
      <trkpt lat="28.3047250" lon="-16.5214880">
        <ele>2200.9</ele>
        <time>2020-11-11T18:15:01Z</time>
      </trkpt>
      <trkpt lat="28.3047250" lon="-16.5214880">
        <ele>2200.9</ele>
        <time>2020-11-11T18:15:02Z</time>
      </trkpt>
      <trkpt lat="28.3046820" lon="-16.5215050">
        <ele>2200.9</ele>
        <time>2020-11-11T18:15:03Z</time>
      </trkpt>
      <trkpt lat="28.3046820" lon="-16.5215050">
        <ele>2200.9</ele>
        <time>2020-11-11T18:15:04Z</time>
      </trkpt>
      <trkpt lat="28.3046370" lon="-16.5215150">
        <ele>2201.9</ele>
        <time>2020-11-11T18:15:05Z</time>
      </trkpt>
      <trkpt lat="28.3046370" lon="-16.5215150">
        <ele>2201.9</ele>
        <time>2020-11-11T18:15:06Z</time>
      </trkpt>
      <trkpt lat="28.3045900" lon="-16.5215330">
        <ele>2201.9</ele>
        <time>2020-11-11T18:15:07Z</time>
      </trkpt>
      <trkpt lat="28.3045900" lon="-16.5215330">
        <ele>2201.9</ele>
        <time>2020-11-11T18:15:08Z</time>
      </trkpt>
      <trkpt lat="28.3045430" lon="-16.5215500">
        <ele>2201.9</ele>
        <time>2020-11-11T18:15:09Z</time>
      </trkpt>
      <trkpt lat="28.3045430" lon="-16.5215500">
        <ele>2201.9</ele>
        <time>2020-11-11T18:15:10Z</time>
      </trkpt>
      <trkpt lat="28.3044970" lon="-16.5215570">
        <ele>2201.9</ele>
        <time>2020-11-11T18:15:11Z</time>
      </trkpt>
      <trkpt lat="28.3044970" lon="-16.5215570">
        <ele>2201.9</ele>
        <time>2020-11-11T18:15:12Z</time>
      </trkpt>
      <trkpt lat="28.3044520" lon="-16.5215670">
        <ele>2201.9</ele>
        <time>2020-11-11T18:15:13Z</time>
      </trkpt>
      <trkpt lat="28.3044520" lon="-16.5215670">
        <ele>2201.9</ele>
        <time>2020-11-11T18:15:14Z</time>
      </trkpt>
      <trkpt lat="28.3044100" lon="-16.5215750">
        <ele>2202.9</ele>
        <time>2020-11-11T18:15:15Z</time>
      </trkpt>
      <trkpt lat="28.3044100" lon="-16.5215750">
        <ele>2202.9</ele>
        <time>2020-11-11T18:15:16Z</time>
      </trkpt>
      <trkpt lat="28.3043620" lon="-16.5215870">
        <ele>2202.9</ele>
        <time>2020-11-11T18:15:17Z</time>
      </trkpt>
      <trkpt lat="28.3043620" lon="-16.5215870">
        <ele>2202.9</ele>
        <time>2020-11-11T18:15:18Z</time>
      </trkpt>
      <trkpt lat="28.3043150" lon="-16.5215880">
        <ele>2202.9</ele>
        <time>2020-11-11T18:15:19Z</time>
      </trkpt>
      <trkpt lat="28.3043150" lon="-16.5215880">
        <ele>2202.9</ele>
        <time>2020-11-11T18:15:20Z</time>
      </trkpt>
      <trkpt lat="28.3042670" lon="-16.5215880">
        <ele>2202.9</ele>
        <time>2020-11-11T18:15:21Z</time>
      </trkpt>
      <trkpt lat="28.3042670" lon="-16.5215880">
        <ele>2202.9</ele>
        <time>2020-11-11T18:15:22Z</time>
      </trkpt>
      <trkpt lat="28.3042180" lon="-16.5216000">
        <ele>2202.9</ele>
        <time>2020-11-11T18:15:23Z</time>
      </trkpt>
      <trkpt lat="28.3042180" lon="-16.5216000">
        <ele>2202.9</ele>
        <time>2020-11-11T18:15:24Z</time>
      </trkpt>
      <trkpt lat="28.3041750" lon="-16.5216130">
        <ele>2203.9</ele>
        <time>2020-11-11T18:15:25Z</time>
      </trkpt>
      <trkpt lat="28.3041750" lon="-16.5216130">
        <ele>2203.9</ele>
        <time>2020-11-11T18:15:26Z</time>
      </trkpt>
      <trkpt lat="28.3041300" lon="-16.5216320">
        <ele>2203.9</ele>
        <time>2020-11-11T18:15:27Z</time>
      </trkpt>
      <trkpt lat="28.3041300" lon="-16.5216320">
        <ele>2203.9</ele>
        <time>2020-11-11T18:15:28Z</time>
      </trkpt>
      <trkpt lat="28.3040850" lon="-16.5216400">
        <ele>2204.9</ele>
        <time>2020-11-11T18:15:29Z</time>
      </trkpt>
      <trkpt lat="28.3040850" lon="-16.5216400">
        <ele>2204.9</ele>
        <time>2020-11-11T18:15:30Z</time>
      </trkpt>
      <trkpt lat="28.3040350" lon="-16.5216470">
        <ele>2204.9</ele>
        <time>2020-11-11T18:15:31Z</time>
      </trkpt>
      <trkpt lat="28.3040350" lon="-16.5216470">
        <ele>2204.9</ele>
        <time>2020-11-11T18:15:32Z</time>
      </trkpt>
      <trkpt lat="28.3039850" lon="-16.5216500">
        <ele>2204.9</ele>
        <time>2020-11-11T18:15:33Z</time>
      </trkpt>
      <trkpt lat="28.3039850" lon="-16.5216500">
        <ele>2204.9</ele>
        <time>2020-11-11T18:15:34Z</time>
      </trkpt>
      <trkpt lat="28.3039370" lon="-16.5216530">
        <ele>2204.9</ele>
        <time>2020-11-11T18:15:35Z</time>
      </trkpt>
      <trkpt lat="28.3039370" lon="-16.5216530">
        <ele>2204.9</ele>
        <time>2020-11-11T18:15:36Z</time>
      </trkpt>
      <trkpt lat="28.3038880" lon="-16.5216630">
        <ele>2204.9</ele>
        <time>2020-11-11T18:15:37Z</time>
      </trkpt>
      <trkpt lat="28.3038880" lon="-16.5216630">
        <ele>2205.9</ele>
        <time>2020-11-11T18:15:38Z</time>
      </trkpt>
      <trkpt lat="28.3038400" lon="-16.5216700">
        <ele>2205.9</ele>
        <time>2020-11-11T18:15:39Z</time>
      </trkpt>
      <trkpt lat="28.3038400" lon="-16.5216700">
        <ele>2205.9</ele>
        <time>2020-11-11T18:15:40Z</time>
      </trkpt>
      <trkpt lat="28.3037950" lon="-16.5216770">
        <ele>2205.9</ele>
        <time>2020-11-11T18:15:41Z</time>
      </trkpt>
      <trkpt lat="28.3037950" lon="-16.5216770">
        <ele>2205.9</ele>
        <time>2020-11-11T18:15:42Z</time>
      </trkpt>
      <trkpt lat="28.3037470" lon="-16.5216900">
        <ele>2205.9</ele>
        <time>2020-11-11T18:15:43Z</time>
      </trkpt>
      <trkpt lat="28.3037470" lon="-16.5216900">
        <ele>2206.9</ele>
        <time>2020-11-11T18:15:44Z</time>
      </trkpt>
      <trkpt lat="28.3037030" lon="-16.5217030">
        <ele>2206.9</ele>
        <time>2020-11-11T18:15:45Z</time>
      </trkpt>
      <trkpt lat="28.3037030" lon="-16.5217030">
        <ele>2206.9</ele>
        <time>2020-11-11T18:15:46Z</time>
      </trkpt>
      <trkpt lat="28.3036580" lon="-16.5217150">
        <ele>2206.9</ele>
        <time>2020-11-11T18:15:47Z</time>
      </trkpt>
      <trkpt lat="28.3036580" lon="-16.5217150">
        <ele>2206.9</ele>
        <time>2020-11-11T18:15:48Z</time>
      </trkpt>
      <trkpt lat="28.3036150" lon="-16.5217280">
        <ele>2206.9</ele>
        <time>2020-11-11T18:15:49Z</time>
      </trkpt>
      <trkpt lat="28.3036150" lon="-16.5217280">
        <ele>2206.9</ele>
        <time>2020-11-11T18:15:50Z</time>
      </trkpt>
      <trkpt lat="28.3035680" lon="-16.5217430">
        <ele>2207.9</ele>
        <time>2020-11-11T18:15:51Z</time>
      </trkpt>
      <trkpt lat="28.3035680" lon="-16.5217430">
        <ele>2207.9</ele>
        <time>2020-11-11T18:15:52Z</time>
      </trkpt>
      <trkpt lat="28.3035180" lon="-16.5217530">
        <ele>2207.9</ele>
        <time>2020-11-11T18:15:53Z</time>
      </trkpt>
      <trkpt lat="28.3035180" lon="-16.5217530">
        <ele>2207.9</ele>
        <time>2020-11-11T18:15:54Z</time>
      </trkpt>
      <trkpt lat="28.3034680" lon="-16.5217630">
        <ele>2208.9</ele>
        <time>2020-11-11T18:15:55Z</time>
      </trkpt>
      <trkpt lat="28.3034680" lon="-16.5217630">
        <ele>2208.9</ele>
        <time>2020-11-11T18:15:56Z</time>
      </trkpt>
      <trkpt lat="28.3034250" lon="-16.5217780">
        <ele>2208.9</ele>
        <time>2020-11-11T18:15:57Z</time>
      </trkpt>
      <trkpt lat="28.3034020" lon="-16.5217850">
        <ele>2208.9</ele>
        <time>2020-11-11T18:15:58Z</time>
      </trkpt>
      <trkpt lat="28.3034020" lon="-16.5217850">
        <ele>2208.9</ele>
        <time>2020-11-11T18:15:59Z</time>
      </trkpt>
      <trkpt lat="28.3033570" lon="-16.5217930">
        <ele>2208.9</ele>
        <time>2020-11-11T18:16:00Z</time>
      </trkpt>
      <trkpt lat="28.3033570" lon="-16.5217930">
        <ele>2208.9</ele>
        <time>2020-11-11T18:16:01Z</time>
      </trkpt>
      <trkpt lat="28.3033070" lon="-16.5218070">
        <ele>2208.9</ele>
        <time>2020-11-11T18:16:02Z</time>
      </trkpt>
      <trkpt lat="28.3033070" lon="-16.5218070">
        <ele>2209.9</ele>
        <time>2020-11-11T18:16:03Z</time>
      </trkpt>
      <trkpt lat="28.3032600" lon="-16.5218130">
        <ele>2209.9</ele>
        <time>2020-11-11T18:16:04Z</time>
      </trkpt>
      <trkpt lat="28.3032600" lon="-16.5218130">
        <ele>2209.9</ele>
        <time>2020-11-11T18:16:05Z</time>
      </trkpt>
      <trkpt lat="28.3032030" lon="-16.5218230">
        <ele>2209.9</ele>
        <time>2020-11-11T18:16:06Z</time>
      </trkpt>
      <trkpt lat="28.3031730" lon="-16.5218320">
        <ele>2209.9</ele>
        <time>2020-11-11T18:16:07Z</time>
      </trkpt>
      <trkpt lat="28.3031730" lon="-16.5218320">
        <ele>2209.9</ele>
        <time>2020-11-11T18:16:08Z</time>
      </trkpt>
      <trkpt lat="28.3031220" lon="-16.5218450">
        <ele>2209.9</ele>
        <time>2020-11-11T18:16:09Z</time>
      </trkpt>
      <trkpt lat="28.3031220" lon="-16.5218450">
        <ele>2210.9</ele>
        <time>2020-11-11T18:16:10Z</time>
      </trkpt>
      <trkpt lat="28.3030700" lon="-16.5218530">
        <ele>2210.9</ele>
        <time>2020-11-11T18:16:11Z</time>
      </trkpt>
      <trkpt lat="28.3030700" lon="-16.5218530">
        <ele>2210.9</ele>
        <time>2020-11-11T18:16:12Z</time>
      </trkpt>
      <trkpt lat="28.3030150" lon="-16.5218650">
        <ele>2210.9</ele>
        <time>2020-11-11T18:16:13Z</time>
      </trkpt>
      <trkpt lat="28.3030150" lon="-16.5218650">
        <ele>2210.9</ele>
        <time>2020-11-11T18:16:14Z</time>
      </trkpt>
      <trkpt lat="28.3029820" lon="-16.5218750">
        <ele>2210.9</ele>
        <time>2020-11-11T18:16:15Z</time>
      </trkpt>
      <trkpt lat="28.3029820" lon="-16.5218750">
        <ele>2210.9</ele>
        <time>2020-11-11T18:16:16Z</time>
      </trkpt>
      <trkpt lat="28.3029350" lon="-16.5218850">
        <ele>2210.9</ele>
        <time>2020-11-11T18:16:17Z</time>
      </trkpt>
      <trkpt lat="28.3029350" lon="-16.5218850">
        <ele>2211.9</ele>
        <time>2020-11-11T18:16:18Z</time>
      </trkpt>
      <trkpt lat="28.3028880" lon="-16.5218830">
        <ele>2211.9</ele>
        <time>2020-11-11T18:16:19Z</time>
      </trkpt>
      <trkpt lat="28.3028880" lon="-16.5218830">
        <ele>2211.9</ele>
        <time>2020-11-11T18:16:20Z</time>
      </trkpt>
      <trkpt lat="28.3028500" lon="-16.5218800">
        <ele>2211.9</ele>
        <time>2020-11-11T18:16:21Z</time>
      </trkpt>
      <trkpt lat="28.3028500" lon="-16.5218800">
        <ele>2211.9</ele>
        <time>2020-11-11T18:16:22Z</time>
      </trkpt>
      <trkpt lat="28.3028170" lon="-16.5218850">
        <ele>2211.9</ele>
        <time>2020-11-11T18:16:23Z</time>
      </trkpt>
      <trkpt lat="28.3028170" lon="-16.5218850">
        <ele>2211.9</ele>
        <time>2020-11-11T18:16:24Z</time>
      </trkpt>
      <trkpt lat="28.3027900" lon="-16.5219020">
        <ele>2211.9</ele>
        <time>2020-11-11T18:16:25Z</time>
      </trkpt>
      <trkpt lat="28.3027900" lon="-16.5219020">
        <ele>2211.9</ele>
        <time>2020-11-11T18:16:26Z</time>
      </trkpt>
      <trkpt lat="28.3027550" lon="-16.5219230">
        <ele>2211.9</ele>
        <time>2020-11-11T18:16:27Z</time>
      </trkpt>
      <trkpt lat="28.3027550" lon="-16.5219230">
        <ele>2211.9</ele>
        <time>2020-11-11T18:16:28Z</time>
      </trkpt>
      <trkpt lat="28.3027250" lon="-16.5219480">
        <ele>2211.9</ele>
        <time>2020-11-11T18:16:29Z</time>
      </trkpt>
      <trkpt lat="28.3027130" lon="-16.5219600">
        <ele>2211.9</ele>
        <time>2020-11-11T18:16:30Z</time>
      </trkpt>
      <trkpt lat="28.3027130" lon="-16.5219600">
        <ele>2211.9</ele>
        <time>2020-11-11T18:16:31Z</time>
      </trkpt>
      <trkpt lat="28.3026950" lon="-16.5219850">
        <ele>2211.9</ele>
        <time>2020-11-11T18:16:32Z</time>
      </trkpt>
      <trkpt lat="28.3026950" lon="-16.5219850">
        <ele>2211.9</ele>
        <time>2020-11-11T18:16:33Z</time>
      </trkpt>
      <trkpt lat="28.3026720" lon="-16.5220130">
        <ele>2211.9</ele>
        <time>2020-11-11T18:16:34Z</time>
      </trkpt>
      <trkpt lat="28.3026720" lon="-16.5220130">
        <ele>2211.9</ele>
        <time>2020-11-11T18:16:35Z</time>
      </trkpt>
      <trkpt lat="28.3026630" lon="-16.5220450">
        <ele>2211.9</ele>
        <time>2020-11-11T18:16:36Z</time>
      </trkpt>
      <trkpt lat="28.3026630" lon="-16.5220450">
        <ele>2211.9</ele>
        <time>2020-11-11T18:16:37Z</time>
      </trkpt>
      <trkpt lat="28.3026600" lon="-16.5220520">
        <ele>2211.9</ele>
        <time>2020-11-11T18:16:38Z</time>
      </trkpt>
      <trkpt lat="28.3026370" lon="-16.5221170">
        <ele>2211.9</ele>
        <time>2020-11-11T18:17:38Z</time>
      </trkpt>
      <trkpt lat="28.3026370" lon="-16.5221170">
        <ele>2211.9</ele>
        <time>2020-11-11T18:17:39Z</time>
      </trkpt>
      <trkpt lat="28.3026280" lon="-16.5221770">
        <ele>2211.9</ele>
        <time>2020-11-11T18:17:40Z</time>
      </trkpt>
      <trkpt lat="28.3026280" lon="-16.5221770">
        <ele>2211.9</ele>
        <time>2020-11-11T18:17:41Z</time>
      </trkpt>
      <trkpt lat="28.3026200" lon="-16.5222570">
        <ele>2211.9</ele>
        <time>2020-11-11T18:17:42Z</time>
      </trkpt>
      <trkpt lat="28.3026200" lon="-16.5222570">
        <ele>2211.9</ele>
        <time>2020-11-11T18:17:43Z</time>
      </trkpt>
      <trkpt lat="28.3026050" lon="-16.5223520">
        <ele>2211.9</ele>
        <time>2020-11-11T18:17:44Z</time>
      </trkpt>
      <trkpt lat="28.3026050" lon="-16.5223520">
        <ele>2211.9</ele>
        <time>2020-11-11T18:17:45Z</time>
      </trkpt>
      <trkpt lat="28.3025930" lon="-16.5224570">
        <ele>2211.9</ele>
        <time>2020-11-11T18:17:46Z</time>
      </trkpt>
      <trkpt lat="28.3025930" lon="-16.5224570">
        <ele>2211.9</ele>
        <time>2020-11-11T18:17:47Z</time>
      </trkpt>
      <trkpt lat="28.3025830" lon="-16.5225720">
        <ele>2211.9</ele>
        <time>2020-11-11T18:17:48Z</time>
      </trkpt>
      <trkpt lat="28.3025770" lon="-16.5226320">
        <ele>2210.9</ele>
        <time>2020-11-11T18:17:49Z</time>
      </trkpt>
      <trkpt lat="28.3025770" lon="-16.5226320">
        <ele>2210.9</ele>
        <time>2020-11-11T18:17:50Z</time>
      </trkpt>
      <trkpt lat="28.3025530" lon="-16.5227570">
        <ele>2210.9</ele>
        <time>2020-11-11T18:17:51Z</time>
      </trkpt>
      <trkpt lat="28.3025530" lon="-16.5227570">
        <ele>2209.9</ele>
        <time>2020-11-11T18:17:52Z</time>
      </trkpt>
      <trkpt lat="28.3025430" lon="-16.5228930">
        <ele>2209.9</ele>
        <time>2020-11-11T18:17:53Z</time>
      </trkpt>
      <trkpt lat="28.3025430" lon="-16.5228930">
        <ele>2209.9</ele>
        <time>2020-11-11T18:17:54Z</time>
      </trkpt>
      <trkpt lat="28.3025330" lon="-16.5230380">
        <ele>2209.9</ele>
        <time>2020-11-11T18:17:55Z</time>
      </trkpt>
      <trkpt lat="28.3025330" lon="-16.5230380">
        <ele>2208.9</ele>
        <time>2020-11-11T18:17:56Z</time>
      </trkpt>
      <trkpt lat="28.3025180" lon="-16.5231920">
        <ele>2208.9</ele>
        <time>2020-11-11T18:17:57Z</time>
      </trkpt>
      <trkpt lat="28.3025180" lon="-16.5231920">
        <ele>2208.9</ele>
        <time>2020-11-11T18:17:58Z</time>
      </trkpt>
      <trkpt lat="28.3025030" lon="-16.5233530">
        <ele>2208.9</ele>
        <time>2020-11-11T18:17:59Z</time>
      </trkpt>
      <trkpt lat="28.3025030" lon="-16.5233530">
        <ele>2207.9</ele>
        <time>2020-11-11T18:18:00Z</time>
      </trkpt>
      <trkpt lat="28.3024930" lon="-16.5235070">
        <ele>2207.9</ele>
        <time>2020-11-11T18:18:01Z</time>
      </trkpt>
      <trkpt lat="28.3024930" lon="-16.5235070">
        <ele>2207.9</ele>
        <time>2020-11-11T18:18:02Z</time>
      </trkpt>
      <trkpt lat="28.3024930" lon="-16.5235070">
        <ele>2207.9</ele>
        <time>2020-11-11T18:18:03Z</time>
      </trkpt>
      <trkpt lat="28.3024820" lon="-16.5236420">
        <ele>2205.9</ele>
        <time>2020-11-11T18:18:04Z</time>
      </trkpt>
      <trkpt lat="28.3024700" lon="-16.5237500">
        <ele>2205.9</ele>
        <time>2020-11-11T18:18:05Z</time>
      </trkpt>
      <trkpt lat="28.3024700" lon="-16.5237500">
        <ele>2204.9</ele>
        <time>2020-11-11T18:18:06Z</time>
      </trkpt>
      <trkpt lat="28.3024580" lon="-16.5238200">
        <ele>2204.9</ele>
        <time>2020-11-11T18:18:07Z</time>
      </trkpt>
      <trkpt lat="28.3024580" lon="-16.5238200">
        <ele>2203.9</ele>
        <time>2020-11-11T18:18:08Z</time>
      </trkpt>
      <trkpt lat="28.3024530" lon="-16.5238430">
        <ele>2203.9</ele>
        <time>2020-11-11T18:18:09Z</time>
      </trkpt>
      <trkpt lat="28.3024520" lon="-16.5238430">
        <ele>2203.9</ele>
        <time>2020-11-11T18:18:10Z</time>
      </trkpt>
      <trkpt lat="28.3024520" lon="-16.5238430">
        <ele>2203.9</ele>
        <time>2020-11-11T18:18:11Z</time>
      </trkpt>
      <trkpt lat="28.3024520" lon="-16.5238420">
        <ele>2202.9</ele>
        <time>2020-11-11T18:18:12Z</time>
      </trkpt>
      <trkpt lat="28.3024380" lon="-16.5238650">
        <ele>2202.9</ele>
        <time>2020-11-11T18:18:31Z</time>
      </trkpt>
      <trkpt lat="28.3024380" lon="-16.5238650">
        <ele>2202.9</ele>
        <time>2020-11-11T18:18:32Z</time>
      </trkpt>
      <trkpt lat="28.3024130" lon="-16.5239070">
        <ele>2202.9</ele>
        <time>2020-11-11T18:18:33Z</time>
      </trkpt>
      <trkpt lat="28.3023980" lon="-16.5239350">
        <ele>2202.9</ele>
        <time>2020-11-11T18:18:34Z</time>
      </trkpt>
      <trkpt lat="28.3023980" lon="-16.5239350">
        <ele>2202.9</ele>
        <time>2020-11-11T18:18:35Z</time>
      </trkpt>
      <trkpt lat="28.3023650" lon="-16.5240080">
        <ele>2202.9</ele>
        <time>2020-11-11T18:18:36Z</time>
      </trkpt>
      <trkpt lat="28.3023650" lon="-16.5240080">
        <ele>2202.9</ele>
        <time>2020-11-11T18:18:37Z</time>
      </trkpt>
      <trkpt lat="28.3023280" lon="-16.5241020">
        <ele>2202.9</ele>
        <time>2020-11-11T18:18:38Z</time>
      </trkpt>
      <trkpt lat="28.3023280" lon="-16.5241020">
        <ele>2202.9</ele>
        <time>2020-11-11T18:18:39Z</time>
      </trkpt>
      <trkpt lat="28.3022770" lon="-16.5242080">
        <ele>2201.9</ele>
        <time>2020-11-11T18:18:40Z</time>
      </trkpt>
      <trkpt lat="28.3022770" lon="-16.5242080">
        <ele>2201.9</ele>
        <time>2020-11-11T18:18:41Z</time>
      </trkpt>
      <trkpt lat="28.3022080" lon="-16.5243200">
        <ele>2201.9</ele>
        <time>2020-11-11T18:18:42Z</time>
      </trkpt>
      <trkpt lat="28.3022080" lon="-16.5243200">
        <ele>2201.9</ele>
        <time>2020-11-11T18:18:43Z</time>
      </trkpt>
      <trkpt lat="28.3021320" lon="-16.5244400">
        <ele>2201.9</ele>
        <time>2020-11-11T18:18:44Z</time>
      </trkpt>
      <trkpt lat="28.3021320" lon="-16.5244400">
        <ele>2199.9</ele>
        <time>2020-11-11T18:18:45Z</time>
      </trkpt>
      <trkpt lat="28.3020450" lon="-16.5245680">
        <ele>2199.9</ele>
        <time>2020-11-11T18:18:46Z</time>
      </trkpt>
      <trkpt lat="28.3019970" lon="-16.5246320">
        <ele>2199.9</ele>
        <time>2020-11-11T18:18:47Z</time>
      </trkpt>
      <trkpt lat="28.3019970" lon="-16.5246320">
        <ele>2199.9</ele>
        <time>2020-11-11T18:18:48Z</time>
      </trkpt>
      <trkpt lat="28.3018880" lon="-16.5247550">
        <ele>2198.9</ele>
        <time>2020-11-11T18:18:49Z</time>
      </trkpt>
      <trkpt lat="28.3018880" lon="-16.5247550">
        <ele>2198.9</ele>
        <time>2020-11-11T18:18:50Z</time>
      </trkpt>
      <trkpt lat="28.3017750" lon="-16.5248900">
        <ele>2197.9</ele>
        <time>2020-11-11T18:18:51Z</time>
      </trkpt>
      <trkpt lat="28.3017750" lon="-16.5248900">
        <ele>2197.9</ele>
        <time>2020-11-11T18:18:52Z</time>
      </trkpt>
      <trkpt lat="28.3016780" lon="-16.5250520">
        <ele>2196.9</ele>
        <time>2020-11-11T18:18:53Z</time>
      </trkpt>
      <trkpt lat="28.3016780" lon="-16.5250520">
        <ele>2196.9</ele>
        <time>2020-11-11T18:18:54Z</time>
      </trkpt>
      <trkpt lat="28.3016180" lon="-16.5252450">
        <ele>2195.9</ele>
        <time>2020-11-11T18:18:55Z</time>
      </trkpt>
      <trkpt lat="28.3016180" lon="-16.5252450">
        <ele>2195.9</ele>
        <time>2020-11-11T18:18:56Z</time>
      </trkpt>
      <trkpt lat="28.3015850" lon="-16.5254520">
        <ele>2194.9</ele>
        <time>2020-11-11T18:18:57Z</time>
      </trkpt>
      <trkpt lat="28.3015850" lon="-16.5254520">
        <ele>2194.9</ele>
        <time>2020-11-11T18:18:58Z</time>
      </trkpt>
      <trkpt lat="28.3015600" lon="-16.5256630">
        <ele>2193.9</ele>
        <time>2020-11-11T18:18:59Z</time>
      </trkpt>
      <trkpt lat="28.3015520" lon="-16.5257720">
        <ele>2193.9</ele>
        <time>2020-11-11T18:19:00Z</time>
      </trkpt>
      <trkpt lat="28.3015520" lon="-16.5257720">
        <ele>2193.9</ele>
        <time>2020-11-11T18:19:01Z</time>
      </trkpt>
      <trkpt lat="28.3015370" lon="-16.5259920">
        <ele>2193.9</ele>
        <time>2020-11-11T18:19:02Z</time>
      </trkpt>
      <trkpt lat="28.3015370" lon="-16.5259920">
        <ele>2191.9</ele>
        <time>2020-11-11T18:19:03Z</time>
      </trkpt>
      <trkpt lat="28.3015330" lon="-16.5262150">
        <ele>2191.9</ele>
        <time>2020-11-11T18:19:04Z</time>
      </trkpt>
      <trkpt lat="28.3015330" lon="-16.5262150">
        <ele>2190.9</ele>
        <time>2020-11-11T18:19:05Z</time>
      </trkpt>
      <trkpt lat="28.3015480" lon="-16.5264420">
        <ele>2190.9</ele>
        <time>2020-11-11T18:19:06Z</time>
      </trkpt>
      <trkpt lat="28.3015480" lon="-16.5264420">
        <ele>2189.9</ele>
        <time>2020-11-11T18:19:07Z</time>
      </trkpt>
      <trkpt lat="28.3015480" lon="-16.5264420">
        <ele>2189.9</ele>
        <time>2020-11-11T18:19:08Z</time>
      </trkpt>
      <trkpt lat="28.3015880" lon="-16.5266700">
        <ele>2188.9</ele>
        <time>2020-11-11T18:19:09Z</time>
      </trkpt>
      <trkpt lat="28.3016480" lon="-16.5269000">
        <ele>2186.9</ele>
        <time>2020-11-11T18:19:10Z</time>
      </trkpt>
      <trkpt lat="28.3016480" lon="-16.5269000">
        <ele>2186.9</ele>
        <time>2020-11-11T18:19:11Z</time>
      </trkpt>
      <trkpt lat="28.3017270" lon="-16.5271280">
        <ele>2186.9</ele>
        <time>2020-11-11T18:19:12Z</time>
      </trkpt>
      <trkpt lat="28.3017270" lon="-16.5271280">
        <ele>2185.9</ele>
        <time>2020-11-11T18:19:13Z</time>
      </trkpt>
      <trkpt lat="28.3018130" lon="-16.5273530">
        <ele>2183.9</ele>
        <time>2020-11-11T18:19:14Z</time>
      </trkpt>
      <trkpt lat="28.3018130" lon="-16.5273530">
        <ele>2183.9</ele>
        <time>2020-11-11T18:19:15Z</time>
      </trkpt>
      <trkpt lat="28.3019000" lon="-16.5275830">
        <ele>2182.9</ele>
        <time>2020-11-11T18:19:16Z</time>
      </trkpt>
      <trkpt lat="28.3019450" lon="-16.5276980">
        <ele>2182.9</ele>
        <time>2020-11-11T18:19:17Z</time>
      </trkpt>
      <trkpt lat="28.3019450" lon="-16.5276980">
        <ele>2180.9</ele>
        <time>2020-11-11T18:19:18Z</time>
      </trkpt>
      <trkpt lat="28.3020370" lon="-16.5279270">
        <ele>2180.9</ele>
        <time>2020-11-11T18:19:19Z</time>
      </trkpt>
      <trkpt lat="28.3020370" lon="-16.5279270">
        <ele>2179.9</ele>
        <time>2020-11-11T18:19:20Z</time>
      </trkpt>
      <trkpt lat="28.3021320" lon="-16.5281550">
        <ele>2179.9</ele>
        <time>2020-11-11T18:19:21Z</time>
      </trkpt>
      <trkpt lat="28.3021320" lon="-16.5281550">
        <ele>2177.9</ele>
        <time>2020-11-11T18:19:22Z</time>
      </trkpt>
      <trkpt lat="28.3022220" lon="-16.5283850">
        <ele>2177.9</ele>
        <time>2020-11-11T18:19:23Z</time>
      </trkpt>
      <trkpt lat="28.3022220" lon="-16.5283850">
        <ele>2176.9</ele>
        <time>2020-11-11T18:19:24Z</time>
      </trkpt>
      <trkpt lat="28.3023080" lon="-16.5286080">
        <ele>2176.9</ele>
        <time>2020-11-11T18:19:25Z</time>
      </trkpt>
      <trkpt lat="28.3023080" lon="-16.5286080">
        <ele>2175.9</ele>
        <time>2020-11-11T18:19:26Z</time>
      </trkpt>
      <trkpt lat="28.3023930" lon="-16.5288270">
        <ele>2175.9</ele>
        <time>2020-11-11T18:19:27Z</time>
      </trkpt>
      <trkpt lat="28.3023930" lon="-16.5288270">
        <ele>2174.9</ele>
        <time>2020-11-11T18:19:28Z</time>
      </trkpt>
      <trkpt lat="28.3024750" lon="-16.5290400">
        <ele>2174.9</ele>
        <time>2020-11-11T18:19:29Z</time>
      </trkpt>
      <trkpt lat="28.3024750" lon="-16.5290400">
        <ele>2173.9</ele>
        <time>2020-11-11T18:19:30Z</time>
      </trkpt>
      <trkpt lat="28.3025670" lon="-16.5292400">
        <ele>2173.9</ele>
        <time>2020-11-11T18:19:31Z</time>
      </trkpt>
      <trkpt lat="28.3025670" lon="-16.5292400">
        <ele>2173.9</ele>
        <time>2020-11-11T18:19:32Z</time>
      </trkpt>
      <trkpt lat="28.3026820" lon="-16.5294200">
        <ele>2173.9</ele>
        <time>2020-11-11T18:19:33Z</time>
      </trkpt>
      <trkpt lat="28.3026820" lon="-16.5294200">
        <ele>2172.9</ele>
        <time>2020-11-11T18:19:34Z</time>
      </trkpt>
      <trkpt lat="28.3028150" lon="-16.5295900">
        <ele>2172.9</ele>
        <time>2020-11-11T18:19:35Z</time>
      </trkpt>
      <trkpt lat="28.3028150" lon="-16.5295900">
        <ele>2171.9</ele>
        <time>2020-11-11T18:19:36Z</time>
      </trkpt>
      <trkpt lat="28.3029730" lon="-16.5297470">
        <ele>2171.9</ele>
        <time>2020-11-11T18:19:37Z</time>
      </trkpt>
      <trkpt lat="28.3029730" lon="-16.5297470">
        <ele>2170.9</ele>
        <time>2020-11-11T18:19:38Z</time>
      </trkpt>
      <trkpt lat="28.3031580" lon="-16.5298830">
        <ele>2170.9</ele>
        <time>2020-11-11T18:19:39Z</time>
      </trkpt>
      <trkpt lat="28.3031580" lon="-16.5298830">
        <ele>2168.9</ele>
        <time>2020-11-11T18:19:40Z</time>
      </trkpt>
      <trkpt lat="28.3033600" lon="-16.5300070">
        <ele>2168.9</ele>
        <time>2020-11-11T18:19:41Z</time>
      </trkpt>
      <trkpt lat="28.3033600" lon="-16.5300070">
        <ele>2167.9</ele>
        <time>2020-11-11T18:19:42Z</time>
      </trkpt>
      <trkpt lat="28.3035720" lon="-16.5301330">
        <ele>2167.9</ele>
        <time>2020-11-11T18:19:43Z</time>
      </trkpt>
      <trkpt lat="28.3035720" lon="-16.5301330">
        <ele>2166.9</ele>
        <time>2020-11-11T18:19:44Z</time>
      </trkpt>
      <trkpt lat="28.3037870" lon="-16.5302570">
        <ele>2166.9</ele>
        <time>2020-11-11T18:19:45Z</time>
      </trkpt>
      <trkpt lat="28.3038930" lon="-16.5303180">
        <ele>2164.9</ele>
        <time>2020-11-11T18:19:46Z</time>
      </trkpt>
      <trkpt lat="28.3038930" lon="-16.5303180">
        <ele>2163.9</ele>
        <time>2020-11-11T18:19:47Z</time>
      </trkpt>
      <trkpt lat="28.3041080" lon="-16.5304430">
        <ele>2163.9</ele>
        <time>2020-11-11T18:19:48Z</time>
      </trkpt>
      <trkpt lat="28.3042130" lon="-16.5305070">
        <ele>2163.9</ele>
        <time>2020-11-11T18:19:49Z</time>
      </trkpt>
      <trkpt lat="28.3042130" lon="-16.5305070">
        <ele>2161.9</ele>
        <time>2020-11-11T18:19:50Z</time>
      </trkpt>
      <trkpt lat="28.3044200" lon="-16.5306280">
        <ele>2161.9</ele>
        <time>2020-11-11T18:19:51Z</time>
      </trkpt>
      <trkpt lat="28.3044200" lon="-16.5306280">
        <ele>2160.9</ele>
        <time>2020-11-11T18:19:52Z</time>
      </trkpt>
      <trkpt lat="28.3046150" lon="-16.5307420">
        <ele>2160.9</ele>
        <time>2020-11-11T18:19:53Z</time>
      </trkpt>
      <trkpt lat="28.3046150" lon="-16.5307420">
        <ele>2159.9</ele>
        <time>2020-11-11T18:19:54Z</time>
      </trkpt>
      <trkpt lat="28.3048000" lon="-16.5308400">
        <ele>2159.9</ele>
        <time>2020-11-11T18:19:55Z</time>
      </trkpt>
      <trkpt lat="28.3048000" lon="-16.5308400">
        <ele>2159.9</ele>
        <time>2020-11-11T18:19:56Z</time>
      </trkpt>
      <trkpt lat="28.3049670" lon="-16.5309430">
        <ele>2159.9</ele>
        <time>2020-11-11T18:19:57Z</time>
      </trkpt>
      <trkpt lat="28.3050400" lon="-16.5310000">
        <ele>2159.9</ele>
        <time>2020-11-11T18:19:58Z</time>
      </trkpt>
      <trkpt lat="28.3050400" lon="-16.5310000">
        <ele>2159.9</ele>
        <time>2020-11-11T18:19:59Z</time>
      </trkpt>
      <trkpt lat="28.3051780" lon="-16.5311200">
        <ele>2159.9</ele>
        <time>2020-11-11T18:20:00Z</time>
      </trkpt>
      <trkpt lat="28.3051780" lon="-16.5311200">
        <ele>2159.9</ele>
        <time>2020-11-11T18:20:01Z</time>
      </trkpt>
      <trkpt lat="28.3053030" lon="-16.5312470">
        <ele>2159.9</ele>
        <time>2020-11-11T18:20:02Z</time>
      </trkpt>
      <trkpt lat="28.3053030" lon="-16.5312470">
        <ele>2159.9</ele>
        <time>2020-11-11T18:20:03Z</time>
      </trkpt>
      <trkpt lat="28.3054130" lon="-16.5313770">
        <ele>2159.9</ele>
        <time>2020-11-11T18:20:04Z</time>
      </trkpt>
      <trkpt lat="28.3054600" lon="-16.5314470">
        <ele>2159.9</ele>
        <time>2020-11-11T18:20:05Z</time>
      </trkpt>
      <trkpt lat="28.3054600" lon="-16.5314470">
        <ele>2159.9</ele>
        <time>2020-11-11T18:20:06Z</time>
      </trkpt>
      <trkpt lat="28.3055420" lon="-16.5315900">
        <ele>2159.9</ele>
        <time>2020-11-11T18:20:07Z</time>
      </trkpt>
      <trkpt lat="28.3055420" lon="-16.5315900">
        <ele>2159.9</ele>
        <time>2020-11-11T18:20:08Z</time>
      </trkpt>
      <trkpt lat="28.3056100" lon="-16.5317370">
        <ele>2159.9</ele>
        <time>2020-11-11T18:20:09Z</time>
      </trkpt>
      <trkpt lat="28.3056100" lon="-16.5317370">
        <ele>2159.9</ele>
        <time>2020-11-11T18:20:10Z</time>
      </trkpt>
      <trkpt lat="28.3056630" lon="-16.5318850">
        <ele>2159.9</ele>
        <time>2020-11-11T18:20:11Z</time>
      </trkpt>
      <trkpt lat="28.3056630" lon="-16.5318850">
        <ele>2159.9</ele>
        <time>2020-11-11T18:20:12Z</time>
      </trkpt>
      <trkpt lat="28.3057080" lon="-16.5320300">
        <ele>2159.9</ele>
        <time>2020-11-11T18:20:13Z</time>
      </trkpt>
      <trkpt lat="28.3057080" lon="-16.5320300">
        <ele>2159.9</ele>
        <time>2020-11-11T18:20:14Z</time>
      </trkpt>
      <trkpt lat="28.3057430" lon="-16.5321700">
        <ele>2159.9</ele>
        <time>2020-11-11T18:20:15Z</time>
      </trkpt>
      <trkpt lat="28.3057430" lon="-16.5321700">
        <ele>2159.9</ele>
        <time>2020-11-11T18:20:16Z</time>
      </trkpt>
      <trkpt lat="28.3057730" lon="-16.5323020">
        <ele>2159.9</ele>
        <time>2020-11-11T18:20:17Z</time>
      </trkpt>
      <trkpt lat="28.3057730" lon="-16.5323020">
        <ele>2159.9</ele>
        <time>2020-11-11T18:20:18Z</time>
      </trkpt>
      <trkpt lat="28.3058080" lon="-16.5324230">
        <ele>2159.9</ele>
        <time>2020-11-11T18:20:19Z</time>
      </trkpt>
      <trkpt lat="28.3058080" lon="-16.5324230">
        <ele>2159.9</ele>
        <time>2020-11-11T18:20:20Z</time>
      </trkpt>
      <trkpt lat="28.3058080" lon="-16.5324230">
        <ele>2159.9</ele>
        <time>2020-11-11T18:20:21Z</time>
      </trkpt>
      <trkpt lat="28.3058420" lon="-16.5325420">
        <ele>2159.9</ele>
        <time>2020-11-11T18:20:22Z</time>
      </trkpt>
      <trkpt lat="28.3058720" lon="-16.5326620">
        <ele>2159.9</ele>
        <time>2020-11-11T18:20:23Z</time>
      </trkpt>
      <trkpt lat="28.3058720" lon="-16.5326620">
        <ele>2159.9</ele>
        <time>2020-11-11T18:20:24Z</time>
      </trkpt>
      <trkpt lat="28.3059020" lon="-16.5327900">
        <ele>2159.9</ele>
        <time>2020-11-11T18:20:25Z</time>
      </trkpt>
      <trkpt lat="28.3059020" lon="-16.5327900">
        <ele>2159.9</ele>
        <time>2020-11-11T18:20:26Z</time>
      </trkpt>
      <trkpt lat="28.3059330" lon="-16.5329280">
        <ele>2159.9</ele>
        <time>2020-11-11T18:20:27Z</time>
      </trkpt>
      <trkpt lat="28.3059530" lon="-16.5330050">
        <ele>2158.9</ele>
        <time>2020-11-11T18:20:28Z</time>
      </trkpt>
      <trkpt lat="28.3059530" lon="-16.5330050">
        <ele>2158.9</ele>
        <time>2020-11-11T18:20:29Z</time>
      </trkpt>
      <trkpt lat="28.3059950" lon="-16.5331720">
        <ele>2157.9</ele>
        <time>2020-11-11T18:20:30Z</time>
      </trkpt>
      <trkpt lat="28.3059950" lon="-16.5331720">
        <ele>2157.9</ele>
        <time>2020-11-11T18:20:31Z</time>
      </trkpt>
      <trkpt lat="28.3060420" lon="-16.5333570">
        <ele>2157.9</ele>
        <time>2020-11-11T18:20:32Z</time>
      </trkpt>
      <trkpt lat="28.3060420" lon="-16.5333570">
        <ele>2156.9</ele>
        <time>2020-11-11T18:20:33Z</time>
      </trkpt>
      <trkpt lat="28.3060900" lon="-16.5335570">
        <ele>2156.9</ele>
        <time>2020-11-11T18:20:34Z</time>
      </trkpt>
      <trkpt lat="28.3060900" lon="-16.5335570">
        <ele>2155.9</ele>
        <time>2020-11-11T18:20:35Z</time>
      </trkpt>
      <trkpt lat="28.3061380" lon="-16.5337720">
        <ele>2155.9</ele>
        <time>2020-11-11T18:20:36Z</time>
      </trkpt>
      <trkpt lat="28.3061650" lon="-16.5338850">
        <ele>2153.9</ele>
        <time>2020-11-11T18:20:37Z</time>
      </trkpt>
      <trkpt lat="28.3061650" lon="-16.5338850">
        <ele>2153.9</ele>
        <time>2020-11-11T18:20:38Z</time>
      </trkpt>
      <trkpt lat="28.3062230" lon="-16.5341220">
        <ele>2151.9</ele>
        <time>2020-11-11T18:20:39Z</time>
      </trkpt>
      <trkpt lat="28.3062230" lon="-16.5341220">
        <ele>2151.9</ele>
        <time>2020-11-11T18:20:40Z</time>
      </trkpt>
      <trkpt lat="28.3062820" lon="-16.5343680">
        <ele>2149.9</ele>
        <time>2020-11-11T18:20:41Z</time>
      </trkpt>
      <trkpt lat="28.3062820" lon="-16.5343680">
        <ele>2149.9</ele>
        <time>2020-11-11T18:20:42Z</time>
      </trkpt>
      <trkpt lat="28.3063450" lon="-16.5346250">
        <ele>2147.9</ele>
        <time>2020-11-11T18:20:43Z</time>
      </trkpt>
      <trkpt lat="28.3063450" lon="-16.5346250">
        <ele>2147.9</ele>
        <time>2020-11-11T18:20:44Z</time>
      </trkpt>
      <trkpt lat="28.3064070" lon="-16.5348920">
        <ele>2145.9</ele>
        <time>2020-11-11T18:20:45Z</time>
      </trkpt>
      <trkpt lat="28.3064070" lon="-16.5348920">
        <ele>2145.9</ele>
        <time>2020-11-11T18:20:46Z</time>
      </trkpt>
      <trkpt lat="28.3064720" lon="-16.5351670">
        <ele>2144.9</ele>
        <time>2020-11-11T18:20:47Z</time>
      </trkpt>
      <trkpt lat="28.3064720" lon="-16.5351670">
        <ele>2144.9</ele>
        <time>2020-11-11T18:20:48Z</time>
      </trkpt>
      <trkpt lat="28.3065450" lon="-16.5354380">
        <ele>2142.9</ele>
        <time>2020-11-11T18:20:49Z</time>
      </trkpt>
      <trkpt lat="28.3065820" lon="-16.5355720">
        <ele>2142.9</ele>
        <time>2020-11-11T18:20:50Z</time>
      </trkpt>
      <trkpt lat="28.3065820" lon="-16.5355720">
        <ele>2141.9</ele>
        <time>2020-11-11T18:20:51Z</time>
      </trkpt>
      <trkpt lat="28.3066450" lon="-16.5358280">
        <ele>2141.9</ele>
        <time>2020-11-11T18:20:52Z</time>
      </trkpt>
      <trkpt lat="28.3066450" lon="-16.5358280">
        <ele>2140.9</ele>
        <time>2020-11-11T18:20:53Z</time>
      </trkpt>
      <trkpt lat="28.3066980" lon="-16.5360620">
        <ele>2140.9</ele>
        <time>2020-11-11T18:20:54Z</time>
      </trkpt>
      <trkpt lat="28.3067230" lon="-16.5361680">
        <ele>2140.9</ele>
        <time>2020-11-11T18:20:55Z</time>
      </trkpt>
      <trkpt lat="28.3067230" lon="-16.5361680">
        <ele>2140.9</ele>
        <time>2020-11-11T18:20:56Z</time>
      </trkpt>
      <trkpt lat="28.3067750" lon="-16.5363620">
        <ele>2140.9</ele>
        <time>2020-11-11T18:20:57Z</time>
      </trkpt>
      <trkpt lat="28.3067750" lon="-16.5363620">
        <ele>2140.9</ele>
        <time>2020-11-11T18:20:58Z</time>
      </trkpt>
      <trkpt lat="28.3068220" lon="-16.5365350">
        <ele>2140.9</ele>
        <time>2020-11-11T18:20:59Z</time>
      </trkpt>
      <trkpt lat="28.3068420" lon="-16.5366150">
        <ele>2140.9</ele>
        <time>2020-11-11T18:21:00Z</time>
      </trkpt>
      <trkpt lat="28.3068620" lon="-16.5366920">
        <ele>2140.9</ele>
        <time>2020-11-11T18:21:01Z</time>
      </trkpt>
      <trkpt lat="28.3068620" lon="-16.5366920">
        <ele>2140.9</ele>
        <time>2020-11-11T18:21:02Z</time>
      </trkpt>
      <trkpt lat="28.3068980" lon="-16.5368330">
        <ele>2140.9</ele>
        <time>2020-11-11T18:21:03Z</time>
      </trkpt>
      <trkpt lat="28.3068980" lon="-16.5368330">
        <ele>2140.9</ele>
        <time>2020-11-11T18:21:04Z</time>
      </trkpt>
      <trkpt lat="28.3069330" lon="-16.5369650">
        <ele>2140.9</ele>
        <time>2020-11-11T18:21:05Z</time>
      </trkpt>
      <trkpt lat="28.3069330" lon="-16.5369650">
        <ele>2140.9</ele>
        <time>2020-11-11T18:21:06Z</time>
      </trkpt>
      <trkpt lat="28.3069650" lon="-16.5370930">
        <ele>2140.9</ele>
        <time>2020-11-11T18:21:07Z</time>
      </trkpt>
      <trkpt lat="28.3069650" lon="-16.5370930">
        <ele>2140.9</ele>
        <time>2020-11-11T18:21:08Z</time>
      </trkpt>
      <trkpt lat="28.3070000" lon="-16.5372200">
        <ele>2140.9</ele>
        <time>2020-11-11T18:21:09Z</time>
      </trkpt>
      <trkpt lat="28.3070000" lon="-16.5372200">
        <ele>2140.9</ele>
        <time>2020-11-11T18:21:10Z</time>
      </trkpt>
      <trkpt lat="28.3070350" lon="-16.5373530">
        <ele>2140.9</ele>
        <time>2020-11-11T18:21:11Z</time>
      </trkpt>
      <trkpt lat="28.3070350" lon="-16.5373530">
        <ele>2140.9</ele>
        <time>2020-11-11T18:21:12Z</time>
      </trkpt>
      <trkpt lat="28.3070750" lon="-16.5374980">
        <ele>2140.9</ele>
        <time>2020-11-11T18:21:13Z</time>
      </trkpt>
      <trkpt lat="28.3070750" lon="-16.5374980">
        <ele>2140.9</ele>
        <time>2020-11-11T18:21:14Z</time>
      </trkpt>
      <trkpt lat="28.3071230" lon="-16.5376520">
        <ele>2140.9</ele>
        <time>2020-11-11T18:21:15Z</time>
      </trkpt>
      <trkpt lat="28.3071500" lon="-16.5377320">
        <ele>2140.9</ele>
        <time>2020-11-11T18:21:16Z</time>
      </trkpt>
      <trkpt lat="28.3071500" lon="-16.5377320">
        <ele>2140.9</ele>
        <time>2020-11-11T18:21:17Z</time>
      </trkpt>
      <trkpt lat="28.3072170" lon="-16.5378920">
        <ele>2138.9</ele>
        <time>2020-11-11T18:21:18Z</time>
      </trkpt>
      <trkpt lat="28.3072170" lon="-16.5378920">
        <ele>2138.9</ele>
        <time>2020-11-11T18:21:19Z</time>
      </trkpt>
      <trkpt lat="28.3073080" lon="-16.5380470">
        <ele>2137.9</ele>
        <time>2020-11-11T18:21:20Z</time>
      </trkpt>
      <trkpt lat="28.3073080" lon="-16.5380470">
        <ele>2137.9</ele>
        <time>2020-11-11T18:21:21Z</time>
      </trkpt>
      <trkpt lat="28.3073080" lon="-16.5380470">
        <ele>2137.9</ele>
        <time>2020-11-11T18:21:22Z</time>
      </trkpt>
      <trkpt lat="28.3074230" lon="-16.5381930">
        <ele>2137.9</ele>
        <time>2020-11-11T18:21:23Z</time>
      </trkpt>
      <trkpt lat="28.3075530" lon="-16.5383370">
        <ele>2136.9</ele>
        <time>2020-11-11T18:21:24Z</time>
      </trkpt>
      <trkpt lat="28.3075530" lon="-16.5383370">
        <ele>2136.9</ele>
        <time>2020-11-11T18:21:25Z</time>
      </trkpt>
      <trkpt lat="28.3076980" lon="-16.5384730">
        <ele>2135.9</ele>
        <time>2020-11-11T18:21:26Z</time>
      </trkpt>
      <trkpt lat="28.3077730" lon="-16.5385420">
        <ele>2135.9</ele>
        <time>2020-11-11T18:21:27Z</time>
      </trkpt>
      <trkpt lat="28.3077730" lon="-16.5385420">
        <ele>2134.9</ele>
        <time>2020-11-11T18:21:28Z</time>
      </trkpt>
      <trkpt lat="28.3079320" lon="-16.5386780">
        <ele>2134.9</ele>
        <time>2020-11-11T18:21:29Z</time>
      </trkpt>
      <trkpt lat="28.3079320" lon="-16.5386780">
        <ele>2133.9</ele>
        <time>2020-11-11T18:21:30Z</time>
      </trkpt>
      <trkpt lat="28.3080920" lon="-16.5388180">
        <ele>2133.9</ele>
        <time>2020-11-11T18:21:31Z</time>
      </trkpt>
      <trkpt lat="28.3080920" lon="-16.5388180">
        <ele>2132.9</ele>
        <time>2020-11-11T18:21:32Z</time>
      </trkpt>
      <trkpt lat="28.3082570" lon="-16.5389620">
        <ele>2132.9</ele>
        <time>2020-11-11T18:21:33Z</time>
      </trkpt>
      <trkpt lat="28.3082570" lon="-16.5389620">
        <ele>2131.9</ele>
        <time>2020-11-11T18:21:34Z</time>
      </trkpt>
      <trkpt lat="28.3084250" lon="-16.5391080">
        <ele>2131.9</ele>
        <time>2020-11-11T18:21:35Z</time>
      </trkpt>
      <trkpt lat="28.3084250" lon="-16.5391080">
        <ele>2130.9</ele>
        <time>2020-11-11T18:21:36Z</time>
      </trkpt>
      <trkpt lat="28.3085870" lon="-16.5392620">
        <ele>2130.9</ele>
        <time>2020-11-11T18:21:37Z</time>
      </trkpt>
      <trkpt lat="28.3085870" lon="-16.5392620">
        <ele>2129.9</ele>
        <time>2020-11-11T18:21:38Z</time>
      </trkpt>
      <trkpt lat="28.3087400" lon="-16.5394230">
        <ele>2129.9</ele>
        <time>2020-11-11T18:21:39Z</time>
      </trkpt>
      <trkpt lat="28.3087400" lon="-16.5394230">
        <ele>2128.9</ele>
        <time>2020-11-11T18:21:40Z</time>
      </trkpt>
      <trkpt lat="28.3088810" lon="-16.5396630">
        <ele>2128.9</ele>
        <time>2020-11-11T18:21:41Z</time>
      </trkpt>
      <trkpt lat="28.3088980" lon="-16.5397170">
        <ele>2128.9</ele>
        <time>2020-11-11T18:21:42Z</time>
      </trkpt>
      <trkpt lat="28.3089320" lon="-16.5398250">
        <ele>2128.9</ele>
        <time>2020-11-11T18:21:43Z</time>
      </trkpt>
      <trkpt lat="28.3089320" lon="-16.5398250">
        <ele>2127.9</ele>
        <time>2020-11-11T18:21:44Z</time>
      </trkpt>
      <trkpt lat="28.3089370" lon="-16.5400550">
        <ele>2127.9</ele>
        <time>2020-11-11T18:21:45Z</time>
      </trkpt>
      <trkpt lat="28.3089370" lon="-16.5400550">
        <ele>2126.9</ele>
        <time>2020-11-11T18:21:46Z</time>
      </trkpt>
      <trkpt lat="28.3088680" lon="-16.5402750">
        <ele>2126.9</ele>
        <time>2020-11-11T18:21:47Z</time>
      </trkpt>
      <trkpt lat="28.3088680" lon="-16.5402750">
        <ele>2125.9</ele>
        <time>2020-11-11T18:21:48Z</time>
      </trkpt>
      <trkpt lat="28.3087270" lon="-16.5404520">
        <ele>2125.9</ele>
        <time>2020-11-11T18:21:49Z</time>
      </trkpt>
      <trkpt lat="28.3087270" lon="-16.5404520">
        <ele>2123.9</ele>
        <time>2020-11-11T18:21:50Z</time>
      </trkpt>
      <trkpt lat="28.3085370" lon="-16.5405600">
        <ele>2123.9</ele>
        <time>2020-11-11T18:21:51Z</time>
      </trkpt>
      <trkpt lat="28.3084300" lon="-16.5405850">
        <ele>2122.9</ele>
        <time>2020-11-11T18:21:52Z</time>
      </trkpt>
      <trkpt lat="28.3084300" lon="-16.5405850">
        <ele>2120.9</ele>
        <time>2020-11-11T18:21:53Z</time>
      </trkpt>
      <trkpt lat="28.3082100" lon="-16.5405900">
        <ele>2120.9</ele>
        <time>2020-11-11T18:21:54Z</time>
      </trkpt>
      <trkpt lat="28.3082100" lon="-16.5405900">
        <ele>2119.9</ele>
        <time>2020-11-11T18:21:55Z</time>
      </trkpt>
      <trkpt lat="28.3079880" lon="-16.5405420">
        <ele>2119.9</ele>
        <time>2020-11-11T18:21:56Z</time>
      </trkpt>
      <trkpt lat="28.3079880" lon="-16.5405420">
        <ele>2118.9</ele>
        <time>2020-11-11T18:21:57Z</time>
      </trkpt>
      <trkpt lat="28.3077650" lon="-16.5404750">
        <ele>2118.9</ele>
        <time>2020-11-11T18:21:58Z</time>
      </trkpt>
      <trkpt lat="28.3077650" lon="-16.5404750">
        <ele>2116.9</ele>
        <time>2020-11-11T18:21:59Z</time>
      </trkpt>
      <trkpt lat="28.3075370" lon="-16.5404020">
        <ele>2116.9</ele>
        <time>2020-11-11T18:22:00Z</time>
      </trkpt>
      <trkpt lat="28.3075370" lon="-16.5404020">
        <ele>2115.9</ele>
        <time>2020-11-11T18:22:01Z</time>
      </trkpt>
      <trkpt lat="28.3073050" lon="-16.5403230">
        <ele>2115.9</ele>
        <time>2020-11-11T18:22:02Z</time>
      </trkpt>
      <trkpt lat="28.3073050" lon="-16.5403230">
        <ele>2113.9</ele>
        <time>2020-11-11T18:22:03Z</time>
      </trkpt>
      <trkpt lat="28.3070630" lon="-16.5402700">
        <ele>2113.9</ele>
        <time>2020-11-11T18:22:04Z</time>
      </trkpt>
      <trkpt lat="28.3070630" lon="-16.5402700">
        <ele>2111.9</ele>
        <time>2020-11-11T18:22:05Z</time>
      </trkpt>
      <trkpt lat="28.3068150" lon="-16.5402830">
        <ele>2111.9</ele>
        <time>2020-11-11T18:22:06Z</time>
      </trkpt>
      <trkpt lat="28.3066950" lon="-16.5403230">
        <ele>2110.9</ele>
        <time>2020-11-11T18:22:07Z</time>
      </trkpt>
      <trkpt lat="28.3066950" lon="-16.5403230">
        <ele>2110.9</ele>
        <time>2020-11-11T18:22:08Z</time>
      </trkpt>
      <trkpt lat="28.3064870" lon="-16.5404820">
        <ele>2108.9</ele>
        <time>2020-11-11T18:22:09Z</time>
      </trkpt>
      <trkpt lat="28.3064120" lon="-16.5405930">
        <ele>2108.9</ele>
        <time>2020-11-11T18:22:10Z</time>
      </trkpt>
      <trkpt lat="28.3064120" lon="-16.5405930">
        <ele>2106.9</ele>
        <time>2020-11-11T18:22:11Z</time>
      </trkpt>
      <trkpt lat="28.3063170" lon="-16.5408580">
        <ele>2106.9</ele>
        <time>2020-11-11T18:22:12Z</time>
      </trkpt>
      <trkpt lat="28.3062920" lon="-16.5410000">
        <ele>2104.9</ele>
        <time>2020-11-11T18:22:13Z</time>
      </trkpt>
      <trkpt lat="28.3062920" lon="-16.5410000">
        <ele>2104.9</ele>
        <time>2020-11-11T18:22:14Z</time>
      </trkpt>
      <trkpt lat="28.3062700" lon="-16.5412870">
        <ele>2102.9</ele>
        <time>2020-11-11T18:22:15Z</time>
      </trkpt>
      <trkpt lat="28.3062700" lon="-16.5412870">
        <ele>2102.9</ele>
        <time>2020-11-11T18:22:16Z</time>
      </trkpt>
      <trkpt lat="28.3062630" lon="-16.5415780">
        <ele>2100.9</ele>
        <time>2020-11-11T18:22:17Z</time>
      </trkpt>
      <trkpt lat="28.3062630" lon="-16.5415780">
        <ele>2100.9</ele>
        <time>2020-11-11T18:22:18Z</time>
      </trkpt>
      <trkpt lat="28.3062600" lon="-16.5418620">
        <ele>2098.9</ele>
        <time>2020-11-11T18:22:19Z</time>
      </trkpt>
      <trkpt lat="28.3062600" lon="-16.5418620">
        <ele>2098.9</ele>
        <time>2020-11-11T18:22:20Z</time>
      </trkpt>
      <trkpt lat="28.3062550" lon="-16.5421430">
        <ele>2096.9</ele>
        <time>2020-11-11T18:22:21Z</time>
      </trkpt>
      <trkpt lat="28.3062530" lon="-16.5422850">
        <ele>2096.9</ele>
        <time>2020-11-11T18:22:22Z</time>
      </trkpt>
      <trkpt lat="28.3062530" lon="-16.5422850">
        <ele>2095.9</ele>
        <time>2020-11-11T18:22:23Z</time>
      </trkpt>
      <trkpt lat="28.3062550" lon="-16.5425650">
        <ele>2095.9</ele>
        <time>2020-11-11T18:22:24Z</time>
      </trkpt>
      <trkpt lat="28.3062550" lon="-16.5425650">
        <ele>2095.9</ele>
        <time>2020-11-11T18:22:25Z</time>
      </trkpt>
      <trkpt lat="28.3062550" lon="-16.5428430">
        <ele>2093.9</ele>
        <time>2020-11-11T18:22:26Z</time>
      </trkpt>
      <trkpt lat="28.3062550" lon="-16.5428430">
        <ele>2092.9</ele>
        <time>2020-11-11T18:22:27Z</time>
      </trkpt>
      <trkpt lat="28.3062520" lon="-16.5431170">
        <ele>2092.9</ele>
        <time>2020-11-11T18:22:28Z</time>
      </trkpt>
      <trkpt lat="28.3062520" lon="-16.5431170">
        <ele>2092.9</ele>
        <time>2020-11-11T18:22:29Z</time>
      </trkpt>
      <trkpt lat="28.3062480" lon="-16.5433850">
        <ele>2090.9</ele>
        <time>2020-11-11T18:22:30Z</time>
      </trkpt>
      <trkpt lat="28.3062480" lon="-16.5435130">
        <ele>2090.9</ele>
        <time>2020-11-11T18:22:31Z</time>
      </trkpt>
      <trkpt lat="28.3062480" lon="-16.5435130">
        <ele>2089.9</ele>
        <time>2020-11-11T18:22:32Z</time>
      </trkpt>
      <trkpt lat="28.3062450" lon="-16.5437650">
        <ele>2089.9</ele>
        <time>2020-11-11T18:22:33Z</time>
      </trkpt>
      <trkpt lat="28.3062450" lon="-16.5437650">
        <ele>2089.9</ele>
        <time>2020-11-11T18:22:34Z</time>
      </trkpt>
      <trkpt lat="28.3062430" lon="-16.5440080">
        <ele>2088.9</ele>
        <time>2020-11-11T18:22:35Z</time>
      </trkpt>
      <trkpt lat="28.3062430" lon="-16.5440080">
        <ele>2088.9</ele>
        <time>2020-11-11T18:22:36Z</time>
      </trkpt>
      <trkpt lat="28.3062400" lon="-16.5442450">
        <ele>2088.9</ele>
        <time>2020-11-11T18:22:37Z</time>
      </trkpt>
      <trkpt lat="28.3062400" lon="-16.5442450">
        <ele>2088.9</ele>
        <time>2020-11-11T18:22:38Z</time>
      </trkpt>
      <trkpt lat="28.3062400" lon="-16.5442450">
        <ele>2088.9</ele>
        <time>2020-11-11T18:22:39Z</time>
      </trkpt>
      <trkpt lat="28.3062400" lon="-16.5445870">
        <ele>2088.9</ele>
        <time>2020-11-11T18:22:40Z</time>
      </trkpt>
      <trkpt lat="28.3062400" lon="-16.5445870">
        <ele>2088.9</ele>
        <time>2020-11-11T18:22:41Z</time>
      </trkpt>
      <trkpt lat="28.3062380" lon="-16.5448070">
        <ele>2087.9</ele>
        <time>2020-11-11T18:22:42Z</time>
      </trkpt>
      <trkpt lat="28.3062380" lon="-16.5448070">
        <ele>2087.9</ele>
        <time>2020-11-11T18:22:43Z</time>
      </trkpt>
      <trkpt lat="28.3062350" lon="-16.5450280">
        <ele>2086.9</ele>
        <time>2020-11-11T18:22:44Z</time>
      </trkpt>
      <trkpt lat="28.3062350" lon="-16.5450280">
        <ele>2086.9</ele>
        <time>2020-11-11T18:22:45Z</time>
      </trkpt>
      <trkpt lat="28.3062300" lon="-16.5452580">
        <ele>2086.9</ele>
        <time>2020-11-11T18:22:46Z</time>
      </trkpt>
      <trkpt lat="28.3062300" lon="-16.5452580">
        <ele>2086.9</ele>
        <time>2020-11-11T18:22:47Z</time>
      </trkpt>
      <trkpt lat="28.3062280" lon="-16.5455020">
        <ele>2084.9</ele>
        <time>2020-11-11T18:22:48Z</time>
      </trkpt>
      <trkpt lat="28.3062280" lon="-16.5456280">
        <ele>2084.9</ele>
        <time>2020-11-11T18:22:49Z</time>
      </trkpt>
      <trkpt lat="28.3062280" lon="-16.5456280">
        <ele>2083.9</ele>
        <time>2020-11-11T18:22:50Z</time>
      </trkpt>
      <trkpt lat="28.3062250" lon="-16.5458850">
        <ele>2083.9</ele>
        <time>2020-11-11T18:22:51Z</time>
      </trkpt>
      <trkpt lat="28.3062250" lon="-16.5458850">
        <ele>2081.9</ele>
        <time>2020-11-11T18:22:52Z</time>
      </trkpt>
      <trkpt lat="28.3062270" lon="-16.5461500">
        <ele>2081.9</ele>
        <time>2020-11-11T18:22:53Z</time>
      </trkpt>
      <trkpt lat="28.3062270" lon="-16.5461500">
        <ele>2080.9</ele>
        <time>2020-11-11T18:22:54Z</time>
      </trkpt>
      <trkpt lat="28.3062270" lon="-16.5464180">
        <ele>2080.9</ele>
        <time>2020-11-11T18:22:55Z</time>
      </trkpt>
      <trkpt lat="28.3062270" lon="-16.5464180">
        <ele>2078.9</ele>
        <time>2020-11-11T18:22:56Z</time>
      </trkpt>
      <trkpt lat="28.3062220" lon="-16.5466920">
        <ele>2078.9</ele>
        <time>2020-11-11T18:22:57Z</time>
      </trkpt>
      <trkpt lat="28.3062220" lon="-16.5466920">
        <ele>2076.9</ele>
        <time>2020-11-11T18:22:58Z</time>
      </trkpt>
      <trkpt lat="28.3062220" lon="-16.5466920">
        <ele>2076.9</ele>
        <time>2020-11-11T18:22:59Z</time>
      </trkpt>
      <trkpt lat="28.3062180" lon="-16.5469730">
        <ele>2074.9</ele>
        <time>2020-11-11T18:23:00Z</time>
      </trkpt>
      <trkpt lat="28.3062150" lon="-16.5472600">
        <ele>2074.9</ele>
        <time>2020-11-11T18:23:01Z</time>
      </trkpt>
      <trkpt lat="28.3062150" lon="-16.5472600">
        <ele>2073.9</ele>
        <time>2020-11-11T18:23:02Z</time>
      </trkpt>
      <trkpt lat="28.3062170" lon="-16.5475530">
        <ele>2073.9</ele>
        <time>2020-11-11T18:23:03Z</time>
      </trkpt>
      <trkpt lat="28.3062170" lon="-16.5475530">
        <ele>2070.9</ele>
        <time>2020-11-11T18:23:04Z</time>
      </trkpt>
      <trkpt lat="28.3062150" lon="-16.5478520">
        <ele>2070.9</ele>
        <time>2020-11-11T18:23:05Z</time>
      </trkpt>
      <trkpt lat="28.3062120" lon="-16.5480030">
        <ele>2068.9</ele>
        <time>2020-11-11T18:23:06Z</time>
      </trkpt>
      <trkpt lat="28.3062080" lon="-16.5481570">
        <ele>2068.9</ele>
        <time>2020-11-11T18:23:07Z</time>
      </trkpt>
      <trkpt lat="28.3062080" lon="-16.5481570">
        <ele>2066.9</ele>
        <time>2020-11-11T18:23:08Z</time>
      </trkpt>
      <trkpt lat="28.3062070" lon="-16.5484670">
        <ele>2066.9</ele>
        <time>2020-11-11T18:23:09Z</time>
      </trkpt>
      <trkpt lat="28.3062070" lon="-16.5484670">
        <ele>2064.9</ele>
        <time>2020-11-11T18:23:10Z</time>
      </trkpt>
      <trkpt lat="28.3062030" lon="-16.5487800">
        <ele>2064.9</ele>
        <time>2020-11-11T18:23:11Z</time>
      </trkpt>
      <trkpt lat="28.3062030" lon="-16.5487800">
        <ele>2062.9</ele>
        <time>2020-11-11T18:23:12Z</time>
      </trkpt>
      <trkpt lat="28.3062020" lon="-16.5490970">
        <ele>2060.9</ele>
        <time>2020-11-11T18:23:13Z</time>
      </trkpt>
      <trkpt lat="28.3062020" lon="-16.5490970">
        <ele>2060.9</ele>
        <time>2020-11-11T18:23:14Z</time>
      </trkpt>
      <trkpt lat="28.3062000" lon="-16.5494120">
        <ele>2058.9</ele>
        <time>2020-11-11T18:23:15Z</time>
      </trkpt>
      <trkpt lat="28.3062000" lon="-16.5494120">
        <ele>2058.9</ele>
        <time>2020-11-11T18:23:16Z</time>
      </trkpt>
      <trkpt lat="28.3061980" lon="-16.5497250">
        <ele>2056.9</ele>
        <time>2020-11-11T18:23:17Z</time>
      </trkpt>
      <trkpt lat="28.3061980" lon="-16.5497250">
        <ele>2056.9</ele>
        <time>2020-11-11T18:23:18Z</time>
      </trkpt>
      <trkpt lat="28.3061980" lon="-16.5500230">
        <ele>2055.9</ele>
        <time>2020-11-11T18:23:19Z</time>
      </trkpt>
      <trkpt lat="28.3061980" lon="-16.5500230">
        <ele>2055.9</ele>
        <time>2020-11-11T18:23:20Z</time>
      </trkpt>
      <trkpt lat="28.3061980" lon="-16.5503000">
        <ele>2053.9</ele>
        <time>2020-11-11T18:23:21Z</time>
      </trkpt>
      <trkpt lat="28.3061980" lon="-16.5503000">
        <ele>2053.9</ele>
        <time>2020-11-11T18:23:22Z</time>
      </trkpt>
      <trkpt lat="28.3061970" lon="-16.5505600">
        <ele>2053.9</ele>
        <time>2020-11-11T18:23:23Z</time>
      </trkpt>
      <trkpt lat="28.3061970" lon="-16.5505600">
        <ele>2053.9</ele>
        <time>2020-11-11T18:23:24Z</time>
      </trkpt>
      <trkpt lat="28.3061970" lon="-16.5508030">
        <ele>2053.9</ele>
        <time>2020-11-11T18:23:25Z</time>
      </trkpt>
      <trkpt lat="28.3061970" lon="-16.5508030">
        <ele>2053.9</ele>
        <time>2020-11-11T18:23:26Z</time>
      </trkpt>
      <trkpt lat="28.3061920" lon="-16.5510320">
        <ele>2053.9</ele>
        <time>2020-11-11T18:23:27Z</time>
      </trkpt>
      <trkpt lat="28.3061920" lon="-16.5510320">
        <ele>2053.9</ele>
        <time>2020-11-11T18:23:28Z</time>
      </trkpt>
      <trkpt lat="28.3061950" lon="-16.5512520">
        <ele>2051.9</ele>
        <time>2020-11-11T18:23:29Z</time>
      </trkpt>
      <trkpt lat="28.3061950" lon="-16.5512520">
        <ele>2051.9</ele>
        <time>2020-11-11T18:23:30Z</time>
      </trkpt>
      <trkpt lat="28.3061950" lon="-16.5514620">
        <ele>2051.9</ele>
        <time>2020-11-11T18:23:31Z</time>
      </trkpt>
      <trkpt lat="28.3061950" lon="-16.5514620">
        <ele>2051.9</ele>
        <time>2020-11-11T18:23:32Z</time>
      </trkpt>
      <trkpt lat="28.3061930" lon="-16.5516630">
        <ele>2051.9</ele>
        <time>2020-11-11T18:23:33Z</time>
      </trkpt>
      <trkpt lat="28.3061930" lon="-16.5516630">
        <ele>2051.9</ele>
        <time>2020-11-11T18:23:34Z</time>
      </trkpt>
      <trkpt lat="28.3061930" lon="-16.5518730">
        <ele>2051.9</ele>
        <time>2020-11-11T18:23:35Z</time>
      </trkpt>
      <trkpt lat="28.3061930" lon="-16.5518730">
        <ele>2051.9</ele>
        <time>2020-11-11T18:23:36Z</time>
      </trkpt>
      <trkpt lat="28.3061950" lon="-16.5520920">
        <ele>2051.9</ele>
        <time>2020-11-11T18:23:37Z</time>
      </trkpt>
      <trkpt lat="28.3061950" lon="-16.5520920">
        <ele>2051.9</ele>
        <time>2020-11-11T18:23:38Z</time>
      </trkpt>
      <trkpt lat="28.3061970" lon="-16.5523180">
        <ele>2049.9</ele>
        <time>2020-11-11T18:23:39Z</time>
      </trkpt>
      <trkpt lat="28.3061970" lon="-16.5523180">
        <ele>2049.9</ele>
        <time>2020-11-11T18:23:40Z</time>
      </trkpt>
      <trkpt lat="28.3061970" lon="-16.5524350">
        <ele>2048.9</ele>
        <time>2020-11-11T18:23:41Z</time>
      </trkpt>
      <trkpt lat="28.3061930" lon="-16.5526750">
        <ele>2048.9</ele>
        <time>2020-11-11T18:23:42Z</time>
      </trkpt>
      <trkpt lat="28.3061930" lon="-16.5526750">
        <ele>2047.9</ele>
        <time>2020-11-11T18:23:43Z</time>
      </trkpt>
      <trkpt lat="28.3061900" lon="-16.5529200">
        <ele>2047.9</ele>
        <time>2020-11-11T18:23:44Z</time>
      </trkpt>
      <trkpt lat="28.3061900" lon="-16.5529200">
        <ele>2046.9</ele>
        <time>2020-11-11T18:23:45Z</time>
      </trkpt>
      <trkpt lat="28.3061900" lon="-16.5531720">
        <ele>2046.9</ele>
        <time>2020-11-11T18:23:46Z</time>
      </trkpt>
      <trkpt lat="28.3061900" lon="-16.5531720">
        <ele>2044.9</ele>
        <time>2020-11-11T18:23:47Z</time>
      </trkpt>
      <trkpt lat="28.3061830" lon="-16.5534300">
        <ele>2044.9</ele>
        <time>2020-11-11T18:23:48Z</time>
      </trkpt>
      <trkpt lat="28.3061830" lon="-16.5535620">
        <ele>2043.9</ele>
        <time>2020-11-11T18:23:49Z</time>
      </trkpt>
      <trkpt lat="28.3061830" lon="-16.5535620">
        <ele>2043.9</ele>
        <time>2020-11-11T18:23:50Z</time>
      </trkpt>
      <trkpt lat="28.3061830" lon="-16.5538300">
        <ele>2042.9</ele>
        <time>2020-11-11T18:23:51Z</time>
      </trkpt>
      <trkpt lat="28.3061830" lon="-16.5538300">
        <ele>2041.9</ele>
        <time>2020-11-11T18:23:52Z</time>
      </trkpt>
      <trkpt lat="28.3061800" lon="-16.5541030">
        <ele>2041.9</ele>
        <time>2020-11-11T18:23:53Z</time>
      </trkpt>
      <trkpt lat="28.3061800" lon="-16.5541030">
        <ele>2039.9</ele>
        <time>2020-11-11T18:23:54Z</time>
      </trkpt>
      <trkpt lat="28.3061770" lon="-16.5543820">
        <ele>2039.9</ele>
        <time>2020-11-11T18:23:55Z</time>
      </trkpt>
      <trkpt lat="28.3061770" lon="-16.5543820">
        <ele>2038.9</ele>
        <time>2020-11-11T18:23:56Z</time>
      </trkpt>
      <trkpt lat="28.3061750" lon="-16.5546670">
        <ele>2038.9</ele>
        <time>2020-11-11T18:23:57Z</time>
      </trkpt>
      <trkpt lat="28.3061750" lon="-16.5548080">
        <ele>2036.9</ele>
        <time>2020-11-11T18:23:58Z</time>
      </trkpt>
      <trkpt lat="28.3061750" lon="-16.5548080">
        <ele>2036.9</ele>
        <time>2020-11-11T18:23:59Z</time>
      </trkpt>
      <trkpt lat="28.3061730" lon="-16.5550880">
        <ele>2034.9</ele>
        <time>2020-11-11T18:24:00Z</time>
      </trkpt>
      <trkpt lat="28.3061730" lon="-16.5550880">
        <ele>2034.9</ele>
        <time>2020-11-11T18:24:01Z</time>
      </trkpt>
      <trkpt lat="28.3061730" lon="-16.5550880">
        <ele>2031.9</ele>
        <time>2020-11-11T18:24:02Z</time>
      </trkpt>
      <trkpt lat="28.3061680" lon="-16.5553280">
        <ele>2031.9</ele>
        <time>2020-11-11T18:24:03Z</time>
      </trkpt>
      <trkpt lat="28.3061670" lon="-16.5555580">
        <ele>2029.9</ele>
        <time>2020-11-11T18:24:04Z</time>
      </trkpt>
      <trkpt lat="28.3061670" lon="-16.5556720">
        <ele>2029.9</ele>
        <time>2020-11-11T18:24:05Z</time>
      </trkpt>
      <trkpt lat="28.3061670" lon="-16.5556720">
        <ele>2028.9</ele>
        <time>2020-11-11T18:24:06Z</time>
      </trkpt>
      <trkpt lat="28.3061670" lon="-16.5559070">
        <ele>2028.9</ele>
        <time>2020-11-11T18:24:07Z</time>
      </trkpt>
      <trkpt lat="28.3061670" lon="-16.5559070">
        <ele>2026.9</ele>
        <time>2020-11-11T18:24:08Z</time>
      </trkpt>
      <trkpt lat="28.3061680" lon="-16.5561520">
        <ele>2026.9</ele>
        <time>2020-11-11T18:24:09Z</time>
      </trkpt>
      <trkpt lat="28.3061680" lon="-16.5561520">
        <ele>2024.9</ele>
        <time>2020-11-11T18:24:10Z</time>
      </trkpt>
      <trkpt lat="28.3061670" lon="-16.5564050">
        <ele>2024.9</ele>
        <time>2020-11-11T18:24:11Z</time>
      </trkpt>
      <trkpt lat="28.3061670" lon="-16.5565330">
        <ele>2024.9</ele>
        <time>2020-11-11T18:24:12Z</time>
      </trkpt>
      <trkpt lat="28.3061670" lon="-16.5565330">
        <ele>2023.9</ele>
        <time>2020-11-11T18:24:13Z</time>
      </trkpt>
      <trkpt lat="28.3061630" lon="-16.5568000">
        <ele>2023.9</ele>
        <time>2020-11-11T18:24:14Z</time>
      </trkpt>
      <trkpt lat="28.3061630" lon="-16.5568000">
        <ele>2023.9</ele>
        <time>2020-11-11T18:24:15Z</time>
      </trkpt>
      <trkpt lat="28.3061630" lon="-16.5570720">
        <ele>2021.9</ele>
        <time>2020-11-11T18:24:16Z</time>
      </trkpt>
      <trkpt lat="28.3061630" lon="-16.5570720">
        <ele>2021.9</ele>
        <time>2020-11-11T18:24:17Z</time>
      </trkpt>
      <trkpt lat="28.3061670" lon="-16.5573500">
        <ele>2020.9</ele>
        <time>2020-11-11T18:24:18Z</time>
      </trkpt>
      <trkpt lat="28.3061670" lon="-16.5573500">
        <ele>2020.9</ele>
        <time>2020-11-11T18:24:19Z</time>
      </trkpt>
      <trkpt lat="28.3061680" lon="-16.5576330">
        <ele>2018.9</ele>
        <time>2020-11-11T18:24:20Z</time>
      </trkpt>
      <trkpt lat="28.3061680" lon="-16.5576330">
        <ele>2018.9</ele>
        <time>2020-11-11T18:24:21Z</time>
      </trkpt>
      <trkpt lat="28.3061630" lon="-16.5579270">
        <ele>2016.9</ele>
        <time>2020-11-11T18:24:22Z</time>
      </trkpt>
      <trkpt lat="28.3061630" lon="-16.5579270">
        <ele>2016.9</ele>
        <time>2020-11-11T18:24:23Z</time>
      </trkpt>
      <trkpt lat="28.3061630" lon="-16.5579270">
        <ele>2013.9</ele>
        <time>2020-11-11T18:24:24Z</time>
      </trkpt>
      <trkpt lat="28.3061620" lon="-16.5583800">
        <ele>2013.9</ele>
        <time>2020-11-11T18:24:25Z</time>
      </trkpt>
      <trkpt lat="28.3061620" lon="-16.5583800">
        <ele>2011.9</ele>
        <time>2020-11-11T18:24:26Z</time>
      </trkpt>
      <trkpt lat="28.3061630" lon="-16.5586880">
        <ele>2011.9</ele>
        <time>2020-11-11T18:24:27Z</time>
      </trkpt>
      <trkpt lat="28.3061630" lon="-16.5586880">
        <ele>2008.9</ele>
        <time>2020-11-11T18:24:28Z</time>
      </trkpt>
      <trkpt lat="28.3061600" lon="-16.5590000">
        <ele>2008.9</ele>
        <time>2020-11-11T18:24:29Z</time>
      </trkpt>
      <trkpt lat="28.3061580" lon="-16.5591580">
        <ele>2005.9</ele>
        <time>2020-11-11T18:24:30Z</time>
      </trkpt>
      <trkpt lat="28.3061580" lon="-16.5591580">
        <ele>2003.9</ele>
        <time>2020-11-11T18:24:31Z</time>
      </trkpt>
      <trkpt lat="28.3061570" lon="-16.5594780">
        <ele>2003.9</ele>
        <time>2020-11-11T18:24:32Z</time>
      </trkpt>
      <trkpt lat="28.3061570" lon="-16.5594780">
        <ele>2000.9</ele>
        <time>2020-11-11T18:24:33Z</time>
      </trkpt>
      <trkpt lat="28.3061570" lon="-16.5598020">
        <ele>2000.9</ele>
        <time>2020-11-11T18:24:34Z</time>
      </trkpt>
      <trkpt lat="28.3061570" lon="-16.5599630">
        <ele>1998.9</ele>
        <time>2020-11-11T18:24:35Z</time>
      </trkpt>
      <trkpt lat="28.3061570" lon="-16.5599630">
        <ele>1998.9</ele>
        <time>2020-11-11T18:24:36Z</time>
      </trkpt>
      <trkpt lat="28.3061570" lon="-16.5602880">
        <ele>1995.9</ele>
        <time>2020-11-11T18:24:37Z</time>
      </trkpt>
      <trkpt lat="28.3061570" lon="-16.5602880">
        <ele>1995.9</ele>
        <time>2020-11-11T18:24:38Z</time>
      </trkpt>
      <trkpt lat="28.3061570" lon="-16.5606170">
        <ele>1993.9</ele>
        <time>2020-11-11T18:24:39Z</time>
      </trkpt>
      <trkpt lat="28.3061570" lon="-16.5606170">
        <ele>1993.9</ele>
        <time>2020-11-11T18:24:40Z</time>
      </trkpt>
      <trkpt lat="28.3061570" lon="-16.5609450">
        <ele>1990.9</ele>
        <time>2020-11-11T18:24:41Z</time>
      </trkpt>
      <trkpt lat="28.3061570" lon="-16.5611100">
        <ele>1990.9</ele>
        <time>2020-11-11T18:24:42Z</time>
      </trkpt>
      <trkpt lat="28.3061570" lon="-16.5612750">
        <ele>1987.9</ele>
        <time>2020-11-11T18:24:43Z</time>
      </trkpt>
      <trkpt lat="28.3061570" lon="-16.5612750">
        <ele>1987.9</ele>
        <time>2020-11-11T18:24:44Z</time>
      </trkpt>
      <trkpt lat="28.3061580" lon="-16.5616030">
        <ele>1984.9</ele>
        <time>2020-11-11T18:24:45Z</time>
      </trkpt>
      <trkpt lat="28.3061580" lon="-16.5616030">
        <ele>1984.9</ele>
        <time>2020-11-11T18:24:46Z</time>
      </trkpt>
      <trkpt lat="28.3061600" lon="-16.5619320">
        <ele>1981.9</ele>
        <time>2020-11-11T18:24:47Z</time>
      </trkpt>
      <trkpt lat="28.3061600" lon="-16.5619320">
        <ele>1981.9</ele>
        <time>2020-11-11T18:24:48Z</time>
      </trkpt>
      <trkpt lat="28.3061600" lon="-16.5622630">
        <ele>1978.9</ele>
        <time>2020-11-11T18:24:49Z</time>
      </trkpt>
      <trkpt lat="28.3061600" lon="-16.5622630">
        <ele>1978.9</ele>
        <time>2020-11-11T18:24:50Z</time>
      </trkpt>
      <trkpt lat="28.3061530" lon="-16.5626000">
        <ele>1975.9</ele>
        <time>2020-11-11T18:24:51Z</time>
      </trkpt>
      <trkpt lat="28.3061530" lon="-16.5626000">
        <ele>1975.9</ele>
        <time>2020-11-11T18:24:52Z</time>
      </trkpt>
      <trkpt lat="28.3061550" lon="-16.5629380">
        <ele>1973.9</ele>
        <time>2020-11-11T18:24:53Z</time>
      </trkpt>
      <trkpt lat="28.3061550" lon="-16.5629380">
        <ele>1973.9</ele>
        <time>2020-11-11T18:24:54Z</time>
      </trkpt>
      <trkpt lat="28.3061530" lon="-16.5632720">
        <ele>1971.9</ele>
        <time>2020-11-11T18:24:55Z</time>
      </trkpt>
      <trkpt lat="28.3061530" lon="-16.5632720">
        <ele>1971.9</ele>
        <time>2020-11-11T18:24:56Z</time>
      </trkpt>
      <trkpt lat="28.3061570" lon="-16.5635980">
        <ele>1968.9</ele>
        <time>2020-11-11T18:24:57Z</time>
      </trkpt>
      <trkpt lat="28.3061570" lon="-16.5635980">
        <ele>1968.9</ele>
        <time>2020-11-11T18:24:58Z</time>
      </trkpt>
      <trkpt lat="28.3061550" lon="-16.5639020">
        <ele>1966.9</ele>
        <time>2020-11-11T18:24:59Z</time>
      </trkpt>
      <trkpt lat="28.3061550" lon="-16.5639020">
        <ele>1966.9</ele>
        <time>2020-11-11T18:25:00Z</time>
      </trkpt>
      <trkpt lat="28.3061100" lon="-16.5641630">
        <ele>1964.9</ele>
        <time>2020-11-11T18:25:01Z</time>
      </trkpt>
      <trkpt lat="28.3061100" lon="-16.5641630">
        <ele>1964.9</ele>
        <time>2020-11-11T18:25:02Z</time>
      </trkpt>
      <trkpt lat="28.3060150" lon="-16.5643570">
        <ele>1964.9</ele>
        <time>2020-11-11T18:25:03Z</time>
      </trkpt>
      <trkpt lat="28.3060150" lon="-16.5643570">
        <ele>1963.9</ele>
        <time>2020-11-11T18:25:04Z</time>
      </trkpt>
      <trkpt lat="28.3058980" lon="-16.5644770">
        <ele>1963.9</ele>
        <time>2020-11-11T18:25:05Z</time>
      </trkpt>
      <trkpt lat="28.3058980" lon="-16.5644770">
        <ele>1963.9</ele>
        <time>2020-11-11T18:25:06Z</time>
      </trkpt>
      <trkpt lat="28.3057970" lon="-16.5645520">
        <ele>1963.9</ele>
        <time>2020-11-11T18:25:07Z</time>
      </trkpt>
      <trkpt lat="28.3057970" lon="-16.5645520">
        <ele>1963.9</ele>
        <time>2020-11-11T18:25:08Z</time>
      </trkpt>
      <trkpt lat="28.3057030" lon="-16.5645870">
        <ele>1965.9</ele>
        <time>2020-11-11T18:25:09Z</time>
      </trkpt>
      <trkpt lat="28.3057030" lon="-16.5645870">
        <ele>1965.9</ele>
        <time>2020-11-11T18:25:10Z</time>
      </trkpt>
      <trkpt lat="28.3056130" lon="-16.5645970">
        <ele>1965.9</ele>
        <time>2020-11-11T18:25:11Z</time>
      </trkpt>
      <trkpt lat="28.3056130" lon="-16.5645970">
        <ele>1965.9</ele>
        <time>2020-11-11T18:25:12Z</time>
      </trkpt>
      <trkpt lat="28.3056130" lon="-16.5645970">
        <ele>1965.9</ele>
        <time>2020-11-11T18:25:13Z</time>
      </trkpt>
      <trkpt lat="28.3055420" lon="-16.5645920">
        <ele>1966.9</ele>
        <time>2020-11-11T18:25:14Z</time>
      </trkpt>
      <trkpt lat="28.3054850" lon="-16.5645930">
        <ele>1966.9</ele>
        <time>2020-11-11T18:25:15Z</time>
      </trkpt>
      <trkpt lat="28.3054570" lon="-16.5645980">
        <ele>1966.9</ele>
        <time>2020-11-11T18:25:16Z</time>
      </trkpt>
      <trkpt lat="28.3054570" lon="-16.5645980">
        <ele>1966.9</ele>
        <time>2020-11-11T18:25:17Z</time>
      </trkpt>
      <trkpt lat="28.3054000" lon="-16.5646050">
        <ele>1968.9</ele>
        <time>2020-11-11T18:25:18Z</time>
      </trkpt>
      <trkpt lat="28.3053770" lon="-16.5646050">
        <ele>1968.9</ele>
        <time>2020-11-11T18:25:19Z</time>
      </trkpt>
      <trkpt lat="28.3053770" lon="-16.5646050">
        <ele>1968.9</ele>
        <time>2020-11-11T18:25:20Z</time>
      </trkpt>
      <trkpt lat="28.3053320" lon="-16.5646030">
        <ele>1968.9</ele>
        <time>2020-11-11T18:25:21Z</time>
      </trkpt>
      <trkpt lat="28.3053100" lon="-16.5646050">
        <ele>1968.9</ele>
        <time>2020-11-11T18:25:22Z</time>
      </trkpt>
      <trkpt lat="28.3053100" lon="-16.5646050">
        <ele>1968.9</ele>
        <time>2020-11-11T18:25:23Z</time>
      </trkpt>
      <trkpt lat="28.3052670" lon="-16.5646170">
        <ele>1968.9</ele>
        <time>2020-11-11T18:25:24Z</time>
      </trkpt>
      <trkpt lat="28.3052430" lon="-16.5646200">
        <ele>1968.9</ele>
        <time>2020-11-11T18:25:25Z</time>
      </trkpt>
      <trkpt lat="28.3052430" lon="-16.5646200">
        <ele>1968.9</ele>
        <time>2020-11-11T18:25:26Z</time>
      </trkpt>
      <trkpt lat="28.3051950" lon="-16.5646300">
        <ele>1968.9</ele>
        <time>2020-11-11T18:25:27Z</time>
      </trkpt>
      <trkpt lat="28.3051720" lon="-16.5646370">
        <ele>1969.9</ele>
        <time>2020-11-11T18:25:28Z</time>
      </trkpt>
      <trkpt lat="28.3051500" lon="-16.5646430">
        <ele>1969.9</ele>
        <time>2020-11-11T18:25:29Z</time>
      </trkpt>
      <trkpt lat="28.3051500" lon="-16.5646430">
        <ele>1970.9</ele>
        <time>2020-11-11T18:25:30Z</time>
      </trkpt>
      <trkpt lat="28.3051080" lon="-16.5646630">
        <ele>1970.9</ele>
        <time>2020-11-11T18:25:31Z</time>
      </trkpt>
      <trkpt lat="28.3051080" lon="-16.5646630">
        <ele>1970.9</ele>
        <time>2020-11-11T18:25:32Z</time>
      </trkpt>
      <trkpt lat="28.3050730" lon="-16.5646930">
        <ele>1970.9</ele>
        <time>2020-11-11T18:25:33Z</time>
      </trkpt>
      <trkpt lat="28.3050570" lon="-16.5647120">
        <ele>1970.9</ele>
        <time>2020-11-11T18:25:34Z</time>
      </trkpt>
      <trkpt lat="28.3050570" lon="-16.5647120">
        <ele>1970.9</ele>
        <time>2020-11-11T18:25:35Z</time>
      </trkpt>
      <trkpt lat="28.3050250" lon="-16.5647480">
        <ele>1971.9</ele>
        <time>2020-11-11T18:25:36Z</time>
      </trkpt>
      <trkpt lat="28.3050100" lon="-16.5647670">
        <ele>1971.9</ele>
        <time>2020-11-11T18:25:37Z</time>
      </trkpt>
      <trkpt lat="28.3050100" lon="-16.5647670">
        <ele>1971.9</ele>
        <time>2020-11-11T18:25:38Z</time>
      </trkpt>
      <trkpt lat="28.3049770" lon="-16.5648050">
        <ele>1971.9</ele>
        <time>2020-11-11T18:25:39Z</time>
      </trkpt>
      <trkpt lat="28.3049600" lon="-16.5648230">
        <ele>1972.9</ele>
        <time>2020-11-11T18:25:40Z</time>
      </trkpt>
      <trkpt lat="28.3049600" lon="-16.5648230">
        <ele>1972.9</ele>
        <time>2020-11-11T18:25:41Z</time>
      </trkpt>
      <trkpt lat="28.3049270" lon="-16.5648600">
        <ele>1972.9</ele>
        <time>2020-11-11T18:25:42Z</time>
      </trkpt>
      <trkpt lat="28.3049100" lon="-16.5648780">
        <ele>1972.9</ele>
        <time>2020-11-11T18:25:43Z</time>
      </trkpt>
      <trkpt lat="28.3049100" lon="-16.5648780">
        <ele>1972.9</ele>
        <time>2020-11-11T18:25:44Z</time>
      </trkpt>
      <trkpt lat="28.3048780" lon="-16.5649150">
        <ele>1972.9</ele>
        <time>2020-11-11T18:25:45Z</time>
      </trkpt>
      <trkpt lat="28.3048620" lon="-16.5649350">
        <ele>1973.9</ele>
        <time>2020-11-11T18:25:46Z</time>
      </trkpt>
      <trkpt lat="28.3048620" lon="-16.5649350">
        <ele>1973.9</ele>
        <time>2020-11-11T18:25:47Z</time>
      </trkpt>
      <trkpt lat="28.3048320" lon="-16.5649770">
        <ele>1973.9</ele>
        <time>2020-11-11T18:25:48Z</time>
      </trkpt>
      <trkpt lat="28.3048320" lon="-16.5649770">
        <ele>1973.9</ele>
        <time>2020-11-11T18:25:49Z</time>
      </trkpt>
      <trkpt lat="28.3048000" lon="-16.5650180">
        <ele>1973.9</ele>
        <time>2020-11-11T18:25:50Z</time>
      </trkpt>
      <trkpt lat="28.3048000" lon="-16.5650180">
        <ele>1973.9</ele>
        <time>2020-11-11T18:25:51Z</time>
      </trkpt>
      <trkpt lat="28.3047720" lon="-16.5650550">
        <ele>1973.9</ele>
        <time>2020-11-11T18:25:52Z</time>
      </trkpt>
      <trkpt lat="28.3047720" lon="-16.5650550">
        <ele>1974.9</ele>
        <time>2020-11-11T18:25:53Z</time>
      </trkpt>
      <trkpt lat="28.3047430" lon="-16.5650930">
        <ele>1974.9</ele>
        <time>2020-11-11T18:25:54Z</time>
      </trkpt>
      <trkpt lat="28.3047280" lon="-16.5651130">
        <ele>1974.9</ele>
        <time>2020-11-11T18:25:55Z</time>
      </trkpt>
      <trkpt lat="28.3047280" lon="-16.5651130">
        <ele>1974.9</ele>
        <time>2020-11-11T18:25:56Z</time>
      </trkpt>
      <trkpt lat="28.3046950" lon="-16.5651520">
        <ele>1974.9</ele>
        <time>2020-11-11T18:25:57Z</time>
      </trkpt>
      <trkpt lat="28.3046950" lon="-16.5651520">
        <ele>1974.9</ele>
        <time>2020-11-11T18:25:58Z</time>
      </trkpt>
      <trkpt lat="28.3046950" lon="-16.5651520">
        <ele>1975.9</ele>
        <time>2020-11-11T18:25:59Z</time>
      </trkpt>
      <trkpt lat="28.3046600" lon="-16.5651880">
        <ele>1975.9</ele>
        <time>2020-11-11T18:26:00Z</time>
      </trkpt>
      <trkpt lat="28.3046270" lon="-16.5652230">
        <ele>1975.9</ele>
        <time>2020-11-11T18:26:01Z</time>
      </trkpt>
      <trkpt lat="28.3046270" lon="-16.5652230">
        <ele>1975.9</ele>
        <time>2020-11-11T18:26:02Z</time>
      </trkpt>
      <trkpt lat="28.3045950" lon="-16.5652600">
        <ele>1975.9</ele>
        <time>2020-11-11T18:26:03Z</time>
      </trkpt>
      <trkpt lat="28.3045950" lon="-16.5652600">
        <ele>1975.9</ele>
        <time>2020-11-11T18:26:04Z</time>
      </trkpt>
      <trkpt lat="28.3045680" lon="-16.5652980">
        <ele>1976.9</ele>
        <time>2020-11-11T18:26:05Z</time>
      </trkpt>
      <trkpt lat="28.3045680" lon="-16.5652980">
        <ele>1976.9</ele>
        <time>2020-11-11T18:26:06Z</time>
      </trkpt>
      <trkpt lat="28.3045430" lon="-16.5653350">
        <ele>1976.9</ele>
        <time>2020-11-11T18:26:07Z</time>
      </trkpt>
      <trkpt lat="28.3045430" lon="-16.5653350">
        <ele>1976.9</ele>
        <time>2020-11-11T18:26:08Z</time>
      </trkpt>
      <trkpt lat="28.3045150" lon="-16.5653720">
        <ele>1976.9</ele>
        <time>2020-11-11T18:26:09Z</time>
      </trkpt>
      <trkpt lat="28.3045020" lon="-16.5653920">
        <ele>1976.9</ele>
        <time>2020-11-11T18:26:10Z</time>
      </trkpt>
      <trkpt lat="28.3045020" lon="-16.5653920">
        <ele>1976.9</ele>
        <time>2020-11-11T18:26:11Z</time>
      </trkpt>
      <trkpt lat="28.3044700" lon="-16.5654320">
        <ele>1976.9</ele>
        <time>2020-11-11T18:26:12Z</time>
      </trkpt>
      <trkpt lat="28.3044570" lon="-16.5654520">
        <ele>1976.9</ele>
        <time>2020-11-11T18:26:13Z</time>
      </trkpt>
      <trkpt lat="28.3044570" lon="-16.5654520">
        <ele>1976.9</ele>
        <time>2020-11-11T18:26:14Z</time>
      </trkpt>
      <trkpt lat="28.3044250" lon="-16.5654900">
        <ele>1976.9</ele>
        <time>2020-11-11T18:26:15Z</time>
      </trkpt>
      <trkpt lat="28.3044250" lon="-16.5654900">
        <ele>1976.9</ele>
        <time>2020-11-11T18:26:16Z</time>
      </trkpt>
      <trkpt lat="28.3043920" lon="-16.5655280">
        <ele>1977.9</ele>
        <time>2020-11-11T18:26:17Z</time>
      </trkpt>
      <trkpt lat="28.3043920" lon="-16.5655280">
        <ele>1977.9</ele>
        <time>2020-11-11T18:26:18Z</time>
      </trkpt>
      <trkpt lat="28.3043580" lon="-16.5655670">
        <ele>1977.9</ele>
        <time>2020-11-11T18:26:19Z</time>
      </trkpt>
      <trkpt lat="28.3043580" lon="-16.5655670">
        <ele>1977.9</ele>
        <time>2020-11-11T18:26:20Z</time>
      </trkpt>
      <trkpt lat="28.3043250" lon="-16.5656050">
        <ele>1977.9</ele>
        <time>2020-11-11T18:26:21Z</time>
      </trkpt>
      <trkpt lat="28.3043250" lon="-16.5656050">
        <ele>1977.9</ele>
        <time>2020-11-11T18:26:22Z</time>
      </trkpt>
      <trkpt lat="28.3042930" lon="-16.5656420">
        <ele>1978.9</ele>
        <time>2020-11-11T18:26:23Z</time>
      </trkpt>
      <trkpt lat="28.3042770" lon="-16.5656600">
        <ele>1978.9</ele>
        <time>2020-11-11T18:26:24Z</time>
      </trkpt>
      <trkpt lat="28.3042770" lon="-16.5656600">
        <ele>1978.9</ele>
        <time>2020-11-11T18:26:25Z</time>
      </trkpt>
      <trkpt lat="28.3042450" lon="-16.5656980">
        <ele>1978.9</ele>
        <time>2020-11-11T18:26:26Z</time>
      </trkpt>
      <trkpt lat="28.3042450" lon="-16.5656980">
        <ele>1978.9</ele>
        <time>2020-11-11T18:26:27Z</time>
      </trkpt>
      <trkpt lat="28.3042150" lon="-16.5657380">
        <ele>1978.9</ele>
        <time>2020-11-11T18:26:28Z</time>
      </trkpt>
      <trkpt lat="28.3042150" lon="-16.5657380">
        <ele>1979.9</ele>
        <time>2020-11-11T18:26:29Z</time>
      </trkpt>
      <trkpt lat="28.3041920" lon="-16.5657800">
        <ele>1979.9</ele>
        <time>2020-11-11T18:26:30Z</time>
      </trkpt>
      <trkpt lat="28.3041800" lon="-16.5658020">
        <ele>1979.9</ele>
        <time>2020-11-11T18:26:31Z</time>
      </trkpt>
      <trkpt lat="28.3041800" lon="-16.5658020">
        <ele>1979.9</ele>
        <time>2020-11-11T18:26:32Z</time>
      </trkpt>
      <trkpt lat="28.3041600" lon="-16.5658470">
        <ele>1980.9</ele>
        <time>2020-11-11T18:26:33Z</time>
      </trkpt>
      <trkpt lat="28.3041600" lon="-16.5658470">
        <ele>1980.9</ele>
        <time>2020-11-11T18:26:34Z</time>
      </trkpt>
      <trkpt lat="28.3041420" lon="-16.5658920">
        <ele>1980.9</ele>
        <time>2020-11-11T18:26:35Z</time>
      </trkpt>
      <trkpt lat="28.3041420" lon="-16.5658920">
        <ele>1980.9</ele>
        <time>2020-11-11T18:26:36Z</time>
      </trkpt>
      <trkpt lat="28.3041220" lon="-16.5659370">
        <ele>1980.9</ele>
        <time>2020-11-11T18:26:37Z</time>
      </trkpt>
      <trkpt lat="28.3041220" lon="-16.5659370">
        <ele>1980.9</ele>
        <time>2020-11-11T18:26:38Z</time>
      </trkpt>
      <trkpt lat="28.3041030" lon="-16.5659820">
        <ele>1981.9</ele>
        <time>2020-11-11T18:26:39Z</time>
      </trkpt>
      <trkpt lat="28.3041030" lon="-16.5659820">
        <ele>1981.9</ele>
        <time>2020-11-11T18:26:40Z</time>
      </trkpt>
      <trkpt lat="28.3040800" lon="-16.5660270">
        <ele>1981.9</ele>
        <time>2020-11-11T18:26:41Z</time>
      </trkpt>
      <trkpt lat="28.3040700" lon="-16.5660480">
        <ele>1981.9</ele>
        <time>2020-11-11T18:26:42Z</time>
      </trkpt>
      <trkpt lat="28.3040700" lon="-16.5660480">
        <ele>1981.9</ele>
        <time>2020-11-11T18:26:43Z</time>
      </trkpt>
      <trkpt lat="28.3040450" lon="-16.5660950">
        <ele>1981.9</ele>
        <time>2020-11-11T18:26:44Z</time>
      </trkpt>
      <trkpt lat="28.3040450" lon="-16.5660950">
        <ele>1981.9</ele>
        <time>2020-11-11T18:26:45Z</time>
      </trkpt>
      <trkpt lat="28.3040270" lon="-16.5661420">
        <ele>1981.9</ele>
        <time>2020-11-11T18:26:46Z</time>
      </trkpt>
      <trkpt lat="28.3040170" lon="-16.5661650">
        <ele>1982.9</ele>
        <time>2020-11-11T18:26:47Z</time>
      </trkpt>
      <trkpt lat="28.3040170" lon="-16.5661650">
        <ele>1982.9</ele>
        <time>2020-11-11T18:26:48Z</time>
      </trkpt>
      <trkpt lat="28.3039980" lon="-16.5662100">
        <ele>1982.9</ele>
        <time>2020-11-11T18:26:49Z</time>
      </trkpt>
      <trkpt lat="28.3039980" lon="-16.5662100">
        <ele>1982.9</ele>
        <time>2020-11-11T18:26:50Z</time>
      </trkpt>
      <trkpt lat="28.3039780" lon="-16.5662530">
        <ele>1982.9</ele>
        <time>2020-11-11T18:26:51Z</time>
      </trkpt>
      <trkpt lat="28.3039780" lon="-16.5662530">
        <ele>1982.9</ele>
        <time>2020-11-11T18:26:52Z</time>
      </trkpt>
      <trkpt lat="28.3039550" lon="-16.5662970">
        <ele>1983.9</ele>
        <time>2020-11-11T18:26:53Z</time>
      </trkpt>
      <trkpt lat="28.3039550" lon="-16.5662970">
        <ele>1983.9</ele>
        <time>2020-11-11T18:26:54Z</time>
      </trkpt>
      <trkpt lat="28.3039320" lon="-16.5663400">
        <ele>1983.9</ele>
        <time>2020-11-11T18:26:55Z</time>
      </trkpt>
      <trkpt lat="28.3039320" lon="-16.5663400">
        <ele>1983.9</ele>
        <time>2020-11-11T18:26:56Z</time>
      </trkpt>
      <trkpt lat="28.3039080" lon="-16.5663850">
        <ele>1983.9</ele>
        <time>2020-11-11T18:26:57Z</time>
      </trkpt>
      <trkpt lat="28.3039080" lon="-16.5663850">
        <ele>1983.9</ele>
        <time>2020-11-11T18:26:58Z</time>
      </trkpt>
      <trkpt lat="28.3038870" lon="-16.5664250">
        <ele>1983.9</ele>
        <time>2020-11-11T18:26:59Z</time>
      </trkpt>
      <trkpt lat="28.3038870" lon="-16.5664250">
        <ele>1983.9</ele>
        <time>2020-11-11T18:27:00Z</time>
      </trkpt>
      <trkpt lat="28.3038650" lon="-16.5664670">
        <ele>1984.9</ele>
        <time>2020-11-11T18:27:01Z</time>
      </trkpt>
      <trkpt lat="28.3038650" lon="-16.5664670">
        <ele>1984.9</ele>
        <time>2020-11-11T18:27:02Z</time>
      </trkpt>
      <trkpt lat="28.3038450" lon="-16.5665070">
        <ele>1984.9</ele>
        <time>2020-11-11T18:27:03Z</time>
      </trkpt>
      <trkpt lat="28.3038450" lon="-16.5665070">
        <ele>1984.9</ele>
        <time>2020-11-11T18:27:04Z</time>
      </trkpt>
      <trkpt lat="28.3038280" lon="-16.5665530">
        <ele>1984.9</ele>
        <time>2020-11-11T18:27:05Z</time>
      </trkpt>
      <trkpt lat="28.3038280" lon="-16.5665530">
        <ele>1984.9</ele>
        <time>2020-11-11T18:27:06Z</time>
      </trkpt>
      <trkpt lat="28.3038100" lon="-16.5665970">
        <ele>1985.9</ele>
        <time>2020-11-11T18:27:07Z</time>
      </trkpt>
      <trkpt lat="28.3038100" lon="-16.5665970">
        <ele>1985.9</ele>
        <time>2020-11-11T18:27:08Z</time>
      </trkpt>
      <trkpt lat="28.3037900" lon="-16.5666400">
        <ele>1985.9</ele>
        <time>2020-11-11T18:27:09Z</time>
      </trkpt>
      <trkpt lat="28.3037900" lon="-16.5666400">
        <ele>1985.9</ele>
        <time>2020-11-11T18:27:10Z</time>
      </trkpt>
      <trkpt lat="28.3037720" lon="-16.5666830">
        <ele>1985.9</ele>
        <time>2020-11-11T18:27:11Z</time>
      </trkpt>
      <trkpt lat="28.3037720" lon="-16.5666830">
        <ele>1985.9</ele>
        <time>2020-11-11T18:27:12Z</time>
      </trkpt>
      <trkpt lat="28.3037520" lon="-16.5667250">
        <ele>1985.9</ele>
        <time>2020-11-11T18:27:13Z</time>
      </trkpt>
      <trkpt lat="28.3037520" lon="-16.5667250">
        <ele>1986.9</ele>
        <time>2020-11-11T18:27:14Z</time>
      </trkpt>
      <trkpt lat="28.3037300" lon="-16.5667650">
        <ele>1986.9</ele>
        <time>2020-11-11T18:27:15Z</time>
      </trkpt>
      <trkpt lat="28.3037300" lon="-16.5667650">
        <ele>1986.9</ele>
        <time>2020-11-11T18:27:16Z</time>
      </trkpt>
      <trkpt lat="28.3037100" lon="-16.5668070">
        <ele>1986.9</ele>
        <time>2020-11-11T18:27:17Z</time>
      </trkpt>
      <trkpt lat="28.3037100" lon="-16.5668070">
        <ele>1987.9</ele>
        <time>2020-11-11T18:27:18Z</time>
      </trkpt>
      <trkpt lat="28.3036930" lon="-16.5668480">
        <ele>1987.9</ele>
        <time>2020-11-11T18:27:19Z</time>
      </trkpt>
      <trkpt lat="28.3036930" lon="-16.5668480">
        <ele>1987.9</ele>
        <time>2020-11-11T18:27:20Z</time>
      </trkpt>
      <trkpt lat="28.3036780" lon="-16.5668900">
        <ele>1987.9</ele>
        <time>2020-11-11T18:27:21Z</time>
      </trkpt>
      <trkpt lat="28.3036780" lon="-16.5668900">
        <ele>1987.9</ele>
        <time>2020-11-11T18:27:22Z</time>
      </trkpt>
      <trkpt lat="28.3036580" lon="-16.5669300">
        <ele>1987.9</ele>
        <time>2020-11-11T18:27:23Z</time>
      </trkpt>
      <trkpt lat="28.3036580" lon="-16.5669300">
        <ele>1988.9</ele>
        <time>2020-11-11T18:27:24Z</time>
      </trkpt>
      <trkpt lat="28.3036420" lon="-16.5669720">
        <ele>1988.9</ele>
        <time>2020-11-11T18:27:25Z</time>
      </trkpt>
      <trkpt lat="28.3036420" lon="-16.5669720">
        <ele>1988.9</ele>
        <time>2020-11-11T18:27:26Z</time>
      </trkpt>
      <trkpt lat="28.3036250" lon="-16.5670100">
        <ele>1988.9</ele>
        <time>2020-11-11T18:27:27Z</time>
      </trkpt>
      <trkpt lat="28.3036180" lon="-16.5670300">
        <ele>1988.9</ele>
        <time>2020-11-11T18:27:28Z</time>
      </trkpt>
      <trkpt lat="28.3036180" lon="-16.5670300">
        <ele>1988.9</ele>
        <time>2020-11-11T18:27:29Z</time>
      </trkpt>
      <trkpt lat="28.3036030" lon="-16.5670700">
        <ele>1988.9</ele>
        <time>2020-11-11T18:27:30Z</time>
      </trkpt>
      <trkpt lat="28.3036030" lon="-16.5670700">
        <ele>1988.9</ele>
        <time>2020-11-11T18:27:31Z</time>
      </trkpt>
      <trkpt lat="28.3035870" lon="-16.5671100">
        <ele>1988.9</ele>
        <time>2020-11-11T18:27:32Z</time>
      </trkpt>
      <trkpt lat="28.3035870" lon="-16.5671100">
        <ele>1988.9</ele>
        <time>2020-11-11T18:27:33Z</time>
      </trkpt>
      <trkpt lat="28.3035650" lon="-16.5671520">
        <ele>1987.9</ele>
        <time>2020-11-11T18:27:34Z</time>
      </trkpt>
      <trkpt lat="28.3035650" lon="-16.5671520">
        <ele>1987.9</ele>
        <time>2020-11-11T18:27:35Z</time>
      </trkpt>
      <trkpt lat="28.3035450" lon="-16.5671920">
        <ele>1989.9</ele>
        <time>2020-11-11T18:27:36Z</time>
      </trkpt>
      <trkpt lat="28.3035370" lon="-16.5672130">
        <ele>1989.9</ele>
        <time>2020-11-11T18:27:37Z</time>
      </trkpt>
      <trkpt lat="28.3035370" lon="-16.5672130">
        <ele>1989.9</ele>
        <time>2020-11-11T18:27:38Z</time>
      </trkpt>
      <trkpt lat="28.3035180" lon="-16.5672550">
        <ele>1989.9</ele>
        <time>2020-11-11T18:27:39Z</time>
      </trkpt>
      <trkpt lat="28.3035080" lon="-16.5672750">
        <ele>1990.9</ele>
        <time>2020-11-11T18:27:40Z</time>
      </trkpt>
      <trkpt lat="28.3035080" lon="-16.5672750">
        <ele>1990.9</ele>
        <time>2020-11-11T18:27:41Z</time>
      </trkpt>
      <trkpt lat="28.3034870" lon="-16.5673130">
        <ele>1990.9</ele>
        <time>2020-11-11T18:27:42Z</time>
      </trkpt>
      <trkpt lat="28.3034870" lon="-16.5673130">
        <ele>1990.9</ele>
        <time>2020-11-11T18:27:43Z</time>
      </trkpt>
      <trkpt lat="28.3034680" lon="-16.5673530">
        <ele>1990.9</ele>
        <time>2020-11-11T18:27:44Z</time>
      </trkpt>
      <trkpt lat="28.3034680" lon="-16.5673530">
        <ele>1990.9</ele>
        <time>2020-11-11T18:27:45Z</time>
      </trkpt>
      <trkpt lat="28.3034480" lon="-16.5674000">
        <ele>1990.9</ele>
        <time>2020-11-11T18:27:46Z</time>
      </trkpt>
      <trkpt lat="28.3034380" lon="-16.5674230">
        <ele>1990.9</ele>
        <time>2020-11-11T18:27:47Z</time>
      </trkpt>
      <trkpt lat="28.3034380" lon="-16.5674230">
        <ele>1990.9</ele>
        <time>2020-11-11T18:27:48Z</time>
      </trkpt>
      <trkpt lat="28.3034180" lon="-16.5674700">
        <ele>1990.9</ele>
        <time>2020-11-11T18:27:49Z</time>
      </trkpt>
      <trkpt lat="28.3034180" lon="-16.5674700">
        <ele>1990.9</ele>
        <time>2020-11-11T18:27:50Z</time>
      </trkpt>
      <trkpt lat="28.3033980" lon="-16.5675070">
        <ele>1991.9</ele>
        <time>2020-11-11T18:27:51Z</time>
      </trkpt>
      <trkpt lat="28.3033980" lon="-16.5675070">
        <ele>1991.9</ele>
        <time>2020-11-11T18:27:52Z</time>
      </trkpt>
      <trkpt lat="28.3033750" lon="-16.5675430">
        <ele>1991.9</ele>
        <time>2020-11-11T18:27:53Z</time>
      </trkpt>
      <trkpt lat="28.3033750" lon="-16.5675430">
        <ele>1991.9</ele>
        <time>2020-11-11T18:27:54Z</time>
      </trkpt>
      <trkpt lat="28.3033480" lon="-16.5675820">
        <ele>1991.9</ele>
        <time>2020-11-11T18:27:55Z</time>
      </trkpt>
      <trkpt lat="28.3033480" lon="-16.5675820">
        <ele>1992.9</ele>
        <time>2020-11-11T18:27:56Z</time>
      </trkpt>
      <trkpt lat="28.3033180" lon="-16.5676150">
        <ele>1992.9</ele>
        <time>2020-11-11T18:27:57Z</time>
      </trkpt>
      <trkpt lat="28.3033180" lon="-16.5676150">
        <ele>1992.9</ele>
        <time>2020-11-11T18:27:58Z</time>
      </trkpt>
      <trkpt lat="28.3032920" lon="-16.5676480">
        <ele>1992.9</ele>
        <time>2020-11-11T18:27:59Z</time>
      </trkpt>
      <trkpt lat="28.3032920" lon="-16.5676480">
        <ele>1992.9</ele>
        <time>2020-11-11T18:28:00Z</time>
      </trkpt>
      <trkpt lat="28.3032630" lon="-16.5676780">
        <ele>1992.9</ele>
        <time>2020-11-11T18:28:01Z</time>
      </trkpt>
      <trkpt lat="28.3032630" lon="-16.5676780">
        <ele>1992.9</ele>
        <time>2020-11-11T18:28:02Z</time>
      </trkpt>
      <trkpt lat="28.3032370" lon="-16.5677120">
        <ele>1992.9</ele>
        <time>2020-11-11T18:28:03Z</time>
      </trkpt>
      <trkpt lat="28.3032230" lon="-16.5677280">
        <ele>1993.9</ele>
        <time>2020-11-11T18:28:04Z</time>
      </trkpt>
      <trkpt lat="28.3032230" lon="-16.5677280">
        <ele>1993.9</ele>
        <time>2020-11-11T18:28:05Z</time>
      </trkpt>
      <trkpt lat="28.3031920" lon="-16.5677550">
        <ele>1993.9</ele>
        <time>2020-11-11T18:28:06Z</time>
      </trkpt>
      <trkpt lat="28.3031750" lon="-16.5677670">
        <ele>1993.9</ele>
        <time>2020-11-11T18:28:07Z</time>
      </trkpt>
      <trkpt lat="28.3031750" lon="-16.5677670">
        <ele>1993.9</ele>
        <time>2020-11-11T18:28:08Z</time>
      </trkpt>
      <trkpt lat="28.3031330" lon="-16.5677880">
        <ele>1993.9</ele>
        <time>2020-11-11T18:28:09Z</time>
      </trkpt>
      <trkpt lat="28.3031330" lon="-16.5677880">
        <ele>1993.9</ele>
        <time>2020-11-11T18:28:10Z</time>
      </trkpt>
      <trkpt lat="28.3030930" lon="-16.5678120">
        <ele>1993.9</ele>
        <time>2020-11-11T18:28:11Z</time>
      </trkpt>
      <trkpt lat="28.3030930" lon="-16.5678120">
        <ele>1994.9</ele>
        <time>2020-11-11T18:28:12Z</time>
      </trkpt>
      <trkpt lat="28.3030580" lon="-16.5678350">
        <ele>1994.9</ele>
        <time>2020-11-11T18:28:13Z</time>
      </trkpt>
      <trkpt lat="28.3030580" lon="-16.5678350">
        <ele>1994.9</ele>
        <time>2020-11-11T18:28:14Z</time>
      </trkpt>
      <trkpt lat="28.3030220" lon="-16.5678530">
        <ele>1994.9</ele>
        <time>2020-11-11T18:28:15Z</time>
      </trkpt>
      <trkpt lat="28.3030220" lon="-16.5678530">
        <ele>1994.9</ele>
        <time>2020-11-11T18:28:16Z</time>
      </trkpt>
      <trkpt lat="28.3029830" lon="-16.5678620">
        <ele>1994.9</ele>
        <time>2020-11-11T18:28:17Z</time>
      </trkpt>
      <trkpt lat="28.3029830" lon="-16.5678620">
        <ele>1995.9</ele>
        <time>2020-11-11T18:28:18Z</time>
      </trkpt>
      <trkpt lat="28.3029500" lon="-16.5678770">
        <ele>1995.9</ele>
        <time>2020-11-11T18:28:19Z</time>
      </trkpt>
      <trkpt lat="28.3029500" lon="-16.5678770">
        <ele>1995.9</ele>
        <time>2020-11-11T18:28:20Z</time>
      </trkpt>
      <trkpt lat="28.3029170" lon="-16.5678970">
        <ele>1995.9</ele>
        <time>2020-11-11T18:28:21Z</time>
      </trkpt>
      <trkpt lat="28.3029000" lon="-16.5679080">
        <ele>1995.9</ele>
        <time>2020-11-11T18:28:22Z</time>
      </trkpt>
      <trkpt lat="28.3029000" lon="-16.5679080">
        <ele>1995.9</ele>
        <time>2020-11-11T18:28:23Z</time>
      </trkpt>
      <trkpt lat="28.3028670" lon="-16.5679300">
        <ele>1995.9</ele>
        <time>2020-11-11T18:28:24Z</time>
      </trkpt>
      <trkpt lat="28.3028450" lon="-16.5679400">
        <ele>1995.9</ele>
        <time>2020-11-11T18:28:25Z</time>
      </trkpt>
      <trkpt lat="28.3028450" lon="-16.5679400">
        <ele>1995.9</ele>
        <time>2020-11-11T18:28:26Z</time>
      </trkpt>
      <trkpt lat="28.3028050" lon="-16.5679570">
        <ele>1995.9</ele>
        <time>2020-11-11T18:28:27Z</time>
      </trkpt>
      <trkpt lat="28.3027870" lon="-16.5679650">
        <ele>1995.9</ele>
        <time>2020-11-11T18:28:28Z</time>
      </trkpt>
      <trkpt lat="28.3027870" lon="-16.5679650">
        <ele>1995.9</ele>
        <time>2020-11-11T18:28:29Z</time>
      </trkpt>
      <trkpt lat="28.3027500" lon="-16.5679900">
        <ele>1995.9</ele>
        <time>2020-11-11T18:28:30Z</time>
      </trkpt>
      <trkpt lat="28.3027500" lon="-16.5679900">
        <ele>1995.9</ele>
        <time>2020-11-11T18:28:31Z</time>
      </trkpt>
      <trkpt lat="28.3027130" lon="-16.5680170">
        <ele>1996.9</ele>
        <time>2020-11-11T18:28:32Z</time>
      </trkpt>
      <trkpt lat="28.3027130" lon="-16.5680170">
        <ele>1996.9</ele>
        <time>2020-11-11T18:28:33Z</time>
      </trkpt>
      <trkpt lat="28.3026780" lon="-16.5680420">
        <ele>1996.9</ele>
        <time>2020-11-11T18:28:34Z</time>
      </trkpt>
      <trkpt lat="28.3026780" lon="-16.5680420">
        <ele>1996.9</ele>
        <time>2020-11-11T18:28:35Z</time>
      </trkpt>
      <trkpt lat="28.3026400" lon="-16.5680600">
        <ele>1996.9</ele>
        <time>2020-11-11T18:28:36Z</time>
      </trkpt>
      <trkpt lat="28.3026220" lon="-16.5680700">
        <ele>1996.9</ele>
        <time>2020-11-11T18:28:37Z</time>
      </trkpt>
      <trkpt lat="28.3026220" lon="-16.5680700">
        <ele>1996.9</ele>
        <time>2020-11-11T18:28:38Z</time>
      </trkpt>
      <trkpt lat="28.3025850" lon="-16.5680880">
        <ele>1996.9</ele>
        <time>2020-11-11T18:28:39Z</time>
      </trkpt>
      <trkpt lat="28.3025850" lon="-16.5680880">
        <ele>1997.9</ele>
        <time>2020-11-11T18:28:40Z</time>
      </trkpt>
      <trkpt lat="28.3025470" lon="-16.5681070">
        <ele>1997.9</ele>
        <time>2020-11-11T18:28:41Z</time>
      </trkpt>
      <trkpt lat="28.3025470" lon="-16.5681070">
        <ele>1997.9</ele>
        <time>2020-11-11T18:28:42Z</time>
      </trkpt>
      <trkpt lat="28.3025080" lon="-16.5681270">
        <ele>1997.9</ele>
        <time>2020-11-11T18:28:43Z</time>
      </trkpt>
      <trkpt lat="28.3025080" lon="-16.5681270">
        <ele>1997.9</ele>
        <time>2020-11-11T18:28:44Z</time>
      </trkpt>
      <trkpt lat="28.3024700" lon="-16.5681480">
        <ele>1997.9</ele>
        <time>2020-11-11T18:28:45Z</time>
      </trkpt>
      <trkpt lat="28.3024700" lon="-16.5681480">
        <ele>1998.9</ele>
        <time>2020-11-11T18:28:46Z</time>
      </trkpt>
      <trkpt lat="28.3024320" lon="-16.5681720">
        <ele>1998.9</ele>
        <time>2020-11-11T18:28:47Z</time>
      </trkpt>
      <trkpt lat="28.3024320" lon="-16.5681720">
        <ele>1998.9</ele>
        <time>2020-11-11T18:28:48Z</time>
      </trkpt>
      <trkpt lat="28.3023880" lon="-16.5681900">
        <ele>1998.9</ele>
        <time>2020-11-11T18:28:49Z</time>
      </trkpt>
      <trkpt lat="28.3023880" lon="-16.5681900">
        <ele>1998.9</ele>
        <time>2020-11-11T18:28:50Z</time>
      </trkpt>
      <trkpt lat="28.3023420" lon="-16.5682120">
        <ele>1998.9</ele>
        <time>2020-11-11T18:28:51Z</time>
      </trkpt>
      <trkpt lat="28.3023420" lon="-16.5682120">
        <ele>1999.9</ele>
        <time>2020-11-11T18:28:52Z</time>
      </trkpt>
      <trkpt lat="28.3022980" lon="-16.5682330">
        <ele>1999.9</ele>
        <time>2020-11-11T18:28:53Z</time>
      </trkpt>
      <trkpt lat="28.3022980" lon="-16.5682330">
        <ele>1999.9</ele>
        <time>2020-11-11T18:28:54Z</time>
      </trkpt>
      <trkpt lat="28.3022570" lon="-16.5682470">
        <ele>1999.9</ele>
        <time>2020-11-11T18:28:55Z</time>
      </trkpt>
      <trkpt lat="28.3022570" lon="-16.5682470">
        <ele>1999.9</ele>
        <time>2020-11-11T18:28:56Z</time>
      </trkpt>
      <trkpt lat="28.3022170" lon="-16.5682600">
        <ele>1999.9</ele>
        <time>2020-11-11T18:28:57Z</time>
      </trkpt>
      <trkpt lat="28.3022170" lon="-16.5682600">
        <ele>1999.9</ele>
        <time>2020-11-11T18:28:58Z</time>
      </trkpt>
      <trkpt lat="28.3021800" lon="-16.5682880">
        <ele>1999.9</ele>
        <time>2020-11-11T18:28:59Z</time>
      </trkpt>
      <trkpt lat="28.3021800" lon="-16.5682880">
        <ele>1999.9</ele>
        <time>2020-11-11T18:29:00Z</time>
      </trkpt>
      <trkpt lat="28.3021450" lon="-16.5683070">
        <ele>1999.9</ele>
        <time>2020-11-11T18:29:01Z</time>
      </trkpt>
      <trkpt lat="28.3021450" lon="-16.5683070">
        <ele>1999.9</ele>
        <time>2020-11-11T18:29:02Z</time>
      </trkpt>
      <trkpt lat="28.3021080" lon="-16.5683270">
        <ele>1999.9</ele>
        <time>2020-11-11T18:29:03Z</time>
      </trkpt>
      <trkpt lat="28.3021080" lon="-16.5683270">
        <ele>1999.9</ele>
        <time>2020-11-11T18:29:04Z</time>
      </trkpt>
      <trkpt lat="28.3020750" lon="-16.5683530">
        <ele>1999.9</ele>
        <time>2020-11-11T18:29:05Z</time>
      </trkpt>
      <trkpt lat="28.3020750" lon="-16.5683530">
        <ele>1999.9</ele>
        <time>2020-11-11T18:29:06Z</time>
      </trkpt>
      <trkpt lat="28.3020380" lon="-16.5683730">
        <ele>1999.9</ele>
        <time>2020-11-11T18:29:07Z</time>
      </trkpt>
      <trkpt lat="28.3020380" lon="-16.5683730">
        <ele>2000.9</ele>
        <time>2020-11-11T18:29:08Z</time>
      </trkpt>
      <trkpt lat="28.3019950" lon="-16.5683850">
        <ele>2000.9</ele>
        <time>2020-11-11T18:29:09Z</time>
      </trkpt>
      <trkpt lat="28.3019950" lon="-16.5683850">
        <ele>2000.9</ele>
        <time>2020-11-11T18:29:10Z</time>
      </trkpt>
      <trkpt lat="28.3019570" lon="-16.5684030">
        <ele>2000.9</ele>
        <time>2020-11-11T18:29:11Z</time>
      </trkpt>
      <trkpt lat="28.3019570" lon="-16.5684030">
        <ele>2000.9</ele>
        <time>2020-11-11T18:29:12Z</time>
      </trkpt>
      <trkpt lat="28.3019180" lon="-16.5684220">
        <ele>2000.9</ele>
        <time>2020-11-11T18:29:13Z</time>
      </trkpt>
      <trkpt lat="28.3019180" lon="-16.5684220">
        <ele>2000.9</ele>
        <time>2020-11-11T18:29:14Z</time>
      </trkpt>
      <trkpt lat="28.3018850" lon="-16.5684500">
        <ele>2001.9</ele>
        <time>2020-11-11T18:29:15Z</time>
      </trkpt>
      <trkpt lat="28.3018850" lon="-16.5684500">
        <ele>2001.9</ele>
        <time>2020-11-11T18:29:16Z</time>
      </trkpt>
      <trkpt lat="28.3018500" lon="-16.5684780">
        <ele>2001.9</ele>
        <time>2020-11-11T18:29:17Z</time>
      </trkpt>
      <trkpt lat="28.3018300" lon="-16.5684880">
        <ele>2001.9</ele>
        <time>2020-11-11T18:29:18Z</time>
      </trkpt>
      <trkpt lat="28.3018120" lon="-16.5684970">
        <ele>2001.9</ele>
        <time>2020-11-11T18:29:19Z</time>
      </trkpt>
      <trkpt lat="28.3018120" lon="-16.5684970">
        <ele>2001.9</ele>
        <time>2020-11-11T18:29:20Z</time>
      </trkpt>
      <trkpt lat="28.3017730" lon="-16.5685120">
        <ele>2001.9</ele>
        <time>2020-11-11T18:29:21Z</time>
      </trkpt>
      <trkpt lat="28.3017730" lon="-16.5685120">
        <ele>2001.9</ele>
        <time>2020-11-11T18:29:22Z</time>
      </trkpt>
      <trkpt lat="28.3017330" lon="-16.5685320">
        <ele>2001.9</ele>
        <time>2020-11-11T18:29:23Z</time>
      </trkpt>
      <trkpt lat="28.3017330" lon="-16.5685320">
        <ele>2001.9</ele>
        <time>2020-11-11T18:29:24Z</time>
      </trkpt>
      <trkpt lat="28.3016930" lon="-16.5685430">
        <ele>2002.9</ele>
        <time>2020-11-11T18:29:25Z</time>
      </trkpt>
      <trkpt lat="28.3016930" lon="-16.5685430">
        <ele>2002.9</ele>
        <time>2020-11-11T18:29:26Z</time>
      </trkpt>
      <trkpt lat="28.3016520" lon="-16.5685520">
        <ele>2002.9</ele>
        <time>2020-11-11T18:29:27Z</time>
      </trkpt>
      <trkpt lat="28.3016520" lon="-16.5685520">
        <ele>2002.9</ele>
        <time>2020-11-11T18:29:28Z</time>
      </trkpt>
      <trkpt lat="28.3016080" lon="-16.5685550">
        <ele>2003.9</ele>
        <time>2020-11-11T18:29:29Z</time>
      </trkpt>
      <trkpt lat="28.3016080" lon="-16.5685550">
        <ele>2003.9</ele>
        <time>2020-11-11T18:29:30Z</time>
      </trkpt>
      <trkpt lat="28.3015630" lon="-16.5685450">
        <ele>2003.9</ele>
        <time>2020-11-11T18:29:31Z</time>
      </trkpt>
      <trkpt lat="28.3015630" lon="-16.5685450">
        <ele>2003.9</ele>
        <time>2020-11-11T18:29:32Z</time>
      </trkpt>
      <trkpt lat="28.3015220" lon="-16.5685270">
        <ele>2003.9</ele>
        <time>2020-11-11T18:29:33Z</time>
      </trkpt>
      <trkpt lat="28.3015020" lon="-16.5685170">
        <ele>2003.9</ele>
        <time>2020-11-11T18:29:34Z</time>
      </trkpt>
      <trkpt lat="28.3015020" lon="-16.5685170">
        <ele>2003.9</ele>
        <time>2020-11-11T18:29:35Z</time>
      </trkpt>
      <trkpt lat="28.3014600" lon="-16.5684920">
        <ele>2003.9</ele>
        <time>2020-11-11T18:29:36Z</time>
      </trkpt>
      <trkpt lat="28.3014420" lon="-16.5684780">
        <ele>2003.9</ele>
        <time>2020-11-11T18:29:37Z</time>
      </trkpt>
      <trkpt lat="28.3014420" lon="-16.5684780">
        <ele>2003.9</ele>
        <time>2020-11-11T18:29:38Z</time>
      </trkpt>
      <trkpt lat="28.3014050" lon="-16.5684450">
        <ele>2003.9</ele>
        <time>2020-11-11T18:29:39Z</time>
      </trkpt>
      <trkpt lat="28.3013880" lon="-16.5684280">
        <ele>2003.9</ele>
        <time>2020-11-11T18:29:40Z</time>
      </trkpt>
      <trkpt lat="28.3013880" lon="-16.5684280">
        <ele>2003.9</ele>
        <time>2020-11-11T18:29:41Z</time>
      </trkpt>
      <trkpt lat="28.3013580" lon="-16.5683920">
        <ele>2003.9</ele>
        <time>2020-11-11T18:29:42Z</time>
      </trkpt>
      <trkpt lat="28.3013470" lon="-16.5683720">
        <ele>2003.9</ele>
        <time>2020-11-11T18:29:43Z</time>
      </trkpt>
      <trkpt lat="28.3013470" lon="-16.5683720">
        <ele>2003.9</ele>
        <time>2020-11-11T18:29:44Z</time>
      </trkpt>
      <trkpt lat="28.3013270" lon="-16.5683320">
        <ele>2004.9</ele>
        <time>2020-11-11T18:29:45Z</time>
      </trkpt>
      <trkpt lat="28.3013270" lon="-16.5683320">
        <ele>2004.9</ele>
        <time>2020-11-11T18:29:46Z</time>
      </trkpt>
      <trkpt lat="28.3013150" lon="-16.5682880">
        <ele>2004.9</ele>
        <time>2020-11-11T18:29:47Z</time>
      </trkpt>
      <trkpt lat="28.3013150" lon="-16.5682880">
        <ele>2004.9</ele>
        <time>2020-11-11T18:29:48Z</time>
      </trkpt>
      <trkpt lat="28.3013020" lon="-16.5682450">
        <ele>2004.9</ele>
        <time>2020-11-11T18:29:49Z</time>
      </trkpt>
      <trkpt lat="28.3013020" lon="-16.5682450">
        <ele>2004.9</ele>
        <time>2020-11-11T18:29:50Z</time>
      </trkpt>
      <trkpt lat="28.3013020" lon="-16.5682450">
        <ele>2004.9</ele>
        <time>2020-11-11T18:29:51Z</time>
      </trkpt>
      <trkpt lat="28.3013000" lon="-16.5681980">
        <ele>2005.9</ele>
        <time>2020-11-11T18:29:52Z</time>
      </trkpt>
      <trkpt lat="28.3012900" lon="-16.5681520">
        <ele>2005.9</ele>
        <time>2020-11-11T18:29:53Z</time>
      </trkpt>
      <trkpt lat="28.3012900" lon="-16.5681520">
        <ele>2005.9</ele>
        <time>2020-11-11T18:29:54Z</time>
      </trkpt>
      <trkpt lat="28.3012850" lon="-16.5681050">
        <ele>2005.9</ele>
        <time>2020-11-11T18:29:55Z</time>
      </trkpt>
      <trkpt lat="28.3012850" lon="-16.5681050">
        <ele>2006.9</ele>
        <time>2020-11-11T18:29:56Z</time>
      </trkpt>
      <trkpt lat="28.3012800" lon="-16.5680580">
        <ele>2006.9</ele>
        <time>2020-11-11T18:29:57Z</time>
      </trkpt>
      <trkpt lat="28.3012800" lon="-16.5680580">
        <ele>2006.9</ele>
        <time>2020-11-11T18:29:58Z</time>
      </trkpt>
      <trkpt lat="28.3012700" lon="-16.5680130">
        <ele>2006.9</ele>
        <time>2020-11-11T18:29:59Z</time>
      </trkpt>
      <trkpt lat="28.3012700" lon="-16.5680130">
        <ele>2006.9</ele>
        <time>2020-11-11T18:30:00Z</time>
      </trkpt>
      <trkpt lat="28.3012720" lon="-16.5679700">
        <ele>2006.9</ele>
        <time>2020-11-11T18:30:01Z</time>
      </trkpt>
      <trkpt lat="28.3012720" lon="-16.5679700">
        <ele>2007.9</ele>
        <time>2020-11-11T18:30:02Z</time>
      </trkpt>
      <trkpt lat="28.3012680" lon="-16.5679270">
        <ele>2007.9</ele>
        <time>2020-11-11T18:30:03Z</time>
      </trkpt>
      <trkpt lat="28.3012680" lon="-16.5679270">
        <ele>2007.9</ele>
        <time>2020-11-11T18:30:04Z</time>
      </trkpt>
      <trkpt lat="28.3012570" lon="-16.5678800">
        <ele>2007.9</ele>
        <time>2020-11-11T18:30:05Z</time>
      </trkpt>
      <trkpt lat="28.3012570" lon="-16.5678800">
        <ele>2007.9</ele>
        <time>2020-11-11T18:30:06Z</time>
      </trkpt>
      <trkpt lat="28.3012570" lon="-16.5678330">
        <ele>2007.9</ele>
        <time>2020-11-11T18:30:07Z</time>
      </trkpt>
      <trkpt lat="28.3012570" lon="-16.5678330">
        <ele>2008.9</ele>
        <time>2020-11-11T18:30:08Z</time>
      </trkpt>
      <trkpt lat="28.3012530" lon="-16.5677900">
        <ele>2008.9</ele>
        <time>2020-11-11T18:30:09Z</time>
      </trkpt>
      <trkpt lat="28.3012530" lon="-16.5677900">
        <ele>2008.9</ele>
        <time>2020-11-11T18:30:10Z</time>
      </trkpt>
      <trkpt lat="28.3012470" lon="-16.5677470">
        <ele>2008.9</ele>
        <time>2020-11-11T18:30:11Z</time>
      </trkpt>
      <trkpt lat="28.3012430" lon="-16.5677250">
        <ele>2008.9</ele>
        <time>2020-11-11T18:30:12Z</time>
      </trkpt>
      <trkpt lat="28.3012400" lon="-16.5677030">
        <ele>2008.9</ele>
        <time>2020-11-11T18:30:13Z</time>
      </trkpt>
      <trkpt lat="28.3012400" lon="-16.5677030">
        <ele>2008.9</ele>
        <time>2020-11-11T18:30:14Z</time>
      </trkpt>
      <trkpt lat="28.3012320" lon="-16.5676600">
        <ele>2008.9</ele>
        <time>2020-11-11T18:30:15Z</time>
      </trkpt>
      <trkpt lat="28.3012320" lon="-16.5676600">
        <ele>2009.9</ele>
        <time>2020-11-11T18:30:16Z</time>
      </trkpt>
      <trkpt lat="28.3012320" lon="-16.5676600">
        <ele>2009.9</ele>
        <time>2020-11-11T18:30:17Z</time>
      </trkpt>
      <trkpt lat="28.3012220" lon="-16.5676130">
        <ele>2009.9</ele>
        <time>2020-11-11T18:30:18Z</time>
      </trkpt>
      <trkpt lat="28.3012100" lon="-16.5675700">
        <ele>2009.9</ele>
        <time>2020-11-11T18:30:19Z</time>
      </trkpt>
      <trkpt lat="28.3012100" lon="-16.5675700">
        <ele>2009.9</ele>
        <time>2020-11-11T18:30:20Z</time>
      </trkpt>
      <trkpt lat="28.3011950" lon="-16.5675280">
        <ele>2009.9</ele>
        <time>2020-11-11T18:30:21Z</time>
      </trkpt>
      <trkpt lat="28.3011870" lon="-16.5675050">
        <ele>2009.9</ele>
        <time>2020-11-11T18:30:22Z</time>
      </trkpt>
      <trkpt lat="28.3011870" lon="-16.5675050">
        <ele>2009.9</ele>
        <time>2020-11-11T18:30:23Z</time>
      </trkpt>
      <trkpt lat="28.3011720" lon="-16.5674650">
        <ele>2010.9</ele>
        <time>2020-11-11T18:30:24Z</time>
      </trkpt>
      <trkpt lat="28.3011650" lon="-16.5674430">
        <ele>2010.9</ele>
        <time>2020-11-11T18:30:25Z</time>
      </trkpt>
      <trkpt lat="28.3011650" lon="-16.5674430">
        <ele>2010.9</ele>
        <time>2020-11-11T18:30:26Z</time>
      </trkpt>
      <trkpt lat="28.3011480" lon="-16.5674020">
        <ele>2010.9</ele>
        <time>2020-11-11T18:30:27Z</time>
      </trkpt>
      <trkpt lat="28.3011400" lon="-16.5673820">
        <ele>2010.9</ele>
        <time>2020-11-11T18:30:28Z</time>
      </trkpt>
      <trkpt lat="28.3011400" lon="-16.5673820">
        <ele>2010.9</ele>
        <time>2020-11-11T18:30:29Z</time>
      </trkpt>
      <trkpt lat="28.3011150" lon="-16.5673430">
        <ele>2010.9</ele>
        <time>2020-11-11T18:30:30Z</time>
      </trkpt>
      <trkpt lat="28.3011020" lon="-16.5673270">
        <ele>2010.9</ele>
        <time>2020-11-11T18:30:31Z</time>
      </trkpt>
      <trkpt lat="28.3011020" lon="-16.5673270">
        <ele>2010.9</ele>
        <time>2020-11-11T18:30:32Z</time>
      </trkpt>
      <trkpt lat="28.3010780" lon="-16.5672870">
        <ele>2010.9</ele>
        <time>2020-11-11T18:30:33Z</time>
      </trkpt>
      <trkpt lat="28.3010780" lon="-16.5672870">
        <ele>2010.9</ele>
        <time>2020-11-11T18:30:34Z</time>
      </trkpt>
      <trkpt lat="28.3010630" lon="-16.5672470">
        <ele>2010.9</ele>
        <time>2020-11-11T18:30:35Z</time>
      </trkpt>
      <trkpt lat="28.3010630" lon="-16.5672470">
        <ele>2010.9</ele>
        <time>2020-11-11T18:30:36Z</time>
      </trkpt>
      <trkpt lat="28.3010450" lon="-16.5672080">
        <ele>2011.9</ele>
        <time>2020-11-11T18:30:37Z</time>
      </trkpt>
      <trkpt lat="28.3010450" lon="-16.5672080">
        <ele>2011.9</ele>
        <time>2020-11-11T18:30:38Z</time>
      </trkpt>
      <trkpt lat="28.3010220" lon="-16.5671720">
        <ele>2011.9</ele>
        <time>2020-11-11T18:30:39Z</time>
      </trkpt>
      <trkpt lat="28.3010220" lon="-16.5671720">
        <ele>2011.9</ele>
        <time>2020-11-11T18:30:40Z</time>
      </trkpt>
      <trkpt lat="28.3010030" lon="-16.5671370">
        <ele>2011.9</ele>
        <time>2020-11-11T18:30:41Z</time>
      </trkpt>
      <trkpt lat="28.3010030" lon="-16.5671370">
        <ele>2011.9</ele>
        <time>2020-11-11T18:30:42Z</time>
      </trkpt>
      <trkpt lat="28.3010030" lon="-16.5671370">
        <ele>2012.9</ele>
        <time>2020-11-11T18:30:43Z</time>
      </trkpt>
      <trkpt lat="28.3009750" lon="-16.5671070">
        <ele>2012.9</ele>
        <time>2020-11-11T18:30:44Z</time>
      </trkpt>
      <trkpt lat="28.3009430" lon="-16.5670800">
        <ele>2012.9</ele>
        <time>2020-11-11T18:30:45Z</time>
      </trkpt>
      <trkpt lat="28.3009430" lon="-16.5670800">
        <ele>2012.9</ele>
        <time>2020-11-11T18:30:46Z</time>
      </trkpt>
      <trkpt lat="28.3009130" lon="-16.5670570">
        <ele>2012.9</ele>
        <time>2020-11-11T18:30:47Z</time>
      </trkpt>
      <trkpt lat="28.3008970" lon="-16.5670470">
        <ele>2012.9</ele>
        <time>2020-11-11T18:30:48Z</time>
      </trkpt>
      <trkpt lat="28.3008780" lon="-16.5670380">
        <ele>2012.9</ele>
        <time>2020-11-11T18:30:49Z</time>
      </trkpt>
      <trkpt lat="28.3008780" lon="-16.5670380">
        <ele>2012.9</ele>
        <time>2020-11-11T18:30:50Z</time>
      </trkpt>
      <trkpt lat="28.3008420" lon="-16.5670200">
        <ele>2013.9</ele>
        <time>2020-11-11T18:30:51Z</time>
      </trkpt>
      <trkpt lat="28.3008420" lon="-16.5670200">
        <ele>2013.9</ele>
        <time>2020-11-11T18:30:52Z</time>
      </trkpt>
      <trkpt lat="28.3008100" lon="-16.5669970">
        <ele>2013.9</ele>
        <time>2020-11-11T18:30:53Z</time>
      </trkpt>
      <trkpt lat="28.3007930" lon="-16.5669870">
        <ele>2013.9</ele>
        <time>2020-11-11T18:30:54Z</time>
      </trkpt>
      <trkpt lat="28.3007930" lon="-16.5669870">
        <ele>2013.9</ele>
        <time>2020-11-11T18:30:55Z</time>
      </trkpt>
      <trkpt lat="28.3007570" lon="-16.5669700">
        <ele>2013.9</ele>
        <time>2020-11-11T18:30:56Z</time>
      </trkpt>
      <trkpt lat="28.3007570" lon="-16.5669700">
        <ele>2013.9</ele>
        <time>2020-11-11T18:30:57Z</time>
      </trkpt>
      <trkpt lat="28.3007180" lon="-16.5669600">
        <ele>2013.9</ele>
        <time>2020-11-11T18:30:58Z</time>
      </trkpt>
      <trkpt lat="28.3007180" lon="-16.5669600">
        <ele>2013.9</ele>
        <time>2020-11-11T18:30:59Z</time>
      </trkpt>
      <trkpt lat="28.3006820" lon="-16.5669600">
        <ele>2013.9</ele>
        <time>2020-11-11T18:31:00Z</time>
      </trkpt>
      <trkpt lat="28.3006820" lon="-16.5669600">
        <ele>2014.9</ele>
        <time>2020-11-11T18:31:01Z</time>
      </trkpt>
      <trkpt lat="28.3006430" lon="-16.5669530">
        <ele>2014.9</ele>
        <time>2020-11-11T18:31:02Z</time>
      </trkpt>
      <trkpt lat="28.3006430" lon="-16.5669530">
        <ele>2014.9</ele>
        <time>2020-11-11T18:31:03Z</time>
      </trkpt>
      <trkpt lat="28.3006100" lon="-16.5669420">
        <ele>2014.9</ele>
        <time>2020-11-11T18:31:04Z</time>
      </trkpt>
      <trkpt lat="28.3006100" lon="-16.5669420">
        <ele>2014.9</ele>
        <time>2020-11-11T18:31:05Z</time>
      </trkpt>
      <trkpt lat="28.3006100" lon="-16.5669420">
        <ele>2014.9</ele>
        <time>2020-11-11T18:31:06Z</time>
      </trkpt>
      <trkpt lat="28.3005780" lon="-16.5669300">
        <ele>2014.9</ele>
        <time>2020-11-11T18:31:07Z</time>
      </trkpt>
      <trkpt lat="28.3005430" lon="-16.5669200">
        <ele>2015.9</ele>
        <time>2020-11-11T18:31:08Z</time>
      </trkpt>
      <trkpt lat="28.3005230" lon="-16.5669170">
        <ele>2015.9</ele>
        <time>2020-11-11T18:31:09Z</time>
      </trkpt>
      <trkpt lat="28.3005230" lon="-16.5669170">
        <ele>2015.9</ele>
        <time>2020-11-11T18:31:10Z</time>
      </trkpt>
      <trkpt lat="28.3004870" lon="-16.5669080">
        <ele>2015.9</ele>
        <time>2020-11-11T18:31:11Z</time>
      </trkpt>
      <trkpt lat="28.3004870" lon="-16.5669080">
        <ele>2015.9</ele>
        <time>2020-11-11T18:31:12Z</time>
      </trkpt>
      <trkpt lat="28.3004500" lon="-16.5668970">
        <ele>2015.9</ele>
        <time>2020-11-11T18:31:13Z</time>
      </trkpt>
      <trkpt lat="28.3004500" lon="-16.5668970">
        <ele>2015.9</ele>
        <time>2020-11-11T18:31:14Z</time>
      </trkpt>
      <trkpt lat="28.3004230" lon="-16.5668730">
        <ele>2015.9</ele>
        <time>2020-11-11T18:31:15Z</time>
      </trkpt>
      <trkpt lat="28.3004230" lon="-16.5668730">
        <ele>2015.9</ele>
        <time>2020-11-11T18:31:16Z</time>
      </trkpt>
      <trkpt lat="28.3003930" lon="-16.5668430">
        <ele>2015.9</ele>
        <time>2020-11-11T18:31:17Z</time>
      </trkpt>
      <trkpt lat="28.3003770" lon="-16.5668250">
        <ele>2016.9</ele>
        <time>2020-11-11T18:31:18Z</time>
      </trkpt>
      <trkpt lat="28.3003620" lon="-16.5668080">
        <ele>2016.9</ele>
        <time>2020-11-11T18:31:19Z</time>
      </trkpt>
      <trkpt lat="28.3003620" lon="-16.5668080">
        <ele>2016.9</ele>
        <time>2020-11-11T18:31:20Z</time>
      </trkpt>
      <trkpt lat="28.3003320" lon="-16.5667750">
        <ele>2016.9</ele>
        <time>2020-11-11T18:31:21Z</time>
      </trkpt>
      <trkpt lat="28.3003200" lon="-16.5667550">
        <ele>2016.9</ele>
        <time>2020-11-11T18:31:22Z</time>
      </trkpt>
      <trkpt lat="28.3003200" lon="-16.5667550">
        <ele>2016.9</ele>
        <time>2020-11-11T18:31:23Z</time>
      </trkpt>
      <trkpt lat="28.3003030" lon="-16.5667170">
        <ele>2016.9</ele>
        <time>2020-11-11T18:31:24Z</time>
      </trkpt>
      <trkpt lat="28.3002950" lon="-16.5666950">
        <ele>2016.9</ele>
        <time>2020-11-11T18:31:25Z</time>
      </trkpt>
      <trkpt lat="28.3002950" lon="-16.5666950">
        <ele>2016.9</ele>
        <time>2020-11-11T18:31:26Z</time>
      </trkpt>
      <trkpt lat="28.3002820" lon="-16.5666550">
        <ele>2016.9</ele>
        <time>2020-11-11T18:31:27Z</time>
      </trkpt>
      <trkpt lat="28.3002820" lon="-16.5666550">
        <ele>2016.9</ele>
        <time>2020-11-11T18:31:28Z</time>
      </trkpt>
      <trkpt lat="28.3002800" lon="-16.5666070">
        <ele>2016.9</ele>
        <time>2020-11-11T18:31:29Z</time>
      </trkpt>
      <trkpt lat="28.3002800" lon="-16.5666070">
        <ele>2016.9</ele>
        <time>2020-11-11T18:31:30Z</time>
      </trkpt>
      <trkpt lat="28.3002850" lon="-16.5665580">
        <ele>2016.9</ele>
        <time>2020-11-11T18:31:31Z</time>
      </trkpt>
      <trkpt lat="28.3002850" lon="-16.5665580">
        <ele>2016.9</ele>
        <time>2020-11-11T18:31:32Z</time>
      </trkpt>
      <trkpt lat="28.3002950" lon="-16.5665120">
        <ele>2017.9</ele>
        <time>2020-11-11T18:31:33Z</time>
      </trkpt>
      <trkpt lat="28.3002950" lon="-16.5665120">
        <ele>2017.9</ele>
        <time>2020-11-11T18:31:34Z</time>
      </trkpt>
      <trkpt lat="28.3002980" lon="-16.5664670">
        <ele>2017.9</ele>
        <time>2020-11-11T18:31:35Z</time>
      </trkpt>
      <trkpt lat="28.3002980" lon="-16.5664670">
        <ele>2017.9</ele>
        <time>2020-11-11T18:31:36Z</time>
      </trkpt>
      <trkpt lat="28.3002980" lon="-16.5664220">
        <ele>2017.9</ele>
        <time>2020-11-11T18:31:37Z</time>
      </trkpt>
      <trkpt lat="28.3002980" lon="-16.5664220">
        <ele>2018.9</ele>
        <time>2020-11-11T18:31:38Z</time>
      </trkpt>
      <trkpt lat="28.3003020" lon="-16.5663780">
        <ele>2018.9</ele>
        <time>2020-11-11T18:31:39Z</time>
      </trkpt>
      <trkpt lat="28.3003020" lon="-16.5663780">
        <ele>2018.9</ele>
        <time>2020-11-11T18:31:40Z</time>
      </trkpt>
      <trkpt lat="28.3003170" lon="-16.5663400">
        <ele>2018.9</ele>
        <time>2020-11-11T18:31:41Z</time>
      </trkpt>
      <trkpt lat="28.3003170" lon="-16.5663400">
        <ele>2018.9</ele>
        <time>2020-11-11T18:31:42Z</time>
      </trkpt>
      <trkpt lat="28.3003230" lon="-16.5663180">
        <ele>2018.9</ele>
        <time>2020-11-11T18:31:43Z</time>
      </trkpt>
      <trkpt lat="28.3003330" lon="-16.5662750">
        <ele>2018.9</ele>
        <time>2020-11-11T18:31:44Z</time>
      </trkpt>
      <trkpt lat="28.3003330" lon="-16.5662750">
        <ele>2018.9</ele>
        <time>2020-11-11T18:31:45Z</time>
      </trkpt>
      <trkpt lat="28.3003470" lon="-16.5662320">
        <ele>2019.9</ele>
        <time>2020-11-11T18:31:46Z</time>
      </trkpt>
      <trkpt lat="28.3003530" lon="-16.5662120">
        <ele>2019.9</ele>
        <time>2020-11-11T18:31:47Z</time>
      </trkpt>
      <trkpt lat="28.3003530" lon="-16.5662120">
        <ele>2019.9</ele>
        <time>2020-11-11T18:31:48Z</time>
      </trkpt>
      <trkpt lat="28.3003630" lon="-16.5661720">
        <ele>2019.9</ele>
        <time>2020-11-11T18:31:49Z</time>
      </trkpt>
      <trkpt lat="28.3003630" lon="-16.5661720">
        <ele>2019.9</ele>
        <time>2020-11-11T18:31:50Z</time>
      </trkpt>
      <trkpt lat="28.3003670" lon="-16.5661270">
        <ele>2019.9</ele>
        <time>2020-11-11T18:31:51Z</time>
      </trkpt>
      <trkpt lat="28.3003670" lon="-16.5661270">
        <ele>2019.9</ele>
        <time>2020-11-11T18:31:52Z</time>
      </trkpt>
      <trkpt lat="28.3003670" lon="-16.5660820">
        <ele>2020.9</ele>
        <time>2020-11-11T18:31:53Z</time>
      </trkpt>
      <trkpt lat="28.3003670" lon="-16.5660820">
        <ele>2020.9</ele>
        <time>2020-11-11T18:31:54Z</time>
      </trkpt>
      <trkpt lat="28.3003650" lon="-16.5660350">
        <ele>2020.9</ele>
        <time>2020-11-11T18:31:55Z</time>
      </trkpt>
      <trkpt lat="28.3003650" lon="-16.5660350">
        <ele>2020.9</ele>
        <time>2020-11-11T18:31:56Z</time>
      </trkpt>
      <trkpt lat="28.3003670" lon="-16.5659900">
        <ele>2020.9</ele>
        <time>2020-11-11T18:31:57Z</time>
      </trkpt>
      <trkpt lat="28.3003670" lon="-16.5659900">
        <ele>2020.9</ele>
        <time>2020-11-11T18:31:58Z</time>
      </trkpt>
      <trkpt lat="28.3003620" lon="-16.5659470">
        <ele>2020.9</ele>
        <time>2020-11-11T18:31:59Z</time>
      </trkpt>
      <trkpt lat="28.3003620" lon="-16.5659470">
        <ele>2020.9</ele>
        <time>2020-11-11T18:32:00Z</time>
      </trkpt>
      <trkpt lat="28.3003630" lon="-16.5659000">
        <ele>2020.9</ele>
        <time>2020-11-11T18:32:01Z</time>
      </trkpt>
      <trkpt lat="28.3003630" lon="-16.5659000">
        <ele>2020.9</ele>
        <time>2020-11-11T18:32:02Z</time>
      </trkpt>
      <trkpt lat="28.3003620" lon="-16.5658520">
        <ele>2021.9</ele>
        <time>2020-11-11T18:32:03Z</time>
      </trkpt>
      <trkpt lat="28.3003620" lon="-16.5658520">
        <ele>2021.9</ele>
        <time>2020-11-11T18:32:04Z</time>
      </trkpt>
      <trkpt lat="28.3003580" lon="-16.5658050">
        <ele>2021.9</ele>
        <time>2020-11-11T18:32:05Z</time>
      </trkpt>
      <trkpt lat="28.3003580" lon="-16.5658050">
        <ele>2021.9</ele>
        <time>2020-11-11T18:32:06Z</time>
      </trkpt>
      <trkpt lat="28.3003530" lon="-16.5657570">
        <ele>2021.9</ele>
        <time>2020-11-11T18:32:07Z</time>
      </trkpt>
      <trkpt lat="28.3003530" lon="-16.5657570">
        <ele>2021.9</ele>
        <time>2020-11-11T18:32:08Z</time>
      </trkpt>
      <trkpt lat="28.3003480" lon="-16.5657120">
        <ele>2021.9</ele>
        <time>2020-11-11T18:32:09Z</time>
      </trkpt>
      <trkpt lat="28.3003480" lon="-16.5657120">
        <ele>2021.9</ele>
        <time>2020-11-11T18:32:10Z</time>
      </trkpt>
      <trkpt lat="28.3003400" lon="-16.5656630">
        <ele>2021.9</ele>
        <time>2020-11-11T18:32:11Z</time>
      </trkpt>
      <trkpt lat="28.3003400" lon="-16.5656630">
        <ele>2021.9</ele>
        <time>2020-11-11T18:32:12Z</time>
      </trkpt>
      <trkpt lat="28.3003370" lon="-16.5656130">
        <ele>2022.9</ele>
        <time>2020-11-11T18:32:13Z</time>
      </trkpt>
      <trkpt lat="28.3003370" lon="-16.5656130">
        <ele>2022.9</ele>
        <time>2020-11-11T18:32:14Z</time>
      </trkpt>
      <trkpt lat="28.3003330" lon="-16.5655670">
        <ele>2022.9</ele>
        <time>2020-11-11T18:32:15Z</time>
      </trkpt>
      <trkpt lat="28.3003330" lon="-16.5655670">
        <ele>2022.9</ele>
        <time>2020-11-11T18:32:16Z</time>
      </trkpt>
      <trkpt lat="28.3003250" lon="-16.5655200">
        <ele>2022.9</ele>
        <time>2020-11-11T18:32:17Z</time>
      </trkpt>
      <trkpt lat="28.3003250" lon="-16.5655200">
        <ele>2022.9</ele>
        <time>2020-11-11T18:32:18Z</time>
      </trkpt>
      <trkpt lat="28.3003100" lon="-16.5654750">
        <ele>2022.9</ele>
        <time>2020-11-11T18:32:19Z</time>
      </trkpt>
      <trkpt lat="28.3003100" lon="-16.5654750">
        <ele>2022.9</ele>
        <time>2020-11-11T18:32:20Z</time>
      </trkpt>
      <trkpt lat="28.3002880" lon="-16.5654350">
        <ele>2022.9</ele>
        <time>2020-11-11T18:32:21Z</time>
      </trkpt>
      <trkpt lat="28.3002880" lon="-16.5654350">
        <ele>2022.9</ele>
        <time>2020-11-11T18:32:22Z</time>
      </trkpt>
      <trkpt lat="28.3002700" lon="-16.5653920">
        <ele>2022.9</ele>
        <time>2020-11-11T18:32:23Z</time>
      </trkpt>
      <trkpt lat="28.3002700" lon="-16.5653920">
        <ele>2022.9</ele>
        <time>2020-11-11T18:32:24Z</time>
      </trkpt>
      <trkpt lat="28.3002430" lon="-16.5653520">
        <ele>2023.9</ele>
        <time>2020-11-11T18:32:25Z</time>
      </trkpt>
      <trkpt lat="28.3002430" lon="-16.5653520">
        <ele>2023.9</ele>
        <time>2020-11-11T18:32:26Z</time>
      </trkpt>
      <trkpt lat="28.3002130" lon="-16.5653150">
        <ele>2023.9</ele>
        <time>2020-11-11T18:32:27Z</time>
      </trkpt>
      <trkpt lat="28.3002130" lon="-16.5653150">
        <ele>2023.9</ele>
        <time>2020-11-11T18:32:28Z</time>
      </trkpt>
      <trkpt lat="28.3001800" lon="-16.5652830">
        <ele>2023.9</ele>
        <time>2020-11-11T18:32:29Z</time>
      </trkpt>
      <trkpt lat="28.3001620" lon="-16.5652700">
        <ele>2024.9</ele>
        <time>2020-11-11T18:32:30Z</time>
      </trkpt>
      <trkpt lat="28.3001620" lon="-16.5652700">
        <ele>2024.9</ele>
        <time>2020-11-11T18:32:31Z</time>
      </trkpt>
      <trkpt lat="28.3001230" lon="-16.5652480">
        <ele>2024.9</ele>
        <time>2020-11-11T18:32:32Z</time>
      </trkpt>
      <trkpt lat="28.3001230" lon="-16.5652480">
        <ele>2024.9</ele>
        <time>2020-11-11T18:32:33Z</time>
      </trkpt>
      <trkpt lat="28.3000820" lon="-16.5652280">
        <ele>2024.9</ele>
        <time>2020-11-11T18:32:34Z</time>
      </trkpt>
      <trkpt lat="28.3000820" lon="-16.5652280">
        <ele>2024.9</ele>
        <time>2020-11-11T18:32:35Z</time>
      </trkpt>
      <trkpt lat="28.3000430" lon="-16.5652050">
        <ele>2025.9</ele>
        <time>2020-11-11T18:32:36Z</time>
      </trkpt>
      <trkpt lat="28.3000230" lon="-16.5651950">
        <ele>2025.9</ele>
        <time>2020-11-11T18:32:37Z</time>
      </trkpt>
      <trkpt lat="28.3000230" lon="-16.5651950">
        <ele>2025.9</ele>
        <time>2020-11-11T18:32:38Z</time>
      </trkpt>
      <trkpt lat="28.2999800" lon="-16.5651870">
        <ele>2025.9</ele>
        <time>2020-11-11T18:32:39Z</time>
      </trkpt>
      <trkpt lat="28.2999800" lon="-16.5651870">
        <ele>2025.9</ele>
        <time>2020-11-11T18:32:40Z</time>
      </trkpt>
      <trkpt lat="28.2999330" lon="-16.5651850">
        <ele>2025.9</ele>
        <time>2020-11-11T18:32:41Z</time>
      </trkpt>
      <trkpt lat="28.2999330" lon="-16.5651850">
        <ele>2026.9</ele>
        <time>2020-11-11T18:32:42Z</time>
      </trkpt>
      <trkpt lat="28.2998880" lon="-16.5651900">
        <ele>2026.9</ele>
        <time>2020-11-11T18:32:43Z</time>
      </trkpt>
      <trkpt lat="28.2998880" lon="-16.5651900">
        <ele>2026.9</ele>
        <time>2020-11-11T18:32:44Z</time>
      </trkpt>
      <trkpt lat="28.2998420" lon="-16.5652020">
        <ele>2026.9</ele>
        <time>2020-11-11T18:32:45Z</time>
      </trkpt>
      <trkpt lat="28.2998420" lon="-16.5652020">
        <ele>2026.9</ele>
        <time>2020-11-11T18:32:46Z</time>
      </trkpt>
      <trkpt lat="28.2998050" lon="-16.5652220">
        <ele>2026.9</ele>
        <time>2020-11-11T18:32:47Z</time>
      </trkpt>
      <trkpt lat="28.2998050" lon="-16.5652220">
        <ele>2027.9</ele>
        <time>2020-11-11T18:32:48Z</time>
      </trkpt>
      <trkpt lat="28.2997700" lon="-16.5652450">
        <ele>2027.9</ele>
        <time>2020-11-11T18:32:49Z</time>
      </trkpt>
      <trkpt lat="28.2997700" lon="-16.5652450">
        <ele>2027.9</ele>
        <time>2020-11-11T18:32:50Z</time>
      </trkpt>
      <trkpt lat="28.2997370" lon="-16.5652700">
        <ele>2027.9</ele>
        <time>2020-11-11T18:32:51Z</time>
      </trkpt>
      <trkpt lat="28.2997370" lon="-16.5652700">
        <ele>2027.9</ele>
        <time>2020-11-11T18:32:52Z</time>
      </trkpt>
      <trkpt lat="28.2997070" lon="-16.5652970">
        <ele>2027.9</ele>
        <time>2020-11-11T18:32:53Z</time>
      </trkpt>
      <trkpt lat="28.2997070" lon="-16.5652970">
        <ele>2028.9</ele>
        <time>2020-11-11T18:32:54Z</time>
      </trkpt>
      <trkpt lat="28.2996770" lon="-16.5653200">
        <ele>2028.9</ele>
        <time>2020-11-11T18:32:55Z</time>
      </trkpt>
      <trkpt lat="28.2996770" lon="-16.5653200">
        <ele>2028.9</ele>
        <time>2020-11-11T18:32:56Z</time>
      </trkpt>
      <trkpt lat="28.2996450" lon="-16.5653370">
        <ele>2028.9</ele>
        <time>2020-11-11T18:32:57Z</time>
      </trkpt>
      <trkpt lat="28.2996450" lon="-16.5653370">
        <ele>2028.9</ele>
        <time>2020-11-11T18:32:58Z</time>
      </trkpt>
      <trkpt lat="28.2996120" lon="-16.5653550">
        <ele>2028.9</ele>
        <time>2020-11-11T18:32:59Z</time>
      </trkpt>
      <trkpt lat="28.2996120" lon="-16.5653550">
        <ele>2028.9</ele>
        <time>2020-11-11T18:33:00Z</time>
      </trkpt>
      <trkpt lat="28.2995820" lon="-16.5653770">
        <ele>2028.9</ele>
        <time>2020-11-11T18:33:01Z</time>
      </trkpt>
      <trkpt lat="28.2995820" lon="-16.5653770">
        <ele>2028.9</ele>
        <time>2020-11-11T18:33:02Z</time>
      </trkpt>
      <trkpt lat="28.2995520" lon="-16.5654000">
        <ele>2028.9</ele>
        <time>2020-11-11T18:33:03Z</time>
      </trkpt>
      <trkpt lat="28.2995380" lon="-16.5654150">
        <ele>2028.9</ele>
        <time>2020-11-11T18:33:04Z</time>
      </trkpt>
      <trkpt lat="28.2995380" lon="-16.5654150">
        <ele>2028.9</ele>
        <time>2020-11-11T18:33:05Z</time>
      </trkpt>
      <trkpt lat="28.2995080" lon="-16.5654400">
        <ele>2029.9</ele>
        <time>2020-11-11T18:33:06Z</time>
      </trkpt>
      <trkpt lat="28.2994930" lon="-16.5654520">
        <ele>2029.9</ele>
        <time>2020-11-11T18:33:07Z</time>
      </trkpt>
      <trkpt lat="28.2994930" lon="-16.5654520">
        <ele>2029.9</ele>
        <time>2020-11-11T18:33:08Z</time>
      </trkpt>
      <trkpt lat="28.2994600" lon="-16.5654720">
        <ele>2030.9</ele>
        <time>2020-11-11T18:33:09Z</time>
      </trkpt>
      <trkpt lat="28.2994450" lon="-16.5654820">
        <ele>2030.9</ele>
        <time>2020-11-11T18:33:10Z</time>
      </trkpt>
      <trkpt lat="28.2994450" lon="-16.5654820">
        <ele>2030.9</ele>
        <time>2020-11-11T18:33:11Z</time>
      </trkpt>
      <trkpt lat="28.2994120" lon="-16.5655050">
        <ele>2030.9</ele>
        <time>2020-11-11T18:33:12Z</time>
      </trkpt>
      <trkpt lat="28.2993950" lon="-16.5655150">
        <ele>2031.9</ele>
        <time>2020-11-11T18:33:13Z</time>
      </trkpt>
      <trkpt lat="28.2993950" lon="-16.5655150">
        <ele>2031.9</ele>
        <time>2020-11-11T18:33:14Z</time>
      </trkpt>
      <trkpt lat="28.2993630" lon="-16.5655370">
        <ele>2031.9</ele>
        <time>2020-11-11T18:33:15Z</time>
      </trkpt>
      <trkpt lat="28.2993470" lon="-16.5655470">
        <ele>2031.9</ele>
        <time>2020-11-11T18:33:16Z</time>
      </trkpt>
      <trkpt lat="28.2993470" lon="-16.5655470">
        <ele>2031.9</ele>
        <time>2020-11-11T18:33:17Z</time>
      </trkpt>
      <trkpt lat="28.2993130" lon="-16.5655650">
        <ele>2031.9</ele>
        <time>2020-11-11T18:33:18Z</time>
      </trkpt>
      <trkpt lat="28.2992950" lon="-16.5655750">
        <ele>2031.9</ele>
        <time>2020-11-11T18:33:19Z</time>
      </trkpt>
      <trkpt lat="28.2992950" lon="-16.5655750">
        <ele>2031.9</ele>
        <time>2020-11-11T18:33:20Z</time>
      </trkpt>
      <trkpt lat="28.2992630" lon="-16.5655970">
        <ele>2032.9</ele>
        <time>2020-11-11T18:33:21Z</time>
      </trkpt>
      <trkpt lat="28.2992630" lon="-16.5655970">
        <ele>2032.9</ele>
        <time>2020-11-11T18:33:22Z</time>
      </trkpt>
      <trkpt lat="28.2992630" lon="-16.5655970">
        <ele>2032.9</ele>
        <time>2020-11-11T18:33:23Z</time>
      </trkpt>
      <trkpt lat="28.2992320" lon="-16.5656220">
        <ele>2032.9</ele>
        <time>2020-11-11T18:33:24Z</time>
      </trkpt>
      <trkpt lat="28.2991980" lon="-16.5656450">
        <ele>2032.9</ele>
        <time>2020-11-11T18:33:25Z</time>
      </trkpt>
      <trkpt lat="28.2991980" lon="-16.5656450">
        <ele>2032.9</ele>
        <time>2020-11-11T18:33:26Z</time>
      </trkpt>
      <trkpt lat="28.2991620" lon="-16.5656630">
        <ele>2032.9</ele>
        <time>2020-11-11T18:33:27Z</time>
      </trkpt>
      <trkpt lat="28.2991620" lon="-16.5656630">
        <ele>2032.9</ele>
        <time>2020-11-11T18:33:28Z</time>
      </trkpt>
      <trkpt lat="28.2991300" lon="-16.5656880">
        <ele>2033.9</ele>
        <time>2020-11-11T18:33:29Z</time>
      </trkpt>
      <trkpt lat="28.2991300" lon="-16.5656880">
        <ele>2033.9</ele>
        <time>2020-11-11T18:33:30Z</time>
      </trkpt>
      <trkpt lat="28.2990980" lon="-16.5657150">
        <ele>2033.9</ele>
        <time>2020-11-11T18:33:31Z</time>
      </trkpt>
      <trkpt lat="28.2990980" lon="-16.5657150">
        <ele>2033.9</ele>
        <time>2020-11-11T18:33:32Z</time>
      </trkpt>
      <trkpt lat="28.2990620" lon="-16.5657380">
        <ele>2034.9</ele>
        <time>2020-11-11T18:33:33Z</time>
      </trkpt>
      <trkpt lat="28.2990620" lon="-16.5657380">
        <ele>2034.9</ele>
        <time>2020-11-11T18:33:34Z</time>
      </trkpt>
      <trkpt lat="28.2990230" lon="-16.5657570">
        <ele>2034.9</ele>
        <time>2020-11-11T18:33:35Z</time>
      </trkpt>
      <trkpt lat="28.2990230" lon="-16.5657570">
        <ele>2034.9</ele>
        <time>2020-11-11T18:33:36Z</time>
      </trkpt>
      <trkpt lat="28.2989900" lon="-16.5657800">
        <ele>2035.9</ele>
        <time>2020-11-11T18:33:37Z</time>
      </trkpt>
      <trkpt lat="28.2989900" lon="-16.5657800">
        <ele>2035.9</ele>
        <time>2020-11-11T18:33:38Z</time>
      </trkpt>
      <trkpt lat="28.2989550" lon="-16.5658020">
        <ele>2035.9</ele>
        <time>2020-11-11T18:33:39Z</time>
      </trkpt>
      <trkpt lat="28.2989550" lon="-16.5658020">
        <ele>2035.9</ele>
        <time>2020-11-11T18:33:40Z</time>
      </trkpt>
      <trkpt lat="28.2989220" lon="-16.5658200">
        <ele>2036.9</ele>
        <time>2020-11-11T18:33:41Z</time>
      </trkpt>
      <trkpt lat="28.2989050" lon="-16.5658320">
        <ele>2036.9</ele>
        <time>2020-11-11T18:33:42Z</time>
      </trkpt>
      <trkpt lat="28.2988880" lon="-16.5658430">
        <ele>2036.9</ele>
        <time>2020-11-11T18:33:43Z</time>
      </trkpt>
      <trkpt lat="28.2988880" lon="-16.5658430">
        <ele>2036.9</ele>
        <time>2020-11-11T18:33:44Z</time>
      </trkpt>
      <trkpt lat="28.2988530" lon="-16.5658550">
        <ele>2036.9</ele>
        <time>2020-11-11T18:33:45Z</time>
      </trkpt>
      <trkpt lat="28.2988530" lon="-16.5658550">
        <ele>2036.9</ele>
        <time>2020-11-11T18:33:46Z</time>
      </trkpt>
      <trkpt lat="28.2988150" lon="-16.5658670">
        <ele>2037.9</ele>
        <time>2020-11-11T18:33:47Z</time>
      </trkpt>
      <trkpt lat="28.2988150" lon="-16.5658670">
        <ele>2037.9</ele>
        <time>2020-11-11T18:33:48Z</time>
      </trkpt>
      <trkpt lat="28.2987800" lon="-16.5658850">
        <ele>2037.9</ele>
        <time>2020-11-11T18:33:49Z</time>
      </trkpt>
      <trkpt lat="28.2987800" lon="-16.5658850">
        <ele>2037.9</ele>
        <time>2020-11-11T18:33:50Z</time>
      </trkpt>
      <trkpt lat="28.2987470" lon="-16.5659020">
        <ele>2037.9</ele>
        <time>2020-11-11T18:33:51Z</time>
      </trkpt>
      <trkpt lat="28.2987470" lon="-16.5659020">
        <ele>2037.9</ele>
        <time>2020-11-11T18:33:52Z</time>
      </trkpt>
      <trkpt lat="28.2987100" lon="-16.5659130">
        <ele>2038.9</ele>
        <time>2020-11-11T18:33:53Z</time>
      </trkpt>
      <trkpt lat="28.2987100" lon="-16.5659130">
        <ele>2038.9</ele>
        <time>2020-11-11T18:33:54Z</time>
      </trkpt>
      <trkpt lat="28.2986720" lon="-16.5659220">
        <ele>2038.9</ele>
        <time>2020-11-11T18:33:55Z</time>
      </trkpt>
      <trkpt lat="28.2986720" lon="-16.5659220">
        <ele>2038.9</ele>
        <time>2020-11-11T18:33:56Z</time>
      </trkpt>
      <trkpt lat="28.2986320" lon="-16.5659220">
        <ele>2038.9</ele>
        <time>2020-11-11T18:33:57Z</time>
      </trkpt>
      <trkpt lat="28.2986320" lon="-16.5659220">
        <ele>2039.9</ele>
        <time>2020-11-11T18:33:58Z</time>
      </trkpt>
      <trkpt lat="28.2985900" lon="-16.5659170">
        <ele>2039.9</ele>
        <time>2020-11-11T18:33:59Z</time>
      </trkpt>
      <trkpt lat="28.2985900" lon="-16.5659170">
        <ele>2039.9</ele>
        <time>2020-11-11T18:34:00Z</time>
      </trkpt>
      <trkpt lat="28.2985470" lon="-16.5659100">
        <ele>2039.9</ele>
        <time>2020-11-11T18:34:01Z</time>
      </trkpt>
      <trkpt lat="28.2985470" lon="-16.5659100">
        <ele>2039.9</ele>
        <time>2020-11-11T18:34:02Z</time>
      </trkpt>
      <trkpt lat="28.2985080" lon="-16.5658980">
        <ele>2039.9</ele>
        <time>2020-11-11T18:34:03Z</time>
      </trkpt>
      <trkpt lat="28.2984870" lon="-16.5658920">
        <ele>2040.9</ele>
        <time>2020-11-11T18:34:04Z</time>
      </trkpt>
      <trkpt lat="28.2984870" lon="-16.5658920">
        <ele>2040.9</ele>
        <time>2020-11-11T18:34:05Z</time>
      </trkpt>
      <trkpt lat="28.2984870" lon="-16.5658920">
        <ele>2040.9</ele>
        <time>2020-11-11T18:34:06Z</time>
      </trkpt>
      <trkpt lat="28.2984470" lon="-16.5658730">
        <ele>2040.9</ele>
        <time>2020-11-11T18:34:07Z</time>
      </trkpt>
      <trkpt lat="28.2984170" lon="-16.5658500">
        <ele>2040.9</ele>
        <time>2020-11-11T18:34:08Z</time>
      </trkpt>
      <trkpt lat="28.2984170" lon="-16.5658500">
        <ele>2040.9</ele>
        <time>2020-11-11T18:34:09Z</time>
      </trkpt>
      <trkpt lat="28.2983830" lon="-16.5658250">
        <ele>2040.9</ele>
        <time>2020-11-11T18:34:10Z</time>
      </trkpt>
      <trkpt lat="28.2983830" lon="-16.5658250">
        <ele>2040.9</ele>
        <time>2020-11-11T18:34:11Z</time>
      </trkpt>
      <trkpt lat="28.2983480" lon="-16.5658020">
        <ele>2040.9</ele>
        <time>2020-11-11T18:34:12Z</time>
      </trkpt>
      <trkpt lat="28.2983300" lon="-16.5657920">
        <ele>2040.9</ele>
        <time>2020-11-11T18:34:13Z</time>
      </trkpt>
      <trkpt lat="28.2983300" lon="-16.5657920">
        <ele>2040.9</ele>
        <time>2020-11-11T18:34:14Z</time>
      </trkpt>
      <trkpt lat="28.2982950" lon="-16.5657680">
        <ele>2040.9</ele>
        <time>2020-11-11T18:34:15Z</time>
      </trkpt>
      <trkpt lat="28.2982950" lon="-16.5657680">
        <ele>2041.9</ele>
        <time>2020-11-11T18:34:16Z</time>
      </trkpt>
      <trkpt lat="28.2982580" lon="-16.5657470">
        <ele>2041.9</ele>
        <time>2020-11-11T18:34:17Z</time>
      </trkpt>
      <trkpt lat="28.2982580" lon="-16.5657470">
        <ele>2041.9</ele>
        <time>2020-11-11T18:34:18Z</time>
      </trkpt>
      <trkpt lat="28.2982220" lon="-16.5657330">
        <ele>2041.9</ele>
        <time>2020-11-11T18:34:19Z</time>
      </trkpt>
      <trkpt lat="28.2982220" lon="-16.5657330">
        <ele>2041.9</ele>
        <time>2020-11-11T18:34:20Z</time>
      </trkpt>
      <trkpt lat="28.2981970" lon="-16.5657270">
        <ele>2041.9</ele>
        <time>2020-11-11T18:34:21Z</time>
      </trkpt>
      <trkpt lat="28.2981920" lon="-16.5657250">
        <ele>2041.9</ele>
        <time>2020-11-11T18:34:22Z</time>
      </trkpt>
      <trkpt lat="28.2981920" lon="-16.5657250">
        <ele>2041.9</ele>
        <time>2020-11-11T18:34:23Z</time>
      </trkpt>
      <trkpt lat="28.2981900" lon="-16.5657250">
        <ele>2041.9</ele>
        <time>2020-11-11T18:34:24Z</time>
      </trkpt>
      <trkpt lat="28.2981900" lon="-16.5657250">
        <ele>2041.9</ele>
        <time>2020-11-11T18:34:25Z</time>
      </trkpt>
      <trkpt lat="28.2981920" lon="-16.5657250">
        <ele>2041.9</ele>
        <time>2020-11-11T18:34:26Z</time>
      </trkpt>
      <trkpt lat="28.2981750" lon="-16.5657000">
        <ele>2041.9</ele>
        <time>2020-11-11T18:34:52Z</time>
      </trkpt>
      <trkpt lat="28.2981750" lon="-16.5657000">
        <ele>2042.9</ele>
        <time>2020-11-11T18:34:53Z</time>
      </trkpt>
      <trkpt lat="28.2981580" lon="-16.5656730">
        <ele>2042.9</ele>
        <time>2020-11-11T18:34:54Z</time>
      </trkpt>
      <trkpt lat="28.2981580" lon="-16.5656730">
        <ele>2042.9</ele>
        <time>2020-11-11T18:34:55Z</time>
      </trkpt>
      <trkpt lat="28.2981350" lon="-16.5656470">
        <ele>2042.9</ele>
        <time>2020-11-11T18:34:56Z</time>
      </trkpt>
      <trkpt lat="28.2981350" lon="-16.5656470">
        <ele>2042.9</ele>
        <time>2020-11-11T18:34:57Z</time>
      </trkpt>
      <trkpt lat="28.2981070" lon="-16.5656270">
        <ele>2042.9</ele>
        <time>2020-11-11T18:34:58Z</time>
      </trkpt>
      <trkpt lat="28.2981070" lon="-16.5656270">
        <ele>2042.9</ele>
        <time>2020-11-11T18:34:59Z</time>
      </trkpt>
      <trkpt lat="28.2980780" lon="-16.5656050">
        <ele>2042.9</ele>
        <time>2020-11-11T18:35:00Z</time>
      </trkpt>
      <trkpt lat="28.2980780" lon="-16.5656050">
        <ele>2043.9</ele>
        <time>2020-11-11T18:35:01Z</time>
      </trkpt>
      <trkpt lat="28.2980500" lon="-16.5655820">
        <ele>2043.9</ele>
        <time>2020-11-11T18:35:02Z</time>
      </trkpt>
      <trkpt lat="28.2980330" lon="-16.5655750">
        <ele>2043.9</ele>
        <time>2020-11-11T18:35:03Z</time>
      </trkpt>
      <trkpt lat="28.2980330" lon="-16.5655750">
        <ele>2043.9</ele>
        <time>2020-11-11T18:35:04Z</time>
      </trkpt>
      <trkpt lat="28.2980000" lon="-16.5655580">
        <ele>2043.9</ele>
        <time>2020-11-11T18:35:05Z</time>
      </trkpt>
      <trkpt lat="28.2980000" lon="-16.5655580">
        <ele>2043.9</ele>
        <time>2020-11-11T18:35:06Z</time>
      </trkpt>
      <trkpt lat="28.2979680" lon="-16.5655350">
        <ele>2043.9</ele>
        <time>2020-11-11T18:35:07Z</time>
      </trkpt>
      <trkpt lat="28.2979680" lon="-16.5655350">
        <ele>2043.9</ele>
        <time>2020-11-11T18:35:08Z</time>
      </trkpt>
      <trkpt lat="28.2979400" lon="-16.5655120">
        <ele>2044.9</ele>
        <time>2020-11-11T18:35:09Z</time>
      </trkpt>
      <trkpt lat="28.2979230" lon="-16.5655030">
        <ele>2044.9</ele>
        <time>2020-11-11T18:35:10Z</time>
      </trkpt>
      <trkpt lat="28.2979230" lon="-16.5655030">
        <ele>2044.9</ele>
        <time>2020-11-11T18:35:11Z</time>
      </trkpt>
      <trkpt lat="28.2978930" lon="-16.5654820">
        <ele>2044.9</ele>
        <time>2020-11-11T18:35:12Z</time>
      </trkpt>
      <trkpt lat="28.2978780" lon="-16.5654700">
        <ele>2044.9</ele>
        <time>2020-11-11T18:35:13Z</time>
      </trkpt>
      <trkpt lat="28.2978780" lon="-16.5654700">
        <ele>2044.9</ele>
        <time>2020-11-11T18:35:14Z</time>
      </trkpt>
      <trkpt lat="28.2978470" lon="-16.5654520">
        <ele>2044.9</ele>
        <time>2020-11-11T18:35:15Z</time>
      </trkpt>
      <trkpt lat="28.2978470" lon="-16.5654520">
        <ele>2044.9</ele>
        <time>2020-11-11T18:35:16Z</time>
      </trkpt>
      <trkpt lat="28.2978130" lon="-16.5654320">
        <ele>2045.9</ele>
        <time>2020-11-11T18:35:17Z</time>
      </trkpt>
      <trkpt lat="28.2977980" lon="-16.5654220">
        <ele>2045.9</ele>
        <time>2020-11-11T18:35:18Z</time>
      </trkpt>
      <trkpt lat="28.2977980" lon="-16.5654220">
        <ele>2045.9</ele>
        <time>2020-11-11T18:35:19Z</time>
      </trkpt>
      <trkpt lat="28.2977670" lon="-16.5654020">
        <ele>2045.9</ele>
        <time>2020-11-11T18:35:20Z</time>
      </trkpt>
      <trkpt lat="28.2977670" lon="-16.5654020">
        <ele>2045.9</ele>
        <time>2020-11-11T18:35:21Z</time>
      </trkpt>
      <trkpt lat="28.2977330" lon="-16.5653850">
        <ele>2045.9</ele>
        <time>2020-11-11T18:35:22Z</time>
      </trkpt>
      <trkpt lat="28.2977170" lon="-16.5653770">
        <ele>2046.9</ele>
        <time>2020-11-11T18:35:23Z</time>
      </trkpt>
      <trkpt lat="28.2977020" lon="-16.5653680">
        <ele>2046.9</ele>
        <time>2020-11-11T18:35:24Z</time>
      </trkpt>
      <trkpt lat="28.2977020" lon="-16.5653680">
        <ele>2046.9</ele>
        <time>2020-11-11T18:35:25Z</time>
      </trkpt>
      <trkpt lat="28.2976680" lon="-16.5653520">
        <ele>2046.9</ele>
        <time>2020-11-11T18:35:26Z</time>
      </trkpt>
      <trkpt lat="28.2976680" lon="-16.5653520">
        <ele>2046.9</ele>
        <time>2020-11-11T18:35:27Z</time>
      </trkpt>
      <trkpt lat="28.2976330" lon="-16.5653400">
        <ele>2046.9</ele>
        <time>2020-11-11T18:35:28Z</time>
      </trkpt>
      <trkpt lat="28.2976330" lon="-16.5653400">
        <ele>2046.9</ele>
        <time>2020-11-11T18:35:29Z</time>
      </trkpt>
      <trkpt lat="28.2975980" lon="-16.5653300">
        <ele>2046.9</ele>
        <time>2020-11-11T18:35:30Z</time>
      </trkpt>
      <trkpt lat="28.2975980" lon="-16.5653300">
        <ele>2047.9</ele>
        <time>2020-11-11T18:35:31Z</time>
      </trkpt>
      <trkpt lat="28.2975600" lon="-16.5653270">
        <ele>2047.9</ele>
        <time>2020-11-11T18:35:32Z</time>
      </trkpt>
      <trkpt lat="28.2975600" lon="-16.5653270">
        <ele>2047.9</ele>
        <time>2020-11-11T18:35:33Z</time>
      </trkpt>
      <trkpt lat="28.2975200" lon="-16.5653280">
        <ele>2047.9</ele>
        <time>2020-11-11T18:35:34Z</time>
      </trkpt>
      <trkpt lat="28.2975000" lon="-16.5653320">
        <ele>2047.9</ele>
        <time>2020-11-11T18:35:35Z</time>
      </trkpt>
      <trkpt lat="28.2975000" lon="-16.5653320">
        <ele>2047.9</ele>
        <time>2020-11-11T18:35:36Z</time>
      </trkpt>
      <trkpt lat="28.2974620" lon="-16.5653450">
        <ele>2047.9</ele>
        <time>2020-11-11T18:35:37Z</time>
      </trkpt>
      <trkpt lat="28.2974620" lon="-16.5653450">
        <ele>2047.9</ele>
        <time>2020-11-11T18:35:38Z</time>
      </trkpt>
      <trkpt lat="28.2974200" lon="-16.5653670">
        <ele>2047.9</ele>
        <time>2020-11-11T18:35:39Z</time>
      </trkpt>
      <trkpt lat="28.2974200" lon="-16.5653670">
        <ele>2047.9</ele>
        <time>2020-11-11T18:35:40Z</time>
      </trkpt>
      <trkpt lat="28.2973780" lon="-16.5653850">
        <ele>2047.9</ele>
        <time>2020-11-11T18:35:41Z</time>
      </trkpt>
      <trkpt lat="28.2973780" lon="-16.5653850">
        <ele>2047.9</ele>
        <time>2020-11-11T18:35:42Z</time>
      </trkpt>
      <trkpt lat="28.2973500" lon="-16.5654020">
        <ele>2047.9</ele>
        <time>2020-11-11T18:35:43Z</time>
      </trkpt>
      <trkpt lat="28.2973500" lon="-16.5654020">
        <ele>2047.9</ele>
        <time>2020-11-11T18:35:44Z</time>
      </trkpt>
      <trkpt lat="28.2973230" lon="-16.5654180">
        <ele>2048.9</ele>
        <time>2020-11-11T18:35:45Z</time>
      </trkpt>
      <trkpt lat="28.2973230" lon="-16.5654180">
        <ele>2048.9</ele>
        <time>2020-11-11T18:35:46Z</time>
      </trkpt>
      <trkpt lat="28.2972880" lon="-16.5654330">
        <ele>2048.9</ele>
        <time>2020-11-11T18:35:47Z</time>
      </trkpt>
      <trkpt lat="28.2972880" lon="-16.5654330">
        <ele>2048.9</ele>
        <time>2020-11-11T18:35:48Z</time>
      </trkpt>
      <trkpt lat="28.2972550" lon="-16.5654450">
        <ele>2048.9</ele>
        <time>2020-11-11T18:35:49Z</time>
      </trkpt>
      <trkpt lat="28.2972550" lon="-16.5654450">
        <ele>2048.9</ele>
        <time>2020-11-11T18:35:50Z</time>
      </trkpt>
      <trkpt lat="28.2972200" lon="-16.5654570">
        <ele>2049.9</ele>
        <time>2020-11-11T18:35:51Z</time>
      </trkpt>
      <trkpt lat="28.2972200" lon="-16.5654570">
        <ele>2049.9</ele>
        <time>2020-11-11T18:35:52Z</time>
      </trkpt>
      <trkpt lat="28.2971850" lon="-16.5654700">
        <ele>2049.9</ele>
        <time>2020-11-11T18:35:53Z</time>
      </trkpt>
      <trkpt lat="28.2971850" lon="-16.5654700">
        <ele>2049.9</ele>
        <time>2020-11-11T18:35:54Z</time>
      </trkpt>
      <trkpt lat="28.2971500" lon="-16.5654850">
        <ele>2049.9</ele>
        <time>2020-11-11T18:35:55Z</time>
      </trkpt>
      <trkpt lat="28.2971500" lon="-16.5654850">
        <ele>2049.9</ele>
        <time>2020-11-11T18:35:56Z</time>
      </trkpt>
      <trkpt lat="28.2971130" lon="-16.5655030">
        <ele>2050.9</ele>
        <time>2020-11-11T18:35:57Z</time>
      </trkpt>
      <trkpt lat="28.2971130" lon="-16.5655030">
        <ele>2050.9</ele>
        <time>2020-11-11T18:35:58Z</time>
      </trkpt>
      <trkpt lat="28.2970730" lon="-16.5655120">
        <ele>2050.9</ele>
        <time>2020-11-11T18:35:59Z</time>
      </trkpt>
      <trkpt lat="28.2970730" lon="-16.5655120">
        <ele>2050.9</ele>
        <time>2020-11-11T18:36:00Z</time>
      </trkpt>
      <trkpt lat="28.2970370" lon="-16.5655250">
        <ele>2050.9</ele>
        <time>2020-11-11T18:36:01Z</time>
      </trkpt>
      <trkpt lat="28.2970370" lon="-16.5655250">
        <ele>2050.9</ele>
        <time>2020-11-11T18:36:02Z</time>
      </trkpt>
      <trkpt lat="28.2970020" lon="-16.5655380">
        <ele>2050.9</ele>
        <time>2020-11-11T18:36:03Z</time>
      </trkpt>
      <trkpt lat="28.2969850" lon="-16.5655450">
        <ele>2050.9</ele>
        <time>2020-11-11T18:36:04Z</time>
      </trkpt>
      <trkpt lat="28.2969850" lon="-16.5655450">
        <ele>2050.9</ele>
        <time>2020-11-11T18:36:05Z</time>
      </trkpt>
      <trkpt lat="28.2969500" lon="-16.5655570">
        <ele>2051.9</ele>
        <time>2020-11-11T18:36:06Z</time>
      </trkpt>
      <trkpt lat="28.2969500" lon="-16.5655570">
        <ele>2051.9</ele>
        <time>2020-11-11T18:36:07Z</time>
      </trkpt>
      <trkpt lat="28.2969120" lon="-16.5655580">
        <ele>2051.9</ele>
        <time>2020-11-11T18:36:08Z</time>
      </trkpt>
      <trkpt lat="28.2969120" lon="-16.5655580">
        <ele>2052.9</ele>
        <time>2020-11-11T18:36:09Z</time>
      </trkpt>
      <trkpt lat="28.2968730" lon="-16.5655720">
        <ele>2052.9</ele>
        <time>2020-11-11T18:36:10Z</time>
      </trkpt>
      <trkpt lat="28.2968570" lon="-16.5655800">
        <ele>2052.9</ele>
        <time>2020-11-11T18:36:11Z</time>
      </trkpt>
      <trkpt lat="28.2968570" lon="-16.5655800">
        <ele>2052.9</ele>
        <time>2020-11-11T18:36:12Z</time>
      </trkpt>
      <trkpt lat="28.2968220" lon="-16.5655970">
        <ele>2052.9</ele>
        <time>2020-11-11T18:36:13Z</time>
      </trkpt>
      <trkpt lat="28.2968030" lon="-16.5656030">
        <ele>2052.9</ele>
        <time>2020-11-11T18:36:14Z</time>
      </trkpt>
      <trkpt lat="28.2968030" lon="-16.5656030">
        <ele>2052.9</ele>
        <time>2020-11-11T18:36:15Z</time>
      </trkpt>
      <trkpt lat="28.2967700" lon="-16.5656180">
        <ele>2052.9</ele>
        <time>2020-11-11T18:36:16Z</time>
      </trkpt>
      <trkpt lat="28.2967700" lon="-16.5656180">
        <ele>2053.9</ele>
        <time>2020-11-11T18:36:17Z</time>
      </trkpt>
      <trkpt lat="28.2967350" lon="-16.5656330">
        <ele>2053.9</ele>
        <time>2020-11-11T18:36:18Z</time>
      </trkpt>
      <trkpt lat="28.2967180" lon="-16.5656420">
        <ele>2053.9</ele>
        <time>2020-11-11T18:36:19Z</time>
      </trkpt>
      <trkpt lat="28.2967180" lon="-16.5656420">
        <ele>2053.9</ele>
        <time>2020-11-11T18:36:20Z</time>
      </trkpt>
      <trkpt lat="28.2966830" lon="-16.5656620">
        <ele>2053.9</ele>
        <time>2020-11-11T18:36:21Z</time>
      </trkpt>
      <trkpt lat="28.2966680" lon="-16.5656720">
        <ele>2053.9</ele>
        <time>2020-11-11T18:36:22Z</time>
      </trkpt>
      <trkpt lat="28.2966680" lon="-16.5656720">
        <ele>2053.9</ele>
        <time>2020-11-11T18:36:23Z</time>
      </trkpt>
      <trkpt lat="28.2966350" lon="-16.5656870">
        <ele>2053.9</ele>
        <time>2020-11-11T18:36:24Z</time>
      </trkpt>
      <trkpt lat="28.2966180" lon="-16.5656930">
        <ele>2053.9</ele>
        <time>2020-11-11T18:36:25Z</time>
      </trkpt>
      <trkpt lat="28.2966180" lon="-16.5656930">
        <ele>2053.9</ele>
        <time>2020-11-11T18:36:26Z</time>
      </trkpt>
      <trkpt lat="28.2965820" lon="-16.5657050">
        <ele>2053.9</ele>
        <time>2020-11-11T18:36:27Z</time>
      </trkpt>
      <trkpt lat="28.2965820" lon="-16.5657050">
        <ele>2053.9</ele>
        <time>2020-11-11T18:36:28Z</time>
      </trkpt>
      <trkpt lat="28.2965400" lon="-16.5657020">
        <ele>2053.9</ele>
        <time>2020-11-11T18:36:29Z</time>
      </trkpt>
      <trkpt lat="28.2965200" lon="-16.5657020">
        <ele>2053.9</ele>
        <time>2020-11-11T18:36:30Z</time>
      </trkpt>
      <trkpt lat="28.2965200" lon="-16.5657020">
        <ele>2053.9</ele>
        <time>2020-11-11T18:36:31Z</time>
      </trkpt>
      <trkpt lat="28.2964800" lon="-16.5657080">
        <ele>2054.9</ele>
        <time>2020-11-11T18:36:32Z</time>
      </trkpt>
      <trkpt lat="28.2964800" lon="-16.5657080">
        <ele>2054.9</ele>
        <time>2020-11-11T18:36:33Z</time>
      </trkpt>
      <trkpt lat="28.2964400" lon="-16.5657080">
        <ele>2054.9</ele>
        <time>2020-11-11T18:36:34Z</time>
      </trkpt>
      <trkpt lat="28.2964400" lon="-16.5657080">
        <ele>2054.9</ele>
        <time>2020-11-11T18:36:35Z</time>
      </trkpt>
      <trkpt lat="28.2964020" lon="-16.5657070">
        <ele>2054.9</ele>
        <time>2020-11-11T18:36:36Z</time>
      </trkpt>
      <trkpt lat="28.2964020" lon="-16.5657070">
        <ele>2054.9</ele>
        <time>2020-11-11T18:36:37Z</time>
      </trkpt>
      <trkpt lat="28.2963630" lon="-16.5657020">
        <ele>2055.9</ele>
        <time>2020-11-11T18:36:38Z</time>
      </trkpt>
      <trkpt lat="28.2963430" lon="-16.5656980">
        <ele>2055.9</ele>
        <time>2020-11-11T18:36:39Z</time>
      </trkpt>
      <trkpt lat="28.2963430" lon="-16.5656980">
        <ele>2055.9</ele>
        <time>2020-11-11T18:36:40Z</time>
      </trkpt>
      <trkpt lat="28.2963020" lon="-16.5656930">
        <ele>2055.9</ele>
        <time>2020-11-11T18:36:41Z</time>
      </trkpt>
      <trkpt lat="28.2963020" lon="-16.5656930">
        <ele>2055.9</ele>
        <time>2020-11-11T18:36:42Z</time>
      </trkpt>
      <trkpt lat="28.2962600" lon="-16.5656920">
        <ele>2055.9</ele>
        <time>2020-11-11T18:36:43Z</time>
      </trkpt>
      <trkpt lat="28.2962600" lon="-16.5656920">
        <ele>2055.9</ele>
        <time>2020-11-11T18:36:44Z</time>
      </trkpt>
      <trkpt lat="28.2962180" lon="-16.5656880">
        <ele>2055.9</ele>
        <time>2020-11-11T18:36:45Z</time>
      </trkpt>
      <trkpt lat="28.2962180" lon="-16.5656880">
        <ele>2055.9</ele>
        <time>2020-11-11T18:36:46Z</time>
      </trkpt>
      <trkpt lat="28.2961700" lon="-16.5656700">
        <ele>2056.9</ele>
        <time>2020-11-11T18:36:47Z</time>
      </trkpt>
      <trkpt lat="28.2961700" lon="-16.5656700">
        <ele>2056.9</ele>
        <time>2020-11-11T18:36:48Z</time>
      </trkpt>
      <trkpt lat="28.2961170" lon="-16.5656530">
        <ele>2056.9</ele>
        <time>2020-11-11T18:36:49Z</time>
      </trkpt>
      <trkpt lat="28.2961170" lon="-16.5656530">
        <ele>2056.9</ele>
        <time>2020-11-11T18:36:50Z</time>
      </trkpt>
      <trkpt lat="28.2960650" lon="-16.5656370">
        <ele>2056.9</ele>
        <time>2020-11-11T18:36:51Z</time>
      </trkpt>
      <trkpt lat="28.2960650" lon="-16.5656370">
        <ele>2056.9</ele>
        <time>2020-11-11T18:36:52Z</time>
      </trkpt>
      <trkpt lat="28.2960150" lon="-16.5656250">
        <ele>2056.9</ele>
        <time>2020-11-11T18:36:53Z</time>
      </trkpt>
      <trkpt lat="28.2960150" lon="-16.5656250">
        <ele>2056.9</ele>
        <time>2020-11-11T18:36:54Z</time>
      </trkpt>
      <trkpt lat="28.2959630" lon="-16.5656120">
        <ele>2056.9</ele>
        <time>2020-11-11T18:36:55Z</time>
      </trkpt>
      <trkpt lat="28.2959630" lon="-16.5656120">
        <ele>2056.9</ele>
        <time>2020-11-11T18:36:56Z</time>
      </trkpt>
      <trkpt lat="28.2959120" lon="-16.5656000">
        <ele>2056.9</ele>
        <time>2020-11-11T18:36:57Z</time>
      </trkpt>
      <trkpt lat="28.2958850" lon="-16.5655920">
        <ele>2056.9</ele>
        <time>2020-11-11T18:36:58Z</time>
      </trkpt>
      <trkpt lat="28.2958850" lon="-16.5655920">
        <ele>2056.9</ele>
        <time>2020-11-11T18:36:59Z</time>
      </trkpt>
      <trkpt lat="28.2958300" lon="-16.5655830">
        <ele>2056.9</ele>
        <time>2020-11-11T18:37:00Z</time>
      </trkpt>
      <trkpt lat="28.2958020" lon="-16.5655800">
        <ele>2056.9</ele>
        <time>2020-11-11T18:37:01Z</time>
      </trkpt>
      <trkpt lat="28.2958020" lon="-16.5655800">
        <ele>2056.9</ele>
        <time>2020-11-11T18:37:02Z</time>
      </trkpt>
      <trkpt lat="28.2957470" lon="-16.5655650">
        <ele>2056.9</ele>
        <time>2020-11-11T18:37:03Z</time>
      </trkpt>
      <trkpt lat="28.2957220" lon="-16.5655570">
        <ele>2056.9</ele>
        <time>2020-11-11T18:37:04Z</time>
      </trkpt>
      <trkpt lat="28.2957220" lon="-16.5655570">
        <ele>2056.9</ele>
        <time>2020-11-11T18:37:05Z</time>
      </trkpt>
      <trkpt lat="28.2956720" lon="-16.5655450">
        <ele>2056.9</ele>
        <time>2020-11-11T18:37:06Z</time>
      </trkpt>
      <trkpt lat="28.2956720" lon="-16.5655450">
        <ele>2056.9</ele>
        <time>2020-11-11T18:37:07Z</time>
      </trkpt>
      <trkpt lat="28.2956200" lon="-16.5655320">
        <ele>2056.9</ele>
        <time>2020-11-11T18:37:08Z</time>
      </trkpt>
      <trkpt lat="28.2956200" lon="-16.5655320">
        <ele>2056.9</ele>
        <time>2020-11-11T18:37:09Z</time>
      </trkpt>
      <trkpt lat="28.2955620" lon="-16.5655200">
        <ele>2056.9</ele>
        <time>2020-11-11T18:37:10Z</time>
      </trkpt>
      <trkpt lat="28.2955620" lon="-16.5655200">
        <ele>2056.9</ele>
        <time>2020-11-11T18:37:11Z</time>
      </trkpt>
      <trkpt lat="28.2955070" lon="-16.5655080">
        <ele>2056.9</ele>
        <time>2020-11-11T18:37:12Z</time>
      </trkpt>
      <trkpt lat="28.2954800" lon="-16.5655030">
        <ele>2057.9</ele>
        <time>2020-11-11T18:37:13Z</time>
      </trkpt>
      <trkpt lat="28.2954800" lon="-16.5655030">
        <ele>2057.9</ele>
        <time>2020-11-11T18:37:14Z</time>
      </trkpt>
      <trkpt lat="28.2954250" lon="-16.5654930">
        <ele>2057.9</ele>
        <time>2020-11-11T18:37:15Z</time>
      </trkpt>
      <trkpt lat="28.2954250" lon="-16.5654930">
        <ele>2057.9</ele>
        <time>2020-11-11T18:37:16Z</time>
      </trkpt>
      <trkpt lat="28.2953730" lon="-16.5654800">
        <ele>2057.9</ele>
        <time>2020-11-11T18:37:17Z</time>
      </trkpt>
      <trkpt lat="28.2953730" lon="-16.5654800">
        <ele>2057.9</ele>
        <time>2020-11-11T18:37:18Z</time>
      </trkpt>
      <trkpt lat="28.2953220" lon="-16.5654620">
        <ele>2057.9</ele>
        <time>2020-11-11T18:37:19Z</time>
      </trkpt>
      <trkpt lat="28.2953220" lon="-16.5654620">
        <ele>2057.9</ele>
        <time>2020-11-11T18:37:20Z</time>
      </trkpt>
      <trkpt lat="28.2952720" lon="-16.5654450">
        <ele>2057.9</ele>
        <time>2020-11-11T18:37:21Z</time>
      </trkpt>
      <trkpt lat="28.2952720" lon="-16.5654450">
        <ele>2057.9</ele>
        <time>2020-11-11T18:37:22Z</time>
      </trkpt>
      <trkpt lat="28.2952220" lon="-16.5654300">
        <ele>2057.9</ele>
        <time>2020-11-11T18:37:23Z</time>
      </trkpt>
      <trkpt lat="28.2952220" lon="-16.5654300">
        <ele>2057.9</ele>
        <time>2020-11-11T18:37:24Z</time>
      </trkpt>
      <trkpt lat="28.2951720" lon="-16.5654200">
        <ele>2057.9</ele>
        <time>2020-11-11T18:37:25Z</time>
      </trkpt>
      <trkpt lat="28.2951720" lon="-16.5654200">
        <ele>2057.9</ele>
        <time>2020-11-11T18:37:26Z</time>
      </trkpt>
      <trkpt lat="28.2951220" lon="-16.5654130">
        <ele>2057.9</ele>
        <time>2020-11-11T18:37:27Z</time>
      </trkpt>
      <trkpt lat="28.2950970" lon="-16.5654100">
        <ele>2058.9</ele>
        <time>2020-11-11T18:37:28Z</time>
      </trkpt>
      <trkpt lat="28.2950970" lon="-16.5654100">
        <ele>2058.9</ele>
        <time>2020-11-11T18:37:29Z</time>
      </trkpt>
      <trkpt lat="28.2950480" lon="-16.5653970">
        <ele>2058.9</ele>
        <time>2020-11-11T18:37:30Z</time>
      </trkpt>
      <trkpt lat="28.2950230" lon="-16.5653880">
        <ele>2058.9</ele>
        <time>2020-11-11T18:37:31Z</time>
      </trkpt>
      <trkpt lat="28.2950230" lon="-16.5653880">
        <ele>2058.9</ele>
        <time>2020-11-11T18:37:32Z</time>
      </trkpt>
      <trkpt lat="28.2949730" lon="-16.5653730">
        <ele>2058.9</ele>
        <time>2020-11-11T18:37:33Z</time>
      </trkpt>
      <trkpt lat="28.2949730" lon="-16.5653730">
        <ele>2058.9</ele>
        <time>2020-11-11T18:37:34Z</time>
      </trkpt>
      <trkpt lat="28.2949250" lon="-16.5653580">
        <ele>2058.9</ele>
        <time>2020-11-11T18:37:35Z</time>
      </trkpt>
      <trkpt lat="28.2949250" lon="-16.5653580">
        <ele>2058.9</ele>
        <time>2020-11-11T18:37:36Z</time>
      </trkpt>
      <trkpt lat="28.2948750" lon="-16.5653480">
        <ele>2058.9</ele>
        <time>2020-11-11T18:37:37Z</time>
      </trkpt>
      <trkpt lat="28.2948750" lon="-16.5653480">
        <ele>2058.9</ele>
        <time>2020-11-11T18:37:38Z</time>
      </trkpt>
      <trkpt lat="28.2948230" lon="-16.5653420">
        <ele>2058.9</ele>
        <time>2020-11-11T18:37:39Z</time>
      </trkpt>
      <trkpt lat="28.2947950" lon="-16.5653400">
        <ele>2058.9</ele>
        <time>2020-11-11T18:37:40Z</time>
      </trkpt>
      <trkpt lat="28.2947950" lon="-16.5653400">
        <ele>2058.9</ele>
        <time>2020-11-11T18:37:41Z</time>
      </trkpt>
      <trkpt lat="28.2947370" lon="-16.5653320">
        <ele>2059.9</ele>
        <time>2020-11-11T18:37:42Z</time>
      </trkpt>
      <trkpt lat="28.2947080" lon="-16.5653270">
        <ele>2059.9</ele>
        <time>2020-11-11T18:37:43Z</time>
      </trkpt>
      <trkpt lat="28.2947080" lon="-16.5653270">
        <ele>2059.9</ele>
        <time>2020-11-11T18:37:44Z</time>
      </trkpt>
      <trkpt lat="28.2946500" lon="-16.5653130">
        <ele>2059.9</ele>
        <time>2020-11-11T18:37:45Z</time>
      </trkpt>
      <trkpt lat="28.2946500" lon="-16.5653130">
        <ele>2059.9</ele>
        <time>2020-11-11T18:37:46Z</time>
      </trkpt>
      <trkpt lat="28.2945900" lon="-16.5653000">
        <ele>2059.9</ele>
        <time>2020-11-11T18:37:47Z</time>
      </trkpt>
      <trkpt lat="28.2945580" lon="-16.5652920">
        <ele>2059.9</ele>
        <time>2020-11-11T18:37:48Z</time>
      </trkpt>
      <trkpt lat="28.2945580" lon="-16.5652920">
        <ele>2059.9</ele>
        <time>2020-11-11T18:37:49Z</time>
      </trkpt>
      <trkpt lat="28.2944930" lon="-16.5652780">
        <ele>2059.9</ele>
        <time>2020-11-11T18:37:50Z</time>
      </trkpt>
      <trkpt lat="28.2944930" lon="-16.5652780">
        <ele>2059.9</ele>
        <time>2020-11-11T18:37:51Z</time>
      </trkpt>
      <trkpt lat="28.2944270" lon="-16.5652600">
        <ele>2059.9</ele>
        <time>2020-11-11T18:37:52Z</time>
      </trkpt>
      <trkpt lat="28.2944270" lon="-16.5652600">
        <ele>2059.9</ele>
        <time>2020-11-11T18:37:53Z</time>
      </trkpt>
      <trkpt lat="28.2943570" lon="-16.5652430">
        <ele>2059.9</ele>
        <time>2020-11-11T18:37:54Z</time>
      </trkpt>
      <trkpt lat="28.2943200" lon="-16.5652350">
        <ele>2059.9</ele>
        <time>2020-11-11T18:37:55Z</time>
      </trkpt>
      <trkpt lat="28.2943200" lon="-16.5652350">
        <ele>2059.9</ele>
        <time>2020-11-11T18:37:56Z</time>
      </trkpt>
      <trkpt lat="28.2942470" lon="-16.5652250">
        <ele>2059.9</ele>
        <time>2020-11-11T18:37:57Z</time>
      </trkpt>
      <trkpt lat="28.2942120" lon="-16.5652200">
        <ele>2059.9</ele>
        <time>2020-11-11T18:37:58Z</time>
      </trkpt>
      <trkpt lat="28.2942120" lon="-16.5652200">
        <ele>2059.9</ele>
        <time>2020-11-11T18:37:59Z</time>
      </trkpt>
      <trkpt lat="28.2941470" lon="-16.5652070">
        <ele>2059.9</ele>
        <time>2020-11-11T18:38:00Z</time>
      </trkpt>
      <trkpt lat="28.2941130" lon="-16.5651980">
        <ele>2059.9</ele>
        <time>2020-11-11T18:38:01Z</time>
      </trkpt>
      <trkpt lat="28.2941130" lon="-16.5651980">
        <ele>2059.9</ele>
        <time>2020-11-11T18:38:02Z</time>
      </trkpt>
      <trkpt lat="28.2940380" lon="-16.5651780">
        <ele>2060.9</ele>
        <time>2020-11-11T18:38:03Z</time>
      </trkpt>
      <trkpt lat="28.2940380" lon="-16.5651780">
        <ele>2060.9</ele>
        <time>2020-11-11T18:38:04Z</time>
      </trkpt>
      <trkpt lat="28.2939550" lon="-16.5651600">
        <ele>2060.9</ele>
        <time>2020-11-11T18:38:05Z</time>
      </trkpt>
      <trkpt lat="28.2939550" lon="-16.5651600">
        <ele>2060.9</ele>
        <time>2020-11-11T18:38:06Z</time>
      </trkpt>
      <trkpt lat="28.2938630" lon="-16.5651400">
        <ele>2060.9</ele>
        <time>2020-11-11T18:38:07Z</time>
      </trkpt>
      <trkpt lat="28.2938200" lon="-16.5651300">
        <ele>2060.9</ele>
        <time>2020-11-11T18:38:08Z</time>
      </trkpt>
      <trkpt lat="28.2938200" lon="-16.5651300">
        <ele>2060.9</ele>
        <time>2020-11-11T18:38:09Z</time>
      </trkpt>
      <trkpt lat="28.2937300" lon="-16.5651070">
        <ele>2060.9</ele>
        <time>2020-11-11T18:38:10Z</time>
      </trkpt>
      <trkpt lat="28.2937300" lon="-16.5651070">
        <ele>2060.9</ele>
        <time>2020-11-11T18:38:11Z</time>
      </trkpt>
      <trkpt lat="28.2936330" lon="-16.5650830">
        <ele>2060.9</ele>
        <time>2020-11-11T18:38:12Z</time>
      </trkpt>
      <trkpt lat="28.2935870" lon="-16.5650720">
        <ele>2060.9</ele>
        <time>2020-11-11T18:38:13Z</time>
      </trkpt>
      <trkpt lat="28.2935870" lon="-16.5650720">
        <ele>2060.9</ele>
        <time>2020-11-11T18:38:14Z</time>
      </trkpt>
      <trkpt lat="28.2934870" lon="-16.5650520">
        <ele>2060.9</ele>
        <time>2020-11-11T18:38:15Z</time>
      </trkpt>
      <trkpt lat="28.2934870" lon="-16.5650520">
        <ele>2060.9</ele>
        <time>2020-11-11T18:38:16Z</time>
      </trkpt>
      <trkpt lat="28.2933880" lon="-16.5650320">
        <ele>2060.9</ele>
        <time>2020-11-11T18:38:17Z</time>
      </trkpt>
      <trkpt lat="28.2933880" lon="-16.5650320">
        <ele>2060.9</ele>
        <time>2020-11-11T18:38:18Z</time>
      </trkpt>
      <trkpt lat="28.2932950" lon="-16.5650120">
        <ele>2060.9</ele>
        <time>2020-11-11T18:38:19Z</time>
      </trkpt>
      <trkpt lat="28.2932950" lon="-16.5650120">
        <ele>2060.9</ele>
        <time>2020-11-11T18:38:20Z</time>
      </trkpt>
      <trkpt lat="28.2932050" lon="-16.5649870">
        <ele>2060.9</ele>
        <time>2020-11-11T18:38:21Z</time>
      </trkpt>
      <trkpt lat="28.2931620" lon="-16.5649770">
        <ele>2060.9</ele>
        <time>2020-11-11T18:38:22Z</time>
      </trkpt>
      <trkpt lat="28.2931620" lon="-16.5649770">
        <ele>2060.9</ele>
        <time>2020-11-11T18:38:23Z</time>
      </trkpt>
      <trkpt lat="28.2930720" lon="-16.5649570">
        <ele>2060.9</ele>
        <time>2020-11-11T18:38:24Z</time>
      </trkpt>
      <trkpt lat="28.2930250" lon="-16.5649450">
        <ele>2060.9</ele>
        <time>2020-11-11T18:38:25Z</time>
      </trkpt>
      <trkpt lat="28.2930250" lon="-16.5649450">
        <ele>2060.9</ele>
        <time>2020-11-11T18:38:26Z</time>
      </trkpt>
      <trkpt lat="28.2929350" lon="-16.5649220">
        <ele>2060.9</ele>
        <time>2020-11-11T18:38:27Z</time>
      </trkpt>
      <trkpt lat="28.2929350" lon="-16.5649220">
        <ele>2060.9</ele>
        <time>2020-11-11T18:38:28Z</time>
      </trkpt>
      <trkpt lat="28.2928450" lon="-16.5649000">
        <ele>2060.9</ele>
        <time>2020-11-11T18:38:29Z</time>
      </trkpt>
      <trkpt lat="28.2928000" lon="-16.5648920">
        <ele>2060.9</ele>
        <time>2020-11-11T18:38:30Z</time>
      </trkpt>
      <trkpt lat="28.2927550" lon="-16.5648830">
        <ele>2060.9</ele>
        <time>2020-11-11T18:38:31Z</time>
      </trkpt>
      <trkpt lat="28.2927550" lon="-16.5648830">
        <ele>2060.9</ele>
        <time>2020-11-11T18:38:32Z</time>
      </trkpt>
      <trkpt lat="28.2926650" lon="-16.5648670">
        <ele>2060.9</ele>
        <time>2020-11-11T18:38:33Z</time>
      </trkpt>
      <trkpt lat="28.2926220" lon="-16.5648570">
        <ele>2060.9</ele>
        <time>2020-11-11T18:38:34Z</time>
      </trkpt>
      <trkpt lat="28.2926220" lon="-16.5648570">
        <ele>2060.9</ele>
        <time>2020-11-11T18:38:35Z</time>
      </trkpt>
      <trkpt lat="28.2925320" lon="-16.5648330">
        <ele>2060.9</ele>
        <time>2020-11-11T18:38:36Z</time>
      </trkpt>
      <trkpt lat="28.2925320" lon="-16.5648330">
        <ele>2060.9</ele>
        <time>2020-11-11T18:38:37Z</time>
      </trkpt>
      <trkpt lat="28.2924420" lon="-16.5648130">
        <ele>2060.9</ele>
        <time>2020-11-11T18:38:38Z</time>
      </trkpt>
      <trkpt lat="28.2924420" lon="-16.5648130">
        <ele>2060.9</ele>
        <time>2020-11-11T18:38:39Z</time>
      </trkpt>
      <trkpt lat="28.2923530" lon="-16.5647950">
        <ele>2060.9</ele>
        <time>2020-11-11T18:38:40Z</time>
      </trkpt>
      <trkpt lat="28.2923530" lon="-16.5647950">
        <ele>2060.9</ele>
        <time>2020-11-11T18:38:41Z</time>
      </trkpt>
      <trkpt lat="28.2922650" lon="-16.5647730">
        <ele>2060.9</ele>
        <time>2020-11-11T18:38:42Z</time>
      </trkpt>
      <trkpt lat="28.2922650" lon="-16.5647730">
        <ele>2060.9</ele>
        <time>2020-11-11T18:38:43Z</time>
      </trkpt>
      <trkpt lat="28.2921720" lon="-16.5647570">
        <ele>2060.9</ele>
        <time>2020-11-11T18:38:44Z</time>
      </trkpt>
      <trkpt lat="28.2921720" lon="-16.5647570">
        <ele>2060.9</ele>
        <time>2020-11-11T18:38:45Z</time>
      </trkpt>
      <trkpt lat="28.2920780" lon="-16.5647350">
        <ele>2060.9</ele>
        <time>2020-11-11T18:38:46Z</time>
      </trkpt>
      <trkpt lat="28.2920780" lon="-16.5647350">
        <ele>2060.9</ele>
        <time>2020-11-11T18:38:47Z</time>
      </trkpt>
      <trkpt lat="28.2919880" lon="-16.5647130">
        <ele>2060.9</ele>
        <time>2020-11-11T18:38:48Z</time>
      </trkpt>
      <trkpt lat="28.2919430" lon="-16.5647050">
        <ele>2060.9</ele>
        <time>2020-11-11T18:38:49Z</time>
      </trkpt>
      <trkpt lat="28.2919430" lon="-16.5647050">
        <ele>2061.9</ele>
        <time>2020-11-11T18:38:50Z</time>
      </trkpt>
      <trkpt lat="28.2918550" lon="-16.5646830">
        <ele>2061.9</ele>
        <time>2020-11-11T18:38:51Z</time>
      </trkpt>
      <trkpt lat="28.2918120" lon="-16.5646750">
        <ele>2061.9</ele>
        <time>2020-11-11T18:38:52Z</time>
      </trkpt>
      <trkpt lat="28.2918120" lon="-16.5646750">
        <ele>2061.9</ele>
        <time>2020-11-11T18:38:53Z</time>
      </trkpt>
      <trkpt lat="28.2917220" lon="-16.5646700">
        <ele>2061.9</ele>
        <time>2020-11-11T18:38:54Z</time>
      </trkpt>
      <trkpt lat="28.2916750" lon="-16.5646720">
        <ele>2061.9</ele>
        <time>2020-11-11T18:38:55Z</time>
      </trkpt>
      <trkpt lat="28.2916300" lon="-16.5646730">
        <ele>2061.9</ele>
        <time>2020-11-11T18:38:56Z</time>
      </trkpt>
      <trkpt lat="28.2916300" lon="-16.5646730">
        <ele>2061.9</ele>
        <time>2020-11-11T18:38:57Z</time>
      </trkpt>
      <trkpt lat="28.2915400" lon="-16.5646830">
        <ele>2061.9</ele>
        <time>2020-11-11T18:38:58Z</time>
      </trkpt>
      <trkpt lat="28.2915400" lon="-16.5646830">
        <ele>2061.9</ele>
        <time>2020-11-11T18:38:59Z</time>
      </trkpt>
      <trkpt lat="28.2914520" lon="-16.5647020">
        <ele>2061.9</ele>
        <time>2020-11-11T18:39:00Z</time>
      </trkpt>
      <trkpt lat="28.2914520" lon="-16.5647020">
        <ele>2061.9</ele>
        <time>2020-11-11T18:39:01Z</time>
      </trkpt>
      <trkpt lat="28.2913630" lon="-16.5647200">
        <ele>2062.9</ele>
        <time>2020-11-11T18:39:02Z</time>
      </trkpt>
      <trkpt lat="28.2913630" lon="-16.5647200">
        <ele>2062.9</ele>
        <time>2020-11-11T18:39:03Z</time>
      </trkpt>
      <trkpt lat="28.2912750" lon="-16.5647370">
        <ele>2062.9</ele>
        <time>2020-11-11T18:39:04Z</time>
      </trkpt>
      <trkpt lat="28.2912320" lon="-16.5647450">
        <ele>2062.9</ele>
        <time>2020-11-11T18:39:05Z</time>
      </trkpt>
      <trkpt lat="28.2912320" lon="-16.5647450">
        <ele>2062.9</ele>
        <time>2020-11-11T18:39:06Z</time>
      </trkpt>
      <trkpt lat="28.2911430" lon="-16.5647650">
        <ele>2062.9</ele>
        <time>2020-11-11T18:39:07Z</time>
      </trkpt>
      <trkpt lat="28.2911430" lon="-16.5647650">
        <ele>2062.9</ele>
        <time>2020-11-11T18:39:08Z</time>
      </trkpt>
      <trkpt lat="28.2910530" lon="-16.5647780">
        <ele>2062.9</ele>
        <time>2020-11-11T18:39:09Z</time>
      </trkpt>
      <trkpt lat="28.2910100" lon="-16.5647850">
        <ele>2062.9</ele>
        <time>2020-11-11T18:39:10Z</time>
      </trkpt>
      <trkpt lat="28.2910100" lon="-16.5647850">
        <ele>2062.9</ele>
        <time>2020-11-11T18:39:11Z</time>
      </trkpt>
      <trkpt lat="28.2909200" lon="-16.5647970">
        <ele>2062.9</ele>
        <time>2020-11-11T18:39:12Z</time>
      </trkpt>
      <trkpt lat="28.2909200" lon="-16.5647970">
        <ele>2062.9</ele>
        <time>2020-11-11T18:39:13Z</time>
      </trkpt>
      <trkpt lat="28.2908320" lon="-16.5648120">
        <ele>2062.9</ele>
        <time>2020-11-11T18:39:14Z</time>
      </trkpt>
      <trkpt lat="28.2908320" lon="-16.5648120">
        <ele>2062.9</ele>
        <time>2020-11-11T18:39:15Z</time>
      </trkpt>
      <trkpt lat="28.2907430" lon="-16.5648320">
        <ele>2062.9</ele>
        <time>2020-11-11T18:39:16Z</time>
      </trkpt>
      <trkpt lat="28.2907430" lon="-16.5648320">
        <ele>2062.9</ele>
        <time>2020-11-11T18:39:17Z</time>
      </trkpt>
      <trkpt lat="28.2906570" lon="-16.5648480">
        <ele>2063.9</ele>
        <time>2020-11-11T18:39:18Z</time>
      </trkpt>
      <trkpt lat="28.2906570" lon="-16.5648480">
        <ele>2063.9</ele>
        <time>2020-11-11T18:39:19Z</time>
      </trkpt>
      <trkpt lat="28.2905670" lon="-16.5648670">
        <ele>2063.9</ele>
        <time>2020-11-11T18:39:20Z</time>
      </trkpt>
      <trkpt lat="28.2905670" lon="-16.5648670">
        <ele>2063.9</ele>
        <time>2020-11-11T18:39:21Z</time>
      </trkpt>
      <trkpt lat="28.2904770" lon="-16.5648870">
        <ele>2063.9</ele>
        <time>2020-11-11T18:39:22Z</time>
      </trkpt>
      <trkpt lat="28.2904770" lon="-16.5648870">
        <ele>2063.9</ele>
        <time>2020-11-11T18:39:23Z</time>
      </trkpt>
      <trkpt lat="28.2903830" lon="-16.5649020">
        <ele>2063.9</ele>
        <time>2020-11-11T18:39:24Z</time>
      </trkpt>
      <trkpt lat="28.2903830" lon="-16.5649020">
        <ele>2063.9</ele>
        <time>2020-11-11T18:39:25Z</time>
      </trkpt>
      <trkpt lat="28.2902930" lon="-16.5649250">
        <ele>2063.9</ele>
        <time>2020-11-11T18:39:26Z</time>
      </trkpt>
      <trkpt lat="28.2902930" lon="-16.5649250">
        <ele>2063.9</ele>
        <time>2020-11-11T18:39:27Z</time>
      </trkpt>
      <trkpt lat="28.2902070" lon="-16.5649430">
        <ele>2063.9</ele>
        <time>2020-11-11T18:39:28Z</time>
      </trkpt>
      <trkpt lat="28.2902070" lon="-16.5649430">
        <ele>2063.9</ele>
        <time>2020-11-11T18:39:29Z</time>
      </trkpt>
      <trkpt lat="28.2901130" lon="-16.5649600">
        <ele>2063.9</ele>
        <time>2020-11-11T18:39:30Z</time>
      </trkpt>
      <trkpt lat="28.2901130" lon="-16.5649600">
        <ele>2063.9</ele>
        <time>2020-11-11T18:39:31Z</time>
      </trkpt>
      <trkpt lat="28.2900220" lon="-16.5649770">
        <ele>2063.9</ele>
        <time>2020-11-11T18:39:32Z</time>
      </trkpt>
      <trkpt lat="28.2900220" lon="-16.5649770">
        <ele>2063.9</ele>
        <time>2020-11-11T18:39:33Z</time>
      </trkpt>
      <trkpt lat="28.2899300" lon="-16.5649930">
        <ele>2063.9</ele>
        <time>2020-11-11T18:39:34Z</time>
      </trkpt>
      <trkpt lat="28.2899300" lon="-16.5649930">
        <ele>2063.9</ele>
        <time>2020-11-11T18:39:35Z</time>
      </trkpt>
      <trkpt lat="28.2898400" lon="-16.5650100">
        <ele>2063.9</ele>
        <time>2020-11-11T18:39:36Z</time>
      </trkpt>
      <trkpt lat="28.2898400" lon="-16.5650100">
        <ele>2063.9</ele>
        <time>2020-11-11T18:39:37Z</time>
      </trkpt>
      <trkpt lat="28.2897470" lon="-16.5650300">
        <ele>2063.9</ele>
        <time>2020-11-11T18:39:38Z</time>
      </trkpt>
      <trkpt lat="28.2897470" lon="-16.5650300">
        <ele>2063.9</ele>
        <time>2020-11-11T18:39:39Z</time>
      </trkpt>
      <trkpt lat="28.2896520" lon="-16.5650480">
        <ele>2063.9</ele>
        <time>2020-11-11T18:39:40Z</time>
      </trkpt>
      <trkpt lat="28.2896520" lon="-16.5650480">
        <ele>2063.9</ele>
        <time>2020-11-11T18:39:41Z</time>
      </trkpt>
      <trkpt lat="28.2895580" lon="-16.5650670">
        <ele>2063.9</ele>
        <time>2020-11-11T18:39:42Z</time>
      </trkpt>
      <trkpt lat="28.2895130" lon="-16.5650720">
        <ele>2063.9</ele>
        <time>2020-11-11T18:39:43Z</time>
      </trkpt>
      <trkpt lat="28.2895130" lon="-16.5650720">
        <ele>2063.9</ele>
        <time>2020-11-11T18:39:44Z</time>
      </trkpt>
      <trkpt lat="28.2894230" lon="-16.5650880">
        <ele>2063.9</ele>
        <time>2020-11-11T18:39:45Z</time>
      </trkpt>
      <trkpt lat="28.2894230" lon="-16.5650880">
        <ele>2063.9</ele>
        <time>2020-11-11T18:39:46Z</time>
      </trkpt>
      <trkpt lat="28.2893400" lon="-16.5651070">
        <ele>2063.9</ele>
        <time>2020-11-11T18:39:47Z</time>
      </trkpt>
      <trkpt lat="28.2892950" lon="-16.5651150">
        <ele>2063.9</ele>
        <time>2020-11-11T18:39:48Z</time>
      </trkpt>
      <trkpt lat="28.2892480" lon="-16.5651220">
        <ele>2063.9</ele>
        <time>2020-11-11T18:39:49Z</time>
      </trkpt>
      <trkpt lat="28.2892480" lon="-16.5651220">
        <ele>2063.9</ele>
        <time>2020-11-11T18:39:50Z</time>
      </trkpt>
      <trkpt lat="28.2891570" lon="-16.5651350">
        <ele>2064.9</ele>
        <time>2020-11-11T18:39:51Z</time>
      </trkpt>
      <trkpt lat="28.2891570" lon="-16.5651350">
        <ele>2064.9</ele>
        <time>2020-11-11T18:39:52Z</time>
      </trkpt>
      <trkpt lat="28.2890730" lon="-16.5651520">
        <ele>2064.9</ele>
        <time>2020-11-11T18:39:53Z</time>
      </trkpt>
      <trkpt lat="28.2890730" lon="-16.5651520">
        <ele>2064.9</ele>
        <time>2020-11-11T18:39:54Z</time>
      </trkpt>
      <trkpt lat="28.2889830" lon="-16.5651630">
        <ele>2064.9</ele>
        <time>2020-11-11T18:39:55Z</time>
      </trkpt>
      <trkpt lat="28.2889830" lon="-16.5651630">
        <ele>2064.9</ele>
        <time>2020-11-11T18:39:56Z</time>
      </trkpt>
      <trkpt lat="28.2888850" lon="-16.5651550">
        <ele>2064.9</ele>
        <time>2020-11-11T18:39:57Z</time>
      </trkpt>
      <trkpt lat="28.2888850" lon="-16.5651550">
        <ele>2064.9</ele>
        <time>2020-11-11T18:39:58Z</time>
      </trkpt>
      <trkpt lat="28.2887900" lon="-16.5651280">
        <ele>2064.9</ele>
        <time>2020-11-11T18:39:59Z</time>
      </trkpt>
      <trkpt lat="28.2887900" lon="-16.5651280">
        <ele>2064.9</ele>
        <time>2020-11-11T18:40:00Z</time>
      </trkpt>
      <trkpt lat="28.2886970" lon="-16.5650870">
        <ele>2064.9</ele>
        <time>2020-11-11T18:40:01Z</time>
      </trkpt>
      <trkpt lat="28.2886970" lon="-16.5650870">
        <ele>2064.9</ele>
        <time>2020-11-11T18:40:02Z</time>
      </trkpt>
      <trkpt lat="28.2886050" lon="-16.5650430">
        <ele>2064.9</ele>
        <time>2020-11-11T18:40:03Z</time>
      </trkpt>
      <trkpt lat="28.2885630" lon="-16.5650220">
        <ele>2064.9</ele>
        <time>2020-11-11T18:40:04Z</time>
      </trkpt>
      <trkpt lat="28.2885630" lon="-16.5650220">
        <ele>2065.9</ele>
        <time>2020-11-11T18:40:05Z</time>
      </trkpt>
      <trkpt lat="28.2884800" lon="-16.5649820">
        <ele>2065.9</ele>
        <time>2020-11-11T18:40:06Z</time>
      </trkpt>
      <trkpt lat="28.2884800" lon="-16.5649820">
        <ele>2065.9</ele>
        <time>2020-11-11T18:40:07Z</time>
      </trkpt>
      <trkpt lat="28.2884020" lon="-16.5649430">
        <ele>2065.9</ele>
        <time>2020-11-11T18:40:08Z</time>
      </trkpt>
      <trkpt lat="28.2884020" lon="-16.5649430">
        <ele>2065.9</ele>
        <time>2020-11-11T18:40:09Z</time>
      </trkpt>
      <trkpt lat="28.2883200" lon="-16.5649050">
        <ele>2065.9</ele>
        <time>2020-11-11T18:40:10Z</time>
      </trkpt>
      <trkpt lat="28.2883200" lon="-16.5649050">
        <ele>2065.9</ele>
        <time>2020-11-11T18:40:11Z</time>
      </trkpt>
      <trkpt lat="28.2882350" lon="-16.5648650">
        <ele>2065.9</ele>
        <time>2020-11-11T18:40:12Z</time>
      </trkpt>
      <trkpt lat="28.2882350" lon="-16.5648650">
        <ele>2065.9</ele>
        <time>2020-11-11T18:40:13Z</time>
      </trkpt>
      <trkpt lat="28.2881520" lon="-16.5648270">
        <ele>2065.9</ele>
        <time>2020-11-11T18:40:14Z</time>
      </trkpt>
      <trkpt lat="28.2881520" lon="-16.5648270">
        <ele>2065.9</ele>
        <time>2020-11-11T18:40:15Z</time>
      </trkpt>
      <trkpt lat="28.2880670" lon="-16.5647900">
        <ele>2065.9</ele>
        <time>2020-11-11T18:40:16Z</time>
      </trkpt>
      <trkpt lat="28.2880250" lon="-16.5647700">
        <ele>2065.9</ele>
        <time>2020-11-11T18:40:17Z</time>
      </trkpt>
      <trkpt lat="28.2880250" lon="-16.5647700">
        <ele>2066.9</ele>
        <time>2020-11-11T18:40:18Z</time>
      </trkpt>
      <trkpt lat="28.2879420" lon="-16.5647280">
        <ele>2066.9</ele>
        <time>2020-11-11T18:40:19Z</time>
      </trkpt>
      <trkpt lat="28.2879420" lon="-16.5647280">
        <ele>2066.9</ele>
        <time>2020-11-11T18:40:20Z</time>
      </trkpt>
      <trkpt lat="28.2878550" lon="-16.5646920">
        <ele>2066.9</ele>
        <time>2020-11-11T18:40:21Z</time>
      </trkpt>
      <trkpt lat="28.2878550" lon="-16.5646920">
        <ele>2066.9</ele>
        <time>2020-11-11T18:40:22Z</time>
      </trkpt>
      <trkpt lat="28.2877650" lon="-16.5646700">
        <ele>2066.9</ele>
        <time>2020-11-11T18:40:23Z</time>
      </trkpt>
      <trkpt lat="28.2877650" lon="-16.5646700">
        <ele>2066.9</ele>
        <time>2020-11-11T18:40:24Z</time>
      </trkpt>
      <trkpt lat="28.2876680" lon="-16.5646700">
        <ele>2066.9</ele>
        <time>2020-11-11T18:40:25Z</time>
      </trkpt>
      <trkpt lat="28.2876680" lon="-16.5646700">
        <ele>2066.9</ele>
        <time>2020-11-11T18:40:26Z</time>
      </trkpt>
      <trkpt lat="28.2875720" lon="-16.5646950">
        <ele>2066.9</ele>
        <time>2020-11-11T18:40:27Z</time>
      </trkpt>
      <trkpt lat="28.2875250" lon="-16.5647120">
        <ele>2066.9</ele>
        <time>2020-11-11T18:40:28Z</time>
      </trkpt>
      <trkpt lat="28.2875250" lon="-16.5647120">
        <ele>2066.9</ele>
        <time>2020-11-11T18:40:29Z</time>
      </trkpt>
      <trkpt lat="28.2874380" lon="-16.5647530">
        <ele>2066.9</ele>
        <time>2020-11-11T18:40:30Z</time>
      </trkpt>
      <trkpt lat="28.2874380" lon="-16.5647530">
        <ele>2066.9</ele>
        <time>2020-11-11T18:40:31Z</time>
      </trkpt>
      <trkpt lat="28.2873530" lon="-16.5648030">
        <ele>2066.9</ele>
        <time>2020-11-11T18:40:32Z</time>
      </trkpt>
      <trkpt lat="28.2873530" lon="-16.5648030">
        <ele>2066.9</ele>
        <time>2020-11-11T18:40:33Z</time>
      </trkpt>
      <trkpt lat="28.2872720" lon="-16.5648530">
        <ele>2066.9</ele>
        <time>2020-11-11T18:40:34Z</time>
      </trkpt>
      <trkpt lat="28.2872720" lon="-16.5648530">
        <ele>2066.9</ele>
        <time>2020-11-11T18:40:35Z</time>
      </trkpt>
      <trkpt lat="28.2871900" lon="-16.5649020">
        <ele>2066.9</ele>
        <time>2020-11-11T18:40:36Z</time>
      </trkpt>
      <trkpt lat="28.2871500" lon="-16.5649270">
        <ele>2066.9</ele>
        <time>2020-11-11T18:40:37Z</time>
      </trkpt>
      <trkpt lat="28.2871500" lon="-16.5649270">
        <ele>2066.9</ele>
        <time>2020-11-11T18:40:38Z</time>
      </trkpt>
      <trkpt lat="28.2870680" lon="-16.5649770">
        <ele>2066.9</ele>
        <time>2020-11-11T18:40:39Z</time>
      </trkpt>
      <trkpt lat="28.2870680" lon="-16.5649770">
        <ele>2066.9</ele>
        <time>2020-11-11T18:40:40Z</time>
      </trkpt>
      <trkpt lat="28.2869830" lon="-16.5650220">
        <ele>2066.9</ele>
        <time>2020-11-11T18:40:41Z</time>
      </trkpt>
      <trkpt lat="28.2869830" lon="-16.5650220">
        <ele>2066.9</ele>
        <time>2020-11-11T18:40:42Z</time>
      </trkpt>
      <trkpt lat="28.2868970" lon="-16.5650720">
        <ele>2066.9</ele>
        <time>2020-11-11T18:40:43Z</time>
      </trkpt>
      <trkpt lat="28.2868970" lon="-16.5650720">
        <ele>2066.9</ele>
        <time>2020-11-11T18:40:44Z</time>
      </trkpt>
      <trkpt lat="28.2868120" lon="-16.5651180">
        <ele>2066.9</ele>
        <time>2020-11-11T18:40:45Z</time>
      </trkpt>
      <trkpt lat="28.2867700" lon="-16.5651400">
        <ele>2066.9</ele>
        <time>2020-11-11T18:40:46Z</time>
      </trkpt>
      <trkpt lat="28.2867700" lon="-16.5651400">
        <ele>2066.9</ele>
        <time>2020-11-11T18:40:47Z</time>
      </trkpt>
      <trkpt lat="28.2866870" lon="-16.5651850">
        <ele>2067.9</ele>
        <time>2020-11-11T18:40:48Z</time>
      </trkpt>
      <trkpt lat="28.2866870" lon="-16.5651850">
        <ele>2067.9</ele>
        <time>2020-11-11T18:40:49Z</time>
      </trkpt>
      <trkpt lat="28.2866030" lon="-16.5652330">
        <ele>2067.9</ele>
        <time>2020-11-11T18:40:50Z</time>
      </trkpt>
      <trkpt lat="28.2866030" lon="-16.5652330">
        <ele>2067.9</ele>
        <time>2020-11-11T18:40:51Z</time>
      </trkpt>
      <trkpt lat="28.2865220" lon="-16.5652830">
        <ele>2067.9</ele>
        <time>2020-11-11T18:40:52Z</time>
      </trkpt>
      <trkpt lat="28.2865220" lon="-16.5652830">
        <ele>2067.9</ele>
        <time>2020-11-11T18:40:53Z</time>
      </trkpt>
      <trkpt lat="28.2864480" lon="-16.5653420">
        <ele>2067.9</ele>
        <time>2020-11-11T18:40:54Z</time>
      </trkpt>
      <trkpt lat="28.2864480" lon="-16.5653420">
        <ele>2067.9</ele>
        <time>2020-11-11T18:40:55Z</time>
      </trkpt>
      <trkpt lat="28.2863830" lon="-16.5654180">
        <ele>2067.9</ele>
        <time>2020-11-11T18:40:56Z</time>
      </trkpt>
      <trkpt lat="28.2863830" lon="-16.5654180">
        <ele>2067.9</ele>
        <time>2020-11-11T18:40:57Z</time>
      </trkpt>
      <trkpt lat="28.2863170" lon="-16.5654980">
        <ele>2067.9</ele>
        <time>2020-11-11T18:40:58Z</time>
      </trkpt>
      <trkpt lat="28.2863170" lon="-16.5654980">
        <ele>2067.9</ele>
        <time>2020-11-11T18:40:59Z</time>
      </trkpt>
      <trkpt lat="28.2862570" lon="-16.5655820">
        <ele>2069.9</ele>
        <time>2020-11-11T18:41:00Z</time>
      </trkpt>
      <trkpt lat="28.2862300" lon="-16.5656230">
        <ele>2069.9</ele>
        <time>2020-11-11T18:41:01Z</time>
      </trkpt>
      <trkpt lat="28.2862030" lon="-16.5656670">
        <ele>2069.9</ele>
        <time>2020-11-11T18:41:02Z</time>
      </trkpt>
      <trkpt lat="28.2862030" lon="-16.5656670">
        <ele>2069.9</ele>
        <time>2020-11-11T18:41:03Z</time>
      </trkpt>
      <trkpt lat="28.2861420" lon="-16.5657450">
        <ele>2069.9</ele>
        <time>2020-11-11T18:41:04Z</time>
      </trkpt>
      <trkpt lat="28.2861420" lon="-16.5657450">
        <ele>2069.9</ele>
        <time>2020-11-11T18:41:05Z</time>
      </trkpt>
      <trkpt lat="28.2860820" lon="-16.5658270">
        <ele>2069.9</ele>
        <time>2020-11-11T18:41:06Z</time>
      </trkpt>
      <trkpt lat="28.2860820" lon="-16.5658270">
        <ele>2069.9</ele>
        <time>2020-11-11T18:41:07Z</time>
      </trkpt>
      <trkpt lat="28.2860250" lon="-16.5659000">
        <ele>2069.9</ele>
        <time>2020-11-11T18:41:08Z</time>
      </trkpt>
      <trkpt lat="28.2860250" lon="-16.5659000">
        <ele>2069.9</ele>
        <time>2020-11-11T18:41:09Z</time>
      </trkpt>
      <trkpt lat="28.2859720" lon="-16.5659750">
        <ele>2069.9</ele>
        <time>2020-11-11T18:41:10Z</time>
      </trkpt>
      <trkpt lat="28.2859720" lon="-16.5659750">
        <ele>2069.9</ele>
        <time>2020-11-11T18:41:11Z</time>
      </trkpt>
      <trkpt lat="28.2859130" lon="-16.5660580">
        <ele>2069.9</ele>
        <time>2020-11-11T18:41:12Z</time>
      </trkpt>
      <trkpt lat="28.2858820" lon="-16.5661000">
        <ele>2069.9</ele>
        <time>2020-11-11T18:41:13Z</time>
      </trkpt>
      <trkpt lat="28.2858820" lon="-16.5661000">
        <ele>2069.9</ele>
        <time>2020-11-11T18:41:14Z</time>
      </trkpt>
      <trkpt lat="28.2858170" lon="-16.5661830">
        <ele>2069.9</ele>
        <time>2020-11-11T18:41:15Z</time>
      </trkpt>
      <trkpt lat="28.2858170" lon="-16.5661830">
        <ele>2069.9</ele>
        <time>2020-11-11T18:41:16Z</time>
      </trkpt>
      <trkpt lat="28.2857550" lon="-16.5662680">
        <ele>2069.9</ele>
        <time>2020-11-11T18:41:17Z</time>
      </trkpt>
      <trkpt lat="28.2857550" lon="-16.5662680">
        <ele>2069.9</ele>
        <time>2020-11-11T18:41:18Z</time>
      </trkpt>
      <trkpt lat="28.2856930" lon="-16.5663500">
        <ele>2069.9</ele>
        <time>2020-11-11T18:41:19Z</time>
      </trkpt>
      <trkpt lat="28.2856930" lon="-16.5663500">
        <ele>2069.9</ele>
        <time>2020-11-11T18:41:20Z</time>
      </trkpt>
      <trkpt lat="28.2856320" lon="-16.5664320">
        <ele>2069.9</ele>
        <time>2020-11-11T18:41:21Z</time>
      </trkpt>
      <trkpt lat="28.2856320" lon="-16.5664320">
        <ele>2069.9</ele>
        <time>2020-11-11T18:41:22Z</time>
      </trkpt>
      <trkpt lat="28.2855700" lon="-16.5665120">
        <ele>2069.9</ele>
        <time>2020-11-11T18:41:23Z</time>
      </trkpt>
      <trkpt lat="28.2855420" lon="-16.5665530">
        <ele>2069.9</ele>
        <time>2020-11-11T18:41:24Z</time>
      </trkpt>
      <trkpt lat="28.2855420" lon="-16.5665530">
        <ele>2069.9</ele>
        <time>2020-11-11T18:41:25Z</time>
      </trkpt>
      <trkpt lat="28.2854870" lon="-16.5666370">
        <ele>2069.9</ele>
        <time>2020-11-11T18:41:26Z</time>
      </trkpt>
      <trkpt lat="28.2854870" lon="-16.5666370">
        <ele>2069.9</ele>
        <time>2020-11-11T18:41:27Z</time>
      </trkpt>
      <trkpt lat="28.2854270" lon="-16.5667150">
        <ele>2069.9</ele>
        <time>2020-11-11T18:41:28Z</time>
      </trkpt>
      <trkpt lat="28.2854270" lon="-16.5667150">
        <ele>2069.9</ele>
        <time>2020-11-11T18:41:29Z</time>
      </trkpt>
      <trkpt lat="28.2853680" lon="-16.5667900">
        <ele>2069.9</ele>
        <time>2020-11-11T18:41:30Z</time>
      </trkpt>
      <trkpt lat="28.2853680" lon="-16.5667900">
        <ele>2069.9</ele>
        <time>2020-11-11T18:41:31Z</time>
      </trkpt>
      <trkpt lat="28.2853120" lon="-16.5668630">
        <ele>2069.9</ele>
        <time>2020-11-11T18:41:32Z</time>
      </trkpt>
      <trkpt lat="28.2853120" lon="-16.5668630">
        <ele>2069.9</ele>
        <time>2020-11-11T18:41:33Z</time>
      </trkpt>
      <trkpt lat="28.2852600" lon="-16.5669370">
        <ele>2069.9</ele>
        <time>2020-11-11T18:41:34Z</time>
      </trkpt>
      <trkpt lat="28.2852600" lon="-16.5669370">
        <ele>2069.9</ele>
        <time>2020-11-11T18:41:35Z</time>
      </trkpt>
      <trkpt lat="28.2852070" lon="-16.5670050">
        <ele>2070.9</ele>
        <time>2020-11-11T18:41:36Z</time>
      </trkpt>
      <trkpt lat="28.2852070" lon="-16.5670050">
        <ele>2070.9</ele>
        <time>2020-11-11T18:41:37Z</time>
      </trkpt>
      <trkpt lat="28.2851550" lon="-16.5670700">
        <ele>2070.9</ele>
        <time>2020-11-11T18:41:38Z</time>
      </trkpt>
      <trkpt lat="28.2851550" lon="-16.5670700">
        <ele>2070.9</ele>
        <time>2020-11-11T18:41:39Z</time>
      </trkpt>
      <trkpt lat="28.2851130" lon="-16.5671400">
        <ele>2070.9</ele>
        <time>2020-11-11T18:41:40Z</time>
      </trkpt>
      <trkpt lat="28.2851130" lon="-16.5671400">
        <ele>2070.9</ele>
        <time>2020-11-11T18:41:41Z</time>
      </trkpt>
      <trkpt lat="28.2850630" lon="-16.5672130">
        <ele>2070.9</ele>
        <time>2020-11-11T18:41:42Z</time>
      </trkpt>
      <trkpt lat="28.2850370" lon="-16.5672480">
        <ele>2071.9</ele>
        <time>2020-11-11T18:41:43Z</time>
      </trkpt>
      <trkpt lat="28.2850370" lon="-16.5672480">
        <ele>2071.9</ele>
        <time>2020-11-11T18:41:44Z</time>
      </trkpt>
      <trkpt lat="28.2849800" lon="-16.5673180">
        <ele>2071.9</ele>
        <time>2020-11-11T18:41:45Z</time>
      </trkpt>
      <trkpt lat="28.2849800" lon="-16.5673180">
        <ele>2071.9</ele>
        <time>2020-11-11T18:41:46Z</time>
      </trkpt>
      <trkpt lat="28.2849250" lon="-16.5673900">
        <ele>2071.9</ele>
        <time>2020-11-11T18:41:47Z</time>
      </trkpt>
      <trkpt lat="28.2849250" lon="-16.5673900">
        <ele>2071.9</ele>
        <time>2020-11-11T18:41:48Z</time>
      </trkpt>
      <trkpt lat="28.2848720" lon="-16.5674650">
        <ele>2071.9</ele>
        <time>2020-11-11T18:41:49Z</time>
      </trkpt>
      <trkpt lat="28.2848720" lon="-16.5674650">
        <ele>2071.9</ele>
        <time>2020-11-11T18:41:50Z</time>
      </trkpt>
      <trkpt lat="28.2848150" lon="-16.5675370">
        <ele>2071.9</ele>
        <time>2020-11-11T18:41:51Z</time>
      </trkpt>
      <trkpt lat="28.2848150" lon="-16.5675370">
        <ele>2071.9</ele>
        <time>2020-11-11T18:41:52Z</time>
      </trkpt>
      <trkpt lat="28.2847600" lon="-16.5676070">
        <ele>2072.9</ele>
        <time>2020-11-11T18:41:53Z</time>
      </trkpt>
      <trkpt lat="28.2847600" lon="-16.5676070">
        <ele>2072.9</ele>
        <time>2020-11-11T18:41:54Z</time>
      </trkpt>
      <trkpt lat="28.2847070" lon="-16.5676780">
        <ele>2072.9</ele>
        <time>2020-11-11T18:41:55Z</time>
      </trkpt>
      <trkpt lat="28.2847070" lon="-16.5676780">
        <ele>2072.9</ele>
        <time>2020-11-11T18:41:56Z</time>
      </trkpt>
      <trkpt lat="28.2846530" lon="-16.5677550">
        <ele>2073.9</ele>
        <time>2020-11-11T18:41:57Z</time>
      </trkpt>
      <trkpt lat="28.2846230" lon="-16.5677930">
        <ele>2073.9</ele>
        <time>2020-11-11T18:41:58Z</time>
      </trkpt>
      <trkpt lat="28.2845950" lon="-16.5678300">
        <ele>2073.9</ele>
        <time>2020-11-11T18:41:59Z</time>
      </trkpt>
      <trkpt lat="28.2845950" lon="-16.5678300">
        <ele>2073.9</ele>
        <time>2020-11-11T18:42:00Z</time>
      </trkpt>
      <trkpt lat="28.2845380" lon="-16.5679020">
        <ele>2073.9</ele>
        <time>2020-11-11T18:42:01Z</time>
      </trkpt>
      <trkpt lat="28.2845380" lon="-16.5679020">
        <ele>2073.9</ele>
        <time>2020-11-11T18:42:02Z</time>
      </trkpt>
      <trkpt lat="28.2844830" lon="-16.5679770">
        <ele>2073.9</ele>
        <time>2020-11-11T18:42:03Z</time>
      </trkpt>
      <trkpt lat="28.2844830" lon="-16.5679770">
        <ele>2073.9</ele>
        <time>2020-11-11T18:42:04Z</time>
      </trkpt>
      <trkpt lat="28.2844280" lon="-16.5680520">
        <ele>2073.9</ele>
        <time>2020-11-11T18:42:05Z</time>
      </trkpt>
      <trkpt lat="28.2844000" lon="-16.5680880">
        <ele>2074.9</ele>
        <time>2020-11-11T18:42:06Z</time>
      </trkpt>
      <trkpt lat="28.2844000" lon="-16.5680880">
        <ele>2074.9</ele>
        <time>2020-11-11T18:42:07Z</time>
      </trkpt>
      <trkpt lat="28.2843470" lon="-16.5681600">
        <ele>2074.9</ele>
        <time>2020-11-11T18:42:08Z</time>
      </trkpt>
      <trkpt lat="28.2843470" lon="-16.5681600">
        <ele>2074.9</ele>
        <time>2020-11-11T18:42:09Z</time>
      </trkpt>
      <trkpt lat="28.2843000" lon="-16.5682320">
        <ele>2074.9</ele>
        <time>2020-11-11T18:42:10Z</time>
      </trkpt>
      <trkpt lat="28.2843000" lon="-16.5682320">
        <ele>2074.9</ele>
        <time>2020-11-11T18:42:11Z</time>
      </trkpt>
      <trkpt lat="28.2842620" lon="-16.5683030">
        <ele>2074.9</ele>
        <time>2020-11-11T18:42:12Z</time>
      </trkpt>
      <trkpt lat="28.2842620" lon="-16.5683030">
        <ele>2075.9</ele>
        <time>2020-11-11T18:42:13Z</time>
      </trkpt>
      <trkpt lat="28.2842270" lon="-16.5683730">
        <ele>2075.9</ele>
        <time>2020-11-11T18:42:14Z</time>
      </trkpt>
      <trkpt lat="28.2842270" lon="-16.5683730">
        <ele>2075.9</ele>
        <time>2020-11-11T18:42:15Z</time>
      </trkpt>
      <trkpt lat="28.2841930" lon="-16.5684420">
        <ele>2075.9</ele>
        <time>2020-11-11T18:42:16Z</time>
      </trkpt>
      <trkpt lat="28.2841780" lon="-16.5684770">
        <ele>2075.9</ele>
        <time>2020-11-11T18:42:17Z</time>
      </trkpt>
      <trkpt lat="28.2841780" lon="-16.5684770">
        <ele>2075.9</ele>
        <time>2020-11-11T18:42:18Z</time>
      </trkpt>
      <trkpt lat="28.2841520" lon="-16.5685480">
        <ele>2076.9</ele>
        <time>2020-11-11T18:42:19Z</time>
      </trkpt>
      <trkpt lat="28.2841520" lon="-16.5685480">
        <ele>2076.9</ele>
        <time>2020-11-11T18:42:20Z</time>
      </trkpt>
      <trkpt lat="28.2841200" lon="-16.5686200">
        <ele>2076.9</ele>
        <time>2020-11-11T18:42:21Z</time>
      </trkpt>
      <trkpt lat="28.2841030" lon="-16.5686530">
        <ele>2076.9</ele>
        <time>2020-11-11T18:42:22Z</time>
      </trkpt>
      <trkpt lat="28.2841030" lon="-16.5686530">
        <ele>2076.9</ele>
        <time>2020-11-11T18:42:23Z</time>
      </trkpt>
      <trkpt lat="28.2840680" lon="-16.5687200">
        <ele>2076.9</ele>
        <time>2020-11-11T18:42:24Z</time>
      </trkpt>
      <trkpt lat="28.2840680" lon="-16.5687200">
        <ele>2076.9</ele>
        <time>2020-11-11T18:42:25Z</time>
      </trkpt>
      <trkpt lat="28.2840350" lon="-16.5687870">
        <ele>2076.9</ele>
        <time>2020-11-11T18:42:26Z</time>
      </trkpt>
      <trkpt lat="28.2840350" lon="-16.5687870">
        <ele>2076.9</ele>
        <time>2020-11-11T18:42:27Z</time>
      </trkpt>
      <trkpt lat="28.2840020" lon="-16.5688550">
        <ele>2076.9</ele>
        <time>2020-11-11T18:42:28Z</time>
      </trkpt>
      <trkpt lat="28.2840020" lon="-16.5688550">
        <ele>2076.9</ele>
        <time>2020-11-11T18:42:29Z</time>
      </trkpt>
      <trkpt lat="28.2839700" lon="-16.5689220">
        <ele>2076.9</ele>
        <time>2020-11-11T18:42:30Z</time>
      </trkpt>
      <trkpt lat="28.2839530" lon="-16.5689550">
        <ele>2076.9</ele>
        <time>2020-11-11T18:42:31Z</time>
      </trkpt>
      <trkpt lat="28.2839530" lon="-16.5689550">
        <ele>2076.9</ele>
        <time>2020-11-11T18:42:32Z</time>
      </trkpt>
      <trkpt lat="28.2839220" lon="-16.5690250">
        <ele>2076.9</ele>
        <time>2020-11-11T18:42:33Z</time>
      </trkpt>
      <trkpt lat="28.2839220" lon="-16.5690250">
        <ele>2076.9</ele>
        <time>2020-11-11T18:42:34Z</time>
      </trkpt>
      <trkpt lat="28.2838900" lon="-16.5690950">
        <ele>2076.9</ele>
        <time>2020-11-11T18:42:35Z</time>
      </trkpt>
      <trkpt lat="28.2838900" lon="-16.5690950">
        <ele>2076.9</ele>
        <time>2020-11-11T18:42:36Z</time>
      </trkpt>
      <trkpt lat="28.2838600" lon="-16.5691650">
        <ele>2076.9</ele>
        <time>2020-11-11T18:42:37Z</time>
      </trkpt>
      <trkpt lat="28.2838600" lon="-16.5691650">
        <ele>2076.9</ele>
        <time>2020-11-11T18:42:38Z</time>
      </trkpt>
      <trkpt lat="28.2838300" lon="-16.5692330">
        <ele>2076.9</ele>
        <time>2020-11-11T18:42:39Z</time>
      </trkpt>
      <trkpt lat="28.2838300" lon="-16.5692330">
        <ele>2077.9</ele>
        <time>2020-11-11T18:42:40Z</time>
      </trkpt>
      <trkpt lat="28.2837980" lon="-16.5693000">
        <ele>2077.9</ele>
        <time>2020-11-11T18:42:41Z</time>
      </trkpt>
      <trkpt lat="28.2837980" lon="-16.5693000">
        <ele>2077.9</ele>
        <time>2020-11-11T18:42:42Z</time>
      </trkpt>
      <trkpt lat="28.2837620" lon="-16.5693730">
        <ele>2077.9</ele>
        <time>2020-11-11T18:42:43Z</time>
      </trkpt>
      <trkpt lat="28.2837620" lon="-16.5693730">
        <ele>2077.9</ele>
        <time>2020-11-11T18:42:44Z</time>
      </trkpt>
      <trkpt lat="28.2837300" lon="-16.5694500">
        <ele>2077.9</ele>
        <time>2020-11-11T18:42:45Z</time>
      </trkpt>
      <trkpt lat="28.2837300" lon="-16.5694500">
        <ele>2077.9</ele>
        <time>2020-11-11T18:42:46Z</time>
      </trkpt>
      <trkpt lat="28.2836950" lon="-16.5695200">
        <ele>2078.9</ele>
        <time>2020-11-11T18:42:47Z</time>
      </trkpt>
      <trkpt lat="28.2836800" lon="-16.5695550">
        <ele>2078.9</ele>
        <time>2020-11-11T18:42:48Z</time>
      </trkpt>
      <trkpt lat="28.2836800" lon="-16.5695550">
        <ele>2078.9</ele>
        <time>2020-11-11T18:42:49Z</time>
      </trkpt>
      <trkpt lat="28.2836600" lon="-16.5696230">
        <ele>2078.9</ele>
        <time>2020-11-11T18:42:50Z</time>
      </trkpt>
      <trkpt lat="28.2836600" lon="-16.5696230">
        <ele>2078.9</ele>
        <time>2020-11-11T18:42:51Z</time>
      </trkpt>
      <trkpt lat="28.2836420" lon="-16.5696900">
        <ele>2078.9</ele>
        <time>2020-11-11T18:42:52Z</time>
      </trkpt>
      <trkpt lat="28.2836420" lon="-16.5696900">
        <ele>2078.9</ele>
        <time>2020-11-11T18:42:53Z</time>
      </trkpt>
      <trkpt lat="28.2836270" lon="-16.5697570">
        <ele>2078.9</ele>
        <time>2020-11-11T18:42:54Z</time>
      </trkpt>
      <trkpt lat="28.2836270" lon="-16.5697570">
        <ele>2078.9</ele>
        <time>2020-11-11T18:42:55Z</time>
      </trkpt>
      <trkpt lat="28.2836230" lon="-16.5698250">
        <ele>2078.9</ele>
        <time>2020-11-11T18:42:56Z</time>
      </trkpt>
      <trkpt lat="28.2836220" lon="-16.5698600">
        <ele>2079.9</ele>
        <time>2020-11-11T18:42:57Z</time>
      </trkpt>
      <trkpt lat="28.2836220" lon="-16.5698600">
        <ele>2079.9</ele>
        <time>2020-11-11T18:42:58Z</time>
      </trkpt>
      <trkpt lat="28.2836180" lon="-16.5699300">
        <ele>2079.9</ele>
        <time>2020-11-11T18:42:59Z</time>
      </trkpt>
      <trkpt lat="28.2836180" lon="-16.5699300">
        <ele>2079.9</ele>
        <time>2020-11-11T18:43:00Z</time>
      </trkpt>
      <trkpt lat="28.2836180" lon="-16.5700020">
        <ele>2079.9</ele>
        <time>2020-11-11T18:43:01Z</time>
      </trkpt>
      <trkpt lat="28.2836180" lon="-16.5700020">
        <ele>2079.9</ele>
        <time>2020-11-11T18:43:02Z</time>
      </trkpt>
      <trkpt lat="28.2836220" lon="-16.5700750">
        <ele>2079.9</ele>
        <time>2020-11-11T18:43:03Z</time>
      </trkpt>
      <trkpt lat="28.2836220" lon="-16.5700750">
        <ele>2079.9</ele>
        <time>2020-11-11T18:43:04Z</time>
      </trkpt>
      <trkpt lat="28.2836230" lon="-16.5701480">
        <ele>2079.9</ele>
        <time>2020-11-11T18:43:05Z</time>
      </trkpt>
      <trkpt lat="28.2836230" lon="-16.5701480">
        <ele>2079.9</ele>
        <time>2020-11-11T18:43:06Z</time>
      </trkpt>
      <trkpt lat="28.2836230" lon="-16.5702230">
        <ele>2079.9</ele>
        <time>2020-11-11T18:43:07Z</time>
      </trkpt>
      <trkpt lat="28.2836230" lon="-16.5702230">
        <ele>2079.9</ele>
        <time>2020-11-11T18:43:08Z</time>
      </trkpt>
      <trkpt lat="28.2836230" lon="-16.5702980">
        <ele>2079.9</ele>
        <time>2020-11-11T18:43:09Z</time>
      </trkpt>
      <trkpt lat="28.2836220" lon="-16.5703350">
        <ele>2079.9</ele>
        <time>2020-11-11T18:43:10Z</time>
      </trkpt>
      <trkpt lat="28.2836220" lon="-16.5703350">
        <ele>2079.9</ele>
        <time>2020-11-11T18:43:11Z</time>
      </trkpt>
      <trkpt lat="28.2836230" lon="-16.5704080">
        <ele>2079.9</ele>
        <time>2020-11-11T18:43:12Z</time>
      </trkpt>
      <trkpt lat="28.2836230" lon="-16.5704080">
        <ele>2079.9</ele>
        <time>2020-11-11T18:43:13Z</time>
      </trkpt>
      <trkpt lat="28.2836270" lon="-16.5704800">
        <ele>2079.9</ele>
        <time>2020-11-11T18:43:14Z</time>
      </trkpt>
      <trkpt lat="28.2836270" lon="-16.5704800">
        <ele>2079.9</ele>
        <time>2020-11-11T18:43:15Z</time>
      </trkpt>
      <trkpt lat="28.2836280" lon="-16.5705500">
        <ele>2079.9</ele>
        <time>2020-11-11T18:43:16Z</time>
      </trkpt>
      <trkpt lat="28.2836280" lon="-16.5705500">
        <ele>2080.9</ele>
        <time>2020-11-11T18:43:17Z</time>
      </trkpt>
      <trkpt lat="28.2836280" lon="-16.5706200">
        <ele>2080.9</ele>
        <time>2020-11-11T18:43:18Z</time>
      </trkpt>
      <trkpt lat="28.2836300" lon="-16.5706530">
        <ele>2080.9</ele>
        <time>2020-11-11T18:43:19Z</time>
      </trkpt>
      <trkpt lat="28.2836300" lon="-16.5706530">
        <ele>2080.9</ele>
        <time>2020-11-11T18:43:20Z</time>
      </trkpt>
      <trkpt lat="28.2836320" lon="-16.5707250">
        <ele>2080.9</ele>
        <time>2020-11-11T18:43:21Z</time>
      </trkpt>
      <trkpt lat="28.2836320" lon="-16.5707250">
        <ele>2080.9</ele>
        <time>2020-11-11T18:43:22Z</time>
      </trkpt>
      <trkpt lat="28.2836320" lon="-16.5708020">
        <ele>2080.9</ele>
        <time>2020-11-11T18:43:23Z</time>
      </trkpt>
      <trkpt lat="28.2836320" lon="-16.5708020">
        <ele>2080.9</ele>
        <time>2020-11-11T18:43:24Z</time>
      </trkpt>
      <trkpt lat="28.2836320" lon="-16.5708730">
        <ele>2080.9</ele>
        <time>2020-11-11T18:43:25Z</time>
      </trkpt>
      <trkpt lat="28.2836320" lon="-16.5708730">
        <ele>2081.9</ele>
        <time>2020-11-11T18:43:26Z</time>
      </trkpt>
      <trkpt lat="28.2836350" lon="-16.5709420">
        <ele>2081.9</ele>
        <time>2020-11-11T18:43:27Z</time>
      </trkpt>
      <trkpt lat="28.2836350" lon="-16.5709420">
        <ele>2081.9</ele>
        <time>2020-11-11T18:43:28Z</time>
      </trkpt>
      <trkpt lat="28.2836350" lon="-16.5710080">
        <ele>2081.9</ele>
        <time>2020-11-11T18:43:29Z</time>
      </trkpt>
      <trkpt lat="28.2836350" lon="-16.5710080">
        <ele>2081.9</ele>
        <time>2020-11-11T18:43:30Z</time>
      </trkpt>
      <trkpt lat="28.2836320" lon="-16.5710730">
        <ele>2081.9</ele>
        <time>2020-11-11T18:43:31Z</time>
      </trkpt>
      <trkpt lat="28.2836320" lon="-16.5710730">
        <ele>2082.9</ele>
        <time>2020-11-11T18:43:32Z</time>
      </trkpt>
      <trkpt lat="28.2836270" lon="-16.5711450">
        <ele>2082.9</ele>
        <time>2020-11-11T18:43:33Z</time>
      </trkpt>
      <trkpt lat="28.2836270" lon="-16.5711450">
        <ele>2082.9</ele>
        <time>2020-11-11T18:43:34Z</time>
      </trkpt>
      <trkpt lat="28.2836200" lon="-16.5712170">
        <ele>2082.9</ele>
        <time>2020-11-11T18:43:35Z</time>
      </trkpt>
      <trkpt lat="28.2836200" lon="-16.5712170">
        <ele>2082.9</ele>
        <time>2020-11-11T18:43:36Z</time>
      </trkpt>
      <trkpt lat="28.2836000" lon="-16.5712830">
        <ele>2082.9</ele>
        <time>2020-11-11T18:43:37Z</time>
      </trkpt>
      <trkpt lat="28.2836000" lon="-16.5712830">
        <ele>2082.9</ele>
        <time>2020-11-11T18:43:38Z</time>
      </trkpt>
      <trkpt lat="28.2835670" lon="-16.5713430">
        <ele>2082.9</ele>
        <time>2020-11-11T18:43:39Z</time>
      </trkpt>
      <trkpt lat="28.2835670" lon="-16.5713430">
        <ele>2083.9</ele>
        <time>2020-11-11T18:43:40Z</time>
      </trkpt>
      <trkpt lat="28.2835320" lon="-16.5714000">
        <ele>2083.9</ele>
        <time>2020-11-11T18:43:41Z</time>
      </trkpt>
      <trkpt lat="28.2835320" lon="-16.5714000">
        <ele>2083.9</ele>
        <time>2020-11-11T18:43:42Z</time>
      </trkpt>
      <trkpt lat="28.2834930" lon="-16.5714530">
        <ele>2083.9</ele>
        <time>2020-11-11T18:43:43Z</time>
      </trkpt>
      <trkpt lat="28.2834930" lon="-16.5714530">
        <ele>2083.9</ele>
        <time>2020-11-11T18:43:44Z</time>
      </trkpt>
      <trkpt lat="28.2834550" lon="-16.5715050">
        <ele>2083.9</ele>
        <time>2020-11-11T18:43:45Z</time>
      </trkpt>
      <trkpt lat="28.2834550" lon="-16.5715050">
        <ele>2084.9</ele>
        <time>2020-11-11T18:43:46Z</time>
      </trkpt>
      <trkpt lat="28.2834100" lon="-16.5715470">
        <ele>2084.9</ele>
        <time>2020-11-11T18:43:47Z</time>
      </trkpt>
      <trkpt lat="28.2833880" lon="-16.5715670">
        <ele>2084.9</ele>
        <time>2020-11-11T18:43:48Z</time>
      </trkpt>
      <trkpt lat="28.2833880" lon="-16.5715670">
        <ele>2084.9</ele>
        <time>2020-11-11T18:43:49Z</time>
      </trkpt>
      <trkpt lat="28.2833450" lon="-16.5716070">
        <ele>2084.9</ele>
        <time>2020-11-11T18:43:50Z</time>
      </trkpt>
      <trkpt lat="28.2833230" lon="-16.5716270">
        <ele>2084.9</ele>
        <time>2020-11-11T18:43:51Z</time>
      </trkpt>
      <trkpt lat="28.2833230" lon="-16.5716270">
        <ele>2084.9</ele>
        <time>2020-11-11T18:43:52Z</time>
      </trkpt>
      <trkpt lat="28.2832870" lon="-16.5716630">
        <ele>2084.9</ele>
        <time>2020-11-11T18:43:53Z</time>
      </trkpt>
      <trkpt lat="28.2832870" lon="-16.5716630">
        <ele>2084.9</ele>
        <time>2020-11-11T18:43:54Z</time>
      </trkpt>
      <trkpt lat="28.2832450" lon="-16.5717000">
        <ele>2084.9</ele>
        <time>2020-11-11T18:43:55Z</time>
      </trkpt>
      <trkpt lat="28.2832450" lon="-16.5717000">
        <ele>2085.9</ele>
        <time>2020-11-11T18:43:56Z</time>
      </trkpt>
      <trkpt lat="28.2832070" lon="-16.5717300">
        <ele>2085.9</ele>
        <time>2020-11-11T18:43:57Z</time>
      </trkpt>
      <trkpt lat="28.2831870" lon="-16.5717450">
        <ele>2085.9</ele>
        <time>2020-11-11T18:43:58Z</time>
      </trkpt>
      <trkpt lat="28.2831870" lon="-16.5717450">
        <ele>2085.9</ele>
        <time>2020-11-11T18:43:59Z</time>
      </trkpt>
      <trkpt lat="28.2831500" lon="-16.5717770">
        <ele>2085.9</ele>
        <time>2020-11-11T18:44:00Z</time>
      </trkpt>
      <trkpt lat="28.2831330" lon="-16.5717930">
        <ele>2085.9</ele>
        <time>2020-11-11T18:44:01Z</time>
      </trkpt>
      <trkpt lat="28.2831180" lon="-16.5718080">
        <ele>2085.9</ele>
        <time>2020-11-11T18:44:02Z</time>
      </trkpt>
      <trkpt lat="28.2831180" lon="-16.5718080">
        <ele>2085.9</ele>
        <time>2020-11-11T18:44:03Z</time>
      </trkpt>
      <trkpt lat="28.2830900" lon="-16.5718380">
        <ele>2085.9</ele>
        <time>2020-11-11T18:44:04Z</time>
      </trkpt>
      <trkpt lat="28.2830900" lon="-16.5718380">
        <ele>2085.9</ele>
        <time>2020-11-11T18:44:05Z</time>
      </trkpt>
      <trkpt lat="28.2830500" lon="-16.5718650">
        <ele>2085.9</ele>
        <time>2020-11-11T18:44:06Z</time>
      </trkpt>
      <trkpt lat="28.2830330" lon="-16.5718770">
        <ele>2085.9</ele>
        <time>2020-11-11T18:44:07Z</time>
      </trkpt>
      <trkpt lat="28.2830330" lon="-16.5718770">
        <ele>2086.9</ele>
        <time>2020-11-11T18:44:08Z</time>
      </trkpt>
      <trkpt lat="28.2830050" lon="-16.5719050">
        <ele>2086.9</ele>
        <time>2020-11-11T18:44:09Z</time>
      </trkpt>
      <trkpt lat="28.2830050" lon="-16.5719050">
        <ele>2086.9</ele>
        <time>2020-11-11T18:44:10Z</time>
      </trkpt>
      <trkpt lat="28.2829780" lon="-16.5719350">
        <ele>2086.9</ele>
        <time>2020-11-11T18:44:11Z</time>
      </trkpt>
      <trkpt lat="28.2829780" lon="-16.5719350">
        <ele>2087.9</ele>
        <time>2020-11-11T18:44:12Z</time>
      </trkpt>
      <trkpt lat="28.2829530" lon="-16.5719650">
        <ele>2087.9</ele>
        <time>2020-11-11T18:44:13Z</time>
      </trkpt>
      <trkpt lat="28.2829530" lon="-16.5719650">
        <ele>2087.9</ele>
        <time>2020-11-11T18:44:14Z</time>
      </trkpt>
      <trkpt lat="28.2829250" lon="-16.5719920">
        <ele>2087.9</ele>
        <time>2020-11-11T18:44:15Z</time>
      </trkpt>
      <trkpt lat="28.2829080" lon="-16.5720050">
        <ele>2087.9</ele>
        <time>2020-11-11T18:44:16Z</time>
      </trkpt>
      <trkpt lat="28.2829080" lon="-16.5720050">
        <ele>2087.9</ele>
        <time>2020-11-11T18:44:17Z</time>
      </trkpt>
      <trkpt lat="28.2828820" lon="-16.5720330">
        <ele>2087.9</ele>
        <time>2020-11-11T18:44:18Z</time>
      </trkpt>
      <trkpt lat="28.2828670" lon="-16.5720450">
        <ele>2087.9</ele>
        <time>2020-11-11T18:44:19Z</time>
      </trkpt>
      <trkpt lat="28.2828670" lon="-16.5720450">
        <ele>2087.9</ele>
        <time>2020-11-11T18:44:20Z</time>
      </trkpt>
      <trkpt lat="28.2828330" lon="-16.5720670">
        <ele>2088.9</ele>
        <time>2020-11-11T18:44:21Z</time>
      </trkpt>
      <trkpt lat="28.2828330" lon="-16.5720670">
        <ele>2088.9</ele>
        <time>2020-11-11T18:44:22Z</time>
      </trkpt>
      <trkpt lat="28.2828080" lon="-16.5720950">
        <ele>2088.9</ele>
        <time>2020-11-11T18:44:23Z</time>
      </trkpt>
      <trkpt lat="28.2828080" lon="-16.5720950">
        <ele>2088.9</ele>
        <time>2020-11-11T18:44:24Z</time>
      </trkpt>
      <trkpt lat="28.2827820" lon="-16.5721220">
        <ele>2088.9</ele>
        <time>2020-11-11T18:44:25Z</time>
      </trkpt>
      <trkpt lat="28.2827820" lon="-16.5721220">
        <ele>2088.9</ele>
        <time>2020-11-11T18:44:26Z</time>
      </trkpt>
      <trkpt lat="28.2827530" lon="-16.5721480">
        <ele>2088.9</ele>
        <time>2020-11-11T18:44:27Z</time>
      </trkpt>
      <trkpt lat="28.2827380" lon="-16.5721600">
        <ele>2088.9</ele>
        <time>2020-11-11T18:44:28Z</time>
      </trkpt>
      <trkpt lat="28.2827380" lon="-16.5721600">
        <ele>2088.9</ele>
        <time>2020-11-11T18:44:29Z</time>
      </trkpt>
      <trkpt lat="28.2827120" lon="-16.5721920">
        <ele>2089.9</ele>
        <time>2020-11-11T18:44:30Z</time>
      </trkpt>
      <trkpt lat="28.2826970" lon="-16.5722050">
        <ele>2089.9</ele>
        <time>2020-11-11T18:44:31Z</time>
      </trkpt>
      <trkpt lat="28.2826970" lon="-16.5722050">
        <ele>2089.9</ele>
        <time>2020-11-11T18:44:32Z</time>
      </trkpt>
      <trkpt lat="28.2826620" lon="-16.5722320">
        <ele>2089.9</ele>
        <time>2020-11-11T18:44:33Z</time>
      </trkpt>
      <trkpt lat="28.2826620" lon="-16.5722320">
        <ele>2089.9</ele>
        <time>2020-11-11T18:44:34Z</time>
      </trkpt>
      <trkpt lat="28.2826230" lon="-16.5722580">
        <ele>2089.9</ele>
        <time>2020-11-11T18:44:35Z</time>
      </trkpt>
      <trkpt lat="28.2826120" lon="-16.5722730">
        <ele>2090.9</ele>
        <time>2020-11-11T18:44:36Z</time>
      </trkpt>
      <trkpt lat="28.2826120" lon="-16.5722730">
        <ele>2090.9</ele>
        <time>2020-11-11T18:44:37Z</time>
      </trkpt>
      <trkpt lat="28.2825920" lon="-16.5723000">
        <ele>2090.9</ele>
        <time>2020-11-11T18:44:38Z</time>
      </trkpt>
      <trkpt lat="28.2825920" lon="-16.5723000">
        <ele>2090.9</ele>
        <time>2020-11-11T18:44:39Z</time>
      </trkpt>
      <trkpt lat="28.2825620" lon="-16.5723250">
        <ele>2090.9</ele>
        <time>2020-11-11T18:44:40Z</time>
      </trkpt>
      <trkpt lat="28.2825620" lon="-16.5723250">
        <ele>2090.9</ele>
        <time>2020-11-11T18:44:41Z</time>
      </trkpt>
      <trkpt lat="28.2825300" lon="-16.5723500">
        <ele>2090.9</ele>
        <time>2020-11-11T18:44:42Z</time>
      </trkpt>
      <trkpt lat="28.2825300" lon="-16.5723500">
        <ele>2090.9</ele>
        <time>2020-11-11T18:44:43Z</time>
      </trkpt>
      <trkpt lat="28.2824930" lon="-16.5723700">
        <ele>2090.9</ele>
        <time>2020-11-11T18:44:44Z</time>
      </trkpt>
      <trkpt lat="28.2824930" lon="-16.5723700">
        <ele>2090.9</ele>
        <time>2020-11-11T18:44:45Z</time>
      </trkpt>
      <trkpt lat="28.2824630" lon="-16.5723980">
        <ele>2090.9</ele>
        <time>2020-11-11T18:44:46Z</time>
      </trkpt>
      <trkpt lat="28.2824630" lon="-16.5723980">
        <ele>2090.9</ele>
        <time>2020-11-11T18:44:47Z</time>
      </trkpt>
      <trkpt lat="28.2824350" lon="-16.5724300">
        <ele>2090.9</ele>
        <time>2020-11-11T18:44:48Z</time>
      </trkpt>
      <trkpt lat="28.2824350" lon="-16.5724300">
        <ele>2090.9</ele>
        <time>2020-11-11T18:44:49Z</time>
      </trkpt>
      <trkpt lat="28.2824050" lon="-16.5724570">
        <ele>2091.9</ele>
        <time>2020-11-11T18:44:50Z</time>
      </trkpt>
      <trkpt lat="28.2824050" lon="-16.5724570">
        <ele>2091.9</ele>
        <time>2020-11-11T18:44:51Z</time>
      </trkpt>
      <trkpt lat="28.2823750" lon="-16.5724870">
        <ele>2091.9</ele>
        <time>2020-11-11T18:44:52Z</time>
      </trkpt>
      <trkpt lat="28.2823750" lon="-16.5724870">
        <ele>2091.9</ele>
        <time>2020-11-11T18:44:53Z</time>
      </trkpt>
      <trkpt lat="28.2823500" lon="-16.5725170">
        <ele>2091.9</ele>
        <time>2020-11-11T18:44:54Z</time>
      </trkpt>
      <trkpt lat="28.2823350" lon="-16.5725350">
        <ele>2091.9</ele>
        <time>2020-11-11T18:44:55Z</time>
      </trkpt>
      <trkpt lat="28.2823350" lon="-16.5725350">
        <ele>2091.9</ele>
        <time>2020-11-11T18:44:56Z</time>
      </trkpt>
      <trkpt lat="28.2823080" lon="-16.5725620">
        <ele>2091.9</ele>
        <time>2020-11-11T18:44:57Z</time>
      </trkpt>
      <trkpt lat="28.2823080" lon="-16.5725620">
        <ele>2092.9</ele>
        <time>2020-11-11T18:44:58Z</time>
      </trkpt>
      <trkpt lat="28.2822800" lon="-16.5725880">
        <ele>2092.9</ele>
        <time>2020-11-11T18:44:59Z</time>
      </trkpt>
      <trkpt lat="28.2822800" lon="-16.5725880">
        <ele>2092.9</ele>
        <time>2020-11-11T18:45:00Z</time>
      </trkpt>
      <trkpt lat="28.2822480" lon="-16.5726170">
        <ele>2092.9</ele>
        <time>2020-11-11T18:45:01Z</time>
      </trkpt>
      <trkpt lat="28.2822480" lon="-16.5726170">
        <ele>2092.9</ele>
        <time>2020-11-11T18:45:02Z</time>
      </trkpt>
      <trkpt lat="28.2822170" lon="-16.5726380">
        <ele>2092.9</ele>
        <time>2020-11-11T18:45:03Z</time>
      </trkpt>
      <trkpt lat="28.2822170" lon="-16.5726380">
        <ele>2093.9</ele>
        <time>2020-11-11T18:45:04Z</time>
      </trkpt>
      <trkpt lat="28.2821870" lon="-16.5726630">
        <ele>2093.9</ele>
        <time>2020-11-11T18:45:05Z</time>
      </trkpt>
      <trkpt lat="28.2821870" lon="-16.5726630">
        <ele>2093.9</ele>
        <time>2020-11-11T18:45:06Z</time>
      </trkpt>
      <trkpt lat="28.2821570" lon="-16.5726880">
        <ele>2093.9</ele>
        <time>2020-11-11T18:45:07Z</time>
      </trkpt>
      <trkpt lat="28.2821400" lon="-16.5727020">
        <ele>2093.9</ele>
        <time>2020-11-11T18:45:08Z</time>
      </trkpt>
      <trkpt lat="28.2821270" lon="-16.5727170">
        <ele>2093.9</ele>
        <time>2020-11-11T18:45:09Z</time>
      </trkpt>
      <trkpt lat="28.2821270" lon="-16.5727170">
        <ele>2093.9</ele>
        <time>2020-11-11T18:45:10Z</time>
      </trkpt>
      <trkpt lat="28.2821020" lon="-16.5727500">
        <ele>2093.9</ele>
        <time>2020-11-11T18:45:11Z</time>
      </trkpt>
      <trkpt lat="28.2820900" lon="-16.5727650">
        <ele>2093.9</ele>
        <time>2020-11-11T18:45:12Z</time>
      </trkpt>
      <trkpt lat="28.2820900" lon="-16.5727650">
        <ele>2093.9</ele>
        <time>2020-11-11T18:45:13Z</time>
      </trkpt>
      <trkpt lat="28.2820650" lon="-16.5727920">
        <ele>2093.9</ele>
        <time>2020-11-11T18:45:14Z</time>
      </trkpt>
      <trkpt lat="28.2820650" lon="-16.5727920">
        <ele>2093.9</ele>
        <time>2020-11-11T18:45:15Z</time>
      </trkpt>
      <trkpt lat="28.2820420" lon="-16.5728200">
        <ele>2094.9</ele>
        <time>2020-11-11T18:45:16Z</time>
      </trkpt>
      <trkpt lat="28.2820420" lon="-16.5728200">
        <ele>2094.9</ele>
        <time>2020-11-11T18:45:17Z</time>
      </trkpt>
      <trkpt lat="28.2820050" lon="-16.5728550">
        <ele>2094.9</ele>
        <time>2020-11-11T18:45:18Z</time>
      </trkpt>
      <trkpt lat="28.2820050" lon="-16.5728550">
        <ele>2094.9</ele>
        <time>2020-11-11T18:45:19Z</time>
      </trkpt>
      <trkpt lat="28.2819780" lon="-16.5728850">
        <ele>2094.9</ele>
        <time>2020-11-11T18:45:20Z</time>
      </trkpt>
      <trkpt lat="28.2819780" lon="-16.5728850">
        <ele>2094.9</ele>
        <time>2020-11-11T18:45:21Z</time>
      </trkpt>
      <trkpt lat="28.2819550" lon="-16.5729170">
        <ele>2094.9</ele>
        <time>2020-11-11T18:45:22Z</time>
      </trkpt>
      <trkpt lat="28.2819550" lon="-16.5729170">
        <ele>2095.9</ele>
        <time>2020-11-11T18:45:23Z</time>
      </trkpt>
      <trkpt lat="28.2819320" lon="-16.5729480">
        <ele>2095.9</ele>
        <time>2020-11-11T18:45:24Z</time>
      </trkpt>
      <trkpt lat="28.2819320" lon="-16.5729480">
        <ele>2095.9</ele>
        <time>2020-11-11T18:45:25Z</time>
      </trkpt>
      <trkpt lat="28.2819100" lon="-16.5729780">
        <ele>2095.9</ele>
        <time>2020-11-11T18:45:26Z</time>
      </trkpt>
      <trkpt lat="28.2818970" lon="-16.5729950">
        <ele>2096.9</ele>
        <time>2020-11-11T18:45:27Z</time>
      </trkpt>
      <trkpt lat="28.2818970" lon="-16.5729950">
        <ele>2096.9</ele>
        <time>2020-11-11T18:45:28Z</time>
      </trkpt>
      <trkpt lat="28.2818720" lon="-16.5730270">
        <ele>2096.9</ele>
        <time>2020-11-11T18:45:29Z</time>
      </trkpt>
      <trkpt lat="28.2818720" lon="-16.5730270">
        <ele>2096.9</ele>
        <time>2020-11-11T18:45:30Z</time>
      </trkpt>
      <trkpt lat="28.2818470" lon="-16.5730630">
        <ele>2096.9</ele>
        <time>2020-11-11T18:45:31Z</time>
      </trkpt>
      <trkpt lat="28.2818470" lon="-16.5730630">
        <ele>2096.9</ele>
        <time>2020-11-11T18:45:32Z</time>
      </trkpt>
      <trkpt lat="28.2818300" lon="-16.5731030">
        <ele>2096.9</ele>
        <time>2020-11-11T18:45:33Z</time>
      </trkpt>
      <trkpt lat="28.2818300" lon="-16.5731030">
        <ele>2096.9</ele>
        <time>2020-11-11T18:45:34Z</time>
      </trkpt>
      <trkpt lat="28.2818120" lon="-16.5731400">
        <ele>2097.9</ele>
        <time>2020-11-11T18:45:35Z</time>
      </trkpt>
      <trkpt lat="28.2818120" lon="-16.5731400">
        <ele>2097.9</ele>
        <time>2020-11-11T18:45:36Z</time>
      </trkpt>
      <trkpt lat="28.2817900" lon="-16.5731770">
        <ele>2097.9</ele>
        <time>2020-11-11T18:45:37Z</time>
      </trkpt>
      <trkpt lat="28.2817900" lon="-16.5731770">
        <ele>2097.9</ele>
        <time>2020-11-11T18:45:38Z</time>
      </trkpt>
      <trkpt lat="28.2817700" lon="-16.5732170">
        <ele>2097.9</ele>
        <time>2020-11-11T18:45:39Z</time>
      </trkpt>
      <trkpt lat="28.2817700" lon="-16.5732170">
        <ele>2097.9</ele>
        <time>2020-11-11T18:45:40Z</time>
      </trkpt>
      <trkpt lat="28.2817380" lon="-16.5732470">
        <ele>2097.9</ele>
        <time>2020-11-11T18:45:41Z</time>
      </trkpt>
      <trkpt lat="28.2817380" lon="-16.5732470">
        <ele>2097.9</ele>
        <time>2020-11-11T18:45:42Z</time>
      </trkpt>
      <trkpt lat="28.2817120" lon="-16.5732800">
        <ele>2098.9</ele>
        <time>2020-11-11T18:45:43Z</time>
      </trkpt>
      <trkpt lat="28.2817120" lon="-16.5732800">
        <ele>2098.9</ele>
        <time>2020-11-11T18:45:44Z</time>
      </trkpt>
      <trkpt lat="28.2816930" lon="-16.5733180">
        <ele>2098.9</ele>
        <time>2020-11-11T18:45:45Z</time>
      </trkpt>
      <trkpt lat="28.2816930" lon="-16.5733180">
        <ele>2098.9</ele>
        <time>2020-11-11T18:45:46Z</time>
      </trkpt>
      <trkpt lat="28.2816780" lon="-16.5733620">
        <ele>2098.9</ele>
        <time>2020-11-11T18:45:47Z</time>
      </trkpt>
      <trkpt lat="28.2816780" lon="-16.5733620">
        <ele>2098.9</ele>
        <time>2020-11-11T18:45:48Z</time>
      </trkpt>
      <trkpt lat="28.2816580" lon="-16.5734030">
        <ele>2098.9</ele>
        <time>2020-11-11T18:45:49Z</time>
      </trkpt>
      <trkpt lat="28.2816580" lon="-16.5734030">
        <ele>2098.9</ele>
        <time>2020-11-11T18:45:50Z</time>
      </trkpt>
      <trkpt lat="28.2816330" lon="-16.5734400">
        <ele>2099.9</ele>
        <time>2020-11-11T18:45:51Z</time>
      </trkpt>
      <trkpt lat="28.2816330" lon="-16.5734400">
        <ele>2099.9</ele>
        <time>2020-11-11T18:45:52Z</time>
      </trkpt>
      <trkpt lat="28.2816080" lon="-16.5734730">
        <ele>2099.9</ele>
        <time>2020-11-11T18:45:53Z</time>
      </trkpt>
      <trkpt lat="28.2815980" lon="-16.5734920">
        <ele>2099.9</ele>
        <time>2020-11-11T18:45:54Z</time>
      </trkpt>
      <trkpt lat="28.2815980" lon="-16.5734920">
        <ele>2099.9</ele>
        <time>2020-11-11T18:45:55Z</time>
      </trkpt>
      <trkpt lat="28.2815750" lon="-16.5735370">
        <ele>2099.9</ele>
        <time>2020-11-11T18:45:56Z</time>
      </trkpt>
      <trkpt lat="28.2815750" lon="-16.5735370">
        <ele>2099.9</ele>
        <time>2020-11-11T18:45:57Z</time>
      </trkpt>
      <trkpt lat="28.2815530" lon="-16.5735820">
        <ele>2099.9</ele>
        <time>2020-11-11T18:45:58Z</time>
      </trkpt>
      <trkpt lat="28.2815420" lon="-16.5736030">
        <ele>2099.9</ele>
        <time>2020-11-11T18:45:59Z</time>
      </trkpt>
      <trkpt lat="28.2815420" lon="-16.5736030">
        <ele>2100.9</ele>
        <time>2020-11-11T18:46:00Z</time>
      </trkpt>
      <trkpt lat="28.2815150" lon="-16.5736430">
        <ele>2100.9</ele>
        <time>2020-11-11T18:46:01Z</time>
      </trkpt>
      <trkpt lat="28.2815150" lon="-16.5736430">
        <ele>2100.9</ele>
        <time>2020-11-11T18:46:02Z</time>
      </trkpt>
      <trkpt lat="28.2814880" lon="-16.5736830">
        <ele>2100.9</ele>
        <time>2020-11-11T18:46:03Z</time>
      </trkpt>
      <trkpt lat="28.2814880" lon="-16.5736830">
        <ele>2100.9</ele>
        <time>2020-11-11T18:46:04Z</time>
      </trkpt>
      <trkpt lat="28.2814570" lon="-16.5737300">
        <ele>2100.9</ele>
        <time>2020-11-11T18:46:05Z</time>
      </trkpt>
      <trkpt lat="28.2814570" lon="-16.5737300">
        <ele>2101.9</ele>
        <time>2020-11-11T18:46:06Z</time>
      </trkpt>
      <trkpt lat="28.2814320" lon="-16.5737680">
        <ele>2101.9</ele>
        <time>2020-11-11T18:46:07Z</time>
      </trkpt>
      <trkpt lat="28.2814320" lon="-16.5737680">
        <ele>2101.9</ele>
        <time>2020-11-11T18:46:08Z</time>
      </trkpt>
      <trkpt lat="28.2814070" lon="-16.5738070">
        <ele>2101.9</ele>
        <time>2020-11-11T18:46:09Z</time>
      </trkpt>
      <trkpt lat="28.2814070" lon="-16.5738070">
        <ele>2101.9</ele>
        <time>2020-11-11T18:46:10Z</time>
      </trkpt>
      <trkpt lat="28.2813830" lon="-16.5738480">
        <ele>2101.9</ele>
        <time>2020-11-11T18:46:11Z</time>
      </trkpt>
      <trkpt lat="28.2813720" lon="-16.5738680">
        <ele>2101.9</ele>
        <time>2020-11-11T18:46:12Z</time>
      </trkpt>
      <trkpt lat="28.2813720" lon="-16.5738680">
        <ele>2101.9</ele>
        <time>2020-11-11T18:46:13Z</time>
      </trkpt>
      <trkpt lat="28.2813520" lon="-16.5739080">
        <ele>2101.9</ele>
        <time>2020-11-11T18:46:14Z</time>
      </trkpt>
      <trkpt lat="28.2813520" lon="-16.5739080">
        <ele>2101.9</ele>
        <time>2020-11-11T18:46:15Z</time>
      </trkpt>
      <trkpt lat="28.2813280" lon="-16.5739430">
        <ele>2101.9</ele>
        <time>2020-11-11T18:46:16Z</time>
      </trkpt>
      <trkpt lat="28.2813130" lon="-16.5739600">
        <ele>2101.9</ele>
        <time>2020-11-11T18:46:17Z</time>
      </trkpt>
      <trkpt lat="28.2813130" lon="-16.5739600">
        <ele>2101.9</ele>
        <time>2020-11-11T18:46:18Z</time>
      </trkpt>
      <trkpt lat="28.2812930" lon="-16.5740000">
        <ele>2102.9</ele>
        <time>2020-11-11T18:46:19Z</time>
      </trkpt>
      <trkpt lat="28.2812930" lon="-16.5740000">
        <ele>2102.9</ele>
        <time>2020-11-11T18:46:20Z</time>
      </trkpt>
      <trkpt lat="28.2812720" lon="-16.5740420">
        <ele>2102.9</ele>
        <time>2020-11-11T18:46:21Z</time>
      </trkpt>
      <trkpt lat="28.2812600" lon="-16.5740620">
        <ele>2102.9</ele>
        <time>2020-11-11T18:46:22Z</time>
      </trkpt>
      <trkpt lat="28.2812600" lon="-16.5740620">
        <ele>2102.9</ele>
        <time>2020-11-11T18:46:23Z</time>
      </trkpt>
      <trkpt lat="28.2812370" lon="-16.5741030">
        <ele>2102.9</ele>
        <time>2020-11-11T18:46:24Z</time>
      </trkpt>
      <trkpt lat="28.2812370" lon="-16.5741030">
        <ele>2103.9</ele>
        <time>2020-11-11T18:46:25Z</time>
      </trkpt>
      <trkpt lat="28.2812130" lon="-16.5741450">
        <ele>2103.9</ele>
        <time>2020-11-11T18:46:26Z</time>
      </trkpt>
      <trkpt lat="28.2812130" lon="-16.5741450">
        <ele>2103.9</ele>
        <time>2020-11-11T18:46:27Z</time>
      </trkpt>
      <trkpt lat="28.2811920" lon="-16.5741870">
        <ele>2103.9</ele>
        <time>2020-11-11T18:46:28Z</time>
      </trkpt>
      <trkpt lat="28.2811920" lon="-16.5741870">
        <ele>2103.9</ele>
        <time>2020-11-11T18:46:29Z</time>
      </trkpt>
      <trkpt lat="28.2811670" lon="-16.5742300">
        <ele>2103.9</ele>
        <time>2020-11-11T18:46:30Z</time>
      </trkpt>
      <trkpt lat="28.2811520" lon="-16.5742570">
        <ele>2103.9</ele>
        <time>2020-11-11T18:46:31Z</time>
      </trkpt>
      <trkpt lat="28.2811520" lon="-16.5742570">
        <ele>2103.9</ele>
        <time>2020-11-11T18:46:32Z</time>
      </trkpt>
      <trkpt lat="28.2811200" lon="-16.5743080">
        <ele>2104.9</ele>
        <time>2020-11-11T18:46:33Z</time>
      </trkpt>
      <trkpt lat="28.2811200" lon="-16.5743080">
        <ele>2104.9</ele>
        <time>2020-11-11T18:46:34Z</time>
      </trkpt>
      <trkpt lat="28.2810930" lon="-16.5743530">
        <ele>2104.9</ele>
        <time>2020-11-11T18:46:35Z</time>
      </trkpt>
      <trkpt lat="28.2810930" lon="-16.5743530">
        <ele>2104.9</ele>
        <time>2020-11-11T18:46:36Z</time>
      </trkpt>
      <trkpt lat="28.2810680" lon="-16.5744000">
        <ele>2104.9</ele>
        <time>2020-11-11T18:46:37Z</time>
      </trkpt>
      <trkpt lat="28.2810680" lon="-16.5744000">
        <ele>2104.9</ele>
        <time>2020-11-11T18:46:38Z</time>
      </trkpt>
      <trkpt lat="28.2810470" lon="-16.5744470">
        <ele>2104.9</ele>
        <time>2020-11-11T18:46:39Z</time>
      </trkpt>
      <trkpt lat="28.2810330" lon="-16.5744700">
        <ele>2104.9</ele>
        <time>2020-11-11T18:46:40Z</time>
      </trkpt>
      <trkpt lat="28.2810330" lon="-16.5744700">
        <ele>2104.9</ele>
        <time>2020-11-11T18:46:41Z</time>
      </trkpt>
      <trkpt lat="28.2810080" lon="-16.5745180">
        <ele>2104.9</ele>
        <time>2020-11-11T18:46:42Z</time>
      </trkpt>
      <trkpt lat="28.2810080" lon="-16.5745180">
        <ele>2104.9</ele>
        <time>2020-11-11T18:46:43Z</time>
      </trkpt>
      <trkpt lat="28.2809800" lon="-16.5745620">
        <ele>2104.9</ele>
        <time>2020-11-11T18:46:44Z</time>
      </trkpt>
      <trkpt lat="28.2809800" lon="-16.5745620">
        <ele>2104.9</ele>
        <time>2020-11-11T18:46:45Z</time>
      </trkpt>
      <trkpt lat="28.2809530" lon="-16.5746080">
        <ele>2104.9</ele>
        <time>2020-11-11T18:46:46Z</time>
      </trkpt>
      <trkpt lat="28.2809530" lon="-16.5746080">
        <ele>2105.9</ele>
        <time>2020-11-11T18:46:47Z</time>
      </trkpt>
      <trkpt lat="28.2809280" lon="-16.5746530">
        <ele>2105.9</ele>
        <time>2020-11-11T18:46:48Z</time>
      </trkpt>
      <trkpt lat="28.2809170" lon="-16.5746800">
        <ele>2105.9</ele>
        <time>2020-11-11T18:46:49Z</time>
      </trkpt>
      <trkpt lat="28.2809170" lon="-16.5746800">
        <ele>2105.9</ele>
        <time>2020-11-11T18:46:50Z</time>
      </trkpt>
      <trkpt lat="28.2808920" lon="-16.5747280">
        <ele>2105.9</ele>
        <time>2020-11-11T18:46:51Z</time>
      </trkpt>
      <trkpt lat="28.2808920" lon="-16.5747280">
        <ele>2105.9</ele>
        <time>2020-11-11T18:46:52Z</time>
      </trkpt>
      <trkpt lat="28.2808700" lon="-16.5747770">
        <ele>2105.9</ele>
        <time>2020-11-11T18:46:53Z</time>
      </trkpt>
      <trkpt lat="28.2808700" lon="-16.5747770">
        <ele>2105.9</ele>
        <time>2020-11-11T18:46:54Z</time>
      </trkpt>
      <trkpt lat="28.2808430" lon="-16.5748220">
        <ele>2106.9</ele>
        <time>2020-11-11T18:46:55Z</time>
      </trkpt>
      <trkpt lat="28.2808430" lon="-16.5748220">
        <ele>2106.9</ele>
        <time>2020-11-11T18:46:56Z</time>
      </trkpt>
      <trkpt lat="28.2808170" lon="-16.5748680">
        <ele>2106.9</ele>
        <time>2020-11-11T18:46:57Z</time>
      </trkpt>
      <trkpt lat="28.2808170" lon="-16.5748680">
        <ele>2106.9</ele>
        <time>2020-11-11T18:46:58Z</time>
      </trkpt>
      <trkpt lat="28.2807900" lon="-16.5749200">
        <ele>2107.9</ele>
        <time>2020-11-11T18:46:59Z</time>
      </trkpt>
      <trkpt lat="28.2807900" lon="-16.5749200">
        <ele>2107.9</ele>
        <time>2020-11-11T18:47:00Z</time>
      </trkpt>
      <trkpt lat="28.2807620" lon="-16.5749670">
        <ele>2107.9</ele>
        <time>2020-11-11T18:47:01Z</time>
      </trkpt>
      <trkpt lat="28.2807620" lon="-16.5749670">
        <ele>2107.9</ele>
        <time>2020-11-11T18:47:02Z</time>
      </trkpt>
      <trkpt lat="28.2807370" lon="-16.5750130">
        <ele>2108.9</ele>
        <time>2020-11-11T18:47:03Z</time>
      </trkpt>
      <trkpt lat="28.2807370" lon="-16.5750130">
        <ele>2108.9</ele>
        <time>2020-11-11T18:47:04Z</time>
      </trkpt>
      <trkpt lat="28.2807100" lon="-16.5750620">
        <ele>2108.9</ele>
        <time>2020-11-11T18:47:05Z</time>
      </trkpt>
      <trkpt lat="28.2807100" lon="-16.5750620">
        <ele>2108.9</ele>
        <time>2020-11-11T18:47:06Z</time>
      </trkpt>
      <trkpt lat="28.2806800" lon="-16.5751080">
        <ele>2109.9</ele>
        <time>2020-11-11T18:47:07Z</time>
      </trkpt>
      <trkpt lat="28.2806800" lon="-16.5751080">
        <ele>2109.9</ele>
        <time>2020-11-11T18:47:08Z</time>
      </trkpt>
      <trkpt lat="28.2806470" lon="-16.5751630">
        <ele>2109.9</ele>
        <time>2020-11-11T18:47:09Z</time>
      </trkpt>
      <trkpt lat="28.2806470" lon="-16.5751630">
        <ele>2109.9</ele>
        <time>2020-11-11T18:47:10Z</time>
      </trkpt>
      <trkpt lat="28.2806180" lon="-16.5752130">
        <ele>2110.9</ele>
        <time>2020-11-11T18:47:11Z</time>
      </trkpt>
      <trkpt lat="28.2806180" lon="-16.5752130">
        <ele>2110.9</ele>
        <time>2020-11-11T18:47:12Z</time>
      </trkpt>
      <trkpt lat="28.2805880" lon="-16.5752600">
        <ele>2110.9</ele>
        <time>2020-11-11T18:47:13Z</time>
      </trkpt>
      <trkpt lat="28.2805880" lon="-16.5752600">
        <ele>2110.9</ele>
        <time>2020-11-11T18:47:14Z</time>
      </trkpt>
      <trkpt lat="28.2805620" lon="-16.5753070">
        <ele>2110.9</ele>
        <time>2020-11-11T18:47:15Z</time>
      </trkpt>
      <trkpt lat="28.2805620" lon="-16.5753070">
        <ele>2110.9</ele>
        <time>2020-11-11T18:47:16Z</time>
      </trkpt>
      <trkpt lat="28.2805370" lon="-16.5753530">
        <ele>2110.9</ele>
        <time>2020-11-11T18:47:17Z</time>
      </trkpt>
      <trkpt lat="28.2805370" lon="-16.5753530">
        <ele>2110.9</ele>
        <time>2020-11-11T18:47:18Z</time>
      </trkpt>
      <trkpt lat="28.2805080" lon="-16.5753970">
        <ele>2111.9</ele>
        <time>2020-11-11T18:47:19Z</time>
      </trkpt>
      <trkpt lat="28.2805080" lon="-16.5753970">
        <ele>2111.9</ele>
        <time>2020-11-11T18:47:20Z</time>
      </trkpt>
      <trkpt lat="28.2804870" lon="-16.5754420">
        <ele>2111.9</ele>
        <time>2020-11-11T18:47:21Z</time>
      </trkpt>
      <trkpt lat="28.2804870" lon="-16.5754420">
        <ele>2111.9</ele>
        <time>2020-11-11T18:47:22Z</time>
      </trkpt>
      <trkpt lat="28.2804570" lon="-16.5754880">
        <ele>2111.9</ele>
        <time>2020-11-11T18:47:23Z</time>
      </trkpt>
      <trkpt lat="28.2804570" lon="-16.5754880">
        <ele>2112.9</ele>
        <time>2020-11-11T18:47:24Z</time>
      </trkpt>
      <trkpt lat="28.2804350" lon="-16.5755300">
        <ele>2112.9</ele>
        <time>2020-11-11T18:47:25Z</time>
      </trkpt>
      <trkpt lat="28.2804350" lon="-16.5755300">
        <ele>2112.9</ele>
        <time>2020-11-11T18:47:26Z</time>
      </trkpt>
      <trkpt lat="28.2804070" lon="-16.5755780">
        <ele>2112.9</ele>
        <time>2020-11-11T18:47:27Z</time>
      </trkpt>
      <trkpt lat="28.2804070" lon="-16.5755780">
        <ele>2112.9</ele>
        <time>2020-11-11T18:47:28Z</time>
      </trkpt>
      <trkpt lat="28.2803770" lon="-16.5756320">
        <ele>2112.9</ele>
        <time>2020-11-11T18:47:29Z</time>
      </trkpt>
      <trkpt lat="28.2803770" lon="-16.5756320">
        <ele>2113.9</ele>
        <time>2020-11-11T18:47:30Z</time>
      </trkpt>
      <trkpt lat="28.2803450" lon="-16.5756850">
        <ele>2113.9</ele>
        <time>2020-11-11T18:47:31Z</time>
      </trkpt>
      <trkpt lat="28.2803450" lon="-16.5756850">
        <ele>2113.9</ele>
        <time>2020-11-11T18:47:32Z</time>
      </trkpt>
      <trkpt lat="28.2803150" lon="-16.5757380">
        <ele>2113.9</ele>
        <time>2020-11-11T18:47:33Z</time>
      </trkpt>
      <trkpt lat="28.2803000" lon="-16.5757670">
        <ele>2113.9</ele>
        <time>2020-11-11T18:47:34Z</time>
      </trkpt>
      <trkpt lat="28.2803000" lon="-16.5757670">
        <ele>2113.9</ele>
        <time>2020-11-11T18:47:35Z</time>
      </trkpt>
      <trkpt lat="28.2802650" lon="-16.5758200">
        <ele>2113.9</ele>
        <time>2020-11-11T18:47:36Z</time>
      </trkpt>
      <trkpt lat="28.2802480" lon="-16.5758470">
        <ele>2113.9</ele>
        <time>2020-11-11T18:47:37Z</time>
      </trkpt>
      <trkpt lat="28.2802480" lon="-16.5758470">
        <ele>2113.9</ele>
        <time>2020-11-11T18:47:38Z</time>
      </trkpt>
      <trkpt lat="28.2802150" lon="-16.5758980">
        <ele>2113.9</ele>
        <time>2020-11-11T18:47:39Z</time>
      </trkpt>
      <trkpt lat="28.2802150" lon="-16.5758980">
        <ele>2113.9</ele>
        <time>2020-11-11T18:47:40Z</time>
      </trkpt>
      <trkpt lat="28.2801900" lon="-16.5759530">
        <ele>2113.9</ele>
        <time>2020-11-11T18:47:41Z</time>
      </trkpt>
      <trkpt lat="28.2801900" lon="-16.5759530">
        <ele>2113.9</ele>
        <time>2020-11-11T18:47:42Z</time>
      </trkpt>
      <trkpt lat="28.2801600" lon="-16.5760100">
        <ele>2113.9</ele>
        <time>2020-11-11T18:47:43Z</time>
      </trkpt>
      <trkpt lat="28.2801600" lon="-16.5760100">
        <ele>2113.9</ele>
        <time>2020-11-11T18:47:44Z</time>
      </trkpt>
      <trkpt lat="28.2801280" lon="-16.5760650">
        <ele>2113.9</ele>
        <time>2020-11-11T18:47:45Z</time>
      </trkpt>
      <trkpt lat="28.2801280" lon="-16.5760650">
        <ele>2113.9</ele>
        <time>2020-11-11T18:47:46Z</time>
      </trkpt>
      <trkpt lat="28.2800950" lon="-16.5761170">
        <ele>2113.9</ele>
        <time>2020-11-11T18:47:47Z</time>
      </trkpt>
      <trkpt lat="28.2800950" lon="-16.5761170">
        <ele>2113.9</ele>
        <time>2020-11-11T18:47:48Z</time>
      </trkpt>
      <trkpt lat="28.2800620" lon="-16.5761680">
        <ele>2113.9</ele>
        <time>2020-11-11T18:47:49Z</time>
      </trkpt>
      <trkpt lat="28.2800620" lon="-16.5761680">
        <ele>2113.9</ele>
        <time>2020-11-11T18:47:50Z</time>
      </trkpt>
      <trkpt lat="28.2800330" lon="-16.5762230">
        <ele>2113.9</ele>
        <time>2020-11-11T18:47:51Z</time>
      </trkpt>
      <trkpt lat="28.2800330" lon="-16.5762230">
        <ele>2113.9</ele>
        <time>2020-11-11T18:47:52Z</time>
      </trkpt>
      <trkpt lat="28.2800050" lon="-16.5762780">
        <ele>2113.9</ele>
        <time>2020-11-11T18:47:53Z</time>
      </trkpt>
      <trkpt lat="28.2800050" lon="-16.5762780">
        <ele>2113.9</ele>
        <time>2020-11-11T18:47:54Z</time>
      </trkpt>
      <trkpt lat="28.2799780" lon="-16.5763330">
        <ele>2113.9</ele>
        <time>2020-11-11T18:47:55Z</time>
      </trkpt>
      <trkpt lat="28.2799780" lon="-16.5763330">
        <ele>2113.9</ele>
        <time>2020-11-11T18:47:56Z</time>
      </trkpt>
      <trkpt lat="28.2799470" lon="-16.5763850">
        <ele>2113.9</ele>
        <time>2020-11-11T18:47:57Z</time>
      </trkpt>
      <trkpt lat="28.2799470" lon="-16.5763850">
        <ele>2113.9</ele>
        <time>2020-11-11T18:47:58Z</time>
      </trkpt>
      <trkpt lat="28.2799170" lon="-16.5764370">
        <ele>2113.9</ele>
        <time>2020-11-11T18:47:59Z</time>
      </trkpt>
      <trkpt lat="28.2799170" lon="-16.5764370">
        <ele>2114.9</ele>
        <time>2020-11-11T18:48:00Z</time>
      </trkpt>
      <trkpt lat="28.2798900" lon="-16.5764850">
        <ele>2114.9</ele>
        <time>2020-11-11T18:48:01Z</time>
      </trkpt>
      <trkpt lat="28.2798900" lon="-16.5764850">
        <ele>2114.9</ele>
        <time>2020-11-11T18:48:02Z</time>
      </trkpt>
      <trkpt lat="28.2798600" lon="-16.5765280">
        <ele>2114.9</ele>
        <time>2020-11-11T18:48:03Z</time>
      </trkpt>
      <trkpt lat="28.2798600" lon="-16.5765280">
        <ele>2114.9</ele>
        <time>2020-11-11T18:48:04Z</time>
      </trkpt>
      <trkpt lat="28.2798370" lon="-16.5765730">
        <ele>2114.9</ele>
        <time>2020-11-11T18:48:05Z</time>
      </trkpt>
      <trkpt lat="28.2798370" lon="-16.5765730">
        <ele>2115.9</ele>
        <time>2020-11-11T18:48:06Z</time>
      </trkpt>
      <trkpt lat="28.2798120" lon="-16.5766220">
        <ele>2115.9</ele>
        <time>2020-11-11T18:48:07Z</time>
      </trkpt>
      <trkpt lat="28.2798120" lon="-16.5766220">
        <ele>2115.9</ele>
        <time>2020-11-11T18:48:08Z</time>
      </trkpt>
      <trkpt lat="28.2797880" lon="-16.5766750">
        <ele>2115.9</ele>
        <time>2020-11-11T18:48:09Z</time>
      </trkpt>
      <trkpt lat="28.2797880" lon="-16.5766750">
        <ele>2116.9</ele>
        <time>2020-11-11T18:48:10Z</time>
      </trkpt>
      <trkpt lat="28.2797650" lon="-16.5767250">
        <ele>2116.9</ele>
        <time>2020-11-11T18:48:11Z</time>
      </trkpt>
      <trkpt lat="28.2797650" lon="-16.5767250">
        <ele>2116.9</ele>
        <time>2020-11-11T18:48:12Z</time>
      </trkpt>
      <trkpt lat="28.2797380" lon="-16.5767720">
        <ele>2116.9</ele>
        <time>2020-11-11T18:48:13Z</time>
      </trkpt>
      <trkpt lat="28.2797380" lon="-16.5767720">
        <ele>2116.9</ele>
        <time>2020-11-11T18:48:14Z</time>
      </trkpt>
      <trkpt lat="28.2797120" lon="-16.5768170">
        <ele>2116.9</ele>
        <time>2020-11-11T18:48:15Z</time>
      </trkpt>
      <trkpt lat="28.2797120" lon="-16.5768170">
        <ele>2116.9</ele>
        <time>2020-11-11T18:48:16Z</time>
      </trkpt>
      <trkpt lat="28.2796870" lon="-16.5768620">
        <ele>2116.9</ele>
        <time>2020-11-11T18:48:17Z</time>
      </trkpt>
      <trkpt lat="28.2796870" lon="-16.5768620">
        <ele>2117.9</ele>
        <time>2020-11-11T18:48:18Z</time>
      </trkpt>
      <trkpt lat="28.2796580" lon="-16.5769080">
        <ele>2117.9</ele>
        <time>2020-11-11T18:48:19Z</time>
      </trkpt>
      <trkpt lat="28.2796580" lon="-16.5769080">
        <ele>2117.9</ele>
        <time>2020-11-11T18:48:20Z</time>
      </trkpt>
      <trkpt lat="28.2796220" lon="-16.5769530">
        <ele>2117.9</ele>
        <time>2020-11-11T18:48:21Z</time>
      </trkpt>
      <trkpt lat="28.2796220" lon="-16.5769530">
        <ele>2118.9</ele>
        <time>2020-11-11T18:48:22Z</time>
      </trkpt>
      <trkpt lat="28.2795880" lon="-16.5770000">
        <ele>2118.9</ele>
        <time>2020-11-11T18:48:23Z</time>
      </trkpt>
      <trkpt lat="28.2795880" lon="-16.5770000">
        <ele>2118.9</ele>
        <time>2020-11-11T18:48:24Z</time>
      </trkpt>
      <trkpt lat="28.2795530" lon="-16.5770430">
        <ele>2118.9</ele>
        <time>2020-11-11T18:48:25Z</time>
      </trkpt>
      <trkpt lat="28.2795530" lon="-16.5770430">
        <ele>2118.9</ele>
        <time>2020-11-11T18:48:26Z</time>
      </trkpt>
      <trkpt lat="28.2795130" lon="-16.5770770">
        <ele>2118.9</ele>
        <time>2020-11-11T18:48:27Z</time>
      </trkpt>
      <trkpt lat="28.2795130" lon="-16.5770770">
        <ele>2118.9</ele>
        <time>2020-11-11T18:48:28Z</time>
      </trkpt>
      <trkpt lat="28.2794630" lon="-16.5771000">
        <ele>2119.9</ele>
        <time>2020-11-11T18:48:29Z</time>
      </trkpt>
      <trkpt lat="28.2794630" lon="-16.5771000">
        <ele>2119.9</ele>
        <time>2020-11-11T18:48:30Z</time>
      </trkpt>
      <trkpt lat="28.2794150" lon="-16.5771220">
        <ele>2119.9</ele>
        <time>2020-11-11T18:48:31Z</time>
      </trkpt>
      <trkpt lat="28.2794150" lon="-16.5771220">
        <ele>2119.9</ele>
        <time>2020-11-11T18:48:32Z</time>
      </trkpt>
      <trkpt lat="28.2793570" lon="-16.5771350">
        <ele>2120.9</ele>
        <time>2020-11-11T18:48:33Z</time>
      </trkpt>
      <trkpt lat="28.2793570" lon="-16.5771350">
        <ele>2120.9</ele>
        <time>2020-11-11T18:48:34Z</time>
      </trkpt>
      <trkpt lat="28.2792980" lon="-16.5771370">
        <ele>2120.9</ele>
        <time>2020-11-11T18:48:35Z</time>
      </trkpt>
      <trkpt lat="28.2792980" lon="-16.5771370">
        <ele>2120.9</ele>
        <time>2020-11-11T18:48:36Z</time>
      </trkpt>
      <trkpt lat="28.2792470" lon="-16.5771100">
        <ele>2121.9</ele>
        <time>2020-11-11T18:48:37Z</time>
      </trkpt>
      <trkpt lat="28.2792470" lon="-16.5771100">
        <ele>2121.9</ele>
        <time>2020-11-11T18:48:38Z</time>
      </trkpt>
      <trkpt lat="28.2791980" lon="-16.5770730">
        <ele>2121.9</ele>
        <time>2020-11-11T18:48:39Z</time>
      </trkpt>
      <trkpt lat="28.2791980" lon="-16.5770730">
        <ele>2121.9</ele>
        <time>2020-11-11T18:48:40Z</time>
      </trkpt>
      <trkpt lat="28.2791530" lon="-16.5770380">
        <ele>2121.9</ele>
        <time>2020-11-11T18:48:41Z</time>
      </trkpt>
      <trkpt lat="28.2791530" lon="-16.5770380">
        <ele>2122.9</ele>
        <time>2020-11-11T18:48:42Z</time>
      </trkpt>
      <trkpt lat="28.2791120" lon="-16.5770100">
        <ele>2122.9</ele>
        <time>2020-11-11T18:48:43Z</time>
      </trkpt>
      <trkpt lat="28.2791120" lon="-16.5770100">
        <ele>2122.9</ele>
        <time>2020-11-11T18:48:44Z</time>
      </trkpt>
      <trkpt lat="28.2790720" lon="-16.5769830">
        <ele>2122.9</ele>
        <time>2020-11-11T18:48:45Z</time>
      </trkpt>
      <trkpt lat="28.2790720" lon="-16.5769830">
        <ele>2122.9</ele>
        <time>2020-11-11T18:48:46Z</time>
      </trkpt>
      <trkpt lat="28.2790300" lon="-16.5769580">
        <ele>2122.9</ele>
        <time>2020-11-11T18:48:47Z</time>
      </trkpt>
      <trkpt lat="28.2790300" lon="-16.5769580">
        <ele>2123.9</ele>
        <time>2020-11-11T18:48:48Z</time>
      </trkpt>
      <trkpt lat="28.2789950" lon="-16.5769320">
        <ele>2123.9</ele>
        <time>2020-11-11T18:48:49Z</time>
      </trkpt>
      <trkpt lat="28.2789950" lon="-16.5769320">
        <ele>2123.9</ele>
        <time>2020-11-11T18:48:50Z</time>
      </trkpt>
      <trkpt lat="28.2789650" lon="-16.5769020">
        <ele>2123.9</ele>
        <time>2020-11-11T18:48:51Z</time>
      </trkpt>
      <trkpt lat="28.2789650" lon="-16.5769020">
        <ele>2123.9</ele>
        <time>2020-11-11T18:48:52Z</time>
      </trkpt>
      <trkpt lat="28.2789330" lon="-16.5768730">
        <ele>2123.9</ele>
        <time>2020-11-11T18:48:53Z</time>
      </trkpt>
      <trkpt lat="28.2789180" lon="-16.5768580">
        <ele>2124.9</ele>
        <time>2020-11-11T18:48:54Z</time>
      </trkpt>
      <trkpt lat="28.2789180" lon="-16.5768580">
        <ele>2124.9</ele>
        <time>2020-11-11T18:48:55Z</time>
      </trkpt>
      <trkpt lat="28.2788880" lon="-16.5768280">
        <ele>2124.9</ele>
        <time>2020-11-11T18:48:56Z</time>
      </trkpt>
      <trkpt lat="28.2788730" lon="-16.5768130">
        <ele>2124.9</ele>
        <time>2020-11-11T18:48:57Z</time>
      </trkpt>
      <trkpt lat="28.2788730" lon="-16.5768130">
        <ele>2124.9</ele>
        <time>2020-11-11T18:48:58Z</time>
      </trkpt>
      <trkpt lat="28.2788450" lon="-16.5767820">
        <ele>2124.9</ele>
        <time>2020-11-11T18:48:59Z</time>
      </trkpt>
      <trkpt lat="28.2788450" lon="-16.5767820">
        <ele>2124.9</ele>
        <time>2020-11-11T18:49:00Z</time>
      </trkpt>
      <trkpt lat="28.2788130" lon="-16.5767530">
        <ele>2124.9</ele>
        <time>2020-11-11T18:49:01Z</time>
      </trkpt>
      <trkpt lat="28.2788130" lon="-16.5767530">
        <ele>2124.9</ele>
        <time>2020-11-11T18:49:02Z</time>
      </trkpt>
      <trkpt lat="28.2787870" lon="-16.5767200">
        <ele>2124.9</ele>
        <time>2020-11-11T18:49:03Z</time>
      </trkpt>
      <trkpt lat="28.2787870" lon="-16.5767200">
        <ele>2124.9</ele>
        <time>2020-11-11T18:49:04Z</time>
      </trkpt>
      <trkpt lat="28.2787550" lon="-16.5766920">
        <ele>2124.9</ele>
        <time>2020-11-11T18:49:05Z</time>
      </trkpt>
      <trkpt lat="28.2787550" lon="-16.5766920">
        <ele>2125.9</ele>
        <time>2020-11-11T18:49:06Z</time>
      </trkpt>
      <trkpt lat="28.2787150" lon="-16.5766580">
        <ele>2125.9</ele>
        <time>2020-11-11T18:49:07Z</time>
      </trkpt>
      <trkpt lat="28.2787150" lon="-16.5766580">
        <ele>2125.9</ele>
        <time>2020-11-11T18:49:08Z</time>
      </trkpt>
      <trkpt lat="28.2786830" lon="-16.5766280">
        <ele>2125.9</ele>
        <time>2020-11-11T18:49:09Z</time>
      </trkpt>
      <trkpt lat="28.2786830" lon="-16.5766280">
        <ele>2125.9</ele>
        <time>2020-11-11T18:49:10Z</time>
      </trkpt>
      <trkpt lat="28.2786530" lon="-16.5766030">
        <ele>2125.9</ele>
        <time>2020-11-11T18:49:11Z</time>
      </trkpt>
      <trkpt lat="28.2786530" lon="-16.5766030">
        <ele>2126.9</ele>
        <time>2020-11-11T18:49:12Z</time>
      </trkpt>
      <trkpt lat="28.2786200" lon="-16.5765730">
        <ele>2126.9</ele>
        <time>2020-11-11T18:49:13Z</time>
      </trkpt>
      <trkpt lat="28.2786200" lon="-16.5765730">
        <ele>2126.9</ele>
        <time>2020-11-11T18:49:14Z</time>
      </trkpt>
      <trkpt lat="28.2785900" lon="-16.5765430">
        <ele>2126.9</ele>
        <time>2020-11-11T18:49:15Z</time>
      </trkpt>
      <trkpt lat="28.2785900" lon="-16.5765430">
        <ele>2126.9</ele>
        <time>2020-11-11T18:49:16Z</time>
      </trkpt>
      <trkpt lat="28.2785600" lon="-16.5765120">
        <ele>2126.9</ele>
        <time>2020-11-11T18:49:17Z</time>
      </trkpt>
      <trkpt lat="28.2785600" lon="-16.5765120">
        <ele>2126.9</ele>
        <time>2020-11-11T18:49:18Z</time>
      </trkpt>
      <trkpt lat="28.2785320" lon="-16.5764800">
        <ele>2126.9</ele>
        <time>2020-11-11T18:49:19Z</time>
      </trkpt>
      <trkpt lat="28.2785320" lon="-16.5764800">
        <ele>2127.9</ele>
        <time>2020-11-11T18:49:20Z</time>
      </trkpt>
      <trkpt lat="28.2785020" lon="-16.5764480">
        <ele>2127.9</ele>
        <time>2020-11-11T18:49:21Z</time>
      </trkpt>
      <trkpt lat="28.2784900" lon="-16.5764320">
        <ele>2127.9</ele>
        <time>2020-11-11T18:49:22Z</time>
      </trkpt>
      <trkpt lat="28.2784900" lon="-16.5764320">
        <ele>2127.9</ele>
        <time>2020-11-11T18:49:23Z</time>
      </trkpt>
      <trkpt lat="28.2784580" lon="-16.5763980">
        <ele>2128.9</ele>
        <time>2020-11-11T18:49:24Z</time>
      </trkpt>
      <trkpt lat="28.2784420" lon="-16.5763850">
        <ele>2128.9</ele>
        <time>2020-11-11T18:49:25Z</time>
      </trkpt>
      <trkpt lat="28.2784420" lon="-16.5763850">
        <ele>2128.9</ele>
        <time>2020-11-11T18:49:26Z</time>
      </trkpt>
      <trkpt lat="28.2784080" lon="-16.5763570">
        <ele>2128.9</ele>
        <time>2020-11-11T18:49:27Z</time>
      </trkpt>
      <trkpt lat="28.2784080" lon="-16.5763570">
        <ele>2128.9</ele>
        <time>2020-11-11T18:49:28Z</time>
      </trkpt>
      <trkpt lat="28.2783750" lon="-16.5763320">
        <ele>2128.9</ele>
        <time>2020-11-11T18:49:29Z</time>
      </trkpt>
      <trkpt lat="28.2783750" lon="-16.5763320">
        <ele>2128.9</ele>
        <time>2020-11-11T18:49:30Z</time>
      </trkpt>
      <trkpt lat="28.2783370" lon="-16.5763080">
        <ele>2128.9</ele>
        <time>2020-11-11T18:49:31Z</time>
      </trkpt>
      <trkpt lat="28.2783370" lon="-16.5763080">
        <ele>2129.9</ele>
        <time>2020-11-11T18:49:32Z</time>
      </trkpt>
      <trkpt lat="28.2782980" lon="-16.5762920">
        <ele>2129.9</ele>
        <time>2020-11-11T18:49:33Z</time>
      </trkpt>
      <trkpt lat="28.2782980" lon="-16.5762920">
        <ele>2129.9</ele>
        <time>2020-11-11T18:49:34Z</time>
      </trkpt>
      <trkpt lat="28.2782600" lon="-16.5762770">
        <ele>2129.9</ele>
        <time>2020-11-11T18:49:35Z</time>
      </trkpt>
      <trkpt lat="28.2782400" lon="-16.5762720">
        <ele>2130.9</ele>
        <time>2020-11-11T18:49:36Z</time>
      </trkpt>
      <trkpt lat="28.2782220" lon="-16.5762670">
        <ele>2130.9</ele>
        <time>2020-11-11T18:49:37Z</time>
      </trkpt>
      <trkpt lat="28.2782220" lon="-16.5762670">
        <ele>2130.9</ele>
        <time>2020-11-11T18:49:38Z</time>
      </trkpt>
      <trkpt lat="28.2781730" lon="-16.5762580">
        <ele>2130.9</ele>
        <time>2020-11-11T18:49:39Z</time>
      </trkpt>
      <trkpt lat="28.2781730" lon="-16.5762580">
        <ele>2130.9</ele>
        <time>2020-11-11T18:49:40Z</time>
      </trkpt>
      <trkpt lat="28.2781280" lon="-16.5762480">
        <ele>2130.9</ele>
        <time>2020-11-11T18:49:41Z</time>
      </trkpt>
      <trkpt lat="28.2781050" lon="-16.5762430">
        <ele>2130.9</ele>
        <time>2020-11-11T18:49:42Z</time>
      </trkpt>
      <trkpt lat="28.2781050" lon="-16.5762430">
        <ele>2130.9</ele>
        <time>2020-11-11T18:49:43Z</time>
      </trkpt>
      <trkpt lat="28.2780650" lon="-16.5762370">
        <ele>2130.9</ele>
        <time>2020-11-11T18:49:44Z</time>
      </trkpt>
      <trkpt lat="28.2780650" lon="-16.5762370">
        <ele>2130.9</ele>
        <time>2020-11-11T18:49:45Z</time>
      </trkpt>
      <trkpt lat="28.2780230" lon="-16.5762270">
        <ele>2130.9</ele>
        <time>2020-11-11T18:49:46Z</time>
      </trkpt>
      <trkpt lat="28.2780230" lon="-16.5762270">
        <ele>2130.9</ele>
        <time>2020-11-11T18:49:47Z</time>
      </trkpt>
      <trkpt lat="28.2779850" lon="-16.5762130">
        <ele>2130.9</ele>
        <time>2020-11-11T18:49:48Z</time>
      </trkpt>
      <trkpt lat="28.2779630" lon="-16.5762080">
        <ele>2130.9</ele>
        <time>2020-11-11T18:49:49Z</time>
      </trkpt>
      <trkpt lat="28.2779630" lon="-16.5762080">
        <ele>2130.9</ele>
        <time>2020-11-11T18:49:50Z</time>
      </trkpt>
      <trkpt lat="28.2779220" lon="-16.5762000">
        <ele>2131.9</ele>
        <time>2020-11-11T18:49:51Z</time>
      </trkpt>
      <trkpt lat="28.2779220" lon="-16.5762000">
        <ele>2131.9</ele>
        <time>2020-11-11T18:49:52Z</time>
      </trkpt>
      <trkpt lat="28.2778820" lon="-16.5762000">
        <ele>2131.9</ele>
        <time>2020-11-11T18:49:53Z</time>
      </trkpt>
      <trkpt lat="28.2778820" lon="-16.5762000">
        <ele>2131.9</ele>
        <time>2020-11-11T18:49:54Z</time>
      </trkpt>
      <trkpt lat="28.2778420" lon="-16.5762020">
        <ele>2131.9</ele>
        <time>2020-11-11T18:49:55Z</time>
      </trkpt>
      <trkpt lat="28.2778420" lon="-16.5762020">
        <ele>2131.9</ele>
        <time>2020-11-11T18:49:56Z</time>
      </trkpt>
      <trkpt lat="28.2777980" lon="-16.5762020">
        <ele>2131.9</ele>
        <time>2020-11-11T18:49:57Z</time>
      </trkpt>
      <trkpt lat="28.2777980" lon="-16.5762020">
        <ele>2131.9</ele>
        <time>2020-11-11T18:49:58Z</time>
      </trkpt>
      <trkpt lat="28.2777550" lon="-16.5761970">
        <ele>2131.9</ele>
        <time>2020-11-11T18:49:59Z</time>
      </trkpt>
      <trkpt lat="28.2777550" lon="-16.5761970">
        <ele>2131.9</ele>
        <time>2020-11-11T18:50:00Z</time>
      </trkpt>
      <trkpt lat="28.2777130" lon="-16.5761970">
        <ele>2132.9</ele>
        <time>2020-11-11T18:50:01Z</time>
      </trkpt>
      <trkpt lat="28.2777130" lon="-16.5761970">
        <ele>2132.9</ele>
        <time>2020-11-11T18:50:02Z</time>
      </trkpt>
      <trkpt lat="28.2776680" lon="-16.5761930">
        <ele>2132.9</ele>
        <time>2020-11-11T18:50:03Z</time>
      </trkpt>
      <trkpt lat="28.2776680" lon="-16.5761930">
        <ele>2132.9</ele>
        <time>2020-11-11T18:50:04Z</time>
      </trkpt>
      <trkpt lat="28.2776250" lon="-16.5761830">
        <ele>2132.9</ele>
        <time>2020-11-11T18:50:05Z</time>
      </trkpt>
      <trkpt lat="28.2776250" lon="-16.5761830">
        <ele>2133.9</ele>
        <time>2020-11-11T18:50:06Z</time>
      </trkpt>
      <trkpt lat="28.2775800" lon="-16.5761820">
        <ele>2133.9</ele>
        <time>2020-11-11T18:50:07Z</time>
      </trkpt>
      <trkpt lat="28.2775800" lon="-16.5761820">
        <ele>2133.9</ele>
        <time>2020-11-11T18:50:08Z</time>
      </trkpt>
      <trkpt lat="28.2775380" lon="-16.5761830">
        <ele>2133.9</ele>
        <time>2020-11-11T18:50:09Z</time>
      </trkpt>
      <trkpt lat="28.2775380" lon="-16.5761830">
        <ele>2133.9</ele>
        <time>2020-11-11T18:50:10Z</time>
      </trkpt>
      <trkpt lat="28.2774970" lon="-16.5761870">
        <ele>2133.9</ele>
        <time>2020-11-11T18:50:11Z</time>
      </trkpt>
      <trkpt lat="28.2774970" lon="-16.5761870">
        <ele>2133.9</ele>
        <time>2020-11-11T18:50:12Z</time>
      </trkpt>
      <trkpt lat="28.2774570" lon="-16.5761980">
        <ele>2133.9</ele>
        <time>2020-11-11T18:50:13Z</time>
      </trkpt>
      <trkpt lat="28.2774570" lon="-16.5761980">
        <ele>2133.9</ele>
        <time>2020-11-11T18:50:14Z</time>
      </trkpt>
      <trkpt lat="28.2774130" lon="-16.5762100">
        <ele>2133.9</ele>
        <time>2020-11-11T18:50:15Z</time>
      </trkpt>
      <trkpt lat="28.2774130" lon="-16.5762100">
        <ele>2134.9</ele>
        <time>2020-11-11T18:50:16Z</time>
      </trkpt>
      <trkpt lat="28.2773730" lon="-16.5762220">
        <ele>2134.9</ele>
        <time>2020-11-11T18:50:17Z</time>
      </trkpt>
      <trkpt lat="28.2773730" lon="-16.5762220">
        <ele>2134.9</ele>
        <time>2020-11-11T18:50:18Z</time>
      </trkpt>
      <trkpt lat="28.2773330" lon="-16.5762430">
        <ele>2134.9</ele>
        <time>2020-11-11T18:50:19Z</time>
      </trkpt>
      <trkpt lat="28.2773330" lon="-16.5762430">
        <ele>2134.9</ele>
        <time>2020-11-11T18:50:20Z</time>
      </trkpt>
      <trkpt lat="28.2772970" lon="-16.5762700">
        <ele>2134.9</ele>
        <time>2020-11-11T18:50:21Z</time>
      </trkpt>
      <trkpt lat="28.2772970" lon="-16.5762700">
        <ele>2134.9</ele>
        <time>2020-11-11T18:50:22Z</time>
      </trkpt>
      <trkpt lat="28.2772580" lon="-16.5762930">
        <ele>2134.9</ele>
        <time>2020-11-11T18:50:23Z</time>
      </trkpt>
      <trkpt lat="28.2772420" lon="-16.5763050">
        <ele>2134.9</ele>
        <time>2020-11-11T18:50:24Z</time>
      </trkpt>
      <trkpt lat="28.2772420" lon="-16.5763050">
        <ele>2134.9</ele>
        <time>2020-11-11T18:50:25Z</time>
      </trkpt>
      <trkpt lat="28.2772050" lon="-16.5763330">
        <ele>2134.9</ele>
        <time>2020-11-11T18:50:26Z</time>
      </trkpt>
      <trkpt lat="28.2772050" lon="-16.5763330">
        <ele>2134.9</ele>
        <time>2020-11-11T18:50:27Z</time>
      </trkpt>
      <trkpt lat="28.2771670" lon="-16.5763580">
        <ele>2134.9</ele>
        <time>2020-11-11T18:50:28Z</time>
      </trkpt>
      <trkpt lat="28.2771670" lon="-16.5763580">
        <ele>2134.9</ele>
        <time>2020-11-11T18:50:29Z</time>
      </trkpt>
      <trkpt lat="28.2771220" lon="-16.5763900">
        <ele>2135.9</ele>
        <time>2020-11-11T18:50:30Z</time>
      </trkpt>
      <trkpt lat="28.2770970" lon="-16.5764050">
        <ele>2135.9</ele>
        <time>2020-11-11T18:50:31Z</time>
      </trkpt>
      <trkpt lat="28.2770970" lon="-16.5764050">
        <ele>2135.9</ele>
        <time>2020-11-11T18:50:32Z</time>
      </trkpt>
      <trkpt lat="28.2770530" lon="-16.5764320">
        <ele>2135.9</ele>
        <time>2020-11-11T18:50:33Z</time>
      </trkpt>
      <trkpt lat="28.2770530" lon="-16.5764320">
        <ele>2135.9</ele>
        <time>2020-11-11T18:50:34Z</time>
      </trkpt>
      <trkpt lat="28.2770150" lon="-16.5764600">
        <ele>2135.9</ele>
        <time>2020-11-11T18:50:35Z</time>
      </trkpt>
      <trkpt lat="28.2770150" lon="-16.5764600">
        <ele>2136.9</ele>
        <time>2020-11-11T18:50:36Z</time>
      </trkpt>
      <trkpt lat="28.2769780" lon="-16.5764920">
        <ele>2136.9</ele>
        <time>2020-11-11T18:50:37Z</time>
      </trkpt>
      <trkpt lat="28.2769780" lon="-16.5764920">
        <ele>2136.9</ele>
        <time>2020-11-11T18:50:38Z</time>
      </trkpt>
      <trkpt lat="28.2769420" lon="-16.5765180">
        <ele>2136.9</ele>
        <time>2020-11-11T18:50:39Z</time>
      </trkpt>
      <trkpt lat="28.2769420" lon="-16.5765180">
        <ele>2136.9</ele>
        <time>2020-11-11T18:50:40Z</time>
      </trkpt>
      <trkpt lat="28.2769020" lon="-16.5765450">
        <ele>2136.9</ele>
        <time>2020-11-11T18:50:41Z</time>
      </trkpt>
      <trkpt lat="28.2769020" lon="-16.5765450">
        <ele>2136.9</ele>
        <time>2020-11-11T18:50:42Z</time>
      </trkpt>
      <trkpt lat="28.2768620" lon="-16.5765680">
        <ele>2136.9</ele>
        <time>2020-11-11T18:50:43Z</time>
      </trkpt>
      <trkpt lat="28.2768620" lon="-16.5765680">
        <ele>2136.9</ele>
        <time>2020-11-11T18:50:44Z</time>
      </trkpt>
      <trkpt lat="28.2768250" lon="-16.5765950">
        <ele>2136.9</ele>
        <time>2020-11-11T18:50:45Z</time>
      </trkpt>
      <trkpt lat="28.2768250" lon="-16.5765950">
        <ele>2136.9</ele>
        <time>2020-11-11T18:50:46Z</time>
      </trkpt>
      <trkpt lat="28.2767870" lon="-16.5766200">
        <ele>2136.9</ele>
        <time>2020-11-11T18:50:47Z</time>
      </trkpt>
      <trkpt lat="28.2767870" lon="-16.5766200">
        <ele>2136.9</ele>
        <time>2020-11-11T18:50:48Z</time>
      </trkpt>
      <trkpt lat="28.2767500" lon="-16.5766450">
        <ele>2136.9</ele>
        <time>2020-11-11T18:50:49Z</time>
      </trkpt>
      <trkpt lat="28.2767320" lon="-16.5766580">
        <ele>2136.9</ele>
        <time>2020-11-11T18:50:50Z</time>
      </trkpt>
      <trkpt lat="28.2767320" lon="-16.5766580">
        <ele>2137.9</ele>
        <time>2020-11-11T18:50:51Z</time>
      </trkpt>
      <trkpt lat="28.2766950" lon="-16.5766820">
        <ele>2137.9</ele>
        <time>2020-11-11T18:50:52Z</time>
      </trkpt>
      <trkpt lat="28.2766750" lon="-16.5766930">
        <ele>2137.9</ele>
        <time>2020-11-11T18:50:53Z</time>
      </trkpt>
      <trkpt lat="28.2766750" lon="-16.5766930">
        <ele>2137.9</ele>
        <time>2020-11-11T18:50:54Z</time>
      </trkpt>
      <trkpt lat="28.2766420" lon="-16.5767220">
        <ele>2137.9</ele>
        <time>2020-11-11T18:50:55Z</time>
      </trkpt>
      <trkpt lat="28.2766230" lon="-16.5767380">
        <ele>2137.9</ele>
        <time>2020-11-11T18:50:56Z</time>
      </trkpt>
      <trkpt lat="28.2766230" lon="-16.5767380">
        <ele>2137.9</ele>
        <time>2020-11-11T18:50:57Z</time>
      </trkpt>
      <trkpt lat="28.2765830" lon="-16.5767630">
        <ele>2137.9</ele>
        <time>2020-11-11T18:50:58Z</time>
      </trkpt>
      <trkpt lat="28.2765830" lon="-16.5767630">
        <ele>2138.9</ele>
        <time>2020-11-11T18:50:59Z</time>
      </trkpt>
      <trkpt lat="28.2765450" lon="-16.5767880">
        <ele>2138.9</ele>
        <time>2020-11-11T18:51:00Z</time>
      </trkpt>
      <trkpt lat="28.2765450" lon="-16.5767880">
        <ele>2138.9</ele>
        <time>2020-11-11T18:51:01Z</time>
      </trkpt>
      <trkpt lat="28.2765030" lon="-16.5768180">
        <ele>2138.9</ele>
        <time>2020-11-11T18:51:02Z</time>
      </trkpt>
      <trkpt lat="28.2765030" lon="-16.5768180">
        <ele>2138.9</ele>
        <time>2020-11-11T18:51:03Z</time>
      </trkpt>
      <trkpt lat="28.2764670" lon="-16.5768480">
        <ele>2138.9</ele>
        <time>2020-11-11T18:51:04Z</time>
      </trkpt>
      <trkpt lat="28.2764670" lon="-16.5768480">
        <ele>2138.9</ele>
        <time>2020-11-11T18:51:05Z</time>
      </trkpt>
      <trkpt lat="28.2764300" lon="-16.5768830">
        <ele>2138.9</ele>
        <time>2020-11-11T18:51:06Z</time>
      </trkpt>
      <trkpt lat="28.2764120" lon="-16.5769000">
        <ele>2139.9</ele>
        <time>2020-11-11T18:51:07Z</time>
      </trkpt>
      <trkpt lat="28.2764120" lon="-16.5769000">
        <ele>2139.9</ele>
        <time>2020-11-11T18:51:08Z</time>
      </trkpt>
      <trkpt lat="28.2763730" lon="-16.5769300">
        <ele>2139.9</ele>
        <time>2020-11-11T18:51:09Z</time>
      </trkpt>
      <trkpt lat="28.2763730" lon="-16.5769300">
        <ele>2139.9</ele>
        <time>2020-11-11T18:51:10Z</time>
      </trkpt>
      <trkpt lat="28.2763380" lon="-16.5769650">
        <ele>2139.9</ele>
        <time>2020-11-11T18:51:11Z</time>
      </trkpt>
      <trkpt lat="28.2763380" lon="-16.5769650">
        <ele>2139.9</ele>
        <time>2020-11-11T18:51:12Z</time>
      </trkpt>
      <trkpt lat="28.2763070" lon="-16.5770020">
        <ele>2139.9</ele>
        <time>2020-11-11T18:51:13Z</time>
      </trkpt>
      <trkpt lat="28.2763070" lon="-16.5770020">
        <ele>2139.9</ele>
        <time>2020-11-11T18:51:14Z</time>
      </trkpt>
      <trkpt lat="28.2762780" lon="-16.5770450">
        <ele>2140.9</ele>
        <time>2020-11-11T18:51:15Z</time>
      </trkpt>
      <trkpt lat="28.2762780" lon="-16.5770450">
        <ele>2140.9</ele>
        <time>2020-11-11T18:51:16Z</time>
      </trkpt>
      <trkpt lat="28.2762580" lon="-16.5770950">
        <ele>2140.9</ele>
        <time>2020-11-11T18:51:17Z</time>
      </trkpt>
      <trkpt lat="28.2762580" lon="-16.5770950">
        <ele>2140.9</ele>
        <time>2020-11-11T18:51:18Z</time>
      </trkpt>
      <trkpt lat="28.2762380" lon="-16.5771500">
        <ele>2140.9</ele>
        <time>2020-11-11T18:51:19Z</time>
      </trkpt>
      <trkpt lat="28.2762380" lon="-16.5771500">
        <ele>2140.9</ele>
        <time>2020-11-11T18:51:20Z</time>
      </trkpt>
      <trkpt lat="28.2762180" lon="-16.5772020">
        <ele>2140.9</ele>
        <time>2020-11-11T18:51:21Z</time>
      </trkpt>
      <trkpt lat="28.2762180" lon="-16.5772020">
        <ele>2140.9</ele>
        <time>2020-11-11T18:51:22Z</time>
      </trkpt>
      <trkpt lat="28.2762030" lon="-16.5772580">
        <ele>2140.9</ele>
        <time>2020-11-11T18:51:23Z</time>
      </trkpt>
      <trkpt lat="28.2762030" lon="-16.5772580">
        <ele>2141.9</ele>
        <time>2020-11-11T18:51:24Z</time>
      </trkpt>
      <trkpt lat="28.2761850" lon="-16.5773130">
        <ele>2141.9</ele>
        <time>2020-11-11T18:51:25Z</time>
      </trkpt>
      <trkpt lat="28.2761770" lon="-16.5773420">
        <ele>2141.9</ele>
        <time>2020-11-11T18:51:26Z</time>
      </trkpt>
      <trkpt lat="28.2761770" lon="-16.5773420">
        <ele>2141.9</ele>
        <time>2020-11-11T18:51:27Z</time>
      </trkpt>
      <trkpt lat="28.2761600" lon="-16.5774020">
        <ele>2141.9</ele>
        <time>2020-11-11T18:51:28Z</time>
      </trkpt>
      <trkpt lat="28.2761600" lon="-16.5774020">
        <ele>2141.9</ele>
        <time>2020-11-11T18:51:29Z</time>
      </trkpt>
      <trkpt lat="28.2761430" lon="-16.5774620">
        <ele>2141.9</ele>
        <time>2020-11-11T18:51:30Z</time>
      </trkpt>
      <trkpt lat="28.2761430" lon="-16.5774620">
        <ele>2141.9</ele>
        <time>2020-11-11T18:51:31Z</time>
      </trkpt>
      <trkpt lat="28.2761270" lon="-16.5775250">
        <ele>2141.9</ele>
        <time>2020-11-11T18:51:32Z</time>
      </trkpt>
      <trkpt lat="28.2761270" lon="-16.5775250">
        <ele>2141.9</ele>
        <time>2020-11-11T18:51:33Z</time>
      </trkpt>
      <trkpt lat="28.2761150" lon="-16.5775800">
        <ele>2141.9</ele>
        <time>2020-11-11T18:51:34Z</time>
      </trkpt>
      <trkpt lat="28.2761150" lon="-16.5775800">
        <ele>2141.9</ele>
        <time>2020-11-11T18:51:35Z</time>
      </trkpt>
      <trkpt lat="28.2761020" lon="-16.5776350">
        <ele>2141.9</ele>
        <time>2020-11-11T18:51:36Z</time>
      </trkpt>
      <trkpt lat="28.2761020" lon="-16.5776350">
        <ele>2141.9</ele>
        <time>2020-11-11T18:51:37Z</time>
      </trkpt>
      <trkpt lat="28.2760920" lon="-16.5776880">
        <ele>2141.9</ele>
        <time>2020-11-11T18:51:38Z</time>
      </trkpt>
      <trkpt lat="28.2760920" lon="-16.5776880">
        <ele>2141.9</ele>
        <time>2020-11-11T18:51:39Z</time>
      </trkpt>
      <trkpt lat="28.2760780" lon="-16.5777430">
        <ele>2141.9</ele>
        <time>2020-11-11T18:51:40Z</time>
      </trkpt>
      <trkpt lat="28.2760780" lon="-16.5777430">
        <ele>2141.9</ele>
        <time>2020-11-11T18:51:41Z</time>
      </trkpt>
      <trkpt lat="28.2760580" lon="-16.5777970">
        <ele>2141.9</ele>
        <time>2020-11-11T18:51:42Z</time>
      </trkpt>
      <trkpt lat="28.2760580" lon="-16.5777970">
        <ele>2142.9</ele>
        <time>2020-11-11T18:51:43Z</time>
      </trkpt>
      <trkpt lat="28.2760430" lon="-16.5778530">
        <ele>2142.9</ele>
        <time>2020-11-11T18:51:44Z</time>
      </trkpt>
      <trkpt lat="28.2760430" lon="-16.5778530">
        <ele>2142.9</ele>
        <time>2020-11-11T18:51:45Z</time>
      </trkpt>
      <trkpt lat="28.2760320" lon="-16.5779100">
        <ele>2142.9</ele>
        <time>2020-11-11T18:51:46Z</time>
      </trkpt>
      <trkpt lat="28.2760270" lon="-16.5779380">
        <ele>2142.9</ele>
        <time>2020-11-11T18:51:47Z</time>
      </trkpt>
      <trkpt lat="28.2760270" lon="-16.5779380">
        <ele>2142.9</ele>
        <time>2020-11-11T18:51:48Z</time>
      </trkpt>
      <trkpt lat="28.2760130" lon="-16.5779970">
        <ele>2142.9</ele>
        <time>2020-11-11T18:51:49Z</time>
      </trkpt>
      <trkpt lat="28.2760130" lon="-16.5779970">
        <ele>2142.9</ele>
        <time>2020-11-11T18:51:50Z</time>
      </trkpt>
      <trkpt lat="28.2760000" lon="-16.5780570">
        <ele>2142.9</ele>
        <time>2020-11-11T18:51:51Z</time>
      </trkpt>
      <trkpt lat="28.2760000" lon="-16.5780570">
        <ele>2142.9</ele>
        <time>2020-11-11T18:51:52Z</time>
      </trkpt>
      <trkpt lat="28.2759880" lon="-16.5781150">
        <ele>2142.9</ele>
        <time>2020-11-11T18:51:53Z</time>
      </trkpt>
      <trkpt lat="28.2759880" lon="-16.5781150">
        <ele>2142.9</ele>
        <time>2020-11-11T18:51:54Z</time>
      </trkpt>
      <trkpt lat="28.2759720" lon="-16.5781770">
        <ele>2142.9</ele>
        <time>2020-11-11T18:51:55Z</time>
      </trkpt>
      <trkpt lat="28.2759720" lon="-16.5781770">
        <ele>2142.9</ele>
        <time>2020-11-11T18:51:56Z</time>
      </trkpt>
      <trkpt lat="28.2759530" lon="-16.5782380">
        <ele>2142.9</ele>
        <time>2020-11-11T18:51:57Z</time>
      </trkpt>
      <trkpt lat="28.2759530" lon="-16.5782380">
        <ele>2142.9</ele>
        <time>2020-11-11T18:51:58Z</time>
      </trkpt>
      <trkpt lat="28.2759350" lon="-16.5783070">
        <ele>2142.9</ele>
        <time>2020-11-11T18:51:59Z</time>
      </trkpt>
      <trkpt lat="28.2759350" lon="-16.5783070">
        <ele>2142.9</ele>
        <time>2020-11-11T18:52:00Z</time>
      </trkpt>
      <trkpt lat="28.2759180" lon="-16.5783770">
        <ele>2142.9</ele>
        <time>2020-11-11T18:52:01Z</time>
      </trkpt>
      <trkpt lat="28.2759180" lon="-16.5783770">
        <ele>2142.9</ele>
        <time>2020-11-11T18:52:02Z</time>
      </trkpt>
      <trkpt lat="28.2758980" lon="-16.5784570">
        <ele>2142.9</ele>
        <time>2020-11-11T18:52:03Z</time>
      </trkpt>
      <trkpt lat="28.2758980" lon="-16.5784570">
        <ele>2142.9</ele>
        <time>2020-11-11T18:52:04Z</time>
      </trkpt>
      <trkpt lat="28.2758820" lon="-16.5785270">
        <ele>2142.9</ele>
        <time>2020-11-11T18:52:05Z</time>
      </trkpt>
      <trkpt lat="28.2758820" lon="-16.5785270">
        <ele>2142.9</ele>
        <time>2020-11-11T18:52:06Z</time>
      </trkpt>
      <trkpt lat="28.2758580" lon="-16.5785950">
        <ele>2142.9</ele>
        <time>2020-11-11T18:52:07Z</time>
      </trkpt>
      <trkpt lat="28.2758580" lon="-16.5785950">
        <ele>2142.9</ele>
        <time>2020-11-11T18:52:08Z</time>
      </trkpt>
      <trkpt lat="28.2758330" lon="-16.5786600">
        <ele>2142.9</ele>
        <time>2020-11-11T18:52:09Z</time>
      </trkpt>
      <trkpt lat="28.2758330" lon="-16.5786600">
        <ele>2142.9</ele>
        <time>2020-11-11T18:52:10Z</time>
      </trkpt>
      <trkpt lat="28.2758180" lon="-16.5787300">
        <ele>2142.9</ele>
        <time>2020-11-11T18:52:11Z</time>
      </trkpt>
      <trkpt lat="28.2758180" lon="-16.5787300">
        <ele>2142.9</ele>
        <time>2020-11-11T18:52:12Z</time>
      </trkpt>
      <trkpt lat="28.2758030" lon="-16.5788000">
        <ele>2142.9</ele>
        <time>2020-11-11T18:52:13Z</time>
      </trkpt>
      <trkpt lat="28.2758030" lon="-16.5788000">
        <ele>2142.9</ele>
        <time>2020-11-11T18:52:14Z</time>
      </trkpt>
      <trkpt lat="28.2757820" lon="-16.5788620">
        <ele>2142.9</ele>
        <time>2020-11-11T18:52:15Z</time>
      </trkpt>
      <trkpt lat="28.2757820" lon="-16.5788620">
        <ele>2143.9</ele>
        <time>2020-11-11T18:52:16Z</time>
      </trkpt>
      <trkpt lat="28.2757650" lon="-16.5789300">
        <ele>2143.9</ele>
        <time>2020-11-11T18:52:17Z</time>
      </trkpt>
      <trkpt lat="28.2757650" lon="-16.5789300">
        <ele>2143.9</ele>
        <time>2020-11-11T18:52:18Z</time>
      </trkpt>
      <trkpt lat="28.2757470" lon="-16.5790000">
        <ele>2143.9</ele>
        <time>2020-11-11T18:52:19Z</time>
      </trkpt>
      <trkpt lat="28.2757470" lon="-16.5790000">
        <ele>2143.9</ele>
        <time>2020-11-11T18:52:20Z</time>
      </trkpt>
      <trkpt lat="28.2757300" lon="-16.5790670">
        <ele>2143.9</ele>
        <time>2020-11-11T18:52:21Z</time>
      </trkpt>
      <trkpt lat="28.2757300" lon="-16.5790670">
        <ele>2143.9</ele>
        <time>2020-11-11T18:52:22Z</time>
      </trkpt>
      <trkpt lat="28.2757150" lon="-16.5791320">
        <ele>2143.9</ele>
        <time>2020-11-11T18:52:23Z</time>
      </trkpt>
      <trkpt lat="28.2757150" lon="-16.5791320">
        <ele>2144.9</ele>
        <time>2020-11-11T18:52:24Z</time>
      </trkpt>
      <trkpt lat="28.2757000" lon="-16.5791970">
        <ele>2144.9</ele>
        <time>2020-11-11T18:52:25Z</time>
      </trkpt>
      <trkpt lat="28.2757000" lon="-16.5791970">
        <ele>2144.9</ele>
        <time>2020-11-11T18:52:26Z</time>
      </trkpt>
      <trkpt lat="28.2756830" lon="-16.5792600">
        <ele>2144.9</ele>
        <time>2020-11-11T18:52:27Z</time>
      </trkpt>
      <trkpt lat="28.2756830" lon="-16.5792600">
        <ele>2144.9</ele>
        <time>2020-11-11T18:52:28Z</time>
      </trkpt>
      <trkpt lat="28.2756670" lon="-16.5793230">
        <ele>2144.9</ele>
        <time>2020-11-11T18:52:29Z</time>
      </trkpt>
      <trkpt lat="28.2756670" lon="-16.5793230">
        <ele>2145.9</ele>
        <time>2020-11-11T18:52:30Z</time>
      </trkpt>
      <trkpt lat="28.2756500" lon="-16.5793850">
        <ele>2145.9</ele>
        <time>2020-11-11T18:52:31Z</time>
      </trkpt>
      <trkpt lat="28.2756500" lon="-16.5793850">
        <ele>2145.9</ele>
        <time>2020-11-11T18:52:32Z</time>
      </trkpt>
      <trkpt lat="28.2756320" lon="-16.5794470">
        <ele>2145.9</ele>
        <time>2020-11-11T18:52:33Z</time>
      </trkpt>
      <trkpt lat="28.2756320" lon="-16.5794470">
        <ele>2145.9</ele>
        <time>2020-11-11T18:52:34Z</time>
      </trkpt>
      <trkpt lat="28.2756120" lon="-16.5795070">
        <ele>2145.9</ele>
        <time>2020-11-11T18:52:35Z</time>
      </trkpt>
      <trkpt lat="28.2756120" lon="-16.5795070">
        <ele>2145.9</ele>
        <time>2020-11-11T18:52:36Z</time>
      </trkpt>
      <trkpt lat="28.2755930" lon="-16.5795700">
        <ele>2145.9</ele>
        <time>2020-11-11T18:52:37Z</time>
      </trkpt>
      <trkpt lat="28.2755930" lon="-16.5795700">
        <ele>2145.9</ele>
        <time>2020-11-11T18:52:38Z</time>
      </trkpt>
      <trkpt lat="28.2755780" lon="-16.5796300">
        <ele>2145.9</ele>
        <time>2020-11-11T18:52:39Z</time>
      </trkpt>
      <trkpt lat="28.2755780" lon="-16.5796300">
        <ele>2145.9</ele>
        <time>2020-11-11T18:52:40Z</time>
      </trkpt>
      <trkpt lat="28.2755630" lon="-16.5796900">
        <ele>2145.9</ele>
        <time>2020-11-11T18:52:41Z</time>
      </trkpt>
      <trkpt lat="28.2755630" lon="-16.5796900">
        <ele>2145.9</ele>
        <time>2020-11-11T18:52:42Z</time>
      </trkpt>
      <trkpt lat="28.2755500" lon="-16.5797520">
        <ele>2147.9</ele>
        <time>2020-11-11T18:52:43Z</time>
      </trkpt>
      <trkpt lat="28.2755500" lon="-16.5797520">
        <ele>2147.9</ele>
        <time>2020-11-11T18:52:44Z</time>
      </trkpt>
      <trkpt lat="28.2755330" lon="-16.5798150">
        <ele>2147.9</ele>
        <time>2020-11-11T18:52:45Z</time>
      </trkpt>
      <trkpt lat="28.2755330" lon="-16.5798150">
        <ele>2147.9</ele>
        <time>2020-11-11T18:52:46Z</time>
      </trkpt>
      <trkpt lat="28.2755170" lon="-16.5798800">
        <ele>2147.9</ele>
        <time>2020-11-11T18:52:47Z</time>
      </trkpt>
      <trkpt lat="28.2755170" lon="-16.5798800">
        <ele>2147.9</ele>
        <time>2020-11-11T18:52:48Z</time>
      </trkpt>
      <trkpt lat="28.2755030" lon="-16.5799420">
        <ele>2147.9</ele>
        <time>2020-11-11T18:52:49Z</time>
      </trkpt>
      <trkpt lat="28.2755030" lon="-16.5799420">
        <ele>2147.9</ele>
        <time>2020-11-11T18:52:50Z</time>
      </trkpt>
      <trkpt lat="28.2754880" lon="-16.5800000">
        <ele>2147.9</ele>
        <time>2020-11-11T18:52:51Z</time>
      </trkpt>
      <trkpt lat="28.2754880" lon="-16.5800000">
        <ele>2147.9</ele>
        <time>2020-11-11T18:52:52Z</time>
      </trkpt>
      <trkpt lat="28.2754700" lon="-16.5800600">
        <ele>2147.9</ele>
        <time>2020-11-11T18:52:53Z</time>
      </trkpt>
      <trkpt lat="28.2754700" lon="-16.5800600">
        <ele>2147.9</ele>
        <time>2020-11-11T18:52:54Z</time>
      </trkpt>
      <trkpt lat="28.2754480" lon="-16.5801150">
        <ele>2148.9</ele>
        <time>2020-11-11T18:52:55Z</time>
      </trkpt>
      <trkpt lat="28.2754480" lon="-16.5801150">
        <ele>2148.9</ele>
        <time>2020-11-11T18:52:56Z</time>
      </trkpt>
      <trkpt lat="28.2754330" lon="-16.5801730">
        <ele>2148.9</ele>
        <time>2020-11-11T18:52:57Z</time>
      </trkpt>
      <trkpt lat="28.2754330" lon="-16.5801730">
        <ele>2148.9</ele>
        <time>2020-11-11T18:52:58Z</time>
      </trkpt>
      <trkpt lat="28.2754230" lon="-16.5802370">
        <ele>2148.9</ele>
        <time>2020-11-11T18:52:59Z</time>
      </trkpt>
      <trkpt lat="28.2754230" lon="-16.5802370">
        <ele>2148.9</ele>
        <time>2020-11-11T18:53:00Z</time>
      </trkpt>
      <trkpt lat="28.2754030" lon="-16.5802930">
        <ele>2149.9</ele>
        <time>2020-11-11T18:53:01Z</time>
      </trkpt>
      <trkpt lat="28.2754030" lon="-16.5802930">
        <ele>2149.9</ele>
        <time>2020-11-11T18:53:02Z</time>
      </trkpt>
      <trkpt lat="28.2753770" lon="-16.5803470">
        <ele>2149.9</ele>
        <time>2020-11-11T18:53:03Z</time>
      </trkpt>
      <trkpt lat="28.2753620" lon="-16.5803720">
        <ele>2149.9</ele>
        <time>2020-11-11T18:53:04Z</time>
      </trkpt>
      <trkpt lat="28.2753620" lon="-16.5803720">
        <ele>2149.9</ele>
        <time>2020-11-11T18:53:05Z</time>
      </trkpt>
      <trkpt lat="28.2753270" lon="-16.5804200">
        <ele>2149.9</ele>
        <time>2020-11-11T18:53:06Z</time>
      </trkpt>
      <trkpt lat="28.2753070" lon="-16.5804420">
        <ele>2149.9</ele>
        <time>2020-11-11T18:53:07Z</time>
      </trkpt>
      <trkpt lat="28.2753070" lon="-16.5804420">
        <ele>2149.9</ele>
        <time>2020-11-11T18:53:08Z</time>
      </trkpt>
      <trkpt lat="28.2752630" lon="-16.5804800">
        <ele>2150.9</ele>
        <time>2020-11-11T18:53:09Z</time>
      </trkpt>
      <trkpt lat="28.2752630" lon="-16.5804800">
        <ele>2150.9</ele>
        <time>2020-11-11T18:53:10Z</time>
      </trkpt>
      <trkpt lat="28.2752180" lon="-16.5805150">
        <ele>2150.9</ele>
        <time>2020-11-11T18:53:11Z</time>
      </trkpt>
      <trkpt lat="28.2752180" lon="-16.5805150">
        <ele>2150.9</ele>
        <time>2020-11-11T18:53:12Z</time>
      </trkpt>
      <trkpt lat="28.2751700" lon="-16.5805380">
        <ele>2151.9</ele>
        <time>2020-11-11T18:53:13Z</time>
      </trkpt>
      <trkpt lat="28.2751700" lon="-16.5805380">
        <ele>2151.9</ele>
        <time>2020-11-11T18:53:14Z</time>
      </trkpt>
      <trkpt lat="28.2751220" lon="-16.5805570">
        <ele>2151.9</ele>
        <time>2020-11-11T18:53:15Z</time>
      </trkpt>
      <trkpt lat="28.2751220" lon="-16.5805570">
        <ele>2151.9</ele>
        <time>2020-11-11T18:53:16Z</time>
      </trkpt>
      <trkpt lat="28.2750800" lon="-16.5805680">
        <ele>2151.9</ele>
        <time>2020-11-11T18:53:17Z</time>
      </trkpt>
      <trkpt lat="28.2750800" lon="-16.5805680">
        <ele>2151.9</ele>
        <time>2020-11-11T18:53:18Z</time>
      </trkpt>
      <trkpt lat="28.2750370" lon="-16.5805780">
        <ele>2151.9</ele>
        <time>2020-11-11T18:53:19Z</time>
      </trkpt>
      <trkpt lat="28.2750370" lon="-16.5805780">
        <ele>2151.9</ele>
        <time>2020-11-11T18:53:20Z</time>
      </trkpt>
      <trkpt lat="28.2749880" lon="-16.5805820">
        <ele>2152.9</ele>
        <time>2020-11-11T18:53:21Z</time>
      </trkpt>
      <trkpt lat="28.2749650" lon="-16.5805820">
        <ele>2152.9</ele>
        <time>2020-11-11T18:53:22Z</time>
      </trkpt>
      <trkpt lat="28.2749650" lon="-16.5805820">
        <ele>2152.9</ele>
        <time>2020-11-11T18:53:23Z</time>
      </trkpt>
      <trkpt lat="28.2749180" lon="-16.5805830">
        <ele>2153.9</ele>
        <time>2020-11-11T18:53:24Z</time>
      </trkpt>
      <trkpt lat="28.2749180" lon="-16.5805830">
        <ele>2153.9</ele>
        <time>2020-11-11T18:53:25Z</time>
      </trkpt>
      <trkpt lat="28.2748700" lon="-16.5805730">
        <ele>2153.9</ele>
        <time>2020-11-11T18:53:26Z</time>
      </trkpt>
      <trkpt lat="28.2748700" lon="-16.5805730">
        <ele>2153.9</ele>
        <time>2020-11-11T18:53:27Z</time>
      </trkpt>
      <trkpt lat="28.2748200" lon="-16.5805530">
        <ele>2153.9</ele>
        <time>2020-11-11T18:53:28Z</time>
      </trkpt>
      <trkpt lat="28.2748200" lon="-16.5805530">
        <ele>2153.9</ele>
        <time>2020-11-11T18:53:29Z</time>
      </trkpt>
      <trkpt lat="28.2747750" lon="-16.5805250">
        <ele>2153.9</ele>
        <time>2020-11-11T18:53:30Z</time>
      </trkpt>
      <trkpt lat="28.2747530" lon="-16.5805120">
        <ele>2153.9</ele>
        <time>2020-11-11T18:53:31Z</time>
      </trkpt>
      <trkpt lat="28.2747530" lon="-16.5805120">
        <ele>2154.9</ele>
        <time>2020-11-11T18:53:32Z</time>
      </trkpt>
      <trkpt lat="28.2747120" lon="-16.5804850">
        <ele>2154.9</ele>
        <time>2020-11-11T18:53:33Z</time>
      </trkpt>
      <trkpt lat="28.2747120" lon="-16.5804850">
        <ele>2154.9</ele>
        <time>2020-11-11T18:53:34Z</time>
      </trkpt>
      <trkpt lat="28.2746730" lon="-16.5804520">
        <ele>2154.9</ele>
        <time>2020-11-11T18:53:35Z</time>
      </trkpt>
      <trkpt lat="28.2746730" lon="-16.5804520">
        <ele>2154.9</ele>
        <time>2020-11-11T18:53:36Z</time>
      </trkpt>
      <trkpt lat="28.2746450" lon="-16.5804100">
        <ele>2154.9</ele>
        <time>2020-11-11T18:53:37Z</time>
      </trkpt>
      <trkpt lat="28.2746450" lon="-16.5804100">
        <ele>2154.9</ele>
        <time>2020-11-11T18:53:38Z</time>
      </trkpt>
      <trkpt lat="28.2746100" lon="-16.5803700">
        <ele>2154.9</ele>
        <time>2020-11-11T18:53:39Z</time>
      </trkpt>
      <trkpt lat="28.2746100" lon="-16.5803700">
        <ele>2154.9</ele>
        <time>2020-11-11T18:53:40Z</time>
      </trkpt>
      <trkpt lat="28.2745770" lon="-16.5803280">
        <ele>2154.9</ele>
        <time>2020-11-11T18:53:41Z</time>
      </trkpt>
      <trkpt lat="28.2745770" lon="-16.5803280">
        <ele>2154.9</ele>
        <time>2020-11-11T18:53:42Z</time>
      </trkpt>
      <trkpt lat="28.2745420" lon="-16.5802870">
        <ele>2154.9</ele>
        <time>2020-11-11T18:53:43Z</time>
      </trkpt>
      <trkpt lat="28.2745420" lon="-16.5802870">
        <ele>2154.9</ele>
        <time>2020-11-11T18:53:44Z</time>
      </trkpt>
      <trkpt lat="28.2745080" lon="-16.5802420">
        <ele>2155.9</ele>
        <time>2020-11-11T18:53:45Z</time>
      </trkpt>
      <trkpt lat="28.2745080" lon="-16.5802420">
        <ele>2155.9</ele>
        <time>2020-11-11T18:53:46Z</time>
      </trkpt>
      <trkpt lat="28.2744850" lon="-16.5801950">
        <ele>2155.9</ele>
        <time>2020-11-11T18:53:47Z</time>
      </trkpt>
      <trkpt lat="28.2744850" lon="-16.5801950">
        <ele>2155.9</ele>
        <time>2020-11-11T18:53:48Z</time>
      </trkpt>
      <trkpt lat="28.2744620" lon="-16.5801480">
        <ele>2155.9</ele>
        <time>2020-11-11T18:53:49Z</time>
      </trkpt>
      <trkpt lat="28.2744620" lon="-16.5801480">
        <ele>2155.9</ele>
        <time>2020-11-11T18:53:50Z</time>
      </trkpt>
      <trkpt lat="28.2744330" lon="-16.5801080">
        <ele>2155.9</ele>
        <time>2020-11-11T18:53:51Z</time>
      </trkpt>
      <trkpt lat="28.2744330" lon="-16.5801080">
        <ele>2155.9</ele>
        <time>2020-11-11T18:53:52Z</time>
      </trkpt>
      <trkpt lat="28.2744080" lon="-16.5800630">
        <ele>2155.9</ele>
        <time>2020-11-11T18:53:53Z</time>
      </trkpt>
      <trkpt lat="28.2743970" lon="-16.5800420">
        <ele>2155.9</ele>
        <time>2020-11-11T18:53:54Z</time>
      </trkpt>
      <trkpt lat="28.2743970" lon="-16.5800420">
        <ele>2155.9</ele>
        <time>2020-11-11T18:53:55Z</time>
      </trkpt>
      <trkpt lat="28.2743800" lon="-16.5799920">
        <ele>2155.9</ele>
        <time>2020-11-11T18:53:56Z</time>
      </trkpt>
      <trkpt lat="28.2743800" lon="-16.5799920">
        <ele>2155.9</ele>
        <time>2020-11-11T18:53:57Z</time>
      </trkpt>
      <trkpt lat="28.2743520" lon="-16.5799470">
        <ele>2155.9</ele>
        <time>2020-11-11T18:53:58Z</time>
      </trkpt>
      <trkpt lat="28.2743520" lon="-16.5799470">
        <ele>2155.9</ele>
        <time>2020-11-11T18:53:59Z</time>
      </trkpt>
      <trkpt lat="28.2743270" lon="-16.5798980">
        <ele>2155.9</ele>
        <time>2020-11-11T18:54:00Z</time>
      </trkpt>
      <trkpt lat="28.2743150" lon="-16.5798730">
        <ele>2156.9</ele>
        <time>2020-11-11T18:54:01Z</time>
      </trkpt>
      <trkpt lat="28.2743150" lon="-16.5798730">
        <ele>2156.9</ele>
        <time>2020-11-11T18:54:02Z</time>
      </trkpt>
      <trkpt lat="28.2742850" lon="-16.5798300">
        <ele>2156.9</ele>
        <time>2020-11-11T18:54:03Z</time>
      </trkpt>
      <trkpt lat="28.2742850" lon="-16.5798300">
        <ele>2156.9</ele>
        <time>2020-11-11T18:54:04Z</time>
      </trkpt>
      <trkpt lat="28.2742530" lon="-16.5797900">
        <ele>2156.9</ele>
        <time>2020-11-11T18:54:05Z</time>
      </trkpt>
      <trkpt lat="28.2742530" lon="-16.5797900">
        <ele>2156.9</ele>
        <time>2020-11-11T18:54:06Z</time>
      </trkpt>
      <trkpt lat="28.2742220" lon="-16.5797480">
        <ele>2156.9</ele>
        <time>2020-11-11T18:54:07Z</time>
      </trkpt>
      <trkpt lat="28.2742220" lon="-16.5797480">
        <ele>2157.9</ele>
        <time>2020-11-11T18:54:08Z</time>
      </trkpt>
      <trkpt lat="28.2741930" lon="-16.5797030">
        <ele>2157.9</ele>
        <time>2020-11-11T18:54:09Z</time>
      </trkpt>
      <trkpt lat="28.2741780" lon="-16.5796850">
        <ele>2157.9</ele>
        <time>2020-11-11T18:54:10Z</time>
      </trkpt>
      <trkpt lat="28.2741780" lon="-16.5796850">
        <ele>2157.9</ele>
        <time>2020-11-11T18:54:11Z</time>
      </trkpt>
      <trkpt lat="28.2741480" lon="-16.5796470">
        <ele>2157.9</ele>
        <time>2020-11-11T18:54:12Z</time>
      </trkpt>
      <trkpt lat="28.2741480" lon="-16.5796470">
        <ele>2157.9</ele>
        <time>2020-11-11T18:54:13Z</time>
      </trkpt>
      <trkpt lat="28.2741120" lon="-16.5796150">
        <ele>2157.9</ele>
        <time>2020-11-11T18:54:14Z</time>
      </trkpt>
      <trkpt lat="28.2741120" lon="-16.5796150">
        <ele>2157.9</ele>
        <time>2020-11-11T18:54:15Z</time>
      </trkpt>
      <trkpt lat="28.2740750" lon="-16.5795830">
        <ele>2157.9</ele>
        <time>2020-11-11T18:54:16Z</time>
      </trkpt>
      <trkpt lat="28.2740550" lon="-16.5795670">
        <ele>2157.9</ele>
        <time>2020-11-11T18:54:17Z</time>
      </trkpt>
      <trkpt lat="28.2740550" lon="-16.5795670">
        <ele>2158.9</ele>
        <time>2020-11-11T18:54:18Z</time>
      </trkpt>
      <trkpt lat="28.2740100" lon="-16.5795400">
        <ele>2158.9</ele>
        <time>2020-11-11T18:54:19Z</time>
      </trkpt>
      <trkpt lat="28.2740100" lon="-16.5795400">
        <ele>2158.9</ele>
        <time>2020-11-11T18:54:20Z</time>
      </trkpt>
      <trkpt lat="28.2739630" lon="-16.5795200">
        <ele>2158.9</ele>
        <time>2020-11-11T18:54:21Z</time>
      </trkpt>
      <trkpt lat="28.2739630" lon="-16.5795200">
        <ele>2158.9</ele>
        <time>2020-11-11T18:54:22Z</time>
      </trkpt>
      <trkpt lat="28.2739100" lon="-16.5795000">
        <ele>2158.9</ele>
        <time>2020-11-11T18:54:23Z</time>
      </trkpt>
      <trkpt lat="28.2739100" lon="-16.5795000">
        <ele>2158.9</ele>
        <time>2020-11-11T18:54:24Z</time>
      </trkpt>
      <trkpt lat="28.2738550" lon="-16.5794850">
        <ele>2158.9</ele>
        <time>2020-11-11T18:54:25Z</time>
      </trkpt>
      <trkpt lat="28.2738550" lon="-16.5794850">
        <ele>2158.9</ele>
        <time>2020-11-11T18:54:26Z</time>
      </trkpt>
      <trkpt lat="28.2737980" lon="-16.5794770">
        <ele>2158.9</ele>
        <time>2020-11-11T18:54:27Z</time>
      </trkpt>
      <trkpt lat="28.2737680" lon="-16.5794780">
        <ele>2158.9</ele>
        <time>2020-11-11T18:54:28Z</time>
      </trkpt>
      <trkpt lat="28.2737680" lon="-16.5794780">
        <ele>2158.9</ele>
        <time>2020-11-11T18:54:29Z</time>
      </trkpt>
      <trkpt lat="28.2737030" lon="-16.5794970">
        <ele>2158.9</ele>
        <time>2020-11-11T18:54:30Z</time>
      </trkpt>
      <trkpt lat="28.2736720" lon="-16.5795000">
        <ele>2158.9</ele>
        <time>2020-11-11T18:54:31Z</time>
      </trkpt>
      <trkpt lat="28.2736720" lon="-16.5795000">
        <ele>2158.9</ele>
        <time>2020-11-11T18:54:32Z</time>
      </trkpt>
      <trkpt lat="28.2736120" lon="-16.5795070">
        <ele>2158.9</ele>
        <time>2020-11-11T18:54:33Z</time>
      </trkpt>
      <trkpt lat="28.2736120" lon="-16.5795070">
        <ele>2158.9</ele>
        <time>2020-11-11T18:54:34Z</time>
      </trkpt>
      <trkpt lat="28.2735500" lon="-16.5795220">
        <ele>2158.9</ele>
        <time>2020-11-11T18:54:35Z</time>
      </trkpt>
      <trkpt lat="28.2735500" lon="-16.5795220">
        <ele>2158.9</ele>
        <time>2020-11-11T18:54:36Z</time>
      </trkpt>
      <trkpt lat="28.2734870" lon="-16.5795350">
        <ele>2158.9</ele>
        <time>2020-11-11T18:54:37Z</time>
      </trkpt>
      <trkpt lat="28.2734870" lon="-16.5795350">
        <ele>2158.9</ele>
        <time>2020-11-11T18:54:38Z</time>
      </trkpt>
      <trkpt lat="28.2734230" lon="-16.5795470">
        <ele>2158.9</ele>
        <time>2020-11-11T18:54:39Z</time>
      </trkpt>
      <trkpt lat="28.2734230" lon="-16.5795470">
        <ele>2159.9</ele>
        <time>2020-11-11T18:54:40Z</time>
      </trkpt>
      <trkpt lat="28.2733630" lon="-16.5795570">
        <ele>2159.9</ele>
        <time>2020-11-11T18:54:41Z</time>
      </trkpt>
      <trkpt lat="28.2733630" lon="-16.5795570">
        <ele>2159.9</ele>
        <time>2020-11-11T18:54:42Z</time>
      </trkpt>
      <trkpt lat="28.2733070" lon="-16.5795650">
        <ele>2159.9</ele>
        <time>2020-11-11T18:54:43Z</time>
      </trkpt>
      <trkpt lat="28.2733070" lon="-16.5795650">
        <ele>2159.9</ele>
        <time>2020-11-11T18:54:44Z</time>
      </trkpt>
      <trkpt lat="28.2732520" lon="-16.5795770">
        <ele>2159.9</ele>
        <time>2020-11-11T18:54:45Z</time>
      </trkpt>
      <trkpt lat="28.2732520" lon="-16.5795770">
        <ele>2159.9</ele>
        <time>2020-11-11T18:54:46Z</time>
      </trkpt>
      <trkpt lat="28.2731950" lon="-16.5795880">
        <ele>2159.9</ele>
        <time>2020-11-11T18:54:47Z</time>
      </trkpt>
      <trkpt lat="28.2731950" lon="-16.5795880">
        <ele>2160.9</ele>
        <time>2020-11-11T18:54:48Z</time>
      </trkpt>
      <trkpt lat="28.2731420" lon="-16.5795930">
        <ele>2160.9</ele>
        <time>2020-11-11T18:54:49Z</time>
      </trkpt>
      <trkpt lat="28.2731420" lon="-16.5795930">
        <ele>2160.9</ele>
        <time>2020-11-11T18:54:50Z</time>
      </trkpt>
      <trkpt lat="28.2730900" lon="-16.5796070">
        <ele>2160.9</ele>
        <time>2020-11-11T18:54:51Z</time>
      </trkpt>
      <trkpt lat="28.2730900" lon="-16.5796070">
        <ele>2160.9</ele>
        <time>2020-11-11T18:54:52Z</time>
      </trkpt>
      <trkpt lat="28.2730430" lon="-16.5796170">
        <ele>2160.9</ele>
        <time>2020-11-11T18:54:53Z</time>
      </trkpt>
      <trkpt lat="28.2730430" lon="-16.5796170">
        <ele>2161.9</ele>
        <time>2020-11-11T18:54:54Z</time>
      </trkpt>
      <trkpt lat="28.2730000" lon="-16.5796250">
        <ele>2161.9</ele>
        <time>2020-11-11T18:54:55Z</time>
      </trkpt>
      <trkpt lat="28.2730000" lon="-16.5796250">
        <ele>2161.9</ele>
        <time>2020-11-11T18:54:56Z</time>
      </trkpt>
      <trkpt lat="28.2729580" lon="-16.5796320">
        <ele>2161.9</ele>
        <time>2020-11-11T18:54:57Z</time>
      </trkpt>
      <trkpt lat="28.2729380" lon="-16.5796330">
        <ele>2162.9</ele>
        <time>2020-11-11T18:54:58Z</time>
      </trkpt>
      <trkpt lat="28.2729380" lon="-16.5796330">
        <ele>2162.9</ele>
        <time>2020-11-11T18:54:59Z</time>
      </trkpt>
      <trkpt lat="28.2728980" lon="-16.5796350">
        <ele>2162.9</ele>
        <time>2020-11-11T18:55:00Z</time>
      </trkpt>
      <trkpt lat="28.2728980" lon="-16.5796350">
        <ele>2162.9</ele>
        <time>2020-11-11T18:55:01Z</time>
      </trkpt>
      <trkpt lat="28.2728600" lon="-16.5796380">
        <ele>2162.9</ele>
        <time>2020-11-11T18:55:02Z</time>
      </trkpt>
      <trkpt lat="28.2728600" lon="-16.5796380">
        <ele>2162.9</ele>
        <time>2020-11-11T18:55:03Z</time>
      </trkpt>
      <trkpt lat="28.2728180" lon="-16.5796470">
        <ele>2162.9</ele>
        <time>2020-11-11T18:55:04Z</time>
      </trkpt>
      <trkpt lat="28.2727980" lon="-16.5796500">
        <ele>2162.9</ele>
        <time>2020-11-11T18:55:05Z</time>
      </trkpt>
      <trkpt lat="28.2727980" lon="-16.5796500">
        <ele>2162.9</ele>
        <time>2020-11-11T18:55:06Z</time>
      </trkpt>
      <trkpt lat="28.2727600" lon="-16.5796520">
        <ele>2162.9</ele>
        <time>2020-11-11T18:55:07Z</time>
      </trkpt>
      <trkpt lat="28.2727600" lon="-16.5796520">
        <ele>2163.9</ele>
        <time>2020-11-11T18:55:08Z</time>
      </trkpt>
      <trkpt lat="28.2727200" lon="-16.5796500">
        <ele>2163.9</ele>
        <time>2020-11-11T18:55:09Z</time>
      </trkpt>
      <trkpt lat="28.2727200" lon="-16.5796500">
        <ele>2163.9</ele>
        <time>2020-11-11T18:55:10Z</time>
      </trkpt>
      <trkpt lat="28.2726830" lon="-16.5796570">
        <ele>2163.9</ele>
        <time>2020-11-11T18:55:11Z</time>
      </trkpt>
      <trkpt lat="28.2726650" lon="-16.5796600">
        <ele>2163.9</ele>
        <time>2020-11-11T18:55:12Z</time>
      </trkpt>
      <trkpt lat="28.2726470" lon="-16.5796650">
        <ele>2163.9</ele>
        <time>2020-11-11T18:55:13Z</time>
      </trkpt>
      <trkpt lat="28.2726470" lon="-16.5796650">
        <ele>2164.9</ele>
        <time>2020-11-11T18:55:14Z</time>
      </trkpt>
      <trkpt lat="28.2726100" lon="-16.5796700">
        <ele>2164.9</ele>
        <time>2020-11-11T18:55:15Z</time>
      </trkpt>
      <trkpt lat="28.2725920" lon="-16.5796750">
        <ele>2164.9</ele>
        <time>2020-11-11T18:55:16Z</time>
      </trkpt>
      <trkpt lat="28.2725920" lon="-16.5796750">
        <ele>2164.9</ele>
        <time>2020-11-11T18:55:17Z</time>
      </trkpt>
      <trkpt lat="28.2725580" lon="-16.5796870">
        <ele>2165.9</ele>
        <time>2020-11-11T18:55:18Z</time>
      </trkpt>
      <trkpt lat="28.2725400" lon="-16.5796900">
        <ele>2165.9</ele>
        <time>2020-11-11T18:55:19Z</time>
      </trkpt>
      <trkpt lat="28.2725400" lon="-16.5796900">
        <ele>2165.9</ele>
        <time>2020-11-11T18:55:20Z</time>
      </trkpt>
      <trkpt lat="28.2725000" lon="-16.5796950">
        <ele>2166.9</ele>
        <time>2020-11-11T18:55:21Z</time>
      </trkpt>
      <trkpt lat="28.2725000" lon="-16.5796950">
        <ele>2166.9</ele>
        <time>2020-11-11T18:55:22Z</time>
      </trkpt>
      <trkpt lat="28.2724600" lon="-16.5797030">
        <ele>2166.9</ele>
        <time>2020-11-11T18:55:23Z</time>
      </trkpt>
      <trkpt lat="28.2724600" lon="-16.5797030">
        <ele>2166.9</ele>
        <time>2020-11-11T18:55:24Z</time>
      </trkpt>
      <trkpt lat="28.2724130" lon="-16.5797180">
        <ele>2166.9</ele>
        <time>2020-11-11T18:55:25Z</time>
      </trkpt>
      <trkpt lat="28.2724130" lon="-16.5797180">
        <ele>2166.9</ele>
        <time>2020-11-11T18:55:26Z</time>
      </trkpt>
      <trkpt lat="28.2723720" lon="-16.5797230">
        <ele>2166.9</ele>
        <time>2020-11-11T18:55:27Z</time>
      </trkpt>
      <trkpt lat="28.2723720" lon="-16.5797230">
        <ele>2166.9</ele>
        <time>2020-11-11T18:55:28Z</time>
      </trkpt>
      <trkpt lat="28.2723330" lon="-16.5797280">
        <ele>2166.9</ele>
        <time>2020-11-11T18:55:29Z</time>
      </trkpt>
      <trkpt lat="28.2723330" lon="-16.5797280">
        <ele>2166.9</ele>
        <time>2020-11-11T18:55:30Z</time>
      </trkpt>
      <trkpt lat="28.2722920" lon="-16.5797450">
        <ele>2166.9</ele>
        <time>2020-11-11T18:55:31Z</time>
      </trkpt>
      <trkpt lat="28.2722920" lon="-16.5797450">
        <ele>2166.9</ele>
        <time>2020-11-11T18:55:32Z</time>
      </trkpt>
      <trkpt lat="28.2722520" lon="-16.5797520">
        <ele>2166.9</ele>
        <time>2020-11-11T18:55:33Z</time>
      </trkpt>
      <trkpt lat="28.2722320" lon="-16.5797570">
        <ele>2166.9</ele>
        <time>2020-11-11T18:55:34Z</time>
      </trkpt>
      <trkpt lat="28.2722320" lon="-16.5797570">
        <ele>2166.9</ele>
        <time>2020-11-11T18:55:35Z</time>
      </trkpt>
      <trkpt lat="28.2721920" lon="-16.5797670">
        <ele>2166.9</ele>
        <time>2020-11-11T18:55:36Z</time>
      </trkpt>
      <trkpt lat="28.2721920" lon="-16.5797670">
        <ele>2167.9</ele>
        <time>2020-11-11T18:55:37Z</time>
      </trkpt>
      <trkpt lat="28.2721530" lon="-16.5797730">
        <ele>2167.9</ele>
        <time>2020-11-11T18:55:38Z</time>
      </trkpt>
      <trkpt lat="28.2721530" lon="-16.5797730">
        <ele>2167.9</ele>
        <time>2020-11-11T18:55:39Z</time>
      </trkpt>
      <trkpt lat="28.2721130" lon="-16.5797730">
        <ele>2167.9</ele>
        <time>2020-11-11T18:55:40Z</time>
      </trkpt>
      <trkpt lat="28.2721130" lon="-16.5797730">
        <ele>2167.9</ele>
        <time>2020-11-11T18:55:41Z</time>
      </trkpt>
      <trkpt lat="28.2720770" lon="-16.5797850">
        <ele>2167.9</ele>
        <time>2020-11-11T18:55:42Z</time>
      </trkpt>
      <trkpt lat="28.2720570" lon="-16.5797920">
        <ele>2168.9</ele>
        <time>2020-11-11T18:55:43Z</time>
      </trkpt>
      <trkpt lat="28.2720570" lon="-16.5797920">
        <ele>2168.9</ele>
        <time>2020-11-11T18:55:44Z</time>
      </trkpt>
      <trkpt lat="28.2720200" lon="-16.5797980">
        <ele>2168.9</ele>
        <time>2020-11-11T18:55:45Z</time>
      </trkpt>
      <trkpt lat="28.2720020" lon="-16.5798020">
        <ele>2168.9</ele>
        <time>2020-11-11T18:55:46Z</time>
      </trkpt>
      <trkpt lat="28.2720020" lon="-16.5798020">
        <ele>2168.9</ele>
        <time>2020-11-11T18:55:47Z</time>
      </trkpt>
      <trkpt lat="28.2719600" lon="-16.5798050">
        <ele>2168.9</ele>
        <time>2020-11-11T18:55:48Z</time>
      </trkpt>
      <trkpt lat="28.2719600" lon="-16.5798050">
        <ele>2168.9</ele>
        <time>2020-11-11T18:55:49Z</time>
      </trkpt>
      <trkpt lat="28.2719220" lon="-16.5798080">
        <ele>2168.9</ele>
        <time>2020-11-11T18:55:50Z</time>
      </trkpt>
      <trkpt lat="28.2719220" lon="-16.5798080">
        <ele>2169.9</ele>
        <time>2020-11-11T18:55:51Z</time>
      </trkpt>
      <trkpt lat="28.2718850" lon="-16.5798220">
        <ele>2169.9</ele>
        <time>2020-11-11T18:55:52Z</time>
      </trkpt>
      <trkpt lat="28.2718670" lon="-16.5798280">
        <ele>2169.9</ele>
        <time>2020-11-11T18:55:53Z</time>
      </trkpt>
      <trkpt lat="28.2718670" lon="-16.5798280">
        <ele>2169.9</ele>
        <time>2020-11-11T18:55:54Z</time>
      </trkpt>
      <trkpt lat="28.2718250" lon="-16.5798400">
        <ele>2170.9</ele>
        <time>2020-11-11T18:55:55Z</time>
      </trkpt>
      <trkpt lat="28.2718250" lon="-16.5798400">
        <ele>2170.9</ele>
        <time>2020-11-11T18:55:56Z</time>
      </trkpt>
      <trkpt lat="28.2717820" lon="-16.5798480">
        <ele>2170.9</ele>
        <time>2020-11-11T18:55:57Z</time>
      </trkpt>
      <trkpt lat="28.2717820" lon="-16.5798480">
        <ele>2170.9</ele>
        <time>2020-11-11T18:55:58Z</time>
      </trkpt>
      <trkpt lat="28.2717400" lon="-16.5798500">
        <ele>2170.9</ele>
        <time>2020-11-11T18:55:59Z</time>
      </trkpt>
      <trkpt lat="28.2717400" lon="-16.5798500">
        <ele>2170.9</ele>
        <time>2020-11-11T18:56:00Z</time>
      </trkpt>
      <trkpt lat="28.2716980" lon="-16.5798580">
        <ele>2170.9</ele>
        <time>2020-11-11T18:56:01Z</time>
      </trkpt>
      <trkpt lat="28.2716980" lon="-16.5798580">
        <ele>2170.9</ele>
        <time>2020-11-11T18:56:02Z</time>
      </trkpt>
      <trkpt lat="28.2716580" lon="-16.5798700">
        <ele>2170.9</ele>
        <time>2020-11-11T18:56:03Z</time>
      </trkpt>
      <trkpt lat="28.2716400" lon="-16.5798750">
        <ele>2170.9</ele>
        <time>2020-11-11T18:56:04Z</time>
      </trkpt>
      <trkpt lat="28.2716400" lon="-16.5798750">
        <ele>2170.9</ele>
        <time>2020-11-11T18:56:05Z</time>
      </trkpt>
      <trkpt lat="28.2715980" lon="-16.5798850">
        <ele>2171.9</ele>
        <time>2020-11-11T18:56:06Z</time>
      </trkpt>
      <trkpt lat="28.2715980" lon="-16.5798850">
        <ele>2171.9</ele>
        <time>2020-11-11T18:56:07Z</time>
      </trkpt>
      <trkpt lat="28.2715550" lon="-16.5798930">
        <ele>2171.9</ele>
        <time>2020-11-11T18:56:08Z</time>
      </trkpt>
      <trkpt lat="28.2715550" lon="-16.5798930">
        <ele>2171.9</ele>
        <time>2020-11-11T18:56:09Z</time>
      </trkpt>
      <trkpt lat="28.2715070" lon="-16.5798950">
        <ele>2171.9</ele>
        <time>2020-11-11T18:56:10Z</time>
      </trkpt>
      <trkpt lat="28.2715070" lon="-16.5798950">
        <ele>2171.9</ele>
        <time>2020-11-11T18:56:11Z</time>
      </trkpt>
      <trkpt lat="28.2714620" lon="-16.5799050">
        <ele>2171.9</ele>
        <time>2020-11-11T18:56:12Z</time>
      </trkpt>
      <trkpt lat="28.2714400" lon="-16.5799120">
        <ele>2171.9</ele>
        <time>2020-11-11T18:56:13Z</time>
      </trkpt>
      <trkpt lat="28.2714400" lon="-16.5799120">
        <ele>2171.9</ele>
        <time>2020-11-11T18:56:14Z</time>
      </trkpt>
      <trkpt lat="28.2713980" lon="-16.5799120">
        <ele>2171.9</ele>
        <time>2020-11-11T18:56:15Z</time>
      </trkpt>
      <trkpt lat="28.2713980" lon="-16.5799120">
        <ele>2172.9</ele>
        <time>2020-11-11T18:56:16Z</time>
      </trkpt>
      <trkpt lat="28.2713620" lon="-16.5799280">
        <ele>2172.9</ele>
        <time>2020-11-11T18:56:17Z</time>
      </trkpt>
      <trkpt lat="28.2713620" lon="-16.5799280">
        <ele>2172.9</ele>
        <time>2020-11-11T18:56:18Z</time>
      </trkpt>
      <trkpt lat="28.2713200" lon="-16.5799320">
        <ele>2172.9</ele>
        <time>2020-11-11T18:56:19Z</time>
      </trkpt>
      <trkpt lat="28.2713200" lon="-16.5799320">
        <ele>2172.9</ele>
        <time>2020-11-11T18:56:20Z</time>
      </trkpt>
      <trkpt lat="28.2712800" lon="-16.5799520">
        <ele>2173.9</ele>
        <time>2020-11-11T18:56:21Z</time>
      </trkpt>
      <trkpt lat="28.2712800" lon="-16.5799520">
        <ele>2173.9</ele>
        <time>2020-11-11T18:56:22Z</time>
      </trkpt>
      <trkpt lat="28.2712400" lon="-16.5799670">
        <ele>2173.9</ele>
        <time>2020-11-11T18:56:23Z</time>
      </trkpt>
      <trkpt lat="28.2712400" lon="-16.5799670">
        <ele>2173.9</ele>
        <time>2020-11-11T18:56:24Z</time>
      </trkpt>
      <trkpt lat="28.2712030" lon="-16.5799820">
        <ele>2173.9</ele>
        <time>2020-11-11T18:56:25Z</time>
      </trkpt>
      <trkpt lat="28.2712030" lon="-16.5799820">
        <ele>2173.9</ele>
        <time>2020-11-11T18:56:26Z</time>
      </trkpt>
      <trkpt lat="28.2711680" lon="-16.5799970">
        <ele>2173.9</ele>
        <time>2020-11-11T18:56:27Z</time>
      </trkpt>
      <trkpt lat="28.2711680" lon="-16.5799970">
        <ele>2173.9</ele>
        <time>2020-11-11T18:56:28Z</time>
      </trkpt>
      <trkpt lat="28.2711350" lon="-16.5800130">
        <ele>2174.9</ele>
        <time>2020-11-11T18:56:29Z</time>
      </trkpt>
      <trkpt lat="28.2711350" lon="-16.5800130">
        <ele>2174.9</ele>
        <time>2020-11-11T18:56:30Z</time>
      </trkpt>
      <trkpt lat="28.2710980" lon="-16.5800350">
        <ele>2174.9</ele>
        <time>2020-11-11T18:56:31Z</time>
      </trkpt>
      <trkpt lat="28.2710980" lon="-16.5800350">
        <ele>2174.9</ele>
        <time>2020-11-11T18:56:32Z</time>
      </trkpt>
      <trkpt lat="28.2710650" lon="-16.5800580">
        <ele>2174.9</ele>
        <time>2020-11-11T18:56:33Z</time>
      </trkpt>
      <trkpt lat="28.2710500" lon="-16.5800720">
        <ele>2174.9</ele>
        <time>2020-11-11T18:56:34Z</time>
      </trkpt>
      <trkpt lat="28.2710500" lon="-16.5800720">
        <ele>2174.9</ele>
        <time>2020-11-11T18:56:35Z</time>
      </trkpt>
      <trkpt lat="28.2710180" lon="-16.5800980">
        <ele>2174.9</ele>
        <time>2020-11-11T18:56:36Z</time>
      </trkpt>
      <trkpt lat="28.2710180" lon="-16.5800980">
        <ele>2174.9</ele>
        <time>2020-11-11T18:56:37Z</time>
      </trkpt>
      <trkpt lat="28.2709870" lon="-16.5801270">
        <ele>2174.9</ele>
        <time>2020-11-11T18:56:38Z</time>
      </trkpt>
      <trkpt lat="28.2709870" lon="-16.5801270">
        <ele>2174.9</ele>
        <time>2020-11-11T18:56:39Z</time>
      </trkpt>
      <trkpt lat="28.2709530" lon="-16.5801530">
        <ele>2174.9</ele>
        <time>2020-11-11T18:56:40Z</time>
      </trkpt>
      <trkpt lat="28.2709530" lon="-16.5801530">
        <ele>2175.9</ele>
        <time>2020-11-11T18:56:41Z</time>
      </trkpt>
      <trkpt lat="28.2709200" lon="-16.5801770">
        <ele>2175.9</ele>
        <time>2020-11-11T18:56:42Z</time>
      </trkpt>
      <trkpt lat="28.2709200" lon="-16.5801770">
        <ele>2175.9</ele>
        <time>2020-11-11T18:56:43Z</time>
      </trkpt>
      <trkpt lat="28.2708880" lon="-16.5802030">
        <ele>2175.9</ele>
        <time>2020-11-11T18:56:44Z</time>
      </trkpt>
      <trkpt lat="28.2708730" lon="-16.5802170">
        <ele>2175.9</ele>
        <time>2020-11-11T18:56:45Z</time>
      </trkpt>
      <trkpt lat="28.2708730" lon="-16.5802170">
        <ele>2175.9</ele>
        <time>2020-11-11T18:56:46Z</time>
      </trkpt>
      <trkpt lat="28.2708420" lon="-16.5802450">
        <ele>2175.9</ele>
        <time>2020-11-11T18:56:47Z</time>
      </trkpt>
      <trkpt lat="28.2708420" lon="-16.5802450">
        <ele>2175.9</ele>
        <time>2020-11-11T18:56:48Z</time>
      </trkpt>
      <trkpt lat="28.2708130" lon="-16.5802750">
        <ele>2176.9</ele>
        <time>2020-11-11T18:56:49Z</time>
      </trkpt>
      <trkpt lat="28.2708130" lon="-16.5802750">
        <ele>2176.9</ele>
        <time>2020-11-11T18:56:50Z</time>
      </trkpt>
      <trkpt lat="28.2707830" lon="-16.5803030">
        <ele>2176.9</ele>
        <time>2020-11-11T18:56:51Z</time>
      </trkpt>
      <trkpt lat="28.2707830" lon="-16.5803030">
        <ele>2176.9</ele>
        <time>2020-11-11T18:56:52Z</time>
      </trkpt>
      <trkpt lat="28.2707530" lon="-16.5803350">
        <ele>2177.9</ele>
        <time>2020-11-11T18:56:53Z</time>
      </trkpt>
      <trkpt lat="28.2707530" lon="-16.5803350">
        <ele>2177.9</ele>
        <time>2020-11-11T18:56:54Z</time>
      </trkpt>
      <trkpt lat="28.2707180" lon="-16.5803620">
        <ele>2177.9</ele>
        <time>2020-11-11T18:56:55Z</time>
      </trkpt>
      <trkpt lat="28.2707180" lon="-16.5803620">
        <ele>2177.9</ele>
        <time>2020-11-11T18:56:56Z</time>
      </trkpt>
      <trkpt lat="28.2706850" lon="-16.5803870">
        <ele>2177.9</ele>
        <time>2020-11-11T18:56:57Z</time>
      </trkpt>
      <trkpt lat="28.2706850" lon="-16.5803870">
        <ele>2177.9</ele>
        <time>2020-11-11T18:56:58Z</time>
      </trkpt>
      <trkpt lat="28.2706550" lon="-16.5804170">
        <ele>2177.9</ele>
        <time>2020-11-11T18:56:59Z</time>
      </trkpt>
      <trkpt lat="28.2706550" lon="-16.5804170">
        <ele>2177.9</ele>
        <time>2020-11-11T18:57:00Z</time>
      </trkpt>
      <trkpt lat="28.2706200" lon="-16.5804380">
        <ele>2177.9</ele>
        <time>2020-11-11T18:57:01Z</time>
      </trkpt>
      <trkpt lat="28.2706200" lon="-16.5804380">
        <ele>2177.9</ele>
        <time>2020-11-11T18:57:02Z</time>
      </trkpt>
      <trkpt lat="28.2705920" lon="-16.5804680">
        <ele>2177.9</ele>
        <time>2020-11-11T18:57:03Z</time>
      </trkpt>
      <trkpt lat="28.2705920" lon="-16.5804680">
        <ele>2177.9</ele>
        <time>2020-11-11T18:57:04Z</time>
      </trkpt>
      <trkpt lat="28.2705680" lon="-16.5805030">
        <ele>2177.9</ele>
        <time>2020-11-11T18:57:05Z</time>
      </trkpt>
      <trkpt lat="28.2705680" lon="-16.5805030">
        <ele>2177.9</ele>
        <time>2020-11-11T18:57:06Z</time>
      </trkpt>
      <trkpt lat="28.2705420" lon="-16.5805380">
        <ele>2178.9</ele>
        <time>2020-11-11T18:57:07Z</time>
      </trkpt>
      <trkpt lat="28.2705420" lon="-16.5805380">
        <ele>2178.9</ele>
        <time>2020-11-11T18:57:08Z</time>
      </trkpt>
      <trkpt lat="28.2705180" lon="-16.5805730">
        <ele>2178.9</ele>
        <time>2020-11-11T18:57:09Z</time>
      </trkpt>
      <trkpt lat="28.2705180" lon="-16.5805730">
        <ele>2178.9</ele>
        <time>2020-11-11T18:57:10Z</time>
      </trkpt>
      <trkpt lat="28.2704970" lon="-16.5806080">
        <ele>2179.9</ele>
        <time>2020-11-11T18:57:11Z</time>
      </trkpt>
      <trkpt lat="28.2704970" lon="-16.5806080">
        <ele>2179.9</ele>
        <time>2020-11-11T18:57:12Z</time>
      </trkpt>
      <trkpt lat="28.2704780" lon="-16.5806470">
        <ele>2179.9</ele>
        <time>2020-11-11T18:57:13Z</time>
      </trkpt>
      <trkpt lat="28.2704780" lon="-16.5806470">
        <ele>2179.9</ele>
        <time>2020-11-11T18:57:14Z</time>
      </trkpt>
      <trkpt lat="28.2704570" lon="-16.5806870">
        <ele>2179.9</ele>
        <time>2020-11-11T18:57:15Z</time>
      </trkpt>
      <trkpt lat="28.2704570" lon="-16.5806870">
        <ele>2179.9</ele>
        <time>2020-11-11T18:57:16Z</time>
      </trkpt>
      <trkpt lat="28.2704400" lon="-16.5807270">
        <ele>2180.9</ele>
        <time>2020-11-11T18:57:17Z</time>
      </trkpt>
      <trkpt lat="28.2704400" lon="-16.5807270">
        <ele>2180.9</ele>
        <time>2020-11-11T18:57:18Z</time>
      </trkpt>
      <trkpt lat="28.2704200" lon="-16.5807680">
        <ele>2180.9</ele>
        <time>2020-11-11T18:57:19Z</time>
      </trkpt>
      <trkpt lat="28.2704200" lon="-16.5807680">
        <ele>2180.9</ele>
        <time>2020-11-11T18:57:20Z</time>
      </trkpt>
      <trkpt lat="28.2704020" lon="-16.5808100">
        <ele>2180.9</ele>
        <time>2020-11-11T18:57:21Z</time>
      </trkpt>
      <trkpt lat="28.2704020" lon="-16.5808100">
        <ele>2181.9</ele>
        <time>2020-11-11T18:57:22Z</time>
      </trkpt>
      <trkpt lat="28.2703830" lon="-16.5808500">
        <ele>2181.9</ele>
        <time>2020-11-11T18:57:23Z</time>
      </trkpt>
      <trkpt lat="28.2703830" lon="-16.5808500">
        <ele>2181.9</ele>
        <time>2020-11-11T18:57:24Z</time>
      </trkpt>
      <trkpt lat="28.2703630" lon="-16.5808920">
        <ele>2181.9</ele>
        <time>2020-11-11T18:57:25Z</time>
      </trkpt>
      <trkpt lat="28.2703630" lon="-16.5808920">
        <ele>2181.9</ele>
        <time>2020-11-11T18:57:26Z</time>
      </trkpt>
      <trkpt lat="28.2703430" lon="-16.5809350">
        <ele>2181.9</ele>
        <time>2020-11-11T18:57:27Z</time>
      </trkpt>
      <trkpt lat="28.2703430" lon="-16.5809350">
        <ele>2181.9</ele>
        <time>2020-11-11T18:57:28Z</time>
      </trkpt>
      <trkpt lat="28.2703250" lon="-16.5809780">
        <ele>2181.9</ele>
        <time>2020-11-11T18:57:29Z</time>
      </trkpt>
      <trkpt lat="28.2703250" lon="-16.5809780">
        <ele>2182.9</ele>
        <time>2020-11-11T18:57:30Z</time>
      </trkpt>
      <trkpt lat="28.2703080" lon="-16.5810170">
        <ele>2182.9</ele>
        <time>2020-11-11T18:57:31Z</time>
      </trkpt>
      <trkpt lat="28.2703080" lon="-16.5810170">
        <ele>2182.9</ele>
        <time>2020-11-11T18:57:32Z</time>
      </trkpt>
      <trkpt lat="28.2702920" lon="-16.5810580">
        <ele>2182.9</ele>
        <time>2020-11-11T18:57:33Z</time>
      </trkpt>
      <trkpt lat="28.2702920" lon="-16.5810580">
        <ele>2182.9</ele>
        <time>2020-11-11T18:57:34Z</time>
      </trkpt>
      <trkpt lat="28.2702720" lon="-16.5810980">
        <ele>2182.9</ele>
        <time>2020-11-11T18:57:35Z</time>
      </trkpt>
      <trkpt lat="28.2702720" lon="-16.5810980">
        <ele>2183.9</ele>
        <time>2020-11-11T18:57:36Z</time>
      </trkpt>
      <trkpt lat="28.2702530" lon="-16.5811380">
        <ele>2183.9</ele>
        <time>2020-11-11T18:57:37Z</time>
      </trkpt>
      <trkpt lat="28.2702530" lon="-16.5811380">
        <ele>2183.9</ele>
        <time>2020-11-11T18:57:38Z</time>
      </trkpt>
      <trkpt lat="28.2702430" lon="-16.5811820">
        <ele>2183.9</ele>
        <time>2020-11-11T18:57:39Z</time>
      </trkpt>
      <trkpt lat="28.2702430" lon="-16.5811820">
        <ele>2183.9</ele>
        <time>2020-11-11T18:57:40Z</time>
      </trkpt>
      <trkpt lat="28.2702280" lon="-16.5812230">
        <ele>2183.9</ele>
        <time>2020-11-11T18:57:41Z</time>
      </trkpt>
      <trkpt lat="28.2702280" lon="-16.5812230">
        <ele>2184.9</ele>
        <time>2020-11-11T18:57:42Z</time>
      </trkpt>
      <trkpt lat="28.2702070" lon="-16.5812630">
        <ele>2184.9</ele>
        <time>2020-11-11T18:57:43Z</time>
      </trkpt>
      <trkpt lat="28.2702070" lon="-16.5812630">
        <ele>2184.9</ele>
        <time>2020-11-11T18:57:44Z</time>
      </trkpt>
      <trkpt lat="28.2701850" lon="-16.5813050">
        <ele>2184.9</ele>
        <time>2020-11-11T18:57:45Z</time>
      </trkpt>
      <trkpt lat="28.2701850" lon="-16.5813050">
        <ele>2184.9</ele>
        <time>2020-11-11T18:57:46Z</time>
      </trkpt>
      <trkpt lat="28.2701670" lon="-16.5813450">
        <ele>2184.9</ele>
        <time>2020-11-11T18:57:47Z</time>
      </trkpt>
      <trkpt lat="28.2701670" lon="-16.5813450">
        <ele>2184.9</ele>
        <time>2020-11-11T18:57:48Z</time>
      </trkpt>
      <trkpt lat="28.2701500" lon="-16.5813880">
        <ele>2184.9</ele>
        <time>2020-11-11T18:57:49Z</time>
      </trkpt>
      <trkpt lat="28.2701500" lon="-16.5813880">
        <ele>2184.9</ele>
        <time>2020-11-11T18:57:50Z</time>
      </trkpt>
      <trkpt lat="28.2701300" lon="-16.5814280">
        <ele>2184.9</ele>
        <time>2020-11-11T18:57:51Z</time>
      </trkpt>
      <trkpt lat="28.2701300" lon="-16.5814280">
        <ele>2184.9</ele>
        <time>2020-11-11T18:57:52Z</time>
      </trkpt>
      <trkpt lat="28.2701150" lon="-16.5814700">
        <ele>2184.9</ele>
        <time>2020-11-11T18:57:53Z</time>
      </trkpt>
      <trkpt lat="28.2701150" lon="-16.5814700">
        <ele>2186.9</ele>
        <time>2020-11-11T18:57:54Z</time>
      </trkpt>
      <trkpt lat="28.2700870" lon="-16.5815070">
        <ele>2186.9</ele>
        <time>2020-11-11T18:57:55Z</time>
      </trkpt>
      <trkpt lat="28.2700750" lon="-16.5815230">
        <ele>2186.9</ele>
        <time>2020-11-11T18:57:56Z</time>
      </trkpt>
      <trkpt lat="28.2700750" lon="-16.5815230">
        <ele>2186.9</ele>
        <time>2020-11-11T18:57:57Z</time>
      </trkpt>
      <trkpt lat="28.2700530" lon="-16.5815650">
        <ele>2186.9</ele>
        <time>2020-11-11T18:57:58Z</time>
      </trkpt>
      <trkpt lat="28.2700530" lon="-16.5815650">
        <ele>2186.9</ele>
        <time>2020-11-11T18:57:59Z</time>
      </trkpt>
      <trkpt lat="28.2700280" lon="-16.5816000">
        <ele>2186.9</ele>
        <time>2020-11-11T18:58:00Z</time>
      </trkpt>
      <trkpt lat="28.2700130" lon="-16.5816150">
        <ele>2186.9</ele>
        <time>2020-11-11T18:58:01Z</time>
      </trkpt>
      <trkpt lat="28.2700130" lon="-16.5816150">
        <ele>2186.9</ele>
        <time>2020-11-11T18:58:02Z</time>
      </trkpt>
      <trkpt lat="28.2699850" lon="-16.5816500">
        <ele>2186.9</ele>
        <time>2020-11-11T18:58:03Z</time>
      </trkpt>
      <trkpt lat="28.2699850" lon="-16.5816500">
        <ele>2186.9</ele>
        <time>2020-11-11T18:58:04Z</time>
      </trkpt>
      <trkpt lat="28.2699520" lon="-16.5816750">
        <ele>2187.9</ele>
        <time>2020-11-11T18:58:05Z</time>
      </trkpt>
      <trkpt lat="28.2699520" lon="-16.5816750">
        <ele>2187.9</ele>
        <time>2020-11-11T18:58:06Z</time>
      </trkpt>
      <trkpt lat="28.2699130" lon="-16.5816930">
        <ele>2187.9</ele>
        <time>2020-11-11T18:58:07Z</time>
      </trkpt>
      <trkpt lat="28.2699130" lon="-16.5816930">
        <ele>2187.9</ele>
        <time>2020-11-11T18:58:08Z</time>
      </trkpt>
      <trkpt lat="28.2698830" lon="-16.5817230">
        <ele>2187.9</ele>
        <time>2020-11-11T18:58:09Z</time>
      </trkpt>
      <trkpt lat="28.2698830" lon="-16.5817230">
        <ele>2187.9</ele>
        <time>2020-11-11T18:58:10Z</time>
      </trkpt>
      <trkpt lat="28.2698470" lon="-16.5817470">
        <ele>2187.9</ele>
        <time>2020-11-11T18:58:11Z</time>
      </trkpt>
      <trkpt lat="28.2698280" lon="-16.5817550">
        <ele>2187.9</ele>
        <time>2020-11-11T18:58:12Z</time>
      </trkpt>
      <trkpt lat="28.2698280" lon="-16.5817550">
        <ele>2187.9</ele>
        <time>2020-11-11T18:58:13Z</time>
      </trkpt>
      <trkpt lat="28.2697920" lon="-16.5817730">
        <ele>2187.9</ele>
        <time>2020-11-11T18:58:14Z</time>
      </trkpt>
      <trkpt lat="28.2697920" lon="-16.5817730">
        <ele>2187.9</ele>
        <time>2020-11-11T18:58:15Z</time>
      </trkpt>
      <trkpt lat="28.2697520" lon="-16.5817870">
        <ele>2187.9</ele>
        <time>2020-11-11T18:58:16Z</time>
      </trkpt>
      <trkpt lat="28.2697330" lon="-16.5817970">
        <ele>2187.9</ele>
        <time>2020-11-11T18:58:17Z</time>
      </trkpt>
      <trkpt lat="28.2697330" lon="-16.5817970">
        <ele>2187.9</ele>
        <time>2020-11-11T18:58:18Z</time>
      </trkpt>
      <trkpt lat="28.2696920" lon="-16.5818120">
        <ele>2188.9</ele>
        <time>2020-11-11T18:58:19Z</time>
      </trkpt>
      <trkpt lat="28.2696920" lon="-16.5818120">
        <ele>2188.9</ele>
        <time>2020-11-11T18:58:20Z</time>
      </trkpt>
      <trkpt lat="28.2696550" lon="-16.5818280">
        <ele>2188.9</ele>
        <time>2020-11-11T18:58:21Z</time>
      </trkpt>
      <trkpt lat="28.2696370" lon="-16.5818380">
        <ele>2188.9</ele>
        <time>2020-11-11T18:58:22Z</time>
      </trkpt>
      <trkpt lat="28.2696370" lon="-16.5818380">
        <ele>2188.9</ele>
        <time>2020-11-11T18:58:23Z</time>
      </trkpt>
      <trkpt lat="28.2695980" lon="-16.5818570">
        <ele>2188.9</ele>
        <time>2020-11-11T18:58:24Z</time>
      </trkpt>
      <trkpt lat="28.2695980" lon="-16.5818570">
        <ele>2188.9</ele>
        <time>2020-11-11T18:58:25Z</time>
      </trkpt>
      <trkpt lat="28.2695600" lon="-16.5818680">
        <ele>2188.9</ele>
        <time>2020-11-11T18:58:26Z</time>
      </trkpt>
      <trkpt lat="28.2695600" lon="-16.5818680">
        <ele>2189.9</ele>
        <time>2020-11-11T18:58:27Z</time>
      </trkpt>
      <trkpt lat="28.2695250" lon="-16.5818830">
        <ele>2189.9</ele>
        <time>2020-11-11T18:58:28Z</time>
      </trkpt>
      <trkpt lat="28.2695250" lon="-16.5818830">
        <ele>2189.9</ele>
        <time>2020-11-11T18:58:29Z</time>
      </trkpt>
      <trkpt lat="28.2694900" lon="-16.5818950">
        <ele>2189.9</ele>
        <time>2020-11-11T18:58:30Z</time>
      </trkpt>
      <trkpt lat="28.2694720" lon="-16.5819020">
        <ele>2189.9</ele>
        <time>2020-11-11T18:58:31Z</time>
      </trkpt>
      <trkpt lat="28.2694720" lon="-16.5819020">
        <ele>2189.9</ele>
        <time>2020-11-11T18:58:32Z</time>
      </trkpt>
      <trkpt lat="28.2694270" lon="-16.5819130">
        <ele>2189.9</ele>
        <time>2020-11-11T18:58:33Z</time>
      </trkpt>
      <trkpt lat="28.2694270" lon="-16.5819130">
        <ele>2190.9</ele>
        <time>2020-11-11T18:58:34Z</time>
      </trkpt>
      <trkpt lat="28.2693800" lon="-16.5819320">
        <ele>2190.9</ele>
        <time>2020-11-11T18:58:35Z</time>
      </trkpt>
      <trkpt lat="28.2693800" lon="-16.5819320">
        <ele>2190.9</ele>
        <time>2020-11-11T18:58:36Z</time>
      </trkpt>
      <trkpt lat="28.2693380" lon="-16.5819550">
        <ele>2190.9</ele>
        <time>2020-11-11T18:58:37Z</time>
      </trkpt>
      <trkpt lat="28.2693380" lon="-16.5819550">
        <ele>2190.9</ele>
        <time>2020-11-11T18:58:38Z</time>
      </trkpt>
      <trkpt lat="28.2692920" lon="-16.5819750">
        <ele>2191.9</ele>
        <time>2020-11-11T18:58:39Z</time>
      </trkpt>
      <trkpt lat="28.2692920" lon="-16.5819750">
        <ele>2191.9</ele>
        <time>2020-11-11T18:58:40Z</time>
      </trkpt>
      <trkpt lat="28.2692450" lon="-16.5819980">
        <ele>2191.9</ele>
        <time>2020-11-11T18:58:41Z</time>
      </trkpt>
      <trkpt lat="28.2692250" lon="-16.5820130">
        <ele>2191.9</ele>
        <time>2020-11-11T18:58:42Z</time>
      </trkpt>
      <trkpt lat="28.2692250" lon="-16.5820130">
        <ele>2191.9</ele>
        <time>2020-11-11T18:58:43Z</time>
      </trkpt>
      <trkpt lat="28.2691850" lon="-16.5820500">
        <ele>2191.9</ele>
        <time>2020-11-11T18:58:44Z</time>
      </trkpt>
      <trkpt lat="28.2691850" lon="-16.5820500">
        <ele>2191.9</ele>
        <time>2020-11-11T18:58:45Z</time>
      </trkpt>
      <trkpt lat="28.2691470" lon="-16.5820920">
        <ele>2191.9</ele>
        <time>2020-11-11T18:58:46Z</time>
      </trkpt>
      <trkpt lat="28.2691320" lon="-16.5821150">
        <ele>2192.9</ele>
        <time>2020-11-11T18:58:47Z</time>
      </trkpt>
      <trkpt lat="28.2691320" lon="-16.5821150">
        <ele>2192.9</ele>
        <time>2020-11-11T18:58:48Z</time>
      </trkpt>
      <trkpt lat="28.2691050" lon="-16.5821630">
        <ele>2192.9</ele>
        <time>2020-11-11T18:58:49Z</time>
      </trkpt>
      <trkpt lat="28.2691050" lon="-16.5821630">
        <ele>2192.9</ele>
        <time>2020-11-11T18:58:50Z</time>
      </trkpt>
      <trkpt lat="28.2690900" lon="-16.5822200">
        <ele>2192.9</ele>
        <time>2020-11-11T18:58:51Z</time>
      </trkpt>
      <trkpt lat="28.2690900" lon="-16.5822200">
        <ele>2192.9</ele>
        <time>2020-11-11T18:58:52Z</time>
      </trkpt>
      <trkpt lat="28.2690780" lon="-16.5822800">
        <ele>2192.9</ele>
        <time>2020-11-11T18:58:53Z</time>
      </trkpt>
      <trkpt lat="28.2690780" lon="-16.5822800">
        <ele>2192.9</ele>
        <time>2020-11-11T18:58:54Z</time>
      </trkpt>
      <trkpt lat="28.2690650" lon="-16.5823380">
        <ele>2192.9</ele>
        <time>2020-11-11T18:58:55Z</time>
      </trkpt>
      <trkpt lat="28.2690650" lon="-16.5823380">
        <ele>2192.9</ele>
        <time>2020-11-11T18:58:56Z</time>
      </trkpt>
      <trkpt lat="28.2690500" lon="-16.5823970">
        <ele>2192.9</ele>
        <time>2020-11-11T18:58:57Z</time>
      </trkpt>
      <trkpt lat="28.2690430" lon="-16.5824250">
        <ele>2192.9</ele>
        <time>2020-11-11T18:58:58Z</time>
      </trkpt>
      <trkpt lat="28.2690430" lon="-16.5824250">
        <ele>2192.9</ele>
        <time>2020-11-11T18:58:59Z</time>
      </trkpt>
      <trkpt lat="28.2690280" lon="-16.5824850">
        <ele>2192.9</ele>
        <time>2020-11-11T18:59:00Z</time>
      </trkpt>
      <trkpt lat="28.2690280" lon="-16.5824850">
        <ele>2193.9</ele>
        <time>2020-11-11T18:59:01Z</time>
      </trkpt>
      <trkpt lat="28.2690180" lon="-16.5825450">
        <ele>2193.9</ele>
        <time>2020-11-11T18:59:02Z</time>
      </trkpt>
      <trkpt lat="28.2690180" lon="-16.5825450">
        <ele>2193.9</ele>
        <time>2020-11-11T18:59:03Z</time>
      </trkpt>
      <trkpt lat="28.2690030" lon="-16.5826030">
        <ele>2193.9</ele>
        <time>2020-11-11T18:59:04Z</time>
      </trkpt>
      <trkpt lat="28.2690030" lon="-16.5826030">
        <ele>2193.9</ele>
        <time>2020-11-11T18:59:05Z</time>
      </trkpt>
      <trkpt lat="28.2689880" lon="-16.5826600">
        <ele>2193.9</ele>
        <time>2020-11-11T18:59:06Z</time>
      </trkpt>
      <trkpt lat="28.2689830" lon="-16.5826900">
        <ele>2194.9</ele>
        <time>2020-11-11T18:59:07Z</time>
      </trkpt>
      <trkpt lat="28.2689830" lon="-16.5826900">
        <ele>2194.9</ele>
        <time>2020-11-11T18:59:08Z</time>
      </trkpt>
      <trkpt lat="28.2689750" lon="-16.5827470">
        <ele>2194.9</ele>
        <time>2020-11-11T18:59:09Z</time>
      </trkpt>
      <trkpt lat="28.2689750" lon="-16.5827470">
        <ele>2194.9</ele>
        <time>2020-11-11T18:59:10Z</time>
      </trkpt>
      <trkpt lat="28.2689620" lon="-16.5828070">
        <ele>2194.9</ele>
        <time>2020-11-11T18:59:11Z</time>
      </trkpt>
      <trkpt lat="28.2689620" lon="-16.5828070">
        <ele>2194.9</ele>
        <time>2020-11-11T18:59:12Z</time>
      </trkpt>
      <trkpt lat="28.2689470" lon="-16.5828650">
        <ele>2194.9</ele>
        <time>2020-11-11T18:59:13Z</time>
      </trkpt>
      <trkpt lat="28.2689470" lon="-16.5828650">
        <ele>2194.9</ele>
        <time>2020-11-11T18:59:14Z</time>
      </trkpt>
      <trkpt lat="28.2689320" lon="-16.5829200">
        <ele>2195.9</ele>
        <time>2020-11-11T18:59:15Z</time>
      </trkpt>
      <trkpt lat="28.2689320" lon="-16.5829200">
        <ele>2195.9</ele>
        <time>2020-11-11T18:59:16Z</time>
      </trkpt>
      <trkpt lat="28.2689180" lon="-16.5829800">
        <ele>2195.9</ele>
        <time>2020-11-11T18:59:17Z</time>
      </trkpt>
      <trkpt lat="28.2689180" lon="-16.5829800">
        <ele>2195.9</ele>
        <time>2020-11-11T18:59:18Z</time>
      </trkpt>
      <trkpt lat="28.2689000" lon="-16.5830380">
        <ele>2195.9</ele>
        <time>2020-11-11T18:59:19Z</time>
      </trkpt>
      <trkpt lat="28.2689000" lon="-16.5830380">
        <ele>2195.9</ele>
        <time>2020-11-11T18:59:20Z</time>
      </trkpt>
      <trkpt lat="28.2688880" lon="-16.5830970">
        <ele>2195.9</ele>
        <time>2020-11-11T18:59:21Z</time>
      </trkpt>
      <trkpt lat="28.2688820" lon="-16.5831270">
        <ele>2195.9</ele>
        <time>2020-11-11T18:59:22Z</time>
      </trkpt>
      <trkpt lat="28.2688820" lon="-16.5831270">
        <ele>2195.9</ele>
        <time>2020-11-11T18:59:23Z</time>
      </trkpt>
      <trkpt lat="28.2688670" lon="-16.5831830">
        <ele>2195.9</ele>
        <time>2020-11-11T18:59:24Z</time>
      </trkpt>
      <trkpt lat="28.2688670" lon="-16.5831830">
        <ele>2195.9</ele>
        <time>2020-11-11T18:59:25Z</time>
      </trkpt>
      <trkpt lat="28.2688520" lon="-16.5832380">
        <ele>2195.9</ele>
        <time>2020-11-11T18:59:26Z</time>
      </trkpt>
      <trkpt lat="28.2688520" lon="-16.5832380">
        <ele>2195.9</ele>
        <time>2020-11-11T18:59:27Z</time>
      </trkpt>
      <trkpt lat="28.2688400" lon="-16.5832970">
        <ele>2195.9</ele>
        <time>2020-11-11T18:59:28Z</time>
      </trkpt>
      <trkpt lat="28.2688400" lon="-16.5832970">
        <ele>2196.9</ele>
        <time>2020-11-11T18:59:29Z</time>
      </trkpt>
      <trkpt lat="28.2688270" lon="-16.5833570">
        <ele>2196.9</ele>
        <time>2020-11-11T18:59:30Z</time>
      </trkpt>
      <trkpt lat="28.2688270" lon="-16.5833570">
        <ele>2196.9</ele>
        <time>2020-11-11T18:59:31Z</time>
      </trkpt>
      <trkpt lat="28.2688150" lon="-16.5834150">
        <ele>2196.9</ele>
        <time>2020-11-11T18:59:32Z</time>
      </trkpt>
      <trkpt lat="28.2688150" lon="-16.5834150">
        <ele>2196.9</ele>
        <time>2020-11-11T18:59:33Z</time>
      </trkpt>
      <trkpt lat="28.2688000" lon="-16.5834730">
        <ele>2196.9</ele>
        <time>2020-11-11T18:59:34Z</time>
      </trkpt>
      <trkpt lat="28.2688000" lon="-16.5834730">
        <ele>2197.9</ele>
        <time>2020-11-11T18:59:35Z</time>
      </trkpt>
      <trkpt lat="28.2687830" lon="-16.5835300">
        <ele>2197.9</ele>
        <time>2020-11-11T18:59:36Z</time>
      </trkpt>
      <trkpt lat="28.2687730" lon="-16.5835580">
        <ele>2197.9</ele>
        <time>2020-11-11T18:59:37Z</time>
      </trkpt>
      <trkpt lat="28.2687730" lon="-16.5835580">
        <ele>2197.9</ele>
        <time>2020-11-11T18:59:38Z</time>
      </trkpt>
      <trkpt lat="28.2687580" lon="-16.5836150">
        <ele>2198.9</ele>
        <time>2020-11-11T18:59:39Z</time>
      </trkpt>
      <trkpt lat="28.2687580" lon="-16.5836150">
        <ele>2198.9</ele>
        <time>2020-11-11T18:59:40Z</time>
      </trkpt>
      <trkpt lat="28.2687450" lon="-16.5836750">
        <ele>2198.9</ele>
        <time>2020-11-11T18:59:41Z</time>
      </trkpt>
      <trkpt lat="28.2687450" lon="-16.5836750">
        <ele>2198.9</ele>
        <time>2020-11-11T18:59:42Z</time>
      </trkpt>
      <trkpt lat="28.2687350" lon="-16.5837370">
        <ele>2198.9</ele>
        <time>2020-11-11T18:59:43Z</time>
      </trkpt>
      <trkpt lat="28.2687350" lon="-16.5837370">
        <ele>2198.9</ele>
        <time>2020-11-11T18:59:44Z</time>
      </trkpt>
      <trkpt lat="28.2687180" lon="-16.5837970">
        <ele>2199.9</ele>
        <time>2020-11-11T18:59:45Z</time>
      </trkpt>
      <trkpt lat="28.2687180" lon="-16.5837970">
        <ele>2199.9</ele>
        <time>2020-11-11T18:59:46Z</time>
      </trkpt>
      <trkpt lat="28.2687070" lon="-16.5838570">
        <ele>2199.9</ele>
        <time>2020-11-11T18:59:47Z</time>
      </trkpt>
      <trkpt lat="28.2687070" lon="-16.5838570">
        <ele>2199.9</ele>
        <time>2020-11-11T18:59:48Z</time>
      </trkpt>
      <trkpt lat="28.2686930" lon="-16.5839200">
        <ele>2199.9</ele>
        <time>2020-11-11T18:59:49Z</time>
      </trkpt>
      <trkpt lat="28.2686930" lon="-16.5839200">
        <ele>2199.9</ele>
        <time>2020-11-11T18:59:50Z</time>
      </trkpt>
      <trkpt lat="28.2686750" lon="-16.5839920">
        <ele>2199.9</ele>
        <time>2020-11-11T18:59:51Z</time>
      </trkpt>
      <trkpt lat="28.2686750" lon="-16.5839920">
        <ele>2199.9</ele>
        <time>2020-11-11T18:59:52Z</time>
      </trkpt>
      <trkpt lat="28.2686620" lon="-16.5840550">
        <ele>2199.9</ele>
        <time>2020-11-11T18:59:53Z</time>
      </trkpt>
      <trkpt lat="28.2686620" lon="-16.5840550">
        <ele>2199.9</ele>
        <time>2020-11-11T18:59:54Z</time>
      </trkpt>
      <trkpt lat="28.2686480" lon="-16.5841220">
        <ele>2199.9</ele>
        <time>2020-11-11T18:59:55Z</time>
      </trkpt>
      <trkpt lat="28.2686480" lon="-16.5841220">
        <ele>2199.9</ele>
        <time>2020-11-11T18:59:56Z</time>
      </trkpt>
      <trkpt lat="28.2686370" lon="-16.5841850">
        <ele>2199.9</ele>
        <time>2020-11-11T18:59:57Z</time>
      </trkpt>
      <trkpt lat="28.2686370" lon="-16.5841850">
        <ele>2199.9</ele>
        <time>2020-11-11T18:59:58Z</time>
      </trkpt>
      <trkpt lat="28.2686250" lon="-16.5842520">
        <ele>2199.9</ele>
        <time>2020-11-11T18:59:59Z</time>
      </trkpt>
      <trkpt lat="28.2686250" lon="-16.5842520">
        <ele>2199.9</ele>
        <time>2020-11-11T19:00:00Z</time>
      </trkpt>
      <trkpt lat="28.2686080" lon="-16.5843180">
        <ele>2200.9</ele>
        <time>2020-11-11T19:00:01Z</time>
      </trkpt>
      <trkpt lat="28.2686080" lon="-16.5843180">
        <ele>2200.9</ele>
        <time>2020-11-11T19:00:02Z</time>
      </trkpt>
      <trkpt lat="28.2685920" lon="-16.5843830">
        <ele>2200.9</ele>
        <time>2020-11-11T19:00:03Z</time>
      </trkpt>
      <trkpt lat="28.2685870" lon="-16.5844180">
        <ele>2200.9</ele>
        <time>2020-11-11T19:00:04Z</time>
      </trkpt>
      <trkpt lat="28.2685870" lon="-16.5844180">
        <ele>2200.9</ele>
        <time>2020-11-11T19:00:05Z</time>
      </trkpt>
      <trkpt lat="28.2685780" lon="-16.5844870">
        <ele>2200.9</ele>
        <time>2020-11-11T19:00:06Z</time>
      </trkpt>
      <trkpt lat="28.2685720" lon="-16.5845200">
        <ele>2201.9</ele>
        <time>2020-11-11T19:00:07Z</time>
      </trkpt>
      <trkpt lat="28.2685720" lon="-16.5845200">
        <ele>2201.9</ele>
        <time>2020-11-11T19:00:08Z</time>
      </trkpt>
      <trkpt lat="28.2685600" lon="-16.5845850">
        <ele>2201.9</ele>
        <time>2020-11-11T19:00:09Z</time>
      </trkpt>
      <trkpt lat="28.2685600" lon="-16.5845850">
        <ele>2201.9</ele>
        <time>2020-11-11T19:00:10Z</time>
      </trkpt>
      <trkpt lat="28.2685450" lon="-16.5846480">
        <ele>2201.9</ele>
        <time>2020-11-11T19:00:11Z</time>
      </trkpt>
      <trkpt lat="28.2685380" lon="-16.5846800">
        <ele>2201.9</ele>
        <time>2020-11-11T19:00:12Z</time>
      </trkpt>
      <trkpt lat="28.2685300" lon="-16.5847130">
        <ele>2202.9</ele>
        <time>2020-11-11T19:00:13Z</time>
      </trkpt>
      <trkpt lat="28.2685300" lon="-16.5847130">
        <ele>2202.9</ele>
        <time>2020-11-11T19:00:14Z</time>
      </trkpt>
      <trkpt lat="28.2685150" lon="-16.5847800">
        <ele>2202.9</ele>
        <time>2020-11-11T19:00:15Z</time>
      </trkpt>
      <trkpt lat="28.2685150" lon="-16.5847800">
        <ele>2202.9</ele>
        <time>2020-11-11T19:00:16Z</time>
      </trkpt>
      <trkpt lat="28.2684980" lon="-16.5848450">
        <ele>2202.9</ele>
        <time>2020-11-11T19:00:17Z</time>
      </trkpt>
      <trkpt lat="28.2684900" lon="-16.5848780">
        <ele>2202.9</ele>
        <time>2020-11-11T19:00:18Z</time>
      </trkpt>
      <trkpt lat="28.2684800" lon="-16.5849130">
        <ele>2203.9</ele>
        <time>2020-11-11T19:00:19Z</time>
      </trkpt>
      <trkpt lat="28.2684800" lon="-16.5849130">
        <ele>2203.9</ele>
        <time>2020-11-11T19:00:20Z</time>
      </trkpt>
      <trkpt lat="28.2684620" lon="-16.5849780">
        <ele>2203.9</ele>
        <time>2020-11-11T19:00:21Z</time>
      </trkpt>
      <trkpt lat="28.2684530" lon="-16.5850130">
        <ele>2203.9</ele>
        <time>2020-11-11T19:00:22Z</time>
      </trkpt>
      <trkpt lat="28.2684530" lon="-16.5850130">
        <ele>2203.9</ele>
        <time>2020-11-11T19:00:23Z</time>
      </trkpt>
      <trkpt lat="28.2684380" lon="-16.5850800">
        <ele>2203.9</ele>
        <time>2020-11-11T19:00:24Z</time>
      </trkpt>
      <trkpt lat="28.2684380" lon="-16.5850800">
        <ele>2203.9</ele>
        <time>2020-11-11T19:00:25Z</time>
      </trkpt>
      <trkpt lat="28.2684200" lon="-16.5851470">
        <ele>2203.9</ele>
        <time>2020-11-11T19:00:26Z</time>
      </trkpt>
      <trkpt lat="28.2684200" lon="-16.5851470">
        <ele>2203.9</ele>
        <time>2020-11-11T19:00:27Z</time>
      </trkpt>
      <trkpt lat="28.2684030" lon="-16.5852130">
        <ele>2203.9</ele>
        <time>2020-11-11T19:00:28Z</time>
      </trkpt>
      <trkpt lat="28.2684030" lon="-16.5852130">
        <ele>2204.9</ele>
        <time>2020-11-11T19:00:29Z</time>
      </trkpt>
      <trkpt lat="28.2683880" lon="-16.5852800">
        <ele>2204.9</ele>
        <time>2020-11-11T19:00:30Z</time>
      </trkpt>
      <trkpt lat="28.2683880" lon="-16.5852800">
        <ele>2204.9</ele>
        <time>2020-11-11T19:00:31Z</time>
      </trkpt>
      <trkpt lat="28.2683720" lon="-16.5853450">
        <ele>2204.9</ele>
        <time>2020-11-11T19:00:32Z</time>
      </trkpt>
      <trkpt lat="28.2683720" lon="-16.5853450">
        <ele>2204.9</ele>
        <time>2020-11-11T19:00:33Z</time>
      </trkpt>
      <trkpt lat="28.2683550" lon="-16.5854120">
        <ele>2204.9</ele>
        <time>2020-11-11T19:00:34Z</time>
      </trkpt>
      <trkpt lat="28.2683550" lon="-16.5854120">
        <ele>2205.9</ele>
        <time>2020-11-11T19:00:35Z</time>
      </trkpt>
      <trkpt lat="28.2683350" lon="-16.5854830">
        <ele>2205.9</ele>
        <time>2020-11-11T19:00:36Z</time>
      </trkpt>
      <trkpt lat="28.2683230" lon="-16.5855200">
        <ele>2205.9</ele>
        <time>2020-11-11T19:00:37Z</time>
      </trkpt>
      <trkpt lat="28.2683230" lon="-16.5855200">
        <ele>2205.9</ele>
        <time>2020-11-11T19:00:38Z</time>
      </trkpt>
      <trkpt lat="28.2682900" lon="-16.5855970">
        <ele>2205.9</ele>
        <time>2020-11-11T19:00:39Z</time>
      </trkpt>
      <trkpt lat="28.2682900" lon="-16.5855970">
        <ele>2205.9</ele>
        <time>2020-11-11T19:00:40Z</time>
      </trkpt>
      <trkpt lat="28.2682470" lon="-16.5856750">
        <ele>2205.9</ele>
        <time>2020-11-11T19:00:41Z</time>
      </trkpt>
      <trkpt lat="28.2682470" lon="-16.5856750">
        <ele>2205.9</ele>
        <time>2020-11-11T19:00:42Z</time>
      </trkpt>
      <trkpt lat="28.2681930" lon="-16.5857500">
        <ele>2205.9</ele>
        <time>2020-11-11T19:00:43Z</time>
      </trkpt>
      <trkpt lat="28.2681930" lon="-16.5857500">
        <ele>2205.9</ele>
        <time>2020-11-11T19:00:44Z</time>
      </trkpt>
      <trkpt lat="28.2681350" lon="-16.5858180">
        <ele>2205.9</ele>
        <time>2020-11-11T19:00:45Z</time>
      </trkpt>
      <trkpt lat="28.2681350" lon="-16.5858180">
        <ele>2205.9</ele>
        <time>2020-11-11T19:00:46Z</time>
      </trkpt>
      <trkpt lat="28.2680770" lon="-16.5858850">
        <ele>2205.9</ele>
        <time>2020-11-11T19:00:47Z</time>
      </trkpt>
      <trkpt lat="28.2680770" lon="-16.5858850">
        <ele>2205.9</ele>
        <time>2020-11-11T19:00:48Z</time>
      </trkpt>
      <trkpt lat="28.2680250" lon="-16.5859550">
        <ele>2205.9</ele>
        <time>2020-11-11T19:00:49Z</time>
      </trkpt>
      <trkpt lat="28.2680250" lon="-16.5859550">
        <ele>2205.9</ele>
        <time>2020-11-11T19:00:50Z</time>
      </trkpt>
      <trkpt lat="28.2679680" lon="-16.5860250">
        <ele>2205.9</ele>
        <time>2020-11-11T19:00:51Z</time>
      </trkpt>
      <trkpt lat="28.2679680" lon="-16.5860250">
        <ele>2205.9</ele>
        <time>2020-11-11T19:00:52Z</time>
      </trkpt>
      <trkpt lat="28.2679070" lon="-16.5860870">
        <ele>2205.9</ele>
        <time>2020-11-11T19:00:53Z</time>
      </trkpt>
      <trkpt lat="28.2679070" lon="-16.5860870">
        <ele>2205.9</ele>
        <time>2020-11-11T19:00:54Z</time>
      </trkpt>
      <trkpt lat="28.2678430" lon="-16.5861480">
        <ele>2205.9</ele>
        <time>2020-11-11T19:00:55Z</time>
      </trkpt>
      <trkpt lat="28.2678430" lon="-16.5861480">
        <ele>2205.9</ele>
        <time>2020-11-11T19:00:56Z</time>
      </trkpt>
      <trkpt lat="28.2677850" lon="-16.5862120">
        <ele>2205.9</ele>
        <time>2020-11-11T19:00:57Z</time>
      </trkpt>
      <trkpt lat="28.2677850" lon="-16.5862120">
        <ele>2205.9</ele>
        <time>2020-11-11T19:00:58Z</time>
      </trkpt>
      <trkpt lat="28.2677280" lon="-16.5862870">
        <ele>2205.9</ele>
        <time>2020-11-11T19:00:59Z</time>
      </trkpt>
      <trkpt lat="28.2677280" lon="-16.5862870">
        <ele>2205.9</ele>
        <time>2020-11-11T19:01:00Z</time>
      </trkpt>
      <trkpt lat="28.2676680" lon="-16.5863620">
        <ele>2205.9</ele>
        <time>2020-11-11T19:01:01Z</time>
      </trkpt>
      <trkpt lat="28.2676680" lon="-16.5863620">
        <ele>2205.9</ele>
        <time>2020-11-11T19:01:02Z</time>
      </trkpt>
      <trkpt lat="28.2676070" lon="-16.5864280">
        <ele>2205.9</ele>
        <time>2020-11-11T19:01:03Z</time>
      </trkpt>
      <trkpt lat="28.2676070" lon="-16.5864280">
        <ele>2205.9</ele>
        <time>2020-11-11T19:01:04Z</time>
      </trkpt>
      <trkpt lat="28.2675480" lon="-16.5864930">
        <ele>2205.9</ele>
        <time>2020-11-11T19:01:05Z</time>
      </trkpt>
      <trkpt lat="28.2675480" lon="-16.5864930">
        <ele>2205.9</ele>
        <time>2020-11-11T19:01:06Z</time>
      </trkpt>
      <trkpt lat="28.2674950" lon="-16.5865600">
        <ele>2205.9</ele>
        <time>2020-11-11T19:01:07Z</time>
      </trkpt>
      <trkpt lat="28.2674950" lon="-16.5865600">
        <ele>2205.9</ele>
        <time>2020-11-11T19:01:08Z</time>
      </trkpt>
      <trkpt lat="28.2674420" lon="-16.5866250">
        <ele>2205.9</ele>
        <time>2020-11-11T19:01:09Z</time>
      </trkpt>
      <trkpt lat="28.2674150" lon="-16.5866550">
        <ele>2205.9</ele>
        <time>2020-11-11T19:01:10Z</time>
      </trkpt>
      <trkpt lat="28.2674150" lon="-16.5866550">
        <ele>2205.9</ele>
        <time>2020-11-11T19:01:11Z</time>
      </trkpt>
      <trkpt lat="28.2673650" lon="-16.5867150">
        <ele>2206.9</ele>
        <time>2020-11-11T19:01:12Z</time>
      </trkpt>
      <trkpt lat="28.2673420" lon="-16.5867450">
        <ele>2206.9</ele>
        <time>2020-11-11T19:01:13Z</time>
      </trkpt>
      <trkpt lat="28.2673420" lon="-16.5867450">
        <ele>2206.9</ele>
        <time>2020-11-11T19:01:14Z</time>
      </trkpt>
      <trkpt lat="28.2672920" lon="-16.5868020">
        <ele>2206.9</ele>
        <time>2020-11-11T19:01:15Z</time>
      </trkpt>
      <trkpt lat="28.2672920" lon="-16.5868020">
        <ele>2206.9</ele>
        <time>2020-11-11T19:01:16Z</time>
      </trkpt>
      <trkpt lat="28.2672380" lon="-16.5868600">
        <ele>2207.9</ele>
        <time>2020-11-11T19:01:17Z</time>
      </trkpt>
      <trkpt lat="28.2672380" lon="-16.5868600">
        <ele>2207.9</ele>
        <time>2020-11-11T19:01:18Z</time>
      </trkpt>
      <trkpt lat="28.2671820" lon="-16.5869150">
        <ele>2207.9</ele>
        <time>2020-11-11T19:01:19Z</time>
      </trkpt>
      <trkpt lat="28.2671820" lon="-16.5869150">
        <ele>2207.9</ele>
        <time>2020-11-11T19:01:20Z</time>
      </trkpt>
      <trkpt lat="28.2671330" lon="-16.5869800">
        <ele>2207.9</ele>
        <time>2020-11-11T19:01:21Z</time>
      </trkpt>
      <trkpt lat="28.2671330" lon="-16.5869800">
        <ele>2207.9</ele>
        <time>2020-11-11T19:01:22Z</time>
      </trkpt>
      <trkpt lat="28.2670700" lon="-16.5870480">
        <ele>2208.9</ele>
        <time>2020-11-11T19:01:23Z</time>
      </trkpt>
      <trkpt lat="28.2670700" lon="-16.5870480">
        <ele>2208.9</ele>
        <time>2020-11-11T19:01:24Z</time>
      </trkpt>
      <trkpt lat="28.2670150" lon="-16.5871170">
        <ele>2208.9</ele>
        <time>2020-11-11T19:01:25Z</time>
      </trkpt>
      <trkpt lat="28.2670150" lon="-16.5871170">
        <ele>2208.9</ele>
        <time>2020-11-11T19:01:26Z</time>
      </trkpt>
      <trkpt lat="28.2669580" lon="-16.5871800">
        <ele>2208.9</ele>
        <time>2020-11-11T19:01:27Z</time>
      </trkpt>
      <trkpt lat="28.2669580" lon="-16.5871800">
        <ele>2208.9</ele>
        <time>2020-11-11T19:01:28Z</time>
      </trkpt>
      <trkpt lat="28.2669100" lon="-16.5872430">
        <ele>2208.9</ele>
        <time>2020-11-11T19:01:29Z</time>
      </trkpt>
      <trkpt lat="28.2669100" lon="-16.5872430">
        <ele>2208.9</ele>
        <time>2020-11-11T19:01:30Z</time>
      </trkpt>
      <trkpt lat="28.2668620" lon="-16.5873030">
        <ele>2209.9</ele>
        <time>2020-11-11T19:01:31Z</time>
      </trkpt>
      <trkpt lat="28.2668620" lon="-16.5873030">
        <ele>2209.9</ele>
        <time>2020-11-11T19:01:32Z</time>
      </trkpt>
      <trkpt lat="28.2668100" lon="-16.5873630">
        <ele>2209.9</ele>
        <time>2020-11-11T19:01:33Z</time>
      </trkpt>
      <trkpt lat="28.2668100" lon="-16.5873630">
        <ele>2209.9</ele>
        <time>2020-11-11T19:01:34Z</time>
      </trkpt>
      <trkpt lat="28.2667570" lon="-16.5874250">
        <ele>2209.9</ele>
        <time>2020-11-11T19:01:35Z</time>
      </trkpt>
      <trkpt lat="28.2667570" lon="-16.5874250">
        <ele>2209.9</ele>
        <time>2020-11-11T19:01:36Z</time>
      </trkpt>
      <trkpt lat="28.2667030" lon="-16.5874880">
        <ele>2209.9</ele>
        <time>2020-11-11T19:01:37Z</time>
      </trkpt>
      <trkpt lat="28.2667030" lon="-16.5874880">
        <ele>2209.9</ele>
        <time>2020-11-11T19:01:38Z</time>
      </trkpt>
      <trkpt lat="28.2666480" lon="-16.5875500">
        <ele>2208.9</ele>
        <time>2020-11-11T19:01:39Z</time>
      </trkpt>
      <trkpt lat="28.2666480" lon="-16.5875500">
        <ele>2208.9</ele>
        <time>2020-11-11T19:01:40Z</time>
      </trkpt>
      <trkpt lat="28.2665970" lon="-16.5876130">
        <ele>2209.9</ele>
        <time>2020-11-11T19:01:41Z</time>
      </trkpt>
      <trkpt lat="28.2665970" lon="-16.5876130">
        <ele>2209.9</ele>
        <time>2020-11-11T19:01:42Z</time>
      </trkpt>
      <trkpt lat="28.2665470" lon="-16.5876770">
        <ele>2209.9</ele>
        <time>2020-11-11T19:01:43Z</time>
      </trkpt>
      <trkpt lat="28.2665470" lon="-16.5876770">
        <ele>2209.9</ele>
        <time>2020-11-11T19:01:44Z</time>
      </trkpt>
      <trkpt lat="28.2664970" lon="-16.5877400">
        <ele>2210.9</ele>
        <time>2020-11-11T19:01:45Z</time>
      </trkpt>
      <trkpt lat="28.2664970" lon="-16.5877400">
        <ele>2210.9</ele>
        <time>2020-11-11T19:01:46Z</time>
      </trkpt>
      <trkpt lat="28.2664470" lon="-16.5878000">
        <ele>2210.9</ele>
        <time>2020-11-11T19:01:47Z</time>
      </trkpt>
      <trkpt lat="28.2664470" lon="-16.5878000">
        <ele>2210.9</ele>
        <time>2020-11-11T19:01:48Z</time>
      </trkpt>
      <trkpt lat="28.2663950" lon="-16.5878620">
        <ele>2211.9</ele>
        <time>2020-11-11T19:01:49Z</time>
      </trkpt>
      <trkpt lat="28.2663950" lon="-16.5878620">
        <ele>2211.9</ele>
        <time>2020-11-11T19:01:50Z</time>
      </trkpt>
      <trkpt lat="28.2663450" lon="-16.5879230">
        <ele>2211.9</ele>
        <time>2020-11-11T19:01:51Z</time>
      </trkpt>
      <trkpt lat="28.2663450" lon="-16.5879230">
        <ele>2211.9</ele>
        <time>2020-11-11T19:01:52Z</time>
      </trkpt>
      <trkpt lat="28.2662930" lon="-16.5879830">
        <ele>2211.9</ele>
        <time>2020-11-11T19:01:53Z</time>
      </trkpt>
      <trkpt lat="28.2662930" lon="-16.5879830">
        <ele>2211.9</ele>
        <time>2020-11-11T19:01:54Z</time>
      </trkpt>
      <trkpt lat="28.2662400" lon="-16.5880450">
        <ele>2211.9</ele>
        <time>2020-11-11T19:01:55Z</time>
      </trkpt>
      <trkpt lat="28.2662400" lon="-16.5880450">
        <ele>2212.9</ele>
        <time>2020-11-11T19:01:56Z</time>
      </trkpt>
      <trkpt lat="28.2661850" lon="-16.5881050">
        <ele>2212.9</ele>
        <time>2020-11-11T19:01:57Z</time>
      </trkpt>
      <trkpt lat="28.2661850" lon="-16.5881050">
        <ele>2212.9</ele>
        <time>2020-11-11T19:01:58Z</time>
      </trkpt>
      <trkpt lat="28.2661330" lon="-16.5881680">
        <ele>2213.9</ele>
        <time>2020-11-11T19:01:59Z</time>
      </trkpt>
      <trkpt lat="28.2661330" lon="-16.5881680">
        <ele>2213.9</ele>
        <time>2020-11-11T19:02:00Z</time>
      </trkpt>
      <trkpt lat="28.2660780" lon="-16.5882270">
        <ele>2213.9</ele>
        <time>2020-11-11T19:02:01Z</time>
      </trkpt>
      <trkpt lat="28.2660780" lon="-16.5882270">
        <ele>2213.9</ele>
        <time>2020-11-11T19:02:02Z</time>
      </trkpt>
      <trkpt lat="28.2660250" lon="-16.5882850">
        <ele>2213.9</ele>
        <time>2020-11-11T19:02:03Z</time>
      </trkpt>
      <trkpt lat="28.2660250" lon="-16.5882850">
        <ele>2213.9</ele>
        <time>2020-11-11T19:02:04Z</time>
      </trkpt>
      <trkpt lat="28.2659720" lon="-16.5883480">
        <ele>2213.9</ele>
        <time>2020-11-11T19:02:05Z</time>
      </trkpt>
      <trkpt lat="28.2659720" lon="-16.5883480">
        <ele>2213.9</ele>
        <time>2020-11-11T19:02:06Z</time>
      </trkpt>
      <trkpt lat="28.2659200" lon="-16.5884070">
        <ele>2214.9</ele>
        <time>2020-11-11T19:02:07Z</time>
      </trkpt>
      <trkpt lat="28.2659200" lon="-16.5884070">
        <ele>2214.9</ele>
        <time>2020-11-11T19:02:08Z</time>
      </trkpt>
      <trkpt lat="28.2658670" lon="-16.5884630">
        <ele>2214.9</ele>
        <time>2020-11-11T19:02:09Z</time>
      </trkpt>
      <trkpt lat="28.2658670" lon="-16.5884630">
        <ele>2214.9</ele>
        <time>2020-11-11T19:02:10Z</time>
      </trkpt>
      <trkpt lat="28.2658170" lon="-16.5885270">
        <ele>2214.9</ele>
        <time>2020-11-11T19:02:11Z</time>
      </trkpt>
      <trkpt lat="28.2657920" lon="-16.5885600">
        <ele>2214.9</ele>
        <time>2020-11-11T19:02:12Z</time>
      </trkpt>
      <trkpt lat="28.2657920" lon="-16.5885600">
        <ele>2215.9</ele>
        <time>2020-11-11T19:02:13Z</time>
      </trkpt>
      <trkpt lat="28.2657420" lon="-16.5886250">
        <ele>2215.9</ele>
        <time>2020-11-11T19:02:14Z</time>
      </trkpt>
      <trkpt lat="28.2657420" lon="-16.5886250">
        <ele>2215.9</ele>
        <time>2020-11-11T19:02:15Z</time>
      </trkpt>
      <trkpt lat="28.2656880" lon="-16.5886830">
        <ele>2215.9</ele>
        <time>2020-11-11T19:02:16Z</time>
      </trkpt>
      <trkpt lat="28.2656620" lon="-16.5887150">
        <ele>2215.9</ele>
        <time>2020-11-11T19:02:17Z</time>
      </trkpt>
      <trkpt lat="28.2656620" lon="-16.5887150">
        <ele>2215.9</ele>
        <time>2020-11-11T19:02:18Z</time>
      </trkpt>
      <trkpt lat="28.2656100" lon="-16.5887780">
        <ele>2215.9</ele>
        <time>2020-11-11T19:02:19Z</time>
      </trkpt>
      <trkpt lat="28.2656100" lon="-16.5887780">
        <ele>2215.9</ele>
        <time>2020-11-11T19:02:20Z</time>
      </trkpt>
      <trkpt lat="28.2655570" lon="-16.5888370">
        <ele>2215.9</ele>
        <time>2020-11-11T19:02:21Z</time>
      </trkpt>
      <trkpt lat="28.2655570" lon="-16.5888370">
        <ele>2215.9</ele>
        <time>2020-11-11T19:02:22Z</time>
      </trkpt>
      <trkpt lat="28.2655020" lon="-16.5888980">
        <ele>2215.9</ele>
        <time>2020-11-11T19:02:23Z</time>
      </trkpt>
      <trkpt lat="28.2655020" lon="-16.5888980">
        <ele>2216.9</ele>
        <time>2020-11-11T19:02:24Z</time>
      </trkpt>
      <trkpt lat="28.2654480" lon="-16.5889580">
        <ele>2216.9</ele>
        <time>2020-11-11T19:02:25Z</time>
      </trkpt>
      <trkpt lat="28.2654480" lon="-16.5889580">
        <ele>2216.9</ele>
        <time>2020-11-11T19:02:26Z</time>
      </trkpt>
      <trkpt lat="28.2654000" lon="-16.5890220">
        <ele>2216.9</ele>
        <time>2020-11-11T19:02:27Z</time>
      </trkpt>
      <trkpt lat="28.2654000" lon="-16.5890220">
        <ele>2216.9</ele>
        <time>2020-11-11T19:02:28Z</time>
      </trkpt>
      <trkpt lat="28.2653500" lon="-16.5890820">
        <ele>2216.9</ele>
        <time>2020-11-11T19:02:29Z</time>
      </trkpt>
      <trkpt lat="28.2653500" lon="-16.5890820">
        <ele>2216.9</ele>
        <time>2020-11-11T19:02:30Z</time>
      </trkpt>
      <trkpt lat="28.2652970" lon="-16.5891380">
        <ele>2216.9</ele>
        <time>2020-11-11T19:02:31Z</time>
      </trkpt>
      <trkpt lat="28.2652970" lon="-16.5891380">
        <ele>2217.9</ele>
        <time>2020-11-11T19:02:32Z</time>
      </trkpt>
      <trkpt lat="28.2652450" lon="-16.5891980">
        <ele>2217.9</ele>
        <time>2020-11-11T19:02:33Z</time>
      </trkpt>
      <trkpt lat="28.2652450" lon="-16.5891980">
        <ele>2217.9</ele>
        <time>2020-11-11T19:02:34Z</time>
      </trkpt>
      <trkpt lat="28.2651930" lon="-16.5892630">
        <ele>2217.9</ele>
        <time>2020-11-11T19:02:35Z</time>
      </trkpt>
      <trkpt lat="28.2651930" lon="-16.5892630">
        <ele>2217.9</ele>
        <time>2020-11-11T19:02:36Z</time>
      </trkpt>
      <trkpt lat="28.2651420" lon="-16.5893330">
        <ele>2217.9</ele>
        <time>2020-11-11T19:02:37Z</time>
      </trkpt>
      <trkpt lat="28.2651420" lon="-16.5893330">
        <ele>2217.9</ele>
        <time>2020-11-11T19:02:38Z</time>
      </trkpt>
      <trkpt lat="28.2650820" lon="-16.5894020">
        <ele>2217.9</ele>
        <time>2020-11-11T19:02:39Z</time>
      </trkpt>
      <trkpt lat="28.2650820" lon="-16.5894020">
        <ele>2217.9</ele>
        <time>2020-11-11T19:02:40Z</time>
      </trkpt>
      <trkpt lat="28.2650200" lon="-16.5894730">
        <ele>2217.9</ele>
        <time>2020-11-11T19:02:41Z</time>
      </trkpt>
      <trkpt lat="28.2650200" lon="-16.5894730">
        <ele>2217.9</ele>
        <time>2020-11-11T19:02:42Z</time>
      </trkpt>
      <trkpt lat="28.2649580" lon="-16.5895450">
        <ele>2218.9</ele>
        <time>2020-11-11T19:02:43Z</time>
      </trkpt>
      <trkpt lat="28.2649580" lon="-16.5895450">
        <ele>2218.9</ele>
        <time>2020-11-11T19:02:44Z</time>
      </trkpt>
      <trkpt lat="28.2648970" lon="-16.5896180">
        <ele>2218.9</ele>
        <time>2020-11-11T19:02:45Z</time>
      </trkpt>
      <trkpt lat="28.2648970" lon="-16.5896180">
        <ele>2218.9</ele>
        <time>2020-11-11T19:02:46Z</time>
      </trkpt>
      <trkpt lat="28.2648350" lon="-16.5896930">
        <ele>2218.9</ele>
        <time>2020-11-11T19:02:47Z</time>
      </trkpt>
      <trkpt lat="28.2648350" lon="-16.5896930">
        <ele>2218.9</ele>
        <time>2020-11-11T19:02:48Z</time>
      </trkpt>
      <trkpt lat="28.2647720" lon="-16.5897670">
        <ele>2218.9</ele>
        <time>2020-11-11T19:02:49Z</time>
      </trkpt>
      <trkpt lat="28.2647720" lon="-16.5897670">
        <ele>2218.9</ele>
        <time>2020-11-11T19:02:50Z</time>
      </trkpt>
      <trkpt lat="28.2647100" lon="-16.5898430">
        <ele>2218.9</ele>
        <time>2020-11-11T19:02:51Z</time>
      </trkpt>
      <trkpt lat="28.2647100" lon="-16.5898430">
        <ele>2218.9</ele>
        <time>2020-11-11T19:02:52Z</time>
      </trkpt>
      <trkpt lat="28.2646400" lon="-16.5899230">
        <ele>2218.9</ele>
        <time>2020-11-11T19:02:53Z</time>
      </trkpt>
      <trkpt lat="28.2646400" lon="-16.5899230">
        <ele>2218.9</ele>
        <time>2020-11-11T19:02:54Z</time>
      </trkpt>
      <trkpt lat="28.2645670" lon="-16.5900130">
        <ele>2218.9</ele>
        <time>2020-11-11T19:02:55Z</time>
      </trkpt>
      <trkpt lat="28.2645670" lon="-16.5900130">
        <ele>2219.9</ele>
        <time>2020-11-11T19:02:56Z</time>
      </trkpt>
      <trkpt lat="28.2644920" lon="-16.5901050">
        <ele>2219.9</ele>
        <time>2020-11-11T19:02:57Z</time>
      </trkpt>
      <trkpt lat="28.2644920" lon="-16.5901050">
        <ele>2219.9</ele>
        <time>2020-11-11T19:02:58Z</time>
      </trkpt>
      <trkpt lat="28.2644080" lon="-16.5901980">
        <ele>2219.9</ele>
        <time>2020-11-11T19:02:59Z</time>
      </trkpt>
      <trkpt lat="28.2644080" lon="-16.5901980">
        <ele>2219.9</ele>
        <time>2020-11-11T19:03:00Z</time>
      </trkpt>
      <trkpt lat="28.2643280" lon="-16.5902970">
        <ele>2219.9</ele>
        <time>2020-11-11T19:03:01Z</time>
      </trkpt>
      <trkpt lat="28.2643280" lon="-16.5902970">
        <ele>2219.9</ele>
        <time>2020-11-11T19:03:02Z</time>
      </trkpt>
      <trkpt lat="28.2642470" lon="-16.5903880">
        <ele>2219.9</ele>
        <time>2020-11-11T19:03:03Z</time>
      </trkpt>
      <trkpt lat="28.2642470" lon="-16.5903880">
        <ele>2219.9</ele>
        <time>2020-11-11T19:03:04Z</time>
      </trkpt>
      <trkpt lat="28.2641670" lon="-16.5904800">
        <ele>2219.9</ele>
        <time>2020-11-11T19:03:05Z</time>
      </trkpt>
      <trkpt lat="28.2641670" lon="-16.5904800">
        <ele>2219.9</ele>
        <time>2020-11-11T19:03:06Z</time>
      </trkpt>
      <trkpt lat="28.2640920" lon="-16.5905730">
        <ele>2219.9</ele>
        <time>2020-11-11T19:03:07Z</time>
      </trkpt>
      <trkpt lat="28.2640920" lon="-16.5905730">
        <ele>2219.9</ele>
        <time>2020-11-11T19:03:08Z</time>
      </trkpt>
      <trkpt lat="28.2640170" lon="-16.5906670">
        <ele>2219.9</ele>
        <time>2020-11-11T19:03:09Z</time>
      </trkpt>
      <trkpt lat="28.2640170" lon="-16.5906670">
        <ele>2219.9</ele>
        <time>2020-11-11T19:03:10Z</time>
      </trkpt>
      <trkpt lat="28.2639370" lon="-16.5907580">
        <ele>2219.9</ele>
        <time>2020-11-11T19:03:11Z</time>
      </trkpt>
      <trkpt lat="28.2639370" lon="-16.5907580">
        <ele>2219.9</ele>
        <time>2020-11-11T19:03:12Z</time>
      </trkpt>
      <trkpt lat="28.2638570" lon="-16.5908480">
        <ele>2219.9</ele>
        <time>2020-11-11T19:03:13Z</time>
      </trkpt>
      <trkpt lat="28.2638570" lon="-16.5908480">
        <ele>2219.9</ele>
        <time>2020-11-11T19:03:14Z</time>
      </trkpt>
      <trkpt lat="28.2637800" lon="-16.5909420">
        <ele>2219.9</ele>
        <time>2020-11-11T19:03:15Z</time>
      </trkpt>
      <trkpt lat="28.2637420" lon="-16.5909880">
        <ele>2219.9</ele>
        <time>2020-11-11T19:03:16Z</time>
      </trkpt>
      <trkpt lat="28.2637020" lon="-16.5910330">
        <ele>2219.9</ele>
        <time>2020-11-11T19:03:17Z</time>
      </trkpt>
      <trkpt lat="28.2637020" lon="-16.5910330">
        <ele>2219.9</ele>
        <time>2020-11-11T19:03:18Z</time>
      </trkpt>
      <trkpt lat="28.2636180" lon="-16.5911250">
        <ele>2219.9</ele>
        <time>2020-11-11T19:03:19Z</time>
      </trkpt>
      <trkpt lat="28.2636180" lon="-16.5911250">
        <ele>2219.9</ele>
        <time>2020-11-11T19:03:20Z</time>
      </trkpt>
      <trkpt lat="28.2635370" lon="-16.5912200">
        <ele>2219.9</ele>
        <time>2020-11-11T19:03:21Z</time>
      </trkpt>
      <trkpt lat="28.2635370" lon="-16.5912200">
        <ele>2219.9</ele>
        <time>2020-11-11T19:03:22Z</time>
      </trkpt>
      <trkpt lat="28.2634550" lon="-16.5913170">
        <ele>2219.9</ele>
        <time>2020-11-11T19:03:23Z</time>
      </trkpt>
      <trkpt lat="28.2634550" lon="-16.5913170">
        <ele>2219.9</ele>
        <time>2020-11-11T19:03:24Z</time>
      </trkpt>
      <trkpt lat="28.2633800" lon="-16.5914070">
        <ele>2219.9</ele>
        <time>2020-11-11T19:03:25Z</time>
      </trkpt>
      <trkpt lat="28.2633800" lon="-16.5914070">
        <ele>2219.9</ele>
        <time>2020-11-11T19:03:26Z</time>
      </trkpt>
      <trkpt lat="28.2632980" lon="-16.5914980">
        <ele>2219.9</ele>
        <time>2020-11-11T19:03:27Z</time>
      </trkpt>
      <trkpt lat="28.2632980" lon="-16.5914980">
        <ele>2219.9</ele>
        <time>2020-11-11T19:03:28Z</time>
      </trkpt>
      <trkpt lat="28.2632180" lon="-16.5915900">
        <ele>2219.9</ele>
        <time>2020-11-11T19:03:29Z</time>
      </trkpt>
      <trkpt lat="28.2631780" lon="-16.5916380">
        <ele>2219.9</ele>
        <time>2020-11-11T19:03:30Z</time>
      </trkpt>
      <trkpt lat="28.2631780" lon="-16.5916380">
        <ele>2219.9</ele>
        <time>2020-11-11T19:03:31Z</time>
      </trkpt>
      <trkpt lat="28.2631000" lon="-16.5917350">
        <ele>2219.9</ele>
        <time>2020-11-11T19:03:32Z</time>
      </trkpt>
      <trkpt lat="28.2631000" lon="-16.5917350">
        <ele>2219.9</ele>
        <time>2020-11-11T19:03:33Z</time>
      </trkpt>
      <trkpt lat="28.2630180" lon="-16.5918280">
        <ele>2219.9</ele>
        <time>2020-11-11T19:03:34Z</time>
      </trkpt>
      <trkpt lat="28.2630180" lon="-16.5918280">
        <ele>2219.9</ele>
        <time>2020-11-11T19:03:35Z</time>
      </trkpt>
      <trkpt lat="28.2629370" lon="-16.5919230">
        <ele>2219.9</ele>
        <time>2020-11-11T19:03:36Z</time>
      </trkpt>
      <trkpt lat="28.2628950" lon="-16.5919720">
        <ele>2219.9</ele>
        <time>2020-11-11T19:03:37Z</time>
      </trkpt>
      <trkpt lat="28.2628950" lon="-16.5919720">
        <ele>2219.9</ele>
        <time>2020-11-11T19:03:38Z</time>
      </trkpt>
      <trkpt lat="28.2628120" lon="-16.5920650">
        <ele>2219.9</ele>
        <time>2020-11-11T19:03:39Z</time>
      </trkpt>
      <trkpt lat="28.2628120" lon="-16.5920650">
        <ele>2219.9</ele>
        <time>2020-11-11T19:03:40Z</time>
      </trkpt>
      <trkpt lat="28.2627170" lon="-16.5921450">
        <ele>2219.9</ele>
        <time>2020-11-11T19:03:41Z</time>
      </trkpt>
      <trkpt lat="28.2627170" lon="-16.5921450">
        <ele>2219.9</ele>
        <time>2020-11-11T19:03:42Z</time>
      </trkpt>
      <trkpt lat="28.2626120" lon="-16.5922030">
        <ele>2219.9</ele>
        <time>2020-11-11T19:03:43Z</time>
      </trkpt>
      <trkpt lat="28.2626120" lon="-16.5922030">
        <ele>2219.9</ele>
        <time>2020-11-11T19:03:44Z</time>
      </trkpt>
      <trkpt lat="28.2625020" lon="-16.5922380">
        <ele>2219.9</ele>
        <time>2020-11-11T19:03:45Z</time>
      </trkpt>
      <trkpt lat="28.2624470" lon="-16.5922500">
        <ele>2219.9</ele>
        <time>2020-11-11T19:03:46Z</time>
      </trkpt>
      <trkpt lat="28.2624470" lon="-16.5922500">
        <ele>2219.9</ele>
        <time>2020-11-11T19:03:47Z</time>
      </trkpt>
      <trkpt lat="28.2623350" lon="-16.5922630">
        <ele>2219.9</ele>
        <time>2020-11-11T19:03:48Z</time>
      </trkpt>
      <trkpt lat="28.2623350" lon="-16.5922630">
        <ele>2219.9</ele>
        <time>2020-11-11T19:03:49Z</time>
      </trkpt>
      <trkpt lat="28.2622180" lon="-16.5922800">
        <ele>2219.9</ele>
        <time>2020-11-11T19:03:50Z</time>
      </trkpt>
      <trkpt lat="28.2622180" lon="-16.5922800">
        <ele>2219.9</ele>
        <time>2020-11-11T19:03:51Z</time>
      </trkpt>
      <trkpt lat="28.2620970" lon="-16.5922980">
        <ele>2219.9</ele>
        <time>2020-11-11T19:03:52Z</time>
      </trkpt>
      <trkpt lat="28.2620380" lon="-16.5923100">
        <ele>2219.9</ele>
        <time>2020-11-11T19:03:53Z</time>
      </trkpt>
      <trkpt lat="28.2620380" lon="-16.5923100">
        <ele>2219.9</ele>
        <time>2020-11-11T19:03:54Z</time>
      </trkpt>
      <trkpt lat="28.2619230" lon="-16.5923300">
        <ele>2219.9</ele>
        <time>2020-11-11T19:03:55Z</time>
      </trkpt>
      <trkpt lat="28.2619230" lon="-16.5923300">
        <ele>2219.9</ele>
        <time>2020-11-11T19:03:56Z</time>
      </trkpt>
      <trkpt lat="28.2618030" lon="-16.5923530">
        <ele>2219.9</ele>
        <time>2020-11-11T19:03:57Z</time>
      </trkpt>
      <trkpt lat="28.2618030" lon="-16.5923530">
        <ele>2219.9</ele>
        <time>2020-11-11T19:03:58Z</time>
      </trkpt>
      <trkpt lat="28.2616920" lon="-16.5923800">
        <ele>2219.9</ele>
        <time>2020-11-11T19:03:59Z</time>
      </trkpt>
      <trkpt lat="28.2616920" lon="-16.5923800">
        <ele>2219.9</ele>
        <time>2020-11-11T19:04:00Z</time>
      </trkpt>
      <trkpt lat="28.2615870" lon="-16.5924270">
        <ele>2219.9</ele>
        <time>2020-11-11T19:04:01Z</time>
      </trkpt>
      <trkpt lat="28.2615870" lon="-16.5924270">
        <ele>2219.9</ele>
        <time>2020-11-11T19:04:02Z</time>
      </trkpt>
      <trkpt lat="28.2614900" lon="-16.5924880">
        <ele>2219.9</ele>
        <time>2020-11-11T19:04:03Z</time>
      </trkpt>
      <trkpt lat="28.2614900" lon="-16.5924880">
        <ele>2219.9</ele>
        <time>2020-11-11T19:04:04Z</time>
      </trkpt>
      <trkpt lat="28.2613930" lon="-16.5925580">
        <ele>2219.9</ele>
        <time>2020-11-11T19:04:05Z</time>
      </trkpt>
      <trkpt lat="28.2613930" lon="-16.5925580">
        <ele>2219.9</ele>
        <time>2020-11-11T19:04:06Z</time>
      </trkpt>
      <trkpt lat="28.2613000" lon="-16.5926280">
        <ele>2219.9</ele>
        <time>2020-11-11T19:04:07Z</time>
      </trkpt>
      <trkpt lat="28.2613000" lon="-16.5926280">
        <ele>2219.9</ele>
        <time>2020-11-11T19:04:08Z</time>
      </trkpt>
      <trkpt lat="28.2612030" lon="-16.5926950">
        <ele>2219.9</ele>
        <time>2020-11-11T19:04:09Z</time>
      </trkpt>
      <trkpt lat="28.2612030" lon="-16.5926950">
        <ele>2219.9</ele>
        <time>2020-11-11T19:04:10Z</time>
      </trkpt>
      <trkpt lat="28.2611070" lon="-16.5927650">
        <ele>2219.9</ele>
        <time>2020-11-11T19:04:11Z</time>
      </trkpt>
      <trkpt lat="28.2611070" lon="-16.5927650">
        <ele>2219.9</ele>
        <time>2020-11-11T19:04:12Z</time>
      </trkpt>
      <trkpt lat="28.2610120" lon="-16.5928350">
        <ele>2219.9</ele>
        <time>2020-11-11T19:04:13Z</time>
      </trkpt>
      <trkpt lat="28.2610120" lon="-16.5928350">
        <ele>2219.9</ele>
        <time>2020-11-11T19:04:14Z</time>
      </trkpt>
      <trkpt lat="28.2609180" lon="-16.5929080">
        <ele>2219.9</ele>
        <time>2020-11-11T19:04:15Z</time>
      </trkpt>
      <trkpt lat="28.2608700" lon="-16.5929430">
        <ele>2219.9</ele>
        <time>2020-11-11T19:04:16Z</time>
      </trkpt>
      <trkpt lat="28.2608700" lon="-16.5929430">
        <ele>2219.9</ele>
        <time>2020-11-11T19:04:17Z</time>
      </trkpt>
      <trkpt lat="28.2607720" lon="-16.5930130">
        <ele>2219.9</ele>
        <time>2020-11-11T19:04:18Z</time>
      </trkpt>
      <trkpt lat="28.2607720" lon="-16.5930130">
        <ele>2219.9</ele>
        <time>2020-11-11T19:04:19Z</time>
      </trkpt>
      <trkpt lat="28.2606780" lon="-16.5930800">
        <ele>2219.9</ele>
        <time>2020-11-11T19:04:20Z</time>
      </trkpt>
      <trkpt lat="28.2606320" lon="-16.5931120">
        <ele>2219.9</ele>
        <time>2020-11-11T19:04:21Z</time>
      </trkpt>
      <trkpt lat="28.2606320" lon="-16.5931120">
        <ele>2219.9</ele>
        <time>2020-11-11T19:04:22Z</time>
      </trkpt>
      <trkpt lat="28.2605430" lon="-16.5931780">
        <ele>2219.9</ele>
        <time>2020-11-11T19:04:23Z</time>
      </trkpt>
      <trkpt lat="28.2605430" lon="-16.5931780">
        <ele>2219.9</ele>
        <time>2020-11-11T19:04:24Z</time>
      </trkpt>
      <trkpt lat="28.2604580" lon="-16.5932470">
        <ele>2219.9</ele>
        <time>2020-11-11T19:04:25Z</time>
      </trkpt>
      <trkpt lat="28.2604580" lon="-16.5932470">
        <ele>2220.9</ele>
        <time>2020-11-11T19:04:26Z</time>
      </trkpt>
      <trkpt lat="28.2603920" lon="-16.5933220">
        <ele>2220.9</ele>
        <time>2020-11-11T19:04:27Z</time>
      </trkpt>
      <trkpt lat="28.2603920" lon="-16.5933220">
        <ele>2220.9</ele>
        <time>2020-11-11T19:04:28Z</time>
      </trkpt>
      <trkpt lat="28.2603480" lon="-16.5934030">
        <ele>2220.9</ele>
        <time>2020-11-11T19:04:29Z</time>
      </trkpt>
      <trkpt lat="28.2603480" lon="-16.5934030">
        <ele>2221.9</ele>
        <time>2020-11-11T19:04:30Z</time>
      </trkpt>
      <trkpt lat="28.2603220" lon="-16.5934980">
        <ele>2221.9</ele>
        <time>2020-11-11T19:04:31Z</time>
      </trkpt>
      <trkpt lat="28.2603220" lon="-16.5934980">
        <ele>2221.9</ele>
        <time>2020-11-11T19:04:32Z</time>
      </trkpt>
      <trkpt lat="28.2603130" lon="-16.5935880">
        <ele>2221.9</ele>
        <time>2020-11-11T19:04:33Z</time>
      </trkpt>
      <trkpt lat="28.2603130" lon="-16.5936300">
        <ele>2222.9</ele>
        <time>2020-11-11T19:04:34Z</time>
      </trkpt>
      <trkpt lat="28.2603130" lon="-16.5936300">
        <ele>2222.9</ele>
        <time>2020-11-11T19:04:35Z</time>
      </trkpt>
      <trkpt lat="28.2603200" lon="-16.5937100">
        <ele>2222.9</ele>
        <time>2020-11-11T19:04:36Z</time>
      </trkpt>
      <trkpt lat="28.2603200" lon="-16.5937100">
        <ele>2222.9</ele>
        <time>2020-11-11T19:04:37Z</time>
      </trkpt>
      <trkpt lat="28.2603170" lon="-16.5937770">
        <ele>2222.9</ele>
        <time>2020-11-11T19:04:38Z</time>
      </trkpt>
      <trkpt lat="28.2603170" lon="-16.5937770">
        <ele>2222.9</ele>
        <time>2020-11-11T19:04:39Z</time>
      </trkpt>
      <trkpt lat="28.2603170" lon="-16.5938430">
        <ele>2222.9</ele>
        <time>2020-11-11T19:04:40Z</time>
      </trkpt>
      <trkpt lat="28.2603170" lon="-16.5938430">
        <ele>2223.9</ele>
        <time>2020-11-11T19:04:41Z</time>
      </trkpt>
      <trkpt lat="28.2603200" lon="-16.5939080">
        <ele>2223.9</ele>
        <time>2020-11-11T19:04:42Z</time>
      </trkpt>
      <trkpt lat="28.2603200" lon="-16.5939080">
        <ele>2223.9</ele>
        <time>2020-11-11T19:04:43Z</time>
      </trkpt>
      <trkpt lat="28.2603220" lon="-16.5939750">
        <ele>2223.9</ele>
        <time>2020-11-11T19:04:44Z</time>
      </trkpt>
      <trkpt lat="28.2603220" lon="-16.5939750">
        <ele>2223.9</ele>
        <time>2020-11-11T19:04:45Z</time>
      </trkpt>
      <trkpt lat="28.2603250" lon="-16.5940400">
        <ele>2223.9</ele>
        <time>2020-11-11T19:04:46Z</time>
      </trkpt>
      <trkpt lat="28.2603230" lon="-16.5940730">
        <ele>2224.9</ele>
        <time>2020-11-11T19:04:47Z</time>
      </trkpt>
      <trkpt lat="28.2603230" lon="-16.5940730">
        <ele>2224.9</ele>
        <time>2020-11-11T19:04:48Z</time>
      </trkpt>
      <trkpt lat="28.2603200" lon="-16.5941400">
        <ele>2224.9</ele>
        <time>2020-11-11T19:04:49Z</time>
      </trkpt>
      <trkpt lat="28.2603200" lon="-16.5941400">
        <ele>2224.9</ele>
        <time>2020-11-11T19:04:50Z</time>
      </trkpt>
      <trkpt lat="28.2603170" lon="-16.5942030">
        <ele>2224.9</ele>
        <time>2020-11-11T19:04:51Z</time>
      </trkpt>
      <trkpt lat="28.2603170" lon="-16.5942030">
        <ele>2225.9</ele>
        <time>2020-11-11T19:04:52Z</time>
      </trkpt>
      <trkpt lat="28.2603200" lon="-16.5942600">
        <ele>2225.9</ele>
        <time>2020-11-11T19:04:53Z</time>
      </trkpt>
      <trkpt lat="28.2603200" lon="-16.5942600">
        <ele>2225.9</ele>
        <time>2020-11-11T19:04:54Z</time>
      </trkpt>
      <trkpt lat="28.2603220" lon="-16.5943230">
        <ele>2225.9</ele>
        <time>2020-11-11T19:04:55Z</time>
      </trkpt>
      <trkpt lat="28.2603220" lon="-16.5943230">
        <ele>2225.9</ele>
        <time>2020-11-11T19:04:56Z</time>
      </trkpt>
      <trkpt lat="28.2603230" lon="-16.5943930">
        <ele>2225.9</ele>
        <time>2020-11-11T19:04:57Z</time>
      </trkpt>
      <trkpt lat="28.2603230" lon="-16.5943930">
        <ele>2225.9</ele>
        <time>2020-11-11T19:04:58Z</time>
      </trkpt>
      <trkpt lat="28.2603280" lon="-16.5944580">
        <ele>2225.9</ele>
        <time>2020-11-11T19:04:59Z</time>
      </trkpt>
      <trkpt lat="28.2603280" lon="-16.5944580">
        <ele>2225.9</ele>
        <time>2020-11-11T19:05:00Z</time>
      </trkpt>
      <trkpt lat="28.2603330" lon="-16.5945230">
        <ele>2225.9</ele>
        <time>2020-11-11T19:05:01Z</time>
      </trkpt>
      <trkpt lat="28.2603330" lon="-16.5945230">
        <ele>2225.9</ele>
        <time>2020-11-11T19:05:02Z</time>
      </trkpt>
      <trkpt lat="28.2603430" lon="-16.5945880">
        <ele>2226.9</ele>
        <time>2020-11-11T19:05:03Z</time>
      </trkpt>
      <trkpt lat="28.2603430" lon="-16.5945880">
        <ele>2226.9</ele>
        <time>2020-11-11T19:05:04Z</time>
      </trkpt>
      <trkpt lat="28.2603670" lon="-16.5946500">
        <ele>2226.9</ele>
        <time>2020-11-11T19:05:05Z</time>
      </trkpt>
      <trkpt lat="28.2603670" lon="-16.5946500">
        <ele>2226.9</ele>
        <time>2020-11-11T19:05:06Z</time>
      </trkpt>
      <trkpt lat="28.2603920" lon="-16.5947100">
        <ele>2226.9</ele>
        <time>2020-11-11T19:05:07Z</time>
      </trkpt>
      <trkpt lat="28.2604050" lon="-16.5947400">
        <ele>2226.9</ele>
        <time>2020-11-11T19:05:08Z</time>
      </trkpt>
      <trkpt lat="28.2604050" lon="-16.5947400">
        <ele>2227.9</ele>
        <time>2020-11-11T19:05:09Z</time>
      </trkpt>
      <trkpt lat="28.2604350" lon="-16.5948020">
        <ele>2227.9</ele>
        <time>2020-11-11T19:05:10Z</time>
      </trkpt>
      <trkpt lat="28.2604350" lon="-16.5948020">
        <ele>2227.9</ele>
        <time>2020-11-11T19:05:11Z</time>
      </trkpt>
      <trkpt lat="28.2604670" lon="-16.5948620">
        <ele>2227.9</ele>
        <time>2020-11-11T19:05:12Z</time>
      </trkpt>
      <trkpt lat="28.2604830" lon="-16.5948930">
        <ele>2227.9</ele>
        <time>2020-11-11T19:05:13Z</time>
      </trkpt>
      <trkpt lat="28.2604830" lon="-16.5948930">
        <ele>2227.9</ele>
        <time>2020-11-11T19:05:14Z</time>
      </trkpt>
      <trkpt lat="28.2605120" lon="-16.5949520">
        <ele>2227.9</ele>
        <time>2020-11-11T19:05:15Z</time>
      </trkpt>
      <trkpt lat="28.2605280" lon="-16.5949780">
        <ele>2227.9</ele>
        <time>2020-11-11T19:05:16Z</time>
      </trkpt>
      <trkpt lat="28.2605430" lon="-16.5950020">
        <ele>2227.9</ele>
        <time>2020-11-11T19:05:17Z</time>
      </trkpt>
      <trkpt lat="28.2605430" lon="-16.5950020">
        <ele>2227.9</ele>
        <time>2020-11-11T19:05:18Z</time>
      </trkpt>
      <trkpt lat="28.2605850" lon="-16.5950470">
        <ele>2227.9</ele>
        <time>2020-11-11T19:05:19Z</time>
      </trkpt>
      <trkpt lat="28.2605850" lon="-16.5950470">
        <ele>2227.9</ele>
        <time>2020-11-11T19:05:20Z</time>
      </trkpt>
      <trkpt lat="28.2606280" lon="-16.5950980">
        <ele>2227.9</ele>
        <time>2020-11-11T19:05:21Z</time>
      </trkpt>
      <trkpt lat="28.2606500" lon="-16.5951230">
        <ele>2228.9</ele>
        <time>2020-11-11T19:05:22Z</time>
      </trkpt>
      <trkpt lat="28.2606500" lon="-16.5951230">
        <ele>2228.9</ele>
        <time>2020-11-11T19:05:23Z</time>
      </trkpt>
      <trkpt lat="28.2606920" lon="-16.5951770">
        <ele>2228.9</ele>
        <time>2020-11-11T19:05:24Z</time>
      </trkpt>
      <trkpt lat="28.2607120" lon="-16.5952030">
        <ele>2228.9</ele>
        <time>2020-11-11T19:05:25Z</time>
      </trkpt>
      <trkpt lat="28.2607120" lon="-16.5952030">
        <ele>2228.9</ele>
        <time>2020-11-11T19:05:26Z</time>
      </trkpt>
      <trkpt lat="28.2607480" lon="-16.5952580">
        <ele>2228.9</ele>
        <time>2020-11-11T19:05:27Z</time>
      </trkpt>
      <trkpt lat="28.2607480" lon="-16.5952580">
        <ele>2228.9</ele>
        <time>2020-11-11T19:05:28Z</time>
      </trkpt>
      <trkpt lat="28.2607830" lon="-16.5953100">
        <ele>2228.9</ele>
        <time>2020-11-11T19:05:29Z</time>
      </trkpt>
      <trkpt lat="28.2607830" lon="-16.5953100">
        <ele>2228.9</ele>
        <time>2020-11-11T19:05:30Z</time>
      </trkpt>
      <trkpt lat="28.2608200" lon="-16.5953650">
        <ele>2228.9</ele>
        <time>2020-11-11T19:05:31Z</time>
      </trkpt>
      <trkpt lat="28.2608200" lon="-16.5953650">
        <ele>2228.9</ele>
        <time>2020-11-11T19:05:32Z</time>
      </trkpt>
      <trkpt lat="28.2608500" lon="-16.5954200">
        <ele>2228.9</ele>
        <time>2020-11-11T19:05:33Z</time>
      </trkpt>
      <trkpt lat="28.2608500" lon="-16.5954200">
        <ele>2228.9</ele>
        <time>2020-11-11T19:05:34Z</time>
      </trkpt>
      <trkpt lat="28.2608850" lon="-16.5954770">
        <ele>2228.9</ele>
        <time>2020-11-11T19:05:35Z</time>
      </trkpt>
      <trkpt lat="28.2608850" lon="-16.5954770">
        <ele>2228.9</ele>
        <time>2020-11-11T19:05:36Z</time>
      </trkpt>
      <trkpt lat="28.2609220" lon="-16.5955330">
        <ele>2228.9</ele>
        <time>2020-11-11T19:05:37Z</time>
      </trkpt>
      <trkpt lat="28.2609220" lon="-16.5955330">
        <ele>2229.9</ele>
        <time>2020-11-11T19:05:38Z</time>
      </trkpt>
      <trkpt lat="28.2609600" lon="-16.5955900">
        <ele>2229.9</ele>
        <time>2020-11-11T19:05:39Z</time>
      </trkpt>
      <trkpt lat="28.2609600" lon="-16.5955900">
        <ele>2229.9</ele>
        <time>2020-11-11T19:05:40Z</time>
      </trkpt>
      <trkpt lat="28.2610000" lon="-16.5956450">
        <ele>2229.9</ele>
        <time>2020-11-11T19:05:41Z</time>
      </trkpt>
      <trkpt lat="28.2610000" lon="-16.5956450">
        <ele>2229.9</ele>
        <time>2020-11-11T19:05:42Z</time>
      </trkpt>
      <trkpt lat="28.2610420" lon="-16.5956980">
        <ele>2229.9</ele>
        <time>2020-11-11T19:05:43Z</time>
      </trkpt>
      <trkpt lat="28.2610420" lon="-16.5956980">
        <ele>2229.9</ele>
        <time>2020-11-11T19:05:44Z</time>
      </trkpt>
      <trkpt lat="28.2610880" lon="-16.5957500">
        <ele>2229.9</ele>
        <time>2020-11-11T19:05:45Z</time>
      </trkpt>
      <trkpt lat="28.2610880" lon="-16.5957500">
        <ele>2229.9</ele>
        <time>2020-11-11T19:05:46Z</time>
      </trkpt>
      <trkpt lat="28.2611420" lon="-16.5957970">
        <ele>2229.9</ele>
        <time>2020-11-11T19:05:47Z</time>
      </trkpt>
      <trkpt lat="28.2611420" lon="-16.5957970">
        <ele>2229.9</ele>
        <time>2020-11-11T19:05:48Z</time>
      </trkpt>
      <trkpt lat="28.2611970" lon="-16.5958380">
        <ele>2229.9</ele>
        <time>2020-11-11T19:05:49Z</time>
      </trkpt>
      <trkpt lat="28.2611970" lon="-16.5958380">
        <ele>2230.9</ele>
        <time>2020-11-11T19:05:50Z</time>
      </trkpt>
      <trkpt lat="28.2612530" lon="-16.5958780">
        <ele>2230.9</ele>
        <time>2020-11-11T19:05:51Z</time>
      </trkpt>
      <trkpt lat="28.2612800" lon="-16.5958980">
        <ele>2230.9</ele>
        <time>2020-11-11T19:05:52Z</time>
      </trkpt>
      <trkpt lat="28.2612800" lon="-16.5958980">
        <ele>2230.9</ele>
        <time>2020-11-11T19:05:53Z</time>
      </trkpt>
      <trkpt lat="28.2613330" lon="-16.5959350">
        <ele>2230.9</ele>
        <time>2020-11-11T19:05:54Z</time>
      </trkpt>
      <trkpt lat="28.2613580" lon="-16.5959550">
        <ele>2230.9</ele>
        <time>2020-11-11T19:05:55Z</time>
      </trkpt>
      <trkpt lat="28.2613580" lon="-16.5959550">
        <ele>2230.9</ele>
        <time>2020-11-11T19:05:56Z</time>
      </trkpt>
      <trkpt lat="28.2614070" lon="-16.5960000">
        <ele>2230.9</ele>
        <time>2020-11-11T19:05:57Z</time>
      </trkpt>
      <trkpt lat="28.2614070" lon="-16.5960000">
        <ele>2230.9</ele>
        <time>2020-11-11T19:05:58Z</time>
      </trkpt>
      <trkpt lat="28.2614570" lon="-16.5960430">
        <ele>2230.9</ele>
        <time>2020-11-11T19:05:59Z</time>
      </trkpt>
      <trkpt lat="28.2614570" lon="-16.5960430">
        <ele>2230.9</ele>
        <time>2020-11-11T19:06:00Z</time>
      </trkpt>
      <trkpt lat="28.2615070" lon="-16.5960870">
        <ele>2230.9</ele>
        <time>2020-11-11T19:06:01Z</time>
      </trkpt>
      <trkpt lat="28.2615070" lon="-16.5960870">
        <ele>2231.9</ele>
        <time>2020-11-11T19:06:02Z</time>
      </trkpt>
      <trkpt lat="28.2615520" lon="-16.5961380">
        <ele>2231.9</ele>
        <time>2020-11-11T19:06:03Z</time>
      </trkpt>
      <trkpt lat="28.2615520" lon="-16.5961380">
        <ele>2231.9</ele>
        <time>2020-11-11T19:06:04Z</time>
      </trkpt>
      <trkpt lat="28.2615850" lon="-16.5962020">
        <ele>2231.9</ele>
        <time>2020-11-11T19:06:05Z</time>
      </trkpt>
      <trkpt lat="28.2615850" lon="-16.5962020">
        <ele>2231.9</ele>
        <time>2020-11-11T19:06:06Z</time>
      </trkpt>
      <trkpt lat="28.2616050" lon="-16.5962770">
        <ele>2231.9</ele>
        <time>2020-11-11T19:06:07Z</time>
      </trkpt>
      <trkpt lat="28.2616050" lon="-16.5962770">
        <ele>2231.9</ele>
        <time>2020-11-11T19:06:08Z</time>
      </trkpt>
      <trkpt lat="28.2616180" lon="-16.5963550">
        <ele>2231.9</ele>
        <time>2020-11-11T19:06:09Z</time>
      </trkpt>
      <trkpt lat="28.2616180" lon="-16.5963550">
        <ele>2231.9</ele>
        <time>2020-11-11T19:06:10Z</time>
      </trkpt>
      <trkpt lat="28.2616170" lon="-16.5964400">
        <ele>2231.9</ele>
        <time>2020-11-11T19:06:11Z</time>
      </trkpt>
      <trkpt lat="28.2616170" lon="-16.5964400">
        <ele>2231.9</ele>
        <time>2020-11-11T19:06:12Z</time>
      </trkpt>
      <trkpt lat="28.2615980" lon="-16.5965230">
        <ele>2231.9</ele>
        <time>2020-11-11T19:06:13Z</time>
      </trkpt>
      <trkpt lat="28.2615980" lon="-16.5965230">
        <ele>2231.9</ele>
        <time>2020-11-11T19:06:14Z</time>
      </trkpt>
      <trkpt lat="28.2615620" lon="-16.5966100">
        <ele>2231.9</ele>
        <time>2020-11-11T19:06:15Z</time>
      </trkpt>
      <trkpt lat="28.2615620" lon="-16.5966100">
        <ele>2231.9</ele>
        <time>2020-11-11T19:06:16Z</time>
      </trkpt>
      <trkpt lat="28.2615180" lon="-16.5966900">
        <ele>2231.9</ele>
        <time>2020-11-11T19:06:17Z</time>
      </trkpt>
      <trkpt lat="28.2615180" lon="-16.5966900">
        <ele>2231.9</ele>
        <time>2020-11-11T19:06:18Z</time>
      </trkpt>
      <trkpt lat="28.2614630" lon="-16.5967500">
        <ele>2231.9</ele>
        <time>2020-11-11T19:06:19Z</time>
      </trkpt>
      <trkpt lat="28.2614630" lon="-16.5967500">
        <ele>2231.9</ele>
        <time>2020-11-11T19:06:20Z</time>
      </trkpt>
      <trkpt lat="28.2613900" lon="-16.5967880">
        <ele>2231.9</ele>
        <time>2020-11-11T19:06:21Z</time>
      </trkpt>
      <trkpt lat="28.2613900" lon="-16.5967880">
        <ele>2231.9</ele>
        <time>2020-11-11T19:06:22Z</time>
      </trkpt>
      <trkpt lat="28.2613170" lon="-16.5968220">
        <ele>2231.9</ele>
        <time>2020-11-11T19:06:23Z</time>
      </trkpt>
      <trkpt lat="28.2613170" lon="-16.5968220">
        <ele>2231.9</ele>
        <time>2020-11-11T19:06:24Z</time>
      </trkpt>
      <trkpt lat="28.2612420" lon="-16.5968520">
        <ele>2231.9</ele>
        <time>2020-11-11T19:06:25Z</time>
      </trkpt>
      <trkpt lat="28.2612420" lon="-16.5968520">
        <ele>2232.9</ele>
        <time>2020-11-11T19:06:26Z</time>
      </trkpt>
      <trkpt lat="28.2611650" lon="-16.5968750">
        <ele>2232.9</ele>
        <time>2020-11-11T19:06:27Z</time>
      </trkpt>
      <trkpt lat="28.2611650" lon="-16.5968750">
        <ele>2232.9</ele>
        <time>2020-11-11T19:06:28Z</time>
      </trkpt>
      <trkpt lat="28.2610920" lon="-16.5968880">
        <ele>2232.9</ele>
        <time>2020-11-11T19:06:29Z</time>
      </trkpt>
      <trkpt lat="28.2610920" lon="-16.5968880">
        <ele>2232.9</ele>
        <time>2020-11-11T19:06:30Z</time>
      </trkpt>
      <trkpt lat="28.2610200" lon="-16.5968980">
        <ele>2232.9</ele>
        <time>2020-11-11T19:06:31Z</time>
      </trkpt>
      <trkpt lat="28.2609850" lon="-16.5969070">
        <ele>2232.9</ele>
        <time>2020-11-11T19:06:32Z</time>
      </trkpt>
      <trkpt lat="28.2609850" lon="-16.5969070">
        <ele>2232.9</ele>
        <time>2020-11-11T19:06:33Z</time>
      </trkpt>
      <trkpt lat="28.2609130" lon="-16.5969230">
        <ele>2233.9</ele>
        <time>2020-11-11T19:06:34Z</time>
      </trkpt>
      <trkpt lat="28.2609130" lon="-16.5969230">
        <ele>2233.9</ele>
        <time>2020-11-11T19:06:35Z</time>
      </trkpt>
      <trkpt lat="28.2608350" lon="-16.5969280">
        <ele>2233.9</ele>
        <time>2020-11-11T19:06:36Z</time>
      </trkpt>
      <trkpt lat="28.2607950" lon="-16.5969280">
        <ele>2233.9</ele>
        <time>2020-11-11T19:06:37Z</time>
      </trkpt>
      <trkpt lat="28.2607950" lon="-16.5969280">
        <ele>2233.9</ele>
        <time>2020-11-11T19:06:38Z</time>
      </trkpt>
      <trkpt lat="28.2607150" lon="-16.5969300">
        <ele>2233.9</ele>
        <time>2020-11-11T19:06:39Z</time>
      </trkpt>
      <trkpt lat="28.2607150" lon="-16.5969300">
        <ele>2233.9</ele>
        <time>2020-11-11T19:06:40Z</time>
      </trkpt>
      <trkpt lat="28.2606420" lon="-16.5969400">
        <ele>2233.9</ele>
        <time>2020-11-11T19:06:41Z</time>
      </trkpt>
      <trkpt lat="28.2606050" lon="-16.5969480">
        <ele>2233.9</ele>
        <time>2020-11-11T19:06:42Z</time>
      </trkpt>
      <trkpt lat="28.2606050" lon="-16.5969480">
        <ele>2233.9</ele>
        <time>2020-11-11T19:06:43Z</time>
      </trkpt>
      <trkpt lat="28.2605300" lon="-16.5969730">
        <ele>2233.9</ele>
        <time>2020-11-11T19:06:44Z</time>
      </trkpt>
      <trkpt lat="28.2605300" lon="-16.5969730">
        <ele>2233.9</ele>
        <time>2020-11-11T19:06:45Z</time>
      </trkpt>
      <trkpt lat="28.2604580" lon="-16.5969930">
        <ele>2233.9</ele>
        <time>2020-11-11T19:06:46Z</time>
      </trkpt>
      <trkpt lat="28.2604230" lon="-16.5970030">
        <ele>2234.9</ele>
        <time>2020-11-11T19:06:47Z</time>
      </trkpt>
      <trkpt lat="28.2604230" lon="-16.5970030">
        <ele>2234.9</ele>
        <time>2020-11-11T19:06:48Z</time>
      </trkpt>
      <trkpt lat="28.2603550" lon="-16.5970170">
        <ele>2234.9</ele>
        <time>2020-11-11T19:06:49Z</time>
      </trkpt>
      <trkpt lat="28.2603550" lon="-16.5970170">
        <ele>2234.9</ele>
        <time>2020-11-11T19:06:50Z</time>
      </trkpt>
      <trkpt lat="28.2602850" lon="-16.5970350">
        <ele>2234.9</ele>
        <time>2020-11-11T19:06:51Z</time>
      </trkpt>
      <trkpt lat="28.2602520" lon="-16.5970470">
        <ele>2234.9</ele>
        <time>2020-11-11T19:06:52Z</time>
      </trkpt>
      <trkpt lat="28.2602520" lon="-16.5970470">
        <ele>2234.9</ele>
        <time>2020-11-11T19:06:53Z</time>
      </trkpt>
      <trkpt lat="28.2601850" lon="-16.5970780">
        <ele>2234.9</ele>
        <time>2020-11-11T19:06:54Z</time>
      </trkpt>
      <trkpt lat="28.2601850" lon="-16.5970780">
        <ele>2234.9</ele>
        <time>2020-11-11T19:06:55Z</time>
      </trkpt>
      <trkpt lat="28.2601220" lon="-16.5971230">
        <ele>2234.9</ele>
        <time>2020-11-11T19:06:56Z</time>
      </trkpt>
      <trkpt lat="28.2601220" lon="-16.5971230">
        <ele>2234.9</ele>
        <time>2020-11-11T19:06:57Z</time>
      </trkpt>
      <trkpt lat="28.2600650" lon="-16.5971750">
        <ele>2234.9</ele>
        <time>2020-11-11T19:06:58Z</time>
      </trkpt>
      <trkpt lat="28.2600650" lon="-16.5971750">
        <ele>2234.9</ele>
        <time>2020-11-11T19:06:59Z</time>
      </trkpt>
      <trkpt lat="28.2600120" lon="-16.5972330">
        <ele>2234.9</ele>
        <time>2020-11-11T19:07:00Z</time>
      </trkpt>
      <trkpt lat="28.2599830" lon="-16.5972630">
        <ele>2234.9</ele>
        <time>2020-11-11T19:07:01Z</time>
      </trkpt>
      <trkpt lat="28.2599830" lon="-16.5972630">
        <ele>2234.9</ele>
        <time>2020-11-11T19:07:02Z</time>
      </trkpt>
      <trkpt lat="28.2599280" lon="-16.5973250">
        <ele>2234.9</ele>
        <time>2020-11-11T19:07:03Z</time>
      </trkpt>
      <trkpt lat="28.2599280" lon="-16.5973250">
        <ele>2234.9</ele>
        <time>2020-11-11T19:07:04Z</time>
      </trkpt>
      <trkpt lat="28.2598750" lon="-16.5973880">
        <ele>2234.9</ele>
        <time>2020-11-11T19:07:05Z</time>
      </trkpt>
      <trkpt lat="28.2598750" lon="-16.5973880">
        <ele>2234.9</ele>
        <time>2020-11-11T19:07:06Z</time>
      </trkpt>
      <trkpt lat="28.2598220" lon="-16.5974530">
        <ele>2234.9</ele>
        <time>2020-11-11T19:07:07Z</time>
      </trkpt>
      <trkpt lat="28.2598220" lon="-16.5974530">
        <ele>2234.9</ele>
        <time>2020-11-11T19:07:08Z</time>
      </trkpt>
      <trkpt lat="28.2597650" lon="-16.5975130">
        <ele>2234.9</ele>
        <time>2020-11-11T19:07:09Z</time>
      </trkpt>
      <trkpt lat="28.2597650" lon="-16.5975130">
        <ele>2234.9</ele>
        <time>2020-11-11T19:07:10Z</time>
      </trkpt>
      <trkpt lat="28.2597100" lon="-16.5975730">
        <ele>2234.9</ele>
        <time>2020-11-11T19:07:11Z</time>
      </trkpt>
      <trkpt lat="28.2597100" lon="-16.5975730">
        <ele>2234.9</ele>
        <time>2020-11-11T19:07:12Z</time>
      </trkpt>
      <trkpt lat="28.2596550" lon="-16.5976370">
        <ele>2235.9</ele>
        <time>2020-11-11T19:07:13Z</time>
      </trkpt>
      <trkpt lat="28.2596550" lon="-16.5976370">
        <ele>2235.9</ele>
        <time>2020-11-11T19:07:14Z</time>
      </trkpt>
      <trkpt lat="28.2596020" lon="-16.5976970">
        <ele>2235.9</ele>
        <time>2020-11-11T19:07:15Z</time>
      </trkpt>
      <trkpt lat="28.2596020" lon="-16.5976970">
        <ele>2235.9</ele>
        <time>2020-11-11T19:07:16Z</time>
      </trkpt>
      <trkpt lat="28.2595470" lon="-16.5977570">
        <ele>2235.9</ele>
        <time>2020-11-11T19:07:17Z</time>
      </trkpt>
      <trkpt lat="28.2595470" lon="-16.5977570">
        <ele>2235.9</ele>
        <time>2020-11-11T19:07:18Z</time>
      </trkpt>
      <trkpt lat="28.2594920" lon="-16.5978150">
        <ele>2235.9</ele>
        <time>2020-11-11T19:07:19Z</time>
      </trkpt>
      <trkpt lat="28.2594920" lon="-16.5978150">
        <ele>2235.9</ele>
        <time>2020-11-11T19:07:20Z</time>
      </trkpt>
      <trkpt lat="28.2594350" lon="-16.5978730">
        <ele>2235.9</ele>
        <time>2020-11-11T19:07:21Z</time>
      </trkpt>
      <trkpt lat="28.2594350" lon="-16.5978730">
        <ele>2235.9</ele>
        <time>2020-11-11T19:07:22Z</time>
      </trkpt>
      <trkpt lat="28.2593830" lon="-16.5979370">
        <ele>2235.9</ele>
        <time>2020-11-11T19:07:23Z</time>
      </trkpt>
      <trkpt lat="28.2593830" lon="-16.5979370">
        <ele>2235.9</ele>
        <time>2020-11-11T19:07:24Z</time>
      </trkpt>
      <trkpt lat="28.2593400" lon="-16.5980100">
        <ele>2235.9</ele>
        <time>2020-11-11T19:07:25Z</time>
      </trkpt>
      <trkpt lat="28.2593400" lon="-16.5980100">
        <ele>2235.9</ele>
        <time>2020-11-11T19:07:26Z</time>
      </trkpt>
      <trkpt lat="28.2593030" lon="-16.5980850">
        <ele>2236.9</ele>
        <time>2020-11-11T19:07:27Z</time>
      </trkpt>
      <trkpt lat="28.2593030" lon="-16.5980850">
        <ele>2236.9</ele>
        <time>2020-11-11T19:07:28Z</time>
      </trkpt>
      <trkpt lat="28.2592730" lon="-16.5981630">
        <ele>2236.9</ele>
        <time>2020-11-11T19:07:29Z</time>
      </trkpt>
      <trkpt lat="28.2592600" lon="-16.5982030">
        <ele>2236.9</ele>
        <time>2020-11-11T19:07:30Z</time>
      </trkpt>
      <trkpt lat="28.2592600" lon="-16.5982030">
        <ele>2236.9</ele>
        <time>2020-11-11T19:07:31Z</time>
      </trkpt>
      <trkpt lat="28.2592400" lon="-16.5982830">
        <ele>2236.9</ele>
        <time>2020-11-11T19:07:32Z</time>
      </trkpt>
      <trkpt lat="28.2592400" lon="-16.5982830">
        <ele>2236.9</ele>
        <time>2020-11-11T19:07:33Z</time>
      </trkpt>
      <trkpt lat="28.2592250" lon="-16.5983630">
        <ele>2236.9</ele>
        <time>2020-11-11T19:07:34Z</time>
      </trkpt>
      <trkpt lat="28.2592180" lon="-16.5984020">
        <ele>2236.9</ele>
        <time>2020-11-11T19:07:35Z</time>
      </trkpt>
      <trkpt lat="28.2592180" lon="-16.5984020">
        <ele>2237.9</ele>
        <time>2020-11-11T19:07:36Z</time>
      </trkpt>
      <trkpt lat="28.2592080" lon="-16.5984770">
        <ele>2237.9</ele>
        <time>2020-11-11T19:07:37Z</time>
      </trkpt>
      <trkpt lat="28.2592080" lon="-16.5984770">
        <ele>2237.9</ele>
        <time>2020-11-11T19:07:38Z</time>
      </trkpt>
      <trkpt lat="28.2591920" lon="-16.5985430">
        <ele>2237.9</ele>
        <time>2020-11-11T19:07:39Z</time>
      </trkpt>
      <trkpt lat="28.2591920" lon="-16.5985430">
        <ele>2237.9</ele>
        <time>2020-11-11T19:07:40Z</time>
      </trkpt>
      <trkpt lat="28.2591770" lon="-16.5986100">
        <ele>2237.9</ele>
        <time>2020-11-11T19:07:41Z</time>
      </trkpt>
      <trkpt lat="28.2591770" lon="-16.5986100">
        <ele>2237.9</ele>
        <time>2020-11-11T19:07:42Z</time>
      </trkpt>
      <trkpt lat="28.2591620" lon="-16.5986730">
        <ele>2238.9</ele>
        <time>2020-11-11T19:07:43Z</time>
      </trkpt>
      <trkpt lat="28.2591620" lon="-16.5986730">
        <ele>2238.9</ele>
        <time>2020-11-11T19:07:44Z</time>
      </trkpt>
      <trkpt lat="28.2591420" lon="-16.5987280">
        <ele>2238.9</ele>
        <time>2020-11-11T19:07:45Z</time>
      </trkpt>
      <trkpt lat="28.2591330" lon="-16.5987550">
        <ele>2238.9</ele>
        <time>2020-11-11T19:07:46Z</time>
      </trkpt>
      <trkpt lat="28.2591330" lon="-16.5987550">
        <ele>2238.9</ele>
        <time>2020-11-11T19:07:47Z</time>
      </trkpt>
      <trkpt lat="28.2591280" lon="-16.5988120">
        <ele>2238.9</ele>
        <time>2020-11-11T19:07:48Z</time>
      </trkpt>
      <trkpt lat="28.2591220" lon="-16.5988400">
        <ele>2239.9</ele>
        <time>2020-11-11T19:07:49Z</time>
      </trkpt>
      <trkpt lat="28.2591220" lon="-16.5988400">
        <ele>2239.9</ele>
        <time>2020-11-11T19:07:50Z</time>
      </trkpt>
      <trkpt lat="28.2591080" lon="-16.5988950">
        <ele>2239.9</ele>
        <time>2020-11-11T19:07:51Z</time>
      </trkpt>
      <trkpt lat="28.2591080" lon="-16.5988950">
        <ele>2239.9</ele>
        <time>2020-11-11T19:07:52Z</time>
      </trkpt>
      <trkpt lat="28.2590970" lon="-16.5989470">
        <ele>2239.9</ele>
        <time>2020-11-11T19:07:53Z</time>
      </trkpt>
      <trkpt lat="28.2590970" lon="-16.5989470">
        <ele>2239.9</ele>
        <time>2020-11-11T19:07:54Z</time>
      </trkpt>
      <trkpt lat="28.2590830" lon="-16.5989970">
        <ele>2239.9</ele>
        <time>2020-11-11T19:07:55Z</time>
      </trkpt>
      <trkpt lat="28.2590830" lon="-16.5989970">
        <ele>2239.9</ele>
        <time>2020-11-11T19:07:56Z</time>
      </trkpt>
      <trkpt lat="28.2590770" lon="-16.5990470">
        <ele>2239.9</ele>
        <time>2020-11-11T19:07:57Z</time>
      </trkpt>
      <trkpt lat="28.2590770" lon="-16.5990470">
        <ele>2240.9</ele>
        <time>2020-11-11T19:07:58Z</time>
      </trkpt>
      <trkpt lat="28.2590630" lon="-16.5991000">
        <ele>2240.9</ele>
        <time>2020-11-11T19:07:59Z</time>
      </trkpt>
      <trkpt lat="28.2590630" lon="-16.5991000">
        <ele>2240.9</ele>
        <time>2020-11-11T19:08:00Z</time>
      </trkpt>
      <trkpt lat="28.2590550" lon="-16.5991520">
        <ele>2240.9</ele>
        <time>2020-11-11T19:08:01Z</time>
      </trkpt>
      <trkpt lat="28.2590550" lon="-16.5991520">
        <ele>2240.9</ele>
        <time>2020-11-11T19:08:02Z</time>
      </trkpt>
      <trkpt lat="28.2590520" lon="-16.5992000">
        <ele>2240.9</ele>
        <time>2020-11-11T19:08:03Z</time>
      </trkpt>
      <trkpt lat="28.2590480" lon="-16.5992250">
        <ele>2241.9</ele>
        <time>2020-11-11T19:08:04Z</time>
      </trkpt>
      <trkpt lat="28.2590480" lon="-16.5992250">
        <ele>2241.9</ele>
        <time>2020-11-11T19:08:05Z</time>
      </trkpt>
      <trkpt lat="28.2590450" lon="-16.5992730">
        <ele>2241.9</ele>
        <time>2020-11-11T19:08:06Z</time>
      </trkpt>
      <trkpt lat="28.2590480" lon="-16.5992980">
        <ele>2241.9</ele>
        <time>2020-11-11T19:08:07Z</time>
      </trkpt>
      <trkpt lat="28.2590480" lon="-16.5992980">
        <ele>2241.9</ele>
        <time>2020-11-11T19:08:08Z</time>
      </trkpt>
      <trkpt lat="28.2590570" lon="-16.5993480">
        <ele>2241.9</ele>
        <time>2020-11-11T19:08:09Z</time>
      </trkpt>
      <trkpt lat="28.2590600" lon="-16.5993720">
        <ele>2241.9</ele>
        <time>2020-11-11T19:08:10Z</time>
      </trkpt>
      <trkpt lat="28.2590600" lon="-16.5993720">
        <ele>2241.9</ele>
        <time>2020-11-11T19:08:11Z</time>
      </trkpt>
      <trkpt lat="28.2590700" lon="-16.5994200">
        <ele>2242.9</ele>
        <time>2020-11-11T19:08:12Z</time>
      </trkpt>
      <trkpt lat="28.2590770" lon="-16.5994450">
        <ele>2242.9</ele>
        <time>2020-11-11T19:08:13Z</time>
      </trkpt>
      <trkpt lat="28.2590770" lon="-16.5994450">
        <ele>2242.9</ele>
        <time>2020-11-11T19:08:14Z</time>
      </trkpt>
      <trkpt lat="28.2590930" lon="-16.5994900">
        <ele>2242.9</ele>
        <time>2020-11-11T19:08:15Z</time>
      </trkpt>
      <trkpt lat="28.2590930" lon="-16.5994900">
        <ele>2242.9</ele>
        <time>2020-11-11T19:08:16Z</time>
      </trkpt>
      <trkpt lat="28.2591100" lon="-16.5995330">
        <ele>2242.9</ele>
        <time>2020-11-11T19:08:17Z</time>
      </trkpt>
      <trkpt lat="28.2591100" lon="-16.5995330">
        <ele>2242.9</ele>
        <time>2020-11-11T19:08:18Z</time>
      </trkpt>
      <trkpt lat="28.2591330" lon="-16.5995700">
        <ele>2242.9</ele>
        <time>2020-11-11T19:08:19Z</time>
      </trkpt>
      <trkpt lat="28.2591430" lon="-16.5995880">
        <ele>2243.9</ele>
        <time>2020-11-11T19:08:20Z</time>
      </trkpt>
      <trkpt lat="28.2591430" lon="-16.5995880">
        <ele>2243.9</ele>
        <time>2020-11-11T19:08:21Z</time>
      </trkpt>
      <trkpt lat="28.2591720" lon="-16.5996230">
        <ele>2243.9</ele>
        <time>2020-11-11T19:08:22Z</time>
      </trkpt>
      <trkpt lat="28.2591830" lon="-16.5996420">
        <ele>2243.9</ele>
        <time>2020-11-11T19:08:23Z</time>
      </trkpt>
      <trkpt lat="28.2591830" lon="-16.5996420">
        <ele>2243.9</ele>
        <time>2020-11-11T19:08:24Z</time>
      </trkpt>
      <trkpt lat="28.2592020" lon="-16.5996820">
        <ele>2243.9</ele>
        <time>2020-11-11T19:08:25Z</time>
      </trkpt>
      <trkpt lat="28.2592020" lon="-16.5996820">
        <ele>2244.9</ele>
        <time>2020-11-11T19:08:26Z</time>
      </trkpt>
      <trkpt lat="28.2592250" lon="-16.5997230">
        <ele>2244.9</ele>
        <time>2020-11-11T19:08:27Z</time>
      </trkpt>
      <trkpt lat="28.2592250" lon="-16.5997230">
        <ele>2244.9</ele>
        <time>2020-11-11T19:08:28Z</time>
      </trkpt>
      <trkpt lat="28.2592400" lon="-16.5997700">
        <ele>2244.9</ele>
        <time>2020-11-11T19:08:29Z</time>
      </trkpt>
      <trkpt lat="28.2592400" lon="-16.5997700">
        <ele>2244.9</ele>
        <time>2020-11-11T19:08:30Z</time>
      </trkpt>
      <trkpt lat="28.2592580" lon="-16.5998050">
        <ele>2244.9</ele>
        <time>2020-11-11T19:08:31Z</time>
      </trkpt>
      <trkpt lat="28.2592650" lon="-16.5998200">
        <ele>2244.9</ele>
        <time>2020-11-11T19:08:32Z</time>
      </trkpt>
      <trkpt lat="28.2592650" lon="-16.5998200">
        <ele>2245.9</ele>
        <time>2020-11-11T19:08:33Z</time>
      </trkpt>
      <trkpt lat="28.2592850" lon="-16.5998520">
        <ele>2245.9</ele>
        <time>2020-11-11T19:08:34Z</time>
      </trkpt>
      <trkpt lat="28.2592850" lon="-16.5998520">
        <ele>2245.9</ele>
        <time>2020-11-11T19:08:35Z</time>
      </trkpt>
      <trkpt lat="28.2593070" lon="-16.5998880">
        <ele>2245.9</ele>
        <time>2020-11-11T19:08:36Z</time>
      </trkpt>
      <trkpt lat="28.2593170" lon="-16.5999100">
        <ele>2245.9</ele>
        <time>2020-11-11T19:08:37Z</time>
      </trkpt>
      <trkpt lat="28.2593170" lon="-16.5999100">
        <ele>2245.9</ele>
        <time>2020-11-11T19:08:38Z</time>
      </trkpt>
      <trkpt lat="28.2593430" lon="-16.5999530">
        <ele>2245.9</ele>
        <time>2020-11-11T19:08:39Z</time>
      </trkpt>
      <trkpt lat="28.2593430" lon="-16.5999530">
        <ele>2245.9</ele>
        <time>2020-11-11T19:08:40Z</time>
      </trkpt>
      <trkpt lat="28.2593650" lon="-16.6000000">
        <ele>2246.9</ele>
        <time>2020-11-11T19:08:41Z</time>
      </trkpt>
      <trkpt lat="28.2593650" lon="-16.6000000">
        <ele>2246.9</ele>
        <time>2020-11-11T19:08:42Z</time>
      </trkpt>
      <trkpt lat="28.2593870" lon="-16.6000420">
        <ele>2246.9</ele>
        <time>2020-11-11T19:08:43Z</time>
      </trkpt>
      <trkpt lat="28.2593870" lon="-16.6000420">
        <ele>2246.9</ele>
        <time>2020-11-11T19:08:44Z</time>
      </trkpt>
      <trkpt lat="28.2593980" lon="-16.6000870">
        <ele>2246.9</ele>
        <time>2020-11-11T19:08:45Z</time>
      </trkpt>
      <trkpt lat="28.2593980" lon="-16.6000870">
        <ele>2246.9</ele>
        <time>2020-11-11T19:08:46Z</time>
      </trkpt>
      <trkpt lat="28.2594220" lon="-16.6001270">
        <ele>2246.9</ele>
        <time>2020-11-11T19:08:47Z</time>
      </trkpt>
      <trkpt lat="28.2594220" lon="-16.6001270">
        <ele>2246.9</ele>
        <time>2020-11-11T19:08:48Z</time>
      </trkpt>
      <trkpt lat="28.2594520" lon="-16.6001630">
        <ele>2247.9</ele>
        <time>2020-11-11T19:08:49Z</time>
      </trkpt>
      <trkpt lat="28.2594520" lon="-16.6001630">
        <ele>2247.9</ele>
        <time>2020-11-11T19:08:50Z</time>
      </trkpt>
      <trkpt lat="28.2594750" lon="-16.6002020">
        <ele>2247.9</ele>
        <time>2020-11-11T19:08:51Z</time>
      </trkpt>
      <trkpt lat="28.2594750" lon="-16.6002020">
        <ele>2247.9</ele>
        <time>2020-11-11T19:08:52Z</time>
      </trkpt>
      <trkpt lat="28.2594970" lon="-16.6002400">
        <ele>2247.9</ele>
        <time>2020-11-11T19:08:53Z</time>
      </trkpt>
      <trkpt lat="28.2594970" lon="-16.6002400">
        <ele>2247.9</ele>
        <time>2020-11-11T19:08:54Z</time>
      </trkpt>
      <trkpt lat="28.2595180" lon="-16.6002820">
        <ele>2247.9</ele>
        <time>2020-11-11T19:08:55Z</time>
      </trkpt>
      <trkpt lat="28.2595180" lon="-16.6002820">
        <ele>2247.9</ele>
        <time>2020-11-11T19:08:56Z</time>
      </trkpt>
      <trkpt lat="28.2595380" lon="-16.6003170">
        <ele>2247.9</ele>
        <time>2020-11-11T19:08:57Z</time>
      </trkpt>
      <trkpt lat="28.2595380" lon="-16.6003170">
        <ele>2247.9</ele>
        <time>2020-11-11T19:08:58Z</time>
      </trkpt>
      <trkpt lat="28.2595630" lon="-16.6003580">
        <ele>2247.9</ele>
        <time>2020-11-11T19:08:59Z</time>
      </trkpt>
      <trkpt lat="28.2595630" lon="-16.6003580">
        <ele>2247.9</ele>
        <time>2020-11-11T19:09:00Z</time>
      </trkpt>
      <trkpt lat="28.2595720" lon="-16.6004000">
        <ele>2248.9</ele>
        <time>2020-11-11T19:09:01Z</time>
      </trkpt>
      <trkpt lat="28.2595720" lon="-16.6004000">
        <ele>2248.9</ele>
        <time>2020-11-11T19:09:02Z</time>
      </trkpt>
      <trkpt lat="28.2595880" lon="-16.6004400">
        <ele>2248.9</ele>
        <time>2020-11-11T19:09:03Z</time>
      </trkpt>
      <trkpt lat="28.2595980" lon="-16.6004600">
        <ele>2248.9</ele>
        <time>2020-11-11T19:09:04Z</time>
      </trkpt>
      <trkpt lat="28.2595980" lon="-16.6004600">
        <ele>2248.9</ele>
        <time>2020-11-11T19:09:05Z</time>
      </trkpt>
      <trkpt lat="28.2596200" lon="-16.6004970">
        <ele>2248.9</ele>
        <time>2020-11-11T19:09:06Z</time>
      </trkpt>
      <trkpt lat="28.2596320" lon="-16.6005150">
        <ele>2248.9</ele>
        <time>2020-11-11T19:09:07Z</time>
      </trkpt>
      <trkpt lat="28.2596320" lon="-16.6005150">
        <ele>2248.9</ele>
        <time>2020-11-11T19:09:08Z</time>
      </trkpt>
      <trkpt lat="28.2596630" lon="-16.6005470">
        <ele>2248.9</ele>
        <time>2020-11-11T19:09:09Z</time>
      </trkpt>
      <trkpt lat="28.2596770" lon="-16.6005650">
        <ele>2248.9</ele>
        <time>2020-11-11T19:09:10Z</time>
      </trkpt>
      <trkpt lat="28.2596770" lon="-16.6005650">
        <ele>2248.9</ele>
        <time>2020-11-11T19:09:11Z</time>
      </trkpt>
      <trkpt lat="28.2597020" lon="-16.6006050">
        <ele>2248.9</ele>
        <time>2020-11-11T19:09:12Z</time>
      </trkpt>
      <trkpt lat="28.2597080" lon="-16.6006230">
        <ele>2249.9</ele>
        <time>2020-11-11T19:09:13Z</time>
      </trkpt>
      <trkpt lat="28.2597080" lon="-16.6006230">
        <ele>2249.9</ele>
        <time>2020-11-11T19:09:14Z</time>
      </trkpt>
      <trkpt lat="28.2597320" lon="-16.6006570">
        <ele>2249.9</ele>
        <time>2020-11-11T19:09:15Z</time>
      </trkpt>
      <trkpt lat="28.2597400" lon="-16.6006770">
        <ele>2249.9</ele>
        <time>2020-11-11T19:09:16Z</time>
      </trkpt>
      <trkpt lat="28.2597400" lon="-16.6006770">
        <ele>2249.9</ele>
        <time>2020-11-11T19:09:17Z</time>
      </trkpt>
      <trkpt lat="28.2597570" lon="-16.6007150">
        <ele>2250.9</ele>
        <time>2020-11-11T19:09:18Z</time>
      </trkpt>
      <trkpt lat="28.2597570" lon="-16.6007150">
        <ele>2250.9</ele>
        <time>2020-11-11T19:09:19Z</time>
      </trkpt>
      <trkpt lat="28.2597670" lon="-16.6007570">
        <ele>2250.9</ele>
        <time>2020-11-11T19:09:20Z</time>
      </trkpt>
      <trkpt lat="28.2597670" lon="-16.6007570">
        <ele>2250.9</ele>
        <time>2020-11-11T19:09:21Z</time>
      </trkpt>
      <trkpt lat="28.2597850" lon="-16.6007950">
        <ele>2250.9</ele>
        <time>2020-11-11T19:09:22Z</time>
      </trkpt>
      <trkpt lat="28.2597850" lon="-16.6007950">
        <ele>2250.9</ele>
        <time>2020-11-11T19:09:23Z</time>
      </trkpt>
      <trkpt lat="28.2598000" lon="-16.6008330">
        <ele>2251.9</ele>
        <time>2020-11-11T19:09:24Z</time>
      </trkpt>
      <trkpt lat="28.2598000" lon="-16.6008330">
        <ele>2251.9</ele>
        <time>2020-11-11T19:09:25Z</time>
      </trkpt>
      <trkpt lat="28.2598100" lon="-16.6008820">
        <ele>2251.9</ele>
        <time>2020-11-11T19:09:26Z</time>
      </trkpt>
      <trkpt lat="28.2598100" lon="-16.6009070">
        <ele>2251.9</ele>
        <time>2020-11-11T19:09:27Z</time>
      </trkpt>
      <trkpt lat="28.2598120" lon="-16.6009330">
        <ele>2251.9</ele>
        <time>2020-11-11T19:09:28Z</time>
      </trkpt>
      <trkpt lat="28.2598120" lon="-16.6009330">
        <ele>2251.9</ele>
        <time>2020-11-11T19:09:29Z</time>
      </trkpt>
      <trkpt lat="28.2598170" lon="-16.6009830">
        <ele>2251.9</ele>
        <time>2020-11-11T19:09:30Z</time>
      </trkpt>
      <trkpt lat="28.2598170" lon="-16.6009830">
        <ele>2251.9</ele>
        <time>2020-11-11T19:09:31Z</time>
      </trkpt>
      <trkpt lat="28.2598150" lon="-16.6010320">
        <ele>2251.9</ele>
        <time>2020-11-11T19:09:32Z</time>
      </trkpt>
      <trkpt lat="28.2598120" lon="-16.6010550">
        <ele>2251.9</ele>
        <time>2020-11-11T19:09:33Z</time>
      </trkpt>
      <trkpt lat="28.2598120" lon="-16.6010550">
        <ele>2251.9</ele>
        <time>2020-11-11T19:09:34Z</time>
      </trkpt>
      <trkpt lat="28.2598120" lon="-16.6011000">
        <ele>2251.9</ele>
        <time>2020-11-11T19:09:35Z</time>
      </trkpt>
      <trkpt lat="28.2598120" lon="-16.6011000">
        <ele>2251.9</ele>
        <time>2020-11-11T19:09:36Z</time>
      </trkpt>
      <trkpt lat="28.2598070" lon="-16.6011450">
        <ele>2251.9</ele>
        <time>2020-11-11T19:09:37Z</time>
      </trkpt>
      <trkpt lat="28.2598070" lon="-16.6011450">
        <ele>2251.9</ele>
        <time>2020-11-11T19:09:38Z</time>
      </trkpt>
      <trkpt lat="28.2597920" lon="-16.6011920">
        <ele>2252.9</ele>
        <time>2020-11-11T19:09:39Z</time>
      </trkpt>
      <trkpt lat="28.2597920" lon="-16.6011920">
        <ele>2252.9</ele>
        <time>2020-11-11T19:09:40Z</time>
      </trkpt>
      <trkpt lat="28.2597830" lon="-16.6012380">
        <ele>2252.9</ele>
        <time>2020-11-11T19:09:41Z</time>
      </trkpt>
      <trkpt lat="28.2597830" lon="-16.6012380">
        <ele>2252.9</ele>
        <time>2020-11-11T19:09:42Z</time>
      </trkpt>
      <trkpt lat="28.2597750" lon="-16.6012880">
        <ele>2252.9</ele>
        <time>2020-11-11T19:09:43Z</time>
      </trkpt>
      <trkpt lat="28.2597750" lon="-16.6012880">
        <ele>2252.9</ele>
        <time>2020-11-11T19:09:44Z</time>
      </trkpt>
      <trkpt lat="28.2597580" lon="-16.6013380">
        <ele>2252.9</ele>
        <time>2020-11-11T19:09:45Z</time>
      </trkpt>
      <trkpt lat="28.2597580" lon="-16.6013380">
        <ele>2252.9</ele>
        <time>2020-11-11T19:09:46Z</time>
      </trkpt>
      <trkpt lat="28.2597450" lon="-16.6013830">
        <ele>2253.9</ele>
        <time>2020-11-11T19:09:47Z</time>
      </trkpt>
      <trkpt lat="28.2597370" lon="-16.6014070">
        <ele>2253.9</ele>
        <time>2020-11-11T19:09:48Z</time>
      </trkpt>
      <trkpt lat="28.2597320" lon="-16.6014270">
        <ele>2253.9</ele>
        <time>2020-11-11T19:09:49Z</time>
      </trkpt>
      <trkpt lat="28.2597320" lon="-16.6014270">
        <ele>2253.9</ele>
        <time>2020-11-11T19:09:50Z</time>
      </trkpt>
      <trkpt lat="28.2597270" lon="-16.6014730">
        <ele>2253.9</ele>
        <time>2020-11-11T19:09:51Z</time>
      </trkpt>
      <trkpt lat="28.2597270" lon="-16.6014730">
        <ele>2253.9</ele>
        <time>2020-11-11T19:09:52Z</time>
      </trkpt>
      <trkpt lat="28.2597150" lon="-16.6015200">
        <ele>2254.9</ele>
        <time>2020-11-11T19:09:53Z</time>
      </trkpt>
      <trkpt lat="28.2597120" lon="-16.6015430">
        <ele>2254.9</ele>
        <time>2020-11-11T19:09:54Z</time>
      </trkpt>
      <trkpt lat="28.2597120" lon="-16.6015430">
        <ele>2254.9</ele>
        <time>2020-11-11T19:09:55Z</time>
      </trkpt>
      <trkpt lat="28.2597100" lon="-16.6015930">
        <ele>2254.9</ele>
        <time>2020-11-11T19:09:56Z</time>
      </trkpt>
      <trkpt lat="28.2597100" lon="-16.6015930">
        <ele>2254.9</ele>
        <time>2020-11-11T19:09:57Z</time>
      </trkpt>
      <trkpt lat="28.2597070" lon="-16.6016380">
        <ele>2254.9</ele>
        <time>2020-11-11T19:09:58Z</time>
      </trkpt>
      <trkpt lat="28.2597070" lon="-16.6016380">
        <ele>2254.9</ele>
        <time>2020-11-11T19:09:59Z</time>
      </trkpt>
      <trkpt lat="28.2597020" lon="-16.6016850">
        <ele>2255.9</ele>
        <time>2020-11-11T19:10:00Z</time>
      </trkpt>
      <trkpt lat="28.2597000" lon="-16.6017070">
        <ele>2255.9</ele>
        <time>2020-11-11T19:10:01Z</time>
      </trkpt>
      <trkpt lat="28.2597000" lon="-16.6017070">
        <ele>2255.9</ele>
        <time>2020-11-11T19:10:02Z</time>
      </trkpt>
      <trkpt lat="28.2596970" lon="-16.6017530">
        <ele>2255.9</ele>
        <time>2020-11-11T19:10:03Z</time>
      </trkpt>
      <trkpt lat="28.2596930" lon="-16.6017780">
        <ele>2255.9</ele>
        <time>2020-11-11T19:10:04Z</time>
      </trkpt>
      <trkpt lat="28.2596930" lon="-16.6017780">
        <ele>2255.9</ele>
        <time>2020-11-11T19:10:05Z</time>
      </trkpt>
      <trkpt lat="28.2596830" lon="-16.6018250">
        <ele>2256.9</ele>
        <time>2020-11-11T19:10:06Z</time>
      </trkpt>
      <trkpt lat="28.2596780" lon="-16.6018470">
        <ele>2256.9</ele>
        <time>2020-11-11T19:10:07Z</time>
      </trkpt>
      <trkpt lat="28.2596780" lon="-16.6018470">
        <ele>2256.9</ele>
        <time>2020-11-11T19:10:08Z</time>
      </trkpt>
      <trkpt lat="28.2596770" lon="-16.6018920">
        <ele>2256.9</ele>
        <time>2020-11-11T19:10:09Z</time>
      </trkpt>
      <trkpt lat="28.2596770" lon="-16.6018920">
        <ele>2256.9</ele>
        <time>2020-11-11T19:10:10Z</time>
      </trkpt>
      <trkpt lat="28.2596730" lon="-16.6019380">
        <ele>2256.9</ele>
        <time>2020-11-11T19:10:11Z</time>
      </trkpt>
      <trkpt lat="28.2596700" lon="-16.6019620">
        <ele>2257.9</ele>
        <time>2020-11-11T19:10:12Z</time>
      </trkpt>
      <trkpt lat="28.2596700" lon="-16.6019620">
        <ele>2257.9</ele>
        <time>2020-11-11T19:10:13Z</time>
      </trkpt>
      <trkpt lat="28.2596620" lon="-16.6020070">
        <ele>2257.9</ele>
        <time>2020-11-11T19:10:14Z</time>
      </trkpt>
      <trkpt lat="28.2596620" lon="-16.6020070">
        <ele>2257.9</ele>
        <time>2020-11-11T19:10:15Z</time>
      </trkpt>
      <trkpt lat="28.2596480" lon="-16.6020520">
        <ele>2257.9</ele>
        <time>2020-11-11T19:10:16Z</time>
      </trkpt>
      <trkpt lat="28.2596480" lon="-16.6020520">
        <ele>2257.9</ele>
        <time>2020-11-11T19:10:17Z</time>
      </trkpt>
      <trkpt lat="28.2596350" lon="-16.6020970">
        <ele>2257.9</ele>
        <time>2020-11-11T19:10:18Z</time>
      </trkpt>
      <trkpt lat="28.2596350" lon="-16.6020970">
        <ele>2257.9</ele>
        <time>2020-11-11T19:10:19Z</time>
      </trkpt>
      <trkpt lat="28.2596300" lon="-16.6021450">
        <ele>2258.9</ele>
        <time>2020-11-11T19:10:20Z</time>
      </trkpt>
      <trkpt lat="28.2596300" lon="-16.6021700">
        <ele>2258.9</ele>
        <time>2020-11-11T19:10:21Z</time>
      </trkpt>
      <trkpt lat="28.2596300" lon="-16.6021700">
        <ele>2258.9</ele>
        <time>2020-11-11T19:10:22Z</time>
      </trkpt>
      <trkpt lat="28.2596220" lon="-16.6022280">
        <ele>2258.9</ele>
        <time>2020-11-11T19:10:23Z</time>
      </trkpt>
      <trkpt lat="28.2596220" lon="-16.6022280">
        <ele>2258.9</ele>
        <time>2020-11-11T19:10:24Z</time>
      </trkpt>
      <trkpt lat="28.2596120" lon="-16.6022770">
        <ele>2258.9</ele>
        <time>2020-11-11T19:10:25Z</time>
      </trkpt>
      <trkpt lat="28.2596120" lon="-16.6022770">
        <ele>2258.9</ele>
        <time>2020-11-11T19:10:26Z</time>
      </trkpt>
      <trkpt lat="28.2596100" lon="-16.6023270">
        <ele>2258.9</ele>
        <time>2020-11-11T19:10:27Z</time>
      </trkpt>
      <trkpt lat="28.2596100" lon="-16.6023270">
        <ele>2258.9</ele>
        <time>2020-11-11T19:10:28Z</time>
      </trkpt>
      <trkpt lat="28.2596020" lon="-16.6023770">
        <ele>2258.9</ele>
        <time>2020-11-11T19:10:29Z</time>
      </trkpt>
      <trkpt lat="28.2595980" lon="-16.6024020">
        <ele>2258.9</ele>
        <time>2020-11-11T19:10:30Z</time>
      </trkpt>
      <trkpt lat="28.2595950" lon="-16.6024270">
        <ele>2258.9</ele>
        <time>2020-11-11T19:10:31Z</time>
      </trkpt>
      <trkpt lat="28.2595950" lon="-16.6024270">
        <ele>2258.9</ele>
        <time>2020-11-11T19:10:32Z</time>
      </trkpt>
      <trkpt lat="28.2595850" lon="-16.6024780">
        <ele>2258.9</ele>
        <time>2020-11-11T19:10:33Z</time>
      </trkpt>
      <trkpt lat="28.2595820" lon="-16.6025030">
        <ele>2258.9</ele>
        <time>2020-11-11T19:10:34Z</time>
      </trkpt>
      <trkpt lat="28.2595820" lon="-16.6025030">
        <ele>2258.9</ele>
        <time>2020-11-11T19:10:35Z</time>
      </trkpt>
      <trkpt lat="28.2595750" lon="-16.6025530">
        <ele>2258.9</ele>
        <time>2020-11-11T19:10:36Z</time>
      </trkpt>
      <trkpt lat="28.2595680" lon="-16.6025770">
        <ele>2259.9</ele>
        <time>2020-11-11T19:10:37Z</time>
      </trkpt>
      <trkpt lat="28.2595680" lon="-16.6025770">
        <ele>2259.9</ele>
        <time>2020-11-11T19:10:38Z</time>
      </trkpt>
      <trkpt lat="28.2595570" lon="-16.6026230">
        <ele>2259.9</ele>
        <time>2020-11-11T19:10:39Z</time>
      </trkpt>
      <trkpt lat="28.2595570" lon="-16.6026230">
        <ele>2259.9</ele>
        <time>2020-11-11T19:10:40Z</time>
      </trkpt>
      <trkpt lat="28.2595530" lon="-16.6026670">
        <ele>2259.9</ele>
        <time>2020-11-11T19:10:41Z</time>
      </trkpt>
      <trkpt lat="28.2595530" lon="-16.6026670">
        <ele>2259.9</ele>
        <time>2020-11-11T19:10:42Z</time>
      </trkpt>
      <trkpt lat="28.2595480" lon="-16.6027150">
        <ele>2260.9</ele>
        <time>2020-11-11T19:10:43Z</time>
      </trkpt>
      <trkpt lat="28.2595480" lon="-16.6027150">
        <ele>2260.9</ele>
        <time>2020-11-11T19:10:44Z</time>
      </trkpt>
      <trkpt lat="28.2595420" lon="-16.6027630">
        <ele>2260.9</ele>
        <time>2020-11-11T19:10:45Z</time>
      </trkpt>
      <trkpt lat="28.2595420" lon="-16.6027630">
        <ele>2260.9</ele>
        <time>2020-11-11T19:10:46Z</time>
      </trkpt>
      <trkpt lat="28.2595330" lon="-16.6028120">
        <ele>2260.9</ele>
        <time>2020-11-11T19:10:47Z</time>
      </trkpt>
      <trkpt lat="28.2595330" lon="-16.6028120">
        <ele>2260.9</ele>
        <time>2020-11-11T19:10:48Z</time>
      </trkpt>
      <trkpt lat="28.2595180" lon="-16.6028570">
        <ele>2260.9</ele>
        <time>2020-11-11T19:10:49Z</time>
      </trkpt>
      <trkpt lat="28.2595180" lon="-16.6028570">
        <ele>2260.9</ele>
        <time>2020-11-11T19:10:50Z</time>
      </trkpt>
      <trkpt lat="28.2595120" lon="-16.6029070">
        <ele>2261.9</ele>
        <time>2020-11-11T19:10:51Z</time>
      </trkpt>
      <trkpt lat="28.2595120" lon="-16.6029070">
        <ele>2261.9</ele>
        <time>2020-11-11T19:10:52Z</time>
      </trkpt>
      <trkpt lat="28.2595050" lon="-16.6029550">
        <ele>2261.9</ele>
        <time>2020-11-11T19:10:53Z</time>
      </trkpt>
      <trkpt lat="28.2595050" lon="-16.6029550">
        <ele>2261.9</ele>
        <time>2020-11-11T19:10:54Z</time>
      </trkpt>
      <trkpt lat="28.2594950" lon="-16.6030030">
        <ele>2261.9</ele>
        <time>2020-11-11T19:10:55Z</time>
      </trkpt>
      <trkpt lat="28.2594950" lon="-16.6030030">
        <ele>2261.9</ele>
        <time>2020-11-11T19:10:56Z</time>
      </trkpt>
      <trkpt lat="28.2594900" lon="-16.6030500">
        <ele>2261.9</ele>
        <time>2020-11-11T19:10:57Z</time>
      </trkpt>
      <trkpt lat="28.2594880" lon="-16.6030730">
        <ele>2261.9</ele>
        <time>2020-11-11T19:10:58Z</time>
      </trkpt>
      <trkpt lat="28.2594880" lon="-16.6030730">
        <ele>2261.9</ele>
        <time>2020-11-11T19:10:59Z</time>
      </trkpt>
      <trkpt lat="28.2594770" lon="-16.6031250">
        <ele>2261.9</ele>
        <time>2020-11-11T19:11:00Z</time>
      </trkpt>
      <trkpt lat="28.2594730" lon="-16.6031470">
        <ele>2262.9</ele>
        <time>2020-11-11T19:11:01Z</time>
      </trkpt>
      <trkpt lat="28.2594730" lon="-16.6031470">
        <ele>2262.9</ele>
        <time>2020-11-11T19:11:02Z</time>
      </trkpt>
      <trkpt lat="28.2594720" lon="-16.6031930">
        <ele>2262.9</ele>
        <time>2020-11-11T19:11:03Z</time>
      </trkpt>
      <trkpt lat="28.2594720" lon="-16.6031930">
        <ele>2262.9</ele>
        <time>2020-11-11T19:11:04Z</time>
      </trkpt>
      <trkpt lat="28.2594620" lon="-16.6032430">
        <ele>2262.9</ele>
        <time>2020-11-11T19:11:05Z</time>
      </trkpt>
      <trkpt lat="28.2594620" lon="-16.6032430">
        <ele>2262.9</ele>
        <time>2020-11-11T19:11:06Z</time>
      </trkpt>
      <trkpt lat="28.2594500" lon="-16.6032900">
        <ele>2262.9</ele>
        <time>2020-11-11T19:11:07Z</time>
      </trkpt>
      <trkpt lat="28.2594500" lon="-16.6032900">
        <ele>2262.9</ele>
        <time>2020-11-11T19:11:08Z</time>
      </trkpt>
      <trkpt lat="28.2594380" lon="-16.6033350">
        <ele>2262.9</ele>
        <time>2020-11-11T19:11:09Z</time>
      </trkpt>
      <trkpt lat="28.2594380" lon="-16.6033350">
        <ele>2262.9</ele>
        <time>2020-11-11T19:11:10Z</time>
      </trkpt>
      <trkpt lat="28.2594300" lon="-16.6033820">
        <ele>2263.9</ele>
        <time>2020-11-11T19:11:11Z</time>
      </trkpt>
      <trkpt lat="28.2594300" lon="-16.6033820">
        <ele>2263.9</ele>
        <time>2020-11-11T19:11:12Z</time>
      </trkpt>
      <trkpt lat="28.2594200" lon="-16.6034280">
        <ele>2263.9</ele>
        <time>2020-11-11T19:11:13Z</time>
      </trkpt>
      <trkpt lat="28.2594200" lon="-16.6034280">
        <ele>2263.9</ele>
        <time>2020-11-11T19:11:14Z</time>
      </trkpt>
      <trkpt lat="28.2594120" lon="-16.6034750">
        <ele>2263.9</ele>
        <time>2020-11-11T19:11:15Z</time>
      </trkpt>
      <trkpt lat="28.2594120" lon="-16.6034750">
        <ele>2263.9</ele>
        <time>2020-11-11T19:11:16Z</time>
      </trkpt>
      <trkpt lat="28.2594080" lon="-16.6035250">
        <ele>2263.9</ele>
        <time>2020-11-11T19:11:17Z</time>
      </trkpt>
      <trkpt lat="28.2594080" lon="-16.6035250">
        <ele>2264.9</ele>
        <time>2020-11-11T19:11:18Z</time>
      </trkpt>
      <trkpt lat="28.2593980" lon="-16.6035750">
        <ele>2264.9</ele>
        <time>2020-11-11T19:11:19Z</time>
      </trkpt>
      <trkpt lat="28.2593980" lon="-16.6035750">
        <ele>2264.9</ele>
        <time>2020-11-11T19:11:20Z</time>
      </trkpt>
      <trkpt lat="28.2593930" lon="-16.6036220">
        <ele>2264.9</ele>
        <time>2020-11-11T19:11:21Z</time>
      </trkpt>
      <trkpt lat="28.2593930" lon="-16.6036220">
        <ele>2265.9</ele>
        <time>2020-11-11T19:11:22Z</time>
      </trkpt>
      <trkpt lat="28.2593830" lon="-16.6036730">
        <ele>2265.9</ele>
        <time>2020-11-11T19:11:23Z</time>
      </trkpt>
      <trkpt lat="28.2593830" lon="-16.6036730">
        <ele>2264.9</ele>
        <time>2020-11-11T19:11:24Z</time>
      </trkpt>
      <trkpt lat="28.2593650" lon="-16.6037300">
        <ele>2264.9</ele>
        <time>2020-11-11T19:11:25Z</time>
      </trkpt>
      <trkpt lat="28.2593650" lon="-16.6037300">
        <ele>2264.9</ele>
        <time>2020-11-11T19:11:26Z</time>
      </trkpt>
      <trkpt lat="28.2593430" lon="-16.6038050">
        <ele>2264.9</ele>
        <time>2020-11-11T19:11:27Z</time>
      </trkpt>
      <trkpt lat="28.2593430" lon="-16.6038050">
        <ele>2264.9</ele>
        <time>2020-11-11T19:11:28Z</time>
      </trkpt>
      <trkpt lat="28.2593180" lon="-16.6038830">
        <ele>2264.9</ele>
        <time>2020-11-11T19:11:29Z</time>
      </trkpt>
      <trkpt lat="28.2593180" lon="-16.6038830">
        <ele>2264.9</ele>
        <time>2020-11-11T19:11:30Z</time>
      </trkpt>
      <trkpt lat="28.2592880" lon="-16.6039580">
        <ele>2264.9</ele>
        <time>2020-11-11T19:11:31Z</time>
      </trkpt>
      <trkpt lat="28.2592880" lon="-16.6039580">
        <ele>2264.9</ele>
        <time>2020-11-11T19:11:32Z</time>
      </trkpt>
      <trkpt lat="28.2592570" lon="-16.6040330">
        <ele>2264.9</ele>
        <time>2020-11-11T19:11:33Z</time>
      </trkpt>
      <trkpt lat="28.2592570" lon="-16.6040330">
        <ele>2264.9</ele>
        <time>2020-11-11T19:11:34Z</time>
      </trkpt>
      <trkpt lat="28.2592170" lon="-16.6041150">
        <ele>2265.9</ele>
        <time>2020-11-11T19:11:35Z</time>
      </trkpt>
      <trkpt lat="28.2592170" lon="-16.6041150">
        <ele>2265.9</ele>
        <time>2020-11-11T19:11:36Z</time>
      </trkpt>
      <trkpt lat="28.2591770" lon="-16.6041950">
        <ele>2265.9</ele>
        <time>2020-11-11T19:11:37Z</time>
      </trkpt>
      <trkpt lat="28.2591770" lon="-16.6041950">
        <ele>2265.9</ele>
        <time>2020-11-11T19:11:38Z</time>
      </trkpt>
      <trkpt lat="28.2591370" lon="-16.6042720">
        <ele>2265.9</ele>
        <time>2020-11-11T19:11:39Z</time>
      </trkpt>
      <trkpt lat="28.2591370" lon="-16.6042720">
        <ele>2265.9</ele>
        <time>2020-11-11T19:11:40Z</time>
      </trkpt>
      <trkpt lat="28.2590970" lon="-16.6043520">
        <ele>2265.9</ele>
        <time>2020-11-11T19:11:41Z</time>
      </trkpt>
      <trkpt lat="28.2590970" lon="-16.6043520">
        <ele>2265.9</ele>
        <time>2020-11-11T19:11:42Z</time>
      </trkpt>
      <trkpt lat="28.2590600" lon="-16.6044280">
        <ele>2265.9</ele>
        <time>2020-11-11T19:11:43Z</time>
      </trkpt>
      <trkpt lat="28.2590600" lon="-16.6044280">
        <ele>2266.9</ele>
        <time>2020-11-11T19:11:44Z</time>
      </trkpt>
      <trkpt lat="28.2590270" lon="-16.6045050">
        <ele>2266.9</ele>
        <time>2020-11-11T19:11:45Z</time>
      </trkpt>
      <trkpt lat="28.2590270" lon="-16.6045050">
        <ele>2266.9</ele>
        <time>2020-11-11T19:11:46Z</time>
      </trkpt>
      <trkpt lat="28.2589880" lon="-16.6045830">
        <ele>2266.9</ele>
        <time>2020-11-11T19:11:47Z</time>
      </trkpt>
      <trkpt lat="28.2589880" lon="-16.6045830">
        <ele>2266.9</ele>
        <time>2020-11-11T19:11:48Z</time>
      </trkpt>
      <trkpt lat="28.2589550" lon="-16.6046680">
        <ele>2266.9</ele>
        <time>2020-11-11T19:11:49Z</time>
      </trkpt>
      <trkpt lat="28.2589550" lon="-16.6046680">
        <ele>2266.9</ele>
        <time>2020-11-11T19:11:50Z</time>
      </trkpt>
      <trkpt lat="28.2589200" lon="-16.6047520">
        <ele>2266.9</ele>
        <time>2020-11-11T19:11:51Z</time>
      </trkpt>
      <trkpt lat="28.2589200" lon="-16.6047520">
        <ele>2267.9</ele>
        <time>2020-11-11T19:11:52Z</time>
      </trkpt>
      <trkpt lat="28.2588920" lon="-16.6048450">
        <ele>2267.9</ele>
        <time>2020-11-11T19:11:53Z</time>
      </trkpt>
      <trkpt lat="28.2588920" lon="-16.6048450">
        <ele>2267.9</ele>
        <time>2020-11-11T19:11:54Z</time>
      </trkpt>
      <trkpt lat="28.2588750" lon="-16.6049430">
        <ele>2267.9</ele>
        <time>2020-11-11T19:11:55Z</time>
      </trkpt>
      <trkpt lat="28.2588750" lon="-16.6049430">
        <ele>2267.9</ele>
        <time>2020-11-11T19:11:56Z</time>
      </trkpt>
      <trkpt lat="28.2588550" lon="-16.6050380">
        <ele>2267.9</ele>
        <time>2020-11-11T19:11:57Z</time>
      </trkpt>
      <trkpt lat="28.2588550" lon="-16.6050380">
        <ele>2267.9</ele>
        <time>2020-11-11T19:11:58Z</time>
      </trkpt>
      <trkpt lat="28.2588530" lon="-16.6051420">
        <ele>2268.9</ele>
        <time>2020-11-11T19:11:59Z</time>
      </trkpt>
      <trkpt lat="28.2588530" lon="-16.6051420">
        <ele>2268.9</ele>
        <time>2020-11-11T19:12:00Z</time>
      </trkpt>
      <trkpt lat="28.2588620" lon="-16.6052450">
        <ele>2268.9</ele>
        <time>2020-11-11T19:12:01Z</time>
      </trkpt>
      <trkpt lat="28.2588620" lon="-16.6052450">
        <ele>2268.9</ele>
        <time>2020-11-11T19:12:02Z</time>
      </trkpt>
      <trkpt lat="28.2588780" lon="-16.6053420">
        <ele>2268.9</ele>
        <time>2020-11-11T19:12:03Z</time>
      </trkpt>
      <trkpt lat="28.2588780" lon="-16.6053420">
        <ele>2268.9</ele>
        <time>2020-11-11T19:12:04Z</time>
      </trkpt>
      <trkpt lat="28.2589050" lon="-16.6054280">
        <ele>2268.9</ele>
        <time>2020-11-11T19:12:05Z</time>
      </trkpt>
      <trkpt lat="28.2589050" lon="-16.6054280">
        <ele>2268.9</ele>
        <time>2020-11-11T19:12:06Z</time>
      </trkpt>
      <trkpt lat="28.2589430" lon="-16.6055070">
        <ele>2268.9</ele>
        <time>2020-11-11T19:12:07Z</time>
      </trkpt>
      <trkpt lat="28.2589430" lon="-16.6055070">
        <ele>2268.9</ele>
        <time>2020-11-11T19:12:08Z</time>
      </trkpt>
      <trkpt lat="28.2589870" lon="-16.6055750">
        <ele>2268.9</ele>
        <time>2020-11-11T19:12:09Z</time>
      </trkpt>
      <trkpt lat="28.2589870" lon="-16.6055750">
        <ele>2268.9</ele>
        <time>2020-11-11T19:12:10Z</time>
      </trkpt>
      <trkpt lat="28.2590350" lon="-16.6056350">
        <ele>2268.9</ele>
        <time>2020-11-11T19:12:11Z</time>
      </trkpt>
      <trkpt lat="28.2590350" lon="-16.6056350">
        <ele>2269.9</ele>
        <time>2020-11-11T19:12:12Z</time>
      </trkpt>
      <trkpt lat="28.2590830" lon="-16.6056970">
        <ele>2269.9</ele>
        <time>2020-11-11T19:12:13Z</time>
      </trkpt>
      <trkpt lat="28.2590830" lon="-16.6056970">
        <ele>2269.9</ele>
        <time>2020-11-11T19:12:14Z</time>
      </trkpt>
      <trkpt lat="28.2591300" lon="-16.6057580">
        <ele>2269.9</ele>
        <time>2020-11-11T19:12:15Z</time>
      </trkpt>
      <trkpt lat="28.2591300" lon="-16.6057580">
        <ele>2269.9</ele>
        <time>2020-11-11T19:12:16Z</time>
      </trkpt>
      <trkpt lat="28.2591770" lon="-16.6058180">
        <ele>2269.9</ele>
        <time>2020-11-11T19:12:17Z</time>
      </trkpt>
      <trkpt lat="28.2591770" lon="-16.6058180">
        <ele>2269.9</ele>
        <time>2020-11-11T19:12:18Z</time>
      </trkpt>
      <trkpt lat="28.2592230" lon="-16.6058750">
        <ele>2269.9</ele>
        <time>2020-11-11T19:12:19Z</time>
      </trkpt>
      <trkpt lat="28.2592230" lon="-16.6058750">
        <ele>2269.9</ele>
        <time>2020-11-11T19:12:20Z</time>
      </trkpt>
      <trkpt lat="28.2592670" lon="-16.6059370">
        <ele>2269.9</ele>
        <time>2020-11-11T19:12:21Z</time>
      </trkpt>
      <trkpt lat="28.2592670" lon="-16.6059370">
        <ele>2269.9</ele>
        <time>2020-11-11T19:12:22Z</time>
      </trkpt>
      <trkpt lat="28.2593080" lon="-16.6059980">
        <ele>2269.9</ele>
        <time>2020-11-11T19:12:23Z</time>
      </trkpt>
      <trkpt lat="28.2593080" lon="-16.6059980">
        <ele>2269.9</ele>
        <time>2020-11-11T19:12:24Z</time>
      </trkpt>
      <trkpt lat="28.2593470" lon="-16.6060620">
        <ele>2269.9</ele>
        <time>2020-11-11T19:12:25Z</time>
      </trkpt>
      <trkpt lat="28.2593470" lon="-16.6060620">
        <ele>2270.9</ele>
        <time>2020-11-11T19:12:26Z</time>
      </trkpt>
      <trkpt lat="28.2593830" lon="-16.6061230">
        <ele>2270.9</ele>
        <time>2020-11-11T19:12:27Z</time>
      </trkpt>
      <trkpt lat="28.2593830" lon="-16.6061230">
        <ele>2270.9</ele>
        <time>2020-11-11T19:12:28Z</time>
      </trkpt>
      <trkpt lat="28.2594270" lon="-16.6061850">
        <ele>2270.9</ele>
        <time>2020-11-11T19:12:29Z</time>
      </trkpt>
      <trkpt lat="28.2594270" lon="-16.6061850">
        <ele>2270.9</ele>
        <time>2020-11-11T19:12:30Z</time>
      </trkpt>
      <trkpt lat="28.2594680" lon="-16.6062450">
        <ele>2270.9</ele>
        <time>2020-11-11T19:12:31Z</time>
      </trkpt>
      <trkpt lat="28.2594680" lon="-16.6062450">
        <ele>2270.9</ele>
        <time>2020-11-11T19:12:32Z</time>
      </trkpt>
      <trkpt lat="28.2595030" lon="-16.6063080">
        <ele>2270.9</ele>
        <time>2020-11-11T19:12:33Z</time>
      </trkpt>
      <trkpt lat="28.2595030" lon="-16.6063080">
        <ele>2270.9</ele>
        <time>2020-11-11T19:12:34Z</time>
      </trkpt>
      <trkpt lat="28.2595270" lon="-16.6063800">
        <ele>2270.9</ele>
        <time>2020-11-11T19:12:35Z</time>
      </trkpt>
      <trkpt lat="28.2595270" lon="-16.6063800">
        <ele>2270.9</ele>
        <time>2020-11-11T19:12:36Z</time>
      </trkpt>
      <trkpt lat="28.2595380" lon="-16.6064520">
        <ele>2270.9</ele>
        <time>2020-11-11T19:12:37Z</time>
      </trkpt>
      <trkpt lat="28.2595380" lon="-16.6064520">
        <ele>2270.9</ele>
        <time>2020-11-11T19:12:38Z</time>
      </trkpt>
      <trkpt lat="28.2595470" lon="-16.6065250">
        <ele>2270.9</ele>
        <time>2020-11-11T19:12:39Z</time>
      </trkpt>
      <trkpt lat="28.2595470" lon="-16.6065250">
        <ele>2270.9</ele>
        <time>2020-11-11T19:12:40Z</time>
      </trkpt>
      <trkpt lat="28.2595480" lon="-16.6065970">
        <ele>2270.9</ele>
        <time>2020-11-11T19:12:41Z</time>
      </trkpt>
      <trkpt lat="28.2595480" lon="-16.6065970">
        <ele>2270.9</ele>
        <time>2020-11-11T19:12:42Z</time>
      </trkpt>
      <trkpt lat="28.2595480" lon="-16.6066680">
        <ele>2270.9</ele>
        <time>2020-11-11T19:12:43Z</time>
      </trkpt>
      <trkpt lat="28.2595480" lon="-16.6066680">
        <ele>2270.9</ele>
        <time>2020-11-11T19:12:44Z</time>
      </trkpt>
      <trkpt lat="28.2595450" lon="-16.6067320">
        <ele>2270.9</ele>
        <time>2020-11-11T19:12:45Z</time>
      </trkpt>
      <trkpt lat="28.2595450" lon="-16.6067320">
        <ele>2270.9</ele>
        <time>2020-11-11T19:12:46Z</time>
      </trkpt>
      <trkpt lat="28.2595400" lon="-16.6067950">
        <ele>2270.9</ele>
        <time>2020-11-11T19:12:47Z</time>
      </trkpt>
      <trkpt lat="28.2595400" lon="-16.6067950">
        <ele>2270.9</ele>
        <time>2020-11-11T19:12:48Z</time>
      </trkpt>
      <trkpt lat="28.2595370" lon="-16.6068620">
        <ele>2270.9</ele>
        <time>2020-11-11T19:12:49Z</time>
      </trkpt>
      <trkpt lat="28.2595330" lon="-16.6068970">
        <ele>2270.9</ele>
        <time>2020-11-11T19:12:50Z</time>
      </trkpt>
      <trkpt lat="28.2595330" lon="-16.6068970">
        <ele>2270.9</ele>
        <time>2020-11-11T19:12:51Z</time>
      </trkpt>
      <trkpt lat="28.2595270" lon="-16.6069670">
        <ele>2271.9</ele>
        <time>2020-11-11T19:12:52Z</time>
      </trkpt>
      <trkpt lat="28.2595270" lon="-16.6069670">
        <ele>2271.9</ele>
        <time>2020-11-11T19:12:53Z</time>
      </trkpt>
      <trkpt lat="28.2595250" lon="-16.6070320">
        <ele>2271.9</ele>
        <time>2020-11-11T19:12:54Z</time>
      </trkpt>
      <trkpt lat="28.2595220" lon="-16.6070630">
        <ele>2271.9</ele>
        <time>2020-11-11T19:12:55Z</time>
      </trkpt>
      <trkpt lat="28.2595220" lon="-16.6070630">
        <ele>2271.9</ele>
        <time>2020-11-11T19:12:56Z</time>
      </trkpt>
      <trkpt lat="28.2595100" lon="-16.6071230">
        <ele>2271.9</ele>
        <time>2020-11-11T19:12:57Z</time>
      </trkpt>
      <trkpt lat="28.2595100" lon="-16.6071230">
        <ele>2272.9</ele>
        <time>2020-11-11T19:12:58Z</time>
      </trkpt>
      <trkpt lat="28.2594950" lon="-16.6071820">
        <ele>2272.9</ele>
        <time>2020-11-11T19:12:59Z</time>
      </trkpt>
      <trkpt lat="28.2594950" lon="-16.6071820">
        <ele>2272.9</ele>
        <time>2020-11-11T19:13:00Z</time>
      </trkpt>
      <trkpt lat="28.2594950" lon="-16.6072420">
        <ele>2272.9</ele>
        <time>2020-11-11T19:13:01Z</time>
      </trkpt>
      <trkpt lat="28.2594950" lon="-16.6072420">
        <ele>2272.9</ele>
        <time>2020-11-11T19:13:02Z</time>
      </trkpt>
      <trkpt lat="28.2594970" lon="-16.6073030">
        <ele>2272.9</ele>
        <time>2020-11-11T19:13:03Z</time>
      </trkpt>
      <trkpt lat="28.2594970" lon="-16.6073030">
        <ele>2273.9</ele>
        <time>2020-11-11T19:13:04Z</time>
      </trkpt>
      <trkpt lat="28.2594930" lon="-16.6073680">
        <ele>2273.9</ele>
        <time>2020-11-11T19:13:05Z</time>
      </trkpt>
      <trkpt lat="28.2594930" lon="-16.6073680">
        <ele>2273.9</ele>
        <time>2020-11-11T19:13:06Z</time>
      </trkpt>
      <trkpt lat="28.2594900" lon="-16.6074300">
        <ele>2273.9</ele>
        <time>2020-11-11T19:13:07Z</time>
      </trkpt>
      <trkpt lat="28.2594880" lon="-16.6074600">
        <ele>2273.9</ele>
        <time>2020-11-11T19:13:08Z</time>
      </trkpt>
      <trkpt lat="28.2594880" lon="-16.6074600">
        <ele>2273.9</ele>
        <time>2020-11-11T19:13:09Z</time>
      </trkpt>
      <trkpt lat="28.2594880" lon="-16.6075220">
        <ele>2273.9</ele>
        <time>2020-11-11T19:13:10Z</time>
      </trkpt>
      <trkpt lat="28.2594880" lon="-16.6075220">
        <ele>2273.9</ele>
        <time>2020-11-11T19:13:11Z</time>
      </trkpt>
      <trkpt lat="28.2594870" lon="-16.6075780">
        <ele>2273.9</ele>
        <time>2020-11-11T19:13:12Z</time>
      </trkpt>
      <trkpt lat="28.2594820" lon="-16.6076080">
        <ele>2273.9</ele>
        <time>2020-11-11T19:13:13Z</time>
      </trkpt>
      <trkpt lat="28.2594820" lon="-16.6076080">
        <ele>2273.9</ele>
        <time>2020-11-11T19:13:14Z</time>
      </trkpt>
      <trkpt lat="28.2594670" lon="-16.6076630">
        <ele>2273.9</ele>
        <time>2020-11-11T19:13:15Z</time>
      </trkpt>
      <trkpt lat="28.2594670" lon="-16.6076630">
        <ele>2273.9</ele>
        <time>2020-11-11T19:13:16Z</time>
      </trkpt>
      <trkpt lat="28.2594620" lon="-16.6077200">
        <ele>2273.9</ele>
        <time>2020-11-11T19:13:17Z</time>
      </trkpt>
      <trkpt lat="28.2594620" lon="-16.6077200">
        <ele>2274.9</ele>
        <time>2020-11-11T19:13:18Z</time>
      </trkpt>
      <trkpt lat="28.2594630" lon="-16.6077780">
        <ele>2274.9</ele>
        <time>2020-11-11T19:13:19Z</time>
      </trkpt>
      <trkpt lat="28.2594630" lon="-16.6077780">
        <ele>2274.9</ele>
        <time>2020-11-11T19:13:20Z</time>
      </trkpt>
      <trkpt lat="28.2594630" lon="-16.6078350">
        <ele>2274.9</ele>
        <time>2020-11-11T19:13:21Z</time>
      </trkpt>
      <trkpt lat="28.2594630" lon="-16.6078350">
        <ele>2274.9</ele>
        <time>2020-11-11T19:13:22Z</time>
      </trkpt>
      <trkpt lat="28.2594630" lon="-16.6078930">
        <ele>2274.9</ele>
        <time>2020-11-11T19:13:23Z</time>
      </trkpt>
      <trkpt lat="28.2594630" lon="-16.6079220">
        <ele>2275.9</ele>
        <time>2020-11-11T19:13:24Z</time>
      </trkpt>
      <trkpt lat="28.2594630" lon="-16.6079220">
        <ele>2275.9</ele>
        <time>2020-11-11T19:13:25Z</time>
      </trkpt>
      <trkpt lat="28.2594620" lon="-16.6079780">
        <ele>2275.9</ele>
        <time>2020-11-11T19:13:26Z</time>
      </trkpt>
      <trkpt lat="28.2594620" lon="-16.6080070">
        <ele>2275.9</ele>
        <time>2020-11-11T19:13:27Z</time>
      </trkpt>
      <trkpt lat="28.2594620" lon="-16.6080070">
        <ele>2275.9</ele>
        <time>2020-11-11T19:13:28Z</time>
      </trkpt>
      <trkpt lat="28.2594630" lon="-16.6080620">
        <ele>2275.9</ele>
        <time>2020-11-11T19:13:29Z</time>
      </trkpt>
      <trkpt lat="28.2594630" lon="-16.6080620">
        <ele>2275.9</ele>
        <time>2020-11-11T19:13:30Z</time>
      </trkpt>
      <trkpt lat="28.2594570" lon="-16.6081170">
        <ele>2275.9</ele>
        <time>2020-11-11T19:13:31Z</time>
      </trkpt>
      <trkpt lat="28.2594570" lon="-16.6081170">
        <ele>2275.9</ele>
        <time>2020-11-11T19:13:32Z</time>
      </trkpt>
      <trkpt lat="28.2594450" lon="-16.6081750">
        <ele>2275.9</ele>
        <time>2020-11-11T19:13:33Z</time>
      </trkpt>
      <trkpt lat="28.2594450" lon="-16.6081750">
        <ele>2275.9</ele>
        <time>2020-11-11T19:13:34Z</time>
      </trkpt>
      <trkpt lat="28.2594230" lon="-16.6082350">
        <ele>2275.9</ele>
        <time>2020-11-11T19:13:35Z</time>
      </trkpt>
      <trkpt lat="28.2594230" lon="-16.6082350">
        <ele>2275.9</ele>
        <time>2020-11-11T19:13:36Z</time>
      </trkpt>
      <trkpt lat="28.2594000" lon="-16.6083030">
        <ele>2276.9</ele>
        <time>2020-11-11T19:13:37Z</time>
      </trkpt>
      <trkpt lat="28.2594000" lon="-16.6083030">
        <ele>2276.9</ele>
        <time>2020-11-11T19:13:38Z</time>
      </trkpt>
      <trkpt lat="28.2593730" lon="-16.6083780">
        <ele>2276.9</ele>
        <time>2020-11-11T19:13:39Z</time>
      </trkpt>
      <trkpt lat="28.2593580" lon="-16.6084180">
        <ele>2276.9</ele>
        <time>2020-11-11T19:13:40Z</time>
      </trkpt>
      <trkpt lat="28.2593580" lon="-16.6084180">
        <ele>2276.9</ele>
        <time>2020-11-11T19:13:41Z</time>
      </trkpt>
      <trkpt lat="28.2593250" lon="-16.6085000">
        <ele>2276.9</ele>
        <time>2020-11-11T19:13:42Z</time>
      </trkpt>
      <trkpt lat="28.2593050" lon="-16.6085420">
        <ele>2276.9</ele>
        <time>2020-11-11T19:13:43Z</time>
      </trkpt>
      <trkpt lat="28.2593050" lon="-16.6085420">
        <ele>2276.9</ele>
        <time>2020-11-11T19:13:44Z</time>
      </trkpt>
      <trkpt lat="28.2592600" lon="-16.6086320">
        <ele>2276.9</ele>
        <time>2020-11-11T19:13:45Z</time>
      </trkpt>
      <trkpt lat="28.2592600" lon="-16.6086320">
        <ele>2276.9</ele>
        <time>2020-11-11T19:13:46Z</time>
      </trkpt>
      <trkpt lat="28.2592020" lon="-16.6087250">
        <ele>2276.9</ele>
        <time>2020-11-11T19:13:47Z</time>
      </trkpt>
      <trkpt lat="28.2592020" lon="-16.6087250">
        <ele>2276.9</ele>
        <time>2020-11-11T19:13:48Z</time>
      </trkpt>
      <trkpt lat="28.2591430" lon="-16.6088230">
        <ele>2276.9</ele>
        <time>2020-11-11T19:13:49Z</time>
      </trkpt>
      <trkpt lat="28.2591430" lon="-16.6088230">
        <ele>2276.9</ele>
        <time>2020-11-11T19:13:50Z</time>
      </trkpt>
      <trkpt lat="28.2590850" lon="-16.6089280">
        <ele>2276.9</ele>
        <time>2020-11-11T19:13:51Z</time>
      </trkpt>
      <trkpt lat="28.2590850" lon="-16.6089280">
        <ele>2276.9</ele>
        <time>2020-11-11T19:13:52Z</time>
      </trkpt>
      <trkpt lat="28.2590230" lon="-16.6090330">
        <ele>2275.9</ele>
        <time>2020-11-11T19:13:53Z</time>
      </trkpt>
      <trkpt lat="28.2589920" lon="-16.6090870">
        <ele>2275.9</ele>
        <time>2020-11-11T19:13:54Z</time>
      </trkpt>
      <trkpt lat="28.2589920" lon="-16.6090870">
        <ele>2275.9</ele>
        <time>2020-11-11T19:13:55Z</time>
      </trkpt>
      <trkpt lat="28.2589330" lon="-16.6091920">
        <ele>2275.9</ele>
        <time>2020-11-11T19:13:56Z</time>
      </trkpt>
      <trkpt lat="28.2589330" lon="-16.6091920">
        <ele>2275.9</ele>
        <time>2020-11-11T19:13:57Z</time>
      </trkpt>
      <trkpt lat="28.2588720" lon="-16.6092930">
        <ele>2275.9</ele>
        <time>2020-11-11T19:13:58Z</time>
      </trkpt>
      <trkpt lat="28.2588720" lon="-16.6092930">
        <ele>2275.9</ele>
        <time>2020-11-11T19:13:59Z</time>
      </trkpt>
      <trkpt lat="28.2588120" lon="-16.6093930">
        <ele>2275.9</ele>
        <time>2020-11-11T19:14:00Z</time>
      </trkpt>
      <trkpt lat="28.2587830" lon="-16.6094450">
        <ele>2275.9</ele>
        <time>2020-11-11T19:14:01Z</time>
      </trkpt>
      <trkpt lat="28.2587830" lon="-16.6094450">
        <ele>2275.9</ele>
        <time>2020-11-11T19:14:02Z</time>
      </trkpt>
      <trkpt lat="28.2587250" lon="-16.6095500">
        <ele>2275.9</ele>
        <time>2020-11-11T19:14:03Z</time>
      </trkpt>
      <trkpt lat="28.2587250" lon="-16.6095500">
        <ele>2275.9</ele>
        <time>2020-11-11T19:14:04Z</time>
      </trkpt>
      <trkpt lat="28.2586630" lon="-16.6096570">
        <ele>2275.9</ele>
        <time>2020-11-11T19:14:05Z</time>
      </trkpt>
      <trkpt lat="28.2586630" lon="-16.6096570">
        <ele>2275.9</ele>
        <time>2020-11-11T19:14:06Z</time>
      </trkpt>
      <trkpt lat="28.2585980" lon="-16.6097650">
        <ele>2274.9</ele>
        <time>2020-11-11T19:14:07Z</time>
      </trkpt>
      <trkpt lat="28.2585980" lon="-16.6097650">
        <ele>2274.9</ele>
        <time>2020-11-11T19:14:08Z</time>
      </trkpt>
      <trkpt lat="28.2585350" lon="-16.6098750">
        <ele>2274.9</ele>
        <time>2020-11-11T19:14:09Z</time>
      </trkpt>
      <trkpt lat="28.2585350" lon="-16.6098750">
        <ele>2274.9</ele>
        <time>2020-11-11T19:14:10Z</time>
      </trkpt>
      <trkpt lat="28.2584700" lon="-16.6099870">
        <ele>2274.9</ele>
        <time>2020-11-11T19:14:11Z</time>
      </trkpt>
      <trkpt lat="28.2584350" lon="-16.6100420">
        <ele>2274.9</ele>
        <time>2020-11-11T19:14:12Z</time>
      </trkpt>
      <trkpt lat="28.2584350" lon="-16.6100420">
        <ele>2273.9</ele>
        <time>2020-11-11T19:14:13Z</time>
      </trkpt>
      <trkpt lat="28.2583680" lon="-16.6101530">
        <ele>2273.9</ele>
        <time>2020-11-11T19:14:14Z</time>
      </trkpt>
      <trkpt lat="28.2583350" lon="-16.6102070">
        <ele>2273.9</ele>
        <time>2020-11-11T19:14:15Z</time>
      </trkpt>
      <trkpt lat="28.2583350" lon="-16.6102070">
        <ele>2273.9</ele>
        <time>2020-11-11T19:14:16Z</time>
      </trkpt>
      <trkpt lat="28.2582720" lon="-16.6103170">
        <ele>2273.9</ele>
        <time>2020-11-11T19:14:17Z</time>
      </trkpt>
      <trkpt lat="28.2582720" lon="-16.6103170">
        <ele>2273.9</ele>
        <time>2020-11-11T19:14:18Z</time>
      </trkpt>
      <trkpt lat="28.2582100" lon="-16.6104300">
        <ele>2273.9</ele>
        <time>2020-11-11T19:14:19Z</time>
      </trkpt>
      <trkpt lat="28.2582100" lon="-16.6104300">
        <ele>2273.9</ele>
        <time>2020-11-11T19:14:20Z</time>
      </trkpt>
      <trkpt lat="28.2581420" lon="-16.6105500">
        <ele>2273.9</ele>
        <time>2020-11-11T19:14:21Z</time>
      </trkpt>
      <trkpt lat="28.2581420" lon="-16.6105500">
        <ele>2273.9</ele>
        <time>2020-11-11T19:14:22Z</time>
      </trkpt>
      <trkpt lat="28.2580700" lon="-16.6106730">
        <ele>2273.9</ele>
        <time>2020-11-11T19:14:23Z</time>
      </trkpt>
      <trkpt lat="28.2580700" lon="-16.6106730">
        <ele>2273.9</ele>
        <time>2020-11-11T19:14:24Z</time>
      </trkpt>
      <trkpt lat="28.2579920" lon="-16.6107980">
        <ele>2273.9</ele>
        <time>2020-11-11T19:14:25Z</time>
      </trkpt>
      <trkpt lat="28.2579920" lon="-16.6107980">
        <ele>2273.9</ele>
        <time>2020-11-11T19:14:26Z</time>
      </trkpt>
      <trkpt lat="28.2579150" lon="-16.6109270">
        <ele>2272.9</ele>
        <time>2020-11-11T19:14:27Z</time>
      </trkpt>
      <trkpt lat="28.2579150" lon="-16.6109270">
        <ele>2272.9</ele>
        <time>2020-11-11T19:14:28Z</time>
      </trkpt>
      <trkpt lat="28.2578470" lon="-16.6110650">
        <ele>2272.9</ele>
        <time>2020-11-11T19:14:29Z</time>
      </trkpt>
      <trkpt lat="28.2578470" lon="-16.6110650">
        <ele>2272.9</ele>
        <time>2020-11-11T19:14:30Z</time>
      </trkpt>
      <trkpt lat="28.2578030" lon="-16.6112230">
        <ele>2271.9</ele>
        <time>2020-11-11T19:14:31Z</time>
      </trkpt>
      <trkpt lat="28.2578030" lon="-16.6112230">
        <ele>2271.9</ele>
        <time>2020-11-11T19:14:32Z</time>
      </trkpt>
      <trkpt lat="28.2577750" lon="-16.6113970">
        <ele>2271.9</ele>
        <time>2020-11-11T19:14:33Z</time>
      </trkpt>
      <trkpt lat="28.2577750" lon="-16.6113970">
        <ele>2270.9</ele>
        <time>2020-11-11T19:14:34Z</time>
      </trkpt>
      <trkpt lat="28.2577450" lon="-16.6115780">
        <ele>2270.9</ele>
        <time>2020-11-11T19:14:35Z</time>
      </trkpt>
      <trkpt lat="28.2577450" lon="-16.6115780">
        <ele>2270.9</ele>
        <time>2020-11-11T19:14:36Z</time>
      </trkpt>
      <trkpt lat="28.2577100" lon="-16.6117700">
        <ele>2270.9</ele>
        <time>2020-11-11T19:14:37Z</time>
      </trkpt>
      <trkpt lat="28.2577100" lon="-16.6117700">
        <ele>2268.9</ele>
        <time>2020-11-11T19:14:38Z</time>
      </trkpt>
      <trkpt lat="28.2576750" lon="-16.6119700">
        <ele>2268.9</ele>
        <time>2020-11-11T19:14:39Z</time>
      </trkpt>
      <trkpt lat="28.2576750" lon="-16.6119700">
        <ele>2267.9</ele>
        <time>2020-11-11T19:14:40Z</time>
      </trkpt>
      <trkpt lat="28.2576550" lon="-16.6121750">
        <ele>2267.9</ele>
        <time>2020-11-11T19:14:41Z</time>
      </trkpt>
      <trkpt lat="28.2576550" lon="-16.6121750">
        <ele>2266.9</ele>
        <time>2020-11-11T19:14:42Z</time>
      </trkpt>
      <trkpt lat="28.2576900" lon="-16.6123670">
        <ele>2266.9</ele>
        <time>2020-11-11T19:14:43Z</time>
      </trkpt>
      <trkpt lat="28.2576900" lon="-16.6123670">
        <ele>2265.9</ele>
        <time>2020-11-11T19:14:44Z</time>
      </trkpt>
      <trkpt lat="28.2577970" lon="-16.6125230">
        <ele>2265.9</ele>
        <time>2020-11-11T19:14:45Z</time>
      </trkpt>
      <trkpt lat="28.2577970" lon="-16.6125230">
        <ele>2265.9</ele>
        <time>2020-11-11T19:14:46Z</time>
      </trkpt>
      <trkpt lat="28.2579530" lon="-16.6126270">
        <ele>2264.9</ele>
        <time>2020-11-11T19:14:47Z</time>
      </trkpt>
      <trkpt lat="28.2579530" lon="-16.6126270">
        <ele>2264.9</ele>
        <time>2020-11-11T19:14:48Z</time>
      </trkpt>
      <trkpt lat="28.2581170" lon="-16.6127250">
        <ele>2262.9</ele>
        <time>2020-11-11T19:14:49Z</time>
      </trkpt>
      <trkpt lat="28.2581170" lon="-16.6127250">
        <ele>2262.9</ele>
        <time>2020-11-11T19:14:50Z</time>
      </trkpt>
      <trkpt lat="28.2582800" lon="-16.6128250">
        <ele>2261.9</ele>
        <time>2020-11-11T19:14:51Z</time>
      </trkpt>
      <trkpt lat="28.2582800" lon="-16.6128250">
        <ele>2261.9</ele>
        <time>2020-11-11T19:14:52Z</time>
      </trkpt>
      <trkpt lat="28.2584400" lon="-16.6129280">
        <ele>2260.9</ele>
        <time>2020-11-11T19:14:53Z</time>
      </trkpt>
      <trkpt lat="28.2584400" lon="-16.6129280">
        <ele>2260.9</ele>
        <time>2020-11-11T19:14:54Z</time>
      </trkpt>
      <trkpt lat="28.2585850" lon="-16.6130620">
        <ele>2259.9</ele>
        <time>2020-11-11T19:14:55Z</time>
      </trkpt>
      <trkpt lat="28.2585850" lon="-16.6130620">
        <ele>2259.9</ele>
        <time>2020-11-11T19:14:56Z</time>
      </trkpt>
      <trkpt lat="28.2587000" lon="-16.6132280">
        <ele>2259.9</ele>
        <time>2020-11-11T19:14:57Z</time>
      </trkpt>
      <trkpt lat="28.2587000" lon="-16.6132280">
        <ele>2259.9</ele>
        <time>2020-11-11T19:14:58Z</time>
      </trkpt>
      <trkpt lat="28.2588020" lon="-16.6134050">
        <ele>2257.9</ele>
        <time>2020-11-11T19:14:59Z</time>
      </trkpt>
      <trkpt lat="28.2588570" lon="-16.6134900">
        <ele>2257.9</ele>
        <time>2020-11-11T19:15:00Z</time>
      </trkpt>
      <trkpt lat="28.2588570" lon="-16.6134900">
        <ele>2257.9</ele>
        <time>2020-11-11T19:15:01Z</time>
      </trkpt>
      <trkpt lat="28.2589930" lon="-16.6136370">
        <ele>2257.9</ele>
        <time>2020-11-11T19:15:02Z</time>
      </trkpt>
      <trkpt lat="28.2590670" lon="-16.6137030">
        <ele>2256.9</ele>
        <time>2020-11-11T19:15:03Z</time>
      </trkpt>
      <trkpt lat="28.2590670" lon="-16.6137030">
        <ele>2256.9</ele>
        <time>2020-11-11T19:15:04Z</time>
      </trkpt>
      <trkpt lat="28.2592230" lon="-16.6138320">
        <ele>2255.9</ele>
        <time>2020-11-11T19:15:05Z</time>
      </trkpt>
      <trkpt lat="28.2592230" lon="-16.6138320">
        <ele>2255.9</ele>
        <time>2020-11-11T19:15:06Z</time>
      </trkpt>
      <trkpt lat="28.2593800" lon="-16.6139600">
        <ele>2254.9</ele>
        <time>2020-11-11T19:15:07Z</time>
      </trkpt>
      <trkpt lat="28.2594530" lon="-16.6140370">
        <ele>2254.9</ele>
        <time>2020-11-11T19:15:08Z</time>
      </trkpt>
      <trkpt lat="28.2594530" lon="-16.6140370">
        <ele>2254.9</ele>
        <time>2020-11-11T19:15:09Z</time>
      </trkpt>
      <trkpt lat="28.2595570" lon="-16.6142150">
        <ele>2254.9</ele>
        <time>2020-11-11T19:15:10Z</time>
      </trkpt>
      <trkpt lat="28.2595570" lon="-16.6142150">
        <ele>2254.9</ele>
        <time>2020-11-11T19:15:11Z</time>
      </trkpt>
      <trkpt lat="28.2596100" lon="-16.6144130">
        <ele>2252.9</ele>
        <time>2020-11-11T19:15:12Z</time>
      </trkpt>
      <trkpt lat="28.2596100" lon="-16.6144130">
        <ele>2252.9</ele>
        <time>2020-11-11T19:15:13Z</time>
      </trkpt>
      <trkpt lat="28.2596570" lon="-16.6146200">
        <ele>2252.9</ele>
        <time>2020-11-11T19:15:14Z</time>
      </trkpt>
      <trkpt lat="28.2596570" lon="-16.6146200">
        <ele>2252.9</ele>
        <time>2020-11-11T19:15:15Z</time>
      </trkpt>
      <trkpt lat="28.2597050" lon="-16.6148220">
        <ele>2251.9</ele>
        <time>2020-11-11T19:15:16Z</time>
      </trkpt>
      <trkpt lat="28.2597050" lon="-16.6148220">
        <ele>2251.9</ele>
        <time>2020-11-11T19:15:17Z</time>
      </trkpt>
      <trkpt lat="28.2597470" lon="-16.6150000">
        <ele>2251.9</ele>
        <time>2020-11-11T19:15:18Z</time>
      </trkpt>
      <trkpt lat="28.2597580" lon="-16.6150800">
        <ele>2251.9</ele>
        <time>2020-11-11T19:15:19Z</time>
      </trkpt>
      <trkpt lat="28.2597580" lon="-16.6150800">
        <ele>2250.9</ele>
        <time>2020-11-11T19:15:20Z</time>
      </trkpt>
      <trkpt lat="28.2597250" lon="-16.6152280">
        <ele>2250.9</ele>
        <time>2020-11-11T19:15:21Z</time>
      </trkpt>
      <trkpt lat="28.2597250" lon="-16.6152280">
        <ele>2250.9</ele>
        <time>2020-11-11T19:15:22Z</time>
      </trkpt>
      <trkpt lat="28.2596330" lon="-16.6153400">
        <ele>2250.9</ele>
        <time>2020-11-11T19:15:23Z</time>
      </trkpt>
      <trkpt lat="28.2596330" lon="-16.6153400">
        <ele>2249.9</ele>
        <time>2020-11-11T19:15:24Z</time>
      </trkpt>
      <trkpt lat="28.2595050" lon="-16.6154080">
        <ele>2249.9</ele>
        <time>2020-11-11T19:15:25Z</time>
      </trkpt>
      <trkpt lat="28.2595050" lon="-16.6154080">
        <ele>2249.9</ele>
        <time>2020-11-11T19:15:26Z</time>
      </trkpt>
      <trkpt lat="28.2593650" lon="-16.6154630">
        <ele>2249.9</ele>
        <time>2020-11-11T19:15:27Z</time>
      </trkpt>
      <trkpt lat="28.2593650" lon="-16.6154630">
        <ele>2249.9</ele>
        <time>2020-11-11T19:15:28Z</time>
      </trkpt>
      <trkpt lat="28.2592220" lon="-16.6155100">
        <ele>2248.9</ele>
        <time>2020-11-11T19:15:29Z</time>
      </trkpt>
      <trkpt lat="28.2592220" lon="-16.6155100">
        <ele>2248.9</ele>
        <time>2020-11-11T19:15:30Z</time>
      </trkpt>
      <trkpt lat="28.2590780" lon="-16.6155650">
        <ele>2248.9</ele>
        <time>2020-11-11T19:15:31Z</time>
      </trkpt>
      <trkpt lat="28.2590780" lon="-16.6155650">
        <ele>2248.9</ele>
        <time>2020-11-11T19:15:32Z</time>
      </trkpt>
      <trkpt lat="28.2589500" lon="-16.6156630">
        <ele>2247.9</ele>
        <time>2020-11-11T19:15:33Z</time>
      </trkpt>
      <trkpt lat="28.2589500" lon="-16.6156630">
        <ele>2247.9</ele>
        <time>2020-11-11T19:15:34Z</time>
      </trkpt>
      <trkpt lat="28.2588620" lon="-16.6158120">
        <ele>2247.9</ele>
        <time>2020-11-11T19:15:35Z</time>
      </trkpt>
      <trkpt lat="28.2588620" lon="-16.6158120">
        <ele>2247.9</ele>
        <time>2020-11-11T19:15:36Z</time>
      </trkpt>
      <trkpt lat="28.2588100" lon="-16.6159830">
        <ele>2246.9</ele>
        <time>2020-11-11T19:15:37Z</time>
      </trkpt>
      <trkpt lat="28.2588100" lon="-16.6159830">
        <ele>2246.9</ele>
        <time>2020-11-11T19:15:38Z</time>
      </trkpt>
      <trkpt lat="28.2587630" lon="-16.6161600">
        <ele>2246.9</ele>
        <time>2020-11-11T19:15:39Z</time>
      </trkpt>
      <trkpt lat="28.2587630" lon="-16.6161600">
        <ele>2246.9</ele>
        <time>2020-11-11T19:15:40Z</time>
      </trkpt>
      <trkpt lat="28.2587130" lon="-16.6163400">
        <ele>2245.9</ele>
        <time>2020-11-11T19:15:41Z</time>
      </trkpt>
      <trkpt lat="28.2587130" lon="-16.6163400">
        <ele>2245.9</ele>
        <time>2020-11-11T19:15:42Z</time>
      </trkpt>
      <trkpt lat="28.2586630" lon="-16.6165200">
        <ele>2245.9</ele>
        <time>2020-11-11T19:15:43Z</time>
      </trkpt>
      <trkpt lat="28.2586630" lon="-16.6165200">
        <ele>2245.9</ele>
        <time>2020-11-11T19:15:44Z</time>
      </trkpt>
      <trkpt lat="28.2586150" lon="-16.6167030">
        <ele>2244.9</ele>
        <time>2020-11-11T19:15:45Z</time>
      </trkpt>
      <trkpt lat="28.2586150" lon="-16.6167030">
        <ele>2244.9</ele>
        <time>2020-11-11T19:15:46Z</time>
      </trkpt>
      <trkpt lat="28.2585630" lon="-16.6168900">
        <ele>2243.9</ele>
        <time>2020-11-11T19:15:47Z</time>
      </trkpt>
      <trkpt lat="28.2585630" lon="-16.6168900">
        <ele>2243.9</ele>
        <time>2020-11-11T19:15:48Z</time>
      </trkpt>
      <trkpt lat="28.2585070" lon="-16.6170750">
        <ele>2243.9</ele>
        <time>2020-11-11T19:15:49Z</time>
      </trkpt>
      <trkpt lat="28.2585070" lon="-16.6170750">
        <ele>2242.9</ele>
        <time>2020-11-11T19:15:50Z</time>
      </trkpt>
      <trkpt lat="28.2584530" lon="-16.6172650">
        <ele>2242.9</ele>
        <time>2020-11-11T19:15:51Z</time>
      </trkpt>
      <trkpt lat="28.2584530" lon="-16.6172650">
        <ele>2242.9</ele>
        <time>2020-11-11T19:15:52Z</time>
      </trkpt>
      <trkpt lat="28.2584020" lon="-16.6174570">
        <ele>2242.9</ele>
        <time>2020-11-11T19:15:53Z</time>
      </trkpt>
      <trkpt lat="28.2584020" lon="-16.6174570">
        <ele>2241.9</ele>
        <time>2020-11-11T19:15:54Z</time>
      </trkpt>
      <trkpt lat="28.2583480" lon="-16.6176450">
        <ele>2241.9</ele>
        <time>2020-11-11T19:15:55Z</time>
      </trkpt>
      <trkpt lat="28.2583480" lon="-16.6176450">
        <ele>2241.9</ele>
        <time>2020-11-11T19:15:56Z</time>
      </trkpt>
      <trkpt lat="28.2582800" lon="-16.6178180">
        <ele>2241.9</ele>
        <time>2020-11-11T19:15:57Z</time>
      </trkpt>
      <trkpt lat="28.2582800" lon="-16.6178180">
        <ele>2240.9</ele>
        <time>2020-11-11T19:15:58Z</time>
      </trkpt>
      <trkpt lat="28.2581620" lon="-16.6179450">
        <ele>2240.9</ele>
        <time>2020-11-11T19:15:59Z</time>
      </trkpt>
      <trkpt lat="28.2581620" lon="-16.6179450">
        <ele>2240.9</ele>
        <time>2020-11-11T19:16:00Z</time>
      </trkpt>
      <trkpt lat="28.2580100" lon="-16.6180200">
        <ele>2240.9</ele>
        <time>2020-11-11T19:16:01Z</time>
      </trkpt>
      <trkpt lat="28.2579270" lon="-16.6180480">
        <ele>2239.9</ele>
        <time>2020-11-11T19:16:02Z</time>
      </trkpt>
      <trkpt lat="28.2579270" lon="-16.6180480">
        <ele>2239.9</ele>
        <time>2020-11-11T19:16:03Z</time>
      </trkpt>
      <trkpt lat="28.2577680" lon="-16.6181030">
        <ele>2239.9</ele>
        <time>2020-11-11T19:16:04Z</time>
      </trkpt>
      <trkpt lat="28.2577680" lon="-16.6181030">
        <ele>2239.9</ele>
        <time>2020-11-11T19:16:05Z</time>
      </trkpt>
      <trkpt lat="28.2576050" lon="-16.6181480">
        <ele>2238.9</ele>
        <time>2020-11-11T19:16:06Z</time>
      </trkpt>
      <trkpt lat="28.2575170" lon="-16.6181650">
        <ele>2238.9</ele>
        <time>2020-11-11T19:16:07Z</time>
      </trkpt>
      <trkpt lat="28.2575170" lon="-16.6181650">
        <ele>2238.9</ele>
        <time>2020-11-11T19:16:08Z</time>
      </trkpt>
      <trkpt lat="28.2573400" lon="-16.6181780">
        <ele>2238.9</ele>
        <time>2020-11-11T19:16:09Z</time>
      </trkpt>
      <trkpt lat="28.2573400" lon="-16.6181780">
        <ele>2236.9</ele>
        <time>2020-11-11T19:16:10Z</time>
      </trkpt>
      <trkpt lat="28.2571570" lon="-16.6181850">
        <ele>2236.9</ele>
        <time>2020-11-11T19:16:11Z</time>
      </trkpt>
      <trkpt lat="28.2571570" lon="-16.6181850">
        <ele>2236.9</ele>
        <time>2020-11-11T19:16:12Z</time>
      </trkpt>
      <trkpt lat="28.2569780" lon="-16.6181930">
        <ele>2235.9</ele>
        <time>2020-11-11T19:16:13Z</time>
      </trkpt>
      <trkpt lat="28.2569780" lon="-16.6181930">
        <ele>2235.9</ele>
        <time>2020-11-11T19:16:14Z</time>
      </trkpt>
      <trkpt lat="28.2567970" lon="-16.6182080">
        <ele>2234.9</ele>
        <time>2020-11-11T19:16:15Z</time>
      </trkpt>
      <trkpt lat="28.2567970" lon="-16.6182080">
        <ele>2234.9</ele>
        <time>2020-11-11T19:16:16Z</time>
      </trkpt>
      <trkpt lat="28.2566150" lon="-16.6182320">
        <ele>2234.9</ele>
        <time>2020-11-11T19:16:17Z</time>
      </trkpt>
      <trkpt lat="28.2566150" lon="-16.6182320">
        <ele>2234.9</ele>
        <time>2020-11-11T19:16:18Z</time>
      </trkpt>
      <trkpt lat="28.2564480" lon="-16.6183150">
        <ele>2234.9</ele>
        <time>2020-11-11T19:16:19Z</time>
      </trkpt>
      <trkpt lat="28.2564480" lon="-16.6183150">
        <ele>2234.9</ele>
        <time>2020-11-11T19:16:20Z</time>
      </trkpt>
      <trkpt lat="28.2563300" lon="-16.6184680">
        <ele>2232.9</ele>
        <time>2020-11-11T19:16:21Z</time>
      </trkpt>
      <trkpt lat="28.2562770" lon="-16.6185480">
        <ele>2232.9</ele>
        <time>2020-11-11T19:16:22Z</time>
      </trkpt>
      <trkpt lat="28.2562770" lon="-16.6185480">
        <ele>2232.9</ele>
        <time>2020-11-11T19:16:23Z</time>
      </trkpt>
      <trkpt lat="28.2561750" lon="-16.6186970">
        <ele>2232.9</ele>
        <time>2020-11-11T19:16:24Z</time>
      </trkpt>
      <trkpt lat="28.2561750" lon="-16.6186970">
        <ele>2232.9</ele>
        <time>2020-11-11T19:16:25Z</time>
      </trkpt>
      <trkpt lat="28.2560770" lon="-16.6188380">
        <ele>2232.9</ele>
        <time>2020-11-11T19:16:26Z</time>
      </trkpt>
      <trkpt lat="28.2560770" lon="-16.6188380">
        <ele>2232.9</ele>
        <time>2020-11-11T19:16:27Z</time>
      </trkpt>
      <trkpt lat="28.2559820" lon="-16.6189750">
        <ele>2232.9</ele>
        <time>2020-11-11T19:16:28Z</time>
      </trkpt>
      <trkpt lat="28.2559820" lon="-16.6189750">
        <ele>2232.9</ele>
        <time>2020-11-11T19:16:29Z</time>
      </trkpt>
      <trkpt lat="28.2558880" lon="-16.6191020">
        <ele>2231.9</ele>
        <time>2020-11-11T19:16:30Z</time>
      </trkpt>
      <trkpt lat="28.2558420" lon="-16.6191630">
        <ele>2231.9</ele>
        <time>2020-11-11T19:16:31Z</time>
      </trkpt>
      <trkpt lat="28.2558420" lon="-16.6191630">
        <ele>2231.9</ele>
        <time>2020-11-11T19:16:32Z</time>
      </trkpt>
      <trkpt lat="28.2557450" lon="-16.6192870">
        <ele>2231.9</ele>
        <time>2020-11-11T19:16:33Z</time>
      </trkpt>
      <trkpt lat="28.2557450" lon="-16.6192870">
        <ele>2231.9</ele>
        <time>2020-11-11T19:16:34Z</time>
      </trkpt>
      <trkpt lat="28.2556520" lon="-16.6194130">
        <ele>2231.9</ele>
        <time>2020-11-11T19:16:35Z</time>
      </trkpt>
      <trkpt lat="28.2556520" lon="-16.6194130">
        <ele>2231.9</ele>
        <time>2020-11-11T19:16:36Z</time>
      </trkpt>
      <trkpt lat="28.2555630" lon="-16.6195370">
        <ele>2231.9</ele>
        <time>2020-11-11T19:16:37Z</time>
      </trkpt>
      <trkpt lat="28.2555630" lon="-16.6195370">
        <ele>2231.9</ele>
        <time>2020-11-11T19:16:38Z</time>
      </trkpt>
      <trkpt lat="28.2554770" lon="-16.6196520">
        <ele>2231.9</ele>
        <time>2020-11-11T19:16:39Z</time>
      </trkpt>
      <trkpt lat="28.2554770" lon="-16.6196520">
        <ele>2231.9</ele>
        <time>2020-11-11T19:16:40Z</time>
      </trkpt>
      <trkpt lat="28.2554120" lon="-16.6197750">
        <ele>2231.9</ele>
        <time>2020-11-11T19:16:41Z</time>
      </trkpt>
      <trkpt lat="28.2554120" lon="-16.6197750">
        <ele>2231.9</ele>
        <time>2020-11-11T19:16:42Z</time>
      </trkpt>
      <trkpt lat="28.2553630" lon="-16.6199150">
        <ele>2231.9</ele>
        <time>2020-11-11T19:16:43Z</time>
      </trkpt>
      <trkpt lat="28.2553630" lon="-16.6199150">
        <ele>2231.9</ele>
        <time>2020-11-11T19:16:44Z</time>
      </trkpt>
      <trkpt lat="28.2553230" lon="-16.6200550">
        <ele>2231.9</ele>
        <time>2020-11-11T19:16:45Z</time>
      </trkpt>
      <trkpt lat="28.2553230" lon="-16.6200550">
        <ele>2231.9</ele>
        <time>2020-11-11T19:16:46Z</time>
      </trkpt>
      <trkpt lat="28.2552770" lon="-16.6201880">
        <ele>2231.9</ele>
        <time>2020-11-11T19:16:47Z</time>
      </trkpt>
      <trkpt lat="28.2552770" lon="-16.6201880">
        <ele>2231.9</ele>
        <time>2020-11-11T19:16:48Z</time>
      </trkpt>
      <trkpt lat="28.2552300" lon="-16.6203220">
        <ele>2231.9</ele>
        <time>2020-11-11T19:16:49Z</time>
      </trkpt>
      <trkpt lat="28.2552300" lon="-16.6203220">
        <ele>2231.9</ele>
        <time>2020-11-11T19:16:50Z</time>
      </trkpt>
      <trkpt lat="28.2551900" lon="-16.6204500">
        <ele>2231.9</ele>
        <time>2020-11-11T19:16:51Z</time>
      </trkpt>
      <trkpt lat="28.2551900" lon="-16.6204500">
        <ele>2231.9</ele>
        <time>2020-11-11T19:16:52Z</time>
      </trkpt>
      <trkpt lat="28.2551500" lon="-16.6205820">
        <ele>2231.9</ele>
        <time>2020-11-11T19:16:53Z</time>
      </trkpt>
      <trkpt lat="28.2551500" lon="-16.6205820">
        <ele>2231.9</ele>
        <time>2020-11-11T19:16:54Z</time>
      </trkpt>
      <trkpt lat="28.2551030" lon="-16.6207180">
        <ele>2231.9</ele>
        <time>2020-11-11T19:16:55Z</time>
      </trkpt>
      <trkpt lat="28.2551030" lon="-16.6207180">
        <ele>2229.9</ele>
        <time>2020-11-11T19:16:56Z</time>
      </trkpt>
      <trkpt lat="28.2550530" lon="-16.6208620">
        <ele>2229.9</ele>
        <time>2020-11-11T19:16:57Z</time>
      </trkpt>
      <trkpt lat="28.2550530" lon="-16.6208620">
        <ele>2229.9</ele>
        <time>2020-11-11T19:16:58Z</time>
      </trkpt>
      <trkpt lat="28.2550050" lon="-16.6210100">
        <ele>2229.9</ele>
        <time>2020-11-11T19:16:59Z</time>
      </trkpt>
      <trkpt lat="28.2550050" lon="-16.6210100">
        <ele>2229.9</ele>
        <time>2020-11-11T19:17:00Z</time>
      </trkpt>
      <trkpt lat="28.2549530" lon="-16.6211630">
        <ele>2229.9</ele>
        <time>2020-11-11T19:17:01Z</time>
      </trkpt>
      <trkpt lat="28.2549530" lon="-16.6211630">
        <ele>2228.9</ele>
        <time>2020-11-11T19:17:02Z</time>
      </trkpt>
      <trkpt lat="28.2548980" lon="-16.6213230">
        <ele>2228.9</ele>
        <time>2020-11-11T19:17:03Z</time>
      </trkpt>
      <trkpt lat="28.2548980" lon="-16.6213230">
        <ele>2228.9</ele>
        <time>2020-11-11T19:17:04Z</time>
      </trkpt>
      <trkpt lat="28.2548520" lon="-16.6214930">
        <ele>2228.9</ele>
        <time>2020-11-11T19:17:05Z</time>
      </trkpt>
      <trkpt lat="28.2548520" lon="-16.6214930">
        <ele>2227.9</ele>
        <time>2020-11-11T19:17:06Z</time>
      </trkpt>
      <trkpt lat="28.2548000" lon="-16.6216630">
        <ele>2227.9</ele>
        <time>2020-11-11T19:17:07Z</time>
      </trkpt>
      <trkpt lat="28.2548000" lon="-16.6216630">
        <ele>2227.9</ele>
        <time>2020-11-11T19:17:08Z</time>
      </trkpt>
      <trkpt lat="28.2547450" lon="-16.6218380">
        <ele>2227.9</ele>
        <time>2020-11-11T19:17:09Z</time>
      </trkpt>
      <trkpt lat="28.2547450" lon="-16.6218380">
        <ele>2226.9</ele>
        <time>2020-11-11T19:17:10Z</time>
      </trkpt>
      <trkpt lat="28.2546880" lon="-16.6220170">
        <ele>2226.9</ele>
        <time>2020-11-11T19:17:11Z</time>
      </trkpt>
      <trkpt lat="28.2546880" lon="-16.6220170">
        <ele>2226.9</ele>
        <time>2020-11-11T19:17:12Z</time>
      </trkpt>
      <trkpt lat="28.2546280" lon="-16.6221970">
        <ele>2226.9</ele>
        <time>2020-11-11T19:17:13Z</time>
      </trkpt>
      <trkpt lat="28.2546280" lon="-16.6221970">
        <ele>2224.9</ele>
        <time>2020-11-11T19:17:14Z</time>
      </trkpt>
      <trkpt lat="28.2545670" lon="-16.6223780">
        <ele>2223.9</ele>
        <time>2020-11-11T19:17:15Z</time>
      </trkpt>
      <trkpt lat="28.2545670" lon="-16.6223780">
        <ele>2223.9</ele>
        <time>2020-11-11T19:17:16Z</time>
      </trkpt>
      <trkpt lat="28.2545030" lon="-16.6225650">
        <ele>2222.9</ele>
        <time>2020-11-11T19:17:17Z</time>
      </trkpt>
      <trkpt lat="28.2545030" lon="-16.6225650">
        <ele>2222.9</ele>
        <time>2020-11-11T19:17:18Z</time>
      </trkpt>
      <trkpt lat="28.2544430" lon="-16.6227570">
        <ele>2221.9</ele>
        <time>2020-11-11T19:17:19Z</time>
      </trkpt>
      <trkpt lat="28.2544430" lon="-16.6227570">
        <ele>2221.9</ele>
        <time>2020-11-11T19:17:20Z</time>
      </trkpt>
      <trkpt lat="28.2543880" lon="-16.6229450">
        <ele>2220.9</ele>
        <time>2020-11-11T19:17:21Z</time>
      </trkpt>
      <trkpt lat="28.2543880" lon="-16.6229450">
        <ele>2220.9</ele>
        <time>2020-11-11T19:17:22Z</time>
      </trkpt>
      <trkpt lat="28.2543280" lon="-16.6231330">
        <ele>2220.9</ele>
        <time>2020-11-11T19:17:23Z</time>
      </trkpt>
      <trkpt lat="28.2543280" lon="-16.6231330">
        <ele>2220.9</ele>
        <time>2020-11-11T19:17:24Z</time>
      </trkpt>
      <trkpt lat="28.2542650" lon="-16.6233230">
        <ele>2219.9</ele>
        <time>2020-11-11T19:17:25Z</time>
      </trkpt>
      <trkpt lat="28.2542650" lon="-16.6233230">
        <ele>2219.9</ele>
        <time>2020-11-11T19:17:26Z</time>
      </trkpt>
      <trkpt lat="28.2542030" lon="-16.6235180">
        <ele>2219.9</ele>
        <time>2020-11-11T19:17:27Z</time>
      </trkpt>
      <trkpt lat="28.2542030" lon="-16.6235180">
        <ele>2219.9</ele>
        <time>2020-11-11T19:17:28Z</time>
      </trkpt>
      <trkpt lat="28.2541420" lon="-16.6237130">
        <ele>2218.9</ele>
        <time>2020-11-11T19:17:29Z</time>
      </trkpt>
      <trkpt lat="28.2541420" lon="-16.6237130">
        <ele>2218.9</ele>
        <time>2020-11-11T19:17:30Z</time>
      </trkpt>
      <trkpt lat="28.2540800" lon="-16.6239080">
        <ele>2218.9</ele>
        <time>2020-11-11T19:17:31Z</time>
      </trkpt>
      <trkpt lat="28.2540800" lon="-16.6239080">
        <ele>2218.9</ele>
        <time>2020-11-11T19:17:32Z</time>
      </trkpt>
      <trkpt lat="28.2540180" lon="-16.6241070">
        <ele>2216.9</ele>
        <time>2020-11-11T19:17:33Z</time>
      </trkpt>
      <trkpt lat="28.2540180" lon="-16.6241070">
        <ele>2216.9</ele>
        <time>2020-11-11T19:17:34Z</time>
      </trkpt>
      <trkpt lat="28.2539530" lon="-16.6243070">
        <ele>2216.9</ele>
        <time>2020-11-11T19:17:35Z</time>
      </trkpt>
      <trkpt lat="28.2539530" lon="-16.6243070">
        <ele>2216.9</ele>
        <time>2020-11-11T19:17:36Z</time>
      </trkpt>
      <trkpt lat="28.2538880" lon="-16.6245050">
        <ele>2216.9</ele>
        <time>2020-11-11T19:17:37Z</time>
      </trkpt>
      <trkpt lat="28.2538880" lon="-16.6245050">
        <ele>2216.9</ele>
        <time>2020-11-11T19:17:38Z</time>
      </trkpt>
      <trkpt lat="28.2538270" lon="-16.6247000">
        <ele>2214.9</ele>
        <time>2020-11-11T19:17:39Z</time>
      </trkpt>
      <trkpt lat="28.2538270" lon="-16.6247000">
        <ele>2214.9</ele>
        <time>2020-11-11T19:17:40Z</time>
      </trkpt>
      <trkpt lat="28.2537620" lon="-16.6248900">
        <ele>2214.9</ele>
        <time>2020-11-11T19:17:41Z</time>
      </trkpt>
      <trkpt lat="28.2537250" lon="-16.6249820">
        <ele>2214.9</ele>
        <time>2020-11-11T19:17:42Z</time>
      </trkpt>
      <trkpt lat="28.2537250" lon="-16.6249820">
        <ele>2213.9</ele>
        <time>2020-11-11T19:17:43Z</time>
      </trkpt>
      <trkpt lat="28.2536180" lon="-16.6251430">
        <ele>2213.9</ele>
        <time>2020-11-11T19:17:44Z</time>
      </trkpt>
      <trkpt lat="28.2535480" lon="-16.6252100">
        <ele>2212.9</ele>
        <time>2020-11-11T19:17:45Z</time>
      </trkpt>
      <trkpt lat="28.2535480" lon="-16.6252100">
        <ele>2212.9</ele>
        <time>2020-11-11T19:17:46Z</time>
      </trkpt>
      <trkpt lat="28.2533930" lon="-16.6253270">
        <ele>2211.9</ele>
        <time>2020-11-11T19:17:47Z</time>
      </trkpt>
      <trkpt lat="28.2533120" lon="-16.6253800">
        <ele>2211.9</ele>
        <time>2020-11-11T19:17:48Z</time>
      </trkpt>
      <trkpt lat="28.2532270" lon="-16.6254320">
        <ele>2210.9</ele>
        <time>2020-11-11T19:17:49Z</time>
      </trkpt>
      <trkpt lat="28.2532270" lon="-16.6254320">
        <ele>2209.9</ele>
        <time>2020-11-11T19:17:50Z</time>
      </trkpt>
      <trkpt lat="28.2530650" lon="-16.6255370">
        <ele>2209.9</ele>
        <time>2020-11-11T19:17:51Z</time>
      </trkpt>
      <trkpt lat="28.2530650" lon="-16.6255370">
        <ele>2208.9</ele>
        <time>2020-11-11T19:17:52Z</time>
      </trkpt>
      <trkpt lat="28.2529050" lon="-16.6256480">
        <ele>2208.9</ele>
        <time>2020-11-11T19:17:53Z</time>
      </trkpt>
      <trkpt lat="28.2529050" lon="-16.6256480">
        <ele>2208.9</ele>
        <time>2020-11-11T19:17:54Z</time>
      </trkpt>
      <trkpt lat="28.2527400" lon="-16.6257550">
        <ele>2208.9</ele>
        <time>2020-11-11T19:17:55Z</time>
      </trkpt>
      <trkpt lat="28.2527400" lon="-16.6257550">
        <ele>2207.9</ele>
        <time>2020-11-11T19:17:56Z</time>
      </trkpt>
      <trkpt lat="28.2525750" lon="-16.6258680">
        <ele>2207.9</ele>
        <time>2020-11-11T19:17:57Z</time>
      </trkpt>
      <trkpt lat="28.2525750" lon="-16.6258680">
        <ele>2207.9</ele>
        <time>2020-11-11T19:17:58Z</time>
      </trkpt>
      <trkpt lat="28.2524070" lon="-16.6259820">
        <ele>2207.9</ele>
        <time>2020-11-11T19:17:59Z</time>
      </trkpt>
      <trkpt lat="28.2524070" lon="-16.6259820">
        <ele>2206.9</ele>
        <time>2020-11-11T19:18:00Z</time>
      </trkpt>
      <trkpt lat="28.2522400" lon="-16.6260970">
        <ele>2206.9</ele>
        <time>2020-11-11T19:18:01Z</time>
      </trkpt>
      <trkpt lat="28.2522400" lon="-16.6260970">
        <ele>2206.9</ele>
        <time>2020-11-11T19:18:02Z</time>
      </trkpt>
      <trkpt lat="28.2520730" lon="-16.6262150">
        <ele>2206.9</ele>
        <time>2020-11-11T19:18:03Z</time>
      </trkpt>
      <trkpt lat="28.2520730" lon="-16.6262150">
        <ele>2204.9</ele>
        <time>2020-11-11T19:18:04Z</time>
      </trkpt>
      <trkpt lat="28.2519020" lon="-16.6263330">
        <ele>2204.9</ele>
        <time>2020-11-11T19:18:05Z</time>
      </trkpt>
      <trkpt lat="28.2519020" lon="-16.6263330">
        <ele>2203.9</ele>
        <time>2020-11-11T19:18:06Z</time>
      </trkpt>
      <trkpt lat="28.2517280" lon="-16.6264520">
        <ele>2203.9</ele>
        <time>2020-11-11T19:18:07Z</time>
      </trkpt>
      <trkpt lat="28.2517280" lon="-16.6264520">
        <ele>2202.9</ele>
        <time>2020-11-11T19:18:08Z</time>
      </trkpt>
      <trkpt lat="28.2515550" lon="-16.6265700">
        <ele>2202.9</ele>
        <time>2020-11-11T19:18:09Z</time>
      </trkpt>
      <trkpt lat="28.2515550" lon="-16.6265700">
        <ele>2202.9</ele>
        <time>2020-11-11T19:18:10Z</time>
      </trkpt>
      <trkpt lat="28.2513850" lon="-16.6266830">
        <ele>2202.9</ele>
        <time>2020-11-11T19:18:11Z</time>
      </trkpt>
      <trkpt lat="28.2513850" lon="-16.6266830">
        <ele>2202.9</ele>
        <time>2020-11-11T19:18:12Z</time>
      </trkpt>
      <trkpt lat="28.2512170" lon="-16.6267950">
        <ele>2202.9</ele>
        <time>2020-11-11T19:18:13Z</time>
      </trkpt>
      <trkpt lat="28.2512170" lon="-16.6267950">
        <ele>2202.9</ele>
        <time>2020-11-11T19:18:14Z</time>
      </trkpt>
      <trkpt lat="28.2510550" lon="-16.6269070">
        <ele>2202.9</ele>
        <time>2020-11-11T19:18:15Z</time>
      </trkpt>
      <trkpt lat="28.2510550" lon="-16.6269070">
        <ele>2201.9</ele>
        <time>2020-11-11T19:18:16Z</time>
      </trkpt>
      <trkpt lat="28.2509030" lon="-16.6270130">
        <ele>2201.9</ele>
        <time>2020-11-11T19:18:17Z</time>
      </trkpt>
      <trkpt lat="28.2509030" lon="-16.6270130">
        <ele>2201.9</ele>
        <time>2020-11-11T19:18:18Z</time>
      </trkpt>
      <trkpt lat="28.2507530" lon="-16.6271170">
        <ele>2201.9</ele>
        <time>2020-11-11T19:18:19Z</time>
      </trkpt>
      <trkpt lat="28.2507530" lon="-16.6271170">
        <ele>2201.9</ele>
        <time>2020-11-11T19:18:20Z</time>
      </trkpt>
      <trkpt lat="28.2506020" lon="-16.6272050">
        <ele>2201.9</ele>
        <time>2020-11-11T19:18:21Z</time>
      </trkpt>
      <trkpt lat="28.2506020" lon="-16.6272050">
        <ele>2200.9</ele>
        <time>2020-11-11T19:18:22Z</time>
      </trkpt>
      <trkpt lat="28.2504480" lon="-16.6272770">
        <ele>2200.9</ele>
        <time>2020-11-11T19:18:23Z</time>
      </trkpt>
      <trkpt lat="28.2504480" lon="-16.6272770">
        <ele>2200.9</ele>
        <time>2020-11-11T19:18:24Z</time>
      </trkpt>
      <trkpt lat="28.2502930" lon="-16.6273320">
        <ele>2200.9</ele>
        <time>2020-11-11T19:18:25Z</time>
      </trkpt>
      <trkpt lat="28.2502930" lon="-16.6273320">
        <ele>2200.9</ele>
        <time>2020-11-11T19:18:26Z</time>
      </trkpt>
      <trkpt lat="28.2501380" lon="-16.6273670">
        <ele>2200.9</ele>
        <time>2020-11-11T19:18:27Z</time>
      </trkpt>
      <trkpt lat="28.2501380" lon="-16.6273670">
        <ele>2199.9</ele>
        <time>2020-11-11T19:18:28Z</time>
      </trkpt>
      <trkpt lat="28.2499830" lon="-16.6273930">
        <ele>2199.9</ele>
        <time>2020-11-11T19:18:29Z</time>
      </trkpt>
      <trkpt lat="28.2499830" lon="-16.6273930">
        <ele>2199.9</ele>
        <time>2020-11-11T19:18:30Z</time>
      </trkpt>
      <trkpt lat="28.2498280" lon="-16.6274180">
        <ele>2199.9</ele>
        <time>2020-11-11T19:18:31Z</time>
      </trkpt>
      <trkpt lat="28.2498280" lon="-16.6274180">
        <ele>2199.9</ele>
        <time>2020-11-11T19:18:32Z</time>
      </trkpt>
      <trkpt lat="28.2496730" lon="-16.6274450">
        <ele>2198.9</ele>
        <time>2020-11-11T19:18:33Z</time>
      </trkpt>
      <trkpt lat="28.2496730" lon="-16.6274450">
        <ele>2198.9</ele>
        <time>2020-11-11T19:18:34Z</time>
      </trkpt>
      <trkpt lat="28.2495150" lon="-16.6274720">
        <ele>2198.9</ele>
        <time>2020-11-11T19:18:35Z</time>
      </trkpt>
      <trkpt lat="28.2495150" lon="-16.6274720">
        <ele>2198.9</ele>
        <time>2020-11-11T19:18:36Z</time>
      </trkpt>
      <trkpt lat="28.2493570" lon="-16.6274950">
        <ele>2197.9</ele>
        <time>2020-11-11T19:18:37Z</time>
      </trkpt>
      <trkpt lat="28.2493570" lon="-16.6274950">
        <ele>2197.9</ele>
        <time>2020-11-11T19:18:38Z</time>
      </trkpt>
      <trkpt lat="28.2491950" lon="-16.6275170">
        <ele>2197.9</ele>
        <time>2020-11-11T19:18:39Z</time>
      </trkpt>
      <trkpt lat="28.2491950" lon="-16.6275170">
        <ele>2197.9</ele>
        <time>2020-11-11T19:18:40Z</time>
      </trkpt>
      <trkpt lat="28.2490300" lon="-16.6275450">
        <ele>2197.9</ele>
        <time>2020-11-11T19:18:41Z</time>
      </trkpt>
      <trkpt lat="28.2490300" lon="-16.6275450">
        <ele>2197.9</ele>
        <time>2020-11-11T19:18:42Z</time>
      </trkpt>
      <trkpt lat="28.2488570" lon="-16.6275700">
        <ele>2197.9</ele>
        <time>2020-11-11T19:18:43Z</time>
      </trkpt>
      <trkpt lat="28.2488570" lon="-16.6275700">
        <ele>2196.9</ele>
        <time>2020-11-11T19:18:44Z</time>
      </trkpt>
      <trkpt lat="28.2486730" lon="-16.6275980">
        <ele>2196.9</ele>
        <time>2020-11-11T19:18:45Z</time>
      </trkpt>
      <trkpt lat="28.2486730" lon="-16.6275980">
        <ele>2195.9</ele>
        <time>2020-11-11T19:18:46Z</time>
      </trkpt>
      <trkpt lat="28.2484770" lon="-16.6276320">
        <ele>2195.9</ele>
        <time>2020-11-11T19:18:47Z</time>
      </trkpt>
      <trkpt lat="28.2484770" lon="-16.6276320">
        <ele>2193.9</ele>
        <time>2020-11-11T19:18:48Z</time>
      </trkpt>
      <trkpt lat="28.2482770" lon="-16.6276670">
        <ele>2193.9</ele>
        <time>2020-11-11T19:18:49Z</time>
      </trkpt>
      <trkpt lat="28.2482770" lon="-16.6276670">
        <ele>2192.9</ele>
        <time>2020-11-11T19:18:50Z</time>
      </trkpt>
      <trkpt lat="28.2480780" lon="-16.6277030">
        <ele>2192.9</ele>
        <time>2020-11-11T19:18:51Z</time>
      </trkpt>
      <trkpt lat="28.2480780" lon="-16.6277030">
        <ele>2190.9</ele>
        <time>2020-11-11T19:18:52Z</time>
      </trkpt>
      <trkpt lat="28.2478780" lon="-16.6277300">
        <ele>2190.9</ele>
        <time>2020-11-11T19:18:53Z</time>
      </trkpt>
      <trkpt lat="28.2477730" lon="-16.6277450">
        <ele>2188.9</ele>
        <time>2020-11-11T19:18:54Z</time>
      </trkpt>
      <trkpt lat="28.2476680" lon="-16.6277650">
        <ele>2188.9</ele>
        <time>2020-11-11T19:18:55Z</time>
      </trkpt>
      <trkpt lat="28.2476680" lon="-16.6277650">
        <ele>2186.9</ele>
        <time>2020-11-11T19:18:56Z</time>
      </trkpt>
      <trkpt lat="28.2474500" lon="-16.6278250">
        <ele>2186.9</ele>
        <time>2020-11-11T19:18:57Z</time>
      </trkpt>
      <trkpt lat="28.2474500" lon="-16.6278250">
        <ele>2184.9</ele>
        <time>2020-11-11T19:18:58Z</time>
      </trkpt>
      <trkpt lat="28.2472350" lon="-16.6279120">
        <ele>2184.9</ele>
        <time>2020-11-11T19:18:59Z</time>
      </trkpt>
      <trkpt lat="28.2472350" lon="-16.6279120">
        <ele>2182.9</ele>
        <time>2020-11-11T19:19:00Z</time>
      </trkpt>
      <trkpt lat="28.2470300" lon="-16.6280320">
        <ele>2182.9</ele>
        <time>2020-11-11T19:19:01Z</time>
      </trkpt>
      <trkpt lat="28.2470300" lon="-16.6280320">
        <ele>2180.9</ele>
        <time>2020-11-11T19:19:02Z</time>
      </trkpt>
      <trkpt lat="28.2468330" lon="-16.6281780">
        <ele>2180.9</ele>
        <time>2020-11-11T19:19:03Z</time>
      </trkpt>
      <trkpt lat="28.2468330" lon="-16.6281780">
        <ele>2178.9</ele>
        <time>2020-11-11T19:19:04Z</time>
      </trkpt>
      <trkpt lat="28.2466300" lon="-16.6283450">
        <ele>2178.9</ele>
        <time>2020-11-11T19:19:05Z</time>
      </trkpt>
      <trkpt lat="28.2466300" lon="-16.6283450">
        <ele>2176.9</ele>
        <time>2020-11-11T19:19:06Z</time>
      </trkpt>
      <trkpt lat="28.2464200" lon="-16.6285200">
        <ele>2176.9</ele>
        <time>2020-11-11T19:19:07Z</time>
      </trkpt>
      <trkpt lat="28.2464200" lon="-16.6285200">
        <ele>2174.9</ele>
        <time>2020-11-11T19:19:08Z</time>
      </trkpt>
      <trkpt lat="28.2462000" lon="-16.6287030">
        <ele>2172.9</ele>
        <time>2020-11-11T19:19:09Z</time>
      </trkpt>
      <trkpt lat="28.2462000" lon="-16.6287030">
        <ele>2172.9</ele>
        <time>2020-11-11T19:19:10Z</time>
      </trkpt>
      <trkpt lat="28.2459820" lon="-16.6288900">
        <ele>2170.9</ele>
        <time>2020-11-11T19:19:11Z</time>
      </trkpt>
      <trkpt lat="28.2459820" lon="-16.6288900">
        <ele>2170.9</ele>
        <time>2020-11-11T19:19:12Z</time>
      </trkpt>
      <trkpt lat="28.2457530" lon="-16.6290780">
        <ele>2170.9</ele>
        <time>2020-11-11T19:19:13Z</time>
      </trkpt>
      <trkpt lat="28.2457530" lon="-16.6290780">
        <ele>2167.9</ele>
        <time>2020-11-11T19:19:14Z</time>
      </trkpt>
      <trkpt lat="28.2455280" lon="-16.6292730">
        <ele>2165.9</ele>
        <time>2020-11-11T19:19:15Z</time>
      </trkpt>
      <trkpt lat="28.2455280" lon="-16.6292730">
        <ele>2165.9</ele>
        <time>2020-11-11T19:19:16Z</time>
      </trkpt>
      <trkpt lat="28.2453030" lon="-16.6294680">
        <ele>2162.9</ele>
        <time>2020-11-11T19:19:17Z</time>
      </trkpt>
      <trkpt lat="28.2453030" lon="-16.6294680">
        <ele>2162.9</ele>
        <time>2020-11-11T19:19:18Z</time>
      </trkpt>
      <trkpt lat="28.2450770" lon="-16.6296580">
        <ele>2159.9</ele>
        <time>2020-11-11T19:19:19Z</time>
      </trkpt>
      <trkpt lat="28.2450770" lon="-16.6296580">
        <ele>2159.9</ele>
        <time>2020-11-11T19:19:20Z</time>
      </trkpt>
      <trkpt lat="28.2448550" lon="-16.6298480">
        <ele>2157.9</ele>
        <time>2020-11-11T19:19:21Z</time>
      </trkpt>
      <trkpt lat="28.2448550" lon="-16.6298480">
        <ele>2157.9</ele>
        <time>2020-11-11T19:19:22Z</time>
      </trkpt>
      <trkpt lat="28.2446350" lon="-16.6300380">
        <ele>2154.9</ele>
        <time>2020-11-11T19:19:23Z</time>
      </trkpt>
      <trkpt lat="28.2446350" lon="-16.6300380">
        <ele>2154.9</ele>
        <time>2020-11-11T19:19:24Z</time>
      </trkpt>
      <trkpt lat="28.2444050" lon="-16.6302070">
        <ele>2152.9</ele>
        <time>2020-11-11T19:19:25Z</time>
      </trkpt>
      <trkpt lat="28.2444050" lon="-16.6302070">
        <ele>2152.9</ele>
        <time>2020-11-11T19:19:26Z</time>
      </trkpt>
      <trkpt lat="28.2441620" lon="-16.6303420">
        <ele>2149.9</ele>
        <time>2020-11-11T19:19:27Z</time>
      </trkpt>
      <trkpt lat="28.2441620" lon="-16.6303420">
        <ele>2149.9</ele>
        <time>2020-11-11T19:19:28Z</time>
      </trkpt>
      <trkpt lat="28.2439070" lon="-16.6304300">
        <ele>2147.9</ele>
        <time>2020-11-11T19:19:29Z</time>
      </trkpt>
      <trkpt lat="28.2439070" lon="-16.6304300">
        <ele>2147.9</ele>
        <time>2020-11-11T19:19:30Z</time>
      </trkpt>
      <trkpt lat="28.2436320" lon="-16.6304620">
        <ele>2145.9</ele>
        <time>2020-11-11T19:19:31Z</time>
      </trkpt>
      <trkpt lat="28.2434900" lon="-16.6304620">
        <ele>2145.9</ele>
        <time>2020-11-11T19:19:32Z</time>
      </trkpt>
      <trkpt lat="28.2434900" lon="-16.6304620">
        <ele>2143.9</ele>
        <time>2020-11-11T19:19:33Z</time>
      </trkpt>
      <trkpt lat="28.2432000" lon="-16.6304420">
        <ele>2143.9</ele>
        <time>2020-11-11T19:19:34Z</time>
      </trkpt>
      <trkpt lat="28.2432000" lon="-16.6304420">
        <ele>2141.9</ele>
        <time>2020-11-11T19:19:35Z</time>
      </trkpt>
      <trkpt lat="28.2429070" lon="-16.6304080">
        <ele>2141.9</ele>
        <time>2020-11-11T19:19:36Z</time>
      </trkpt>
      <trkpt lat="28.2427620" lon="-16.6303900">
        <ele>2139.9</ele>
        <time>2020-11-11T19:19:37Z</time>
      </trkpt>
      <trkpt lat="28.2427620" lon="-16.6303900">
        <ele>2139.9</ele>
        <time>2020-11-11T19:19:38Z</time>
      </trkpt>
      <trkpt lat="28.2424670" lon="-16.6303580">
        <ele>2137.9</ele>
        <time>2020-11-11T19:19:39Z</time>
      </trkpt>
      <trkpt lat="28.2424670" lon="-16.6303580">
        <ele>2137.9</ele>
        <time>2020-11-11T19:19:40Z</time>
      </trkpt>
      <trkpt lat="28.2421730" lon="-16.6303350">
        <ele>2135.9</ele>
        <time>2020-11-11T19:19:41Z</time>
      </trkpt>
      <trkpt lat="28.2421730" lon="-16.6303350">
        <ele>2135.9</ele>
        <time>2020-11-11T19:19:42Z</time>
      </trkpt>
      <trkpt lat="28.2418820" lon="-16.6303120">
        <ele>2133.9</ele>
        <time>2020-11-11T19:19:43Z</time>
      </trkpt>
      <trkpt lat="28.2418820" lon="-16.6303120">
        <ele>2133.9</ele>
        <time>2020-11-11T19:19:44Z</time>
      </trkpt>
      <trkpt lat="28.2415900" lon="-16.6302730">
        <ele>2131.9</ele>
        <time>2020-11-11T19:19:45Z</time>
      </trkpt>
      <trkpt lat="28.2414470" lon="-16.6302550">
        <ele>2131.9</ele>
        <time>2020-11-11T19:19:46Z</time>
      </trkpt>
      <trkpt lat="28.2414470" lon="-16.6302550">
        <ele>2129.9</ele>
        <time>2020-11-11T19:19:47Z</time>
      </trkpt>
      <trkpt lat="28.2411600" lon="-16.6302280">
        <ele>2129.9</ele>
        <time>2020-11-11T19:19:48Z</time>
      </trkpt>
      <trkpt lat="28.2410180" lon="-16.6302170">
        <ele>2127.9</ele>
        <time>2020-11-11T19:19:49Z</time>
      </trkpt>
      <trkpt lat="28.2410180" lon="-16.6302170">
        <ele>2125.9</ele>
        <time>2020-11-11T19:19:50Z</time>
      </trkpt>
      <trkpt lat="28.2407370" lon="-16.6301900">
        <ele>2125.9</ele>
        <time>2020-11-11T19:19:51Z</time>
      </trkpt>
      <trkpt lat="28.2407370" lon="-16.6301900">
        <ele>2124.9</ele>
        <time>2020-11-11T19:19:52Z</time>
      </trkpt>
      <trkpt lat="28.2404620" lon="-16.6301630">
        <ele>2124.9</ele>
        <time>2020-11-11T19:19:53Z</time>
      </trkpt>
      <trkpt lat="28.2403270" lon="-16.6301500">
        <ele>2122.9</ele>
        <time>2020-11-11T19:19:54Z</time>
      </trkpt>
      <trkpt lat="28.2403270" lon="-16.6301500">
        <ele>2122.9</ele>
        <time>2020-11-11T19:19:55Z</time>
      </trkpt>
      <trkpt lat="28.2400630" lon="-16.6301230">
        <ele>2121.9</ele>
        <time>2020-11-11T19:19:56Z</time>
      </trkpt>
      <trkpt lat="28.2400630" lon="-16.6301230">
        <ele>2121.9</ele>
        <time>2020-11-11T19:19:57Z</time>
      </trkpt>
      <trkpt lat="28.2398050" lon="-16.6301000">
        <ele>2120.9</ele>
        <time>2020-11-11T19:19:58Z</time>
      </trkpt>
      <trkpt lat="28.2396780" lon="-16.6300880">
        <ele>2120.9</ele>
        <time>2020-11-11T19:19:59Z</time>
      </trkpt>
      <trkpt lat="28.2396780" lon="-16.6300880">
        <ele>2119.9</ele>
        <time>2020-11-11T19:20:00Z</time>
      </trkpt>
      <trkpt lat="28.2394300" lon="-16.6300630">
        <ele>2119.9</ele>
        <time>2020-11-11T19:20:01Z</time>
      </trkpt>
      <trkpt lat="28.2394300" lon="-16.6300630">
        <ele>2117.9</ele>
        <time>2020-11-11T19:20:02Z</time>
      </trkpt>
      <trkpt lat="28.2391870" lon="-16.6300400">
        <ele>2117.9</ele>
        <time>2020-11-11T19:20:03Z</time>
      </trkpt>
      <trkpt lat="28.2390670" lon="-16.6300300">
        <ele>2116.9</ele>
        <time>2020-11-11T19:20:04Z</time>
      </trkpt>
      <trkpt lat="28.2390670" lon="-16.6300300">
        <ele>2116.9</ele>
        <time>2020-11-11T19:20:05Z</time>
      </trkpt>
      <trkpt lat="28.2388300" lon="-16.6300080">
        <ele>2115.9</ele>
        <time>2020-11-11T19:20:06Z</time>
      </trkpt>
      <trkpt lat="28.2387130" lon="-16.6299970">
        <ele>2115.9</ele>
        <time>2020-11-11T19:20:07Z</time>
      </trkpt>
      <trkpt lat="28.2387130" lon="-16.6299970">
        <ele>2114.9</ele>
        <time>2020-11-11T19:20:08Z</time>
      </trkpt>
      <trkpt lat="28.2384830" lon="-16.6299750">
        <ele>2114.9</ele>
        <time>2020-11-11T19:20:09Z</time>
      </trkpt>
      <trkpt lat="28.2384830" lon="-16.6299750">
        <ele>2113.9</ele>
        <time>2020-11-11T19:20:10Z</time>
      </trkpt>
      <trkpt lat="28.2382550" lon="-16.6299520">
        <ele>2113.9</ele>
        <time>2020-11-11T19:20:11Z</time>
      </trkpt>
      <trkpt lat="28.2381430" lon="-16.6299380">
        <ele>2112.9</ele>
        <time>2020-11-11T19:20:12Z</time>
      </trkpt>
      <trkpt lat="28.2380300" lon="-16.6299300">
        <ele>2112.9</ele>
        <time>2020-11-11T19:20:13Z</time>
      </trkpt>
      <trkpt lat="28.2380300" lon="-16.6299300">
        <ele>2111.9</ele>
        <time>2020-11-11T19:20:14Z</time>
      </trkpt>
      <trkpt lat="28.2378070" lon="-16.6299200">
        <ele>2111.9</ele>
        <time>2020-11-11T19:20:15Z</time>
      </trkpt>
      <trkpt lat="28.2378070" lon="-16.6299200">
        <ele>2111.9</ele>
        <time>2020-11-11T19:20:16Z</time>
      </trkpt>
      <trkpt lat="28.2375850" lon="-16.6299000">
        <ele>2111.9</ele>
        <time>2020-11-11T19:20:17Z</time>
      </trkpt>
      <trkpt lat="28.2375850" lon="-16.6299000">
        <ele>2110.9</ele>
        <time>2020-11-11T19:20:18Z</time>
      </trkpt>
      <trkpt lat="28.2373650" lon="-16.6298800">
        <ele>2110.9</ele>
        <time>2020-11-11T19:20:19Z</time>
      </trkpt>
      <trkpt lat="28.2373650" lon="-16.6298800">
        <ele>2109.9</ele>
        <time>2020-11-11T19:20:20Z</time>
      </trkpt>
      <trkpt lat="28.2371470" lon="-16.6298620">
        <ele>2109.9</ele>
        <time>2020-11-11T19:20:21Z</time>
      </trkpt>
      <trkpt lat="28.2371470" lon="-16.6298620">
        <ele>2109.9</ele>
        <time>2020-11-11T19:20:22Z</time>
      </trkpt>
      <trkpt lat="28.2369280" lon="-16.6298400">
        <ele>2109.9</ele>
        <time>2020-11-11T19:20:23Z</time>
      </trkpt>
      <trkpt lat="28.2369280" lon="-16.6298400">
        <ele>2107.9</ele>
        <time>2020-11-11T19:20:24Z</time>
      </trkpt>
      <trkpt lat="28.2367130" lon="-16.6298150">
        <ele>2107.9</ele>
        <time>2020-11-11T19:20:25Z</time>
      </trkpt>
      <trkpt lat="28.2367130" lon="-16.6298150">
        <ele>2107.9</ele>
        <time>2020-11-11T19:20:26Z</time>
      </trkpt>
      <trkpt lat="28.2364980" lon="-16.6297980">
        <ele>2107.9</ele>
        <time>2020-11-11T19:20:27Z</time>
      </trkpt>
      <trkpt lat="28.2364980" lon="-16.6297980">
        <ele>2106.9</ele>
        <time>2020-11-11T19:20:28Z</time>
      </trkpt>
      <trkpt lat="28.2362830" lon="-16.6297820">
        <ele>2105.9</ele>
        <time>2020-11-11T19:20:29Z</time>
      </trkpt>
      <trkpt lat="28.2362830" lon="-16.6297820">
        <ele>2105.9</ele>
        <time>2020-11-11T19:20:30Z</time>
      </trkpt>
      <trkpt lat="28.2360700" lon="-16.6297650">
        <ele>2104.9</ele>
        <time>2020-11-11T19:20:31Z</time>
      </trkpt>
      <trkpt lat="28.2360700" lon="-16.6297650">
        <ele>2104.9</ele>
        <time>2020-11-11T19:20:32Z</time>
      </trkpt>
      <trkpt lat="28.2358580" lon="-16.6297470">
        <ele>2103.9</ele>
        <time>2020-11-11T19:20:33Z</time>
      </trkpt>
      <trkpt lat="28.2357520" lon="-16.6297370">
        <ele>2103.9</ele>
        <time>2020-11-11T19:20:34Z</time>
      </trkpt>
      <trkpt lat="28.2357520" lon="-16.6297370">
        <ele>2102.9</ele>
        <time>2020-11-11T19:20:35Z</time>
      </trkpt>
      <trkpt lat="28.2355420" lon="-16.6297200">
        <ele>2102.9</ele>
        <time>2020-11-11T19:20:36Z</time>
      </trkpt>
      <trkpt lat="28.2355420" lon="-16.6297200">
        <ele>2102.9</ele>
        <time>2020-11-11T19:20:37Z</time>
      </trkpt>
      <trkpt lat="28.2353330" lon="-16.6297050">
        <ele>2102.9</ele>
        <time>2020-11-11T19:20:38Z</time>
      </trkpt>
      <trkpt lat="28.2352280" lon="-16.6296970">
        <ele>2101.9</ele>
        <time>2020-11-11T19:20:39Z</time>
      </trkpt>
      <trkpt lat="28.2352280" lon="-16.6296970">
        <ele>2101.9</ele>
        <time>2020-11-11T19:20:40Z</time>
      </trkpt>
      <trkpt lat="28.2350230" lon="-16.6296780">
        <ele>2101.9</ele>
        <time>2020-11-11T19:20:41Z</time>
      </trkpt>
      <trkpt lat="28.2349200" lon="-16.6296680">
        <ele>2101.9</ele>
        <time>2020-11-11T19:20:42Z</time>
      </trkpt>
      <trkpt lat="28.2349200" lon="-16.6296680">
        <ele>2101.9</ele>
        <time>2020-11-11T19:20:43Z</time>
      </trkpt>
      <trkpt lat="28.2347150" lon="-16.6296480">
        <ele>2099.9</ele>
        <time>2020-11-11T19:20:44Z</time>
      </trkpt>
      <trkpt lat="28.2347150" lon="-16.6296480">
        <ele>2099.9</ele>
        <time>2020-11-11T19:20:45Z</time>
      </trkpt>
      <trkpt lat="28.2345130" lon="-16.6296280">
        <ele>2099.9</ele>
        <time>2020-11-11T19:20:46Z</time>
      </trkpt>
      <trkpt lat="28.2344100" lon="-16.6296180">
        <ele>2099.9</ele>
        <time>2020-11-11T19:20:47Z</time>
      </trkpt>
      <trkpt lat="28.2344100" lon="-16.6296180">
        <ele>2098.9</ele>
        <time>2020-11-11T19:20:48Z</time>
      </trkpt>
      <trkpt lat="28.2342050" lon="-16.6296020">
        <ele>2098.9</ele>
        <time>2020-11-11T19:20:49Z</time>
      </trkpt>
      <trkpt lat="28.2341020" lon="-16.6295920">
        <ele>2098.9</ele>
        <time>2020-11-11T19:20:50Z</time>
      </trkpt>
      <trkpt lat="28.2341020" lon="-16.6295920">
        <ele>2098.9</ele>
        <time>2020-11-11T19:20:51Z</time>
      </trkpt>
      <trkpt lat="28.2338970" lon="-16.6295720">
        <ele>2098.9</ele>
        <time>2020-11-11T19:20:52Z</time>
      </trkpt>
      <trkpt lat="28.2338970" lon="-16.6295720">
        <ele>2097.9</ele>
        <time>2020-11-11T19:20:53Z</time>
      </trkpt>
      <trkpt lat="28.2336920" lon="-16.6295520">
        <ele>2097.9</ele>
        <time>2020-11-11T19:20:54Z</time>
      </trkpt>
      <trkpt lat="28.2335900" lon="-16.6295400">
        <ele>2096.9</ele>
        <time>2020-11-11T19:20:55Z</time>
      </trkpt>
      <trkpt lat="28.2335900" lon="-16.6295400">
        <ele>2096.9</ele>
        <time>2020-11-11T19:20:56Z</time>
      </trkpt>
      <trkpt lat="28.2333830" lon="-16.6295230">
        <ele>2095.9</ele>
        <time>2020-11-11T19:20:57Z</time>
      </trkpt>
      <trkpt lat="28.2333830" lon="-16.6295230">
        <ele>2095.9</ele>
        <time>2020-11-11T19:20:58Z</time>
      </trkpt>
      <trkpt lat="28.2331770" lon="-16.6295030">
        <ele>2095.9</ele>
        <time>2020-11-11T19:20:59Z</time>
      </trkpt>
      <trkpt lat="28.2330750" lon="-16.6294950">
        <ele>2095.9</ele>
        <time>2020-11-11T19:21:00Z</time>
      </trkpt>
      <trkpt lat="28.2329730" lon="-16.6294880">
        <ele>2094.9</ele>
        <time>2020-11-11T19:21:01Z</time>
      </trkpt>
      <trkpt lat="28.2329730" lon="-16.6294880">
        <ele>2094.9</ele>
        <time>2020-11-11T19:21:02Z</time>
      </trkpt>
      <trkpt lat="28.2327720" lon="-16.6294700">
        <ele>2094.9</ele>
        <time>2020-11-11T19:21:03Z</time>
      </trkpt>
      <trkpt lat="28.2326720" lon="-16.6294600">
        <ele>2094.9</ele>
        <time>2020-11-11T19:21:04Z</time>
      </trkpt>
      <trkpt lat="28.2326720" lon="-16.6294600">
        <ele>2093.9</ele>
        <time>2020-11-11T19:21:05Z</time>
      </trkpt>
      <trkpt lat="28.2324720" lon="-16.6294450">
        <ele>2093.9</ele>
        <time>2020-11-11T19:21:06Z</time>
      </trkpt>
      <trkpt lat="28.2323700" lon="-16.6294370">
        <ele>2093.9</ele>
        <time>2020-11-11T19:21:07Z</time>
      </trkpt>
      <trkpt lat="28.2323700" lon="-16.6294370">
        <ele>2093.9</ele>
        <time>2020-11-11T19:21:08Z</time>
      </trkpt>
      <trkpt lat="28.2321680" lon="-16.6294200">
        <ele>2092.9</ele>
        <time>2020-11-11T19:21:09Z</time>
      </trkpt>
      <trkpt lat="28.2321680" lon="-16.6294200">
        <ele>2092.9</ele>
        <time>2020-11-11T19:21:10Z</time>
      </trkpt>
      <trkpt lat="28.2319650" lon="-16.6294030">
        <ele>2092.9</ele>
        <time>2020-11-11T19:21:11Z</time>
      </trkpt>
      <trkpt lat="28.2319650" lon="-16.6294030">
        <ele>2090.9</ele>
        <time>2020-11-11T19:21:12Z</time>
      </trkpt>
      <trkpt lat="28.2317620" lon="-16.6293870">
        <ele>2090.9</ele>
        <time>2020-11-11T19:21:13Z</time>
      </trkpt>
      <trkpt lat="28.2317620" lon="-16.6293870">
        <ele>2090.9</ele>
        <time>2020-11-11T19:21:14Z</time>
      </trkpt>
      <trkpt lat="28.2315630" lon="-16.6293670">
        <ele>2090.9</ele>
        <time>2020-11-11T19:21:15Z</time>
      </trkpt>
      <trkpt lat="28.2315630" lon="-16.6293670">
        <ele>2089.9</ele>
        <time>2020-11-11T19:21:16Z</time>
      </trkpt>
      <trkpt lat="28.2313670" lon="-16.6293470">
        <ele>2089.9</ele>
        <time>2020-11-11T19:21:17Z</time>
      </trkpt>
      <trkpt lat="28.2313670" lon="-16.6293470">
        <ele>2089.9</ele>
        <time>2020-11-11T19:21:18Z</time>
      </trkpt>
      <trkpt lat="28.2311720" lon="-16.6293300">
        <ele>2089.9</ele>
        <time>2020-11-11T19:21:19Z</time>
      </trkpt>
      <trkpt lat="28.2311720" lon="-16.6293300">
        <ele>2088.9</ele>
        <time>2020-11-11T19:21:20Z</time>
      </trkpt>
      <trkpt lat="28.2309780" lon="-16.6293150">
        <ele>2088.9</ele>
        <time>2020-11-11T19:21:21Z</time>
      </trkpt>
      <trkpt lat="28.2309780" lon="-16.6293150">
        <ele>2088.9</ele>
        <time>2020-11-11T19:21:22Z</time>
      </trkpt>
      <trkpt lat="28.2307820" lon="-16.6292970">
        <ele>2088.9</ele>
        <time>2020-11-11T19:21:23Z</time>
      </trkpt>
      <trkpt lat="28.2306830" lon="-16.6292900">
        <ele>2087.9</ele>
        <time>2020-11-11T19:21:24Z</time>
      </trkpt>
      <trkpt lat="28.2305850" lon="-16.6292830">
        <ele>2087.9</ele>
        <time>2020-11-11T19:21:25Z</time>
      </trkpt>
      <trkpt lat="28.2305850" lon="-16.6292830">
        <ele>2087.9</ele>
        <time>2020-11-11T19:21:26Z</time>
      </trkpt>
      <trkpt lat="28.2303880" lon="-16.6292630">
        <ele>2087.9</ele>
        <time>2020-11-11T19:21:27Z</time>
      </trkpt>
      <trkpt lat="28.2303880" lon="-16.6292630">
        <ele>2087.9</ele>
        <time>2020-11-11T19:21:28Z</time>
      </trkpt>
      <trkpt lat="28.2301930" lon="-16.6292430">
        <ele>2086.9</ele>
        <time>2020-11-11T19:21:29Z</time>
      </trkpt>
      <trkpt lat="28.2301930" lon="-16.6292430">
        <ele>2086.9</ele>
        <time>2020-11-11T19:21:30Z</time>
      </trkpt>
      <trkpt lat="28.2299970" lon="-16.6292280">
        <ele>2085.9</ele>
        <time>2020-11-11T19:21:31Z</time>
      </trkpt>
      <trkpt lat="28.2299970" lon="-16.6292280">
        <ele>2085.9</ele>
        <time>2020-11-11T19:21:32Z</time>
      </trkpt>
      <trkpt lat="28.2298000" lon="-16.6292100">
        <ele>2084.9</ele>
        <time>2020-11-11T19:21:33Z</time>
      </trkpt>
      <trkpt lat="28.2298000" lon="-16.6292100">
        <ele>2084.9</ele>
        <time>2020-11-11T19:21:34Z</time>
      </trkpt>
      <trkpt lat="28.2296030" lon="-16.6291920">
        <ele>2084.9</ele>
        <time>2020-11-11T19:21:35Z</time>
      </trkpt>
      <trkpt lat="28.2296030" lon="-16.6291920">
        <ele>2084.9</ele>
        <time>2020-11-11T19:21:36Z</time>
      </trkpt>
      <trkpt lat="28.2294100" lon="-16.6291750">
        <ele>2082.9</ele>
        <time>2020-11-11T19:21:37Z</time>
      </trkpt>
      <trkpt lat="28.2294100" lon="-16.6291750">
        <ele>2082.9</ele>
        <time>2020-11-11T19:21:38Z</time>
      </trkpt>
      <trkpt lat="28.2292180" lon="-16.6291570">
        <ele>2082.9</ele>
        <time>2020-11-11T19:21:39Z</time>
      </trkpt>
      <trkpt lat="28.2291230" lon="-16.6291450">
        <ele>2082.9</ele>
        <time>2020-11-11T19:21:40Z</time>
      </trkpt>
      <trkpt lat="28.2291230" lon="-16.6291450">
        <ele>2081.9</ele>
        <time>2020-11-11T19:21:41Z</time>
      </trkpt>
      <trkpt lat="28.2289330" lon="-16.6291330">
        <ele>2081.9</ele>
        <time>2020-11-11T19:21:42Z</time>
      </trkpt>
      <trkpt lat="28.2288380" lon="-16.6291250">
        <ele>2080.9</ele>
        <time>2020-11-11T19:21:43Z</time>
      </trkpt>
      <trkpt lat="28.2288380" lon="-16.6291250">
        <ele>2080.9</ele>
        <time>2020-11-11T19:21:44Z</time>
      </trkpt>
      <trkpt lat="28.2286480" lon="-16.6291080">
        <ele>2080.9</ele>
        <time>2020-11-11T19:21:45Z</time>
      </trkpt>
      <trkpt lat="28.2286480" lon="-16.6291080">
        <ele>2080.9</ele>
        <time>2020-11-11T19:21:46Z</time>
      </trkpt>
      <trkpt lat="28.2284580" lon="-16.6290900">
        <ele>2079.9</ele>
        <time>2020-11-11T19:21:47Z</time>
      </trkpt>
      <trkpt lat="28.2283630" lon="-16.6290800">
        <ele>2079.9</ele>
        <time>2020-11-11T19:21:48Z</time>
      </trkpt>
      <trkpt lat="28.2283630" lon="-16.6290800">
        <ele>2079.9</ele>
        <time>2020-11-11T19:21:49Z</time>
      </trkpt>
      <trkpt lat="28.2281750" lon="-16.6290600">
        <ele>2078.9</ele>
        <time>2020-11-11T19:21:50Z</time>
      </trkpt>
      <trkpt lat="28.2281750" lon="-16.6290600">
        <ele>2078.9</ele>
        <time>2020-11-11T19:21:51Z</time>
      </trkpt>
      <trkpt lat="28.2279870" lon="-16.6290430">
        <ele>2077.9</ele>
        <time>2020-11-11T19:21:52Z</time>
      </trkpt>
      <trkpt lat="28.2279870" lon="-16.6290430">
        <ele>2077.9</ele>
        <time>2020-11-11T19:21:53Z</time>
      </trkpt>
      <trkpt lat="28.2277970" lon="-16.6290280">
        <ele>2077.9</ele>
        <time>2020-11-11T19:21:54Z</time>
      </trkpt>
      <trkpt lat="28.2277970" lon="-16.6290280">
        <ele>2077.9</ele>
        <time>2020-11-11T19:21:55Z</time>
      </trkpt>
      <trkpt lat="28.2276080" lon="-16.6290130">
        <ele>2076.9</ele>
        <time>2020-11-11T19:21:56Z</time>
      </trkpt>
      <trkpt lat="28.2276080" lon="-16.6290130">
        <ele>2076.9</ele>
        <time>2020-11-11T19:21:57Z</time>
      </trkpt>
      <trkpt lat="28.2274250" lon="-16.6289920">
        <ele>2076.9</ele>
        <time>2020-11-11T19:21:58Z</time>
      </trkpt>
      <trkpt lat="28.2274250" lon="-16.6289920">
        <ele>2076.9</ele>
        <time>2020-11-11T19:21:59Z</time>
      </trkpt>
      <trkpt lat="28.2272430" lon="-16.6289830">
        <ele>2076.9</ele>
        <time>2020-11-11T19:22:00Z</time>
      </trkpt>
      <trkpt lat="28.2271550" lon="-16.6289770">
        <ele>2076.9</ele>
        <time>2020-11-11T19:22:01Z</time>
      </trkpt>
      <trkpt lat="28.2271550" lon="-16.6289770">
        <ele>2076.9</ele>
        <time>2020-11-11T19:22:02Z</time>
      </trkpt>
      <trkpt lat="28.2269780" lon="-16.6289580">
        <ele>2076.9</ele>
        <time>2020-11-11T19:22:03Z</time>
      </trkpt>
      <trkpt lat="28.2268920" lon="-16.6289500">
        <ele>2076.9</ele>
        <time>2020-11-11T19:22:04Z</time>
      </trkpt>
      <trkpt lat="28.2268920" lon="-16.6289500">
        <ele>2076.9</ele>
        <time>2020-11-11T19:22:05Z</time>
      </trkpt>
      <trkpt lat="28.2267200" lon="-16.6289350">
        <ele>2075.9</ele>
        <time>2020-11-11T19:22:06Z</time>
      </trkpt>
      <trkpt lat="28.2267200" lon="-16.6289350">
        <ele>2075.9</ele>
        <time>2020-11-11T19:22:07Z</time>
      </trkpt>
      <trkpt lat="28.2265520" lon="-16.6289170">
        <ele>2075.9</ele>
        <time>2020-11-11T19:22:08Z</time>
      </trkpt>
      <trkpt lat="28.2265520" lon="-16.6289170">
        <ele>2075.9</ele>
        <time>2020-11-11T19:22:09Z</time>
      </trkpt>
      <trkpt lat="28.2263880" lon="-16.6288870">
        <ele>2075.9</ele>
        <time>2020-11-11T19:22:10Z</time>
      </trkpt>
      <trkpt lat="28.2263880" lon="-16.6288870">
        <ele>2075.9</ele>
        <time>2020-11-11T19:22:11Z</time>
      </trkpt>
      <trkpt lat="28.2262250" lon="-16.6288770">
        <ele>2075.9</ele>
        <time>2020-11-11T19:22:12Z</time>
      </trkpt>
      <trkpt lat="28.2262250" lon="-16.6288770">
        <ele>2074.9</ele>
        <time>2020-11-11T19:22:13Z</time>
      </trkpt>
      <trkpt lat="28.2260650" lon="-16.6288720">
        <ele>2074.9</ele>
        <time>2020-11-11T19:22:14Z</time>
      </trkpt>
      <trkpt lat="28.2259850" lon="-16.6288670">
        <ele>2074.9</ele>
        <time>2020-11-11T19:22:15Z</time>
      </trkpt>
      <trkpt lat="28.2259850" lon="-16.6288670">
        <ele>2074.9</ele>
        <time>2020-11-11T19:22:16Z</time>
      </trkpt>
      <trkpt lat="28.2258200" lon="-16.6288530">
        <ele>2074.9</ele>
        <time>2020-11-11T19:22:17Z</time>
      </trkpt>
      <trkpt lat="28.2258200" lon="-16.6288530">
        <ele>2074.9</ele>
        <time>2020-11-11T19:22:18Z</time>
      </trkpt>
      <trkpt lat="28.2256550" lon="-16.6288420">
        <ele>2073.9</ele>
        <time>2020-11-11T19:22:19Z</time>
      </trkpt>
      <trkpt lat="28.2256550" lon="-16.6288420">
        <ele>2073.9</ele>
        <time>2020-11-11T19:22:20Z</time>
      </trkpt>
      <trkpt lat="28.2254880" lon="-16.6288280">
        <ele>2073.9</ele>
        <time>2020-11-11T19:22:21Z</time>
      </trkpt>
      <trkpt lat="28.2254880" lon="-16.6288280">
        <ele>2073.9</ele>
        <time>2020-11-11T19:22:22Z</time>
      </trkpt>
      <trkpt lat="28.2253250" lon="-16.6288130">
        <ele>2073.9</ele>
        <time>2020-11-11T19:22:23Z</time>
      </trkpt>
      <trkpt lat="28.2253250" lon="-16.6288130">
        <ele>2073.9</ele>
        <time>2020-11-11T19:22:24Z</time>
      </trkpt>
      <trkpt lat="28.2251620" lon="-16.6287970">
        <ele>2073.9</ele>
        <time>2020-11-11T19:22:25Z</time>
      </trkpt>
      <trkpt lat="28.2251620" lon="-16.6287970">
        <ele>2073.9</ele>
        <time>2020-11-11T19:22:26Z</time>
      </trkpt>
      <trkpt lat="28.2250020" lon="-16.6287830">
        <ele>2072.9</ele>
        <time>2020-11-11T19:22:27Z</time>
      </trkpt>
      <trkpt lat="28.2250020" lon="-16.6287830">
        <ele>2072.9</ele>
        <time>2020-11-11T19:22:28Z</time>
      </trkpt>
      <trkpt lat="28.2248420" lon="-16.6287630">
        <ele>2072.9</ele>
        <time>2020-11-11T19:22:29Z</time>
      </trkpt>
      <trkpt lat="28.2248420" lon="-16.6287630">
        <ele>2072.9</ele>
        <time>2020-11-11T19:22:30Z</time>
      </trkpt>
      <trkpt lat="28.2246830" lon="-16.6287500">
        <ele>2072.9</ele>
        <time>2020-11-11T19:22:31Z</time>
      </trkpt>
      <trkpt lat="28.2246830" lon="-16.6287500">
        <ele>2071.9</ele>
        <time>2020-11-11T19:22:32Z</time>
      </trkpt>
      <trkpt lat="28.2245270" lon="-16.6287350">
        <ele>2071.9</ele>
        <time>2020-11-11T19:22:33Z</time>
      </trkpt>
      <trkpt lat="28.2245270" lon="-16.6287350">
        <ele>2071.9</ele>
        <time>2020-11-11T19:22:34Z</time>
      </trkpt>
      <trkpt lat="28.2243680" lon="-16.6287230">
        <ele>2071.9</ele>
        <time>2020-11-11T19:22:35Z</time>
      </trkpt>
      <trkpt lat="28.2243680" lon="-16.6287230">
        <ele>2070.9</ele>
        <time>2020-11-11T19:22:36Z</time>
      </trkpt>
      <trkpt lat="28.2242080" lon="-16.6287150">
        <ele>2070.9</ele>
        <time>2020-11-11T19:22:37Z</time>
      </trkpt>
      <trkpt lat="28.2242080" lon="-16.6287150">
        <ele>2070.9</ele>
        <time>2020-11-11T19:22:38Z</time>
      </trkpt>
      <trkpt lat="28.2240450" lon="-16.6286950">
        <ele>2070.9</ele>
        <time>2020-11-11T19:22:39Z</time>
      </trkpt>
      <trkpt lat="28.2240450" lon="-16.6286950">
        <ele>2069.9</ele>
        <time>2020-11-11T19:22:40Z</time>
      </trkpt>
      <trkpt lat="28.2238800" lon="-16.6286770">
        <ele>2069.9</ele>
        <time>2020-11-11T19:22:41Z</time>
      </trkpt>
      <trkpt lat="28.2238800" lon="-16.6286770">
        <ele>2069.9</ele>
        <time>2020-11-11T19:22:42Z</time>
      </trkpt>
      <trkpt lat="28.2237130" lon="-16.6286520">
        <ele>2069.9</ele>
        <time>2020-11-11T19:22:43Z</time>
      </trkpt>
      <trkpt lat="28.2236300" lon="-16.6286350">
        <ele>2069.9</ele>
        <time>2020-11-11T19:22:44Z</time>
      </trkpt>
      <trkpt lat="28.2236300" lon="-16.6286350">
        <ele>2068.9</ele>
        <time>2020-11-11T19:22:45Z</time>
      </trkpt>
      <trkpt lat="28.2234620" lon="-16.6286070">
        <ele>2068.9</ele>
        <time>2020-11-11T19:22:46Z</time>
      </trkpt>
      <trkpt lat="28.2233750" lon="-16.6285950">
        <ele>2068.9</ele>
        <time>2020-11-11T19:22:47Z</time>
      </trkpt>
      <trkpt lat="28.2233750" lon="-16.6285950">
        <ele>2068.9</ele>
        <time>2020-11-11T19:22:48Z</time>
      </trkpt>
      <trkpt lat="28.2231980" lon="-16.6285670">
        <ele>2067.9</ele>
        <time>2020-11-11T19:22:49Z</time>
      </trkpt>
      <trkpt lat="28.2231980" lon="-16.6285670">
        <ele>2067.9</ele>
        <time>2020-11-11T19:22:50Z</time>
      </trkpt>
      <trkpt lat="28.2230180" lon="-16.6285330">
        <ele>2067.9</ele>
        <time>2020-11-11T19:22:51Z</time>
      </trkpt>
      <trkpt lat="28.2230180" lon="-16.6285330">
        <ele>2067.9</ele>
        <time>2020-11-11T19:22:52Z</time>
      </trkpt>
      <trkpt lat="28.2228280" lon="-16.6284980">
        <ele>2066.9</ele>
        <time>2020-11-11T19:22:53Z</time>
      </trkpt>
      <trkpt lat="28.2228280" lon="-16.6284980">
        <ele>2066.9</ele>
        <time>2020-11-11T19:22:54Z</time>
      </trkpt>
      <trkpt lat="28.2226280" lon="-16.6284670">
        <ele>2065.9</ele>
        <time>2020-11-11T19:22:55Z</time>
      </trkpt>
      <trkpt lat="28.2226280" lon="-16.6284670">
        <ele>2065.9</ele>
        <time>2020-11-11T19:22:56Z</time>
      </trkpt>
      <trkpt lat="28.2224150" lon="-16.6284350">
        <ele>2064.9</ele>
        <time>2020-11-11T19:22:57Z</time>
      </trkpt>
      <trkpt lat="28.2224150" lon="-16.6284350">
        <ele>2064.9</ele>
        <time>2020-11-11T19:22:58Z</time>
      </trkpt>
      <trkpt lat="28.2221900" lon="-16.6283920">
        <ele>2063.9</ele>
        <time>2020-11-11T19:22:59Z</time>
      </trkpt>
      <trkpt lat="28.2221900" lon="-16.6283920">
        <ele>2063.9</ele>
        <time>2020-11-11T19:23:00Z</time>
      </trkpt>
      <trkpt lat="28.2219620" lon="-16.6283500">
        <ele>2061.9</ele>
        <time>2020-11-11T19:23:01Z</time>
      </trkpt>
      <trkpt lat="28.2219620" lon="-16.6283500">
        <ele>2061.9</ele>
        <time>2020-11-11T19:23:02Z</time>
      </trkpt>
      <trkpt lat="28.2217280" lon="-16.6283130">
        <ele>2060.9</ele>
        <time>2020-11-11T19:23:03Z</time>
      </trkpt>
      <trkpt lat="28.2216100" lon="-16.6282930">
        <ele>2060.9</ele>
        <time>2020-11-11T19:23:04Z</time>
      </trkpt>
      <trkpt lat="28.2216100" lon="-16.6282930">
        <ele>2058.9</ele>
        <time>2020-11-11T19:23:05Z</time>
      </trkpt>
      <trkpt lat="28.2213680" lon="-16.6282530">
        <ele>2058.9</ele>
        <time>2020-11-11T19:23:06Z</time>
      </trkpt>
      <trkpt lat="28.2213680" lon="-16.6282530">
        <ele>2056.9</ele>
        <time>2020-11-11T19:23:07Z</time>
      </trkpt>
      <trkpt lat="28.2211200" lon="-16.6282120">
        <ele>2053.9</ele>
        <time>2020-11-11T19:23:08Z</time>
      </trkpt>
      <trkpt lat="28.2211200" lon="-16.6282120">
        <ele>2053.9</ele>
        <time>2020-11-11T19:23:09Z</time>
      </trkpt>
      <trkpt lat="28.2208670" lon="-16.6281650">
        <ele>2051.9</ele>
        <time>2020-11-11T19:23:10Z</time>
      </trkpt>
      <trkpt lat="28.2208670" lon="-16.6281650">
        <ele>2051.9</ele>
        <time>2020-11-11T19:23:11Z</time>
      </trkpt>
      <trkpt lat="28.2206100" lon="-16.6281130">
        <ele>2051.9</ele>
        <time>2020-11-11T19:23:12Z</time>
      </trkpt>
      <trkpt lat="28.2206100" lon="-16.6281130">
        <ele>2049.9</ele>
        <time>2020-11-11T19:23:13Z</time>
      </trkpt>
      <trkpt lat="28.2203520" lon="-16.6280670">
        <ele>2049.9</ele>
        <time>2020-11-11T19:23:14Z</time>
      </trkpt>
      <trkpt lat="28.2203520" lon="-16.6280670">
        <ele>2047.9</ele>
        <time>2020-11-11T19:23:15Z</time>
      </trkpt>
      <trkpt lat="28.2200920" lon="-16.6280280">
        <ele>2046.9</ele>
        <time>2020-11-11T19:23:16Z</time>
      </trkpt>
      <trkpt lat="28.2200920" lon="-16.6280280">
        <ele>2046.9</ele>
        <time>2020-11-11T19:23:17Z</time>
      </trkpt>
      <trkpt lat="28.2198330" lon="-16.6279870">
        <ele>2045.9</ele>
        <time>2020-11-11T19:23:18Z</time>
      </trkpt>
      <trkpt lat="28.2197050" lon="-16.6279650">
        <ele>2045.9</ele>
        <time>2020-11-11T19:23:19Z</time>
      </trkpt>
      <trkpt lat="28.2197050" lon="-16.6279650">
        <ele>2044.9</ele>
        <time>2020-11-11T19:23:20Z</time>
      </trkpt>
      <trkpt lat="28.2194570" lon="-16.6279230">
        <ele>2044.9</ele>
        <time>2020-11-11T19:23:21Z</time>
      </trkpt>
      <trkpt lat="28.2194570" lon="-16.6279230">
        <ele>2043.9</ele>
        <time>2020-11-11T19:23:22Z</time>
      </trkpt>
      <trkpt lat="28.2192220" lon="-16.6278830">
        <ele>2043.9</ele>
        <time>2020-11-11T19:23:23Z</time>
      </trkpt>
      <trkpt lat="28.2191100" lon="-16.6278630">
        <ele>2043.9</ele>
        <time>2020-11-11T19:23:24Z</time>
      </trkpt>
      <trkpt lat="28.2191100" lon="-16.6278630">
        <ele>2043.9</ele>
        <time>2020-11-11T19:23:25Z</time>
      </trkpt>
      <trkpt lat="28.2188920" lon="-16.6278280">
        <ele>2042.9</ele>
        <time>2020-11-11T19:23:26Z</time>
      </trkpt>
      <trkpt lat="28.2187830" lon="-16.6278130">
        <ele>2042.9</ele>
        <time>2020-11-11T19:23:27Z</time>
      </trkpt>
      <trkpt lat="28.2187830" lon="-16.6278130">
        <ele>2042.9</ele>
        <time>2020-11-11T19:23:28Z</time>
      </trkpt>
      <trkpt lat="28.2185720" lon="-16.6277750">
        <ele>2042.9</ele>
        <time>2020-11-11T19:23:29Z</time>
      </trkpt>
      <trkpt lat="28.2185720" lon="-16.6277750">
        <ele>2041.9</ele>
        <time>2020-11-11T19:23:30Z</time>
      </trkpt>
      <trkpt lat="28.2183650" lon="-16.6277230">
        <ele>2041.9</ele>
        <time>2020-11-11T19:23:31Z</time>
      </trkpt>
      <trkpt lat="28.2182670" lon="-16.6276870">
        <ele>2041.9</ele>
        <time>2020-11-11T19:23:32Z</time>
      </trkpt>
      <trkpt lat="28.2182670" lon="-16.6276870">
        <ele>2041.9</ele>
        <time>2020-11-11T19:23:33Z</time>
      </trkpt>
      <trkpt lat="28.2180820" lon="-16.6275770">
        <ele>2040.9</ele>
        <time>2020-11-11T19:23:34Z</time>
      </trkpt>
      <trkpt lat="28.2180820" lon="-16.6275770">
        <ele>2040.9</ele>
        <time>2020-11-11T19:23:35Z</time>
      </trkpt>
      <trkpt lat="28.2179230" lon="-16.6274200">
        <ele>2039.9</ele>
        <time>2020-11-11T19:23:36Z</time>
      </trkpt>
      <trkpt lat="28.2178530" lon="-16.6273270">
        <ele>2039.9</ele>
        <time>2020-11-11T19:23:37Z</time>
      </trkpt>
      <trkpt lat="28.2178530" lon="-16.6273270">
        <ele>2038.9</ele>
        <time>2020-11-11T19:23:38Z</time>
      </trkpt>
      <trkpt lat="28.2177450" lon="-16.6271130">
        <ele>2038.9</ele>
        <time>2020-11-11T19:23:39Z</time>
      </trkpt>
      <trkpt lat="28.2177450" lon="-16.6271130">
        <ele>2037.9</ele>
        <time>2020-11-11T19:23:40Z</time>
      </trkpt>
      <trkpt lat="28.2176600" lon="-16.6268880">
        <ele>2037.9</ele>
        <time>2020-11-11T19:23:41Z</time>
      </trkpt>
      <trkpt lat="28.2176600" lon="-16.6268880">
        <ele>2036.9</ele>
        <time>2020-11-11T19:23:42Z</time>
      </trkpt>
      <trkpt lat="28.2175780" lon="-16.6266580">
        <ele>2036.9</ele>
        <time>2020-11-11T19:23:43Z</time>
      </trkpt>
      <trkpt lat="28.2175780" lon="-16.6266580">
        <ele>2035.9</ele>
        <time>2020-11-11T19:23:44Z</time>
      </trkpt>
      <trkpt lat="28.2174950" lon="-16.6264280">
        <ele>2035.9</ele>
        <time>2020-11-11T19:23:45Z</time>
      </trkpt>
      <trkpt lat="28.2174950" lon="-16.6264280">
        <ele>2033.9</ele>
        <time>2020-11-11T19:23:46Z</time>
      </trkpt>
      <trkpt lat="28.2173800" lon="-16.6262130">
        <ele>2033.9</ele>
        <time>2020-11-11T19:23:47Z</time>
      </trkpt>
      <trkpt lat="28.2173020" lon="-16.6261250">
        <ele>2032.9</ele>
        <time>2020-11-11T19:23:48Z</time>
      </trkpt>
      <trkpt lat="28.2173020" lon="-16.6261250">
        <ele>2031.9</ele>
        <time>2020-11-11T19:23:49Z</time>
      </trkpt>
      <trkpt lat="28.2171200" lon="-16.6260180">
        <ele>2031.9</ele>
        <time>2020-11-11T19:23:50Z</time>
      </trkpt>
      <trkpt lat="28.2171200" lon="-16.6260180">
        <ele>2030.9</ele>
        <time>2020-11-11T19:23:51Z</time>
      </trkpt>
      <trkpt lat="28.2169200" lon="-16.6260070">
        <ele>2030.9</ele>
        <time>2020-11-11T19:23:52Z</time>
      </trkpt>
      <trkpt lat="28.2169200" lon="-16.6260070">
        <ele>2028.9</ele>
        <time>2020-11-11T19:23:53Z</time>
      </trkpt>
      <trkpt lat="28.2167280" lon="-16.6260780">
        <ele>2028.9</ele>
        <time>2020-11-11T19:23:54Z</time>
      </trkpt>
      <trkpt lat="28.2167280" lon="-16.6260780">
        <ele>2027.9</ele>
        <time>2020-11-11T19:23:55Z</time>
      </trkpt>
      <trkpt lat="28.2165400" lon="-16.6261930">
        <ele>2027.9</ele>
        <time>2020-11-11T19:23:56Z</time>
      </trkpt>
      <trkpt lat="28.2165400" lon="-16.6261930">
        <ele>2025.9</ele>
        <time>2020-11-11T19:23:57Z</time>
      </trkpt>
      <trkpt lat="28.2163430" lon="-16.6263120">
        <ele>2025.9</ele>
        <time>2020-11-11T19:23:58Z</time>
      </trkpt>
      <trkpt lat="28.2163430" lon="-16.6263120">
        <ele>2024.9</ele>
        <time>2020-11-11T19:23:59Z</time>
      </trkpt>
      <trkpt lat="28.2161350" lon="-16.6264320">
        <ele>2024.9</ele>
        <time>2020-11-11T19:24:00Z</time>
      </trkpt>
      <trkpt lat="28.2161350" lon="-16.6264320">
        <ele>2023.9</ele>
        <time>2020-11-11T19:24:01Z</time>
      </trkpt>
      <trkpt lat="28.2159230" lon="-16.6265650">
        <ele>2023.9</ele>
        <time>2020-11-11T19:24:02Z</time>
      </trkpt>
      <trkpt lat="28.2159230" lon="-16.6265650">
        <ele>2021.9</ele>
        <time>2020-11-11T19:24:03Z</time>
      </trkpt>
      <trkpt lat="28.2156950" lon="-16.6267000">
        <ele>2021.9</ele>
        <time>2020-11-11T19:24:04Z</time>
      </trkpt>
      <trkpt lat="28.2156950" lon="-16.6267000">
        <ele>2020.9</ele>
        <time>2020-11-11T19:24:05Z</time>
      </trkpt>
      <trkpt lat="28.2154730" lon="-16.6268420">
        <ele>2020.9</ele>
        <time>2020-11-11T19:24:06Z</time>
      </trkpt>
      <trkpt lat="28.2154730" lon="-16.6268420">
        <ele>2018.9</ele>
        <time>2020-11-11T19:24:07Z</time>
      </trkpt>
      <trkpt lat="28.2152480" lon="-16.6269870">
        <ele>2018.9</ele>
        <time>2020-11-11T19:24:08Z</time>
      </trkpt>
      <trkpt lat="28.2152480" lon="-16.6269870">
        <ele>2016.9</ele>
        <time>2020-11-11T19:24:09Z</time>
      </trkpt>
      <trkpt lat="28.2150170" lon="-16.6271320">
        <ele>2016.9</ele>
        <time>2020-11-11T19:24:10Z</time>
      </trkpt>
      <trkpt lat="28.2150170" lon="-16.6271320">
        <ele>2014.9</ele>
        <time>2020-11-11T19:24:11Z</time>
      </trkpt>
      <trkpt lat="28.2147800" lon="-16.6272800">
        <ele>2014.9</ele>
        <time>2020-11-11T19:24:12Z</time>
      </trkpt>
      <trkpt lat="28.2147800" lon="-16.6272800">
        <ele>2012.9</ele>
        <time>2020-11-11T19:24:13Z</time>
      </trkpt>
      <trkpt lat="28.2145420" lon="-16.6274280">
        <ele>2012.9</ele>
        <time>2020-11-11T19:24:14Z</time>
      </trkpt>
      <trkpt lat="28.2145420" lon="-16.6274280">
        <ele>2010.9</ele>
        <time>2020-11-11T19:24:15Z</time>
      </trkpt>
      <trkpt lat="28.2143000" lon="-16.6275800">
        <ele>2010.9</ele>
        <time>2020-11-11T19:24:16Z</time>
      </trkpt>
      <trkpt lat="28.2143000" lon="-16.6275800">
        <ele>2007.9</ele>
        <time>2020-11-11T19:24:17Z</time>
      </trkpt>
      <trkpt lat="28.2140550" lon="-16.6277370">
        <ele>2007.9</ele>
        <time>2020-11-11T19:24:18Z</time>
      </trkpt>
      <trkpt lat="28.2140550" lon="-16.6277370">
        <ele>2005.9</ele>
        <time>2020-11-11T19:24:19Z</time>
      </trkpt>
      <trkpt lat="28.2138070" lon="-16.6278950">
        <ele>2005.9</ele>
        <time>2020-11-11T19:24:20Z</time>
      </trkpt>
      <trkpt lat="28.2138070" lon="-16.6278950">
        <ele>2002.9</ele>
        <time>2020-11-11T19:24:21Z</time>
      </trkpt>
      <trkpt lat="28.2135570" lon="-16.6280500">
        <ele>2002.9</ele>
        <time>2020-11-11T19:24:22Z</time>
      </trkpt>
      <trkpt lat="28.2135570" lon="-16.6280500">
        <ele>1999.9</ele>
        <time>2020-11-11T19:24:23Z</time>
      </trkpt>
      <trkpt lat="28.2133070" lon="-16.6282120">
        <ele>1999.9</ele>
        <time>2020-11-11T19:24:24Z</time>
      </trkpt>
      <trkpt lat="28.2131850" lon="-16.6282970">
        <ele>1997.9</ele>
        <time>2020-11-11T19:24:25Z</time>
      </trkpt>
      <trkpt lat="28.2131850" lon="-16.6282970">
        <ele>1997.9</ele>
        <time>2020-11-11T19:24:26Z</time>
      </trkpt>
      <trkpt lat="28.2129620" lon="-16.6284980">
        <ele>1994.9</ele>
        <time>2020-11-11T19:24:27Z</time>
      </trkpt>
      <trkpt lat="28.2129620" lon="-16.6284980">
        <ele>1994.9</ele>
        <time>2020-11-11T19:24:28Z</time>
      </trkpt>
      <trkpt lat="28.2127620" lon="-16.6287320">
        <ele>1992.9</ele>
        <time>2020-11-11T19:24:29Z</time>
      </trkpt>
      <trkpt lat="28.2127620" lon="-16.6287320">
        <ele>1989.9</ele>
        <time>2020-11-11T19:24:30Z</time>
      </trkpt>
      <trkpt lat="28.2125770" lon="-16.6289870">
        <ele>1989.9</ele>
        <time>2020-11-11T19:24:31Z</time>
      </trkpt>
      <trkpt lat="28.2125770" lon="-16.6289870">
        <ele>1987.9</ele>
        <time>2020-11-11T19:24:32Z</time>
      </trkpt>
      <trkpt lat="28.2123930" lon="-16.6292330">
        <ele>1987.9</ele>
        <time>2020-11-11T19:24:33Z</time>
      </trkpt>
      <trkpt lat="28.2123050" lon="-16.6293530">
        <ele>1985.9</ele>
        <time>2020-11-11T19:24:34Z</time>
      </trkpt>
      <trkpt lat="28.2123050" lon="-16.6293530">
        <ele>1985.9</ele>
        <time>2020-11-11T19:24:35Z</time>
      </trkpt>
      <trkpt lat="28.2121650" lon="-16.6295880">
        <ele>1982.9</ele>
        <time>2020-11-11T19:24:36Z</time>
      </trkpt>
      <trkpt lat="28.2121650" lon="-16.6295880">
        <ele>1982.9</ele>
        <time>2020-11-11T19:24:37Z</time>
      </trkpt>
      <trkpt lat="28.2120800" lon="-16.6298480">
        <ele>1980.9</ele>
        <time>2020-11-11T19:24:38Z</time>
      </trkpt>
      <trkpt lat="28.2120800" lon="-16.6298480">
        <ele>1980.9</ele>
        <time>2020-11-11T19:24:39Z</time>
      </trkpt>
      <trkpt lat="28.2120670" lon="-16.6301430">
        <ele>1978.9</ele>
        <time>2020-11-11T19:24:40Z</time>
      </trkpt>
      <trkpt lat="28.2120670" lon="-16.6301430">
        <ele>1978.9</ele>
        <time>2020-11-11T19:24:41Z</time>
      </trkpt>
      <trkpt lat="28.2120900" lon="-16.6304450">
        <ele>1976.9</ele>
        <time>2020-11-11T19:24:42Z</time>
      </trkpt>
      <trkpt lat="28.2120900" lon="-16.6304450">
        <ele>1976.9</ele>
        <time>2020-11-11T19:24:43Z</time>
      </trkpt>
      <trkpt lat="28.2121220" lon="-16.6307470">
        <ele>1974.9</ele>
        <time>2020-11-11T19:24:44Z</time>
      </trkpt>
      <trkpt lat="28.2121220" lon="-16.6307470">
        <ele>1974.9</ele>
        <time>2020-11-11T19:24:45Z</time>
      </trkpt>
      <trkpt lat="28.2121530" lon="-16.6310430">
        <ele>1972.9</ele>
        <time>2020-11-11T19:24:46Z</time>
      </trkpt>
      <trkpt lat="28.2121530" lon="-16.6310430">
        <ele>1972.9</ele>
        <time>2020-11-11T19:24:47Z</time>
      </trkpt>
      <trkpt lat="28.2121750" lon="-16.6313450">
        <ele>1970.9</ele>
        <time>2020-11-11T19:24:48Z</time>
      </trkpt>
      <trkpt lat="28.2121750" lon="-16.6313450">
        <ele>1970.9</ele>
        <time>2020-11-11T19:24:49Z</time>
      </trkpt>
      <trkpt lat="28.2121570" lon="-16.6316420">
        <ele>1969.9</ele>
        <time>2020-11-11T19:24:50Z</time>
      </trkpt>
      <trkpt lat="28.2121570" lon="-16.6316420">
        <ele>1969.9</ele>
        <time>2020-11-11T19:24:51Z</time>
      </trkpt>
      <trkpt lat="28.2120750" lon="-16.6319180">
        <ele>1967.9</ele>
        <time>2020-11-11T19:24:52Z</time>
      </trkpt>
      <trkpt lat="28.2120750" lon="-16.6319180">
        <ele>1967.9</ele>
        <time>2020-11-11T19:24:53Z</time>
      </trkpt>
      <trkpt lat="28.2119400" lon="-16.6321680">
        <ele>1966.9</ele>
        <time>2020-11-11T19:24:54Z</time>
      </trkpt>
      <trkpt lat="28.2118650" lon="-16.6322900">
        <ele>1966.9</ele>
        <time>2020-11-11T19:24:55Z</time>
      </trkpt>
      <trkpt lat="28.2118650" lon="-16.6322900">
        <ele>1964.9</ele>
        <time>2020-11-11T19:24:56Z</time>
      </trkpt>
      <trkpt lat="28.2117200" lon="-16.6325400">
        <ele>1964.9</ele>
        <time>2020-11-11T19:24:57Z</time>
      </trkpt>
      <trkpt lat="28.2117200" lon="-16.6325400">
        <ele>1961.9</ele>
        <time>2020-11-11T19:24:58Z</time>
      </trkpt>
      <trkpt lat="28.2116050" lon="-16.6328030">
        <ele>1961.9</ele>
        <time>2020-11-11T19:24:59Z</time>
      </trkpt>
      <trkpt lat="28.2116050" lon="-16.6328030">
        <ele>1959.9</ele>
        <time>2020-11-11T19:25:00Z</time>
      </trkpt>
      <trkpt lat="28.2115270" lon="-16.6330880">
        <ele>1959.9</ele>
        <time>2020-11-11T19:25:01Z</time>
      </trkpt>
      <trkpt lat="28.2115270" lon="-16.6330880">
        <ele>1957.9</ele>
        <time>2020-11-11T19:25:02Z</time>
      </trkpt>
      <trkpt lat="28.2114750" lon="-16.6333800">
        <ele>1957.9</ele>
        <time>2020-11-11T19:25:03Z</time>
      </trkpt>
      <trkpt lat="28.2114750" lon="-16.6333800">
        <ele>1956.9</ele>
        <time>2020-11-11T19:25:04Z</time>
      </trkpt>
      <trkpt lat="28.2114300" lon="-16.6336720">
        <ele>1956.9</ele>
        <time>2020-11-11T19:25:05Z</time>
      </trkpt>
      <trkpt lat="28.2114070" lon="-16.6338150">
        <ele>1954.9</ele>
        <time>2020-11-11T19:25:06Z</time>
      </trkpt>
      <trkpt lat="28.2113850" lon="-16.6339530">
        <ele>1954.9</ele>
        <time>2020-11-11T19:25:07Z</time>
      </trkpt>
      <trkpt lat="28.2113850" lon="-16.6339530">
        <ele>1953.9</ele>
        <time>2020-11-11T19:25:08Z</time>
      </trkpt>
      <trkpt lat="28.2113430" lon="-16.6342230">
        <ele>1952.9</ele>
        <time>2020-11-11T19:25:09Z</time>
      </trkpt>
      <trkpt lat="28.2113430" lon="-16.6342230">
        <ele>1952.9</ele>
        <time>2020-11-11T19:25:10Z</time>
      </trkpt>
      <trkpt lat="28.2113070" lon="-16.6344830">
        <ele>1952.9</ele>
        <time>2020-11-11T19:25:11Z</time>
      </trkpt>
      <trkpt lat="28.2113070" lon="-16.6344830">
        <ele>1952.9</ele>
        <time>2020-11-11T19:25:12Z</time>
      </trkpt>
      <trkpt lat="28.2112650" lon="-16.6347350">
        <ele>1951.9</ele>
        <time>2020-11-11T19:25:13Z</time>
      </trkpt>
      <trkpt lat="28.2112650" lon="-16.6347350">
        <ele>1951.9</ele>
        <time>2020-11-11T19:25:14Z</time>
      </trkpt>
      <trkpt lat="28.2112220" lon="-16.6349880">
        <ele>1951.9</ele>
        <time>2020-11-11T19:25:15Z</time>
      </trkpt>
      <trkpt lat="28.2112020" lon="-16.6351150">
        <ele>1951.9</ele>
        <time>2020-11-11T19:25:16Z</time>
      </trkpt>
      <trkpt lat="28.2112020" lon="-16.6351150">
        <ele>1950.9</ele>
        <time>2020-11-11T19:25:17Z</time>
      </trkpt>
      <trkpt lat="28.2111630" lon="-16.6353680">
        <ele>1950.9</ele>
        <time>2020-11-11T19:25:18Z</time>
      </trkpt>
      <trkpt lat="28.2111630" lon="-16.6353680">
        <ele>1949.9</ele>
        <time>2020-11-11T19:25:19Z</time>
      </trkpt>
      <trkpt lat="28.2111230" lon="-16.6356230">
        <ele>1949.9</ele>
        <time>2020-11-11T19:25:20Z</time>
      </trkpt>
      <trkpt lat="28.2111230" lon="-16.6356230">
        <ele>1948.9</ele>
        <time>2020-11-11T19:25:21Z</time>
      </trkpt>
      <trkpt lat="28.2110820" lon="-16.6358800">
        <ele>1948.9</ele>
        <time>2020-11-11T19:25:22Z</time>
      </trkpt>
      <trkpt lat="28.2110820" lon="-16.6358800">
        <ele>1947.9</ele>
        <time>2020-11-11T19:25:23Z</time>
      </trkpt>
      <trkpt lat="28.2110370" lon="-16.6361420">
        <ele>1947.9</ele>
        <time>2020-11-11T19:25:24Z</time>
      </trkpt>
      <trkpt lat="28.2110150" lon="-16.6362730">
        <ele>1946.9</ele>
        <time>2020-11-11T19:25:25Z</time>
      </trkpt>
      <trkpt lat="28.2109930" lon="-16.6364070">
        <ele>1946.9</ele>
        <time>2020-11-11T19:25:26Z</time>
      </trkpt>
      <trkpt lat="28.2109930" lon="-16.6364070">
        <ele>1945.9</ele>
        <time>2020-11-11T19:25:27Z</time>
      </trkpt>
      <trkpt lat="28.2109500" lon="-16.6366770">
        <ele>1945.9</ele>
        <time>2020-11-11T19:25:28Z</time>
      </trkpt>
      <trkpt lat="28.2109500" lon="-16.6366770">
        <ele>1944.9</ele>
        <time>2020-11-11T19:25:29Z</time>
      </trkpt>
      <trkpt lat="28.2109070" lon="-16.6369450">
        <ele>1944.9</ele>
        <time>2020-11-11T19:25:30Z</time>
      </trkpt>
      <trkpt lat="28.2109070" lon="-16.6369450">
        <ele>1943.9</ele>
        <time>2020-11-11T19:25:31Z</time>
      </trkpt>
      <trkpt lat="28.2108650" lon="-16.6372030">
        <ele>1943.9</ele>
        <time>2020-11-11T19:25:32Z</time>
      </trkpt>
      <trkpt lat="28.2108650" lon="-16.6372030">
        <ele>1943.9</ele>
        <time>2020-11-11T19:25:33Z</time>
      </trkpt>
      <trkpt lat="28.2108270" lon="-16.6374430">
        <ele>1943.9</ele>
        <time>2020-11-11T19:25:34Z</time>
      </trkpt>
      <trkpt lat="28.2108080" lon="-16.6375580">
        <ele>1942.9</ele>
        <time>2020-11-11T19:25:35Z</time>
      </trkpt>
      <trkpt lat="28.2108080" lon="-16.6375580">
        <ele>1942.9</ele>
        <time>2020-11-11T19:25:36Z</time>
      </trkpt>
      <trkpt lat="28.2107730" lon="-16.6377820">
        <ele>1942.9</ele>
        <time>2020-11-11T19:25:37Z</time>
      </trkpt>
      <trkpt lat="28.2107730" lon="-16.6377820">
        <ele>1942.9</ele>
        <time>2020-11-11T19:25:38Z</time>
      </trkpt>
      <trkpt lat="28.2107400" lon="-16.6379980">
        <ele>1942.9</ele>
        <time>2020-11-11T19:25:39Z</time>
      </trkpt>
      <trkpt lat="28.2107400" lon="-16.6379980">
        <ele>1942.9</ele>
        <time>2020-11-11T19:25:40Z</time>
      </trkpt>
      <trkpt lat="28.2107050" lon="-16.6382070">
        <ele>1942.9</ele>
        <time>2020-11-11T19:25:41Z</time>
      </trkpt>
      <trkpt lat="28.2107050" lon="-16.6382070">
        <ele>1942.9</ele>
        <time>2020-11-11T19:25:42Z</time>
      </trkpt>
      <trkpt lat="28.2106730" lon="-16.6384070">
        <ele>1942.9</ele>
        <time>2020-11-11T19:25:43Z</time>
      </trkpt>
      <trkpt lat="28.2106730" lon="-16.6384070">
        <ele>1942.9</ele>
        <time>2020-11-11T19:25:44Z</time>
      </trkpt>
      <trkpt lat="28.2106450" lon="-16.6386000">
        <ele>1942.9</ele>
        <time>2020-11-11T19:25:45Z</time>
      </trkpt>
      <trkpt lat="28.2106450" lon="-16.6386000">
        <ele>1942.9</ele>
        <time>2020-11-11T19:25:46Z</time>
      </trkpt>
      <trkpt lat="28.2106150" lon="-16.6387870">
        <ele>1942.9</ele>
        <time>2020-11-11T19:25:47Z</time>
      </trkpt>
      <trkpt lat="28.2106150" lon="-16.6387870">
        <ele>1942.9</ele>
        <time>2020-11-11T19:25:48Z</time>
      </trkpt>
      <trkpt lat="28.2105850" lon="-16.6389650">
        <ele>1942.9</ele>
        <time>2020-11-11T19:25:49Z</time>
      </trkpt>
      <trkpt lat="28.2105850" lon="-16.6389650">
        <ele>1942.9</ele>
        <time>2020-11-11T19:25:50Z</time>
      </trkpt>
      <trkpt lat="28.2105600" lon="-16.6391330">
        <ele>1942.9</ele>
        <time>2020-11-11T19:25:51Z</time>
      </trkpt>
      <trkpt lat="28.2105600" lon="-16.6391330">
        <ele>1942.9</ele>
        <time>2020-11-11T19:25:52Z</time>
      </trkpt>
      <trkpt lat="28.2105380" lon="-16.6392930">
        <ele>1942.9</ele>
        <time>2020-11-11T19:25:53Z</time>
      </trkpt>
      <trkpt lat="28.2105280" lon="-16.6393680">
        <ele>1942.9</ele>
        <time>2020-11-11T19:25:54Z</time>
      </trkpt>
      <trkpt lat="28.2105280" lon="-16.6393680">
        <ele>1942.9</ele>
        <time>2020-11-11T19:25:55Z</time>
      </trkpt>
      <trkpt lat="28.2105070" lon="-16.6395070">
        <ele>1942.9</ele>
        <time>2020-11-11T19:25:56Z</time>
      </trkpt>
      <trkpt lat="28.2105070" lon="-16.6395070">
        <ele>1942.9</ele>
        <time>2020-11-11T19:25:57Z</time>
      </trkpt>
      <trkpt lat="28.2104870" lon="-16.6396350">
        <ele>1942.9</ele>
        <time>2020-11-11T19:25:58Z</time>
      </trkpt>
      <trkpt lat="28.2104870" lon="-16.6396350">
        <ele>1942.9</ele>
        <time>2020-11-11T19:25:59Z</time>
      </trkpt>
      <trkpt lat="28.2104670" lon="-16.6397580">
        <ele>1942.9</ele>
        <time>2020-11-11T19:26:00Z</time>
      </trkpt>
      <trkpt lat="28.2104550" lon="-16.6398180">
        <ele>1942.9</ele>
        <time>2020-11-11T19:26:01Z</time>
      </trkpt>
      <trkpt lat="28.2104550" lon="-16.6398180">
        <ele>1942.9</ele>
        <time>2020-11-11T19:26:02Z</time>
      </trkpt>
      <trkpt lat="28.2104320" lon="-16.6399350">
        <ele>1942.9</ele>
        <time>2020-11-11T19:26:03Z</time>
      </trkpt>
      <trkpt lat="28.2104320" lon="-16.6399350">
        <ele>1942.9</ele>
        <time>2020-11-11T19:26:04Z</time>
      </trkpt>
      <trkpt lat="28.2104100" lon="-16.6400530">
        <ele>1942.9</ele>
        <time>2020-11-11T19:26:05Z</time>
      </trkpt>
      <trkpt lat="28.2104100" lon="-16.6400530">
        <ele>1942.9</ele>
        <time>2020-11-11T19:26:06Z</time>
      </trkpt>
      <trkpt lat="28.2103930" lon="-16.6401680">
        <ele>1942.9</ele>
        <time>2020-11-11T19:26:07Z</time>
      </trkpt>
      <trkpt lat="28.2103930" lon="-16.6401680">
        <ele>1942.9</ele>
        <time>2020-11-11T19:26:08Z</time>
      </trkpt>
      <trkpt lat="28.2103800" lon="-16.6402800">
        <ele>1942.9</ele>
        <time>2020-11-11T19:26:09Z</time>
      </trkpt>
      <trkpt lat="28.2103720" lon="-16.6403320">
        <ele>1943.9</ele>
        <time>2020-11-11T19:26:10Z</time>
      </trkpt>
      <trkpt lat="28.2103720" lon="-16.6403320">
        <ele>1943.9</ele>
        <time>2020-11-11T19:26:11Z</time>
      </trkpt>
      <trkpt lat="28.2103470" lon="-16.6404300">
        <ele>1943.9</ele>
        <time>2020-11-11T19:26:12Z</time>
      </trkpt>
      <trkpt lat="28.2103370" lon="-16.6404800">
        <ele>1943.9</ele>
        <time>2020-11-11T19:26:13Z</time>
      </trkpt>
      <trkpt lat="28.2103370" lon="-16.6404800">
        <ele>1944.9</ele>
        <time>2020-11-11T19:26:14Z</time>
      </trkpt>
      <trkpt lat="28.2103230" lon="-16.6405850">
        <ele>1944.9</ele>
        <time>2020-11-11T19:26:15Z</time>
      </trkpt>
      <trkpt lat="28.2103150" lon="-16.6406380">
        <ele>1944.9</ele>
        <time>2020-11-11T19:26:16Z</time>
      </trkpt>
      <trkpt lat="28.2103150" lon="-16.6406380">
        <ele>1944.9</ele>
        <time>2020-11-11T19:26:17Z</time>
      </trkpt>
      <trkpt lat="28.2102980" lon="-16.6407570">
        <ele>1944.9</ele>
        <time>2020-11-11T19:26:18Z</time>
      </trkpt>
      <trkpt lat="28.2102980" lon="-16.6407570">
        <ele>1944.9</ele>
        <time>2020-11-11T19:26:19Z</time>
      </trkpt>
      <trkpt lat="28.2102770" lon="-16.6408800">
        <ele>1944.9</ele>
        <time>2020-11-11T19:26:20Z</time>
      </trkpt>
      <trkpt lat="28.2102770" lon="-16.6408800">
        <ele>1944.9</ele>
        <time>2020-11-11T19:26:21Z</time>
      </trkpt>
      <trkpt lat="28.2102520" lon="-16.6410130">
        <ele>1944.9</ele>
        <time>2020-11-11T19:26:22Z</time>
      </trkpt>
      <trkpt lat="28.2102380" lon="-16.6410850">
        <ele>1944.9</ele>
        <time>2020-11-11T19:26:23Z</time>
      </trkpt>
      <trkpt lat="28.2102380" lon="-16.6410850">
        <ele>1944.9</ele>
        <time>2020-11-11T19:26:24Z</time>
      </trkpt>
      <trkpt lat="28.2102080" lon="-16.6412380">
        <ele>1944.9</ele>
        <time>2020-11-11T19:26:25Z</time>
      </trkpt>
      <trkpt lat="28.2102080" lon="-16.6412380">
        <ele>1943.9</ele>
        <time>2020-11-11T19:26:26Z</time>
      </trkpt>
      <trkpt lat="28.2101770" lon="-16.6413980">
        <ele>1943.9</ele>
        <time>2020-11-11T19:26:27Z</time>
      </trkpt>
      <trkpt lat="28.2101770" lon="-16.6413980">
        <ele>1943.9</ele>
        <time>2020-11-11T19:26:28Z</time>
      </trkpt>
      <trkpt lat="28.2101530" lon="-16.6415680">
        <ele>1942.9</ele>
        <time>2020-11-11T19:26:29Z</time>
      </trkpt>
      <trkpt lat="28.2101420" lon="-16.6416530">
        <ele>1942.9</ele>
        <time>2020-11-11T19:26:30Z</time>
      </trkpt>
      <trkpt lat="28.2101420" lon="-16.6416530">
        <ele>1942.9</ele>
        <time>2020-11-11T19:26:31Z</time>
      </trkpt>
      <trkpt lat="28.2101150" lon="-16.6418220">
        <ele>1942.9</ele>
        <time>2020-11-11T19:26:32Z</time>
      </trkpt>
      <trkpt lat="28.2101150" lon="-16.6418220">
        <ele>1942.9</ele>
        <time>2020-11-11T19:26:33Z</time>
      </trkpt>
      <trkpt lat="28.2100870" lon="-16.6419900">
        <ele>1942.9</ele>
        <time>2020-11-11T19:26:34Z</time>
      </trkpt>
      <trkpt lat="28.2100870" lon="-16.6419900">
        <ele>1941.9</ele>
        <time>2020-11-11T19:26:35Z</time>
      </trkpt>
      <trkpt lat="28.2100620" lon="-16.6421580">
        <ele>1941.9</ele>
        <time>2020-11-11T19:26:36Z</time>
      </trkpt>
      <trkpt lat="28.2100620" lon="-16.6421580">
        <ele>1941.9</ele>
        <time>2020-11-11T19:26:37Z</time>
      </trkpt>
      <trkpt lat="28.2100400" lon="-16.6423270">
        <ele>1941.9</ele>
        <time>2020-11-11T19:26:38Z</time>
      </trkpt>
      <trkpt lat="28.2100400" lon="-16.6423270">
        <ele>1941.9</ele>
        <time>2020-11-11T19:26:39Z</time>
      </trkpt>
      <trkpt lat="28.2100200" lon="-16.6424920">
        <ele>1941.9</ele>
        <time>2020-11-11T19:26:40Z</time>
      </trkpt>
      <trkpt lat="28.2100200" lon="-16.6424920">
        <ele>1941.9</ele>
        <time>2020-11-11T19:26:41Z</time>
      </trkpt>
      <trkpt lat="28.2100050" lon="-16.6426580">
        <ele>1941.9</ele>
        <time>2020-11-11T19:26:42Z</time>
      </trkpt>
      <trkpt lat="28.2100050" lon="-16.6426580">
        <ele>1941.9</ele>
        <time>2020-11-11T19:26:43Z</time>
      </trkpt>
      <trkpt lat="28.2099930" lon="-16.6428270">
        <ele>1941.9</ele>
        <time>2020-11-11T19:26:44Z</time>
      </trkpt>
      <trkpt lat="28.2099930" lon="-16.6428270">
        <ele>1940.9</ele>
        <time>2020-11-11T19:26:45Z</time>
      </trkpt>
      <trkpt lat="28.2099880" lon="-16.6429950">
        <ele>1940.9</ele>
        <time>2020-11-11T19:26:46Z</time>
      </trkpt>
      <trkpt lat="28.2099880" lon="-16.6429950">
        <ele>1940.9</ele>
        <time>2020-11-11T19:26:47Z</time>
      </trkpt>
      <trkpt lat="28.2099930" lon="-16.6431620">
        <ele>1940.9</ele>
        <time>2020-11-11T19:26:48Z</time>
      </trkpt>
      <trkpt lat="28.2099970" lon="-16.6432430">
        <ele>1940.9</ele>
        <time>2020-11-11T19:26:49Z</time>
      </trkpt>
      <trkpt lat="28.2099970" lon="-16.6432430">
        <ele>1940.9</ele>
        <time>2020-11-11T19:26:50Z</time>
      </trkpt>
      <trkpt lat="28.2100030" lon="-16.6434050">
        <ele>1940.9</ele>
        <time>2020-11-11T19:26:51Z</time>
      </trkpt>
      <trkpt lat="28.2100030" lon="-16.6434050">
        <ele>1940.9</ele>
        <time>2020-11-11T19:26:52Z</time>
      </trkpt>
      <trkpt lat="28.2100150" lon="-16.6435600">
        <ele>1940.9</ele>
        <time>2020-11-11T19:26:53Z</time>
      </trkpt>
      <trkpt lat="28.2100250" lon="-16.6436400">
        <ele>1940.9</ele>
        <time>2020-11-11T19:26:54Z</time>
      </trkpt>
      <trkpt lat="28.2100350" lon="-16.6437200">
        <ele>1940.9</ele>
        <time>2020-11-11T19:26:55Z</time>
      </trkpt>
      <trkpt lat="28.2100350" lon="-16.6437200">
        <ele>1940.9</ele>
        <time>2020-11-11T19:26:56Z</time>
      </trkpt>
      <trkpt lat="28.2100520" lon="-16.6438780">
        <ele>1940.9</ele>
        <time>2020-11-11T19:26:57Z</time>
      </trkpt>
      <trkpt lat="28.2100620" lon="-16.6439580">
        <ele>1940.9</ele>
        <time>2020-11-11T19:26:58Z</time>
      </trkpt>
      <trkpt lat="28.2100620" lon="-16.6439580">
        <ele>1940.9</ele>
        <time>2020-11-11T19:26:59Z</time>
      </trkpt>
      <trkpt lat="28.2100730" lon="-16.6441180">
        <ele>1940.9</ele>
        <time>2020-11-11T19:27:00Z</time>
      </trkpt>
      <trkpt lat="28.2100800" lon="-16.6442000">
        <ele>1939.9</ele>
        <time>2020-11-11T19:27:01Z</time>
      </trkpt>
      <trkpt lat="28.2100870" lon="-16.6442770">
        <ele>1939.9</ele>
        <time>2020-11-11T19:27:02Z</time>
      </trkpt>
      <trkpt lat="28.2100870" lon="-16.6442770">
        <ele>1939.9</ele>
        <time>2020-11-11T19:27:03Z</time>
      </trkpt>
      <trkpt lat="28.2100970" lon="-16.6444300">
        <ele>1939.9</ele>
        <time>2020-11-11T19:27:04Z</time>
      </trkpt>
      <trkpt lat="28.2100970" lon="-16.6444300">
        <ele>1939.9</ele>
        <time>2020-11-11T19:27:05Z</time>
      </trkpt>
      <trkpt lat="28.2101150" lon="-16.6445780">
        <ele>1939.9</ele>
        <time>2020-11-11T19:27:06Z</time>
      </trkpt>
      <trkpt lat="28.2101150" lon="-16.6445780">
        <ele>1939.9</ele>
        <time>2020-11-11T19:27:07Z</time>
      </trkpt>
      <trkpt lat="28.2101330" lon="-16.6447280">
        <ele>1939.9</ele>
        <time>2020-11-11T19:27:08Z</time>
      </trkpt>
      <trkpt lat="28.2101330" lon="-16.6447280">
        <ele>1939.9</ele>
        <time>2020-11-11T19:27:09Z</time>
      </trkpt>
      <trkpt lat="28.2101480" lon="-16.6448720">
        <ele>1939.9</ele>
        <time>2020-11-11T19:27:10Z</time>
      </trkpt>
      <trkpt lat="28.2101480" lon="-16.6448720">
        <ele>1939.9</ele>
        <time>2020-11-11T19:27:11Z</time>
      </trkpt>
      <trkpt lat="28.2101600" lon="-16.6450170">
        <ele>1939.9</ele>
        <time>2020-11-11T19:27:12Z</time>
      </trkpt>
      <trkpt lat="28.2101670" lon="-16.6450880">
        <ele>1939.9</ele>
        <time>2020-11-11T19:27:13Z</time>
      </trkpt>
      <trkpt lat="28.2101670" lon="-16.6450880">
        <ele>1939.9</ele>
        <time>2020-11-11T19:27:14Z</time>
      </trkpt>
      <trkpt lat="28.2101820" lon="-16.6452300">
        <ele>1939.9</ele>
        <time>2020-11-11T19:27:15Z</time>
      </trkpt>
      <trkpt lat="28.2101900" lon="-16.6453000">
        <ele>1939.9</ele>
        <time>2020-11-11T19:27:16Z</time>
      </trkpt>
      <trkpt lat="28.2101900" lon="-16.6453000">
        <ele>1939.9</ele>
        <time>2020-11-11T19:27:17Z</time>
      </trkpt>
      <trkpt lat="28.2102050" lon="-16.6454400">
        <ele>1939.9</ele>
        <time>2020-11-11T19:27:18Z</time>
      </trkpt>
      <trkpt lat="28.2102050" lon="-16.6454400">
        <ele>1939.9</ele>
        <time>2020-11-11T19:27:19Z</time>
      </trkpt>
      <trkpt lat="28.2102180" lon="-16.6455770">
        <ele>1939.9</ele>
        <time>2020-11-11T19:27:20Z</time>
      </trkpt>
      <trkpt lat="28.2102180" lon="-16.6455770">
        <ele>1939.9</ele>
        <time>2020-11-11T19:27:21Z</time>
      </trkpt>
      <trkpt lat="28.2102320" lon="-16.6457130">
        <ele>1939.9</ele>
        <time>2020-11-11T19:27:22Z</time>
      </trkpt>
      <trkpt lat="28.2102320" lon="-16.6457130">
        <ele>1939.9</ele>
        <time>2020-11-11T19:27:23Z</time>
      </trkpt>
      <trkpt lat="28.2102420" lon="-16.6458450">
        <ele>1939.9</ele>
        <time>2020-11-11T19:27:24Z</time>
      </trkpt>
      <trkpt lat="28.2102450" lon="-16.6459100">
        <ele>1939.9</ele>
        <time>2020-11-11T19:27:25Z</time>
      </trkpt>
      <trkpt lat="28.2102450" lon="-16.6459100">
        <ele>1939.9</ele>
        <time>2020-11-11T19:27:26Z</time>
      </trkpt>
      <trkpt lat="28.2102600" lon="-16.6460380">
        <ele>1939.9</ele>
        <time>2020-11-11T19:27:27Z</time>
      </trkpt>
      <trkpt lat="28.2102700" lon="-16.6460980">
        <ele>1939.9</ele>
        <time>2020-11-11T19:27:28Z</time>
      </trkpt>
      <trkpt lat="28.2102700" lon="-16.6460980">
        <ele>1939.9</ele>
        <time>2020-11-11T19:27:29Z</time>
      </trkpt>
      <trkpt lat="28.2102880" lon="-16.6462200">
        <ele>1939.9</ele>
        <time>2020-11-11T19:27:30Z</time>
      </trkpt>
      <trkpt lat="28.2102880" lon="-16.6462200">
        <ele>1939.9</ele>
        <time>2020-11-11T19:27:31Z</time>
      </trkpt>
      <trkpt lat="28.2103000" lon="-16.6463400">
        <ele>1939.9</ele>
        <time>2020-11-11T19:27:32Z</time>
      </trkpt>
      <trkpt lat="28.2103000" lon="-16.6463400">
        <ele>1939.9</ele>
        <time>2020-11-11T19:27:33Z</time>
      </trkpt>
      <trkpt lat="28.2103100" lon="-16.6464600">
        <ele>1939.9</ele>
        <time>2020-11-11T19:27:34Z</time>
      </trkpt>
      <trkpt lat="28.2103100" lon="-16.6464600">
        <ele>1939.9</ele>
        <time>2020-11-11T19:27:35Z</time>
      </trkpt>
      <trkpt lat="28.2103200" lon="-16.6465800">
        <ele>1939.9</ele>
        <time>2020-11-11T19:27:36Z</time>
      </trkpt>
      <trkpt lat="28.2103200" lon="-16.6465800">
        <ele>1939.9</ele>
        <time>2020-11-11T19:27:37Z</time>
      </trkpt>
      <trkpt lat="28.2103280" lon="-16.6467030">
        <ele>1939.9</ele>
        <time>2020-11-11T19:27:38Z</time>
      </trkpt>
      <trkpt lat="28.2103280" lon="-16.6467030">
        <ele>1939.9</ele>
        <time>2020-11-11T19:27:39Z</time>
      </trkpt>
      <trkpt lat="28.2103400" lon="-16.6468230">
        <ele>1939.9</ele>
        <time>2020-11-11T19:27:40Z</time>
      </trkpt>
      <trkpt lat="28.2103400" lon="-16.6468230">
        <ele>1939.9</ele>
        <time>2020-11-11T19:27:41Z</time>
      </trkpt>
      <trkpt lat="28.2103520" lon="-16.6469380">
        <ele>1939.9</ele>
        <time>2020-11-11T19:27:42Z</time>
      </trkpt>
      <trkpt lat="28.2103580" lon="-16.6469970">
        <ele>1939.9</ele>
        <time>2020-11-11T19:27:43Z</time>
      </trkpt>
      <trkpt lat="28.2103650" lon="-16.6470550">
        <ele>1939.9</ele>
        <time>2020-11-11T19:27:44Z</time>
      </trkpt>
      <trkpt lat="28.2103650" lon="-16.6470550">
        <ele>1939.9</ele>
        <time>2020-11-11T19:27:45Z</time>
      </trkpt>
      <trkpt lat="28.2103720" lon="-16.6471700">
        <ele>1939.9</ele>
        <time>2020-11-11T19:27:46Z</time>
      </trkpt>
      <trkpt lat="28.2103750" lon="-16.6472270">
        <ele>1939.9</ele>
        <time>2020-11-11T19:27:47Z</time>
      </trkpt>
      <trkpt lat="28.2103750" lon="-16.6472270">
        <ele>1939.9</ele>
        <time>2020-11-11T19:27:48Z</time>
      </trkpt>
      <trkpt lat="28.2103830" lon="-16.6473400">
        <ele>1939.9</ele>
        <time>2020-11-11T19:27:49Z</time>
      </trkpt>
      <trkpt lat="28.2103830" lon="-16.6473400">
        <ele>1939.9</ele>
        <time>2020-11-11T19:27:50Z</time>
      </trkpt>
      <trkpt lat="28.2103930" lon="-16.6474530">
        <ele>1939.9</ele>
        <time>2020-11-11T19:27:51Z</time>
      </trkpt>
      <trkpt lat="28.2103930" lon="-16.6474530">
        <ele>1939.9</ele>
        <time>2020-11-11T19:27:52Z</time>
      </trkpt>
      <trkpt lat="28.2104070" lon="-16.6475650">
        <ele>1939.9</ele>
        <time>2020-11-11T19:27:53Z</time>
      </trkpt>
      <trkpt lat="28.2104070" lon="-16.6475650">
        <ele>1939.9</ele>
        <time>2020-11-11T19:27:54Z</time>
      </trkpt>
      <trkpt lat="28.2104220" lon="-16.6476800">
        <ele>1939.9</ele>
        <time>2020-11-11T19:27:55Z</time>
      </trkpt>
      <trkpt lat="28.2104220" lon="-16.6476800">
        <ele>1939.9</ele>
        <time>2020-11-11T19:27:56Z</time>
      </trkpt>
      <trkpt lat="28.2104370" lon="-16.6477950">
        <ele>1939.9</ele>
        <time>2020-11-11T19:27:57Z</time>
      </trkpt>
      <trkpt lat="28.2104370" lon="-16.6477950">
        <ele>1939.9</ele>
        <time>2020-11-11T19:27:58Z</time>
      </trkpt>
      <trkpt lat="28.2104480" lon="-16.6479100">
        <ele>1939.9</ele>
        <time>2020-11-11T19:27:59Z</time>
      </trkpt>
      <trkpt lat="28.2104550" lon="-16.6479700">
        <ele>1939.9</ele>
        <time>2020-11-11T19:28:00Z</time>
      </trkpt>
      <trkpt lat="28.2104550" lon="-16.6479700">
        <ele>1939.9</ele>
        <time>2020-11-11T19:28:01Z</time>
      </trkpt>
      <trkpt lat="28.2104670" lon="-16.6480880">
        <ele>1939.9</ele>
        <time>2020-11-11T19:28:02Z</time>
      </trkpt>
      <trkpt lat="28.2104730" lon="-16.6481480">
        <ele>1939.9</ele>
        <time>2020-11-11T19:28:03Z</time>
      </trkpt>
      <trkpt lat="28.2104730" lon="-16.6481480">
        <ele>1939.9</ele>
        <time>2020-11-11T19:28:04Z</time>
      </trkpt>
      <trkpt lat="28.2104850" lon="-16.6482670">
        <ele>1939.9</ele>
        <time>2020-11-11T19:28:05Z</time>
      </trkpt>
      <trkpt lat="28.2104900" lon="-16.6483270">
        <ele>1939.9</ele>
        <time>2020-11-11T19:28:06Z</time>
      </trkpt>
      <trkpt lat="28.2104900" lon="-16.6483270">
        <ele>1939.9</ele>
        <time>2020-11-11T19:28:07Z</time>
      </trkpt>
      <trkpt lat="28.2105030" lon="-16.6484480">
        <ele>1939.9</ele>
        <time>2020-11-11T19:28:08Z</time>
      </trkpt>
      <trkpt lat="28.2105030" lon="-16.6484480">
        <ele>1939.9</ele>
        <time>2020-11-11T19:28:09Z</time>
      </trkpt>
      <trkpt lat="28.2105130" lon="-16.6485700">
        <ele>1939.9</ele>
        <time>2020-11-11T19:28:10Z</time>
      </trkpt>
      <trkpt lat="28.2105130" lon="-16.6485700">
        <ele>1939.9</ele>
        <time>2020-11-11T19:28:11Z</time>
      </trkpt>
      <trkpt lat="28.2105230" lon="-16.6486930">
        <ele>1939.9</ele>
        <time>2020-11-11T19:28:12Z</time>
      </trkpt>
      <trkpt lat="28.2105280" lon="-16.6487550">
        <ele>1939.9</ele>
        <time>2020-11-11T19:28:13Z</time>
      </trkpt>
      <trkpt lat="28.2105280" lon="-16.6487550">
        <ele>1939.9</ele>
        <time>2020-11-11T19:28:14Z</time>
      </trkpt>
      <trkpt lat="28.2105420" lon="-16.6488780">
        <ele>1939.9</ele>
        <time>2020-11-11T19:28:15Z</time>
      </trkpt>
      <trkpt lat="28.2105420" lon="-16.6488780">
        <ele>1939.9</ele>
        <time>2020-11-11T19:28:16Z</time>
      </trkpt>
      <trkpt lat="28.2105550" lon="-16.6490020">
        <ele>1939.9</ele>
        <time>2020-11-11T19:28:17Z</time>
      </trkpt>
      <trkpt lat="28.2105550" lon="-16.6490020">
        <ele>1939.9</ele>
        <time>2020-11-11T19:28:18Z</time>
      </trkpt>
      <trkpt lat="28.2105650" lon="-16.6491270">
        <ele>1939.9</ele>
        <time>2020-11-11T19:28:19Z</time>
      </trkpt>
      <trkpt lat="28.2105650" lon="-16.6491270">
        <ele>1939.9</ele>
        <time>2020-11-11T19:28:20Z</time>
      </trkpt>
      <trkpt lat="28.2105770" lon="-16.6492480">
        <ele>1939.9</ele>
        <time>2020-11-11T19:28:21Z</time>
      </trkpt>
      <trkpt lat="28.2105770" lon="-16.6492480">
        <ele>1939.9</ele>
        <time>2020-11-11T19:28:22Z</time>
      </trkpt>
      <trkpt lat="28.2105900" lon="-16.6493730">
        <ele>1939.9</ele>
        <time>2020-11-11T19:28:23Z</time>
      </trkpt>
      <trkpt lat="28.2105900" lon="-16.6493730">
        <ele>1939.9</ele>
        <time>2020-11-11T19:28:24Z</time>
      </trkpt>
      <trkpt lat="28.2105980" lon="-16.6494980">
        <ele>1939.9</ele>
        <time>2020-11-11T19:28:25Z</time>
      </trkpt>
      <trkpt lat="28.2105980" lon="-16.6494980">
        <ele>1939.9</ele>
        <time>2020-11-11T19:28:26Z</time>
      </trkpt>
      <trkpt lat="28.2106030" lon="-16.6496230">
        <ele>1939.9</ele>
        <time>2020-11-11T19:28:27Z</time>
      </trkpt>
      <trkpt lat="28.2106030" lon="-16.6496230">
        <ele>1939.9</ele>
        <time>2020-11-11T19:28:28Z</time>
      </trkpt>
      <trkpt lat="28.2106130" lon="-16.6497450">
        <ele>1939.9</ele>
        <time>2020-11-11T19:28:29Z</time>
      </trkpt>
      <trkpt lat="28.2106130" lon="-16.6497450">
        <ele>1939.9</ele>
        <time>2020-11-11T19:28:30Z</time>
      </trkpt>
      <trkpt lat="28.2106250" lon="-16.6498630">
        <ele>1939.9</ele>
        <time>2020-11-11T19:28:31Z</time>
      </trkpt>
      <trkpt lat="28.2106280" lon="-16.6499230">
        <ele>1939.9</ele>
        <time>2020-11-11T19:28:32Z</time>
      </trkpt>
      <trkpt lat="28.2106280" lon="-16.6499230">
        <ele>1939.9</ele>
        <time>2020-11-11T19:28:33Z</time>
      </trkpt>
      <trkpt lat="28.2106380" lon="-16.6500420">
        <ele>1939.9</ele>
        <time>2020-11-11T19:28:34Z</time>
      </trkpt>
      <trkpt lat="28.2106380" lon="-16.6500420">
        <ele>1939.9</ele>
        <time>2020-11-11T19:28:35Z</time>
      </trkpt>
      <trkpt lat="28.2106470" lon="-16.6501600">
        <ele>1939.9</ele>
        <time>2020-11-11T19:28:36Z</time>
      </trkpt>
      <trkpt lat="28.2106530" lon="-16.6502180">
        <ele>1939.9</ele>
        <time>2020-11-11T19:28:37Z</time>
      </trkpt>
      <trkpt lat="28.2106530" lon="-16.6502180">
        <ele>1939.9</ele>
        <time>2020-11-11T19:28:38Z</time>
      </trkpt>
      <trkpt lat="28.2106650" lon="-16.6503330">
        <ele>1939.9</ele>
        <time>2020-11-11T19:28:39Z</time>
      </trkpt>
      <trkpt lat="28.2106650" lon="-16.6503330">
        <ele>1939.9</ele>
        <time>2020-11-11T19:28:40Z</time>
      </trkpt>
      <trkpt lat="28.2106770" lon="-16.6504450">
        <ele>1939.9</ele>
        <time>2020-11-11T19:28:41Z</time>
      </trkpt>
      <trkpt lat="28.2106770" lon="-16.6504450">
        <ele>1939.9</ele>
        <time>2020-11-11T19:28:42Z</time>
      </trkpt>
      <trkpt lat="28.2106830" lon="-16.6505450">
        <ele>1939.9</ele>
        <time>2020-11-11T19:28:43Z</time>
      </trkpt>
      <trkpt lat="28.2106830" lon="-16.6505450">
        <ele>1939.9</ele>
        <time>2020-11-11T19:28:44Z</time>
      </trkpt>
      <trkpt lat="28.2106920" lon="-16.6506420">
        <ele>1939.9</ele>
        <time>2020-11-11T19:28:45Z</time>
      </trkpt>
      <trkpt lat="28.2106920" lon="-16.6506420">
        <ele>1939.9</ele>
        <time>2020-11-11T19:28:46Z</time>
      </trkpt>
      <trkpt lat="28.2107020" lon="-16.6507280">
        <ele>1939.9</ele>
        <time>2020-11-11T19:28:47Z</time>
      </trkpt>
      <trkpt lat="28.2107070" lon="-16.6507700">
        <ele>1940.9</ele>
        <time>2020-11-11T19:28:48Z</time>
      </trkpt>
      <trkpt lat="28.2107070" lon="-16.6507700">
        <ele>1940.9</ele>
        <time>2020-11-11T19:28:49Z</time>
      </trkpt>
      <trkpt lat="28.2107200" lon="-16.6508500">
        <ele>1940.9</ele>
        <time>2020-11-11T19:28:50Z</time>
      </trkpt>
      <trkpt lat="28.2107200" lon="-16.6508500">
        <ele>1940.9</ele>
        <time>2020-11-11T19:28:51Z</time>
      </trkpt>
      <trkpt lat="28.2107320" lon="-16.6509230">
        <ele>1940.9</ele>
        <time>2020-11-11T19:28:52Z</time>
      </trkpt>
      <trkpt lat="28.2107330" lon="-16.6509580">
        <ele>1940.9</ele>
        <time>2020-11-11T19:28:53Z</time>
      </trkpt>
      <trkpt lat="28.2107330" lon="-16.6509580">
        <ele>1940.9</ele>
        <time>2020-11-11T19:28:54Z</time>
      </trkpt>
      <trkpt lat="28.2107380" lon="-16.6510280">
        <ele>1940.9</ele>
        <time>2020-11-11T19:28:55Z</time>
      </trkpt>
      <trkpt lat="28.2107380" lon="-16.6510280">
        <ele>1940.9</ele>
        <time>2020-11-11T19:28:56Z</time>
      </trkpt>
      <trkpt lat="28.2107470" lon="-16.6510970">
        <ele>1941.9</ele>
        <time>2020-11-11T19:28:57Z</time>
      </trkpt>
      <trkpt lat="28.2107470" lon="-16.6510970">
        <ele>1941.9</ele>
        <time>2020-11-11T19:28:58Z</time>
      </trkpt>
      <trkpt lat="28.2107550" lon="-16.6511670">
        <ele>1941.9</ele>
        <time>2020-11-11T19:28:59Z</time>
      </trkpt>
      <trkpt lat="28.2107550" lon="-16.6511670">
        <ele>1941.9</ele>
        <time>2020-11-11T19:29:00Z</time>
      </trkpt>
      <trkpt lat="28.2107620" lon="-16.6512370">
        <ele>1941.9</ele>
        <time>2020-11-11T19:29:01Z</time>
      </trkpt>
      <trkpt lat="28.2107620" lon="-16.6512370">
        <ele>1941.9</ele>
        <time>2020-11-11T19:29:02Z</time>
      </trkpt>
      <trkpt lat="28.2107680" lon="-16.6513100">
        <ele>1941.9</ele>
        <time>2020-11-11T19:29:03Z</time>
      </trkpt>
      <trkpt lat="28.2107730" lon="-16.6513480">
        <ele>1941.9</ele>
        <time>2020-11-11T19:29:04Z</time>
      </trkpt>
      <trkpt lat="28.2107730" lon="-16.6513480">
        <ele>1941.9</ele>
        <time>2020-11-11T19:29:05Z</time>
      </trkpt>
      <trkpt lat="28.2107780" lon="-16.6514250">
        <ele>1941.9</ele>
        <time>2020-11-11T19:29:06Z</time>
      </trkpt>
      <trkpt lat="28.2107780" lon="-16.6514250">
        <ele>1942.9</ele>
        <time>2020-11-11T19:29:07Z</time>
      </trkpt>
      <trkpt lat="28.2107850" lon="-16.6514970">
        <ele>1942.9</ele>
        <time>2020-11-11T19:29:08Z</time>
      </trkpt>
      <trkpt lat="28.2107850" lon="-16.6514970">
        <ele>1942.9</ele>
        <time>2020-11-11T19:29:09Z</time>
      </trkpt>
      <trkpt lat="28.2107850" lon="-16.6515680">
        <ele>1942.9</ele>
        <time>2020-11-11T19:29:10Z</time>
      </trkpt>
      <trkpt lat="28.2107850" lon="-16.6515680">
        <ele>1942.9</ele>
        <time>2020-11-11T19:29:11Z</time>
      </trkpt>
      <trkpt lat="28.2107870" lon="-16.6516370">
        <ele>1942.9</ele>
        <time>2020-11-11T19:29:12Z</time>
      </trkpt>
      <trkpt lat="28.2107870" lon="-16.6516370">
        <ele>1942.9</ele>
        <time>2020-11-11T19:29:13Z</time>
      </trkpt>
      <trkpt lat="28.2107920" lon="-16.6517030">
        <ele>1942.9</ele>
        <time>2020-11-11T19:29:14Z</time>
      </trkpt>
      <trkpt lat="28.2107920" lon="-16.6517030">
        <ele>1942.9</ele>
        <time>2020-11-11T19:29:15Z</time>
      </trkpt>
      <trkpt lat="28.2108030" lon="-16.6517700">
        <ele>1943.9</ele>
        <time>2020-11-11T19:29:16Z</time>
      </trkpt>
      <trkpt lat="28.2108030" lon="-16.6517700">
        <ele>1943.9</ele>
        <time>2020-11-11T19:29:17Z</time>
      </trkpt>
      <trkpt lat="28.2108100" lon="-16.6518370">
        <ele>1943.9</ele>
        <time>2020-11-11T19:29:18Z</time>
      </trkpt>
      <trkpt lat="28.2108100" lon="-16.6518370">
        <ele>1943.9</ele>
        <time>2020-11-11T19:29:19Z</time>
      </trkpt>
      <trkpt lat="28.2108100" lon="-16.6519000">
        <ele>1943.9</ele>
        <time>2020-11-11T19:29:20Z</time>
      </trkpt>
      <trkpt lat="28.2108100" lon="-16.6519000">
        <ele>1943.9</ele>
        <time>2020-11-11T19:29:21Z</time>
      </trkpt>
      <trkpt lat="28.2108150" lon="-16.6519620">
        <ele>1943.9</ele>
        <time>2020-11-11T19:29:22Z</time>
      </trkpt>
      <trkpt lat="28.2108150" lon="-16.6519620">
        <ele>1943.9</ele>
        <time>2020-11-11T19:29:23Z</time>
      </trkpt>
      <trkpt lat="28.2108230" lon="-16.6520180">
        <ele>1943.9</ele>
        <time>2020-11-11T19:29:24Z</time>
      </trkpt>
      <trkpt lat="28.2108280" lon="-16.6520480">
        <ele>1943.9</ele>
        <time>2020-11-11T19:29:25Z</time>
      </trkpt>
      <trkpt lat="28.2108280" lon="-16.6520480">
        <ele>1943.9</ele>
        <time>2020-11-11T19:29:26Z</time>
      </trkpt>
      <trkpt lat="28.2108330" lon="-16.6521070">
        <ele>1943.9</ele>
        <time>2020-11-11T19:29:27Z</time>
      </trkpt>
      <trkpt lat="28.2108330" lon="-16.6521070">
        <ele>1943.9</ele>
        <time>2020-11-11T19:29:28Z</time>
      </trkpt>
      <trkpt lat="28.2108350" lon="-16.6521670">
        <ele>1943.9</ele>
        <time>2020-11-11T19:29:29Z</time>
      </trkpt>
      <trkpt lat="28.2108350" lon="-16.6521670">
        <ele>1943.9</ele>
        <time>2020-11-11T19:29:30Z</time>
      </trkpt>
      <trkpt lat="28.2108420" lon="-16.6522270">
        <ele>1943.9</ele>
        <time>2020-11-11T19:29:31Z</time>
      </trkpt>
      <trkpt lat="28.2108420" lon="-16.6522270">
        <ele>1943.9</ele>
        <time>2020-11-11T19:29:32Z</time>
      </trkpt>
      <trkpt lat="28.2108500" lon="-16.6522850">
        <ele>1943.9</ele>
        <time>2020-11-11T19:29:33Z</time>
      </trkpt>
      <trkpt lat="28.2108500" lon="-16.6522850">
        <ele>1943.9</ele>
        <time>2020-11-11T19:29:34Z</time>
      </trkpt>
      <trkpt lat="28.2108570" lon="-16.6523470">
        <ele>1943.9</ele>
        <time>2020-11-11T19:29:35Z</time>
      </trkpt>
      <trkpt lat="28.2108570" lon="-16.6523470">
        <ele>1944.9</ele>
        <time>2020-11-11T19:29:36Z</time>
      </trkpt>
      <trkpt lat="28.2108630" lon="-16.6524050">
        <ele>1944.9</ele>
        <time>2020-11-11T19:29:37Z</time>
      </trkpt>
      <trkpt lat="28.2108630" lon="-16.6524050">
        <ele>1942.9</ele>
        <time>2020-11-11T19:29:38Z</time>
      </trkpt>
      <trkpt lat="28.2108700" lon="-16.6524680">
        <ele>1942.9</ele>
        <time>2020-11-11T19:29:39Z</time>
      </trkpt>
      <trkpt lat="28.2108730" lon="-16.6525000">
        <ele>1944.9</ele>
        <time>2020-11-11T19:29:40Z</time>
      </trkpt>
      <trkpt lat="28.2108770" lon="-16.6525300">
        <ele>1944.9</ele>
        <time>2020-11-11T19:29:41Z</time>
      </trkpt>
      <trkpt lat="28.2108770" lon="-16.6525300">
        <ele>1945.9</ele>
        <time>2020-11-11T19:29:42Z</time>
      </trkpt>
      <trkpt lat="28.2108830" lon="-16.6525930">
        <ele>1945.9</ele>
        <time>2020-11-11T19:29:43Z</time>
      </trkpt>
      <trkpt lat="28.2108830" lon="-16.6525930">
        <ele>1945.9</ele>
        <time>2020-11-11T19:29:44Z</time>
      </trkpt>
      <trkpt lat="28.2108850" lon="-16.6526550">
        <ele>1945.9</ele>
        <time>2020-11-11T19:29:45Z</time>
      </trkpt>
      <trkpt lat="28.2108880" lon="-16.6526830">
        <ele>1946.9</ele>
        <time>2020-11-11T19:29:46Z</time>
      </trkpt>
      <trkpt lat="28.2108980" lon="-16.6527120">
        <ele>1946.9</ele>
        <time>2020-11-11T19:29:47Z</time>
      </trkpt>
      <trkpt lat="28.2108980" lon="-16.6527120">
        <ele>1946.9</ele>
        <time>2020-11-11T19:29:48Z</time>
      </trkpt>
      <trkpt lat="28.2109100" lon="-16.6527720">
        <ele>1946.9</ele>
        <time>2020-11-11T19:29:49Z</time>
      </trkpt>
      <trkpt lat="28.2109100" lon="-16.6527720">
        <ele>1946.9</ele>
        <time>2020-11-11T19:29:50Z</time>
      </trkpt>
      <trkpt lat="28.2109150" lon="-16.6528330">
        <ele>1946.9</ele>
        <time>2020-11-11T19:29:51Z</time>
      </trkpt>
      <trkpt lat="28.2109150" lon="-16.6528330">
        <ele>1946.9</ele>
        <time>2020-11-11T19:29:52Z</time>
      </trkpt>
      <trkpt lat="28.2109170" lon="-16.6528980">
        <ele>1947.9</ele>
        <time>2020-11-11T19:29:53Z</time>
      </trkpt>
      <trkpt lat="28.2109170" lon="-16.6528980">
        <ele>1947.9</ele>
        <time>2020-11-11T19:29:54Z</time>
      </trkpt>
      <trkpt lat="28.2109170" lon="-16.6529680">
        <ele>1947.9</ele>
        <time>2020-11-11T19:29:55Z</time>
      </trkpt>
      <trkpt lat="28.2109170" lon="-16.6529680">
        <ele>1947.9</ele>
        <time>2020-11-11T19:29:56Z</time>
      </trkpt>
      <trkpt lat="28.2109300" lon="-16.6530320">
        <ele>1947.9</ele>
        <time>2020-11-11T19:29:57Z</time>
      </trkpt>
      <trkpt lat="28.2109300" lon="-16.6530320">
        <ele>1947.9</ele>
        <time>2020-11-11T19:29:58Z</time>
      </trkpt>
      <trkpt lat="28.2109450" lon="-16.6530920">
        <ele>1947.9</ele>
        <time>2020-11-11T19:29:59Z</time>
      </trkpt>
      <trkpt lat="28.2109450" lon="-16.6530920">
        <ele>1947.9</ele>
        <time>2020-11-11T19:30:00Z</time>
      </trkpt>
      <trkpt lat="28.2109550" lon="-16.6531530">
        <ele>1947.9</ele>
        <time>2020-11-11T19:30:01Z</time>
      </trkpt>
      <trkpt lat="28.2109550" lon="-16.6531530">
        <ele>1947.9</ele>
        <time>2020-11-11T19:30:02Z</time>
      </trkpt>
      <trkpt lat="28.2109570" lon="-16.6532130">
        <ele>1947.9</ele>
        <time>2020-11-11T19:30:03Z</time>
      </trkpt>
      <trkpt lat="28.2109570" lon="-16.6532130">
        <ele>1947.9</ele>
        <time>2020-11-11T19:30:04Z</time>
      </trkpt>
      <trkpt lat="28.2109570" lon="-16.6532730">
        <ele>1947.9</ele>
        <time>2020-11-11T19:30:05Z</time>
      </trkpt>
      <trkpt lat="28.2109570" lon="-16.6532730">
        <ele>1947.9</ele>
        <time>2020-11-11T19:30:06Z</time>
      </trkpt>
      <trkpt lat="28.2109600" lon="-16.6533330">
        <ele>1948.9</ele>
        <time>2020-11-11T19:30:07Z</time>
      </trkpt>
      <trkpt lat="28.2109600" lon="-16.6533330">
        <ele>1948.9</ele>
        <time>2020-11-11T19:30:08Z</time>
      </trkpt>
      <trkpt lat="28.2109720" lon="-16.6533930">
        <ele>1948.9</ele>
        <time>2020-11-11T19:30:09Z</time>
      </trkpt>
      <trkpt lat="28.2109720" lon="-16.6533930">
        <ele>1948.9</ele>
        <time>2020-11-11T19:30:10Z</time>
      </trkpt>
      <trkpt lat="28.2109720" lon="-16.6534530">
        <ele>1948.9</ele>
        <time>2020-11-11T19:30:11Z</time>
      </trkpt>
      <trkpt lat="28.2109720" lon="-16.6534530">
        <ele>1948.9</ele>
        <time>2020-11-11T19:30:12Z</time>
      </trkpt>
      <trkpt lat="28.2109750" lon="-16.6535120">
        <ele>1949.9</ele>
        <time>2020-11-11T19:30:13Z</time>
      </trkpt>
      <trkpt lat="28.2109750" lon="-16.6535120">
        <ele>1949.9</ele>
        <time>2020-11-11T19:30:14Z</time>
      </trkpt>
      <trkpt lat="28.2109900" lon="-16.6535650">
        <ele>1949.9</ele>
        <time>2020-11-11T19:30:15Z</time>
      </trkpt>
      <trkpt lat="28.2109950" lon="-16.6535920">
        <ele>1949.9</ele>
        <time>2020-11-11T19:30:16Z</time>
      </trkpt>
      <trkpt lat="28.2109950" lon="-16.6535920">
        <ele>1949.9</ele>
        <time>2020-11-11T19:30:17Z</time>
      </trkpt>
      <trkpt lat="28.2109920" lon="-16.6536470">
        <ele>1949.9</ele>
        <time>2020-11-11T19:30:18Z</time>
      </trkpt>
      <trkpt lat="28.2109920" lon="-16.6536470">
        <ele>1950.9</ele>
        <time>2020-11-11T19:30:19Z</time>
      </trkpt>
      <trkpt lat="28.2109900" lon="-16.6537020">
        <ele>1950.9</ele>
        <time>2020-11-11T19:30:20Z</time>
      </trkpt>
      <trkpt lat="28.2109950" lon="-16.6537280">
        <ele>1950.9</ele>
        <time>2020-11-11T19:30:21Z</time>
      </trkpt>
      <trkpt lat="28.2109950" lon="-16.6537280">
        <ele>1950.9</ele>
        <time>2020-11-11T19:30:22Z</time>
      </trkpt>
      <trkpt lat="28.2110070" lon="-16.6537800">
        <ele>1950.9</ele>
        <time>2020-11-11T19:30:23Z</time>
      </trkpt>
      <trkpt lat="28.2110080" lon="-16.6538050">
        <ele>1950.9</ele>
        <time>2020-11-11T19:30:24Z</time>
      </trkpt>
      <trkpt lat="28.2110080" lon="-16.6538050">
        <ele>1950.9</ele>
        <time>2020-11-11T19:30:25Z</time>
      </trkpt>
      <trkpt lat="28.2110080" lon="-16.6538570">
        <ele>1950.9</ele>
        <time>2020-11-11T19:30:26Z</time>
      </trkpt>
      <trkpt lat="28.2110080" lon="-16.6538570">
        <ele>1951.9</ele>
        <time>2020-11-11T19:30:27Z</time>
      </trkpt>
      <trkpt lat="28.2110130" lon="-16.6539080">
        <ele>1952.9</ele>
        <time>2020-11-11T19:30:28Z</time>
      </trkpt>
      <trkpt lat="28.2110130" lon="-16.6539080">
        <ele>1952.9</ele>
        <time>2020-11-11T19:30:29Z</time>
      </trkpt>
      <trkpt lat="28.2110130" lon="-16.6539580">
        <ele>1952.9</ele>
        <time>2020-11-11T19:30:30Z</time>
      </trkpt>
      <trkpt lat="28.2110130" lon="-16.6539580">
        <ele>1952.9</ele>
        <time>2020-11-11T19:30:31Z</time>
      </trkpt>
      <trkpt lat="28.2110050" lon="-16.6540080">
        <ele>1952.9</ele>
        <time>2020-11-11T19:30:32Z</time>
      </trkpt>
      <trkpt lat="28.2110050" lon="-16.6540350">
        <ele>1952.9</ele>
        <time>2020-11-11T19:30:33Z</time>
      </trkpt>
      <trkpt lat="28.2110050" lon="-16.6540350">
        <ele>1952.9</ele>
        <time>2020-11-11T19:30:34Z</time>
      </trkpt>
      <trkpt lat="28.2110050" lon="-16.6540880">
        <ele>1952.9</ele>
        <time>2020-11-11T19:30:35Z</time>
      </trkpt>
      <trkpt lat="28.2110020" lon="-16.6541130">
        <ele>1952.9</ele>
        <time>2020-11-11T19:30:36Z</time>
      </trkpt>
      <trkpt lat="28.2109980" lon="-16.6541400">
        <ele>1952.9</ele>
        <time>2020-11-11T19:30:37Z</time>
      </trkpt>
      <trkpt lat="28.2109980" lon="-16.6541400">
        <ele>1952.9</ele>
        <time>2020-11-11T19:30:38Z</time>
      </trkpt>
      <trkpt lat="28.2109950" lon="-16.6541950">
        <ele>1952.9</ele>
        <time>2020-11-11T19:30:39Z</time>
      </trkpt>
      <trkpt lat="28.2109950" lon="-16.6542220">
        <ele>1952.9</ele>
        <time>2020-11-11T19:30:40Z</time>
      </trkpt>
      <trkpt lat="28.2109950" lon="-16.6542220">
        <ele>1952.9</ele>
        <time>2020-11-11T19:30:41Z</time>
      </trkpt>
      <trkpt lat="28.2109950" lon="-16.6542750">
        <ele>1952.9</ele>
        <time>2020-11-11T19:30:42Z</time>
      </trkpt>
      <trkpt lat="28.2109950" lon="-16.6542750">
        <ele>1952.9</ele>
        <time>2020-11-11T19:30:43Z</time>
      </trkpt>
      <trkpt lat="28.2109920" lon="-16.6543280">
        <ele>1953.9</ele>
        <time>2020-11-11T19:30:44Z</time>
      </trkpt>
      <trkpt lat="28.2109920" lon="-16.6543280">
        <ele>1953.9</ele>
        <time>2020-11-11T19:30:45Z</time>
      </trkpt>
      <trkpt lat="28.2109920" lon="-16.6543820">
        <ele>1953.9</ele>
        <time>2020-11-11T19:30:46Z</time>
      </trkpt>
      <trkpt lat="28.2109920" lon="-16.6543820">
        <ele>1953.9</ele>
        <time>2020-11-11T19:30:47Z</time>
      </trkpt>
      <trkpt lat="28.2109880" lon="-16.6544350">
        <ele>1953.9</ele>
        <time>2020-11-11T19:30:48Z</time>
      </trkpt>
      <trkpt lat="28.2109880" lon="-16.6544350">
        <ele>1953.9</ele>
        <time>2020-11-11T19:30:49Z</time>
      </trkpt>
      <trkpt lat="28.2109880" lon="-16.6544880">
        <ele>1953.9</ele>
        <time>2020-11-11T19:30:50Z</time>
      </trkpt>
      <trkpt lat="28.2109880" lon="-16.6544880">
        <ele>1953.9</ele>
        <time>2020-11-11T19:30:51Z</time>
      </trkpt>
      <trkpt lat="28.2109800" lon="-16.6545380">
        <ele>1953.9</ele>
        <time>2020-11-11T19:30:52Z</time>
      </trkpt>
      <trkpt lat="28.2109770" lon="-16.6545650">
        <ele>1953.9</ele>
        <time>2020-11-11T19:30:53Z</time>
      </trkpt>
      <trkpt lat="28.2109770" lon="-16.6545650">
        <ele>1953.9</ele>
        <time>2020-11-11T19:30:54Z</time>
      </trkpt>
      <trkpt lat="28.2109670" lon="-16.6546170">
        <ele>1953.9</ele>
        <time>2020-11-11T19:30:55Z</time>
      </trkpt>
      <trkpt lat="28.2109670" lon="-16.6546170">
        <ele>1953.9</ele>
        <time>2020-11-11T19:30:56Z</time>
      </trkpt>
      <trkpt lat="28.2109550" lon="-16.6546700">
        <ele>1953.9</ele>
        <time>2020-11-11T19:30:57Z</time>
      </trkpt>
      <trkpt lat="28.2109520" lon="-16.6546970">
        <ele>1953.9</ele>
        <time>2020-11-11T19:30:58Z</time>
      </trkpt>
      <trkpt lat="28.2109520" lon="-16.6546970">
        <ele>1953.9</ele>
        <time>2020-11-11T19:30:59Z</time>
      </trkpt>
      <trkpt lat="28.2109430" lon="-16.6547450">
        <ele>1953.9</ele>
        <time>2020-11-11T19:31:00Z</time>
      </trkpt>
      <trkpt lat="28.2109420" lon="-16.6547700">
        <ele>1953.9</ele>
        <time>2020-11-11T19:31:01Z</time>
      </trkpt>
      <trkpt lat="28.2109420" lon="-16.6547700">
        <ele>1953.9</ele>
        <time>2020-11-11T19:31:02Z</time>
      </trkpt>
      <trkpt lat="28.2109330" lon="-16.6548180">
        <ele>1953.9</ele>
        <time>2020-11-11T19:31:03Z</time>
      </trkpt>
      <trkpt lat="28.2109300" lon="-16.6548430">
        <ele>1954.9</ele>
        <time>2020-11-11T19:31:04Z</time>
      </trkpt>
      <trkpt lat="28.2109300" lon="-16.6548430">
        <ele>1954.9</ele>
        <time>2020-11-11T19:31:05Z</time>
      </trkpt>
      <trkpt lat="28.2109250" lon="-16.6548920">
        <ele>1954.9</ele>
        <time>2020-11-11T19:31:06Z</time>
      </trkpt>
      <trkpt lat="28.2109230" lon="-16.6549150">
        <ele>1954.9</ele>
        <time>2020-11-11T19:31:07Z</time>
      </trkpt>
      <trkpt lat="28.2109230" lon="-16.6549150">
        <ele>1954.9</ele>
        <time>2020-11-11T19:31:08Z</time>
      </trkpt>
      <trkpt lat="28.2109280" lon="-16.6549600">
        <ele>1954.9</ele>
        <time>2020-11-11T19:31:09Z</time>
      </trkpt>
      <trkpt lat="28.2109280" lon="-16.6549600">
        <ele>1954.9</ele>
        <time>2020-11-11T19:31:10Z</time>
      </trkpt>
      <trkpt lat="28.2109220" lon="-16.6550070">
        <ele>1954.9</ele>
        <time>2020-11-11T19:31:11Z</time>
      </trkpt>
      <trkpt lat="28.2109180" lon="-16.6550300">
        <ele>1954.9</ele>
        <time>2020-11-11T19:31:12Z</time>
      </trkpt>
      <trkpt lat="28.2109170" lon="-16.6550550">
        <ele>1954.9</ele>
        <time>2020-11-11T19:31:13Z</time>
      </trkpt>
      <trkpt lat="28.2109170" lon="-16.6550550">
        <ele>1954.9</ele>
        <time>2020-11-11T19:31:14Z</time>
      </trkpt>
      <trkpt lat="28.2109120" lon="-16.6551000">
        <ele>1955.9</ele>
        <time>2020-11-11T19:31:15Z</time>
      </trkpt>
      <trkpt lat="28.2109120" lon="-16.6551000">
        <ele>1955.9</ele>
        <time>2020-11-11T19:31:16Z</time>
      </trkpt>
      <trkpt lat="28.2109050" lon="-16.6551550">
        <ele>1955.9</ele>
        <time>2020-11-11T19:31:17Z</time>
      </trkpt>
      <trkpt lat="28.2109050" lon="-16.6551550">
        <ele>1955.9</ele>
        <time>2020-11-11T19:31:18Z</time>
      </trkpt>
      <trkpt lat="28.2108970" lon="-16.6552130">
        <ele>1955.9</ele>
        <time>2020-11-11T19:31:19Z</time>
      </trkpt>
      <trkpt lat="28.2108970" lon="-16.6552130">
        <ele>1955.9</ele>
        <time>2020-11-11T19:31:20Z</time>
      </trkpt>
      <trkpt lat="28.2108950" lon="-16.6552780">
        <ele>1955.9</ele>
        <time>2020-11-11T19:31:21Z</time>
      </trkpt>
      <trkpt lat="28.2108950" lon="-16.6552780">
        <ele>1955.9</ele>
        <time>2020-11-11T19:31:22Z</time>
      </trkpt>
      <trkpt lat="28.2108850" lon="-16.6553370">
        <ele>1955.9</ele>
        <time>2020-11-11T19:31:23Z</time>
      </trkpt>
      <trkpt lat="28.2108850" lon="-16.6553370">
        <ele>1955.9</ele>
        <time>2020-11-11T19:31:24Z</time>
      </trkpt>
      <trkpt lat="28.2108780" lon="-16.6553930">
        <ele>1956.9</ele>
        <time>2020-11-11T19:31:25Z</time>
      </trkpt>
      <trkpt lat="28.2108780" lon="-16.6553930">
        <ele>1956.9</ele>
        <time>2020-11-11T19:31:26Z</time>
      </trkpt>
      <trkpt lat="28.2108650" lon="-16.6554500">
        <ele>1956.9</ele>
        <time>2020-11-11T19:31:27Z</time>
      </trkpt>
      <trkpt lat="28.2108650" lon="-16.6554500">
        <ele>1956.9</ele>
        <time>2020-11-11T19:31:28Z</time>
      </trkpt>
      <trkpt lat="28.2108600" lon="-16.6555100">
        <ele>1956.9</ele>
        <time>2020-11-11T19:31:29Z</time>
      </trkpt>
      <trkpt lat="28.2108600" lon="-16.6555100">
        <ele>1956.9</ele>
        <time>2020-11-11T19:31:30Z</time>
      </trkpt>
      <trkpt lat="28.2108570" lon="-16.6555720">
        <ele>1956.9</ele>
        <time>2020-11-11T19:31:31Z</time>
      </trkpt>
      <trkpt lat="28.2108570" lon="-16.6555720">
        <ele>1956.9</ele>
        <time>2020-11-11T19:31:32Z</time>
      </trkpt>
      <trkpt lat="28.2108500" lon="-16.6556330">
        <ele>1956.9</ele>
        <time>2020-11-11T19:31:33Z</time>
      </trkpt>
      <trkpt lat="28.2108500" lon="-16.6556330">
        <ele>1956.9</ele>
        <time>2020-11-11T19:31:34Z</time>
      </trkpt>
      <trkpt lat="28.2108430" lon="-16.6556970">
        <ele>1956.9</ele>
        <time>2020-11-11T19:31:35Z</time>
      </trkpt>
      <trkpt lat="28.2108430" lon="-16.6556970">
        <ele>1956.9</ele>
        <time>2020-11-11T19:31:36Z</time>
      </trkpt>
      <trkpt lat="28.2108320" lon="-16.6557620">
        <ele>1957.9</ele>
        <time>2020-11-11T19:31:37Z</time>
      </trkpt>
      <trkpt lat="28.2108320" lon="-16.6557620">
        <ele>1957.9</ele>
        <time>2020-11-11T19:31:38Z</time>
      </trkpt>
      <trkpt lat="28.2108100" lon="-16.6558250">
        <ele>1957.9</ele>
        <time>2020-11-11T19:31:39Z</time>
      </trkpt>
      <trkpt lat="28.2108100" lon="-16.6558250">
        <ele>1957.9</ele>
        <time>2020-11-11T19:31:40Z</time>
      </trkpt>
      <trkpt lat="28.2108000" lon="-16.6558870">
        <ele>1957.9</ele>
        <time>2020-11-11T19:31:41Z</time>
      </trkpt>
      <trkpt lat="28.2108000" lon="-16.6558870">
        <ele>1957.9</ele>
        <time>2020-11-11T19:31:42Z</time>
      </trkpt>
      <trkpt lat="28.2108130" lon="-16.6559470">
        <ele>1957.9</ele>
        <time>2020-11-11T19:31:43Z</time>
      </trkpt>
      <trkpt lat="28.2108130" lon="-16.6559470">
        <ele>1957.9</ele>
        <time>2020-11-11T19:31:44Z</time>
      </trkpt>
      <trkpt lat="28.2108080" lon="-16.6560120">
        <ele>1957.9</ele>
        <time>2020-11-11T19:31:45Z</time>
      </trkpt>
      <trkpt lat="28.2108080" lon="-16.6560120">
        <ele>1957.9</ele>
        <time>2020-11-11T19:31:46Z</time>
      </trkpt>
      <trkpt lat="28.2107970" lon="-16.6560830">
        <ele>1957.9</ele>
        <time>2020-11-11T19:31:47Z</time>
      </trkpt>
      <trkpt lat="28.2107970" lon="-16.6560830">
        <ele>1957.9</ele>
        <time>2020-11-11T19:31:48Z</time>
      </trkpt>
      <trkpt lat="28.2107920" lon="-16.6561570">
        <ele>1957.9</ele>
        <time>2020-11-11T19:31:49Z</time>
      </trkpt>
      <trkpt lat="28.2107920" lon="-16.6561570">
        <ele>1957.9</ele>
        <time>2020-11-11T19:31:50Z</time>
      </trkpt>
      <trkpt lat="28.2107850" lon="-16.6562350">
        <ele>1957.9</ele>
        <time>2020-11-11T19:31:51Z</time>
      </trkpt>
      <trkpt lat="28.2107850" lon="-16.6562350">
        <ele>1957.9</ele>
        <time>2020-11-11T19:31:52Z</time>
      </trkpt>
      <trkpt lat="28.2107750" lon="-16.6563030">
        <ele>1957.9</ele>
        <time>2020-11-11T19:31:53Z</time>
      </trkpt>
      <trkpt lat="28.2107750" lon="-16.6563030">
        <ele>1957.9</ele>
        <time>2020-11-11T19:31:54Z</time>
      </trkpt>
      <trkpt lat="28.2107730" lon="-16.6563650">
        <ele>1957.9</ele>
        <time>2020-11-11T19:31:55Z</time>
      </trkpt>
      <trkpt lat="28.2107720" lon="-16.6563920">
        <ele>1957.9</ele>
        <time>2020-11-11T19:31:56Z</time>
      </trkpt>
      <trkpt lat="28.2107720" lon="-16.6563920">
        <ele>1957.9</ele>
        <time>2020-11-11T19:31:57Z</time>
      </trkpt>
      <trkpt lat="28.2107670" lon="-16.6564500">
        <ele>1957.9</ele>
        <time>2020-11-11T19:31:58Z</time>
      </trkpt>
      <trkpt lat="28.2107670" lon="-16.6564870">
        <ele>1958.9</ele>
        <time>2020-11-11T19:31:59Z</time>
      </trkpt>
      <trkpt lat="28.2107670" lon="-16.6564870">
        <ele>1958.9</ele>
        <time>2020-11-11T19:32:00Z</time>
      </trkpt>
      <trkpt lat="28.2107680" lon="-16.6565620">
        <ele>1958.9</ele>
        <time>2020-11-11T19:32:01Z</time>
      </trkpt>
      <trkpt lat="28.2107680" lon="-16.6565620">
        <ele>1958.9</ele>
        <time>2020-11-11T19:32:02Z</time>
      </trkpt>
      <trkpt lat="28.2107700" lon="-16.6566330">
        <ele>1958.9</ele>
        <time>2020-11-11T19:32:03Z</time>
      </trkpt>
      <trkpt lat="28.2107730" lon="-16.6566680">
        <ele>1958.9</ele>
        <time>2020-11-11T19:32:04Z</time>
      </trkpt>
      <trkpt lat="28.2107730" lon="-16.6566680">
        <ele>1958.9</ele>
        <time>2020-11-11T19:32:05Z</time>
      </trkpt>
      <trkpt lat="28.2107880" lon="-16.6567430">
        <ele>1958.9</ele>
        <time>2020-11-11T19:32:06Z</time>
      </trkpt>
      <trkpt lat="28.2107950" lon="-16.6567820">
        <ele>1958.9</ele>
        <time>2020-11-11T19:32:07Z</time>
      </trkpt>
      <trkpt lat="28.2107950" lon="-16.6567820">
        <ele>1958.9</ele>
        <time>2020-11-11T19:32:08Z</time>
      </trkpt>
      <trkpt lat="28.2108130" lon="-16.6568620">
        <ele>1958.9</ele>
        <time>2020-11-11T19:32:09Z</time>
      </trkpt>
      <trkpt lat="28.2108130" lon="-16.6568620">
        <ele>1958.9</ele>
        <time>2020-11-11T19:32:10Z</time>
      </trkpt>
      <trkpt lat="28.2108300" lon="-16.6569420">
        <ele>1958.9</ele>
        <time>2020-11-11T19:32:11Z</time>
      </trkpt>
      <trkpt lat="28.2108300" lon="-16.6569420">
        <ele>1958.9</ele>
        <time>2020-11-11T19:32:12Z</time>
      </trkpt>
      <trkpt lat="28.2108520" lon="-16.6570220">
        <ele>1958.9</ele>
        <time>2020-11-11T19:32:13Z</time>
      </trkpt>
      <trkpt lat="28.2108520" lon="-16.6570220">
        <ele>1958.9</ele>
        <time>2020-11-11T19:32:14Z</time>
      </trkpt>
      <trkpt lat="28.2108770" lon="-16.6570980">
        <ele>1958.9</ele>
        <time>2020-11-11T19:32:15Z</time>
      </trkpt>
      <trkpt lat="28.2108770" lon="-16.6570980">
        <ele>1958.9</ele>
        <time>2020-11-11T19:32:16Z</time>
      </trkpt>
      <trkpt lat="28.2109020" lon="-16.6571720">
        <ele>1958.9</ele>
        <time>2020-11-11T19:32:17Z</time>
      </trkpt>
      <trkpt lat="28.2109170" lon="-16.6572070">
        <ele>1958.9</ele>
        <time>2020-11-11T19:32:18Z</time>
      </trkpt>
      <trkpt lat="28.2109330" lon="-16.6572420">
        <ele>1958.9</ele>
        <time>2020-11-11T19:32:19Z</time>
      </trkpt>
      <trkpt lat="28.2109330" lon="-16.6572420">
        <ele>1958.9</ele>
        <time>2020-11-11T19:32:20Z</time>
      </trkpt>
      <trkpt lat="28.2109670" lon="-16.6573130">
        <ele>1959.9</ele>
        <time>2020-11-11T19:32:21Z</time>
      </trkpt>
      <trkpt lat="28.2109670" lon="-16.6573130">
        <ele>1959.9</ele>
        <time>2020-11-11T19:32:22Z</time>
      </trkpt>
      <trkpt lat="28.2110020" lon="-16.6573850">
        <ele>1959.9</ele>
        <time>2020-11-11T19:32:23Z</time>
      </trkpt>
      <trkpt lat="28.2110020" lon="-16.6573850">
        <ele>1959.9</ele>
        <time>2020-11-11T19:32:24Z</time>
      </trkpt>
      <trkpt lat="28.2110370" lon="-16.6574550">
        <ele>1959.9</ele>
        <time>2020-11-11T19:32:25Z</time>
      </trkpt>
      <trkpt lat="28.2110370" lon="-16.6574550">
        <ele>1959.9</ele>
        <time>2020-11-11T19:32:26Z</time>
      </trkpt>
      <trkpt lat="28.2110730" lon="-16.6575250">
        <ele>1959.9</ele>
        <time>2020-11-11T19:32:27Z</time>
      </trkpt>
      <trkpt lat="28.2110730" lon="-16.6575250">
        <ele>1959.9</ele>
        <time>2020-11-11T19:32:28Z</time>
      </trkpt>
      <trkpt lat="28.2111120" lon="-16.6575950">
        <ele>1959.9</ele>
        <time>2020-11-11T19:32:29Z</time>
      </trkpt>
      <trkpt lat="28.2111120" lon="-16.6575950">
        <ele>1959.9</ele>
        <time>2020-11-11T19:32:30Z</time>
      </trkpt>
      <trkpt lat="28.2111500" lon="-16.6576620">
        <ele>1959.9</ele>
        <time>2020-11-11T19:32:31Z</time>
      </trkpt>
      <trkpt lat="28.2111500" lon="-16.6576620">
        <ele>1959.9</ele>
        <time>2020-11-11T19:32:32Z</time>
      </trkpt>
      <trkpt lat="28.2111900" lon="-16.6577280">
        <ele>1959.9</ele>
        <time>2020-11-11T19:32:33Z</time>
      </trkpt>
      <trkpt lat="28.2112100" lon="-16.6577620">
        <ele>1959.9</ele>
        <time>2020-11-11T19:32:34Z</time>
      </trkpt>
      <trkpt lat="28.2112100" lon="-16.6577620">
        <ele>1959.9</ele>
        <time>2020-11-11T19:32:35Z</time>
      </trkpt>
      <trkpt lat="28.2112480" lon="-16.6578320">
        <ele>1959.9</ele>
        <time>2020-11-11T19:32:36Z</time>
      </trkpt>
      <trkpt lat="28.2112480" lon="-16.6578320">
        <ele>1959.9</ele>
        <time>2020-11-11T19:32:37Z</time>
      </trkpt>
      <trkpt lat="28.2112850" lon="-16.6579020">
        <ele>1959.9</ele>
        <time>2020-11-11T19:32:38Z</time>
      </trkpt>
      <trkpt lat="28.2113020" lon="-16.6579370">
        <ele>1959.9</ele>
        <time>2020-11-11T19:32:39Z</time>
      </trkpt>
      <trkpt lat="28.2113020" lon="-16.6579370">
        <ele>1959.9</ele>
        <time>2020-11-11T19:32:40Z</time>
      </trkpt>
      <trkpt lat="28.2113400" lon="-16.6580020">
        <ele>1959.9</ele>
        <time>2020-11-11T19:32:41Z</time>
      </trkpt>
      <trkpt lat="28.2113400" lon="-16.6580020">
        <ele>1959.9</ele>
        <time>2020-11-11T19:32:42Z</time>
      </trkpt>
      <trkpt lat="28.2113820" lon="-16.6580670">
        <ele>1959.9</ele>
        <time>2020-11-11T19:32:43Z</time>
      </trkpt>
      <trkpt lat="28.2113820" lon="-16.6580670">
        <ele>1959.9</ele>
        <time>2020-11-11T19:32:44Z</time>
      </trkpt>
      <trkpt lat="28.2114200" lon="-16.6581350">
        <ele>1959.9</ele>
        <time>2020-11-11T19:32:45Z</time>
      </trkpt>
      <trkpt lat="28.2114200" lon="-16.6581350">
        <ele>1959.9</ele>
        <time>2020-11-11T19:32:46Z</time>
      </trkpt>
      <trkpt lat="28.2114580" lon="-16.6582080">
        <ele>1959.9</ele>
        <time>2020-11-11T19:32:47Z</time>
      </trkpt>
      <trkpt lat="28.2114780" lon="-16.6582430">
        <ele>1959.9</ele>
        <time>2020-11-11T19:32:48Z</time>
      </trkpt>
      <trkpt lat="28.2114780" lon="-16.6582430">
        <ele>1959.9</ele>
        <time>2020-11-11T19:32:49Z</time>
      </trkpt>
      <trkpt lat="28.2115220" lon="-16.6583130">
        <ele>1960.9</ele>
        <time>2020-11-11T19:32:50Z</time>
      </trkpt>
      <trkpt lat="28.2115220" lon="-16.6583130">
        <ele>1960.9</ele>
        <time>2020-11-11T19:32:51Z</time>
      </trkpt>
      <trkpt lat="28.2115620" lon="-16.6583900">
        <ele>1960.9</ele>
        <time>2020-11-11T19:32:52Z</time>
      </trkpt>
      <trkpt lat="28.2115620" lon="-16.6583900">
        <ele>1960.9</ele>
        <time>2020-11-11T19:32:53Z</time>
      </trkpt>
      <trkpt lat="28.2115980" lon="-16.6584670">
        <ele>1960.9</ele>
        <time>2020-11-11T19:32:54Z</time>
      </trkpt>
      <trkpt lat="28.2116200" lon="-16.6585030">
        <ele>1960.9</ele>
        <time>2020-11-11T19:32:55Z</time>
      </trkpt>
      <trkpt lat="28.2116200" lon="-16.6585030">
        <ele>1960.9</ele>
        <time>2020-11-11T19:32:56Z</time>
      </trkpt>
      <trkpt lat="28.2116670" lon="-16.6585800">
        <ele>1960.9</ele>
        <time>2020-11-11T19:32:57Z</time>
      </trkpt>
      <trkpt lat="28.2116670" lon="-16.6585800">
        <ele>1960.9</ele>
        <time>2020-11-11T19:32:58Z</time>
      </trkpt>
      <trkpt lat="28.2117080" lon="-16.6586600">
        <ele>1960.9</ele>
        <time>2020-11-11T19:32:59Z</time>
      </trkpt>
      <trkpt lat="28.2117080" lon="-16.6586600">
        <ele>1960.9</ele>
        <time>2020-11-11T19:33:00Z</time>
      </trkpt>
      <trkpt lat="28.2117520" lon="-16.6587430">
        <ele>1960.9</ele>
        <time>2020-11-11T19:33:01Z</time>
      </trkpt>
      <trkpt lat="28.2117520" lon="-16.6587430">
        <ele>1960.9</ele>
        <time>2020-11-11T19:33:02Z</time>
      </trkpt>
      <trkpt lat="28.2117980" lon="-16.6588270">
        <ele>1960.9</ele>
        <time>2020-11-11T19:33:03Z</time>
      </trkpt>
      <trkpt lat="28.2118220" lon="-16.6588680">
        <ele>1960.9</ele>
        <time>2020-11-11T19:33:04Z</time>
      </trkpt>
      <trkpt lat="28.2118220" lon="-16.6588680">
        <ele>1960.9</ele>
        <time>2020-11-11T19:33:05Z</time>
      </trkpt>
      <trkpt lat="28.2118700" lon="-16.6589520">
        <ele>1960.9</ele>
        <time>2020-11-11T19:33:06Z</time>
      </trkpt>
      <trkpt lat="28.2118700" lon="-16.6589520">
        <ele>1960.9</ele>
        <time>2020-11-11T19:33:07Z</time>
      </trkpt>
      <trkpt lat="28.2119180" lon="-16.6590370">
        <ele>1960.9</ele>
        <time>2020-11-11T19:33:08Z</time>
      </trkpt>
      <trkpt lat="28.2119180" lon="-16.6590370">
        <ele>1960.9</ele>
        <time>2020-11-11T19:33:09Z</time>
      </trkpt>
      <trkpt lat="28.2119670" lon="-16.6591200">
        <ele>1960.9</ele>
        <time>2020-11-11T19:33:10Z</time>
      </trkpt>
      <trkpt lat="28.2119670" lon="-16.6591200">
        <ele>1960.9</ele>
        <time>2020-11-11T19:33:11Z</time>
      </trkpt>
      <trkpt lat="28.2120130" lon="-16.6592070">
        <ele>1960.9</ele>
        <time>2020-11-11T19:33:12Z</time>
      </trkpt>
      <trkpt lat="28.2120380" lon="-16.6592480">
        <ele>1960.9</ele>
        <time>2020-11-11T19:33:13Z</time>
      </trkpt>
      <trkpt lat="28.2120380" lon="-16.6592480">
        <ele>1960.9</ele>
        <time>2020-11-11T19:33:14Z</time>
      </trkpt>
      <trkpt lat="28.2120870" lon="-16.6593330">
        <ele>1960.9</ele>
        <time>2020-11-11T19:33:15Z</time>
      </trkpt>
      <trkpt lat="28.2121120" lon="-16.6593750">
        <ele>1960.9</ele>
        <time>2020-11-11T19:33:16Z</time>
      </trkpt>
      <trkpt lat="28.2121370" lon="-16.6594150">
        <ele>1960.9</ele>
        <time>2020-11-11T19:33:17Z</time>
      </trkpt>
      <trkpt lat="28.2121370" lon="-16.6594150">
        <ele>1960.9</ele>
        <time>2020-11-11T19:33:18Z</time>
      </trkpt>
      <trkpt lat="28.2121830" lon="-16.6595020">
        <ele>1960.9</ele>
        <time>2020-11-11T19:33:19Z</time>
      </trkpt>
      <trkpt lat="28.2121830" lon="-16.6595020">
        <ele>1960.9</ele>
        <time>2020-11-11T19:33:20Z</time>
      </trkpt>
      <trkpt lat="28.2122300" lon="-16.6595850">
        <ele>1960.9</ele>
        <time>2020-11-11T19:33:21Z</time>
      </trkpt>
      <trkpt lat="28.2122300" lon="-16.6595850">
        <ele>1960.9</ele>
        <time>2020-11-11T19:33:22Z</time>
      </trkpt>
      <trkpt lat="28.2122770" lon="-16.6596680">
        <ele>1960.9</ele>
        <time>2020-11-11T19:33:23Z</time>
      </trkpt>
      <trkpt lat="28.2122770" lon="-16.6596680">
        <ele>1960.9</ele>
        <time>2020-11-11T19:33:24Z</time>
      </trkpt>
      <trkpt lat="28.2123200" lon="-16.6597530">
        <ele>1960.9</ele>
        <time>2020-11-11T19:33:25Z</time>
      </trkpt>
      <trkpt lat="28.2123200" lon="-16.6597530">
        <ele>1960.9</ele>
        <time>2020-11-11T19:33:26Z</time>
      </trkpt>
      <trkpt lat="28.2123630" lon="-16.6598370">
        <ele>1960.9</ele>
        <time>2020-11-11T19:33:27Z</time>
      </trkpt>
      <trkpt lat="28.2123630" lon="-16.6598370">
        <ele>1960.9</ele>
        <time>2020-11-11T19:33:28Z</time>
      </trkpt>
      <trkpt lat="28.2124100" lon="-16.6599170">
        <ele>1960.9</ele>
        <time>2020-11-11T19:33:29Z</time>
      </trkpt>
      <trkpt lat="28.2124100" lon="-16.6599170">
        <ele>1960.9</ele>
        <time>2020-11-11T19:33:30Z</time>
      </trkpt>
      <trkpt lat="28.2124570" lon="-16.6599930">
        <ele>1960.9</ele>
        <time>2020-11-11T19:33:31Z</time>
      </trkpt>
      <trkpt lat="28.2124570" lon="-16.6599930">
        <ele>1960.9</ele>
        <time>2020-11-11T19:33:32Z</time>
      </trkpt>
      <trkpt lat="28.2124970" lon="-16.6600730">
        <ele>1960.9</ele>
        <time>2020-11-11T19:33:33Z</time>
      </trkpt>
      <trkpt lat="28.2124970" lon="-16.6600730">
        <ele>1960.9</ele>
        <time>2020-11-11T19:33:34Z</time>
      </trkpt>
      <trkpt lat="28.2125330" lon="-16.6601530">
        <ele>1960.9</ele>
        <time>2020-11-11T19:33:35Z</time>
      </trkpt>
      <trkpt lat="28.2125530" lon="-16.6601920">
        <ele>1962.9</ele>
        <time>2020-11-11T19:33:36Z</time>
      </trkpt>
      <trkpt lat="28.2125530" lon="-16.6601920">
        <ele>1962.9</ele>
        <time>2020-11-11T19:33:37Z</time>
      </trkpt>
      <trkpt lat="28.2125980" lon="-16.6602680">
        <ele>1962.9</ele>
        <time>2020-11-11T19:33:38Z</time>
      </trkpt>
      <trkpt lat="28.2125980" lon="-16.6602680">
        <ele>1962.9</ele>
        <time>2020-11-11T19:33:39Z</time>
      </trkpt>
      <trkpt lat="28.2126480" lon="-16.6603470">
        <ele>1962.9</ele>
        <time>2020-11-11T19:33:40Z</time>
      </trkpt>
      <trkpt lat="28.2126480" lon="-16.6603470">
        <ele>1962.9</ele>
        <time>2020-11-11T19:33:41Z</time>
      </trkpt>
      <trkpt lat="28.2126930" lon="-16.6604270">
        <ele>1962.9</ele>
        <time>2020-11-11T19:33:42Z</time>
      </trkpt>
      <trkpt lat="28.2126930" lon="-16.6604270">
        <ele>1962.9</ele>
        <time>2020-11-11T19:33:43Z</time>
      </trkpt>
      <trkpt lat="28.2127370" lon="-16.6605070">
        <ele>1962.9</ele>
        <time>2020-11-11T19:33:44Z</time>
      </trkpt>
      <trkpt lat="28.2127370" lon="-16.6605070">
        <ele>1962.9</ele>
        <time>2020-11-11T19:33:45Z</time>
      </trkpt>
      <trkpt lat="28.2127820" lon="-16.6605900">
        <ele>1962.9</ele>
        <time>2020-11-11T19:33:46Z</time>
      </trkpt>
      <trkpt lat="28.2127820" lon="-16.6605900">
        <ele>1962.9</ele>
        <time>2020-11-11T19:33:47Z</time>
      </trkpt>
      <trkpt lat="28.2128270" lon="-16.6606700">
        <ele>1962.9</ele>
        <time>2020-11-11T19:33:48Z</time>
      </trkpt>
      <trkpt lat="28.2128480" lon="-16.6607100">
        <ele>1962.9</ele>
        <time>2020-11-11T19:33:49Z</time>
      </trkpt>
      <trkpt lat="28.2128480" lon="-16.6607100">
        <ele>1962.9</ele>
        <time>2020-11-11T19:33:50Z</time>
      </trkpt>
      <trkpt lat="28.2128870" lon="-16.6607970">
        <ele>1962.9</ele>
        <time>2020-11-11T19:33:51Z</time>
      </trkpt>
      <trkpt lat="28.2128870" lon="-16.6607970">
        <ele>1962.9</ele>
        <time>2020-11-11T19:33:52Z</time>
      </trkpt>
      <trkpt lat="28.2129250" lon="-16.6608850">
        <ele>1962.9</ele>
        <time>2020-11-11T19:33:53Z</time>
      </trkpt>
      <trkpt lat="28.2129250" lon="-16.6608850">
        <ele>1962.9</ele>
        <time>2020-11-11T19:33:54Z</time>
      </trkpt>
      <trkpt lat="28.2129600" lon="-16.6609800">
        <ele>1960.9</ele>
        <time>2020-11-11T19:33:55Z</time>
      </trkpt>
      <trkpt lat="28.2129600" lon="-16.6609800">
        <ele>1960.9</ele>
        <time>2020-11-11T19:33:56Z</time>
      </trkpt>
      <trkpt lat="28.2129970" lon="-16.6610800">
        <ele>1960.9</ele>
        <time>2020-11-11T19:33:57Z</time>
      </trkpt>
      <trkpt lat="28.2129970" lon="-16.6610800">
        <ele>1960.9</ele>
        <time>2020-11-11T19:33:58Z</time>
      </trkpt>
      <trkpt lat="28.2130330" lon="-16.6611800">
        <ele>1960.9</ele>
        <time>2020-11-11T19:33:59Z</time>
      </trkpt>
      <trkpt lat="28.2130330" lon="-16.6611800">
        <ele>1960.9</ele>
        <time>2020-11-11T19:34:00Z</time>
      </trkpt>
      <trkpt lat="28.2130700" lon="-16.6612870">
        <ele>1960.9</ele>
        <time>2020-11-11T19:34:01Z</time>
      </trkpt>
      <trkpt lat="28.2130700" lon="-16.6612870">
        <ele>1960.9</ele>
        <time>2020-11-11T19:34:02Z</time>
      </trkpt>
      <trkpt lat="28.2131080" lon="-16.6613930">
        <ele>1960.9</ele>
        <time>2020-11-11T19:34:03Z</time>
      </trkpt>
      <trkpt lat="28.2131080" lon="-16.6613930">
        <ele>1960.9</ele>
        <time>2020-11-11T19:34:04Z</time>
      </trkpt>
      <trkpt lat="28.2131480" lon="-16.6615100">
        <ele>1960.9</ele>
        <time>2020-11-11T19:34:05Z</time>
      </trkpt>
      <trkpt lat="28.2131480" lon="-16.6615100">
        <ele>1960.9</ele>
        <time>2020-11-11T19:34:06Z</time>
      </trkpt>
      <trkpt lat="28.2131870" lon="-16.6616230">
        <ele>1960.9</ele>
        <time>2020-11-11T19:34:07Z</time>
      </trkpt>
      <trkpt lat="28.2131870" lon="-16.6616230">
        <ele>1960.9</ele>
        <time>2020-11-11T19:34:08Z</time>
      </trkpt>
      <trkpt lat="28.2132230" lon="-16.6617300">
        <ele>1960.9</ele>
        <time>2020-11-11T19:34:09Z</time>
      </trkpt>
      <trkpt lat="28.2132230" lon="-16.6617300">
        <ele>1960.9</ele>
        <time>2020-11-11T19:34:10Z</time>
      </trkpt>
      <trkpt lat="28.2132600" lon="-16.6618480">
        <ele>1960.9</ele>
        <time>2020-11-11T19:34:11Z</time>
      </trkpt>
      <trkpt lat="28.2132600" lon="-16.6618480">
        <ele>1960.9</ele>
        <time>2020-11-11T19:34:12Z</time>
      </trkpt>
      <trkpt lat="28.2133070" lon="-16.6619780">
        <ele>1960.9</ele>
        <time>2020-11-11T19:34:13Z</time>
      </trkpt>
      <trkpt lat="28.2133070" lon="-16.6619780">
        <ele>1960.9</ele>
        <time>2020-11-11T19:34:14Z</time>
      </trkpt>
      <trkpt lat="28.2133570" lon="-16.6621230">
        <ele>1960.9</ele>
        <time>2020-11-11T19:34:15Z</time>
      </trkpt>
      <trkpt lat="28.2133570" lon="-16.6621230">
        <ele>1960.9</ele>
        <time>2020-11-11T19:34:16Z</time>
      </trkpt>
      <trkpt lat="28.2134130" lon="-16.6622830">
        <ele>1960.9</ele>
        <time>2020-11-11T19:34:17Z</time>
      </trkpt>
      <trkpt lat="28.2134130" lon="-16.6622830">
        <ele>1960.9</ele>
        <time>2020-11-11T19:34:18Z</time>
      </trkpt>
      <trkpt lat="28.2134730" lon="-16.6624500">
        <ele>1959.9</ele>
        <time>2020-11-11T19:34:19Z</time>
      </trkpt>
      <trkpt lat="28.2134730" lon="-16.6624500">
        <ele>1959.9</ele>
        <time>2020-11-11T19:34:20Z</time>
      </trkpt>
      <trkpt lat="28.2135380" lon="-16.6626170">
        <ele>1959.9</ele>
        <time>2020-11-11T19:34:21Z</time>
      </trkpt>
      <trkpt lat="28.2135380" lon="-16.6626170">
        <ele>1959.9</ele>
        <time>2020-11-11T19:34:22Z</time>
      </trkpt>
      <trkpt lat="28.2136000" lon="-16.6627920">
        <ele>1958.9</ele>
        <time>2020-11-11T19:34:23Z</time>
      </trkpt>
      <trkpt lat="28.2136000" lon="-16.6627920">
        <ele>1958.9</ele>
        <time>2020-11-11T19:34:24Z</time>
      </trkpt>
      <trkpt lat="28.2136570" lon="-16.6629750">
        <ele>1958.9</ele>
        <time>2020-11-11T19:34:25Z</time>
      </trkpt>
      <trkpt lat="28.2136570" lon="-16.6629750">
        <ele>1958.9</ele>
        <time>2020-11-11T19:34:26Z</time>
      </trkpt>
      <trkpt lat="28.2137250" lon="-16.6631630">
        <ele>1957.9</ele>
        <time>2020-11-11T19:34:27Z</time>
      </trkpt>
      <trkpt lat="28.2137250" lon="-16.6631630">
        <ele>1957.9</ele>
        <time>2020-11-11T19:34:28Z</time>
      </trkpt>
      <trkpt lat="28.2137970" lon="-16.6633570">
        <ele>1956.9</ele>
        <time>2020-11-11T19:34:29Z</time>
      </trkpt>
      <trkpt lat="28.2138330" lon="-16.6634550">
        <ele>1956.9</ele>
        <time>2020-11-11T19:34:30Z</time>
      </trkpt>
      <trkpt lat="28.2138330" lon="-16.6634550">
        <ele>1955.9</ele>
        <time>2020-11-11T19:34:31Z</time>
      </trkpt>
      <trkpt lat="28.2139020" lon="-16.6636550">
        <ele>1955.9</ele>
        <time>2020-11-11T19:34:32Z</time>
      </trkpt>
      <trkpt lat="28.2139370" lon="-16.6637570">
        <ele>1955.9</ele>
        <time>2020-11-11T19:34:33Z</time>
      </trkpt>
      <trkpt lat="28.2139370" lon="-16.6637570">
        <ele>1955.9</ele>
        <time>2020-11-11T19:34:34Z</time>
      </trkpt>
      <trkpt lat="28.2140080" lon="-16.6639620">
        <ele>1955.9</ele>
        <time>2020-11-11T19:34:35Z</time>
      </trkpt>
      <trkpt lat="28.2140080" lon="-16.6639620">
        <ele>1955.9</ele>
        <time>2020-11-11T19:34:36Z</time>
      </trkpt>
      <trkpt lat="28.2140800" lon="-16.6641650">
        <ele>1953.9</ele>
        <time>2020-11-11T19:34:37Z</time>
      </trkpt>
      <trkpt lat="28.2140800" lon="-16.6641650">
        <ele>1953.9</ele>
        <time>2020-11-11T19:34:38Z</time>
      </trkpt>
      <trkpt lat="28.2141520" lon="-16.6643680">
        <ele>1953.9</ele>
        <time>2020-11-11T19:34:39Z</time>
      </trkpt>
      <trkpt lat="28.2141520" lon="-16.6643680">
        <ele>1953.9</ele>
        <time>2020-11-11T19:34:40Z</time>
      </trkpt>
      <trkpt lat="28.2142220" lon="-16.6645720">
        <ele>1952.9</ele>
        <time>2020-11-11T19:34:41Z</time>
      </trkpt>
      <trkpt lat="28.2142570" lon="-16.6646730">
        <ele>1952.9</ele>
        <time>2020-11-11T19:34:42Z</time>
      </trkpt>
      <trkpt lat="28.2142570" lon="-16.6646730">
        <ele>1952.9</ele>
        <time>2020-11-11T19:34:43Z</time>
      </trkpt>
      <trkpt lat="28.2143250" lon="-16.6648720">
        <ele>1952.9</ele>
        <time>2020-11-11T19:34:44Z</time>
      </trkpt>
      <trkpt lat="28.2143250" lon="-16.6648720">
        <ele>1952.9</ele>
        <time>2020-11-11T19:34:45Z</time>
      </trkpt>
      <trkpt lat="28.2143920" lon="-16.6650650">
        <ele>1952.9</ele>
        <time>2020-11-11T19:34:46Z</time>
      </trkpt>
      <trkpt lat="28.2143920" lon="-16.6650650">
        <ele>1951.9</ele>
        <time>2020-11-11T19:34:47Z</time>
      </trkpt>
      <trkpt lat="28.2144570" lon="-16.6652470">
        <ele>1951.9</ele>
        <time>2020-11-11T19:34:48Z</time>
      </trkpt>
      <trkpt lat="28.2144570" lon="-16.6652470">
        <ele>1951.9</ele>
        <time>2020-11-11T19:34:49Z</time>
      </trkpt>
      <trkpt lat="28.2145180" lon="-16.6654180">
        <ele>1951.9</ele>
        <time>2020-11-11T19:34:50Z</time>
      </trkpt>
      <trkpt lat="28.2145180" lon="-16.6654180">
        <ele>1951.9</ele>
        <time>2020-11-11T19:34:51Z</time>
      </trkpt>
      <trkpt lat="28.2145750" lon="-16.6655830">
        <ele>1951.9</ele>
        <time>2020-11-11T19:34:52Z</time>
      </trkpt>
      <trkpt lat="28.2145750" lon="-16.6655830">
        <ele>1951.9</ele>
        <time>2020-11-11T19:34:53Z</time>
      </trkpt>
      <trkpt lat="28.2146270" lon="-16.6657420">
        <ele>1951.9</ele>
        <time>2020-11-11T19:34:54Z</time>
      </trkpt>
      <trkpt lat="28.2146270" lon="-16.6657420">
        <ele>1951.9</ele>
        <time>2020-11-11T19:34:55Z</time>
      </trkpt>
      <trkpt lat="28.2146800" lon="-16.6658900">
        <ele>1951.9</ele>
        <time>2020-11-11T19:34:56Z</time>
      </trkpt>
      <trkpt lat="28.2146800" lon="-16.6658900">
        <ele>1951.9</ele>
        <time>2020-11-11T19:34:57Z</time>
      </trkpt>
      <trkpt lat="28.2147350" lon="-16.6660350">
        <ele>1951.9</ele>
        <time>2020-11-11T19:34:58Z</time>
      </trkpt>
      <trkpt lat="28.2147350" lon="-16.6660350">
        <ele>1951.9</ele>
        <time>2020-11-11T19:34:59Z</time>
      </trkpt>
      <trkpt lat="28.2147870" lon="-16.6661750">
        <ele>1951.9</ele>
        <time>2020-11-11T19:35:00Z</time>
      </trkpt>
      <trkpt lat="28.2147870" lon="-16.6661750">
        <ele>1951.9</ele>
        <time>2020-11-11T19:35:01Z</time>
      </trkpt>
      <trkpt lat="28.2148370" lon="-16.6663100">
        <ele>1951.9</ele>
        <time>2020-11-11T19:35:02Z</time>
      </trkpt>
      <trkpt lat="28.2148370" lon="-16.6663100">
        <ele>1951.9</ele>
        <time>2020-11-11T19:35:03Z</time>
      </trkpt>
      <trkpt lat="28.2148800" lon="-16.6664420">
        <ele>1951.9</ele>
        <time>2020-11-11T19:35:04Z</time>
      </trkpt>
      <trkpt lat="28.2149030" lon="-16.6665030">
        <ele>1951.9</ele>
        <time>2020-11-11T19:35:05Z</time>
      </trkpt>
      <trkpt lat="28.2149030" lon="-16.6665030">
        <ele>1951.9</ele>
        <time>2020-11-11T19:35:06Z</time>
      </trkpt>
      <trkpt lat="28.2149480" lon="-16.6666250">
        <ele>1952.9</ele>
        <time>2020-11-11T19:35:07Z</time>
      </trkpt>
      <trkpt lat="28.2149480" lon="-16.6666250">
        <ele>1952.9</ele>
        <time>2020-11-11T19:35:08Z</time>
      </trkpt>
      <trkpt lat="28.2149830" lon="-16.6667420">
        <ele>1952.9</ele>
        <time>2020-11-11T19:35:09Z</time>
      </trkpt>
      <trkpt lat="28.2149830" lon="-16.6667420">
        <ele>1952.9</ele>
        <time>2020-11-11T19:35:10Z</time>
      </trkpt>
      <trkpt lat="28.2150220" lon="-16.6668530">
        <ele>1952.9</ele>
        <time>2020-11-11T19:35:11Z</time>
      </trkpt>
      <trkpt lat="28.2150220" lon="-16.6668530">
        <ele>1952.9</ele>
        <time>2020-11-11T19:35:12Z</time>
      </trkpt>
      <trkpt lat="28.2150680" lon="-16.6669650">
        <ele>1952.9</ele>
        <time>2020-11-11T19:35:13Z</time>
      </trkpt>
      <trkpt lat="28.2150680" lon="-16.6669650">
        <ele>1952.9</ele>
        <time>2020-11-11T19:35:14Z</time>
      </trkpt>
      <trkpt lat="28.2151100" lon="-16.6670750">
        <ele>1952.9</ele>
        <time>2020-11-11T19:35:15Z</time>
      </trkpt>
      <trkpt lat="28.2151100" lon="-16.6670750">
        <ele>1952.9</ele>
        <time>2020-11-11T19:35:16Z</time>
      </trkpt>
      <trkpt lat="28.2151470" lon="-16.6671880">
        <ele>1952.9</ele>
        <time>2020-11-11T19:35:17Z</time>
      </trkpt>
      <trkpt lat="28.2151650" lon="-16.6672430">
        <ele>1952.9</ele>
        <time>2020-11-11T19:35:18Z</time>
      </trkpt>
      <trkpt lat="28.2151850" lon="-16.6672980">
        <ele>1952.9</ele>
        <time>2020-11-11T19:35:19Z</time>
      </trkpt>
      <trkpt lat="28.2151850" lon="-16.6672980">
        <ele>1952.9</ele>
        <time>2020-11-11T19:35:20Z</time>
      </trkpt>
      <trkpt lat="28.2152280" lon="-16.6674080">
        <ele>1952.9</ele>
        <time>2020-11-11T19:35:21Z</time>
      </trkpt>
      <trkpt lat="28.2152280" lon="-16.6674080">
        <ele>1952.9</ele>
        <time>2020-11-11T19:35:22Z</time>
      </trkpt>
      <trkpt lat="28.2152680" lon="-16.6675180">
        <ele>1952.9</ele>
        <time>2020-11-11T19:35:23Z</time>
      </trkpt>
      <trkpt lat="28.2152680" lon="-16.6675180">
        <ele>1952.9</ele>
        <time>2020-11-11T19:35:24Z</time>
      </trkpt>
      <trkpt lat="28.2153080" lon="-16.6676270">
        <ele>1952.9</ele>
        <time>2020-11-11T19:35:25Z</time>
      </trkpt>
      <trkpt lat="28.2153080" lon="-16.6676270">
        <ele>1952.9</ele>
        <time>2020-11-11T19:35:26Z</time>
      </trkpt>
      <trkpt lat="28.2153470" lon="-16.6677350">
        <ele>1952.9</ele>
        <time>2020-11-11T19:35:27Z</time>
      </trkpt>
      <trkpt lat="28.2153470" lon="-16.6677350">
        <ele>1952.9</ele>
        <time>2020-11-11T19:35:28Z</time>
      </trkpt>
      <trkpt lat="28.2153820" lon="-16.6678420">
        <ele>1952.9</ele>
        <time>2020-11-11T19:35:29Z</time>
      </trkpt>
      <trkpt lat="28.2153820" lon="-16.6678420">
        <ele>1952.9</ele>
        <time>2020-11-11T19:35:30Z</time>
      </trkpt>
      <trkpt lat="28.2154150" lon="-16.6679470">
        <ele>1952.9</ele>
        <time>2020-11-11T19:35:31Z</time>
      </trkpt>
      <trkpt lat="28.2154150" lon="-16.6679470">
        <ele>1952.9</ele>
        <time>2020-11-11T19:35:32Z</time>
      </trkpt>
      <trkpt lat="28.2154530" lon="-16.6680550">
        <ele>1952.9</ele>
        <time>2020-11-11T19:35:33Z</time>
      </trkpt>
      <trkpt lat="28.2154730" lon="-16.6681100">
        <ele>1952.9</ele>
        <time>2020-11-11T19:35:34Z</time>
      </trkpt>
      <trkpt lat="28.2154730" lon="-16.6681100">
        <ele>1952.9</ele>
        <time>2020-11-11T19:35:35Z</time>
      </trkpt>
      <trkpt lat="28.2155100" lon="-16.6682250">
        <ele>1952.9</ele>
        <time>2020-11-11T19:35:36Z</time>
      </trkpt>
      <trkpt lat="28.2155100" lon="-16.6682250">
        <ele>1953.9</ele>
        <time>2020-11-11T19:35:37Z</time>
      </trkpt>
      <trkpt lat="28.2155480" lon="-16.6683370">
        <ele>1953.9</ele>
        <time>2020-11-11T19:35:38Z</time>
      </trkpt>
      <trkpt lat="28.2155480" lon="-16.6683370">
        <ele>1953.9</ele>
        <time>2020-11-11T19:35:39Z</time>
      </trkpt>
      <trkpt lat="28.2155870" lon="-16.6684500">
        <ele>1953.9</ele>
        <time>2020-11-11T19:35:40Z</time>
      </trkpt>
      <trkpt lat="28.2155870" lon="-16.6684500">
        <ele>1953.9</ele>
        <time>2020-11-11T19:35:41Z</time>
      </trkpt>
      <trkpt lat="28.2156270" lon="-16.6685530">
        <ele>1953.9</ele>
        <time>2020-11-11T19:35:42Z</time>
      </trkpt>
      <trkpt lat="28.2156450" lon="-16.6686050">
        <ele>1953.9</ele>
        <time>2020-11-11T19:35:43Z</time>
      </trkpt>
      <trkpt lat="28.2156450" lon="-16.6686050">
        <ele>1953.9</ele>
        <time>2020-11-11T19:35:44Z</time>
      </trkpt>
      <trkpt lat="28.2156820" lon="-16.6687080">
        <ele>1953.9</ele>
        <time>2020-11-11T19:35:45Z</time>
      </trkpt>
      <trkpt lat="28.2157000" lon="-16.6687580">
        <ele>1953.9</ele>
        <time>2020-11-11T19:35:46Z</time>
      </trkpt>
      <trkpt lat="28.2157000" lon="-16.6687580">
        <ele>1953.9</ele>
        <time>2020-11-11T19:35:47Z</time>
      </trkpt>
      <trkpt lat="28.2157400" lon="-16.6688600">
        <ele>1953.9</ele>
        <time>2020-11-11T19:35:48Z</time>
      </trkpt>
      <trkpt lat="28.2157570" lon="-16.6689080">
        <ele>1953.9</ele>
        <time>2020-11-11T19:35:49Z</time>
      </trkpt>
      <trkpt lat="28.2157570" lon="-16.6689080">
        <ele>1953.9</ele>
        <time>2020-11-11T19:35:50Z</time>
      </trkpt>
      <trkpt lat="28.2157930" lon="-16.6690080">
        <ele>1953.9</ele>
        <time>2020-11-11T19:35:51Z</time>
      </trkpt>
      <trkpt lat="28.2157930" lon="-16.6690080">
        <ele>1953.9</ele>
        <time>2020-11-11T19:35:52Z</time>
      </trkpt>
      <trkpt lat="28.2158280" lon="-16.6691070">
        <ele>1953.9</ele>
        <time>2020-11-11T19:35:53Z</time>
      </trkpt>
      <trkpt lat="28.2158280" lon="-16.6691070">
        <ele>1953.9</ele>
        <time>2020-11-11T19:35:54Z</time>
      </trkpt>
      <trkpt lat="28.2158600" lon="-16.6692070">
        <ele>1954.9</ele>
        <time>2020-11-11T19:35:55Z</time>
      </trkpt>
      <trkpt lat="28.2158600" lon="-16.6692070">
        <ele>1954.9</ele>
        <time>2020-11-11T19:35:56Z</time>
      </trkpt>
      <trkpt lat="28.2158900" lon="-16.6693050">
        <ele>1954.9</ele>
        <time>2020-11-11T19:35:57Z</time>
      </trkpt>
      <trkpt lat="28.2158900" lon="-16.6693050">
        <ele>1954.9</ele>
        <time>2020-11-11T19:35:58Z</time>
      </trkpt>
      <trkpt lat="28.2159220" lon="-16.6694020">
        <ele>1954.9</ele>
        <time>2020-11-11T19:35:59Z</time>
      </trkpt>
      <trkpt lat="28.2159220" lon="-16.6694020">
        <ele>1954.9</ele>
        <time>2020-11-11T19:36:00Z</time>
      </trkpt>
      <trkpt lat="28.2159500" lon="-16.6694970">
        <ele>1954.9</ele>
        <time>2020-11-11T19:36:01Z</time>
      </trkpt>
      <trkpt lat="28.2159500" lon="-16.6694970">
        <ele>1954.9</ele>
        <time>2020-11-11T19:36:02Z</time>
      </trkpt>
      <trkpt lat="28.2159750" lon="-16.6695930">
        <ele>1954.9</ele>
        <time>2020-11-11T19:36:03Z</time>
      </trkpt>
      <trkpt lat="28.2159750" lon="-16.6695930">
        <ele>1954.9</ele>
        <time>2020-11-11T19:36:04Z</time>
      </trkpt>
      <trkpt lat="28.2159970" lon="-16.6696920">
        <ele>1955.9</ele>
        <time>2020-11-11T19:36:05Z</time>
      </trkpt>
      <trkpt lat="28.2159970" lon="-16.6696920">
        <ele>1955.9</ele>
        <time>2020-11-11T19:36:06Z</time>
      </trkpt>
      <trkpt lat="28.2160130" lon="-16.6697930">
        <ele>1955.9</ele>
        <time>2020-11-11T19:36:07Z</time>
      </trkpt>
      <trkpt lat="28.2160130" lon="-16.6697930">
        <ele>1955.9</ele>
        <time>2020-11-11T19:36:08Z</time>
      </trkpt>
      <trkpt lat="28.2160280" lon="-16.6698930">
        <ele>1955.9</ele>
        <time>2020-11-11T19:36:09Z</time>
      </trkpt>
      <trkpt lat="28.2160280" lon="-16.6698930">
        <ele>1955.9</ele>
        <time>2020-11-11T19:36:10Z</time>
      </trkpt>
      <trkpt lat="28.2160320" lon="-16.6699970">
        <ele>1955.9</ele>
        <time>2020-11-11T19:36:11Z</time>
      </trkpt>
      <trkpt lat="28.2160320" lon="-16.6699970">
        <ele>1955.9</ele>
        <time>2020-11-11T19:36:12Z</time>
      </trkpt>
      <trkpt lat="28.2160270" lon="-16.6700970">
        <ele>1956.9</ele>
        <time>2020-11-11T19:36:13Z</time>
      </trkpt>
      <trkpt lat="28.2160270" lon="-16.6700970">
        <ele>1956.9</ele>
        <time>2020-11-11T19:36:14Z</time>
      </trkpt>
      <trkpt lat="28.2160130" lon="-16.6702000">
        <ele>1956.9</ele>
        <time>2020-11-11T19:36:15Z</time>
      </trkpt>
      <trkpt lat="28.2160130" lon="-16.6702000">
        <ele>1956.9</ele>
        <time>2020-11-11T19:36:16Z</time>
      </trkpt>
      <trkpt lat="28.2159970" lon="-16.6702980">
        <ele>1956.9</ele>
        <time>2020-11-11T19:36:17Z</time>
      </trkpt>
      <trkpt lat="28.2159970" lon="-16.6702980">
        <ele>1956.9</ele>
        <time>2020-11-11T19:36:18Z</time>
      </trkpt>
      <trkpt lat="28.2159750" lon="-16.6703980">
        <ele>1956.9</ele>
        <time>2020-11-11T19:36:19Z</time>
      </trkpt>
      <trkpt lat="28.2159750" lon="-16.6703980">
        <ele>1956.9</ele>
        <time>2020-11-11T19:36:20Z</time>
      </trkpt>
      <trkpt lat="28.2159500" lon="-16.6704900">
        <ele>1956.9</ele>
        <time>2020-11-11T19:36:21Z</time>
      </trkpt>
      <trkpt lat="28.2159350" lon="-16.6705330">
        <ele>1956.9</ele>
        <time>2020-11-11T19:36:22Z</time>
      </trkpt>
      <trkpt lat="28.2159350" lon="-16.6705330">
        <ele>1956.9</ele>
        <time>2020-11-11T19:36:23Z</time>
      </trkpt>
      <trkpt lat="28.2159050" lon="-16.6706180">
        <ele>1956.9</ele>
        <time>2020-11-11T19:36:24Z</time>
      </trkpt>
      <trkpt lat="28.2158880" lon="-16.6706620">
        <ele>1956.9</ele>
        <time>2020-11-11T19:36:25Z</time>
      </trkpt>
      <trkpt lat="28.2158880" lon="-16.6706620">
        <ele>1956.9</ele>
        <time>2020-11-11T19:36:26Z</time>
      </trkpt>
      <trkpt lat="28.2158530" lon="-16.6707450">
        <ele>1956.9</ele>
        <time>2020-11-11T19:36:27Z</time>
      </trkpt>
      <trkpt lat="28.2158530" lon="-16.6707450">
        <ele>1956.9</ele>
        <time>2020-11-11T19:36:28Z</time>
      </trkpt>
      <trkpt lat="28.2158150" lon="-16.6708280">
        <ele>1956.9</ele>
        <time>2020-11-11T19:36:29Z</time>
      </trkpt>
      <trkpt lat="28.2158150" lon="-16.6708280">
        <ele>1956.9</ele>
        <time>2020-11-11T19:36:30Z</time>
      </trkpt>
      <trkpt lat="28.2157730" lon="-16.6709050">
        <ele>1956.9</ele>
        <time>2020-11-11T19:36:31Z</time>
      </trkpt>
      <trkpt lat="28.2157730" lon="-16.6709050">
        <ele>1956.9</ele>
        <time>2020-11-11T19:36:32Z</time>
      </trkpt>
      <trkpt lat="28.2157270" lon="-16.6709800">
        <ele>1956.9</ele>
        <time>2020-11-11T19:36:33Z</time>
      </trkpt>
      <trkpt lat="28.2157270" lon="-16.6709800">
        <ele>1956.9</ele>
        <time>2020-11-11T19:36:34Z</time>
      </trkpt>
      <trkpt lat="28.2156820" lon="-16.6710530">
        <ele>1957.9</ele>
        <time>2020-11-11T19:36:35Z</time>
      </trkpt>
      <trkpt lat="28.2156820" lon="-16.6710530">
        <ele>1957.9</ele>
        <time>2020-11-11T19:36:36Z</time>
      </trkpt>
      <trkpt lat="28.2156370" lon="-16.6711300">
        <ele>1957.9</ele>
        <time>2020-11-11T19:36:37Z</time>
      </trkpt>
      <trkpt lat="28.2156100" lon="-16.6711630">
        <ele>1957.9</ele>
        <time>2020-11-11T19:36:38Z</time>
      </trkpt>
      <trkpt lat="28.2156100" lon="-16.6711630">
        <ele>1957.9</ele>
        <time>2020-11-11T19:36:39Z</time>
      </trkpt>
      <trkpt lat="28.2155580" lon="-16.6712370">
        <ele>1957.9</ele>
        <time>2020-11-11T19:36:40Z</time>
      </trkpt>
      <trkpt lat="28.2155580" lon="-16.6712370">
        <ele>1957.9</ele>
        <time>2020-11-11T19:36:41Z</time>
      </trkpt>
      <trkpt lat="28.2155120" lon="-16.6713130">
        <ele>1957.9</ele>
        <time>2020-11-11T19:36:42Z</time>
      </trkpt>
      <trkpt lat="28.2155120" lon="-16.6713130">
        <ele>1957.9</ele>
        <time>2020-11-11T19:36:43Z</time>
      </trkpt>
      <trkpt lat="28.2154650" lon="-16.6713880">
        <ele>1957.9</ele>
        <time>2020-11-11T19:36:44Z</time>
      </trkpt>
      <trkpt lat="28.2154650" lon="-16.6713880">
        <ele>1957.9</ele>
        <time>2020-11-11T19:36:45Z</time>
      </trkpt>
      <trkpt lat="28.2154130" lon="-16.6714600">
        <ele>1957.9</ele>
        <time>2020-11-11T19:36:46Z</time>
      </trkpt>
      <trkpt lat="28.2154130" lon="-16.6714600">
        <ele>1957.9</ele>
        <time>2020-11-11T19:36:47Z</time>
      </trkpt>
      <trkpt lat="28.2153570" lon="-16.6715370">
        <ele>1957.9</ele>
        <time>2020-11-11T19:36:48Z</time>
      </trkpt>
      <trkpt lat="28.2153570" lon="-16.6715370">
        <ele>1957.9</ele>
        <time>2020-11-11T19:36:49Z</time>
      </trkpt>
      <trkpt lat="28.2153020" lon="-16.6716120">
        <ele>1957.9</ele>
        <time>2020-11-11T19:36:50Z</time>
      </trkpt>
      <trkpt lat="28.2153020" lon="-16.6716120">
        <ele>1957.9</ele>
        <time>2020-11-11T19:36:51Z</time>
      </trkpt>
      <trkpt lat="28.2152480" lon="-16.6716800">
        <ele>1957.9</ele>
        <time>2020-11-11T19:36:52Z</time>
      </trkpt>
      <trkpt lat="28.2152230" lon="-16.6717130">
        <ele>1957.9</ele>
        <time>2020-11-11T19:36:53Z</time>
      </trkpt>
      <trkpt lat="28.2152230" lon="-16.6717130">
        <ele>1957.9</ele>
        <time>2020-11-11T19:36:54Z</time>
      </trkpt>
      <trkpt lat="28.2151800" lon="-16.6717870">
        <ele>1957.9</ele>
        <time>2020-11-11T19:36:55Z</time>
      </trkpt>
      <trkpt lat="28.2151800" lon="-16.6717870">
        <ele>1957.9</ele>
        <time>2020-11-11T19:36:56Z</time>
      </trkpt>
      <trkpt lat="28.2151320" lon="-16.6718550">
        <ele>1958.9</ele>
        <time>2020-11-11T19:36:57Z</time>
      </trkpt>
      <trkpt lat="28.2151050" lon="-16.6718900">
        <ele>1958.9</ele>
        <time>2020-11-11T19:36:58Z</time>
      </trkpt>
      <trkpt lat="28.2150820" lon="-16.6719250">
        <ele>1958.9</ele>
        <time>2020-11-11T19:36:59Z</time>
      </trkpt>
      <trkpt lat="28.2150820" lon="-16.6719250">
        <ele>1958.9</ele>
        <time>2020-11-11T19:37:00Z</time>
      </trkpt>
      <trkpt lat="28.2150330" lon="-16.6719980">
        <ele>1958.9</ele>
        <time>2020-11-11T19:37:01Z</time>
      </trkpt>
      <trkpt lat="28.2150330" lon="-16.6719980">
        <ele>1958.9</ele>
        <time>2020-11-11T19:37:02Z</time>
      </trkpt>
      <trkpt lat="28.2149900" lon="-16.6720770">
        <ele>1958.9</ele>
        <time>2020-11-11T19:37:03Z</time>
      </trkpt>
      <trkpt lat="28.2149900" lon="-16.6720770">
        <ele>1958.9</ele>
        <time>2020-11-11T19:37:04Z</time>
      </trkpt>
      <trkpt lat="28.2149480" lon="-16.6721580">
        <ele>1958.9</ele>
        <time>2020-11-11T19:37:05Z</time>
      </trkpt>
      <trkpt lat="28.2149480" lon="-16.6721580">
        <ele>1958.9</ele>
        <time>2020-11-11T19:37:06Z</time>
      </trkpt>
      <trkpt lat="28.2149050" lon="-16.6722370">
        <ele>1958.9</ele>
        <time>2020-11-11T19:37:07Z</time>
      </trkpt>
      <trkpt lat="28.2148830" lon="-16.6722750">
        <ele>1958.9</ele>
        <time>2020-11-11T19:37:08Z</time>
      </trkpt>
      <trkpt lat="28.2148830" lon="-16.6722750">
        <ele>1958.9</ele>
        <time>2020-11-11T19:37:09Z</time>
      </trkpt>
      <trkpt lat="28.2148480" lon="-16.6723580">
        <ele>1958.9</ele>
        <time>2020-11-11T19:37:10Z</time>
      </trkpt>
      <trkpt lat="28.2148480" lon="-16.6723580">
        <ele>1959.9</ele>
        <time>2020-11-11T19:37:11Z</time>
      </trkpt>
      <trkpt lat="28.2148300" lon="-16.6724480">
        <ele>1959.9</ele>
        <time>2020-11-11T19:37:12Z</time>
      </trkpt>
      <trkpt lat="28.2148220" lon="-16.6724930">
        <ele>1959.9</ele>
        <time>2020-11-11T19:37:13Z</time>
      </trkpt>
      <trkpt lat="28.2148220" lon="-16.6724930">
        <ele>1959.9</ele>
        <time>2020-11-11T19:37:14Z</time>
      </trkpt>
      <trkpt lat="28.2147980" lon="-16.6725830">
        <ele>1959.9</ele>
        <time>2020-11-11T19:37:15Z</time>
      </trkpt>
      <trkpt lat="28.2147980" lon="-16.6725830">
        <ele>1959.9</ele>
        <time>2020-11-11T19:37:16Z</time>
      </trkpt>
      <trkpt lat="28.2147720" lon="-16.6726700">
        <ele>1959.9</ele>
        <time>2020-11-11T19:37:17Z</time>
      </trkpt>
      <trkpt lat="28.2147720" lon="-16.6726700">
        <ele>1959.9</ele>
        <time>2020-11-11T19:37:18Z</time>
      </trkpt>
      <trkpt lat="28.2147600" lon="-16.6727620">
        <ele>1960.9</ele>
        <time>2020-11-11T19:37:19Z</time>
      </trkpt>
      <trkpt lat="28.2147570" lon="-16.6728070">
        <ele>1960.9</ele>
        <time>2020-11-11T19:37:20Z</time>
      </trkpt>
      <trkpt lat="28.2147570" lon="-16.6728070">
        <ele>1960.9</ele>
        <time>2020-11-11T19:37:21Z</time>
      </trkpt>
      <trkpt lat="28.2147430" lon="-16.6729000">
        <ele>1960.9</ele>
        <time>2020-11-11T19:37:22Z</time>
      </trkpt>
      <trkpt lat="28.2147430" lon="-16.6729000">
        <ele>1960.9</ele>
        <time>2020-11-11T19:37:23Z</time>
      </trkpt>
      <trkpt lat="28.2147270" lon="-16.6729920">
        <ele>1960.9</ele>
        <time>2020-11-11T19:37:24Z</time>
      </trkpt>
      <trkpt lat="28.2147220" lon="-16.6730370">
        <ele>1960.9</ele>
        <time>2020-11-11T19:37:25Z</time>
      </trkpt>
      <trkpt lat="28.2147220" lon="-16.6730370">
        <ele>1960.9</ele>
        <time>2020-11-11T19:37:26Z</time>
      </trkpt>
      <trkpt lat="28.2147150" lon="-16.6731300">
        <ele>1960.9</ele>
        <time>2020-11-11T19:37:27Z</time>
      </trkpt>
      <trkpt lat="28.2147130" lon="-16.6731780">
        <ele>1960.9</ele>
        <time>2020-11-11T19:37:28Z</time>
      </trkpt>
      <trkpt lat="28.2147120" lon="-16.6732250">
        <ele>1960.9</ele>
        <time>2020-11-11T19:37:29Z</time>
      </trkpt>
      <trkpt lat="28.2147120" lon="-16.6732250">
        <ele>1960.9</ele>
        <time>2020-11-11T19:37:30Z</time>
      </trkpt>
      <trkpt lat="28.2147000" lon="-16.6733180">
        <ele>1960.9</ele>
        <time>2020-11-11T19:37:31Z</time>
      </trkpt>
      <trkpt lat="28.2147000" lon="-16.6733180">
        <ele>1960.9</ele>
        <time>2020-11-11T19:37:32Z</time>
      </trkpt>
      <trkpt lat="28.2146870" lon="-16.6734120">
        <ele>1960.9</ele>
        <time>2020-11-11T19:37:33Z</time>
      </trkpt>
      <trkpt lat="28.2146870" lon="-16.6734120">
        <ele>1960.9</ele>
        <time>2020-11-11T19:37:34Z</time>
      </trkpt>
      <trkpt lat="28.2146800" lon="-16.6735070">
        <ele>1960.9</ele>
        <time>2020-11-11T19:37:35Z</time>
      </trkpt>
      <trkpt lat="28.2146800" lon="-16.6735070">
        <ele>1960.9</ele>
        <time>2020-11-11T19:37:36Z</time>
      </trkpt>
      <trkpt lat="28.2146680" lon="-16.6736020">
        <ele>1960.9</ele>
        <time>2020-11-11T19:37:37Z</time>
      </trkpt>
      <trkpt lat="28.2146680" lon="-16.6736020">
        <ele>1960.9</ele>
        <time>2020-11-11T19:37:38Z</time>
      </trkpt>
      <trkpt lat="28.2146600" lon="-16.6736970">
        <ele>1960.9</ele>
        <time>2020-11-11T19:37:39Z</time>
      </trkpt>
      <trkpt lat="28.2146600" lon="-16.6736970">
        <ele>1960.9</ele>
        <time>2020-11-11T19:37:40Z</time>
      </trkpt>
      <trkpt lat="28.2146470" lon="-16.6737930">
        <ele>1960.9</ele>
        <time>2020-11-11T19:37:41Z</time>
      </trkpt>
      <trkpt lat="28.2146470" lon="-16.6737930">
        <ele>1960.9</ele>
        <time>2020-11-11T19:37:42Z</time>
      </trkpt>
      <trkpt lat="28.2146350" lon="-16.6738920">
        <ele>1960.9</ele>
        <time>2020-11-11T19:37:43Z</time>
      </trkpt>
      <trkpt lat="28.2146350" lon="-16.6738920">
        <ele>1960.9</ele>
        <time>2020-11-11T19:37:44Z</time>
      </trkpt>
      <trkpt lat="28.2146220" lon="-16.6739970">
        <ele>1960.9</ele>
        <time>2020-11-11T19:37:45Z</time>
      </trkpt>
      <trkpt lat="28.2146130" lon="-16.6740430">
        <ele>1960.9</ele>
        <time>2020-11-11T19:37:46Z</time>
      </trkpt>
      <trkpt lat="28.2146130" lon="-16.6740430">
        <ele>1960.9</ele>
        <time>2020-11-11T19:37:47Z</time>
      </trkpt>
      <trkpt lat="28.2146030" lon="-16.6741370">
        <ele>1960.9</ele>
        <time>2020-11-11T19:37:48Z</time>
      </trkpt>
      <trkpt lat="28.2146000" lon="-16.6741850">
        <ele>1960.9</ele>
        <time>2020-11-11T19:37:49Z</time>
      </trkpt>
      <trkpt lat="28.2146000" lon="-16.6741850">
        <ele>1960.9</ele>
        <time>2020-11-11T19:37:50Z</time>
      </trkpt>
      <trkpt lat="28.2145870" lon="-16.6742800">
        <ele>1960.9</ele>
        <time>2020-11-11T19:37:51Z</time>
      </trkpt>
      <trkpt lat="28.2145870" lon="-16.6742800">
        <ele>1960.9</ele>
        <time>2020-11-11T19:37:52Z</time>
      </trkpt>
      <trkpt lat="28.2145750" lon="-16.6743770">
        <ele>1960.9</ele>
        <time>2020-11-11T19:37:53Z</time>
      </trkpt>
      <trkpt lat="28.2145700" lon="-16.6744270">
        <ele>1960.9</ele>
        <time>2020-11-11T19:37:54Z</time>
      </trkpt>
      <trkpt lat="28.2145700" lon="-16.6744270">
        <ele>1960.9</ele>
        <time>2020-11-11T19:37:55Z</time>
      </trkpt>
      <trkpt lat="28.2145600" lon="-16.6745250">
        <ele>1960.9</ele>
        <time>2020-11-11T19:37:56Z</time>
      </trkpt>
      <trkpt lat="28.2145600" lon="-16.6745250">
        <ele>1960.9</ele>
        <time>2020-11-11T19:37:57Z</time>
      </trkpt>
      <trkpt lat="28.2145480" lon="-16.6746270">
        <ele>1960.9</ele>
        <time>2020-11-11T19:37:58Z</time>
      </trkpt>
      <trkpt lat="28.2145480" lon="-16.6746270">
        <ele>1960.9</ele>
        <time>2020-11-11T19:37:59Z</time>
      </trkpt>
      <trkpt lat="28.2145400" lon="-16.6747270">
        <ele>1960.9</ele>
        <time>2020-11-11T19:38:00Z</time>
      </trkpt>
      <trkpt lat="28.2145350" lon="-16.6747770">
        <ele>1960.9</ele>
        <time>2020-11-11T19:38:01Z</time>
      </trkpt>
      <trkpt lat="28.2145350" lon="-16.6747770">
        <ele>1960.9</ele>
        <time>2020-11-11T19:38:02Z</time>
      </trkpt>
      <trkpt lat="28.2145230" lon="-16.6748770">
        <ele>1960.9</ele>
        <time>2020-11-11T19:38:03Z</time>
      </trkpt>
      <trkpt lat="28.2145230" lon="-16.6748770">
        <ele>1960.9</ele>
        <time>2020-11-11T19:38:04Z</time>
      </trkpt>
      <trkpt lat="28.2145120" lon="-16.6749780">
        <ele>1960.9</ele>
        <time>2020-11-11T19:38:05Z</time>
      </trkpt>
      <trkpt lat="28.2145120" lon="-16.6749780">
        <ele>1960.9</ele>
        <time>2020-11-11T19:38:06Z</time>
      </trkpt>
      <trkpt lat="28.2144980" lon="-16.6750800">
        <ele>1960.9</ele>
        <time>2020-11-11T19:38:07Z</time>
      </trkpt>
      <trkpt lat="28.2144920" lon="-16.6751320">
        <ele>1960.9</ele>
        <time>2020-11-11T19:38:08Z</time>
      </trkpt>
      <trkpt lat="28.2144920" lon="-16.6751320">
        <ele>1960.9</ele>
        <time>2020-11-11T19:38:09Z</time>
      </trkpt>
      <trkpt lat="28.2144780" lon="-16.6752320">
        <ele>1960.9</ele>
        <time>2020-11-11T19:38:10Z</time>
      </trkpt>
      <trkpt lat="28.2144780" lon="-16.6752320">
        <ele>1960.9</ele>
        <time>2020-11-11T19:38:11Z</time>
      </trkpt>
      <trkpt lat="28.2144630" lon="-16.6753380">
        <ele>1960.9</ele>
        <time>2020-11-11T19:38:12Z</time>
      </trkpt>
      <trkpt lat="28.2144550" lon="-16.6753920">
        <ele>1960.9</ele>
        <time>2020-11-11T19:38:13Z</time>
      </trkpt>
      <trkpt lat="28.2144550" lon="-16.6753920">
        <ele>1959.9</ele>
        <time>2020-11-11T19:38:14Z</time>
      </trkpt>
      <trkpt lat="28.2144400" lon="-16.6754970">
        <ele>1959.9</ele>
        <time>2020-11-11T19:38:15Z</time>
      </trkpt>
      <trkpt lat="28.2144320" lon="-16.6755500">
        <ele>1959.9</ele>
        <time>2020-11-11T19:38:16Z</time>
      </trkpt>
      <trkpt lat="28.2144320" lon="-16.6755500">
        <ele>1959.9</ele>
        <time>2020-11-11T19:38:17Z</time>
      </trkpt>
      <trkpt lat="28.2144220" lon="-16.6756570">
        <ele>1959.9</ele>
        <time>2020-11-11T19:38:18Z</time>
      </trkpt>
      <trkpt lat="28.2144220" lon="-16.6756570">
        <ele>1959.9</ele>
        <time>2020-11-11T19:38:19Z</time>
      </trkpt>
      <trkpt lat="28.2144070" lon="-16.6757650">
        <ele>1959.9</ele>
        <time>2020-11-11T19:38:20Z</time>
      </trkpt>
      <trkpt lat="28.2144020" lon="-16.6758170">
        <ele>1959.9</ele>
        <time>2020-11-11T19:38:21Z</time>
      </trkpt>
      <trkpt lat="28.2144020" lon="-16.6758170">
        <ele>1959.9</ele>
        <time>2020-11-11T19:38:22Z</time>
      </trkpt>
      <trkpt lat="28.2143920" lon="-16.6759230">
        <ele>1959.9</ele>
        <time>2020-11-11T19:38:23Z</time>
      </trkpt>
      <trkpt lat="28.2143850" lon="-16.6759770">
        <ele>1959.9</ele>
        <time>2020-11-11T19:38:24Z</time>
      </trkpt>
      <trkpt lat="28.2143850" lon="-16.6759770">
        <ele>1959.9</ele>
        <time>2020-11-11T19:38:25Z</time>
      </trkpt>
      <trkpt lat="28.2143700" lon="-16.6760830">
        <ele>1959.9</ele>
        <time>2020-11-11T19:38:26Z</time>
      </trkpt>
      <trkpt lat="28.2143700" lon="-16.6760830">
        <ele>1959.9</ele>
        <time>2020-11-11T19:38:27Z</time>
      </trkpt>
      <trkpt lat="28.2143570" lon="-16.6761920">
        <ele>1959.9</ele>
        <time>2020-11-11T19:38:28Z</time>
      </trkpt>
      <trkpt lat="28.2143570" lon="-16.6761920">
        <ele>1959.9</ele>
        <time>2020-11-11T19:38:29Z</time>
      </trkpt>
      <trkpt lat="28.2143470" lon="-16.6763020">
        <ele>1959.9</ele>
        <time>2020-11-11T19:38:30Z</time>
      </trkpt>
      <trkpt lat="28.2143400" lon="-16.6763550">
        <ele>1959.9</ele>
        <time>2020-11-11T19:38:31Z</time>
      </trkpt>
      <trkpt lat="28.2143400" lon="-16.6763550">
        <ele>1959.9</ele>
        <time>2020-11-11T19:38:32Z</time>
      </trkpt>
      <trkpt lat="28.2143220" lon="-16.6764620">
        <ele>1959.9</ele>
        <time>2020-11-11T19:38:33Z</time>
      </trkpt>
      <trkpt lat="28.2143220" lon="-16.6764620">
        <ele>1959.9</ele>
        <time>2020-11-11T19:38:34Z</time>
      </trkpt>
      <trkpt lat="28.2143100" lon="-16.6765680">
        <ele>1959.9</ele>
        <time>2020-11-11T19:38:35Z</time>
      </trkpt>
      <trkpt lat="28.2143100" lon="-16.6765680">
        <ele>1959.9</ele>
        <time>2020-11-11T19:38:36Z</time>
      </trkpt>
      <trkpt lat="28.2143000" lon="-16.6766730">
        <ele>1959.9</ele>
        <time>2020-11-11T19:38:37Z</time>
      </trkpt>
      <trkpt lat="28.2143000" lon="-16.6766730">
        <ele>1959.9</ele>
        <time>2020-11-11T19:38:38Z</time>
      </trkpt>
      <trkpt lat="28.2142850" lon="-16.6767800">
        <ele>1959.9</ele>
        <time>2020-11-11T19:38:39Z</time>
      </trkpt>
      <trkpt lat="28.2142850" lon="-16.6767800">
        <ele>1959.9</ele>
        <time>2020-11-11T19:38:40Z</time>
      </trkpt>
      <trkpt lat="28.2142750" lon="-16.6768850">
        <ele>1959.9</ele>
        <time>2020-11-11T19:38:41Z</time>
      </trkpt>
      <trkpt lat="28.2142700" lon="-16.6769370">
        <ele>1959.9</ele>
        <time>2020-11-11T19:38:42Z</time>
      </trkpt>
      <trkpt lat="28.2142700" lon="-16.6769370">
        <ele>1959.9</ele>
        <time>2020-11-11T19:38:43Z</time>
      </trkpt>
      <trkpt lat="28.2142620" lon="-16.6770380">
        <ele>1959.9</ele>
        <time>2020-11-11T19:38:44Z</time>
      </trkpt>
      <trkpt lat="28.2142620" lon="-16.6770380">
        <ele>1959.9</ele>
        <time>2020-11-11T19:38:45Z</time>
      </trkpt>
      <trkpt lat="28.2142530" lon="-16.6771380">
        <ele>1959.9</ele>
        <time>2020-11-11T19:38:46Z</time>
      </trkpt>
      <trkpt lat="28.2142530" lon="-16.6771380">
        <ele>1959.9</ele>
        <time>2020-11-11T19:38:47Z</time>
      </trkpt>
      <trkpt lat="28.2142400" lon="-16.6772370">
        <ele>1959.9</ele>
        <time>2020-11-11T19:38:48Z</time>
      </trkpt>
      <trkpt lat="28.2142350" lon="-16.6772830">
        <ele>1959.9</ele>
        <time>2020-11-11T19:38:49Z</time>
      </trkpt>
      <trkpt lat="28.2142350" lon="-16.6772830">
        <ele>1960.9</ele>
        <time>2020-11-11T19:38:50Z</time>
      </trkpt>
      <trkpt lat="28.2142270" lon="-16.6773820">
        <ele>1960.9</ele>
        <time>2020-11-11T19:38:51Z</time>
      </trkpt>
      <trkpt lat="28.2142270" lon="-16.6773820">
        <ele>1960.9</ele>
        <time>2020-11-11T19:38:52Z</time>
      </trkpt>
      <trkpt lat="28.2142130" lon="-16.6774800">
        <ele>1960.9</ele>
        <time>2020-11-11T19:38:53Z</time>
      </trkpt>
      <trkpt lat="28.2142080" lon="-16.6775280">
        <ele>1960.9</ele>
        <time>2020-11-11T19:38:54Z</time>
      </trkpt>
      <trkpt lat="28.2142030" lon="-16.6775770">
        <ele>1960.9</ele>
        <time>2020-11-11T19:38:55Z</time>
      </trkpt>
      <trkpt lat="28.2141980" lon="-16.6776250">
        <ele>1961.9</ele>
        <time>2020-11-11T19:38:56Z</time>
      </trkpt>
      <trkpt lat="28.2141980" lon="-16.6776250">
        <ele>1961.9</ele>
        <time>2020-11-11T19:38:57Z</time>
      </trkpt>
      <trkpt lat="28.2141900" lon="-16.6777200">
        <ele>1961.9</ele>
        <time>2020-11-11T19:38:58Z</time>
      </trkpt>
      <trkpt lat="28.2141900" lon="-16.6777200">
        <ele>1961.9</ele>
        <time>2020-11-11T19:38:59Z</time>
      </trkpt>
      <trkpt lat="28.2141800" lon="-16.6778120">
        <ele>1962.9</ele>
        <time>2020-11-11T19:39:00Z</time>
      </trkpt>
      <trkpt lat="28.2141800" lon="-16.6778120">
        <ele>1962.9</ele>
        <time>2020-11-11T19:39:01Z</time>
      </trkpt>
      <trkpt lat="28.2141750" lon="-16.6779050">
        <ele>1962.9</ele>
        <time>2020-11-11T19:39:02Z</time>
      </trkpt>
      <trkpt lat="28.2141750" lon="-16.6779050">
        <ele>1962.9</ele>
        <time>2020-11-11T19:39:03Z</time>
      </trkpt>
      <trkpt lat="28.2141670" lon="-16.6779980">
        <ele>1962.9</ele>
        <time>2020-11-11T19:39:04Z</time>
      </trkpt>
      <trkpt lat="28.2141670" lon="-16.6779980">
        <ele>1962.9</ele>
        <time>2020-11-11T19:39:05Z</time>
      </trkpt>
      <trkpt lat="28.2141580" lon="-16.6780950">
        <ele>1962.9</ele>
        <time>2020-11-11T19:39:06Z</time>
      </trkpt>
      <trkpt lat="28.2141550" lon="-16.6781450">
        <ele>1962.9</ele>
        <time>2020-11-11T19:39:07Z</time>
      </trkpt>
      <trkpt lat="28.2141550" lon="-16.6781450">
        <ele>1962.9</ele>
        <time>2020-11-11T19:39:08Z</time>
      </trkpt>
      <trkpt lat="28.2141520" lon="-16.6782430">
        <ele>1963.9</ele>
        <time>2020-11-11T19:39:09Z</time>
      </trkpt>
      <trkpt lat="28.2141520" lon="-16.6782430">
        <ele>1963.9</ele>
        <time>2020-11-11T19:39:10Z</time>
      </trkpt>
      <trkpt lat="28.2141420" lon="-16.6783430">
        <ele>1963.9</ele>
        <time>2020-11-11T19:39:11Z</time>
      </trkpt>
      <trkpt lat="28.2141420" lon="-16.6783430">
        <ele>1963.9</ele>
        <time>2020-11-11T19:39:12Z</time>
      </trkpt>
      <trkpt lat="28.2141380" lon="-16.6784430">
        <ele>1963.9</ele>
        <time>2020-11-11T19:39:13Z</time>
      </trkpt>
      <trkpt lat="28.2141380" lon="-16.6784430">
        <ele>1963.9</ele>
        <time>2020-11-11T19:39:14Z</time>
      </trkpt>
      <trkpt lat="28.2141270" lon="-16.6785470">
        <ele>1963.9</ele>
        <time>2020-11-11T19:39:15Z</time>
      </trkpt>
      <trkpt lat="28.2141230" lon="-16.6786000">
        <ele>1963.9</ele>
        <time>2020-11-11T19:39:16Z</time>
      </trkpt>
      <trkpt lat="28.2141230" lon="-16.6786000">
        <ele>1963.9</ele>
        <time>2020-11-11T19:39:17Z</time>
      </trkpt>
      <trkpt lat="28.2141100" lon="-16.6787050">
        <ele>1963.9</ele>
        <time>2020-11-11T19:39:18Z</time>
      </trkpt>
      <trkpt lat="28.2141100" lon="-16.6787050">
        <ele>1963.9</ele>
        <time>2020-11-11T19:39:19Z</time>
      </trkpt>
      <trkpt lat="28.2140970" lon="-16.6788030">
        <ele>1963.9</ele>
        <time>2020-11-11T19:39:20Z</time>
      </trkpt>
      <trkpt lat="28.2140970" lon="-16.6788030">
        <ele>1963.9</ele>
        <time>2020-11-11T19:39:21Z</time>
      </trkpt>
      <trkpt lat="28.2140870" lon="-16.6789000">
        <ele>1963.9</ele>
        <time>2020-11-11T19:39:22Z</time>
      </trkpt>
      <trkpt lat="28.2140830" lon="-16.6789480">
        <ele>1963.9</ele>
        <time>2020-11-11T19:39:23Z</time>
      </trkpt>
      <trkpt lat="28.2140830" lon="-16.6789480">
        <ele>1963.9</ele>
        <time>2020-11-11T19:39:24Z</time>
      </trkpt>
      <trkpt lat="28.2140800" lon="-16.6790450">
        <ele>1963.9</ele>
        <time>2020-11-11T19:39:25Z</time>
      </trkpt>
      <trkpt lat="28.2140800" lon="-16.6790450">
        <ele>1963.9</ele>
        <time>2020-11-11T19:39:26Z</time>
      </trkpt>
      <trkpt lat="28.2140730" lon="-16.6791420">
        <ele>1963.9</ele>
        <time>2020-11-11T19:39:27Z</time>
      </trkpt>
      <trkpt lat="28.2140700" lon="-16.6791920">
        <ele>1963.9</ele>
        <time>2020-11-11T19:39:28Z</time>
      </trkpt>
      <trkpt lat="28.2140700" lon="-16.6791920">
        <ele>1963.9</ele>
        <time>2020-11-11T19:39:29Z</time>
      </trkpt>
      <trkpt lat="28.2140630" lon="-16.6792900">
        <ele>1963.9</ele>
        <time>2020-11-11T19:39:30Z</time>
      </trkpt>
      <trkpt lat="28.2140630" lon="-16.6792900">
        <ele>1963.9</ele>
        <time>2020-11-11T19:39:31Z</time>
      </trkpt>
      <trkpt lat="28.2140580" lon="-16.6793880">
        <ele>1964.9</ele>
        <time>2020-11-11T19:39:32Z</time>
      </trkpt>
      <trkpt lat="28.2140580" lon="-16.6793880">
        <ele>1964.9</ele>
        <time>2020-11-11T19:39:33Z</time>
      </trkpt>
      <trkpt lat="28.2140520" lon="-16.6794880">
        <ele>1964.9</ele>
        <time>2020-11-11T19:39:34Z</time>
      </trkpt>
      <trkpt lat="28.2140520" lon="-16.6794880">
        <ele>1964.9</ele>
        <time>2020-11-11T19:39:35Z</time>
      </trkpt>
      <trkpt lat="28.2140450" lon="-16.6795830">
        <ele>1964.9</ele>
        <time>2020-11-11T19:39:36Z</time>
      </trkpt>
      <trkpt lat="28.2140450" lon="-16.6795830">
        <ele>1964.9</ele>
        <time>2020-11-11T19:39:37Z</time>
      </trkpt>
      <trkpt lat="28.2140350" lon="-16.6796770">
        <ele>1964.9</ele>
        <time>2020-11-11T19:39:38Z</time>
      </trkpt>
      <trkpt lat="28.2140350" lon="-16.6796770">
        <ele>1964.9</ele>
        <time>2020-11-11T19:39:39Z</time>
      </trkpt>
      <trkpt lat="28.2140250" lon="-16.6797670">
        <ele>1964.9</ele>
        <time>2020-11-11T19:39:40Z</time>
      </trkpt>
      <trkpt lat="28.2140250" lon="-16.6797670">
        <ele>1964.9</ele>
        <time>2020-11-11T19:39:41Z</time>
      </trkpt>
      <trkpt lat="28.2140070" lon="-16.6798500">
        <ele>1964.9</ele>
        <time>2020-11-11T19:39:42Z</time>
      </trkpt>
      <trkpt lat="28.2139950" lon="-16.6798900">
        <ele>1964.9</ele>
        <time>2020-11-11T19:39:43Z</time>
      </trkpt>
      <trkpt lat="28.2139950" lon="-16.6798900">
        <ele>1964.9</ele>
        <time>2020-11-11T19:39:44Z</time>
      </trkpt>
      <trkpt lat="28.2139730" lon="-16.6799750">
        <ele>1964.9</ele>
        <time>2020-11-11T19:39:45Z</time>
      </trkpt>
      <trkpt lat="28.2139730" lon="-16.6799750">
        <ele>1964.9</ele>
        <time>2020-11-11T19:39:46Z</time>
      </trkpt>
      <trkpt lat="28.2139520" lon="-16.6800600">
        <ele>1964.9</ele>
        <time>2020-11-11T19:39:47Z</time>
      </trkpt>
      <trkpt lat="28.2139520" lon="-16.6800600">
        <ele>1964.9</ele>
        <time>2020-11-11T19:39:48Z</time>
      </trkpt>
      <trkpt lat="28.2139350" lon="-16.6801430">
        <ele>1964.9</ele>
        <time>2020-11-11T19:39:49Z</time>
      </trkpt>
      <trkpt lat="28.2139230" lon="-16.6801830">
        <ele>1964.9</ele>
        <time>2020-11-11T19:39:50Z</time>
      </trkpt>
      <trkpt lat="28.2139230" lon="-16.6801830">
        <ele>1965.9</ele>
        <time>2020-11-11T19:39:51Z</time>
      </trkpt>
      <trkpt lat="28.2138870" lon="-16.6802500">
        <ele>1965.9</ele>
        <time>2020-11-11T19:39:52Z</time>
      </trkpt>
      <trkpt lat="28.2138680" lon="-16.6802870">
        <ele>1965.9</ele>
        <time>2020-11-11T19:39:53Z</time>
      </trkpt>
      <trkpt lat="28.2138680" lon="-16.6802870">
        <ele>1965.9</ele>
        <time>2020-11-11T19:39:54Z</time>
      </trkpt>
      <trkpt lat="28.2138330" lon="-16.6803580">
        <ele>1965.9</ele>
        <time>2020-11-11T19:39:55Z</time>
      </trkpt>
      <trkpt lat="28.2138330" lon="-16.6803580">
        <ele>1965.9</ele>
        <time>2020-11-11T19:39:56Z</time>
      </trkpt>
      <trkpt lat="28.2137820" lon="-16.6804170">
        <ele>1965.9</ele>
        <time>2020-11-11T19:39:57Z</time>
      </trkpt>
      <trkpt lat="28.2137820" lon="-16.6804170">
        <ele>1965.9</ele>
        <time>2020-11-11T19:39:58Z</time>
      </trkpt>
      <trkpt lat="28.2137380" lon="-16.6804870">
        <ele>1965.9</ele>
        <time>2020-11-11T19:39:59Z</time>
      </trkpt>
      <trkpt lat="28.2137380" lon="-16.6804870">
        <ele>1965.9</ele>
        <time>2020-11-11T19:40:00Z</time>
      </trkpt>
      <trkpt lat="28.2137030" lon="-16.6805520">
        <ele>1965.9</ele>
        <time>2020-11-11T19:40:01Z</time>
      </trkpt>
      <trkpt lat="28.2137030" lon="-16.6805520">
        <ele>1965.9</ele>
        <time>2020-11-11T19:40:02Z</time>
      </trkpt>
      <trkpt lat="28.2136630" lon="-16.6806080">
        <ele>1965.9</ele>
        <time>2020-11-11T19:40:03Z</time>
      </trkpt>
      <trkpt lat="28.2136400" lon="-16.6806330">
        <ele>1965.9</ele>
        <time>2020-11-11T19:40:04Z</time>
      </trkpt>
      <trkpt lat="28.2136180" lon="-16.6806600">
        <ele>1965.9</ele>
        <time>2020-11-11T19:40:05Z</time>
      </trkpt>
      <trkpt lat="28.2136180" lon="-16.6806600">
        <ele>1966.9</ele>
        <time>2020-11-11T19:40:06Z</time>
      </trkpt>
      <trkpt lat="28.2135800" lon="-16.6807180">
        <ele>1966.9</ele>
        <time>2020-11-11T19:40:07Z</time>
      </trkpt>
      <trkpt lat="28.2135800" lon="-16.6807180">
        <ele>1966.9</ele>
        <time>2020-11-11T19:40:08Z</time>
      </trkpt>
      <trkpt lat="28.2135320" lon="-16.6807670">
        <ele>1966.9</ele>
        <time>2020-11-11T19:40:09Z</time>
      </trkpt>
      <trkpt lat="28.2135320" lon="-16.6807670">
        <ele>1967.9</ele>
        <time>2020-11-11T19:40:10Z</time>
      </trkpt>
      <trkpt lat="28.2134830" lon="-16.6808070">
        <ele>1967.9</ele>
        <time>2020-11-11T19:40:11Z</time>
      </trkpt>
      <trkpt lat="28.2134830" lon="-16.6808070">
        <ele>1967.9</ele>
        <time>2020-11-11T19:40:12Z</time>
      </trkpt>
      <trkpt lat="28.2134320" lon="-16.6808400">
        <ele>1967.9</ele>
        <time>2020-11-11T19:40:13Z</time>
      </trkpt>
      <trkpt lat="28.2134320" lon="-16.6808400">
        <ele>1968.9</ele>
        <time>2020-11-11T19:40:14Z</time>
      </trkpt>
      <trkpt lat="28.2133800" lon="-16.6808680">
        <ele>1968.9</ele>
        <time>2020-11-11T19:40:15Z</time>
      </trkpt>
      <trkpt lat="28.2133800" lon="-16.6808680">
        <ele>1968.9</ele>
        <time>2020-11-11T19:40:16Z</time>
      </trkpt>
      <trkpt lat="28.2133280" lon="-16.6808920">
        <ele>1968.9</ele>
        <time>2020-11-11T19:40:17Z</time>
      </trkpt>
      <trkpt lat="28.2133280" lon="-16.6808920">
        <ele>1968.9</ele>
        <time>2020-11-11T19:40:18Z</time>
      </trkpt>
      <trkpt lat="28.2132780" lon="-16.6809170">
        <ele>1968.9</ele>
        <time>2020-11-11T19:40:19Z</time>
      </trkpt>
      <trkpt lat="28.2132780" lon="-16.6809170">
        <ele>1969.9</ele>
        <time>2020-11-11T19:40:20Z</time>
      </trkpt>
      <trkpt lat="28.2132280" lon="-16.6809400">
        <ele>1969.9</ele>
        <time>2020-11-11T19:40:21Z</time>
      </trkpt>
      <trkpt lat="28.2132050" lon="-16.6809500">
        <ele>1969.9</ele>
        <time>2020-11-11T19:40:22Z</time>
      </trkpt>
      <trkpt lat="28.2132050" lon="-16.6809500">
        <ele>1969.9</ele>
        <time>2020-11-11T19:40:23Z</time>
      </trkpt>
      <trkpt lat="28.2131550" lon="-16.6809680">
        <ele>1970.9</ele>
        <time>2020-11-11T19:40:24Z</time>
      </trkpt>
      <trkpt lat="28.2131300" lon="-16.6809780">
        <ele>1970.9</ele>
        <time>2020-11-11T19:40:25Z</time>
      </trkpt>
      <trkpt lat="28.2131300" lon="-16.6809780">
        <ele>1970.9</ele>
        <time>2020-11-11T19:40:26Z</time>
      </trkpt>
      <trkpt lat="28.2130820" lon="-16.6809970">
        <ele>1971.9</ele>
        <time>2020-11-11T19:40:27Z</time>
      </trkpt>
      <trkpt lat="28.2130820" lon="-16.6809970">
        <ele>1971.9</ele>
        <time>2020-11-11T19:40:28Z</time>
      </trkpt>
      <trkpt lat="28.2130320" lon="-16.6810100">
        <ele>1971.9</ele>
        <time>2020-11-11T19:40:29Z</time>
      </trkpt>
      <trkpt lat="28.2130320" lon="-16.6810100">
        <ele>1971.9</ele>
        <time>2020-11-11T19:40:30Z</time>
      </trkpt>
      <trkpt lat="28.2129820" lon="-16.6810100">
        <ele>1971.9</ele>
        <time>2020-11-11T19:40:31Z</time>
      </trkpt>
      <trkpt lat="28.2129580" lon="-16.6810100">
        <ele>1971.9</ele>
        <time>2020-11-11T19:40:32Z</time>
      </trkpt>
      <trkpt lat="28.2129580" lon="-16.6810100">
        <ele>1972.9</ele>
        <time>2020-11-11T19:40:33Z</time>
      </trkpt>
      <trkpt lat="28.2129150" lon="-16.6810070">
        <ele>1972.9</ele>
        <time>2020-11-11T19:40:34Z</time>
      </trkpt>
      <trkpt lat="28.2128980" lon="-16.6810080">
        <ele>1972.9</ele>
        <time>2020-11-11T19:40:35Z</time>
      </trkpt>
      <trkpt lat="28.2128980" lon="-16.6810080">
        <ele>1972.9</ele>
        <time>2020-11-11T19:40:36Z</time>
      </trkpt>
      <trkpt lat="28.2128600" lon="-16.6810050">
        <ele>1973.9</ele>
        <time>2020-11-11T19:40:37Z</time>
      </trkpt>
      <trkpt lat="28.2128400" lon="-16.6809980">
        <ele>1973.9</ele>
        <time>2020-11-11T19:40:38Z</time>
      </trkpt>
      <trkpt lat="28.2128400" lon="-16.6809980">
        <ele>1973.9</ele>
        <time>2020-11-11T19:40:39Z</time>
      </trkpt>
      <trkpt lat="28.2128000" lon="-16.6809880">
        <ele>1973.9</ele>
        <time>2020-11-11T19:40:40Z</time>
      </trkpt>
      <trkpt lat="28.2128000" lon="-16.6809880">
        <ele>1973.9</ele>
        <time>2020-11-11T19:40:41Z</time>
      </trkpt>
      <trkpt lat="28.2127650" lon="-16.6809970">
        <ele>1973.9</ele>
        <time>2020-11-11T19:40:42Z</time>
      </trkpt>
      <trkpt lat="28.2127470" lon="-16.6809980">
        <ele>1974.9</ele>
        <time>2020-11-11T19:40:43Z</time>
      </trkpt>
      <trkpt lat="28.2127470" lon="-16.6809980">
        <ele>1974.9</ele>
        <time>2020-11-11T19:40:44Z</time>
      </trkpt>
      <trkpt lat="28.2127080" lon="-16.6809950">
        <ele>1974.9</ele>
        <time>2020-11-11T19:40:45Z</time>
      </trkpt>
      <trkpt lat="28.2127080" lon="-16.6809950">
        <ele>1974.9</ele>
        <time>2020-11-11T19:40:46Z</time>
      </trkpt>
      <trkpt lat="28.2126720" lon="-16.6809880">
        <ele>1974.9</ele>
        <time>2020-11-11T19:40:47Z</time>
      </trkpt>
      <trkpt lat="28.2126550" lon="-16.6809920">
        <ele>1974.9</ele>
        <time>2020-11-11T19:40:48Z</time>
      </trkpt>
      <trkpt lat="28.2126550" lon="-16.6809920">
        <ele>1974.9</ele>
        <time>2020-11-11T19:40:49Z</time>
      </trkpt>
      <trkpt lat="28.2126400" lon="-16.6810080">
        <ele>1974.9</ele>
        <time>2020-11-11T19:40:50Z</time>
      </trkpt>
      <trkpt lat="28.2126400" lon="-16.6810080">
        <ele>1975.9</ele>
        <time>2020-11-11T19:40:51Z</time>
      </trkpt>
      <trkpt lat="28.2126450" lon="-16.6810170">
        <ele>1975.9</ele>
        <time>2020-11-11T19:41:16Z</time>
      </trkpt>
      <trkpt lat="28.2126230" lon="-16.6809900">
        <ele>1975.9</ele>
        <time>2020-11-11T19:41:17Z</time>
      </trkpt>
      <trkpt lat="28.2126220" lon="-16.6809900">
        <ele>1975.9</ele>
        <time>2020-11-11T19:41:18Z</time>
      </trkpt>
      <trkpt lat="28.2126220" lon="-16.6809900">
        <ele>1975.9</ele>
        <time>2020-11-11T19:41:36Z</time>
      </trkpt>
      <trkpt lat="28.2125670" lon="-16.6809720">
        <ele>1975.9</ele>
        <time>2020-11-11T19:41:37Z</time>
      </trkpt>
      <trkpt lat="28.2125670" lon="-16.6809720">
        <ele>1975.9</ele>
        <time>2020-11-11T19:41:38Z</time>
      </trkpt>
      <trkpt lat="28.2125670" lon="-16.6809720">
        <ele>1975.9</ele>
        <time>2020-11-11T19:41:39Z</time>
      </trkpt>
      <trkpt lat="28.2125270" lon="-16.6809680">
        <ele>1976.9</ele>
        <time>2020-11-11T19:41:40Z</time>
      </trkpt>
      <trkpt lat="28.2125270" lon="-16.6809680">
        <ele>1976.9</ele>
        <time>2020-11-11T19:41:41Z</time>
      </trkpt>
      <trkpt lat="28.2124870" lon="-16.6809580">
        <ele>1976.9</ele>
        <time>2020-11-11T19:41:42Z</time>
      </trkpt>
      <trkpt lat="28.2124870" lon="-16.6809580">
        <ele>1976.9</ele>
        <time>2020-11-11T19:41:43Z</time>
      </trkpt>
      <trkpt lat="28.2124430" lon="-16.6809480">
        <ele>1976.9</ele>
        <time>2020-11-11T19:41:44Z</time>
      </trkpt>
      <trkpt lat="28.2124000" lon="-16.6809380">
        <ele>1976.9</ele>
        <time>2020-11-11T19:41:45Z</time>
      </trkpt>
      <trkpt lat="28.2124000" lon="-16.6809380">
        <ele>1976.9</ele>
        <time>2020-11-11T19:41:46Z</time>
      </trkpt>
      <trkpt lat="28.2123600" lon="-16.6809220">
        <ele>1976.9</ele>
        <time>2020-11-11T19:41:47Z</time>
      </trkpt>
      <trkpt lat="28.2123600" lon="-16.6809220">
        <ele>1976.9</ele>
        <time>2020-11-11T19:41:48Z</time>
      </trkpt>
      <trkpt lat="28.2123390" lon="-16.6809140">
        <ele>1976.9</ele>
        <time>2020-11-11T19:41:49Z</time>
      </trkpt>
      <trkpt lat="28.2123180" lon="-16.6809070">
        <ele>1976.9</ele>
        <time>2020-11-11T19:41:50Z</time>
      </trkpt>
      <trkpt lat="28.2122750" lon="-16.6808950">
        <ele>1976.9</ele>
        <time>2020-11-11T19:41:51Z</time>
      </trkpt>
      <trkpt lat="28.2122750" lon="-16.6808950">
        <ele>1976.9</ele>
        <time>2020-11-11T19:41:52Z</time>
      </trkpt>
      <trkpt lat="28.2122350" lon="-16.6808770">
        <ele>1976.9</ele>
        <time>2020-11-11T19:41:53Z</time>
      </trkpt>
      <trkpt lat="28.2122350" lon="-16.6808770">
        <ele>1976.9</ele>
        <time>2020-11-11T19:41:54Z</time>
      </trkpt>
      <trkpt lat="28.2121920" lon="-16.6808600">
        <ele>1976.9</ele>
        <time>2020-11-11T19:41:55Z</time>
      </trkpt>
      <trkpt lat="28.2121920" lon="-16.6808600">
        <ele>1978.9</ele>
        <time>2020-11-11T19:41:56Z</time>
      </trkpt>
      <trkpt lat="28.2121920" lon="-16.6808600">
        <ele>1978.9</ele>
        <time>2020-11-11T19:41:57Z</time>
      </trkpt>
      <trkpt lat="28.2121300" lon="-16.6808320">
        <ele>1978.9</ele>
        <time>2020-11-11T19:41:58Z</time>
      </trkpt>
      <trkpt lat="28.2121300" lon="-16.6808320">
        <ele>1978.9</ele>
        <time>2020-11-11T19:41:59Z</time>
      </trkpt>
      <trkpt lat="28.2120870" lon="-16.6808150">
        <ele>1978.9</ele>
        <time>2020-11-11T19:42:00Z</time>
      </trkpt>
      <trkpt lat="28.2120650" lon="-16.6808080">
        <ele>1978.9</ele>
        <time>2020-11-11T19:42:01Z</time>
      </trkpt>
      <trkpt lat="28.2120650" lon="-16.6808080">
        <ele>1978.9</ele>
        <time>2020-11-11T19:42:02Z</time>
      </trkpt>
      <trkpt lat="28.2120650" lon="-16.6808080">
        <ele>1978.9</ele>
        <time>2020-11-11T19:42:03Z</time>
      </trkpt>
      <trkpt lat="28.2120230" lon="-16.6807900">
        <ele>1978.9</ele>
        <time>2020-11-11T19:42:04Z</time>
      </trkpt>
      <trkpt lat="28.2120020" lon="-16.6807800">
        <ele>1978.9</ele>
        <time>2020-11-11T19:42:05Z</time>
      </trkpt>
      <trkpt lat="28.2119600" lon="-16.6807600">
        <ele>1978.9</ele>
        <time>2020-11-11T19:42:06Z</time>
      </trkpt>
      <trkpt lat="28.2119370" lon="-16.6807520">
        <ele>1978.9</ele>
        <time>2020-11-11T19:42:07Z</time>
      </trkpt>
      <trkpt lat="28.2119370" lon="-16.6807520">
        <ele>1978.9</ele>
        <time>2020-11-11T19:42:08Z</time>
      </trkpt>
      <trkpt lat="28.2119150" lon="-16.6807400">
        <ele>1978.9</ele>
        <time>2020-11-11T19:42:09Z</time>
      </trkpt>
      <trkpt lat="28.2118920" lon="-16.6807280">
        <ele>1979.9</ele>
        <time>2020-11-11T19:42:10Z</time>
      </trkpt>
      <trkpt lat="28.2118920" lon="-16.6807280">
        <ele>1979.9</ele>
        <time>2020-11-11T19:42:11Z</time>
      </trkpt>
      <trkpt lat="28.2118390" lon="-16.6807020">
        <ele>1979.9</ele>
        <time>2020-11-11T19:42:12Z</time>
      </trkpt>
      <trkpt lat="28.2118280" lon="-16.6806970">
        <ele>1979.9</ele>
        <time>2020-11-11T19:42:13Z</time>
      </trkpt>
      <trkpt lat="28.2117850" lon="-16.6806770">
        <ele>1979.9</ele>
        <time>2020-11-11T19:42:14Z</time>
      </trkpt>
      <trkpt lat="28.2117850" lon="-16.6806770">
        <ele>1979.9</ele>
        <time>2020-11-11T19:42:15Z</time>
      </trkpt>
      <trkpt lat="28.2117850" lon="-16.6806770">
        <ele>1979.9</ele>
        <time>2020-11-11T19:42:16Z</time>
      </trkpt>
      <trkpt lat="28.2117430" lon="-16.6806550">
        <ele>1979.9</ele>
        <time>2020-11-11T19:42:17Z</time>
      </trkpt>
      <trkpt lat="28.2117430" lon="-16.6806550">
        <ele>1979.9</ele>
        <time>2020-11-11T19:42:18Z</time>
      </trkpt>
      <trkpt lat="28.2117000" lon="-16.6806370">
        <ele>1979.9</ele>
        <time>2020-11-11T19:42:19Z</time>
      </trkpt>
      <trkpt lat="28.2116550" lon="-16.6806220">
        <ele>1980.9</ele>
        <time>2020-11-11T19:42:20Z</time>
      </trkpt>
      <trkpt lat="28.2116330" lon="-16.6806130">
        <ele>1980.9</ele>
        <time>2020-11-11T19:42:21Z</time>
      </trkpt>
      <trkpt lat="28.2116120" lon="-16.6806020">
        <ele>1980.9</ele>
        <time>2020-11-11T19:42:22Z</time>
      </trkpt>
      <trkpt lat="28.2116120" lon="-16.6806020">
        <ele>1980.9</ele>
        <time>2020-11-11T19:42:23Z</time>
      </trkpt>
      <trkpt lat="28.2115680" lon="-16.6805830">
        <ele>1980.9</ele>
        <time>2020-11-11T19:42:24Z</time>
      </trkpt>
      <trkpt lat="28.2115680" lon="-16.6805830">
        <ele>1980.9</ele>
        <time>2020-11-11T19:42:25Z</time>
      </trkpt>
      <trkpt lat="28.2115280" lon="-16.6805650">
        <ele>1981.9</ele>
        <time>2020-11-11T19:42:26Z</time>
      </trkpt>
      <trkpt lat="28.2115280" lon="-16.6805650">
        <ele>1981.9</ele>
        <time>2020-11-11T19:42:27Z</time>
      </trkpt>
      <trkpt lat="28.2114850" lon="-16.6805470">
        <ele>1981.9</ele>
        <time>2020-11-11T19:42:28Z</time>
      </trkpt>
      <trkpt lat="28.2114850" lon="-16.6805470">
        <ele>1981.9</ele>
        <time>2020-11-11T19:42:29Z</time>
      </trkpt>
      <trkpt lat="28.2114650" lon="-16.6805370">
        <ele>1981.9</ele>
        <time>2020-11-11T19:42:30Z</time>
      </trkpt>
      <trkpt lat="28.2114650" lon="-16.6805370">
        <ele>1981.9</ele>
        <time>2020-11-11T19:42:31Z</time>
      </trkpt>
      <trkpt lat="28.2114170" lon="-16.6805220">
        <ele>1981.9</ele>
        <time>2020-11-11T19:42:32Z</time>
      </trkpt>
      <trkpt lat="28.2114170" lon="-16.6805220">
        <ele>1981.9</ele>
        <time>2020-11-11T19:42:33Z</time>
      </trkpt>
      <trkpt lat="28.2113730" lon="-16.6805000">
        <ele>1981.9</ele>
        <time>2020-11-11T19:42:34Z</time>
      </trkpt>
      <trkpt lat="28.2113530" lon="-16.6804920">
        <ele>1981.9</ele>
        <time>2020-11-11T19:42:35Z</time>
      </trkpt>
      <trkpt lat="28.2113130" lon="-16.6804800">
        <ele>1981.9</ele>
        <time>2020-11-11T19:42:36Z</time>
      </trkpt>
      <trkpt lat="28.2112930" lon="-16.6804750">
        <ele>1981.9</ele>
        <time>2020-11-11T19:42:37Z</time>
      </trkpt>
      <trkpt lat="28.2112930" lon="-16.6804750">
        <ele>1982.9</ele>
        <time>2020-11-11T19:42:38Z</time>
      </trkpt>
      <trkpt lat="28.2112930" lon="-16.6804750">
        <ele>1982.9</ele>
        <time>2020-11-11T19:42:39Z</time>
      </trkpt>
      <trkpt lat="28.2112520" lon="-16.6804670">
        <ele>1982.9</ele>
        <time>2020-11-11T19:42:40Z</time>
      </trkpt>
      <trkpt lat="28.2112100" lon="-16.6804620">
        <ele>1982.9</ele>
        <time>2020-11-11T19:42:41Z</time>
      </trkpt>
      <trkpt lat="28.2112100" lon="-16.6804620">
        <ele>1982.9</ele>
        <time>2020-11-11T19:42:42Z</time>
      </trkpt>
      <trkpt lat="28.2111680" lon="-16.6804550">
        <ele>1982.9</ele>
        <time>2020-11-11T19:42:43Z</time>
      </trkpt>
      <trkpt lat="28.2111680" lon="-16.6804550">
        <ele>1982.9</ele>
        <time>2020-11-11T19:42:44Z</time>
      </trkpt>
      <trkpt lat="28.2111680" lon="-16.6804550">
        <ele>1982.9</ele>
        <time>2020-11-11T19:42:45Z</time>
      </trkpt>
      <trkpt lat="28.2111280" lon="-16.6804450">
        <ele>1982.9</ele>
        <time>2020-11-11T19:42:46Z</time>
      </trkpt>
      <trkpt lat="28.2111080" lon="-16.6804430">
        <ele>1983.9</ele>
        <time>2020-11-11T19:42:47Z</time>
      </trkpt>
      <trkpt lat="28.2111080" lon="-16.6804430">
        <ele>1983.9</ele>
        <time>2020-11-11T19:42:48Z</time>
      </trkpt>
      <trkpt lat="28.2110480" lon="-16.6804500">
        <ele>1983.9</ele>
        <time>2020-11-11T19:42:49Z</time>
      </trkpt>
      <trkpt lat="28.2110480" lon="-16.6804500">
        <ele>1983.9</ele>
        <time>2020-11-11T19:42:50Z</time>
      </trkpt>
      <trkpt lat="28.2110480" lon="-16.6804500">
        <ele>1983.9</ele>
        <time>2020-11-11T19:42:51Z</time>
      </trkpt>
      <trkpt lat="28.2110070" lon="-16.6804520">
        <ele>1983.9</ele>
        <time>2020-11-11T19:42:52Z</time>
      </trkpt>
      <trkpt lat="28.2109830" lon="-16.6804500">
        <ele>1984.9</ele>
        <time>2020-11-11T19:42:53Z</time>
      </trkpt>
      <trkpt lat="28.2109370" lon="-16.6804480">
        <ele>1984.9</ele>
        <time>2020-11-11T19:42:54Z</time>
      </trkpt>
      <trkpt lat="28.2109370" lon="-16.6804480">
        <ele>1984.9</ele>
        <time>2020-11-11T19:42:55Z</time>
      </trkpt>
      <trkpt lat="28.2109150" lon="-16.6804500">
        <ele>1984.9</ele>
        <time>2020-11-11T19:42:56Z</time>
      </trkpt>
      <trkpt lat="28.2109150" lon="-16.6804500">
        <ele>1984.9</ele>
        <time>2020-11-11T19:42:57Z</time>
      </trkpt>
      <trkpt lat="28.2108730" lon="-16.6804500">
        <ele>1984.9</ele>
        <time>2020-11-11T19:42:58Z</time>
      </trkpt>
      <trkpt lat="28.2108280" lon="-16.6804520">
        <ele>1984.9</ele>
        <time>2020-11-11T19:42:59Z</time>
      </trkpt>
      <trkpt lat="28.2108280" lon="-16.6804520">
        <ele>1985.9</ele>
        <time>2020-11-11T19:43:00Z</time>
      </trkpt>
      <trkpt lat="28.2107850" lon="-16.6804570">
        <ele>1985.9</ele>
        <time>2020-11-11T19:43:01Z</time>
      </trkpt>
      <trkpt lat="28.2107850" lon="-16.6804570">
        <ele>1985.9</ele>
        <time>2020-11-11T19:43:02Z</time>
      </trkpt>
      <trkpt lat="28.2107470" lon="-16.6804470">
        <ele>1985.9</ele>
        <time>2020-11-11T19:43:03Z</time>
      </trkpt>
      <trkpt lat="28.2107470" lon="-16.6804470">
        <ele>1985.9</ele>
        <time>2020-11-11T19:43:04Z</time>
      </trkpt>
      <trkpt lat="28.2107080" lon="-16.6804250">
        <ele>1985.9</ele>
        <time>2020-11-11T19:43:05Z</time>
      </trkpt>
      <trkpt lat="28.2107080" lon="-16.6804250">
        <ele>1986.9</ele>
        <time>2020-11-11T19:43:06Z</time>
      </trkpt>
      <trkpt lat="28.2106650" lon="-16.6804250">
        <ele>1986.9</ele>
        <time>2020-11-11T19:43:07Z</time>
      </trkpt>
      <trkpt lat="28.2106650" lon="-16.6804250">
        <ele>1986.9</ele>
        <time>2020-11-11T19:43:08Z</time>
      </trkpt>
      <trkpt lat="28.2106250" lon="-16.6804350">
        <ele>1986.9</ele>
        <time>2020-11-11T19:43:09Z</time>
      </trkpt>
      <trkpt lat="28.2106250" lon="-16.6804350">
        <ele>1987.9</ele>
        <time>2020-11-11T19:43:10Z</time>
      </trkpt>
      <trkpt lat="28.2106250" lon="-16.6804350">
        <ele>1987.9</ele>
        <time>2020-11-11T19:43:11Z</time>
      </trkpt>
      <trkpt lat="28.2105830" lon="-16.6804420">
        <ele>1987.9</ele>
        <time>2020-11-11T19:43:12Z</time>
      </trkpt>
      <trkpt lat="28.2105830" lon="-16.6804420">
        <ele>1987.9</ele>
        <time>2020-11-11T19:43:13Z</time>
      </trkpt>
      <trkpt lat="28.2105420" lon="-16.6804420">
        <ele>1987.9</ele>
        <time>2020-11-11T19:43:14Z</time>
      </trkpt>
      <trkpt lat="28.2104980" lon="-16.6804400">
        <ele>1987.9</ele>
        <time>2020-11-11T19:43:15Z</time>
      </trkpt>
      <trkpt lat="28.2104780" lon="-16.6804370">
        <ele>1988.9</ele>
        <time>2020-11-11T19:43:16Z</time>
      </trkpt>
      <trkpt lat="28.2104780" lon="-16.6804370">
        <ele>1988.9</ele>
        <time>2020-11-11T19:43:17Z</time>
      </trkpt>
      <trkpt lat="28.2104780" lon="-16.6804370">
        <ele>1988.9</ele>
        <time>2020-11-11T19:43:18Z</time>
      </trkpt>
      <trkpt lat="28.2104380" lon="-16.6804230">
        <ele>1988.9</ele>
        <time>2020-11-11T19:43:19Z</time>
      </trkpt>
      <trkpt lat="28.2103930" lon="-16.6804170">
        <ele>1988.9</ele>
        <time>2020-11-11T19:43:20Z</time>
      </trkpt>
      <trkpt lat="28.2103930" lon="-16.6804170">
        <ele>1989.9</ele>
        <time>2020-11-11T19:43:21Z</time>
      </trkpt>
      <trkpt lat="28.2103450" lon="-16.6804070">
        <ele>1989.9</ele>
        <time>2020-11-11T19:43:22Z</time>
      </trkpt>
      <trkpt lat="28.2103450" lon="-16.6804070">
        <ele>1989.9</ele>
        <time>2020-11-11T19:43:23Z</time>
      </trkpt>
      <trkpt lat="28.2103220" lon="-16.6804020">
        <ele>1989.9</ele>
        <time>2020-11-11T19:43:24Z</time>
      </trkpt>
      <trkpt lat="28.2102780" lon="-16.6803880">
        <ele>1989.9</ele>
        <time>2020-11-11T19:43:25Z</time>
      </trkpt>
      <trkpt lat="28.2102780" lon="-16.6803880">
        <ele>1989.9</ele>
        <time>2020-11-11T19:43:26Z</time>
      </trkpt>
      <trkpt lat="28.2102350" lon="-16.6803770">
        <ele>1989.9</ele>
        <time>2020-11-11T19:43:27Z</time>
      </trkpt>
      <trkpt lat="28.2102350" lon="-16.6803770">
        <ele>1989.9</ele>
        <time>2020-11-11T19:43:28Z</time>
      </trkpt>
      <trkpt lat="28.2101970" lon="-16.6803650">
        <ele>1989.9</ele>
        <time>2020-11-11T19:43:29Z</time>
      </trkpt>
      <trkpt lat="28.2101970" lon="-16.6803650">
        <ele>1989.9</ele>
        <time>2020-11-11T19:43:30Z</time>
      </trkpt>
      <trkpt lat="28.2101970" lon="-16.6803650">
        <ele>1990.9</ele>
        <time>2020-11-11T19:43:31Z</time>
      </trkpt>
      <trkpt lat="28.2101580" lon="-16.6803520">
        <ele>1990.9</ele>
        <time>2020-11-11T19:43:32Z</time>
      </trkpt>
      <trkpt lat="28.2101580" lon="-16.6803520">
        <ele>1990.9</ele>
        <time>2020-11-11T19:43:33Z</time>
      </trkpt>
      <trkpt lat="28.2100980" lon="-16.6803300">
        <ele>1990.9</ele>
        <time>2020-11-11T19:43:34Z</time>
      </trkpt>
      <trkpt lat="28.2100980" lon="-16.6803300">
        <ele>1990.9</ele>
        <time>2020-11-11T19:43:35Z</time>
      </trkpt>
      <trkpt lat="28.2100600" lon="-16.6803130">
        <ele>1990.9</ele>
        <time>2020-11-11T19:43:36Z</time>
      </trkpt>
      <trkpt lat="28.2100600" lon="-16.6803130">
        <ele>1991.9</ele>
        <time>2020-11-11T19:43:37Z</time>
      </trkpt>
      <trkpt lat="28.2100400" lon="-16.6803070">
        <ele>1991.9</ele>
        <time>2020-11-11T19:43:38Z</time>
      </trkpt>
      <trkpt lat="28.2100400" lon="-16.6803070">
        <ele>1991.9</ele>
        <time>2020-11-11T19:43:39Z</time>
      </trkpt>
      <trkpt lat="28.2100020" lon="-16.6802950">
        <ele>1991.9</ele>
        <time>2020-11-11T19:43:40Z</time>
      </trkpt>
      <trkpt lat="28.2099620" lon="-16.6802800">
        <ele>1991.9</ele>
        <time>2020-11-11T19:43:41Z</time>
      </trkpt>
      <trkpt lat="28.2099430" lon="-16.6802700">
        <ele>1991.9</ele>
        <time>2020-11-11T19:43:42Z</time>
      </trkpt>
      <trkpt lat="28.2099430" lon="-16.6802700">
        <ele>1992.9</ele>
        <time>2020-11-11T19:43:43Z</time>
      </trkpt>
      <trkpt lat="28.2099220" lon="-16.6802620">
        <ele>1992.9</ele>
        <time>2020-11-11T19:43:44Z</time>
      </trkpt>
      <trkpt lat="28.2098770" lon="-16.6802550">
        <ele>1992.9</ele>
        <time>2020-11-11T19:43:45Z</time>
      </trkpt>
      <trkpt lat="28.2098770" lon="-16.6802550">
        <ele>1992.9</ele>
        <time>2020-11-11T19:43:46Z</time>
      </trkpt>
      <trkpt lat="28.2098770" lon="-16.6802550">
        <ele>1992.9</ele>
        <time>2020-11-11T19:43:47Z</time>
      </trkpt>
      <trkpt lat="28.2098350" lon="-16.6802400">
        <ele>1992.9</ele>
        <time>2020-11-11T19:43:48Z</time>
      </trkpt>
      <trkpt lat="28.2097950" lon="-16.6802250">
        <ele>1993.9</ele>
        <time>2020-11-11T19:43:49Z</time>
      </trkpt>
      <trkpt lat="28.2097950" lon="-16.6802250">
        <ele>1993.9</ele>
        <time>2020-11-11T19:43:50Z</time>
      </trkpt>
      <trkpt lat="28.2097530" lon="-16.6802200">
        <ele>1993.9</ele>
        <time>2020-11-11T19:43:51Z</time>
      </trkpt>
      <trkpt lat="28.2097530" lon="-16.6802200">
        <ele>1993.9</ele>
        <time>2020-11-11T19:43:52Z</time>
      </trkpt>
      <trkpt lat="28.2097530" lon="-16.6802200">
        <ele>1993.9</ele>
        <time>2020-11-11T19:43:53Z</time>
      </trkpt>
      <trkpt lat="28.2097150" lon="-16.6802050">
        <ele>1993.9</ele>
        <time>2020-11-11T19:43:54Z</time>
      </trkpt>
      <trkpt lat="28.2097150" lon="-16.6802050">
        <ele>1993.9</ele>
        <time>2020-11-11T19:43:55Z</time>
      </trkpt>
      <trkpt lat="28.2096750" lon="-16.6801920">
        <ele>1993.9</ele>
        <time>2020-11-11T19:43:56Z</time>
      </trkpt>
      <trkpt lat="28.2096750" lon="-16.6801920">
        <ele>1993.9</ele>
        <time>2020-11-11T19:43:57Z</time>
      </trkpt>
      <trkpt lat="28.2096370" lon="-16.6801820">
        <ele>1993.9</ele>
        <time>2020-11-11T19:43:58Z</time>
      </trkpt>
      <trkpt lat="28.2096180" lon="-16.6801770">
        <ele>1994.9</ele>
        <time>2020-11-11T19:43:59Z</time>
      </trkpt>
      <trkpt lat="28.2095980" lon="-16.6801720">
        <ele>1994.9</ele>
        <time>2020-11-11T19:44:00Z</time>
      </trkpt>
      <trkpt lat="28.2095980" lon="-16.6801720">
        <ele>1994.9</ele>
        <time>2020-11-11T19:44:01Z</time>
      </trkpt>
      <trkpt lat="28.2095620" lon="-16.6801600">
        <ele>1994.9</ele>
        <time>2020-11-11T19:44:02Z</time>
      </trkpt>
      <trkpt lat="28.2095620" lon="-16.6801600">
        <ele>1994.9</ele>
        <time>2020-11-11T19:44:03Z</time>
      </trkpt>
      <trkpt lat="28.2095030" lon="-16.6801480">
        <ele>1994.9</ele>
        <time>2020-11-11T19:44:04Z</time>
      </trkpt>
      <trkpt lat="28.2095030" lon="-16.6801480">
        <ele>1994.9</ele>
        <time>2020-11-11T19:44:05Z</time>
      </trkpt>
      <trkpt lat="28.2094630" lon="-16.6801380">
        <ele>1994.9</ele>
        <time>2020-11-11T19:44:06Z</time>
      </trkpt>
      <trkpt lat="28.2094630" lon="-16.6801380">
        <ele>1994.9</ele>
        <time>2020-11-11T19:44:07Z</time>
      </trkpt>
      <trkpt lat="28.2094180" lon="-16.6801320">
        <ele>1995.9</ele>
        <time>2020-11-11T19:44:08Z</time>
      </trkpt>
      <trkpt lat="28.2093950" lon="-16.6801320">
        <ele>1995.9</ele>
        <time>2020-11-11T19:44:09Z</time>
      </trkpt>
      <trkpt lat="28.2093950" lon="-16.6801320">
        <ele>1995.9</ele>
        <time>2020-11-11T19:44:10Z</time>
      </trkpt>
      <trkpt lat="28.2093950" lon="-16.6801320">
        <ele>1995.9</ele>
        <time>2020-11-11T19:44:11Z</time>
      </trkpt>
      <trkpt lat="28.2093520" lon="-16.6801370">
        <ele>1995.9</ele>
        <time>2020-11-11T19:44:12Z</time>
      </trkpt>
      <trkpt lat="28.2093080" lon="-16.6801430">
        <ele>1995.9</ele>
        <time>2020-11-11T19:44:13Z</time>
      </trkpt>
      <trkpt lat="28.2093080" lon="-16.6801430">
        <ele>1995.9</ele>
        <time>2020-11-11T19:44:14Z</time>
      </trkpt>
      <trkpt lat="28.2092650" lon="-16.6801550">
        <ele>1995.9</ele>
        <time>2020-11-11T19:44:15Z</time>
      </trkpt>
      <trkpt lat="28.2092450" lon="-16.6801620">
        <ele>1995.9</ele>
        <time>2020-11-11T19:44:16Z</time>
      </trkpt>
      <trkpt lat="28.2092450" lon="-16.6801620">
        <ele>1996.9</ele>
        <time>2020-11-11T19:44:17Z</time>
      </trkpt>
      <trkpt lat="28.2092450" lon="-16.6801620">
        <ele>1996.9</ele>
        <time>2020-11-11T19:44:18Z</time>
      </trkpt>
      <trkpt lat="28.2092030" lon="-16.6801720">
        <ele>1996.9</ele>
        <time>2020-11-11T19:44:19Z</time>
      </trkpt>
      <trkpt lat="28.2092030" lon="-16.6801720">
        <ele>1996.9</ele>
        <time>2020-11-11T19:44:20Z</time>
      </trkpt>
      <trkpt lat="28.2091620" lon="-16.6801800">
        <ele>1996.9</ele>
        <time>2020-11-11T19:44:21Z</time>
      </trkpt>
      <trkpt lat="28.2091620" lon="-16.6801800">
        <ele>1996.9</ele>
        <time>2020-11-11T19:44:22Z</time>
      </trkpt>
      <trkpt lat="28.2091220" lon="-16.6801880">
        <ele>1997.9</ele>
        <time>2020-11-11T19:44:23Z</time>
      </trkpt>
      <trkpt lat="28.2091220" lon="-16.6801880">
        <ele>1997.9</ele>
        <time>2020-11-11T19:44:24Z</time>
      </trkpt>
      <trkpt lat="28.2090580" lon="-16.6801970">
        <ele>1997.9</ele>
        <time>2020-11-11T19:44:25Z</time>
      </trkpt>
      <trkpt lat="28.2090580" lon="-16.6801970">
        <ele>1997.9</ele>
        <time>2020-11-11T19:44:26Z</time>
      </trkpt>
      <trkpt lat="28.2090150" lon="-16.6801980">
        <ele>1997.9</ele>
        <time>2020-11-11T19:44:27Z</time>
      </trkpt>
      <trkpt lat="28.2089930" lon="-16.6801980">
        <ele>1997.9</ele>
        <time>2020-11-11T19:44:28Z</time>
      </trkpt>
      <trkpt lat="28.2089720" lon="-16.6801970">
        <ele>1997.9</ele>
        <time>2020-11-11T19:44:29Z</time>
      </trkpt>
      <trkpt lat="28.2089720" lon="-16.6801970">
        <ele>1998.9</ele>
        <time>2020-11-11T19:44:30Z</time>
      </trkpt>
      <trkpt lat="28.2089300" lon="-16.6801920">
        <ele>1998.9</ele>
        <time>2020-11-11T19:44:31Z</time>
      </trkpt>
      <trkpt lat="28.2089300" lon="-16.6801920">
        <ele>1998.9</ele>
        <time>2020-11-11T19:44:32Z</time>
      </trkpt>
      <trkpt lat="28.2089300" lon="-16.6801920">
        <ele>1998.9</ele>
        <time>2020-11-11T19:44:33Z</time>
      </trkpt>
      <trkpt lat="28.2088880" lon="-16.6801880">
        <ele>1998.9</ele>
        <time>2020-11-11T19:44:34Z</time>
      </trkpt>
      <trkpt lat="28.2088670" lon="-16.6801880">
        <ele>1998.9</ele>
        <time>2020-11-11T19:44:35Z</time>
      </trkpt>
      <trkpt lat="28.2088250" lon="-16.6801800">
        <ele>1999.9</ele>
        <time>2020-11-11T19:44:36Z</time>
      </trkpt>
      <trkpt lat="28.2088250" lon="-16.6801800">
        <ele>1999.9</ele>
        <time>2020-11-11T19:44:37Z</time>
      </trkpt>
      <trkpt lat="28.2088250" lon="-16.6801800">
        <ele>1999.9</ele>
        <time>2020-11-11T19:44:38Z</time>
      </trkpt>
      <trkpt lat="28.2087830" lon="-16.6801620">
        <ele>1999.9</ele>
        <time>2020-11-11T19:44:39Z</time>
      </trkpt>
      <trkpt lat="28.2087500" lon="-16.6801320">
        <ele>1999.9</ele>
        <time>2020-11-11T19:44:40Z</time>
      </trkpt>
      <trkpt lat="28.2087500" lon="-16.6801320">
        <ele>1999.9</ele>
        <time>2020-11-11T19:44:41Z</time>
      </trkpt>
      <trkpt lat="28.2087500" lon="-16.6801320">
        <ele>1999.9</ele>
        <time>2020-11-11T19:44:42Z</time>
      </trkpt>
      <trkpt lat="28.2086930" lon="-16.6801030">
        <ele>1999.9</ele>
        <time>2020-11-11T19:44:43Z</time>
      </trkpt>
      <trkpt lat="28.2086930" lon="-16.6801030">
        <ele>1999.9</ele>
        <time>2020-11-11T19:44:44Z</time>
      </trkpt>
      <trkpt lat="28.2086530" lon="-16.6800930">
        <ele>1999.9</ele>
        <time>2020-11-11T19:44:45Z</time>
      </trkpt>
      <trkpt lat="28.2086330" lon="-16.6800870">
        <ele>1999.9</ele>
        <time>2020-11-11T19:44:46Z</time>
      </trkpt>
      <trkpt lat="28.2086330" lon="-16.6800870">
        <ele>1999.9</ele>
        <time>2020-11-11T19:44:47Z</time>
      </trkpt>
      <trkpt lat="28.2085980" lon="-16.6800720">
        <ele>1999.9</ele>
        <time>2020-11-11T19:44:48Z</time>
      </trkpt>
      <trkpt lat="28.2085980" lon="-16.6800720">
        <ele>1999.9</ele>
        <time>2020-11-11T19:44:49Z</time>
      </trkpt>
      <trkpt lat="28.2085980" lon="-16.6800720">
        <ele>1999.9</ele>
        <time>2020-11-11T19:44:50Z</time>
      </trkpt>
      <trkpt lat="28.2085680" lon="-16.6800450">
        <ele>1999.9</ele>
        <time>2020-11-11T19:44:51Z</time>
      </trkpt>
      <trkpt lat="28.2085680" lon="-16.6800450">
        <ele>1999.9</ele>
        <time>2020-11-11T19:44:52Z</time>
      </trkpt>
      <trkpt lat="28.2085320" lon="-16.6800270">
        <ele>2000.9</ele>
        <time>2020-11-11T19:44:53Z</time>
      </trkpt>
      <trkpt lat="28.2084930" lon="-16.6800100">
        <ele>2000.9</ele>
        <time>2020-11-11T19:44:54Z</time>
      </trkpt>
      <trkpt lat="28.2084930" lon="-16.6800100">
        <ele>2000.9</ele>
        <time>2020-11-11T19:44:55Z</time>
      </trkpt>
      <trkpt lat="28.2084750" lon="-16.6799980">
        <ele>2000.9</ele>
        <time>2020-11-11T19:44:56Z</time>
      </trkpt>
      <trkpt lat="28.2084570" lon="-16.6799870">
        <ele>2000.9</ele>
        <time>2020-11-11T19:44:57Z</time>
      </trkpt>
      <trkpt lat="28.2084170" lon="-16.6799630">
        <ele>2000.9</ele>
        <time>2020-11-11T19:44:58Z</time>
      </trkpt>
      <trkpt lat="28.2084170" lon="-16.6799630">
        <ele>2000.9</ele>
        <time>2020-11-11T19:44:59Z</time>
      </trkpt>
      <trkpt lat="28.2083800" lon="-16.6799400">
        <ele>2000.9</ele>
        <time>2020-11-11T19:45:00Z</time>
      </trkpt>
      <trkpt lat="28.2083800" lon="-16.6799400">
        <ele>2000.9</ele>
        <time>2020-11-11T19:45:01Z</time>
      </trkpt>
      <trkpt lat="28.2083620" lon="-16.6799280">
        <ele>2000.9</ele>
        <time>2020-11-11T19:45:02Z</time>
      </trkpt>
      <trkpt lat="28.2083620" lon="-16.6799280">
        <ele>2000.9</ele>
        <time>2020-11-11T19:45:03Z</time>
      </trkpt>
      <trkpt lat="28.2083250" lon="-16.6799050">
        <ele>2000.9</ele>
        <time>2020-11-11T19:45:04Z</time>
      </trkpt>
      <trkpt lat="28.2083250" lon="-16.6799050">
        <ele>2000.9</ele>
        <time>2020-11-11T19:45:05Z</time>
      </trkpt>
      <trkpt lat="28.2082630" lon="-16.6798700">
        <ele>2000.9</ele>
        <time>2020-11-11T19:45:06Z</time>
      </trkpt>
      <trkpt lat="28.2082630" lon="-16.6798700">
        <ele>2000.9</ele>
        <time>2020-11-11T19:45:07Z</time>
      </trkpt>
      <trkpt lat="28.2082250" lon="-16.6798480">
        <ele>2000.9</ele>
        <time>2020-11-11T19:45:08Z</time>
      </trkpt>
      <trkpt lat="28.2082250" lon="-16.6798480">
        <ele>2000.9</ele>
        <time>2020-11-11T19:45:09Z</time>
      </trkpt>
      <trkpt lat="28.2082250" lon="-16.6798480">
        <ele>2000.9</ele>
        <time>2020-11-11T19:45:10Z</time>
      </trkpt>
      <trkpt lat="28.2081880" lon="-16.6798230">
        <ele>2000.9</ele>
        <time>2020-11-11T19:45:11Z</time>
      </trkpt>
      <trkpt lat="28.2081720" lon="-16.6798080">
        <ele>2000.9</ele>
        <time>2020-11-11T19:45:12Z</time>
      </trkpt>
      <trkpt lat="28.2081720" lon="-16.6798080">
        <ele>2000.9</ele>
        <time>2020-11-11T19:45:13Z</time>
      </trkpt>
      <trkpt lat="28.2081300" lon="-16.6797880">
        <ele>2001.9</ele>
        <time>2020-11-11T19:45:14Z</time>
      </trkpt>
      <trkpt lat="28.2080880" lon="-16.6797700">
        <ele>2001.9</ele>
        <time>2020-11-11T19:45:15Z</time>
      </trkpt>
      <trkpt lat="28.2080680" lon="-16.6797600">
        <ele>2001.9</ele>
        <time>2020-11-11T19:45:16Z</time>
      </trkpt>
      <trkpt lat="28.2080680" lon="-16.6797600">
        <ele>2001.9</ele>
        <time>2020-11-11T19:45:17Z</time>
      </trkpt>
      <trkpt lat="28.2080250" lon="-16.6797520">
        <ele>2001.9</ele>
        <time>2020-11-11T19:45:18Z</time>
      </trkpt>
      <trkpt lat="28.2080250" lon="-16.6797520">
        <ele>2001.9</ele>
        <time>2020-11-11T19:45:19Z</time>
      </trkpt>
      <trkpt lat="28.2080250" lon="-16.6797520">
        <ele>2001.9</ele>
        <time>2020-11-11T19:45:20Z</time>
      </trkpt>
      <trkpt lat="28.2079820" lon="-16.6797420">
        <ele>2002.9</ele>
        <time>2020-11-11T19:45:21Z</time>
      </trkpt>
      <trkpt lat="28.2079450" lon="-16.6797450">
        <ele>2002.9</ele>
        <time>2020-11-11T19:45:22Z</time>
      </trkpt>
      <trkpt lat="28.2079450" lon="-16.6797450">
        <ele>2002.9</ele>
        <time>2020-11-11T19:45:23Z</time>
      </trkpt>
      <trkpt lat="28.2078980" lon="-16.6797470">
        <ele>2002.9</ele>
        <time>2020-11-11T19:45:24Z</time>
      </trkpt>
      <trkpt lat="28.2078980" lon="-16.6797470">
        <ele>2002.9</ele>
        <time>2020-11-11T19:45:25Z</time>
      </trkpt>
      <trkpt lat="28.2078980" lon="-16.6797470">
        <ele>2002.9</ele>
        <time>2020-11-11T19:45:26Z</time>
      </trkpt>
      <trkpt lat="28.2078620" lon="-16.6797580">
        <ele>2002.9</ele>
        <time>2020-11-11T19:45:27Z</time>
      </trkpt>
      <trkpt lat="28.2078280" lon="-16.6797930">
        <ele>2002.9</ele>
        <time>2020-11-11T19:45:28Z</time>
      </trkpt>
      <trkpt lat="28.2078280" lon="-16.6797930">
        <ele>2002.9</ele>
        <time>2020-11-11T19:45:29Z</time>
      </trkpt>
      <trkpt lat="28.2077880" lon="-16.6798300">
        <ele>2002.9</ele>
        <time>2020-11-11T19:45:30Z</time>
      </trkpt>
      <trkpt lat="28.2077700" lon="-16.6798480">
        <ele>2002.9</ele>
        <time>2020-11-11T19:45:31Z</time>
      </trkpt>
      <trkpt lat="28.2077700" lon="-16.6798480">
        <ele>2002.9</ele>
        <time>2020-11-11T19:45:32Z</time>
      </trkpt>
      <trkpt lat="28.2077380" lon="-16.6798830">
        <ele>2003.9</ele>
        <time>2020-11-11T19:45:33Z</time>
      </trkpt>
      <trkpt lat="28.2077380" lon="-16.6798830">
        <ele>2003.9</ele>
        <time>2020-11-11T19:45:34Z</time>
      </trkpt>
      <trkpt lat="28.2077380" lon="-16.6798830">
        <ele>2003.9</ele>
        <time>2020-11-11T19:45:35Z</time>
      </trkpt>
      <trkpt lat="28.2076770" lon="-16.6799200">
        <ele>2003.9</ele>
        <time>2020-11-11T19:45:36Z</time>
      </trkpt>
      <trkpt lat="28.2076550" lon="-16.6799280">
        <ele>2003.9</ele>
        <time>2020-11-11T19:45:37Z</time>
      </trkpt>
      <trkpt lat="28.2076350" lon="-16.6799380">
        <ele>2003.9</ele>
        <time>2020-11-11T19:45:38Z</time>
      </trkpt>
      <trkpt lat="28.2076350" lon="-16.6799380">
        <ele>2003.9</ele>
        <time>2020-11-11T19:45:39Z</time>
      </trkpt>
      <trkpt lat="28.2075920" lon="-16.6799530">
        <ele>2003.9</ele>
        <time>2020-11-11T19:45:40Z</time>
      </trkpt>
      <trkpt lat="28.2075920" lon="-16.6799530">
        <ele>2003.9</ele>
        <time>2020-11-11T19:45:41Z</time>
      </trkpt>
      <trkpt lat="28.2075530" lon="-16.6799730">
        <ele>2003.9</ele>
        <time>2020-11-11T19:45:42Z</time>
      </trkpt>
      <trkpt lat="28.2075530" lon="-16.6799730">
        <ele>2003.9</ele>
        <time>2020-11-11T19:45:43Z</time>
      </trkpt>
      <trkpt lat="28.2075180" lon="-16.6800000">
        <ele>2003.9</ele>
        <time>2020-11-11T19:45:44Z</time>
      </trkpt>
      <trkpt lat="28.2075180" lon="-16.6800000">
        <ele>2003.9</ele>
        <time>2020-11-11T19:45:45Z</time>
      </trkpt>
      <trkpt lat="28.2075180" lon="-16.6800000">
        <ele>2003.9</ele>
        <time>2020-11-11T19:45:46Z</time>
      </trkpt>
      <trkpt lat="28.2074650" lon="-16.6800450">
        <ele>2003.9</ele>
        <time>2020-11-11T19:45:47Z</time>
      </trkpt>
      <trkpt lat="28.2074650" lon="-16.6800450">
        <ele>2003.9</ele>
        <time>2020-11-11T19:45:48Z</time>
      </trkpt>
      <trkpt lat="28.2074650" lon="-16.6800450">
        <ele>2003.9</ele>
        <time>2020-11-11T19:45:49Z</time>
      </trkpt>
      <trkpt lat="28.2074230" lon="-16.6800630">
        <ele>2004.9</ele>
        <time>2020-11-11T19:45:50Z</time>
      </trkpt>
      <trkpt lat="28.2073820" lon="-16.6800820">
        <ele>2004.9</ele>
        <time>2020-11-11T19:45:51Z</time>
      </trkpt>
      <trkpt lat="28.2073600" lon="-16.6800920">
        <ele>2004.9</ele>
        <time>2020-11-11T19:45:52Z</time>
      </trkpt>
      <trkpt lat="28.2073600" lon="-16.6800920">
        <ele>2004.9</ele>
        <time>2020-11-11T19:45:53Z</time>
      </trkpt>
      <trkpt lat="28.2073230" lon="-16.6801170">
        <ele>2004.9</ele>
        <time>2020-11-11T19:45:54Z</time>
      </trkpt>
      <trkpt lat="28.2073230" lon="-16.6801170">
        <ele>2004.9</ele>
        <time>2020-11-11T19:45:55Z</time>
      </trkpt>
      <trkpt lat="28.2073230" lon="-16.6801170">
        <ele>2005.9</ele>
        <time>2020-11-11T19:45:56Z</time>
      </trkpt>
      <trkpt lat="28.2072820" lon="-16.6801330">
        <ele>2005.9</ele>
        <time>2020-11-11T19:45:57Z</time>
      </trkpt>
      <trkpt lat="28.2072630" lon="-16.6801420">
        <ele>2005.9</ele>
        <time>2020-11-11T19:45:58Z</time>
      </trkpt>
      <trkpt lat="28.2072270" lon="-16.6801670">
        <ele>2005.9</ele>
        <time>2020-11-11T19:45:59Z</time>
      </trkpt>
      <trkpt lat="28.2072270" lon="-16.6801670">
        <ele>2005.9</ele>
        <time>2020-11-11T19:46:00Z</time>
      </trkpt>
      <trkpt lat="28.2071850" lon="-16.6801870">
        <ele>2005.9</ele>
        <time>2020-11-11T19:46:01Z</time>
      </trkpt>
      <trkpt lat="28.2071850" lon="-16.6801870">
        <ele>2005.9</ele>
        <time>2020-11-11T19:46:02Z</time>
      </trkpt>
      <trkpt lat="28.2071480" lon="-16.6802080">
        <ele>2006.9</ele>
        <time>2020-11-11T19:46:03Z</time>
      </trkpt>
      <trkpt lat="28.2071480" lon="-16.6802080">
        <ele>2006.9</ele>
        <time>2020-11-11T19:46:04Z</time>
      </trkpt>
      <trkpt lat="28.2071130" lon="-16.6802380">
        <ele>2006.9</ele>
        <time>2020-11-11T19:46:05Z</time>
      </trkpt>
      <trkpt lat="28.2071130" lon="-16.6802380">
        <ele>2006.9</ele>
        <time>2020-11-11T19:46:06Z</time>
      </trkpt>
      <trkpt lat="28.2070770" lon="-16.6802670">
        <ele>2006.9</ele>
        <time>2020-11-11T19:46:07Z</time>
      </trkpt>
      <trkpt lat="28.2070770" lon="-16.6802670">
        <ele>2006.9</ele>
        <time>2020-11-11T19:46:08Z</time>
      </trkpt>
      <trkpt lat="28.2070420" lon="-16.6802980">
        <ele>2007.9</ele>
        <time>2020-11-11T19:46:09Z</time>
      </trkpt>
      <trkpt lat="28.2070230" lon="-16.6803130">
        <ele>2007.9</ele>
        <time>2020-11-11T19:46:10Z</time>
      </trkpt>
      <trkpt lat="28.2070230" lon="-16.6803130">
        <ele>2007.9</ele>
        <time>2020-11-11T19:46:11Z</time>
      </trkpt>
      <trkpt lat="28.2070230" lon="-16.6803130">
        <ele>2007.9</ele>
        <time>2020-11-11T19:46:12Z</time>
      </trkpt>
      <trkpt lat="28.2069870" lon="-16.6803380">
        <ele>2007.9</ele>
        <time>2020-11-11T19:46:13Z</time>
      </trkpt>
      <trkpt lat="28.2069680" lon="-16.6803500">
        <ele>2007.9</ele>
        <time>2020-11-11T19:46:14Z</time>
      </trkpt>
      <trkpt lat="28.2069480" lon="-16.6803620">
        <ele>2007.9</ele>
        <time>2020-11-11T19:46:15Z</time>
      </trkpt>
      <trkpt lat="28.2069070" lon="-16.6803870">
        <ele>2007.9</ele>
        <time>2020-11-11T19:46:16Z</time>
      </trkpt>
      <trkpt lat="28.2068820" lon="-16.6803930">
        <ele>2008.9</ele>
        <time>2020-11-11T19:46:17Z</time>
      </trkpt>
      <trkpt lat="28.2068820" lon="-16.6803930">
        <ele>2008.9</ele>
        <time>2020-11-11T19:46:18Z</time>
      </trkpt>
      <trkpt lat="28.2068470" lon="-16.6804200">
        <ele>2008.9</ele>
        <time>2020-11-11T19:46:19Z</time>
      </trkpt>
      <trkpt lat="28.2068470" lon="-16.6804200">
        <ele>2008.9</ele>
        <time>2020-11-11T19:46:20Z</time>
      </trkpt>
      <trkpt lat="28.2068330" lon="-16.6804770">
        <ele>2008.9</ele>
        <time>2020-11-11T19:46:21Z</time>
      </trkpt>
      <trkpt lat="28.2068330" lon="-16.6804770">
        <ele>2008.9</ele>
        <time>2020-11-11T19:46:22Z</time>
      </trkpt>
      <trkpt lat="28.2068330" lon="-16.6804770">
        <ele>2009.9</ele>
        <time>2020-11-11T19:46:23Z</time>
      </trkpt>
      <trkpt lat="28.2068080" lon="-16.6805280">
        <ele>2009.9</ele>
        <time>2020-11-11T19:46:24Z</time>
      </trkpt>
      <trkpt lat="28.2068020" lon="-16.6805830">
        <ele>2009.9</ele>
        <time>2020-11-11T19:46:25Z</time>
      </trkpt>
      <trkpt lat="28.2068020" lon="-16.6805830">
        <ele>2009.9</ele>
        <time>2020-11-11T19:46:26Z</time>
      </trkpt>
      <trkpt lat="28.2068020" lon="-16.6805830">
        <ele>2009.9</ele>
        <time>2020-11-11T19:46:27Z</time>
      </trkpt>
      <trkpt lat="28.2067930" lon="-16.6806400">
        <ele>2009.9</ele>
        <time>2020-11-11T19:46:28Z</time>
      </trkpt>
      <trkpt lat="28.2067930" lon="-16.6806400">
        <ele>2009.9</ele>
        <time>2020-11-11T19:46:29Z</time>
      </trkpt>
      <trkpt lat="28.2067780" lon="-16.6806930">
        <ele>2009.9</ele>
        <time>2020-11-11T19:46:30Z</time>
      </trkpt>
      <trkpt lat="28.2067650" lon="-16.6807450">
        <ele>2010.9</ele>
        <time>2020-11-11T19:46:31Z</time>
      </trkpt>
      <trkpt lat="28.2067650" lon="-16.6807450">
        <ele>2010.9</ele>
        <time>2020-11-11T19:46:32Z</time>
      </trkpt>
      <trkpt lat="28.2067630" lon="-16.6807970">
        <ele>2010.9</ele>
        <time>2020-11-11T19:46:33Z</time>
      </trkpt>
      <trkpt lat="28.2067630" lon="-16.6807970">
        <ele>2010.9</ele>
        <time>2020-11-11T19:46:34Z</time>
      </trkpt>
      <trkpt lat="28.2067630" lon="-16.6807970">
        <ele>2010.9</ele>
        <time>2020-11-11T19:46:35Z</time>
      </trkpt>
      <trkpt lat="28.2067570" lon="-16.6808400">
        <ele>2011.9</ele>
        <time>2020-11-11T19:46:36Z</time>
      </trkpt>
      <trkpt lat="28.2067570" lon="-16.6808400">
        <ele>2011.9</ele>
        <time>2020-11-11T19:46:37Z</time>
      </trkpt>
      <trkpt lat="28.2067380" lon="-16.6808830">
        <ele>2011.9</ele>
        <time>2020-11-11T19:46:38Z</time>
      </trkpt>
      <trkpt lat="28.2067180" lon="-16.6809200">
        <ele>2011.9</ele>
        <time>2020-11-11T19:46:39Z</time>
      </trkpt>
      <trkpt lat="28.2067180" lon="-16.6809200">
        <ele>2011.9</ele>
        <time>2020-11-11T19:46:40Z</time>
      </trkpt>
      <trkpt lat="28.2067180" lon="-16.6809200">
        <ele>2011.9</ele>
        <time>2020-11-11T19:46:41Z</time>
      </trkpt>
      <trkpt lat="28.2066970" lon="-16.6809820">
        <ele>2011.9</ele>
        <time>2020-11-11T19:46:42Z</time>
      </trkpt>
      <trkpt lat="28.2066900" lon="-16.6810020">
        <ele>2011.9</ele>
        <time>2020-11-11T19:46:43Z</time>
      </trkpt>
      <trkpt lat="28.2066900" lon="-16.6810020">
        <ele>2011.9</ele>
        <time>2020-11-11T19:46:44Z</time>
      </trkpt>
      <trkpt lat="28.2066800" lon="-16.6810450">
        <ele>2011.9</ele>
        <time>2020-11-11T19:46:45Z</time>
      </trkpt>
      <trkpt lat="28.2066800" lon="-16.6810450">
        <ele>2011.9</ele>
        <time>2020-11-11T19:46:46Z</time>
      </trkpt>
      <trkpt lat="28.2066800" lon="-16.6810450">
        <ele>2011.9</ele>
        <time>2020-11-11T19:46:47Z</time>
      </trkpt>
      <trkpt lat="28.2066650" lon="-16.6810870">
        <ele>2012.9</ele>
        <time>2020-11-11T19:46:48Z</time>
      </trkpt>
      <trkpt lat="28.2066470" lon="-16.6811370">
        <ele>2012.9</ele>
        <time>2020-11-11T19:46:49Z</time>
      </trkpt>
      <trkpt lat="28.2066470" lon="-16.6811370">
        <ele>2012.9</ele>
        <time>2020-11-11T19:46:50Z</time>
      </trkpt>
      <trkpt lat="28.2066470" lon="-16.6811370">
        <ele>2012.9</ele>
        <time>2020-11-11T19:46:51Z</time>
      </trkpt>
      <trkpt lat="28.2066330" lon="-16.6811800">
        <ele>2013.9</ele>
        <time>2020-11-11T19:46:52Z</time>
      </trkpt>
      <trkpt lat="28.2066330" lon="-16.6811800">
        <ele>2013.9</ele>
        <time>2020-11-11T19:46:53Z</time>
      </trkpt>
      <trkpt lat="28.2066050" lon="-16.6812350">
        <ele>2013.9</ele>
        <time>2020-11-11T19:46:54Z</time>
      </trkpt>
      <trkpt lat="28.2066050" lon="-16.6812350">
        <ele>2013.9</ele>
        <time>2020-11-11T19:46:55Z</time>
      </trkpt>
      <trkpt lat="28.2065820" lon="-16.6812700">
        <ele>2013.9</ele>
        <time>2020-11-11T19:46:56Z</time>
      </trkpt>
      <trkpt lat="28.2065820" lon="-16.6812700">
        <ele>2013.9</ele>
        <time>2020-11-11T19:46:57Z</time>
      </trkpt>
      <trkpt lat="28.2065820" lon="-16.6812700">
        <ele>2014.9</ele>
        <time>2020-11-11T19:46:58Z</time>
      </trkpt>
      <trkpt lat="28.2065620" lon="-16.6813070">
        <ele>2014.9</ele>
        <time>2020-11-11T19:46:59Z</time>
      </trkpt>
      <trkpt lat="28.2065370" lon="-16.6813400">
        <ele>2014.9</ele>
        <time>2020-11-11T19:47:00Z</time>
      </trkpt>
      <trkpt lat="28.2065370" lon="-16.6813400">
        <ele>2014.9</ele>
        <time>2020-11-11T19:47:01Z</time>
      </trkpt>
      <trkpt lat="28.2065370" lon="-16.6813400">
        <ele>2014.9</ele>
        <time>2020-11-11T19:47:02Z</time>
      </trkpt>
      <trkpt lat="28.2065120" lon="-16.6813770">
        <ele>2014.9</ele>
        <time>2020-11-11T19:47:03Z</time>
      </trkpt>
      <trkpt lat="28.2065120" lon="-16.6813770">
        <ele>2014.9</ele>
        <time>2020-11-11T19:47:04Z</time>
      </trkpt>
      <trkpt lat="28.2064630" lon="-16.6814180">
        <ele>2014.9</ele>
        <time>2020-11-11T19:47:05Z</time>
      </trkpt>
      <trkpt lat="28.2064630" lon="-16.6814180">
        <ele>2014.9</ele>
        <time>2020-11-11T19:47:06Z</time>
      </trkpt>
      <trkpt lat="28.2064630" lon="-16.6814180">
        <ele>2014.9</ele>
        <time>2020-11-11T19:47:07Z</time>
      </trkpt>
      <trkpt lat="28.2064280" lon="-16.6814400">
        <ele>2015.9</ele>
        <time>2020-11-11T19:47:08Z</time>
      </trkpt>
      <trkpt lat="28.2064280" lon="-16.6814400">
        <ele>2015.9</ele>
        <time>2020-11-11T19:47:09Z</time>
      </trkpt>
      <trkpt lat="28.2063930" lon="-16.6814570">
        <ele>2015.9</ele>
        <time>2020-11-11T19:47:10Z</time>
      </trkpt>
      <trkpt lat="28.2063520" lon="-16.6814630">
        <ele>2015.9</ele>
        <time>2020-11-11T19:47:11Z</time>
      </trkpt>
      <trkpt lat="28.2063330" lon="-16.6814600">
        <ele>2016.9</ele>
        <time>2020-11-11T19:47:12Z</time>
      </trkpt>
      <trkpt lat="28.2063330" lon="-16.6814600">
        <ele>2016.9</ele>
        <time>2020-11-11T19:47:13Z</time>
      </trkpt>
      <trkpt lat="28.2063330" lon="-16.6814600">
        <ele>2016.9</ele>
        <time>2020-11-11T19:47:14Z</time>
      </trkpt>
      <trkpt lat="28.2062920" lon="-16.6814530">
        <ele>2016.9</ele>
        <time>2020-11-11T19:47:15Z</time>
      </trkpt>
      <trkpt lat="28.2062920" lon="-16.6814530">
        <ele>2016.9</ele>
        <time>2020-11-11T19:47:16Z</time>
      </trkpt>
      <trkpt lat="28.2062550" lon="-16.6814320">
        <ele>2016.9</ele>
        <time>2020-11-11T19:47:17Z</time>
      </trkpt>
      <trkpt lat="28.2062220" lon="-16.6813970">
        <ele>2016.9</ele>
        <time>2020-11-11T19:47:18Z</time>
      </trkpt>
      <trkpt lat="28.2062220" lon="-16.6813970">
        <ele>2017.9</ele>
        <time>2020-11-11T19:47:19Z</time>
      </trkpt>
      <trkpt lat="28.2062220" lon="-16.6813970">
        <ele>2017.9</ele>
        <time>2020-11-11T19:47:20Z</time>
      </trkpt>
      <trkpt lat="28.2061900" lon="-16.6813680">
        <ele>2017.9</ele>
        <time>2020-11-11T19:47:21Z</time>
      </trkpt>
      <trkpt lat="28.2061700" lon="-16.6813280">
        <ele>2017.9</ele>
        <time>2020-11-11T19:47:22Z</time>
      </trkpt>
      <trkpt lat="28.2061700" lon="-16.6813280">
        <ele>2018.9</ele>
        <time>2020-11-11T19:47:23Z</time>
      </trkpt>
      <trkpt lat="28.2061650" lon="-16.6813050">
        <ele>2018.9</ele>
        <time>2020-11-11T19:47:24Z</time>
      </trkpt>
      <trkpt lat="28.2061650" lon="-16.6813050">
        <ele>2018.9</ele>
        <time>2020-11-11T19:47:25Z</time>
      </trkpt>
      <trkpt lat="28.2061580" lon="-16.6812570">
        <ele>2018.9</ele>
        <time>2020-11-11T19:47:26Z</time>
      </trkpt>
      <trkpt lat="28.2061530" lon="-16.6812130">
        <ele>2018.9</ele>
        <time>2020-11-11T19:47:27Z</time>
      </trkpt>
      <trkpt lat="28.2061530" lon="-16.6811920">
        <ele>2018.9</ele>
        <time>2020-11-11T19:47:28Z</time>
      </trkpt>
      <trkpt lat="28.2061530" lon="-16.6811920">
        <ele>2019.9</ele>
        <time>2020-11-11T19:47:29Z</time>
      </trkpt>
      <trkpt lat="28.2061530" lon="-16.6811920">
        <ele>2019.9</ele>
        <time>2020-11-11T19:47:30Z</time>
      </trkpt>
      <trkpt lat="28.2061520" lon="-16.6811480">
        <ele>2019.9</ele>
        <time>2020-11-11T19:47:31Z</time>
      </trkpt>
      <trkpt lat="28.2061580" lon="-16.6811050">
        <ele>2019.9</ele>
        <time>2020-11-11T19:47:32Z</time>
      </trkpt>
      <trkpt lat="28.2061600" lon="-16.6810800">
        <ele>2019.9</ele>
        <time>2020-11-11T19:47:33Z</time>
      </trkpt>
      <trkpt lat="28.2061600" lon="-16.6810800">
        <ele>2019.9</ele>
        <time>2020-11-11T19:47:34Z</time>
      </trkpt>
      <trkpt lat="28.2061600" lon="-16.6810330">
        <ele>2019.9</ele>
        <time>2020-11-11T19:47:35Z</time>
      </trkpt>
      <trkpt lat="28.2061600" lon="-16.6810330">
        <ele>2019.9</ele>
        <time>2020-11-11T19:47:36Z</time>
      </trkpt>
      <trkpt lat="28.2061580" lon="-16.6809870">
        <ele>2020.9</ele>
        <time>2020-11-11T19:47:37Z</time>
      </trkpt>
      <trkpt lat="28.2061580" lon="-16.6809870">
        <ele>2020.9</ele>
        <time>2020-11-11T19:47:38Z</time>
      </trkpt>
      <trkpt lat="28.2061620" lon="-16.6809420">
        <ele>2020.9</ele>
        <time>2020-11-11T19:47:39Z</time>
      </trkpt>
      <trkpt lat="28.2061620" lon="-16.6809420">
        <ele>2020.9</ele>
        <time>2020-11-11T19:47:40Z</time>
      </trkpt>
      <trkpt lat="28.2061670" lon="-16.6808980">
        <ele>2020.9</ele>
        <time>2020-11-11T19:47:41Z</time>
      </trkpt>
      <trkpt lat="28.2061670" lon="-16.6808980">
        <ele>2020.9</ele>
        <time>2020-11-11T19:47:42Z</time>
      </trkpt>
      <trkpt lat="28.2061670" lon="-16.6808980">
        <ele>2021.9</ele>
        <time>2020-11-11T19:47:43Z</time>
      </trkpt>
      <trkpt lat="28.2061770" lon="-16.6808350">
        <ele>2021.9</ele>
        <time>2020-11-11T19:47:44Z</time>
      </trkpt>
      <trkpt lat="28.2061770" lon="-16.6808350">
        <ele>2021.9</ele>
        <time>2020-11-11T19:47:45Z</time>
      </trkpt>
      <trkpt lat="28.2061780" lon="-16.6807920">
        <ele>2021.9</ele>
        <time>2020-11-11T19:47:46Z</time>
      </trkpt>
      <trkpt lat="28.2061780" lon="-16.6807920">
        <ele>2022.9</ele>
        <time>2020-11-11T19:47:47Z</time>
      </trkpt>
      <trkpt lat="28.2061830" lon="-16.6807500">
        <ele>2022.9</ele>
        <time>2020-11-11T19:47:48Z</time>
      </trkpt>
      <trkpt lat="28.2061830" lon="-16.6807500">
        <ele>2022.9</ele>
        <time>2020-11-11T19:47:49Z</time>
      </trkpt>
      <trkpt lat="28.2061830" lon="-16.6807500">
        <ele>2022.9</ele>
        <time>2020-11-11T19:47:50Z</time>
      </trkpt>
      <trkpt lat="28.2061830" lon="-16.6807070">
        <ele>2022.9</ele>
        <time>2020-11-11T19:47:51Z</time>
      </trkpt>
      <trkpt lat="28.2061780" lon="-16.6806620">
        <ele>2022.9</ele>
        <time>2020-11-11T19:47:52Z</time>
      </trkpt>
      <trkpt lat="28.2061780" lon="-16.6806620">
        <ele>2022.9</ele>
        <time>2020-11-11T19:47:53Z</time>
      </trkpt>
      <trkpt lat="28.2061780" lon="-16.6806120">
        <ele>2022.9</ele>
        <time>2020-11-11T19:47:54Z</time>
      </trkpt>
      <trkpt lat="28.2061780" lon="-16.6806120">
        <ele>2022.9</ele>
        <time>2020-11-11T19:47:55Z</time>
      </trkpt>
      <trkpt lat="28.2061780" lon="-16.6806120">
        <ele>2022.9</ele>
        <time>2020-11-11T19:47:56Z</time>
      </trkpt>
      <trkpt lat="28.2061770" lon="-16.6805680">
        <ele>2022.9</ele>
        <time>2020-11-11T19:47:57Z</time>
      </trkpt>
      <trkpt lat="28.2061730" lon="-16.6805500">
        <ele>2022.9</ele>
        <time>2020-11-11T19:47:58Z</time>
      </trkpt>
      <trkpt lat="28.2061730" lon="-16.6805100">
        <ele>2023.9</ele>
        <time>2020-11-11T19:47:59Z</time>
      </trkpt>
      <trkpt lat="28.2061730" lon="-16.6805100">
        <ele>2023.9</ele>
        <time>2020-11-11T19:48:00Z</time>
      </trkpt>
      <trkpt lat="28.2061700" lon="-16.6804700">
        <ele>2023.9</ele>
        <time>2020-11-11T19:48:01Z</time>
      </trkpt>
      <trkpt lat="28.2061700" lon="-16.6804700">
        <ele>2023.9</ele>
        <time>2020-11-11T19:48:02Z</time>
      </trkpt>
      <trkpt lat="28.2061650" lon="-16.6804500">
        <ele>2023.9</ele>
        <time>2020-11-11T19:48:03Z</time>
      </trkpt>
      <trkpt lat="28.2061650" lon="-16.6804500">
        <ele>2023.9</ele>
        <time>2020-11-11T19:48:04Z</time>
      </trkpt>
      <trkpt lat="28.2061530" lon="-16.6804130">
        <ele>2023.9</ele>
        <time>2020-11-11T19:48:05Z</time>
      </trkpt>
      <trkpt lat="28.2061530" lon="-16.6804130">
        <ele>2023.9</ele>
        <time>2020-11-11T19:48:06Z</time>
      </trkpt>
      <trkpt lat="28.2061550" lon="-16.6803750">
        <ele>2023.9</ele>
        <time>2020-11-11T19:48:07Z</time>
      </trkpt>
      <trkpt lat="28.2061520" lon="-16.6803570">
        <ele>2024.9</ele>
        <time>2020-11-11T19:48:08Z</time>
      </trkpt>
      <trkpt lat="28.2061520" lon="-16.6803570">
        <ele>2024.9</ele>
        <time>2020-11-11T19:48:09Z</time>
      </trkpt>
      <trkpt lat="28.2061380" lon="-16.6803200">
        <ele>2024.9</ele>
        <time>2020-11-11T19:48:10Z</time>
      </trkpt>
      <trkpt lat="28.2061430" lon="-16.6802800">
        <ele>2024.9</ele>
        <time>2020-11-11T19:48:11Z</time>
      </trkpt>
      <trkpt lat="28.2061430" lon="-16.6802800">
        <ele>2024.9</ele>
        <time>2020-11-11T19:48:12Z</time>
      </trkpt>
      <trkpt lat="28.2061420" lon="-16.6802350">
        <ele>2024.9</ele>
        <time>2020-11-11T19:48:13Z</time>
      </trkpt>
      <trkpt lat="28.2061420" lon="-16.6802350">
        <ele>2024.9</ele>
        <time>2020-11-11T19:48:14Z</time>
      </trkpt>
      <trkpt lat="28.2061280" lon="-16.6801900">
        <ele>2024.9</ele>
        <time>2020-11-11T19:48:15Z</time>
      </trkpt>
      <trkpt lat="28.2061280" lon="-16.6801900">
        <ele>2025.9</ele>
        <time>2020-11-11T19:48:16Z</time>
      </trkpt>
      <trkpt lat="28.2061180" lon="-16.6801480">
        <ele>2025.9</ele>
        <time>2020-11-11T19:48:17Z</time>
      </trkpt>
      <trkpt lat="28.2061180" lon="-16.6801480">
        <ele>2025.9</ele>
        <time>2020-11-11T19:48:18Z</time>
      </trkpt>
      <trkpt lat="28.2061180" lon="-16.6801480">
        <ele>2025.9</ele>
        <time>2020-11-11T19:48:19Z</time>
      </trkpt>
      <trkpt lat="28.2061130" lon="-16.6801050">
        <ele>2025.9</ele>
        <time>2020-11-11T19:48:20Z</time>
      </trkpt>
      <trkpt lat="28.2061100" lon="-16.6800630">
        <ele>2025.9</ele>
        <time>2020-11-11T19:48:21Z</time>
      </trkpt>
      <trkpt lat="28.2061100" lon="-16.6800630">
        <ele>2026.9</ele>
        <time>2020-11-11T19:48:22Z</time>
      </trkpt>
      <trkpt lat="28.2061070" lon="-16.6800420">
        <ele>2026.9</ele>
        <time>2020-11-11T19:48:23Z</time>
      </trkpt>
      <trkpt lat="28.2060980" lon="-16.6799970">
        <ele>2026.9</ele>
        <time>2020-11-11T19:48:24Z</time>
      </trkpt>
      <trkpt lat="28.2060980" lon="-16.6799970">
        <ele>2026.9</ele>
        <time>2020-11-11T19:48:25Z</time>
      </trkpt>
      <trkpt lat="28.2060920" lon="-16.6799520">
        <ele>2026.9</ele>
        <time>2020-11-11T19:48:26Z</time>
      </trkpt>
      <trkpt lat="28.2060920" lon="-16.6799520">
        <ele>2026.9</ele>
        <time>2020-11-11T19:48:27Z</time>
      </trkpt>
      <trkpt lat="28.2060920" lon="-16.6799050">
        <ele>2026.9</ele>
        <time>2020-11-11T19:48:28Z</time>
      </trkpt>
      <trkpt lat="28.2060920" lon="-16.6799050">
        <ele>2027.9</ele>
        <time>2020-11-11T19:48:29Z</time>
      </trkpt>
      <trkpt lat="28.2060730" lon="-16.6798670">
        <ele>2027.9</ele>
        <time>2020-11-11T19:48:30Z</time>
      </trkpt>
      <trkpt lat="28.2060730" lon="-16.6798670">
        <ele>2027.9</ele>
        <time>2020-11-11T19:48:31Z</time>
      </trkpt>
      <trkpt lat="28.2060730" lon="-16.6798670">
        <ele>2027.9</ele>
        <time>2020-11-11T19:48:32Z</time>
      </trkpt>
      <trkpt lat="28.2060430" lon="-16.6798320">
        <ele>2027.9</ele>
        <time>2020-11-11T19:48:33Z</time>
      </trkpt>
      <trkpt lat="28.2060430" lon="-16.6798320">
        <ele>2028.9</ele>
        <time>2020-11-11T19:48:34Z</time>
      </trkpt>
      <trkpt lat="28.2060200" lon="-16.6797970">
        <ele>2028.9</ele>
        <time>2020-11-11T19:48:35Z</time>
      </trkpt>
      <trkpt lat="28.2060200" lon="-16.6797970">
        <ele>2028.9</ele>
        <time>2020-11-11T19:48:36Z</time>
      </trkpt>
      <trkpt lat="28.2059900" lon="-16.6797670">
        <ele>2028.9</ele>
        <time>2020-11-11T19:48:37Z</time>
      </trkpt>
      <trkpt lat="28.2059670" lon="-16.6797320">
        <ele>2028.9</ele>
        <time>2020-11-11T19:48:38Z</time>
      </trkpt>
      <trkpt lat="28.2059670" lon="-16.6797320">
        <ele>2028.9</ele>
        <time>2020-11-11T19:48:39Z</time>
      </trkpt>
      <trkpt lat="28.2059670" lon="-16.6797320">
        <ele>2028.9</ele>
        <time>2020-11-11T19:48:40Z</time>
      </trkpt>
      <trkpt lat="28.2059220" lon="-16.6796930">
        <ele>2029.9</ele>
        <time>2020-11-11T19:48:41Z</time>
      </trkpt>
      <trkpt lat="28.2059220" lon="-16.6796930">
        <ele>2029.9</ele>
        <time>2020-11-11T19:48:42Z</time>
      </trkpt>
      <trkpt lat="28.2058850" lon="-16.6796700">
        <ele>2029.9</ele>
        <time>2020-11-11T19:48:43Z</time>
      </trkpt>
      <trkpt lat="28.2058850" lon="-16.6796700">
        <ele>2029.9</ele>
        <time>2020-11-11T19:48:44Z</time>
      </trkpt>
      <trkpt lat="28.2058850" lon="-16.6796700">
        <ele>2029.9</ele>
        <time>2020-11-11T19:48:45Z</time>
      </trkpt>
      <trkpt lat="28.2058500" lon="-16.6796470">
        <ele>2029.9</ele>
        <time>2020-11-11T19:48:46Z</time>
      </trkpt>
      <trkpt lat="28.2058500" lon="-16.6796470">
        <ele>2030.9</ele>
        <time>2020-11-11T19:48:47Z</time>
      </trkpt>
      <trkpt lat="28.2058030" lon="-16.6796160">
        <ele>2030.9</ele>
        <time>2020-11-11T19:48:48Z</time>
      </trkpt>
      <trkpt lat="28.2057830" lon="-16.6796070">
        <ele>2030.9</ele>
        <time>2020-11-11T19:48:49Z</time>
      </trkpt>
      <trkpt lat="28.2057830" lon="-16.6796070">
        <ele>2030.9</ele>
        <time>2020-11-11T19:48:50Z</time>
      </trkpt>
      <trkpt lat="28.2057830" lon="-16.6796070">
        <ele>2030.9</ele>
        <time>2020-11-11T19:48:51Z</time>
      </trkpt>
      <trkpt lat="28.2057430" lon="-16.6795870">
        <ele>2030.9</ele>
        <time>2020-11-11T19:48:52Z</time>
      </trkpt>
      <trkpt lat="28.2057250" lon="-16.6795800">
        <ele>2030.9</ele>
        <time>2020-11-11T19:48:53Z</time>
      </trkpt>
      <trkpt lat="28.2056920" lon="-16.6795680">
        <ele>2030.9</ele>
        <time>2020-11-11T19:48:54Z</time>
      </trkpt>
      <trkpt lat="28.2056920" lon="-16.6795680">
        <ele>2031.9</ele>
        <time>2020-11-11T19:48:55Z</time>
      </trkpt>
      <trkpt lat="28.2056600" lon="-16.6795520">
        <ele>2031.9</ele>
        <time>2020-11-11T19:48:56Z</time>
      </trkpt>
      <trkpt lat="28.2056600" lon="-16.6795520">
        <ele>2031.9</ele>
        <time>2020-11-11T19:48:57Z</time>
      </trkpt>
      <trkpt lat="28.2056600" lon="-16.6795520">
        <ele>2031.9</ele>
        <time>2020-11-11T19:48:58Z</time>
      </trkpt>
      <trkpt lat="28.2056300" lon="-16.6795320">
        <ele>2031.9</ele>
        <time>2020-11-11T19:48:59Z</time>
      </trkpt>
      <trkpt lat="28.2056300" lon="-16.6795320">
        <ele>2031.9</ele>
        <time>2020-11-11T19:49:00Z</time>
      </trkpt>
      <trkpt lat="28.2056000" lon="-16.6795230">
        <ele>2031.9</ele>
        <time>2020-11-11T19:49:01Z</time>
      </trkpt>
      <trkpt lat="28.2055700" lon="-16.6795100">
        <ele>2032.9</ele>
        <time>2020-11-11T19:49:02Z</time>
      </trkpt>
      <trkpt lat="28.2055700" lon="-16.6795100">
        <ele>2032.9</ele>
        <time>2020-11-11T19:49:03Z</time>
      </trkpt>
      <trkpt lat="28.2055530" lon="-16.6795030">
        <ele>2032.9</ele>
        <time>2020-11-11T19:49:04Z</time>
      </trkpt>
      <trkpt lat="28.2055530" lon="-16.6795030">
        <ele>2032.9</ele>
        <time>2020-11-11T19:49:05Z</time>
      </trkpt>
      <trkpt lat="28.2055170" lon="-16.6794930">
        <ele>2032.9</ele>
        <time>2020-11-11T19:49:06Z</time>
      </trkpt>
      <trkpt lat="28.2055170" lon="-16.6794930">
        <ele>2032.9</ele>
        <time>2020-11-11T19:49:07Z</time>
      </trkpt>
      <trkpt lat="28.2054870" lon="-16.6794780">
        <ele>2032.9</ele>
        <time>2020-11-11T19:49:08Z</time>
      </trkpt>
      <trkpt lat="28.2054570" lon="-16.6794630">
        <ele>2032.9</ele>
        <time>2020-11-11T19:49:09Z</time>
      </trkpt>
      <trkpt lat="28.2054570" lon="-16.6794630">
        <ele>2033.9</ele>
        <time>2020-11-11T19:49:10Z</time>
      </trkpt>
      <trkpt lat="28.2054570" lon="-16.6794630">
        <ele>2033.9</ele>
        <time>2020-11-11T19:49:11Z</time>
      </trkpt>
      <trkpt lat="28.2054070" lon="-16.6794530">
        <ele>2033.9</ele>
        <time>2020-11-11T19:49:12Z</time>
      </trkpt>
      <trkpt lat="28.2054070" lon="-16.6794530">
        <ele>2033.9</ele>
        <time>2020-11-11T19:49:13Z</time>
      </trkpt>
      <trkpt lat="28.2053720" lon="-16.6794400">
        <ele>2033.9</ele>
        <time>2020-11-11T19:49:14Z</time>
      </trkpt>
      <trkpt lat="28.2053720" lon="-16.6794400">
        <ele>2033.9</ele>
        <time>2020-11-11T19:49:15Z</time>
      </trkpt>
      <trkpt lat="28.2053380" lon="-16.6794270">
        <ele>2033.9</ele>
        <time>2020-11-11T19:49:16Z</time>
      </trkpt>
      <trkpt lat="28.2053380" lon="-16.6794270">
        <ele>2033.9</ele>
        <time>2020-11-11T19:49:17Z</time>
      </trkpt>
      <trkpt lat="28.2053220" lon="-16.6794200">
        <ele>2033.9</ele>
        <time>2020-11-11T19:49:18Z</time>
      </trkpt>
      <trkpt lat="28.2053220" lon="-16.6794200">
        <ele>2033.9</ele>
        <time>2020-11-11T19:49:19Z</time>
      </trkpt>
      <trkpt lat="28.2052870" lon="-16.6794100">
        <ele>2033.9</ele>
        <time>2020-11-11T19:49:20Z</time>
      </trkpt>
      <trkpt lat="28.2052520" lon="-16.6793950">
        <ele>2033.9</ele>
        <time>2020-11-11T19:49:21Z</time>
      </trkpt>
      <trkpt lat="28.2052520" lon="-16.6793950">
        <ele>2033.9</ele>
        <time>2020-11-11T19:49:22Z</time>
      </trkpt>
      <trkpt lat="28.2052230" lon="-16.6793700">
        <ele>2034.9</ele>
        <time>2020-11-11T19:49:23Z</time>
      </trkpt>
      <trkpt lat="28.2052230" lon="-16.6793700">
        <ele>2034.9</ele>
        <time>2020-11-11T19:49:24Z</time>
      </trkpt>
      <trkpt lat="28.2051880" lon="-16.6793550">
        <ele>2034.9</ele>
        <time>2020-11-11T19:49:25Z</time>
      </trkpt>
      <trkpt lat="28.2051880" lon="-16.6793550">
        <ele>2034.9</ele>
        <time>2020-11-11T19:49:26Z</time>
      </trkpt>
      <trkpt lat="28.2051470" lon="-16.6793370">
        <ele>2034.9</ele>
        <time>2020-11-11T19:49:27Z</time>
      </trkpt>
      <trkpt lat="28.2051470" lon="-16.6793370">
        <ele>2034.9</ele>
        <time>2020-11-11T19:49:28Z</time>
      </trkpt>
      <trkpt lat="28.2051080" lon="-16.6793250">
        <ele>2035.9</ele>
        <time>2020-11-11T19:49:29Z</time>
      </trkpt>
      <trkpt lat="28.2051080" lon="-16.6793250">
        <ele>2035.9</ele>
        <time>2020-11-11T19:49:30Z</time>
      </trkpt>
      <trkpt lat="28.2050720" lon="-16.6793120">
        <ele>2036.9</ele>
        <time>2020-11-11T19:49:31Z</time>
      </trkpt>
      <trkpt lat="28.2050540" lon="-16.6793060">
        <ele>2036.9</ele>
        <time>2020-11-11T19:49:32Z</time>
      </trkpt>
      <trkpt lat="28.2050350" lon="-16.6793000">
        <ele>2036.9</ele>
        <time>2020-11-11T19:49:33Z</time>
      </trkpt>
      <trkpt lat="28.2050350" lon="-16.6793000">
        <ele>2036.9</ele>
        <time>2020-11-11T19:49:34Z</time>
      </trkpt>
      <trkpt lat="28.2050000" lon="-16.6792880">
        <ele>2037.9</ele>
        <time>2020-11-11T19:49:35Z</time>
      </trkpt>
      <trkpt lat="28.2050000" lon="-16.6792880">
        <ele>2037.9</ele>
        <time>2020-11-11T19:49:36Z</time>
      </trkpt>
      <trkpt lat="28.2049620" lon="-16.6792850">
        <ele>2037.9</ele>
        <time>2020-11-11T19:49:37Z</time>
      </trkpt>
      <trkpt lat="28.2049620" lon="-16.6792850">
        <ele>2037.9</ele>
        <time>2020-11-11T19:49:38Z</time>
      </trkpt>
      <trkpt lat="28.2049620" lon="-16.6792850">
        <ele>2037.9</ele>
        <time>2020-11-11T19:49:39Z</time>
      </trkpt>
      <trkpt lat="28.2049090" lon="-16.6792860">
        <ele>2037.9</ele>
        <time>2020-11-11T19:49:40Z</time>
      </trkpt>
      <trkpt lat="28.2048980" lon="-16.6792850">
        <ele>2037.9</ele>
        <time>2020-11-11T19:49:41Z</time>
      </trkpt>
      <trkpt lat="28.2048980" lon="-16.6792850">
        <ele>2037.9</ele>
        <time>2020-11-11T19:49:42Z</time>
      </trkpt>
      <trkpt lat="28.2048380" lon="-16.6792700">
        <ele>2038.9</ele>
        <time>2020-11-11T19:49:43Z</time>
      </trkpt>
      <trkpt lat="28.2048200" lon="-16.6792780">
        <ele>2038.9</ele>
        <time>2020-11-11T19:49:44Z</time>
      </trkpt>
      <trkpt lat="28.2048200" lon="-16.6792780">
        <ele>2038.9</ele>
        <time>2020-11-11T19:49:45Z</time>
      </trkpt>
      <trkpt lat="28.2048200" lon="-16.6792780">
        <ele>2038.9</ele>
        <time>2020-11-11T19:49:46Z</time>
      </trkpt>
      <trkpt lat="28.2047780" lon="-16.6793030">
        <ele>2039.9</ele>
        <time>2020-11-11T19:49:47Z</time>
      </trkpt>
      <trkpt lat="28.2047780" lon="-16.6793030">
        <ele>2039.9</ele>
        <time>2020-11-11T19:49:48Z</time>
      </trkpt>
      <trkpt lat="28.2047080" lon="-16.6793270">
        <ele>2039.9</ele>
        <time>2020-11-11T19:49:49Z</time>
      </trkpt>
      <trkpt lat="28.2047080" lon="-16.6793270">
        <ele>2039.9</ele>
        <time>2020-11-11T19:49:50Z</time>
      </trkpt>
      <trkpt lat="28.2047080" lon="-16.6793270">
        <ele>2039.9</ele>
        <time>2020-11-11T19:49:51Z</time>
      </trkpt>
      <trkpt lat="28.2046630" lon="-16.6793430">
        <ele>2039.9</ele>
        <time>2020-11-11T19:49:52Z</time>
      </trkpt>
      <trkpt lat="28.2046180" lon="-16.6793630">
        <ele>2039.9</ele>
        <time>2020-11-11T19:49:53Z</time>
      </trkpt>
      <trkpt lat="28.2046180" lon="-16.6793630">
        <ele>2040.9</ele>
        <time>2020-11-11T19:49:54Z</time>
      </trkpt>
      <trkpt lat="28.2045730" lon="-16.6793900">
        <ele>2040.9</ele>
        <time>2020-11-11T19:49:55Z</time>
      </trkpt>
      <trkpt lat="28.2045730" lon="-16.6793900">
        <ele>2040.9</ele>
        <time>2020-11-11T19:49:56Z</time>
      </trkpt>
      <trkpt lat="28.2045520" lon="-16.6794050">
        <ele>2040.9</ele>
        <time>2020-11-11T19:49:57Z</time>
      </trkpt>
      <trkpt lat="28.2045020" lon="-16.6794270">
        <ele>2040.9</ele>
        <time>2020-11-11T19:49:58Z</time>
      </trkpt>
      <trkpt lat="28.2045020" lon="-16.6794270">
        <ele>2040.9</ele>
        <time>2020-11-11T19:49:59Z</time>
      </trkpt>
      <trkpt lat="28.2044780" lon="-16.6794370">
        <ele>2041.9</ele>
        <time>2020-11-11T19:50:00Z</time>
      </trkpt>
      <trkpt lat="28.2044300" lon="-16.6794570">
        <ele>2041.9</ele>
        <time>2020-11-11T19:50:01Z</time>
      </trkpt>
      <trkpt lat="28.2044300" lon="-16.6794570">
        <ele>2041.9</ele>
        <time>2020-11-11T19:50:02Z</time>
      </trkpt>
      <trkpt lat="28.2044300" lon="-16.6794570">
        <ele>2041.9</ele>
        <time>2020-11-11T19:50:03Z</time>
      </trkpt>
      <trkpt lat="28.2043820" lon="-16.6794700">
        <ele>2041.9</ele>
        <time>2020-11-11T19:50:04Z</time>
      </trkpt>
      <trkpt lat="28.2043320" lon="-16.6794850">
        <ele>2041.9</ele>
        <time>2020-11-11T19:50:05Z</time>
      </trkpt>
      <trkpt lat="28.2043050" lon="-16.6794920">
        <ele>2041.9</ele>
        <time>2020-11-11T19:50:06Z</time>
      </trkpt>
      <trkpt lat="28.2042800" lon="-16.6794930">
        <ele>2041.9</ele>
        <time>2020-11-11T19:50:07Z</time>
      </trkpt>
      <trkpt lat="28.2042800" lon="-16.6794930">
        <ele>2041.9</ele>
        <time>2020-11-11T19:50:08Z</time>
      </trkpt>
      <trkpt lat="28.2042350" lon="-16.6794980">
        <ele>2041.9</ele>
        <time>2020-11-11T19:50:09Z</time>
      </trkpt>
      <trkpt lat="28.2042100" lon="-16.6795000">
        <ele>2041.9</ele>
        <time>2020-11-11T19:50:10Z</time>
      </trkpt>
      <trkpt lat="28.2042100" lon="-16.6795000">
        <ele>2041.9</ele>
        <time>2020-11-11T19:50:11Z</time>
      </trkpt>
      <trkpt lat="28.2041600" lon="-16.6794950">
        <ele>2041.9</ele>
        <time>2020-11-11T19:50:12Z</time>
      </trkpt>
      <trkpt lat="28.2041600" lon="-16.6794950">
        <ele>2041.9</ele>
        <time>2020-11-11T19:50:13Z</time>
      </trkpt>
      <trkpt lat="28.2041600" lon="-16.6794950">
        <ele>2041.9</ele>
        <time>2020-11-11T19:50:14Z</time>
      </trkpt>
      <trkpt lat="28.2040880" lon="-16.6794820">
        <ele>2041.9</ele>
        <time>2020-11-11T19:50:15Z</time>
      </trkpt>
      <trkpt lat="28.2040880" lon="-16.6794820">
        <ele>2041.9</ele>
        <time>2020-11-11T19:50:16Z</time>
      </trkpt>
      <trkpt lat="28.2040880" lon="-16.6794820">
        <ele>2041.9</ele>
        <time>2020-11-11T19:50:17Z</time>
      </trkpt>
      <trkpt lat="28.2040400" lon="-16.6794750">
        <ele>2041.9</ele>
        <time>2020-11-11T19:50:18Z</time>
      </trkpt>
      <trkpt lat="28.2040400" lon="-16.6794750">
        <ele>2041.9</ele>
        <time>2020-11-11T19:50:19Z</time>
      </trkpt>
      <trkpt lat="28.2039920" lon="-16.6794800">
        <ele>2042.9</ele>
        <time>2020-11-11T19:50:20Z</time>
      </trkpt>
      <trkpt lat="28.2039680" lon="-16.6794800">
        <ele>2042.9</ele>
        <time>2020-11-11T19:50:21Z</time>
      </trkpt>
      <trkpt lat="28.2039680" lon="-16.6794800">
        <ele>2042.9</ele>
        <time>2020-11-11T19:50:22Z</time>
      </trkpt>
      <trkpt lat="28.2039230" lon="-16.6794630">
        <ele>2042.9</ele>
        <time>2020-11-11T19:50:23Z</time>
      </trkpt>
      <trkpt lat="28.2038770" lon="-16.6794470">
        <ele>2043.9</ele>
        <time>2020-11-11T19:50:24Z</time>
      </trkpt>
      <trkpt lat="28.2038770" lon="-16.6794470">
        <ele>2043.9</ele>
        <time>2020-11-11T19:50:25Z</time>
      </trkpt>
      <trkpt lat="28.2038300" lon="-16.6794280">
        <ele>2043.9</ele>
        <time>2020-11-11T19:50:26Z</time>
      </trkpt>
      <trkpt lat="28.2038300" lon="-16.6794280">
        <ele>2043.9</ele>
        <time>2020-11-11T19:50:27Z</time>
      </trkpt>
      <trkpt lat="28.2038300" lon="-16.6794280">
        <ele>2043.9</ele>
        <time>2020-11-11T19:50:28Z</time>
      </trkpt>
      <trkpt lat="28.2037870" lon="-16.6794050">
        <ele>2043.9</ele>
        <time>2020-11-11T19:50:29Z</time>
      </trkpt>
      <trkpt lat="28.2037870" lon="-16.6794050">
        <ele>2044.9</ele>
        <time>2020-11-11T19:50:30Z</time>
      </trkpt>
      <trkpt lat="28.2037230" lon="-16.6793570">
        <ele>2044.9</ele>
        <time>2020-11-11T19:50:31Z</time>
      </trkpt>
      <trkpt lat="28.2037230" lon="-16.6793570">
        <ele>2044.9</ele>
        <time>2020-11-11T19:50:32Z</time>
      </trkpt>
      <trkpt lat="28.2036920" lon="-16.6793150">
        <ele>2044.9</ele>
        <time>2020-11-11T19:50:33Z</time>
      </trkpt>
      <trkpt lat="28.2036920" lon="-16.6793150">
        <ele>2044.9</ele>
        <time>2020-11-11T19:50:34Z</time>
      </trkpt>
      <trkpt lat="28.2036580" lon="-16.6792680">
        <ele>2044.9</ele>
        <time>2020-11-11T19:50:35Z</time>
      </trkpt>
      <trkpt lat="28.2036580" lon="-16.6792680">
        <ele>2044.9</ele>
        <time>2020-11-11T19:50:36Z</time>
      </trkpt>
      <trkpt lat="28.2036580" lon="-16.6792680">
        <ele>2045.9</ele>
        <time>2020-11-11T19:50:37Z</time>
      </trkpt>
      <trkpt lat="28.2036300" lon="-16.6792150">
        <ele>2045.9</ele>
        <time>2020-11-11T19:50:38Z</time>
      </trkpt>
      <trkpt lat="28.2036150" lon="-16.6791580">
        <ele>2045.9</ele>
        <time>2020-11-11T19:50:39Z</time>
      </trkpt>
      <trkpt lat="28.2036150" lon="-16.6791580">
        <ele>2045.9</ele>
        <time>2020-11-11T19:50:40Z</time>
      </trkpt>
      <trkpt lat="28.2036150" lon="-16.6791580">
        <ele>2045.9</ele>
        <time>2020-11-11T19:50:41Z</time>
      </trkpt>
      <trkpt lat="28.2036070" lon="-16.6790910">
        <ele>2045.9</ele>
        <time>2020-11-11T19:50:42Z</time>
      </trkpt>
      <trkpt lat="28.2036070" lon="-16.6790770">
        <ele>2045.9</ele>
        <time>2020-11-11T19:50:43Z</time>
      </trkpt>
      <trkpt lat="28.2036070" lon="-16.6790220">
        <ele>2045.9</ele>
        <time>2020-11-11T19:50:44Z</time>
      </trkpt>
      <trkpt lat="28.2036070" lon="-16.6790220">
        <ele>2045.9</ele>
        <time>2020-11-11T19:50:45Z</time>
      </trkpt>
      <trkpt lat="28.2036070" lon="-16.6790220">
        <ele>2046.9</ele>
        <time>2020-11-11T19:50:46Z</time>
      </trkpt>
      <trkpt lat="28.2036080" lon="-16.6789670">
        <ele>2046.9</ele>
        <time>2020-11-11T19:50:47Z</time>
      </trkpt>
      <trkpt lat="28.2036130" lon="-16.6789150">
        <ele>2046.9</ele>
        <time>2020-11-11T19:50:48Z</time>
      </trkpt>
      <trkpt lat="28.2036130" lon="-16.6789150">
        <ele>2046.9</ele>
        <time>2020-11-11T19:50:49Z</time>
      </trkpt>
      <trkpt lat="28.2036200" lon="-16.6788920">
        <ele>2046.9</ele>
        <time>2020-11-11T19:50:50Z</time>
      </trkpt>
      <trkpt lat="28.2036350" lon="-16.6788400">
        <ele>2046.9</ele>
        <time>2020-11-11T19:50:51Z</time>
      </trkpt>
      <trkpt lat="28.2036350" lon="-16.6788400">
        <ele>2047.9</ele>
        <time>2020-11-11T19:50:52Z</time>
      </trkpt>
      <trkpt lat="28.2036350" lon="-16.6788400">
        <ele>2047.9</ele>
        <time>2020-11-11T19:50:53Z</time>
      </trkpt>
      <trkpt lat="28.2036550" lon="-16.6787920">
        <ele>2047.9</ele>
        <time>2020-11-11T19:50:54Z</time>
      </trkpt>
      <trkpt lat="28.2036550" lon="-16.6787920">
        <ele>2047.9</ele>
        <time>2020-11-11T19:50:55Z</time>
      </trkpt>
      <trkpt lat="28.2036700" lon="-16.6787450">
        <ele>2045.9</ele>
        <time>2020-11-11T19:50:56Z</time>
      </trkpt>
      <trkpt lat="28.2036870" lon="-16.6787030">
        <ele>2045.9</ele>
        <time>2020-11-11T19:50:57Z</time>
      </trkpt>
      <trkpt lat="28.2036870" lon="-16.6787030">
        <ele>2046.9</ele>
        <time>2020-11-11T19:50:58Z</time>
      </trkpt>
      <trkpt lat="28.2037120" lon="-16.6786650">
        <ele>2046.9</ele>
        <time>2020-11-11T19:50:59Z</time>
      </trkpt>
      <trkpt lat="28.2037120" lon="-16.6786650">
        <ele>2047.9</ele>
        <time>2020-11-11T19:51:00Z</time>
      </trkpt>
      <trkpt lat="28.2037120" lon="-16.6786650">
        <ele>2047.9</ele>
        <time>2020-11-11T19:51:01Z</time>
      </trkpt>
      <trkpt lat="28.2037300" lon="-16.6786200">
        <ele>2047.9</ele>
        <time>2020-11-11T19:51:02Z</time>
      </trkpt>
      <trkpt lat="28.2037300" lon="-16.6786200">
        <ele>2047.9</ele>
        <time>2020-11-11T19:51:03Z</time>
      </trkpt>
      <trkpt lat="28.2037430" lon="-16.6785780">
        <ele>2048.9</ele>
        <time>2020-11-11T19:51:04Z</time>
      </trkpt>
      <trkpt lat="28.2037650" lon="-16.6785380">
        <ele>2048.9</ele>
        <time>2020-11-11T19:51:05Z</time>
      </trkpt>
      <trkpt lat="28.2037650" lon="-16.6785380">
        <ele>2048.9</ele>
        <time>2020-11-11T19:51:06Z</time>
      </trkpt>
      <trkpt lat="28.2037650" lon="-16.6785380">
        <ele>2048.9</ele>
        <time>2020-11-11T19:51:07Z</time>
      </trkpt>
      <trkpt lat="28.2037880" lon="-16.6784950">
        <ele>2049.9</ele>
        <time>2020-11-11T19:51:08Z</time>
      </trkpt>
      <trkpt lat="28.2037980" lon="-16.6784730">
        <ele>2049.9</ele>
        <time>2020-11-11T19:51:09Z</time>
      </trkpt>
      <trkpt lat="28.2038220" lon="-16.6784350">
        <ele>2049.9</ele>
        <time>2020-11-11T19:51:10Z</time>
      </trkpt>
      <trkpt lat="28.2038220" lon="-16.6784350">
        <ele>2049.9</ele>
        <time>2020-11-11T19:51:11Z</time>
      </trkpt>
      <trkpt lat="28.2038500" lon="-16.6784000">
        <ele>2049.9</ele>
        <time>2020-11-11T19:51:12Z</time>
      </trkpt>
      <trkpt lat="28.2038500" lon="-16.6784000">
        <ele>2049.9</ele>
        <time>2020-11-11T19:51:13Z</time>
      </trkpt>
      <trkpt lat="28.2038500" lon="-16.6784000">
        <ele>2049.9</ele>
        <time>2020-11-11T19:51:14Z</time>
      </trkpt>
      <trkpt lat="28.2038720" lon="-16.6783580">
        <ele>2049.9</ele>
        <time>2020-11-11T19:51:15Z</time>
      </trkpt>
      <trkpt lat="28.2038720" lon="-16.6783580">
        <ele>2049.9</ele>
        <time>2020-11-11T19:51:16Z</time>
      </trkpt>
      <trkpt lat="28.2038930" lon="-16.6783220">
        <ele>2050.9</ele>
        <time>2020-11-11T19:51:17Z</time>
      </trkpt>
      <trkpt lat="28.2039250" lon="-16.6782820">
        <ele>2050.9</ele>
        <time>2020-11-11T19:51:18Z</time>
      </trkpt>
      <trkpt lat="28.2039420" lon="-16.6782630">
        <ele>2050.9</ele>
        <time>2020-11-11T19:51:19Z</time>
      </trkpt>
      <trkpt lat="28.2039420" lon="-16.6782630">
        <ele>2050.9</ele>
        <time>2020-11-11T19:51:20Z</time>
      </trkpt>
      <trkpt lat="28.2039730" lon="-16.6782300">
        <ele>2050.9</ele>
        <time>2020-11-11T19:51:21Z</time>
      </trkpt>
      <trkpt lat="28.2039730" lon="-16.6782300">
        <ele>2050.9</ele>
        <time>2020-11-11T19:51:22Z</time>
      </trkpt>
      <trkpt lat="28.2039980" lon="-16.6781870">
        <ele>2050.9</ele>
        <time>2020-11-11T19:51:23Z</time>
      </trkpt>
      <trkpt lat="28.2039980" lon="-16.6781870">
        <ele>2050.9</ele>
        <time>2020-11-11T19:51:24Z</time>
      </trkpt>
      <trkpt lat="28.2040250" lon="-16.6781470">
        <ele>2050.9</ele>
        <time>2020-11-11T19:51:25Z</time>
      </trkpt>
      <trkpt lat="28.2040250" lon="-16.6781470">
        <ele>2050.9</ele>
        <time>2020-11-11T19:51:26Z</time>
      </trkpt>
      <trkpt lat="28.2040530" lon="-16.6781100">
        <ele>2051.9</ele>
        <time>2020-11-11T19:51:27Z</time>
      </trkpt>
      <trkpt lat="28.2040530" lon="-16.6781100">
        <ele>2051.9</ele>
        <time>2020-11-11T19:51:28Z</time>
      </trkpt>
      <trkpt lat="28.2040820" lon="-16.6780730">
        <ele>2051.9</ele>
        <time>2020-11-11T19:51:29Z</time>
      </trkpt>
      <trkpt lat="28.2040820" lon="-16.6780730">
        <ele>2051.9</ele>
        <time>2020-11-11T19:51:30Z</time>
      </trkpt>
      <trkpt lat="28.2041150" lon="-16.6780400">
        <ele>2051.9</ele>
        <time>2020-11-11T19:51:31Z</time>
      </trkpt>
      <trkpt lat="28.2041250" lon="-16.6780330">
        <ele>2051.9</ele>
        <time>2020-11-11T19:51:32Z</time>
      </trkpt>
      <trkpt lat="28.2041350" lon="-16.6780250">
        <ele>2051.9</ele>
        <time>2020-11-11T19:51:33Z</time>
      </trkpt>
      <trkpt lat="28.2041350" lon="-16.6780250">
        <ele>2051.9</ele>
        <time>2020-11-11T19:51:34Z</time>
      </trkpt>
      <trkpt lat="28.2041670" lon="-16.6779920">
        <ele>2053.9</ele>
        <time>2020-11-11T19:51:35Z</time>
      </trkpt>
      <trkpt lat="28.2041670" lon="-16.6779920">
        <ele>2053.9</ele>
        <time>2020-11-11T19:51:36Z</time>
      </trkpt>
      <trkpt lat="28.2041950" lon="-16.6779550">
        <ele>2053.9</ele>
        <time>2020-11-11T19:51:37Z</time>
      </trkpt>
      <trkpt lat="28.2042050" lon="-16.6779330">
        <ele>2053.9</ele>
        <time>2020-11-11T19:51:38Z</time>
      </trkpt>
      <trkpt lat="28.2042300" lon="-16.6778950">
        <ele>2053.9</ele>
        <time>2020-11-11T19:51:39Z</time>
      </trkpt>
      <trkpt lat="28.2042300" lon="-16.6778950">
        <ele>2053.9</ele>
        <time>2020-11-11T19:51:40Z</time>
      </trkpt>
      <trkpt lat="28.2042300" lon="-16.6778950">
        <ele>2053.9</ele>
        <time>2020-11-11T19:51:41Z</time>
      </trkpt>
      <trkpt lat="28.2042750" lon="-16.6778420">
        <ele>2053.9</ele>
        <time>2020-11-11T19:51:42Z</time>
      </trkpt>
      <trkpt lat="28.2042750" lon="-16.6778420">
        <ele>2053.9</ele>
        <time>2020-11-11T19:51:43Z</time>
      </trkpt>
      <trkpt lat="28.2042880" lon="-16.6778250">
        <ele>2053.9</ele>
        <time>2020-11-11T19:51:44Z</time>
      </trkpt>
      <trkpt lat="28.2042880" lon="-16.6778250">
        <ele>2053.9</ele>
        <time>2020-11-11T19:51:45Z</time>
      </trkpt>
      <trkpt lat="28.2043080" lon="-16.6777900">
        <ele>2053.9</ele>
        <time>2020-11-11T19:51:46Z</time>
      </trkpt>
      <trkpt lat="28.2043280" lon="-16.6777520">
        <ele>2053.9</ele>
        <time>2020-11-11T19:51:47Z</time>
      </trkpt>
      <trkpt lat="28.2043280" lon="-16.6777520">
        <ele>2054.9</ele>
        <time>2020-11-11T19:51:48Z</time>
      </trkpt>
      <trkpt lat="28.2043280" lon="-16.6777520">
        <ele>2054.9</ele>
        <time>2020-11-11T19:51:49Z</time>
      </trkpt>
      <trkpt lat="28.2043500" lon="-16.6777150">
        <ele>2054.9</ele>
        <time>2020-11-11T19:51:50Z</time>
      </trkpt>
      <trkpt lat="28.2043750" lon="-16.6776830">
        <ele>2054.9</ele>
        <time>2020-11-11T19:51:51Z</time>
      </trkpt>
      <trkpt lat="28.2043750" lon="-16.6776830">
        <ele>2054.9</ele>
        <time>2020-11-11T19:51:52Z</time>
      </trkpt>
      <trkpt lat="28.2043980" lon="-16.6776450">
        <ele>2054.9</ele>
        <time>2020-11-11T19:51:53Z</time>
      </trkpt>
      <trkpt lat="28.2043980" lon="-16.6776450">
        <ele>2054.9</ele>
        <time>2020-11-11T19:51:54Z</time>
      </trkpt>
      <trkpt lat="28.2043980" lon="-16.6776450">
        <ele>2054.9</ele>
        <time>2020-11-11T19:51:55Z</time>
      </trkpt>
      <trkpt lat="28.2044200" lon="-16.6776070">
        <ele>2054.9</ele>
        <time>2020-11-11T19:51:56Z</time>
      </trkpt>
      <trkpt lat="28.2044330" lon="-16.6775880">
        <ele>2054.9</ele>
        <time>2020-11-11T19:51:57Z</time>
      </trkpt>
      <trkpt lat="28.2044550" lon="-16.6775520">
        <ele>2054.9</ele>
        <time>2020-11-11T19:51:58Z</time>
      </trkpt>
      <trkpt lat="28.2044550" lon="-16.6775520">
        <ele>2054.9</ele>
        <time>2020-11-11T19:51:59Z</time>
      </trkpt>
      <trkpt lat="28.2044750" lon="-16.6775150">
        <ele>2054.9</ele>
        <time>2020-11-11T19:52:00Z</time>
      </trkpt>
      <trkpt lat="28.2044750" lon="-16.6775150">
        <ele>2054.9</ele>
        <time>2020-11-11T19:52:01Z</time>
      </trkpt>
      <trkpt lat="28.2045020" lon="-16.6774780">
        <ele>2055.9</ele>
        <time>2020-11-11T19:52:02Z</time>
      </trkpt>
      <trkpt lat="28.2045020" lon="-16.6774780">
        <ele>2055.9</ele>
        <time>2020-11-11T19:52:03Z</time>
      </trkpt>
      <trkpt lat="28.2045250" lon="-16.6774380">
        <ele>2055.9</ele>
        <time>2020-11-11T19:52:04Z</time>
      </trkpt>
      <trkpt lat="28.2045250" lon="-16.6774380">
        <ele>2055.9</ele>
        <time>2020-11-11T19:52:05Z</time>
      </trkpt>
      <trkpt lat="28.2045470" lon="-16.6773980">
        <ele>2055.9</ele>
        <time>2020-11-11T19:52:06Z</time>
      </trkpt>
      <trkpt lat="28.2045550" lon="-16.6773780">
        <ele>2055.9</ele>
        <time>2020-11-11T19:52:07Z</time>
      </trkpt>
      <trkpt lat="28.2045550" lon="-16.6773780">
        <ele>2055.9</ele>
        <time>2020-11-11T19:52:08Z</time>
      </trkpt>
      <trkpt lat="28.2045700" lon="-16.6773420">
        <ele>2055.9</ele>
        <time>2020-11-11T19:52:09Z</time>
      </trkpt>
      <trkpt lat="28.2045700" lon="-16.6773420">
        <ele>2055.9</ele>
        <time>2020-11-11T19:52:10Z</time>
      </trkpt>
      <trkpt lat="28.2045700" lon="-16.6773420">
        <ele>2055.9</ele>
        <time>2020-11-11T19:52:11Z</time>
      </trkpt>
      <trkpt lat="28.2045920" lon="-16.6773020">
        <ele>2055.9</ele>
        <time>2020-11-11T19:52:12Z</time>
      </trkpt>
      <trkpt lat="28.2046220" lon="-16.6772500">
        <ele>2056.9</ele>
        <time>2020-11-11T19:52:13Z</time>
      </trkpt>
      <trkpt lat="28.2046220" lon="-16.6772500">
        <ele>2056.9</ele>
        <time>2020-11-11T19:52:14Z</time>
      </trkpt>
      <trkpt lat="28.2046380" lon="-16.6772100">
        <ele>2056.9</ele>
        <time>2020-11-11T19:52:15Z</time>
      </trkpt>
      <trkpt lat="28.2046380" lon="-16.6772100">
        <ele>2056.9</ele>
        <time>2020-11-11T19:52:16Z</time>
      </trkpt>
      <trkpt lat="28.2046530" lon="-16.6771700">
        <ele>2057.9</ele>
        <time>2020-11-11T19:52:17Z</time>
      </trkpt>
      <trkpt lat="28.2046530" lon="-16.6771700">
        <ele>2057.9</ele>
        <time>2020-11-11T19:52:18Z</time>
      </trkpt>
      <trkpt lat="28.2046770" lon="-16.6771450">
        <ele>2057.9</ele>
        <time>2020-11-11T19:52:19Z</time>
      </trkpt>
      <trkpt lat="28.2046900" lon="-16.6771330">
        <ele>2057.9</ele>
        <time>2020-11-11T19:52:20Z</time>
      </trkpt>
      <trkpt lat="28.2046900" lon="-16.6771330">
        <ele>2058.9</ele>
        <time>2020-11-11T19:52:21Z</time>
      </trkpt>
      <trkpt lat="28.2046900" lon="-16.6771330">
        <ele>2058.9</ele>
        <time>2020-11-11T19:52:22Z</time>
      </trkpt>
      <trkpt lat="28.2047050" lon="-16.6770750">
        <ele>2058.9</ele>
        <time>2020-11-11T19:52:23Z</time>
      </trkpt>
      <trkpt lat="28.2047050" lon="-16.6770750">
        <ele>2058.9</ele>
        <time>2020-11-11T19:52:24Z</time>
      </trkpt>
      <trkpt lat="28.2047050" lon="-16.6770750">
        <ele>2058.9</ele>
        <time>2020-11-11T19:52:25Z</time>
      </trkpt>
      <trkpt lat="28.2047170" lon="-16.6770320">
        <ele>2059.9</ele>
        <time>2020-11-11T19:52:26Z</time>
      </trkpt>
      <trkpt lat="28.2047170" lon="-16.6770320">
        <ele>2059.9</ele>
        <time>2020-11-11T19:52:27Z</time>
      </trkpt>
      <trkpt lat="28.2047300" lon="-16.6769900">
        <ele>2059.9</ele>
        <time>2020-11-11T19:52:28Z</time>
      </trkpt>
      <trkpt lat="28.2047300" lon="-16.6769900">
        <ele>2059.9</ele>
        <time>2020-11-11T19:52:29Z</time>
      </trkpt>
      <trkpt lat="28.2047450" lon="-16.6769480">
        <ele>2059.9</ele>
        <time>2020-11-11T19:52:30Z</time>
      </trkpt>
      <trkpt lat="28.2047450" lon="-16.6769480">
        <ele>2059.9</ele>
        <time>2020-11-11T19:52:31Z</time>
      </trkpt>
      <trkpt lat="28.2047630" lon="-16.6769080">
        <ele>2060.9</ele>
        <time>2020-11-11T19:52:32Z</time>
      </trkpt>
      <trkpt lat="28.2047720" lon="-16.6768870">
        <ele>2060.9</ele>
        <time>2020-11-11T19:52:33Z</time>
      </trkpt>
      <trkpt lat="28.2047720" lon="-16.6768870">
        <ele>2060.9</ele>
        <time>2020-11-11T19:52:34Z</time>
      </trkpt>
      <trkpt lat="28.2047870" lon="-16.6768470">
        <ele>2060.9</ele>
        <time>2020-11-11T19:52:35Z</time>
      </trkpt>
      <trkpt lat="28.2048100" lon="-16.6768120">
        <ele>2060.9</ele>
        <time>2020-11-11T19:52:36Z</time>
      </trkpt>
      <trkpt lat="28.2048100" lon="-16.6768120">
        <ele>2060.9</ele>
        <time>2020-11-11T19:52:37Z</time>
      </trkpt>
      <trkpt lat="28.2048100" lon="-16.6768120">
        <ele>2061.9</ele>
        <time>2020-11-11T19:52:38Z</time>
      </trkpt>
      <trkpt lat="28.2048320" lon="-16.6767750">
        <ele>2061.9</ele>
        <time>2020-11-11T19:52:39Z</time>
      </trkpt>
      <trkpt lat="28.2048530" lon="-16.6767380">
        <ele>2061.9</ele>
        <time>2020-11-11T19:52:40Z</time>
      </trkpt>
      <trkpt lat="28.2048630" lon="-16.6767200">
        <ele>2061.9</ele>
        <time>2020-11-11T19:52:41Z</time>
      </trkpt>
      <trkpt lat="28.2048630" lon="-16.6767200">
        <ele>2061.9</ele>
        <time>2020-11-11T19:52:42Z</time>
      </trkpt>
      <trkpt lat="28.2048630" lon="-16.6767200">
        <ele>2061.9</ele>
        <time>2020-11-11T19:52:43Z</time>
      </trkpt>
      <trkpt lat="28.2048800" lon="-16.6766850">
        <ele>2061.9</ele>
        <time>2020-11-11T19:52:44Z</time>
      </trkpt>
      <trkpt lat="28.2049020" lon="-16.6766530">
        <ele>2061.9</ele>
        <time>2020-11-11T19:52:45Z</time>
      </trkpt>
      <trkpt lat="28.2049020" lon="-16.6766530">
        <ele>2061.9</ele>
        <time>2020-11-11T19:52:46Z</time>
      </trkpt>
      <trkpt lat="28.2049250" lon="-16.6766200">
        <ele>2061.9</ele>
        <time>2020-11-11T19:52:47Z</time>
      </trkpt>
      <trkpt lat="28.2049250" lon="-16.6766200">
        <ele>2062.9</ele>
        <time>2020-11-11T19:52:48Z</time>
      </trkpt>
      <trkpt lat="28.2049450" lon="-16.6765850">
        <ele>2062.9</ele>
        <time>2020-11-11T19:52:49Z</time>
      </trkpt>
      <trkpt lat="28.2049450" lon="-16.6765850">
        <ele>2062.9</ele>
        <time>2020-11-11T19:52:50Z</time>
      </trkpt>
      <trkpt lat="28.2049680" lon="-16.6765500">
        <ele>2062.9</ele>
        <time>2020-11-11T19:52:51Z</time>
      </trkpt>
      <trkpt lat="28.2049800" lon="-16.6765300">
        <ele>2062.9</ele>
        <time>2020-11-11T19:52:52Z</time>
      </trkpt>
      <trkpt lat="28.2049800" lon="-16.6765300">
        <ele>2062.9</ele>
        <time>2020-11-11T19:52:53Z</time>
      </trkpt>
      <trkpt lat="28.2049800" lon="-16.6765300">
        <ele>2062.9</ele>
        <time>2020-11-11T19:52:54Z</time>
      </trkpt>
      <trkpt lat="28.2050100" lon="-16.6765020">
        <ele>2062.9</ele>
        <time>2020-11-11T19:52:55Z</time>
      </trkpt>
      <trkpt lat="28.2050400" lon="-16.6764720">
        <ele>2063.9</ele>
        <time>2020-11-11T19:52:56Z</time>
      </trkpt>
      <trkpt lat="28.2050400" lon="-16.6764720">
        <ele>2063.9</ele>
        <time>2020-11-11T19:52:57Z</time>
      </trkpt>
      <trkpt lat="28.2050400" lon="-16.6764720">
        <ele>2063.9</ele>
        <time>2020-11-11T19:52:58Z</time>
      </trkpt>
      <trkpt lat="28.2050630" lon="-16.6764350">
        <ele>2063.9</ele>
        <time>2020-11-11T19:52:59Z</time>
      </trkpt>
      <trkpt lat="28.2050950" lon="-16.6764000">
        <ele>2063.9</ele>
        <time>2020-11-11T19:53:00Z</time>
      </trkpt>
      <trkpt lat="28.2050950" lon="-16.6764000">
        <ele>2063.9</ele>
        <time>2020-11-11T19:53:01Z</time>
      </trkpt>
      <trkpt lat="28.2051180" lon="-16.6763700">
        <ele>2063.9</ele>
        <time>2020-11-11T19:53:02Z</time>
      </trkpt>
      <trkpt lat="28.2051180" lon="-16.6763700">
        <ele>2063.9</ele>
        <time>2020-11-11T19:53:03Z</time>
      </trkpt>
      <trkpt lat="28.2051180" lon="-16.6763700">
        <ele>2063.9</ele>
        <time>2020-11-11T19:53:04Z</time>
      </trkpt>
      <trkpt lat="28.2051420" lon="-16.6763450">
        <ele>2063.9</ele>
        <time>2020-11-11T19:53:05Z</time>
      </trkpt>
      <trkpt lat="28.2051420" lon="-16.6763450">
        <ele>2064.9</ele>
        <time>2020-11-11T19:53:06Z</time>
      </trkpt>
      <trkpt lat="28.2051650" lon="-16.6763180">
        <ele>2064.9</ele>
        <time>2020-11-11T19:53:07Z</time>
      </trkpt>
      <trkpt lat="28.2051650" lon="-16.6763180">
        <ele>2064.9</ele>
        <time>2020-11-11T19:53:08Z</time>
      </trkpt>
      <trkpt lat="28.2051870" lon="-16.6762900">
        <ele>2064.9</ele>
        <time>2020-11-11T19:53:09Z</time>
      </trkpt>
      <trkpt lat="28.2052170" lon="-16.6762730">
        <ele>2064.9</ele>
        <time>2020-11-11T19:53:10Z</time>
      </trkpt>
      <trkpt lat="28.2052170" lon="-16.6762730">
        <ele>2064.9</ele>
        <time>2020-11-11T19:53:11Z</time>
      </trkpt>
      <trkpt lat="28.2052170" lon="-16.6762730">
        <ele>2064.9</ele>
        <time>2020-11-11T19:53:12Z</time>
      </trkpt>
      <trkpt lat="28.2052480" lon="-16.6762630">
        <ele>2064.9</ele>
        <time>2020-11-11T19:53:13Z</time>
      </trkpt>
      <trkpt lat="28.2052480" lon="-16.6762630">
        <ele>2064.9</ele>
        <time>2020-11-11T19:53:14Z</time>
      </trkpt>
      <trkpt lat="28.2052600" lon="-16.6762300">
        <ele>2064.9</ele>
        <time>2020-11-11T19:53:15Z</time>
      </trkpt>
      <trkpt lat="28.2052800" lon="-16.6761980">
        <ele>2065.9</ele>
        <time>2020-11-11T19:53:16Z</time>
      </trkpt>
      <trkpt lat="28.2052800" lon="-16.6761980">
        <ele>2065.9</ele>
        <time>2020-11-11T19:53:17Z</time>
      </trkpt>
      <trkpt lat="28.2052800" lon="-16.6761980">
        <ele>2065.9</ele>
        <time>2020-11-11T19:53:18Z</time>
      </trkpt>
      <trkpt lat="28.2053070" lon="-16.6761820">
        <ele>2065.9</ele>
        <time>2020-11-11T19:53:19Z</time>
      </trkpt>
      <trkpt lat="28.2053180" lon="-16.6761680">
        <ele>2065.9</ele>
        <time>2020-11-11T19:53:20Z</time>
      </trkpt>
      <trkpt lat="28.2053420" lon="-16.6761420">
        <ele>2065.9</ele>
        <time>2020-11-11T19:53:21Z</time>
      </trkpt>
      <trkpt lat="28.2053420" lon="-16.6761420">
        <ele>2065.9</ele>
        <time>2020-11-11T19:53:22Z</time>
      </trkpt>
      <trkpt lat="28.2053650" lon="-16.6761170">
        <ele>2065.9</ele>
        <time>2020-11-11T19:53:23Z</time>
      </trkpt>
      <trkpt lat="28.2053650" lon="-16.6761170">
        <ele>2065.9</ele>
        <time>2020-11-11T19:53:24Z</time>
      </trkpt>
      <trkpt lat="28.2053900" lon="-16.6760880">
        <ele>2066.9</ele>
        <time>2020-11-11T19:53:25Z</time>
      </trkpt>
      <trkpt lat="28.2053900" lon="-16.6760880">
        <ele>2066.9</ele>
        <time>2020-11-11T19:53:26Z</time>
      </trkpt>
      <trkpt lat="28.2054150" lon="-16.6760630">
        <ele>2066.9</ele>
        <time>2020-11-11T19:53:27Z</time>
      </trkpt>
      <trkpt lat="28.2054150" lon="-16.6760630">
        <ele>2066.9</ele>
        <time>2020-11-11T19:53:28Z</time>
      </trkpt>
      <trkpt lat="28.2054150" lon="-16.6760630">
        <ele>2066.9</ele>
        <time>2020-11-11T19:53:29Z</time>
      </trkpt>
      <trkpt lat="28.2054400" lon="-16.6760400">
        <ele>2066.9</ele>
        <time>2020-11-11T19:53:30Z</time>
      </trkpt>
      <trkpt lat="28.2054400" lon="-16.6760400">
        <ele>2067.9</ele>
        <time>2020-11-11T19:53:31Z</time>
      </trkpt>
      <trkpt lat="28.2054650" lon="-16.6760170">
        <ele>2067.9</ele>
        <time>2020-11-11T19:53:32Z</time>
      </trkpt>
      <trkpt lat="28.2054880" lon="-16.6759920">
        <ele>2067.9</ele>
        <time>2020-11-11T19:53:33Z</time>
      </trkpt>
      <trkpt lat="28.2054880" lon="-16.6759920">
        <ele>2067.9</ele>
        <time>2020-11-11T19:53:34Z</time>
      </trkpt>
      <trkpt lat="28.2055080" lon="-16.6759630">
        <ele>2067.9</ele>
        <time>2020-11-11T19:53:35Z</time>
      </trkpt>
      <trkpt lat="28.2055080" lon="-16.6759630">
        <ele>2067.9</ele>
        <time>2020-11-11T19:53:36Z</time>
      </trkpt>
      <trkpt lat="28.2055300" lon="-16.6759380">
        <ele>2067.9</ele>
        <time>2020-11-11T19:53:37Z</time>
      </trkpt>
      <trkpt lat="28.2055300" lon="-16.6759380">
        <ele>2067.9</ele>
        <time>2020-11-11T19:53:38Z</time>
      </trkpt>
      <trkpt lat="28.2055530" lon="-16.6759120">
        <ele>2068.9</ele>
        <time>2020-11-11T19:53:39Z</time>
      </trkpt>
      <trkpt lat="28.2055530" lon="-16.6759120">
        <ele>2068.9</ele>
        <time>2020-11-11T19:53:40Z</time>
      </trkpt>
      <trkpt lat="28.2055530" lon="-16.6759120">
        <ele>2068.9</ele>
        <time>2020-11-11T19:53:41Z</time>
      </trkpt>
      <trkpt lat="28.2055750" lon="-16.6758830">
        <ele>2068.9</ele>
        <time>2020-11-11T19:53:42Z</time>
      </trkpt>
      <trkpt lat="28.2055750" lon="-16.6758830">
        <ele>2069.9</ele>
        <time>2020-11-11T19:53:43Z</time>
      </trkpt>
      <trkpt lat="28.2056030" lon="-16.6758650">
        <ele>2069.9</ele>
        <time>2020-11-11T19:53:44Z</time>
      </trkpt>
      <trkpt lat="28.2056030" lon="-16.6758650">
        <ele>2069.9</ele>
        <time>2020-11-11T19:53:45Z</time>
      </trkpt>
      <trkpt lat="28.2056350" lon="-16.6758500">
        <ele>2069.9</ele>
        <time>2020-11-11T19:53:46Z</time>
      </trkpt>
      <trkpt lat="28.2056570" lon="-16.6758220">
        <ele>2069.9</ele>
        <time>2020-11-11T19:53:47Z</time>
      </trkpt>
      <trkpt lat="28.2056570" lon="-16.6758220">
        <ele>2069.9</ele>
        <time>2020-11-11T19:53:48Z</time>
      </trkpt>
      <trkpt lat="28.2056670" lon="-16.6758080">
        <ele>2069.9</ele>
        <time>2020-11-11T19:53:49Z</time>
      </trkpt>
      <trkpt lat="28.2056670" lon="-16.6758080">
        <ele>2069.9</ele>
        <time>2020-11-11T19:53:50Z</time>
      </trkpt>
      <trkpt lat="28.2057050" lon="-16.6757700">
        <ele>2069.9</ele>
        <time>2020-11-11T19:53:51Z</time>
      </trkpt>
      <trkpt lat="28.2057050" lon="-16.6757700">
        <ele>2069.9</ele>
        <time>2020-11-11T19:53:52Z</time>
      </trkpt>
      <trkpt lat="28.2057050" lon="-16.6757700">
        <ele>2070.9</ele>
        <time>2020-11-11T19:53:53Z</time>
      </trkpt>
      <trkpt lat="28.2057270" lon="-16.6757420">
        <ele>2070.9</ele>
        <time>2020-11-11T19:53:54Z</time>
      </trkpt>
      <trkpt lat="28.2057270" lon="-16.6757420">
        <ele>2070.9</ele>
        <time>2020-11-11T19:53:55Z</time>
      </trkpt>
      <trkpt lat="28.2057530" lon="-16.6757200">
        <ele>2070.9</ele>
        <time>2020-11-11T19:53:56Z</time>
      </trkpt>
      <trkpt lat="28.2057820" lon="-16.6756930">
        <ele>2070.9</ele>
        <time>2020-11-11T19:53:57Z</time>
      </trkpt>
      <trkpt lat="28.2057820" lon="-16.6756930">
        <ele>2070.9</ele>
        <time>2020-11-11T19:53:58Z</time>
      </trkpt>
      <trkpt lat="28.2057820" lon="-16.6756930">
        <ele>2070.9</ele>
        <time>2020-11-11T19:53:59Z</time>
      </trkpt>
      <trkpt lat="28.2058100" lon="-16.6756720">
        <ele>2071.9</ele>
        <time>2020-11-11T19:54:00Z</time>
      </trkpt>
      <trkpt lat="28.2058100" lon="-16.6756720">
        <ele>2071.9</ele>
        <time>2020-11-11T19:54:01Z</time>
      </trkpt>
      <trkpt lat="28.2058370" lon="-16.6756480">
        <ele>2071.9</ele>
        <time>2020-11-11T19:54:02Z</time>
      </trkpt>
      <trkpt lat="28.2058620" lon="-16.6756280">
        <ele>2071.9</ele>
        <time>2020-11-11T19:54:03Z</time>
      </trkpt>
      <trkpt lat="28.2058620" lon="-16.6756280">
        <ele>2071.9</ele>
        <time>2020-11-11T19:54:04Z</time>
      </trkpt>
      <trkpt lat="28.2058620" lon="-16.6756280">
        <ele>2071.9</ele>
        <time>2020-11-11T19:54:05Z</time>
      </trkpt>
      <trkpt lat="28.2058800" lon="-16.6756030">
        <ele>2072.9</ele>
        <time>2020-11-11T19:54:06Z</time>
      </trkpt>
      <trkpt lat="28.2058970" lon="-16.6755750">
        <ele>2072.9</ele>
        <time>2020-11-11T19:54:07Z</time>
      </trkpt>
      <trkpt lat="28.2058970" lon="-16.6755750">
        <ele>2073.9</ele>
        <time>2020-11-11T19:54:08Z</time>
      </trkpt>
      <trkpt lat="28.2059180" lon="-16.6755500">
        <ele>2073.9</ele>
        <time>2020-11-11T19:54:09Z</time>
      </trkpt>
      <trkpt lat="28.2059180" lon="-16.6755500">
        <ele>2073.9</ele>
        <time>2020-11-11T19:54:10Z</time>
      </trkpt>
      <trkpt lat="28.2059180" lon="-16.6755500">
        <ele>2073.9</ele>
        <time>2020-11-11T19:54:11Z</time>
      </trkpt>
      <trkpt lat="28.2059320" lon="-16.6755180">
        <ele>2073.9</ele>
        <time>2020-11-11T19:54:12Z</time>
      </trkpt>
      <trkpt lat="28.2059530" lon="-16.6754880">
        <ele>2073.9</ele>
        <time>2020-11-11T19:54:13Z</time>
      </trkpt>
      <trkpt lat="28.2059530" lon="-16.6754880">
        <ele>2074.9</ele>
        <time>2020-11-11T19:54:14Z</time>
      </trkpt>
      <trkpt lat="28.2059530" lon="-16.6754880">
        <ele>2074.9</ele>
        <time>2020-11-11T19:54:15Z</time>
      </trkpt>
      <trkpt lat="28.2059680" lon="-16.6754550">
        <ele>2074.9</ele>
        <time>2020-11-11T19:54:16Z</time>
      </trkpt>
      <trkpt lat="28.2059780" lon="-16.6754170">
        <ele>2074.9</ele>
        <time>2020-11-11T19:54:17Z</time>
      </trkpt>
      <trkpt lat="28.2059780" lon="-16.6754170">
        <ele>2074.9</ele>
        <time>2020-11-11T19:54:18Z</time>
      </trkpt>
      <trkpt lat="28.2059780" lon="-16.6754170">
        <ele>2074.9</ele>
        <time>2020-11-11T19:54:19Z</time>
      </trkpt>
      <trkpt lat="28.2059920" lon="-16.6753820">
        <ele>2074.9</ele>
        <time>2020-11-11T19:54:20Z</time>
      </trkpt>
      <trkpt lat="28.2060030" lon="-16.6753450">
        <ele>2074.9</ele>
        <time>2020-11-11T19:54:21Z</time>
      </trkpt>
      <trkpt lat="28.2060130" lon="-16.6753300">
        <ele>2074.9</ele>
        <time>2020-11-11T19:54:22Z</time>
      </trkpt>
      <trkpt lat="28.2060130" lon="-16.6753300">
        <ele>2074.9</ele>
        <time>2020-11-11T19:54:23Z</time>
      </trkpt>
      <trkpt lat="28.2060130" lon="-16.6753300">
        <ele>2074.9</ele>
        <time>2020-11-11T19:54:24Z</time>
      </trkpt>
      <trkpt lat="28.2060270" lon="-16.6752950">
        <ele>2075.9</ele>
        <time>2020-11-11T19:54:25Z</time>
      </trkpt>
      <trkpt lat="28.2060270" lon="-16.6752950">
        <ele>2075.9</ele>
        <time>2020-11-11T19:54:26Z</time>
      </trkpt>
      <trkpt lat="28.2060380" lon="-16.6752570">
        <ele>2075.9</ele>
        <time>2020-11-11T19:54:27Z</time>
      </trkpt>
      <trkpt lat="28.2060550" lon="-16.6752200">
        <ele>2075.9</ele>
        <time>2020-11-11T19:54:28Z</time>
      </trkpt>
      <trkpt lat="28.2060550" lon="-16.6752200">
        <ele>2075.9</ele>
        <time>2020-11-11T19:54:29Z</time>
      </trkpt>
      <trkpt lat="28.2060620" lon="-16.6751800">
        <ele>2075.9</ele>
        <time>2020-11-11T19:54:30Z</time>
      </trkpt>
      <trkpt lat="28.2060620" lon="-16.6751800">
        <ele>2075.9</ele>
        <time>2020-11-11T19:54:31Z</time>
      </trkpt>
      <trkpt lat="28.2060620" lon="-16.6751800">
        <ele>2075.9</ele>
        <time>2020-11-11T19:54:32Z</time>
      </trkpt>
      <trkpt lat="28.2060630" lon="-16.6751380">
        <ele>2076.9</ele>
        <time>2020-11-11T19:54:33Z</time>
      </trkpt>
      <trkpt lat="28.2060720" lon="-16.6751020">
        <ele>2076.9</ele>
        <time>2020-11-11T19:54:34Z</time>
      </trkpt>
      <trkpt lat="28.2060720" lon="-16.6751020">
        <ele>2076.9</ele>
        <time>2020-11-11T19:54:35Z</time>
      </trkpt>
      <trkpt lat="28.2060770" lon="-16.6750630">
        <ele>2076.9</ele>
        <time>2020-11-11T19:54:36Z</time>
      </trkpt>
      <trkpt lat="28.2060770" lon="-16.6750630">
        <ele>2077.9</ele>
        <time>2020-11-11T19:54:37Z</time>
      </trkpt>
      <trkpt lat="28.2060800" lon="-16.6750250">
        <ele>2077.9</ele>
        <time>2020-11-11T19:54:38Z</time>
      </trkpt>
      <trkpt lat="28.2060800" lon="-16.6750250">
        <ele>2077.9</ele>
        <time>2020-11-11T19:54:39Z</time>
      </trkpt>
      <trkpt lat="28.2060800" lon="-16.6750250">
        <ele>2077.9</ele>
        <time>2020-11-11T19:54:40Z</time>
      </trkpt>
      <trkpt lat="28.2060780" lon="-16.6749850">
        <ele>2077.9</ele>
        <time>2020-11-11T19:54:41Z</time>
      </trkpt>
      <trkpt lat="28.2060780" lon="-16.6749850">
        <ele>2077.9</ele>
        <time>2020-11-11T19:54:42Z</time>
      </trkpt>
      <trkpt lat="28.2060770" lon="-16.6749450">
        <ele>2077.9</ele>
        <time>2020-11-11T19:54:43Z</time>
      </trkpt>
      <trkpt lat="28.2060700" lon="-16.6749030">
        <ele>2077.9</ele>
        <time>2020-11-11T19:54:44Z</time>
      </trkpt>
      <trkpt lat="28.2060700" lon="-16.6749030">
        <ele>2077.9</ele>
        <time>2020-11-11T19:54:45Z</time>
      </trkpt>
      <trkpt lat="28.2060580" lon="-16.6748630">
        <ele>2077.9</ele>
        <time>2020-11-11T19:54:46Z</time>
      </trkpt>
      <trkpt lat="28.2060580" lon="-16.6748630">
        <ele>2078.9</ele>
        <time>2020-11-11T19:54:47Z</time>
      </trkpt>
      <trkpt lat="28.2060530" lon="-16.6748430">
        <ele>2078.9</ele>
        <time>2020-11-11T19:54:48Z</time>
      </trkpt>
      <trkpt lat="28.2060400" lon="-16.6748080">
        <ele>2078.9</ele>
        <time>2020-11-11T19:54:49Z</time>
      </trkpt>
      <trkpt lat="28.2060400" lon="-16.6748080">
        <ele>2078.9</ele>
        <time>2020-11-11T19:54:50Z</time>
      </trkpt>
      <trkpt lat="28.2060250" lon="-16.6747720">
        <ele>2078.9</ele>
        <time>2020-11-11T19:54:51Z</time>
      </trkpt>
      <trkpt lat="28.2060220" lon="-16.6747520">
        <ele>2078.9</ele>
        <time>2020-11-11T19:54:52Z</time>
      </trkpt>
      <trkpt lat="28.2060220" lon="-16.6747520">
        <ele>2078.9</ele>
        <time>2020-11-11T19:54:53Z</time>
      </trkpt>
      <trkpt lat="28.2060130" lon="-16.6747170">
        <ele>2078.9</ele>
        <time>2020-11-11T19:54:54Z</time>
      </trkpt>
      <trkpt lat="28.2060080" lon="-16.6746980">
        <ele>2078.9</ele>
        <time>2020-11-11T19:54:55Z</time>
      </trkpt>
      <trkpt lat="28.2060080" lon="-16.6746980">
        <ele>2078.9</ele>
        <time>2020-11-11T19:54:56Z</time>
      </trkpt>
      <trkpt lat="28.2060080" lon="-16.6746980">
        <ele>2079.9</ele>
        <time>2020-11-11T19:54:57Z</time>
      </trkpt>
      <trkpt lat="28.2059970" lon="-16.6746680">
        <ele>2079.9</ele>
        <time>2020-11-11T19:54:58Z</time>
      </trkpt>
      <trkpt lat="28.2059850" lon="-16.6746570">
        <ele>2079.9</ele>
        <time>2020-11-11T19:54:59Z</time>
      </trkpt>
      <trkpt lat="28.2059850" lon="-16.6746570">
        <ele>2079.9</ele>
        <time>2020-11-11T19:55:00Z</time>
      </trkpt>
      <trkpt lat="28.2059550" lon="-16.6746370">
        <ele>2079.9</ele>
        <time>2020-11-11T19:55:01Z</time>
      </trkpt>
      <trkpt lat="28.2059550" lon="-16.6746370">
        <ele>2079.9</ele>
        <time>2020-11-11T19:55:02Z</time>
      </trkpt>
      <trkpt lat="28.2059250" lon="-16.6746100">
        <ele>2079.9</ele>
        <time>2020-11-11T19:55:03Z</time>
      </trkpt>
      <trkpt lat="28.2059250" lon="-16.6746100">
        <ele>2080.9</ele>
        <time>2020-11-11T19:55:04Z</time>
      </trkpt>
      <trkpt lat="28.2059120" lon="-16.6745720">
        <ele>2080.9</ele>
        <time>2020-11-11T19:55:05Z</time>
      </trkpt>
      <trkpt lat="28.2058880" lon="-16.6745480">
        <ele>2080.9</ele>
        <time>2020-11-11T19:55:06Z</time>
      </trkpt>
      <trkpt lat="28.2058880" lon="-16.6745480">
        <ele>2080.9</ele>
        <time>2020-11-11T19:55:07Z</time>
      </trkpt>
      <trkpt lat="28.2058680" lon="-16.6745400">
        <ele>2080.9</ele>
        <time>2020-11-11T19:55:08Z</time>
      </trkpt>
      <trkpt lat="28.2058680" lon="-16.6745400">
        <ele>2080.9</ele>
        <time>2020-11-11T19:55:09Z</time>
      </trkpt>
      <trkpt lat="28.2058320" lon="-16.6745200">
        <ele>2080.9</ele>
        <time>2020-11-11T19:55:10Z</time>
      </trkpt>
      <trkpt lat="28.2058320" lon="-16.6745200">
        <ele>2080.9</ele>
        <time>2020-11-11T19:55:11Z</time>
      </trkpt>
      <trkpt lat="28.2058100" lon="-16.6744880">
        <ele>2080.9</ele>
        <time>2020-11-11T19:55:12Z</time>
      </trkpt>
      <trkpt lat="28.2058100" lon="-16.6744880">
        <ele>2080.9</ele>
        <time>2020-11-11T19:55:13Z</time>
      </trkpt>
      <trkpt lat="28.2057870" lon="-16.6744670">
        <ele>2080.9</ele>
        <time>2020-11-11T19:55:14Z</time>
      </trkpt>
      <trkpt lat="28.2057530" lon="-16.6744500">
        <ele>2080.9</ele>
        <time>2020-11-11T19:55:15Z</time>
      </trkpt>
      <trkpt lat="28.2057530" lon="-16.6744500">
        <ele>2080.9</ele>
        <time>2020-11-11T19:55:16Z</time>
      </trkpt>
      <trkpt lat="28.2057250" lon="-16.6744230">
        <ele>2080.9</ele>
        <time>2020-11-11T19:55:17Z</time>
      </trkpt>
      <trkpt lat="28.2057250" lon="-16.6744230">
        <ele>2080.9</ele>
        <time>2020-11-11T19:55:18Z</time>
      </trkpt>
      <trkpt lat="28.2057130" lon="-16.6744120">
        <ele>2080.9</ele>
        <time>2020-11-11T19:55:19Z</time>
      </trkpt>
      <trkpt lat="28.2056920" lon="-16.6743880">
        <ele>2080.9</ele>
        <time>2020-11-11T19:55:20Z</time>
      </trkpt>
      <trkpt lat="28.2056920" lon="-16.6743880">
        <ele>2080.9</ele>
        <time>2020-11-11T19:55:21Z</time>
      </trkpt>
      <trkpt lat="28.2056700" lon="-16.6743630">
        <ele>2080.9</ele>
        <time>2020-11-11T19:55:22Z</time>
      </trkpt>
      <trkpt lat="28.2056700" lon="-16.6743630">
        <ele>2080.9</ele>
        <time>2020-11-11T19:55:23Z</time>
      </trkpt>
      <trkpt lat="28.2056700" lon="-16.6743630">
        <ele>2081.9</ele>
        <time>2020-11-11T19:55:24Z</time>
      </trkpt>
      <trkpt lat="28.2056430" lon="-16.6743330">
        <ele>2081.9</ele>
        <time>2020-11-11T19:55:25Z</time>
      </trkpt>
      <trkpt lat="28.2056150" lon="-16.6743130">
        <ele>2081.9</ele>
        <time>2020-11-11T19:55:26Z</time>
      </trkpt>
      <trkpt lat="28.2056150" lon="-16.6743130">
        <ele>2081.9</ele>
        <time>2020-11-11T19:55:27Z</time>
      </trkpt>
      <trkpt lat="28.2055980" lon="-16.6743050">
        <ele>2081.9</ele>
        <time>2020-11-11T19:55:28Z</time>
      </trkpt>
      <trkpt lat="28.2055980" lon="-16.6743050">
        <ele>2081.9</ele>
        <time>2020-11-11T19:55:29Z</time>
      </trkpt>
      <trkpt lat="28.2055700" lon="-16.6742830">
        <ele>2081.9</ele>
        <time>2020-11-11T19:55:30Z</time>
      </trkpt>
      <trkpt lat="28.2055700" lon="-16.6742830">
        <ele>2081.9</ele>
        <time>2020-11-11T19:55:31Z</time>
      </trkpt>
      <trkpt lat="28.2055220" lon="-16.6742530">
        <ele>2081.9</ele>
        <time>2020-11-11T19:55:32Z</time>
      </trkpt>
      <trkpt lat="28.2055220" lon="-16.6742530">
        <ele>2082.9</ele>
        <time>2020-11-11T19:55:33Z</time>
      </trkpt>
      <trkpt lat="28.2054900" lon="-16.6742300">
        <ele>2082.9</ele>
        <time>2020-11-11T19:55:34Z</time>
      </trkpt>
      <trkpt lat="28.2054900" lon="-16.6742300">
        <ele>2082.9</ele>
        <time>2020-11-11T19:55:35Z</time>
      </trkpt>
      <trkpt lat="28.2054900" lon="-16.6742300">
        <ele>2082.9</ele>
        <time>2020-11-11T19:55:36Z</time>
      </trkpt>
      <trkpt lat="28.2054600" lon="-16.6742080">
        <ele>2082.9</ele>
        <time>2020-11-11T19:55:37Z</time>
      </trkpt>
      <trkpt lat="28.2054280" lon="-16.6741900">
        <ele>2082.9</ele>
        <time>2020-11-11T19:55:38Z</time>
      </trkpt>
      <trkpt lat="28.2054280" lon="-16.6741900">
        <ele>2082.9</ele>
        <time>2020-11-11T19:55:39Z</time>
      </trkpt>
      <trkpt lat="28.2054020" lon="-16.6741580">
        <ele>2082.9</ele>
        <time>2020-11-11T19:55:40Z</time>
      </trkpt>
      <trkpt lat="28.2054020" lon="-16.6741580">
        <ele>2083.9</ele>
        <time>2020-11-11T19:55:41Z</time>
      </trkpt>
      <trkpt lat="28.2053700" lon="-16.6741380">
        <ele>2083.9</ele>
        <time>2020-11-11T19:55:42Z</time>
      </trkpt>
      <trkpt lat="28.2053700" lon="-16.6741380">
        <ele>2083.9</ele>
        <time>2020-11-11T19:55:43Z</time>
      </trkpt>
      <trkpt lat="28.2053520" lon="-16.6741320">
        <ele>2083.9</ele>
        <time>2020-11-11T19:55:44Z</time>
      </trkpt>
      <trkpt lat="28.2053170" lon="-16.6741130">
        <ele>2083.9</ele>
        <time>2020-11-11T19:55:45Z</time>
      </trkpt>
      <trkpt lat="28.2053170" lon="-16.6741130">
        <ele>2083.9</ele>
        <time>2020-11-11T19:55:46Z</time>
      </trkpt>
      <trkpt lat="28.2052800" lon="-16.6740970">
        <ele>2083.9</ele>
        <time>2020-11-11T19:55:47Z</time>
      </trkpt>
      <trkpt lat="28.2052800" lon="-16.6740970">
        <ele>2083.9</ele>
        <time>2020-11-11T19:55:48Z</time>
      </trkpt>
      <trkpt lat="28.2052620" lon="-16.6740900">
        <ele>2084.9</ele>
        <time>2020-11-11T19:55:49Z</time>
      </trkpt>
      <trkpt lat="28.2052270" lon="-16.6740750">
        <ele>2084.9</ele>
        <time>2020-11-11T19:55:50Z</time>
      </trkpt>
      <trkpt lat="28.2052270" lon="-16.6740750">
        <ele>2085.9</ele>
        <time>2020-11-11T19:55:51Z</time>
      </trkpt>
      <trkpt lat="28.2052270" lon="-16.6740750">
        <ele>2085.9</ele>
        <time>2020-11-11T19:55:52Z</time>
      </trkpt>
      <trkpt lat="28.2051730" lon="-16.6740480">
        <ele>2085.9</ele>
        <time>2020-11-11T19:55:53Z</time>
      </trkpt>
      <trkpt lat="28.2051730" lon="-16.6740480">
        <ele>2085.9</ele>
        <time>2020-11-11T19:55:54Z</time>
      </trkpt>
      <trkpt lat="28.2051450" lon="-16.6740220">
        <ele>2085.9</ele>
        <time>2020-11-11T19:55:55Z</time>
      </trkpt>
      <trkpt lat="28.2051450" lon="-16.6740220">
        <ele>2085.9</ele>
        <time>2020-11-11T19:55:56Z</time>
      </trkpt>
      <trkpt lat="28.2051290" lon="-16.6740090">
        <ele>2085.9</ele>
        <time>2020-11-11T19:55:57Z</time>
      </trkpt>
      <trkpt lat="28.2051120" lon="-16.6739970">
        <ele>2085.9</ele>
        <time>2020-11-11T19:55:58Z</time>
      </trkpt>
      <trkpt lat="28.2051120" lon="-16.6739970">
        <ele>2085.9</ele>
        <time>2020-11-11T19:55:59Z</time>
      </trkpt>
      <trkpt lat="28.2050780" lon="-16.6739780">
        <ele>2085.9</ele>
        <time>2020-11-11T19:56:00Z</time>
      </trkpt>
      <trkpt lat="28.2050470" lon="-16.6739620">
        <ele>2085.9</ele>
        <time>2020-11-11T19:56:01Z</time>
      </trkpt>
      <trkpt lat="28.2050470" lon="-16.6739620">
        <ele>2085.9</ele>
        <time>2020-11-11T19:56:02Z</time>
      </trkpt>
      <trkpt lat="28.2050080" lon="-16.6739480">
        <ele>2085.9</ele>
        <time>2020-11-11T19:56:03Z</time>
      </trkpt>
      <trkpt lat="28.2050080" lon="-16.6739480">
        <ele>2085.9</ele>
        <time>2020-11-11T19:56:04Z</time>
      </trkpt>
      <trkpt lat="28.2049700" lon="-16.6739420">
        <ele>2085.9</ele>
        <time>2020-11-11T19:56:05Z</time>
      </trkpt>
      <trkpt lat="28.2049520" lon="-16.6739350">
        <ele>2085.9</ele>
        <time>2020-11-11T19:56:06Z</time>
      </trkpt>
      <trkpt lat="28.2049520" lon="-16.6739350">
        <ele>2085.9</ele>
        <time>2020-11-11T19:56:07Z</time>
      </trkpt>
      <trkpt lat="28.2049520" lon="-16.6739350">
        <ele>2085.9</ele>
        <time>2020-11-11T19:56:08Z</time>
      </trkpt>
      <trkpt lat="28.2049180" lon="-16.6739150">
        <ele>2085.9</ele>
        <time>2020-11-11T19:56:09Z</time>
      </trkpt>
      <trkpt lat="28.2048800" lon="-16.6739020">
        <ele>2085.9</ele>
        <time>2020-11-11T19:56:10Z</time>
      </trkpt>
      <trkpt lat="28.2048800" lon="-16.6739020">
        <ele>2086.9</ele>
        <time>2020-11-11T19:56:11Z</time>
      </trkpt>
      <trkpt lat="28.2048470" lon="-16.6738870">
        <ele>2086.9</ele>
        <time>2020-11-11T19:56:12Z</time>
      </trkpt>
      <trkpt lat="28.2048320" lon="-16.6738780">
        <ele>2086.9</ele>
        <time>2020-11-11T19:56:13Z</time>
      </trkpt>
      <trkpt lat="28.2048320" lon="-16.6738780">
        <ele>2086.9</ele>
        <time>2020-11-11T19:56:14Z</time>
      </trkpt>
      <trkpt lat="28.2047970" lon="-16.6738630">
        <ele>2086.9</ele>
        <time>2020-11-11T19:56:15Z</time>
      </trkpt>
      <trkpt lat="28.2047970" lon="-16.6738630">
        <ele>2086.9</ele>
        <time>2020-11-11T19:56:16Z</time>
      </trkpt>
      <trkpt lat="28.2047680" lon="-16.6738370">
        <ele>2086.9</ele>
        <time>2020-11-11T19:56:17Z</time>
      </trkpt>
      <trkpt lat="28.2047680" lon="-16.6738370">
        <ele>2086.9</ele>
        <time>2020-11-11T19:56:18Z</time>
      </trkpt>
      <trkpt lat="28.2047380" lon="-16.6738170">
        <ele>2086.9</ele>
        <time>2020-11-11T19:56:19Z</time>
      </trkpt>
      <trkpt lat="28.2047380" lon="-16.6738170">
        <ele>2086.9</ele>
        <time>2020-11-11T19:56:20Z</time>
      </trkpt>
      <trkpt lat="28.2047020" lon="-16.6738030">
        <ele>2086.9</ele>
        <time>2020-11-11T19:56:21Z</time>
      </trkpt>
      <trkpt lat="28.2047020" lon="-16.6738030">
        <ele>2087.9</ele>
        <time>2020-11-11T19:56:22Z</time>
      </trkpt>
      <trkpt lat="28.2046730" lon="-16.6737830">
        <ele>2087.9</ele>
        <time>2020-11-11T19:56:23Z</time>
      </trkpt>
      <trkpt lat="28.2046730" lon="-16.6737830">
        <ele>2087.9</ele>
        <time>2020-11-11T19:56:24Z</time>
      </trkpt>
      <trkpt lat="28.2046730" lon="-16.6737830">
        <ele>2087.9</ele>
        <time>2020-11-11T19:56:25Z</time>
      </trkpt>
      <trkpt lat="28.2046450" lon="-16.6737630">
        <ele>2087.9</ele>
        <time>2020-11-11T19:56:26Z</time>
      </trkpt>
      <trkpt lat="28.2046080" lon="-16.6737570">
        <ele>2087.9</ele>
        <time>2020-11-11T19:56:27Z</time>
      </trkpt>
      <trkpt lat="28.2046080" lon="-16.6737570">
        <ele>2088.9</ele>
        <time>2020-11-11T19:56:28Z</time>
      </trkpt>
      <trkpt lat="28.2045930" lon="-16.6737470">
        <ele>2088.9</ele>
        <time>2020-11-11T19:56:29Z</time>
      </trkpt>
      <trkpt lat="28.2045930" lon="-16.6737470">
        <ele>2088.9</ele>
        <time>2020-11-11T19:56:30Z</time>
      </trkpt>
      <trkpt lat="28.2045650" lon="-16.6737230">
        <ele>2088.9</ele>
        <time>2020-11-11T19:56:31Z</time>
      </trkpt>
      <trkpt lat="28.2045470" lon="-16.6737130">
        <ele>2088.9</ele>
        <time>2020-11-11T19:56:32Z</time>
      </trkpt>
      <trkpt lat="28.2045120" lon="-16.6737030">
        <ele>2088.9</ele>
        <time>2020-11-11T19:56:33Z</time>
      </trkpt>
      <trkpt lat="28.2045120" lon="-16.6737030">
        <ele>2088.9</ele>
        <time>2020-11-11T19:56:34Z</time>
      </trkpt>
      <trkpt lat="28.2044770" lon="-16.6736920">
        <ele>2088.9</ele>
        <time>2020-11-11T19:56:35Z</time>
      </trkpt>
      <trkpt lat="28.2044770" lon="-16.6736920">
        <ele>2089.9</ele>
        <time>2020-11-11T19:56:36Z</time>
      </trkpt>
      <trkpt lat="28.2044480" lon="-16.6736680">
        <ele>2089.9</ele>
        <time>2020-11-11T19:56:37Z</time>
      </trkpt>
      <trkpt lat="28.2044480" lon="-16.6736680">
        <ele>2089.9</ele>
        <time>2020-11-11T19:56:38Z</time>
      </trkpt>
      <trkpt lat="28.2044150" lon="-16.6736520">
        <ele>2089.9</ele>
        <time>2020-11-11T19:56:39Z</time>
      </trkpt>
      <trkpt lat="28.2044150" lon="-16.6736520">
        <ele>2089.9</ele>
        <time>2020-11-11T19:56:40Z</time>
      </trkpt>
      <trkpt lat="28.2043770" lon="-16.6736470">
        <ele>2089.9</ele>
        <time>2020-11-11T19:56:41Z</time>
      </trkpt>
      <trkpt lat="28.2043600" lon="-16.6736420">
        <ele>2090.9</ele>
        <time>2020-11-11T19:56:42Z</time>
      </trkpt>
      <trkpt lat="28.2043600" lon="-16.6736420">
        <ele>2090.9</ele>
        <time>2020-11-11T19:56:43Z</time>
      </trkpt>
      <trkpt lat="28.2043270" lon="-16.6736280">
        <ele>2090.9</ele>
        <time>2020-11-11T19:56:44Z</time>
      </trkpt>
      <trkpt lat="28.2043270" lon="-16.6736280">
        <ele>2090.9</ele>
        <time>2020-11-11T19:56:45Z</time>
      </trkpt>
      <trkpt lat="28.2043270" lon="-16.6736280">
        <ele>2090.9</ele>
        <time>2020-11-11T19:56:46Z</time>
      </trkpt>
      <trkpt lat="28.2042950" lon="-16.6736120">
        <ele>2090.9</ele>
        <time>2020-11-11T19:56:47Z</time>
      </trkpt>
      <trkpt lat="28.2042670" lon="-16.6735970">
        <ele>2090.9</ele>
        <time>2020-11-11T19:56:48Z</time>
      </trkpt>
      <trkpt lat="28.2042670" lon="-16.6735970">
        <ele>2090.9</ele>
        <time>2020-11-11T19:56:49Z</time>
      </trkpt>
      <trkpt lat="28.2042670" lon="-16.6735970">
        <ele>2090.9</ele>
        <time>2020-11-11T19:56:50Z</time>
      </trkpt>
      <trkpt lat="28.2042300" lon="-16.6735950">
        <ele>2090.9</ele>
        <time>2020-11-11T19:56:51Z</time>
      </trkpt>
      <trkpt lat="28.2042300" lon="-16.6735950">
        <ele>2090.9</ele>
        <time>2020-11-11T19:56:52Z</time>
      </trkpt>
      <trkpt lat="28.2041950" lon="-16.6735900">
        <ele>2090.9</ele>
        <time>2020-11-11T19:56:53Z</time>
      </trkpt>
      <trkpt lat="28.2041580" lon="-16.6735900">
        <ele>2090.9</ele>
        <time>2020-11-11T19:56:54Z</time>
      </trkpt>
      <trkpt lat="28.2041580" lon="-16.6735900">
        <ele>2090.9</ele>
        <time>2020-11-11T19:56:55Z</time>
      </trkpt>
      <trkpt lat="28.2041230" lon="-16.6735850">
        <ele>2090.9</ele>
        <time>2020-11-11T19:56:56Z</time>
      </trkpt>
      <trkpt lat="28.2041230" lon="-16.6735850">
        <ele>2090.9</ele>
        <time>2020-11-11T19:56:57Z</time>
      </trkpt>
      <trkpt lat="28.2040870" lon="-16.6735930">
        <ele>2091.9</ele>
        <time>2020-11-11T19:56:58Z</time>
      </trkpt>
      <trkpt lat="28.2040680" lon="-16.6735950">
        <ele>2091.9</ele>
        <time>2020-11-11T19:56:59Z</time>
      </trkpt>
      <trkpt lat="28.2040680" lon="-16.6735950">
        <ele>2091.9</ele>
        <time>2020-11-11T19:57:00Z</time>
      </trkpt>
      <trkpt lat="28.2040680" lon="-16.6735950">
        <ele>2091.9</ele>
        <time>2020-11-11T19:57:01Z</time>
      </trkpt>
      <trkpt lat="28.2040350" lon="-16.6736070">
        <ele>2091.9</ele>
        <time>2020-11-11T19:57:02Z</time>
      </trkpt>
      <trkpt lat="28.2040350" lon="-16.6736070">
        <ele>2091.9</ele>
        <time>2020-11-11T19:57:03Z</time>
      </trkpt>
      <trkpt lat="28.2039980" lon="-16.6736170">
        <ele>2091.9</ele>
        <time>2020-11-11T19:57:04Z</time>
      </trkpt>
      <trkpt lat="28.2039630" lon="-16.6736180">
        <ele>2092.9</ele>
        <time>2020-11-11T19:57:05Z</time>
      </trkpt>
      <trkpt lat="28.2039480" lon="-16.6736230">
        <ele>2092.9</ele>
        <time>2020-11-11T19:57:06Z</time>
      </trkpt>
      <trkpt lat="28.2039480" lon="-16.6736230">
        <ele>2092.9</ele>
        <time>2020-11-11T19:57:07Z</time>
      </trkpt>
      <trkpt lat="28.2039480" lon="-16.6736230">
        <ele>2092.9</ele>
        <time>2020-11-11T19:57:08Z</time>
      </trkpt>
      <trkpt lat="28.2039150" lon="-16.6736350">
        <ele>2092.9</ele>
        <time>2020-11-11T19:57:09Z</time>
      </trkpt>
      <trkpt lat="28.2039150" lon="-16.6736350">
        <ele>2092.9</ele>
        <time>2020-11-11T19:57:10Z</time>
      </trkpt>
      <trkpt lat="28.2038830" lon="-16.6736420">
        <ele>2092.9</ele>
        <time>2020-11-11T19:57:11Z</time>
      </trkpt>
      <trkpt lat="28.2038530" lon="-16.6736620">
        <ele>2092.9</ele>
        <time>2020-11-11T19:57:12Z</time>
      </trkpt>
      <trkpt lat="28.2038530" lon="-16.6736620">
        <ele>2093.9</ele>
        <time>2020-11-11T19:57:13Z</time>
      </trkpt>
      <trkpt lat="28.2038370" lon="-16.6736720">
        <ele>2093.9</ele>
        <time>2020-11-11T19:57:14Z</time>
      </trkpt>
      <trkpt lat="28.2037980" lon="-16.6736780">
        <ele>2093.9</ele>
        <time>2020-11-11T19:57:15Z</time>
      </trkpt>
      <trkpt lat="28.2037980" lon="-16.6736780">
        <ele>2093.9</ele>
        <time>2020-11-11T19:57:16Z</time>
      </trkpt>
      <trkpt lat="28.2037980" lon="-16.6736780">
        <ele>2093.9</ele>
        <time>2020-11-11T19:57:17Z</time>
      </trkpt>
      <trkpt lat="28.2037600" lon="-16.6736850">
        <ele>2093.9</ele>
        <time>2020-11-11T19:57:18Z</time>
      </trkpt>
      <trkpt lat="28.2037600" lon="-16.6736850">
        <ele>2093.9</ele>
        <time>2020-11-11T19:57:19Z</time>
      </trkpt>
      <trkpt lat="28.2037230" lon="-16.6737020">
        <ele>2093.9</ele>
        <time>2020-11-11T19:57:20Z</time>
      </trkpt>
      <trkpt lat="28.2037230" lon="-16.6737020">
        <ele>2094.9</ele>
        <time>2020-11-11T19:57:21Z</time>
      </trkpt>
      <trkpt lat="28.2036830" lon="-16.6737070">
        <ele>2094.9</ele>
        <time>2020-11-11T19:57:22Z</time>
      </trkpt>
      <trkpt lat="28.2036830" lon="-16.6737070">
        <ele>2094.9</ele>
        <time>2020-11-11T19:57:23Z</time>
      </trkpt>
      <trkpt lat="28.2036430" lon="-16.6737050">
        <ele>2094.9</ele>
        <time>2020-11-11T19:57:24Z</time>
      </trkpt>
      <trkpt lat="28.2036020" lon="-16.6737050">
        <ele>2094.9</ele>
        <time>2020-11-11T19:57:25Z</time>
      </trkpt>
      <trkpt lat="28.2036020" lon="-16.6737050">
        <ele>2094.9</ele>
        <time>2020-11-11T19:57:26Z</time>
      </trkpt>
      <trkpt lat="28.2035600" lon="-16.6737020">
        <ele>2095.9</ele>
        <time>2020-11-11T19:57:27Z</time>
      </trkpt>
      <trkpt lat="28.2035600" lon="-16.6737020">
        <ele>2095.9</ele>
        <time>2020-11-11T19:57:28Z</time>
      </trkpt>
      <trkpt lat="28.2035230" lon="-16.6736970">
        <ele>2095.9</ele>
        <time>2020-11-11T19:57:29Z</time>
      </trkpt>
      <trkpt lat="28.2035230" lon="-16.6736970">
        <ele>2095.9</ele>
        <time>2020-11-11T19:57:30Z</time>
      </trkpt>
      <trkpt lat="28.2034830" lon="-16.6736800">
        <ele>2096.9</ele>
        <time>2020-11-11T19:57:31Z</time>
      </trkpt>
      <trkpt lat="28.2034830" lon="-16.6736800">
        <ele>2096.9</ele>
        <time>2020-11-11T19:57:32Z</time>
      </trkpt>
      <trkpt lat="28.2034500" lon="-16.6736570">
        <ele>2096.9</ele>
        <time>2020-11-11T19:57:33Z</time>
      </trkpt>
      <trkpt lat="28.2034500" lon="-16.6736570">
        <ele>2096.9</ele>
        <time>2020-11-11T19:57:34Z</time>
      </trkpt>
      <trkpt lat="28.2034330" lon="-16.6736420">
        <ele>2096.9</ele>
        <time>2020-11-11T19:57:35Z</time>
      </trkpt>
      <trkpt lat="28.2034150" lon="-16.6736270">
        <ele>2096.9</ele>
        <time>2020-11-11T19:57:36Z</time>
      </trkpt>
      <trkpt lat="28.2034150" lon="-16.6736270">
        <ele>2096.9</ele>
        <time>2020-11-11T19:57:37Z</time>
      </trkpt>
      <trkpt lat="28.2033820" lon="-16.6735900">
        <ele>2097.9</ele>
        <time>2020-11-11T19:57:38Z</time>
      </trkpt>
      <trkpt lat="28.2033820" lon="-16.6735900">
        <ele>2097.9</ele>
        <time>2020-11-11T19:57:39Z</time>
      </trkpt>
      <trkpt lat="28.2033570" lon="-16.6735450">
        <ele>2097.9</ele>
        <time>2020-11-11T19:57:40Z</time>
      </trkpt>
      <trkpt lat="28.2033270" lon="-16.6735050">
        <ele>2097.9</ele>
        <time>2020-11-11T19:57:41Z</time>
      </trkpt>
      <trkpt lat="28.2033270" lon="-16.6735050">
        <ele>2097.9</ele>
        <time>2020-11-11T19:57:42Z</time>
      </trkpt>
      <trkpt lat="28.2033070" lon="-16.6734620">
        <ele>2097.9</ele>
        <time>2020-11-11T19:57:43Z</time>
      </trkpt>
      <trkpt lat="28.2033070" lon="-16.6734620">
        <ele>2097.9</ele>
        <time>2020-11-11T19:57:44Z</time>
      </trkpt>
      <trkpt lat="28.2033070" lon="-16.6734620">
        <ele>2097.9</ele>
        <time>2020-11-11T19:57:45Z</time>
      </trkpt>
      <trkpt lat="28.2032900" lon="-16.6734150">
        <ele>2097.9</ele>
        <time>2020-11-11T19:57:46Z</time>
      </trkpt>
      <trkpt lat="28.2032650" lon="-16.6733780">
        <ele>2097.9</ele>
        <time>2020-11-11T19:57:47Z</time>
      </trkpt>
      <trkpt lat="28.2032530" lon="-16.6733620">
        <ele>2097.9</ele>
        <time>2020-11-11T19:57:48Z</time>
      </trkpt>
      <trkpt lat="28.2032380" lon="-16.6733450">
        <ele>2097.9</ele>
        <time>2020-11-11T19:57:49Z</time>
      </trkpt>
      <trkpt lat="28.2032380" lon="-16.6733450">
        <ele>2097.9</ele>
        <time>2020-11-11T19:57:50Z</time>
      </trkpt>
      <trkpt lat="28.2032130" lon="-16.6733070">
        <ele>2097.9</ele>
        <time>2020-11-11T19:57:51Z</time>
      </trkpt>
      <trkpt lat="28.2032130" lon="-16.6733070">
        <ele>2098.9</ele>
        <time>2020-11-11T19:57:52Z</time>
      </trkpt>
      <trkpt lat="28.2032130" lon="-16.6733070">
        <ele>2098.9</ele>
        <time>2020-11-11T19:57:53Z</time>
      </trkpt>
      <trkpt lat="28.2031980" lon="-16.6732600">
        <ele>2098.9</ele>
        <time>2020-11-11T19:57:54Z</time>
      </trkpt>
      <trkpt lat="28.2031830" lon="-16.6732180">
        <ele>2098.9</ele>
        <time>2020-11-11T19:57:55Z</time>
      </trkpt>
      <trkpt lat="28.2031830" lon="-16.6732180">
        <ele>2098.9</ele>
        <time>2020-11-11T19:57:56Z</time>
      </trkpt>
      <trkpt lat="28.2031830" lon="-16.6732180">
        <ele>2098.9</ele>
        <time>2020-11-11T19:57:57Z</time>
      </trkpt>
      <trkpt lat="28.2031700" lon="-16.6731750">
        <ele>2098.9</ele>
        <time>2020-11-11T19:57:58Z</time>
      </trkpt>
      <trkpt lat="28.2031700" lon="-16.6731750">
        <ele>2098.9</ele>
        <time>2020-11-11T19:57:59Z</time>
      </trkpt>
      <trkpt lat="28.2031500" lon="-16.6731350">
        <ele>2099.9</ele>
        <time>2020-11-11T19:58:00Z</time>
      </trkpt>
      <trkpt lat="28.2031500" lon="-16.6731350">
        <ele>2099.9</ele>
        <time>2020-11-11T19:58:01Z</time>
      </trkpt>
      <trkpt lat="28.2031300" lon="-16.6730920">
        <ele>2099.9</ele>
        <time>2020-11-11T19:58:02Z</time>
      </trkpt>
      <trkpt lat="28.2031300" lon="-16.6730920">
        <ele>2099.9</ele>
        <time>2020-11-11T19:58:03Z</time>
      </trkpt>
      <trkpt lat="28.2031000" lon="-16.6730580">
        <ele>2099.9</ele>
        <time>2020-11-11T19:58:04Z</time>
      </trkpt>
      <trkpt lat="28.2030850" lon="-16.6730420">
        <ele>2099.9</ele>
        <time>2020-11-11T19:58:05Z</time>
      </trkpt>
      <trkpt lat="28.2030700" lon="-16.6730270">
        <ele>2099.9</ele>
        <time>2020-11-11T19:58:06Z</time>
      </trkpt>
      <trkpt lat="28.2030700" lon="-16.6730270">
        <ele>2099.9</ele>
        <time>2020-11-11T19:58:07Z</time>
      </trkpt>
      <trkpt lat="28.2030380" lon="-16.6729950">
        <ele>2100.9</ele>
        <time>2020-11-11T19:58:08Z</time>
      </trkpt>
      <trkpt lat="28.2030050" lon="-16.6729670">
        <ele>2100.9</ele>
        <time>2020-11-11T19:58:09Z</time>
      </trkpt>
      <trkpt lat="28.2030050" lon="-16.6729670">
        <ele>2100.9</ele>
        <time>2020-11-11T19:58:10Z</time>
      </trkpt>
      <trkpt lat="28.2029720" lon="-16.6729400">
        <ele>2100.9</ele>
        <time>2020-11-11T19:58:11Z</time>
      </trkpt>
      <trkpt lat="28.2029570" lon="-16.6729250">
        <ele>2100.9</ele>
        <time>2020-11-11T19:58:12Z</time>
      </trkpt>
      <trkpt lat="28.2029570" lon="-16.6729250">
        <ele>2100.9</ele>
        <time>2020-11-11T19:58:13Z</time>
      </trkpt>
      <trkpt lat="28.2029280" lon="-16.6728920">
        <ele>2100.9</ele>
        <time>2020-11-11T19:58:14Z</time>
      </trkpt>
      <trkpt lat="28.2029120" lon="-16.6728800">
        <ele>2100.9</ele>
        <time>2020-11-11T19:58:15Z</time>
      </trkpt>
      <trkpt lat="28.2029120" lon="-16.6728800">
        <ele>2100.9</ele>
        <time>2020-11-11T19:58:16Z</time>
      </trkpt>
      <trkpt lat="28.2028730" lon="-16.6728720">
        <ele>2100.9</ele>
        <time>2020-11-11T19:58:17Z</time>
      </trkpt>
      <trkpt lat="28.2028730" lon="-16.6728720">
        <ele>2100.9</ele>
        <time>2020-11-11T19:58:18Z</time>
      </trkpt>
      <trkpt lat="28.2028730" lon="-16.6728720">
        <ele>2100.9</ele>
        <time>2020-11-11T19:58:19Z</time>
      </trkpt>
      <trkpt lat="28.2028280" lon="-16.6728750">
        <ele>2100.9</ele>
        <time>2020-11-11T19:58:20Z</time>
      </trkpt>
      <trkpt lat="28.2027800" lon="-16.6728780">
        <ele>2100.9</ele>
        <time>2020-11-11T19:58:21Z</time>
      </trkpt>
      <trkpt lat="28.2027800" lon="-16.6728780">
        <ele>2100.9</ele>
        <time>2020-11-11T19:58:22Z</time>
      </trkpt>
      <trkpt lat="28.2027270" lon="-16.6728730">
        <ele>2101.9</ele>
        <time>2020-11-11T19:58:23Z</time>
      </trkpt>
      <trkpt lat="28.2027020" lon="-16.6728670">
        <ele>2101.9</ele>
        <time>2020-11-11T19:58:24Z</time>
      </trkpt>
      <trkpt lat="28.2026770" lon="-16.6728620">
        <ele>2101.9</ele>
        <time>2020-11-11T19:58:25Z</time>
      </trkpt>
      <trkpt lat="28.2026770" lon="-16.6728620">
        <ele>2101.9</ele>
        <time>2020-11-11T19:58:26Z</time>
      </trkpt>
      <trkpt lat="28.2026250" lon="-16.6728450">
        <ele>2101.9</ele>
        <time>2020-11-11T19:58:27Z</time>
      </trkpt>
      <trkpt lat="28.2026120" lon="-16.6728410">
        <ele>2101.9</ele>
        <time>2020-11-11T19:58:28Z</time>
      </trkpt>
      <trkpt lat="28.2025980" lon="-16.6728380">
        <ele>2101.9</ele>
        <time>2020-11-11T19:58:29Z</time>
      </trkpt>
      <trkpt lat="28.2025500" lon="-16.6728320">
        <ele>2101.9</ele>
        <time>2020-11-11T19:58:30Z</time>
      </trkpt>
      <trkpt lat="28.2025500" lon="-16.6728320">
        <ele>2101.9</ele>
        <time>2020-11-11T19:58:31Z</time>
      </trkpt>
      <trkpt lat="28.2025500" lon="-16.6728320">
        <ele>2101.9</ele>
        <time>2020-11-11T19:58:32Z</time>
      </trkpt>
      <trkpt lat="28.2025070" lon="-16.6728220">
        <ele>2102.9</ele>
        <time>2020-11-11T19:58:33Z</time>
      </trkpt>
      <trkpt lat="28.2025070" lon="-16.6728220">
        <ele>2102.9</ele>
        <time>2020-11-11T19:58:34Z</time>
      </trkpt>
      <trkpt lat="28.2024520" lon="-16.6727870">
        <ele>2102.9</ele>
        <time>2020-11-11T19:58:35Z</time>
      </trkpt>
      <trkpt lat="28.2024520" lon="-16.6727870">
        <ele>2102.9</ele>
        <time>2020-11-11T19:58:36Z</time>
      </trkpt>
      <trkpt lat="28.2024350" lon="-16.6727720">
        <ele>2102.9</ele>
        <time>2020-11-11T19:58:37Z</time>
      </trkpt>
      <trkpt lat="28.2024020" lon="-16.6727380">
        <ele>2102.9</ele>
        <time>2020-11-11T19:58:38Z</time>
      </trkpt>
      <trkpt lat="28.2024020" lon="-16.6727380">
        <ele>2103.9</ele>
        <time>2020-11-11T19:58:39Z</time>
      </trkpt>
      <trkpt lat="28.2024020" lon="-16.6727380">
        <ele>2103.9</ele>
        <time>2020-11-11T19:58:40Z</time>
      </trkpt>
      <trkpt lat="28.2023700" lon="-16.6727070">
        <ele>2103.9</ele>
        <time>2020-11-11T19:58:41Z</time>
      </trkpt>
      <trkpt lat="28.2023700" lon="-16.6727070">
        <ele>2103.9</ele>
        <time>2020-11-11T19:58:42Z</time>
      </trkpt>
      <trkpt lat="28.2023420" lon="-16.6726720">
        <ele>2103.9</ele>
        <time>2020-11-11T19:58:43Z</time>
      </trkpt>
      <trkpt lat="28.2023420" lon="-16.6726720">
        <ele>2103.9</ele>
        <time>2020-11-11T19:58:44Z</time>
      </trkpt>
      <trkpt lat="28.2023150" lon="-16.6726320">
        <ele>2103.9</ele>
        <time>2020-11-11T19:58:45Z</time>
      </trkpt>
      <trkpt lat="28.2023150" lon="-16.6726320">
        <ele>2103.9</ele>
        <time>2020-11-11T19:58:46Z</time>
      </trkpt>
      <trkpt lat="28.2022970" lon="-16.6725870">
        <ele>2103.9</ele>
        <time>2020-11-11T19:58:47Z</time>
      </trkpt>
      <trkpt lat="28.2022880" lon="-16.6725620">
        <ele>2104.9</ele>
        <time>2020-11-11T19:58:48Z</time>
      </trkpt>
      <trkpt lat="28.2022880" lon="-16.6725620">
        <ele>2104.9</ele>
        <time>2020-11-11T19:58:49Z</time>
      </trkpt>
      <trkpt lat="28.2022770" lon="-16.6725130">
        <ele>2104.9</ele>
        <time>2020-11-11T19:58:50Z</time>
      </trkpt>
      <trkpt lat="28.2022600" lon="-16.6724650">
        <ele>2104.9</ele>
        <time>2020-11-11T19:58:51Z</time>
      </trkpt>
      <trkpt lat="28.2022600" lon="-16.6724650">
        <ele>2104.9</ele>
        <time>2020-11-11T19:58:52Z</time>
      </trkpt>
      <trkpt lat="28.2022450" lon="-16.6724180">
        <ele>2104.9</ele>
        <time>2020-11-11T19:58:53Z</time>
      </trkpt>
      <trkpt lat="28.2022450" lon="-16.6724180">
        <ele>2104.9</ele>
        <time>2020-11-11T19:58:54Z</time>
      </trkpt>
      <trkpt lat="28.2022450" lon="-16.6724180">
        <ele>2104.9</ele>
        <time>2020-11-11T19:58:55Z</time>
      </trkpt>
      <trkpt lat="28.2022320" lon="-16.6723700">
        <ele>2104.9</ele>
        <time>2020-11-11T19:58:56Z</time>
      </trkpt>
      <trkpt lat="28.2022230" lon="-16.6723200">
        <ele>2105.9</ele>
        <time>2020-11-11T19:58:57Z</time>
      </trkpt>
      <trkpt lat="28.2022180" lon="-16.6722970">
        <ele>2105.9</ele>
        <time>2020-11-11T19:58:58Z</time>
      </trkpt>
      <trkpt lat="28.2022180" lon="-16.6722970">
        <ele>2105.9</ele>
        <time>2020-11-11T19:58:59Z</time>
      </trkpt>
      <trkpt lat="28.2022170" lon="-16.6722730">
        <ele>2105.9</ele>
        <time>2020-11-11T19:59:00Z</time>
      </trkpt>
      <trkpt lat="28.2022120" lon="-16.6722300">
        <ele>2105.9</ele>
        <time>2020-11-11T19:59:01Z</time>
      </trkpt>
      <trkpt lat="28.2022120" lon="-16.6722300">
        <ele>2105.9</ele>
        <time>2020-11-11T19:59:02Z</time>
      </trkpt>
      <trkpt lat="28.2022100" lon="-16.6721750">
        <ele>2106.9</ele>
        <time>2020-11-11T19:59:03Z</time>
      </trkpt>
      <trkpt lat="28.2022100" lon="-16.6721750">
        <ele>2106.9</ele>
        <time>2020-11-11T19:59:04Z</time>
      </trkpt>
      <trkpt lat="28.2022100" lon="-16.6721750">
        <ele>2106.9</ele>
        <time>2020-11-11T19:59:05Z</time>
      </trkpt>
      <trkpt lat="28.2022080" lon="-16.6721280">
        <ele>2106.9</ele>
        <time>2020-11-11T19:59:06Z</time>
      </trkpt>
      <trkpt lat="28.2022080" lon="-16.6721280">
        <ele>2106.9</ele>
        <time>2020-11-11T19:59:07Z</time>
      </trkpt>
      <trkpt lat="28.2022080" lon="-16.6720830">
        <ele>2106.9</ele>
        <time>2020-11-11T19:59:08Z</time>
      </trkpt>
      <trkpt lat="28.2022080" lon="-16.6720830">
        <ele>2106.9</ele>
        <time>2020-11-11T19:59:09Z</time>
      </trkpt>
      <trkpt lat="28.2022100" lon="-16.6720320">
        <ele>2106.9</ele>
        <time>2020-11-11T19:59:10Z</time>
      </trkpt>
      <trkpt lat="28.2022120" lon="-16.6719850">
        <ele>2107.9</ele>
        <time>2020-11-11T19:59:11Z</time>
      </trkpt>
      <trkpt lat="28.2022120" lon="-16.6719850">
        <ele>2107.9</ele>
        <time>2020-11-11T19:59:12Z</time>
      </trkpt>
      <trkpt lat="28.2022050" lon="-16.6719370">
        <ele>2107.9</ele>
        <time>2020-11-11T19:59:13Z</time>
      </trkpt>
      <trkpt lat="28.2022050" lon="-16.6719370">
        <ele>2107.9</ele>
        <time>2020-11-11T19:59:14Z</time>
      </trkpt>
      <trkpt lat="28.2022050" lon="-16.6719370">
        <ele>2107.9</ele>
        <time>2020-11-11T19:59:15Z</time>
      </trkpt>
      <trkpt lat="28.2021970" lon="-16.6718670">
        <ele>2107.9</ele>
        <time>2020-11-11T19:59:16Z</time>
      </trkpt>
      <trkpt lat="28.2021970" lon="-16.6718670">
        <ele>2107.9</ele>
        <time>2020-11-11T19:59:17Z</time>
      </trkpt>
      <trkpt lat="28.2021970" lon="-16.6718670">
        <ele>2107.9</ele>
        <time>2020-11-11T19:59:18Z</time>
      </trkpt>
      <trkpt lat="28.2021950" lon="-16.6718180">
        <ele>2108.9</ele>
        <time>2020-11-11T19:59:19Z</time>
      </trkpt>
      <trkpt lat="28.2022000" lon="-16.6717930">
        <ele>2108.9</ele>
        <time>2020-11-11T19:59:20Z</time>
      </trkpt>
      <trkpt lat="28.2022100" lon="-16.6717420">
        <ele>2108.9</ele>
        <time>2020-11-11T19:59:21Z</time>
      </trkpt>
      <trkpt lat="28.2022100" lon="-16.6717420">
        <ele>2108.9</ele>
        <time>2020-11-11T19:59:22Z</time>
      </trkpt>
      <trkpt lat="28.2022180" lon="-16.6716920">
        <ele>2108.9</ele>
        <time>2020-11-11T19:59:23Z</time>
      </trkpt>
      <trkpt lat="28.2022180" lon="-16.6716920">
        <ele>2108.9</ele>
        <time>2020-11-11T19:59:24Z</time>
      </trkpt>
      <trkpt lat="28.2022250" lon="-16.6716420">
        <ele>2108.9</ele>
        <time>2020-11-11T19:59:25Z</time>
      </trkpt>
      <trkpt lat="28.2022250" lon="-16.6716420">
        <ele>2108.9</ele>
        <time>2020-11-11T19:59:26Z</time>
      </trkpt>
      <trkpt lat="28.2022350" lon="-16.6715920">
        <ele>2108.9</ele>
        <time>2020-11-11T19:59:27Z</time>
      </trkpt>
      <trkpt lat="28.2022350" lon="-16.6715920">
        <ele>2108.9</ele>
        <time>2020-11-11T19:59:28Z</time>
      </trkpt>
      <trkpt lat="28.2022450" lon="-16.6715400">
        <ele>2108.9</ele>
        <time>2020-11-11T19:59:29Z</time>
      </trkpt>
      <trkpt lat="28.2022450" lon="-16.6715400">
        <ele>2108.9</ele>
        <time>2020-11-11T19:59:30Z</time>
      </trkpt>
      <trkpt lat="28.2022450" lon="-16.6715400">
        <ele>2108.9</ele>
        <time>2020-11-11T19:59:31Z</time>
      </trkpt>
      <trkpt lat="28.2022580" lon="-16.6714850">
        <ele>2108.9</ele>
        <time>2020-11-11T19:59:32Z</time>
      </trkpt>
      <trkpt lat="28.2022700" lon="-16.6714320">
        <ele>2108.9</ele>
        <time>2020-11-11T19:59:33Z</time>
      </trkpt>
      <trkpt lat="28.2022700" lon="-16.6714320">
        <ele>2108.9</ele>
        <time>2020-11-11T19:59:34Z</time>
      </trkpt>
      <trkpt lat="28.2022730" lon="-16.6714020">
        <ele>2108.9</ele>
        <time>2020-11-11T19:59:35Z</time>
      </trkpt>
      <trkpt lat="28.2022730" lon="-16.6714020">
        <ele>2108.9</ele>
        <time>2020-11-11T19:59:36Z</time>
      </trkpt>
      <trkpt lat="28.2022850" lon="-16.6713470">
        <ele>2108.9</ele>
        <time>2020-11-11T19:59:37Z</time>
      </trkpt>
      <trkpt lat="28.2022930" lon="-16.6713220">
        <ele>2109.9</ele>
        <time>2020-11-11T19:59:38Z</time>
      </trkpt>
      <trkpt lat="28.2022970" lon="-16.6712730">
        <ele>2109.9</ele>
        <time>2020-11-11T19:59:39Z</time>
      </trkpt>
      <trkpt lat="28.2022970" lon="-16.6712730">
        <ele>2109.9</ele>
        <time>2020-11-11T19:59:40Z</time>
      </trkpt>
      <trkpt lat="28.2022970" lon="-16.6712730">
        <ele>2109.9</ele>
        <time>2020-11-11T19:59:41Z</time>
      </trkpt>
      <trkpt lat="28.2023070" lon="-16.6712280">
        <ele>2109.9</ele>
        <time>2020-11-11T19:59:42Z</time>
      </trkpt>
      <trkpt lat="28.2023280" lon="-16.6711870">
        <ele>2109.9</ele>
        <time>2020-11-11T19:59:43Z</time>
      </trkpt>
      <trkpt lat="28.2023280" lon="-16.6711870">
        <ele>2109.9</ele>
        <time>2020-11-11T19:59:44Z</time>
      </trkpt>
      <trkpt lat="28.2023350" lon="-16.6711650">
        <ele>2109.9</ele>
        <time>2020-11-11T19:59:45Z</time>
      </trkpt>
      <trkpt lat="28.2023350" lon="-16.6711650">
        <ele>2109.9</ele>
        <time>2020-11-11T19:59:46Z</time>
      </trkpt>
      <trkpt lat="28.2023380" lon="-16.6710920">
        <ele>2109.9</ele>
        <time>2020-11-11T19:59:47Z</time>
      </trkpt>
      <trkpt lat="28.2023380" lon="-16.6710920">
        <ele>2110.9</ele>
        <time>2020-11-11T19:59:48Z</time>
      </trkpt>
      <trkpt lat="28.2023380" lon="-16.6710920">
        <ele>2110.9</ele>
        <time>2020-11-11T19:59:49Z</time>
      </trkpt>
      <trkpt lat="28.2023470" lon="-16.6710450">
        <ele>2110.9</ele>
        <time>2020-11-11T19:59:50Z</time>
      </trkpt>
      <trkpt lat="28.2023470" lon="-16.6710450">
        <ele>2110.9</ele>
        <time>2020-11-11T19:59:51Z</time>
      </trkpt>
      <trkpt lat="28.2023550" lon="-16.6709900">
        <ele>2110.9</ele>
        <time>2020-11-11T19:59:52Z</time>
      </trkpt>
      <trkpt lat="28.2023570" lon="-16.6709370">
        <ele>2110.9</ele>
        <time>2020-11-11T19:59:53Z</time>
      </trkpt>
      <trkpt lat="28.2023570" lon="-16.6709370">
        <ele>2110.9</ele>
        <time>2020-11-11T19:59:54Z</time>
      </trkpt>
      <trkpt lat="28.2023570" lon="-16.6709370">
        <ele>2110.9</ele>
        <time>2020-11-11T19:59:55Z</time>
      </trkpt>
      <trkpt lat="28.2023730" lon="-16.6708900">
        <ele>2110.9</ele>
        <time>2020-11-11T19:59:56Z</time>
      </trkpt>
      <trkpt lat="28.2023880" lon="-16.6708400">
        <ele>2110.9</ele>
        <time>2020-11-11T19:59:57Z</time>
      </trkpt>
      <trkpt lat="28.2023880" lon="-16.6708400">
        <ele>2111.9</ele>
        <time>2020-11-11T19:59:58Z</time>
      </trkpt>
      <trkpt lat="28.2023880" lon="-16.6708400">
        <ele>2111.9</ele>
        <time>2020-11-11T19:59:59Z</time>
      </trkpt>
      <trkpt lat="28.2023950" lon="-16.6707920">
        <ele>2111.9</ele>
        <time>2020-11-11T20:00:00Z</time>
      </trkpt>
      <trkpt lat="28.2024030" lon="-16.6707420">
        <ele>2111.9</ele>
        <time>2020-11-11T20:00:01Z</time>
      </trkpt>
      <trkpt lat="28.2024030" lon="-16.6707420">
        <ele>2111.9</ele>
        <time>2020-11-11T20:00:02Z</time>
      </trkpt>
      <trkpt lat="28.2024220" lon="-16.6706950">
        <ele>2111.9</ele>
        <time>2020-11-11T20:00:03Z</time>
      </trkpt>
      <trkpt lat="28.2024220" lon="-16.6706950">
        <ele>2111.9</ele>
        <time>2020-11-11T20:00:04Z</time>
      </trkpt>
      <trkpt lat="28.2024220" lon="-16.6706950">
        <ele>2111.9</ele>
        <time>2020-11-11T20:00:05Z</time>
      </trkpt>
      <trkpt lat="28.2024320" lon="-16.6706130">
        <ele>2111.9</ele>
        <time>2020-11-11T20:00:06Z</time>
      </trkpt>
      <trkpt lat="28.2024320" lon="-16.6706130">
        <ele>2111.9</ele>
        <time>2020-11-11T20:00:07Z</time>
      </trkpt>
      <trkpt lat="28.2024380" lon="-16.6705580">
        <ele>2111.9</ele>
        <time>2020-11-11T20:00:08Z</time>
      </trkpt>
      <trkpt lat="28.2024380" lon="-16.6705580">
        <ele>2111.9</ele>
        <time>2020-11-11T20:00:09Z</time>
      </trkpt>
      <trkpt lat="28.2024380" lon="-16.6705030">
        <ele>2111.9</ele>
        <time>2020-11-11T20:00:10Z</time>
      </trkpt>
      <trkpt lat="28.2024380" lon="-16.6705030">
        <ele>2111.9</ele>
        <time>2020-11-11T20:00:11Z</time>
      </trkpt>
      <trkpt lat="28.2024380" lon="-16.6705030">
        <ele>2111.9</ele>
        <time>2020-11-11T20:00:12Z</time>
      </trkpt>
      <trkpt lat="28.2024370" lon="-16.6704230">
        <ele>2111.9</ele>
        <time>2020-11-11T20:00:13Z</time>
      </trkpt>
      <trkpt lat="28.2024370" lon="-16.6704230">
        <ele>2111.9</ele>
        <time>2020-11-11T20:00:14Z</time>
      </trkpt>
      <trkpt lat="28.2024270" lon="-16.6703680">
        <ele>2111.9</ele>
        <time>2020-11-11T20:00:15Z</time>
      </trkpt>
      <trkpt lat="28.2024220" lon="-16.6703400">
        <ele>2111.9</ele>
        <time>2020-11-11T20:00:16Z</time>
      </trkpt>
      <trkpt lat="28.2024220" lon="-16.6703400">
        <ele>2111.9</ele>
        <time>2020-11-11T20:00:17Z</time>
      </trkpt>
      <trkpt lat="28.2024220" lon="-16.6703400">
        <ele>2111.9</ele>
        <time>2020-11-11T20:00:18Z</time>
      </trkpt>
      <trkpt lat="28.2024100" lon="-16.6702820">
        <ele>2111.9</ele>
        <time>2020-11-11T20:00:19Z</time>
      </trkpt>
      <trkpt lat="28.2024100" lon="-16.6702820">
        <ele>2111.9</ele>
        <time>2020-11-11T20:00:20Z</time>
      </trkpt>
      <trkpt lat="28.2023950" lon="-16.6702250">
        <ele>2111.9</ele>
        <time>2020-11-11T20:00:21Z</time>
      </trkpt>
      <trkpt lat="28.2023950" lon="-16.6702250">
        <ele>2111.9</ele>
        <time>2020-11-11T20:00:22Z</time>
      </trkpt>
      <trkpt lat="28.2023670" lon="-16.6701750">
        <ele>2111.9</ele>
        <time>2020-11-11T20:00:23Z</time>
      </trkpt>
      <trkpt lat="28.2023670" lon="-16.6701750">
        <ele>2111.9</ele>
        <time>2020-11-11T20:00:24Z</time>
      </trkpt>
      <trkpt lat="28.2023320" lon="-16.6701270">
        <ele>2111.9</ele>
        <time>2020-11-11T20:00:25Z</time>
      </trkpt>
      <trkpt lat="28.2023130" lon="-16.6701050">
        <ele>2111.9</ele>
        <time>2020-11-11T20:00:26Z</time>
      </trkpt>
      <trkpt lat="28.2022750" lon="-16.6700630">
        <ele>2111.9</ele>
        <time>2020-11-11T20:00:27Z</time>
      </trkpt>
      <trkpt lat="28.2022750" lon="-16.6700630">
        <ele>2111.9</ele>
        <time>2020-11-11T20:00:28Z</time>
      </trkpt>
      <trkpt lat="28.2022230" lon="-16.6700330">
        <ele>2111.9</ele>
        <time>2020-11-11T20:00:29Z</time>
      </trkpt>
      <trkpt lat="28.2022230" lon="-16.6700330">
        <ele>2111.9</ele>
        <time>2020-11-11T20:00:30Z</time>
      </trkpt>
      <trkpt lat="28.2021920" lon="-16.6700230">
        <ele>2111.9</ele>
        <time>2020-11-11T20:00:31Z</time>
      </trkpt>
      <trkpt lat="28.2021600" lon="-16.6700130">
        <ele>2111.9</ele>
        <time>2020-11-11T20:00:32Z</time>
      </trkpt>
      <trkpt lat="28.2021000" lon="-16.6700020">
        <ele>2111.9</ele>
        <time>2020-11-11T20:00:33Z</time>
      </trkpt>
      <trkpt lat="28.2020730" lon="-16.6700000">
        <ele>2111.9</ele>
        <time>2020-11-11T20:00:34Z</time>
      </trkpt>
      <trkpt lat="28.2020730" lon="-16.6700000">
        <ele>2111.9</ele>
        <time>2020-11-11T20:00:35Z</time>
      </trkpt>
      <trkpt lat="28.2020730" lon="-16.6700000">
        <ele>2111.9</ele>
        <time>2020-11-11T20:00:36Z</time>
      </trkpt>
      <trkpt lat="28.2020150" lon="-16.6700080">
        <ele>2111.9</ele>
        <time>2020-11-11T20:00:37Z</time>
      </trkpt>
      <trkpt lat="28.2019430" lon="-16.6700380">
        <ele>2111.9</ele>
        <time>2020-11-11T20:00:38Z</time>
      </trkpt>
      <trkpt lat="28.2019430" lon="-16.6700380">
        <ele>2111.9</ele>
        <time>2020-11-11T20:00:39Z</time>
      </trkpt>
      <trkpt lat="28.2019430" lon="-16.6700380">
        <ele>2111.9</ele>
        <time>2020-11-11T20:00:40Z</time>
      </trkpt>
      <trkpt lat="28.2018780" lon="-16.6700700">
        <ele>2111.9</ele>
        <time>2020-11-11T20:00:41Z</time>
      </trkpt>
      <trkpt lat="28.2018780" lon="-16.6700700">
        <ele>2111.9</ele>
        <time>2020-11-11T20:00:42Z</time>
      </trkpt>
      <trkpt lat="28.2018150" lon="-16.6701170">
        <ele>2111.9</ele>
        <time>2020-11-11T20:00:43Z</time>
      </trkpt>
      <trkpt lat="28.2017840" lon="-16.6701450">
        <ele>2111.9</ele>
        <time>2020-11-11T20:00:44Z</time>
      </trkpt>
      <trkpt lat="28.2017530" lon="-16.6701720">
        <ele>2111.9</ele>
        <time>2020-11-11T20:00:45Z</time>
      </trkpt>
      <trkpt lat="28.2017230" lon="-16.6701980">
        <ele>2111.9</ele>
        <time>2020-11-11T20:00:46Z</time>
      </trkpt>
      <trkpt lat="28.2016650" lon="-16.6702550">
        <ele>2111.9</ele>
        <time>2020-11-11T20:00:47Z</time>
      </trkpt>
      <trkpt lat="28.2016650" lon="-16.6702550">
        <ele>2111.9</ele>
        <time>2020-11-11T20:00:48Z</time>
      </trkpt>
      <trkpt lat="28.2016030" lon="-16.6703150">
        <ele>2111.9</ele>
        <time>2020-11-11T20:00:49Z</time>
      </trkpt>
      <trkpt lat="28.2016030" lon="-16.6703150">
        <ele>2111.9</ele>
        <time>2020-11-11T20:00:50Z</time>
      </trkpt>
      <trkpt lat="28.2015400" lon="-16.6703750">
        <ele>2111.9</ele>
        <time>2020-11-11T20:00:51Z</time>
      </trkpt>
      <trkpt lat="28.2015400" lon="-16.6703750">
        <ele>2111.9</ele>
        <time>2020-11-11T20:00:52Z</time>
      </trkpt>
      <trkpt lat="28.2015400" lon="-16.6703750">
        <ele>2111.9</ele>
        <time>2020-11-11T20:00:53Z</time>
      </trkpt>
      <trkpt lat="28.2014540" lon="-16.6704540">
        <ele>2111.9</ele>
        <time>2020-11-11T20:00:54Z</time>
      </trkpt>
      <trkpt lat="28.2014350" lon="-16.6704680">
        <ele>2111.9</ele>
        <time>2020-11-11T20:00:55Z</time>
      </trkpt>
      <trkpt lat="28.2014350" lon="-16.6704680">
        <ele>2111.9</ele>
        <time>2020-11-11T20:00:56Z</time>
      </trkpt>
      <trkpt lat="28.2013680" lon="-16.6705300">
        <ele>2111.9</ele>
        <time>2020-11-11T20:00:57Z</time>
      </trkpt>
      <trkpt lat="28.2013070" lon="-16.6705920">
        <ele>2111.9</ele>
        <time>2020-11-11T20:00:58Z</time>
      </trkpt>
      <trkpt lat="28.2013070" lon="-16.6705920">
        <ele>2111.9</ele>
        <time>2020-11-11T20:00:59Z</time>
      </trkpt>
      <trkpt lat="28.2012480" lon="-16.6706570">
        <ele>2111.9</ele>
        <time>2020-11-11T20:01:00Z</time>
      </trkpt>
      <trkpt lat="28.2012180" lon="-16.6706900">
        <ele>2111.9</ele>
        <time>2020-11-11T20:01:01Z</time>
      </trkpt>
      <trkpt lat="28.2012180" lon="-16.6706900">
        <ele>2111.9</ele>
        <time>2020-11-11T20:01:02Z</time>
      </trkpt>
      <trkpt lat="28.2011580" lon="-16.6707600">
        <ele>2111.9</ele>
        <time>2020-11-11T20:01:03Z</time>
      </trkpt>
      <trkpt lat="28.2011580" lon="-16.6707600">
        <ele>2111.9</ele>
        <time>2020-11-11T20:01:04Z</time>
      </trkpt>
      <trkpt lat="28.2010930" lon="-16.6708250">
        <ele>2111.9</ele>
        <time>2020-11-11T20:01:05Z</time>
      </trkpt>
      <trkpt lat="28.2010930" lon="-16.6708250">
        <ele>2111.9</ele>
        <time>2020-11-11T20:01:06Z</time>
      </trkpt>
      <trkpt lat="28.2010930" lon="-16.6708250">
        <ele>2112.9</ele>
        <time>2020-11-11T20:01:07Z</time>
      </trkpt>
      <trkpt lat="28.2010320" lon="-16.6708930">
        <ele>2112.9</ele>
        <time>2020-11-11T20:01:08Z</time>
      </trkpt>
      <trkpt lat="28.2009630" lon="-16.6709730">
        <ele>2112.9</ele>
        <time>2020-11-11T20:01:09Z</time>
      </trkpt>
      <trkpt lat="28.2009300" lon="-16.6710170">
        <ele>2112.9</ele>
        <time>2020-11-11T20:01:10Z</time>
      </trkpt>
      <trkpt lat="28.2009300" lon="-16.6710170">
        <ele>2112.9</ele>
        <time>2020-11-11T20:01:11Z</time>
      </trkpt>
      <trkpt lat="28.2008520" lon="-16.6711020">
        <ele>2112.9</ele>
        <time>2020-11-11T20:01:12Z</time>
      </trkpt>
      <trkpt lat="28.2008520" lon="-16.6711020">
        <ele>2112.9</ele>
        <time>2020-11-11T20:01:13Z</time>
      </trkpt>
      <trkpt lat="28.2008330" lon="-16.6711220">
        <ele>2112.9</ele>
        <time>2020-11-11T20:01:14Z</time>
      </trkpt>
      <trkpt lat="28.2008130" lon="-16.6711410">
        <ele>2112.9</ele>
        <time>2020-11-11T20:01:15Z</time>
      </trkpt>
      <trkpt lat="28.2007730" lon="-16.6711800">
        <ele>2112.9</ele>
        <time>2020-11-11T20:01:16Z</time>
      </trkpt>
      <trkpt lat="28.2006980" lon="-16.6712550">
        <ele>2112.9</ele>
        <time>2020-11-11T20:01:17Z</time>
      </trkpt>
      <trkpt lat="28.2006270" lon="-16.6713320">
        <ele>2112.9</ele>
        <time>2020-11-11T20:01:18Z</time>
      </trkpt>
      <trkpt lat="28.2006270" lon="-16.6713320">
        <ele>2112.9</ele>
        <time>2020-11-11T20:01:19Z</time>
      </trkpt>
      <trkpt lat="28.2005550" lon="-16.6714080">
        <ele>2112.9</ele>
        <time>2020-11-11T20:01:20Z</time>
      </trkpt>
      <trkpt lat="28.2005550" lon="-16.6714080">
        <ele>2112.9</ele>
        <time>2020-11-11T20:01:21Z</time>
      </trkpt>
      <trkpt lat="28.2005550" lon="-16.6714080">
        <ele>2112.9</ele>
        <time>2020-11-11T20:01:22Z</time>
      </trkpt>
      <trkpt lat="28.2004780" lon="-16.6714780">
        <ele>2112.9</ele>
        <time>2020-11-11T20:01:23Z</time>
      </trkpt>
      <trkpt lat="28.2003980" lon="-16.6715480">
        <ele>2112.9</ele>
        <time>2020-11-11T20:01:24Z</time>
      </trkpt>
      <trkpt lat="28.2003650" lon="-16.6715830">
        <ele>2112.9</ele>
        <time>2020-11-11T20:01:25Z</time>
      </trkpt>
      <trkpt lat="28.2003270" lon="-16.6716200">
        <ele>2112.9</ele>
        <time>2020-11-11T20:01:26Z</time>
      </trkpt>
      <trkpt lat="28.2003270" lon="-16.6716200">
        <ele>2112.9</ele>
        <time>2020-11-11T20:01:27Z</time>
      </trkpt>
      <trkpt lat="28.2002580" lon="-16.6716930">
        <ele>2112.9</ele>
        <time>2020-11-11T20:01:28Z</time>
      </trkpt>
      <trkpt lat="28.2002580" lon="-16.6716930">
        <ele>2112.9</ele>
        <time>2020-11-11T20:01:29Z</time>
      </trkpt>
      <trkpt lat="28.2001980" lon="-16.6717750">
        <ele>2112.9</ele>
        <time>2020-11-11T20:01:30Z</time>
      </trkpt>
      <trkpt lat="28.2001980" lon="-16.6717750">
        <ele>2112.9</ele>
        <time>2020-11-11T20:01:31Z</time>
      </trkpt>
      <trkpt lat="28.2001980" lon="-16.6717750">
        <ele>2112.9</ele>
        <time>2020-11-11T20:01:32Z</time>
      </trkpt>
      <trkpt lat="28.2001370" lon="-16.6718530">
        <ele>2112.9</ele>
        <time>2020-11-11T20:01:33Z</time>
      </trkpt>
      <trkpt lat="28.2001050" lon="-16.6718950">
        <ele>2112.9</ele>
        <time>2020-11-11T20:01:34Z</time>
      </trkpt>
      <trkpt lat="28.2000450" lon="-16.6719750">
        <ele>2112.9</ele>
        <time>2020-11-11T20:01:35Z</time>
      </trkpt>
      <trkpt lat="28.2000450" lon="-16.6719750">
        <ele>2112.9</ele>
        <time>2020-11-11T20:01:36Z</time>
      </trkpt>
      <trkpt lat="28.2000180" lon="-16.6720180">
        <ele>2112.9</ele>
        <time>2020-11-11T20:01:37Z</time>
      </trkpt>
      <trkpt lat="28.1999800" lon="-16.6721070">
        <ele>2112.9</ele>
        <time>2020-11-11T20:01:38Z</time>
      </trkpt>
      <trkpt lat="28.1999800" lon="-16.6721070">
        <ele>2112.9</ele>
        <time>2020-11-11T20:01:39Z</time>
      </trkpt>
      <trkpt lat="28.1999800" lon="-16.6721070">
        <ele>2112.9</ele>
        <time>2020-11-11T20:01:40Z</time>
      </trkpt>
      <trkpt lat="28.1999480" lon="-16.6721980">
        <ele>2112.9</ele>
        <time>2020-11-11T20:01:41Z</time>
      </trkpt>
      <trkpt lat="28.1999480" lon="-16.6721980">
        <ele>2113.9</ele>
        <time>2020-11-11T20:01:42Z</time>
      </trkpt>
      <trkpt lat="28.1999270" lon="-16.6723000">
        <ele>2113.9</ele>
        <time>2020-11-11T20:01:43Z</time>
      </trkpt>
      <trkpt lat="28.1999080" lon="-16.6724120">
        <ele>2113.9</ele>
        <time>2020-11-11T20:01:44Z</time>
      </trkpt>
      <trkpt lat="28.1999080" lon="-16.6724120">
        <ele>2113.9</ele>
        <time>2020-11-11T20:01:45Z</time>
      </trkpt>
      <trkpt lat="28.1998850" lon="-16.6725200">
        <ele>2113.9</ele>
        <time>2020-11-11T20:01:46Z</time>
      </trkpt>
      <trkpt lat="28.1998850" lon="-16.6725200">
        <ele>2113.9</ele>
        <time>2020-11-11T20:01:47Z</time>
      </trkpt>
      <trkpt lat="28.1998850" lon="-16.6725200">
        <ele>2113.9</ele>
        <time>2020-11-11T20:01:48Z</time>
      </trkpt>
      <trkpt lat="28.1998420" lon="-16.6726820">
        <ele>2113.9</ele>
        <time>2020-11-11T20:01:49Z</time>
      </trkpt>
      <trkpt lat="28.1998420" lon="-16.6726820">
        <ele>2114.9</ele>
        <time>2020-11-11T20:01:50Z</time>
      </trkpt>
      <trkpt lat="28.1998420" lon="-16.6726820">
        <ele>2114.9</ele>
        <time>2020-11-11T20:01:51Z</time>
      </trkpt>
      <trkpt lat="28.1998020" lon="-16.6727800">
        <ele>2114.9</ele>
        <time>2020-11-11T20:01:52Z</time>
      </trkpt>
      <trkpt lat="28.1997750" lon="-16.6728300">
        <ele>2114.9</ele>
        <time>2020-11-11T20:01:53Z</time>
      </trkpt>
      <trkpt lat="28.1997130" lon="-16.6729270">
        <ele>2114.9</ele>
        <time>2020-11-11T20:01:54Z</time>
      </trkpt>
      <trkpt lat="28.1997130" lon="-16.6729270">
        <ele>2114.9</ele>
        <time>2020-11-11T20:01:55Z</time>
      </trkpt>
      <trkpt lat="28.1996400" lon="-16.6730230">
        <ele>2114.9</ele>
        <time>2020-11-11T20:01:56Z</time>
      </trkpt>
      <trkpt lat="28.1996050" lon="-16.6730730">
        <ele>2114.9</ele>
        <time>2020-11-11T20:01:57Z</time>
      </trkpt>
      <trkpt lat="28.1996050" lon="-16.6730730">
        <ele>2114.9</ele>
        <time>2020-11-11T20:01:58Z</time>
      </trkpt>
      <trkpt lat="28.1995330" lon="-16.6731700">
        <ele>2114.9</ele>
        <time>2020-11-11T20:01:59Z</time>
      </trkpt>
      <trkpt lat="28.1995330" lon="-16.6731700">
        <ele>2114.9</ele>
        <time>2020-11-11T20:02:00Z</time>
      </trkpt>
      <trkpt lat="28.1994930" lon="-16.6732110">
        <ele>2114.9</ele>
        <time>2020-11-11T20:02:01Z</time>
      </trkpt>
      <trkpt lat="28.1994520" lon="-16.6732510">
        <ele>2114.9</ele>
        <time>2020-11-11T20:02:02Z</time>
      </trkpt>
      <trkpt lat="28.1993700" lon="-16.6733320">
        <ele>2114.9</ele>
        <time>2020-11-11T20:02:03Z</time>
      </trkpt>
      <trkpt lat="28.1993700" lon="-16.6733320">
        <ele>2114.9</ele>
        <time>2020-11-11T20:02:04Z</time>
      </trkpt>
      <trkpt lat="28.1992750" lon="-16.6733830">
        <ele>2114.9</ele>
        <time>2020-11-11T20:02:05Z</time>
      </trkpt>
      <trkpt lat="28.1992750" lon="-16.6733830">
        <ele>2114.9</ele>
        <time>2020-11-11T20:02:06Z</time>
      </trkpt>
      <trkpt lat="28.1992750" lon="-16.6733830">
        <ele>2114.9</ele>
        <time>2020-11-11T20:02:07Z</time>
      </trkpt>
      <trkpt lat="28.1991730" lon="-16.6734120">
        <ele>2114.9</ele>
        <time>2020-11-11T20:02:08Z</time>
      </trkpt>
      <trkpt lat="28.1991730" lon="-16.6734120">
        <ele>2114.9</ele>
        <time>2020-11-11T20:02:09Z</time>
      </trkpt>
      <trkpt lat="28.1990720" lon="-16.6734170">
        <ele>2114.9</ele>
        <time>2020-11-11T20:02:10Z</time>
      </trkpt>
      <trkpt lat="28.1989730" lon="-16.6734080">
        <ele>2115.9</ele>
        <time>2020-11-11T20:02:11Z</time>
      </trkpt>
      <trkpt lat="28.1989730" lon="-16.6734080">
        <ele>2115.9</ele>
        <time>2020-11-11T20:02:12Z</time>
      </trkpt>
      <trkpt lat="28.1988800" lon="-16.6733820">
        <ele>2115.9</ele>
        <time>2020-11-11T20:02:13Z</time>
      </trkpt>
      <trkpt lat="28.1988800" lon="-16.6733820">
        <ele>2115.9</ele>
        <time>2020-11-11T20:02:14Z</time>
      </trkpt>
      <trkpt lat="28.1988800" lon="-16.6733820">
        <ele>2115.9</ele>
        <time>2020-11-11T20:02:15Z</time>
      </trkpt>
      <trkpt lat="28.1987950" lon="-16.6733370">
        <ele>2115.9</ele>
        <time>2020-11-11T20:02:16Z</time>
      </trkpt>
      <trkpt lat="28.1987100" lon="-16.6732980">
        <ele>2115.9</ele>
        <time>2020-11-11T20:02:17Z</time>
      </trkpt>
      <trkpt lat="28.1987100" lon="-16.6732980">
        <ele>2115.9</ele>
        <time>2020-11-11T20:02:18Z</time>
      </trkpt>
      <trkpt lat="28.1987100" lon="-16.6732980">
        <ele>2115.9</ele>
        <time>2020-11-11T20:02:19Z</time>
      </trkpt>
      <trkpt lat="28.1986280" lon="-16.6732620">
        <ele>2115.9</ele>
        <time>2020-11-11T20:02:20Z</time>
      </trkpt>
      <trkpt lat="28.1985550" lon="-16.6732250">
        <ele>2115.9</ele>
        <time>2020-11-11T20:02:21Z</time>
      </trkpt>
      <trkpt lat="28.1985550" lon="-16.6732250">
        <ele>2115.9</ele>
        <time>2020-11-11T20:02:22Z</time>
      </trkpt>
      <trkpt lat="28.1985190" lon="-16.6732090">
        <ele>2115.9</ele>
        <time>2020-11-11T20:02:23Z</time>
      </trkpt>
      <trkpt lat="28.1984830" lon="-16.6731930">
        <ele>2116.9</ele>
        <time>2020-11-11T20:02:24Z</time>
      </trkpt>
      <trkpt lat="28.1984150" lon="-16.6731620">
        <ele>2116.9</ele>
        <time>2020-11-11T20:02:25Z</time>
      </trkpt>
      <trkpt lat="28.1984150" lon="-16.6731620">
        <ele>2116.9</ele>
        <time>2020-11-11T20:02:26Z</time>
      </trkpt>
      <trkpt lat="28.1984150" lon="-16.6731620">
        <ele>2116.9</ele>
        <time>2020-11-11T20:02:27Z</time>
      </trkpt>
      <trkpt lat="28.1983470" lon="-16.6731320">
        <ele>2117.9</ele>
        <time>2020-11-11T20:02:28Z</time>
      </trkpt>
      <trkpt lat="28.1983470" lon="-16.6731320">
        <ele>2117.9</ele>
        <time>2020-11-11T20:02:29Z</time>
      </trkpt>
      <trkpt lat="28.1982770" lon="-16.6730930">
        <ele>2117.9</ele>
        <time>2020-11-11T20:02:30Z</time>
      </trkpt>
      <trkpt lat="28.1982400" lon="-16.6730730">
        <ele>2117.9</ele>
        <time>2020-11-11T20:02:31Z</time>
      </trkpt>
      <trkpt lat="28.1982030" lon="-16.6730530">
        <ele>2117.9</ele>
        <time>2020-11-11T20:02:32Z</time>
      </trkpt>
      <trkpt lat="28.1981270" lon="-16.6730120">
        <ele>2117.9</ele>
        <time>2020-11-11T20:02:33Z</time>
      </trkpt>
      <trkpt lat="28.1981270" lon="-16.6730120">
        <ele>2118.9</ele>
        <time>2020-11-11T20:02:34Z</time>
      </trkpt>
      <trkpt lat="28.1981270" lon="-16.6730120">
        <ele>2118.9</ele>
        <time>2020-11-11T20:02:35Z</time>
      </trkpt>
      <trkpt lat="28.1980500" lon="-16.6729670">
        <ele>2118.9</ele>
        <time>2020-11-11T20:02:36Z</time>
      </trkpt>
      <trkpt lat="28.1980500" lon="-16.6729670">
        <ele>2118.9</ele>
        <time>2020-11-11T20:02:37Z</time>
      </trkpt>
      <trkpt lat="28.1979680" lon="-16.6729180">
        <ele>2119.9</ele>
        <time>2020-11-11T20:02:38Z</time>
      </trkpt>
      <trkpt lat="28.1978800" lon="-16.6728650">
        <ele>2119.9</ele>
        <time>2020-11-11T20:02:39Z</time>
      </trkpt>
      <trkpt lat="28.1978800" lon="-16.6728650">
        <ele>2119.9</ele>
        <time>2020-11-11T20:02:40Z</time>
      </trkpt>
      <trkpt lat="28.1978800" lon="-16.6728650">
        <ele>2119.9</ele>
        <time>2020-11-11T20:02:41Z</time>
      </trkpt>
      <trkpt lat="28.1978000" lon="-16.6728000">
        <ele>2120.9</ele>
        <time>2020-11-11T20:02:42Z</time>
      </trkpt>
      <trkpt lat="28.1977650" lon="-16.6727650">
        <ele>2120.9</ele>
        <time>2020-11-11T20:02:43Z</time>
      </trkpt>
      <trkpt lat="28.1977080" lon="-16.6726870">
        <ele>2120.9</ele>
        <time>2020-11-11T20:02:44Z</time>
      </trkpt>
      <trkpt lat="28.1976980" lon="-16.6726640">
        <ele>2120.9</ele>
        <time>2020-11-11T20:02:45Z</time>
      </trkpt>
      <trkpt lat="28.1976870" lon="-16.6726420">
        <ele>2120.9</ele>
        <time>2020-11-11T20:02:46Z</time>
      </trkpt>
      <trkpt lat="28.1976470" lon="-16.6725380">
        <ele>2120.9</ele>
        <time>2020-11-11T20:02:47Z</time>
      </trkpt>
      <trkpt lat="28.1976470" lon="-16.6725380">
        <ele>2120.9</ele>
        <time>2020-11-11T20:02:48Z</time>
      </trkpt>
      <trkpt lat="28.1976470" lon="-16.6725380">
        <ele>2120.9</ele>
        <time>2020-11-11T20:02:49Z</time>
      </trkpt>
      <trkpt lat="28.1976080" lon="-16.6724220">
        <ele>2120.9</ele>
        <time>2020-11-11T20:02:50Z</time>
      </trkpt>
      <trkpt lat="28.1975770" lon="-16.6722880">
        <ele>2120.9</ele>
        <time>2020-11-11T20:02:51Z</time>
      </trkpt>
      <trkpt lat="28.1975770" lon="-16.6722880">
        <ele>2120.9</ele>
        <time>2020-11-11T20:02:52Z</time>
      </trkpt>
      <trkpt lat="28.1975380" lon="-16.6721400">
        <ele>2119.9</ele>
        <time>2020-11-11T20:02:53Z</time>
      </trkpt>
      <trkpt lat="28.1975380" lon="-16.6721400">
        <ele>2119.9</ele>
        <time>2020-11-11T20:02:54Z</time>
      </trkpt>
      <trkpt lat="28.1975380" lon="-16.6721400">
        <ele>2119.9</ele>
        <time>2020-11-11T20:02:55Z</time>
      </trkpt>
      <trkpt lat="28.1974980" lon="-16.6719900">
        <ele>2119.9</ele>
        <time>2020-11-11T20:02:56Z</time>
      </trkpt>
      <trkpt lat="28.1974980" lon="-16.6719900">
        <ele>2117.9</ele>
        <time>2020-11-11T20:02:57Z</time>
      </trkpt>
      <trkpt lat="28.1974720" lon="-16.6718320">
        <ele>2117.9</ele>
        <time>2020-11-11T20:02:58Z</time>
      </trkpt>
      <trkpt lat="28.1974350" lon="-16.6716770">
        <ele>2117.9</ele>
        <time>2020-11-11T20:02:59Z</time>
      </trkpt>
      <trkpt lat="28.1974350" lon="-16.6716770">
        <ele>2117.9</ele>
        <time>2020-11-11T20:03:00Z</time>
      </trkpt>
      <trkpt lat="28.1973920" lon="-16.6715120">
        <ele>2116.9</ele>
        <time>2020-11-11T20:03:01Z</time>
      </trkpt>
      <trkpt lat="28.1973920" lon="-16.6715120">
        <ele>2116.9</ele>
        <time>2020-11-11T20:03:02Z</time>
      </trkpt>
      <trkpt lat="28.1973450" lon="-16.6713500">
        <ele>2116.9</ele>
        <time>2020-11-11T20:03:03Z</time>
      </trkpt>
      <trkpt lat="28.1973450" lon="-16.6713500">
        <ele>2116.9</ele>
        <time>2020-11-11T20:03:04Z</time>
      </trkpt>
      <trkpt lat="28.1972730" lon="-16.6712070">
        <ele>2115.9</ele>
        <time>2020-11-11T20:03:05Z</time>
      </trkpt>
      <trkpt lat="28.1972730" lon="-16.6712070">
        <ele>2115.9</ele>
        <time>2020-11-11T20:03:06Z</time>
      </trkpt>
      <trkpt lat="28.1972730" lon="-16.6712070">
        <ele>2115.9</ele>
        <time>2020-11-11T20:03:07Z</time>
      </trkpt>
      <trkpt lat="28.1971580" lon="-16.6711000">
        <ele>2115.9</ele>
        <time>2020-11-11T20:03:08Z</time>
      </trkpt>
      <trkpt lat="28.1970130" lon="-16.6710380">
        <ele>2115.9</ele>
        <time>2020-11-11T20:03:09Z</time>
      </trkpt>
      <trkpt lat="28.1970130" lon="-16.6710380">
        <ele>2115.9</ele>
        <time>2020-11-11T20:03:10Z</time>
      </trkpt>
      <trkpt lat="28.1968520" lon="-16.6710530">
        <ele>2114.9</ele>
        <time>2020-11-11T20:03:11Z</time>
      </trkpt>
      <trkpt lat="28.1967720" lon="-16.6710680">
        <ele>2114.9</ele>
        <time>2020-11-11T20:03:12Z</time>
      </trkpt>
      <trkpt lat="28.1967720" lon="-16.6710680">
        <ele>2114.9</ele>
        <time>2020-11-11T20:03:13Z</time>
      </trkpt>
      <trkpt lat="28.1966130" lon="-16.6710970">
        <ele>2114.9</ele>
        <time>2020-11-11T20:03:14Z</time>
      </trkpt>
      <trkpt lat="28.1966130" lon="-16.6710970">
        <ele>2113.9</ele>
        <time>2020-11-11T20:03:15Z</time>
      </trkpt>
      <trkpt lat="28.1964550" lon="-16.6711280">
        <ele>2113.9</ele>
        <time>2020-11-11T20:03:16Z</time>
      </trkpt>
      <trkpt lat="28.1964550" lon="-16.6711280">
        <ele>2113.9</ele>
        <time>2020-11-11T20:03:17Z</time>
      </trkpt>
      <trkpt lat="28.1962980" lon="-16.6711570">
        <ele>2113.9</ele>
        <time>2020-11-11T20:03:18Z</time>
      </trkpt>
      <trkpt lat="28.1962980" lon="-16.6711570">
        <ele>2112.9</ele>
        <time>2020-11-11T20:03:19Z</time>
      </trkpt>
      <trkpt lat="28.1962980" lon="-16.6711570">
        <ele>2112.9</ele>
        <time>2020-11-11T20:03:20Z</time>
      </trkpt>
      <trkpt lat="28.1961370" lon="-16.6711820">
        <ele>2112.9</ele>
        <time>2020-11-11T20:03:21Z</time>
      </trkpt>
      <trkpt lat="28.1959800" lon="-16.6711950">
        <ele>2112.9</ele>
        <time>2020-11-11T20:03:22Z</time>
      </trkpt>
      <trkpt lat="28.1959800" lon="-16.6711950">
        <ele>2112.9</ele>
        <time>2020-11-11T20:03:23Z</time>
      </trkpt>
      <trkpt lat="28.1958250" lon="-16.6711570">
        <ele>2112.9</ele>
        <time>2020-11-11T20:03:24Z</time>
      </trkpt>
      <trkpt lat="28.1958250" lon="-16.6711570">
        <ele>2112.9</ele>
        <time>2020-11-11T20:03:25Z</time>
      </trkpt>
      <trkpt lat="28.1957520" lon="-16.6711120">
        <ele>2112.9</ele>
        <time>2020-11-11T20:03:26Z</time>
      </trkpt>
      <trkpt lat="28.1957520" lon="-16.6711120">
        <ele>2112.9</ele>
        <time>2020-11-11T20:03:27Z</time>
      </trkpt>
      <trkpt lat="28.1956040" lon="-16.6708870">
        <ele>2112.9</ele>
        <time>2020-11-11T20:03:28Z</time>
      </trkpt>
      <trkpt lat="28.1955730" lon="-16.6707930">
        <ele>2111.9</ele>
        <time>2020-11-11T20:03:29Z</time>
      </trkpt>
      <trkpt lat="28.1955730" lon="-16.6707930">
        <ele>2110.9</ele>
        <time>2020-11-11T20:03:30Z</time>
      </trkpt>
      <trkpt lat="28.1955730" lon="-16.6707930">
        <ele>2110.9</ele>
        <time>2020-11-11T20:03:31Z</time>
      </trkpt>
      <trkpt lat="28.1955490" lon="-16.6705150">
        <ele>2109.9</ele>
        <time>2020-11-11T20:03:32Z</time>
      </trkpt>
      <trkpt lat="28.1955460" lon="-16.6704570">
        <ele>2109.9</ele>
        <time>2020-11-11T20:03:33Z</time>
      </trkpt>
      <trkpt lat="28.1955360" lon="-16.6702500">
        <ele>2108.9</ele>
        <time>2020-11-11T20:03:34Z</time>
      </trkpt>
      <trkpt lat="28.1955310" lon="-16.6701590">
        <ele>2108.9</ele>
        <time>2020-11-11T20:03:35Z</time>
      </trkpt>
      <trkpt lat="28.1955220" lon="-16.6699770">
        <ele>2107.9</ele>
        <time>2020-11-11T20:03:36Z</time>
      </trkpt>
      <trkpt lat="28.1955220" lon="-16.6699770">
        <ele>2107.9</ele>
        <time>2020-11-11T20:03:37Z</time>
      </trkpt>
      <trkpt lat="28.1955220" lon="-16.6699770">
        <ele>2106.9</ele>
        <time>2020-11-11T20:03:38Z</time>
      </trkpt>
      <trkpt lat="28.1955080" lon="-16.6697250">
        <ele>2106.9</ele>
        <time>2020-11-11T20:03:39Z</time>
      </trkpt>
      <trkpt lat="28.1955080" lon="-16.6697250">
        <ele>2104.9</ele>
        <time>2020-11-11T20:03:40Z</time>
      </trkpt>
      <trkpt lat="28.1955000" lon="-16.6694030">
        <ele>2104.9</ele>
        <time>2020-11-11T20:03:41Z</time>
      </trkpt>
      <trkpt lat="28.1954980" lon="-16.6693380">
        <ele>2104.9</ele>
        <time>2020-11-11T20:03:42Z</time>
      </trkpt>
      <trkpt lat="28.1954940" lon="-16.6692080">
        <ele>2104.9</ele>
        <time>2020-11-11T20:03:43Z</time>
      </trkpt>
      <trkpt lat="28.1954900" lon="-16.6690780">
        <ele>2102.9</ele>
        <time>2020-11-11T20:03:44Z</time>
      </trkpt>
      <trkpt lat="28.1954930" lon="-16.6688220">
        <ele>2102.9</ele>
        <time>2020-11-11T20:03:45Z</time>
      </trkpt>
      <trkpt lat="28.1954930" lon="-16.6688220">
        <ele>2101.9</ele>
        <time>2020-11-11T20:03:46Z</time>
      </trkpt>
      <trkpt lat="28.1955280" lon="-16.6685750">
        <ele>2101.9</ele>
        <time>2020-11-11T20:03:47Z</time>
      </trkpt>
      <trkpt lat="28.1955530" lon="-16.6685200">
        <ele>2100.9</ele>
        <time>2020-11-11T20:03:48Z</time>
      </trkpt>
      <trkpt lat="28.1955780" lon="-16.6684640">
        <ele>2100.9</ele>
        <time>2020-11-11T20:03:49Z</time>
      </trkpt>
      <trkpt lat="28.1956270" lon="-16.6683520">
        <ele>2098.9</ele>
        <time>2020-11-11T20:03:50Z</time>
      </trkpt>
      <trkpt lat="28.1956750" lon="-16.6682690">
        <ele>2098.9</ele>
        <time>2020-11-11T20:03:51Z</time>
      </trkpt>
      <trkpt lat="28.1957220" lon="-16.6681850">
        <ele>2097.9</ele>
        <time>2020-11-11T20:03:52Z</time>
      </trkpt>
      <trkpt lat="28.1958170" lon="-16.6680170">
        <ele>2097.9</ele>
        <time>2020-11-11T20:03:53Z</time>
      </trkpt>
      <trkpt lat="28.1958170" lon="-16.6680170">
        <ele>2095.9</ele>
        <time>2020-11-11T20:03:54Z</time>
      </trkpt>
      <trkpt lat="28.1959450" lon="-16.6677880">
        <ele>2095.9</ele>
        <time>2020-11-11T20:03:55Z</time>
      </trkpt>
      <trkpt lat="28.1959960" lon="-16.6677010">
        <ele>2093.9</ele>
        <time>2020-11-11T20:03:56Z</time>
      </trkpt>
      <trkpt lat="28.1960460" lon="-16.6676140">
        <ele>2093.9</ele>
        <time>2020-11-11T20:03:57Z</time>
      </trkpt>
      <trkpt lat="28.1961470" lon="-16.6674400">
        <ele>2092.9</ele>
        <time>2020-11-11T20:03:58Z</time>
      </trkpt>
      <trkpt lat="28.1962750" lon="-16.6672100">
        <ele>2092.9</ele>
        <time>2020-11-11T20:03:59Z</time>
      </trkpt>
      <trkpt lat="28.1962750" lon="-16.6672100">
        <ele>2090.9</ele>
        <time>2020-11-11T20:04:00Z</time>
      </trkpt>
      <trkpt lat="28.1962750" lon="-16.6672100">
        <ele>2090.9</ele>
        <time>2020-11-11T20:04:01Z</time>
      </trkpt>
      <trkpt lat="28.1963680" lon="-16.6669650">
        <ele>2088.9</ele>
        <time>2020-11-11T20:04:02Z</time>
      </trkpt>
      <trkpt lat="28.1964000" lon="-16.6668370">
        <ele>2088.9</ele>
        <time>2020-11-11T20:04:03Z</time>
      </trkpt>
      <trkpt lat="28.1963930" lon="-16.6665980">
        <ele>2086.9</ele>
        <time>2020-11-11T20:04:04Z</time>
      </trkpt>
      <trkpt lat="28.1963930" lon="-16.6665980">
        <ele>2086.9</ele>
        <time>2020-11-11T20:04:05Z</time>
      </trkpt>
      <trkpt lat="28.1962850" lon="-16.6663970">
        <ele>2085.9</ele>
        <time>2020-11-11T20:04:06Z</time>
      </trkpt>
      <trkpt lat="28.1962650" lon="-16.6663760">
        <ele>2085.9</ele>
        <time>2020-11-11T20:04:07Z</time>
      </trkpt>
      <trkpt lat="28.1962450" lon="-16.6663560">
        <ele>2083.9</ele>
        <time>2020-11-11T20:04:08Z</time>
      </trkpt>
      <trkpt lat="28.1962050" lon="-16.6663150">
        <ele>2081.9</ele>
        <time>2020-11-11T20:04:09Z</time>
      </trkpt>
      <trkpt lat="28.1960180" lon="-16.6662070">
        <ele>2081.9</ele>
        <time>2020-11-11T20:04:10Z</time>
      </trkpt>
      <trkpt lat="28.1958000" lon="-16.6661830">
        <ele>2079.9</ele>
        <time>2020-11-11T20:04:11Z</time>
      </trkpt>
      <trkpt lat="28.1958000" lon="-16.6661830">
        <ele>2079.9</ele>
        <time>2020-11-11T20:04:12Z</time>
      </trkpt>
      <trkpt lat="28.1955650" lon="-16.6662200">
        <ele>2077.9</ele>
        <time>2020-11-11T20:04:13Z</time>
      </trkpt>
      <trkpt lat="28.1955650" lon="-16.6662200">
        <ele>2077.9</ele>
        <time>2020-11-11T20:04:14Z</time>
      </trkpt>
      <trkpt lat="28.1953230" lon="-16.6662800">
        <ele>2075.9</ele>
        <time>2020-11-11T20:04:15Z</time>
      </trkpt>
      <trkpt lat="28.1953230" lon="-16.6662800">
        <ele>2075.9</ele>
        <time>2020-11-11T20:04:16Z</time>
      </trkpt>
      <trkpt lat="28.1950770" lon="-16.6663330">
        <ele>2074.9</ele>
        <time>2020-11-11T20:04:17Z</time>
      </trkpt>
      <trkpt lat="28.1950770" lon="-16.6663330">
        <ele>2074.9</ele>
        <time>2020-11-11T20:04:18Z</time>
      </trkpt>
      <trkpt lat="28.1948200" lon="-16.6663950">
        <ele>2072.9</ele>
        <time>2020-11-11T20:04:19Z</time>
      </trkpt>
      <trkpt lat="28.1947230" lon="-16.6664210">
        <ele>2072.9</ele>
        <time>2020-11-11T20:04:20Z</time>
      </trkpt>
      <trkpt lat="28.1946260" lon="-16.6664470">
        <ele>2071.9</ele>
        <time>2020-11-11T20:04:21Z</time>
      </trkpt>
      <trkpt lat="28.1944320" lon="-16.6664980">
        <ele>2071.9</ele>
        <time>2020-11-11T20:04:22Z</time>
      </trkpt>
      <trkpt lat="28.1944320" lon="-16.6664980">
        <ele>2069.9</ele>
        <time>2020-11-11T20:04:23Z</time>
      </trkpt>
      <trkpt lat="28.1941920" lon="-16.6665900">
        <ele>2069.9</ele>
        <time>2020-11-11T20:04:24Z</time>
      </trkpt>
      <trkpt lat="28.1941920" lon="-16.6665900">
        <ele>2068.9</ele>
        <time>2020-11-11T20:04:25Z</time>
      </trkpt>
      <trkpt lat="28.1941920" lon="-16.6665900">
        <ele>2068.9</ele>
        <time>2020-11-11T20:04:26Z</time>
      </trkpt>
      <trkpt lat="28.1939450" lon="-16.6666920">
        <ele>2066.9</ele>
        <time>2020-11-11T20:04:27Z</time>
      </trkpt>
      <trkpt lat="28.1936930" lon="-16.6667870">
        <ele>2066.9</ele>
        <time>2020-11-11T20:04:28Z</time>
      </trkpt>
      <trkpt lat="28.1936930" lon="-16.6667870">
        <ele>2064.9</ele>
        <time>2020-11-11T20:04:29Z</time>
      </trkpt>
      <trkpt lat="28.1935700" lon="-16.6668350">
        <ele>2064.9</ele>
        <time>2020-11-11T20:04:30Z</time>
      </trkpt>
      <trkpt lat="28.1934430" lon="-16.6668750">
        <ele>2063.9</ele>
        <time>2020-11-11T20:04:31Z</time>
      </trkpt>
      <trkpt lat="28.1931820" lon="-16.6669380">
        <ele>2063.9</ele>
        <time>2020-11-11T20:04:32Z</time>
      </trkpt>
      <trkpt lat="28.1931820" lon="-16.6669380">
        <ele>2061.9</ele>
        <time>2020-11-11T20:04:33Z</time>
      </trkpt>
      <trkpt lat="28.1931820" lon="-16.6669380">
        <ele>2061.9</ele>
        <time>2020-11-11T20:04:34Z</time>
      </trkpt>
      <trkpt lat="28.1929200" lon="-16.6670070">
        <ele>2059.9</ele>
        <time>2020-11-11T20:04:35Z</time>
      </trkpt>
      <trkpt lat="28.1927360" lon="-16.6670710">
        <ele>2059.9</ele>
        <time>2020-11-11T20:04:36Z</time>
      </trkpt>
      <trkpt lat="28.1926770" lon="-16.6670970">
        <ele>2058.9</ele>
        <time>2020-11-11T20:04:37Z</time>
      </trkpt>
      <trkpt lat="28.1925600" lon="-16.6671500">
        <ele>2058.9</ele>
        <time>2020-11-11T20:04:38Z</time>
      </trkpt>
      <trkpt lat="28.1924420" lon="-16.6672020">
        <ele>2056.9</ele>
        <time>2020-11-11T20:04:39Z</time>
      </trkpt>
      <trkpt lat="28.1923280" lon="-16.6672620">
        <ele>2056.9</ele>
        <time>2020-11-11T20:04:40Z</time>
      </trkpt>
      <trkpt lat="28.1923280" lon="-16.6672620">
        <ele>2055.9</ele>
        <time>2020-11-11T20:04:41Z</time>
      </trkpt>
      <trkpt lat="28.1921150" lon="-16.6673730">
        <ele>2055.9</ele>
        <time>2020-11-11T20:04:42Z</time>
      </trkpt>
      <trkpt lat="28.1921150" lon="-16.6673730">
        <ele>2053.9</ele>
        <time>2020-11-11T20:04:43Z</time>
      </trkpt>
      <trkpt lat="28.1919220" lon="-16.6674670">
        <ele>2053.9</ele>
        <time>2020-11-11T20:04:44Z</time>
      </trkpt>
      <trkpt lat="28.1919220" lon="-16.6674670">
        <ele>2052.9</ele>
        <time>2020-11-11T20:04:45Z</time>
      </trkpt>
      <trkpt lat="28.1917420" lon="-16.6675170">
        <ele>2052.9</ele>
        <time>2020-11-11T20:04:46Z</time>
      </trkpt>
      <trkpt lat="28.1917420" lon="-16.6675170">
        <ele>2050.9</ele>
        <time>2020-11-11T20:04:47Z</time>
      </trkpt>
      <trkpt lat="28.1914920" lon="-16.6674770">
        <ele>2049.9</ele>
        <time>2020-11-11T20:04:48Z</time>
      </trkpt>
      <trkpt lat="28.1914920" lon="-16.6674770">
        <ele>2049.9</ele>
        <time>2020-11-11T20:04:49Z</time>
      </trkpt>
      <trkpt lat="28.1914920" lon="-16.6674770">
        <ele>2048.9</ele>
        <time>2020-11-11T20:04:50Z</time>
      </trkpt>
      <trkpt lat="28.1913900" lon="-16.6673530">
        <ele>2048.9</ele>
        <time>2020-11-11T20:04:51Z</time>
      </trkpt>
      <trkpt lat="28.1913900" lon="-16.6673530">
        <ele>2046.9</ele>
        <time>2020-11-11T20:04:52Z</time>
      </trkpt>
      <trkpt lat="28.1913600" lon="-16.6671680">
        <ele>2046.9</ele>
        <time>2020-11-11T20:04:53Z</time>
      </trkpt>
      <trkpt lat="28.1913700" lon="-16.6669680">
        <ele>2045.9</ele>
        <time>2020-11-11T20:04:54Z</time>
      </trkpt>
      <trkpt lat="28.1913700" lon="-16.6669680">
        <ele>2045.9</ele>
        <time>2020-11-11T20:04:55Z</time>
      </trkpt>
      <trkpt lat="28.1913700" lon="-16.6669680">
        <ele>2044.9</ele>
        <time>2020-11-11T20:04:56Z</time>
      </trkpt>
      <trkpt lat="28.1914220" lon="-16.6667570">
        <ele>2044.9</ele>
        <time>2020-11-11T20:04:57Z</time>
      </trkpt>
      <trkpt lat="28.1914380" lon="-16.6667020">
        <ele>2043.9</ele>
        <time>2020-11-11T20:04:58Z</time>
      </trkpt>
      <trkpt lat="28.1914540" lon="-16.6666470">
        <ele>2043.9</ele>
        <time>2020-11-11T20:04:59Z</time>
      </trkpt>
      <trkpt lat="28.1914850" lon="-16.6665370">
        <ele>2041.9</ele>
        <time>2020-11-11T20:05:00Z</time>
      </trkpt>
      <trkpt lat="28.1915710" lon="-16.6662140">
        <ele>2041.9</ele>
        <time>2020-11-11T20:05:01Z</time>
      </trkpt>
      <trkpt lat="28.1915940" lon="-16.6661250">
        <ele>2040.9</ele>
        <time>2020-11-11T20:05:02Z</time>
      </trkpt>
      <trkpt lat="28.1916400" lon="-16.6659470">
        <ele>2040.9</ele>
        <time>2020-11-11T20:05:03Z</time>
      </trkpt>
      <trkpt lat="28.1916400" lon="-16.6659470">
        <ele>2039.9</ele>
        <time>2020-11-11T20:05:04Z</time>
      </trkpt>
      <trkpt lat="28.1916420" lon="-16.6657120">
        <ele>2039.9</ele>
        <time>2020-11-11T20:05:05Z</time>
      </trkpt>
      <trkpt lat="28.1916150" lon="-16.6655930">
        <ele>2037.9</ele>
        <time>2020-11-11T20:05:06Z</time>
      </trkpt>
      <trkpt lat="28.1916150" lon="-16.6655930">
        <ele>2037.9</ele>
        <time>2020-11-11T20:05:07Z</time>
      </trkpt>
      <trkpt lat="28.1915280" lon="-16.6653650">
        <ele>2036.9</ele>
        <time>2020-11-11T20:05:08Z</time>
      </trkpt>
      <trkpt lat="28.1915280" lon="-16.6653650">
        <ele>2036.9</ele>
        <time>2020-11-11T20:05:09Z</time>
      </trkpt>
      <trkpt lat="28.1915280" lon="-16.6653650">
        <ele>2034.9</ele>
        <time>2020-11-11T20:05:10Z</time>
      </trkpt>
      <trkpt lat="28.1914330" lon="-16.6651400">
        <ele>2034.9</ele>
        <time>2020-11-11T20:05:11Z</time>
      </trkpt>
      <trkpt lat="28.1913370" lon="-16.6649120">
        <ele>2033.9</ele>
        <time>2020-11-11T20:05:12Z</time>
      </trkpt>
      <trkpt lat="28.1913370" lon="-16.6649120">
        <ele>2033.9</ele>
        <time>2020-11-11T20:05:13Z</time>
      </trkpt>
      <trkpt lat="28.1913370" lon="-16.6649120">
        <ele>2032.9</ele>
        <time>2020-11-11T20:05:14Z</time>
      </trkpt>
      <trkpt lat="28.1911970" lon="-16.6645700">
        <ele>2032.9</ele>
        <time>2020-11-11T20:05:15Z</time>
      </trkpt>
      <trkpt lat="28.1911970" lon="-16.6645700">
        <ele>2031.9</ele>
        <time>2020-11-11T20:05:16Z</time>
      </trkpt>
      <trkpt lat="28.1911970" lon="-16.6645700">
        <ele>2031.9</ele>
        <time>2020-11-11T20:05:17Z</time>
      </trkpt>
      <trkpt lat="28.1911430" lon="-16.6643270">
        <ele>2029.9</ele>
        <time>2020-11-11T20:05:18Z</time>
      </trkpt>
      <trkpt lat="28.1911430" lon="-16.6643270">
        <ele>2029.9</ele>
        <time>2020-11-11T20:05:19Z</time>
      </trkpt>
      <trkpt lat="28.1911310" lon="-16.6640050">
        <ele>2028.9</ele>
        <time>2020-11-11T20:05:20Z</time>
      </trkpt>
      <trkpt lat="28.1911360" lon="-16.6639380">
        <ele>2028.9</ele>
        <time>2020-11-11T20:05:21Z</time>
      </trkpt>
      <trkpt lat="28.1911470" lon="-16.6638030">
        <ele>2027.9</ele>
        <time>2020-11-11T20:05:22Z</time>
      </trkpt>
      <trkpt lat="28.1911770" lon="-16.6635380">
        <ele>2027.9</ele>
        <time>2020-11-11T20:05:23Z</time>
      </trkpt>
      <trkpt lat="28.1911770" lon="-16.6635380">
        <ele>2026.9</ele>
        <time>2020-11-11T20:05:24Z</time>
      </trkpt>
      <trkpt lat="28.1911770" lon="-16.6635380">
        <ele>2026.9</ele>
        <time>2020-11-11T20:05:25Z</time>
      </trkpt>
      <trkpt lat="28.1911530" lon="-16.6632800">
        <ele>2025.9</ele>
        <time>2020-11-11T20:05:26Z</time>
      </trkpt>
      <trkpt lat="28.1910750" lon="-16.6630320">
        <ele>2023.9</ele>
        <time>2020-11-11T20:05:27Z</time>
      </trkpt>
      <trkpt lat="28.1910750" lon="-16.6630320">
        <ele>2023.9</ele>
        <time>2020-11-11T20:05:28Z</time>
      </trkpt>
      <trkpt lat="28.1910570" lon="-16.6629750">
        <ele>2022.9</ele>
        <time>2020-11-11T20:05:29Z</time>
      </trkpt>
      <trkpt lat="28.1910380" lon="-16.6629180">
        <ele>2022.9</ele>
        <time>2020-11-11T20:05:30Z</time>
      </trkpt>
      <trkpt lat="28.1909460" lon="-16.6627050">
        <ele>2020.9</ele>
        <time>2020-11-11T20:05:31Z</time>
      </trkpt>
      <trkpt lat="28.1908920" lon="-16.6626060">
        <ele>2020.9</ele>
        <time>2020-11-11T20:05:32Z</time>
      </trkpt>
      <trkpt lat="28.1907830" lon="-16.6624070">
        <ele>2019.9</ele>
        <time>2020-11-11T20:05:33Z</time>
      </trkpt>
      <trkpt lat="28.1907830" lon="-16.6624070">
        <ele>2019.9</ele>
        <time>2020-11-11T20:05:34Z</time>
      </trkpt>
      <trkpt lat="28.1906130" lon="-16.6622550">
        <ele>2018.9</ele>
        <time>2020-11-11T20:05:35Z</time>
      </trkpt>
      <trkpt lat="28.1906130" lon="-16.6622550">
        <ele>2018.9</ele>
        <time>2020-11-11T20:05:36Z</time>
      </trkpt>
      <trkpt lat="28.1904250" lon="-16.6621120">
        <ele>2017.9</ele>
        <time>2020-11-11T20:05:37Z</time>
      </trkpt>
      <trkpt lat="28.1904250" lon="-16.6621120">
        <ele>2017.9</ele>
        <time>2020-11-11T20:05:38Z</time>
      </trkpt>
      <trkpt lat="28.1902420" lon="-16.6619680">
        <ele>2016.9</ele>
        <time>2020-11-11T20:05:39Z</time>
      </trkpt>
      <trkpt lat="28.1902420" lon="-16.6619680">
        <ele>2016.9</ele>
        <time>2020-11-11T20:05:40Z</time>
      </trkpt>
      <trkpt lat="28.1900550" lon="-16.6618100">
        <ele>2015.9</ele>
        <time>2020-11-11T20:05:41Z</time>
      </trkpt>
      <trkpt lat="28.1900550" lon="-16.6618100">
        <ele>2015.9</ele>
        <time>2020-11-11T20:05:42Z</time>
      </trkpt>
      <trkpt lat="28.1898650" lon="-16.6616620">
        <ele>2014.9</ele>
        <time>2020-11-11T20:05:43Z</time>
      </trkpt>
      <trkpt lat="28.1898650" lon="-16.6616620">
        <ele>2014.9</ele>
        <time>2020-11-11T20:05:44Z</time>
      </trkpt>
      <trkpt lat="28.1896770" lon="-16.6615300">
        <ele>2013.9</ele>
        <time>2020-11-11T20:05:45Z</time>
      </trkpt>
      <trkpt lat="28.1896010" lon="-16.6615060">
        <ele>2013.9</ele>
        <time>2020-11-11T20:05:46Z</time>
      </trkpt>
      <trkpt lat="28.1895250" lon="-16.6614830">
        <ele>2012.9</ele>
        <time>2020-11-11T20:05:47Z</time>
      </trkpt>
      <trkpt lat="28.1893730" lon="-16.6614370">
        <ele>2012.9</ele>
        <time>2020-11-11T20:05:48Z</time>
      </trkpt>
      <trkpt lat="28.1893730" lon="-16.6614370">
        <ele>2011.9</ele>
        <time>2020-11-11T20:05:49Z</time>
      </trkpt>
      <trkpt lat="28.1892730" lon="-16.6614550">
        <ele>2011.9</ele>
        <time>2020-11-11T20:05:50Z</time>
      </trkpt>
      <trkpt lat="28.1892730" lon="-16.6614550">
        <ele>2010.9</ele>
        <time>2020-11-11T20:05:51Z</time>
      </trkpt>
      <trkpt lat="28.1890650" lon="-16.6615370">
        <ele>2010.9</ele>
        <time>2020-11-11T20:05:52Z</time>
      </trkpt>
      <trkpt lat="28.1890650" lon="-16.6615370">
        <ele>2009.9</ele>
        <time>2020-11-11T20:05:53Z</time>
      </trkpt>
      <trkpt lat="28.1888480" lon="-16.6616270">
        <ele>2009.9</ele>
        <time>2020-11-11T20:05:54Z</time>
      </trkpt>
      <trkpt lat="28.1887380" lon="-16.6616630">
        <ele>2008.9</ele>
        <time>2020-11-11T20:05:55Z</time>
      </trkpt>
      <trkpt lat="28.1886280" lon="-16.6616990">
        <ele>2008.9</ele>
        <time>2020-11-11T20:05:56Z</time>
      </trkpt>
      <trkpt lat="28.1884080" lon="-16.6617700">
        <ele>2006.9</ele>
        <time>2020-11-11T20:05:57Z</time>
      </trkpt>
      <trkpt lat="28.1884080" lon="-16.6617700">
        <ele>2006.9</ele>
        <time>2020-11-11T20:05:58Z</time>
      </trkpt>
      <trkpt lat="28.1884080" lon="-16.6617700">
        <ele>2004.9</ele>
        <time>2020-11-11T20:05:59Z</time>
      </trkpt>
      <trkpt lat="28.1882120" lon="-16.6617430">
        <ele>2004.9</ele>
        <time>2020-11-11T20:06:00Z</time>
      </trkpt>
      <trkpt lat="28.1882120" lon="-16.6617430">
        <ele>2002.9</ele>
        <time>2020-11-11T20:06:01Z</time>
      </trkpt>
      <trkpt lat="28.1880480" lon="-16.6616220">
        <ele>2002.9</ele>
        <time>2020-11-11T20:06:02Z</time>
      </trkpt>
      <trkpt lat="28.1878920" lon="-16.6614530">
        <ele>2000.9</ele>
        <time>2020-11-11T20:06:03Z</time>
      </trkpt>
      <trkpt lat="28.1878920" lon="-16.6614530">
        <ele>2000.9</ele>
        <time>2020-11-11T20:06:04Z</time>
      </trkpt>
      <trkpt lat="28.1877630" lon="-16.6612990">
        <ele>1998.9</ele>
        <time>2020-11-11T20:06:05Z</time>
      </trkpt>
      <trkpt lat="28.1877130" lon="-16.6612310">
        <ele>1998.9</ele>
        <time>2020-11-11T20:06:06Z</time>
      </trkpt>
      <trkpt lat="28.1876130" lon="-16.6610950">
        <ele>1996.9</ele>
        <time>2020-11-11T20:06:07Z</time>
      </trkpt>
      <trkpt lat="28.1876130" lon="-16.6610950">
        <ele>1994.9</ele>
        <time>2020-11-11T20:06:08Z</time>
      </trkpt>
      <trkpt lat="28.1875770" lon="-16.6608830">
        <ele>1994.9</ele>
        <time>2020-11-11T20:06:09Z</time>
      </trkpt>
      <trkpt lat="28.1875770" lon="-16.6608830">
        <ele>1993.9</ele>
        <time>2020-11-11T20:06:10Z</time>
      </trkpt>
      <trkpt lat="28.1875770" lon="-16.6608830">
        <ele>1993.9</ele>
        <time>2020-11-11T20:06:11Z</time>
      </trkpt>
      <trkpt lat="28.1876280" lon="-16.6606730">
        <ele>1991.9</ele>
        <time>2020-11-11T20:06:12Z</time>
      </trkpt>
      <trkpt lat="28.1876780" lon="-16.6605720">
        <ele>1991.9</ele>
        <time>2020-11-11T20:06:13Z</time>
      </trkpt>
      <trkpt lat="28.1877970" lon="-16.6603800">
        <ele>1990.9</ele>
        <time>2020-11-11T20:06:14Z</time>
      </trkpt>
      <trkpt lat="28.1877970" lon="-16.6603800">
        <ele>1990.9</ele>
        <time>2020-11-11T20:06:15Z</time>
      </trkpt>
      <trkpt lat="28.1879150" lon="-16.6601700">
        <ele>1989.9</ele>
        <time>2020-11-11T20:06:16Z</time>
      </trkpt>
      <trkpt lat="28.1879150" lon="-16.6601700">
        <ele>1989.9</ele>
        <time>2020-11-11T20:06:17Z</time>
      </trkpt>
      <trkpt lat="28.1880200" lon="-16.6599470">
        <ele>1987.9</ele>
        <time>2020-11-11T20:06:18Z</time>
      </trkpt>
      <trkpt lat="28.1880200" lon="-16.6599470">
        <ele>1987.9</ele>
        <time>2020-11-11T20:06:19Z</time>
      </trkpt>
      <trkpt lat="28.1880200" lon="-16.6599470">
        <ele>1986.9</ele>
        <time>2020-11-11T20:06:20Z</time>
      </trkpt>
      <trkpt lat="28.1881610" lon="-16.6596730">
        <ele>1986.9</ele>
        <time>2020-11-11T20:06:21Z</time>
      </trkpt>
      <trkpt lat="28.1881910" lon="-16.6596210">
        <ele>1985.9</ele>
        <time>2020-11-11T20:06:22Z</time>
      </trkpt>
      <trkpt lat="28.1882520" lon="-16.6595170">
        <ele>1985.9</ele>
        <time>2020-11-11T20:06:23Z</time>
      </trkpt>
      <trkpt lat="28.1883930" lon="-16.6593170">
        <ele>1983.9</ele>
        <time>2020-11-11T20:06:24Z</time>
      </trkpt>
      <trkpt lat="28.1883930" lon="-16.6593170">
        <ele>1983.9</ele>
        <time>2020-11-11T20:06:25Z</time>
      </trkpt>
      <trkpt lat="28.1885680" lon="-16.6591550">
        <ele>1981.9</ele>
        <time>2020-11-11T20:06:26Z</time>
      </trkpt>
      <trkpt lat="28.1885680" lon="-16.6591550">
        <ele>1981.9</ele>
        <time>2020-11-11T20:06:27Z</time>
      </trkpt>
      <trkpt lat="28.1887700" lon="-16.6590330">
        <ele>1980.9</ele>
        <time>2020-11-11T20:06:28Z</time>
      </trkpt>
      <trkpt lat="28.1887700" lon="-16.6590330">
        <ele>1980.9</ele>
        <time>2020-11-11T20:06:29Z</time>
      </trkpt>
      <trkpt lat="28.1889600" lon="-16.6589270">
        <ele>1978.9</ele>
        <time>2020-11-11T20:06:30Z</time>
      </trkpt>
      <trkpt lat="28.1889970" lon="-16.6588900">
        <ele>1978.9</ele>
        <time>2020-11-11T20:06:31Z</time>
      </trkpt>
      <trkpt lat="28.1890340" lon="-16.6588520">
        <ele>1976.9</ele>
        <time>2020-11-11T20:06:32Z</time>
      </trkpt>
      <trkpt lat="28.1891240" lon="-16.6587290">
        <ele>1976.9</ele>
        <time>2020-11-11T20:06:33Z</time>
      </trkpt>
      <trkpt lat="28.1891400" lon="-16.6586800">
        <ele>1974.9</ele>
        <time>2020-11-11T20:06:34Z</time>
      </trkpt>
      <trkpt lat="28.1891730" lon="-16.6585820">
        <ele>1974.9</ele>
        <time>2020-11-11T20:06:35Z</time>
      </trkpt>
      <trkpt lat="28.1891730" lon="-16.6585820">
        <ele>1972.9</ele>
        <time>2020-11-11T20:06:36Z</time>
      </trkpt>
      <trkpt lat="28.1891550" lon="-16.6583550">
        <ele>1972.9</ele>
        <time>2020-11-11T20:06:37Z</time>
      </trkpt>
      <trkpt lat="28.1891550" lon="-16.6583550">
        <ele>1971.9</ele>
        <time>2020-11-11T20:06:38Z</time>
      </trkpt>
      <trkpt lat="28.1890970" lon="-16.6580570">
        <ele>1971.9</ele>
        <time>2020-11-11T20:06:39Z</time>
      </trkpt>
      <trkpt lat="28.1890850" lon="-16.6579960">
        <ele>1969.9</ele>
        <time>2020-11-11T20:06:40Z</time>
      </trkpt>
      <trkpt lat="28.1890620" lon="-16.6578750">
        <ele>1969.9</ele>
        <time>2020-11-11T20:06:41Z</time>
      </trkpt>
      <trkpt lat="28.1890200" lon="-16.6576180">
        <ele>1968.9</ele>
        <time>2020-11-11T20:06:42Z</time>
      </trkpt>
      <trkpt lat="28.1889950" lon="-16.6574920">
        <ele>1968.9</ele>
        <time>2020-11-11T20:06:43Z</time>
      </trkpt>
      <trkpt lat="28.1889670" lon="-16.6573700">
        <ele>1966.9</ele>
        <time>2020-11-11T20:06:44Z</time>
      </trkpt>
      <trkpt lat="28.1889670" lon="-16.6573700">
        <ele>1966.9</ele>
        <time>2020-11-11T20:06:45Z</time>
      </trkpt>
      <trkpt lat="28.1888780" lon="-16.6571520">
        <ele>1965.9</ele>
        <time>2020-11-11T20:06:46Z</time>
      </trkpt>
      <trkpt lat="28.1888780" lon="-16.6571520">
        <ele>1964.9</ele>
        <time>2020-11-11T20:06:47Z</time>
      </trkpt>
      <trkpt lat="28.1887300" lon="-16.6569880">
        <ele>1964.9</ele>
        <time>2020-11-11T20:06:48Z</time>
      </trkpt>
      <trkpt lat="28.1887300" lon="-16.6569880">
        <ele>1962.9</ele>
        <time>2020-11-11T20:06:49Z</time>
      </trkpt>
      <trkpt lat="28.1885300" lon="-16.6569130">
        <ele>1962.9</ele>
        <time>2020-11-11T20:06:50Z</time>
      </trkpt>
      <trkpt lat="28.1885300" lon="-16.6569130">
        <ele>1960.9</ele>
        <time>2020-11-11T20:06:51Z</time>
      </trkpt>
      <trkpt lat="28.1883070" lon="-16.6568730">
        <ele>1960.9</ele>
        <time>2020-11-11T20:06:52Z</time>
      </trkpt>
      <trkpt lat="28.1883070" lon="-16.6568730">
        <ele>1958.9</ele>
        <time>2020-11-11T20:06:53Z</time>
      </trkpt>
      <trkpt lat="28.1881330" lon="-16.6568450">
        <ele>1958.9</ele>
        <time>2020-11-11T20:06:54Z</time>
      </trkpt>
      <trkpt lat="28.1880730" lon="-16.6568360">
        <ele>1956.9</ele>
        <time>2020-11-11T20:06:55Z</time>
      </trkpt>
      <trkpt lat="28.1879530" lon="-16.6568170">
        <ele>1956.9</ele>
        <time>2020-11-11T20:06:56Z</time>
      </trkpt>
      <trkpt lat="28.1879530" lon="-16.6568170">
        <ele>1954.9</ele>
        <time>2020-11-11T20:06:57Z</time>
      </trkpt>
      <trkpt lat="28.1875780" lon="-16.6567530">
        <ele>1954.9</ele>
        <time>2020-11-11T20:06:58Z</time>
      </trkpt>
      <trkpt lat="28.1875780" lon="-16.6567530">
        <ele>1951.9</ele>
        <time>2020-11-11T20:06:59Z</time>
      </trkpt>
      <trkpt lat="28.1873230" lon="-16.6567080">
        <ele>1951.9</ele>
        <time>2020-11-11T20:07:00Z</time>
      </trkpt>
      <trkpt lat="28.1871980" lon="-16.6566930">
        <ele>1949.9</ele>
        <time>2020-11-11T20:07:01Z</time>
      </trkpt>
      <trkpt lat="28.1871980" lon="-16.6566930">
        <ele>1949.9</ele>
        <time>2020-11-11T20:07:02Z</time>
      </trkpt>
      <trkpt lat="28.1869700" lon="-16.6566850">
        <ele>1947.9</ele>
        <time>2020-11-11T20:07:03Z</time>
      </trkpt>
      <trkpt lat="28.1869700" lon="-16.6566850">
        <ele>1947.9</ele>
        <time>2020-11-11T20:07:04Z</time>
      </trkpt>
      <trkpt lat="28.1869700" lon="-16.6566850">
        <ele>1945.9</ele>
        <time>2020-11-11T20:07:05Z</time>
      </trkpt>
      <trkpt lat="28.1867630" lon="-16.6567600">
        <ele>1945.9</ele>
        <time>2020-11-11T20:07:06Z</time>
      </trkpt>
      <trkpt lat="28.1867630" lon="-16.6567600">
        <ele>1942.9</ele>
        <time>2020-11-11T20:07:07Z</time>
      </trkpt>
      <trkpt lat="28.1865580" lon="-16.6568730">
        <ele>1942.9</ele>
        <time>2020-11-11T20:07:08Z</time>
      </trkpt>
      <trkpt lat="28.1863470" lon="-16.6569820">
        <ele>1940.9</ele>
        <time>2020-11-11T20:07:09Z</time>
      </trkpt>
      <trkpt lat="28.1863470" lon="-16.6569820">
        <ele>1940.9</ele>
        <time>2020-11-11T20:07:10Z</time>
      </trkpt>
      <trkpt lat="28.1861180" lon="-16.6570780">
        <ele>1938.9</ele>
        <time>2020-11-11T20:07:11Z</time>
      </trkpt>
      <trkpt lat="28.1860030" lon="-16.6571250">
        <ele>1938.9</ele>
        <time>2020-11-11T20:07:12Z</time>
      </trkpt>
      <trkpt lat="28.1860030" lon="-16.6571250">
        <ele>1937.9</ele>
        <time>2020-11-11T20:07:13Z</time>
      </trkpt>
      <trkpt lat="28.1857720" lon="-16.6572120">
        <ele>1937.9</ele>
        <time>2020-11-11T20:07:14Z</time>
      </trkpt>
      <trkpt lat="28.1857140" lon="-16.6572320">
        <ele>1936.9</ele>
        <time>2020-11-11T20:07:15Z</time>
      </trkpt>
      <trkpt lat="28.1856560" lon="-16.6572520">
        <ele>1936.9</ele>
        <time>2020-11-11T20:07:16Z</time>
      </trkpt>
      <trkpt lat="28.1855400" lon="-16.6572920">
        <ele>1934.9</ele>
        <time>2020-11-11T20:07:17Z</time>
      </trkpt>
      <trkpt lat="28.1853020" lon="-16.6573630">
        <ele>1934.9</ele>
        <time>2020-11-11T20:07:18Z</time>
      </trkpt>
      <trkpt lat="28.1852220" lon="-16.6573890">
        <ele>1932.9</ele>
        <time>2020-11-11T20:07:19Z</time>
      </trkpt>
      <trkpt lat="28.1851410" lon="-16.6574150">
        <ele>1932.9</ele>
        <time>2020-11-11T20:07:20Z</time>
      </trkpt>
      <trkpt lat="28.1849810" lon="-16.6574660">
        <ele>1931.9</ele>
        <time>2020-11-11T20:07:21Z</time>
      </trkpt>
      <trkpt lat="28.1848200" lon="-16.6575180">
        <ele>1931.9</ele>
        <time>2020-11-11T20:07:22Z</time>
      </trkpt>
      <trkpt lat="28.1848200" lon="-16.6575180">
        <ele>1929.9</ele>
        <time>2020-11-11T20:07:23Z</time>
      </trkpt>
      <trkpt lat="28.1847050" lon="-16.6575570">
        <ele>1929.9</ele>
        <time>2020-11-11T20:07:24Z</time>
      </trkpt>
      <trkpt lat="28.1846510" lon="-16.6575830">
        <ele>1927.9</ele>
        <time>2020-11-11T20:07:25Z</time>
      </trkpt>
      <trkpt lat="28.1845960" lon="-16.6576090">
        <ele>1926.9</ele>
        <time>2020-11-11T20:07:26Z</time>
      </trkpt>
      <trkpt lat="28.1844870" lon="-16.6576600">
        <ele>1926.9</ele>
        <time>2020-11-11T20:07:27Z</time>
      </trkpt>
      <trkpt lat="28.1842930" lon="-16.6578250">
        <ele>1924.9</ele>
        <time>2020-11-11T20:07:28Z</time>
      </trkpt>
      <trkpt lat="28.1841100" lon="-16.6580070">
        <ele>1924.9</ele>
        <time>2020-11-11T20:07:29Z</time>
      </trkpt>
      <trkpt lat="28.1840870" lon="-16.6580280">
        <ele>1923.9</ele>
        <time>2020-11-11T20:07:30Z</time>
      </trkpt>
      <trkpt lat="28.1840640" lon="-16.6580490">
        <ele>1923.9</ele>
        <time>2020-11-11T20:07:31Z</time>
      </trkpt>
      <trkpt lat="28.1840170" lon="-16.6580900">
        <ele>1921.9</ele>
        <time>2020-11-11T20:07:32Z</time>
      </trkpt>
      <trkpt lat="28.1839140" lon="-16.6581630">
        <ele>1921.9</ele>
        <time>2020-11-11T20:07:33Z</time>
      </trkpt>
      <trkpt lat="28.1838100" lon="-16.6582350">
        <ele>1919.9</ele>
        <time>2020-11-11T20:07:34Z</time>
      </trkpt>
      <trkpt lat="28.1834820" lon="-16.6584630">
        <ele>1919.9</ele>
        <time>2020-11-11T20:07:35Z</time>
      </trkpt>
      <trkpt lat="28.1834820" lon="-16.6584630">
        <ele>1917.9</ele>
        <time>2020-11-11T20:07:36Z</time>
      </trkpt>
      <trkpt lat="28.1833750" lon="-16.6585390">
        <ele>1917.9</ele>
        <time>2020-11-11T20:07:37Z</time>
      </trkpt>
      <trkpt lat="28.1832680" lon="-16.6586150">
        <ele>1915.9</ele>
        <time>2020-11-11T20:07:38Z</time>
      </trkpt>
      <trkpt lat="28.1830530" lon="-16.6587670">
        <ele>1915.9</ele>
        <time>2020-11-11T20:07:39Z</time>
      </trkpt>
      <trkpt lat="28.1830530" lon="-16.6587670">
        <ele>1913.9</ele>
        <time>2020-11-11T20:07:40Z</time>
      </trkpt>
      <trkpt lat="28.1830530" lon="-16.6587670">
        <ele>1913.9</ele>
        <time>2020-11-11T20:07:41Z</time>
      </trkpt>
      <trkpt lat="28.1828270" lon="-16.6589020">
        <ele>1911.9</ele>
        <time>2020-11-11T20:07:42Z</time>
      </trkpt>
      <trkpt lat="28.1826120" lon="-16.6590200">
        <ele>1911.9</ele>
        <time>2020-11-11T20:07:43Z</time>
      </trkpt>
      <trkpt lat="28.1826120" lon="-16.6590200">
        <ele>1908.9</ele>
        <time>2020-11-11T20:07:44Z</time>
      </trkpt>
      <trkpt lat="28.1824230" lon="-16.6591070">
        <ele>1908.9</ele>
        <time>2020-11-11T20:07:45Z</time>
      </trkpt>
      <trkpt lat="28.1824230" lon="-16.6591070">
        <ele>1906.9</ele>
        <time>2020-11-11T20:07:46Z</time>
      </trkpt>
      <trkpt lat="28.1822420" lon="-16.6591380">
        <ele>1906.9</ele>
        <time>2020-11-11T20:07:47Z</time>
      </trkpt>
      <trkpt lat="28.1822420" lon="-16.6591380">
        <ele>1904.9</ele>
        <time>2020-11-11T20:07:48Z</time>
      </trkpt>
      <trkpt lat="28.1821450" lon="-16.6591380">
        <ele>1904.9</ele>
        <time>2020-11-11T20:07:49Z</time>
      </trkpt>
      <trkpt lat="28.1821450" lon="-16.6591380">
        <ele>1903.9</ele>
        <time>2020-11-11T20:07:50Z</time>
      </trkpt>
      <trkpt lat="28.1819430" lon="-16.6591170">
        <ele>1903.9</ele>
        <time>2020-11-11T20:07:51Z</time>
      </trkpt>
      <trkpt lat="28.1819430" lon="-16.6591170">
        <ele>1901.9</ele>
        <time>2020-11-11T20:07:52Z</time>
      </trkpt>
      <trkpt lat="28.1816400" lon="-16.6590670">
        <ele>1901.9</ele>
        <time>2020-11-11T20:07:53Z</time>
      </trkpt>
      <trkpt lat="28.1815520" lon="-16.6590520">
        <ele>1900.9</ele>
        <time>2020-11-11T20:07:54Z</time>
      </trkpt>
      <trkpt lat="28.1813770" lon="-16.6590220">
        <ele>1900.9</ele>
        <time>2020-11-11T20:07:55Z</time>
      </trkpt>
      <trkpt lat="28.1813150" lon="-16.6590120">
        <ele>1899.9</ele>
        <time>2020-11-11T20:07:56Z</time>
      </trkpt>
      <trkpt lat="28.1812530" lon="-16.6590020">
        <ele>1899.9</ele>
        <time>2020-11-11T20:07:57Z</time>
      </trkpt>
      <trkpt lat="28.1811280" lon="-16.6589830">
        <ele>1897.9</ele>
        <time>2020-11-11T20:07:58Z</time>
      </trkpt>
      <trkpt lat="28.1811280" lon="-16.6589830">
        <ele>1897.9</ele>
        <time>2020-11-11T20:07:59Z</time>
      </trkpt>
      <trkpt lat="28.1808750" lon="-16.6589400">
        <ele>1896.9</ele>
        <time>2020-11-11T20:08:00Z</time>
      </trkpt>
      <trkpt lat="28.1806900" lon="-16.6589070">
        <ele>1896.9</ele>
        <time>2020-11-11T20:08:01Z</time>
      </trkpt>
      <trkpt lat="28.1806290" lon="-16.6588930">
        <ele>1894.9</ele>
        <time>2020-11-11T20:08:02Z</time>
      </trkpt>
      <trkpt lat="28.1805080" lon="-16.6588650">
        <ele>1894.9</ele>
        <time>2020-11-11T20:08:03Z</time>
      </trkpt>
      <trkpt lat="28.1805080" lon="-16.6588650">
        <ele>1892.9</ele>
        <time>2020-11-11T20:08:04Z</time>
      </trkpt>
      <trkpt lat="28.1802830" lon="-16.6587600">
        <ele>1891.9</ele>
        <time>2020-11-11T20:08:05Z</time>
      </trkpt>
      <trkpt lat="28.1802830" lon="-16.6587600">
        <ele>1891.9</ele>
        <time>2020-11-11T20:08:06Z</time>
      </trkpt>
      <trkpt lat="28.1800900" lon="-16.6585870">
        <ele>1889.9</ele>
        <time>2020-11-11T20:08:07Z</time>
      </trkpt>
      <trkpt lat="28.1799300" lon="-16.6583600">
        <ele>1889.9</ele>
        <time>2020-11-11T20:08:08Z</time>
      </trkpt>
      <trkpt lat="28.1799300" lon="-16.6583600">
        <ele>1888.9</ele>
        <time>2020-11-11T20:08:09Z</time>
      </trkpt>
      <trkpt lat="28.1797420" lon="-16.6580690">
        <ele>1888.9</ele>
        <time>2020-11-11T20:08:10Z</time>
      </trkpt>
      <trkpt lat="28.1797040" lon="-16.6580120">
        <ele>1886.9</ele>
        <time>2020-11-11T20:08:11Z</time>
      </trkpt>
      <trkpt lat="28.1796270" lon="-16.6578970">
        <ele>1886.9</ele>
        <time>2020-11-11T20:08:12Z</time>
      </trkpt>
      <trkpt lat="28.1796270" lon="-16.6578970">
        <ele>1884.9</ele>
        <time>2020-11-11T20:08:13Z</time>
      </trkpt>
      <trkpt lat="28.1795500" lon="-16.6577820">
        <ele>1884.9</ele>
        <time>2020-11-11T20:08:14Z</time>
      </trkpt>
      <trkpt lat="28.1795500" lon="-16.6577820">
        <ele>1882.9</ele>
        <time>2020-11-11T20:08:15Z</time>
      </trkpt>
      <trkpt lat="28.1793780" lon="-16.6575570">
        <ele>1882.9</ele>
        <time>2020-11-11T20:08:16Z</time>
      </trkpt>
      <trkpt lat="28.1791770" lon="-16.6573930">
        <ele>1881.9</ele>
        <time>2020-11-11T20:08:17Z</time>
      </trkpt>
      <trkpt lat="28.1791770" lon="-16.6573930">
        <ele>1881.9</ele>
        <time>2020-11-11T20:08:18Z</time>
      </trkpt>
      <trkpt lat="28.1791770" lon="-16.6573930">
        <ele>1879.9</ele>
        <time>2020-11-11T20:08:19Z</time>
      </trkpt>
      <trkpt lat="28.1789550" lon="-16.6573380">
        <ele>1879.9</ele>
        <time>2020-11-11T20:08:20Z</time>
      </trkpt>
      <trkpt lat="28.1789550" lon="-16.6573380">
        <ele>1876.9</ele>
        <time>2020-11-11T20:08:21Z</time>
      </trkpt>
      <trkpt lat="28.1787230" lon="-16.6573420">
        <ele>1876.9</ele>
        <time>2020-11-11T20:08:22Z</time>
      </trkpt>
      <trkpt lat="28.1787230" lon="-16.6573420">
        <ele>1875.9</ele>
        <time>2020-11-11T20:08:23Z</time>
      </trkpt>
      <trkpt lat="28.1784930" lon="-16.6573200">
        <ele>1875.9</ele>
        <time>2020-11-11T20:08:24Z</time>
      </trkpt>
      <trkpt lat="28.1783150" lon="-16.6572050">
        <ele>1873.9</ele>
        <time>2020-11-11T20:08:25Z</time>
      </trkpt>
      <trkpt lat="28.1782820" lon="-16.6571570">
        <ele>1873.9</ele>
        <time>2020-11-11T20:08:26Z</time>
      </trkpt>
      <trkpt lat="28.1782490" lon="-16.6571100">
        <ele>1872.9</ele>
        <time>2020-11-11T20:08:27Z</time>
      </trkpt>
      <trkpt lat="28.1781820" lon="-16.6570150">
        <ele>1872.9</ele>
        <time>2020-11-11T20:08:28Z</time>
      </trkpt>
      <trkpt lat="28.1780630" lon="-16.6567950">
        <ele>1870.9</ele>
        <time>2020-11-11T20:08:29Z</time>
      </trkpt>
      <trkpt lat="28.1780630" lon="-16.6567950">
        <ele>1870.9</ele>
        <time>2020-11-11T20:08:30Z</time>
      </trkpt>
      <trkpt lat="28.1780630" lon="-16.6567950">
        <ele>1869.9</ele>
        <time>2020-11-11T20:08:31Z</time>
      </trkpt>
      <trkpt lat="28.1779050" lon="-16.6565150">
        <ele>1869.9</ele>
        <time>2020-11-11T20:08:32Z</time>
      </trkpt>
      <trkpt lat="28.1778720" lon="-16.6564580">
        <ele>1867.9</ele>
        <time>2020-11-11T20:08:33Z</time>
      </trkpt>
      <trkpt lat="28.1778070" lon="-16.6563450">
        <ele>1867.9</ele>
        <time>2020-11-11T20:08:34Z</time>
      </trkpt>
      <trkpt lat="28.1778070" lon="-16.6563450">
        <ele>1865.9</ele>
        <time>2020-11-11T20:08:35Z</time>
      </trkpt>
      <trkpt lat="28.1776770" lon="-16.6561270">
        <ele>1865.9</ele>
        <time>2020-11-11T20:08:36Z</time>
      </trkpt>
      <trkpt lat="28.1775270" lon="-16.6559350">
        <ele>1863.9</ele>
        <time>2020-11-11T20:08:37Z</time>
      </trkpt>
      <trkpt lat="28.1775270" lon="-16.6559350">
        <ele>1863.9</ele>
        <time>2020-11-11T20:08:38Z</time>
      </trkpt>
      <trkpt lat="28.1775270" lon="-16.6559350">
        <ele>1860.9</ele>
        <time>2020-11-11T20:08:39Z</time>
      </trkpt>
      <trkpt lat="28.1773470" lon="-16.6557700">
        <ele>1860.9</ele>
        <time>2020-11-11T20:08:40Z</time>
      </trkpt>
      <trkpt lat="28.1771580" lon="-16.6556070">
        <ele>1858.9</ele>
        <time>2020-11-11T20:08:41Z</time>
      </trkpt>
      <trkpt lat="28.1771580" lon="-16.6556070">
        <ele>1858.9</ele>
        <time>2020-11-11T20:08:42Z</time>
      </trkpt>
      <trkpt lat="28.1769880" lon="-16.6554380">
        <ele>1857.9</ele>
        <time>2020-11-11T20:08:43Z</time>
      </trkpt>
      <trkpt lat="28.1769880" lon="-16.6554380">
        <ele>1855.9</ele>
        <time>2020-11-11T20:08:44Z</time>
      </trkpt>
      <trkpt lat="28.1768870" lon="-16.6552580">
        <ele>1855.9</ele>
        <time>2020-11-11T20:08:45Z</time>
      </trkpt>
      <trkpt lat="28.1768870" lon="-16.6552580">
        <ele>1853.9</ele>
        <time>2020-11-11T20:08:46Z</time>
      </trkpt>
      <trkpt lat="28.1769000" lon="-16.6550750">
        <ele>1853.9</ele>
        <time>2020-11-11T20:08:47Z</time>
      </trkpt>
      <trkpt lat="28.1769000" lon="-16.6550750">
        <ele>1852.9</ele>
        <time>2020-11-11T20:08:48Z</time>
      </trkpt>
      <trkpt lat="28.1769000" lon="-16.6550750">
        <ele>1852.9</ele>
        <time>2020-11-11T20:08:49Z</time>
      </trkpt>
      <trkpt lat="28.1770100" lon="-16.6549220">
        <ele>1850.9</ele>
        <time>2020-11-11T20:08:50Z</time>
      </trkpt>
      <trkpt lat="28.1771830" lon="-16.6548030">
        <ele>1850.9</ele>
        <time>2020-11-11T20:08:51Z</time>
      </trkpt>
      <trkpt lat="28.1771830" lon="-16.6548030">
        <ele>1849.9</ele>
        <time>2020-11-11T20:08:52Z</time>
      </trkpt>
      <trkpt lat="28.1771830" lon="-16.6548030">
        <ele>1849.9</ele>
        <time>2020-11-11T20:08:53Z</time>
      </trkpt>
      <trkpt lat="28.1773500" lon="-16.6546830">
        <ele>1847.9</ele>
        <time>2020-11-11T20:08:54Z</time>
      </trkpt>
      <trkpt lat="28.1773500" lon="-16.6546830">
        <ele>1847.9</ele>
        <time>2020-11-11T20:08:55Z</time>
      </trkpt>
      <trkpt lat="28.1774870" lon="-16.6545270">
        <ele>1845.9</ele>
        <time>2020-11-11T20:08:56Z</time>
      </trkpt>
      <trkpt lat="28.1775280" lon="-16.6543100">
        <ele>1845.9</ele>
        <time>2020-11-11T20:08:57Z</time>
      </trkpt>
      <trkpt lat="28.1775280" lon="-16.6543100">
        <ele>1845.9</ele>
        <time>2020-11-11T20:08:58Z</time>
      </trkpt>
      <trkpt lat="28.1775280" lon="-16.6543100">
        <ele>1843.9</ele>
        <time>2020-11-11T20:08:59Z</time>
      </trkpt>
      <trkpt lat="28.1774480" lon="-16.6541030">
        <ele>1843.9</ele>
        <time>2020-11-11T20:09:00Z</time>
      </trkpt>
      <trkpt lat="28.1773080" lon="-16.6539200">
        <ele>1842.9</ele>
        <time>2020-11-11T20:09:01Z</time>
      </trkpt>
      <trkpt lat="28.1772330" lon="-16.6538270">
        <ele>1842.9</ele>
        <time>2020-11-11T20:09:02Z</time>
      </trkpt>
      <trkpt lat="28.1772330" lon="-16.6538270">
        <ele>1841.9</ele>
        <time>2020-11-11T20:09:03Z</time>
      </trkpt>
      <trkpt lat="28.1770750" lon="-16.6536350">
        <ele>1841.9</ele>
        <time>2020-11-11T20:09:04Z</time>
      </trkpt>
      <trkpt lat="28.1770750" lon="-16.6536350">
        <ele>1839.9</ele>
        <time>2020-11-11T20:09:05Z</time>
      </trkpt>
      <trkpt lat="28.1769250" lon="-16.6534250">
        <ele>1839.9</ele>
        <time>2020-11-11T20:09:06Z</time>
      </trkpt>
      <trkpt lat="28.1769250" lon="-16.6534250">
        <ele>1837.9</ele>
        <time>2020-11-11T20:09:07Z</time>
      </trkpt>
      <trkpt lat="28.1767870" lon="-16.6531970">
        <ele>1837.9</ele>
        <time>2020-11-11T20:09:08Z</time>
      </trkpt>
      <trkpt lat="28.1767870" lon="-16.6531970">
        <ele>1836.9</ele>
        <time>2020-11-11T20:09:09Z</time>
      </trkpt>
      <trkpt lat="28.1767200" lon="-16.6530770">
        <ele>1836.9</ele>
        <time>2020-11-11T20:09:10Z</time>
      </trkpt>
      <trkpt lat="28.1767200" lon="-16.6530770">
        <ele>1834.9</ele>
        <time>2020-11-11T20:09:11Z</time>
      </trkpt>
      <trkpt lat="28.1765820" lon="-16.6528380">
        <ele>1834.9</ele>
        <time>2020-11-11T20:09:12Z</time>
      </trkpt>
      <trkpt lat="28.1764320" lon="-16.6526050">
        <ele>1832.9</ele>
        <time>2020-11-11T20:09:13Z</time>
      </trkpt>
      <trkpt lat="28.1764320" lon="-16.6526050">
        <ele>1832.9</ele>
        <time>2020-11-11T20:09:14Z</time>
      </trkpt>
      <trkpt lat="28.1764320" lon="-16.6526050">
        <ele>1830.9</ele>
        <time>2020-11-11T20:09:15Z</time>
      </trkpt>
      <trkpt lat="28.1762720" lon="-16.6523770">
        <ele>1830.9</ele>
        <time>2020-11-11T20:09:16Z</time>
      </trkpt>
      <trkpt lat="28.1762720" lon="-16.6523770">
        <ele>1829.9</ele>
        <time>2020-11-11T20:09:17Z</time>
      </trkpt>
      <trkpt lat="28.1761070" lon="-16.6521530">
        <ele>1829.9</ele>
        <time>2020-11-11T20:09:18Z</time>
      </trkpt>
      <trkpt lat="28.1759530" lon="-16.6519370">
        <ele>1827.9</ele>
        <time>2020-11-11T20:09:19Z</time>
      </trkpt>
      <trkpt lat="28.1759180" lon="-16.6518850">
        <ele>1827.9</ele>
        <time>2020-11-11T20:09:20Z</time>
      </trkpt>
      <trkpt lat="28.1758820" lon="-16.6518330">
        <ele>1825.9</ele>
        <time>2020-11-11T20:09:21Z</time>
      </trkpt>
      <trkpt lat="28.1758100" lon="-16.6517300">
        <ele>1823.9</ele>
        <time>2020-11-11T20:09:22Z</time>
      </trkpt>
      <trkpt lat="28.1757030" lon="-16.6515170">
        <ele>1823.9</ele>
        <time>2020-11-11T20:09:23Z</time>
      </trkpt>
      <trkpt lat="28.1756700" lon="-16.6513950">
        <ele>1822.9</ele>
        <time>2020-11-11T20:09:24Z</time>
      </trkpt>
      <trkpt lat="28.1756700" lon="-16.6513950">
        <ele>1822.9</ele>
        <time>2020-11-11T20:09:25Z</time>
      </trkpt>
      <trkpt lat="28.1756350" lon="-16.6511650">
        <ele>1821.9</ele>
        <time>2020-11-11T20:09:26Z</time>
      </trkpt>
      <trkpt lat="28.1756350" lon="-16.6511650">
        <ele>1821.9</ele>
        <time>2020-11-11T20:09:27Z</time>
      </trkpt>
      <trkpt lat="28.1756350" lon="-16.6511650">
        <ele>1819.9</ele>
        <time>2020-11-11T20:09:28Z</time>
      </trkpt>
      <trkpt lat="28.1755870" lon="-16.6509730">
        <ele>1819.9</ele>
        <time>2020-11-11T20:09:29Z</time>
      </trkpt>
      <trkpt lat="28.1754930" lon="-16.6508220">
        <ele>1818.9</ele>
        <time>2020-11-11T20:09:30Z</time>
      </trkpt>
      <trkpt lat="28.1754930" lon="-16.6508220">
        <ele>1818.9</ele>
        <time>2020-11-11T20:09:31Z</time>
      </trkpt>
      <trkpt lat="28.1753470" lon="-16.6507520">
        <ele>1817.9</ele>
        <time>2020-11-11T20:09:32Z</time>
      </trkpt>
      <trkpt lat="28.1752910" lon="-16.6507780">
        <ele>1817.9</ele>
        <time>2020-11-11T20:09:33Z</time>
      </trkpt>
      <trkpt lat="28.1752350" lon="-16.6508040">
        <ele>1816.9</ele>
        <time>2020-11-11T20:09:34Z</time>
      </trkpt>
      <trkpt lat="28.1751230" lon="-16.6508550">
        <ele>1816.9</ele>
        <time>2020-11-11T20:09:35Z</time>
      </trkpt>
      <trkpt lat="28.1751230" lon="-16.6508550">
        <ele>1814.9</ele>
        <time>2020-11-11T20:09:36Z</time>
      </trkpt>
      <trkpt lat="28.1751230" lon="-16.6508550">
        <ele>1814.9</ele>
        <time>2020-11-11T20:09:37Z</time>
      </trkpt>
      <trkpt lat="28.1750330" lon="-16.6510120">
        <ele>1813.9</ele>
        <time>2020-11-11T20:09:38Z</time>
      </trkpt>
      <trkpt lat="28.1750330" lon="-16.6510120">
        <ele>1813.9</ele>
        <time>2020-11-11T20:09:39Z</time>
      </trkpt>
      <trkpt lat="28.1749490" lon="-16.6512610">
        <ele>1812.9</ele>
        <time>2020-11-11T20:09:40Z</time>
      </trkpt>
      <trkpt lat="28.1749290" lon="-16.6513140">
        <ele>1812.9</ele>
        <time>2020-11-11T20:09:41Z</time>
      </trkpt>
      <trkpt lat="28.1748900" lon="-16.6514200">
        <ele>1810.9</ele>
        <time>2020-11-11T20:09:42Z</time>
      </trkpt>
      <trkpt lat="28.1748900" lon="-16.6514200">
        <ele>1810.9</ele>
        <time>2020-11-11T20:09:43Z</time>
      </trkpt>
      <trkpt lat="28.1748570" lon="-16.6516330">
        <ele>1809.9</ele>
        <time>2020-11-11T20:09:44Z</time>
      </trkpt>
      <trkpt lat="28.1748570" lon="-16.6516330">
        <ele>1809.9</ele>
        <time>2020-11-11T20:09:45Z</time>
      </trkpt>
      <trkpt lat="28.1748720" lon="-16.6518620">
        <ele>1807.9</ele>
        <time>2020-11-11T20:09:46Z</time>
      </trkpt>
      <trkpt lat="28.1748950" lon="-16.6520980">
        <ele>1807.9</ele>
        <time>2020-11-11T20:09:47Z</time>
      </trkpt>
      <trkpt lat="28.1748950" lon="-16.6520980">
        <ele>1806.9</ele>
        <time>2020-11-11T20:09:48Z</time>
      </trkpt>
      <trkpt lat="28.1748970" lon="-16.6523270">
        <ele>1806.9</ele>
        <time>2020-11-11T20:09:49Z</time>
      </trkpt>
      <trkpt lat="28.1748970" lon="-16.6523270">
        <ele>1805.9</ele>
        <time>2020-11-11T20:09:50Z</time>
      </trkpt>
      <trkpt lat="28.1748970" lon="-16.6523270">
        <ele>1805.9</ele>
        <time>2020-11-11T20:09:51Z</time>
      </trkpt>
      <trkpt lat="28.1748330" lon="-16.6525050">
        <ele>1803.9</ele>
        <time>2020-11-11T20:09:52Z</time>
      </trkpt>
      <trkpt lat="28.1747000" lon="-16.6525920">
        <ele>1803.9</ele>
        <time>2020-11-11T20:09:53Z</time>
      </trkpt>
      <trkpt lat="28.1747000" lon="-16.6525920">
        <ele>1802.9</ele>
        <time>2020-11-11T20:09:54Z</time>
      </trkpt>
      <trkpt lat="28.1747000" lon="-16.6525920">
        <ele>1802.9</ele>
        <time>2020-11-11T20:09:55Z</time>
      </trkpt>
      <trkpt lat="28.1745450" lon="-16.6525620">
        <ele>1801.9</ele>
        <time>2020-11-11T20:09:56Z</time>
      </trkpt>
      <trkpt lat="28.1745450" lon="-16.6525620">
        <ele>1801.9</ele>
        <time>2020-11-11T20:09:57Z</time>
      </trkpt>
      <trkpt lat="28.1743890" lon="-16.6524010">
        <ele>1800.9</ele>
        <time>2020-11-11T20:09:58Z</time>
      </trkpt>
      <trkpt lat="28.1743650" lon="-16.6523600">
        <ele>1800.9</ele>
        <time>2020-11-11T20:09:59Z</time>
      </trkpt>
      <trkpt lat="28.1743170" lon="-16.6522770">
        <ele>1799.9</ele>
        <time>2020-11-11T20:10:00Z</time>
      </trkpt>
      <trkpt lat="28.1742300" lon="-16.6520920">
        <ele>1798.9</ele>
        <time>2020-11-11T20:10:01Z</time>
      </trkpt>
      <trkpt lat="28.1742300" lon="-16.6520920">
        <ele>1798.9</ele>
        <time>2020-11-11T20:10:02Z</time>
      </trkpt>
      <trkpt lat="28.1742300" lon="-16.6520920">
        <ele>1797.9</ele>
        <time>2020-11-11T20:10:03Z</time>
      </trkpt>
      <trkpt lat="28.1741330" lon="-16.6519070">
        <ele>1797.9</ele>
        <time>2020-11-11T20:10:04Z</time>
      </trkpt>
      <trkpt lat="28.1740830" lon="-16.6518100">
        <ele>1796.9</ele>
        <time>2020-11-11T20:10:05Z</time>
      </trkpt>
      <trkpt lat="28.1740830" lon="-16.6518100">
        <ele>1796.9</ele>
        <time>2020-11-11T20:10:06Z</time>
      </trkpt>
      <trkpt lat="28.1739980" lon="-16.6516100">
        <ele>1795.9</ele>
        <time>2020-11-11T20:10:07Z</time>
      </trkpt>
      <trkpt lat="28.1739470" lon="-16.6513920">
        <ele>1795.9</ele>
        <time>2020-11-11T20:10:08Z</time>
      </trkpt>
      <trkpt lat="28.1739470" lon="-16.6513920">
        <ele>1794.9</ele>
        <time>2020-11-11T20:10:09Z</time>
      </trkpt>
      <trkpt lat="28.1739470" lon="-16.6513920">
        <ele>1794.9</ele>
        <time>2020-11-11T20:10:10Z</time>
      </trkpt>
      <trkpt lat="28.1739650" lon="-16.6511700">
        <ele>1793.9</ele>
        <time>2020-11-11T20:10:11Z</time>
      </trkpt>
      <trkpt lat="28.1739650" lon="-16.6511700">
        <ele>1793.9</ele>
        <time>2020-11-11T20:10:12Z</time>
      </trkpt>
      <trkpt lat="28.1741120" lon="-16.6508620">
        <ele>1793.9</ele>
        <time>2020-11-11T20:10:13Z</time>
      </trkpt>
      <trkpt lat="28.1741120" lon="-16.6508620">
        <ele>1793.9</ele>
        <time>2020-11-11T20:10:14Z</time>
      </trkpt>
      <trkpt lat="28.1742270" lon="-16.6506680">
        <ele>1791.9</ele>
        <time>2020-11-11T20:10:15Z</time>
      </trkpt>
      <trkpt lat="28.1742270" lon="-16.6506680">
        <ele>1791.9</ele>
        <time>2020-11-11T20:10:16Z</time>
      </trkpt>
      <trkpt lat="28.1743750" lon="-16.6505170">
        <ele>1791.9</ele>
        <time>2020-11-11T20:10:17Z</time>
      </trkpt>
      <trkpt lat="28.1743750" lon="-16.6505170">
        <ele>1791.9</ele>
        <time>2020-11-11T20:10:18Z</time>
      </trkpt>
      <trkpt lat="28.1745630" lon="-16.6504370">
        <ele>1789.9</ele>
        <time>2020-11-11T20:10:19Z</time>
      </trkpt>
      <trkpt lat="28.1745630" lon="-16.6504370">
        <ele>1789.9</ele>
        <time>2020-11-11T20:10:20Z</time>
      </trkpt>
      <trkpt lat="28.1747700" lon="-16.6503930">
        <ele>1788.9</ele>
        <time>2020-11-11T20:10:21Z</time>
      </trkpt>
      <trkpt lat="28.1747700" lon="-16.6503930">
        <ele>1788.9</ele>
        <time>2020-11-11T20:10:22Z</time>
      </trkpt>
      <trkpt lat="28.1749780" lon="-16.6503500">
        <ele>1787.9</ele>
        <time>2020-11-11T20:10:23Z</time>
      </trkpt>
      <trkpt lat="28.1749780" lon="-16.6503500">
        <ele>1787.9</ele>
        <time>2020-11-11T20:10:24Z</time>
      </trkpt>
      <trkpt lat="28.1749780" lon="-16.6503500">
        <ele>1786.9</ele>
        <time>2020-11-11T20:10:25Z</time>
      </trkpt>
      <trkpt lat="28.1751880" lon="-16.6503050">
        <ele>1786.9</ele>
        <time>2020-11-11T20:10:26Z</time>
      </trkpt>
      <trkpt lat="28.1752900" lon="-16.6502830">
        <ele>1785.9</ele>
        <time>2020-11-11T20:10:27Z</time>
      </trkpt>
      <trkpt lat="28.1752900" lon="-16.6502830">
        <ele>1785.9</ele>
        <time>2020-11-11T20:10:28Z</time>
      </trkpt>
      <trkpt lat="28.1754920" lon="-16.6502400">
        <ele>1784.9</ele>
        <time>2020-11-11T20:10:29Z</time>
      </trkpt>
      <trkpt lat="28.1756850" lon="-16.6501730">
        <ele>1784.9</ele>
        <time>2020-11-11T20:10:30Z</time>
      </trkpt>
      <trkpt lat="28.1756850" lon="-16.6501730">
        <ele>1783.9</ele>
        <time>2020-11-11T20:10:31Z</time>
      </trkpt>
      <trkpt lat="28.1758650" lon="-16.6500820">
        <ele>1783.9</ele>
        <time>2020-11-11T20:10:32Z</time>
      </trkpt>
      <trkpt lat="28.1758650" lon="-16.6500820">
        <ele>1782.9</ele>
        <time>2020-11-11T20:10:33Z</time>
      </trkpt>
      <trkpt lat="28.1759420" lon="-16.6500280">
        <ele>1782.9</ele>
        <time>2020-11-11T20:10:34Z</time>
      </trkpt>
      <trkpt lat="28.1760220" lon="-16.6498550">
        <ele>1782.9</ele>
        <time>2020-11-11T20:10:35Z</time>
      </trkpt>
      <trkpt lat="28.1760220" lon="-16.6498550">
        <ele>1782.9</ele>
        <time>2020-11-11T20:10:36Z</time>
      </trkpt>
      <trkpt lat="28.1759930" lon="-16.6496770">
        <ele>1782.9</ele>
        <time>2020-11-11T20:10:37Z</time>
      </trkpt>
      <trkpt lat="28.1759930" lon="-16.6496770">
        <ele>1782.9</ele>
        <time>2020-11-11T20:10:38Z</time>
      </trkpt>
      <trkpt lat="28.1758850" lon="-16.6495300">
        <ele>1782.9</ele>
        <time>2020-11-11T20:10:39Z</time>
      </trkpt>
      <trkpt lat="28.1758850" lon="-16.6495300">
        <ele>1782.9</ele>
        <time>2020-11-11T20:10:40Z</time>
      </trkpt>
      <trkpt lat="28.1757400" lon="-16.6494080">
        <ele>1782.9</ele>
        <time>2020-11-11T20:10:41Z</time>
      </trkpt>
      <trkpt lat="28.1757400" lon="-16.6494080">
        <ele>1780.9</ele>
        <time>2020-11-11T20:10:42Z</time>
      </trkpt>
      <trkpt lat="28.1756580" lon="-16.6493480">
        <ele>1780.9</ele>
        <time>2020-11-11T20:10:43Z</time>
      </trkpt>
      <trkpt lat="28.1755750" lon="-16.6492880">
        <ele>1779.9</ele>
        <time>2020-11-11T20:10:44Z</time>
      </trkpt>
      <trkpt lat="28.1754100" lon="-16.6491680">
        <ele>1779.9</ele>
        <time>2020-11-11T20:10:45Z</time>
      </trkpt>
      <trkpt lat="28.1753630" lon="-16.6491370">
        <ele>1778.9</ele>
        <time>2020-11-11T20:10:46Z</time>
      </trkpt>
      <trkpt lat="28.1753150" lon="-16.6491070">
        <ele>1778.9</ele>
        <time>2020-11-11T20:10:47Z</time>
      </trkpt>
      <trkpt lat="28.1752200" lon="-16.6490470">
        <ele>1777.9</ele>
        <time>2020-11-11T20:10:48Z</time>
      </trkpt>
      <trkpt lat="28.1750280" lon="-16.6489130">
        <ele>1777.9</ele>
        <time>2020-11-11T20:10:49Z</time>
      </trkpt>
      <trkpt lat="28.1750280" lon="-16.6489130">
        <ele>1775.9</ele>
        <time>2020-11-11T20:10:50Z</time>
      </trkpt>
      <trkpt lat="28.1750280" lon="-16.6489130">
        <ele>1775.9</ele>
        <time>2020-11-11T20:10:51Z</time>
      </trkpt>
      <trkpt lat="28.1748300" lon="-16.6487750">
        <ele>1774.9</ele>
        <time>2020-11-11T20:10:52Z</time>
      </trkpt>
      <trkpt lat="28.1746480" lon="-16.6486180">
        <ele>1774.9</ele>
        <time>2020-11-11T20:10:53Z</time>
      </trkpt>
      <trkpt lat="28.1745500" lon="-16.6485470">
        <ele>1772.9</ele>
        <time>2020-11-11T20:10:54Z</time>
      </trkpt>
      <trkpt lat="28.1745500" lon="-16.6485470">
        <ele>1772.9</ele>
        <time>2020-11-11T20:10:55Z</time>
      </trkpt>
      <trkpt lat="28.1744700" lon="-16.6483860">
        <ele>1771.9</ele>
        <time>2020-11-11T20:10:56Z</time>
      </trkpt>
      <trkpt lat="28.1744560" lon="-16.6483250">
        <ele>1771.9</ele>
        <time>2020-11-11T20:10:57Z</time>
      </trkpt>
      <trkpt lat="28.1744280" lon="-16.6482030">
        <ele>1769.9</ele>
        <time>2020-11-11T20:10:58Z</time>
      </trkpt>
      <trkpt lat="28.1744270" lon="-16.6480700">
        <ele>1769.9</ele>
        <time>2020-11-11T20:10:59Z</time>
      </trkpt>
      <trkpt lat="28.1744270" lon="-16.6480700">
        <ele>1767.9</ele>
        <time>2020-11-11T20:11:00Z</time>
      </trkpt>
      <trkpt lat="28.1744370" lon="-16.6478020">
        <ele>1767.9</ele>
        <time>2020-11-11T20:11:01Z</time>
      </trkpt>
      <trkpt lat="28.1744370" lon="-16.6478020">
        <ele>1765.9</ele>
        <time>2020-11-11T20:11:02Z</time>
      </trkpt>
      <trkpt lat="28.1744220" lon="-16.6475320">
        <ele>1765.9</ele>
        <time>2020-11-11T20:11:03Z</time>
      </trkpt>
      <trkpt lat="28.1743970" lon="-16.6473970">
        <ele>1763.9</ele>
        <time>2020-11-11T20:11:04Z</time>
      </trkpt>
      <trkpt lat="28.1743120" lon="-16.6471550">
        <ele>1763.9</ele>
        <time>2020-11-11T20:11:05Z</time>
      </trkpt>
      <trkpt lat="28.1743120" lon="-16.6471550">
        <ele>1761.9</ele>
        <time>2020-11-11T20:11:06Z</time>
      </trkpt>
      <trkpt lat="28.1743120" lon="-16.6471550">
        <ele>1761.9</ele>
        <time>2020-11-11T20:11:07Z</time>
      </trkpt>
      <trkpt lat="28.1741450" lon="-16.6470020">
        <ele>1759.9</ele>
        <time>2020-11-11T20:11:08Z</time>
      </trkpt>
      <trkpt lat="28.1739300" lon="-16.6469150">
        <ele>1759.9</ele>
        <time>2020-11-11T20:11:09Z</time>
      </trkpt>
      <trkpt lat="28.1739010" lon="-16.6469080">
        <ele>1757.9</ele>
        <time>2020-11-11T20:11:10Z</time>
      </trkpt>
      <trkpt lat="28.1738710" lon="-16.6469010">
        <ele>1757.9</ele>
        <time>2020-11-11T20:11:11Z</time>
      </trkpt>
      <trkpt lat="28.1738120" lon="-16.6468870">
        <ele>1755.9</ele>
        <time>2020-11-11T20:11:12Z</time>
      </trkpt>
      <trkpt lat="28.1734700" lon="-16.6468260">
        <ele>1755.9</ele>
        <time>2020-11-11T20:11:13Z</time>
      </trkpt>
      <trkpt lat="28.1733730" lon="-16.6468130">
        <ele>1753.9</ele>
        <time>2020-11-11T20:11:14Z</time>
      </trkpt>
      <trkpt lat="28.1731780" lon="-16.6467870">
        <ele>1753.9</ele>
        <time>2020-11-11T20:11:15Z</time>
      </trkpt>
      <trkpt lat="28.1731780" lon="-16.6467870">
        <ele>1751.9</ele>
        <time>2020-11-11T20:11:16Z</time>
      </trkpt>
      <trkpt lat="28.1731780" lon="-16.6467870">
        <ele>1751.9</ele>
        <time>2020-11-11T20:11:17Z</time>
      </trkpt>
      <trkpt lat="28.1729180" lon="-16.6467420">
        <ele>1749.9</ele>
        <time>2020-11-11T20:11:18Z</time>
      </trkpt>
      <trkpt lat="28.1729180" lon="-16.6467420">
        <ele>1747.9</ele>
        <time>2020-11-11T20:11:19Z</time>
      </trkpt>
      <trkpt lat="28.1726480" lon="-16.6466980">
        <ele>1747.9</ele>
        <time>2020-11-11T20:11:20Z</time>
      </trkpt>
      <trkpt lat="28.1724050" lon="-16.6466630">
        <ele>1745.9</ele>
        <time>2020-11-11T20:11:21Z</time>
      </trkpt>
      <trkpt lat="28.1724050" lon="-16.6466630">
        <ele>1745.9</ele>
        <time>2020-11-11T20:11:22Z</time>
      </trkpt>
      <trkpt lat="28.1724050" lon="-16.6466630">
        <ele>1743.9</ele>
        <time>2020-11-11T20:11:23Z</time>
      </trkpt>
      <trkpt lat="28.1722050" lon="-16.6466070">
        <ele>1743.9</ele>
        <time>2020-11-11T20:11:24Z</time>
      </trkpt>
      <trkpt lat="28.1722050" lon="-16.6466070">
        <ele>1741.9</ele>
        <time>2020-11-11T20:11:25Z</time>
      </trkpt>
      <trkpt lat="28.1720370" lon="-16.6465000">
        <ele>1741.9</ele>
        <time>2020-11-11T20:11:26Z</time>
      </trkpt>
      <trkpt lat="28.1719830" lon="-16.6464030">
        <ele>1739.9</ele>
        <time>2020-11-11T20:11:27Z</time>
      </trkpt>
      <trkpt lat="28.1719280" lon="-16.6463060">
        <ele>1739.9</ele>
        <time>2020-11-11T20:11:28Z</time>
      </trkpt>
      <trkpt lat="28.1718180" lon="-16.6461130">
        <ele>1738.9</ele>
        <time>2020-11-11T20:11:29Z</time>
      </trkpt>
      <trkpt lat="28.1718180" lon="-16.6461130">
        <ele>1738.9</ele>
        <time>2020-11-11T20:11:30Z</time>
      </trkpt>
      <trkpt lat="28.1717300" lon="-16.6458750">
        <ele>1736.9</ele>
        <time>2020-11-11T20:11:31Z</time>
      </trkpt>
      <trkpt lat="28.1717130" lon="-16.6458140">
        <ele>1736.9</ele>
        <time>2020-11-11T20:11:32Z</time>
      </trkpt>
      <trkpt lat="28.1716960" lon="-16.6457540">
        <ele>1734.9</ele>
        <time>2020-11-11T20:11:33Z</time>
      </trkpt>
      <trkpt lat="28.1716620" lon="-16.6456330">
        <ele>1734.9</ele>
        <time>2020-11-11T20:11:34Z</time>
      </trkpt>
      <trkpt lat="28.1716620" lon="-16.6456330">
        <ele>1733.9</ele>
        <time>2020-11-11T20:11:35Z</time>
      </trkpt>
      <trkpt lat="28.1716400" lon="-16.6453880">
        <ele>1733.9</ele>
        <time>2020-11-11T20:11:36Z</time>
      </trkpt>
      <trkpt lat="28.1716680" lon="-16.6451470">
        <ele>1731.9</ele>
        <time>2020-11-11T20:11:37Z</time>
      </trkpt>
      <trkpt lat="28.1716680" lon="-16.6451470">
        <ele>1731.9</ele>
        <time>2020-11-11T20:11:38Z</time>
      </trkpt>
      <trkpt lat="28.1716680" lon="-16.6451470">
        <ele>1729.9</ele>
        <time>2020-11-11T20:11:39Z</time>
      </trkpt>
      <trkpt lat="28.1717480" lon="-16.6449070">
        <ele>1729.9</ele>
        <time>2020-11-11T20:11:40Z</time>
      </trkpt>
      <trkpt lat="28.1718880" lon="-16.6446980">
        <ele>1727.9</ele>
        <time>2020-11-11T20:11:41Z</time>
      </trkpt>
      <trkpt lat="28.1718880" lon="-16.6446980">
        <ele>1727.9</ele>
        <time>2020-11-11T20:11:42Z</time>
      </trkpt>
      <trkpt lat="28.1720830" lon="-16.6445450">
        <ele>1726.9</ele>
        <time>2020-11-11T20:11:43Z</time>
      </trkpt>
      <trkpt lat="28.1720830" lon="-16.6445450">
        <ele>1726.9</ele>
        <time>2020-11-11T20:11:44Z</time>
      </trkpt>
      <trkpt lat="28.1722980" lon="-16.6444280">
        <ele>1724.9</ele>
        <time>2020-11-11T20:11:45Z</time>
      </trkpt>
      <trkpt lat="28.1722980" lon="-16.6444280">
        <ele>1724.9</ele>
        <time>2020-11-11T20:11:46Z</time>
      </trkpt>
      <trkpt lat="28.1725220" lon="-16.6443180">
        <ele>1723.9</ele>
        <time>2020-11-11T20:11:47Z</time>
      </trkpt>
      <trkpt lat="28.1725220" lon="-16.6443180">
        <ele>1723.9</ele>
        <time>2020-11-11T20:11:48Z</time>
      </trkpt>
      <trkpt lat="28.1725220" lon="-16.6443180">
        <ele>1721.9</ele>
        <time>2020-11-11T20:11:49Z</time>
      </trkpt>
      <trkpt lat="28.1727350" lon="-16.6442100">
        <ele>1721.9</ele>
        <time>2020-11-11T20:11:50Z</time>
      </trkpt>
      <trkpt lat="28.1727350" lon="-16.6442100">
        <ele>1720.9</ele>
        <time>2020-11-11T20:11:51Z</time>
      </trkpt>
      <trkpt lat="28.1729400" lon="-16.6441370">
        <ele>1720.9</ele>
        <time>2020-11-11T20:11:52Z</time>
      </trkpt>
      <trkpt lat="28.1729400" lon="-16.6441370">
        <ele>1718.9</ele>
        <time>2020-11-11T20:11:53Z</time>
      </trkpt>
      <trkpt lat="28.1732180" lon="-16.6441170">
        <ele>1718.9</ele>
        <time>2020-11-11T20:11:54Z</time>
      </trkpt>
      <trkpt lat="28.1732750" lon="-16.6441180">
        <ele>1717.9</ele>
        <time>2020-11-11T20:11:55Z</time>
      </trkpt>
      <trkpt lat="28.1733900" lon="-16.6441190">
        <ele>1717.9</ele>
        <time>2020-11-11T20:11:56Z</time>
      </trkpt>
      <trkpt lat="28.1735050" lon="-16.6441200">
        <ele>1716.9</ele>
        <time>2020-11-11T20:11:57Z</time>
      </trkpt>
      <trkpt lat="28.1735630" lon="-16.6441190">
        <ele>1714.9</ele>
        <time>2020-11-11T20:11:58Z</time>
      </trkpt>
      <trkpt lat="28.1736200" lon="-16.6441180">
        <ele>1714.9</ele>
        <time>2020-11-11T20:11:59Z</time>
      </trkpt>
      <trkpt lat="28.1737350" lon="-16.6441150">
        <ele>1712.9</ele>
        <time>2020-11-11T20:12:00Z</time>
      </trkpt>
      <trkpt lat="28.1740750" lon="-16.6441430">
        <ele>1712.9</ele>
        <time>2020-11-11T20:12:01Z</time>
      </trkpt>
      <trkpt lat="28.1740750" lon="-16.6441430">
        <ele>1711.9</ele>
        <time>2020-11-11T20:12:02Z</time>
      </trkpt>
      <trkpt lat="28.1740750" lon="-16.6441430">
        <ele>1711.9</ele>
        <time>2020-11-11T20:12:03Z</time>
      </trkpt>
      <trkpt lat="28.1744150" lon="-16.6442700">
        <ele>1708.9</ele>
        <time>2020-11-11T20:12:04Z</time>
      </trkpt>
      <trkpt lat="28.1744150" lon="-16.6442700">
        <ele>1708.9</ele>
        <time>2020-11-11T20:12:05Z</time>
      </trkpt>
      <trkpt lat="28.1746350" lon="-16.6443700">
        <ele>1705.9</ele>
        <time>2020-11-11T20:12:06Z</time>
      </trkpt>
      <trkpt lat="28.1746350" lon="-16.6443700">
        <ele>1705.9</ele>
        <time>2020-11-11T20:12:07Z</time>
      </trkpt>
      <trkpt lat="28.1748000" lon="-16.6444290">
        <ele>1703.9</ele>
        <time>2020-11-11T20:12:08Z</time>
      </trkpt>
      <trkpt lat="28.1748560" lon="-16.6444450">
        <ele>1703.9</ele>
        <time>2020-11-11T20:12:09Z</time>
      </trkpt>
      <trkpt lat="28.1749680" lon="-16.6444780">
        <ele>1701.9</ele>
        <time>2020-11-11T20:12:10Z</time>
      </trkpt>
      <trkpt lat="28.1750850" lon="-16.6444920">
        <ele>1701.9</ele>
        <time>2020-11-11T20:12:11Z</time>
      </trkpt>
      <trkpt lat="28.1753230" lon="-16.6444950">
        <ele>1699.9</ele>
        <time>2020-11-11T20:12:12Z</time>
      </trkpt>
      <trkpt lat="28.1753230" lon="-16.6444950">
        <ele>1699.9</ele>
        <time>2020-11-11T20:12:13Z</time>
      </trkpt>
      <trkpt lat="28.1755570" lon="-16.6445250">
        <ele>1698.9</ele>
        <time>2020-11-11T20:12:14Z</time>
      </trkpt>
      <trkpt lat="28.1755570" lon="-16.6445250">
        <ele>1698.9</ele>
        <time>2020-11-11T20:12:15Z</time>
      </trkpt>
      <trkpt lat="28.1757880" lon="-16.6445930">
        <ele>1696.9</ele>
        <time>2020-11-11T20:12:16Z</time>
      </trkpt>
      <trkpt lat="28.1758470" lon="-16.6446140">
        <ele>1696.9</ele>
        <time>2020-11-11T20:12:17Z</time>
      </trkpt>
      <trkpt lat="28.1759050" lon="-16.6446350">
        <ele>1695.9</ele>
        <time>2020-11-11T20:12:18Z</time>
      </trkpt>
      <trkpt lat="28.1760220" lon="-16.6446780">
        <ele>1695.9</ele>
        <time>2020-11-11T20:12:19Z</time>
      </trkpt>
      <trkpt lat="28.1762620" lon="-16.6447680">
        <ele>1693.9</ele>
        <time>2020-11-11T20:12:20Z</time>
      </trkpt>
      <trkpt lat="28.1763820" lon="-16.6448130">
        <ele>1693.9</ele>
        <time>2020-11-11T20:12:21Z</time>
      </trkpt>
      <trkpt lat="28.1763820" lon="-16.6448130">
        <ele>1691.9</ele>
        <time>2020-11-11T20:12:22Z</time>
      </trkpt>
      <trkpt lat="28.1764930" lon="-16.6448580">
        <ele>1691.9</ele>
        <time>2020-11-11T20:12:23Z</time>
      </trkpt>
      <trkpt lat="28.1764930" lon="-16.6448580">
        <ele>1689.9</ele>
        <time>2020-11-11T20:12:24Z</time>
      </trkpt>
      <trkpt lat="28.1767100" lon="-16.6449330">
        <ele>1689.9</ele>
        <time>2020-11-11T20:12:25Z</time>
      </trkpt>
      <trkpt lat="28.1768100" lon="-16.6449570">
        <ele>1687.9</ele>
        <time>2020-11-11T20:12:26Z</time>
      </trkpt>
      <trkpt lat="28.1769920" lon="-16.6449550">
        <ele>1687.9</ele>
        <time>2020-11-11T20:12:27Z</time>
      </trkpt>
      <trkpt lat="28.1769920" lon="-16.6449550">
        <ele>1685.9</ele>
        <time>2020-11-11T20:12:28Z</time>
      </trkpt>
      <trkpt lat="28.1771530" lon="-16.6448630">
        <ele>1685.9</ele>
        <time>2020-11-11T20:12:29Z</time>
      </trkpt>
      <trkpt lat="28.1771530" lon="-16.6448630">
        <ele>1683.9</ele>
        <time>2020-11-11T20:12:30Z</time>
      </trkpt>
      <trkpt lat="28.1771530" lon="-16.6448630">
        <ele>1683.9</ele>
        <time>2020-11-11T20:12:31Z</time>
      </trkpt>
      <trkpt lat="28.1772850" lon="-16.6447220">
        <ele>1681.9</ele>
        <time>2020-11-11T20:12:32Z</time>
      </trkpt>
      <trkpt lat="28.1773880" lon="-16.6445320">
        <ele>1679.9</ele>
        <time>2020-11-11T20:12:33Z</time>
      </trkpt>
      <trkpt lat="28.1773880" lon="-16.6445320">
        <ele>1679.9</ele>
        <time>2020-11-11T20:12:34Z</time>
      </trkpt>
      <trkpt lat="28.1774870" lon="-16.6443150">
        <ele>1679.9</ele>
        <time>2020-11-11T20:12:35Z</time>
      </trkpt>
      <trkpt lat="28.1775270" lon="-16.6442080">
        <ele>1677.9</ele>
        <time>2020-11-11T20:12:36Z</time>
      </trkpt>
      <trkpt lat="28.1775270" lon="-16.6442080">
        <ele>1676.9</ele>
        <time>2020-11-11T20:12:37Z</time>
      </trkpt>
      <trkpt lat="28.1775780" lon="-16.6439920">
        <ele>1676.9</ele>
        <time>2020-11-11T20:12:38Z</time>
      </trkpt>
      <trkpt lat="28.1775700" lon="-16.6439360">
        <ele>1674.9</ele>
        <time>2020-11-11T20:12:39Z</time>
      </trkpt>
      <trkpt lat="28.1775620" lon="-16.6438800">
        <ele>1674.9</ele>
        <time>2020-11-11T20:12:40Z</time>
      </trkpt>
      <trkpt lat="28.1775450" lon="-16.6437680">
        <ele>1672.9</ele>
        <time>2020-11-11T20:12:41Z</time>
      </trkpt>
      <trkpt lat="28.1774530" lon="-16.6435870">
        <ele>1672.9</ele>
        <time>2020-11-11T20:12:42Z</time>
      </trkpt>
      <trkpt lat="28.1774530" lon="-16.6435870">
        <ele>1670.9</ele>
        <time>2020-11-11T20:12:43Z</time>
      </trkpt>
      <trkpt lat="28.1774530" lon="-16.6435870">
        <ele>1670.9</ele>
        <time>2020-11-11T20:12:44Z</time>
      </trkpt>
      <trkpt lat="28.1772880" lon="-16.6434720">
        <ele>1668.9</ele>
        <time>2020-11-11T20:12:45Z</time>
      </trkpt>
      <trkpt lat="28.1771330" lon="-16.6434470">
        <ele>1668.9</ele>
        <time>2020-11-11T20:12:46Z</time>
      </trkpt>
      <trkpt lat="28.1770780" lon="-16.6434440">
        <ele>1666.9</ele>
        <time>2020-11-11T20:12:47Z</time>
      </trkpt>
      <trkpt lat="28.1769680" lon="-16.6434380">
        <ele>1666.9</ele>
        <time>2020-11-11T20:12:48Z</time>
      </trkpt>
      <trkpt lat="28.1767470" lon="-16.6434520">
        <ele>1664.9</ele>
        <time>2020-11-11T20:12:49Z</time>
      </trkpt>
      <trkpt lat="28.1767470" lon="-16.6434520">
        <ele>1664.9</ele>
        <time>2020-11-11T20:12:50Z</time>
      </trkpt>
      <trkpt lat="28.1767470" lon="-16.6434520">
        <ele>1663.9</ele>
        <time>2020-11-11T20:12:51Z</time>
      </trkpt>
      <trkpt lat="28.1765250" lon="-16.6434570">
        <ele>1663.9</ele>
        <time>2020-11-11T20:12:52Z</time>
      </trkpt>
      <trkpt lat="28.1764130" lon="-16.6434400">
        <ele>1661.9</ele>
        <time>2020-11-11T20:12:53Z</time>
      </trkpt>
      <trkpt lat="28.1764130" lon="-16.6434400">
        <ele>1661.9</ele>
        <time>2020-11-11T20:12:54Z</time>
      </trkpt>
      <trkpt lat="28.1761270" lon="-16.6432330">
        <ele>1659.9</ele>
        <time>2020-11-11T20:12:55Z</time>
      </trkpt>
      <trkpt lat="28.1761270" lon="-16.6432330">
        <ele>1659.9</ele>
        <time>2020-11-11T20:12:56Z</time>
      </trkpt>
      <trkpt lat="28.1759830" lon="-16.6430020">
        <ele>1657.9</ele>
        <time>2020-11-11T20:12:57Z</time>
      </trkpt>
      <trkpt lat="28.1759830" lon="-16.6430020">
        <ele>1657.9</ele>
        <time>2020-11-11T20:12:58Z</time>
      </trkpt>
      <trkpt lat="28.1759830" lon="-16.6430020">
        <ele>1655.9</ele>
        <time>2020-11-11T20:12:59Z</time>
      </trkpt>
      <trkpt lat="28.1758470" lon="-16.6427380">
        <ele>1655.9</ele>
        <time>2020-11-11T20:13:00Z</time>
      </trkpt>
      <trkpt lat="28.1757020" lon="-16.6424680">
        <ele>1652.9</ele>
        <time>2020-11-11T20:13:01Z</time>
      </trkpt>
      <trkpt lat="28.1757020" lon="-16.6424680">
        <ele>1652.9</ele>
        <time>2020-11-11T20:13:02Z</time>
      </trkpt>
      <trkpt lat="28.1755730" lon="-16.6422070">
        <ele>1650.9</ele>
        <time>2020-11-11T20:13:03Z</time>
      </trkpt>
      <trkpt lat="28.1755730" lon="-16.6422070">
        <ele>1650.9</ele>
        <time>2020-11-11T20:13:04Z</time>
      </trkpt>
      <trkpt lat="28.1755730" lon="-16.6422070">
        <ele>1647.9</ele>
        <time>2020-11-11T20:13:05Z</time>
      </trkpt>
      <trkpt lat="28.1754720" lon="-16.6418400">
        <ele>1647.9</ele>
        <time>2020-11-11T20:13:06Z</time>
      </trkpt>
      <trkpt lat="28.1754600" lon="-16.6417630">
        <ele>1644.9</ele>
        <time>2020-11-11T20:13:07Z</time>
      </trkpt>
      <trkpt lat="28.1754260" lon="-16.6414890">
        <ele>1644.9</ele>
        <time>2020-11-11T20:13:08Z</time>
      </trkpt>
      <trkpt lat="28.1754140" lon="-16.6413700">
        <ele>1642.9</ele>
        <time>2020-11-11T20:13:09Z</time>
      </trkpt>
      <trkpt lat="28.1753900" lon="-16.6411330">
        <ele>1642.9</ele>
        <time>2020-11-11T20:13:10Z</time>
      </trkpt>
      <trkpt lat="28.1753770" lon="-16.6409750">
        <ele>1640.9</ele>
        <time>2020-11-11T20:13:11Z</time>
      </trkpt>
      <trkpt lat="28.1753620" lon="-16.6408150">
        <ele>1640.9</ele>
        <time>2020-11-11T20:13:12Z</time>
      </trkpt>
      <trkpt lat="28.1753470" lon="-16.6406550">
        <ele>1638.9</ele>
        <time>2020-11-11T20:13:13Z</time>
      </trkpt>
      <trkpt lat="28.1753420" lon="-16.6406000">
        <ele>1638.9</ele>
        <time>2020-11-11T20:13:14Z</time>
      </trkpt>
      <trkpt lat="28.1753360" lon="-16.6405450">
        <ele>1635.9</ele>
        <time>2020-11-11T20:13:15Z</time>
      </trkpt>
      <trkpt lat="28.1753260" lon="-16.6404350">
        <ele>1632.9</ele>
        <time>2020-11-11T20:13:16Z</time>
      </trkpt>
      <trkpt lat="28.1753150" lon="-16.6403250">
        <ele>1632.9</ele>
        <time>2020-11-11T20:13:17Z</time>
      </trkpt>
      <trkpt lat="28.1752670" lon="-16.6398380">
        <ele>1630.9</ele>
        <time>2020-11-11T20:13:18Z</time>
      </trkpt>
      <trkpt lat="28.1752670" lon="-16.6398380">
        <ele>1630.9</ele>
        <time>2020-11-11T20:13:19Z</time>
      </trkpt>
      <trkpt lat="28.1752270" lon="-16.6395520">
        <ele>1627.9</ele>
        <time>2020-11-11T20:13:20Z</time>
      </trkpt>
      <trkpt lat="28.1752270" lon="-16.6395520">
        <ele>1627.9</ele>
        <time>2020-11-11T20:13:21Z</time>
      </trkpt>
      <trkpt lat="28.1752270" lon="-16.6395520">
        <ele>1624.9</ele>
        <time>2020-11-11T20:13:22Z</time>
      </trkpt>
      <trkpt lat="28.1751500" lon="-16.6392950">
        <ele>1624.9</ele>
        <time>2020-11-11T20:13:23Z</time>
      </trkpt>
      <trkpt lat="28.1751500" lon="-16.6392950">
        <ele>1621.9</ele>
        <time>2020-11-11T20:13:24Z</time>
      </trkpt>
      <trkpt lat="28.1750200" lon="-16.6390700">
        <ele>1621.9</ele>
        <time>2020-11-11T20:13:25Z</time>
      </trkpt>
      <trkpt lat="28.1749380" lon="-16.6389620">
        <ele>1619.9</ele>
        <time>2020-11-11T20:13:26Z</time>
      </trkpt>
      <trkpt lat="28.1749380" lon="-16.6389620">
        <ele>1619.9</ele>
        <time>2020-11-11T20:13:27Z</time>
      </trkpt>
      <trkpt lat="28.1746320" lon="-16.6386950">
        <ele>1617.9</ele>
        <time>2020-11-11T20:13:28Z</time>
      </trkpt>
      <trkpt lat="28.1746320" lon="-16.6386950">
        <ele>1617.9</ele>
        <time>2020-11-11T20:13:29Z</time>
      </trkpt>
      <trkpt lat="28.1745760" lon="-16.6386530">
        <ele>1615.9</ele>
        <time>2020-11-11T20:13:30Z</time>
      </trkpt>
      <trkpt lat="28.1745200" lon="-16.6386110">
        <ele>1615.9</ele>
        <time>2020-11-11T20:13:31Z</time>
      </trkpt>
      <trkpt lat="28.1744080" lon="-16.6385270">
        <ele>1613.9</ele>
        <time>2020-11-11T20:13:32Z</time>
      </trkpt>
      <trkpt lat="28.1741720" lon="-16.6383570">
        <ele>1613.9</ele>
        <time>2020-11-11T20:13:33Z</time>
      </trkpt>
      <trkpt lat="28.1741720" lon="-16.6383570">
        <ele>1611.9</ele>
        <time>2020-11-11T20:13:34Z</time>
      </trkpt>
      <trkpt lat="28.1739300" lon="-16.6381900">
        <ele>1611.9</ele>
        <time>2020-11-11T20:13:35Z</time>
      </trkpt>
      <trkpt lat="28.1736920" lon="-16.6379980">
        <ele>1609.9</ele>
        <time>2020-11-11T20:13:36Z</time>
      </trkpt>
      <trkpt lat="28.1736920" lon="-16.6379980">
        <ele>1609.9</ele>
        <time>2020-11-11T20:13:37Z</time>
      </trkpt>
      <trkpt lat="28.1734520" lon="-16.6378170">
        <ele>1606.9</ele>
        <time>2020-11-11T20:13:38Z</time>
      </trkpt>
      <trkpt lat="28.1734520" lon="-16.6378170">
        <ele>1606.9</ele>
        <time>2020-11-11T20:13:39Z</time>
      </trkpt>
      <trkpt lat="28.1732180" lon="-16.6376470">
        <ele>1604.9</ele>
        <time>2020-11-11T20:13:40Z</time>
      </trkpt>
      <trkpt lat="28.1732180" lon="-16.6376470">
        <ele>1604.9</ele>
        <time>2020-11-11T20:13:41Z</time>
      </trkpt>
      <trkpt lat="28.1732180" lon="-16.6376470">
        <ele>1601.9</ele>
        <time>2020-11-11T20:13:42Z</time>
      </trkpt>
      <trkpt lat="28.1730050" lon="-16.6374870">
        <ele>1601.9</ele>
        <time>2020-11-11T20:13:43Z</time>
      </trkpt>
      <trkpt lat="28.1728340" lon="-16.6373720">
        <ele>1599.9</ele>
        <time>2020-11-11T20:13:44Z</time>
      </trkpt>
      <trkpt lat="28.1727740" lon="-16.6373380">
        <ele>1599.9</ele>
        <time>2020-11-11T20:13:45Z</time>
      </trkpt>
      <trkpt lat="28.1726550" lon="-16.6372700">
        <ele>1595.9</ele>
        <time>2020-11-11T20:13:46Z</time>
      </trkpt>
      <trkpt lat="28.1724000" lon="-16.6371530">
        <ele>1595.9</ele>
        <time>2020-11-11T20:13:47Z</time>
      </trkpt>
      <trkpt lat="28.1724000" lon="-16.6371530">
        <ele>1593.9</ele>
        <time>2020-11-11T20:13:48Z</time>
      </trkpt>
      <trkpt lat="28.1721420" lon="-16.6370320">
        <ele>1593.9</ele>
        <time>2020-11-11T20:13:49Z</time>
      </trkpt>
      <trkpt lat="28.1721420" lon="-16.6370320">
        <ele>1590.9</ele>
        <time>2020-11-11T20:13:50Z</time>
      </trkpt>
      <trkpt lat="28.1718770" lon="-16.6369180">
        <ele>1590.9</ele>
        <time>2020-11-11T20:13:51Z</time>
      </trkpt>
      <trkpt lat="28.1717430" lon="-16.6368630">
        <ele>1588.9</ele>
        <time>2020-11-11T20:13:52Z</time>
      </trkpt>
      <trkpt lat="28.1717430" lon="-16.6368630">
        <ele>1588.9</ele>
        <time>2020-11-11T20:13:53Z</time>
      </trkpt>
      <trkpt lat="28.1717430" lon="-16.6368630">
        <ele>1586.9</ele>
        <time>2020-11-11T20:13:54Z</time>
      </trkpt>
      <trkpt lat="28.1714830" lon="-16.6367520">
        <ele>1585.9</ele>
        <time>2020-11-11T20:13:55Z</time>
      </trkpt>
      <trkpt lat="28.1714830" lon="-16.6367520">
        <ele>1585.9</ele>
        <time>2020-11-11T20:13:56Z</time>
      </trkpt>
      <trkpt lat="28.1712230" lon="-16.6366430">
        <ele>1583.9</ele>
        <time>2020-11-11T20:13:57Z</time>
      </trkpt>
      <trkpt lat="28.1712230" lon="-16.6366430">
        <ele>1583.9</ele>
        <time>2020-11-11T20:13:58Z</time>
      </trkpt>
      <trkpt lat="28.1709670" lon="-16.6365280">
        <ele>1581.9</ele>
        <time>2020-11-11T20:13:59Z</time>
      </trkpt>
      <trkpt lat="28.1709670" lon="-16.6365280">
        <ele>1581.9</ele>
        <time>2020-11-11T20:14:00Z</time>
      </trkpt>
      <trkpt lat="28.1706180" lon="-16.6363790">
        <ele>1579.9</ele>
        <time>2020-11-11T20:14:01Z</time>
      </trkpt>
      <trkpt lat="28.1705220" lon="-16.6363390">
        <ele>1579.9</ele>
        <time>2020-11-11T20:14:02Z</time>
      </trkpt>
      <trkpt lat="28.1703300" lon="-16.6362580">
        <ele>1577.9</ele>
        <time>2020-11-11T20:14:03Z</time>
      </trkpt>
      <trkpt lat="28.1703300" lon="-16.6362580">
        <ele>1577.9</ele>
        <time>2020-11-11T20:14:04Z</time>
      </trkpt>
      <trkpt lat="28.1700650" lon="-16.6361570">
        <ele>1575.9</ele>
        <time>2020-11-11T20:14:05Z</time>
      </trkpt>
      <trkpt lat="28.1700650" lon="-16.6361570">
        <ele>1575.9</ele>
        <time>2020-11-11T20:14:06Z</time>
      </trkpt>
      <trkpt lat="28.1697880" lon="-16.6360650">
        <ele>1574.9</ele>
        <time>2020-11-11T20:14:07Z</time>
      </trkpt>
      <trkpt lat="28.1697880" lon="-16.6360650">
        <ele>1574.9</ele>
        <time>2020-11-11T20:14:08Z</time>
      </trkpt>
      <trkpt lat="28.1695180" lon="-16.6359720">
        <ele>1572.9</ele>
        <time>2020-11-11T20:14:09Z</time>
      </trkpt>
      <trkpt lat="28.1695180" lon="-16.6359720">
        <ele>1572.9</ele>
        <time>2020-11-11T20:14:10Z</time>
      </trkpt>
      <trkpt lat="28.1695180" lon="-16.6359720">
        <ele>1570.9</ele>
        <time>2020-11-11T20:14:11Z</time>
      </trkpt>
      <trkpt lat="28.1691230" lon="-16.6358350">
        <ele>1570.9</ele>
        <time>2020-11-11T20:14:12Z</time>
      </trkpt>
      <trkpt lat="28.1691230" lon="-16.6358350">
        <ele>1568.9</ele>
        <time>2020-11-11T20:14:13Z</time>
      </trkpt>
      <trkpt lat="28.1688830" lon="-16.6357200">
        <ele>1568.9</ele>
        <time>2020-11-11T20:14:14Z</time>
      </trkpt>
      <trkpt lat="28.1688830" lon="-16.6357200">
        <ele>1566.9</ele>
        <time>2020-11-11T20:14:15Z</time>
      </trkpt>
      <trkpt lat="28.1686420" lon="-16.6355920">
        <ele>1566.9</ele>
        <time>2020-11-11T20:14:16Z</time>
      </trkpt>
      <trkpt lat="28.1686420" lon="-16.6355920">
        <ele>1564.9</ele>
        <time>2020-11-11T20:14:17Z</time>
      </trkpt>
      <trkpt lat="28.1686420" lon="-16.6355920">
        <ele>1564.9</ele>
        <time>2020-11-11T20:14:18Z</time>
      </trkpt>
      <trkpt lat="28.1682800" lon="-16.6354230">
        <ele>1562.9</ele>
        <time>2020-11-11T20:14:19Z</time>
      </trkpt>
      <trkpt lat="28.1682800" lon="-16.6354230">
        <ele>1562.9</ele>
        <time>2020-11-11T20:14:20Z</time>
      </trkpt>
      <trkpt lat="28.1682800" lon="-16.6354230">
        <ele>1560.9</ele>
        <time>2020-11-11T20:14:21Z</time>
      </trkpt>
      <trkpt lat="28.1680420" lon="-16.6353070">
        <ele>1560.9</ele>
        <time>2020-11-11T20:14:22Z</time>
      </trkpt>
      <trkpt lat="28.1678020" lon="-16.6351830">
        <ele>1558.9</ele>
        <time>2020-11-11T20:14:23Z</time>
      </trkpt>
      <trkpt lat="28.1678020" lon="-16.6351830">
        <ele>1558.9</ele>
        <time>2020-11-11T20:14:24Z</time>
      </trkpt>
      <trkpt lat="28.1675470" lon="-16.6350750">
        <ele>1556.9</ele>
        <time>2020-11-11T20:14:25Z</time>
      </trkpt>
      <trkpt lat="28.1675470" lon="-16.6350750">
        <ele>1556.9</ele>
        <time>2020-11-11T20:14:26Z</time>
      </trkpt>
      <trkpt lat="28.1675470" lon="-16.6350750">
        <ele>1553.9</ele>
        <time>2020-11-11T20:14:27Z</time>
      </trkpt>
      <trkpt lat="28.1672850" lon="-16.6350070">
        <ele>1553.9</ele>
        <time>2020-11-11T20:14:28Z</time>
      </trkpt>
      <trkpt lat="28.1670320" lon="-16.6349500">
        <ele>1550.9</ele>
        <time>2020-11-11T20:14:29Z</time>
      </trkpt>
      <trkpt lat="28.1670000" lon="-16.6349460">
        <ele>1550.9</ele>
        <time>2020-11-11T20:14:30Z</time>
      </trkpt>
      <trkpt lat="28.1669680" lon="-16.6349420">
        <ele>1548.9</ele>
        <time>2020-11-11T20:14:31Z</time>
      </trkpt>
      <trkpt lat="28.1669030" lon="-16.6349350">
        <ele>1548.9</ele>
        <time>2020-11-11T20:14:32Z</time>
      </trkpt>
      <trkpt lat="28.1666500" lon="-16.6349070">
        <ele>1546.9</ele>
        <time>2020-11-11T20:14:33Z</time>
      </trkpt>
      <trkpt lat="28.1666500" lon="-16.6349070">
        <ele>1544.9</ele>
        <time>2020-11-11T20:14:34Z</time>
      </trkpt>
      <trkpt lat="28.1663170" lon="-16.6348370">
        <ele>1544.9</ele>
        <time>2020-11-11T20:14:35Z</time>
      </trkpt>
      <trkpt lat="28.1662300" lon="-16.6348030">
        <ele>1542.9</ele>
        <time>2020-11-11T20:14:36Z</time>
      </trkpt>
      <trkpt lat="28.1660570" lon="-16.6347350">
        <ele>1542.9</ele>
        <time>2020-11-11T20:14:37Z</time>
      </trkpt>
      <trkpt lat="28.1660570" lon="-16.6347350">
        <ele>1541.9</ele>
        <time>2020-11-11T20:14:38Z</time>
      </trkpt>
      <trkpt lat="28.1660570" lon="-16.6347350">
        <ele>1541.9</ele>
        <time>2020-11-11T20:14:39Z</time>
      </trkpt>
      <trkpt lat="28.1658600" lon="-16.6345980">
        <ele>1539.9</ele>
        <time>2020-11-11T20:14:40Z</time>
      </trkpt>
      <trkpt lat="28.1657080" lon="-16.6344670">
        <ele>1539.9</ele>
        <time>2020-11-11T20:14:41Z</time>
      </trkpt>
      <trkpt lat="28.1656370" lon="-16.6344080">
        <ele>1537.9</ele>
        <time>2020-11-11T20:14:42Z</time>
      </trkpt>
      <trkpt lat="28.1656370" lon="-16.6344080">
        <ele>1537.9</ele>
        <time>2020-11-11T20:14:43Z</time>
      </trkpt>
      <trkpt lat="28.1654850" lon="-16.6343580">
        <ele>1535.9</ele>
        <time>2020-11-11T20:14:44Z</time>
      </trkpt>
      <trkpt lat="28.1654850" lon="-16.6343580">
        <ele>1535.9</ele>
        <time>2020-11-11T20:14:45Z</time>
      </trkpt>
      <trkpt lat="28.1654850" lon="-16.6343580">
        <ele>1534.9</ele>
        <time>2020-11-11T20:14:46Z</time>
      </trkpt>
      <trkpt lat="28.1653450" lon="-16.6343520">
        <ele>1534.9</ele>
        <time>2020-11-11T20:14:47Z</time>
      </trkpt>
      <trkpt lat="28.1653450" lon="-16.6343520">
        <ele>1532.9</ele>
        <time>2020-11-11T20:14:48Z</time>
      </trkpt>
      <trkpt lat="28.1652480" lon="-16.6344780">
        <ele>1532.9</ele>
        <time>2020-11-11T20:14:49Z</time>
      </trkpt>
      <trkpt lat="28.1652320" lon="-16.6346280">
        <ele>1531.9</ele>
        <time>2020-11-11T20:14:50Z</time>
      </trkpt>
      <trkpt lat="28.1652320" lon="-16.6346280">
        <ele>1531.9</ele>
        <time>2020-11-11T20:14:51Z</time>
      </trkpt>
      <trkpt lat="28.1652320" lon="-16.6346280">
        <ele>1530.9</ele>
        <time>2020-11-11T20:14:52Z</time>
      </trkpt>
      <trkpt lat="28.1653080" lon="-16.6347470">
        <ele>1530.9</ele>
        <time>2020-11-11T20:14:53Z</time>
      </trkpt>
      <trkpt lat="28.1654470" lon="-16.6348180">
        <ele>1528.9</ele>
        <time>2020-11-11T20:14:54Z</time>
      </trkpt>
      <trkpt lat="28.1655220" lon="-16.6348500">
        <ele>1528.9</ele>
        <time>2020-11-11T20:14:55Z</time>
      </trkpt>
      <trkpt lat="28.1655220" lon="-16.6348500">
        <ele>1527.9</ele>
        <time>2020-11-11T20:14:56Z</time>
      </trkpt>
      <trkpt lat="28.1655220" lon="-16.6348500">
        <ele>1527.9</ele>
        <time>2020-11-11T20:14:57Z</time>
      </trkpt>
      <trkpt lat="28.1656700" lon="-16.6349080">
        <ele>1526.9</ele>
        <time>2020-11-11T20:14:58Z</time>
      </trkpt>
      <trkpt lat="28.1658180" lon="-16.6349620">
        <ele>1526.9</ele>
        <time>2020-11-11T20:14:59Z</time>
      </trkpt>
      <trkpt lat="28.1658180" lon="-16.6349620">
        <ele>1526.9</ele>
        <time>2020-11-11T20:15:00Z</time>
      </trkpt>
      <trkpt lat="28.1658180" lon="-16.6349620">
        <ele>1526.9</ele>
        <time>2020-11-11T20:15:01Z</time>
      </trkpt>
      <trkpt lat="28.1660190" lon="-16.6350540">
        <ele>1524.9</ele>
        <time>2020-11-11T20:15:02Z</time>
      </trkpt>
      <trkpt lat="28.1660620" lon="-16.6350760">
        <ele>1524.9</ele>
        <time>2020-11-11T20:15:03Z</time>
      </trkpt>
      <trkpt lat="28.1661480" lon="-16.6351200">
        <ele>1523.9</ele>
        <time>2020-11-11T20:15:04Z</time>
      </trkpt>
      <trkpt lat="28.1661930" lon="-16.6351420">
        <ele>1523.9</ele>
        <time>2020-11-11T20:15:05Z</time>
      </trkpt>
      <trkpt lat="28.1662380" lon="-16.6351640">
        <ele>1522.9</ele>
        <time>2020-11-11T20:15:06Z</time>
      </trkpt>
      <trkpt lat="28.1663270" lon="-16.6352080">
        <ele>1522.9</ele>
        <time>2020-11-11T20:15:07Z</time>
      </trkpt>
      <trkpt lat="28.1665120" lon="-16.6353030">
        <ele>1521.9</ele>
        <time>2020-11-11T20:15:08Z</time>
      </trkpt>
      <trkpt lat="28.1667080" lon="-16.6353980">
        <ele>1521.9</ele>
        <time>2020-11-11T20:15:09Z</time>
      </trkpt>
      <trkpt lat="28.1667080" lon="-16.6353980">
        <ele>1520.9</ele>
        <time>2020-11-11T20:15:10Z</time>
      </trkpt>
      <trkpt lat="28.1669080" lon="-16.6355070">
        <ele>1520.9</ele>
        <time>2020-11-11T20:15:11Z</time>
      </trkpt>
      <trkpt lat="28.1669600" lon="-16.6355370">
        <ele>1518.9</ele>
        <time>2020-11-11T20:15:12Z</time>
      </trkpt>
      <trkpt lat="28.1670110" lon="-16.6355680">
        <ele>1517.9</ele>
        <time>2020-11-11T20:15:13Z</time>
      </trkpt>
      <trkpt lat="28.1671130" lon="-16.6356300">
        <ele>1517.9</ele>
        <time>2020-11-11T20:15:14Z</time>
      </trkpt>
      <trkpt lat="28.1673230" lon="-16.6357450">
        <ele>1515.9</ele>
        <time>2020-11-11T20:15:15Z</time>
      </trkpt>
      <trkpt lat="28.1673230" lon="-16.6357450">
        <ele>1515.9</ele>
        <time>2020-11-11T20:15:16Z</time>
      </trkpt>
      <trkpt lat="28.1674300" lon="-16.6358070">
        <ele>1513.9</ele>
        <time>2020-11-11T20:15:17Z</time>
      </trkpt>
      <trkpt lat="28.1676350" lon="-16.6359280">
        <ele>1513.9</ele>
        <time>2020-11-11T20:15:18Z</time>
      </trkpt>
      <trkpt lat="28.1676350" lon="-16.6359280">
        <ele>1512.9</ele>
        <time>2020-11-11T20:15:19Z</time>
      </trkpt>
      <trkpt lat="28.1678300" lon="-16.6360420">
        <ele>1512.9</ele>
        <time>2020-11-11T20:15:20Z</time>
      </trkpt>
      <trkpt lat="28.1678880" lon="-16.6360980">
        <ele>1510.9</ele>
        <time>2020-11-11T20:15:21Z</time>
      </trkpt>
      <trkpt lat="28.1679450" lon="-16.6361550">
        <ele>1510.9</ele>
        <time>2020-11-11T20:15:22Z</time>
      </trkpt>
      <trkpt lat="28.1680600" lon="-16.6362680">
        <ele>1508.9</ele>
        <time>2020-11-11T20:15:23Z</time>
      </trkpt>
      <trkpt lat="28.1680600" lon="-16.6362680">
        <ele>1508.9</ele>
        <time>2020-11-11T20:15:24Z</time>
      </trkpt>
      <trkpt lat="28.1680600" lon="-16.6362680">
        <ele>1507.9</ele>
        <time>2020-11-11T20:15:25Z</time>
      </trkpt>
      <trkpt lat="28.1681150" lon="-16.6364520">
        <ele>1507.9</ele>
        <time>2020-11-11T20:15:26Z</time>
      </trkpt>
      <trkpt lat="28.1680430" lon="-16.6366020">
        <ele>1506.9</ele>
        <time>2020-11-11T20:15:27Z</time>
      </trkpt>
      <trkpt lat="28.1680430" lon="-16.6366020">
        <ele>1506.9</ele>
        <time>2020-11-11T20:15:28Z</time>
      </trkpt>
      <trkpt lat="28.1678950" lon="-16.6367080">
        <ele>1504.9</ele>
        <time>2020-11-11T20:15:29Z</time>
      </trkpt>
      <trkpt lat="28.1678950" lon="-16.6367080">
        <ele>1504.9</ele>
        <time>2020-11-11T20:15:30Z</time>
      </trkpt>
      <trkpt lat="28.1678950" lon="-16.6367080">
        <ele>1503.9</ele>
        <time>2020-11-11T20:15:31Z</time>
      </trkpt>
      <trkpt lat="28.1676570" lon="-16.6366940">
        <ele>1503.9</ele>
        <time>2020-11-11T20:15:32Z</time>
      </trkpt>
      <trkpt lat="28.1675930" lon="-16.6366640">
        <ele>1501.9</ele>
        <time>2020-11-11T20:15:33Z</time>
      </trkpt>
      <trkpt lat="28.1674650" lon="-16.6366030">
        <ele>1501.9</ele>
        <time>2020-11-11T20:15:34Z</time>
      </trkpt>
      <trkpt lat="28.1673820" lon="-16.6365430">
        <ele>1500.9</ele>
        <time>2020-11-11T20:15:35Z</time>
      </trkpt>
      <trkpt lat="28.1673820" lon="-16.6365430">
        <ele>1500.9</ele>
        <time>2020-11-11T20:15:36Z</time>
      </trkpt>
      <trkpt lat="28.1672030" lon="-16.6364300">
        <ele>1499.9</ele>
        <time>2020-11-11T20:15:37Z</time>
      </trkpt>
      <trkpt lat="28.1671080" lon="-16.6363720">
        <ele>1499.9</ele>
        <time>2020-11-11T20:15:38Z</time>
      </trkpt>
      <trkpt lat="28.1671080" lon="-16.6363720">
        <ele>1497.9</ele>
        <time>2020-11-11T20:15:39Z</time>
      </trkpt>
      <trkpt lat="28.1671080" lon="-16.6363720">
        <ele>1497.9</ele>
        <time>2020-11-11T20:15:40Z</time>
      </trkpt>
      <trkpt lat="28.1669170" lon="-16.6362570">
        <ele>1496.9</ele>
        <time>2020-11-11T20:15:41Z</time>
      </trkpt>
      <trkpt lat="28.1667180" lon="-16.6361430">
        <ele>1496.9</ele>
        <time>2020-11-11T20:15:42Z</time>
      </trkpt>
      <trkpt lat="28.1666650" lon="-16.6361170">
        <ele>1495.9</ele>
        <time>2020-11-11T20:15:43Z</time>
      </trkpt>
      <trkpt lat="28.1666110" lon="-16.6360910">
        <ele>1495.9</ele>
        <time>2020-11-11T20:15:44Z</time>
      </trkpt>
      <trkpt lat="28.1665030" lon="-16.6360400">
        <ele>1493.9</ele>
        <time>2020-11-11T20:15:45Z</time>
      </trkpt>
      <trkpt lat="28.1663880" lon="-16.6360010">
        <ele>1493.9</ele>
        <time>2020-11-11T20:15:46Z</time>
      </trkpt>
      <trkpt lat="28.1662730" lon="-16.6359630">
        <ele>1491.9</ele>
        <time>2020-11-11T20:15:47Z</time>
      </trkpt>
      <trkpt lat="28.1660430" lon="-16.6358870">
        <ele>1490.9</ele>
        <time>2020-11-11T20:15:48Z</time>
      </trkpt>
      <trkpt lat="28.1660430" lon="-16.6358870">
        <ele>1490.9</ele>
        <time>2020-11-11T20:15:49Z</time>
      </trkpt>
      <trkpt lat="28.1658080" lon="-16.6357950">
        <ele>1490.9</ele>
        <time>2020-11-11T20:15:50Z</time>
      </trkpt>
      <trkpt lat="28.1658080" lon="-16.6357950">
        <ele>1488.9</ele>
        <time>2020-11-11T20:15:51Z</time>
      </trkpt>
      <trkpt lat="28.1655630" lon="-16.6357150">
        <ele>1486.9</ele>
        <time>2020-11-11T20:15:52Z</time>
      </trkpt>
      <trkpt lat="28.1654380" lon="-16.6356670">
        <ele>1486.9</ele>
        <time>2020-11-11T20:15:53Z</time>
      </trkpt>
      <trkpt lat="28.1654380" lon="-16.6356670">
        <ele>1485.9</ele>
        <time>2020-11-11T20:15:54Z</time>
      </trkpt>
      <trkpt lat="28.1651900" lon="-16.6355770">
        <ele>1485.9</ele>
        <time>2020-11-11T20:15:55Z</time>
      </trkpt>
      <trkpt lat="28.1650950" lon="-16.6355450">
        <ele>1483.9</ele>
        <time>2020-11-11T20:15:56Z</time>
      </trkpt>
      <trkpt lat="28.1649990" lon="-16.6355140">
        <ele>1483.9</ele>
        <time>2020-11-11T20:15:57Z</time>
      </trkpt>
      <trkpt lat="28.1648080" lon="-16.6354520">
        <ele>1481.9</ele>
        <time>2020-11-11T20:15:58Z</time>
      </trkpt>
      <trkpt lat="28.1647770" lon="-16.6354400">
        <ele>1481.9</ele>
        <time>2020-11-11T20:15:59Z</time>
      </trkpt>
      <trkpt lat="28.1647460" lon="-16.6354280">
        <ele>1479.9</ele>
        <time>2020-11-11T20:16:00Z</time>
      </trkpt>
      <trkpt lat="28.1646830" lon="-16.6354050">
        <ele>1479.9</ele>
        <time>2020-11-11T20:16:01Z</time>
      </trkpt>
      <trkpt lat="28.1644430" lon="-16.6353070">
        <ele>1477.9</ele>
        <time>2020-11-11T20:16:02Z</time>
      </trkpt>
      <trkpt lat="28.1643600" lon="-16.6352440">
        <ele>1477.9</ele>
        <time>2020-11-11T20:16:03Z</time>
      </trkpt>
      <trkpt lat="28.1642770" lon="-16.6351820">
        <ele>1475.9</ele>
        <time>2020-11-11T20:16:04Z</time>
      </trkpt>
      <trkpt lat="28.1641110" lon="-16.6350580">
        <ele>1475.9</ele>
        <time>2020-11-11T20:16:05Z</time>
      </trkpt>
      <trkpt lat="28.1639450" lon="-16.6349330">
        <ele>1473.9</ele>
        <time>2020-11-11T20:16:06Z</time>
      </trkpt>
      <trkpt lat="28.1638910" lon="-16.6349030">
        <ele>1473.9</ele>
        <time>2020-11-11T20:16:07Z</time>
      </trkpt>
      <trkpt lat="28.1638360" lon="-16.6348740">
        <ele>1471.9</ele>
        <time>2020-11-11T20:16:08Z</time>
      </trkpt>
      <trkpt lat="28.1637270" lon="-16.6348150">
        <ele>1471.9</ele>
        <time>2020-11-11T20:16:09Z</time>
      </trkpt>
      <trkpt lat="28.1637270" lon="-16.6348150">
        <ele>1469.9</ele>
        <time>2020-11-11T20:16:10Z</time>
      </trkpt>
      <trkpt lat="28.1635970" lon="-16.6348420">
        <ele>1469.9</ele>
        <time>2020-11-11T20:16:11Z</time>
      </trkpt>
      <trkpt lat="28.1635970" lon="-16.6348420">
        <ele>1467.9</ele>
        <time>2020-11-11T20:16:12Z</time>
      </trkpt>
      <trkpt lat="28.1635070" lon="-16.6349800">
        <ele>1467.9</ele>
        <time>2020-11-11T20:16:13Z</time>
      </trkpt>
      <trkpt lat="28.1635050" lon="-16.6350210">
        <ele>1466.9</ele>
        <time>2020-11-11T20:16:14Z</time>
      </trkpt>
      <trkpt lat="28.1635020" lon="-16.6350620">
        <ele>1466.9</ele>
        <time>2020-11-11T20:16:15Z</time>
      </trkpt>
      <trkpt lat="28.1635720" lon="-16.6351870">
        <ele>1465.9</ele>
        <time>2020-11-11T20:16:16Z</time>
      </trkpt>
      <trkpt lat="28.1636300" lon="-16.6352350">
        <ele>1465.9</ele>
        <time>2020-11-11T20:16:17Z</time>
      </trkpt>
      <trkpt lat="28.1636300" lon="-16.6352350">
        <ele>1464.9</ele>
        <time>2020-11-11T20:16:18Z</time>
      </trkpt>
      <trkpt lat="28.1636300" lon="-16.6352350">
        <ele>1464.9</ele>
        <time>2020-11-11T20:16:19Z</time>
      </trkpt>
      <trkpt lat="28.1637620" lon="-16.6353300">
        <ele>1463.9</ele>
        <time>2020-11-11T20:16:20Z</time>
      </trkpt>
      <trkpt lat="28.1639080" lon="-16.6354180">
        <ele>1463.9</ele>
        <time>2020-11-11T20:16:21Z</time>
      </trkpt>
      <trkpt lat="28.1639080" lon="-16.6354180">
        <ele>1462.9</ele>
        <time>2020-11-11T20:16:22Z</time>
      </trkpt>
      <trkpt lat="28.1639870" lon="-16.6354630">
        <ele>1462.9</ele>
        <time>2020-11-11T20:16:23Z</time>
      </trkpt>
      <trkpt lat="28.1641520" lon="-16.6355630">
        <ele>1461.9</ele>
        <time>2020-11-11T20:16:24Z</time>
      </trkpt>
      <trkpt lat="28.1641520" lon="-16.6355630">
        <ele>1461.9</ele>
        <time>2020-11-11T20:16:25Z</time>
      </trkpt>
      <trkpt lat="28.1642810" lon="-16.6356410">
        <ele>1460.9</ele>
        <time>2020-11-11T20:16:26Z</time>
      </trkpt>
      <trkpt lat="28.1643250" lon="-16.6356690">
        <ele>1460.9</ele>
        <time>2020-11-11T20:16:27Z</time>
      </trkpt>
      <trkpt lat="28.1644550" lon="-16.6357540">
        <ele>1458.9</ele>
        <time>2020-11-11T20:16:28Z</time>
      </trkpt>
      <trkpt lat="28.1644970" lon="-16.6357840">
        <ele>1458.9</ele>
        <time>2020-11-11T20:16:29Z</time>
      </trkpt>
      <trkpt lat="28.1645820" lon="-16.6358430">
        <ele>1457.9</ele>
        <time>2020-11-11T20:16:30Z</time>
      </trkpt>
      <trkpt lat="28.1647060" lon="-16.6359350">
        <ele>1456.9</ele>
        <time>2020-11-11T20:16:31Z</time>
      </trkpt>
      <trkpt lat="28.1648300" lon="-16.6360270">
        <ele>1456.9</ele>
        <time>2020-11-11T20:16:32Z</time>
      </trkpt>
      <trkpt lat="28.1648300" lon="-16.6360270">
        <ele>1454.9</ele>
        <time>2020-11-11T20:16:33Z</time>
      </trkpt>
      <trkpt lat="28.1648300" lon="-16.6360270">
        <ele>1454.9</ele>
        <time>2020-11-11T20:16:34Z</time>
      </trkpt>
      <trkpt lat="28.1649870" lon="-16.6361670">
        <ele>1453.9</ele>
        <time>2020-11-11T20:16:35Z</time>
      </trkpt>
      <trkpt lat="28.1649870" lon="-16.6361670">
        <ele>1453.9</ele>
        <time>2020-11-11T20:16:36Z</time>
      </trkpt>
      <trkpt lat="28.1651480" lon="-16.6363180">
        <ele>1451.9</ele>
        <time>2020-11-11T20:16:37Z</time>
      </trkpt>
      <trkpt lat="28.1653170" lon="-16.6364770">
        <ele>1451.9</ele>
        <time>2020-11-11T20:16:38Z</time>
      </trkpt>
      <trkpt lat="28.1653170" lon="-16.6364770">
        <ele>1450.9</ele>
        <time>2020-11-11T20:16:39Z</time>
      </trkpt>
      <trkpt lat="28.1654030" lon="-16.6365550">
        <ele>1450.9</ele>
        <time>2020-11-11T20:16:40Z</time>
      </trkpt>
      <trkpt lat="28.1655830" lon="-16.6367120">
        <ele>1448.9</ele>
        <time>2020-11-11T20:16:41Z</time>
      </trkpt>
      <trkpt lat="28.1655830" lon="-16.6367120">
        <ele>1448.9</ele>
        <time>2020-11-11T20:16:42Z</time>
      </trkpt>
      <trkpt lat="28.1657630" lon="-16.6368750">
        <ele>1446.9</ele>
        <time>2020-11-11T20:16:43Z</time>
      </trkpt>
      <trkpt lat="28.1657630" lon="-16.6368750">
        <ele>1446.9</ele>
        <time>2020-11-11T20:16:44Z</time>
      </trkpt>
      <trkpt lat="28.1659450" lon="-16.6370420">
        <ele>1445.9</ele>
        <time>2020-11-11T20:16:45Z</time>
      </trkpt>
      <trkpt lat="28.1659450" lon="-16.6370420">
        <ele>1445.9</ele>
        <time>2020-11-11T20:16:46Z</time>
      </trkpt>
      <trkpt lat="28.1660330" lon="-16.6371220">
        <ele>1443.9</ele>
        <time>2020-11-11T20:16:47Z</time>
      </trkpt>
      <trkpt lat="28.1661920" lon="-16.6372680">
        <ele>1443.9</ele>
        <time>2020-11-11T20:16:48Z</time>
      </trkpt>
      <trkpt lat="28.1661920" lon="-16.6372680">
        <ele>1441.9</ele>
        <time>2020-11-11T20:16:49Z</time>
      </trkpt>
      <trkpt lat="28.1663200" lon="-16.6374170">
        <ele>1441.9</ele>
        <time>2020-11-11T20:16:50Z</time>
      </trkpt>
      <trkpt lat="28.1663200" lon="-16.6374170">
        <ele>1439.9</ele>
        <time>2020-11-11T20:16:51Z</time>
      </trkpt>
      <trkpt lat="28.1663600" lon="-16.6376170">
        <ele>1439.9</ele>
        <time>2020-11-11T20:16:52Z</time>
      </trkpt>
      <trkpt lat="28.1663600" lon="-16.6376170">
        <ele>1438.9</ele>
        <time>2020-11-11T20:16:53Z</time>
      </trkpt>
      <trkpt lat="28.1663250" lon="-16.6377830">
        <ele>1438.9</ele>
        <time>2020-11-11T20:16:54Z</time>
      </trkpt>
      <trkpt lat="28.1662940" lon="-16.6378070">
        <ele>1437.9</ele>
        <time>2020-11-11T20:16:55Z</time>
      </trkpt>
      <trkpt lat="28.1662630" lon="-16.6378310">
        <ele>1437.9</ele>
        <time>2020-11-11T20:16:56Z</time>
      </trkpt>
      <trkpt lat="28.1662000" lon="-16.6378780">
        <ele>1436.9</ele>
        <time>2020-11-11T20:16:57Z</time>
      </trkpt>
      <trkpt lat="28.1661280" lon="-16.6378970">
        <ele>1436.9</ele>
        <time>2020-11-11T20:16:58Z</time>
      </trkpt>
      <trkpt lat="28.1659750" lon="-16.6379100">
        <ele>1436.9</ele>
        <time>2020-11-11T20:16:59Z</time>
      </trkpt>
      <trkpt lat="28.1659750" lon="-16.6379100">
        <ele>1436.9</ele>
        <time>2020-11-11T20:17:00Z</time>
      </trkpt>
      <trkpt lat="28.1658200" lon="-16.6378850">
        <ele>1436.9</ele>
        <time>2020-11-11T20:17:01Z</time>
      </trkpt>
      <trkpt lat="28.1658200" lon="-16.6378850">
        <ele>1435.9</ele>
        <time>2020-11-11T20:17:02Z</time>
      </trkpt>
      <trkpt lat="28.1657800" lon="-16.6378780">
        <ele>1435.9</ele>
        <time>2020-11-11T20:17:03Z</time>
      </trkpt>
      <trkpt lat="28.1657390" lon="-16.6378710">
        <ele>1433.9</ele>
        <time>2020-11-11T20:17:04Z</time>
      </trkpt>
      <trkpt lat="28.1656170" lon="-16.6378470">
        <ele>1433.9</ele>
        <time>2020-11-11T20:17:05Z</time>
      </trkpt>
      <trkpt lat="28.1655750" lon="-16.6378380">
        <ele>1433.9</ele>
        <time>2020-11-11T20:17:06Z</time>
      </trkpt>
      <trkpt lat="28.1654080" lon="-16.6378130">
        <ele>1433.9</ele>
        <time>2020-11-11T20:17:07Z</time>
      </trkpt>
      <trkpt lat="28.1653230" lon="-16.6378070">
        <ele>1433.9</ele>
        <time>2020-11-11T20:17:08Z</time>
      </trkpt>
      <trkpt lat="28.1652350" lon="-16.6378000">
        <ele>1433.9</ele>
        <time>2020-11-11T20:17:09Z</time>
      </trkpt>
      <trkpt lat="28.1652350" lon="-16.6378000">
        <ele>1432.9</ele>
        <time>2020-11-11T20:17:10Z</time>
      </trkpt>
      <trkpt lat="28.1650550" lon="-16.6377930">
        <ele>1431.9</ele>
        <time>2020-11-11T20:17:11Z</time>
      </trkpt>
      <trkpt lat="28.1648750" lon="-16.6378000">
        <ele>1431.9</ele>
        <time>2020-11-11T20:17:12Z</time>
      </trkpt>
      <trkpt lat="28.1647780" lon="-16.6378170">
        <ele>1431.9</ele>
        <time>2020-11-11T20:17:13Z</time>
      </trkpt>
      <trkpt lat="28.1647780" lon="-16.6378170">
        <ele>1431.9</ele>
        <time>2020-11-11T20:17:14Z</time>
      </trkpt>
      <trkpt lat="28.1646020" lon="-16.6378970">
        <ele>1431.9</ele>
        <time>2020-11-11T20:17:15Z</time>
      </trkpt>
      <trkpt lat="28.1645220" lon="-16.6379630">
        <ele>1431.9</ele>
        <time>2020-11-11T20:17:16Z</time>
      </trkpt>
      <trkpt lat="28.1644830" lon="-16.6379980">
        <ele>1429.9</ele>
        <time>2020-11-11T20:17:17Z</time>
      </trkpt>
      <trkpt lat="28.1644440" lon="-16.6380320">
        <ele>1429.9</ele>
        <time>2020-11-11T20:17:18Z</time>
      </trkpt>
      <trkpt lat="28.1643290" lon="-16.6381350">
        <ele>1428.9</ele>
        <time>2020-11-11T20:17:19Z</time>
      </trkpt>
      <trkpt lat="28.1642930" lon="-16.6381700">
        <ele>1428.9</ele>
        <time>2020-11-11T20:17:20Z</time>
      </trkpt>
      <trkpt lat="28.1642200" lon="-16.6382400">
        <ele>1427.9</ele>
        <time>2020-11-11T20:17:21Z</time>
      </trkpt>
      <trkpt lat="28.1640730" lon="-16.6383970">
        <ele>1427.9</ele>
        <time>2020-11-11T20:17:22Z</time>
      </trkpt>
      <trkpt lat="28.1640730" lon="-16.6383970">
        <ele>1426.9</ele>
        <time>2020-11-11T20:17:23Z</time>
      </trkpt>
      <trkpt lat="28.1640730" lon="-16.6383970">
        <ele>1426.9</ele>
        <time>2020-11-11T20:17:24Z</time>
      </trkpt>
      <trkpt lat="28.1639110" lon="-16.6385840">
        <ele>1425.9</ele>
        <time>2020-11-11T20:17:25Z</time>
      </trkpt>
      <trkpt lat="28.1638930" lon="-16.6386050">
        <ele>1425.9</ele>
        <time>2020-11-11T20:17:26Z</time>
      </trkpt>
      <trkpt lat="28.1638580" lon="-16.6386470">
        <ele>1423.9</ele>
        <time>2020-11-11T20:17:27Z</time>
      </trkpt>
      <trkpt lat="28.1637050" lon="-16.6388120">
        <ele>1423.9</ele>
        <time>2020-11-11T20:17:28Z</time>
      </trkpt>
      <trkpt lat="28.1635420" lon="-16.6389520">
        <ele>1422.9</ele>
        <time>2020-11-11T20:17:29Z</time>
      </trkpt>
      <trkpt lat="28.1635420" lon="-16.6389520">
        <ele>1422.9</ele>
        <time>2020-11-11T20:17:30Z</time>
      </trkpt>
      <trkpt lat="28.1634560" lon="-16.6389850">
        <ele>1420.9</ele>
        <time>2020-11-11T20:17:31Z</time>
      </trkpt>
      <trkpt lat="28.1633690" lon="-16.6390170">
        <ele>1420.9</ele>
        <time>2020-11-11T20:17:32Z</time>
      </trkpt>
      <trkpt lat="28.1631950" lon="-16.6390820">
        <ele>1419.9</ele>
        <time>2020-11-11T20:17:33Z</time>
      </trkpt>
      <trkpt lat="28.1631950" lon="-16.6390820">
        <ele>1419.9</ele>
        <time>2020-11-11T20:17:34Z</time>
      </trkpt>
      <trkpt lat="28.1631950" lon="-16.6390820">
        <ele>1418.9</ele>
        <time>2020-11-11T20:17:35Z</time>
      </trkpt>
      <trkpt lat="28.1630320" lon="-16.6390700">
        <ele>1418.9</ele>
        <time>2020-11-11T20:17:36Z</time>
      </trkpt>
      <trkpt lat="28.1628850" lon="-16.6390630">
        <ele>1417.9</ele>
        <time>2020-11-11T20:17:37Z</time>
      </trkpt>
      <trkpt lat="28.1628550" lon="-16.6390610">
        <ele>1417.9</ele>
        <time>2020-11-11T20:17:38Z</time>
      </trkpt>
      <trkpt lat="28.1628240" lon="-16.6390600">
        <ele>1416.9</ele>
        <time>2020-11-11T20:17:39Z</time>
      </trkpt>
      <trkpt lat="28.1627630" lon="-16.6390580">
        <ele>1416.9</ele>
        <time>2020-11-11T20:17:40Z</time>
      </trkpt>
      <trkpt lat="28.1626820" lon="-16.6390500">
        <ele>1416.9</ele>
        <time>2020-11-11T20:17:41Z</time>
      </trkpt>
      <trkpt lat="28.1626570" lon="-16.6390420">
        <ele>1416.9</ele>
        <time>2020-11-11T20:17:42Z</time>
      </trkpt>
      <trkpt lat="28.1626570" lon="-16.6390420">
        <ele>1415.9</ele>
        <time>2020-11-11T20:17:43Z</time>
      </trkpt>
      <trkpt lat="28.1626570" lon="-16.6390420">
        <ele>1415.9</ele>
        <time>2020-11-11T20:17:44Z</time>
      </trkpt>
      <trkpt lat="28.1626150" lon="-16.6390030">
        <ele>1415.9</ele>
        <time>2020-11-11T20:17:45Z</time>
      </trkpt>
      <trkpt lat="28.1626150" lon="-16.6390030">
        <ele>1415.9</ele>
        <time>2020-11-11T20:17:46Z</time>
      </trkpt>
      <trkpt lat="28.1625930" lon="-16.6389500">
        <ele>1414.9</ele>
        <time>2020-11-11T20:17:47Z</time>
      </trkpt>
      <trkpt lat="28.1625930" lon="-16.6389500">
        <ele>1414.9</ele>
        <time>2020-11-11T20:17:48Z</time>
      </trkpt>
      <trkpt lat="28.1625950" lon="-16.6388880">
        <ele>1414.9</ele>
        <time>2020-11-11T20:17:49Z</time>
      </trkpt>
      <trkpt lat="28.1625950" lon="-16.6388880">
        <ele>1414.9</ele>
        <time>2020-11-11T20:17:50Z</time>
      </trkpt>
      <trkpt lat="28.1625930" lon="-16.6388720">
        <ele>1414.9</ele>
        <time>2020-11-11T20:17:51Z</time>
      </trkpt>
      <trkpt lat="28.1625970" lon="-16.6388130">
        <ele>1413.9</ele>
        <time>2020-11-11T20:17:52Z</time>
      </trkpt>
      <trkpt lat="28.1625970" lon="-16.6388130">
        <ele>1413.9</ele>
        <time>2020-11-11T20:17:53Z</time>
      </trkpt>
      <trkpt lat="28.1626080" lon="-16.6387320">
        <ele>1412.9</ele>
        <time>2020-11-11T20:17:54Z</time>
      </trkpt>
      <trkpt lat="28.1626120" lon="-16.6386930">
        <ele>1412.9</ele>
        <time>2020-11-11T20:17:55Z</time>
      </trkpt>
      <trkpt lat="28.1626100" lon="-16.6386580">
        <ele>1412.9</ele>
        <time>2020-11-11T20:17:56Z</time>
      </trkpt>
      <trkpt lat="28.1626100" lon="-16.6386580">
        <ele>1412.9</ele>
        <time>2020-11-11T20:17:57Z</time>
      </trkpt>
      <trkpt lat="28.1626100" lon="-16.6386580">
        <ele>1412.9</ele>
        <time>2020-11-11T20:17:58Z</time>
      </trkpt>
      <trkpt lat="28.1626070" lon="-16.6385900">
        <ele>1412.9</ele>
        <time>2020-11-11T20:17:59Z</time>
      </trkpt>
      <trkpt lat="28.1626070" lon="-16.6385450">
        <ele>1410.9</ele>
        <time>2020-11-11T20:18:00Z</time>
      </trkpt>
      <trkpt lat="28.1626070" lon="-16.6385450">
        <ele>1410.9</ele>
        <time>2020-11-11T20:18:01Z</time>
      </trkpt>
      <trkpt lat="28.1626070" lon="-16.6383850">
        <ele>1409.9</ele>
        <time>2020-11-11T20:18:02Z</time>
      </trkpt>
      <trkpt lat="28.1626070" lon="-16.6383600">
        <ele>1409.9</ele>
        <time>2020-11-11T20:18:03Z</time>
      </trkpt>
      <trkpt lat="28.1626070" lon="-16.6383350">
        <ele>1409.9</ele>
        <time>2020-11-11T20:18:04Z</time>
      </trkpt>
      <trkpt lat="28.1626070" lon="-16.6382920">
        <ele>1409.9</ele>
        <time>2020-11-11T20:18:05Z</time>
      </trkpt>
      <trkpt lat="28.1626070" lon="-16.6382920">
        <ele>1408.9</ele>
        <time>2020-11-11T20:18:06Z</time>
      </trkpt>
      <trkpt lat="28.1625980" lon="-16.6382170">
        <ele>1408.9</ele>
        <time>2020-11-11T20:18:07Z</time>
      </trkpt>
      <trkpt lat="28.1625870" lon="-16.6381720">
        <ele>1407.9</ele>
        <time>2020-11-11T20:18:08Z</time>
      </trkpt>
      <trkpt lat="28.1625870" lon="-16.6381720">
        <ele>1407.9</ele>
        <time>2020-11-11T20:18:09Z</time>
      </trkpt>
      <trkpt lat="28.1625100" lon="-16.6380280">
        <ele>1407.9</ele>
        <time>2020-11-11T20:18:10Z</time>
      </trkpt>
      <trkpt lat="28.1625100" lon="-16.6380280">
        <ele>1407.9</ele>
        <time>2020-11-11T20:18:11Z</time>
      </trkpt>
      <trkpt lat="28.1624300" lon="-16.6379620">
        <ele>1406.9</ele>
        <time>2020-11-11T20:18:12Z</time>
      </trkpt>
      <trkpt lat="28.1624300" lon="-16.6379620">
        <ele>1406.9</ele>
        <time>2020-11-11T20:18:13Z</time>
      </trkpt>
      <trkpt lat="28.1623230" lon="-16.6378950">
        <ele>1406.9</ele>
        <time>2020-11-11T20:18:14Z</time>
      </trkpt>
      <trkpt lat="28.1623230" lon="-16.6378950">
        <ele>1406.9</ele>
        <time>2020-11-11T20:18:15Z</time>
      </trkpt>
      <trkpt lat="28.1622730" lon="-16.6378550">
        <ele>1405.9</ele>
        <time>2020-11-11T20:18:16Z</time>
      </trkpt>
      <trkpt lat="28.1622220" lon="-16.6378160">
        <ele>1405.9</ele>
        <time>2020-11-11T20:18:17Z</time>
      </trkpt>
      <trkpt lat="28.1621200" lon="-16.6377380">
        <ele>1404.9</ele>
        <time>2020-11-11T20:18:18Z</time>
      </trkpt>
      <trkpt lat="28.1620680" lon="-16.6376900">
        <ele>1404.9</ele>
        <time>2020-11-11T20:18:19Z</time>
      </trkpt>
      <trkpt lat="28.1620680" lon="-16.6376900">
        <ele>1403.9</ele>
        <time>2020-11-11T20:18:20Z</time>
      </trkpt>
      <trkpt lat="28.1620440" lon="-16.6376630">
        <ele>1403.9</ele>
        <time>2020-11-11T20:18:21Z</time>
      </trkpt>
      <trkpt lat="28.1620190" lon="-16.6376360">
        <ele>1402.9</ele>
        <time>2020-11-11T20:18:22Z</time>
      </trkpt>
      <trkpt lat="28.1619450" lon="-16.6375560">
        <ele>1402.9</ele>
        <time>2020-11-11T20:18:23Z</time>
      </trkpt>
      <trkpt lat="28.1619200" lon="-16.6375290">
        <ele>1400.9</ele>
        <time>2020-11-11T20:18:24Z</time>
      </trkpt>
      <trkpt lat="28.1618280" lon="-16.6374270">
        <ele>1400.9</ele>
        <time>2020-11-11T20:18:25Z</time>
      </trkpt>
      <trkpt lat="28.1617850" lon="-16.6373790">
        <ele>1399.9</ele>
        <time>2020-11-11T20:18:26Z</time>
      </trkpt>
      <trkpt lat="28.1617000" lon="-16.6372830">
        <ele>1398.9</ele>
        <time>2020-11-11T20:18:27Z</time>
      </trkpt>
      <trkpt lat="28.1617000" lon="-16.6372830">
        <ele>1398.9</ele>
        <time>2020-11-11T20:18:28Z</time>
      </trkpt>
      <trkpt lat="28.1616620" lon="-16.6372380">
        <ele>1397.9</ele>
        <time>2020-11-11T20:18:29Z</time>
      </trkpt>
      <trkpt lat="28.1615920" lon="-16.6371550">
        <ele>1397.9</ele>
        <time>2020-11-11T20:18:30Z</time>
      </trkpt>
      <trkpt lat="28.1615920" lon="-16.6371550">
        <ele>1397.9</ele>
        <time>2020-11-11T20:18:31Z</time>
      </trkpt>
      <trkpt lat="28.1615580" lon="-16.6371220">
        <ele>1397.9</ele>
        <time>2020-11-11T20:18:32Z</time>
      </trkpt>
      <trkpt lat="28.1614880" lon="-16.6370450">
        <ele>1397.9</ele>
        <time>2020-11-11T20:18:33Z</time>
      </trkpt>
      <trkpt lat="28.1614670" lon="-16.6370280">
        <ele>1397.9</ele>
        <time>2020-11-11T20:18:34Z</time>
      </trkpt>
      <trkpt lat="28.1614450" lon="-16.6370120">
        <ele>1395.9</ele>
        <time>2020-11-11T20:18:35Z</time>
      </trkpt>
      <trkpt lat="28.1613400" lon="-16.6369470">
        <ele>1395.9</ele>
        <time>2020-11-11T20:18:36Z</time>
      </trkpt>
      <trkpt lat="28.1612920" lon="-16.6369200">
        <ele>1395.9</ele>
        <time>2020-11-11T20:18:37Z</time>
      </trkpt>
      <trkpt lat="28.1612440" lon="-16.6368930">
        <ele>1395.9</ele>
        <time>2020-11-11T20:18:38Z</time>
      </trkpt>
      <trkpt lat="28.1611480" lon="-16.6368400">
        <ele>1393.9</ele>
        <time>2020-11-11T20:18:39Z</time>
      </trkpt>
      <trkpt lat="28.1610980" lon="-16.6368080">
        <ele>1393.9</ele>
        <time>2020-11-11T20:18:40Z</time>
      </trkpt>
      <trkpt lat="28.1610480" lon="-16.6367770">
        <ele>1392.9</ele>
        <time>2020-11-11T20:18:41Z</time>
      </trkpt>
      <trkpt lat="28.1609470" lon="-16.6367150">
        <ele>1392.9</ele>
        <time>2020-11-11T20:18:42Z</time>
      </trkpt>
      <trkpt lat="28.1609150" lon="-16.6366980">
        <ele>1390.9</ele>
        <time>2020-11-11T20:18:43Z</time>
      </trkpt>
      <trkpt lat="28.1608830" lon="-16.6366820">
        <ele>1390.9</ele>
        <time>2020-11-11T20:18:44Z</time>
      </trkpt>
      <trkpt lat="28.1608180" lon="-16.6366500">
        <ele>1389.9</ele>
        <time>2020-11-11T20:18:45Z</time>
      </trkpt>
      <trkpt lat="28.1606950" lon="-16.6366230">
        <ele>1389.9</ele>
        <time>2020-11-11T20:18:46Z</time>
      </trkpt>
      <trkpt lat="28.1606950" lon="-16.6366230">
        <ele>1387.9</ele>
        <time>2020-11-11T20:18:47Z</time>
      </trkpt>
      <trkpt lat="28.1605700" lon="-16.6366600">
        <ele>1387.9</ele>
        <time>2020-11-11T20:18:48Z</time>
      </trkpt>
      <trkpt lat="28.1605100" lon="-16.6366880">
        <ele>1385.9</ele>
        <time>2020-11-11T20:18:49Z</time>
      </trkpt>
      <trkpt lat="28.1604830" lon="-16.6367010">
        <ele>1385.9</ele>
        <time>2020-11-11T20:18:50Z</time>
      </trkpt>
      <trkpt lat="28.1604560" lon="-16.6367140">
        <ele>1384.9</ele>
        <time>2020-11-11T20:18:51Z</time>
      </trkpt>
      <trkpt lat="28.1604020" lon="-16.6367400">
        <ele>1384.9</ele>
        <time>2020-11-11T20:18:52Z</time>
      </trkpt>
      <trkpt lat="28.1603250" lon="-16.6367830">
        <ele>1383.9</ele>
        <time>2020-11-11T20:18:53Z</time>
      </trkpt>
      <trkpt lat="28.1603250" lon="-16.6367830">
        <ele>1383.9</ele>
        <time>2020-11-11T20:18:54Z</time>
      </trkpt>
      <trkpt lat="28.1602700" lon="-16.6368120">
        <ele>1382.9</ele>
        <time>2020-11-11T20:18:55Z</time>
      </trkpt>
      <trkpt lat="28.1602510" lon="-16.6368210">
        <ele>1382.9</ele>
        <time>2020-11-11T20:18:56Z</time>
      </trkpt>
      <trkpt lat="28.1602320" lon="-16.6368300">
        <ele>1382.9</ele>
        <time>2020-11-11T20:18:57Z</time>
      </trkpt>
      <trkpt lat="28.1602320" lon="-16.6368300">
        <ele>1382.9</ele>
        <time>2020-11-11T20:18:58Z</time>
      </trkpt>
      <trkpt lat="28.1602320" lon="-16.6368300">
        <ele>1381.9</ele>
        <time>2020-11-11T20:18:59Z</time>
      </trkpt>
      <trkpt lat="28.1602030" lon="-16.6368250">
        <ele>1381.9</ele>
        <time>2020-11-11T20:19:00Z</time>
      </trkpt>
      <trkpt lat="28.1602030" lon="-16.6368250">
        <ele>1381.9</ele>
        <time>2020-11-11T20:19:01Z</time>
      </trkpt>
      <trkpt lat="28.1601650" lon="-16.6368050">
        <ele>1381.9</ele>
        <time>2020-11-11T20:19:02Z</time>
      </trkpt>
      <trkpt lat="28.1601650" lon="-16.6368050">
        <ele>1380.9</ele>
        <time>2020-11-11T20:19:03Z</time>
      </trkpt>
      <trkpt lat="28.1601330" lon="-16.6367920">
        <ele>1380.9</ele>
        <time>2020-11-11T20:19:04Z</time>
      </trkpt>
      <trkpt lat="28.1601330" lon="-16.6367920">
        <ele>1380.9</ele>
        <time>2020-11-11T20:19:05Z</time>
      </trkpt>
      <trkpt lat="28.1601250" lon="-16.6367900">
        <ele>1380.9</ele>
        <time>2020-11-11T20:19:06Z</time>
      </trkpt>
      <trkpt lat="28.1601230" lon="-16.6367900">
        <ele>1380.9</ele>
        <time>2020-11-11T20:19:07Z</time>
      </trkpt>
      <trkpt lat="28.1601230" lon="-16.6367900">
        <ele>1380.9</ele>
        <time>2020-11-11T20:20:32Z</time>
      </trkpt>
      <trkpt lat="28.1601230" lon="-16.6367900">
        <ele>1380.9</ele>
        <time>2020-11-11T20:20:33Z</time>
      </trkpt>
      <trkpt lat="28.1600080" lon="-16.6367230">
        <ele>1380.9</ele>
        <time>2020-11-11T20:20:34Z</time>
      </trkpt>
      <trkpt lat="28.1600080" lon="-16.6367230">
        <ele>1380.9</ele>
        <time>2020-11-11T20:20:35Z</time>
      </trkpt>
      <trkpt lat="28.1599420" lon="-16.6366970">
        <ele>1380.9</ele>
        <time>2020-11-11T20:20:36Z</time>
      </trkpt>
      <trkpt lat="28.1598730" lon="-16.6366780">
        <ele>1380.9</ele>
        <time>2020-11-11T20:20:37Z</time>
      </trkpt>
      <trkpt lat="28.1598730" lon="-16.6366780">
        <ele>1379.9</ele>
        <time>2020-11-11T20:20:38Z</time>
      </trkpt>
      <trkpt lat="28.1598120" lon="-16.6366630">
        <ele>1379.9</ele>
        <time>2020-11-11T20:20:39Z</time>
      </trkpt>
      <trkpt lat="28.1598000" lon="-16.6366540">
        <ele>1379.9</ele>
        <time>2020-11-11T20:20:40Z</time>
      </trkpt>
      <trkpt lat="28.1597870" lon="-16.6366450">
        <ele>1379.9</ele>
        <time>2020-11-11T20:20:41Z</time>
      </trkpt>
      <trkpt lat="28.1597350" lon="-16.6366330">
        <ele>1378.9</ele>
        <time>2020-11-11T20:20:42Z</time>
      </trkpt>
      <trkpt lat="28.1597070" lon="-16.6366270">
        <ele>1378.9</ele>
        <time>2020-11-11T20:20:43Z</time>
      </trkpt>
      <trkpt lat="28.1596950" lon="-16.6366240">
        <ele>1378.9</ele>
        <time>2020-11-11T20:20:44Z</time>
      </trkpt>
      <trkpt lat="28.1596830" lon="-16.6366220">
        <ele>1378.9</ele>
        <time>2020-11-11T20:20:45Z</time>
      </trkpt>
      <trkpt lat="28.1596350" lon="-16.6366130">
        <ele>1378.9</ele>
        <time>2020-11-11T20:20:46Z</time>
      </trkpt>
      <trkpt lat="28.1596350" lon="-16.6366130">
        <ele>1377.9</ele>
        <time>2020-11-11T20:20:47Z</time>
      </trkpt>
      <trkpt lat="28.1596100" lon="-16.6366070">
        <ele>1377.9</ele>
        <time>2020-11-11T20:20:48Z</time>
      </trkpt>
      <trkpt lat="28.1596100" lon="-16.6366070">
        <ele>1377.9</ele>
        <time>2020-11-11T20:20:49Z</time>
      </trkpt>
      <trkpt lat="28.1595700" lon="-16.6365800">
        <ele>1377.9</ele>
        <time>2020-11-11T20:20:50Z</time>
      </trkpt>
      <trkpt lat="28.1595700" lon="-16.6365800">
        <ele>1375.9</ele>
        <time>2020-11-11T20:20:51Z</time>
      </trkpt>
      <trkpt lat="28.1595150" lon="-16.6365380">
        <ele>1375.9</ele>
        <time>2020-11-11T20:20:52Z</time>
      </trkpt>
      <trkpt lat="28.1595020" lon="-16.6365280">
        <ele>1375.9</ele>
        <time>2020-11-11T20:20:53Z</time>
      </trkpt>
      <trkpt lat="28.1594520" lon="-16.6364930">
        <ele>1375.9</ele>
        <time>2020-11-11T20:20:54Z</time>
      </trkpt>
      <trkpt lat="28.1594520" lon="-16.6364930">
        <ele>1374.9</ele>
        <time>2020-11-11T20:20:55Z</time>
      </trkpt>
      <trkpt lat="28.1594030" lon="-16.6364520">
        <ele>1374.9</ele>
        <time>2020-11-11T20:20:56Z</time>
      </trkpt>
      <trkpt lat="28.1593890" lon="-16.6364420">
        <ele>1374.9</ele>
        <time>2020-11-11T20:20:57Z</time>
      </trkpt>
      <trkpt lat="28.1593750" lon="-16.6364330">
        <ele>1374.9</ele>
        <time>2020-11-11T20:20:58Z</time>
      </trkpt>
      <trkpt lat="28.1593460" lon="-16.6364150">
        <ele>1373.9</ele>
        <time>2020-11-11T20:20:59Z</time>
      </trkpt>
      <trkpt lat="28.1593170" lon="-16.6363970">
        <ele>1373.9</ele>
        <time>2020-11-11T20:21:00Z</time>
      </trkpt>
      <trkpt lat="28.1592720" lon="-16.6363630">
        <ele>1372.9</ele>
        <time>2020-11-11T20:21:01Z</time>
      </trkpt>
      <trkpt lat="28.1592720" lon="-16.6363630">
        <ele>1372.9</ele>
        <time>2020-11-11T20:21:02Z</time>
      </trkpt>
      <trkpt lat="28.1592720" lon="-16.6363630">
        <ele>1372.9</ele>
        <time>2020-11-11T20:21:03Z</time>
      </trkpt>
      <trkpt lat="28.1592150" lon="-16.6363620">
        <ele>1371.9</ele>
        <time>2020-11-11T20:21:04Z</time>
      </trkpt>
      <trkpt lat="28.1591870" lon="-16.6363470">
        <ele>1371.9</ele>
        <time>2020-11-11T20:21:05Z</time>
      </trkpt>
      <trkpt lat="28.1591580" lon="-16.6363320">
        <ele>1371.9</ele>
        <time>2020-11-11T20:21:06Z</time>
      </trkpt>
      <trkpt lat="28.1591580" lon="-16.6363320">
        <ele>1371.9</ele>
        <time>2020-11-11T20:21:07Z</time>
      </trkpt>
      <trkpt lat="28.1591580" lon="-16.6363320">
        <ele>1370.9</ele>
        <time>2020-11-11T20:21:08Z</time>
      </trkpt>
      <trkpt lat="28.1591330" lon="-16.6363170">
        <ele>1370.9</ele>
        <time>2020-11-11T20:21:09Z</time>
      </trkpt>
      <trkpt lat="28.1591130" lon="-16.6363250">
        <ele>1370.9</ele>
        <time>2020-11-11T20:21:10Z</time>
      </trkpt>
      <trkpt lat="28.1591130" lon="-16.6363250">
        <ele>1370.9</ele>
        <time>2020-11-11T20:21:11Z</time>
      </trkpt>
      <trkpt lat="28.1590850" lon="-16.6363550">
        <ele>1370.9</ele>
        <time>2020-11-11T20:21:12Z</time>
      </trkpt>
      <trkpt lat="28.1590600" lon="-16.6363830">
        <ele>1370.9</ele>
        <time>2020-11-11T20:21:13Z</time>
      </trkpt>
      <trkpt lat="28.1590600" lon="-16.6363830">
        <ele>1370.9</ele>
        <time>2020-11-11T20:21:14Z</time>
      </trkpt>
      <trkpt lat="28.1590600" lon="-16.6363830">
        <ele>1370.9</ele>
        <time>2020-11-11T20:21:15Z</time>
      </trkpt>
      <trkpt lat="28.1590270" lon="-16.6364580">
        <ele>1370.9</ele>
        <time>2020-11-11T20:21:16Z</time>
      </trkpt>
      <trkpt lat="28.1590270" lon="-16.6364580">
        <ele>1370.9</ele>
        <time>2020-11-11T20:21:17Z</time>
      </trkpt>
      <trkpt lat="28.1590270" lon="-16.6364580">
        <ele>1370.9</ele>
        <time>2020-11-11T20:21:18Z</time>
      </trkpt>
      <trkpt lat="28.1590120" lon="-16.6365100">
        <ele>1370.9</ele>
        <time>2020-11-11T20:21:19Z</time>
      </trkpt>
      <trkpt lat="28.1590120" lon="-16.6365100">
        <ele>1370.9</ele>
        <time>2020-11-11T20:21:20Z</time>
      </trkpt>
      <trkpt lat="28.1589970" lon="-16.6365580">
        <ele>1370.9</ele>
        <time>2020-11-11T20:21:21Z</time>
      </trkpt>
      <trkpt lat="28.1589970" lon="-16.6365580">
        <ele>1370.9</ele>
        <time>2020-11-11T20:21:22Z</time>
      </trkpt>
      <trkpt lat="28.1589820" lon="-16.6365950">
        <ele>1370.9</ele>
        <time>2020-11-11T20:21:23Z</time>
      </trkpt>
      <trkpt lat="28.1589820" lon="-16.6365950">
        <ele>1370.9</ele>
        <time>2020-11-11T20:21:24Z</time>
      </trkpt>
      <trkpt lat="28.1589580" lon="-16.6366180">
        <ele>1369.9</ele>
        <time>2020-11-11T20:21:25Z</time>
      </trkpt>
      <trkpt lat="28.1589180" lon="-16.6366220">
        <ele>1369.9</ele>
        <time>2020-11-11T20:21:26Z</time>
      </trkpt>
      <trkpt lat="28.1589180" lon="-16.6366220">
        <ele>1369.9</ele>
        <time>2020-11-11T20:21:27Z</time>
      </trkpt>
      <trkpt lat="28.1588930" lon="-16.6366130">
        <ele>1369.9</ele>
        <time>2020-11-11T20:21:28Z</time>
      </trkpt>
      <trkpt lat="28.1588930" lon="-16.6366130">
        <ele>1368.9</ele>
        <time>2020-11-11T20:21:29Z</time>
      </trkpt>
      <trkpt lat="28.1588400" lon="-16.6365870">
        <ele>1368.9</ele>
        <time>2020-11-11T20:21:30Z</time>
      </trkpt>
      <trkpt lat="28.1587870" lon="-16.6365550">
        <ele>1368.9</ele>
        <time>2020-11-11T20:21:31Z</time>
      </trkpt>
      <trkpt lat="28.1587870" lon="-16.6365550">
        <ele>1368.9</ele>
        <time>2020-11-11T20:21:32Z</time>
      </trkpt>
      <trkpt lat="28.1587330" lon="-16.6365220">
        <ele>1367.9</ele>
        <time>2020-11-11T20:21:33Z</time>
      </trkpt>
      <trkpt lat="28.1587030" lon="-16.6365030">
        <ele>1367.9</ele>
        <time>2020-11-11T20:21:34Z</time>
      </trkpt>
      <trkpt lat="28.1587030" lon="-16.6365030">
        <ele>1366.9</ele>
        <time>2020-11-11T20:21:35Z</time>
      </trkpt>
      <trkpt lat="28.1586530" lon="-16.6364800">
        <ele>1366.9</ele>
        <time>2020-11-11T20:21:36Z</time>
      </trkpt>
      <trkpt lat="28.1586530" lon="-16.6364800">
        <ele>1366.9</ele>
        <time>2020-11-11T20:21:37Z</time>
      </trkpt>
      <trkpt lat="28.1586030" lon="-16.6365030">
        <ele>1366.9</ele>
        <time>2020-11-11T20:21:38Z</time>
      </trkpt>
      <trkpt lat="28.1585930" lon="-16.6365390">
        <ele>1364.9</ele>
        <time>2020-11-11T20:21:39Z</time>
      </trkpt>
      <trkpt lat="28.1585830" lon="-16.6365750">
        <ele>1364.9</ele>
        <time>2020-11-11T20:21:40Z</time>
      </trkpt>
      <trkpt lat="28.1585830" lon="-16.6365750">
        <ele>1364.9</ele>
        <time>2020-11-11T20:21:41Z</time>
      </trkpt>
      <trkpt lat="28.1585830" lon="-16.6365750">
        <ele>1363.9</ele>
        <time>2020-11-11T20:21:42Z</time>
      </trkpt>
      <trkpt lat="28.1585720" lon="-16.6366570">
        <ele>1363.9</ele>
        <time>2020-11-11T20:21:43Z</time>
      </trkpt>
      <trkpt lat="28.1585570" lon="-16.6367370">
        <ele>1363.9</ele>
        <time>2020-11-11T20:21:44Z</time>
      </trkpt>
      <trkpt lat="28.1585570" lon="-16.6367370">
        <ele>1363.9</ele>
        <time>2020-11-11T20:21:45Z</time>
      </trkpt>
      <trkpt lat="28.1585570" lon="-16.6367370">
        <ele>1362.9</ele>
        <time>2020-11-11T20:21:46Z</time>
      </trkpt>
      <trkpt lat="28.1585370" lon="-16.6368170">
        <ele>1362.9</ele>
        <time>2020-11-11T20:21:47Z</time>
      </trkpt>
      <trkpt lat="28.1585370" lon="-16.6368170">
        <ele>1361.9</ele>
        <time>2020-11-11T20:21:48Z</time>
      </trkpt>
      <trkpt lat="28.1585130" lon="-16.6369050">
        <ele>1361.9</ele>
        <time>2020-11-11T20:21:49Z</time>
      </trkpt>
      <trkpt lat="28.1585020" lon="-16.6369430">
        <ele>1360.9</ele>
        <time>2020-11-11T20:21:50Z</time>
      </trkpt>
      <trkpt lat="28.1584850" lon="-16.6370070">
        <ele>1360.9</ele>
        <time>2020-11-11T20:21:51Z</time>
      </trkpt>
      <trkpt lat="28.1584850" lon="-16.6370070">
        <ele>1359.9</ele>
        <time>2020-11-11T20:21:52Z</time>
      </trkpt>
      <trkpt lat="28.1584800" lon="-16.6370300">
        <ele>1359.9</ele>
        <time>2020-11-11T20:21:53Z</time>
      </trkpt>
      <trkpt lat="28.1584700" lon="-16.6370470">
        <ele>1358.9</ele>
        <time>2020-11-11T20:21:54Z</time>
      </trkpt>
      <trkpt lat="28.1584600" lon="-16.6370630">
        <ele>1358.9</ele>
        <time>2020-11-11T20:21:55Z</time>
      </trkpt>
      <trkpt lat="28.1584600" lon="-16.6370630">
        <ele>1358.9</ele>
        <time>2020-11-11T20:21:56Z</time>
      </trkpt>
      <trkpt lat="28.1584500" lon="-16.6370850">
        <ele>1358.9</ele>
        <time>2020-11-11T20:21:57Z</time>
      </trkpt>
      <trkpt lat="28.1584500" lon="-16.6370920">
        <ele>1356.9</ele>
        <time>2020-11-11T20:21:58Z</time>
      </trkpt>
      <trkpt lat="28.1584500" lon="-16.6370920">
        <ele>1356.9</ele>
        <time>2020-11-11T20:22:05Z</time>
      </trkpt>
      <trkpt lat="28.1584650" lon="-16.6371630">
        <ele>1356.9</ele>
        <time>2020-11-11T20:22:06Z</time>
      </trkpt>
      <trkpt lat="28.1584580" lon="-16.6371880">
        <ele>1356.9</ele>
        <time>2020-11-11T20:22:07Z</time>
      </trkpt>
      <trkpt lat="28.1584580" lon="-16.6371880">
        <ele>1356.9</ele>
        <time>2020-11-11T20:22:08Z</time>
      </trkpt>
      <trkpt lat="28.1584420" lon="-16.6372520">
        <ele>1355.9</ele>
        <time>2020-11-11T20:22:09Z</time>
      </trkpt>
      <trkpt lat="28.1584300" lon="-16.6372830">
        <ele>1355.9</ele>
        <time>2020-11-11T20:22:10Z</time>
      </trkpt>
      <trkpt lat="28.1584300" lon="-16.6372830">
        <ele>1354.9</ele>
        <time>2020-11-11T20:22:11Z</time>
      </trkpt>
      <trkpt lat="28.1583950" lon="-16.6373450">
        <ele>1354.9</ele>
        <time>2020-11-11T20:22:12Z</time>
      </trkpt>
      <trkpt lat="28.1583350" lon="-16.6373780">
        <ele>1353.9</ele>
        <time>2020-11-11T20:22:13Z</time>
      </trkpt>
      <trkpt lat="28.1583350" lon="-16.6373780">
        <ele>1353.9</ele>
        <time>2020-11-11T20:22:14Z</time>
      </trkpt>
      <trkpt lat="28.1583350" lon="-16.6373780">
        <ele>1353.9</ele>
        <time>2020-11-11T20:22:15Z</time>
      </trkpt>
      <trkpt lat="28.1582570" lon="-16.6373950">
        <ele>1352.9</ele>
        <time>2020-11-11T20:22:16Z</time>
      </trkpt>
      <trkpt lat="28.1582570" lon="-16.6373950">
        <ele>1352.9</ele>
        <time>2020-11-11T20:22:17Z</time>
      </trkpt>
      <trkpt lat="28.1581770" lon="-16.6374120">
        <ele>1352.9</ele>
        <time>2020-11-11T20:22:18Z</time>
      </trkpt>
      <trkpt lat="28.1581030" lon="-16.6374300">
        <ele>1352.9</ele>
        <time>2020-11-11T20:22:19Z</time>
      </trkpt>
      <trkpt lat="28.1581030" lon="-16.6374300">
        <ele>1351.9</ele>
        <time>2020-11-11T20:22:20Z</time>
      </trkpt>
      <trkpt lat="28.1580250" lon="-16.6374350">
        <ele>1351.9</ele>
        <time>2020-11-11T20:22:21Z</time>
      </trkpt>
      <trkpt lat="28.1580250" lon="-16.6374350">
        <ele>1351.9</ele>
        <time>2020-11-11T20:22:22Z</time>
      </trkpt>
      <trkpt lat="28.1580250" lon="-16.6374350">
        <ele>1351.9</ele>
        <time>2020-11-11T20:22:23Z</time>
      </trkpt>
      <trkpt lat="28.1579270" lon="-16.6374370">
        <ele>1351.9</ele>
        <time>2020-11-11T20:22:24Z</time>
      </trkpt>
      <trkpt lat="28.1578800" lon="-16.6374410">
        <ele>1351.9</ele>
        <time>2020-11-11T20:22:25Z</time>
      </trkpt>
      <trkpt lat="28.1578330" lon="-16.6374450">
        <ele>1351.9</ele>
        <time>2020-11-11T20:22:26Z</time>
      </trkpt>
      <trkpt lat="28.1578330" lon="-16.6374450">
        <ele>1351.9</ele>
        <time>2020-11-11T20:22:27Z</time>
      </trkpt>
      <trkpt lat="28.1577080" lon="-16.6374330">
        <ele>1351.9</ele>
        <time>2020-11-11T20:22:28Z</time>
      </trkpt>
      <trkpt lat="28.1577080" lon="-16.6374330">
        <ele>1351.9</ele>
        <time>2020-11-11T20:22:29Z</time>
      </trkpt>
      <trkpt lat="28.1576270" lon="-16.6374250">
        <ele>1351.9</ele>
        <time>2020-11-11T20:22:30Z</time>
      </trkpt>
      <trkpt lat="28.1576270" lon="-16.6374250">
        <ele>1351.9</ele>
        <time>2020-11-11T20:22:31Z</time>
      </trkpt>
      <trkpt lat="28.1575500" lon="-16.6374100">
        <ele>1351.9</ele>
        <time>2020-11-11T20:22:32Z</time>
      </trkpt>
      <trkpt lat="28.1575500" lon="-16.6374100">
        <ele>1351.9</ele>
        <time>2020-11-11T20:22:33Z</time>
      </trkpt>
      <trkpt lat="28.1574730" lon="-16.6374000">
        <ele>1351.9</ele>
        <time>2020-11-11T20:22:34Z</time>
      </trkpt>
      <trkpt lat="28.1574730" lon="-16.6374000">
        <ele>1351.9</ele>
        <time>2020-11-11T20:22:35Z</time>
      </trkpt>
      <trkpt lat="28.1574330" lon="-16.6373920">
        <ele>1351.9</ele>
        <time>2020-11-11T20:22:36Z</time>
      </trkpt>
      <trkpt lat="28.1573570" lon="-16.6373870">
        <ele>1351.9</ele>
        <time>2020-11-11T20:22:37Z</time>
      </trkpt>
      <trkpt lat="28.1573570" lon="-16.6373870">
        <ele>1351.9</ele>
        <time>2020-11-11T20:22:38Z</time>
      </trkpt>
      <trkpt lat="28.1573170" lon="-16.6373900">
        <ele>1351.9</ele>
        <time>2020-11-11T20:22:39Z</time>
      </trkpt>
      <trkpt lat="28.1572770" lon="-16.6373930">
        <ele>1351.9</ele>
        <time>2020-11-11T20:22:40Z</time>
      </trkpt>
      <trkpt lat="28.1572770" lon="-16.6373930">
        <ele>1351.9</ele>
        <time>2020-11-11T20:22:41Z</time>
      </trkpt>
      <trkpt lat="28.1571850" lon="-16.6373880">
        <ele>1351.9</ele>
        <time>2020-11-11T20:22:42Z</time>
      </trkpt>
      <trkpt lat="28.1571000" lon="-16.6373780">
        <ele>1351.9</ele>
        <time>2020-11-11T20:22:43Z</time>
      </trkpt>
      <trkpt lat="28.1570720" lon="-16.6373780">
        <ele>1351.9</ele>
        <time>2020-11-11T20:22:44Z</time>
      </trkpt>
      <trkpt lat="28.1570430" lon="-16.6373780">
        <ele>1351.9</ele>
        <time>2020-11-11T20:22:45Z</time>
      </trkpt>
      <trkpt lat="28.1569280" lon="-16.6373730">
        <ele>1351.9</ele>
        <time>2020-11-11T20:22:46Z</time>
      </trkpt>
      <trkpt lat="28.1569280" lon="-16.6373730">
        <ele>1351.9</ele>
        <time>2020-11-11T20:22:47Z</time>
      </trkpt>
      <trkpt lat="28.1569280" lon="-16.6373730">
        <ele>1350.9</ele>
        <time>2020-11-11T20:22:48Z</time>
      </trkpt>
      <trkpt lat="28.1568030" lon="-16.6373720">
        <ele>1350.9</ele>
        <time>2020-11-11T20:22:49Z</time>
      </trkpt>
      <trkpt lat="28.1567740" lon="-16.6373690">
        <ele>1350.9</ele>
        <time>2020-11-11T20:22:50Z</time>
      </trkpt>
      <trkpt lat="28.1567440" lon="-16.6373670">
        <ele>1350.9</ele>
        <time>2020-11-11T20:22:51Z</time>
      </trkpt>
      <trkpt lat="28.1566850" lon="-16.6373620">
        <ele>1348.9</ele>
        <time>2020-11-11T20:22:52Z</time>
      </trkpt>
      <trkpt lat="28.1565480" lon="-16.6373710">
        <ele>1348.9</ele>
        <time>2020-11-11T20:22:53Z</time>
      </trkpt>
      <trkpt lat="28.1565330" lon="-16.6373740">
        <ele>1348.9</ele>
        <time>2020-11-11T20:22:54Z</time>
      </trkpt>
      <trkpt lat="28.1565020" lon="-16.6373800">
        <ele>1348.9</ele>
        <time>2020-11-11T20:22:55Z</time>
      </trkpt>
      <trkpt lat="28.1563820" lon="-16.6374000">
        <ele>1347.9</ele>
        <time>2020-11-11T20:22:56Z</time>
      </trkpt>
      <trkpt lat="28.1562600" lon="-16.6374170">
        <ele>1347.9</ele>
        <time>2020-11-11T20:22:57Z</time>
      </trkpt>
      <trkpt lat="28.1562450" lon="-16.6374210">
        <ele>1346.9</ele>
        <time>2020-11-11T20:22:58Z</time>
      </trkpt>
      <trkpt lat="28.1562300" lon="-16.6374240">
        <ele>1345.9</ele>
        <time>2020-11-11T20:22:59Z</time>
      </trkpt>
      <trkpt lat="28.1562000" lon="-16.6374300">
        <ele>1345.9</ele>
        <time>2020-11-11T20:23:00Z</time>
      </trkpt>
      <trkpt lat="28.1560830" lon="-16.6374580">
        <ele>1344.9</ele>
        <time>2020-11-11T20:23:01Z</time>
      </trkpt>
      <trkpt lat="28.1560830" lon="-16.6374580">
        <ele>1344.9</ele>
        <time>2020-11-11T20:23:02Z</time>
      </trkpt>
      <trkpt lat="28.1559730" lon="-16.6374800">
        <ele>1344.9</ele>
        <time>2020-11-11T20:23:03Z</time>
      </trkpt>
      <trkpt lat="28.1559730" lon="-16.6374800">
        <ele>1344.9</ele>
        <time>2020-11-11T20:23:04Z</time>
      </trkpt>
      <trkpt lat="28.1558750" lon="-16.6374920">
        <ele>1343.9</ele>
        <time>2020-11-11T20:23:05Z</time>
      </trkpt>
      <trkpt lat="28.1558750" lon="-16.6374920">
        <ele>1343.9</ele>
        <time>2020-11-11T20:23:06Z</time>
      </trkpt>
      <trkpt lat="28.1557550" lon="-16.6375370">
        <ele>1343.9</ele>
        <time>2020-11-11T20:23:07Z</time>
      </trkpt>
      <trkpt lat="28.1556950" lon="-16.6375550">
        <ele>1343.9</ele>
        <time>2020-11-11T20:23:08Z</time>
      </trkpt>
      <trkpt lat="28.1556380" lon="-16.6375730">
        <ele>1343.9</ele>
        <time>2020-11-11T20:23:09Z</time>
      </trkpt>
      <trkpt lat="28.1555800" lon="-16.6375910">
        <ele>1343.9</ele>
        <time>2020-11-11T20:23:10Z</time>
      </trkpt>
      <trkpt lat="28.1554650" lon="-16.6376270">
        <ele>1343.9</ele>
        <time>2020-11-11T20:23:11Z</time>
      </trkpt>
      <trkpt lat="28.1554650" lon="-16.6376270">
        <ele>1343.9</ele>
        <time>2020-11-11T20:23:12Z</time>
      </trkpt>
      <trkpt lat="28.1553730" lon="-16.6376620">
        <ele>1343.9</ele>
        <time>2020-11-11T20:23:13Z</time>
      </trkpt>
      <trkpt lat="28.1553730" lon="-16.6376620">
        <ele>1343.9</ele>
        <time>2020-11-11T20:23:14Z</time>
      </trkpt>
      <trkpt lat="28.1553270" lon="-16.6376880">
        <ele>1343.9</ele>
        <time>2020-11-11T20:23:15Z</time>
      </trkpt>
      <trkpt lat="28.1552800" lon="-16.6377130">
        <ele>1343.9</ele>
        <time>2020-11-11T20:23:16Z</time>
      </trkpt>
      <trkpt lat="28.1551930" lon="-16.6377830">
        <ele>1343.9</ele>
        <time>2020-11-11T20:23:17Z</time>
      </trkpt>
      <trkpt lat="28.1551930" lon="-16.6377830">
        <ele>1343.9</ele>
        <time>2020-11-11T20:23:18Z</time>
      </trkpt>
      <trkpt lat="28.1551930" lon="-16.6377830">
        <ele>1343.9</ele>
        <time>2020-11-11T20:23:19Z</time>
      </trkpt>
      <trkpt lat="28.1551150" lon="-16.6378620">
        <ele>1343.9</ele>
        <time>2020-11-11T20:23:20Z</time>
      </trkpt>
      <trkpt lat="28.1551150" lon="-16.6378620">
        <ele>1343.9</ele>
        <time>2020-11-11T20:23:21Z</time>
      </trkpt>
      <trkpt lat="28.1550280" lon="-16.6379250">
        <ele>1343.9</ele>
        <time>2020-11-11T20:23:22Z</time>
      </trkpt>
      <trkpt lat="28.1550280" lon="-16.6379250">
        <ele>1343.9</ele>
        <time>2020-11-11T20:23:23Z</time>
      </trkpt>
      <trkpt lat="28.1549380" lon="-16.6379770">
        <ele>1343.9</ele>
        <time>2020-11-11T20:23:24Z</time>
      </trkpt>
      <trkpt lat="28.1548470" lon="-16.6380300">
        <ele>1343.9</ele>
        <time>2020-11-11T20:23:25Z</time>
      </trkpt>
      <trkpt lat="28.1548470" lon="-16.6380300">
        <ele>1343.9</ele>
        <time>2020-11-11T20:23:26Z</time>
      </trkpt>
      <trkpt lat="28.1548470" lon="-16.6380300">
        <ele>1343.9</ele>
        <time>2020-11-11T20:23:27Z</time>
      </trkpt>
      <trkpt lat="28.1547200" lon="-16.6381280">
        <ele>1343.9</ele>
        <time>2020-11-11T20:23:28Z</time>
      </trkpt>
      <trkpt lat="28.1547200" lon="-16.6381280">
        <ele>1343.9</ele>
        <time>2020-11-11T20:23:29Z</time>
      </trkpt>
      <trkpt lat="28.1547200" lon="-16.6381280">
        <ele>1343.9</ele>
        <time>2020-11-11T20:23:30Z</time>
      </trkpt>
      <trkpt lat="28.1546110" lon="-16.6382080">
        <ele>1342.9</ele>
        <time>2020-11-11T20:23:31Z</time>
      </trkpt>
      <trkpt lat="28.1545880" lon="-16.6382230">
        <ele>1342.9</ele>
        <time>2020-11-11T20:23:32Z</time>
      </trkpt>
      <trkpt lat="28.1545000" lon="-16.6382830">
        <ele>1342.9</ele>
        <time>2020-11-11T20:23:33Z</time>
      </trkpt>
      <trkpt lat="28.1545000" lon="-16.6382830">
        <ele>1342.9</ele>
        <time>2020-11-11T20:23:34Z</time>
      </trkpt>
      <trkpt lat="28.1544150" lon="-16.6383530">
        <ele>1342.9</ele>
        <time>2020-11-11T20:23:35Z</time>
      </trkpt>
      <trkpt lat="28.1544150" lon="-16.6383530">
        <ele>1342.9</ele>
        <time>2020-11-11T20:23:36Z</time>
      </trkpt>
      <trkpt lat="28.1544150" lon="-16.6383530">
        <ele>1342.9</ele>
        <time>2020-11-11T20:23:37Z</time>
      </trkpt>
      <trkpt lat="28.1543280" lon="-16.6384120">
        <ele>1341.9</ele>
        <time>2020-11-11T20:23:38Z</time>
      </trkpt>
      <trkpt lat="28.1543280" lon="-16.6384120">
        <ele>1341.9</ele>
        <time>2020-11-11T20:23:39Z</time>
      </trkpt>
      <trkpt lat="28.1542330" lon="-16.6384550">
        <ele>1341.9</ele>
        <time>2020-11-11T20:23:40Z</time>
      </trkpt>
      <trkpt lat="28.1541270" lon="-16.6384730">
        <ele>1341.9</ele>
        <time>2020-11-11T20:23:41Z</time>
      </trkpt>
      <trkpt lat="28.1541270" lon="-16.6384730">
        <ele>1341.9</ele>
        <time>2020-11-11T20:23:42Z</time>
      </trkpt>
      <trkpt lat="28.1540150" lon="-16.6384920">
        <ele>1341.9</ele>
        <time>2020-11-11T20:23:43Z</time>
      </trkpt>
      <trkpt lat="28.1540150" lon="-16.6384920">
        <ele>1341.9</ele>
        <time>2020-11-11T20:23:44Z</time>
      </trkpt>
      <trkpt lat="28.1539070" lon="-16.6385380">
        <ele>1341.9</ele>
        <time>2020-11-11T20:23:45Z</time>
      </trkpt>
      <trkpt lat="28.1538820" lon="-16.6385580">
        <ele>1341.9</ele>
        <time>2020-11-11T20:23:46Z</time>
      </trkpt>
      <trkpt lat="28.1538570" lon="-16.6385780">
        <ele>1341.9</ele>
        <time>2020-11-11T20:23:47Z</time>
      </trkpt>
      <trkpt lat="28.1537960" lon="-16.6386300">
        <ele>1340.9</ele>
        <time>2020-11-11T20:23:48Z</time>
      </trkpt>
      <trkpt lat="28.1537850" lon="-16.6386420">
        <ele>1340.9</ele>
        <time>2020-11-11T20:23:49Z</time>
      </trkpt>
      <trkpt lat="28.1537630" lon="-16.6386670">
        <ele>1340.9</ele>
        <time>2020-11-11T20:23:50Z</time>
      </trkpt>
      <trkpt lat="28.1536520" lon="-16.6388570">
        <ele>1340.9</ele>
        <time>2020-11-11T20:23:51Z</time>
      </trkpt>
      <trkpt lat="28.1536520" lon="-16.6388570">
        <ele>1338.9</ele>
        <time>2020-11-11T20:23:52Z</time>
      </trkpt>
      <trkpt lat="28.1536020" lon="-16.6390050">
        <ele>1338.9</ele>
        <time>2020-11-11T20:23:53Z</time>
      </trkpt>
      <trkpt lat="28.1536020" lon="-16.6390050">
        <ele>1338.9</ele>
        <time>2020-11-11T20:23:54Z</time>
      </trkpt>
      <trkpt lat="28.1535830" lon="-16.6391630">
        <ele>1338.9</ele>
        <time>2020-11-11T20:23:55Z</time>
      </trkpt>
      <trkpt lat="28.1535830" lon="-16.6391630">
        <ele>1337.9</ele>
        <time>2020-11-11T20:23:56Z</time>
      </trkpt>
      <trkpt lat="28.1535830" lon="-16.6391630">
        <ele>1337.9</ele>
        <time>2020-11-11T20:23:57Z</time>
      </trkpt>
      <trkpt lat="28.1535820" lon="-16.6393200">
        <ele>1337.9</ele>
        <time>2020-11-11T20:23:58Z</time>
      </trkpt>
      <trkpt lat="28.1535780" lon="-16.6394730">
        <ele>1337.9</ele>
        <time>2020-11-11T20:23:59Z</time>
      </trkpt>
      <trkpt lat="28.1535780" lon="-16.6394730">
        <ele>1336.9</ele>
        <time>2020-11-11T20:24:00Z</time>
      </trkpt>
      <trkpt lat="28.1535780" lon="-16.6394730">
        <ele>1336.9</ele>
        <time>2020-11-11T20:24:01Z</time>
      </trkpt>
      <trkpt lat="28.1535630" lon="-16.6396230">
        <ele>1335.9</ele>
        <time>2020-11-11T20:24:02Z</time>
      </trkpt>
      <trkpt lat="28.1535320" lon="-16.6397620">
        <ele>1335.9</ele>
        <time>2020-11-11T20:24:03Z</time>
      </trkpt>
      <trkpt lat="28.1535230" lon="-16.6397950">
        <ele>1334.9</ele>
        <time>2020-11-11T20:24:04Z</time>
      </trkpt>
      <trkpt lat="28.1535130" lon="-16.6398270">
        <ele>1334.9</ele>
        <time>2020-11-11T20:24:05Z</time>
      </trkpt>
      <trkpt lat="28.1534830" lon="-16.6399320">
        <ele>1333.9</ele>
        <time>2020-11-11T20:24:06Z</time>
      </trkpt>
      <trkpt lat="28.1534730" lon="-16.6399720">
        <ele>1333.9</ele>
        <time>2020-11-11T20:24:07Z</time>
      </trkpt>
      <trkpt lat="28.1534520" lon="-16.6400520">
        <ele>1333.9</ele>
        <time>2020-11-11T20:24:08Z</time>
      </trkpt>
      <trkpt lat="28.1534520" lon="-16.6400520">
        <ele>1333.9</ele>
        <time>2020-11-11T20:24:09Z</time>
      </trkpt>
      <trkpt lat="28.1533900" lon="-16.6401080">
        <ele>1333.9</ele>
        <time>2020-11-11T20:24:10Z</time>
      </trkpt>
      <trkpt lat="28.1533900" lon="-16.6401080">
        <ele>1333.9</ele>
        <time>2020-11-11T20:24:11Z</time>
      </trkpt>
      <trkpt lat="28.1533430" lon="-16.6401130">
        <ele>1333.9</ele>
        <time>2020-11-11T20:24:12Z</time>
      </trkpt>
      <trkpt lat="28.1533430" lon="-16.6401130">
        <ele>1333.9</ele>
        <time>2020-11-11T20:24:13Z</time>
      </trkpt>
      <trkpt lat="28.1532450" lon="-16.6400770">
        <ele>1332.9</ele>
        <time>2020-11-11T20:24:14Z</time>
      </trkpt>
      <trkpt lat="28.1532450" lon="-16.6400770">
        <ele>1332.9</ele>
        <time>2020-11-11T20:24:15Z</time>
      </trkpt>
      <trkpt lat="28.1531650" lon="-16.6400180">
        <ele>1332.9</ele>
        <time>2020-11-11T20:24:16Z</time>
      </trkpt>
      <trkpt lat="28.1531650" lon="-16.6400180">
        <ele>1331.9</ele>
        <time>2020-11-11T20:24:17Z</time>
      </trkpt>
      <trkpt lat="28.1530880" lon="-16.6399470">
        <ele>1331.9</ele>
        <time>2020-11-11T20:24:18Z</time>
      </trkpt>
      <trkpt lat="28.1530880" lon="-16.6399470">
        <ele>1331.9</ele>
        <time>2020-11-11T20:24:19Z</time>
      </trkpt>
      <trkpt lat="28.1530490" lon="-16.6399400">
        <ele>1331.9</ele>
        <time>2020-11-11T20:24:20Z</time>
      </trkpt>
      <trkpt lat="28.1530100" lon="-16.6399330">
        <ele>1331.9</ele>
        <time>2020-11-11T20:24:21Z</time>
      </trkpt>
      <trkpt lat="28.1529180" lon="-16.6399450">
        <ele>1331.9</ele>
        <time>2020-11-11T20:24:22Z</time>
      </trkpt>
      <trkpt lat="28.1528950" lon="-16.6399490">
        <ele>1330.9</ele>
        <time>2020-11-11T20:24:23Z</time>
      </trkpt>
      <trkpt lat="28.1528720" lon="-16.6399530">
        <ele>1330.9</ele>
        <time>2020-11-11T20:24:24Z</time>
      </trkpt>
      <trkpt lat="28.1527980" lon="-16.6399520">
        <ele>1330.9</ele>
        <time>2020-11-11T20:24:25Z</time>
      </trkpt>
      <trkpt lat="28.1527980" lon="-16.6399520">
        <ele>1330.9</ele>
        <time>2020-11-11T20:24:26Z</time>
      </trkpt>
      <trkpt lat="28.1527980" lon="-16.6399520">
        <ele>1329.9</ele>
        <time>2020-11-11T20:24:27Z</time>
      </trkpt>
      <trkpt lat="28.1527600" lon="-16.6399350">
        <ele>1329.9</ele>
        <time>2020-11-11T20:24:28Z</time>
      </trkpt>
      <trkpt lat="28.1527600" lon="-16.6399350">
        <ele>1329.9</ele>
        <time>2020-11-11T20:24:29Z</time>
      </trkpt>
      <trkpt lat="28.1527670" lon="-16.6399070">
        <ele>1329.9</ele>
        <time>2020-11-11T20:24:30Z</time>
      </trkpt>
      <trkpt lat="28.1527670" lon="-16.6399070">
        <ele>1328.9</ele>
        <time>2020-11-11T20:24:31Z</time>
      </trkpt>
      <trkpt lat="28.1527730" lon="-16.6399020">
        <ele>1328.9</ele>
        <time>2020-11-11T20:24:32Z</time>
      </trkpt>
      <trkpt lat="28.1527730" lon="-16.6399020">
        <ele>1328.9</ele>
        <time>2020-11-11T20:25:22Z</time>
      </trkpt>
      <trkpt lat="28.1527900" lon="-16.6399350">
        <ele>1328.9</ele>
        <time>2020-11-11T20:25:23Z</time>
      </trkpt>
      <trkpt lat="28.1527900" lon="-16.6399350">
        <ele>1328.9</ele>
        <time>2020-11-11T20:25:24Z</time>
      </trkpt>
      <trkpt lat="28.1527880" lon="-16.6399420">
        <ele>1328.9</ele>
        <time>2020-11-11T20:25:25Z</time>
      </trkpt>
      <trkpt lat="28.1527420" lon="-16.6399670">
        <ele>1328.9</ele>
        <time>2020-11-11T20:25:29Z</time>
      </trkpt>
      <trkpt lat="28.1527420" lon="-16.6399670">
        <ele>1328.9</ele>
        <time>2020-11-11T20:25:30Z</time>
      </trkpt>
      <trkpt lat="28.1526850" lon="-16.6399700">
        <ele>1328.9</ele>
        <time>2020-11-11T20:25:31Z</time>
      </trkpt>
      <trkpt lat="28.1526850" lon="-16.6399700">
        <ele>1328.9</ele>
        <time>2020-11-11T20:25:32Z</time>
      </trkpt>
      <trkpt lat="28.1526170" lon="-16.6399800">
        <ele>1328.9</ele>
        <time>2020-11-11T20:25:33Z</time>
      </trkpt>
      <trkpt lat="28.1526170" lon="-16.6399800">
        <ele>1328.9</ele>
        <time>2020-11-11T20:25:34Z</time>
      </trkpt>
      <trkpt lat="28.1525370" lon="-16.6399950">
        <ele>1327.9</ele>
        <time>2020-11-11T20:25:35Z</time>
      </trkpt>
      <trkpt lat="28.1525370" lon="-16.6399950">
        <ele>1327.9</ele>
        <time>2020-11-11T20:25:36Z</time>
      </trkpt>
      <trkpt lat="28.1524470" lon="-16.6400080">
        <ele>1327.9</ele>
        <time>2020-11-11T20:25:37Z</time>
      </trkpt>
      <trkpt lat="28.1523980" lon="-16.6400180">
        <ele>1327.9</ele>
        <time>2020-11-11T20:25:38Z</time>
      </trkpt>
      <trkpt lat="28.1523980" lon="-16.6400180">
        <ele>1326.9</ele>
        <time>2020-11-11T20:25:39Z</time>
      </trkpt>
      <trkpt lat="28.1522980" lon="-16.6400550">
        <ele>1326.9</ele>
        <time>2020-11-11T20:25:40Z</time>
      </trkpt>
      <trkpt lat="28.1522980" lon="-16.6400550">
        <ele>1326.9</ele>
        <time>2020-11-11T20:25:41Z</time>
      </trkpt>
      <trkpt lat="28.1521950" lon="-16.6401270">
        <ele>1326.9</ele>
        <time>2020-11-11T20:25:42Z</time>
      </trkpt>
      <trkpt lat="28.1521370" lon="-16.6401700">
        <ele>1324.9</ele>
        <time>2020-11-11T20:25:43Z</time>
      </trkpt>
      <trkpt lat="28.1521370" lon="-16.6401700">
        <ele>1324.9</ele>
        <time>2020-11-11T20:25:44Z</time>
      </trkpt>
      <trkpt lat="28.1520150" lon="-16.6402780">
        <ele>1324.9</ele>
        <time>2020-11-11T20:25:45Z</time>
      </trkpt>
      <trkpt lat="28.1520150" lon="-16.6402780">
        <ele>1324.9</ele>
        <time>2020-11-11T20:25:46Z</time>
      </trkpt>
      <trkpt lat="28.1518870" lon="-16.6404030">
        <ele>1322.9</ele>
        <time>2020-11-11T20:25:47Z</time>
      </trkpt>
      <trkpt lat="28.1518230" lon="-16.6404630">
        <ele>1322.9</ele>
        <time>2020-11-11T20:25:48Z</time>
      </trkpt>
      <trkpt lat="28.1517580" lon="-16.6405220">
        <ele>1321.9</ele>
        <time>2020-11-11T20:25:49Z</time>
      </trkpt>
      <trkpt lat="28.1517580" lon="-16.6405220">
        <ele>1321.9</ele>
        <time>2020-11-11T20:25:50Z</time>
      </trkpt>
      <trkpt lat="28.1516230" lon="-16.6406250">
        <ele>1321.9</ele>
        <time>2020-11-11T20:25:51Z</time>
      </trkpt>
      <trkpt lat="28.1516230" lon="-16.6406250">
        <ele>1320.9</ele>
        <time>2020-11-11T20:25:52Z</time>
      </trkpt>
      <trkpt lat="28.1514830" lon="-16.6407100">
        <ele>1320.9</ele>
        <time>2020-11-11T20:25:53Z</time>
      </trkpt>
      <trkpt lat="28.1514830" lon="-16.6407100">
        <ele>1320.9</ele>
        <time>2020-11-11T20:25:54Z</time>
      </trkpt>
      <trkpt lat="28.1513450" lon="-16.6407920">
        <ele>1320.9</ele>
        <time>2020-11-11T20:25:55Z</time>
      </trkpt>
      <trkpt lat="28.1513450" lon="-16.6407920">
        <ele>1319.9</ele>
        <time>2020-11-11T20:25:56Z</time>
      </trkpt>
      <trkpt lat="28.1512050" lon="-16.6408550">
        <ele>1319.9</ele>
        <time>2020-11-11T20:25:57Z</time>
      </trkpt>
      <trkpt lat="28.1511350" lon="-16.6408830">
        <ele>1319.9</ele>
        <time>2020-11-11T20:25:58Z</time>
      </trkpt>
      <trkpt lat="28.1510650" lon="-16.6409100">
        <ele>1319.9</ele>
        <time>2020-11-11T20:25:59Z</time>
      </trkpt>
      <trkpt lat="28.1510650" lon="-16.6409100">
        <ele>1319.9</ele>
        <time>2020-11-11T20:26:00Z</time>
      </trkpt>
      <trkpt lat="28.1509270" lon="-16.6409580">
        <ele>1319.9</ele>
        <time>2020-11-11T20:26:01Z</time>
      </trkpt>
      <trkpt lat="28.1508580" lon="-16.6409820">
        <ele>1317.9</ele>
        <time>2020-11-11T20:26:02Z</time>
      </trkpt>
      <trkpt lat="28.1508580" lon="-16.6409820">
        <ele>1317.9</ele>
        <time>2020-11-11T20:26:03Z</time>
      </trkpt>
      <trkpt lat="28.1507270" lon="-16.6410280">
        <ele>1317.9</ele>
        <time>2020-11-11T20:26:04Z</time>
      </trkpt>
      <trkpt lat="28.1506620" lon="-16.6410500">
        <ele>1317.9</ele>
        <time>2020-11-11T20:26:05Z</time>
      </trkpt>
      <trkpt lat="28.1506620" lon="-16.6410500">
        <ele>1317.9</ele>
        <time>2020-11-11T20:26:06Z</time>
      </trkpt>
      <trkpt lat="28.1505320" lon="-16.6410920">
        <ele>1317.9</ele>
        <time>2020-11-11T20:26:07Z</time>
      </trkpt>
      <trkpt lat="28.1505320" lon="-16.6410920">
        <ele>1317.9</ele>
        <time>2020-11-11T20:26:08Z</time>
      </trkpt>
      <trkpt lat="28.1504080" lon="-16.6411380">
        <ele>1317.9</ele>
        <time>2020-11-11T20:26:09Z</time>
      </trkpt>
      <trkpt lat="28.1504080" lon="-16.6411380">
        <ele>1317.9</ele>
        <time>2020-11-11T20:26:10Z</time>
      </trkpt>
      <trkpt lat="28.1502880" lon="-16.6411770">
        <ele>1317.9</ele>
        <time>2020-11-11T20:26:11Z</time>
      </trkpt>
      <trkpt lat="28.1502250" lon="-16.6411930">
        <ele>1317.9</ele>
        <time>2020-11-11T20:26:12Z</time>
      </trkpt>
      <trkpt lat="28.1502250" lon="-16.6411930">
        <ele>1317.9</ele>
        <time>2020-11-11T20:26:13Z</time>
      </trkpt>
      <trkpt lat="28.1501020" lon="-16.6412380">
        <ele>1317.9</ele>
        <time>2020-11-11T20:26:14Z</time>
      </trkpt>
      <trkpt lat="28.1501020" lon="-16.6412380">
        <ele>1317.9</ele>
        <time>2020-11-11T20:26:15Z</time>
      </trkpt>
      <trkpt lat="28.1499820" lon="-16.6412930">
        <ele>1317.9</ele>
        <time>2020-11-11T20:26:16Z</time>
      </trkpt>
      <trkpt lat="28.1499820" lon="-16.6412930">
        <ele>1317.9</ele>
        <time>2020-11-11T20:26:17Z</time>
      </trkpt>
      <trkpt lat="28.1498670" lon="-16.6413550">
        <ele>1317.9</ele>
        <time>2020-11-11T20:26:18Z</time>
      </trkpt>
      <trkpt lat="28.1498670" lon="-16.6413550">
        <ele>1317.9</ele>
        <time>2020-11-11T20:26:19Z</time>
      </trkpt>
      <trkpt lat="28.1497530" lon="-16.6414250">
        <ele>1317.9</ele>
        <time>2020-11-11T20:26:20Z</time>
      </trkpt>
      <trkpt lat="28.1497530" lon="-16.6414250">
        <ele>1317.9</ele>
        <time>2020-11-11T20:26:21Z</time>
      </trkpt>
      <trkpt lat="28.1496450" lon="-16.6414950">
        <ele>1317.9</ele>
        <time>2020-11-11T20:26:22Z</time>
      </trkpt>
      <trkpt lat="28.1495930" lon="-16.6415320">
        <ele>1317.9</ele>
        <time>2020-11-11T20:26:23Z</time>
      </trkpt>
      <trkpt lat="28.1495420" lon="-16.6415720">
        <ele>1317.9</ele>
        <time>2020-11-11T20:26:24Z</time>
      </trkpt>
      <trkpt lat="28.1495420" lon="-16.6415720">
        <ele>1317.9</ele>
        <time>2020-11-11T20:26:25Z</time>
      </trkpt>
      <trkpt lat="28.1494380" lon="-16.6416530">
        <ele>1316.9</ele>
        <time>2020-11-11T20:26:26Z</time>
      </trkpt>
      <trkpt lat="28.1494380" lon="-16.6416530">
        <ele>1316.9</ele>
        <time>2020-11-11T20:26:27Z</time>
      </trkpt>
      <trkpt lat="28.1493380" lon="-16.6417430">
        <ele>1316.9</ele>
        <time>2020-11-11T20:26:28Z</time>
      </trkpt>
      <trkpt lat="28.1493380" lon="-16.6417430">
        <ele>1316.9</ele>
        <time>2020-11-11T20:26:29Z</time>
      </trkpt>
      <trkpt lat="28.1492330" lon="-16.6418400">
        <ele>1316.9</ele>
        <time>2020-11-11T20:26:30Z</time>
      </trkpt>
      <trkpt lat="28.1491770" lon="-16.6418930">
        <ele>1315.9</ele>
        <time>2020-11-11T20:26:31Z</time>
      </trkpt>
      <trkpt lat="28.1491770" lon="-16.6418930">
        <ele>1315.9</ele>
        <time>2020-11-11T20:26:32Z</time>
      </trkpt>
      <trkpt lat="28.1490570" lon="-16.6420050">
        <ele>1315.9</ele>
        <time>2020-11-11T20:26:33Z</time>
      </trkpt>
      <trkpt lat="28.1490570" lon="-16.6420050">
        <ele>1314.9</ele>
        <time>2020-11-11T20:26:34Z</time>
      </trkpt>
      <trkpt lat="28.1489230" lon="-16.6421270">
        <ele>1313.9</ele>
        <time>2020-11-11T20:26:35Z</time>
      </trkpt>
      <trkpt lat="28.1489230" lon="-16.6421270">
        <ele>1313.9</ele>
        <time>2020-11-11T20:26:36Z</time>
      </trkpt>
      <trkpt lat="28.1487770" lon="-16.6422570">
        <ele>1312.9</ele>
        <time>2020-11-11T20:26:37Z</time>
      </trkpt>
      <trkpt lat="28.1487770" lon="-16.6422570">
        <ele>1312.9</ele>
        <time>2020-11-11T20:26:38Z</time>
      </trkpt>
      <trkpt lat="28.1486220" lon="-16.6423930">
        <ele>1311.9</ele>
        <time>2020-11-11T20:26:39Z</time>
      </trkpt>
      <trkpt lat="28.1486220" lon="-16.6423930">
        <ele>1311.9</ele>
        <time>2020-11-11T20:26:40Z</time>
      </trkpt>
      <trkpt lat="28.1484580" lon="-16.6425400">
        <ele>1310.9</ele>
        <time>2020-11-11T20:26:41Z</time>
      </trkpt>
      <trkpt lat="28.1483730" lon="-16.6426120">
        <ele>1310.9</ele>
        <time>2020-11-11T20:26:42Z</time>
      </trkpt>
      <trkpt lat="28.1483730" lon="-16.6426120">
        <ele>1309.9</ele>
        <time>2020-11-11T20:26:43Z</time>
      </trkpt>
      <trkpt lat="28.1481980" lon="-16.6427550">
        <ele>1309.9</ele>
        <time>2020-11-11T20:26:44Z</time>
      </trkpt>
      <trkpt lat="28.1481980" lon="-16.6427550">
        <ele>1309.9</ele>
        <time>2020-11-11T20:26:45Z</time>
      </trkpt>
      <trkpt lat="28.1480100" lon="-16.6428930">
        <ele>1307.9</ele>
        <time>2020-11-11T20:26:46Z</time>
      </trkpt>
      <trkpt lat="28.1480100" lon="-16.6428930">
        <ele>1307.9</ele>
        <time>2020-11-11T20:26:47Z</time>
      </trkpt>
      <trkpt lat="28.1478120" lon="-16.6430270">
        <ele>1306.9</ele>
        <time>2020-11-11T20:26:48Z</time>
      </trkpt>
      <trkpt lat="28.1478120" lon="-16.6430270">
        <ele>1306.9</ele>
        <time>2020-11-11T20:26:49Z</time>
      </trkpt>
      <trkpt lat="28.1476000" lon="-16.6431500">
        <ele>1304.9</ele>
        <time>2020-11-11T20:26:50Z</time>
      </trkpt>
      <trkpt lat="28.1476000" lon="-16.6431500">
        <ele>1304.9</ele>
        <time>2020-11-11T20:26:51Z</time>
      </trkpt>
      <trkpt lat="28.1473820" lon="-16.6432700">
        <ele>1303.9</ele>
        <time>2020-11-11T20:26:52Z</time>
      </trkpt>
      <trkpt lat="28.1473820" lon="-16.6432700">
        <ele>1303.9</ele>
        <time>2020-11-11T20:26:53Z</time>
      </trkpt>
      <trkpt lat="28.1471580" lon="-16.6433920">
        <ele>1301.9</ele>
        <time>2020-11-11T20:26:54Z</time>
      </trkpt>
      <trkpt lat="28.1471580" lon="-16.6433920">
        <ele>1301.9</ele>
        <time>2020-11-11T20:26:55Z</time>
      </trkpt>
      <trkpt lat="28.1469300" lon="-16.6435170">
        <ele>1299.9</ele>
        <time>2020-11-11T20:26:56Z</time>
      </trkpt>
      <trkpt lat="28.1469300" lon="-16.6435170">
        <ele>1299.9</ele>
        <time>2020-11-11T20:26:57Z</time>
      </trkpt>
      <trkpt lat="28.1466980" lon="-16.6436430">
        <ele>1298.9</ele>
        <time>2020-11-11T20:26:58Z</time>
      </trkpt>
      <trkpt lat="28.1465800" lon="-16.6437070">
        <ele>1298.9</ele>
        <time>2020-11-11T20:26:59Z</time>
      </trkpt>
      <trkpt lat="28.1465800" lon="-16.6437070">
        <ele>1296.9</ele>
        <time>2020-11-11T20:27:00Z</time>
      </trkpt>
      <trkpt lat="28.1463430" lon="-16.6438320">
        <ele>1296.9</ele>
        <time>2020-11-11T20:27:01Z</time>
      </trkpt>
      <trkpt lat="28.1463430" lon="-16.6438320">
        <ele>1294.9</ele>
        <time>2020-11-11T20:27:02Z</time>
      </trkpt>
      <trkpt lat="28.1461070" lon="-16.6439580">
        <ele>1294.9</ele>
        <time>2020-11-11T20:27:03Z</time>
      </trkpt>
      <trkpt lat="28.1461070" lon="-16.6439580">
        <ele>1291.9</ele>
        <time>2020-11-11T20:27:04Z</time>
      </trkpt>
      <trkpt lat="28.1458670" lon="-16.6440870">
        <ele>1291.9</ele>
        <time>2020-11-11T20:27:05Z</time>
      </trkpt>
      <trkpt lat="28.1458670" lon="-16.6440870">
        <ele>1289.9</ele>
        <time>2020-11-11T20:27:06Z</time>
      </trkpt>
      <trkpt lat="28.1456280" lon="-16.6442130">
        <ele>1286.9</ele>
        <time>2020-11-11T20:27:07Z</time>
      </trkpt>
      <trkpt lat="28.1456280" lon="-16.6442130">
        <ele>1286.9</ele>
        <time>2020-11-11T20:27:08Z</time>
      </trkpt>
      <trkpt lat="28.1453880" lon="-16.6443380">
        <ele>1286.9</ele>
        <time>2020-11-11T20:27:09Z</time>
      </trkpt>
      <trkpt lat="28.1453880" lon="-16.6443380">
        <ele>1284.9</ele>
        <time>2020-11-11T20:27:10Z</time>
      </trkpt>
      <trkpt lat="28.1451450" lon="-16.6444500">
        <ele>1284.9</ele>
        <time>2020-11-11T20:27:11Z</time>
      </trkpt>
      <trkpt lat="28.1451450" lon="-16.6444500">
        <ele>1282.9</ele>
        <time>2020-11-11T20:27:12Z</time>
      </trkpt>
      <trkpt lat="28.1448980" lon="-16.6445570">
        <ele>1282.9</ele>
        <time>2020-11-11T20:27:13Z</time>
      </trkpt>
      <trkpt lat="28.1448980" lon="-16.6445570">
        <ele>1280.9</ele>
        <time>2020-11-11T20:27:14Z</time>
      </trkpt>
      <trkpt lat="28.1446500" lon="-16.6446550">
        <ele>1278.9</ele>
        <time>2020-11-11T20:27:15Z</time>
      </trkpt>
      <trkpt lat="28.1445250" lon="-16.6447070">
        <ele>1278.9</ele>
        <time>2020-11-11T20:27:16Z</time>
      </trkpt>
      <trkpt lat="28.1445250" lon="-16.6447070">
        <ele>1276.9</ele>
        <time>2020-11-11T20:27:17Z</time>
      </trkpt>
      <trkpt lat="28.1442750" lon="-16.6448070">
        <ele>1276.9</ele>
        <time>2020-11-11T20:27:18Z</time>
      </trkpt>
      <trkpt lat="28.1441500" lon="-16.6448550">
        <ele>1275.9</ele>
        <time>2020-11-11T20:27:19Z</time>
      </trkpt>
      <trkpt lat="28.1441500" lon="-16.6448550">
        <ele>1275.9</ele>
        <time>2020-11-11T20:27:20Z</time>
      </trkpt>
      <trkpt lat="28.1439050" lon="-16.6449520">
        <ele>1274.9</ele>
        <time>2020-11-11T20:27:21Z</time>
      </trkpt>
      <trkpt lat="28.1437850" lon="-16.6449950">
        <ele>1274.9</ele>
        <time>2020-11-11T20:27:22Z</time>
      </trkpt>
      <trkpt lat="28.1437850" lon="-16.6449950">
        <ele>1272.9</ele>
        <time>2020-11-11T20:27:23Z</time>
      </trkpt>
      <trkpt lat="28.1435480" lon="-16.6450780">
        <ele>1272.9</ele>
        <time>2020-11-11T20:27:24Z</time>
      </trkpt>
      <trkpt lat="28.1435480" lon="-16.6450780">
        <ele>1271.9</ele>
        <time>2020-11-11T20:27:25Z</time>
      </trkpt>
      <trkpt lat="28.1433200" lon="-16.6451750">
        <ele>1271.9</ele>
        <time>2020-11-11T20:27:26Z</time>
      </trkpt>
      <trkpt lat="28.1433200" lon="-16.6451750">
        <ele>1270.9</ele>
        <time>2020-11-11T20:27:27Z</time>
      </trkpt>
      <trkpt lat="28.1431000" lon="-16.6452870">
        <ele>1270.9</ele>
        <time>2020-11-11T20:27:28Z</time>
      </trkpt>
      <trkpt lat="28.1431000" lon="-16.6452870">
        <ele>1270.9</ele>
        <time>2020-11-11T20:27:29Z</time>
      </trkpt>
      <trkpt lat="28.1428950" lon="-16.6454200">
        <ele>1270.9</ele>
        <time>2020-11-11T20:27:30Z</time>
      </trkpt>
      <trkpt lat="28.1427980" lon="-16.6454930">
        <ele>1269.9</ele>
        <time>2020-11-11T20:27:31Z</time>
      </trkpt>
      <trkpt lat="28.1427030" lon="-16.6455670">
        <ele>1269.9</ele>
        <time>2020-11-11T20:27:32Z</time>
      </trkpt>
      <trkpt lat="28.1426100" lon="-16.6456430">
        <ele>1268.9</ele>
        <time>2020-11-11T20:27:33Z</time>
      </trkpt>
      <trkpt lat="28.1426100" lon="-16.6456430">
        <ele>1268.9</ele>
        <time>2020-11-11T20:27:34Z</time>
      </trkpt>
      <trkpt lat="28.1424420" lon="-16.6458130">
        <ele>1267.9</ele>
        <time>2020-11-11T20:27:35Z</time>
      </trkpt>
      <trkpt lat="28.1424420" lon="-16.6458130">
        <ele>1267.9</ele>
        <time>2020-11-11T20:27:36Z</time>
      </trkpt>
      <trkpt lat="28.1423020" lon="-16.6460120">
        <ele>1266.9</ele>
        <time>2020-11-11T20:27:37Z</time>
      </trkpt>
      <trkpt lat="28.1423020" lon="-16.6460120">
        <ele>1266.9</ele>
        <time>2020-11-11T20:27:38Z</time>
      </trkpt>
      <trkpt lat="28.1422000" lon="-16.6462350">
        <ele>1266.9</ele>
        <time>2020-11-11T20:27:39Z</time>
      </trkpt>
      <trkpt lat="28.1422000" lon="-16.6462350">
        <ele>1264.9</ele>
        <time>2020-11-11T20:27:40Z</time>
      </trkpt>
      <trkpt lat="28.1421200" lon="-16.6464720">
        <ele>1264.9</ele>
        <time>2020-11-11T20:27:41Z</time>
      </trkpt>
      <trkpt lat="28.1420920" lon="-16.6465930">
        <ele>1263.9</ele>
        <time>2020-11-11T20:27:42Z</time>
      </trkpt>
      <trkpt lat="28.1420920" lon="-16.6465930">
        <ele>1263.9</ele>
        <time>2020-11-11T20:27:43Z</time>
      </trkpt>
      <trkpt lat="28.1420600" lon="-16.6468430">
        <ele>1261.9</ele>
        <time>2020-11-11T20:27:44Z</time>
      </trkpt>
      <trkpt lat="28.1420600" lon="-16.6468430">
        <ele>1260.9</ele>
        <time>2020-11-11T20:27:45Z</time>
      </trkpt>
      <trkpt lat="28.1420720" lon="-16.6471000">
        <ele>1260.9</ele>
        <time>2020-11-11T20:27:46Z</time>
      </trkpt>
      <trkpt lat="28.1420720" lon="-16.6471000">
        <ele>1259.9</ele>
        <time>2020-11-11T20:27:47Z</time>
      </trkpt>
      <trkpt lat="28.1421000" lon="-16.6473530">
        <ele>1259.9</ele>
        <time>2020-11-11T20:27:48Z</time>
      </trkpt>
      <trkpt lat="28.1421000" lon="-16.6473530">
        <ele>1258.9</ele>
        <time>2020-11-11T20:27:49Z</time>
      </trkpt>
      <trkpt lat="28.1421330" lon="-16.6476050">
        <ele>1258.9</ele>
        <time>2020-11-11T20:27:50Z</time>
      </trkpt>
      <trkpt lat="28.1421330" lon="-16.6476050">
        <ele>1257.9</ele>
        <time>2020-11-11T20:27:51Z</time>
      </trkpt>
      <trkpt lat="28.1421700" lon="-16.6478520">
        <ele>1257.9</ele>
        <time>2020-11-11T20:27:52Z</time>
      </trkpt>
      <trkpt lat="28.1421700" lon="-16.6478520">
        <ele>1256.9</ele>
        <time>2020-11-11T20:27:53Z</time>
      </trkpt>
      <trkpt lat="28.1422080" lon="-16.6480980">
        <ele>1256.9</ele>
        <time>2020-11-11T20:27:54Z</time>
      </trkpt>
      <trkpt lat="28.1422080" lon="-16.6480980">
        <ele>1255.9</ele>
        <time>2020-11-11T20:27:55Z</time>
      </trkpt>
      <trkpt lat="28.1422450" lon="-16.6483430">
        <ele>1255.9</ele>
        <time>2020-11-11T20:27:56Z</time>
      </trkpt>
      <trkpt lat="28.1422450" lon="-16.6483430">
        <ele>1254.9</ele>
        <time>2020-11-11T20:27:57Z</time>
      </trkpt>
      <trkpt lat="28.1422800" lon="-16.6485880">
        <ele>1254.9</ele>
        <time>2020-11-11T20:27:58Z</time>
      </trkpt>
      <trkpt lat="28.1422800" lon="-16.6485880">
        <ele>1253.9</ele>
        <time>2020-11-11T20:27:59Z</time>
      </trkpt>
      <trkpt lat="28.1423180" lon="-16.6488280">
        <ele>1253.9</ele>
        <time>2020-11-11T20:28:00Z</time>
      </trkpt>
      <trkpt lat="28.1423370" lon="-16.6489480">
        <ele>1252.9</ele>
        <time>2020-11-11T20:28:01Z</time>
      </trkpt>
      <trkpt lat="28.1423370" lon="-16.6489480">
        <ele>1252.9</ele>
        <time>2020-11-11T20:28:02Z</time>
      </trkpt>
      <trkpt lat="28.1423750" lon="-16.6491850">
        <ele>1251.9</ele>
        <time>2020-11-11T20:28:03Z</time>
      </trkpt>
      <trkpt lat="28.1423970" lon="-16.6493020">
        <ele>1251.9</ele>
        <time>2020-11-11T20:28:04Z</time>
      </trkpt>
      <trkpt lat="28.1423970" lon="-16.6493020">
        <ele>1250.9</ele>
        <time>2020-11-11T20:28:05Z</time>
      </trkpt>
      <trkpt lat="28.1424470" lon="-16.6495350">
        <ele>1250.9</ele>
        <time>2020-11-11T20:28:06Z</time>
      </trkpt>
      <trkpt lat="28.1424470" lon="-16.6495350">
        <ele>1248.9</ele>
        <time>2020-11-11T20:28:07Z</time>
      </trkpt>
      <trkpt lat="28.1425030" lon="-16.6497680">
        <ele>1248.9</ele>
        <time>2020-11-11T20:28:08Z</time>
      </trkpt>
      <trkpt lat="28.1425030" lon="-16.6497680">
        <ele>1248.9</ele>
        <time>2020-11-11T20:28:09Z</time>
      </trkpt>
      <trkpt lat="28.1425670" lon="-16.6500030">
        <ele>1248.9</ele>
        <time>2020-11-11T20:28:10Z</time>
      </trkpt>
      <trkpt lat="28.1425670" lon="-16.6500030">
        <ele>1247.9</ele>
        <time>2020-11-11T20:28:11Z</time>
      </trkpt>
      <trkpt lat="28.1426400" lon="-16.6502370">
        <ele>1247.9</ele>
        <time>2020-11-11T20:28:12Z</time>
      </trkpt>
      <trkpt lat="28.1426780" lon="-16.6503570">
        <ele>1246.9</ele>
        <time>2020-11-11T20:28:13Z</time>
      </trkpt>
      <trkpt lat="28.1426780" lon="-16.6503570">
        <ele>1246.9</ele>
        <time>2020-11-11T20:28:14Z</time>
      </trkpt>
      <trkpt lat="28.1427520" lon="-16.6506020">
        <ele>1245.9</ele>
        <time>2020-11-11T20:28:15Z</time>
      </trkpt>
      <trkpt lat="28.1427520" lon="-16.6506020">
        <ele>1245.9</ele>
        <time>2020-11-11T20:28:16Z</time>
      </trkpt>
      <trkpt lat="28.1428280" lon="-16.6508530">
        <ele>1244.9</ele>
        <time>2020-11-11T20:28:17Z</time>
      </trkpt>
      <trkpt lat="28.1428280" lon="-16.6508530">
        <ele>1244.9</ele>
        <time>2020-11-11T20:28:18Z</time>
      </trkpt>
      <trkpt lat="28.1429080" lon="-16.6511100">
        <ele>1242.9</ele>
        <time>2020-11-11T20:28:19Z</time>
      </trkpt>
      <trkpt lat="28.1429080" lon="-16.6511100">
        <ele>1242.9</ele>
        <time>2020-11-11T20:28:20Z</time>
      </trkpt>
      <trkpt lat="28.1429870" lon="-16.6513620">
        <ele>1240.9</ele>
        <time>2020-11-11T20:28:21Z</time>
      </trkpt>
      <trkpt lat="28.1429870" lon="-16.6513620">
        <ele>1240.9</ele>
        <time>2020-11-11T20:28:22Z</time>
      </trkpt>
      <trkpt lat="28.1430600" lon="-16.6516100">
        <ele>1238.9</ele>
        <time>2020-11-11T20:28:23Z</time>
      </trkpt>
      <trkpt lat="28.1430600" lon="-16.6516100">
        <ele>1236.9</ele>
        <time>2020-11-11T20:28:24Z</time>
      </trkpt>
      <trkpt lat="28.1431020" lon="-16.6518550">
        <ele>1236.9</ele>
        <time>2020-11-11T20:28:25Z</time>
      </trkpt>
      <trkpt lat="28.1431020" lon="-16.6518550">
        <ele>1234.9</ele>
        <time>2020-11-11T20:28:26Z</time>
      </trkpt>
      <trkpt lat="28.1430930" lon="-16.6521030">
        <ele>1234.9</ele>
        <time>2020-11-11T20:28:27Z</time>
      </trkpt>
      <trkpt lat="28.1430750" lon="-16.6522200">
        <ele>1234.9</ele>
        <time>2020-11-11T20:28:28Z</time>
      </trkpt>
      <trkpt lat="28.1430750" lon="-16.6522200">
        <ele>1232.9</ele>
        <time>2020-11-11T20:28:29Z</time>
      </trkpt>
      <trkpt lat="28.1430150" lon="-16.6524450">
        <ele>1232.9</ele>
        <time>2020-11-11T20:28:30Z</time>
      </trkpt>
      <trkpt lat="28.1429700" lon="-16.6525580">
        <ele>1230.9</ele>
        <time>2020-11-11T20:28:31Z</time>
      </trkpt>
      <trkpt lat="28.1429700" lon="-16.6525580">
        <ele>1228.9</ele>
        <time>2020-11-11T20:28:32Z</time>
      </trkpt>
      <trkpt lat="28.1428670" lon="-16.6527800">
        <ele>1228.9</ele>
        <time>2020-11-11T20:28:33Z</time>
      </trkpt>
      <trkpt lat="28.1428130" lon="-16.6528930">
        <ele>1226.9</ele>
        <time>2020-11-11T20:28:34Z</time>
      </trkpt>
      <trkpt lat="28.1428130" lon="-16.6528930">
        <ele>1226.9</ele>
        <time>2020-11-11T20:28:35Z</time>
      </trkpt>
      <trkpt lat="28.1427070" lon="-16.6531280">
        <ele>1225.9</ele>
        <time>2020-11-11T20:28:36Z</time>
      </trkpt>
      <trkpt lat="28.1426520" lon="-16.6532450">
        <ele>1225.9</ele>
        <time>2020-11-11T20:28:37Z</time>
      </trkpt>
      <trkpt lat="28.1426520" lon="-16.6532450">
        <ele>1223.9</ele>
        <time>2020-11-11T20:28:38Z</time>
      </trkpt>
      <trkpt lat="28.1425220" lon="-16.6534380">
        <ele>1223.9</ele>
        <time>2020-11-11T20:28:39Z</time>
      </trkpt>
      <trkpt lat="28.1424350" lon="-16.6535170">
        <ele>1221.9</ele>
        <time>2020-11-11T20:28:40Z</time>
      </trkpt>
      <trkpt lat="28.1424350" lon="-16.6535170">
        <ele>1221.9</ele>
        <time>2020-11-11T20:28:41Z</time>
      </trkpt>
      <trkpt lat="28.1422480" lon="-16.6536300">
        <ele>1220.9</ele>
        <time>2020-11-11T20:28:42Z</time>
      </trkpt>
      <trkpt lat="28.1421520" lon="-16.6536620">
        <ele>1220.9</ele>
        <time>2020-11-11T20:28:43Z</time>
      </trkpt>
      <trkpt lat="28.1421520" lon="-16.6536620">
        <ele>1220.9</ele>
        <time>2020-11-11T20:28:44Z</time>
      </trkpt>
      <trkpt lat="28.1419580" lon="-16.6536800">
        <ele>1220.9</ele>
        <time>2020-11-11T20:28:45Z</time>
      </trkpt>
      <trkpt lat="28.1419580" lon="-16.6536800">
        <ele>1219.9</ele>
        <time>2020-11-11T20:28:46Z</time>
      </trkpt>
      <trkpt lat="28.1417670" lon="-16.6536670">
        <ele>1219.9</ele>
        <time>2020-11-11T20:28:47Z</time>
      </trkpt>
      <trkpt lat="28.1417670" lon="-16.6536670">
        <ele>1219.9</ele>
        <time>2020-11-11T20:28:48Z</time>
      </trkpt>
      <trkpt lat="28.1415880" lon="-16.6536530">
        <ele>1219.9</ele>
        <time>2020-11-11T20:28:49Z</time>
      </trkpt>
      <trkpt lat="28.1415020" lon="-16.6536470">
        <ele>1218.9</ele>
        <time>2020-11-11T20:28:50Z</time>
      </trkpt>
      <trkpt lat="28.1415020" lon="-16.6536470">
        <ele>1218.9</ele>
        <time>2020-11-11T20:28:51Z</time>
      </trkpt>
      <trkpt lat="28.1413280" lon="-16.6536250">
        <ele>1218.9</ele>
        <time>2020-11-11T20:28:52Z</time>
      </trkpt>
      <trkpt lat="28.1413280" lon="-16.6536250">
        <ele>1218.9</ele>
        <time>2020-11-11T20:28:53Z</time>
      </trkpt>
      <trkpt lat="28.1411470" lon="-16.6536020">
        <ele>1217.9</ele>
        <time>2020-11-11T20:28:54Z</time>
      </trkpt>
      <trkpt lat="28.1411470" lon="-16.6536020">
        <ele>1217.9</ele>
        <time>2020-11-11T20:28:55Z</time>
      </trkpt>
      <trkpt lat="28.1409630" lon="-16.6535800">
        <ele>1217.9</ele>
        <time>2020-11-11T20:28:56Z</time>
      </trkpt>
      <trkpt lat="28.1409630" lon="-16.6535800">
        <ele>1217.9</ele>
        <time>2020-11-11T20:28:57Z</time>
      </trkpt>
      <trkpt lat="28.1407770" lon="-16.6535570">
        <ele>1216.9</ele>
        <time>2020-11-11T20:28:58Z</time>
      </trkpt>
      <trkpt lat="28.1407770" lon="-16.6535570">
        <ele>1216.9</ele>
        <time>2020-11-11T20:28:59Z</time>
      </trkpt>
      <trkpt lat="28.1405900" lon="-16.6535380">
        <ele>1216.9</ele>
        <time>2020-11-11T20:29:00Z</time>
      </trkpt>
      <trkpt lat="28.1405900" lon="-16.6535380">
        <ele>1216.9</ele>
        <time>2020-11-11T20:29:01Z</time>
      </trkpt>
      <trkpt lat="28.1404030" lon="-16.6535170">
        <ele>1214.9</ele>
        <time>2020-11-11T20:29:02Z</time>
      </trkpt>
      <trkpt lat="28.1403100" lon="-16.6535020">
        <ele>1214.9</ele>
        <time>2020-11-11T20:29:03Z</time>
      </trkpt>
      <trkpt lat="28.1403100" lon="-16.6535020">
        <ele>1214.9</ele>
        <time>2020-11-11T20:29:04Z</time>
      </trkpt>
      <trkpt lat="28.1401220" lon="-16.6534770">
        <ele>1212.9</ele>
        <time>2020-11-11T20:29:05Z</time>
      </trkpt>
      <trkpt lat="28.1401220" lon="-16.6534770">
        <ele>1212.9</ele>
        <time>2020-11-11T20:29:06Z</time>
      </trkpt>
      <trkpt lat="28.1399320" lon="-16.6534550">
        <ele>1212.9</ele>
        <time>2020-11-11T20:29:07Z</time>
      </trkpt>
      <trkpt lat="28.1399320" lon="-16.6534550">
        <ele>1212.9</ele>
        <time>2020-11-11T20:29:08Z</time>
      </trkpt>
      <trkpt lat="28.1397450" lon="-16.6534170">
        <ele>1212.9</ele>
        <time>2020-11-11T20:29:09Z</time>
      </trkpt>
      <trkpt lat="28.1397450" lon="-16.6534170">
        <ele>1212.9</ele>
        <time>2020-11-11T20:29:10Z</time>
      </trkpt>
      <trkpt lat="28.1395600" lon="-16.6533600">
        <ele>1210.9</ele>
        <time>2020-11-11T20:29:11Z</time>
      </trkpt>
      <trkpt lat="28.1394700" lon="-16.6533230">
        <ele>1210.9</ele>
        <time>2020-11-11T20:29:12Z</time>
      </trkpt>
      <trkpt lat="28.1393800" lon="-16.6532800">
        <ele>1209.9</ele>
        <time>2020-11-11T20:29:13Z</time>
      </trkpt>
      <trkpt lat="28.1393800" lon="-16.6532800">
        <ele>1209.9</ele>
        <time>2020-11-11T20:29:14Z</time>
      </trkpt>
      <trkpt lat="28.1392050" lon="-16.6531780">
        <ele>1208.9</ele>
        <time>2020-11-11T20:29:15Z</time>
      </trkpt>
      <trkpt lat="28.1392050" lon="-16.6531780">
        <ele>1208.9</ele>
        <time>2020-11-11T20:29:16Z</time>
      </trkpt>
      <trkpt lat="28.1390300" lon="-16.6530700">
        <ele>1208.9</ele>
        <time>2020-11-11T20:29:17Z</time>
      </trkpt>
      <trkpt lat="28.1390300" lon="-16.6530700">
        <ele>1208.9</ele>
        <time>2020-11-11T20:29:18Z</time>
      </trkpt>
      <trkpt lat="28.1388530" lon="-16.6529620">
        <ele>1207.9</ele>
        <time>2020-11-11T20:29:19Z</time>
      </trkpt>
      <trkpt lat="28.1388530" lon="-16.6529620">
        <ele>1207.9</ele>
        <time>2020-11-11T20:29:20Z</time>
      </trkpt>
      <trkpt lat="28.1386770" lon="-16.6528530">
        <ele>1206.9</ele>
        <time>2020-11-11T20:29:21Z</time>
      </trkpt>
      <trkpt lat="28.1385870" lon="-16.6527980">
        <ele>1206.9</ele>
        <time>2020-11-11T20:29:22Z</time>
      </trkpt>
      <trkpt lat="28.1385870" lon="-16.6527980">
        <ele>1205.9</ele>
        <time>2020-11-11T20:29:23Z</time>
      </trkpt>
      <trkpt lat="28.1384100" lon="-16.6526880">
        <ele>1205.9</ele>
        <time>2020-11-11T20:29:24Z</time>
      </trkpt>
      <trkpt lat="28.1384100" lon="-16.6526880">
        <ele>1204.9</ele>
        <time>2020-11-11T20:29:25Z</time>
      </trkpt>
      <trkpt lat="28.1382320" lon="-16.6525770">
        <ele>1204.9</ele>
        <time>2020-11-11T20:29:26Z</time>
      </trkpt>
      <trkpt lat="28.1382320" lon="-16.6525770">
        <ele>1204.9</ele>
        <time>2020-11-11T20:29:27Z</time>
      </trkpt>
      <trkpt lat="28.1380550" lon="-16.6524670">
        <ele>1204.9</ele>
        <time>2020-11-11T20:29:28Z</time>
      </trkpt>
      <trkpt lat="28.1379650" lon="-16.6524120">
        <ele>1203.9</ele>
        <time>2020-11-11T20:29:29Z</time>
      </trkpt>
      <trkpt lat="28.1379650" lon="-16.6524120">
        <ele>1203.9</ele>
        <time>2020-11-11T20:29:30Z</time>
      </trkpt>
      <trkpt lat="28.1377900" lon="-16.6523020">
        <ele>1198.9</ele>
        <time>2020-11-11T20:29:31Z</time>
      </trkpt>
      <trkpt lat="28.1377900" lon="-16.6523020">
        <ele>1198.9</ele>
        <time>2020-11-11T20:29:32Z</time>
      </trkpt>
      <trkpt lat="28.1376130" lon="-16.6521930">
        <ele>1200.9</ele>
        <time>2020-11-11T20:29:33Z</time>
      </trkpt>
      <trkpt lat="28.1375250" lon="-16.6521420">
        <ele>1200.9</ele>
        <time>2020-11-11T20:29:34Z</time>
      </trkpt>
      <trkpt lat="28.1375250" lon="-16.6521420">
        <ele>1200.9</ele>
        <time>2020-11-11T20:29:35Z</time>
      </trkpt>
      <trkpt lat="28.1373470" lon="-16.6520370">
        <ele>1200.9</ele>
        <time>2020-11-11T20:29:36Z</time>
      </trkpt>
      <trkpt lat="28.1373470" lon="-16.6520370">
        <ele>1200.9</ele>
        <time>2020-11-11T20:29:37Z</time>
      </trkpt>
      <trkpt lat="28.1371700" lon="-16.6519320">
        <ele>1200.9</ele>
        <time>2020-11-11T20:29:38Z</time>
      </trkpt>
      <trkpt lat="28.1371700" lon="-16.6519320">
        <ele>1200.9</ele>
        <time>2020-11-11T20:29:39Z</time>
      </trkpt>
      <trkpt lat="28.1369920" lon="-16.6518270">
        <ele>1200.9</ele>
        <time>2020-11-11T20:29:40Z</time>
      </trkpt>
      <trkpt lat="28.1369920" lon="-16.6518270">
        <ele>1198.9</ele>
        <time>2020-11-11T20:29:41Z</time>
      </trkpt>
      <trkpt lat="28.1368130" lon="-16.6517200">
        <ele>1198.9</ele>
        <time>2020-11-11T20:29:42Z</time>
      </trkpt>
      <trkpt lat="28.1367230" lon="-16.6516670">
        <ele>1198.9</ele>
        <time>2020-11-11T20:29:43Z</time>
      </trkpt>
      <trkpt lat="28.1367230" lon="-16.6516670">
        <ele>1197.9</ele>
        <time>2020-11-11T20:29:44Z</time>
      </trkpt>
      <trkpt lat="28.1365420" lon="-16.6515630">
        <ele>1197.9</ele>
        <time>2020-11-11T20:29:45Z</time>
      </trkpt>
      <trkpt lat="28.1365420" lon="-16.6515630">
        <ele>1196.9</ele>
        <time>2020-11-11T20:29:46Z</time>
      </trkpt>
      <trkpt lat="28.1363600" lon="-16.6514570">
        <ele>1196.9</ele>
        <time>2020-11-11T20:29:47Z</time>
      </trkpt>
      <trkpt lat="28.1363600" lon="-16.6514570">
        <ele>1195.9</ele>
        <time>2020-11-11T20:29:48Z</time>
      </trkpt>
      <trkpt lat="28.1361770" lon="-16.6513530">
        <ele>1195.9</ele>
        <time>2020-11-11T20:29:49Z</time>
      </trkpt>
      <trkpt lat="28.1361770" lon="-16.6513530">
        <ele>1194.9</ele>
        <time>2020-11-11T20:29:50Z</time>
      </trkpt>
      <trkpt lat="28.1359870" lon="-16.6512620">
        <ele>1194.9</ele>
        <time>2020-11-11T20:29:51Z</time>
      </trkpt>
      <trkpt lat="28.1359870" lon="-16.6512620">
        <ele>1193.9</ele>
        <time>2020-11-11T20:29:52Z</time>
      </trkpt>
      <trkpt lat="28.1357920" lon="-16.6511900">
        <ele>1193.9</ele>
        <time>2020-11-11T20:29:53Z</time>
      </trkpt>
      <trkpt lat="28.1356920" lon="-16.6511600">
        <ele>1193.9</ele>
        <time>2020-11-11T20:29:54Z</time>
      </trkpt>
      <trkpt lat="28.1356920" lon="-16.6511600">
        <ele>1193.9</ele>
        <time>2020-11-11T20:29:55Z</time>
      </trkpt>
      <trkpt lat="28.1354900" lon="-16.6511150">
        <ele>1192.9</ele>
        <time>2020-11-11T20:29:56Z</time>
      </trkpt>
      <trkpt lat="28.1354900" lon="-16.6511150">
        <ele>1192.9</ele>
        <time>2020-11-11T20:29:57Z</time>
      </trkpt>
      <trkpt lat="28.1352870" lon="-16.6510820">
        <ele>1191.9</ele>
        <time>2020-11-11T20:29:58Z</time>
      </trkpt>
      <trkpt lat="28.1352870" lon="-16.6510820">
        <ele>1191.9</ele>
        <time>2020-11-11T20:29:59Z</time>
      </trkpt>
      <trkpt lat="28.1350820" lon="-16.6510470">
        <ele>1190.9</ele>
        <time>2020-11-11T20:30:00Z</time>
      </trkpt>
      <trkpt lat="28.1349780" lon="-16.6510270">
        <ele>1190.9</ele>
        <time>2020-11-11T20:30:01Z</time>
      </trkpt>
      <trkpt lat="28.1349780" lon="-16.6510270">
        <ele>1189.9</ele>
        <time>2020-11-11T20:30:02Z</time>
      </trkpt>
      <trkpt lat="28.1347750" lon="-16.6509930">
        <ele>1189.9</ele>
        <time>2020-11-11T20:30:03Z</time>
      </trkpt>
      <trkpt lat="28.1347750" lon="-16.6509930">
        <ele>1189.9</ele>
        <time>2020-11-11T20:30:04Z</time>
      </trkpt>
      <trkpt lat="28.1345700" lon="-16.6509830">
        <ele>1189.9</ele>
        <time>2020-11-11T20:30:05Z</time>
      </trkpt>
      <trkpt lat="28.1345700" lon="-16.6509830">
        <ele>1188.9</ele>
        <time>2020-11-11T20:30:06Z</time>
      </trkpt>
      <trkpt lat="28.1343720" lon="-16.6510070">
        <ele>1188.9</ele>
        <time>2020-11-11T20:30:07Z</time>
      </trkpt>
      <trkpt lat="28.1343720" lon="-16.6510070">
        <ele>1187.9</ele>
        <time>2020-11-11T20:30:08Z</time>
      </trkpt>
      <trkpt lat="28.1341780" lon="-16.6510570">
        <ele>1187.9</ele>
        <time>2020-11-11T20:30:09Z</time>
      </trkpt>
      <trkpt lat="28.1340850" lon="-16.6510880">
        <ele>1186.9</ele>
        <time>2020-11-11T20:30:10Z</time>
      </trkpt>
      <trkpt lat="28.1340850" lon="-16.6510880">
        <ele>1186.9</ele>
        <time>2020-11-11T20:30:11Z</time>
      </trkpt>
      <trkpt lat="28.1339070" lon="-16.6511650">
        <ele>1186.9</ele>
        <time>2020-11-11T20:30:12Z</time>
      </trkpt>
      <trkpt lat="28.1339070" lon="-16.6511650">
        <ele>1186.9</ele>
        <time>2020-11-11T20:30:13Z</time>
      </trkpt>
      <trkpt lat="28.1337370" lon="-16.6512480">
        <ele>1185.9</ele>
        <time>2020-11-11T20:30:14Z</time>
      </trkpt>
      <trkpt lat="28.1337370" lon="-16.6512480">
        <ele>1185.9</ele>
        <time>2020-11-11T20:30:15Z</time>
      </trkpt>
      <trkpt lat="28.1335730" lon="-16.6513400">
        <ele>1185.9</ele>
        <time>2020-11-11T20:30:16Z</time>
      </trkpt>
      <trkpt lat="28.1334930" lon="-16.6513870">
        <ele>1185.9</ele>
        <time>2020-11-11T20:30:17Z</time>
      </trkpt>
      <trkpt lat="28.1334930" lon="-16.6513870">
        <ele>1184.9</ele>
        <time>2020-11-11T20:30:18Z</time>
      </trkpt>
      <trkpt lat="28.1333320" lon="-16.6514750">
        <ele>1182.9</ele>
        <time>2020-11-11T20:30:19Z</time>
      </trkpt>
      <trkpt lat="28.1333320" lon="-16.6514750">
        <ele>1182.9</ele>
        <time>2020-11-11T20:30:20Z</time>
      </trkpt>
      <trkpt lat="28.1331700" lon="-16.6515600">
        <ele>1182.9</ele>
        <time>2020-11-11T20:30:21Z</time>
      </trkpt>
      <trkpt lat="28.1331700" lon="-16.6515600">
        <ele>1182.9</ele>
        <time>2020-11-11T20:30:22Z</time>
      </trkpt>
      <trkpt lat="28.1330100" lon="-16.6516430">
        <ele>1182.9</ele>
        <time>2020-11-11T20:30:23Z</time>
      </trkpt>
      <trkpt lat="28.1330100" lon="-16.6516430">
        <ele>1182.9</ele>
        <time>2020-11-11T20:30:24Z</time>
      </trkpt>
      <trkpt lat="28.1328550" lon="-16.6517330">
        <ele>1182.9</ele>
        <time>2020-11-11T20:30:25Z</time>
      </trkpt>
      <trkpt lat="28.1328550" lon="-16.6517330">
        <ele>1182.9</ele>
        <time>2020-11-11T20:30:26Z</time>
      </trkpt>
      <trkpt lat="28.1327030" lon="-16.6518300">
        <ele>1182.9</ele>
        <time>2020-11-11T20:30:27Z</time>
      </trkpt>
      <trkpt lat="28.1327030" lon="-16.6518300">
        <ele>1182.9</ele>
        <time>2020-11-11T20:30:28Z</time>
      </trkpt>
      <trkpt lat="28.1325530" lon="-16.6519300">
        <ele>1182.9</ele>
        <time>2020-11-11T20:30:29Z</time>
      </trkpt>
      <trkpt lat="28.1325530" lon="-16.6519300">
        <ele>1182.9</ele>
        <time>2020-11-11T20:30:30Z</time>
      </trkpt>
      <trkpt lat="28.1324030" lon="-16.6520330">
        <ele>1181.9</ele>
        <time>2020-11-11T20:30:31Z</time>
      </trkpt>
      <trkpt lat="28.1324030" lon="-16.6520330">
        <ele>1181.9</ele>
        <time>2020-11-11T20:30:32Z</time>
      </trkpt>
      <trkpt lat="28.1322570" lon="-16.6521430">
        <ele>1181.9</ele>
        <time>2020-11-11T20:30:33Z</time>
      </trkpt>
      <trkpt lat="28.1322570" lon="-16.6521430">
        <ele>1181.9</ele>
        <time>2020-11-11T20:30:34Z</time>
      </trkpt>
      <trkpt lat="28.1321080" lon="-16.6522580">
        <ele>1180.9</ele>
        <time>2020-11-11T20:30:35Z</time>
      </trkpt>
      <trkpt lat="28.1320320" lon="-16.6523150">
        <ele>1180.9</ele>
        <time>2020-11-11T20:30:36Z</time>
      </trkpt>
      <trkpt lat="28.1320320" lon="-16.6523150">
        <ele>1179.9</ele>
        <time>2020-11-11T20:30:37Z</time>
      </trkpt>
      <trkpt lat="28.1318800" lon="-16.6524250">
        <ele>1179.9</ele>
        <time>2020-11-11T20:30:38Z</time>
      </trkpt>
      <trkpt lat="28.1318030" lon="-16.6524830">
        <ele>1178.9</ele>
        <time>2020-11-11T20:30:39Z</time>
      </trkpt>
      <trkpt lat="28.1318030" lon="-16.6524830">
        <ele>1178.9</ele>
        <time>2020-11-11T20:30:40Z</time>
      </trkpt>
      <trkpt lat="28.1316500" lon="-16.6525970">
        <ele>1177.9</ele>
        <time>2020-11-11T20:30:41Z</time>
      </trkpt>
      <trkpt lat="28.1316500" lon="-16.6525970">
        <ele>1177.9</ele>
        <time>2020-11-11T20:30:42Z</time>
      </trkpt>
      <trkpt lat="28.1314930" lon="-16.6527120">
        <ele>1177.9</ele>
        <time>2020-11-11T20:30:43Z</time>
      </trkpt>
      <trkpt lat="28.1314930" lon="-16.6527120">
        <ele>1177.9</ele>
        <time>2020-11-11T20:30:44Z</time>
      </trkpt>
      <trkpt lat="28.1313350" lon="-16.6528300">
        <ele>1176.9</ele>
        <time>2020-11-11T20:30:45Z</time>
      </trkpt>
      <trkpt lat="28.1312550" lon="-16.6528900">
        <ele>1176.9</ele>
        <time>2020-11-11T20:30:46Z</time>
      </trkpt>
      <trkpt lat="28.1312550" lon="-16.6528900">
        <ele>1176.9</ele>
        <time>2020-11-11T20:30:47Z</time>
      </trkpt>
      <trkpt lat="28.1310950" lon="-16.6530100">
        <ele>1176.9</ele>
        <time>2020-11-11T20:30:48Z</time>
      </trkpt>
      <trkpt lat="28.1310150" lon="-16.6530700">
        <ele>1175.9</ele>
        <time>2020-11-11T20:30:49Z</time>
      </trkpt>
      <trkpt lat="28.1310150" lon="-16.6530700">
        <ele>1175.9</ele>
        <time>2020-11-11T20:30:50Z</time>
      </trkpt>
      <trkpt lat="28.1308550" lon="-16.6531920">
        <ele>1175.9</ele>
        <time>2020-11-11T20:30:51Z</time>
      </trkpt>
      <trkpt lat="28.1308550" lon="-16.6531920">
        <ele>1175.9</ele>
        <time>2020-11-11T20:30:52Z</time>
      </trkpt>
      <trkpt lat="28.1306920" lon="-16.6533100">
        <ele>1173.9</ele>
        <time>2020-11-11T20:30:53Z</time>
      </trkpt>
      <trkpt lat="28.1306920" lon="-16.6533100">
        <ele>1173.9</ele>
        <time>2020-11-11T20:30:54Z</time>
      </trkpt>
      <trkpt lat="28.1305280" lon="-16.6534320">
        <ele>1172.9</ele>
        <time>2020-11-11T20:30:55Z</time>
      </trkpt>
      <trkpt lat="28.1304470" lon="-16.6534920">
        <ele>1172.9</ele>
        <time>2020-11-11T20:30:56Z</time>
      </trkpt>
      <trkpt lat="28.1304470" lon="-16.6534920">
        <ele>1172.9</ele>
        <time>2020-11-11T20:30:57Z</time>
      </trkpt>
      <trkpt lat="28.1302820" lon="-16.6536120">
        <ele>1172.9</ele>
        <time>2020-11-11T20:30:58Z</time>
      </trkpt>
      <trkpt lat="28.1301980" lon="-16.6536700">
        <ele>1171.9</ele>
        <time>2020-11-11T20:30:59Z</time>
      </trkpt>
      <trkpt lat="28.1301980" lon="-16.6536700">
        <ele>1171.9</ele>
        <time>2020-11-11T20:31:00Z</time>
      </trkpt>
      <trkpt lat="28.1300370" lon="-16.6537900">
        <ele>1170.9</ele>
        <time>2020-11-11T20:31:01Z</time>
      </trkpt>
      <trkpt lat="28.1300370" lon="-16.6537900">
        <ele>1170.9</ele>
        <time>2020-11-11T20:31:02Z</time>
      </trkpt>
      <trkpt lat="28.1298820" lon="-16.6539250">
        <ele>1169.9</ele>
        <time>2020-11-11T20:31:03Z</time>
      </trkpt>
      <trkpt lat="28.1298820" lon="-16.6539250">
        <ele>1169.9</ele>
        <time>2020-11-11T20:31:04Z</time>
      </trkpt>
      <trkpt lat="28.1297350" lon="-16.6540680">
        <ele>1168.9</ele>
        <time>2020-11-11T20:31:05Z</time>
      </trkpt>
      <trkpt lat="28.1297350" lon="-16.6540680">
        <ele>1168.9</ele>
        <time>2020-11-11T20:31:06Z</time>
      </trkpt>
      <trkpt lat="28.1295950" lon="-16.6542250">
        <ele>1167.9</ele>
        <time>2020-11-11T20:31:07Z</time>
      </trkpt>
      <trkpt lat="28.1295950" lon="-16.6542250">
        <ele>1167.9</ele>
        <time>2020-11-11T20:31:08Z</time>
      </trkpt>
      <trkpt lat="28.1294620" lon="-16.6543870">
        <ele>1166.9</ele>
        <time>2020-11-11T20:31:09Z</time>
      </trkpt>
      <trkpt lat="28.1294620" lon="-16.6543870">
        <ele>1166.9</ele>
        <time>2020-11-11T20:31:10Z</time>
      </trkpt>
      <trkpt lat="28.1293350" lon="-16.6545570">
        <ele>1165.9</ele>
        <time>2020-11-11T20:31:11Z</time>
      </trkpt>
      <trkpt lat="28.1293350" lon="-16.6545570">
        <ele>1165.9</ele>
        <time>2020-11-11T20:31:12Z</time>
      </trkpt>
      <trkpt lat="28.1292150" lon="-16.6547350">
        <ele>1164.9</ele>
        <time>2020-11-11T20:31:13Z</time>
      </trkpt>
      <trkpt lat="28.1292150" lon="-16.6547350">
        <ele>1164.9</ele>
        <time>2020-11-11T20:31:14Z</time>
      </trkpt>
      <trkpt lat="28.1291030" lon="-16.6549200">
        <ele>1163.9</ele>
        <time>2020-11-11T20:31:15Z</time>
      </trkpt>
      <trkpt lat="28.1291030" lon="-16.6549200">
        <ele>1163.9</ele>
        <time>2020-11-11T20:31:16Z</time>
      </trkpt>
      <trkpt lat="28.1290020" lon="-16.6551130">
        <ele>1163.9</ele>
        <time>2020-11-11T20:31:17Z</time>
      </trkpt>
      <trkpt lat="28.1290020" lon="-16.6551130">
        <ele>1163.9</ele>
        <time>2020-11-11T20:31:18Z</time>
      </trkpt>
      <trkpt lat="28.1289070" lon="-16.6553120">
        <ele>1161.9</ele>
        <time>2020-11-11T20:31:19Z</time>
      </trkpt>
      <trkpt lat="28.1289070" lon="-16.6553120">
        <ele>1161.9</ele>
        <time>2020-11-11T20:31:20Z</time>
      </trkpt>
      <trkpt lat="28.1288130" lon="-16.6555150">
        <ele>1160.9</ele>
        <time>2020-11-11T20:31:21Z</time>
      </trkpt>
      <trkpt lat="28.1288130" lon="-16.6555150">
        <ele>1160.9</ele>
        <time>2020-11-11T20:31:22Z</time>
      </trkpt>
      <trkpt lat="28.1287170" lon="-16.6557220">
        <ele>1159.9</ele>
        <time>2020-11-11T20:31:23Z</time>
      </trkpt>
      <trkpt lat="28.1287170" lon="-16.6557220">
        <ele>1159.9</ele>
        <time>2020-11-11T20:31:24Z</time>
      </trkpt>
      <trkpt lat="28.1286180" lon="-16.6559300">
        <ele>1159.9</ele>
        <time>2020-11-11T20:31:25Z</time>
      </trkpt>
      <trkpt lat="28.1286180" lon="-16.6559300">
        <ele>1159.9</ele>
        <time>2020-11-11T20:31:26Z</time>
      </trkpt>
      <trkpt lat="28.1285050" lon="-16.6561320">
        <ele>1157.9</ele>
        <time>2020-11-11T20:31:27Z</time>
      </trkpt>
      <trkpt lat="28.1285050" lon="-16.6561320">
        <ele>1157.9</ele>
        <time>2020-11-11T20:31:28Z</time>
      </trkpt>
      <trkpt lat="28.1283630" lon="-16.6563080">
        <ele>1156.9</ele>
        <time>2020-11-11T20:31:29Z</time>
      </trkpt>
      <trkpt lat="28.1283630" lon="-16.6563080">
        <ele>1156.9</ele>
        <time>2020-11-11T20:31:30Z</time>
      </trkpt>
      <trkpt lat="28.1281880" lon="-16.6564350">
        <ele>1155.9</ele>
        <time>2020-11-11T20:31:31Z</time>
      </trkpt>
      <trkpt lat="28.1281880" lon="-16.6564350">
        <ele>1155.9</ele>
        <time>2020-11-11T20:31:32Z</time>
      </trkpt>
      <trkpt lat="28.1279930" lon="-16.6565280">
        <ele>1154.9</ele>
        <time>2020-11-11T20:31:33Z</time>
      </trkpt>
      <trkpt lat="28.1278950" lon="-16.6565720">
        <ele>1154.9</ele>
        <time>2020-11-11T20:31:34Z</time>
      </trkpt>
      <trkpt lat="28.1278950" lon="-16.6565720">
        <ele>1153.9</ele>
        <time>2020-11-11T20:31:35Z</time>
      </trkpt>
      <trkpt lat="28.1276980" lon="-16.6566580">
        <ele>1153.9</ele>
        <time>2020-11-11T20:31:36Z</time>
      </trkpt>
      <trkpt lat="28.1276980" lon="-16.6566580">
        <ele>1152.9</ele>
        <time>2020-11-11T20:31:37Z</time>
      </trkpt>
      <trkpt lat="28.1275030" lon="-16.6567500">
        <ele>1152.9</ele>
        <time>2020-11-11T20:31:38Z</time>
      </trkpt>
      <trkpt lat="28.1275030" lon="-16.6567500">
        <ele>1151.9</ele>
        <time>2020-11-11T20:31:39Z</time>
      </trkpt>
      <trkpt lat="28.1273080" lon="-16.6568380">
        <ele>1151.9</ele>
        <time>2020-11-11T20:31:40Z</time>
      </trkpt>
      <trkpt lat="28.1273080" lon="-16.6568380">
        <ele>1150.9</ele>
        <time>2020-11-11T20:31:41Z</time>
      </trkpt>
      <trkpt lat="28.1271100" lon="-16.6569250">
        <ele>1149.9</ele>
        <time>2020-11-11T20:31:42Z</time>
      </trkpt>
      <trkpt lat="28.1270120" lon="-16.6569680">
        <ele>1149.9</ele>
        <time>2020-11-11T20:31:43Z</time>
      </trkpt>
      <trkpt lat="28.1270120" lon="-16.6569680">
        <ele>1149.9</ele>
        <time>2020-11-11T20:31:44Z</time>
      </trkpt>
      <trkpt lat="28.1268180" lon="-16.6570620">
        <ele>1149.9</ele>
        <time>2020-11-11T20:31:45Z</time>
      </trkpt>
      <trkpt lat="28.1268180" lon="-16.6570620">
        <ele>1148.9</ele>
        <time>2020-11-11T20:31:46Z</time>
      </trkpt>
      <trkpt lat="28.1266220" lon="-16.6571530">
        <ele>1148.9</ele>
        <time>2020-11-11T20:31:47Z</time>
      </trkpt>
      <trkpt lat="28.1266220" lon="-16.6571530">
        <ele>1147.9</ele>
        <time>2020-11-11T20:31:48Z</time>
      </trkpt>
      <trkpt lat="28.1264230" lon="-16.6572430">
        <ele>1147.9</ele>
        <time>2020-11-11T20:31:49Z</time>
      </trkpt>
      <trkpt lat="28.1264230" lon="-16.6572430">
        <ele>1146.9</ele>
        <time>2020-11-11T20:31:50Z</time>
      </trkpt>
      <trkpt lat="28.1262250" lon="-16.6573380">
        <ele>1146.9</ele>
        <time>2020-11-11T20:31:51Z</time>
      </trkpt>
      <trkpt lat="28.1262250" lon="-16.6573380">
        <ele>1145.9</ele>
        <time>2020-11-11T20:31:52Z</time>
      </trkpt>
      <trkpt lat="28.1260220" lon="-16.6574330">
        <ele>1145.9</ele>
        <time>2020-11-11T20:31:53Z</time>
      </trkpt>
      <trkpt lat="28.1260220" lon="-16.6574330">
        <ele>1143.9</ele>
        <time>2020-11-11T20:31:54Z</time>
      </trkpt>
      <trkpt lat="28.1258130" lon="-16.6575280">
        <ele>1143.9</ele>
        <time>2020-11-11T20:31:55Z</time>
      </trkpt>
      <trkpt lat="28.1258130" lon="-16.6575280">
        <ele>1142.9</ele>
        <time>2020-11-11T20:31:56Z</time>
      </trkpt>
      <trkpt lat="28.1256080" lon="-16.6576250">
        <ele>1142.9</ele>
        <time>2020-11-11T20:31:57Z</time>
      </trkpt>
      <trkpt lat="28.1255120" lon="-16.6576700">
        <ele>1141.9</ele>
        <time>2020-11-11T20:31:58Z</time>
      </trkpt>
      <trkpt lat="28.1255120" lon="-16.6576700">
        <ele>1141.9</ele>
        <time>2020-11-11T20:31:59Z</time>
      </trkpt>
      <trkpt lat="28.1253320" lon="-16.6577670">
        <ele>1139.9</ele>
        <time>2020-11-11T20:32:00Z</time>
      </trkpt>
      <trkpt lat="28.1253320" lon="-16.6577670">
        <ele>1139.9</ele>
        <time>2020-11-11T20:32:01Z</time>
      </trkpt>
      <trkpt lat="28.1251830" lon="-16.6579230">
        <ele>1138.9</ele>
        <time>2020-11-11T20:32:02Z</time>
      </trkpt>
      <trkpt lat="28.1251830" lon="-16.6579230">
        <ele>1138.9</ele>
        <time>2020-11-11T20:32:03Z</time>
      </trkpt>
      <trkpt lat="28.1250880" lon="-16.6581220">
        <ele>1136.9</ele>
        <time>2020-11-11T20:32:04Z</time>
      </trkpt>
      <trkpt lat="28.1250880" lon="-16.6581220">
        <ele>1136.9</ele>
        <time>2020-11-11T20:32:05Z</time>
      </trkpt>
      <trkpt lat="28.1250630" lon="-16.6583450">
        <ele>1135.9</ele>
        <time>2020-11-11T20:32:06Z</time>
      </trkpt>
      <trkpt lat="28.1250700" lon="-16.6584620">
        <ele>1135.9</ele>
        <time>2020-11-11T20:32:07Z</time>
      </trkpt>
      <trkpt lat="28.1250700" lon="-16.6584620">
        <ele>1134.9</ele>
        <time>2020-11-11T20:32:08Z</time>
      </trkpt>
      <trkpt lat="28.1250950" lon="-16.6587050">
        <ele>1134.9</ele>
        <time>2020-11-11T20:32:09Z</time>
      </trkpt>
      <trkpt lat="28.1250950" lon="-16.6587050">
        <ele>1132.9</ele>
        <time>2020-11-11T20:32:10Z</time>
      </trkpt>
      <trkpt lat="28.1251180" lon="-16.6589430">
        <ele>1132.9</ele>
        <time>2020-11-11T20:32:11Z</time>
      </trkpt>
      <trkpt lat="28.1251280" lon="-16.6590550">
        <ele>1130.9</ele>
        <time>2020-11-11T20:32:12Z</time>
      </trkpt>
      <trkpt lat="28.1251280" lon="-16.6590550">
        <ele>1130.9</ele>
        <time>2020-11-11T20:32:13Z</time>
      </trkpt>
      <trkpt lat="28.1251680" lon="-16.6592650">
        <ele>1128.9</ele>
        <time>2020-11-11T20:32:14Z</time>
      </trkpt>
      <trkpt lat="28.1252100" lon="-16.6593620">
        <ele>1126.9</ele>
        <time>2020-11-11T20:32:15Z</time>
      </trkpt>
      <trkpt lat="28.1252100" lon="-16.6593620">
        <ele>1126.9</ele>
        <time>2020-11-11T20:32:16Z</time>
      </trkpt>
      <trkpt lat="28.1253370" lon="-16.6595020">
        <ele>1124.9</ele>
        <time>2020-11-11T20:32:17Z</time>
      </trkpt>
      <trkpt lat="28.1253370" lon="-16.6595020">
        <ele>1124.9</ele>
        <time>2020-11-11T20:32:18Z</time>
      </trkpt>
      <trkpt lat="28.1254950" lon="-16.6595770">
        <ele>1122.9</ele>
        <time>2020-11-11T20:32:19Z</time>
      </trkpt>
      <trkpt lat="28.1254950" lon="-16.6595770">
        <ele>1122.9</ele>
        <time>2020-11-11T20:32:20Z</time>
      </trkpt>
      <trkpt lat="28.1256450" lon="-16.6596420">
        <ele>1122.9</ele>
        <time>2020-11-11T20:32:21Z</time>
      </trkpt>
      <trkpt lat="28.1256980" lon="-16.6597080">
        <ele>1120.9</ele>
        <time>2020-11-11T20:32:22Z</time>
      </trkpt>
      <trkpt lat="28.1256980" lon="-16.6597080">
        <ele>1118.9</ele>
        <time>2020-11-11T20:32:23Z</time>
      </trkpt>
      <trkpt lat="28.1257400" lon="-16.6598770">
        <ele>1118.9</ele>
        <time>2020-11-11T20:32:24Z</time>
      </trkpt>
      <trkpt lat="28.1257270" lon="-16.6599720">
        <ele>1117.9</ele>
        <time>2020-11-11T20:32:25Z</time>
      </trkpt>
      <trkpt lat="28.1257270" lon="-16.6599720">
        <ele>1117.9</ele>
        <time>2020-11-11T20:32:26Z</time>
      </trkpt>
      <trkpt lat="28.1256700" lon="-16.6601700">
        <ele>1115.9</ele>
        <time>2020-11-11T20:32:27Z</time>
      </trkpt>
      <trkpt lat="28.1256700" lon="-16.6601700">
        <ele>1115.9</ele>
        <time>2020-11-11T20:32:28Z</time>
      </trkpt>
      <trkpt lat="28.1256030" lon="-16.6603800">
        <ele>1113.9</ele>
        <time>2020-11-11T20:32:29Z</time>
      </trkpt>
      <trkpt lat="28.1256030" lon="-16.6603800">
        <ele>1113.9</ele>
        <time>2020-11-11T20:32:30Z</time>
      </trkpt>
      <trkpt lat="28.1255220" lon="-16.6606050">
        <ele>1112.9</ele>
        <time>2020-11-11T20:32:31Z</time>
      </trkpt>
      <trkpt lat="28.1255220" lon="-16.6606050">
        <ele>1112.9</ele>
        <time>2020-11-11T20:32:32Z</time>
      </trkpt>
      <trkpt lat="28.1254320" lon="-16.6608420">
        <ele>1110.9</ele>
        <time>2020-11-11T20:32:33Z</time>
      </trkpt>
      <trkpt lat="28.1253870" lon="-16.6609630">
        <ele>1110.9</ele>
        <time>2020-11-11T20:32:34Z</time>
      </trkpt>
      <trkpt lat="28.1253870" lon="-16.6609630">
        <ele>1109.9</ele>
        <time>2020-11-11T20:32:35Z</time>
      </trkpt>
      <trkpt lat="28.1252950" lon="-16.6612130">
        <ele>1109.9</ele>
        <time>2020-11-11T20:32:36Z</time>
      </trkpt>
      <trkpt lat="28.1252950" lon="-16.6612130">
        <ele>1107.9</ele>
        <time>2020-11-11T20:32:37Z</time>
      </trkpt>
      <trkpt lat="28.1251980" lon="-16.6614750">
        <ele>1107.9</ele>
        <time>2020-11-11T20:32:38Z</time>
      </trkpt>
      <trkpt lat="28.1251980" lon="-16.6614750">
        <ele>1105.9</ele>
        <time>2020-11-11T20:32:39Z</time>
      </trkpt>
      <trkpt lat="28.1251030" lon="-16.6617450">
        <ele>1105.9</ele>
        <time>2020-11-11T20:32:40Z</time>
      </trkpt>
      <trkpt lat="28.1250600" lon="-16.6618870">
        <ele>1103.9</ele>
        <time>2020-11-11T20:32:41Z</time>
      </trkpt>
      <trkpt lat="28.1250600" lon="-16.6618870">
        <ele>1103.9</ele>
        <time>2020-11-11T20:32:42Z</time>
      </trkpt>
      <trkpt lat="28.1249930" lon="-16.6621770">
        <ele>1101.9</ele>
        <time>2020-11-11T20:32:43Z</time>
      </trkpt>
      <trkpt lat="28.1249930" lon="-16.6621770">
        <ele>1101.9</ele>
        <time>2020-11-11T20:32:44Z</time>
      </trkpt>
      <trkpt lat="28.1249380" lon="-16.6624720">
        <ele>1099.9</ele>
        <time>2020-11-11T20:32:45Z</time>
      </trkpt>
      <trkpt lat="28.1249380" lon="-16.6624720">
        <ele>1099.9</ele>
        <time>2020-11-11T20:32:46Z</time>
      </trkpt>
      <trkpt lat="28.1248830" lon="-16.6627650">
        <ele>1096.9</ele>
        <time>2020-11-11T20:32:47Z</time>
      </trkpt>
      <trkpt lat="28.1248830" lon="-16.6627650">
        <ele>1096.9</ele>
        <time>2020-11-11T20:32:48Z</time>
      </trkpt>
      <trkpt lat="28.1248270" lon="-16.6630580">
        <ele>1094.9</ele>
        <time>2020-11-11T20:32:49Z</time>
      </trkpt>
      <trkpt lat="28.1247980" lon="-16.6632080">
        <ele>1094.9</ele>
        <time>2020-11-11T20:32:50Z</time>
      </trkpt>
      <trkpt lat="28.1247980" lon="-16.6632080">
        <ele>1092.9</ele>
        <time>2020-11-11T20:32:51Z</time>
      </trkpt>
      <trkpt lat="28.1247400" lon="-16.6635070">
        <ele>1092.9</ele>
        <time>2020-11-11T20:32:52Z</time>
      </trkpt>
      <trkpt lat="28.1247400" lon="-16.6635070">
        <ele>1089.9</ele>
        <time>2020-11-11T20:32:53Z</time>
      </trkpt>
      <trkpt lat="28.1246850" lon="-16.6637950">
        <ele>1089.9</ele>
        <time>2020-11-11T20:32:54Z</time>
      </trkpt>
      <trkpt lat="28.1246850" lon="-16.6637950">
        <ele>1087.9</ele>
        <time>2020-11-11T20:32:55Z</time>
      </trkpt>
      <trkpt lat="28.1246480" lon="-16.6640530">
        <ele>1087.9</ele>
        <time>2020-11-11T20:32:56Z</time>
      </trkpt>
      <trkpt lat="28.1246470" lon="-16.6641780">
        <ele>1085.9</ele>
        <time>2020-11-11T20:32:57Z</time>
      </trkpt>
      <trkpt lat="28.1246470" lon="-16.6641780">
        <ele>1083.9</ele>
        <time>2020-11-11T20:32:58Z</time>
      </trkpt>
      <trkpt lat="28.1246800" lon="-16.6644200">
        <ele>1083.9</ele>
        <time>2020-11-11T20:32:59Z</time>
      </trkpt>
      <trkpt lat="28.1246800" lon="-16.6644200">
        <ele>1081.9</ele>
        <time>2020-11-11T20:33:00Z</time>
      </trkpt>
      <trkpt lat="28.1247720" lon="-16.6646350">
        <ele>1081.9</ele>
        <time>2020-11-11T20:33:01Z</time>
      </trkpt>
      <trkpt lat="28.1247720" lon="-16.6646350">
        <ele>1079.9</ele>
        <time>2020-11-11T20:33:02Z</time>
      </trkpt>
      <trkpt lat="28.1249150" lon="-16.6648220">
        <ele>1079.9</ele>
        <time>2020-11-11T20:33:03Z</time>
      </trkpt>
      <trkpt lat="28.1249900" lon="-16.6649050">
        <ele>1077.9</ele>
        <time>2020-11-11T20:33:04Z</time>
      </trkpt>
      <trkpt lat="28.1249900" lon="-16.6649050">
        <ele>1077.9</ele>
        <time>2020-11-11T20:33:05Z</time>
      </trkpt>
      <trkpt lat="28.1251320" lon="-16.6650630">
        <ele>1077.9</ele>
        <time>2020-11-11T20:33:06Z</time>
      </trkpt>
      <trkpt lat="28.1251320" lon="-16.6650630">
        <ele>1076.9</ele>
        <time>2020-11-11T20:33:07Z</time>
      </trkpt>
      <trkpt lat="28.1252600" lon="-16.6652350">
        <ele>1076.9</ele>
        <time>2020-11-11T20:33:08Z</time>
      </trkpt>
      <trkpt lat="28.1252600" lon="-16.6652350">
        <ele>1074.9</ele>
        <time>2020-11-11T20:33:09Z</time>
      </trkpt>
      <trkpt lat="28.1253580" lon="-16.6654320">
        <ele>1074.9</ele>
        <time>2020-11-11T20:33:10Z</time>
      </trkpt>
      <trkpt lat="28.1253580" lon="-16.6654320">
        <ele>1073.9</ele>
        <time>2020-11-11T20:33:11Z</time>
      </trkpt>
      <trkpt lat="28.1254280" lon="-16.6656500">
        <ele>1073.9</ele>
        <time>2020-11-11T20:33:12Z</time>
      </trkpt>
      <trkpt lat="28.1254570" lon="-16.6657630">
        <ele>1072.9</ele>
        <time>2020-11-11T20:33:13Z</time>
      </trkpt>
      <trkpt lat="28.1254780" lon="-16.6658780">
        <ele>1072.9</ele>
        <time>2020-11-11T20:33:14Z</time>
      </trkpt>
      <trkpt lat="28.1254980" lon="-16.6659930">
        <ele>1070.9</ele>
        <time>2020-11-11T20:33:15Z</time>
      </trkpt>
      <trkpt lat="28.1254980" lon="-16.6659930">
        <ele>1070.9</ele>
        <time>2020-11-11T20:33:16Z</time>
      </trkpt>
      <trkpt lat="28.1255330" lon="-16.6662180">
        <ele>1069.9</ele>
        <time>2020-11-11T20:33:17Z</time>
      </trkpt>
      <trkpt lat="28.1255330" lon="-16.6662180">
        <ele>1069.9</ele>
        <time>2020-11-11T20:33:18Z</time>
      </trkpt>
      <trkpt lat="28.1255670" lon="-16.6664450">
        <ele>1068.9</ele>
        <time>2020-11-11T20:33:19Z</time>
      </trkpt>
      <trkpt lat="28.1255670" lon="-16.6664450">
        <ele>1068.9</ele>
        <time>2020-11-11T20:33:20Z</time>
      </trkpt>
      <trkpt lat="28.1255550" lon="-16.6666750">
        <ele>1067.9</ele>
        <time>2020-11-11T20:33:21Z</time>
      </trkpt>
      <trkpt lat="28.1255550" lon="-16.6666750">
        <ele>1067.9</ele>
        <time>2020-11-11T20:33:22Z</time>
      </trkpt>
      <trkpt lat="28.1254900" lon="-16.6668920">
        <ele>1065.9</ele>
        <time>2020-11-11T20:33:23Z</time>
      </trkpt>
      <trkpt lat="28.1254900" lon="-16.6668920">
        <ele>1065.9</ele>
        <time>2020-11-11T20:33:24Z</time>
      </trkpt>
      <trkpt lat="28.1253880" lon="-16.6670980">
        <ele>1064.9</ele>
        <time>2020-11-11T20:33:25Z</time>
      </trkpt>
      <trkpt lat="28.1253880" lon="-16.6670980">
        <ele>1064.9</ele>
        <time>2020-11-11T20:33:26Z</time>
      </trkpt>
      <trkpt lat="28.1252730" lon="-16.6673030">
        <ele>1063.9</ele>
        <time>2020-11-11T20:33:27Z</time>
      </trkpt>
      <trkpt lat="28.1252730" lon="-16.6673030">
        <ele>1063.9</ele>
        <time>2020-11-11T20:33:28Z</time>
      </trkpt>
      <trkpt lat="28.1251650" lon="-16.6675170">
        <ele>1062.9</ele>
        <time>2020-11-11T20:33:29Z</time>
      </trkpt>
      <trkpt lat="28.1251650" lon="-16.6675170">
        <ele>1062.9</ele>
        <time>2020-11-11T20:33:30Z</time>
      </trkpt>
      <trkpt lat="28.1251150" lon="-16.6677450">
        <ele>1060.9</ele>
        <time>2020-11-11T20:33:31Z</time>
      </trkpt>
      <trkpt lat="28.1251150" lon="-16.6677450">
        <ele>1059.9</ele>
        <time>2020-11-11T20:33:32Z</time>
      </trkpt>
      <trkpt lat="28.1251380" lon="-16.6679770">
        <ele>1059.9</ele>
        <time>2020-11-11T20:33:33Z</time>
      </trkpt>
      <trkpt lat="28.1251380" lon="-16.6679770">
        <ele>1058.9</ele>
        <time>2020-11-11T20:33:34Z</time>
      </trkpt>
      <trkpt lat="28.1252430" lon="-16.6681730">
        <ele>1058.9</ele>
        <time>2020-11-11T20:33:35Z</time>
      </trkpt>
      <trkpt lat="28.1252430" lon="-16.6681730">
        <ele>1057.9</ele>
        <time>2020-11-11T20:33:36Z</time>
      </trkpt>
      <trkpt lat="28.1253970" lon="-16.6683180">
        <ele>1057.9</ele>
        <time>2020-11-11T20:33:37Z</time>
      </trkpt>
      <trkpt lat="28.1253970" lon="-16.6683180">
        <ele>1056.9</ele>
        <time>2020-11-11T20:33:38Z</time>
      </trkpt>
      <trkpt lat="28.1255420" lon="-16.6684520">
        <ele>1056.9</ele>
        <time>2020-11-11T20:33:39Z</time>
      </trkpt>
      <trkpt lat="28.1255420" lon="-16.6684520">
        <ele>1056.9</ele>
        <time>2020-11-11T20:33:40Z</time>
      </trkpt>
      <trkpt lat="28.1256180" lon="-16.6686130">
        <ele>1056.9</ele>
        <time>2020-11-11T20:33:41Z</time>
      </trkpt>
      <trkpt lat="28.1256100" lon="-16.6686980">
        <ele>1055.9</ele>
        <time>2020-11-11T20:33:42Z</time>
      </trkpt>
      <trkpt lat="28.1256100" lon="-16.6686980">
        <ele>1055.9</ele>
        <time>2020-11-11T20:33:43Z</time>
      </trkpt>
      <trkpt lat="28.1255150" lon="-16.6688250">
        <ele>1054.9</ele>
        <time>2020-11-11T20:33:44Z</time>
      </trkpt>
      <trkpt lat="28.1254420" lon="-16.6688570">
        <ele>1054.9</ele>
        <time>2020-11-11T20:33:45Z</time>
      </trkpt>
      <trkpt lat="28.1254420" lon="-16.6688570">
        <ele>1053.9</ele>
        <time>2020-11-11T20:33:46Z</time>
      </trkpt>
      <trkpt lat="28.1252900" lon="-16.6688430">
        <ele>1053.9</ele>
        <time>2020-11-11T20:33:47Z</time>
      </trkpt>
      <trkpt lat="28.1252900" lon="-16.6688430">
        <ele>1052.9</ele>
        <time>2020-11-11T20:33:48Z</time>
      </trkpt>
      <trkpt lat="28.1251700" lon="-16.6687430">
        <ele>1052.9</ele>
        <time>2020-11-11T20:33:49Z</time>
      </trkpt>
      <trkpt lat="28.1251700" lon="-16.6687430">
        <ele>1051.9</ele>
        <time>2020-11-11T20:33:50Z</time>
      </trkpt>
      <trkpt lat="28.1250700" lon="-16.6686030">
        <ele>1051.9</ele>
        <time>2020-11-11T20:33:51Z</time>
      </trkpt>
      <trkpt lat="28.1250700" lon="-16.6686030">
        <ele>1050.9</ele>
        <time>2020-11-11T20:33:52Z</time>
      </trkpt>
      <trkpt lat="28.1249720" lon="-16.6684520">
        <ele>1050.9</ele>
        <time>2020-11-11T20:33:53Z</time>
      </trkpt>
      <trkpt lat="28.1249720" lon="-16.6684520">
        <ele>1049.9</ele>
        <time>2020-11-11T20:33:54Z</time>
      </trkpt>
      <trkpt lat="28.1248650" lon="-16.6682980">
        <ele>1049.9</ele>
        <time>2020-11-11T20:33:55Z</time>
      </trkpt>
      <trkpt lat="28.1248100" lon="-16.6682220">
        <ele>1048.9</ele>
        <time>2020-11-11T20:33:56Z</time>
      </trkpt>
      <trkpt lat="28.1248100" lon="-16.6682220">
        <ele>1048.9</ele>
        <time>2020-11-11T20:33:57Z</time>
      </trkpt>
      <trkpt lat="28.1246950" lon="-16.6680620">
        <ele>1048.9</ele>
        <time>2020-11-11T20:33:58Z</time>
      </trkpt>
      <trkpt lat="28.1246950" lon="-16.6680620">
        <ele>1048.9</ele>
        <time>2020-11-11T20:33:59Z</time>
      </trkpt>
      <trkpt lat="28.1245730" lon="-16.6679020">
        <ele>1047.9</ele>
        <time>2020-11-11T20:34:00Z</time>
      </trkpt>
      <trkpt lat="28.1245120" lon="-16.6678220">
        <ele>1047.9</ele>
        <time>2020-11-11T20:34:01Z</time>
      </trkpt>
      <trkpt lat="28.1245120" lon="-16.6678220">
        <ele>1046.9</ele>
        <time>2020-11-11T20:34:02Z</time>
      </trkpt>
      <trkpt lat="28.1243780" lon="-16.6676620">
        <ele>1046.9</ele>
        <time>2020-11-11T20:34:03Z</time>
      </trkpt>
      <trkpt lat="28.1243780" lon="-16.6676620">
        <ele>1045.9</ele>
        <time>2020-11-11T20:34:04Z</time>
      </trkpt>
      <trkpt lat="28.1242350" lon="-16.6675020">
        <ele>1045.9</ele>
        <time>2020-11-11T20:34:05Z</time>
      </trkpt>
      <trkpt lat="28.1242350" lon="-16.6675020">
        <ele>1044.9</ele>
        <time>2020-11-11T20:34:06Z</time>
      </trkpt>
      <trkpt lat="28.1240930" lon="-16.6673320">
        <ele>1044.9</ele>
        <time>2020-11-11T20:34:07Z</time>
      </trkpt>
      <trkpt lat="28.1240930" lon="-16.6673320">
        <ele>1043.9</ele>
        <time>2020-11-11T20:34:08Z</time>
      </trkpt>
      <trkpt lat="28.1239470" lon="-16.6671580">
        <ele>1043.9</ele>
        <time>2020-11-11T20:34:09Z</time>
      </trkpt>
      <trkpt lat="28.1239470" lon="-16.6671580">
        <ele>1042.9</ele>
        <time>2020-11-11T20:34:10Z</time>
      </trkpt>
      <trkpt lat="28.1237930" lon="-16.6669820">
        <ele>1042.9</ele>
        <time>2020-11-11T20:34:11Z</time>
      </trkpt>
      <trkpt lat="28.1237930" lon="-16.6669820">
        <ele>1041.9</ele>
        <time>2020-11-11T20:34:12Z</time>
      </trkpt>
      <trkpt lat="28.1236370" lon="-16.6668030">
        <ele>1041.9</ele>
        <time>2020-11-11T20:34:13Z</time>
      </trkpt>
      <trkpt lat="28.1236370" lon="-16.6668030">
        <ele>1040.9</ele>
        <time>2020-11-11T20:34:14Z</time>
      </trkpt>
      <trkpt lat="28.1234780" lon="-16.6666220">
        <ele>1040.9</ele>
        <time>2020-11-11T20:34:15Z</time>
      </trkpt>
      <trkpt lat="28.1234780" lon="-16.6666220">
        <ele>1039.9</ele>
        <time>2020-11-11T20:34:16Z</time>
      </trkpt>
      <trkpt lat="28.1233220" lon="-16.6664470">
        <ele>1038.9</ele>
        <time>2020-11-11T20:34:17Z</time>
      </trkpt>
      <trkpt lat="28.1233220" lon="-16.6664470">
        <ele>1038.9</ele>
        <time>2020-11-11T20:34:18Z</time>
      </trkpt>
      <trkpt lat="28.1231550" lon="-16.6663170">
        <ele>1037.9</ele>
        <time>2020-11-11T20:34:19Z</time>
      </trkpt>
      <trkpt lat="28.1231550" lon="-16.6663170">
        <ele>1037.9</ele>
        <time>2020-11-11T20:34:20Z</time>
      </trkpt>
      <trkpt lat="28.1229620" lon="-16.6662620">
        <ele>1036.9</ele>
        <time>2020-11-11T20:34:21Z</time>
      </trkpt>
      <trkpt lat="28.1229620" lon="-16.6662620">
        <ele>1036.9</ele>
        <time>2020-11-11T20:34:22Z</time>
      </trkpt>
      <trkpt lat="28.1227570" lon="-16.6662730">
        <ele>1035.9</ele>
        <time>2020-11-11T20:34:23Z</time>
      </trkpt>
      <trkpt lat="28.1227570" lon="-16.6662730">
        <ele>1035.9</ele>
        <time>2020-11-11T20:34:24Z</time>
      </trkpt>
      <trkpt lat="28.1225580" lon="-16.6663520">
        <ele>1033.9</ele>
        <time>2020-11-11T20:34:25Z</time>
      </trkpt>
      <trkpt lat="28.1225580" lon="-16.6663520">
        <ele>1033.9</ele>
        <time>2020-11-11T20:34:26Z</time>
      </trkpt>
      <trkpt lat="28.1223670" lon="-16.6664670">
        <ele>1032.9</ele>
        <time>2020-11-11T20:34:27Z</time>
      </trkpt>
      <trkpt lat="28.1223670" lon="-16.6664670">
        <ele>1032.9</ele>
        <time>2020-11-11T20:34:28Z</time>
      </trkpt>
      <trkpt lat="28.1221750" lon="-16.6665850">
        <ele>1031.9</ele>
        <time>2020-11-11T20:34:29Z</time>
      </trkpt>
      <trkpt lat="28.1221750" lon="-16.6665850">
        <ele>1031.9</ele>
        <time>2020-11-11T20:34:30Z</time>
      </trkpt>
      <trkpt lat="28.1219780" lon="-16.6666970">
        <ele>1030.9</ele>
        <time>2020-11-11T20:34:31Z</time>
      </trkpt>
      <trkpt lat="28.1219780" lon="-16.6666970">
        <ele>1030.9</ele>
        <time>2020-11-11T20:34:32Z</time>
      </trkpt>
      <trkpt lat="28.1217870" lon="-16.6668070">
        <ele>1029.9</ele>
        <time>2020-11-11T20:34:33Z</time>
      </trkpt>
      <trkpt lat="28.1217870" lon="-16.6668070">
        <ele>1029.9</ele>
        <time>2020-11-11T20:34:34Z</time>
      </trkpt>
      <trkpt lat="28.1216120" lon="-16.6668720">
        <ele>1027.9</ele>
        <time>2020-11-11T20:34:35Z</time>
      </trkpt>
      <trkpt lat="28.1216120" lon="-16.6668720">
        <ele>1027.9</ele>
        <time>2020-11-11T20:34:36Z</time>
      </trkpt>
      <trkpt lat="28.1214330" lon="-16.6668320">
        <ele>1026.9</ele>
        <time>2020-11-11T20:34:37Z</time>
      </trkpt>
      <trkpt lat="28.1214330" lon="-16.6668320">
        <ele>1026.9</ele>
        <time>2020-11-11T20:34:38Z</time>
      </trkpt>
      <trkpt lat="28.1212670" lon="-16.6667420">
        <ele>1025.9</ele>
        <time>2020-11-11T20:34:39Z</time>
      </trkpt>
      <trkpt lat="28.1212670" lon="-16.6667420">
        <ele>1025.9</ele>
        <time>2020-11-11T20:34:40Z</time>
      </trkpt>
      <trkpt lat="28.1211050" lon="-16.6666400">
        <ele>1025.9</ele>
        <time>2020-11-11T20:34:41Z</time>
      </trkpt>
      <trkpt lat="28.1211050" lon="-16.6666400">
        <ele>1025.9</ele>
        <time>2020-11-11T20:34:42Z</time>
      </trkpt>
      <trkpt lat="28.1209400" lon="-16.6665300">
        <ele>1024.9</ele>
        <time>2020-11-11T20:34:43Z</time>
      </trkpt>
      <trkpt lat="28.1209400" lon="-16.6665300">
        <ele>1024.9</ele>
        <time>2020-11-11T20:34:44Z</time>
      </trkpt>
      <trkpt lat="28.1207700" lon="-16.6664170">
        <ele>1023.9</ele>
        <time>2020-11-11T20:34:45Z</time>
      </trkpt>
      <trkpt lat="28.1207700" lon="-16.6664170">
        <ele>1023.9</ele>
        <time>2020-11-11T20:34:46Z</time>
      </trkpt>
      <trkpt lat="28.1205970" lon="-16.6663030">
        <ele>1022.9</ele>
        <time>2020-11-11T20:34:47Z</time>
      </trkpt>
      <trkpt lat="28.1205970" lon="-16.6663030">
        <ele>1020.9</ele>
        <time>2020-11-11T20:34:48Z</time>
      </trkpt>
      <trkpt lat="28.1204170" lon="-16.6661850">
        <ele>1020.9</ele>
        <time>2020-11-11T20:34:49Z</time>
      </trkpt>
      <trkpt lat="28.1204170" lon="-16.6661850">
        <ele>1019.9</ele>
        <time>2020-11-11T20:34:50Z</time>
      </trkpt>
      <trkpt lat="28.1202370" lon="-16.6660570">
        <ele>1019.9</ele>
        <time>2020-11-11T20:34:51Z</time>
      </trkpt>
      <trkpt lat="28.1202370" lon="-16.6660570">
        <ele>1018.9</ele>
        <time>2020-11-11T20:34:52Z</time>
      </trkpt>
      <trkpt lat="28.1200520" lon="-16.6659370">
        <ele>1018.9</ele>
        <time>2020-11-11T20:34:53Z</time>
      </trkpt>
      <trkpt lat="28.1200520" lon="-16.6659370">
        <ele>1016.9</ele>
        <time>2020-11-11T20:34:54Z</time>
      </trkpt>
      <trkpt lat="28.1198620" lon="-16.6658200">
        <ele>1016.9</ele>
        <time>2020-11-11T20:34:55Z</time>
      </trkpt>
      <trkpt lat="28.1197650" lon="-16.6657580">
        <ele>1015.9</ele>
        <time>2020-11-11T20:34:56Z</time>
      </trkpt>
      <trkpt lat="28.1197650" lon="-16.6657580">
        <ele>1015.9</ele>
        <time>2020-11-11T20:34:57Z</time>
      </trkpt>
      <trkpt lat="28.1195730" lon="-16.6656350">
        <ele>1014.9</ele>
        <time>2020-11-11T20:34:58Z</time>
      </trkpt>
      <trkpt lat="28.1194750" lon="-16.6655750">
        <ele>1014.9</ele>
        <time>2020-11-11T20:34:59Z</time>
      </trkpt>
      <trkpt lat="28.1194750" lon="-16.6655750">
        <ele>1013.9</ele>
        <time>2020-11-11T20:35:00Z</time>
      </trkpt>
      <trkpt lat="28.1192930" lon="-16.6654620">
        <ele>1013.9</ele>
        <time>2020-11-11T20:35:01Z</time>
      </trkpt>
      <trkpt lat="28.1192930" lon="-16.6654620">
        <ele>1012.9</ele>
        <time>2020-11-11T20:35:02Z</time>
      </trkpt>
      <trkpt lat="28.1191400" lon="-16.6653650">
        <ele>1012.9</ele>
        <time>2020-11-11T20:35:03Z</time>
      </trkpt>
      <trkpt lat="28.1191400" lon="-16.6653650">
        <ele>1011.9</ele>
        <time>2020-11-11T20:35:04Z</time>
      </trkpt>
      <trkpt lat="28.1190050" lon="-16.6652920">
        <ele>1011.9</ele>
        <time>2020-11-11T20:35:05Z</time>
      </trkpt>
      <trkpt lat="28.1190050" lon="-16.6652920">
        <ele>1009.9</ele>
        <time>2020-11-11T20:35:06Z</time>
      </trkpt>
      <trkpt lat="28.1188570" lon="-16.6652670">
        <ele>1009.9</ele>
        <time>2020-11-11T20:35:07Z</time>
      </trkpt>
      <trkpt lat="28.1188570" lon="-16.6652670">
        <ele>1008.9</ele>
        <time>2020-11-11T20:35:08Z</time>
      </trkpt>
      <trkpt lat="28.1187050" lon="-16.6653350">
        <ele>1008.9</ele>
        <time>2020-11-11T20:35:09Z</time>
      </trkpt>
      <trkpt lat="28.1187050" lon="-16.6653350">
        <ele>1007.9</ele>
        <time>2020-11-11T20:35:10Z</time>
      </trkpt>
      <trkpt lat="28.1186020" lon="-16.6654980">
        <ele>1007.9</ele>
        <time>2020-11-11T20:35:11Z</time>
      </trkpt>
      <trkpt lat="28.1186020" lon="-16.6654980">
        <ele>1006.9</ele>
        <time>2020-11-11T20:35:12Z</time>
      </trkpt>
      <trkpt lat="28.1185620" lon="-16.6656980">
        <ele>1006.9</ele>
        <time>2020-11-11T20:35:13Z</time>
      </trkpt>
      <trkpt lat="28.1185620" lon="-16.6656980">
        <ele>1005.9</ele>
        <time>2020-11-11T20:35:14Z</time>
      </trkpt>
      <trkpt lat="28.1185520" lon="-16.6659230">
        <ele>1005.9</ele>
        <time>2020-11-11T20:35:15Z</time>
      </trkpt>
      <trkpt lat="28.1185520" lon="-16.6659230">
        <ele>1004.9</ele>
        <time>2020-11-11T20:35:16Z</time>
      </trkpt>
      <trkpt lat="28.1185430" lon="-16.6661600">
        <ele>1004.9</ele>
        <time>2020-11-11T20:35:17Z</time>
      </trkpt>
      <trkpt lat="28.1185350" lon="-16.6662820">
        <ele>1003.9</ele>
        <time>2020-11-11T20:35:18Z</time>
      </trkpt>
      <trkpt lat="28.1185350" lon="-16.6662820">
        <ele>1003.9</ele>
        <time>2020-11-11T20:35:19Z</time>
      </trkpt>
      <trkpt lat="28.1185200" lon="-16.6665320">
        <ele>1002.9</ele>
        <time>2020-11-11T20:35:20Z</time>
      </trkpt>
      <trkpt lat="28.1185200" lon="-16.6665320">
        <ele>1002.9</ele>
        <time>2020-11-11T20:35:21Z</time>
      </trkpt>
      <trkpt lat="28.1185070" lon="-16.6667850">
        <ele>1000.9</ele>
        <time>2020-11-11T20:35:22Z</time>
      </trkpt>
      <trkpt lat="28.1185000" lon="-16.6669130">
        <ele>1000.9</ele>
        <time>2020-11-11T20:35:23Z</time>
      </trkpt>
      <trkpt lat="28.1185000" lon="-16.6669130">
        <ele>999.9</ele>
        <time>2020-11-11T20:35:24Z</time>
      </trkpt>
      <trkpt lat="28.1184870" lon="-16.6671630">
        <ele>999.9</ele>
        <time>2020-11-11T20:35:25Z</time>
      </trkpt>
      <trkpt lat="28.1184870" lon="-16.6671630">
        <ele>997.9</ele>
        <time>2020-11-11T20:35:26Z</time>
      </trkpt>
      <trkpt lat="28.1184750" lon="-16.6674070">
        <ele>996.9</ele>
        <time>2020-11-11T20:35:27Z</time>
      </trkpt>
      <trkpt lat="28.1184750" lon="-16.6674070">
        <ele>996.9</ele>
        <time>2020-11-11T20:35:28Z</time>
      </trkpt>
      <trkpt lat="28.1184600" lon="-16.6676400">
        <ele>993.9</ele>
        <time>2020-11-11T20:35:29Z</time>
      </trkpt>
      <trkpt lat="28.1184600" lon="-16.6676400">
        <ele>993.9</ele>
        <time>2020-11-11T20:35:30Z</time>
      </trkpt>
      <trkpt lat="28.1184480" lon="-16.6678780">
        <ele>992.9</ele>
        <time>2020-11-11T20:35:31Z</time>
      </trkpt>
      <trkpt lat="28.1184480" lon="-16.6678780">
        <ele>992.9</ele>
        <time>2020-11-11T20:35:32Z</time>
      </trkpt>
      <trkpt lat="28.1184470" lon="-16.6681170">
        <ele>992.9</ele>
        <time>2020-11-11T20:35:33Z</time>
      </trkpt>
      <trkpt lat="28.1184470" lon="-16.6681170">
        <ele>990.9</ele>
        <time>2020-11-11T20:35:34Z</time>
      </trkpt>
      <trkpt lat="28.1184780" lon="-16.6683470">
        <ele>990.9</ele>
        <time>2020-11-11T20:35:35Z</time>
      </trkpt>
      <trkpt lat="28.1184780" lon="-16.6683470">
        <ele>989.9</ele>
        <time>2020-11-11T20:35:36Z</time>
      </trkpt>
      <trkpt lat="28.1185650" lon="-16.6685450">
        <ele>989.9</ele>
        <time>2020-11-11T20:35:37Z</time>
      </trkpt>
      <trkpt lat="28.1185650" lon="-16.6685450">
        <ele>988.9</ele>
        <time>2020-11-11T20:35:38Z</time>
      </trkpt>
      <trkpt lat="28.1186750" lon="-16.6687220">
        <ele>988.9</ele>
        <time>2020-11-11T20:35:39Z</time>
      </trkpt>
      <trkpt lat="28.1186750" lon="-16.6687220">
        <ele>988.9</ele>
        <time>2020-11-11T20:35:40Z</time>
      </trkpt>
      <trkpt lat="28.1187870" lon="-16.6688850">
        <ele>988.9</ele>
        <time>2020-11-11T20:35:41Z</time>
      </trkpt>
      <trkpt lat="28.1187870" lon="-16.6688850">
        <ele>988.9</ele>
        <time>2020-11-11T20:35:42Z</time>
      </trkpt>
      <trkpt lat="28.1188970" lon="-16.6690430">
        <ele>988.9</ele>
        <time>2020-11-11T20:35:43Z</time>
      </trkpt>
      <trkpt lat="28.1188970" lon="-16.6690430">
        <ele>988.9</ele>
        <time>2020-11-11T20:35:44Z</time>
      </trkpt>
      <trkpt lat="28.1190000" lon="-16.6691970">
        <ele>988.9</ele>
        <time>2020-11-11T20:35:45Z</time>
      </trkpt>
      <trkpt lat="28.1190000" lon="-16.6691970">
        <ele>988.9</ele>
        <time>2020-11-11T20:35:46Z</time>
      </trkpt>
      <trkpt lat="28.1190950" lon="-16.6693470">
        <ele>988.9</ele>
        <time>2020-11-11T20:35:47Z</time>
      </trkpt>
      <trkpt lat="28.1191370" lon="-16.6694250">
        <ele>986.9</ele>
        <time>2020-11-11T20:35:48Z</time>
      </trkpt>
      <trkpt lat="28.1191700" lon="-16.6695070">
        <ele>986.9</ele>
        <time>2020-11-11T20:35:49Z</time>
      </trkpt>
      <trkpt lat="28.1191980" lon="-16.6695880">
        <ele>986.9</ele>
        <time>2020-11-11T20:35:50Z</time>
      </trkpt>
      <trkpt lat="28.1191980" lon="-16.6695880">
        <ele>986.9</ele>
        <time>2020-11-11T20:35:51Z</time>
      </trkpt>
      <trkpt lat="28.1192430" lon="-16.6697550">
        <ele>986.9</ele>
        <time>2020-11-11T20:35:52Z</time>
      </trkpt>
      <trkpt lat="28.1192430" lon="-16.6697550">
        <ele>986.9</ele>
        <time>2020-11-11T20:35:53Z</time>
      </trkpt>
      <trkpt lat="28.1192830" lon="-16.6699220">
        <ele>985.9</ele>
        <time>2020-11-11T20:35:54Z</time>
      </trkpt>
      <trkpt lat="28.1192830" lon="-16.6699220">
        <ele>985.9</ele>
        <time>2020-11-11T20:35:55Z</time>
      </trkpt>
      <trkpt lat="28.1193180" lon="-16.6700870">
        <ele>985.9</ele>
        <time>2020-11-11T20:35:56Z</time>
      </trkpt>
      <trkpt lat="28.1193380" lon="-16.6701700">
        <ele>985.9</ele>
        <time>2020-11-11T20:35:57Z</time>
      </trkpt>
      <trkpt lat="28.1193380" lon="-16.6701700">
        <ele>984.9</ele>
        <time>2020-11-11T20:35:58Z</time>
      </trkpt>
      <trkpt lat="28.1193750" lon="-16.6703370">
        <ele>984.9</ele>
        <time>2020-11-11T20:35:59Z</time>
      </trkpt>
      <trkpt lat="28.1193750" lon="-16.6703370">
        <ele>984.9</ele>
        <time>2020-11-11T20:36:00Z</time>
      </trkpt>
      <trkpt lat="28.1194130" lon="-16.6705130">
        <ele>984.9</ele>
        <time>2020-11-11T20:36:01Z</time>
      </trkpt>
      <trkpt lat="28.1194130" lon="-16.6705130">
        <ele>984.9</ele>
        <time>2020-11-11T20:36:02Z</time>
      </trkpt>
      <trkpt lat="28.1194570" lon="-16.6706970">
        <ele>984.9</ele>
        <time>2020-11-11T20:36:03Z</time>
      </trkpt>
      <trkpt lat="28.1194570" lon="-16.6706970">
        <ele>983.9</ele>
        <time>2020-11-11T20:36:04Z</time>
      </trkpt>
      <trkpt lat="28.1195030" lon="-16.6708830">
        <ele>983.9</ele>
        <time>2020-11-11T20:36:05Z</time>
      </trkpt>
      <trkpt lat="28.1195030" lon="-16.6708830">
        <ele>982.9</ele>
        <time>2020-11-11T20:36:06Z</time>
      </trkpt>
      <trkpt lat="28.1195520" lon="-16.6710770">
        <ele>982.9</ele>
        <time>2020-11-11T20:36:07Z</time>
      </trkpt>
      <trkpt lat="28.1195520" lon="-16.6710770">
        <ele>982.9</ele>
        <time>2020-11-11T20:36:08Z</time>
      </trkpt>
      <trkpt lat="28.1195920" lon="-16.6712770">
        <ele>982.9</ele>
        <time>2020-11-11T20:36:09Z</time>
      </trkpt>
      <trkpt lat="28.1195920" lon="-16.6712770">
        <ele>981.9</ele>
        <time>2020-11-11T20:36:10Z</time>
      </trkpt>
      <trkpt lat="28.1196350" lon="-16.6714800">
        <ele>981.9</ele>
        <time>2020-11-11T20:36:11Z</time>
      </trkpt>
      <trkpt lat="28.1196350" lon="-16.6714800">
        <ele>980.9</ele>
        <time>2020-11-11T20:36:12Z</time>
      </trkpt>
      <trkpt lat="28.1196820" lon="-16.6716900">
        <ele>979.9</ele>
        <time>2020-11-11T20:36:13Z</time>
      </trkpt>
      <trkpt lat="28.1196820" lon="-16.6716900">
        <ele>979.9</ele>
        <time>2020-11-11T20:36:14Z</time>
      </trkpt>
      <trkpt lat="28.1197200" lon="-16.6719070">
        <ele>979.9</ele>
        <time>2020-11-11T20:36:15Z</time>
      </trkpt>
      <trkpt lat="28.1197200" lon="-16.6719070">
        <ele>979.9</ele>
        <time>2020-11-11T20:36:16Z</time>
      </trkpt>
      <trkpt lat="28.1197380" lon="-16.6721220">
        <ele>977.9</ele>
        <time>2020-11-11T20:36:17Z</time>
      </trkpt>
      <trkpt lat="28.1197380" lon="-16.6721220">
        <ele>977.9</ele>
        <time>2020-11-11T20:36:18Z</time>
      </trkpt>
      <trkpt lat="28.1197320" lon="-16.6723280">
        <ele>976.9</ele>
        <time>2020-11-11T20:36:19Z</time>
      </trkpt>
      <trkpt lat="28.1197320" lon="-16.6723280">
        <ele>976.9</ele>
        <time>2020-11-11T20:36:20Z</time>
      </trkpt>
      <trkpt lat="28.1196930" lon="-16.6725270">
        <ele>975.9</ele>
        <time>2020-11-11T20:36:21Z</time>
      </trkpt>
      <trkpt lat="28.1196930" lon="-16.6725270">
        <ele>975.9</ele>
        <time>2020-11-11T20:36:22Z</time>
      </trkpt>
      <trkpt lat="28.1196030" lon="-16.6727000">
        <ele>974.9</ele>
        <time>2020-11-11T20:36:23Z</time>
      </trkpt>
      <trkpt lat="28.1196030" lon="-16.6727000">
        <ele>974.9</ele>
        <time>2020-11-11T20:36:24Z</time>
      </trkpt>
      <trkpt lat="28.1194570" lon="-16.6728280">
        <ele>972.9</ele>
        <time>2020-11-11T20:36:25Z</time>
      </trkpt>
      <trkpt lat="28.1194570" lon="-16.6728280">
        <ele>972.9</ele>
        <time>2020-11-11T20:36:26Z</time>
      </trkpt>
      <trkpt lat="28.1192830" lon="-16.6728980">
        <ele>971.9</ele>
        <time>2020-11-11T20:36:27Z</time>
      </trkpt>
      <trkpt lat="28.1192830" lon="-16.6728980">
        <ele>971.9</ele>
        <time>2020-11-11T20:36:28Z</time>
      </trkpt>
      <trkpt lat="28.1190930" lon="-16.6729080">
        <ele>970.9</ele>
        <time>2020-11-11T20:36:29Z</time>
      </trkpt>
      <trkpt lat="28.1190000" lon="-16.6728930">
        <ele>970.9</ele>
        <time>2020-11-11T20:36:30Z</time>
      </trkpt>
      <trkpt lat="28.1190000" lon="-16.6728930">
        <ele>969.9</ele>
        <time>2020-11-11T20:36:31Z</time>
      </trkpt>
      <trkpt lat="28.1188130" lon="-16.6728500">
        <ele>969.9</ele>
        <time>2020-11-11T20:36:32Z</time>
      </trkpt>
      <trkpt lat="28.1188130" lon="-16.6728500">
        <ele>969.9</ele>
        <time>2020-11-11T20:36:33Z</time>
      </trkpt>
      <trkpt lat="28.1186300" lon="-16.6728050">
        <ele>969.9</ele>
        <time>2020-11-11T20:36:34Z</time>
      </trkpt>
      <trkpt lat="28.1186300" lon="-16.6728050">
        <ele>968.9</ele>
        <time>2020-11-11T20:36:35Z</time>
      </trkpt>
      <trkpt lat="28.1184470" lon="-16.6727630">
        <ele>968.9</ele>
        <time>2020-11-11T20:36:36Z</time>
      </trkpt>
      <trkpt lat="28.1184470" lon="-16.6727630">
        <ele>967.9</ele>
        <time>2020-11-11T20:36:37Z</time>
      </trkpt>
      <trkpt lat="28.1182620" lon="-16.6727230">
        <ele>967.9</ele>
        <time>2020-11-11T20:36:38Z</time>
      </trkpt>
      <trkpt lat="28.1182620" lon="-16.6727230">
        <ele>966.9</ele>
        <time>2020-11-11T20:36:39Z</time>
      </trkpt>
      <trkpt lat="28.1180750" lon="-16.6727130">
        <ele>966.9</ele>
        <time>2020-11-11T20:36:40Z</time>
      </trkpt>
      <trkpt lat="28.1180750" lon="-16.6727130">
        <ele>966.9</ele>
        <time>2020-11-11T20:36:41Z</time>
      </trkpt>
      <trkpt lat="28.1178850" lon="-16.6727600">
        <ele>966.9</ele>
        <time>2020-11-11T20:36:42Z</time>
      </trkpt>
      <trkpt lat="28.1178850" lon="-16.6727600">
        <ele>965.9</ele>
        <time>2020-11-11T20:36:43Z</time>
      </trkpt>
      <trkpt lat="28.1176950" lon="-16.6728180">
        <ele>963.9</ele>
        <time>2020-11-11T20:36:44Z</time>
      </trkpt>
      <trkpt lat="28.1176950" lon="-16.6728180">
        <ele>963.9</ele>
        <time>2020-11-11T20:36:45Z</time>
      </trkpt>
      <trkpt lat="28.1175000" lon="-16.6728800">
        <ele>963.9</ele>
        <time>2020-11-11T20:36:46Z</time>
      </trkpt>
      <trkpt lat="28.1175000" lon="-16.6728800">
        <ele>962.9</ele>
        <time>2020-11-11T20:36:47Z</time>
      </trkpt>
      <trkpt lat="28.1173030" lon="-16.6729450">
        <ele>962.9</ele>
        <time>2020-11-11T20:36:48Z</time>
      </trkpt>
      <trkpt lat="28.1173030" lon="-16.6729450">
        <ele>961.9</ele>
        <time>2020-11-11T20:36:49Z</time>
      </trkpt>
      <trkpt lat="28.1171050" lon="-16.6730100">
        <ele>961.9</ele>
        <time>2020-11-11T20:36:50Z</time>
      </trkpt>
      <trkpt lat="28.1171050" lon="-16.6730100">
        <ele>961.9</ele>
        <time>2020-11-11T20:36:51Z</time>
      </trkpt>
      <trkpt lat="28.1169220" lon="-16.6730900">
        <ele>959.9</ele>
        <time>2020-11-11T20:36:52Z</time>
      </trkpt>
      <trkpt lat="28.1169220" lon="-16.6730900">
        <ele>959.9</ele>
        <time>2020-11-11T20:36:53Z</time>
      </trkpt>
      <trkpt lat="28.1167900" lon="-16.6732280">
        <ele>958.9</ele>
        <time>2020-11-11T20:36:54Z</time>
      </trkpt>
      <trkpt lat="28.1167680" lon="-16.6733170">
        <ele>958.9</ele>
        <time>2020-11-11T20:36:55Z</time>
      </trkpt>
      <trkpt lat="28.1167680" lon="-16.6733170">
        <ele>957.9</ele>
        <time>2020-11-11T20:36:56Z</time>
      </trkpt>
      <trkpt lat="28.1168080" lon="-16.6735030">
        <ele>957.9</ele>
        <time>2020-11-11T20:36:57Z</time>
      </trkpt>
      <trkpt lat="28.1168080" lon="-16.6735030">
        <ele>956.9</ele>
        <time>2020-11-11T20:36:58Z</time>
      </trkpt>
      <trkpt lat="28.1169320" lon="-16.6736780">
        <ele>956.9</ele>
        <time>2020-11-11T20:36:59Z</time>
      </trkpt>
      <trkpt lat="28.1169320" lon="-16.6736780">
        <ele>954.9</ele>
        <time>2020-11-11T20:37:00Z</time>
      </trkpt>
      <trkpt lat="28.1170580" lon="-16.6738480">
        <ele>954.9</ele>
        <time>2020-11-11T20:37:01Z</time>
      </trkpt>
      <trkpt lat="28.1170580" lon="-16.6738480">
        <ele>953.9</ele>
        <time>2020-11-11T20:37:02Z</time>
      </trkpt>
      <trkpt lat="28.1171020" lon="-16.6740300">
        <ele>953.9</ele>
        <time>2020-11-11T20:37:03Z</time>
      </trkpt>
      <trkpt lat="28.1171020" lon="-16.6740300">
        <ele>952.9</ele>
        <time>2020-11-11T20:37:04Z</time>
      </trkpt>
      <trkpt lat="28.1170580" lon="-16.6742180">
        <ele>952.9</ele>
        <time>2020-11-11T20:37:05Z</time>
      </trkpt>
      <trkpt lat="28.1170120" lon="-16.6743000">
        <ele>950.9</ele>
        <time>2020-11-11T20:37:06Z</time>
      </trkpt>
      <trkpt lat="28.1169520" lon="-16.6743750">
        <ele>950.9</ele>
        <time>2020-11-11T20:37:07Z</time>
      </trkpt>
      <trkpt lat="28.1169520" lon="-16.6743750">
        <ele>949.9</ele>
        <time>2020-11-11T20:37:08Z</time>
      </trkpt>
      <trkpt lat="28.1168180" lon="-16.6745200">
        <ele>949.9</ele>
        <time>2020-11-11T20:37:09Z</time>
      </trkpt>
      <trkpt lat="28.1167470" lon="-16.6745930">
        <ele>948.9</ele>
        <time>2020-11-11T20:37:10Z</time>
      </trkpt>
      <trkpt lat="28.1167470" lon="-16.6745930">
        <ele>948.9</ele>
        <time>2020-11-11T20:37:11Z</time>
      </trkpt>
      <trkpt lat="28.1166180" lon="-16.6747680">
        <ele>947.9</ele>
        <time>2020-11-11T20:37:12Z</time>
      </trkpt>
      <trkpt lat="28.1165700" lon="-16.6748680">
        <ele>947.9</ele>
        <time>2020-11-11T20:37:13Z</time>
      </trkpt>
      <trkpt lat="28.1165700" lon="-16.6748680">
        <ele>945.9</ele>
        <time>2020-11-11T20:37:14Z</time>
      </trkpt>
      <trkpt lat="28.1164850" lon="-16.6750750">
        <ele>945.9</ele>
        <time>2020-11-11T20:37:15Z</time>
      </trkpt>
      <trkpt lat="28.1164850" lon="-16.6750750">
        <ele>944.9</ele>
        <time>2020-11-11T20:37:16Z</time>
      </trkpt>
      <trkpt lat="28.1164150" lon="-16.6752650">
        <ele>944.9</ele>
        <time>2020-11-11T20:37:17Z</time>
      </trkpt>
      <trkpt lat="28.1164150" lon="-16.6752650">
        <ele>942.9</ele>
        <time>2020-11-11T20:37:18Z</time>
      </trkpt>
      <trkpt lat="28.1163770" lon="-16.6754580">
        <ele>942.9</ele>
        <time>2020-11-11T20:37:19Z</time>
      </trkpt>
      <trkpt lat="28.1163770" lon="-16.6754580">
        <ele>940.9</ele>
        <time>2020-11-11T20:37:20Z</time>
      </trkpt>
      <trkpt lat="28.1164300" lon="-16.6756200">
        <ele>940.9</ele>
        <time>2020-11-11T20:37:21Z</time>
      </trkpt>
      <trkpt lat="28.1164300" lon="-16.6756200">
        <ele>939.9</ele>
        <time>2020-11-11T20:37:22Z</time>
      </trkpt>
      <trkpt lat="28.1165580" lon="-16.6757080">
        <ele>939.9</ele>
        <time>2020-11-11T20:37:23Z</time>
      </trkpt>
      <trkpt lat="28.1165580" lon="-16.6757080">
        <ele>938.9</ele>
        <time>2020-11-11T20:37:24Z</time>
      </trkpt>
      <trkpt lat="28.1167180" lon="-16.6757100">
        <ele>938.9</ele>
        <time>2020-11-11T20:37:25Z</time>
      </trkpt>
      <trkpt lat="28.1167180" lon="-16.6757100">
        <ele>936.9</ele>
        <time>2020-11-11T20:37:26Z</time>
      </trkpt>
      <trkpt lat="28.1168930" lon="-16.6756630">
        <ele>935.9</ele>
        <time>2020-11-11T20:37:27Z</time>
      </trkpt>
      <trkpt lat="28.1168930" lon="-16.6756630">
        <ele>935.9</ele>
        <time>2020-11-11T20:37:28Z</time>
      </trkpt>
      <trkpt lat="28.1170820" lon="-16.6756020">
        <ele>934.9</ele>
        <time>2020-11-11T20:37:29Z</time>
      </trkpt>
      <trkpt lat="28.1170820" lon="-16.6756020">
        <ele>934.9</ele>
        <time>2020-11-11T20:37:30Z</time>
      </trkpt>
      <trkpt lat="28.1172800" lon="-16.6755400">
        <ele>933.9</ele>
        <time>2020-11-11T20:37:31Z</time>
      </trkpt>
      <trkpt lat="28.1172800" lon="-16.6755400">
        <ele>933.9</ele>
        <time>2020-11-11T20:37:32Z</time>
      </trkpt>
      <trkpt lat="28.1174850" lon="-16.6754730">
        <ele>931.9</ele>
        <time>2020-11-11T20:37:33Z</time>
      </trkpt>
      <trkpt lat="28.1175900" lon="-16.6754370">
        <ele>931.9</ele>
        <time>2020-11-11T20:37:34Z</time>
      </trkpt>
      <trkpt lat="28.1175900" lon="-16.6754370">
        <ele>930.9</ele>
        <time>2020-11-11T20:37:35Z</time>
      </trkpt>
      <trkpt lat="28.1178080" lon="-16.6753720">
        <ele>930.9</ele>
        <time>2020-11-11T20:37:36Z</time>
      </trkpt>
      <trkpt lat="28.1178080" lon="-16.6753720">
        <ele>928.9</ele>
        <time>2020-11-11T20:37:37Z</time>
      </trkpt>
      <trkpt lat="28.1180070" lon="-16.6753500">
        <ele>928.9</ele>
        <time>2020-11-11T20:37:38Z</time>
      </trkpt>
      <trkpt lat="28.1180070" lon="-16.6753500">
        <ele>926.9</ele>
        <time>2020-11-11T20:37:39Z</time>
      </trkpt>
      <trkpt lat="28.1181780" lon="-16.6754170">
        <ele>926.9</ele>
        <time>2020-11-11T20:37:40Z</time>
      </trkpt>
      <trkpt lat="28.1181780" lon="-16.6754170">
        <ele>925.9</ele>
        <time>2020-11-11T20:37:41Z</time>
      </trkpt>
      <trkpt lat="28.1183100" lon="-16.6755700">
        <ele>925.9</ele>
        <time>2020-11-11T20:37:42Z</time>
      </trkpt>
      <trkpt lat="28.1183530" lon="-16.6756630">
        <ele>924.9</ele>
        <time>2020-11-11T20:37:43Z</time>
      </trkpt>
      <trkpt lat="28.1183530" lon="-16.6756630">
        <ele>924.9</ele>
        <time>2020-11-11T20:37:44Z</time>
      </trkpt>
      <trkpt lat="28.1183900" lon="-16.6758580">
        <ele>924.9</ele>
        <time>2020-11-11T20:37:45Z</time>
      </trkpt>
      <trkpt lat="28.1183900" lon="-16.6758580">
        <ele>924.9</ele>
        <time>2020-11-11T20:37:46Z</time>
      </trkpt>
      <trkpt lat="28.1183670" lon="-16.6760600">
        <ele>923.9</ele>
        <time>2020-11-11T20:37:47Z</time>
      </trkpt>
      <trkpt lat="28.1183670" lon="-16.6760600">
        <ele>923.9</ele>
        <time>2020-11-11T20:37:48Z</time>
      </trkpt>
      <trkpt lat="28.1183230" lon="-16.6762550">
        <ele>923.9</ele>
        <time>2020-11-11T20:37:49Z</time>
      </trkpt>
      <trkpt lat="28.1183230" lon="-16.6762550">
        <ele>923.9</ele>
        <time>2020-11-11T20:37:50Z</time>
      </trkpt>
      <trkpt lat="28.1182770" lon="-16.6764530">
        <ele>922.9</ele>
        <time>2020-11-11T20:37:51Z</time>
      </trkpt>
      <trkpt lat="28.1182770" lon="-16.6764530">
        <ele>922.9</ele>
        <time>2020-11-11T20:37:52Z</time>
      </trkpt>
      <trkpt lat="28.1182170" lon="-16.6766550">
        <ele>922.9</ele>
        <time>2020-11-11T20:37:53Z</time>
      </trkpt>
      <trkpt lat="28.1182170" lon="-16.6766550">
        <ele>922.9</ele>
        <time>2020-11-11T20:37:54Z</time>
      </trkpt>
      <trkpt lat="28.1181470" lon="-16.6768600">
        <ele>921.9</ele>
        <time>2020-11-11T20:37:55Z</time>
      </trkpt>
      <trkpt lat="28.1181470" lon="-16.6768600">
        <ele>921.9</ele>
        <time>2020-11-11T20:37:56Z</time>
      </trkpt>
      <trkpt lat="28.1180850" lon="-16.6770430">
        <ele>920.9</ele>
        <time>2020-11-11T20:37:57Z</time>
      </trkpt>
      <trkpt lat="28.1180450" lon="-16.6771170">
        <ele>919.9</ele>
        <time>2020-11-11T20:37:58Z</time>
      </trkpt>
      <trkpt lat="28.1180450" lon="-16.6771170">
        <ele>919.9</ele>
        <time>2020-11-11T20:37:59Z</time>
      </trkpt>
      <trkpt lat="28.1179220" lon="-16.6772150">
        <ele>918.9</ele>
        <time>2020-11-11T20:38:00Z</time>
      </trkpt>
      <trkpt lat="28.1178430" lon="-16.6772320">
        <ele>918.9</ele>
        <time>2020-11-11T20:38:01Z</time>
      </trkpt>
      <trkpt lat="28.1178430" lon="-16.6772320">
        <ele>916.9</ele>
        <time>2020-11-11T20:38:02Z</time>
      </trkpt>
      <trkpt lat="28.1176770" lon="-16.6772150">
        <ele>916.9</ele>
        <time>2020-11-11T20:38:03Z</time>
      </trkpt>
      <trkpt lat="28.1176770" lon="-16.6772150">
        <ele>915.9</ele>
        <time>2020-11-11T20:38:04Z</time>
      </trkpt>
      <trkpt lat="28.1175200" lon="-16.6771200">
        <ele>915.9</ele>
        <time>2020-11-11T20:38:05Z</time>
      </trkpt>
      <trkpt lat="28.1174600" lon="-16.6770500">
        <ele>914.9</ele>
        <time>2020-11-11T20:38:06Z</time>
      </trkpt>
      <trkpt lat="28.1174080" lon="-16.6769670">
        <ele>914.9</ele>
        <time>2020-11-11T20:38:07Z</time>
      </trkpt>
      <trkpt lat="28.1174080" lon="-16.6769670">
        <ele>913.9</ele>
        <time>2020-11-11T20:38:08Z</time>
      </trkpt>
      <trkpt lat="28.1173280" lon="-16.6767730">
        <ele>913.9</ele>
        <time>2020-11-11T20:38:09Z</time>
      </trkpt>
      <trkpt lat="28.1172850" lon="-16.6766800">
        <ele>911.9</ele>
        <time>2020-11-11T20:38:10Z</time>
      </trkpt>
      <trkpt lat="28.1172850" lon="-16.6766800">
        <ele>911.9</ele>
        <time>2020-11-11T20:38:11Z</time>
      </trkpt>
      <trkpt lat="28.1171650" lon="-16.6765500">
        <ele>910.9</ele>
        <time>2020-11-11T20:38:12Z</time>
      </trkpt>
      <trkpt lat="28.1170920" lon="-16.6765320">
        <ele>910.9</ele>
        <time>2020-11-11T20:38:13Z</time>
      </trkpt>
      <trkpt lat="28.1170920" lon="-16.6765320">
        <ele>909.9</ele>
        <time>2020-11-11T20:38:14Z</time>
      </trkpt>
      <trkpt lat="28.1169600" lon="-16.6765830">
        <ele>909.9</ele>
        <time>2020-11-11T20:38:15Z</time>
      </trkpt>
      <trkpt lat="28.1169600" lon="-16.6765830">
        <ele>907.9</ele>
        <time>2020-11-11T20:38:16Z</time>
      </trkpt>
      <trkpt lat="28.1169330" lon="-16.6767250">
        <ele>907.9</ele>
        <time>2020-11-11T20:38:17Z</time>
      </trkpt>
      <trkpt lat="28.1169330" lon="-16.6767250">
        <ele>906.9</ele>
        <time>2020-11-11T20:38:18Z</time>
      </trkpt>
      <trkpt lat="28.1169770" lon="-16.6768920">
        <ele>906.9</ele>
        <time>2020-11-11T20:38:19Z</time>
      </trkpt>
      <trkpt lat="28.1169770" lon="-16.6768920">
        <ele>905.9</ele>
        <time>2020-11-11T20:38:20Z</time>
      </trkpt>
      <trkpt lat="28.1170250" lon="-16.6770700">
        <ele>905.9</ele>
        <time>2020-11-11T20:38:21Z</time>
      </trkpt>
      <trkpt lat="28.1170500" lon="-16.6771620">
        <ele>904.9</ele>
        <time>2020-11-11T20:38:22Z</time>
      </trkpt>
      <trkpt lat="28.1170500" lon="-16.6771620">
        <ele>904.9</ele>
        <time>2020-11-11T20:38:23Z</time>
      </trkpt>
      <trkpt lat="28.1170920" lon="-16.6773470">
        <ele>902.9</ele>
        <time>2020-11-11T20:38:24Z</time>
      </trkpt>
      <trkpt lat="28.1171150" lon="-16.6774400">
        <ele>902.9</ele>
        <time>2020-11-11T20:38:25Z</time>
      </trkpt>
      <trkpt lat="28.1171150" lon="-16.6774400">
        <ele>901.9</ele>
        <time>2020-11-11T20:38:26Z</time>
      </trkpt>
      <trkpt lat="28.1171850" lon="-16.6776130">
        <ele>901.9</ele>
        <time>2020-11-11T20:38:27Z</time>
      </trkpt>
      <trkpt lat="28.1172450" lon="-16.6776780">
        <ele>901.9</ele>
        <time>2020-11-11T20:38:28Z</time>
      </trkpt>
      <trkpt lat="28.1172450" lon="-16.6776780">
        <ele>901.9</ele>
        <time>2020-11-11T20:38:29Z</time>
      </trkpt>
      <trkpt lat="28.1174120" lon="-16.6777400">
        <ele>900.9</ele>
        <time>2020-11-11T20:38:30Z</time>
      </trkpt>
      <trkpt lat="28.1174120" lon="-16.6777400">
        <ele>900.9</ele>
        <time>2020-11-11T20:38:31Z</time>
      </trkpt>
      <trkpt lat="28.1175850" lon="-16.6777800">
        <ele>899.9</ele>
        <time>2020-11-11T20:38:32Z</time>
      </trkpt>
      <trkpt lat="28.1175850" lon="-16.6777800">
        <ele>899.9</ele>
        <time>2020-11-11T20:38:33Z</time>
      </trkpt>
      <trkpt lat="28.1176880" lon="-16.6778980">
        <ele>898.9</ele>
        <time>2020-11-11T20:38:34Z</time>
      </trkpt>
      <trkpt lat="28.1176880" lon="-16.6778980">
        <ele>898.9</ele>
        <time>2020-11-11T20:38:35Z</time>
      </trkpt>
      <trkpt lat="28.1176850" lon="-16.6780500">
        <ele>897.9</ele>
        <time>2020-11-11T20:38:36Z</time>
      </trkpt>
      <trkpt lat="28.1176850" lon="-16.6780500">
        <ele>895.9</ele>
        <time>2020-11-11T20:38:37Z</time>
      </trkpt>
      <trkpt lat="28.1175970" lon="-16.6781670">
        <ele>895.9</ele>
        <time>2020-11-11T20:38:38Z</time>
      </trkpt>
      <trkpt lat="28.1175970" lon="-16.6781670">
        <ele>894.9</ele>
        <time>2020-11-11T20:38:39Z</time>
      </trkpt>
      <trkpt lat="28.1174420" lon="-16.6781830">
        <ele>894.9</ele>
        <time>2020-11-11T20:38:40Z</time>
      </trkpt>
      <trkpt lat="28.1174420" lon="-16.6781830">
        <ele>892.9</ele>
        <time>2020-11-11T20:38:41Z</time>
      </trkpt>
      <trkpt lat="28.1172670" lon="-16.6781600">
        <ele>892.9</ele>
        <time>2020-11-11T20:38:42Z</time>
      </trkpt>
      <trkpt lat="28.1172670" lon="-16.6781600">
        <ele>890.9</ele>
        <time>2020-11-11T20:38:43Z</time>
      </trkpt>
      <trkpt lat="28.1170780" lon="-16.6781600">
        <ele>890.9</ele>
        <time>2020-11-11T20:38:44Z</time>
      </trkpt>
      <trkpt lat="28.1170780" lon="-16.6781600">
        <ele>889.9</ele>
        <time>2020-11-11T20:38:45Z</time>
      </trkpt>
      <trkpt lat="28.1168800" lon="-16.6781720">
        <ele>889.9</ele>
        <time>2020-11-11T20:38:46Z</time>
      </trkpt>
      <trkpt lat="28.1167800" lon="-16.6781650">
        <ele>888.9</ele>
        <time>2020-11-11T20:38:47Z</time>
      </trkpt>
      <trkpt lat="28.1167800" lon="-16.6781650">
        <ele>888.9</ele>
        <time>2020-11-11T20:38:48Z</time>
      </trkpt>
      <trkpt lat="28.1166020" lon="-16.6781070">
        <ele>887.9</ele>
        <time>2020-11-11T20:38:49Z</time>
      </trkpt>
      <trkpt lat="28.1166020" lon="-16.6781070">
        <ele>887.9</ele>
        <time>2020-11-11T20:38:50Z</time>
      </trkpt>
      <trkpt lat="28.1164700" lon="-16.6779830">
        <ele>885.9</ele>
        <time>2020-11-11T20:38:51Z</time>
      </trkpt>
      <trkpt lat="28.1164700" lon="-16.6779830">
        <ele>885.9</ele>
        <time>2020-11-11T20:38:52Z</time>
      </trkpt>
      <trkpt lat="28.1163800" lon="-16.6778000">
        <ele>884.9</ele>
        <time>2020-11-11T20:38:53Z</time>
      </trkpt>
      <trkpt lat="28.1163800" lon="-16.6778000">
        <ele>884.9</ele>
        <time>2020-11-11T20:38:54Z</time>
      </trkpt>
      <trkpt lat="28.1162930" lon="-16.6776020">
        <ele>883.9</ele>
        <time>2020-11-11T20:38:55Z</time>
      </trkpt>
      <trkpt lat="28.1162930" lon="-16.6776020">
        <ele>883.9</ele>
        <time>2020-11-11T20:38:56Z</time>
      </trkpt>
      <trkpt lat="28.1161620" lon="-16.6774620">
        <ele>882.9</ele>
        <time>2020-11-11T20:38:57Z</time>
      </trkpt>
      <trkpt lat="28.1160920" lon="-16.6774430">
        <ele>882.9</ele>
        <time>2020-11-11T20:38:58Z</time>
      </trkpt>
      <trkpt lat="28.1160920" lon="-16.6774430">
        <ele>880.9</ele>
        <time>2020-11-11T20:38:59Z</time>
      </trkpt>
      <trkpt lat="28.1159980" lon="-16.6775100">
        <ele>880.9</ele>
        <time>2020-11-11T20:39:00Z</time>
      </trkpt>
      <trkpt lat="28.1159980" lon="-16.6775100">
        <ele>879.9</ele>
        <time>2020-11-11T20:39:01Z</time>
      </trkpt>
      <trkpt lat="28.1159870" lon="-16.6776550">
        <ele>879.9</ele>
        <time>2020-11-11T20:39:02Z</time>
      </trkpt>
      <trkpt lat="28.1159870" lon="-16.6776550">
        <ele>878.9</ele>
        <time>2020-11-11T20:39:03Z</time>
      </trkpt>
      <trkpt lat="28.1160280" lon="-16.6778220">
        <ele>878.9</ele>
        <time>2020-11-11T20:39:04Z</time>
      </trkpt>
      <trkpt lat="28.1160280" lon="-16.6778220">
        <ele>877.9</ele>
        <time>2020-11-11T20:39:05Z</time>
      </trkpt>
      <trkpt lat="28.1160750" lon="-16.6780070">
        <ele>877.9</ele>
        <time>2020-11-11T20:39:06Z</time>
      </trkpt>
      <trkpt lat="28.1160970" lon="-16.6781030">
        <ele>876.9</ele>
        <time>2020-11-11T20:39:07Z</time>
      </trkpt>
      <trkpt lat="28.1160970" lon="-16.6781030">
        <ele>876.9</ele>
        <time>2020-11-11T20:39:08Z</time>
      </trkpt>
      <trkpt lat="28.1161580" lon="-16.6782980">
        <ele>875.9</ele>
        <time>2020-11-11T20:39:09Z</time>
      </trkpt>
      <trkpt lat="28.1161580" lon="-16.6782980">
        <ele>875.9</ele>
        <time>2020-11-11T20:39:10Z</time>
      </trkpt>
      <trkpt lat="28.1162680" lon="-16.6784650">
        <ele>874.9</ele>
        <time>2020-11-11T20:39:11Z</time>
      </trkpt>
      <trkpt lat="28.1162680" lon="-16.6784650">
        <ele>874.9</ele>
        <time>2020-11-11T20:39:12Z</time>
      </trkpt>
      <trkpt lat="28.1164400" lon="-16.6785730">
        <ele>872.9</ele>
        <time>2020-11-11T20:39:13Z</time>
      </trkpt>
      <trkpt lat="28.1164400" lon="-16.6785730">
        <ele>872.9</ele>
        <time>2020-11-11T20:39:14Z</time>
      </trkpt>
      <trkpt lat="28.1166330" lon="-16.6786550">
        <ele>871.9</ele>
        <time>2020-11-11T20:39:15Z</time>
      </trkpt>
      <trkpt lat="28.1167250" lon="-16.6786920">
        <ele>871.9</ele>
        <time>2020-11-11T20:39:16Z</time>
      </trkpt>
      <trkpt lat="28.1167250" lon="-16.6786920">
        <ele>869.9</ele>
        <time>2020-11-11T20:39:17Z</time>
      </trkpt>
      <trkpt lat="28.1168550" lon="-16.6787680">
        <ele>869.9</ele>
        <time>2020-11-11T20:39:18Z</time>
      </trkpt>
      <trkpt lat="28.1168900" lon="-16.6788280">
        <ele>868.9</ele>
        <time>2020-11-11T20:39:19Z</time>
      </trkpt>
      <trkpt lat="28.1168900" lon="-16.6788280">
        <ele>867.9</ele>
        <time>2020-11-11T20:39:20Z</time>
      </trkpt>
      <trkpt lat="28.1168870" lon="-16.6789670">
        <ele>867.9</ele>
        <time>2020-11-11T20:39:21Z</time>
      </trkpt>
      <trkpt lat="28.1168500" lon="-16.6790180">
        <ele>865.9</ele>
        <time>2020-11-11T20:39:22Z</time>
      </trkpt>
      <trkpt lat="28.1168500" lon="-16.6790180">
        <ele>865.9</ele>
        <time>2020-11-11T20:39:23Z</time>
      </trkpt>
      <trkpt lat="28.1167330" lon="-16.6790370">
        <ele>864.9</ele>
        <time>2020-11-11T20:39:24Z</time>
      </trkpt>
      <trkpt lat="28.1166700" lon="-16.6790150">
        <ele>864.9</ele>
        <time>2020-11-11T20:39:25Z</time>
      </trkpt>
      <trkpt lat="28.1166700" lon="-16.6790150">
        <ele>864.9</ele>
        <time>2020-11-11T20:39:26Z</time>
      </trkpt>
      <trkpt lat="28.1165350" lon="-16.6789480">
        <ele>864.9</ele>
        <time>2020-11-11T20:39:27Z</time>
      </trkpt>
      <trkpt lat="28.1164600" lon="-16.6789150">
        <ele>862.9</ele>
        <time>2020-11-11T20:39:28Z</time>
      </trkpt>
      <trkpt lat="28.1164600" lon="-16.6789150">
        <ele>862.9</ele>
        <time>2020-11-11T20:39:29Z</time>
      </trkpt>
      <trkpt lat="28.1163070" lon="-16.6788470">
        <ele>859.9</ele>
        <time>2020-11-11T20:39:30Z</time>
      </trkpt>
      <trkpt lat="28.1162250" lon="-16.6788100">
        <ele>859.9</ele>
        <time>2020-11-11T20:39:31Z</time>
      </trkpt>
      <trkpt lat="28.1162250" lon="-16.6788100">
        <ele>858.9</ele>
        <time>2020-11-11T20:39:32Z</time>
      </trkpt>
      <trkpt lat="28.1160600" lon="-16.6787380">
        <ele>858.9</ele>
        <time>2020-11-11T20:39:33Z</time>
      </trkpt>
      <trkpt lat="28.1160600" lon="-16.6787380">
        <ele>858.9</ele>
        <time>2020-11-11T20:39:34Z</time>
      </trkpt>
      <trkpt lat="28.1158850" lon="-16.6786650">
        <ele>858.9</ele>
        <time>2020-11-11T20:39:35Z</time>
      </trkpt>
      <trkpt lat="28.1158850" lon="-16.6786650">
        <ele>857.9</ele>
        <time>2020-11-11T20:39:36Z</time>
      </trkpt>
      <trkpt lat="28.1157120" lon="-16.6785850">
        <ele>857.9</ele>
        <time>2020-11-11T20:39:37Z</time>
      </trkpt>
      <trkpt lat="28.1157120" lon="-16.6785850">
        <ele>856.9</ele>
        <time>2020-11-11T20:39:38Z</time>
      </trkpt>
      <trkpt lat="28.1155620" lon="-16.6784720">
        <ele>856.9</ele>
        <time>2020-11-11T20:39:39Z</time>
      </trkpt>
      <trkpt lat="28.1155620" lon="-16.6784720">
        <ele>855.9</ele>
        <time>2020-11-11T20:39:40Z</time>
      </trkpt>
      <trkpt lat="28.1154520" lon="-16.6783050">
        <ele>855.9</ele>
        <time>2020-11-11T20:39:41Z</time>
      </trkpt>
      <trkpt lat="28.1154520" lon="-16.6783050">
        <ele>854.9</ele>
        <time>2020-11-11T20:39:42Z</time>
      </trkpt>
      <trkpt lat="28.1153530" lon="-16.6781130">
        <ele>854.9</ele>
        <time>2020-11-11T20:39:43Z</time>
      </trkpt>
      <trkpt lat="28.1153530" lon="-16.6781130">
        <ele>853.9</ele>
        <time>2020-11-11T20:39:44Z</time>
      </trkpt>
      <trkpt lat="28.1152770" lon="-16.6779120">
        <ele>853.9</ele>
        <time>2020-11-11T20:39:45Z</time>
      </trkpt>
      <trkpt lat="28.1152770" lon="-16.6779120">
        <ele>852.9</ele>
        <time>2020-11-11T20:39:46Z</time>
      </trkpt>
      <trkpt lat="28.1151930" lon="-16.6777700">
        <ele>852.9</ele>
        <time>2020-11-11T20:39:47Z</time>
      </trkpt>
      <trkpt lat="28.1151400" lon="-16.6777580">
        <ele>851.9</ele>
        <time>2020-11-11T20:39:48Z</time>
      </trkpt>
      <trkpt lat="28.1151400" lon="-16.6777580">
        <ele>851.9</ele>
        <time>2020-11-11T20:39:49Z</time>
      </trkpt>
      <trkpt lat="28.1150450" lon="-16.6778170">
        <ele>849.9</ele>
        <time>2020-11-11T20:39:50Z</time>
      </trkpt>
      <trkpt lat="28.1150200" lon="-16.6778750">
        <ele>849.9</ele>
        <time>2020-11-11T20:39:51Z</time>
      </trkpt>
      <trkpt lat="28.1150200" lon="-16.6778750">
        <ele>848.9</ele>
        <time>2020-11-11T20:39:52Z</time>
      </trkpt>
      <trkpt lat="28.1150180" lon="-16.6780130">
        <ele>847.9</ele>
        <time>2020-11-11T20:39:53Z</time>
      </trkpt>
      <trkpt lat="28.1150320" lon="-16.6780900">
        <ele>847.9</ele>
        <time>2020-11-11T20:39:54Z</time>
      </trkpt>
      <trkpt lat="28.1150320" lon="-16.6780900">
        <ele>846.9</ele>
        <time>2020-11-11T20:39:55Z</time>
      </trkpt>
      <trkpt lat="28.1150800" lon="-16.6782430">
        <ele>846.9</ele>
        <time>2020-11-11T20:39:56Z</time>
      </trkpt>
      <trkpt lat="28.1150800" lon="-16.6782430">
        <ele>845.9</ele>
        <time>2020-11-11T20:39:57Z</time>
      </trkpt>
      <trkpt lat="28.1151400" lon="-16.6784050">
        <ele>845.9</ele>
        <time>2020-11-11T20:39:58Z</time>
      </trkpt>
      <trkpt lat="28.1151400" lon="-16.6784050">
        <ele>844.9</ele>
        <time>2020-11-11T20:39:59Z</time>
      </trkpt>
      <trkpt lat="28.1152230" lon="-16.6785600">
        <ele>844.9</ele>
        <time>2020-11-11T20:40:00Z</time>
      </trkpt>
      <trkpt lat="28.1152230" lon="-16.6785600">
        <ele>844.9</ele>
        <time>2020-11-11T20:40:01Z</time>
      </trkpt>
      <trkpt lat="28.1153530" lon="-16.6786830">
        <ele>844.9</ele>
        <time>2020-11-11T20:40:02Z</time>
      </trkpt>
      <trkpt lat="28.1153530" lon="-16.6786830">
        <ele>844.9</ele>
        <time>2020-11-11T20:40:03Z</time>
      </trkpt>
      <trkpt lat="28.1154970" lon="-16.6788000">
        <ele>844.9</ele>
        <time>2020-11-11T20:40:04Z</time>
      </trkpt>
      <trkpt lat="28.1154970" lon="-16.6788000">
        <ele>842.9</ele>
        <time>2020-11-11T20:40:05Z</time>
      </trkpt>
      <trkpt lat="28.1156380" lon="-16.6789270">
        <ele>842.9</ele>
        <time>2020-11-11T20:40:06Z</time>
      </trkpt>
      <trkpt lat="28.1156380" lon="-16.6789270">
        <ele>841.9</ele>
        <time>2020-11-11T20:40:07Z</time>
      </trkpt>
      <trkpt lat="28.1157630" lon="-16.6790470">
        <ele>841.9</ele>
        <time>2020-11-11T20:40:08Z</time>
      </trkpt>
      <trkpt lat="28.1157630" lon="-16.6790470">
        <ele>840.9</ele>
        <time>2020-11-11T20:40:09Z</time>
      </trkpt>
      <trkpt lat="28.1158270" lon="-16.6791850">
        <ele>840.9</ele>
        <time>2020-11-11T20:40:10Z</time>
      </trkpt>
      <trkpt lat="28.1158270" lon="-16.6791850">
        <ele>838.9</ele>
        <time>2020-11-11T20:40:11Z</time>
      </trkpt>
      <trkpt lat="28.1157850" lon="-16.6793300">
        <ele>838.9</ele>
        <time>2020-11-11T20:40:12Z</time>
      </trkpt>
      <trkpt lat="28.1157320" lon="-16.6793720">
        <ele>837.9</ele>
        <time>2020-11-11T20:40:13Z</time>
      </trkpt>
      <trkpt lat="28.1157320" lon="-16.6793720">
        <ele>837.9</ele>
        <time>2020-11-11T20:40:14Z</time>
      </trkpt>
      <trkpt lat="28.1155950" lon="-16.6793800">
        <ele>836.9</ele>
        <time>2020-11-11T20:40:15Z</time>
      </trkpt>
      <trkpt lat="28.1155950" lon="-16.6793800">
        <ele>836.9</ele>
        <time>2020-11-11T20:40:16Z</time>
      </trkpt>
      <trkpt lat="28.1154600" lon="-16.6793170">
        <ele>835.9</ele>
        <time>2020-11-11T20:40:17Z</time>
      </trkpt>
      <trkpt lat="28.1153950" lon="-16.6792730">
        <ele>835.9</ele>
        <time>2020-11-11T20:40:18Z</time>
      </trkpt>
      <trkpt lat="28.1153950" lon="-16.6792730">
        <ele>834.9</ele>
        <time>2020-11-11T20:40:19Z</time>
      </trkpt>
      <trkpt lat="28.1152550" lon="-16.6791850">
        <ele>834.9</ele>
        <time>2020-11-11T20:40:20Z</time>
      </trkpt>
      <trkpt lat="28.1152550" lon="-16.6791850">
        <ele>833.9</ele>
        <time>2020-11-11T20:40:21Z</time>
      </trkpt>
      <trkpt lat="28.1151070" lon="-16.6790970">
        <ele>833.9</ele>
        <time>2020-11-11T20:40:22Z</time>
      </trkpt>
      <trkpt lat="28.1150300" lon="-16.6790530">
        <ele>832.9</ele>
        <time>2020-11-11T20:40:23Z</time>
      </trkpt>
      <trkpt lat="28.1150300" lon="-16.6790530">
        <ele>832.9</ele>
        <time>2020-11-11T20:40:24Z</time>
      </trkpt>
      <trkpt lat="28.1148720" lon="-16.6789580">
        <ele>831.9</ele>
        <time>2020-11-11T20:40:25Z</time>
      </trkpt>
      <trkpt lat="28.1148720" lon="-16.6789580">
        <ele>831.9</ele>
        <time>2020-11-11T20:40:26Z</time>
      </trkpt>
      <trkpt lat="28.1147180" lon="-16.6788420">
        <ele>830.9</ele>
        <time>2020-11-11T20:40:27Z</time>
      </trkpt>
      <trkpt lat="28.1146470" lon="-16.6787700">
        <ele>830.9</ele>
        <time>2020-11-11T20:40:28Z</time>
      </trkpt>
      <trkpt lat="28.1146470" lon="-16.6787700">
        <ele>830.9</ele>
        <time>2020-11-11T20:40:29Z</time>
      </trkpt>
      <trkpt lat="28.1145280" lon="-16.6785900">
        <ele>830.9</ele>
        <time>2020-11-11T20:40:30Z</time>
      </trkpt>
      <trkpt lat="28.1144770" lon="-16.6784920">
        <ele>828.9</ele>
        <time>2020-11-11T20:40:31Z</time>
      </trkpt>
      <trkpt lat="28.1144770" lon="-16.6784920">
        <ele>827.9</ele>
        <time>2020-11-11T20:40:32Z</time>
      </trkpt>
      <trkpt lat="28.1143750" lon="-16.6782850">
        <ele>827.9</ele>
        <time>2020-11-11T20:40:33Z</time>
      </trkpt>
      <trkpt lat="28.1143220" lon="-16.6781820">
        <ele>826.9</ele>
        <time>2020-11-11T20:40:34Z</time>
      </trkpt>
      <trkpt lat="28.1143220" lon="-16.6781820">
        <ele>826.9</ele>
        <time>2020-11-11T20:40:35Z</time>
      </trkpt>
      <trkpt lat="28.1142150" lon="-16.6779920">
        <ele>826.9</ele>
        <time>2020-11-11T20:40:36Z</time>
      </trkpt>
      <trkpt lat="28.1141600" lon="-16.6779230">
        <ele>825.9</ele>
        <time>2020-11-11T20:40:37Z</time>
      </trkpt>
      <trkpt lat="28.1141600" lon="-16.6779230">
        <ele>825.9</ele>
        <time>2020-11-11T20:40:38Z</time>
      </trkpt>
      <trkpt lat="28.1140350" lon="-16.6778820">
        <ele>823.9</ele>
        <time>2020-11-11T20:40:39Z</time>
      </trkpt>
      <trkpt lat="28.1140350" lon="-16.6778820">
        <ele>823.9</ele>
        <time>2020-11-11T20:40:40Z</time>
      </trkpt>
      <trkpt lat="28.1139350" lon="-16.6779770">
        <ele>821.9</ele>
        <time>2020-11-11T20:40:41Z</time>
      </trkpt>
      <trkpt lat="28.1139350" lon="-16.6779770">
        <ele>821.9</ele>
        <time>2020-11-11T20:40:42Z</time>
      </trkpt>
      <trkpt lat="28.1139250" lon="-16.6781330">
        <ele>819.9</ele>
        <time>2020-11-11T20:40:43Z</time>
      </trkpt>
      <trkpt lat="28.1139250" lon="-16.6781330">
        <ele>819.9</ele>
        <time>2020-11-11T20:40:44Z</time>
      </trkpt>
      <trkpt lat="28.1139400" lon="-16.6783030">
        <ele>818.9</ele>
        <time>2020-11-11T20:40:45Z</time>
      </trkpt>
      <trkpt lat="28.1139400" lon="-16.6783030">
        <ele>818.9</ele>
        <time>2020-11-11T20:40:46Z</time>
      </trkpt>
      <trkpt lat="28.1139530" lon="-16.6784870">
        <ele>817.9</ele>
        <time>2020-11-11T20:40:47Z</time>
      </trkpt>
      <trkpt lat="28.1139600" lon="-16.6785830">
        <ele>817.9</ele>
        <time>2020-11-11T20:40:48Z</time>
      </trkpt>
      <trkpt lat="28.1139600" lon="-16.6785830">
        <ele>816.9</ele>
        <time>2020-11-11T20:40:49Z</time>
      </trkpt>
      <trkpt lat="28.1139700" lon="-16.6787850">
        <ele>816.9</ele>
        <time>2020-11-11T20:40:50Z</time>
      </trkpt>
      <trkpt lat="28.1139700" lon="-16.6787850">
        <ele>815.9</ele>
        <time>2020-11-11T20:40:51Z</time>
      </trkpt>
      <trkpt lat="28.1139800" lon="-16.6789970">
        <ele>815.9</ele>
        <time>2020-11-11T20:40:52Z</time>
      </trkpt>
      <trkpt lat="28.1139800" lon="-16.6789970">
        <ele>813.9</ele>
        <time>2020-11-11T20:40:53Z</time>
      </trkpt>
      <trkpt lat="28.1139900" lon="-16.6792200">
        <ele>813.9</ele>
        <time>2020-11-11T20:40:54Z</time>
      </trkpt>
      <trkpt lat="28.1139900" lon="-16.6792200">
        <ele>812.9</ele>
        <time>2020-11-11T20:40:55Z</time>
      </trkpt>
      <trkpt lat="28.1140150" lon="-16.6794380">
        <ele>812.9</ele>
        <time>2020-11-11T20:40:56Z</time>
      </trkpt>
      <trkpt lat="28.1140450" lon="-16.6795450">
        <ele>810.9</ele>
        <time>2020-11-11T20:40:57Z</time>
      </trkpt>
      <trkpt lat="28.1140450" lon="-16.6795450">
        <ele>810.9</ele>
        <time>2020-11-11T20:40:58Z</time>
      </trkpt>
      <trkpt lat="28.1141250" lon="-16.6797650">
        <ele>809.9</ele>
        <time>2020-11-11T20:40:59Z</time>
      </trkpt>
      <trkpt lat="28.1141250" lon="-16.6797650">
        <ele>809.9</ele>
        <time>2020-11-11T20:41:00Z</time>
      </trkpt>
      <trkpt lat="28.1142130" lon="-16.6799900">
        <ele>808.9</ele>
        <time>2020-11-11T20:41:01Z</time>
      </trkpt>
      <trkpt lat="28.1142130" lon="-16.6799900">
        <ele>808.9</ele>
        <time>2020-11-11T20:41:02Z</time>
      </trkpt>
      <trkpt lat="28.1143030" lon="-16.6802230">
        <ele>806.9</ele>
        <time>2020-11-11T20:41:03Z</time>
      </trkpt>
      <trkpt lat="28.1143030" lon="-16.6802230">
        <ele>806.9</ele>
        <time>2020-11-11T20:41:04Z</time>
      </trkpt>
      <trkpt lat="28.1143930" lon="-16.6804630">
        <ele>805.9</ele>
        <time>2020-11-11T20:41:05Z</time>
      </trkpt>
      <trkpt lat="28.1143930" lon="-16.6804630">
        <ele>805.9</ele>
        <time>2020-11-11T20:41:06Z</time>
      </trkpt>
      <trkpt lat="28.1144850" lon="-16.6807050">
        <ele>804.9</ele>
        <time>2020-11-11T20:41:07Z</time>
      </trkpt>
      <trkpt lat="28.1144850" lon="-16.6807050">
        <ele>804.9</ele>
        <time>2020-11-11T20:41:08Z</time>
      </trkpt>
      <trkpt lat="28.1145550" lon="-16.6809520">
        <ele>802.9</ele>
        <time>2020-11-11T20:41:09Z</time>
      </trkpt>
      <trkpt lat="28.1145750" lon="-16.6810730">
        <ele>801.9</ele>
        <time>2020-11-11T20:41:10Z</time>
      </trkpt>
      <trkpt lat="28.1145750" lon="-16.6810730">
        <ele>801.9</ele>
        <time>2020-11-11T20:41:11Z</time>
      </trkpt>
      <trkpt lat="28.1145800" lon="-16.6813230">
        <ele>800.9</ele>
        <time>2020-11-11T20:41:12Z</time>
      </trkpt>
      <trkpt lat="28.1145670" lon="-16.6814470">
        <ele>800.9</ele>
        <time>2020-11-11T20:41:13Z</time>
      </trkpt>
      <trkpt lat="28.1145670" lon="-16.6814470">
        <ele>799.9</ele>
        <time>2020-11-11T20:41:14Z</time>
      </trkpt>
      <trkpt lat="28.1145050" lon="-16.6816880">
        <ele>799.9</ele>
        <time>2020-11-11T20:41:15Z</time>
      </trkpt>
      <trkpt lat="28.1145050" lon="-16.6816880">
        <ele>797.9</ele>
        <time>2020-11-11T20:41:16Z</time>
      </trkpt>
      <trkpt lat="28.1144220" lon="-16.6819250">
        <ele>797.9</ele>
        <time>2020-11-11T20:41:17Z</time>
      </trkpt>
      <trkpt lat="28.1144220" lon="-16.6819250">
        <ele>796.9</ele>
        <time>2020-11-11T20:41:18Z</time>
      </trkpt>
      <trkpt lat="28.1143350" lon="-16.6821620">
        <ele>796.9</ele>
        <time>2020-11-11T20:41:19Z</time>
      </trkpt>
      <trkpt lat="28.1143350" lon="-16.6821620">
        <ele>795.9</ele>
        <time>2020-11-11T20:41:20Z</time>
      </trkpt>
      <trkpt lat="28.1142530" lon="-16.6824020">
        <ele>795.9</ele>
        <time>2020-11-11T20:41:21Z</time>
      </trkpt>
      <trkpt lat="28.1142130" lon="-16.6825220">
        <ele>794.9</ele>
        <time>2020-11-11T20:41:22Z</time>
      </trkpt>
      <trkpt lat="28.1142130" lon="-16.6825220">
        <ele>794.9</ele>
        <time>2020-11-11T20:41:23Z</time>
      </trkpt>
      <trkpt lat="28.1141370" lon="-16.6827400">
        <ele>793.9</ele>
        <time>2020-11-11T20:41:24Z</time>
      </trkpt>
      <trkpt lat="28.1141370" lon="-16.6827400">
        <ele>793.9</ele>
        <time>2020-11-11T20:41:25Z</time>
      </trkpt>
      <trkpt lat="28.1140580" lon="-16.6829130">
        <ele>791.9</ele>
        <time>2020-11-11T20:41:26Z</time>
      </trkpt>
      <trkpt lat="28.1140120" lon="-16.6829770">
        <ele>791.9</ele>
        <time>2020-11-11T20:41:27Z</time>
      </trkpt>
      <trkpt lat="28.1140120" lon="-16.6829770">
        <ele>790.9</ele>
        <time>2020-11-11T20:41:28Z</time>
      </trkpt>
      <trkpt lat="28.1138850" lon="-16.6830400">
        <ele>790.9</ele>
        <time>2020-11-11T20:41:29Z</time>
      </trkpt>
      <trkpt lat="28.1138850" lon="-16.6830400">
        <ele>788.9</ele>
        <time>2020-11-11T20:41:30Z</time>
      </trkpt>
      <trkpt lat="28.1137300" lon="-16.6830230">
        <ele>788.9</ele>
        <time>2020-11-11T20:41:31Z</time>
      </trkpt>
      <trkpt lat="28.1137300" lon="-16.6830230">
        <ele>787.9</ele>
        <time>2020-11-11T20:41:32Z</time>
      </trkpt>
      <trkpt lat="28.1135950" lon="-16.6829130">
        <ele>787.9</ele>
        <time>2020-11-11T20:41:33Z</time>
      </trkpt>
      <trkpt lat="28.1135950" lon="-16.6829130">
        <ele>785.9</ele>
        <time>2020-11-11T20:41:34Z</time>
      </trkpt>
      <trkpt lat="28.1135220" lon="-16.6827330">
        <ele>785.9</ele>
        <time>2020-11-11T20:41:35Z</time>
      </trkpt>
      <trkpt lat="28.1135220" lon="-16.6827330">
        <ele>784.9</ele>
        <time>2020-11-11T20:41:36Z</time>
      </trkpt>
      <trkpt lat="28.1134970" lon="-16.6825200">
        <ele>784.9</ele>
        <time>2020-11-11T20:41:37Z</time>
      </trkpt>
      <trkpt lat="28.1134970" lon="-16.6825200">
        <ele>783.9</ele>
        <time>2020-11-11T20:41:38Z</time>
      </trkpt>
      <trkpt lat="28.1134550" lon="-16.6823120">
        <ele>783.9</ele>
        <time>2020-11-11T20:41:39Z</time>
      </trkpt>
      <trkpt lat="28.1134200" lon="-16.6822220">
        <ele>781.9</ele>
        <time>2020-11-11T20:41:40Z</time>
      </trkpt>
      <trkpt lat="28.1134200" lon="-16.6822220">
        <ele>781.9</ele>
        <time>2020-11-11T20:41:41Z</time>
      </trkpt>
      <trkpt lat="28.1133020" lon="-16.6820820">
        <ele>780.9</ele>
        <time>2020-11-11T20:41:42Z</time>
      </trkpt>
      <trkpt lat="28.1133020" lon="-16.6820820">
        <ele>780.9</ele>
        <time>2020-11-11T20:41:43Z</time>
      </trkpt>
      <trkpt lat="28.1131380" lon="-16.6820330">
        <ele>779.9</ele>
        <time>2020-11-11T20:41:44Z</time>
      </trkpt>
      <trkpt lat="28.1131380" lon="-16.6820330">
        <ele>779.9</ele>
        <time>2020-11-11T20:41:45Z</time>
      </trkpt>
      <trkpt lat="28.1129750" lon="-16.6820700">
        <ele>777.9</ele>
        <time>2020-11-11T20:41:46Z</time>
      </trkpt>
      <trkpt lat="28.1129750" lon="-16.6820700">
        <ele>776.9</ele>
        <time>2020-11-11T20:41:47Z</time>
      </trkpt>
      <trkpt lat="28.1128430" lon="-16.6821920">
        <ele>776.9</ele>
        <time>2020-11-11T20:41:48Z</time>
      </trkpt>
      <trkpt lat="28.1128430" lon="-16.6821920">
        <ele>774.9</ele>
        <time>2020-11-11T20:41:49Z</time>
      </trkpt>
      <trkpt lat="28.1127670" lon="-16.6823700">
        <ele>774.9</ele>
        <time>2020-11-11T20:41:50Z</time>
      </trkpt>
      <trkpt lat="28.1127670" lon="-16.6823700">
        <ele>773.9</ele>
        <time>2020-11-11T20:41:51Z</time>
      </trkpt>
      <trkpt lat="28.1127400" lon="-16.6825800">
        <ele>773.9</ele>
        <time>2020-11-11T20:41:52Z</time>
      </trkpt>
      <trkpt lat="28.1127400" lon="-16.6825800">
        <ele>771.9</ele>
        <time>2020-11-11T20:41:53Z</time>
      </trkpt>
      <trkpt lat="28.1127220" lon="-16.6828070">
        <ele>771.9</ele>
        <time>2020-11-11T20:41:54Z</time>
      </trkpt>
      <trkpt lat="28.1127150" lon="-16.6829250">
        <ele>770.9</ele>
        <time>2020-11-11T20:41:55Z</time>
      </trkpt>
      <trkpt lat="28.1127150" lon="-16.6829250">
        <ele>770.9</ele>
        <time>2020-11-11T20:41:56Z</time>
      </trkpt>
      <trkpt lat="28.1127000" lon="-16.6831630">
        <ele>769.9</ele>
        <time>2020-11-11T20:41:57Z</time>
      </trkpt>
      <trkpt lat="28.1127000" lon="-16.6831630">
        <ele>769.9</ele>
        <time>2020-11-11T20:41:58Z</time>
      </trkpt>
      <trkpt lat="28.1126820" lon="-16.6834070">
        <ele>767.9</ele>
        <time>2020-11-11T20:41:59Z</time>
      </trkpt>
      <trkpt lat="28.1126820" lon="-16.6834070">
        <ele>767.9</ele>
        <time>2020-11-11T20:42:00Z</time>
      </trkpt>
      <trkpt lat="28.1126600" lon="-16.6836550">
        <ele>766.9</ele>
        <time>2020-11-11T20:42:01Z</time>
      </trkpt>
      <trkpt lat="28.1126600" lon="-16.6836550">
        <ele>766.9</ele>
        <time>2020-11-11T20:42:02Z</time>
      </trkpt>
      <trkpt lat="28.1126320" lon="-16.6839050">
        <ele>764.9</ele>
        <time>2020-11-11T20:42:03Z</time>
      </trkpt>
      <trkpt lat="28.1126320" lon="-16.6839050">
        <ele>764.9</ele>
        <time>2020-11-11T20:42:04Z</time>
      </trkpt>
      <trkpt lat="28.1126070" lon="-16.6841580">
        <ele>763.9</ele>
        <time>2020-11-11T20:42:05Z</time>
      </trkpt>
      <trkpt lat="28.1126070" lon="-16.6841580">
        <ele>763.9</ele>
        <time>2020-11-11T20:42:06Z</time>
      </trkpt>
      <trkpt lat="28.1125850" lon="-16.6844150">
        <ele>761.9</ele>
        <time>2020-11-11T20:42:07Z</time>
      </trkpt>
      <trkpt lat="28.1125850" lon="-16.6844150">
        <ele>761.9</ele>
        <time>2020-11-11T20:42:08Z</time>
      </trkpt>
      <trkpt lat="28.1125700" lon="-16.6846680">
        <ele>760.9</ele>
        <time>2020-11-11T20:42:09Z</time>
      </trkpt>
      <trkpt lat="28.1125700" lon="-16.6846680">
        <ele>760.9</ele>
        <time>2020-11-11T20:42:10Z</time>
      </trkpt>
      <trkpt lat="28.1125500" lon="-16.6848880">
        <ele>758.9</ele>
        <time>2020-11-11T20:42:11Z</time>
      </trkpt>
      <trkpt lat="28.1125500" lon="-16.6848880">
        <ele>758.9</ele>
        <time>2020-11-11T20:42:12Z</time>
      </trkpt>
      <trkpt lat="28.1124830" lon="-16.6850650">
        <ele>757.9</ele>
        <time>2020-11-11T20:42:13Z</time>
      </trkpt>
      <trkpt lat="28.1124830" lon="-16.6850650">
        <ele>757.9</ele>
        <time>2020-11-11T20:42:14Z</time>
      </trkpt>
      <trkpt lat="28.1123700" lon="-16.6851880">
        <ele>755.9</ele>
        <time>2020-11-11T20:42:15Z</time>
      </trkpt>
      <trkpt lat="28.1123700" lon="-16.6851880">
        <ele>755.9</ele>
        <time>2020-11-11T20:42:16Z</time>
      </trkpt>
      <trkpt lat="28.1122150" lon="-16.6852400">
        <ele>755.9</ele>
        <time>2020-11-11T20:42:17Z</time>
      </trkpt>
      <trkpt lat="28.1122150" lon="-16.6852400">
        <ele>755.9</ele>
        <time>2020-11-11T20:42:18Z</time>
      </trkpt>
      <trkpt lat="28.1120480" lon="-16.6852170">
        <ele>753.9</ele>
        <time>2020-11-11T20:42:19Z</time>
      </trkpt>
      <trkpt lat="28.1120480" lon="-16.6852170">
        <ele>753.9</ele>
        <time>2020-11-11T20:42:20Z</time>
      </trkpt>
      <trkpt lat="28.1119100" lon="-16.6851230">
        <ele>752.9</ele>
        <time>2020-11-11T20:42:21Z</time>
      </trkpt>
      <trkpt lat="28.1119100" lon="-16.6851230">
        <ele>752.9</ele>
        <time>2020-11-11T20:42:22Z</time>
      </trkpt>
      <trkpt lat="28.1118200" lon="-16.6849580">
        <ele>751.9</ele>
        <time>2020-11-11T20:42:23Z</time>
      </trkpt>
      <trkpt lat="28.1118200" lon="-16.6849580">
        <ele>751.9</ele>
        <time>2020-11-11T20:42:24Z</time>
      </trkpt>
      <trkpt lat="28.1117930" lon="-16.6847550">
        <ele>750.9</ele>
        <time>2020-11-11T20:42:25Z</time>
      </trkpt>
      <trkpt lat="28.1117930" lon="-16.6847550">
        <ele>749.9</ele>
        <time>2020-11-11T20:42:26Z</time>
      </trkpt>
      <trkpt lat="28.1117930" lon="-16.6845370">
        <ele>749.9</ele>
        <time>2020-11-11T20:42:27Z</time>
      </trkpt>
      <trkpt lat="28.1117930" lon="-16.6844250">
        <ele>748.9</ele>
        <time>2020-11-11T20:42:28Z</time>
      </trkpt>
      <trkpt lat="28.1117930" lon="-16.6844250">
        <ele>748.9</ele>
        <time>2020-11-11T20:42:29Z</time>
      </trkpt>
      <trkpt lat="28.1117880" lon="-16.6842100">
        <ele>748.9</ele>
        <time>2020-11-11T20:42:30Z</time>
      </trkpt>
      <trkpt lat="28.1117880" lon="-16.6842100">
        <ele>747.9</ele>
        <time>2020-11-11T20:42:31Z</time>
      </trkpt>
      <trkpt lat="28.1117820" lon="-16.6840220">
        <ele>746.9</ele>
        <time>2020-11-11T20:42:32Z</time>
      </trkpt>
      <trkpt lat="28.1117820" lon="-16.6840220">
        <ele>746.9</ele>
        <time>2020-11-11T20:42:33Z</time>
      </trkpt>
      <trkpt lat="28.1117380" lon="-16.6838580">
        <ele>744.9</ele>
        <time>2020-11-11T20:42:34Z</time>
      </trkpt>
      <trkpt lat="28.1117380" lon="-16.6838580">
        <ele>744.9</ele>
        <time>2020-11-11T20:42:35Z</time>
      </trkpt>
      <trkpt lat="28.1116070" lon="-16.6837670">
        <ele>743.9</ele>
        <time>2020-11-11T20:42:36Z</time>
      </trkpt>
      <trkpt lat="28.1115220" lon="-16.6837620">
        <ele>743.9</ele>
        <time>2020-11-11T20:42:37Z</time>
      </trkpt>
      <trkpt lat="28.1115220" lon="-16.6837620">
        <ele>742.9</ele>
        <time>2020-11-11T20:42:38Z</time>
      </trkpt>
      <trkpt lat="28.1113620" lon="-16.6838400">
        <ele>742.9</ele>
        <time>2020-11-11T20:42:39Z</time>
      </trkpt>
      <trkpt lat="28.1113620" lon="-16.6838400">
        <ele>741.9</ele>
        <time>2020-11-11T20:42:40Z</time>
      </trkpt>
      <trkpt lat="28.1112550" lon="-16.6840200">
        <ele>741.9</ele>
        <time>2020-11-11T20:42:41Z</time>
      </trkpt>
      <trkpt lat="28.1112180" lon="-16.6841230">
        <ele>740.9</ele>
        <time>2020-11-11T20:42:42Z</time>
      </trkpt>
      <trkpt lat="28.1112180" lon="-16.6841230">
        <ele>740.9</ele>
        <time>2020-11-11T20:42:43Z</time>
      </trkpt>
      <trkpt lat="28.1111500" lon="-16.6843400">
        <ele>738.9</ele>
        <time>2020-11-11T20:42:44Z</time>
      </trkpt>
      <trkpt lat="28.1111500" lon="-16.6843400">
        <ele>738.9</ele>
        <time>2020-11-11T20:42:45Z</time>
      </trkpt>
      <trkpt lat="28.1110620" lon="-16.6845530">
        <ele>737.9</ele>
        <time>2020-11-11T20:42:46Z</time>
      </trkpt>
      <trkpt lat="28.1110620" lon="-16.6845530">
        <ele>737.9</ele>
        <time>2020-11-11T20:42:47Z</time>
      </trkpt>
      <trkpt lat="28.1109350" lon="-16.6847420">
        <ele>735.9</ele>
        <time>2020-11-11T20:42:48Z</time>
      </trkpt>
      <trkpt lat="28.1108620" lon="-16.6848250">
        <ele>735.9</ele>
        <time>2020-11-11T20:42:49Z</time>
      </trkpt>
      <trkpt lat="28.1108620" lon="-16.6848250">
        <ele>733.9</ele>
        <time>2020-11-11T20:42:50Z</time>
      </trkpt>
      <trkpt lat="28.1107120" lon="-16.6849730">
        <ele>733.9</ele>
        <time>2020-11-11T20:42:51Z</time>
      </trkpt>
      <trkpt lat="28.1107120" lon="-16.6849730">
        <ele>731.9</ele>
        <time>2020-11-11T20:42:52Z</time>
      </trkpt>
      <trkpt lat="28.1105930" lon="-16.6851550">
        <ele>731.9</ele>
        <time>2020-11-11T20:42:53Z</time>
      </trkpt>
      <trkpt lat="28.1105930" lon="-16.6851550">
        <ele>729.9</ele>
        <time>2020-11-11T20:42:54Z</time>
      </trkpt>
      <trkpt lat="28.1105200" lon="-16.6853630">
        <ele>728.9</ele>
        <time>2020-11-11T20:42:55Z</time>
      </trkpt>
      <trkpt lat="28.1104800" lon="-16.6854530">
        <ele>728.9</ele>
        <time>2020-11-11T20:42:56Z</time>
      </trkpt>
      <trkpt lat="28.1104800" lon="-16.6854530">
        <ele>728.9</ele>
        <time>2020-11-11T20:42:57Z</time>
      </trkpt>
      <trkpt lat="28.1103670" lon="-16.6855830">
        <ele>726.9</ele>
        <time>2020-11-11T20:42:58Z</time>
      </trkpt>
      <trkpt lat="28.1103670" lon="-16.6855830">
        <ele>726.9</ele>
        <time>2020-11-11T20:42:59Z</time>
      </trkpt>
      <trkpt lat="28.1102000" lon="-16.6856380">
        <ele>724.9</ele>
        <time>2020-11-11T20:43:00Z</time>
      </trkpt>
      <trkpt lat="28.1102000" lon="-16.6856380">
        <ele>724.9</ele>
        <time>2020-11-11T20:43:01Z</time>
      </trkpt>
      <trkpt lat="28.1100150" lon="-16.6856070">
        <ele>723.9</ele>
        <time>2020-11-11T20:43:02Z</time>
      </trkpt>
      <trkpt lat="28.1100150" lon="-16.6856070">
        <ele>722.9</ele>
        <time>2020-11-11T20:43:03Z</time>
      </trkpt>
      <trkpt lat="28.1098420" lon="-16.6855070">
        <ele>722.9</ele>
        <time>2020-11-11T20:43:04Z</time>
      </trkpt>
      <trkpt lat="28.1097620" lon="-16.6854400">
        <ele>722.9</ele>
        <time>2020-11-11T20:43:05Z</time>
      </trkpt>
      <trkpt lat="28.1097620" lon="-16.6854400">
        <ele>721.9</ele>
        <time>2020-11-11T20:43:06Z</time>
      </trkpt>
      <trkpt lat="28.1095980" lon="-16.6852980">
        <ele>719.9</ele>
        <time>2020-11-11T20:43:07Z</time>
      </trkpt>
      <trkpt lat="28.1095980" lon="-16.6852980">
        <ele>719.9</ele>
        <time>2020-11-11T20:43:08Z</time>
      </trkpt>
      <trkpt lat="28.1094300" lon="-16.6851530">
        <ele>718.9</ele>
        <time>2020-11-11T20:43:09Z</time>
      </trkpt>
      <trkpt lat="28.1094300" lon="-16.6851530">
        <ele>718.9</ele>
        <time>2020-11-11T20:43:10Z</time>
      </trkpt>
      <trkpt lat="28.1092600" lon="-16.6850050">
        <ele>716.9</ele>
        <time>2020-11-11T20:43:11Z</time>
      </trkpt>
      <trkpt lat="28.1092600" lon="-16.6850050">
        <ele>716.9</ele>
        <time>2020-11-11T20:43:12Z</time>
      </trkpt>
      <trkpt lat="28.1090870" lon="-16.6848520">
        <ele>714.9</ele>
        <time>2020-11-11T20:43:13Z</time>
      </trkpt>
      <trkpt lat="28.1090870" lon="-16.6848520">
        <ele>714.9</ele>
        <time>2020-11-11T20:43:14Z</time>
      </trkpt>
      <trkpt lat="28.1089150" lon="-16.6847070">
        <ele>713.9</ele>
        <time>2020-11-11T20:43:15Z</time>
      </trkpt>
      <trkpt lat="28.1088320" lon="-16.6846500">
        <ele>713.9</ele>
        <time>2020-11-11T20:43:16Z</time>
      </trkpt>
      <trkpt lat="28.1088320" lon="-16.6846500">
        <ele>712.9</ele>
        <time>2020-11-11T20:43:17Z</time>
      </trkpt>
      <trkpt lat="28.1086570" lon="-16.6846130">
        <ele>712.9</ele>
        <time>2020-11-11T20:43:18Z</time>
      </trkpt>
      <trkpt lat="28.1085680" lon="-16.6846380">
        <ele>710.9</ele>
        <time>2020-11-11T20:43:19Z</time>
      </trkpt>
      <trkpt lat="28.1085680" lon="-16.6846380">
        <ele>710.9</ele>
        <time>2020-11-11T20:43:20Z</time>
      </trkpt>
      <trkpt lat="28.1084270" lon="-16.6847550">
        <ele>709.9</ele>
        <time>2020-11-11T20:43:21Z</time>
      </trkpt>
      <trkpt lat="28.1084270" lon="-16.6847550">
        <ele>709.9</ele>
        <time>2020-11-11T20:43:22Z</time>
      </trkpt>
      <trkpt lat="28.1083470" lon="-16.6849400">
        <ele>708.9</ele>
        <time>2020-11-11T20:43:23Z</time>
      </trkpt>
      <trkpt lat="28.1083470" lon="-16.6849400">
        <ele>708.9</ele>
        <time>2020-11-11T20:43:24Z</time>
      </trkpt>
      <trkpt lat="28.1083450" lon="-16.6851570">
        <ele>707.9</ele>
        <time>2020-11-11T20:43:25Z</time>
      </trkpt>
      <trkpt lat="28.1083450" lon="-16.6851570">
        <ele>707.9</ele>
        <time>2020-11-11T20:43:26Z</time>
      </trkpt>
      <trkpt lat="28.1083730" lon="-16.6853880">
        <ele>705.9</ele>
        <time>2020-11-11T20:43:27Z</time>
      </trkpt>
      <trkpt lat="28.1083980" lon="-16.6855050">
        <ele>705.9</ele>
        <time>2020-11-11T20:43:28Z</time>
      </trkpt>
      <trkpt lat="28.1084320" lon="-16.6856200">
        <ele>704.9</ele>
        <time>2020-11-11T20:43:29Z</time>
      </trkpt>
      <trkpt lat="28.1084320" lon="-16.6856200">
        <ele>704.9</ele>
        <time>2020-11-11T20:43:30Z</time>
      </trkpt>
      <trkpt lat="28.1085180" lon="-16.6858300">
        <ele>703.9</ele>
        <time>2020-11-11T20:43:31Z</time>
      </trkpt>
      <trkpt lat="28.1085180" lon="-16.6858300">
        <ele>703.9</ele>
        <time>2020-11-11T20:43:32Z</time>
      </trkpt>
      <trkpt lat="28.1085870" lon="-16.6860070">
        <ele>702.9</ele>
        <time>2020-11-11T20:43:33Z</time>
      </trkpt>
      <trkpt lat="28.1085870" lon="-16.6860070">
        <ele>702.9</ele>
        <time>2020-11-11T20:43:34Z</time>
      </trkpt>
      <trkpt lat="28.1085920" lon="-16.6861600">
        <ele>701.9</ele>
        <time>2020-11-11T20:43:35Z</time>
      </trkpt>
      <trkpt lat="28.1085670" lon="-16.6862320">
        <ele>701.9</ele>
        <time>2020-11-11T20:43:36Z</time>
      </trkpt>
      <trkpt lat="28.1085230" lon="-16.6863000">
        <ele>700.9</ele>
        <time>2020-11-11T20:43:37Z</time>
      </trkpt>
      <trkpt lat="28.1085230" lon="-16.6863000">
        <ele>700.9</ele>
        <time>2020-11-11T20:43:38Z</time>
      </trkpt>
      <trkpt lat="28.1083950" lon="-16.6863950">
        <ele>699.9</ele>
        <time>2020-11-11T20:43:39Z</time>
      </trkpt>
      <trkpt lat="28.1083950" lon="-16.6863950">
        <ele>699.9</ele>
        <time>2020-11-11T20:43:40Z</time>
      </trkpt>
      <trkpt lat="28.1082370" lon="-16.6863980">
        <ele>698.9</ele>
        <time>2020-11-11T20:43:41Z</time>
      </trkpt>
      <trkpt lat="28.1082370" lon="-16.6863980">
        <ele>696.9</ele>
        <time>2020-11-11T20:43:42Z</time>
      </trkpt>
      <trkpt lat="28.1080900" lon="-16.6863080">
        <ele>696.9</ele>
        <time>2020-11-11T20:43:43Z</time>
      </trkpt>
      <trkpt lat="28.1080900" lon="-16.6863080">
        <ele>695.9</ele>
        <time>2020-11-11T20:43:44Z</time>
      </trkpt>
      <trkpt lat="28.1079480" lon="-16.6861930">
        <ele>695.9</ele>
        <time>2020-11-11T20:43:45Z</time>
      </trkpt>
      <trkpt lat="28.1078750" lon="-16.6861350">
        <ele>695.9</ele>
        <time>2020-11-11T20:43:46Z</time>
      </trkpt>
      <trkpt lat="28.1078750" lon="-16.6861350">
        <ele>694.9</ele>
        <time>2020-11-11T20:43:47Z</time>
      </trkpt>
      <trkpt lat="28.1077250" lon="-16.6860150">
        <ele>693.9</ele>
        <time>2020-11-11T20:43:48Z</time>
      </trkpt>
      <trkpt lat="28.1077250" lon="-16.6860150">
        <ele>693.9</ele>
        <time>2020-11-11T20:43:49Z</time>
      </trkpt>
      <trkpt lat="28.1075720" lon="-16.6858950">
        <ele>692.9</ele>
        <time>2020-11-11T20:43:50Z</time>
      </trkpt>
      <trkpt lat="28.1075720" lon="-16.6858950">
        <ele>692.9</ele>
        <time>2020-11-11T20:43:51Z</time>
      </trkpt>
      <trkpt lat="28.1074120" lon="-16.6857770">
        <ele>691.9</ele>
        <time>2020-11-11T20:43:52Z</time>
      </trkpt>
      <trkpt lat="28.1074120" lon="-16.6857770">
        <ele>691.9</ele>
        <time>2020-11-11T20:43:53Z</time>
      </trkpt>
      <trkpt lat="28.1072520" lon="-16.6856520">
        <ele>691.9</ele>
        <time>2020-11-11T20:43:54Z</time>
      </trkpt>
      <trkpt lat="28.1072520" lon="-16.6856520">
        <ele>691.9</ele>
        <time>2020-11-11T20:43:55Z</time>
      </trkpt>
      <trkpt lat="28.1070870" lon="-16.6855250">
        <ele>689.9</ele>
        <time>2020-11-11T20:43:56Z</time>
      </trkpt>
      <trkpt lat="28.1070870" lon="-16.6855250">
        <ele>689.9</ele>
        <time>2020-11-11T20:43:57Z</time>
      </trkpt>
      <trkpt lat="28.1069200" lon="-16.6854020">
        <ele>689.9</ele>
        <time>2020-11-11T20:43:58Z</time>
      </trkpt>
      <trkpt lat="28.1068350" lon="-16.6853370">
        <ele>689.9</ele>
        <time>2020-11-11T20:43:59Z</time>
      </trkpt>
      <trkpt lat="28.1068350" lon="-16.6853370">
        <ele>687.9</ele>
        <time>2020-11-11T20:44:00Z</time>
      </trkpt>
      <trkpt lat="28.1066680" lon="-16.6852070">
        <ele>687.9</ele>
        <time>2020-11-11T20:44:01Z</time>
      </trkpt>
      <trkpt lat="28.1065830" lon="-16.6851430">
        <ele>686.9</ele>
        <time>2020-11-11T20:44:02Z</time>
      </trkpt>
      <trkpt lat="28.1065830" lon="-16.6851430">
        <ele>686.9</ele>
        <time>2020-11-11T20:44:03Z</time>
      </trkpt>
      <trkpt lat="28.1064130" lon="-16.6850120">
        <ele>685.9</ele>
        <time>2020-11-11T20:44:04Z</time>
      </trkpt>
      <trkpt lat="28.1064130" lon="-16.6850120">
        <ele>685.9</ele>
        <time>2020-11-11T20:44:05Z</time>
      </trkpt>
      <trkpt lat="28.1062450" lon="-16.6848800">
        <ele>684.9</ele>
        <time>2020-11-11T20:44:06Z</time>
      </trkpt>
      <trkpt lat="28.1061620" lon="-16.6848130">
        <ele>684.9</ele>
        <time>2020-11-11T20:44:07Z</time>
      </trkpt>
      <trkpt lat="28.1061620" lon="-16.6848130">
        <ele>683.9</ele>
        <time>2020-11-11T20:44:08Z</time>
      </trkpt>
      <trkpt lat="28.1060000" lon="-16.6846800">
        <ele>683.9</ele>
        <time>2020-11-11T20:44:09Z</time>
      </trkpt>
      <trkpt lat="28.1060000" lon="-16.6846800">
        <ele>682.9</ele>
        <time>2020-11-11T20:44:10Z</time>
      </trkpt>
      <trkpt lat="28.1058350" lon="-16.6845530">
        <ele>682.9</ele>
        <time>2020-11-11T20:44:11Z</time>
      </trkpt>
      <trkpt lat="28.1058350" lon="-16.6845530">
        <ele>681.9</ele>
        <time>2020-11-11T20:44:12Z</time>
      </trkpt>
      <trkpt lat="28.1056320" lon="-16.6844700">
        <ele>681.9</ele>
        <time>2020-11-11T20:44:13Z</time>
      </trkpt>
      <trkpt lat="28.1056320" lon="-16.6844700">
        <ele>681.9</ele>
        <time>2020-11-11T20:44:14Z</time>
      </trkpt>
      <trkpt lat="28.1054280" lon="-16.6844500">
        <ele>681.9</ele>
        <time>2020-11-11T20:44:15Z</time>
      </trkpt>
      <trkpt lat="28.1053350" lon="-16.6844570">
        <ele>680.9</ele>
        <time>2020-11-11T20:44:16Z</time>
      </trkpt>
      <trkpt lat="28.1053350" lon="-16.6844570">
        <ele>680.9</ele>
        <time>2020-11-11T20:44:17Z</time>
      </trkpt>
      <trkpt lat="28.1051500" lon="-16.6844850">
        <ele>680.9</ele>
        <time>2020-11-11T20:44:18Z</time>
      </trkpt>
      <trkpt lat="28.1051500" lon="-16.6844850">
        <ele>680.9</ele>
        <time>2020-11-11T20:44:19Z</time>
      </trkpt>
      <trkpt lat="28.1049620" lon="-16.6844950">
        <ele>679.9</ele>
        <time>2020-11-11T20:44:20Z</time>
      </trkpt>
      <trkpt lat="28.1049620" lon="-16.6844950">
        <ele>678.9</ele>
        <time>2020-11-11T20:44:21Z</time>
      </trkpt>
      <trkpt lat="28.1047750" lon="-16.6844570">
        <ele>678.9</ele>
        <time>2020-11-11T20:44:22Z</time>
      </trkpt>
      <trkpt lat="28.1046800" lon="-16.6844280">
        <ele>678.9</ele>
        <time>2020-11-11T20:44:23Z</time>
      </trkpt>
      <trkpt lat="28.1046800" lon="-16.6844280">
        <ele>677.9</ele>
        <time>2020-11-11T20:44:24Z</time>
      </trkpt>
      <trkpt lat="28.1044900" lon="-16.6843650">
        <ele>677.9</ele>
        <time>2020-11-11T20:44:25Z</time>
      </trkpt>
      <trkpt lat="28.1044900" lon="-16.6843650">
        <ele>676.9</ele>
        <time>2020-11-11T20:44:26Z</time>
      </trkpt>
      <trkpt lat="28.1043250" lon="-16.6843030">
        <ele>674.9</ele>
        <time>2020-11-11T20:44:27Z</time>
      </trkpt>
      <trkpt lat="28.1042530" lon="-16.6842780">
        <ele>674.9</ele>
        <time>2020-11-11T20:44:28Z</time>
      </trkpt>
      <trkpt lat="28.1042530" lon="-16.6842780">
        <ele>672.9</ele>
        <time>2020-11-11T20:44:29Z</time>
      </trkpt>
      <trkpt lat="28.1041230" lon="-16.6842270">
        <ele>672.9</ele>
        <time>2020-11-11T20:44:30Z</time>
      </trkpt>
      <trkpt lat="28.1041230" lon="-16.6842270">
        <ele>671.9</ele>
        <time>2020-11-11T20:44:31Z</time>
      </trkpt>
      <trkpt lat="28.1040020" lon="-16.6841620">
        <ele>671.9</ele>
        <time>2020-11-11T20:44:32Z</time>
      </trkpt>
      <trkpt lat="28.1040020" lon="-16.6841620">
        <ele>669.9</ele>
        <time>2020-11-11T20:44:33Z</time>
      </trkpt>
      <trkpt lat="28.1038920" lon="-16.6840750">
        <ele>669.9</ele>
        <time>2020-11-11T20:44:34Z</time>
      </trkpt>
      <trkpt lat="28.1038920" lon="-16.6840750">
        <ele>668.9</ele>
        <time>2020-11-11T20:44:35Z</time>
      </trkpt>
      <trkpt lat="28.1038100" lon="-16.6839970">
        <ele>668.9</ele>
        <time>2020-11-11T20:44:36Z</time>
      </trkpt>
      <trkpt lat="28.1038100" lon="-16.6839970">
        <ele>667.9</ele>
        <time>2020-11-11T20:44:37Z</time>
      </trkpt>
      <trkpt lat="28.1037550" lon="-16.6839530">
        <ele>667.9</ele>
        <time>2020-11-11T20:44:38Z</time>
      </trkpt>
      <trkpt lat="28.1037550" lon="-16.6839530">
        <ele>666.9</ele>
        <time>2020-11-11T20:44:39Z</time>
      </trkpt>
      <trkpt lat="28.1037600" lon="-16.6839120">
        <ele>666.9</ele>
        <time>2020-11-11T20:44:40Z</time>
      </trkpt>
      <trkpt lat="28.1037600" lon="-16.6839120">
        <ele>665.9</ele>
        <time>2020-11-11T20:44:41Z</time>
      </trkpt>
      <trkpt lat="28.1038070" lon="-16.6839050">
        <ele>665.9</ele>
        <time>2020-11-11T20:44:42Z</time>
      </trkpt>
      <trkpt lat="28.1038070" lon="-16.6839050">
        <ele>665.9</ele>
        <time>2020-11-11T20:44:43Z</time>
      </trkpt>
      <trkpt lat="28.1038170" lon="-16.6839280">
        <ele>665.9</ele>
        <time>2020-11-11T20:44:44Z</time>
      </trkpt>
      <trkpt lat="28.1038170" lon="-16.6839280">
        <ele>665.9</ele>
        <time>2020-11-11T20:44:45Z</time>
      </trkpt>
      <trkpt lat="28.1037980" lon="-16.6839270">
        <ele>665.9</ele>
        <time>2020-11-11T20:44:46Z</time>
      </trkpt>
      <trkpt lat="28.1037820" lon="-16.6839170">
        <ele>665.9</ele>
        <time>2020-11-11T20:44:47Z</time>
      </trkpt>
      <trkpt lat="28.1037580" lon="-16.6839030">
        <ele>665.9</ele>
        <time>2020-11-11T20:44:48Z</time>
      </trkpt>
      <trkpt lat="28.1037580" lon="-16.6839030">
        <ele>665.9</ele>
        <time>2020-11-11T20:44:49Z</time>
      </trkpt>
      <trkpt lat="28.1037250" lon="-16.6838720">
        <ele>665.9</ele>
        <time>2020-11-11T20:44:50Z</time>
      </trkpt>
      <trkpt lat="28.1037330" lon="-16.6838550">
        <ele>665.9</ele>
        <time>2020-11-11T20:44:51Z</time>
      </trkpt>
      <trkpt lat="28.1037330" lon="-16.6838550">
        <ele>665.9</ele>
        <time>2020-11-11T20:44:52Z</time>
      </trkpt>
      <trkpt lat="28.1037730" lon="-16.6838580">
        <ele>665.9</ele>
        <time>2020-11-11T20:44:53Z</time>
      </trkpt>
      <trkpt lat="28.1037730" lon="-16.6838580">
        <ele>665.9</ele>
        <time>2020-11-11T20:44:54Z</time>
      </trkpt>
      <trkpt lat="28.1038030" lon="-16.6838870">
        <ele>664.9</ele>
        <time>2020-11-11T20:44:55Z</time>
      </trkpt>
      <trkpt lat="28.1038030" lon="-16.6838870">
        <ele>664.9</ele>
        <time>2020-11-11T20:44:56Z</time>
      </trkpt>
      <trkpt lat="28.1038350" lon="-16.6839250">
        <ele>664.9</ele>
        <time>2020-11-11T20:44:57Z</time>
      </trkpt>
      <trkpt lat="28.1038350" lon="-16.6839250">
        <ele>664.9</ele>
        <time>2020-11-11T20:44:58Z</time>
      </trkpt>
      <trkpt lat="28.1038700" lon="-16.6839730">
        <ele>664.9</ele>
        <time>2020-11-11T20:44:59Z</time>
      </trkpt>
      <trkpt lat="28.1038700" lon="-16.6839730">
        <ele>664.9</ele>
        <time>2020-11-11T20:45:00Z</time>
      </trkpt>
      <trkpt lat="28.1039080" lon="-16.6840130">
        <ele>665.9</ele>
        <time>2020-11-11T20:45:01Z</time>
      </trkpt>
      <trkpt lat="28.1039080" lon="-16.6840130">
        <ele>665.9</ele>
        <time>2020-11-11T20:45:02Z</time>
      </trkpt>
      <trkpt lat="28.1039450" lon="-16.6840480">
        <ele>665.9</ele>
        <time>2020-11-11T20:45:03Z</time>
      </trkpt>
      <trkpt lat="28.1039450" lon="-16.6840480">
        <ele>665.9</ele>
        <time>2020-11-11T20:45:04Z</time>
      </trkpt>
      <trkpt lat="28.1039820" lon="-16.6840800">
        <ele>666.9</ele>
        <time>2020-11-11T20:45:05Z</time>
      </trkpt>
      <trkpt lat="28.1040000" lon="-16.6840970">
        <ele>666.9</ele>
        <time>2020-11-11T20:45:06Z</time>
      </trkpt>
      <trkpt lat="28.1040000" lon="-16.6840970">
        <ele>666.9</ele>
        <time>2020-11-11T20:45:07Z</time>
      </trkpt>
      <trkpt lat="28.1040420" lon="-16.6841270">
        <ele>666.9</ele>
        <time>2020-11-11T20:45:08Z</time>
      </trkpt>
      <trkpt lat="28.1040420" lon="-16.6841270">
        <ele>666.9</ele>
        <time>2020-11-11T20:45:09Z</time>
      </trkpt>
      <trkpt lat="28.1040650" lon="-16.6841700">
        <ele>667.9</ele>
        <time>2020-11-11T20:45:10Z</time>
      </trkpt>
      <trkpt lat="28.1040720" lon="-16.6841950">
        <ele>667.9</ele>
        <time>2020-11-11T20:45:11Z</time>
      </trkpt>
      <trkpt lat="28.1040720" lon="-16.6841950">
        <ele>667.9</ele>
        <time>2020-11-11T20:45:12Z</time>
      </trkpt>
      <trkpt lat="28.1040750" lon="-16.6842530">
        <ele>667.9</ele>
        <time>2020-11-11T20:45:13Z</time>
      </trkpt>
      <trkpt lat="28.1040750" lon="-16.6842530">
        <ele>668.9</ele>
        <time>2020-11-11T20:45:14Z</time>
      </trkpt>
      <trkpt lat="28.1040670" lon="-16.6843130">
        <ele>668.9</ele>
        <time>2020-11-11T20:45:15Z</time>
      </trkpt>
      <trkpt lat="28.1040670" lon="-16.6843130">
        <ele>668.9</ele>
        <time>2020-11-11T20:45:16Z</time>
      </trkpt>
      <trkpt lat="28.1040520" lon="-16.6843850">
        <ele>668.9</ele>
        <time>2020-11-11T20:45:17Z</time>
      </trkpt>
      <trkpt lat="28.1040520" lon="-16.6843850">
        <ele>668.9</ele>
        <time>2020-11-11T20:45:18Z</time>
      </trkpt>
      <trkpt lat="28.1040500" lon="-16.6844730">
        <ele>668.9</ele>
        <time>2020-11-11T20:45:19Z</time>
      </trkpt>
      <trkpt lat="28.1040500" lon="-16.6844730">
        <ele>668.9</ele>
        <time>2020-11-11T20:45:20Z</time>
      </trkpt>
      <trkpt lat="28.1040550" lon="-16.6845900">
        <ele>668.9</ele>
        <time>2020-11-11T20:45:21Z</time>
      </trkpt>
      <trkpt lat="28.1040550" lon="-16.6845900">
        <ele>666.9</ele>
        <time>2020-11-11T20:45:22Z</time>
      </trkpt>
      <trkpt lat="28.1040650" lon="-16.6847400">
        <ele>666.9</ele>
        <time>2020-11-11T20:45:23Z</time>
      </trkpt>
      <trkpt lat="28.1040850" lon="-16.6848150">
        <ele>666.9</ele>
        <time>2020-11-11T20:45:24Z</time>
      </trkpt>
      <trkpt lat="28.1041100" lon="-16.6848870">
        <ele>666.9</ele>
        <time>2020-11-11T20:45:25Z</time>
      </trkpt>
      <trkpt lat="28.1041100" lon="-16.6848870">
        <ele>666.9</ele>
        <time>2020-11-11T20:45:26Z</time>
      </trkpt>
      <trkpt lat="28.1041770" lon="-16.6850280">
        <ele>666.9</ele>
        <time>2020-11-11T20:45:27Z</time>
      </trkpt>
      <trkpt lat="28.1041770" lon="-16.6850280">
        <ele>666.9</ele>
        <time>2020-11-11T20:45:28Z</time>
      </trkpt>
      <trkpt lat="28.1042580" lon="-16.6851630">
        <ele>666.9</ele>
        <time>2020-11-11T20:45:29Z</time>
      </trkpt>
      <trkpt lat="28.1042580" lon="-16.6851630">
        <ele>666.9</ele>
        <time>2020-11-11T20:45:30Z</time>
      </trkpt>
      <trkpt lat="28.1043450" lon="-16.6853020">
        <ele>666.9</ele>
        <time>2020-11-11T20:45:31Z</time>
      </trkpt>
      <trkpt lat="28.1043450" lon="-16.6853020">
        <ele>664.9</ele>
        <time>2020-11-11T20:45:32Z</time>
      </trkpt>
      <trkpt lat="28.1044300" lon="-16.6854380">
        <ele>664.9</ele>
        <time>2020-11-11T20:45:33Z</time>
      </trkpt>
      <trkpt lat="28.1044300" lon="-16.6854380">
        <ele>664.9</ele>
        <time>2020-11-11T20:45:34Z</time>
      </trkpt>
      <trkpt lat="28.1045200" lon="-16.6855650">
        <ele>664.9</ele>
        <time>2020-11-11T20:45:35Z</time>
      </trkpt>
      <trkpt lat="28.1045200" lon="-16.6855650">
        <ele>663.9</ele>
        <time>2020-11-11T20:45:36Z</time>
      </trkpt>
      <trkpt lat="28.1046000" lon="-16.6856850">
        <ele>662.9</ele>
        <time>2020-11-11T20:45:37Z</time>
      </trkpt>
      <trkpt lat="28.1046000" lon="-16.6856850">
        <ele>662.9</ele>
        <time>2020-11-11T20:45:38Z</time>
      </trkpt>
      <trkpt lat="28.1046420" lon="-16.6858020">
        <ele>662.9</ele>
        <time>2020-11-11T20:45:39Z</time>
      </trkpt>
      <trkpt lat="28.1046380" lon="-16.6858600">
        <ele>661.9</ele>
        <time>2020-11-11T20:45:40Z</time>
      </trkpt>
      <trkpt lat="28.1046380" lon="-16.6858600">
        <ele>660.9</ele>
        <time>2020-11-11T20:45:41Z</time>
      </trkpt>
      <trkpt lat="28.1045780" lon="-16.6859630">
        <ele>660.9</ele>
        <time>2020-11-11T20:45:42Z</time>
      </trkpt>
      <trkpt lat="28.1045780" lon="-16.6859630">
        <ele>659.9</ele>
        <time>2020-11-11T20:45:43Z</time>
      </trkpt>
      <trkpt lat="28.1044600" lon="-16.6860200">
        <ele>659.9</ele>
        <time>2020-11-11T20:45:44Z</time>
      </trkpt>
      <trkpt lat="28.1043920" lon="-16.6860320">
        <ele>658.9</ele>
        <time>2020-11-11T20:45:45Z</time>
      </trkpt>
      <trkpt lat="28.1043920" lon="-16.6860320">
        <ele>658.9</ele>
        <time>2020-11-11T20:45:46Z</time>
      </trkpt>
      <trkpt lat="28.1042350" lon="-16.6860470">
        <ele>657.9</ele>
        <time>2020-11-11T20:45:47Z</time>
      </trkpt>
      <trkpt lat="28.1042350" lon="-16.6860470">
        <ele>657.9</ele>
        <time>2020-11-11T20:45:48Z</time>
      </trkpt>
      <trkpt lat="28.1040530" lon="-16.6860700">
        <ele>655.9</ele>
        <time>2020-11-11T20:45:49Z</time>
      </trkpt>
      <trkpt lat="28.1040530" lon="-16.6860700">
        <ele>655.9</ele>
        <time>2020-11-11T20:45:50Z</time>
      </trkpt>
      <trkpt lat="28.1038700" lon="-16.6861230">
        <ele>654.9</ele>
        <time>2020-11-11T20:45:51Z</time>
      </trkpt>
      <trkpt lat="28.1037800" lon="-16.6861600">
        <ele>654.9</ele>
        <time>2020-11-11T20:45:52Z</time>
      </trkpt>
      <trkpt lat="28.1037800" lon="-16.6861600">
        <ele>653.9</ele>
        <time>2020-11-11T20:45:53Z</time>
      </trkpt>
      <trkpt lat="28.1036100" lon="-16.6862470">
        <ele>653.9</ele>
        <time>2020-11-11T20:45:54Z</time>
      </trkpt>
      <trkpt lat="28.1036100" lon="-16.6862470">
        <ele>652.9</ele>
        <time>2020-11-11T20:45:55Z</time>
      </trkpt>
      <trkpt lat="28.1034450" lon="-16.6863320">
        <ele>652.9</ele>
        <time>2020-11-11T20:45:56Z</time>
      </trkpt>
      <trkpt lat="28.1034450" lon="-16.6863320">
        <ele>652.9</ele>
        <time>2020-11-11T20:45:57Z</time>
      </trkpt>
      <trkpt lat="28.1032720" lon="-16.6864000">
        <ele>652.9</ele>
        <time>2020-11-11T20:45:58Z</time>
      </trkpt>
      <trkpt lat="28.1032720" lon="-16.6864000">
        <ele>651.9</ele>
        <time>2020-11-11T20:45:59Z</time>
      </trkpt>
      <trkpt lat="28.1030980" lon="-16.6864620">
        <ele>651.9</ele>
        <time>2020-11-11T20:46:00Z</time>
      </trkpt>
      <trkpt lat="28.1030980" lon="-16.6864620">
        <ele>651.9</ele>
        <time>2020-11-11T20:46:01Z</time>
      </trkpt>
      <trkpt lat="28.1029200" lon="-16.6865050">
        <ele>651.9</ele>
        <time>2020-11-11T20:46:02Z</time>
      </trkpt>
      <trkpt lat="28.1029200" lon="-16.6865050">
        <ele>650.9</ele>
        <time>2020-11-11T20:46:03Z</time>
      </trkpt>
      <trkpt lat="28.1027370" lon="-16.6865380">
        <ele>650.9</ele>
        <time>2020-11-11T20:46:04Z</time>
      </trkpt>
      <trkpt lat="28.1026480" lon="-16.6865580">
        <ele>649.9</ele>
        <time>2020-11-11T20:46:05Z</time>
      </trkpt>
      <trkpt lat="28.1026480" lon="-16.6865580">
        <ele>649.9</ele>
        <time>2020-11-11T20:46:06Z</time>
      </trkpt>
      <trkpt lat="28.1024800" lon="-16.6866130">
        <ele>647.9</ele>
        <time>2020-11-11T20:46:07Z</time>
      </trkpt>
      <trkpt lat="28.1024800" lon="-16.6866130">
        <ele>647.9</ele>
        <time>2020-11-11T20:46:08Z</time>
      </trkpt>
      <trkpt lat="28.1023280" lon="-16.6866750">
        <ele>646.9</ele>
        <time>2020-11-11T20:46:09Z</time>
      </trkpt>
      <trkpt lat="28.1022580" lon="-16.6867050">
        <ele>646.9</ele>
        <time>2020-11-11T20:46:10Z</time>
      </trkpt>
      <trkpt lat="28.1022580" lon="-16.6867050">
        <ele>644.9</ele>
        <time>2020-11-11T20:46:11Z</time>
      </trkpt>
      <trkpt lat="28.1021300" lon="-16.6867750">
        <ele>644.9</ele>
        <time>2020-11-11T20:46:12Z</time>
      </trkpt>
      <trkpt lat="28.1020720" lon="-16.6868130">
        <ele>643.9</ele>
        <time>2020-11-11T20:46:13Z</time>
      </trkpt>
      <trkpt lat="28.1020720" lon="-16.6868130">
        <ele>641.9</ele>
        <time>2020-11-11T20:46:14Z</time>
      </trkpt>
      <trkpt lat="28.1019700" lon="-16.6868920">
        <ele>641.9</ele>
        <time>2020-11-11T20:46:15Z</time>
      </trkpt>
      <trkpt lat="28.1019150" lon="-16.6869400">
        <ele>641.9</ele>
        <time>2020-11-11T20:46:16Z</time>
      </trkpt>
      <trkpt lat="28.1019150" lon="-16.6869400">
        <ele>640.9</ele>
        <time>2020-11-11T20:46:17Z</time>
      </trkpt>
      <trkpt lat="28.1018000" lon="-16.6870400">
        <ele>640.9</ele>
        <time>2020-11-11T20:46:18Z</time>
      </trkpt>
      <trkpt lat="28.1017420" lon="-16.6870880">
        <ele>639.9</ele>
        <time>2020-11-11T20:46:19Z</time>
      </trkpt>
      <trkpt lat="28.1017420" lon="-16.6870880">
        <ele>637.9</ele>
        <time>2020-11-11T20:46:20Z</time>
      </trkpt>
      <trkpt lat="28.1016180" lon="-16.6871820">
        <ele>637.9</ele>
        <time>2020-11-11T20:46:21Z</time>
      </trkpt>
      <trkpt lat="28.1015520" lon="-16.6872270">
        <ele>635.9</ele>
        <time>2020-11-11T20:46:22Z</time>
      </trkpt>
      <trkpt lat="28.1015520" lon="-16.6872270">
        <ele>635.9</ele>
        <time>2020-11-11T20:46:23Z</time>
      </trkpt>
      <trkpt lat="28.1014230" lon="-16.6873130">
        <ele>635.9</ele>
        <time>2020-11-11T20:46:24Z</time>
      </trkpt>
      <trkpt lat="28.1014230" lon="-16.6873130">
        <ele>633.9</ele>
        <time>2020-11-11T20:46:25Z</time>
      </trkpt>
      <trkpt lat="28.1013020" lon="-16.6873950">
        <ele>633.9</ele>
        <time>2020-11-11T20:46:26Z</time>
      </trkpt>
      <trkpt lat="28.1013020" lon="-16.6873950">
        <ele>632.9</ele>
        <time>2020-11-11T20:46:27Z</time>
      </trkpt>
      <trkpt lat="28.1011770" lon="-16.6874600">
        <ele>632.9</ele>
        <time>2020-11-11T20:46:28Z</time>
      </trkpt>
      <trkpt lat="28.1011770" lon="-16.6874600">
        <ele>631.9</ele>
        <time>2020-11-11T20:46:29Z</time>
      </trkpt>
      <trkpt lat="28.1010580" lon="-16.6875100">
        <ele>631.9</ele>
        <time>2020-11-11T20:46:30Z</time>
      </trkpt>
      <trkpt lat="28.1010580" lon="-16.6875100">
        <ele>630.9</ele>
        <time>2020-11-11T20:46:31Z</time>
      </trkpt>
      <trkpt lat="28.1009570" lon="-16.6875330">
        <ele>630.9</ele>
        <time>2020-11-11T20:46:32Z</time>
      </trkpt>
      <trkpt lat="28.1009570" lon="-16.6875330">
        <ele>630.9</ele>
        <time>2020-11-11T20:46:33Z</time>
      </trkpt>
      <trkpt lat="28.1008780" lon="-16.6875330">
        <ele>630.9</ele>
        <time>2020-11-11T20:46:34Z</time>
      </trkpt>
      <trkpt lat="28.1008780" lon="-16.6875330">
        <ele>630.9</ele>
        <time>2020-11-11T20:46:35Z</time>
      </trkpt>
      <trkpt lat="28.1007970" lon="-16.6875130">
        <ele>630.9</ele>
        <time>2020-11-11T20:46:36Z</time>
      </trkpt>
      <trkpt lat="28.1007970" lon="-16.6875130">
        <ele>629.9</ele>
        <time>2020-11-11T20:46:37Z</time>
      </trkpt>
      <trkpt lat="28.1006970" lon="-16.6875000">
        <ele>629.9</ele>
        <time>2020-11-11T20:46:38Z</time>
      </trkpt>
      <trkpt lat="28.1006970" lon="-16.6875000">
        <ele>629.9</ele>
        <time>2020-11-11T20:46:39Z</time>
      </trkpt>
      <trkpt lat="28.1005970" lon="-16.6874680">
        <ele>629.9</ele>
        <time>2020-11-11T20:46:40Z</time>
      </trkpt>
      <trkpt lat="28.1005970" lon="-16.6874680">
        <ele>627.9</ele>
        <time>2020-11-11T20:46:41Z</time>
      </trkpt>
      <trkpt lat="28.1005020" lon="-16.6874030">
        <ele>627.9</ele>
        <time>2020-11-11T20:46:42Z</time>
      </trkpt>
      <trkpt lat="28.1005020" lon="-16.6874030">
        <ele>626.9</ele>
        <time>2020-11-11T20:46:43Z</time>
      </trkpt>
      <trkpt lat="28.1004020" lon="-16.6873100">
        <ele>626.9</ele>
        <time>2020-11-11T20:46:44Z</time>
      </trkpt>
      <trkpt lat="28.1004020" lon="-16.6873100">
        <ele>625.9</ele>
        <time>2020-11-11T20:46:45Z</time>
      </trkpt>
      <trkpt lat="28.1003100" lon="-16.6872350">
        <ele>625.9</ele>
        <time>2020-11-11T20:46:46Z</time>
      </trkpt>
      <trkpt lat="28.1003100" lon="-16.6872350">
        <ele>623.9</ele>
        <time>2020-11-11T20:46:47Z</time>
      </trkpt>
      <trkpt lat="28.1002120" lon="-16.6871570">
        <ele>623.9</ele>
        <time>2020-11-11T20:46:48Z</time>
      </trkpt>
      <trkpt lat="28.1002120" lon="-16.6871570">
        <ele>622.9</ele>
        <time>2020-11-11T20:46:49Z</time>
      </trkpt>
      <trkpt lat="28.1001120" lon="-16.6870870">
        <ele>622.9</ele>
        <time>2020-11-11T20:46:50Z</time>
      </trkpt>
      <trkpt lat="28.1001120" lon="-16.6870870">
        <ele>621.9</ele>
        <time>2020-11-11T20:46:51Z</time>
      </trkpt>
      <trkpt lat="28.1000050" lon="-16.6870280">
        <ele>621.9</ele>
        <time>2020-11-11T20:46:52Z</time>
      </trkpt>
      <trkpt lat="28.1000050" lon="-16.6870280">
        <ele>620.9</ele>
        <time>2020-11-11T20:46:53Z</time>
      </trkpt>
      <trkpt lat="28.0999000" lon="-16.6869530">
        <ele>620.9</ele>
        <time>2020-11-11T20:46:54Z</time>
      </trkpt>
      <trkpt lat="28.0999000" lon="-16.6869530">
        <ele>619.9</ele>
        <time>2020-11-11T20:46:55Z</time>
      </trkpt>
      <trkpt lat="28.0998170" lon="-16.6868630">
        <ele>619.9</ele>
        <time>2020-11-11T20:46:56Z</time>
      </trkpt>
      <trkpt lat="28.0998170" lon="-16.6868630">
        <ele>618.9</ele>
        <time>2020-11-11T20:46:57Z</time>
      </trkpt>
      <trkpt lat="28.0997320" lon="-16.6868000">
        <ele>618.9</ele>
        <time>2020-11-11T20:46:58Z</time>
      </trkpt>
      <trkpt lat="28.0997320" lon="-16.6868000">
        <ele>616.9</ele>
        <time>2020-11-11T20:46:59Z</time>
      </trkpt>
      <trkpt lat="28.0996270" lon="-16.6867620">
        <ele>615.9</ele>
        <time>2020-11-11T20:47:00Z</time>
      </trkpt>
      <trkpt lat="28.0996270" lon="-16.6867620">
        <ele>615.9</ele>
        <time>2020-11-11T20:47:01Z</time>
      </trkpt>
      <trkpt lat="28.0995000" lon="-16.6867450">
        <ele>613.9</ele>
        <time>2020-11-11T20:47:02Z</time>
      </trkpt>
      <trkpt lat="28.0995000" lon="-16.6867450">
        <ele>613.9</ele>
        <time>2020-11-11T20:47:03Z</time>
      </trkpt>
      <trkpt lat="28.0993700" lon="-16.6867350">
        <ele>611.9</ele>
        <time>2020-11-11T20:47:04Z</time>
      </trkpt>
      <trkpt lat="28.0993700" lon="-16.6867350">
        <ele>611.9</ele>
        <time>2020-11-11T20:47:05Z</time>
      </trkpt>
      <trkpt lat="28.0992630" lon="-16.6867330">
        <ele>608.9</ele>
        <time>2020-11-11T20:47:06Z</time>
      </trkpt>
      <trkpt lat="28.0992630" lon="-16.6867330">
        <ele>608.9</ele>
        <time>2020-11-11T20:47:07Z</time>
      </trkpt>
      <trkpt lat="28.0991500" lon="-16.6867670">
        <ele>605.9</ele>
        <time>2020-11-11T20:47:08Z</time>
      </trkpt>
      <trkpt lat="28.0991500" lon="-16.6867670">
        <ele>605.9</ele>
        <time>2020-11-11T20:47:09Z</time>
      </trkpt>
      <trkpt lat="28.0990120" lon="-16.6868300">
        <ele>602.9</ele>
        <time>2020-11-11T20:47:10Z</time>
      </trkpt>
      <trkpt lat="28.0989400" lon="-16.6868550">
        <ele>602.9</ele>
        <time>2020-11-11T20:47:11Z</time>
      </trkpt>
      <trkpt lat="28.0989400" lon="-16.6868550">
        <ele>598.9</ele>
        <time>2020-11-11T20:47:12Z</time>
      </trkpt>
      <trkpt lat="28.0987970" lon="-16.6868870">
        <ele>598.9</ele>
        <time>2020-11-11T20:47:13Z</time>
      </trkpt>
      <trkpt lat="28.0987970" lon="-16.6868870">
        <ele>595.9</ele>
        <time>2020-11-11T20:47:14Z</time>
      </trkpt>
      <trkpt lat="28.0986620" lon="-16.6869000">
        <ele>595.9</ele>
        <time>2020-11-11T20:47:15Z</time>
      </trkpt>
      <trkpt lat="28.0986620" lon="-16.6869000">
        <ele>593.9</ele>
        <time>2020-11-11T20:47:16Z</time>
      </trkpt>
      <trkpt lat="28.0985230" lon="-16.6869020">
        <ele>593.9</ele>
        <time>2020-11-11T20:47:17Z</time>
      </trkpt>
      <trkpt lat="28.0984580" lon="-16.6869120">
        <ele>591.9</ele>
        <time>2020-11-11T20:47:18Z</time>
      </trkpt>
      <trkpt lat="28.0983980" lon="-16.6869250">
        <ele>591.9</ele>
        <time>2020-11-11T20:47:19Z</time>
      </trkpt>
      <trkpt lat="28.0983980" lon="-16.6869250">
        <ele>590.9</ele>
        <time>2020-11-11T20:47:20Z</time>
      </trkpt>
      <trkpt lat="28.0982920" lon="-16.6869780">
        <ele>590.9</ele>
        <time>2020-11-11T20:47:21Z</time>
      </trkpt>
      <trkpt lat="28.0982920" lon="-16.6869780">
        <ele>589.9</ele>
        <time>2020-11-11T20:47:22Z</time>
      </trkpt>
      <trkpt lat="28.0982100" lon="-16.6870650">
        <ele>589.9</ele>
        <time>2020-11-11T20:47:23Z</time>
      </trkpt>
      <trkpt lat="28.0982100" lon="-16.6870650">
        <ele>588.9</ele>
        <time>2020-11-11T20:47:24Z</time>
      </trkpt>
      <trkpt lat="28.0981700" lon="-16.6871850">
        <ele>588.9</ele>
        <time>2020-11-11T20:47:25Z</time>
      </trkpt>
      <trkpt lat="28.0981700" lon="-16.6871850">
        <ele>586.9</ele>
        <time>2020-11-11T20:47:26Z</time>
      </trkpt>
      <trkpt lat="28.0981420" lon="-16.6873120">
        <ele>586.9</ele>
        <time>2020-11-11T20:47:27Z</time>
      </trkpt>
      <trkpt lat="28.0981420" lon="-16.6873120">
        <ele>584.9</ele>
        <time>2020-11-11T20:47:28Z</time>
      </trkpt>
      <trkpt lat="28.0980750" lon="-16.6874280">
        <ele>584.9</ele>
        <time>2020-11-11T20:47:29Z</time>
      </trkpt>
      <trkpt lat="28.0980750" lon="-16.6874280">
        <ele>583.9</ele>
        <time>2020-11-11T20:47:30Z</time>
      </trkpt>
      <trkpt lat="28.0979550" lon="-16.6875130">
        <ele>583.9</ele>
        <time>2020-11-11T20:47:31Z</time>
      </trkpt>
      <trkpt lat="28.0979550" lon="-16.6875130">
        <ele>581.9</ele>
        <time>2020-11-11T20:47:32Z</time>
      </trkpt>
      <trkpt lat="28.0978000" lon="-16.6875930">
        <ele>581.9</ele>
        <time>2020-11-11T20:47:33Z</time>
      </trkpt>
      <trkpt lat="28.0977220" lon="-16.6876230">
        <ele>578.9</ele>
        <time>2020-11-11T20:47:34Z</time>
      </trkpt>
      <trkpt lat="28.0977220" lon="-16.6876230">
        <ele>577.9</ele>
        <time>2020-11-11T20:47:35Z</time>
      </trkpt>
      <trkpt lat="28.0975720" lon="-16.6876370">
        <ele>577.9</ele>
        <time>2020-11-11T20:47:36Z</time>
      </trkpt>
      <trkpt lat="28.0975720" lon="-16.6876370">
        <ele>577.9</ele>
        <time>2020-11-11T20:47:37Z</time>
      </trkpt>
      <trkpt lat="28.0974150" lon="-16.6876180">
        <ele>575.9</ele>
        <time>2020-11-11T20:47:38Z</time>
      </trkpt>
      <trkpt lat="28.0974150" lon="-16.6876180">
        <ele>574.9</ele>
        <time>2020-11-11T20:47:39Z</time>
      </trkpt>
      <trkpt lat="28.0972500" lon="-16.6875930">
        <ele>574.9</ele>
        <time>2020-11-11T20:47:40Z</time>
      </trkpt>
      <trkpt lat="28.0972500" lon="-16.6875930">
        <ele>572.9</ele>
        <time>2020-11-11T20:47:41Z</time>
      </trkpt>
      <trkpt lat="28.0970850" lon="-16.6875670">
        <ele>572.9</ele>
        <time>2020-11-11T20:47:42Z</time>
      </trkpt>
      <trkpt lat="28.0970030" lon="-16.6875550">
        <ele>570.9</ele>
        <time>2020-11-11T20:47:43Z</time>
      </trkpt>
      <trkpt lat="28.0970030" lon="-16.6875550">
        <ele>570.9</ele>
        <time>2020-11-11T20:47:44Z</time>
      </trkpt>
      <trkpt lat="28.0968430" lon="-16.6875370">
        <ele>568.9</ele>
        <time>2020-11-11T20:47:45Z</time>
      </trkpt>
      <trkpt lat="28.0968430" lon="-16.6875370">
        <ele>568.9</ele>
        <time>2020-11-11T20:47:46Z</time>
      </trkpt>
      <trkpt lat="28.0966870" lon="-16.6875200">
        <ele>566.9</ele>
        <time>2020-11-11T20:47:47Z</time>
      </trkpt>
      <trkpt lat="28.0966870" lon="-16.6875200">
        <ele>566.9</ele>
        <time>2020-11-11T20:47:48Z</time>
      </trkpt>
      <trkpt lat="28.0965180" lon="-16.6874980">
        <ele>562.9</ele>
        <time>2020-11-11T20:47:49Z</time>
      </trkpt>
      <trkpt lat="28.0965180" lon="-16.6874980">
        <ele>562.9</ele>
        <time>2020-11-11T20:47:50Z</time>
      </trkpt>
      <trkpt lat="28.0963300" lon="-16.6874980">
        <ele>560.9</ele>
        <time>2020-11-11T20:47:51Z</time>
      </trkpt>
      <trkpt lat="28.0963300" lon="-16.6874980">
        <ele>560.9</ele>
        <time>2020-11-11T20:47:52Z</time>
      </trkpt>
      <trkpt lat="28.0961320" lon="-16.6875150">
        <ele>557.9</ele>
        <time>2020-11-11T20:47:53Z</time>
      </trkpt>
      <trkpt lat="28.0961320" lon="-16.6875150">
        <ele>557.9</ele>
        <time>2020-11-11T20:47:54Z</time>
      </trkpt>
      <trkpt lat="28.0959320" lon="-16.6875270">
        <ele>554.9</ele>
        <time>2020-11-11T20:47:55Z</time>
      </trkpt>
      <trkpt lat="28.0959320" lon="-16.6875270">
        <ele>554.9</ele>
        <time>2020-11-11T20:47:56Z</time>
      </trkpt>
      <trkpt lat="28.0957820" lon="-16.6875320">
        <ele>552.9</ele>
        <time>2020-11-11T20:47:57Z</time>
      </trkpt>
      <trkpt lat="28.0957820" lon="-16.6875320">
        <ele>552.9</ele>
        <time>2020-11-11T20:47:58Z</time>
      </trkpt>
      <trkpt lat="28.0956230" lon="-16.6875380">
        <ele>550.9</ele>
        <time>2020-11-11T20:47:59Z</time>
      </trkpt>
      <trkpt lat="28.0955230" lon="-16.6875420">
        <ele>550.9</ele>
        <time>2020-11-11T20:48:00Z</time>
      </trkpt>
      <trkpt lat="28.0955230" lon="-16.6875420">
        <ele>547.9</ele>
        <time>2020-11-11T20:48:01Z</time>
      </trkpt>
      <trkpt lat="28.0953050" lon="-16.6875500">
        <ele>547.9</ele>
        <time>2020-11-11T20:48:02Z</time>
      </trkpt>
      <trkpt lat="28.0953050" lon="-16.6875500">
        <ele>545.9</ele>
        <time>2020-11-11T20:48:03Z</time>
      </trkpt>
      <trkpt lat="28.0951020" lon="-16.6875580">
        <ele>545.9</ele>
        <time>2020-11-11T20:48:04Z</time>
      </trkpt>
      <trkpt lat="28.0951020" lon="-16.6875580">
        <ele>543.9</ele>
        <time>2020-11-11T20:48:05Z</time>
      </trkpt>
      <trkpt lat="28.0949030" lon="-16.6875620">
        <ele>543.9</ele>
        <time>2020-11-11T20:48:06Z</time>
      </trkpt>
      <trkpt lat="28.0948030" lon="-16.6875780">
        <ele>542.9</ele>
        <time>2020-11-11T20:48:07Z</time>
      </trkpt>
      <trkpt lat="28.0948030" lon="-16.6875780">
        <ele>542.9</ele>
        <time>2020-11-11T20:48:08Z</time>
      </trkpt>
      <trkpt lat="28.0946270" lon="-16.6876150">
        <ele>541.9</ele>
        <time>2020-11-11T20:48:09Z</time>
      </trkpt>
      <trkpt lat="28.0946270" lon="-16.6876150">
        <ele>541.9</ele>
        <time>2020-11-11T20:48:10Z</time>
      </trkpt>
      <trkpt lat="28.0945030" lon="-16.6876620">
        <ele>541.9</ele>
        <time>2020-11-11T20:48:11Z</time>
      </trkpt>
      <trkpt lat="28.0945030" lon="-16.6876620">
        <ele>541.9</ele>
        <time>2020-11-11T20:48:12Z</time>
      </trkpt>
      <trkpt lat="28.0943850" lon="-16.6876800">
        <ele>541.9</ele>
        <time>2020-11-11T20:48:13Z</time>
      </trkpt>
      <trkpt lat="28.0943850" lon="-16.6876800">
        <ele>541.9</ele>
        <time>2020-11-11T20:48:14Z</time>
      </trkpt>
      <trkpt lat="28.0942620" lon="-16.6876930">
        <ele>541.9</ele>
        <time>2020-11-11T20:48:15Z</time>
      </trkpt>
      <trkpt lat="28.0942620" lon="-16.6876930">
        <ele>541.9</ele>
        <time>2020-11-11T20:48:16Z</time>
      </trkpt>
      <trkpt lat="28.0941350" lon="-16.6876970">
        <ele>541.9</ele>
        <time>2020-11-11T20:48:17Z</time>
      </trkpt>
      <trkpt lat="28.0940720" lon="-16.6876880">
        <ele>541.9</ele>
        <time>2020-11-11T20:48:18Z</time>
      </trkpt>
      <trkpt lat="28.0940080" lon="-16.6876770">
        <ele>541.9</ele>
        <time>2020-11-11T20:48:19Z</time>
      </trkpt>
      <trkpt lat="28.0940080" lon="-16.6876770">
        <ele>541.9</ele>
        <time>2020-11-11T20:48:20Z</time>
      </trkpt>
      <trkpt lat="28.0938750" lon="-16.6876480">
        <ele>541.9</ele>
        <time>2020-11-11T20:48:21Z</time>
      </trkpt>
      <trkpt lat="28.0938750" lon="-16.6876480">
        <ele>539.9</ele>
        <time>2020-11-11T20:48:22Z</time>
      </trkpt>
      <trkpt lat="28.0937330" lon="-16.6876230">
        <ele>539.9</ele>
        <time>2020-11-11T20:48:23Z</time>
      </trkpt>
      <trkpt lat="28.0937330" lon="-16.6876230">
        <ele>539.9</ele>
        <time>2020-11-11T20:48:24Z</time>
      </trkpt>
      <trkpt lat="28.0935800" lon="-16.6876150">
        <ele>539.9</ele>
        <time>2020-11-11T20:48:25Z</time>
      </trkpt>
      <trkpt lat="28.0935800" lon="-16.6876150">
        <ele>539.9</ele>
        <time>2020-11-11T20:48:26Z</time>
      </trkpt>
      <trkpt lat="28.0934150" lon="-16.6876150">
        <ele>538.9</ele>
        <time>2020-11-11T20:48:27Z</time>
      </trkpt>
      <trkpt lat="28.0933320" lon="-16.6876130">
        <ele>538.9</ele>
        <time>2020-11-11T20:48:28Z</time>
      </trkpt>
      <trkpt lat="28.0933320" lon="-16.6876130">
        <ele>537.9</ele>
        <time>2020-11-11T20:48:29Z</time>
      </trkpt>
      <trkpt lat="28.0931600" lon="-16.6876130">
        <ele>537.9</ele>
        <time>2020-11-11T20:48:30Z</time>
      </trkpt>
      <trkpt lat="28.0930780" lon="-16.6876130">
        <ele>535.9</ele>
        <time>2020-11-11T20:48:31Z</time>
      </trkpt>
      <trkpt lat="28.0930780" lon="-16.6876130">
        <ele>535.9</ele>
        <time>2020-11-11T20:48:32Z</time>
      </trkpt>
      <trkpt lat="28.0929320" lon="-16.6876120">
        <ele>534.9</ele>
        <time>2020-11-11T20:48:33Z</time>
      </trkpt>
      <trkpt lat="28.0929320" lon="-16.6876120">
        <ele>534.9</ele>
        <time>2020-11-11T20:48:34Z</time>
      </trkpt>
      <trkpt lat="28.0928080" lon="-16.6876050">
        <ele>533.9</ele>
        <time>2020-11-11T20:48:35Z</time>
      </trkpt>
      <trkpt lat="28.0928080" lon="-16.6876050">
        <ele>533.9</ele>
        <time>2020-11-11T20:48:36Z</time>
      </trkpt>
      <trkpt lat="28.0927030" lon="-16.6875980">
        <ele>532.9</ele>
        <time>2020-11-11T20:48:37Z</time>
      </trkpt>
      <trkpt lat="28.0927030" lon="-16.6875980">
        <ele>532.9</ele>
        <time>2020-11-11T20:48:38Z</time>
      </trkpt>
      <trkpt lat="28.0926220" lon="-16.6875920">
        <ele>530.9</ele>
        <time>2020-11-11T20:48:39Z</time>
      </trkpt>
      <trkpt lat="28.0926220" lon="-16.6875920">
        <ele>530.9</ele>
        <time>2020-11-11T20:48:40Z</time>
      </trkpt>
      <trkpt lat="28.0925600" lon="-16.6875770">
        <ele>529.9</ele>
        <time>2020-11-11T20:48:41Z</time>
      </trkpt>
      <trkpt lat="28.0925600" lon="-16.6875770">
        <ele>529.9</ele>
        <time>2020-11-11T20:48:42Z</time>
      </trkpt>
      <trkpt lat="28.0924880" lon="-16.6875980">
        <ele>528.9</ele>
        <time>2020-11-11T20:48:43Z</time>
      </trkpt>
      <trkpt lat="28.0924880" lon="-16.6875980">
        <ele>528.9</ele>
        <time>2020-11-11T20:48:44Z</time>
      </trkpt>
      <trkpt lat="28.0924370" lon="-16.6876880">
        <ele>527.9</ele>
        <time>2020-11-11T20:48:45Z</time>
      </trkpt>
      <trkpt lat="28.0924370" lon="-16.6876880">
        <ele>527.9</ele>
        <time>2020-11-11T20:48:46Z</time>
      </trkpt>
      <trkpt lat="28.0923800" lon="-16.6877930">
        <ele>527.9</ele>
        <time>2020-11-11T20:48:47Z</time>
      </trkpt>
      <trkpt lat="28.0923800" lon="-16.6877930">
        <ele>527.9</ele>
        <time>2020-11-11T20:48:48Z</time>
      </trkpt>
      <trkpt lat="28.0923180" lon="-16.6879150">
        <ele>526.9</ele>
        <time>2020-11-11T20:48:49Z</time>
      </trkpt>
      <trkpt lat="28.0923180" lon="-16.6879150">
        <ele>525.9</ele>
        <time>2020-11-11T20:48:50Z</time>
      </trkpt>
      <trkpt lat="28.0922750" lon="-16.6880470">
        <ele>525.9</ele>
        <time>2020-11-11T20:48:51Z</time>
      </trkpt>
      <trkpt lat="28.0922520" lon="-16.6881250">
        <ele>525.9</ele>
        <time>2020-11-11T20:48:52Z</time>
      </trkpt>
      <trkpt lat="28.0922520" lon="-16.6881250">
        <ele>524.9</ele>
        <time>2020-11-11T20:48:53Z</time>
      </trkpt>
      <trkpt lat="28.0922270" lon="-16.6882970">
        <ele>524.9</ele>
        <time>2020-11-11T20:48:54Z</time>
      </trkpt>
      <trkpt lat="28.0922270" lon="-16.6882970">
        <ele>523.9</ele>
        <time>2020-11-11T20:48:55Z</time>
      </trkpt>
      <trkpt lat="28.0922180" lon="-16.6884880">
        <ele>522.9</ele>
        <time>2020-11-11T20:48:56Z</time>
      </trkpt>
      <trkpt lat="28.0922180" lon="-16.6884880">
        <ele>522.9</ele>
        <time>2020-11-11T20:48:57Z</time>
      </trkpt>
      <trkpt lat="28.0922250" lon="-16.6886950">
        <ele>521.9</ele>
        <time>2020-11-11T20:48:58Z</time>
      </trkpt>
      <trkpt lat="28.0922250" lon="-16.6886950">
        <ele>521.9</ele>
        <time>2020-11-11T20:48:59Z</time>
      </trkpt>
      <trkpt lat="28.0922600" lon="-16.6889170">
        <ele>520.9</ele>
        <time>2020-11-11T20:49:00Z</time>
      </trkpt>
      <trkpt lat="28.0922870" lon="-16.6890300">
        <ele>520.9</ele>
        <time>2020-11-11T20:49:01Z</time>
      </trkpt>
      <trkpt lat="28.0922870" lon="-16.6890300">
        <ele>518.9</ele>
        <time>2020-11-11T20:49:02Z</time>
      </trkpt>
      <trkpt lat="28.0923250" lon="-16.6892550">
        <ele>518.9</ele>
        <time>2020-11-11T20:49:03Z</time>
      </trkpt>
      <trkpt lat="28.0923250" lon="-16.6892550">
        <ele>516.9</ele>
        <time>2020-11-11T20:49:04Z</time>
      </trkpt>
      <trkpt lat="28.0923130" lon="-16.6894630">
        <ele>516.9</ele>
        <time>2020-11-11T20:49:05Z</time>
      </trkpt>
      <trkpt lat="28.0923130" lon="-16.6894630">
        <ele>515.9</ele>
        <time>2020-11-11T20:49:06Z</time>
      </trkpt>
      <trkpt lat="28.0922430" lon="-16.6896530">
        <ele>515.9</ele>
        <time>2020-11-11T20:49:07Z</time>
      </trkpt>
      <trkpt lat="28.0922430" lon="-16.6896530">
        <ele>513.9</ele>
        <time>2020-11-11T20:49:08Z</time>
      </trkpt>
      <trkpt lat="28.0921180" lon="-16.6898050">
        <ele>513.9</ele>
        <time>2020-11-11T20:49:09Z</time>
      </trkpt>
      <trkpt lat="28.0921180" lon="-16.6898050">
        <ele>511.9</ele>
        <time>2020-11-11T20:49:10Z</time>
      </trkpt>
      <trkpt lat="28.0919650" lon="-16.6899000">
        <ele>511.9</ele>
        <time>2020-11-11T20:49:11Z</time>
      </trkpt>
      <trkpt lat="28.0919650" lon="-16.6899000">
        <ele>510.9</ele>
        <time>2020-11-11T20:49:12Z</time>
      </trkpt>
      <trkpt lat="28.0917820" lon="-16.6899330">
        <ele>510.9</ele>
        <time>2020-11-11T20:49:13Z</time>
      </trkpt>
      <trkpt lat="28.0917820" lon="-16.6899330">
        <ele>509.9</ele>
        <time>2020-11-11T20:49:14Z</time>
      </trkpt>
      <trkpt lat="28.0915930" lon="-16.6899130">
        <ele>509.9</ele>
        <time>2020-11-11T20:49:15Z</time>
      </trkpt>
      <trkpt lat="28.0915930" lon="-16.6899130">
        <ele>507.9</ele>
        <time>2020-11-11T20:49:16Z</time>
      </trkpt>
      <trkpt lat="28.0914030" lon="-16.6898480">
        <ele>507.9</ele>
        <time>2020-11-11T20:49:17Z</time>
      </trkpt>
      <trkpt lat="28.0914030" lon="-16.6898480">
        <ele>506.9</ele>
        <time>2020-11-11T20:49:18Z</time>
      </trkpt>
      <trkpt lat="28.0912120" lon="-16.6897550">
        <ele>506.9</ele>
        <time>2020-11-11T20:49:19Z</time>
      </trkpt>
      <trkpt lat="28.0912120" lon="-16.6897550">
        <ele>505.9</ele>
        <time>2020-11-11T20:49:20Z</time>
      </trkpt>
      <trkpt lat="28.0910150" lon="-16.6896530">
        <ele>505.9</ele>
        <time>2020-11-11T20:49:21Z</time>
      </trkpt>
      <trkpt lat="28.0909120" lon="-16.6896150">
        <ele>503.9</ele>
        <time>2020-11-11T20:49:22Z</time>
      </trkpt>
      <trkpt lat="28.0909120" lon="-16.6896150">
        <ele>503.9</ele>
        <time>2020-11-11T20:49:23Z</time>
      </trkpt>
      <trkpt lat="28.0906900" lon="-16.6895570">
        <ele>501.9</ele>
        <time>2020-11-11T20:49:24Z</time>
      </trkpt>
      <trkpt lat="28.0906900" lon="-16.6895570">
        <ele>500.9</ele>
        <time>2020-11-11T20:49:25Z</time>
      </trkpt>
      <trkpt lat="28.0904620" lon="-16.6895120">
        <ele>500.9</ele>
        <time>2020-11-11T20:49:26Z</time>
      </trkpt>
      <trkpt lat="28.0904620" lon="-16.6895120">
        <ele>498.9</ele>
        <time>2020-11-11T20:49:27Z</time>
      </trkpt>
      <trkpt lat="28.0902320" lon="-16.6894830">
        <ele>498.9</ele>
        <time>2020-11-11T20:49:28Z</time>
      </trkpt>
      <trkpt lat="28.0901170" lon="-16.6894650">
        <ele>497.9</ele>
        <time>2020-11-11T20:49:29Z</time>
      </trkpt>
      <trkpt lat="28.0901170" lon="-16.6894650">
        <ele>497.9</ele>
        <time>2020-11-11T20:49:30Z</time>
      </trkpt>
      <trkpt lat="28.0898920" lon="-16.6894050">
        <ele>497.9</ele>
        <time>2020-11-11T20:49:31Z</time>
      </trkpt>
      <trkpt lat="28.0898920" lon="-16.6894050">
        <ele>495.9</ele>
        <time>2020-11-11T20:49:32Z</time>
      </trkpt>
      <trkpt lat="28.0896820" lon="-16.6893080">
        <ele>494.9</ele>
        <time>2020-11-11T20:49:33Z</time>
      </trkpt>
      <trkpt lat="28.0895830" lon="-16.6892520">
        <ele>494.9</ele>
        <time>2020-11-11T20:49:34Z</time>
      </trkpt>
      <trkpt lat="28.0894970" lon="-16.6891850">
        <ele>492.9</ele>
        <time>2020-11-11T20:49:35Z</time>
      </trkpt>
      <trkpt lat="28.0894970" lon="-16.6891850">
        <ele>492.9</ele>
        <time>2020-11-11T20:49:36Z</time>
      </trkpt>
      <trkpt lat="28.0893600" lon="-16.6890080">
        <ele>491.9</ele>
        <time>2020-11-11T20:49:37Z</time>
      </trkpt>
      <trkpt lat="28.0893030" lon="-16.6889030">
        <ele>491.9</ele>
        <time>2020-11-11T20:49:38Z</time>
      </trkpt>
      <trkpt lat="28.0893030" lon="-16.6889030">
        <ele>489.9</ele>
        <time>2020-11-11T20:49:39Z</time>
      </trkpt>
      <trkpt lat="28.0892150" lon="-16.6886850">
        <ele>489.9</ele>
        <time>2020-11-11T20:49:40Z</time>
      </trkpt>
      <trkpt lat="28.0892150" lon="-16.6886850">
        <ele>487.9</ele>
        <time>2020-11-11T20:49:41Z</time>
      </trkpt>
      <trkpt lat="28.0891220" lon="-16.6884870">
        <ele>487.9</ele>
        <time>2020-11-11T20:49:42Z</time>
      </trkpt>
      <trkpt lat="28.0890570" lon="-16.6884050">
        <ele>485.9</ele>
        <time>2020-11-11T20:49:43Z</time>
      </trkpt>
      <trkpt lat="28.0890570" lon="-16.6884050">
        <ele>485.9</ele>
        <time>2020-11-11T20:49:44Z</time>
      </trkpt>
      <trkpt lat="28.0888980" lon="-16.6883080">
        <ele>484.9</ele>
        <time>2020-11-11T20:49:45Z</time>
      </trkpt>
      <trkpt lat="28.0888980" lon="-16.6883080">
        <ele>484.9</ele>
        <time>2020-11-11T20:49:46Z</time>
      </trkpt>
      <trkpt lat="28.0887270" lon="-16.6883170">
        <ele>482.9</ele>
        <time>2020-11-11T20:49:47Z</time>
      </trkpt>
      <trkpt lat="28.0887270" lon="-16.6883170">
        <ele>482.9</ele>
        <time>2020-11-11T20:49:48Z</time>
      </trkpt>
      <trkpt lat="28.0885870" lon="-16.6884420">
        <ele>481.9</ele>
        <time>2020-11-11T20:49:49Z</time>
      </trkpt>
      <trkpt lat="28.0885870" lon="-16.6884420">
        <ele>481.9</ele>
        <time>2020-11-11T20:49:50Z</time>
      </trkpt>
      <trkpt lat="28.0885070" lon="-16.6886470">
        <ele>481.9</ele>
        <time>2020-11-11T20:49:51Z</time>
      </trkpt>
      <trkpt lat="28.0885070" lon="-16.6886470">
        <ele>479.9</ele>
        <time>2020-11-11T20:49:52Z</time>
      </trkpt>
      <trkpt lat="28.0884580" lon="-16.6888720">
        <ele>479.9</ele>
        <time>2020-11-11T20:49:53Z</time>
      </trkpt>
      <trkpt lat="28.0884580" lon="-16.6888720">
        <ele>478.9</ele>
        <time>2020-11-11T20:49:54Z</time>
      </trkpt>
      <trkpt lat="28.0884720" lon="-16.6891070">
        <ele>478.9</ele>
        <time>2020-11-11T20:49:55Z</time>
      </trkpt>
      <trkpt lat="28.0885020" lon="-16.6892230">
        <ele>476.9</ele>
        <time>2020-11-11T20:49:56Z</time>
      </trkpt>
      <trkpt lat="28.0885020" lon="-16.6892230">
        <ele>476.9</ele>
        <time>2020-11-11T20:49:57Z</time>
      </trkpt>
      <trkpt lat="28.0885770" lon="-16.6894550">
        <ele>475.9</ele>
        <time>2020-11-11T20:49:58Z</time>
      </trkpt>
      <trkpt lat="28.0885770" lon="-16.6894550">
        <ele>475.9</ele>
        <time>2020-11-11T20:49:59Z</time>
      </trkpt>
      <trkpt lat="28.0886680" lon="-16.6896900">
        <ele>473.9</ele>
        <time>2020-11-11T20:50:00Z</time>
      </trkpt>
      <trkpt lat="28.0887180" lon="-16.6898070">
        <ele>473.9</ele>
        <time>2020-11-11T20:50:01Z</time>
      </trkpt>
      <trkpt lat="28.0887180" lon="-16.6898070">
        <ele>471.9</ele>
        <time>2020-11-11T20:50:02Z</time>
      </trkpt>
      <trkpt lat="28.0888120" lon="-16.6900450">
        <ele>471.9</ele>
        <time>2020-11-11T20:50:03Z</time>
      </trkpt>
      <trkpt lat="28.0888120" lon="-16.6900450">
        <ele>470.9</ele>
        <time>2020-11-11T20:50:04Z</time>
      </trkpt>
      <trkpt lat="28.0889100" lon="-16.6902880">
        <ele>470.9</ele>
        <time>2020-11-11T20:50:05Z</time>
      </trkpt>
      <trkpt lat="28.0889100" lon="-16.6902880">
        <ele>470.9</ele>
        <time>2020-11-11T20:50:06Z</time>
      </trkpt>
      <trkpt lat="28.0890020" lon="-16.6905350">
        <ele>468.9</ele>
        <time>2020-11-11T20:50:07Z</time>
      </trkpt>
      <trkpt lat="28.0890020" lon="-16.6905350">
        <ele>468.9</ele>
        <time>2020-11-11T20:50:08Z</time>
      </trkpt>
      <trkpt lat="28.0890870" lon="-16.6907820">
        <ele>467.9</ele>
        <time>2020-11-11T20:50:09Z</time>
      </trkpt>
      <trkpt lat="28.0891180" lon="-16.6909080">
        <ele>467.9</ele>
        <time>2020-11-11T20:50:10Z</time>
      </trkpt>
      <trkpt lat="28.0891180" lon="-16.6909080">
        <ele>465.9</ele>
        <time>2020-11-11T20:50:11Z</time>
      </trkpt>
      <trkpt lat="28.0891400" lon="-16.6911730">
        <ele>464.9</ele>
        <time>2020-11-11T20:50:12Z</time>
      </trkpt>
      <trkpt lat="28.0891400" lon="-16.6911730">
        <ele>464.9</ele>
        <time>2020-11-11T20:50:13Z</time>
      </trkpt>
      <trkpt lat="28.0890820" lon="-16.6914350">
        <ele>462.9</ele>
        <time>2020-11-11T20:50:14Z</time>
      </trkpt>
      <trkpt lat="28.0890820" lon="-16.6914350">
        <ele>462.9</ele>
        <time>2020-11-11T20:50:15Z</time>
      </trkpt>
      <trkpt lat="28.0889620" lon="-16.6916670">
        <ele>461.9</ele>
        <time>2020-11-11T20:50:16Z</time>
      </trkpt>
      <trkpt lat="28.0888900" lon="-16.6917650">
        <ele>461.9</ele>
        <time>2020-11-11T20:50:17Z</time>
      </trkpt>
      <trkpt lat="28.0888900" lon="-16.6917650">
        <ele>459.9</ele>
        <time>2020-11-11T20:50:18Z</time>
      </trkpt>
      <trkpt lat="28.0887250" lon="-16.6918930">
        <ele>459.9</ele>
        <time>2020-11-11T20:50:19Z</time>
      </trkpt>
      <trkpt lat="28.0887250" lon="-16.6918930">
        <ele>458.9</ele>
        <time>2020-11-11T20:50:20Z</time>
      </trkpt>
      <trkpt lat="28.0885530" lon="-16.6919330">
        <ele>458.9</ele>
        <time>2020-11-11T20:50:21Z</time>
      </trkpt>
      <trkpt lat="28.0885530" lon="-16.6919330">
        <ele>456.9</ele>
        <time>2020-11-11T20:50:22Z</time>
      </trkpt>
      <trkpt lat="28.0884050" lon="-16.6919030">
        <ele>456.9</ele>
        <time>2020-11-11T20:50:23Z</time>
      </trkpt>
      <trkpt lat="28.0884050" lon="-16.6919030">
        <ele>455.9</ele>
        <time>2020-11-11T20:50:24Z</time>
      </trkpt>
      <trkpt lat="28.0882720" lon="-16.6918130">
        <ele>455.9</ele>
        <time>2020-11-11T20:50:25Z</time>
      </trkpt>
      <trkpt lat="28.0882720" lon="-16.6918130">
        <ele>454.9</ele>
        <time>2020-11-11T20:50:26Z</time>
      </trkpt>
      <trkpt lat="28.0881570" lon="-16.6916830">
        <ele>454.9</ele>
        <time>2020-11-11T20:50:27Z</time>
      </trkpt>
      <trkpt lat="28.0881570" lon="-16.6916830">
        <ele>453.9</ele>
        <time>2020-11-11T20:50:28Z</time>
      </trkpt>
      <trkpt lat="28.0880630" lon="-16.6915270">
        <ele>453.9</ele>
        <time>2020-11-11T20:50:29Z</time>
      </trkpt>
      <trkpt lat="28.0880630" lon="-16.6915270">
        <ele>452.9</ele>
        <time>2020-11-11T20:50:30Z</time>
      </trkpt>
      <trkpt lat="28.0879950" lon="-16.6913370">
        <ele>452.9</ele>
        <time>2020-11-11T20:50:31Z</time>
      </trkpt>
      <trkpt lat="28.0879950" lon="-16.6913370">
        <ele>450.9</ele>
        <time>2020-11-11T20:50:32Z</time>
      </trkpt>
      <trkpt lat="28.0879230" lon="-16.6911300">
        <ele>450.9</ele>
        <time>2020-11-11T20:50:33Z</time>
      </trkpt>
      <trkpt lat="28.0879230" lon="-16.6911300">
        <ele>448.9</ele>
        <time>2020-11-11T20:50:34Z</time>
      </trkpt>
      <trkpt lat="28.0878320" lon="-16.6909200">
        <ele>448.9</ele>
        <time>2020-11-11T20:50:35Z</time>
      </trkpt>
      <trkpt lat="28.0878320" lon="-16.6909200">
        <ele>447.9</ele>
        <time>2020-11-11T20:50:36Z</time>
      </trkpt>
      <trkpt lat="28.0877320" lon="-16.6907100">
        <ele>447.9</ele>
        <time>2020-11-11T20:50:37Z</time>
      </trkpt>
      <trkpt lat="28.0877320" lon="-16.6907100">
        <ele>445.9</ele>
        <time>2020-11-11T20:50:38Z</time>
      </trkpt>
      <trkpt lat="28.0876220" lon="-16.6905220">
        <ele>445.9</ele>
        <time>2020-11-11T20:50:39Z</time>
      </trkpt>
      <trkpt lat="28.0876220" lon="-16.6905220">
        <ele>444.9</ele>
        <time>2020-11-11T20:50:40Z</time>
      </trkpt>
      <trkpt lat="28.0874850" lon="-16.6903720">
        <ele>444.9</ele>
        <time>2020-11-11T20:50:41Z</time>
      </trkpt>
      <trkpt lat="28.0874850" lon="-16.6903720">
        <ele>442.9</ele>
        <time>2020-11-11T20:50:42Z</time>
      </trkpt>
      <trkpt lat="28.0873250" lon="-16.6902580">
        <ele>442.9</ele>
        <time>2020-11-11T20:50:43Z</time>
      </trkpt>
      <trkpt lat="28.0873250" lon="-16.6902580">
        <ele>440.9</ele>
        <time>2020-11-11T20:50:44Z</time>
      </trkpt>
      <trkpt lat="28.0871430" lon="-16.6901930">
        <ele>440.9</ele>
        <time>2020-11-11T20:50:45Z</time>
      </trkpt>
      <trkpt lat="28.0871430" lon="-16.6901930">
        <ele>438.9</ele>
        <time>2020-11-11T20:50:46Z</time>
      </trkpt>
      <trkpt lat="28.0869570" lon="-16.6901770">
        <ele>438.9</ele>
        <time>2020-11-11T20:50:47Z</time>
      </trkpt>
      <trkpt lat="28.0869570" lon="-16.6901770">
        <ele>436.9</ele>
        <time>2020-11-11T20:50:48Z</time>
      </trkpt>
      <trkpt lat="28.0867650" lon="-16.6902230">
        <ele>436.9</ele>
        <time>2020-11-11T20:50:49Z</time>
      </trkpt>
      <trkpt lat="28.0867650" lon="-16.6902230">
        <ele>435.9</ele>
        <time>2020-11-11T20:50:50Z</time>
      </trkpt>
      <trkpt lat="28.0865830" lon="-16.6903230">
        <ele>433.9</ele>
        <time>2020-11-11T20:50:51Z</time>
      </trkpt>
      <trkpt lat="28.0865830" lon="-16.6903230">
        <ele>433.9</ele>
        <time>2020-11-11T20:50:52Z</time>
      </trkpt>
      <trkpt lat="28.0864070" lon="-16.6904480">
        <ele>432.9</ele>
        <time>2020-11-11T20:50:53Z</time>
      </trkpt>
      <trkpt lat="28.0863200" lon="-16.6905150">
        <ele>432.9</ele>
        <time>2020-11-11T20:50:54Z</time>
      </trkpt>
      <trkpt lat="28.0863200" lon="-16.6905150">
        <ele>432.9</ele>
        <time>2020-11-11T20:50:55Z</time>
      </trkpt>
      <trkpt lat="28.0861420" lon="-16.6906600">
        <ele>430.9</ele>
        <time>2020-11-11T20:50:56Z</time>
      </trkpt>
      <trkpt lat="28.0861420" lon="-16.6906600">
        <ele>430.9</ele>
        <time>2020-11-11T20:50:57Z</time>
      </trkpt>
      <trkpt lat="28.0859670" lon="-16.6907920">
        <ele>429.9</ele>
        <time>2020-11-11T20:50:58Z</time>
      </trkpt>
      <trkpt lat="28.0859670" lon="-16.6907920">
        <ele>429.9</ele>
        <time>2020-11-11T20:50:59Z</time>
      </trkpt>
      <trkpt lat="28.0857950" lon="-16.6909000">
        <ele>427.9</ele>
        <time>2020-11-11T20:51:00Z</time>
      </trkpt>
      <trkpt lat="28.0857950" lon="-16.6909000">
        <ele>427.9</ele>
        <time>2020-11-11T20:51:01Z</time>
      </trkpt>
      <trkpt lat="28.0856170" lon="-16.6909850">
        <ele>426.9</ele>
        <time>2020-11-11T20:51:02Z</time>
      </trkpt>
      <trkpt lat="28.0856170" lon="-16.6909850">
        <ele>426.9</ele>
        <time>2020-11-11T20:51:03Z</time>
      </trkpt>
      <trkpt lat="28.0854380" lon="-16.6910280">
        <ele>424.9</ele>
        <time>2020-11-11T20:51:04Z</time>
      </trkpt>
      <trkpt lat="28.0854380" lon="-16.6910280">
        <ele>424.9</ele>
        <time>2020-11-11T20:51:05Z</time>
      </trkpt>
      <trkpt lat="28.0852600" lon="-16.6910180">
        <ele>423.9</ele>
        <time>2020-11-11T20:51:06Z</time>
      </trkpt>
      <trkpt lat="28.0851770" lon="-16.6909820">
        <ele>423.9</ele>
        <time>2020-11-11T20:51:07Z</time>
      </trkpt>
      <trkpt lat="28.0851770" lon="-16.6909820">
        <ele>421.9</ele>
        <time>2020-11-11T20:51:08Z</time>
      </trkpt>
      <trkpt lat="28.0850330" lon="-16.6908530">
        <ele>421.9</ele>
        <time>2020-11-11T20:51:09Z</time>
      </trkpt>
      <trkpt lat="28.0849730" lon="-16.6907720">
        <ele>420.9</ele>
        <time>2020-11-11T20:51:10Z</time>
      </trkpt>
      <trkpt lat="28.0849730" lon="-16.6907720">
        <ele>420.9</ele>
        <time>2020-11-11T20:51:11Z</time>
      </trkpt>
      <trkpt lat="28.0848620" lon="-16.6905950">
        <ele>418.9</ele>
        <time>2020-11-11T20:51:12Z</time>
      </trkpt>
      <trkpt lat="28.0848620" lon="-16.6905950">
        <ele>418.9</ele>
        <time>2020-11-11T20:51:13Z</time>
      </trkpt>
      <trkpt lat="28.0847470" lon="-16.6904070">
        <ele>417.9</ele>
        <time>2020-11-11T20:51:14Z</time>
      </trkpt>
      <trkpt lat="28.0847470" lon="-16.6904070">
        <ele>417.9</ele>
        <time>2020-11-11T20:51:15Z</time>
      </trkpt>
      <trkpt lat="28.0846300" lon="-16.6902130">
        <ele>416.9</ele>
        <time>2020-11-11T20:51:16Z</time>
      </trkpt>
      <trkpt lat="28.0846300" lon="-16.6902130">
        <ele>416.9</ele>
        <time>2020-11-11T20:51:17Z</time>
      </trkpt>
      <trkpt lat="28.0845070" lon="-16.6900220">
        <ele>414.9</ele>
        <time>2020-11-11T20:51:18Z</time>
      </trkpt>
      <trkpt lat="28.0845070" lon="-16.6900220">
        <ele>414.9</ele>
        <time>2020-11-11T20:51:19Z</time>
      </trkpt>
      <trkpt lat="28.0843820" lon="-16.6898320">
        <ele>413.9</ele>
        <time>2020-11-11T20:51:20Z</time>
      </trkpt>
      <trkpt lat="28.0843820" lon="-16.6898320">
        <ele>413.9</ele>
        <time>2020-11-11T20:51:21Z</time>
      </trkpt>
      <trkpt lat="28.0842600" lon="-16.6896380">
        <ele>411.9</ele>
        <time>2020-11-11T20:51:22Z</time>
      </trkpt>
      <trkpt lat="28.0842600" lon="-16.6896380">
        <ele>410.9</ele>
        <time>2020-11-11T20:51:23Z</time>
      </trkpt>
      <trkpt lat="28.0841520" lon="-16.6894330">
        <ele>410.9</ele>
        <time>2020-11-11T20:51:24Z</time>
      </trkpt>
      <trkpt lat="28.0841520" lon="-16.6894330">
        <ele>410.9</ele>
        <time>2020-11-11T20:51:25Z</time>
      </trkpt>
      <trkpt lat="28.0840680" lon="-16.6892150">
        <ele>408.9</ele>
        <time>2020-11-11T20:51:26Z</time>
      </trkpt>
      <trkpt lat="28.0840680" lon="-16.6892150">
        <ele>407.9</ele>
        <time>2020-11-11T20:51:27Z</time>
      </trkpt>
      <trkpt lat="28.0839930" lon="-16.6889920">
        <ele>407.9</ele>
        <time>2020-11-11T20:51:28Z</time>
      </trkpt>
      <trkpt lat="28.0839930" lon="-16.6889920">
        <ele>405.9</ele>
        <time>2020-11-11T20:51:29Z</time>
      </trkpt>
      <trkpt lat="28.0839200" lon="-16.6887720">
        <ele>405.9</ele>
        <time>2020-11-11T20:51:30Z</time>
      </trkpt>
      <trkpt lat="28.0839200" lon="-16.6887720">
        <ele>404.9</ele>
        <time>2020-11-11T20:51:31Z</time>
      </trkpt>
      <trkpt lat="28.0838450" lon="-16.6885530">
        <ele>404.9</ele>
        <time>2020-11-11T20:51:32Z</time>
      </trkpt>
      <trkpt lat="28.0838450" lon="-16.6885530">
        <ele>403.9</ele>
        <time>2020-11-11T20:51:33Z</time>
      </trkpt>
      <trkpt lat="28.0837700" lon="-16.6883370">
        <ele>403.9</ele>
        <time>2020-11-11T20:51:34Z</time>
      </trkpt>
      <trkpt lat="28.0837700" lon="-16.6883370">
        <ele>402.9</ele>
        <time>2020-11-11T20:51:35Z</time>
      </trkpt>
      <trkpt lat="28.0836750" lon="-16.6881300">
        <ele>402.9</ele>
        <time>2020-11-11T20:51:36Z</time>
      </trkpt>
      <trkpt lat="28.0836170" lon="-16.6880330">
        <ele>401.9</ele>
        <time>2020-11-11T20:51:37Z</time>
      </trkpt>
      <trkpt lat="28.0836170" lon="-16.6880330">
        <ele>401.9</ele>
        <time>2020-11-11T20:51:38Z</time>
      </trkpt>
      <trkpt lat="28.0834780" lon="-16.6878620">
        <ele>399.9</ele>
        <time>2020-11-11T20:51:39Z</time>
      </trkpt>
      <trkpt lat="28.0834780" lon="-16.6878620">
        <ele>399.9</ele>
        <time>2020-11-11T20:51:40Z</time>
      </trkpt>
      <trkpt lat="28.0833270" lon="-16.6877100">
        <ele>398.9</ele>
        <time>2020-11-11T20:51:41Z</time>
      </trkpt>
      <trkpt lat="28.0832480" lon="-16.6876370">
        <ele>398.9</ele>
        <time>2020-11-11T20:51:42Z</time>
      </trkpt>
      <trkpt lat="28.0832480" lon="-16.6876370">
        <ele>397.9</ele>
        <time>2020-11-11T20:51:43Z</time>
      </trkpt>
      <trkpt lat="28.0830930" lon="-16.6874850">
        <ele>397.9</ele>
        <time>2020-11-11T20:51:44Z</time>
      </trkpt>
      <trkpt lat="28.0830930" lon="-16.6874850">
        <ele>396.9</ele>
        <time>2020-11-11T20:51:45Z</time>
      </trkpt>
      <trkpt lat="28.0829470" lon="-16.6873200">
        <ele>396.9</ele>
        <time>2020-11-11T20:51:46Z</time>
      </trkpt>
      <trkpt lat="28.0829470" lon="-16.6873200">
        <ele>395.9</ele>
        <time>2020-11-11T20:51:47Z</time>
      </trkpt>
      <trkpt lat="28.0828220" lon="-16.6871320">
        <ele>395.9</ele>
        <time>2020-11-11T20:51:48Z</time>
      </trkpt>
      <trkpt lat="28.0828220" lon="-16.6871320">
        <ele>394.9</ele>
        <time>2020-11-11T20:51:49Z</time>
      </trkpt>
      <trkpt lat="28.0827230" lon="-16.6869320">
        <ele>394.9</ele>
        <time>2020-11-11T20:51:50Z</time>
      </trkpt>
      <trkpt lat="28.0827230" lon="-16.6869320">
        <ele>393.9</ele>
        <time>2020-11-11T20:51:51Z</time>
      </trkpt>
      <trkpt lat="28.0826420" lon="-16.6867470">
        <ele>393.9</ele>
        <time>2020-11-11T20:51:52Z</time>
      </trkpt>
      <trkpt lat="28.0826420" lon="-16.6867470">
        <ele>391.9</ele>
        <time>2020-11-11T20:51:53Z</time>
      </trkpt>
      <trkpt lat="28.0825720" lon="-16.6865630">
        <ele>391.9</ele>
        <time>2020-11-11T20:51:54Z</time>
      </trkpt>
      <trkpt lat="28.0825480" lon="-16.6864650">
        <ele>390.9</ele>
        <time>2020-11-11T20:51:55Z</time>
      </trkpt>
      <trkpt lat="28.0825480" lon="-16.6864650">
        <ele>390.9</ele>
        <time>2020-11-11T20:51:56Z</time>
      </trkpt>
      <trkpt lat="28.0825270" lon="-16.6862570">
        <ele>388.9</ele>
        <time>2020-11-11T20:51:57Z</time>
      </trkpt>
      <trkpt lat="28.0825270" lon="-16.6862570">
        <ele>388.9</ele>
        <time>2020-11-11T20:51:58Z</time>
      </trkpt>
      <trkpt lat="28.0825220" lon="-16.6860350">
        <ele>387.9</ele>
        <time>2020-11-11T20:51:59Z</time>
      </trkpt>
      <trkpt lat="28.0825220" lon="-16.6860350">
        <ele>385.9</ele>
        <time>2020-11-11T20:52:00Z</time>
      </trkpt>
      <trkpt lat="28.0825080" lon="-16.6858100">
        <ele>385.9</ele>
        <time>2020-11-11T20:52:01Z</time>
      </trkpt>
      <trkpt lat="28.0825080" lon="-16.6858100">
        <ele>385.9</ele>
        <time>2020-11-11T20:52:02Z</time>
      </trkpt>
      <trkpt lat="28.0825170" lon="-16.6855730">
        <ele>384.9</ele>
        <time>2020-11-11T20:52:03Z</time>
      </trkpt>
      <trkpt lat="28.0825170" lon="-16.6855730">
        <ele>384.9</ele>
        <time>2020-11-11T20:52:04Z</time>
      </trkpt>
      <trkpt lat="28.0825580" lon="-16.6853400">
        <ele>382.9</ele>
        <time>2020-11-11T20:52:05Z</time>
      </trkpt>
      <trkpt lat="28.0825580" lon="-16.6853400">
        <ele>380.9</ele>
        <time>2020-11-11T20:52:06Z</time>
      </trkpt>
      <trkpt lat="28.0826130" lon="-16.6851120">
        <ele>380.9</ele>
        <time>2020-11-11T20:52:07Z</time>
      </trkpt>
      <trkpt lat="28.0826130" lon="-16.6851120">
        <ele>378.9</ele>
        <time>2020-11-11T20:52:08Z</time>
      </trkpt>
      <trkpt lat="28.0826650" lon="-16.6848750">
        <ele>378.9</ele>
        <time>2020-11-11T20:52:09Z</time>
      </trkpt>
      <trkpt lat="28.0826650" lon="-16.6848750">
        <ele>376.9</ele>
        <time>2020-11-11T20:52:10Z</time>
      </trkpt>
      <trkpt lat="28.0826980" lon="-16.6846320">
        <ele>376.9</ele>
        <time>2020-11-11T20:52:11Z</time>
      </trkpt>
      <trkpt lat="28.0826980" lon="-16.6846320">
        <ele>374.9</ele>
        <time>2020-11-11T20:52:12Z</time>
      </trkpt>
      <trkpt lat="28.0827080" lon="-16.6843820">
        <ele>374.9</ele>
        <time>2020-11-11T20:52:13Z</time>
      </trkpt>
      <trkpt lat="28.0827080" lon="-16.6843820">
        <ele>373.9</ele>
        <time>2020-11-11T20:52:14Z</time>
      </trkpt>
      <trkpt lat="28.0826650" lon="-16.6841370">
        <ele>373.9</ele>
        <time>2020-11-11T20:52:15Z</time>
      </trkpt>
      <trkpt lat="28.0826650" lon="-16.6841370">
        <ele>371.9</ele>
        <time>2020-11-11T20:52:16Z</time>
      </trkpt>
      <trkpt lat="28.0825480" lon="-16.6839470">
        <ele>371.9</ele>
        <time>2020-11-11T20:52:17Z</time>
      </trkpt>
      <trkpt lat="28.0824680" lon="-16.6838720">
        <ele>370.9</ele>
        <time>2020-11-11T20:52:18Z</time>
      </trkpt>
      <trkpt lat="28.0824680" lon="-16.6838720">
        <ele>370.9</ele>
        <time>2020-11-11T20:52:19Z</time>
      </trkpt>
      <trkpt lat="28.0822750" lon="-16.6837730">
        <ele>368.9</ele>
        <time>2020-11-11T20:52:20Z</time>
      </trkpt>
      <trkpt lat="28.0822750" lon="-16.6837730">
        <ele>368.9</ele>
        <time>2020-11-11T20:52:21Z</time>
      </trkpt>
      <trkpt lat="28.0820600" lon="-16.6837250">
        <ele>366.9</ele>
        <time>2020-11-11T20:52:22Z</time>
      </trkpt>
      <trkpt lat="28.0820600" lon="-16.6837250">
        <ele>366.9</ele>
        <time>2020-11-11T20:52:23Z</time>
      </trkpt>
      <trkpt lat="28.0818430" lon="-16.6836930">
        <ele>365.9</ele>
        <time>2020-11-11T20:52:24Z</time>
      </trkpt>
      <trkpt lat="28.0818430" lon="-16.6836930">
        <ele>365.9</ele>
        <time>2020-11-11T20:52:25Z</time>
      </trkpt>
      <trkpt lat="28.0816250" lon="-16.6836770">
        <ele>364.9</ele>
        <time>2020-11-11T20:52:26Z</time>
      </trkpt>
      <trkpt lat="28.0816250" lon="-16.6836770">
        <ele>364.9</ele>
        <time>2020-11-11T20:52:27Z</time>
      </trkpt>
      <trkpt lat="28.0814100" lon="-16.6836630">
        <ele>363.9</ele>
        <time>2020-11-11T20:52:28Z</time>
      </trkpt>
      <trkpt lat="28.0814100" lon="-16.6836630">
        <ele>363.9</ele>
        <time>2020-11-11T20:52:29Z</time>
      </trkpt>
      <trkpt lat="28.0812000" lon="-16.6836430">
        <ele>361.9</ele>
        <time>2020-11-11T20:52:30Z</time>
      </trkpt>
      <trkpt lat="28.0812000" lon="-16.6836430">
        <ele>361.9</ele>
        <time>2020-11-11T20:52:31Z</time>
      </trkpt>
      <trkpt lat="28.0809950" lon="-16.6836100">
        <ele>360.9</ele>
        <time>2020-11-11T20:52:32Z</time>
      </trkpt>
      <trkpt lat="28.0809950" lon="-16.6836100">
        <ele>360.9</ele>
        <time>2020-11-11T20:52:33Z</time>
      </trkpt>
      <trkpt lat="28.0807930" lon="-16.6835400">
        <ele>359.9</ele>
        <time>2020-11-11T20:52:34Z</time>
      </trkpt>
      <trkpt lat="28.0807930" lon="-16.6835400">
        <ele>359.9</ele>
        <time>2020-11-11T20:52:35Z</time>
      </trkpt>
      <trkpt lat="28.0806050" lon="-16.6834250">
        <ele>357.9</ele>
        <time>2020-11-11T20:52:36Z</time>
      </trkpt>
      <trkpt lat="28.0805270" lon="-16.6833500">
        <ele>356.9</ele>
        <time>2020-11-11T20:52:37Z</time>
      </trkpt>
      <trkpt lat="28.0805270" lon="-16.6833500">
        <ele>356.9</ele>
        <time>2020-11-11T20:52:38Z</time>
      </trkpt>
      <trkpt lat="28.0803980" lon="-16.6831650">
        <ele>356.9</ele>
        <time>2020-11-11T20:52:39Z</time>
      </trkpt>
      <trkpt lat="28.0803980" lon="-16.6831650">
        <ele>354.9</ele>
        <time>2020-11-11T20:52:40Z</time>
      </trkpt>
      <trkpt lat="28.0802820" lon="-16.6829620">
        <ele>354.9</ele>
        <time>2020-11-11T20:52:41Z</time>
      </trkpt>
      <trkpt lat="28.0802820" lon="-16.6829620">
        <ele>353.9</ele>
        <time>2020-11-11T20:52:42Z</time>
      </trkpt>
      <trkpt lat="28.0801830" lon="-16.6827570">
        <ele>353.9</ele>
        <time>2020-11-11T20:52:43Z</time>
      </trkpt>
      <trkpt lat="28.0801830" lon="-16.6827570">
        <ele>352.9</ele>
        <time>2020-11-11T20:52:44Z</time>
      </trkpt>
      <trkpt lat="28.0800920" lon="-16.6825670">
        <ele>350.9</ele>
        <time>2020-11-11T20:52:45Z</time>
      </trkpt>
      <trkpt lat="28.0800380" lon="-16.6824830">
        <ele>350.9</ele>
        <time>2020-11-11T20:52:46Z</time>
      </trkpt>
      <trkpt lat="28.0800380" lon="-16.6824830">
        <ele>349.9</ele>
        <time>2020-11-11T20:52:47Z</time>
      </trkpt>
      <trkpt lat="28.0799100" lon="-16.6823520">
        <ele>349.9</ele>
        <time>2020-11-11T20:52:48Z</time>
      </trkpt>
      <trkpt lat="28.0799100" lon="-16.6823520">
        <ele>347.9</ele>
        <time>2020-11-11T20:52:49Z</time>
      </trkpt>
      <trkpt lat="28.0797530" lon="-16.6822700">
        <ele>347.9</ele>
        <time>2020-11-11T20:52:50Z</time>
      </trkpt>
      <trkpt lat="28.0797530" lon="-16.6822700">
        <ele>345.9</ele>
        <time>2020-11-11T20:52:51Z</time>
      </trkpt>
      <trkpt lat="28.0795880" lon="-16.6822330">
        <ele>345.9</ele>
        <time>2020-11-11T20:52:52Z</time>
      </trkpt>
      <trkpt lat="28.0795080" lon="-16.6822280">
        <ele>344.9</ele>
        <time>2020-11-11T20:52:53Z</time>
      </trkpt>
      <trkpt lat="28.0795080" lon="-16.6822280">
        <ele>344.9</ele>
        <time>2020-11-11T20:52:54Z</time>
      </trkpt>
      <trkpt lat="28.0793430" lon="-16.6822470">
        <ele>342.9</ele>
        <time>2020-11-11T20:52:55Z</time>
      </trkpt>
      <trkpt lat="28.0793430" lon="-16.6822470">
        <ele>342.9</ele>
        <time>2020-11-11T20:52:56Z</time>
      </trkpt>
      <trkpt lat="28.0791950" lon="-16.6822950">
        <ele>341.9</ele>
        <time>2020-11-11T20:52:57Z</time>
      </trkpt>
      <trkpt lat="28.0791950" lon="-16.6822950">
        <ele>341.9</ele>
        <time>2020-11-11T20:52:58Z</time>
      </trkpt>
      <trkpt lat="28.0790680" lon="-16.6823630">
        <ele>339.9</ele>
        <time>2020-11-11T20:52:59Z</time>
      </trkpt>
      <trkpt lat="28.0790680" lon="-16.6823630">
        <ele>339.9</ele>
        <time>2020-11-11T20:53:00Z</time>
      </trkpt>
      <trkpt lat="28.0789620" lon="-16.6824220">
        <ele>337.9</ele>
        <time>2020-11-11T20:53:01Z</time>
      </trkpt>
      <trkpt lat="28.0789620" lon="-16.6824220">
        <ele>337.9</ele>
        <time>2020-11-11T20:53:02Z</time>
      </trkpt>
      <trkpt lat="28.0788870" lon="-16.6824880">
        <ele>336.9</ele>
        <time>2020-11-11T20:53:03Z</time>
      </trkpt>
      <trkpt lat="28.0788870" lon="-16.6824880">
        <ele>336.9</ele>
        <time>2020-11-11T20:53:04Z</time>
      </trkpt>
      <trkpt lat="28.0788280" lon="-16.6825900">
        <ele>335.9</ele>
        <time>2020-11-11T20:53:05Z</time>
      </trkpt>
      <trkpt lat="28.0788280" lon="-16.6825900">
        <ele>335.9</ele>
        <time>2020-11-11T20:53:06Z</time>
      </trkpt>
      <trkpt lat="28.0788150" lon="-16.6827200">
        <ele>334.9</ele>
        <time>2020-11-11T20:53:07Z</time>
      </trkpt>
      <trkpt lat="28.0788150" lon="-16.6827200">
        <ele>334.9</ele>
        <time>2020-11-11T20:53:08Z</time>
      </trkpt>
      <trkpt lat="28.0788400" lon="-16.6828680">
        <ele>333.9</ele>
        <time>2020-11-11T20:53:09Z</time>
      </trkpt>
      <trkpt lat="28.0788400" lon="-16.6828680">
        <ele>333.9</ele>
        <time>2020-11-11T20:53:10Z</time>
      </trkpt>
      <trkpt lat="28.0788970" lon="-16.6830300">
        <ele>333.9</ele>
        <time>2020-11-11T20:53:11Z</time>
      </trkpt>
      <trkpt lat="28.0788970" lon="-16.6830300">
        <ele>333.9</ele>
        <time>2020-11-11T20:53:12Z</time>
      </trkpt>
      <trkpt lat="28.0789450" lon="-16.6832020">
        <ele>332.9</ele>
        <time>2020-11-11T20:53:13Z</time>
      </trkpt>
      <trkpt lat="28.0789450" lon="-16.6832020">
        <ele>332.9</ele>
        <time>2020-11-11T20:53:14Z</time>
      </trkpt>
      <trkpt lat="28.0789730" lon="-16.6833800">
        <ele>331.9</ele>
        <time>2020-11-11T20:53:15Z</time>
      </trkpt>
      <trkpt lat="28.0789730" lon="-16.6833800">
        <ele>330.9</ele>
        <time>2020-11-11T20:53:16Z</time>
      </trkpt>
      <trkpt lat="28.0789820" lon="-16.6835630">
        <ele>330.9</ele>
        <time>2020-11-11T20:53:17Z</time>
      </trkpt>
      <trkpt lat="28.0789820" lon="-16.6836580">
        <ele>330.9</ele>
        <time>2020-11-11T20:53:18Z</time>
      </trkpt>
      <trkpt lat="28.0789730" lon="-16.6837550">
        <ele>329.9</ele>
        <time>2020-11-11T20:53:19Z</time>
      </trkpt>
      <trkpt lat="28.0789730" lon="-16.6837550">
        <ele>329.9</ele>
        <time>2020-11-11T20:53:20Z</time>
      </trkpt>
      <trkpt lat="28.0789270" lon="-16.6839520">
        <ele>327.9</ele>
        <time>2020-11-11T20:53:21Z</time>
      </trkpt>
      <trkpt lat="28.0789270" lon="-16.6839520">
        <ele>326.9</ele>
        <time>2020-11-11T20:53:22Z</time>
      </trkpt>
      <trkpt lat="28.0788520" lon="-16.6841450">
        <ele>326.9</ele>
        <time>2020-11-11T20:53:23Z</time>
      </trkpt>
      <trkpt lat="28.0788520" lon="-16.6841450">
        <ele>325.9</ele>
        <time>2020-11-11T20:53:24Z</time>
      </trkpt>
      <trkpt lat="28.0787470" lon="-16.6843300">
        <ele>325.9</ele>
        <time>2020-11-11T20:53:25Z</time>
      </trkpt>
      <trkpt lat="28.0787470" lon="-16.6843300">
        <ele>324.9</ele>
        <time>2020-11-11T20:53:26Z</time>
      </trkpt>
      <trkpt lat="28.0786250" lon="-16.6845100">
        <ele>324.9</ele>
        <time>2020-11-11T20:53:27Z</time>
      </trkpt>
      <trkpt lat="28.0786250" lon="-16.6845100">
        <ele>322.9</ele>
        <time>2020-11-11T20:53:28Z</time>
      </trkpt>
      <trkpt lat="28.0784930" lon="-16.6846870">
        <ele>322.9</ele>
        <time>2020-11-11T20:53:29Z</time>
      </trkpt>
      <trkpt lat="28.0784930" lon="-16.6846870">
        <ele>321.9</ele>
        <time>2020-11-11T20:53:30Z</time>
      </trkpt>
      <trkpt lat="28.0783580" lon="-16.6848670">
        <ele>321.9</ele>
        <time>2020-11-11T20:53:31Z</time>
      </trkpt>
      <trkpt lat="28.0783580" lon="-16.6848670">
        <ele>319.9</ele>
        <time>2020-11-11T20:53:32Z</time>
      </trkpt>
      <trkpt lat="28.0782180" lon="-16.6850470">
        <ele>319.9</ele>
        <time>2020-11-11T20:53:33Z</time>
      </trkpt>
      <trkpt lat="28.0782180" lon="-16.6850470">
        <ele>318.9</ele>
        <time>2020-11-11T20:53:34Z</time>
      </trkpt>
      <trkpt lat="28.0780770" lon="-16.6852370">
        <ele>318.9</ele>
        <time>2020-11-11T20:53:35Z</time>
      </trkpt>
      <trkpt lat="28.0780030" lon="-16.6853320">
        <ele>316.9</ele>
        <time>2020-11-11T20:53:36Z</time>
      </trkpt>
      <trkpt lat="28.0780030" lon="-16.6853320">
        <ele>316.9</ele>
        <time>2020-11-11T20:53:37Z</time>
      </trkpt>
      <trkpt lat="28.0778520" lon="-16.6855220">
        <ele>315.9</ele>
        <time>2020-11-11T20:53:38Z</time>
      </trkpt>
      <trkpt lat="28.0778520" lon="-16.6855220">
        <ele>315.9</ele>
        <time>2020-11-11T20:53:39Z</time>
      </trkpt>
      <trkpt lat="28.0777000" lon="-16.6857150">
        <ele>314.9</ele>
        <time>2020-11-11T20:53:40Z</time>
      </trkpt>
      <trkpt lat="28.0777000" lon="-16.6857150">
        <ele>314.9</ele>
        <time>2020-11-11T20:53:41Z</time>
      </trkpt>
      <trkpt lat="28.0775470" lon="-16.6859120">
        <ele>312.9</ele>
        <time>2020-11-11T20:53:42Z</time>
      </trkpt>
      <trkpt lat="28.0775470" lon="-16.6859120">
        <ele>312.9</ele>
        <time>2020-11-11T20:53:43Z</time>
      </trkpt>
      <trkpt lat="28.0773900" lon="-16.6861100">
        <ele>311.9</ele>
        <time>2020-11-11T20:53:44Z</time>
      </trkpt>
      <trkpt lat="28.0773100" lon="-16.6862120">
        <ele>311.9</ele>
        <time>2020-11-11T20:53:45Z</time>
      </trkpt>
      <trkpt lat="28.0773100" lon="-16.6862120">
        <ele>309.9</ele>
        <time>2020-11-11T20:53:46Z</time>
      </trkpt>
      <trkpt lat="28.0771500" lon="-16.6864150">
        <ele>309.9</ele>
        <time>2020-11-11T20:53:47Z</time>
      </trkpt>
      <trkpt lat="28.0771500" lon="-16.6864150">
        <ele>308.9</ele>
        <time>2020-11-11T20:53:48Z</time>
      </trkpt>
      <trkpt lat="28.0769880" lon="-16.6866200">
        <ele>308.9</ele>
        <time>2020-11-11T20:53:49Z</time>
      </trkpt>
      <trkpt lat="28.0769880" lon="-16.6866200">
        <ele>306.9</ele>
        <time>2020-11-11T20:53:50Z</time>
      </trkpt>
      <trkpt lat="28.0768270" lon="-16.6868270">
        <ele>306.9</ele>
        <time>2020-11-11T20:53:51Z</time>
      </trkpt>
      <trkpt lat="28.0768270" lon="-16.6868270">
        <ele>305.9</ele>
        <time>2020-11-11T20:53:52Z</time>
      </trkpt>
      <trkpt lat="28.0766650" lon="-16.6870330">
        <ele>305.9</ele>
        <time>2020-11-11T20:53:53Z</time>
      </trkpt>
      <trkpt lat="28.0766650" lon="-16.6870330">
        <ele>304.9</ele>
        <time>2020-11-11T20:53:54Z</time>
      </trkpt>
      <trkpt lat="28.0765050" lon="-16.6872430">
        <ele>302.9</ele>
        <time>2020-11-11T20:53:55Z</time>
      </trkpt>
      <trkpt lat="28.0765050" lon="-16.6872430">
        <ele>302.9</ele>
        <time>2020-11-11T20:53:56Z</time>
      </trkpt>
      <trkpt lat="28.0763430" lon="-16.6874550">
        <ele>302.9</ele>
        <time>2020-11-11T20:53:57Z</time>
      </trkpt>
      <trkpt lat="28.0762620" lon="-16.6875600">
        <ele>300.9</ele>
        <time>2020-11-11T20:53:58Z</time>
      </trkpt>
      <trkpt lat="28.0762620" lon="-16.6875600">
        <ele>299.9</ele>
        <time>2020-11-11T20:53:59Z</time>
      </trkpt>
      <trkpt lat="28.0760930" lon="-16.6877700">
        <ele>299.9</ele>
        <time>2020-11-11T20:54:00Z</time>
      </trkpt>
      <trkpt lat="28.0760100" lon="-16.6878750">
        <ele>297.9</ele>
        <time>2020-11-11T20:54:01Z</time>
      </trkpt>
      <trkpt lat="28.0760100" lon="-16.6878750">
        <ele>297.9</ele>
        <time>2020-11-11T20:54:02Z</time>
      </trkpt>
      <trkpt lat="28.0758350" lon="-16.6880680">
        <ele>296.9</ele>
        <time>2020-11-11T20:54:03Z</time>
      </trkpt>
      <trkpt lat="28.0758350" lon="-16.6880680">
        <ele>296.9</ele>
        <time>2020-11-11T20:54:04Z</time>
      </trkpt>
      <trkpt lat="28.0756370" lon="-16.6882250">
        <ele>294.9</ele>
        <time>2020-11-11T20:54:05Z</time>
      </trkpt>
      <trkpt lat="28.0756370" lon="-16.6882250">
        <ele>294.9</ele>
        <time>2020-11-11T20:54:06Z</time>
      </trkpt>
      <trkpt lat="28.0754230" lon="-16.6883500">
        <ele>292.9</ele>
        <time>2020-11-11T20:54:07Z</time>
      </trkpt>
      <trkpt lat="28.0754230" lon="-16.6883500">
        <ele>292.9</ele>
        <time>2020-11-11T20:54:08Z</time>
      </trkpt>
      <trkpt lat="28.0752000" lon="-16.6884580">
        <ele>291.9</ele>
        <time>2020-11-11T20:54:09Z</time>
      </trkpt>
      <trkpt lat="28.0752000" lon="-16.6884580">
        <ele>291.9</ele>
        <time>2020-11-11T20:54:10Z</time>
      </trkpt>
      <trkpt lat="28.0749800" lon="-16.6885550">
        <ele>289.9</ele>
        <time>2020-11-11T20:54:11Z</time>
      </trkpt>
      <trkpt lat="28.0749800" lon="-16.6885550">
        <ele>289.9</ele>
        <time>2020-11-11T20:54:12Z</time>
      </trkpt>
      <trkpt lat="28.0747720" lon="-16.6886500">
        <ele>288.9</ele>
        <time>2020-11-11T20:54:13Z</time>
      </trkpt>
      <trkpt lat="28.0747720" lon="-16.6886500">
        <ele>288.9</ele>
        <time>2020-11-11T20:54:14Z</time>
      </trkpt>
      <trkpt lat="28.0745780" lon="-16.6887620">
        <ele>286.9</ele>
        <time>2020-11-11T20:54:15Z</time>
      </trkpt>
      <trkpt lat="28.0745780" lon="-16.6887620">
        <ele>286.9</ele>
        <time>2020-11-11T20:54:16Z</time>
      </trkpt>
      <trkpt lat="28.0744030" lon="-16.6889100">
        <ele>285.9</ele>
        <time>2020-11-11T20:54:17Z</time>
      </trkpt>
      <trkpt lat="28.0744030" lon="-16.6889100">
        <ele>285.9</ele>
        <time>2020-11-11T20:54:18Z</time>
      </trkpt>
      <trkpt lat="28.0742430" lon="-16.6890800">
        <ele>284.9</ele>
        <time>2020-11-11T20:54:19Z</time>
      </trkpt>
      <trkpt lat="28.0742430" lon="-16.6890800">
        <ele>284.9</ele>
        <time>2020-11-11T20:54:20Z</time>
      </trkpt>
      <trkpt lat="28.0741220" lon="-16.6892830">
        <ele>282.9</ele>
        <time>2020-11-11T20:54:21Z</time>
      </trkpt>
      <trkpt lat="28.0741220" lon="-16.6892830">
        <ele>282.9</ele>
        <time>2020-11-11T20:54:22Z</time>
      </trkpt>
      <trkpt lat="28.0740500" lon="-16.6895320">
        <ele>280.9</ele>
        <time>2020-11-11T20:54:23Z</time>
      </trkpt>
      <trkpt lat="28.0740280" lon="-16.6896630">
        <ele>280.9</ele>
        <time>2020-11-11T20:54:24Z</time>
      </trkpt>
      <trkpt lat="28.0740120" lon="-16.6897970">
        <ele>278.9</ele>
        <time>2020-11-11T20:54:25Z</time>
      </trkpt>
      <trkpt lat="28.0740120" lon="-16.6897970">
        <ele>278.9</ele>
        <time>2020-11-11T20:54:26Z</time>
      </trkpt>
      <trkpt lat="28.0739770" lon="-16.6900670">
        <ele>276.9</ele>
        <time>2020-11-11T20:54:27Z</time>
      </trkpt>
      <trkpt lat="28.0739770" lon="-16.6900670">
        <ele>276.9</ele>
        <time>2020-11-11T20:54:28Z</time>
      </trkpt>
      <trkpt lat="28.0739470" lon="-16.6903370">
        <ele>274.9</ele>
        <time>2020-11-11T20:54:29Z</time>
      </trkpt>
      <trkpt lat="28.0739470" lon="-16.6903370">
        <ele>274.9</ele>
        <time>2020-11-11T20:54:30Z</time>
      </trkpt>
      <trkpt lat="28.0739130" lon="-16.6906030">
        <ele>272.9</ele>
        <time>2020-11-11T20:54:31Z</time>
      </trkpt>
      <trkpt lat="28.0739130" lon="-16.6906030">
        <ele>272.9</ele>
        <time>2020-11-11T20:54:32Z</time>
      </trkpt>
      <trkpt lat="28.0738670" lon="-16.6908620">
        <ele>271.9</ele>
        <time>2020-11-11T20:54:33Z</time>
      </trkpt>
      <trkpt lat="28.0738670" lon="-16.6908620">
        <ele>271.9</ele>
        <time>2020-11-11T20:54:34Z</time>
      </trkpt>
      <trkpt lat="28.0737930" lon="-16.6911070">
        <ele>269.9</ele>
        <time>2020-11-11T20:54:35Z</time>
      </trkpt>
      <trkpt lat="28.0737930" lon="-16.6911070">
        <ele>269.9</ele>
        <time>2020-11-11T20:54:36Z</time>
      </trkpt>
      <trkpt lat="28.0736800" lon="-16.6913230">
        <ele>268.9</ele>
        <time>2020-11-11T20:54:37Z</time>
      </trkpt>
      <trkpt lat="28.0736800" lon="-16.6913230">
        <ele>267.9</ele>
        <time>2020-11-11T20:54:38Z</time>
      </trkpt>
      <trkpt lat="28.0735180" lon="-16.6914880">
        <ele>267.9</ele>
        <time>2020-11-11T20:54:39Z</time>
      </trkpt>
      <trkpt lat="28.0735180" lon="-16.6914880">
        <ele>265.9</ele>
        <time>2020-11-11T20:54:40Z</time>
      </trkpt>
      <trkpt lat="28.0733320" lon="-16.6916180">
        <ele>265.9</ele>
        <time>2020-11-11T20:54:41Z</time>
      </trkpt>
      <trkpt lat="28.0733320" lon="-16.6916180">
        <ele>264.9</ele>
        <time>2020-11-11T20:54:42Z</time>
      </trkpt>
      <trkpt lat="28.0731370" lon="-16.6917400">
        <ele>264.9</ele>
        <time>2020-11-11T20:54:43Z</time>
      </trkpt>
      <trkpt lat="28.0731370" lon="-16.6917400">
        <ele>263.9</ele>
        <time>2020-11-11T20:54:44Z</time>
      </trkpt>
      <trkpt lat="28.0729400" lon="-16.6918580">
        <ele>263.9</ele>
        <time>2020-11-11T20:54:45Z</time>
      </trkpt>
      <trkpt lat="28.0729400" lon="-16.6918580">
        <ele>262.9</ele>
        <time>2020-11-11T20:54:46Z</time>
      </trkpt>
      <trkpt lat="28.0727420" lon="-16.6919730">
        <ele>262.9</ele>
        <time>2020-11-11T20:54:47Z</time>
      </trkpt>
      <trkpt lat="28.0727420" lon="-16.6919730">
        <ele>261.9</ele>
        <time>2020-11-11T20:54:48Z</time>
      </trkpt>
      <trkpt lat="28.0725500" lon="-16.6921020">
        <ele>261.9</ele>
        <time>2020-11-11T20:54:49Z</time>
      </trkpt>
      <trkpt lat="28.0725500" lon="-16.6921020">
        <ele>260.9</ele>
        <time>2020-11-11T20:54:50Z</time>
      </trkpt>
      <trkpt lat="28.0723700" lon="-16.6922520">
        <ele>260.9</ele>
        <time>2020-11-11T20:54:51Z</time>
      </trkpt>
      <trkpt lat="28.0723700" lon="-16.6922520">
        <ele>258.9</ele>
        <time>2020-11-11T20:54:52Z</time>
      </trkpt>
      <trkpt lat="28.0722170" lon="-16.6924330">
        <ele>258.9</ele>
        <time>2020-11-11T20:54:53Z</time>
      </trkpt>
      <trkpt lat="28.0722170" lon="-16.6924330">
        <ele>257.9</ele>
        <time>2020-11-11T20:54:54Z</time>
      </trkpt>
      <trkpt lat="28.0720880" lon="-16.6926370">
        <ele>257.9</ele>
        <time>2020-11-11T20:54:55Z</time>
      </trkpt>
      <trkpt lat="28.0720330" lon="-16.6927450">
        <ele>256.9</ele>
        <time>2020-11-11T20:54:56Z</time>
      </trkpt>
      <trkpt lat="28.0720330" lon="-16.6927450">
        <ele>256.9</ele>
        <time>2020-11-11T20:54:57Z</time>
      </trkpt>
      <trkpt lat="28.0719520" lon="-16.6929770">
        <ele>254.9</ele>
        <time>2020-11-11T20:54:58Z</time>
      </trkpt>
      <trkpt lat="28.0719520" lon="-16.6929770">
        <ele>254.9</ele>
        <time>2020-11-11T20:54:59Z</time>
      </trkpt>
      <trkpt lat="28.0719200" lon="-16.6932230">
        <ele>253.9</ele>
        <time>2020-11-11T20:55:00Z</time>
      </trkpt>
      <trkpt lat="28.0719200" lon="-16.6932230">
        <ele>253.9</ele>
        <time>2020-11-11T20:55:01Z</time>
      </trkpt>
      <trkpt lat="28.0719250" lon="-16.6934720">
        <ele>252.9</ele>
        <time>2020-11-11T20:55:02Z</time>
      </trkpt>
      <trkpt lat="28.0719250" lon="-16.6934720">
        <ele>252.9</ele>
        <time>2020-11-11T20:55:03Z</time>
      </trkpt>
      <trkpt lat="28.0719580" lon="-16.6937220">
        <ele>251.9</ele>
        <time>2020-11-11T20:55:04Z</time>
      </trkpt>
      <trkpt lat="28.0719580" lon="-16.6937220">
        <ele>251.9</ele>
        <time>2020-11-11T20:55:05Z</time>
      </trkpt>
      <trkpt lat="28.0720020" lon="-16.6939730">
        <ele>250.9</ele>
        <time>2020-11-11T20:55:06Z</time>
      </trkpt>
      <trkpt lat="28.0720020" lon="-16.6939730">
        <ele>250.9</ele>
        <time>2020-11-11T20:55:07Z</time>
      </trkpt>
      <trkpt lat="28.0720530" lon="-16.6942300">
        <ele>248.9</ele>
        <time>2020-11-11T20:55:08Z</time>
      </trkpt>
      <trkpt lat="28.0720530" lon="-16.6942300">
        <ele>247.9</ele>
        <time>2020-11-11T20:55:09Z</time>
      </trkpt>
      <trkpt lat="28.0721150" lon="-16.6944870">
        <ele>247.9</ele>
        <time>2020-11-11T20:55:10Z</time>
      </trkpt>
      <trkpt lat="28.0721150" lon="-16.6944870">
        <ele>247.9</ele>
        <time>2020-11-11T20:55:11Z</time>
      </trkpt>
      <trkpt lat="28.0721770" lon="-16.6947450">
        <ele>245.9</ele>
        <time>2020-11-11T20:55:12Z</time>
      </trkpt>
      <trkpt lat="28.0722080" lon="-16.6948720">
        <ele>245.9</ele>
        <time>2020-11-11T20:55:13Z</time>
      </trkpt>
      <trkpt lat="28.0722080" lon="-16.6948720">
        <ele>243.9</ele>
        <time>2020-11-11T20:55:14Z</time>
      </trkpt>
      <trkpt lat="28.0722720" lon="-16.6951300">
        <ele>243.9</ele>
        <time>2020-11-11T20:55:15Z</time>
      </trkpt>
      <trkpt lat="28.0722720" lon="-16.6951300">
        <ele>242.9</ele>
        <time>2020-11-11T20:55:16Z</time>
      </trkpt>
      <trkpt lat="28.0723250" lon="-16.6953850">
        <ele>240.9</ele>
        <time>2020-11-11T20:55:17Z</time>
      </trkpt>
      <trkpt lat="28.0723250" lon="-16.6953850">
        <ele>240.9</ele>
        <time>2020-11-11T20:55:18Z</time>
      </trkpt>
      <trkpt lat="28.0723720" lon="-16.6956450">
        <ele>238.9</ele>
        <time>2020-11-11T20:55:19Z</time>
      </trkpt>
      <trkpt lat="28.0723720" lon="-16.6956450">
        <ele>238.9</ele>
        <time>2020-11-11T20:55:20Z</time>
      </trkpt>
      <trkpt lat="28.0724120" lon="-16.6959030">
        <ele>236.9</ele>
        <time>2020-11-11T20:55:21Z</time>
      </trkpt>
      <trkpt lat="28.0724120" lon="-16.6959030">
        <ele>236.9</ele>
        <time>2020-11-11T20:55:22Z</time>
      </trkpt>
      <trkpt lat="28.0724250" lon="-16.6961570">
        <ele>235.9</ele>
        <time>2020-11-11T20:55:23Z</time>
      </trkpt>
      <trkpt lat="28.0724250" lon="-16.6961570">
        <ele>235.9</ele>
        <time>2020-11-11T20:55:24Z</time>
      </trkpt>
      <trkpt lat="28.0724070" lon="-16.6964050">
        <ele>233.9</ele>
        <time>2020-11-11T20:55:25Z</time>
      </trkpt>
      <trkpt lat="28.0724070" lon="-16.6964050">
        <ele>233.9</ele>
        <time>2020-11-11T20:55:26Z</time>
      </trkpt>
      <trkpt lat="28.0723500" lon="-16.6966420">
        <ele>232.9</ele>
        <time>2020-11-11T20:55:27Z</time>
      </trkpt>
      <trkpt lat="28.0723500" lon="-16.6966420">
        <ele>232.9</ele>
        <time>2020-11-11T20:55:28Z</time>
      </trkpt>
      <trkpt lat="28.0722620" lon="-16.6968630">
        <ele>231.9</ele>
        <time>2020-11-11T20:55:29Z</time>
      </trkpt>
      <trkpt lat="28.0722620" lon="-16.6968630">
        <ele>231.9</ele>
        <time>2020-11-11T20:55:30Z</time>
      </trkpt>
      <trkpt lat="28.0721580" lon="-16.6970780">
        <ele>229.9</ele>
        <time>2020-11-11T20:55:31Z</time>
      </trkpt>
      <trkpt lat="28.0721580" lon="-16.6970780">
        <ele>229.9</ele>
        <time>2020-11-11T20:55:32Z</time>
      </trkpt>
      <trkpt lat="28.0720420" lon="-16.6972850">
        <ele>228.9</ele>
        <time>2020-11-11T20:55:33Z</time>
      </trkpt>
      <trkpt lat="28.0720420" lon="-16.6972850">
        <ele>228.9</ele>
        <time>2020-11-11T20:55:34Z</time>
      </trkpt>
      <trkpt lat="28.0719220" lon="-16.6974900">
        <ele>226.9</ele>
        <time>2020-11-11T20:55:35Z</time>
      </trkpt>
      <trkpt lat="28.0719220" lon="-16.6974900">
        <ele>226.9</ele>
        <time>2020-11-11T20:55:36Z</time>
      </trkpt>
      <trkpt lat="28.0717980" lon="-16.6977000">
        <ele>225.9</ele>
        <time>2020-11-11T20:55:37Z</time>
      </trkpt>
      <trkpt lat="28.0717980" lon="-16.6977000">
        <ele>225.9</ele>
        <time>2020-11-11T20:55:38Z</time>
      </trkpt>
      <trkpt lat="28.0716770" lon="-16.6979150">
        <ele>223.9</ele>
        <time>2020-11-11T20:55:39Z</time>
      </trkpt>
      <trkpt lat="28.0716770" lon="-16.6979150">
        <ele>223.9</ele>
        <time>2020-11-11T20:55:40Z</time>
      </trkpt>
      <trkpt lat="28.0715480" lon="-16.6981350">
        <ele>222.9</ele>
        <time>2020-11-11T20:55:41Z</time>
      </trkpt>
      <trkpt lat="28.0715480" lon="-16.6981350">
        <ele>222.9</ele>
        <time>2020-11-11T20:55:42Z</time>
      </trkpt>
      <trkpt lat="28.0714180" lon="-16.6983520">
        <ele>220.9</ele>
        <time>2020-11-11T20:55:43Z</time>
      </trkpt>
      <trkpt lat="28.0714180" lon="-16.6983520">
        <ele>220.9</ele>
        <time>2020-11-11T20:55:44Z</time>
      </trkpt>
      <trkpt lat="28.0712880" lon="-16.6985750">
        <ele>218.9</ele>
        <time>2020-11-11T20:55:45Z</time>
      </trkpt>
      <trkpt lat="28.0712880" lon="-16.6985750">
        <ele>218.9</ele>
        <time>2020-11-11T20:55:46Z</time>
      </trkpt>
      <trkpt lat="28.0711580" lon="-16.6987980">
        <ele>217.9</ele>
        <time>2020-11-11T20:55:47Z</time>
      </trkpt>
      <trkpt lat="28.0710930" lon="-16.6989130">
        <ele>217.9</ele>
        <time>2020-11-11T20:55:48Z</time>
      </trkpt>
      <trkpt lat="28.0710930" lon="-16.6989130">
        <ele>215.9</ele>
        <time>2020-11-11T20:55:49Z</time>
      </trkpt>
      <trkpt lat="28.0709650" lon="-16.6991430">
        <ele>215.9</ele>
        <time>2020-11-11T20:55:50Z</time>
      </trkpt>
      <trkpt lat="28.0709650" lon="-16.6991430">
        <ele>213.9</ele>
        <time>2020-11-11T20:55:51Z</time>
      </trkpt>
      <trkpt lat="28.0708380" lon="-16.6993750">
        <ele>213.9</ele>
        <time>2020-11-11T20:55:52Z</time>
      </trkpt>
      <trkpt lat="28.0708380" lon="-16.6993750">
        <ele>212.9</ele>
        <time>2020-11-11T20:55:53Z</time>
      </trkpt>
      <trkpt lat="28.0707180" lon="-16.6996120">
        <ele>212.9</ele>
        <time>2020-11-11T20:55:54Z</time>
      </trkpt>
      <trkpt lat="28.0707180" lon="-16.6996120">
        <ele>210.9</ele>
        <time>2020-11-11T20:55:55Z</time>
      </trkpt>
      <trkpt lat="28.0706130" lon="-16.6998450">
        <ele>209.9</ele>
        <time>2020-11-11T20:55:56Z</time>
      </trkpt>
      <trkpt lat="28.0706130" lon="-16.6998450">
        <ele>209.9</ele>
        <time>2020-11-11T20:55:57Z</time>
      </trkpt>
      <trkpt lat="28.0705270" lon="-16.7000800">
        <ele>207.9</ele>
        <time>2020-11-11T20:55:58Z</time>
      </trkpt>
      <trkpt lat="28.0705270" lon="-16.7000800">
        <ele>207.9</ele>
        <time>2020-11-11T20:55:59Z</time>
      </trkpt>
      <trkpt lat="28.0704430" lon="-16.7003200">
        <ele>206.9</ele>
        <time>2020-11-11T20:56:00Z</time>
      </trkpt>
      <trkpt lat="28.0704430" lon="-16.7003200">
        <ele>206.9</ele>
        <time>2020-11-11T20:56:01Z</time>
      </trkpt>
      <trkpt lat="28.0703830" lon="-16.7005770">
        <ele>204.9</ele>
        <time>2020-11-11T20:56:02Z</time>
      </trkpt>
      <trkpt lat="28.0703830" lon="-16.7005770">
        <ele>204.9</ele>
        <time>2020-11-11T20:56:03Z</time>
      </trkpt>
      <trkpt lat="28.0703370" lon="-16.7008420">
        <ele>203.9</ele>
        <time>2020-11-11T20:56:04Z</time>
      </trkpt>
      <trkpt lat="28.0703370" lon="-16.7008420">
        <ele>203.9</ele>
        <time>2020-11-11T20:56:05Z</time>
      </trkpt>
      <trkpt lat="28.0702950" lon="-16.7011130">
        <ele>201.9</ele>
        <time>2020-11-11T20:56:06Z</time>
      </trkpt>
      <trkpt lat="28.0702780" lon="-16.7012530">
        <ele>201.9</ele>
        <time>2020-11-11T20:56:07Z</time>
      </trkpt>
      <trkpt lat="28.0702780" lon="-16.7012530">
        <ele>199.9</ele>
        <time>2020-11-11T20:56:08Z</time>
      </trkpt>
      <trkpt lat="28.0702670" lon="-16.7015380">
        <ele>199.9</ele>
        <time>2020-11-11T20:56:09Z</time>
      </trkpt>
      <trkpt lat="28.0702670" lon="-16.7015380">
        <ele>197.9</ele>
        <time>2020-11-11T20:56:10Z</time>
      </trkpt>
      <trkpt lat="28.0702750" lon="-16.7018270">
        <ele>197.9</ele>
        <time>2020-11-11T20:56:11Z</time>
      </trkpt>
      <trkpt lat="28.0702750" lon="-16.7018270">
        <ele>196.9</ele>
        <time>2020-11-11T20:56:12Z</time>
      </trkpt>
      <trkpt lat="28.0702930" lon="-16.7021150">
        <ele>196.9</ele>
        <time>2020-11-11T20:56:13Z</time>
      </trkpt>
      <trkpt lat="28.0702930" lon="-16.7021150">
        <ele>194.9</ele>
        <time>2020-11-11T20:56:14Z</time>
      </trkpt>
      <trkpt lat="28.0703230" lon="-16.7024000">
        <ele>194.9</ele>
        <time>2020-11-11T20:56:15Z</time>
      </trkpt>
      <trkpt lat="28.0703230" lon="-16.7024000">
        <ele>192.9</ele>
        <time>2020-11-11T20:56:16Z</time>
      </trkpt>
      <trkpt lat="28.0703680" lon="-16.7026830">
        <ele>192.9</ele>
        <time>2020-11-11T20:56:17Z</time>
      </trkpt>
      <trkpt lat="28.0703680" lon="-16.7026830">
        <ele>191.9</ele>
        <time>2020-11-11T20:56:18Z</time>
      </trkpt>
      <trkpt lat="28.0704220" lon="-16.7029650">
        <ele>191.9</ele>
        <time>2020-11-11T20:56:19Z</time>
      </trkpt>
      <trkpt lat="28.0704220" lon="-16.7029650">
        <ele>190.9</ele>
        <time>2020-11-11T20:56:20Z</time>
      </trkpt>
      <trkpt lat="28.0704770" lon="-16.7032450">
        <ele>190.9</ele>
        <time>2020-11-11T20:56:21Z</time>
      </trkpt>
      <trkpt lat="28.0705030" lon="-16.7033830">
        <ele>188.9</ele>
        <time>2020-11-11T20:56:22Z</time>
      </trkpt>
      <trkpt lat="28.0705030" lon="-16.7033830">
        <ele>188.9</ele>
        <time>2020-11-11T20:56:23Z</time>
      </trkpt>
      <trkpt lat="28.0705580" lon="-16.7036580">
        <ele>187.9</ele>
        <time>2020-11-11T20:56:24Z</time>
      </trkpt>
      <trkpt lat="28.0705580" lon="-16.7036580">
        <ele>187.9</ele>
        <time>2020-11-11T20:56:25Z</time>
      </trkpt>
      <trkpt lat="28.0706170" lon="-16.7039320">
        <ele>185.9</ele>
        <time>2020-11-11T20:56:26Z</time>
      </trkpt>
      <trkpt lat="28.0706170" lon="-16.7039320">
        <ele>185.9</ele>
        <time>2020-11-11T20:56:27Z</time>
      </trkpt>
      <trkpt lat="28.0706730" lon="-16.7042030">
        <ele>184.9</ele>
        <time>2020-11-11T20:56:28Z</time>
      </trkpt>
      <trkpt lat="28.0706730" lon="-16.7042030">
        <ele>184.9</ele>
        <time>2020-11-11T20:56:29Z</time>
      </trkpt>
      <trkpt lat="28.0707250" lon="-16.7044720">
        <ele>183.9</ele>
        <time>2020-11-11T20:56:30Z</time>
      </trkpt>
      <trkpt lat="28.0707500" lon="-16.7046050">
        <ele>183.9</ele>
        <time>2020-11-11T20:56:31Z</time>
      </trkpt>
      <trkpt lat="28.0707500" lon="-16.7046050">
        <ele>181.9</ele>
        <time>2020-11-11T20:56:32Z</time>
      </trkpt>
      <trkpt lat="28.0707880" lon="-16.7048680">
        <ele>180.9</ele>
        <time>2020-11-11T20:56:33Z</time>
      </trkpt>
      <trkpt lat="28.0707970" lon="-16.7050020">
        <ele>180.9</ele>
        <time>2020-11-11T20:56:34Z</time>
      </trkpt>
      <trkpt lat="28.0707970" lon="-16.7050020">
        <ele>179.9</ele>
        <time>2020-11-11T20:56:35Z</time>
      </trkpt>
      <trkpt lat="28.0708030" lon="-16.7052680">
        <ele>179.9</ele>
        <time>2020-11-11T20:56:36Z</time>
      </trkpt>
      <trkpt lat="28.0708030" lon="-16.7052680">
        <ele>177.9</ele>
        <time>2020-11-11T20:56:37Z</time>
      </trkpt>
      <trkpt lat="28.0707880" lon="-16.7055330">
        <ele>177.9</ele>
        <time>2020-11-11T20:56:38Z</time>
      </trkpt>
      <trkpt lat="28.0707880" lon="-16.7055330">
        <ele>175.9</ele>
        <time>2020-11-11T20:56:39Z</time>
      </trkpt>
      <trkpt lat="28.0707520" lon="-16.7057920">
        <ele>175.9</ele>
        <time>2020-11-11T20:56:40Z</time>
      </trkpt>
      <trkpt lat="28.0707520" lon="-16.7057920">
        <ele>174.9</ele>
        <time>2020-11-11T20:56:41Z</time>
      </trkpt>
      <trkpt lat="28.0706930" lon="-16.7060450">
        <ele>174.9</ele>
        <time>2020-11-11T20:56:42Z</time>
      </trkpt>
      <trkpt lat="28.0706580" lon="-16.7061720">
        <ele>172.9</ele>
        <time>2020-11-11T20:56:43Z</time>
      </trkpt>
      <trkpt lat="28.0706580" lon="-16.7061720">
        <ele>172.9</ele>
        <time>2020-11-11T20:56:44Z</time>
      </trkpt>
      <trkpt lat="28.0705820" lon="-16.7064200">
        <ele>170.9</ele>
        <time>2020-11-11T20:56:45Z</time>
      </trkpt>
      <trkpt lat="28.0705820" lon="-16.7064200">
        <ele>170.9</ele>
        <time>2020-11-11T20:56:46Z</time>
      </trkpt>
      <trkpt lat="28.0704980" lon="-16.7066700">
        <ele>169.9</ele>
        <time>2020-11-11T20:56:47Z</time>
      </trkpt>
      <trkpt lat="28.0704570" lon="-16.7067950">
        <ele>169.9</ele>
        <time>2020-11-11T20:56:48Z</time>
      </trkpt>
      <trkpt lat="28.0704570" lon="-16.7067950">
        <ele>167.9</ele>
        <time>2020-11-11T20:56:49Z</time>
      </trkpt>
      <trkpt lat="28.0703730" lon="-16.7070430">
        <ele>167.9</ele>
        <time>2020-11-11T20:56:50Z</time>
      </trkpt>
      <trkpt lat="28.0703730" lon="-16.7070430">
        <ele>166.9</ele>
        <time>2020-11-11T20:56:51Z</time>
      </trkpt>
      <trkpt lat="28.0703000" lon="-16.7072970">
        <ele>166.9</ele>
        <time>2020-11-11T20:56:52Z</time>
      </trkpt>
      <trkpt lat="28.0703000" lon="-16.7072970">
        <ele>164.9</ele>
        <time>2020-11-11T20:56:53Z</time>
      </trkpt>
      <trkpt lat="28.0702450" lon="-16.7075570">
        <ele>164.9</ele>
        <time>2020-11-11T20:56:54Z</time>
      </trkpt>
      <trkpt lat="28.0702450" lon="-16.7075570">
        <ele>163.9</ele>
        <time>2020-11-11T20:56:55Z</time>
      </trkpt>
      <trkpt lat="28.0702130" lon="-16.7078250">
        <ele>163.9</ele>
        <time>2020-11-11T20:56:56Z</time>
      </trkpt>
      <trkpt lat="28.0702130" lon="-16.7078250">
        <ele>161.9</ele>
        <time>2020-11-11T20:56:57Z</time>
      </trkpt>
      <trkpt lat="28.0701980" lon="-16.7080950">
        <ele>161.9</ele>
        <time>2020-11-11T20:56:58Z</time>
      </trkpt>
      <trkpt lat="28.0701950" lon="-16.7082280">
        <ele>160.9</ele>
        <time>2020-11-11T20:56:59Z</time>
      </trkpt>
      <trkpt lat="28.0701950" lon="-16.7082280">
        <ele>160.9</ele>
        <time>2020-11-11T20:57:00Z</time>
      </trkpt>
      <trkpt lat="28.0701920" lon="-16.7084970">
        <ele>159.9</ele>
        <time>2020-11-11T20:57:01Z</time>
      </trkpt>
      <trkpt lat="28.0701920" lon="-16.7084970">
        <ele>159.9</ele>
        <time>2020-11-11T20:57:02Z</time>
      </trkpt>
      <trkpt lat="28.0701920" lon="-16.7087650">
        <ele>157.9</ele>
        <time>2020-11-11T20:57:03Z</time>
      </trkpt>
      <trkpt lat="28.0701920" lon="-16.7087650">
        <ele>157.9</ele>
        <time>2020-11-11T20:57:04Z</time>
      </trkpt>
      <trkpt lat="28.0701900" lon="-16.7090320">
        <ele>156.9</ele>
        <time>2020-11-11T20:57:05Z</time>
      </trkpt>
      <trkpt lat="28.0701900" lon="-16.7090320">
        <ele>156.9</ele>
        <time>2020-11-11T20:57:06Z</time>
      </trkpt>
      <trkpt lat="28.0701880" lon="-16.7093000">
        <ele>154.9</ele>
        <time>2020-11-11T20:57:07Z</time>
      </trkpt>
      <trkpt lat="28.0701880" lon="-16.7093000">
        <ele>154.9</ele>
        <time>2020-11-11T20:57:08Z</time>
      </trkpt>
      <trkpt lat="28.0701870" lon="-16.7095650">
        <ele>153.9</ele>
        <time>2020-11-11T20:57:09Z</time>
      </trkpt>
      <trkpt lat="28.0701870" lon="-16.7095650">
        <ele>153.9</ele>
        <time>2020-11-11T20:57:10Z</time>
      </trkpt>
      <trkpt lat="28.0701850" lon="-16.7098330">
        <ele>151.9</ele>
        <time>2020-11-11T20:57:11Z</time>
      </trkpt>
      <trkpt lat="28.0701850" lon="-16.7098330">
        <ele>150.9</ele>
        <time>2020-11-11T20:57:12Z</time>
      </trkpt>
      <trkpt lat="28.0701820" lon="-16.7101020">
        <ele>150.9</ele>
        <time>2020-11-11T20:57:13Z</time>
      </trkpt>
      <trkpt lat="28.0701820" lon="-16.7101020">
        <ele>148.9</ele>
        <time>2020-11-11T20:57:14Z</time>
      </trkpt>
      <trkpt lat="28.0701750" lon="-16.7103750">
        <ele>148.9</ele>
        <time>2020-11-11T20:57:15Z</time>
      </trkpt>
      <trkpt lat="28.0701750" lon="-16.7103750">
        <ele>147.9</ele>
        <time>2020-11-11T20:57:16Z</time>
      </trkpt>
      <trkpt lat="28.0701500" lon="-16.7106500">
        <ele>147.9</ele>
        <time>2020-11-11T20:57:17Z</time>
      </trkpt>
      <trkpt lat="28.0701500" lon="-16.7106500">
        <ele>146.9</ele>
        <time>2020-11-11T20:57:18Z</time>
      </trkpt>
      <trkpt lat="28.0701030" lon="-16.7109280">
        <ele>146.9</ele>
        <time>2020-11-11T20:57:19Z</time>
      </trkpt>
      <trkpt lat="28.0701030" lon="-16.7109280">
        <ele>144.9</ele>
        <time>2020-11-11T20:57:20Z</time>
      </trkpt>
      <trkpt lat="28.0700350" lon="-16.7112020">
        <ele>144.9</ele>
        <time>2020-11-11T20:57:21Z</time>
      </trkpt>
      <trkpt lat="28.0700350" lon="-16.7112020">
        <ele>142.9</ele>
        <time>2020-11-11T20:57:22Z</time>
      </trkpt>
      <trkpt lat="28.0699430" lon="-16.7114670">
        <ele>142.9</ele>
        <time>2020-11-11T20:57:23Z</time>
      </trkpt>
      <trkpt lat="28.0699430" lon="-16.7114670">
        <ele>141.9</ele>
        <time>2020-11-11T20:57:24Z</time>
      </trkpt>
      <trkpt lat="28.0698280" lon="-16.7117180">
        <ele>141.9</ele>
        <time>2020-11-11T20:57:25Z</time>
      </trkpt>
      <trkpt lat="28.0698280" lon="-16.7117180">
        <ele>139.9</ele>
        <time>2020-11-11T20:57:26Z</time>
      </trkpt>
      <trkpt lat="28.0696920" lon="-16.7119580">
        <ele>139.9</ele>
        <time>2020-11-11T20:57:27Z</time>
      </trkpt>
      <trkpt lat="28.0696170" lon="-16.7120700">
        <ele>138.9</ele>
        <time>2020-11-11T20:57:28Z</time>
      </trkpt>
      <trkpt lat="28.0696170" lon="-16.7120700">
        <ele>138.9</ele>
        <time>2020-11-11T20:57:29Z</time>
      </trkpt>
      <trkpt lat="28.0694520" lon="-16.7122800">
        <ele>136.9</ele>
        <time>2020-11-11T20:57:30Z</time>
      </trkpt>
      <trkpt lat="28.0694520" lon="-16.7122800">
        <ele>136.9</ele>
        <time>2020-11-11T20:57:31Z</time>
      </trkpt>
      <trkpt lat="28.0692700" lon="-16.7124680">
        <ele>135.9</ele>
        <time>2020-11-11T20:57:32Z</time>
      </trkpt>
      <trkpt lat="28.0692700" lon="-16.7124680">
        <ele>135.9</ele>
        <time>2020-11-11T20:57:33Z</time>
      </trkpt>
      <trkpt lat="28.0690730" lon="-16.7126350">
        <ele>133.9</ele>
        <time>2020-11-11T20:57:34Z</time>
      </trkpt>
      <trkpt lat="28.0690730" lon="-16.7126350">
        <ele>133.9</ele>
        <time>2020-11-11T20:57:35Z</time>
      </trkpt>
      <trkpt lat="28.0688620" lon="-16.7127800">
        <ele>131.9</ele>
        <time>2020-11-11T20:57:36Z</time>
      </trkpt>
      <trkpt lat="28.0688620" lon="-16.7127800">
        <ele>131.9</ele>
        <time>2020-11-11T20:57:37Z</time>
      </trkpt>
      <trkpt lat="28.0686400" lon="-16.7129020">
        <ele>129.9</ele>
        <time>2020-11-11T20:57:38Z</time>
      </trkpt>
      <trkpt lat="28.0686400" lon="-16.7129020">
        <ele>129.9</ele>
        <time>2020-11-11T20:57:39Z</time>
      </trkpt>
      <trkpt lat="28.0684080" lon="-16.7129980">
        <ele>127.9</ele>
        <time>2020-11-11T20:57:40Z</time>
      </trkpt>
      <trkpt lat="28.0684080" lon="-16.7129980">
        <ele>125.9</ele>
        <time>2020-11-11T20:57:41Z</time>
      </trkpt>
      <trkpt lat="28.0681720" lon="-16.7130650">
        <ele>125.9</ele>
        <time>2020-11-11T20:57:42Z</time>
      </trkpt>
      <trkpt lat="28.0681720" lon="-16.7130650">
        <ele>125.9</ele>
        <time>2020-11-11T20:57:43Z</time>
      </trkpt>
      <trkpt lat="28.0679300" lon="-16.7131070">
        <ele>123.9</ele>
        <time>2020-11-11T20:57:44Z</time>
      </trkpt>
      <trkpt lat="28.0679300" lon="-16.7131070">
        <ele>123.9</ele>
        <time>2020-11-11T20:57:45Z</time>
      </trkpt>
      <trkpt lat="28.0676870" lon="-16.7131250">
        <ele>122.9</ele>
        <time>2020-11-11T20:57:46Z</time>
      </trkpt>
      <trkpt lat="28.0675670" lon="-16.7131270">
        <ele>120.9</ele>
        <time>2020-11-11T20:57:47Z</time>
      </trkpt>
      <trkpt lat="28.0675670" lon="-16.7131270">
        <ele>120.9</ele>
        <time>2020-11-11T20:57:48Z</time>
      </trkpt>
      <trkpt lat="28.0673270" lon="-16.7131070">
        <ele>119.9</ele>
        <time>2020-11-11T20:57:49Z</time>
      </trkpt>
      <trkpt lat="28.0673270" lon="-16.7131070">
        <ele>119.9</ele>
        <time>2020-11-11T20:57:50Z</time>
      </trkpt>
      <trkpt lat="28.0670930" lon="-16.7130630">
        <ele>117.9</ele>
        <time>2020-11-11T20:57:51Z</time>
      </trkpt>
      <trkpt lat="28.0670930" lon="-16.7130630">
        <ele>117.9</ele>
        <time>2020-11-11T20:57:52Z</time>
      </trkpt>
      <trkpt lat="28.0668700" lon="-16.7129950">
        <ele>115.9</ele>
        <time>2020-11-11T20:57:53Z</time>
      </trkpt>
      <trkpt lat="28.0668700" lon="-16.7129950">
        <ele>115.9</ele>
        <time>2020-11-11T20:57:54Z</time>
      </trkpt>
      <trkpt lat="28.0666570" lon="-16.7129080">
        <ele>113.9</ele>
        <time>2020-11-11T20:57:55Z</time>
      </trkpt>
      <trkpt lat="28.0666570" lon="-16.7129080">
        <ele>113.9</ele>
        <time>2020-11-11T20:57:56Z</time>
      </trkpt>
      <trkpt lat="28.0664530" lon="-16.7127980">
        <ele>111.9</ele>
        <time>2020-11-11T20:57:57Z</time>
      </trkpt>
      <trkpt lat="28.0664530" lon="-16.7127980">
        <ele>111.9</ele>
        <time>2020-11-11T20:57:58Z</time>
      </trkpt>
      <trkpt lat="28.0662650" lon="-16.7126720">
        <ele>109.9</ele>
        <time>2020-11-11T20:57:59Z</time>
      </trkpt>
      <trkpt lat="28.0662650" lon="-16.7126720">
        <ele>109.9</ele>
        <time>2020-11-11T20:58:00Z</time>
      </trkpt>
      <trkpt lat="28.0660850" lon="-16.7125370">
        <ele>108.9</ele>
        <time>2020-11-11T20:58:01Z</time>
      </trkpt>
      <trkpt lat="28.0660850" lon="-16.7125370">
        <ele>108.9</ele>
        <time>2020-11-11T20:58:02Z</time>
      </trkpt>
      <trkpt lat="28.0659170" lon="-16.7123950">
        <ele>106.9</ele>
        <time>2020-11-11T20:58:03Z</time>
      </trkpt>
      <trkpt lat="28.0659170" lon="-16.7123950">
        <ele>106.9</ele>
        <time>2020-11-11T20:58:04Z</time>
      </trkpt>
      <trkpt lat="28.0657580" lon="-16.7122470">
        <ele>105.9</ele>
        <time>2020-11-11T20:58:05Z</time>
      </trkpt>
      <trkpt lat="28.0657580" lon="-16.7122470">
        <ele>105.9</ele>
        <time>2020-11-11T20:58:06Z</time>
      </trkpt>
      <trkpt lat="28.0656150" lon="-16.7120930">
        <ele>103.9</ele>
        <time>2020-11-11T20:58:07Z</time>
      </trkpt>
      <trkpt lat="28.0656150" lon="-16.7120930">
        <ele>103.9</ele>
        <time>2020-11-11T20:58:08Z</time>
      </trkpt>
      <trkpt lat="28.0654930" lon="-16.7119300">
        <ele>102.9</ele>
        <time>2020-11-11T20:58:09Z</time>
      </trkpt>
      <trkpt lat="28.0654930" lon="-16.7119300">
        <ele>102.9</ele>
        <time>2020-11-11T20:58:10Z</time>
      </trkpt>
      <trkpt lat="28.0653920" lon="-16.7117780">
        <ele>101.9</ele>
        <time>2020-11-11T20:58:11Z</time>
      </trkpt>
      <trkpt lat="28.0653920" lon="-16.7117780">
        <ele>101.9</ele>
        <time>2020-11-11T20:58:12Z</time>
      </trkpt>
      <trkpt lat="28.0653080" lon="-16.7116430">
        <ele>99.9</ele>
        <time>2020-11-11T20:58:13Z</time>
      </trkpt>
      <trkpt lat="28.0653080" lon="-16.7116430">
        <ele>99.9</ele>
        <time>2020-11-11T20:58:14Z</time>
      </trkpt>
      <trkpt lat="28.0652200" lon="-16.7115130">
        <ele>98.9</ele>
        <time>2020-11-11T20:58:15Z</time>
      </trkpt>
      <trkpt lat="28.0652200" lon="-16.7115130">
        <ele>98.9</ele>
        <time>2020-11-11T20:58:16Z</time>
      </trkpt>
      <trkpt lat="28.0651220" lon="-16.7113650">
        <ele>97.9</ele>
        <time>2020-11-11T20:58:17Z</time>
      </trkpt>
      <trkpt lat="28.0651220" lon="-16.7113650">
        <ele>97.9</ele>
        <time>2020-11-11T20:58:18Z</time>
      </trkpt>
      <trkpt lat="28.0650170" lon="-16.7112150">
        <ele>96.9</ele>
        <time>2020-11-11T20:58:19Z</time>
      </trkpt>
      <trkpt lat="28.0650170" lon="-16.7112150">
        <ele>96.9</ele>
        <time>2020-11-11T20:58:20Z</time>
      </trkpt>
      <trkpt lat="28.0648920" lon="-16.7110770">
        <ele>95.9</ele>
        <time>2020-11-11T20:58:21Z</time>
      </trkpt>
      <trkpt lat="28.0648920" lon="-16.7110770">
        <ele>95.9</ele>
        <time>2020-11-11T20:58:22Z</time>
      </trkpt>
      <trkpt lat="28.0647430" lon="-16.7109700">
        <ele>93.9</ele>
        <time>2020-11-11T20:58:23Z</time>
      </trkpt>
      <trkpt lat="28.0647430" lon="-16.7109700">
        <ele>93.9</ele>
        <time>2020-11-11T20:58:24Z</time>
      </trkpt>
      <trkpt lat="28.0645650" lon="-16.7108900">
        <ele>92.9</ele>
        <time>2020-11-11T20:58:25Z</time>
      </trkpt>
      <trkpt lat="28.0645650" lon="-16.7108900">
        <ele>92.9</ele>
        <time>2020-11-11T20:58:26Z</time>
      </trkpt>
      <trkpt lat="28.0643600" lon="-16.7108400">
        <ele>91.9</ele>
        <time>2020-11-11T20:58:27Z</time>
      </trkpt>
      <trkpt lat="28.0642600" lon="-16.7108230">
        <ele>89.9</ele>
        <time>2020-11-11T20:58:28Z</time>
      </trkpt>
      <trkpt lat="28.0642600" lon="-16.7108230">
        <ele>89.9</ele>
        <time>2020-11-11T20:58:29Z</time>
      </trkpt>
      <trkpt lat="28.0640900" lon="-16.7108420">
        <ele>88.9</ele>
        <time>2020-11-11T20:58:30Z</time>
      </trkpt>
      <trkpt lat="28.0640150" lon="-16.7108630">
        <ele>88.9</ele>
        <time>2020-11-11T20:58:31Z</time>
      </trkpt>
      <trkpt lat="28.0640150" lon="-16.7108630">
        <ele>86.9</ele>
        <time>2020-11-11T20:58:32Z</time>
      </trkpt>
      <trkpt lat="28.0638930" lon="-16.7109380">
        <ele>86.9</ele>
        <time>2020-11-11T20:58:33Z</time>
      </trkpt>
      <trkpt lat="28.0638930" lon="-16.7109380">
        <ele>84.9</ele>
        <time>2020-11-11T20:58:34Z</time>
      </trkpt>
      <trkpt lat="28.0637970" lon="-16.7110600">
        <ele>84.9</ele>
        <time>2020-11-11T20:58:35Z</time>
      </trkpt>
      <trkpt lat="28.0637970" lon="-16.7110600">
        <ele>82.9</ele>
        <time>2020-11-11T20:58:36Z</time>
      </trkpt>
      <trkpt lat="28.0637170" lon="-16.7111950">
        <ele>82.9</ele>
        <time>2020-11-11T20:58:37Z</time>
      </trkpt>
      <trkpt lat="28.0637170" lon="-16.7111950">
        <ele>80.9</ele>
        <time>2020-11-11T20:58:38Z</time>
      </trkpt>
      <trkpt lat="28.0635970" lon="-16.7112630">
        <ele>80.9</ele>
        <time>2020-11-11T20:58:39Z</time>
      </trkpt>
      <trkpt lat="28.0635970" lon="-16.7112630">
        <ele>79.9</ele>
        <time>2020-11-11T20:58:40Z</time>
      </trkpt>
      <trkpt lat="28.0634500" lon="-16.7112670">
        <ele>79.9</ele>
        <time>2020-11-11T20:58:41Z</time>
      </trkpt>
      <trkpt lat="28.0634500" lon="-16.7112670">
        <ele>78.9</ele>
        <time>2020-11-11T20:58:42Z</time>
      </trkpt>
      <trkpt lat="28.0632970" lon="-16.7112500">
        <ele>78.9</ele>
        <time>2020-11-11T20:58:43Z</time>
      </trkpt>
      <trkpt lat="28.0632970" lon="-16.7112500">
        <ele>77.9</ele>
        <time>2020-11-11T20:58:44Z</time>
      </trkpt>
      <trkpt lat="28.0631420" lon="-16.7112400">
        <ele>77.9</ele>
        <time>2020-11-11T20:58:45Z</time>
      </trkpt>
      <trkpt lat="28.0631420" lon="-16.7112400">
        <ele>76.9</ele>
        <time>2020-11-11T20:58:46Z</time>
      </trkpt>
      <trkpt lat="28.0629920" lon="-16.7112250">
        <ele>76.9</ele>
        <time>2020-11-11T20:58:47Z</time>
      </trkpt>
      <trkpt lat="28.0629920" lon="-16.7112250">
        <ele>75.9</ele>
        <time>2020-11-11T20:58:48Z</time>
      </trkpt>
      <trkpt lat="28.0628500" lon="-16.7111900">
        <ele>75.9</ele>
        <time>2020-11-11T20:58:49Z</time>
      </trkpt>
      <trkpt lat="28.0628500" lon="-16.7111900">
        <ele>74.9</ele>
        <time>2020-11-11T20:58:50Z</time>
      </trkpt>
      <trkpt lat="28.0627220" lon="-16.7111400">
        <ele>74.9</ele>
        <time>2020-11-11T20:58:51Z</time>
      </trkpt>
      <trkpt lat="28.0627220" lon="-16.7111400">
        <ele>74.9</ele>
        <time>2020-11-11T20:58:52Z</time>
      </trkpt>
      <trkpt lat="28.0625880" lon="-16.7111120">
        <ele>74.9</ele>
        <time>2020-11-11T20:58:53Z</time>
      </trkpt>
      <trkpt lat="28.0625880" lon="-16.7111120">
        <ele>73.9</ele>
        <time>2020-11-11T20:58:54Z</time>
      </trkpt>
      <trkpt lat="28.0624470" lon="-16.7111180">
        <ele>73.9</ele>
        <time>2020-11-11T20:58:55Z</time>
      </trkpt>
      <trkpt lat="28.0624470" lon="-16.7111180">
        <ele>73.9</ele>
        <time>2020-11-11T20:58:56Z</time>
      </trkpt>
      <trkpt lat="28.0622950" lon="-16.7111380">
        <ele>73.9</ele>
        <time>2020-11-11T20:58:57Z</time>
      </trkpt>
      <trkpt lat="28.0622950" lon="-16.7111380">
        <ele>71.9</ele>
        <time>2020-11-11T20:58:58Z</time>
      </trkpt>
      <trkpt lat="28.0621350" lon="-16.7111480">
        <ele>71.9</ele>
        <time>2020-11-11T20:58:59Z</time>
      </trkpt>
      <trkpt lat="28.0621350" lon="-16.7111480">
        <ele>71.9</ele>
        <time>2020-11-11T20:59:00Z</time>
      </trkpt>
      <trkpt lat="28.0619680" lon="-16.7111600">
        <ele>71.9</ele>
        <time>2020-11-11T20:59:01Z</time>
      </trkpt>
      <trkpt lat="28.0619680" lon="-16.7111600">
        <ele>70.9</ele>
        <time>2020-11-11T20:59:02Z</time>
      </trkpt>
      <trkpt lat="28.0617970" lon="-16.7111780">
        <ele>70.9</ele>
        <time>2020-11-11T20:59:03Z</time>
      </trkpt>
      <trkpt lat="28.0617970" lon="-16.7111780">
        <ele>69.9</ele>
        <time>2020-11-11T20:59:04Z</time>
      </trkpt>
      <trkpt lat="28.0616230" lon="-16.7111920">
        <ele>68.9</ele>
        <time>2020-11-11T20:59:05Z</time>
      </trkpt>
      <trkpt lat="28.0616230" lon="-16.7111920">
        <ele>68.9</ele>
        <time>2020-11-11T20:59:06Z</time>
      </trkpt>
      <trkpt lat="28.0614430" lon="-16.7112030">
        <ele>67.9</ele>
        <time>2020-11-11T20:59:07Z</time>
      </trkpt>
      <trkpt lat="28.0614430" lon="-16.7112030">
        <ele>67.9</ele>
        <time>2020-11-11T20:59:08Z</time>
      </trkpt>
      <trkpt lat="28.0612580" lon="-16.7112170">
        <ele>66.9</ele>
        <time>2020-11-11T20:59:09Z</time>
      </trkpt>
      <trkpt lat="28.0612580" lon="-16.7112170">
        <ele>66.9</ele>
        <time>2020-11-11T20:59:10Z</time>
      </trkpt>
      <trkpt lat="28.0610700" lon="-16.7112180">
        <ele>64.9</ele>
        <time>2020-11-11T20:59:11Z</time>
      </trkpt>
      <trkpt lat="28.0610700" lon="-16.7112180">
        <ele>64.9</ele>
        <time>2020-11-11T20:59:12Z</time>
      </trkpt>
      <trkpt lat="28.0608800" lon="-16.7112000">
        <ele>63.9</ele>
        <time>2020-11-11T20:59:13Z</time>
      </trkpt>
      <trkpt lat="28.0608800" lon="-16.7112000">
        <ele>63.9</ele>
        <time>2020-11-11T20:59:14Z</time>
      </trkpt>
      <trkpt lat="28.0606880" lon="-16.7111650">
        <ele>62.9</ele>
        <time>2020-11-11T20:59:15Z</time>
      </trkpt>
      <trkpt lat="28.0606880" lon="-16.7111650">
        <ele>62.9</ele>
        <time>2020-11-11T20:59:16Z</time>
      </trkpt>
      <trkpt lat="28.0604950" lon="-16.7111250">
        <ele>60.9</ele>
        <time>2020-11-11T20:59:17Z</time>
      </trkpt>
      <trkpt lat="28.0604950" lon="-16.7111250">
        <ele>60.9</ele>
        <time>2020-11-11T20:59:18Z</time>
      </trkpt>
      <trkpt lat="28.0602980" lon="-16.7110830">
        <ele>59.9</ele>
        <time>2020-11-11T20:59:19Z</time>
      </trkpt>
      <trkpt lat="28.0602980" lon="-16.7110830">
        <ele>59.9</ele>
        <time>2020-11-11T20:59:20Z</time>
      </trkpt>
      <trkpt lat="28.0601030" lon="-16.7110400">
        <ele>58.9</ele>
        <time>2020-11-11T20:59:21Z</time>
      </trkpt>
      <trkpt lat="28.0601030" lon="-16.7110400">
        <ele>58.9</ele>
        <time>2020-11-11T20:59:22Z</time>
      </trkpt>
      <trkpt lat="28.0599020" lon="-16.7110080">
        <ele>57.9</ele>
        <time>2020-11-11T20:59:23Z</time>
      </trkpt>
      <trkpt lat="28.0599020" lon="-16.7110080">
        <ele>57.9</ele>
        <time>2020-11-11T20:59:24Z</time>
      </trkpt>
      <trkpt lat="28.0597030" lon="-16.7109930">
        <ele>53.9</ele>
        <time>2020-11-11T20:59:25Z</time>
      </trkpt>
      <trkpt lat="28.0597030" lon="-16.7109930">
        <ele>53.9</ele>
        <time>2020-11-11T20:59:26Z</time>
      </trkpt>
      <trkpt lat="28.0595000" lon="-16.7109970">
        <ele>53.9</ele>
        <time>2020-11-11T20:59:27Z</time>
      </trkpt>
      <trkpt lat="28.0593930" lon="-16.7110100">
        <ele>53.9</ele>
        <time>2020-11-11T20:59:28Z</time>
      </trkpt>
      <trkpt lat="28.0593930" lon="-16.7110100">
        <ele>51.9</ele>
        <time>2020-11-11T20:59:29Z</time>
      </trkpt>
      <trkpt lat="28.0591780" lon="-16.7110520">
        <ele>51.9</ele>
        <time>2020-11-11T20:59:30Z</time>
      </trkpt>
      <trkpt lat="28.0591780" lon="-16.7110520">
        <ele>49.9</ele>
        <time>2020-11-11T20:59:31Z</time>
      </trkpt>
      <trkpt lat="28.0589570" lon="-16.7111100">
        <ele>49.9</ele>
        <time>2020-11-11T20:59:32Z</time>
      </trkpt>
      <trkpt lat="28.0589570" lon="-16.7111100">
        <ele>48.9</ele>
        <time>2020-11-11T20:59:33Z</time>
      </trkpt>
      <trkpt lat="28.0587270" lon="-16.7111750">
        <ele>48.9</ele>
        <time>2020-11-11T20:59:34Z</time>
      </trkpt>
      <trkpt lat="28.0587270" lon="-16.7111750">
        <ele>46.9</ele>
        <time>2020-11-11T20:59:35Z</time>
      </trkpt>
      <trkpt lat="28.0584970" lon="-16.7112450">
        <ele>46.9</ele>
        <time>2020-11-11T20:59:36Z</time>
      </trkpt>
      <trkpt lat="28.0583820" lon="-16.7112780">
        <ele>44.9</ele>
        <time>2020-11-11T20:59:37Z</time>
      </trkpt>
      <trkpt lat="28.0583820" lon="-16.7112780">
        <ele>44.9</ele>
        <time>2020-11-11T20:59:38Z</time>
      </trkpt>
      <trkpt lat="28.0581520" lon="-16.7113450">
        <ele>42.9</ele>
        <time>2020-11-11T20:59:39Z</time>
      </trkpt>
      <trkpt lat="28.0581520" lon="-16.7113450">
        <ele>42.9</ele>
        <time>2020-11-11T20:59:40Z</time>
      </trkpt>
      <trkpt lat="28.0579230" lon="-16.7114120">
        <ele>41.9</ele>
        <time>2020-11-11T20:59:41Z</time>
      </trkpt>
      <trkpt lat="28.0579230" lon="-16.7114120">
        <ele>41.9</ele>
        <time>2020-11-11T20:59:42Z</time>
      </trkpt>
      <trkpt lat="28.0576980" lon="-16.7114770">
        <ele>40.9</ele>
        <time>2020-11-11T20:59:43Z</time>
      </trkpt>
      <trkpt lat="28.0576980" lon="-16.7114770">
        <ele>38.9</ele>
        <time>2020-11-11T20:59:44Z</time>
      </trkpt>
      <trkpt lat="28.0574770" lon="-16.7115420">
        <ele>38.9</ele>
        <time>2020-11-11T20:59:45Z</time>
      </trkpt>
      <trkpt lat="28.0574770" lon="-16.7115420">
        <ele>37.9</ele>
        <time>2020-11-11T20:59:46Z</time>
      </trkpt>
      <trkpt lat="28.0572550" lon="-16.7116050">
        <ele>37.9</ele>
        <time>2020-11-11T20:59:47Z</time>
      </trkpt>
      <trkpt lat="28.0572550" lon="-16.7116050">
        <ele>35.9</ele>
        <time>2020-11-11T20:59:48Z</time>
      </trkpt>
      <trkpt lat="28.0570350" lon="-16.7116670">
        <ele>35.9</ele>
        <time>2020-11-11T20:59:49Z</time>
      </trkpt>
      <trkpt lat="28.0570350" lon="-16.7116670">
        <ele>34.9</ele>
        <time>2020-11-11T20:59:50Z</time>
      </trkpt>
      <trkpt lat="28.0568270" lon="-16.7117270">
        <ele>34.9</ele>
        <time>2020-11-11T20:59:51Z</time>
      </trkpt>
      <trkpt lat="28.0567280" lon="-16.7117550">
        <ele>33.9</ele>
        <time>2020-11-11T20:59:52Z</time>
      </trkpt>
      <trkpt lat="28.0567280" lon="-16.7117550">
        <ele>33.9</ele>
        <time>2020-11-11T20:59:53Z</time>
      </trkpt>
      <trkpt lat="28.0565400" lon="-16.7118180">
        <ele>32.9</ele>
        <time>2020-11-11T20:59:54Z</time>
      </trkpt>
      <trkpt lat="28.0565400" lon="-16.7118180">
        <ele>32.9</ele>
        <time>2020-11-11T20:59:55Z</time>
      </trkpt>
      <trkpt lat="28.0563780" lon="-16.7118830">
        <ele>32.9</ele>
        <time>2020-11-11T20:59:56Z</time>
      </trkpt>
      <trkpt lat="28.0563780" lon="-16.7118830">
        <ele>31.9</ele>
        <time>2020-11-11T20:59:57Z</time>
      </trkpt>
      <trkpt lat="28.0562250" lon="-16.7119380">
        <ele>31.9</ele>
        <time>2020-11-11T20:59:58Z</time>
      </trkpt>
      <trkpt lat="28.0562250" lon="-16.7119380">
        <ele>31.9</ele>
        <time>2020-11-11T20:59:59Z</time>
      </trkpt>
      <trkpt lat="28.0560780" lon="-16.7120120">
        <ele>31.9</ele>
        <time>2020-11-11T21:00:00Z</time>
      </trkpt>
      <trkpt lat="28.0560780" lon="-16.7120120">
        <ele>30.9</ele>
        <time>2020-11-11T21:00:01Z</time>
      </trkpt>
      <trkpt lat="28.0559630" lon="-16.7121280">
        <ele>30.9</ele>
        <time>2020-11-11T21:00:02Z</time>
      </trkpt>
      <trkpt lat="28.0559630" lon="-16.7121280">
        <ele>30.9</ele>
        <time>2020-11-11T21:00:03Z</time>
      </trkpt>
      <trkpt lat="28.0558970" lon="-16.7122880">
        <ele>30.9</ele>
        <time>2020-11-11T21:00:04Z</time>
      </trkpt>
      <trkpt lat="28.0558970" lon="-16.7122880">
        <ele>28.9</ele>
        <time>2020-11-11T21:00:05Z</time>
      </trkpt>
      <trkpt lat="28.0558830" lon="-16.7124700">
        <ele>28.9</ele>
        <time>2020-11-11T21:00:06Z</time>
      </trkpt>
      <trkpt lat="28.0558920" lon="-16.7125620">
        <ele>28.9</ele>
        <time>2020-11-11T21:00:07Z</time>
      </trkpt>
      <trkpt lat="28.0558920" lon="-16.7125620">
        <ele>28.9</ele>
        <time>2020-11-11T21:00:08Z</time>
      </trkpt>
      <trkpt lat="28.0559130" lon="-16.7127420">
        <ele>27.9</ele>
        <time>2020-11-11T21:00:09Z</time>
      </trkpt>
      <trkpt lat="28.0559130" lon="-16.7127420">
        <ele>27.9</ele>
        <time>2020-11-11T21:00:10Z</time>
      </trkpt>
      <trkpt lat="28.0559520" lon="-16.7129150">
        <ele>27.9</ele>
        <time>2020-11-11T21:00:11Z</time>
      </trkpt>
      <trkpt lat="28.0559520" lon="-16.7129150">
        <ele>27.9</ele>
        <time>2020-11-11T21:00:12Z</time>
      </trkpt>
      <trkpt lat="28.0559970" lon="-16.7130800">
        <ele>27.9</ele>
        <time>2020-11-11T21:00:13Z</time>
      </trkpt>
      <trkpt lat="28.0559970" lon="-16.7130800">
        <ele>27.9</ele>
        <time>2020-11-11T21:00:14Z</time>
      </trkpt>
      <trkpt lat="28.0560430" lon="-16.7132420">
        <ele>26.9</ele>
        <time>2020-11-11T21:00:15Z</time>
      </trkpt>
      <trkpt lat="28.0560430" lon="-16.7132420">
        <ele>26.9</ele>
        <time>2020-11-11T21:00:16Z</time>
      </trkpt>
      <trkpt lat="28.0560820" lon="-16.7134030">
        <ele>26.9</ele>
        <time>2020-11-11T21:00:17Z</time>
      </trkpt>
      <trkpt lat="28.0560820" lon="-16.7134030">
        <ele>26.9</ele>
        <time>2020-11-11T21:00:18Z</time>
      </trkpt>
      <trkpt lat="28.0561180" lon="-16.7135620">
        <ele>26.9</ele>
        <time>2020-11-11T21:00:19Z</time>
      </trkpt>
      <trkpt lat="28.0561180" lon="-16.7135620">
        <ele>26.9</ele>
        <time>2020-11-11T21:00:20Z</time>
      </trkpt>
      <trkpt lat="28.0561500" lon="-16.7137150">
        <ele>26.9</ele>
        <time>2020-11-11T21:00:21Z</time>
      </trkpt>
      <trkpt lat="28.0561500" lon="-16.7137150">
        <ele>26.9</ele>
        <time>2020-11-11T21:00:22Z</time>
      </trkpt>
      <trkpt lat="28.0561830" lon="-16.7138620">
        <ele>26.9</ele>
        <time>2020-11-11T21:00:23Z</time>
      </trkpt>
      <trkpt lat="28.0561830" lon="-16.7138620">
        <ele>26.9</ele>
        <time>2020-11-11T21:00:24Z</time>
      </trkpt>
      <trkpt lat="28.0562120" lon="-16.7140070">
        <ele>26.9</ele>
        <time>2020-11-11T21:00:25Z</time>
      </trkpt>
      <trkpt lat="28.0562120" lon="-16.7140070">
        <ele>24.9</ele>
        <time>2020-11-11T21:00:26Z</time>
      </trkpt>
      <trkpt lat="28.0562400" lon="-16.7141570">
        <ele>24.9</ele>
        <time>2020-11-11T21:00:27Z</time>
      </trkpt>
      <trkpt lat="28.0562400" lon="-16.7141570">
        <ele>25.9</ele>
        <time>2020-11-11T21:00:28Z</time>
      </trkpt>
      <trkpt lat="28.0562770" lon="-16.7142980">
        <ele>25.9</ele>
        <time>2020-11-11T21:00:29Z</time>
      </trkpt>
      <trkpt lat="28.0562770" lon="-16.7142980">
        <ele>25.9</ele>
        <time>2020-11-11T21:00:30Z</time>
      </trkpt>
      <trkpt lat="28.0563080" lon="-16.7144520">
        <ele>25.9</ele>
        <time>2020-11-11T21:00:31Z</time>
      </trkpt>
      <trkpt lat="28.0563080" lon="-16.7144520">
        <ele>25.9</ele>
        <time>2020-11-11T21:00:32Z</time>
      </trkpt>
      <trkpt lat="28.0563420" lon="-16.7146030">
        <ele>25.9</ele>
        <time>2020-11-11T21:00:33Z</time>
      </trkpt>
      <trkpt lat="28.0563420" lon="-16.7146030">
        <ele>25.9</ele>
        <time>2020-11-11T21:00:34Z</time>
      </trkpt>
      <trkpt lat="28.0563780" lon="-16.7147580">
        <ele>25.9</ele>
        <time>2020-11-11T21:00:35Z</time>
      </trkpt>
      <trkpt lat="28.0563780" lon="-16.7147580">
        <ele>25.9</ele>
        <time>2020-11-11T21:00:36Z</time>
      </trkpt>
      <trkpt lat="28.0564020" lon="-16.7149180">
        <ele>25.9</ele>
        <time>2020-11-11T21:00:37Z</time>
      </trkpt>
      <trkpt lat="28.0564020" lon="-16.7149180">
        <ele>25.9</ele>
        <time>2020-11-11T21:00:38Z</time>
      </trkpt>
      <trkpt lat="28.0564330" lon="-16.7150720">
        <ele>25.9</ele>
        <time>2020-11-11T21:00:39Z</time>
      </trkpt>
      <trkpt lat="28.0564330" lon="-16.7150720">
        <ele>25.9</ele>
        <time>2020-11-11T21:00:40Z</time>
      </trkpt>
      <trkpt lat="28.0564620" lon="-16.7152230">
        <ele>24.9</ele>
        <time>2020-11-11T21:00:41Z</time>
      </trkpt>
      <trkpt lat="28.0564620" lon="-16.7152230">
        <ele>24.9</ele>
        <time>2020-11-11T21:00:42Z</time>
      </trkpt>
      <trkpt lat="28.0564900" lon="-16.7153700">
        <ele>24.9</ele>
        <time>2020-11-11T21:00:43Z</time>
      </trkpt>
      <trkpt lat="28.0564900" lon="-16.7153700">
        <ele>24.9</ele>
        <time>2020-11-11T21:00:44Z</time>
      </trkpt>
      <trkpt lat="28.0565200" lon="-16.7155100">
        <ele>24.9</ele>
        <time>2020-11-11T21:00:45Z</time>
      </trkpt>
      <trkpt lat="28.0565200" lon="-16.7155100">
        <ele>24.9</ele>
        <time>2020-11-11T21:00:46Z</time>
      </trkpt>
      <trkpt lat="28.0565550" lon="-16.7156450">
        <ele>24.9</ele>
        <time>2020-11-11T21:00:47Z</time>
      </trkpt>
      <trkpt lat="28.0565550" lon="-16.7156450">
        <ele>24.9</ele>
        <time>2020-11-11T21:00:48Z</time>
      </trkpt>
      <trkpt lat="28.0565850" lon="-16.7157780">
        <ele>24.9</ele>
        <time>2020-11-11T21:00:49Z</time>
      </trkpt>
      <trkpt lat="28.0565850" lon="-16.7157780">
        <ele>24.9</ele>
        <time>2020-11-11T21:00:50Z</time>
      </trkpt>
      <trkpt lat="28.0566170" lon="-16.7159120">
        <ele>24.9</ele>
        <time>2020-11-11T21:00:51Z</time>
      </trkpt>
      <trkpt lat="28.0566170" lon="-16.7159120">
        <ele>24.9</ele>
        <time>2020-11-11T21:00:52Z</time>
      </trkpt>
      <trkpt lat="28.0566480" lon="-16.7160470">
        <ele>24.9</ele>
        <time>2020-11-11T21:00:53Z</time>
      </trkpt>
      <trkpt lat="28.0566480" lon="-16.7160470">
        <ele>24.9</ele>
        <time>2020-11-11T21:00:54Z</time>
      </trkpt>
      <trkpt lat="28.0566750" lon="-16.7161720">
        <ele>24.9</ele>
        <time>2020-11-11T21:00:55Z</time>
      </trkpt>
      <trkpt lat="28.0566750" lon="-16.7161720">
        <ele>24.9</ele>
        <time>2020-11-11T21:00:56Z</time>
      </trkpt>
      <trkpt lat="28.0567000" lon="-16.7162970">
        <ele>24.9</ele>
        <time>2020-11-11T21:00:57Z</time>
      </trkpt>
      <trkpt lat="28.0567130" lon="-16.7163580">
        <ele>24.9</ele>
        <time>2020-11-11T21:00:58Z</time>
      </trkpt>
      <trkpt lat="28.0567130" lon="-16.7163580">
        <ele>24.9</ele>
        <time>2020-11-11T21:00:59Z</time>
      </trkpt>
      <trkpt lat="28.0567400" lon="-16.7164800">
        <ele>24.9</ele>
        <time>2020-11-11T21:01:00Z</time>
      </trkpt>
      <trkpt lat="28.0567400" lon="-16.7164800">
        <ele>24.9</ele>
        <time>2020-11-11T21:01:01Z</time>
      </trkpt>
      <trkpt lat="28.0567750" lon="-16.7166000">
        <ele>24.9</ele>
        <time>2020-11-11T21:01:02Z</time>
      </trkpt>
      <trkpt lat="28.0567750" lon="-16.7166000">
        <ele>24.9</ele>
        <time>2020-11-11T21:01:03Z</time>
      </trkpt>
      <trkpt lat="28.0568020" lon="-16.7167230">
        <ele>25.9</ele>
        <time>2020-11-11T21:01:04Z</time>
      </trkpt>
      <trkpt lat="28.0568020" lon="-16.7167230">
        <ele>25.9</ele>
        <time>2020-11-11T21:01:05Z</time>
      </trkpt>
      <trkpt lat="28.0568280" lon="-16.7168450">
        <ele>25.9</ele>
        <time>2020-11-11T21:01:06Z</time>
      </trkpt>
      <trkpt lat="28.0568280" lon="-16.7168450">
        <ele>25.9</ele>
        <time>2020-11-11T21:01:07Z</time>
      </trkpt>
      <trkpt lat="28.0568520" lon="-16.7169670">
        <ele>25.9</ele>
        <time>2020-11-11T21:01:08Z</time>
      </trkpt>
      <trkpt lat="28.0568520" lon="-16.7169670">
        <ele>25.9</ele>
        <time>2020-11-11T21:01:09Z</time>
      </trkpt>
      <trkpt lat="28.0568720" lon="-16.7170920">
        <ele>25.9</ele>
        <time>2020-11-11T21:01:10Z</time>
      </trkpt>
      <trkpt lat="28.0568720" lon="-16.7170920">
        <ele>25.9</ele>
        <time>2020-11-11T21:01:11Z</time>
      </trkpt>
      <trkpt lat="28.0568980" lon="-16.7172070">
        <ele>26.9</ele>
        <time>2020-11-11T21:01:12Z</time>
      </trkpt>
      <trkpt lat="28.0569120" lon="-16.7172620">
        <ele>26.9</ele>
        <time>2020-11-11T21:01:13Z</time>
      </trkpt>
      <trkpt lat="28.0569120" lon="-16.7172620">
        <ele>26.9</ele>
        <time>2020-11-11T21:01:14Z</time>
      </trkpt>
      <trkpt lat="28.0569400" lon="-16.7173720">
        <ele>26.9</ele>
        <time>2020-11-11T21:01:15Z</time>
      </trkpt>
      <trkpt lat="28.0569400" lon="-16.7173720">
        <ele>26.9</ele>
        <time>2020-11-11T21:01:16Z</time>
      </trkpt>
      <trkpt lat="28.0569630" lon="-16.7174780">
        <ele>26.9</ele>
        <time>2020-11-11T21:01:17Z</time>
      </trkpt>
      <trkpt lat="28.0569630" lon="-16.7174780">
        <ele>26.9</ele>
        <time>2020-11-11T21:01:18Z</time>
      </trkpt>
      <trkpt lat="28.0569850" lon="-16.7175820">
        <ele>26.9</ele>
        <time>2020-11-11T21:01:19Z</time>
      </trkpt>
      <trkpt lat="28.0569850" lon="-16.7175820">
        <ele>28.9</ele>
        <time>2020-11-11T21:01:20Z</time>
      </trkpt>
      <trkpt lat="28.0570120" lon="-16.7176800">
        <ele>28.9</ele>
        <time>2020-11-11T21:01:21Z</time>
      </trkpt>
      <trkpt lat="28.0570120" lon="-16.7176800">
        <ele>28.9</ele>
        <time>2020-11-11T21:01:22Z</time>
      </trkpt>
      <trkpt lat="28.0570320" lon="-16.7177770">
        <ele>28.9</ele>
        <time>2020-11-11T21:01:23Z</time>
      </trkpt>
      <trkpt lat="28.0570320" lon="-16.7177770">
        <ele>28.9</ele>
        <time>2020-11-11T21:01:24Z</time>
      </trkpt>
      <trkpt lat="28.0570550" lon="-16.7178720">
        <ele>28.9</ele>
        <time>2020-11-11T21:01:25Z</time>
      </trkpt>
      <trkpt lat="28.0570550" lon="-16.7178720">
        <ele>29.9</ele>
        <time>2020-11-11T21:01:26Z</time>
      </trkpt>
      <trkpt lat="28.0570780" lon="-16.7179600">
        <ele>29.9</ele>
        <time>2020-11-11T21:01:27Z</time>
      </trkpt>
      <trkpt lat="28.0570780" lon="-16.7179600">
        <ele>29.9</ele>
        <time>2020-11-11T21:01:28Z</time>
      </trkpt>
      <trkpt lat="28.0570980" lon="-16.7180520">
        <ele>29.9</ele>
        <time>2020-11-11T21:01:29Z</time>
      </trkpt>
      <trkpt lat="28.0570980" lon="-16.7180520">
        <ele>29.9</ele>
        <time>2020-11-11T21:01:30Z</time>
      </trkpt>
      <trkpt lat="28.0571300" lon="-16.7181420">
        <ele>29.9</ele>
        <time>2020-11-11T21:01:31Z</time>
      </trkpt>
      <trkpt lat="28.0571300" lon="-16.7181420">
        <ele>29.9</ele>
        <time>2020-11-11T21:01:32Z</time>
      </trkpt>
      <trkpt lat="28.0571480" lon="-16.7182370">
        <ele>29.9</ele>
        <time>2020-11-11T21:01:33Z</time>
      </trkpt>
      <trkpt lat="28.0571480" lon="-16.7182370">
        <ele>30.9</ele>
        <time>2020-11-11T21:01:34Z</time>
      </trkpt>
      <trkpt lat="28.0571680" lon="-16.7183320">
        <ele>30.9</ele>
        <time>2020-11-11T21:01:35Z</time>
      </trkpt>
      <trkpt lat="28.0571680" lon="-16.7183320">
        <ele>30.9</ele>
        <time>2020-11-11T21:01:36Z</time>
      </trkpt>
      <trkpt lat="28.0571850" lon="-16.7184170">
        <ele>30.9</ele>
        <time>2020-11-11T21:01:37Z</time>
      </trkpt>
      <trkpt lat="28.0571850" lon="-16.7184170">
        <ele>30.9</ele>
        <time>2020-11-11T21:01:38Z</time>
      </trkpt>
      <trkpt lat="28.0572020" lon="-16.7185050">
        <ele>30.9</ele>
        <time>2020-11-11T21:01:39Z</time>
      </trkpt>
      <trkpt lat="28.0572020" lon="-16.7185050">
        <ele>30.9</ele>
        <time>2020-11-11T21:01:40Z</time>
      </trkpt>
      <trkpt lat="28.0572230" lon="-16.7185920">
        <ele>30.9</ele>
        <time>2020-11-11T21:01:41Z</time>
      </trkpt>
      <trkpt lat="28.0572230" lon="-16.7185920">
        <ele>30.9</ele>
        <time>2020-11-11T21:01:42Z</time>
      </trkpt>
      <trkpt lat="28.0572420" lon="-16.7186750">
        <ele>30.9</ele>
        <time>2020-11-11T21:01:43Z</time>
      </trkpt>
      <trkpt lat="28.0572420" lon="-16.7186750">
        <ele>30.9</ele>
        <time>2020-11-11T21:01:44Z</time>
      </trkpt>
      <trkpt lat="28.0572650" lon="-16.7187570">
        <ele>31.9</ele>
        <time>2020-11-11T21:01:45Z</time>
      </trkpt>
      <trkpt lat="28.0572650" lon="-16.7187570">
        <ele>31.9</ele>
        <time>2020-11-11T21:01:46Z</time>
      </trkpt>
      <trkpt lat="28.0572870" lon="-16.7188450">
        <ele>31.9</ele>
        <time>2020-11-11T21:01:47Z</time>
      </trkpt>
      <trkpt lat="28.0572870" lon="-16.7188450">
        <ele>31.9</ele>
        <time>2020-11-11T21:01:48Z</time>
      </trkpt>
      <trkpt lat="28.0573000" lon="-16.7189280">
        <ele>31.9</ele>
        <time>2020-11-11T21:01:49Z</time>
      </trkpt>
      <trkpt lat="28.0573000" lon="-16.7189280">
        <ele>31.9</ele>
        <time>2020-11-11T21:01:50Z</time>
      </trkpt>
      <trkpt lat="28.0573180" lon="-16.7190150">
        <ele>31.9</ele>
        <time>2020-11-11T21:01:51Z</time>
      </trkpt>
      <trkpt lat="28.0573180" lon="-16.7190150">
        <ele>31.9</ele>
        <time>2020-11-11T21:01:52Z</time>
      </trkpt>
      <trkpt lat="28.0573400" lon="-16.7190950">
        <ele>32.9</ele>
        <time>2020-11-11T21:01:53Z</time>
      </trkpt>
      <trkpt lat="28.0573400" lon="-16.7190950">
        <ele>32.9</ele>
        <time>2020-11-11T21:01:54Z</time>
      </trkpt>
      <trkpt lat="28.0573620" lon="-16.7191750">
        <ele>32.9</ele>
        <time>2020-11-11T21:01:55Z</time>
      </trkpt>
      <trkpt lat="28.0573620" lon="-16.7191750">
        <ele>32.9</ele>
        <time>2020-11-11T21:01:56Z</time>
      </trkpt>
      <trkpt lat="28.0573820" lon="-16.7192600">
        <ele>32.9</ele>
        <time>2020-11-11T21:01:57Z</time>
      </trkpt>
      <trkpt lat="28.0573880" lon="-16.7193030">
        <ele>32.9</ele>
        <time>2020-11-11T21:01:58Z</time>
      </trkpt>
      <trkpt lat="28.0573880" lon="-16.7193470">
        <ele>32.9</ele>
        <time>2020-11-11T21:01:59Z</time>
      </trkpt>
      <trkpt lat="28.0573880" lon="-16.7193470">
        <ele>33.9</ele>
        <time>2020-11-11T21:02:00Z</time>
      </trkpt>
      <trkpt lat="28.0574070" lon="-16.7194220">
        <ele>33.9</ele>
        <time>2020-11-11T21:02:01Z</time>
      </trkpt>
      <trkpt lat="28.0574070" lon="-16.7194220">
        <ele>33.9</ele>
        <time>2020-11-11T21:02:02Z</time>
      </trkpt>
      <trkpt lat="28.0574280" lon="-16.7195050">
        <ele>33.9</ele>
        <time>2020-11-11T21:02:03Z</time>
      </trkpt>
      <trkpt lat="28.0574280" lon="-16.7195050">
        <ele>33.9</ele>
        <time>2020-11-11T21:02:04Z</time>
      </trkpt>
      <trkpt lat="28.0574480" lon="-16.7195850">
        <ele>33.9</ele>
        <time>2020-11-11T21:02:05Z</time>
      </trkpt>
      <trkpt lat="28.0574480" lon="-16.7195850">
        <ele>34.9</ele>
        <time>2020-11-11T21:02:06Z</time>
      </trkpt>
      <trkpt lat="28.0574730" lon="-16.7196600">
        <ele>34.9</ele>
        <time>2020-11-11T21:02:07Z</time>
      </trkpt>
      <trkpt lat="28.0574730" lon="-16.7196600">
        <ele>34.9</ele>
        <time>2020-11-11T21:02:08Z</time>
      </trkpt>
      <trkpt lat="28.0574900" lon="-16.7197400">
        <ele>34.9</ele>
        <time>2020-11-11T21:02:09Z</time>
      </trkpt>
      <trkpt lat="28.0574900" lon="-16.7197400">
        <ele>34.9</ele>
        <time>2020-11-11T21:02:10Z</time>
      </trkpt>
      <trkpt lat="28.0575030" lon="-16.7198200">
        <ele>34.9</ele>
        <time>2020-11-11T21:02:11Z</time>
      </trkpt>
      <trkpt lat="28.0575030" lon="-16.7198200">
        <ele>35.9</ele>
        <time>2020-11-11T21:02:12Z</time>
      </trkpt>
      <trkpt lat="28.0575180" lon="-16.7199030">
        <ele>35.9</ele>
        <time>2020-11-11T21:02:13Z</time>
      </trkpt>
      <trkpt lat="28.0575180" lon="-16.7199030">
        <ele>35.9</ele>
        <time>2020-11-11T21:02:14Z</time>
      </trkpt>
      <trkpt lat="28.0575380" lon="-16.7199850">
        <ele>35.9</ele>
        <time>2020-11-11T21:02:15Z</time>
      </trkpt>
      <trkpt lat="28.0575380" lon="-16.7199850">
        <ele>35.9</ele>
        <time>2020-11-11T21:02:16Z</time>
      </trkpt>
      <trkpt lat="28.0575530" lon="-16.7200720">
        <ele>35.9</ele>
        <time>2020-11-11T21:02:17Z</time>
      </trkpt>
      <trkpt lat="28.0575530" lon="-16.7200720">
        <ele>35.9</ele>
        <time>2020-11-11T21:02:18Z</time>
      </trkpt>
      <trkpt lat="28.0575730" lon="-16.7201630">
        <ele>35.9</ele>
        <time>2020-11-11T21:02:19Z</time>
      </trkpt>
      <trkpt lat="28.0575730" lon="-16.7201630">
        <ele>35.9</ele>
        <time>2020-11-11T21:02:20Z</time>
      </trkpt>
      <trkpt lat="28.0575880" lon="-16.7202650">
        <ele>35.9</ele>
        <time>2020-11-11T21:02:21Z</time>
      </trkpt>
      <trkpt lat="28.0575880" lon="-16.7202650">
        <ele>35.9</ele>
        <time>2020-11-11T21:02:22Z</time>
      </trkpt>
      <trkpt lat="28.0575980" lon="-16.7203730">
        <ele>35.9</ele>
        <time>2020-11-11T21:02:23Z</time>
      </trkpt>
      <trkpt lat="28.0575980" lon="-16.7203730">
        <ele>35.9</ele>
        <time>2020-11-11T21:02:24Z</time>
      </trkpt>
      <trkpt lat="28.0576220" lon="-16.7204800">
        <ele>35.9</ele>
        <time>2020-11-11T21:02:25Z</time>
      </trkpt>
      <trkpt lat="28.0576220" lon="-16.7204800">
        <ele>35.9</ele>
        <time>2020-11-11T21:02:26Z</time>
      </trkpt>
      <trkpt lat="28.0576450" lon="-16.7205930">
        <ele>35.9</ele>
        <time>2020-11-11T21:02:27Z</time>
      </trkpt>
      <trkpt lat="28.0576450" lon="-16.7205930">
        <ele>35.9</ele>
        <time>2020-11-11T21:02:28Z</time>
      </trkpt>
      <trkpt lat="28.0576720" lon="-16.7207100">
        <ele>35.9</ele>
        <time>2020-11-11T21:02:29Z</time>
      </trkpt>
      <trkpt lat="28.0576830" lon="-16.7207680">
        <ele>35.9</ele>
        <time>2020-11-11T21:02:30Z</time>
      </trkpt>
      <trkpt lat="28.0576830" lon="-16.7207680">
        <ele>35.9</ele>
        <time>2020-11-11T21:02:31Z</time>
      </trkpt>
      <trkpt lat="28.0576900" lon="-16.7208930">
        <ele>35.9</ele>
        <time>2020-11-11T21:02:32Z</time>
      </trkpt>
      <trkpt lat="28.0576900" lon="-16.7208930">
        <ele>34.9</ele>
        <time>2020-11-11T21:02:33Z</time>
      </trkpt>
      <trkpt lat="28.0576450" lon="-16.7210070">
        <ele>34.9</ele>
        <time>2020-11-11T21:02:34Z</time>
      </trkpt>
      <trkpt lat="28.0576450" lon="-16.7210070">
        <ele>34.9</ele>
        <time>2020-11-11T21:02:35Z</time>
      </trkpt>
      <trkpt lat="28.0575570" lon="-16.7210680">
        <ele>34.9</ele>
        <time>2020-11-11T21:02:36Z</time>
      </trkpt>
      <trkpt lat="28.0575150" lon="-16.7210970">
        <ele>34.9</ele>
        <time>2020-11-11T21:02:37Z</time>
      </trkpt>
      <trkpt lat="28.0575150" lon="-16.7210970">
        <ele>34.9</ele>
        <time>2020-11-11T21:02:38Z</time>
      </trkpt>
      <trkpt lat="28.0574370" lon="-16.7211480">
        <ele>34.9</ele>
        <time>2020-11-11T21:02:39Z</time>
      </trkpt>
      <trkpt lat="28.0574370" lon="-16.7211480">
        <ele>34.9</ele>
        <time>2020-11-11T21:02:40Z</time>
      </trkpt>
      <trkpt lat="28.0573580" lon="-16.7211880">
        <ele>34.9</ele>
        <time>2020-11-11T21:02:41Z</time>
      </trkpt>
      <trkpt lat="28.0573580" lon="-16.7211880">
        <ele>34.9</ele>
        <time>2020-11-11T21:02:42Z</time>
      </trkpt>
      <trkpt lat="28.0572820" lon="-16.7212280">
        <ele>34.9</ele>
        <time>2020-11-11T21:02:43Z</time>
      </trkpt>
      <trkpt lat="28.0572820" lon="-16.7212280">
        <ele>34.9</ele>
        <time>2020-11-11T21:02:44Z</time>
      </trkpt>
      <trkpt lat="28.0572030" lon="-16.7212700">
        <ele>34.9</ele>
        <time>2020-11-11T21:02:45Z</time>
      </trkpt>
      <trkpt lat="28.0572030" lon="-16.7212700">
        <ele>34.9</ele>
        <time>2020-11-11T21:02:46Z</time>
      </trkpt>
      <trkpt lat="28.0571270" lon="-16.7213170">
        <ele>34.9</ele>
        <time>2020-11-11T21:02:47Z</time>
      </trkpt>
      <trkpt lat="28.0571270" lon="-16.7213170">
        <ele>34.9</ele>
        <time>2020-11-11T21:02:48Z</time>
      </trkpt>
      <trkpt lat="28.0570530" lon="-16.7213720">
        <ele>35.9</ele>
        <time>2020-11-11T21:02:49Z</time>
      </trkpt>
      <trkpt lat="28.0570530" lon="-16.7213720">
        <ele>35.9</ele>
        <time>2020-11-11T21:02:50Z</time>
      </trkpt>
      <trkpt lat="28.0569930" lon="-16.7214470">
        <ele>35.9</ele>
        <time>2020-11-11T21:02:51Z</time>
      </trkpt>
      <trkpt lat="28.0569930" lon="-16.7214470">
        <ele>35.9</ele>
        <time>2020-11-11T21:02:52Z</time>
      </trkpt>
      <trkpt lat="28.0569450" lon="-16.7215330">
        <ele>35.9</ele>
        <time>2020-11-11T21:02:53Z</time>
      </trkpt>
      <trkpt lat="28.0569180" lon="-16.7215800">
        <ele>35.9</ele>
        <time>2020-11-11T21:02:54Z</time>
      </trkpt>
      <trkpt lat="28.0569180" lon="-16.7215800">
        <ele>35.9</ele>
        <time>2020-11-11T21:02:55Z</time>
      </trkpt>
      <trkpt lat="28.0568680" lon="-16.7216770">
        <ele>35.9</ele>
        <time>2020-11-11T21:02:56Z</time>
      </trkpt>
      <trkpt lat="28.0568680" lon="-16.7216770">
        <ele>35.9</ele>
        <time>2020-11-11T21:02:57Z</time>
      </trkpt>
      <trkpt lat="28.0568120" lon="-16.7217730">
        <ele>34.9</ele>
        <time>2020-11-11T21:02:58Z</time>
      </trkpt>
      <trkpt lat="28.0568120" lon="-16.7217730">
        <ele>34.9</ele>
        <time>2020-11-11T21:02:59Z</time>
      </trkpt>
      <trkpt lat="28.0567520" lon="-16.7218820">
        <ele>34.9</ele>
        <time>2020-11-11T21:03:00Z</time>
      </trkpt>
      <trkpt lat="28.0567220" lon="-16.7219370">
        <ele>34.9</ele>
        <time>2020-11-11T21:03:01Z</time>
      </trkpt>
      <trkpt lat="28.0567220" lon="-16.7219370">
        <ele>33.9</ele>
        <time>2020-11-11T21:03:02Z</time>
      </trkpt>
      <trkpt lat="28.0566550" lon="-16.7220520">
        <ele>33.9</ele>
        <time>2020-11-11T21:03:03Z</time>
      </trkpt>
      <trkpt lat="28.0566550" lon="-16.7220520">
        <ele>33.9</ele>
        <time>2020-11-11T21:03:04Z</time>
      </trkpt>
      <trkpt lat="28.0565850" lon="-16.7221730">
        <ele>33.9</ele>
        <time>2020-11-11T21:03:05Z</time>
      </trkpt>
      <trkpt lat="28.0565850" lon="-16.7221730">
        <ele>32.9</ele>
        <time>2020-11-11T21:03:06Z</time>
      </trkpt>
      <trkpt lat="28.0565130" lon="-16.7223070">
        <ele>32.9</ele>
        <time>2020-11-11T21:03:07Z</time>
      </trkpt>
      <trkpt lat="28.0565130" lon="-16.7223070">
        <ele>32.9</ele>
        <time>2020-11-11T21:03:08Z</time>
      </trkpt>
      <trkpt lat="28.0564400" lon="-16.7224470">
        <ele>32.9</ele>
        <time>2020-11-11T21:03:09Z</time>
      </trkpt>
      <trkpt lat="28.0564400" lon="-16.7224470">
        <ele>32.9</ele>
        <time>2020-11-11T21:03:10Z</time>
      </trkpt>
      <trkpt lat="28.0563570" lon="-16.7225970">
        <ele>31.9</ele>
        <time>2020-11-11T21:03:11Z</time>
      </trkpt>
      <trkpt lat="28.0563570" lon="-16.7225970">
        <ele>31.9</ele>
        <time>2020-11-11T21:03:12Z</time>
      </trkpt>
      <trkpt lat="28.0562670" lon="-16.7227550">
        <ele>30.9</ele>
        <time>2020-11-11T21:03:13Z</time>
      </trkpt>
      <trkpt lat="28.0562670" lon="-16.7227550">
        <ele>30.9</ele>
        <time>2020-11-11T21:03:14Z</time>
      </trkpt>
      <trkpt lat="28.0561720" lon="-16.7229280">
        <ele>28.9</ele>
        <time>2020-11-11T21:03:15Z</time>
      </trkpt>
      <trkpt lat="28.0561220" lon="-16.7230200">
        <ele>28.9</ele>
        <time>2020-11-11T21:03:16Z</time>
      </trkpt>
      <trkpt lat="28.0561220" lon="-16.7230200">
        <ele>27.9</ele>
        <time>2020-11-11T21:03:17Z</time>
      </trkpt>
      <trkpt lat="28.0560180" lon="-16.7232050">
        <ele>27.9</ele>
        <time>2020-11-11T21:03:18Z</time>
      </trkpt>
      <trkpt lat="28.0559570" lon="-16.7232950">
        <ele>26.9</ele>
        <time>2020-11-11T21:03:19Z</time>
      </trkpt>
      <trkpt lat="28.0559570" lon="-16.7232950">
        <ele>26.9</ele>
        <time>2020-11-11T21:03:20Z</time>
      </trkpt>
      <trkpt lat="28.0557970" lon="-16.7234450">
        <ele>24.9</ele>
        <time>2020-11-11T21:03:21Z</time>
      </trkpt>
      <trkpt lat="28.0557970" lon="-16.7234450">
        <ele>24.9</ele>
        <time>2020-11-11T21:03:22Z</time>
      </trkpt>
      <trkpt lat="28.0555920" lon="-16.7235430">
        <ele>23.9</ele>
        <time>2020-11-11T21:03:23Z</time>
      </trkpt>
      <trkpt lat="28.0554820" lon="-16.7235780">
        <ele>23.9</ele>
        <time>2020-11-11T21:03:24Z</time>
      </trkpt>
      <trkpt lat="28.0554820" lon="-16.7235780">
        <ele>21.9</ele>
        <time>2020-11-11T21:03:25Z</time>
      </trkpt>
      <trkpt lat="28.0552770" lon="-16.7236450">
        <ele>21.9</ele>
        <time>2020-11-11T21:03:26Z</time>
      </trkpt>
      <trkpt lat="28.0552770" lon="-16.7236450">
        <ele>19.9</ele>
        <time>2020-11-11T21:03:27Z</time>
      </trkpt>
      <trkpt lat="28.0550800" lon="-16.7237100">
        <ele>17.9</ele>
        <time>2020-11-11T21:03:28Z</time>
      </trkpt>
      <trkpt lat="28.0550800" lon="-16.7237100">
        <ele>17.9</ele>
        <time>2020-11-11T21:03:29Z</time>
      </trkpt>
      <trkpt lat="28.0548900" lon="-16.7237820">
        <ele>15.9</ele>
        <time>2020-11-11T21:03:30Z</time>
      </trkpt>
      <trkpt lat="28.0547980" lon="-16.7238120">
        <ele>15.9</ele>
        <time>2020-11-11T21:03:31Z</time>
      </trkpt>
      <trkpt lat="28.0547980" lon="-16.7238120">
        <ele>13.9</ele>
        <time>2020-11-11T21:03:32Z</time>
      </trkpt>
      <trkpt lat="28.0546380" lon="-16.7238780">
        <ele>13.9</ele>
        <time>2020-11-11T21:03:33Z</time>
      </trkpt>
      <trkpt lat="28.0546380" lon="-16.7238780">
        <ele>12.9</ele>
        <time>2020-11-11T21:03:34Z</time>
      </trkpt>
      <trkpt lat="28.0545000" lon="-16.7239600">
        <ele>12.9</ele>
        <time>2020-11-11T21:03:35Z</time>
      </trkpt>
      <trkpt lat="28.0545000" lon="-16.7239600">
        <ele>10.9</ele>
        <time>2020-11-11T21:03:36Z</time>
      </trkpt>
      <trkpt lat="28.0543680" lon="-16.7240150">
        <ele>10.9</ele>
        <time>2020-11-11T21:03:37Z</time>
      </trkpt>
      <trkpt lat="28.0543680" lon="-16.7240150">
        <ele>10.9</ele>
        <time>2020-11-11T21:03:38Z</time>
      </trkpt>
      <trkpt lat="28.0542580" lon="-16.7239900">
        <ele>10.9</ele>
        <time>2020-11-11T21:03:39Z</time>
      </trkpt>
      <trkpt lat="28.0542580" lon="-16.7239900">
        <ele>9.9</ele>
        <time>2020-11-11T21:03:40Z</time>
      </trkpt>
      <trkpt lat="28.0541570" lon="-16.7239270">
        <ele>9.9</ele>
        <time>2020-11-11T21:03:41Z</time>
      </trkpt>
      <trkpt lat="28.0541570" lon="-16.7239270">
        <ele>9.9</ele>
        <time>2020-11-11T21:03:42Z</time>
      </trkpt>
      <trkpt lat="28.0540630" lon="-16.7238650">
        <ele>9.9</ele>
        <time>2020-11-11T21:03:43Z</time>
      </trkpt>
      <trkpt lat="28.0540630" lon="-16.7238650">
        <ele>9.9</ele>
        <time>2020-11-11T21:03:44Z</time>
      </trkpt>
      <trkpt lat="28.0539680" lon="-16.7237980">
        <ele>9.9</ele>
        <time>2020-11-11T21:03:45Z</time>
      </trkpt>
      <trkpt lat="28.0539220" lon="-16.7237680">
        <ele>9.9</ele>
        <time>2020-11-11T21:03:46Z</time>
      </trkpt>
      <trkpt lat="28.0539220" lon="-16.7237680">
        <ele>9.9</ele>
        <time>2020-11-11T21:03:47Z</time>
      </trkpt>
      <trkpt lat="28.0538320" lon="-16.7237170">
        <ele>9.9</ele>
        <time>2020-11-11T21:03:48Z</time>
      </trkpt>
      <trkpt lat="28.0537820" lon="-16.7236830">
        <ele>9.9</ele>
        <time>2020-11-11T21:03:49Z</time>
      </trkpt>
      <trkpt lat="28.0537820" lon="-16.7236830">
        <ele>9.9</ele>
        <time>2020-11-11T21:03:50Z</time>
      </trkpt>
      <trkpt lat="28.0536830" lon="-16.7236250">
        <ele>9.9</ele>
        <time>2020-11-11T21:03:51Z</time>
      </trkpt>
      <trkpt lat="28.0536830" lon="-16.7236250">
        <ele>9.9</ele>
        <time>2020-11-11T21:03:52Z</time>
      </trkpt>
      <trkpt lat="28.0535900" lon="-16.7235670">
        <ele>9.9</ele>
        <time>2020-11-11T21:03:53Z</time>
      </trkpt>
      <trkpt lat="28.0535900" lon="-16.7235670">
        <ele>9.9</ele>
        <time>2020-11-11T21:03:54Z</time>
      </trkpt>
      <trkpt lat="28.0534920" lon="-16.7235230">
        <ele>9.9</ele>
        <time>2020-11-11T21:03:55Z</time>
      </trkpt>
      <trkpt lat="28.0534920" lon="-16.7235230">
        <ele>9.9</ele>
        <time>2020-11-11T21:03:56Z</time>
      </trkpt>
      <trkpt lat="28.0533920" lon="-16.7234720">
        <ele>9.9</ele>
        <time>2020-11-11T21:03:57Z</time>
      </trkpt>
      <trkpt lat="28.0533400" lon="-16.7234470">
        <ele>9.9</ele>
        <time>2020-11-11T21:03:58Z</time>
      </trkpt>
      <trkpt lat="28.0533400" lon="-16.7234470">
        <ele>9.9</ele>
        <time>2020-11-11T21:03:59Z</time>
      </trkpt>
      <trkpt lat="28.0532350" lon="-16.7233970">
        <ele>9.9</ele>
        <time>2020-11-11T21:04:00Z</time>
      </trkpt>
      <trkpt lat="28.0532350" lon="-16.7233970">
        <ele>9.9</ele>
        <time>2020-11-11T21:04:01Z</time>
      </trkpt>
      <trkpt lat="28.0531270" lon="-16.7233430">
        <ele>9.9</ele>
        <time>2020-11-11T21:04:02Z</time>
      </trkpt>
      <trkpt lat="28.0531270" lon="-16.7233430">
        <ele>9.9</ele>
        <time>2020-11-11T21:04:03Z</time>
      </trkpt>
      <trkpt lat="28.0530300" lon="-16.7232880">
        <ele>9.9</ele>
        <time>2020-11-11T21:04:04Z</time>
      </trkpt>
      <trkpt lat="28.0529930" lon="-16.7232530">
        <ele>9.9</ele>
        <time>2020-11-11T21:04:05Z</time>
      </trkpt>
      <trkpt lat="28.0529930" lon="-16.7232530">
        <ele>9.9</ele>
        <time>2020-11-11T21:04:06Z</time>
      </trkpt>
      <trkpt lat="28.0529070" lon="-16.7231980">
        <ele>9.9</ele>
        <time>2020-11-11T21:04:07Z</time>
      </trkpt>
      <trkpt lat="28.0529070" lon="-16.7231980">
        <ele>9.9</ele>
        <time>2020-11-11T21:04:08Z</time>
      </trkpt>
      <trkpt lat="28.0528200" lon="-16.7231250">
        <ele>9.9</ele>
        <time>2020-11-11T21:04:09Z</time>
      </trkpt>
      <trkpt lat="28.0528200" lon="-16.7231250">
        <ele>9.9</ele>
        <time>2020-11-11T21:04:10Z</time>
      </trkpt>
      <trkpt lat="28.0527430" lon="-16.7230480">
        <ele>9.9</ele>
        <time>2020-11-11T21:04:11Z</time>
      </trkpt>
      <trkpt lat="28.0527150" lon="-16.7230070">
        <ele>9.9</ele>
        <time>2020-11-11T21:04:12Z</time>
      </trkpt>
      <trkpt lat="28.0526830" lon="-16.7229700">
        <ele>9.9</ele>
        <time>2020-11-11T21:04:13Z</time>
      </trkpt>
      <trkpt lat="28.0526830" lon="-16.7229700">
        <ele>9.9</ele>
        <time>2020-11-11T21:04:14Z</time>
      </trkpt>
      <trkpt lat="28.0526300" lon="-16.7228950">
        <ele>9.9</ele>
        <time>2020-11-11T21:04:15Z</time>
      </trkpt>
      <trkpt lat="28.0526300" lon="-16.7228950">
        <ele>9.9</ele>
        <time>2020-11-11T21:04:16Z</time>
      </trkpt>
      <trkpt lat="28.0525830" lon="-16.7228270">
        <ele>9.9</ele>
        <time>2020-11-11T21:04:17Z</time>
      </trkpt>
      <trkpt lat="28.0525830" lon="-16.7228270">
        <ele>9.9</ele>
        <time>2020-11-11T21:04:18Z</time>
      </trkpt>
      <trkpt lat="28.0525400" lon="-16.7227600">
        <ele>9.9</ele>
        <time>2020-11-11T21:04:19Z</time>
      </trkpt>
      <trkpt lat="28.0525400" lon="-16.7227600">
        <ele>9.9</ele>
        <time>2020-11-11T21:04:20Z</time>
      </trkpt>
      <trkpt lat="28.0524970" lon="-16.7227080">
        <ele>9.9</ele>
        <time>2020-11-11T21:04:21Z</time>
      </trkpt>
      <trkpt lat="28.0524970" lon="-16.7227080">
        <ele>9.9</ele>
        <time>2020-11-11T21:04:22Z</time>
      </trkpt>
      <trkpt lat="28.0524550" lon="-16.7226550">
        <ele>9.9</ele>
        <time>2020-11-11T21:04:23Z</time>
      </trkpt>
      <trkpt lat="28.0524550" lon="-16.7226550">
        <ele>9.9</ele>
        <time>2020-11-11T21:04:24Z</time>
      </trkpt>
      <trkpt lat="28.0524150" lon="-16.7225980">
        <ele>9.9</ele>
        <time>2020-11-11T21:04:25Z</time>
      </trkpt>
      <trkpt lat="28.0524150" lon="-16.7225980">
        <ele>9.9</ele>
        <time>2020-11-11T21:04:26Z</time>
      </trkpt>
      <trkpt lat="28.0523800" lon="-16.7225420">
        <ele>9.9</ele>
        <time>2020-11-11T21:04:27Z</time>
      </trkpt>
      <trkpt lat="28.0523630" lon="-16.7225130">
        <ele>9.9</ele>
        <time>2020-11-11T21:04:28Z</time>
      </trkpt>
      <trkpt lat="28.0523630" lon="-16.7225130">
        <ele>9.9</ele>
        <time>2020-11-11T21:04:29Z</time>
      </trkpt>
      <trkpt lat="28.0523280" lon="-16.7224550">
        <ele>9.9</ele>
        <time>2020-11-11T21:04:30Z</time>
      </trkpt>
      <trkpt lat="28.0523080" lon="-16.7224250">
        <ele>9.9</ele>
        <time>2020-11-11T21:04:31Z</time>
      </trkpt>
      <trkpt lat="28.0523080" lon="-16.7224250">
        <ele>10.9</ele>
        <time>2020-11-11T21:04:32Z</time>
      </trkpt>
      <trkpt lat="28.0522700" lon="-16.7223650">
        <ele>10.9</ele>
        <time>2020-11-11T21:04:33Z</time>
      </trkpt>
      <trkpt lat="28.0522700" lon="-16.7223650">
        <ele>10.9</ele>
        <time>2020-11-11T21:04:34Z</time>
      </trkpt>
      <trkpt lat="28.0522170" lon="-16.7223180">
        <ele>10.9</ele>
        <time>2020-11-11T21:04:35Z</time>
      </trkpt>
      <trkpt lat="28.0522170" lon="-16.7223180">
        <ele>10.9</ele>
        <time>2020-11-11T21:04:36Z</time>
      </trkpt>
      <trkpt lat="28.0521720" lon="-16.7222700">
        <ele>10.9</ele>
        <time>2020-11-11T21:04:37Z</time>
      </trkpt>
      <trkpt lat="28.0521720" lon="-16.7222700">
        <ele>10.9</ele>
        <time>2020-11-11T21:04:38Z</time>
      </trkpt>
      <trkpt lat="28.0521130" lon="-16.7222300">
        <ele>11.9</ele>
        <time>2020-11-11T21:04:39Z</time>
      </trkpt>
      <trkpt lat="28.0521130" lon="-16.7222300">
        <ele>11.9</ele>
        <time>2020-11-11T21:04:40Z</time>
      </trkpt>
      <trkpt lat="28.0520620" lon="-16.7221850">
        <ele>11.9</ele>
        <time>2020-11-11T21:04:41Z</time>
      </trkpt>
      <trkpt lat="28.0520620" lon="-16.7221850">
        <ele>11.9</ele>
        <time>2020-11-11T21:04:42Z</time>
      </trkpt>
      <trkpt lat="28.0520220" lon="-16.7221320">
        <ele>12.9</ele>
        <time>2020-11-11T21:04:43Z</time>
      </trkpt>
      <trkpt lat="28.0520220" lon="-16.7221320">
        <ele>12.9</ele>
        <time>2020-11-11T21:04:44Z</time>
      </trkpt>
      <trkpt lat="28.0519630" lon="-16.7220950">
        <ele>12.9</ele>
        <time>2020-11-11T21:04:45Z</time>
      </trkpt>
      <trkpt lat="28.0519400" lon="-16.7220700">
        <ele>12.9</ele>
        <time>2020-11-11T21:04:46Z</time>
      </trkpt>
      <trkpt lat="28.0519400" lon="-16.7220700">
        <ele>12.9</ele>
        <time>2020-11-11T21:04:47Z</time>
      </trkpt>
      <trkpt lat="28.0519000" lon="-16.7220150">
        <ele>12.9</ele>
        <time>2020-11-11T21:04:48Z</time>
      </trkpt>
      <trkpt lat="28.0519000" lon="-16.7220150">
        <ele>12.9</ele>
        <time>2020-11-11T21:04:49Z</time>
      </trkpt>
      <trkpt lat="28.0518630" lon="-16.7219600">
        <ele>12.9</ele>
        <time>2020-11-11T21:04:50Z</time>
      </trkpt>
      <trkpt lat="28.0518630" lon="-16.7219600">
        <ele>12.9</ele>
        <time>2020-11-11T21:04:51Z</time>
      </trkpt>
      <trkpt lat="28.0518250" lon="-16.7219070">
        <ele>12.9</ele>
        <time>2020-11-11T21:04:52Z</time>
      </trkpt>
      <trkpt lat="28.0518070" lon="-16.7218770">
        <ele>12.9</ele>
        <time>2020-11-11T21:04:53Z</time>
      </trkpt>
      <trkpt lat="28.0518070" lon="-16.7218770">
        <ele>12.9</ele>
        <time>2020-11-11T21:04:54Z</time>
      </trkpt>
      <trkpt lat="28.0517700" lon="-16.7218180">
        <ele>12.9</ele>
        <time>2020-11-11T21:04:55Z</time>
      </trkpt>
      <trkpt lat="28.0517700" lon="-16.7218180">
        <ele>13.9</ele>
        <time>2020-11-11T21:04:56Z</time>
      </trkpt>
      <trkpt lat="28.0517300" lon="-16.7217630">
        <ele>13.9</ele>
        <time>2020-11-11T21:04:57Z</time>
      </trkpt>
      <trkpt lat="28.0517080" lon="-16.7217420">
        <ele>13.9</ele>
        <time>2020-11-11T21:04:58Z</time>
      </trkpt>
      <trkpt lat="28.0517080" lon="-16.7217420">
        <ele>13.9</ele>
        <time>2020-11-11T21:04:59Z</time>
      </trkpt>
      <trkpt lat="28.0516720" lon="-16.7216870">
        <ele>14.9</ele>
        <time>2020-11-11T21:05:00Z</time>
      </trkpt>
      <trkpt lat="28.0516720" lon="-16.7216870">
        <ele>14.9</ele>
        <time>2020-11-11T21:05:01Z</time>
      </trkpt>
      <trkpt lat="28.0516320" lon="-16.7216300">
        <ele>14.9</ele>
        <time>2020-11-11T21:05:02Z</time>
      </trkpt>
      <trkpt lat="28.0516320" lon="-16.7216300">
        <ele>14.9</ele>
        <time>2020-11-11T21:05:03Z</time>
      </trkpt>
      <trkpt lat="28.0515850" lon="-16.7215880">
        <ele>14.9</ele>
        <time>2020-11-11T21:05:04Z</time>
      </trkpt>
      <trkpt lat="28.0515630" lon="-16.7215700">
        <ele>14.9</ele>
        <time>2020-11-11T21:05:05Z</time>
      </trkpt>
      <trkpt lat="28.0515630" lon="-16.7215700">
        <ele>14.9</ele>
        <time>2020-11-11T21:05:06Z</time>
      </trkpt>
      <trkpt lat="28.0515270" lon="-16.7215170">
        <ele>14.9</ele>
        <time>2020-11-11T21:05:07Z</time>
      </trkpt>
      <trkpt lat="28.0515100" lon="-16.7214830">
        <ele>14.9</ele>
        <time>2020-11-11T21:05:08Z</time>
      </trkpt>
      <trkpt lat="28.0515100" lon="-16.7214830">
        <ele>14.9</ele>
        <time>2020-11-11T21:05:09Z</time>
      </trkpt>
      <trkpt lat="28.0514930" lon="-16.7214130">
        <ele>14.9</ele>
        <time>2020-11-11T21:05:10Z</time>
      </trkpt>
      <trkpt lat="28.0514930" lon="-16.7214130">
        <ele>14.9</ele>
        <time>2020-11-11T21:05:11Z</time>
      </trkpt>
      <trkpt lat="28.0514680" lon="-16.7213400">
        <ele>14.9</ele>
        <time>2020-11-11T21:05:12Z</time>
      </trkpt>
      <trkpt lat="28.0514520" lon="-16.7213030">
        <ele>14.9</ele>
        <time>2020-11-11T21:05:13Z</time>
      </trkpt>
      <trkpt lat="28.0514520" lon="-16.7213030">
        <ele>14.9</ele>
        <time>2020-11-11T21:05:14Z</time>
      </trkpt>
      <trkpt lat="28.0514270" lon="-16.7212270">
        <ele>14.9</ele>
        <time>2020-11-11T21:05:15Z</time>
      </trkpt>
      <trkpt lat="28.0514270" lon="-16.7212270">
        <ele>14.9</ele>
        <time>2020-11-11T21:05:16Z</time>
      </trkpt>
      <trkpt lat="28.0513980" lon="-16.7211580">
        <ele>14.9</ele>
        <time>2020-11-11T21:05:17Z</time>
      </trkpt>
      <trkpt lat="28.0513980" lon="-16.7211580">
        <ele>14.9</ele>
        <time>2020-11-11T21:05:18Z</time>
      </trkpt>
      <trkpt lat="28.0513850" lon="-16.7210900">
        <ele>14.9</ele>
        <time>2020-11-11T21:05:19Z</time>
      </trkpt>
      <trkpt lat="28.0513850" lon="-16.7210900">
        <ele>15.9</ele>
        <time>2020-11-11T21:05:20Z</time>
      </trkpt>
      <trkpt lat="28.0513730" lon="-16.7210180">
        <ele>15.9</ele>
        <time>2020-11-11T21:05:21Z</time>
      </trkpt>
      <trkpt lat="28.0513630" lon="-16.7209820">
        <ele>15.9</ele>
        <time>2020-11-11T21:05:22Z</time>
      </trkpt>
      <trkpt lat="28.0513630" lon="-16.7209820">
        <ele>15.9</ele>
        <time>2020-11-11T21:05:23Z</time>
      </trkpt>
      <trkpt lat="28.0513550" lon="-16.7208970">
        <ele>15.9</ele>
        <time>2020-11-11T21:05:24Z</time>
      </trkpt>
      <trkpt lat="28.0513480" lon="-16.7208570">
        <ele>15.9</ele>
        <time>2020-11-11T21:05:25Z</time>
      </trkpt>
      <trkpt lat="28.0513480" lon="-16.7208570">
        <ele>15.9</ele>
        <time>2020-11-11T21:05:26Z</time>
      </trkpt>
      <trkpt lat="28.0513220" lon="-16.7207930">
        <ele>15.9</ele>
        <time>2020-11-11T21:05:27Z</time>
      </trkpt>
      <trkpt lat="28.0513220" lon="-16.7207930">
        <ele>15.9</ele>
        <time>2020-11-11T21:05:28Z</time>
      </trkpt>
      <trkpt lat="28.0512780" lon="-16.7207430">
        <ele>15.9</ele>
        <time>2020-11-11T21:05:29Z</time>
      </trkpt>
      <trkpt lat="28.0512780" lon="-16.7207430">
        <ele>15.9</ele>
        <time>2020-11-11T21:05:30Z</time>
      </trkpt>
      <trkpt lat="28.0512100" lon="-16.7207200">
        <ele>15.9</ele>
        <time>2020-11-11T21:05:31Z</time>
      </trkpt>
      <trkpt lat="28.0512100" lon="-16.7207200">
        <ele>15.9</ele>
        <time>2020-11-11T21:05:32Z</time>
      </trkpt>
      <trkpt lat="28.0511180" lon="-16.7206930">
        <ele>15.9</ele>
        <time>2020-11-11T21:05:33Z</time>
      </trkpt>
      <trkpt lat="28.0511180" lon="-16.7206930">
        <ele>15.9</ele>
        <time>2020-11-11T21:05:34Z</time>
      </trkpt>
      <trkpt lat="28.0510280" lon="-16.7206800">
        <ele>15.9</ele>
        <time>2020-11-11T21:05:35Z</time>
      </trkpt>
      <trkpt lat="28.0510280" lon="-16.7206800">
        <ele>15.9</ele>
        <time>2020-11-11T21:05:36Z</time>
      </trkpt>
      <trkpt lat="28.0509430" lon="-16.7206650">
        <ele>15.9</ele>
        <time>2020-11-11T21:05:37Z</time>
      </trkpt>
      <trkpt lat="28.0509430" lon="-16.7206650">
        <ele>14.9</ele>
        <time>2020-11-11T21:05:38Z</time>
      </trkpt>
      <trkpt lat="28.0508550" lon="-16.7206730">
        <ele>14.9</ele>
        <time>2020-11-11T21:05:39Z</time>
      </trkpt>
      <trkpt lat="28.0508550" lon="-16.7206730">
        <ele>14.9</ele>
        <time>2020-11-11T21:05:40Z</time>
      </trkpt>
      <trkpt lat="28.0507800" lon="-16.7206730">
        <ele>14.9</ele>
        <time>2020-11-11T21:05:41Z</time>
      </trkpt>
      <trkpt lat="28.0507800" lon="-16.7206730">
        <ele>13.9</ele>
        <time>2020-11-11T21:05:42Z</time>
      </trkpt>
      <trkpt lat="28.0506770" lon="-16.7206970">
        <ele>13.9</ele>
        <time>2020-11-11T21:05:43Z</time>
      </trkpt>
      <trkpt lat="28.0506770" lon="-16.7206970">
        <ele>12.9</ele>
        <time>2020-11-11T21:05:44Z</time>
      </trkpt>
      <trkpt lat="28.0505750" lon="-16.7207050">
        <ele>12.9</ele>
        <time>2020-11-11T21:05:45Z</time>
      </trkpt>
      <trkpt lat="28.0505750" lon="-16.7207050">
        <ele>12.9</ele>
        <time>2020-11-11T21:05:46Z</time>
      </trkpt>
      <trkpt lat="28.0504680" lon="-16.7207170">
        <ele>12.9</ele>
        <time>2020-11-11T21:05:47Z</time>
      </trkpt>
      <trkpt lat="28.0504680" lon="-16.7207170">
        <ele>10.9</ele>
        <time>2020-11-11T21:05:48Z</time>
      </trkpt>
      <trkpt lat="28.0503650" lon="-16.7207180">
        <ele>10.9</ele>
        <time>2020-11-11T21:05:49Z</time>
      </trkpt>
      <trkpt lat="28.0503650" lon="-16.7207180">
        <ele>10.9</ele>
        <time>2020-11-11T21:05:50Z</time>
      </trkpt>
      <trkpt lat="28.0502600" lon="-16.7207280">
        <ele>10.9</ele>
        <time>2020-11-11T21:05:51Z</time>
      </trkpt>
      <trkpt lat="28.0502600" lon="-16.7207280">
        <ele>10.9</ele>
        <time>2020-11-11T21:05:52Z</time>
      </trkpt>
      <trkpt lat="28.0501550" lon="-16.7207380">
        <ele>10.9</ele>
        <time>2020-11-11T21:05:53Z</time>
      </trkpt>
      <trkpt lat="28.0501550" lon="-16.7207380">
        <ele>8.9</ele>
        <time>2020-11-11T21:05:54Z</time>
      </trkpt>
      <trkpt lat="28.0500570" lon="-16.7207480">
        <ele>7.9</ele>
        <time>2020-11-11T21:05:55Z</time>
      </trkpt>
      <trkpt lat="28.0500570" lon="-16.7207480">
        <ele>7.9</ele>
        <time>2020-11-11T21:05:56Z</time>
      </trkpt>
      <trkpt lat="28.0499620" lon="-16.7207580">
        <ele>7.9</ele>
        <time>2020-11-11T21:05:57Z</time>
      </trkpt>
      <trkpt lat="28.0499150" lon="-16.7207620">
        <ele>7.9</ele>
        <time>2020-11-11T21:05:58Z</time>
      </trkpt>
      <trkpt lat="28.0499150" lon="-16.7207620">
        <ele>6.9</ele>
        <time>2020-11-11T21:05:59Z</time>
      </trkpt>
      <trkpt lat="28.0498250" lon="-16.7207730">
        <ele>6.9</ele>
        <time>2020-11-11T21:06:00Z</time>
      </trkpt>
      <trkpt lat="28.0497800" lon="-16.7207820">
        <ele>6.9</ele>
        <time>2020-11-11T21:06:01Z</time>
      </trkpt>
      <trkpt lat="28.0497800" lon="-16.7207820">
        <ele>5.9</ele>
        <time>2020-11-11T21:06:02Z</time>
      </trkpt>
      <trkpt lat="28.0496930" lon="-16.7207930">
        <ele>5.9</ele>
        <time>2020-11-11T21:06:03Z</time>
      </trkpt>
      <trkpt lat="28.0496930" lon="-16.7207930">
        <ele>4.9</ele>
        <time>2020-11-11T21:06:04Z</time>
      </trkpt>
      <trkpt lat="28.0496070" lon="-16.7208000">
        <ele>4.9</ele>
        <time>2020-11-11T21:06:05Z</time>
      </trkpt>
      <trkpt lat="28.0496070" lon="-16.7208000">
        <ele>4.9</ele>
        <time>2020-11-11T21:06:06Z</time>
      </trkpt>
      <trkpt lat="28.0495420" lon="-16.7207870">
        <ele>4.9</ele>
        <time>2020-11-11T21:06:07Z</time>
      </trkpt>
      <trkpt lat="28.0495420" lon="-16.7207870">
        <ele>3.9</ele>
        <time>2020-11-11T21:06:08Z</time>
      </trkpt>
      <trkpt lat="28.0495330" lon="-16.7207400">
        <ele>3.9</ele>
        <time>2020-11-11T21:06:09Z</time>
      </trkpt>
      <trkpt lat="28.0495330" lon="-16.7207400">
        <ele>3.9</ele>
        <time>2020-11-11T21:06:10Z</time>
      </trkpt>
      <trkpt lat="28.0495670" lon="-16.7207200">
        <ele>3.9</ele>
        <time>2020-11-11T21:06:11Z</time>
      </trkpt>
      <trkpt lat="28.0495670" lon="-16.7207200">
        <ele>3.9</ele>
        <time>2020-11-11T21:06:12Z</time>
      </trkpt>
      <trkpt lat="28.0496070" lon="-16.7207120">
        <ele>3.9</ele>
        <time>2020-11-11T21:06:13Z</time>
      </trkpt>
      <trkpt lat="28.0496070" lon="-16.7207120">
        <ele>3.9</ele>
        <time>2020-11-11T21:06:14Z</time>
      </trkpt>
      <trkpt lat="28.0496520" lon="-16.7207130">
        <ele>3.9</ele>
        <time>2020-11-11T21:06:15Z</time>
      </trkpt>
      <trkpt lat="28.0496520" lon="-16.7207130">
        <ele>3.9</ele>
        <time>2020-11-11T21:06:16Z</time>
      </trkpt>
      <trkpt lat="28.0497020" lon="-16.7207170">
        <ele>3.9</ele>
        <time>2020-11-11T21:06:17Z</time>
      </trkpt>
      <trkpt lat="28.0497020" lon="-16.7207170">
        <ele>3.9</ele>
        <time>2020-11-11T21:06:18Z</time>
      </trkpt>
      <trkpt lat="28.0497450" lon="-16.7207320">
        <ele>3.9</ele>
        <time>2020-11-11T21:06:19Z</time>
      </trkpt>
      <trkpt lat="28.0497450" lon="-16.7207320">
        <ele>3.9</ele>
        <time>2020-11-11T21:06:20Z</time>
      </trkpt>
      <trkpt lat="28.0497800" lon="-16.7207600">
        <ele>4.9</ele>
        <time>2020-11-11T21:06:21Z</time>
      </trkpt>
      <trkpt lat="28.0497800" lon="-16.7207600">
        <ele>4.9</ele>
        <time>2020-11-11T21:06:22Z</time>
      </trkpt>
      <trkpt lat="28.0498150" lon="-16.7207780">
        <ele>4.9</ele>
        <time>2020-11-11T21:06:23Z</time>
      </trkpt>
      <trkpt lat="28.0498150" lon="-16.7207780">
        <ele>4.9</ele>
        <time>2020-11-11T21:06:24Z</time>
      </trkpt>
      <trkpt lat="28.0498570" lon="-16.7207720">
        <ele>4.9</ele>
        <time>2020-11-11T21:06:25Z</time>
      </trkpt>
      <trkpt lat="28.0498570" lon="-16.7207720">
        <ele>4.9</ele>
        <time>2020-11-11T21:06:26Z</time>
      </trkpt>
      <trkpt lat="28.0499020" lon="-16.7207380">
        <ele>4.9</ele>
        <time>2020-11-11T21:06:27Z</time>
      </trkpt>
      <trkpt lat="28.0499020" lon="-16.7207380">
        <ele>4.9</ele>
        <time>2020-11-11T21:06:28Z</time>
      </trkpt>
      <trkpt lat="28.0499350" lon="-16.7207130">
        <ele>5.9</ele>
        <time>2020-11-11T21:06:29Z</time>
      </trkpt>
      <trkpt lat="28.0499350" lon="-16.7207130">
        <ele>5.9</ele>
        <time>2020-11-11T21:06:30Z</time>
      </trkpt>
      <trkpt lat="28.0499580" lon="-16.7206870">
        <ele>5.9</ele>
        <time>2020-11-11T21:06:31Z</time>
      </trkpt>
      <trkpt lat="28.0499580" lon="-16.7206870">
        <ele>5.9</ele>
        <time>2020-11-11T21:06:32Z</time>
      </trkpt>
      <trkpt lat="28.0499900" lon="-16.7206750">
        <ele>5.9</ele>
        <time>2020-11-11T21:06:33Z</time>
      </trkpt>
      <trkpt lat="28.0500050" lon="-16.7206700">
        <ele>5.9</ele>
        <time>2020-11-11T21:06:34Z</time>
      </trkpt>
      <trkpt lat="28.0500050" lon="-16.7206700">
        <ele>5.9</ele>
        <time>2020-11-11T21:06:35Z</time>
      </trkpt>
      <trkpt lat="28.0500280" lon="-16.7206780">
        <ele>5.9</ele>
        <time>2020-11-11T21:06:36Z</time>
      </trkpt>
      <trkpt lat="28.0500280" lon="-16.7206780">
        <ele>5.9</ele>
        <time>2020-11-11T21:06:37Z</time>
      </trkpt>
      <trkpt lat="28.0500530" lon="-16.7207080">
        <ele>5.9</ele>
        <time>2020-11-11T21:06:38Z</time>
      </trkpt>
      <trkpt lat="28.0500530" lon="-16.7207080">
        <ele>5.9</ele>
        <time>2020-11-11T21:06:39Z</time>
      </trkpt>
      <trkpt lat="28.0500270" lon="-16.7207370">
        <ele>5.9</ele>
        <time>2020-11-11T21:06:40Z</time>
      </trkpt>
      <trkpt lat="28.0500270" lon="-16.7207370">
        <ele>5.9</ele>
        <time>2020-11-11T21:06:41Z</time>
      </trkpt>
      <trkpt lat="28.0499870" lon="-16.7207670">
        <ele>5.9</ele>
        <time>2020-11-11T21:06:42Z</time>
      </trkpt>
      <trkpt lat="28.0499870" lon="-16.7207670">
        <ele>5.9</ele>
        <time>2020-11-11T21:06:43Z</time>
      </trkpt>
      <trkpt lat="28.0499770" lon="-16.7207950">
        <ele>5.9</ele>
        <time>2020-11-11T21:06:44Z</time>
      </trkpt>
      <trkpt lat="28.0499770" lon="-16.7207950">
        <ele>5.9</ele>
        <time>2020-11-11T21:06:45Z</time>
      </trkpt>
      <trkpt lat="28.0499800" lon="-16.7208070">
        <ele>5.9</ele>
        <time>2020-11-11T21:06:46Z</time>
      </trkpt>
      <trkpt lat="28.0499900" lon="-16.7208150">
        <ele>5.9</ele>
        <time>2020-11-11T21:06:47Z</time>
      </trkpt>
      <trkpt lat="28.0499900" lon="-16.7208150">
        <ele>5.9</ele>
        <time>2020-11-11T21:06:48Z</time>
      </trkpt>
      <trkpt lat="28.0499920" lon="-16.7208270">
        <ele>5.9</ele>
        <time>2020-11-11T21:06:49Z</time>
      </trkpt>
      <trkpt lat="28.0499920" lon="-16.7208270">
        <ele>5.9</ele>
        <time>2020-11-11T21:06:50Z</time>
      </trkpt>
      <trkpt lat="28.0499880" lon="-16.7208300">
        <ele>5.9</ele>
        <time>2020-11-11T21:08:32Z</time>
      </trkpt>
      <trkpt lat="28.0499880" lon="-16.7208300">
        <ele>5.9</ele>
        <time>2020-11-11T21:08:33Z</time>
      </trkpt>
    </trkseg>
  </trk>
</gpx>
